{
  "fields": [{"id":"_id","type":"int"},{"id":"Fecha & Hora","type":"timestamp"},{"id":"PM10 (ug/m3)","type":"text"},{"id":"SO2  (ug/m3)","type":"text"},{"id":"NO2  (ug/m3)","type":"text"},{"id":"CO  (ug/m3)","type":"text"},{"id":"O3  (ug/m3)","type":"text"},{"id":"H2S (ug/m3)","type":"text"},{"id":"Vel Viento  (m/s)","type":"text"},{"id":"Dir Viento (Grados)","type":"text"},{"id":"Temperatura (C°)","type":"text"},{"id":"Humedad (%)","type":"text"},{"id":"Radiacion Solar (Watt/M2)","type":"text"},{"id":"Lluvia (mm)","type":"text"}],
  "records": [
    [1,"2010-05-06T20:00:00","ND","ND","ND","ND","ND","ND","0.3","284.2","ND","ND","ND","0"],
    [2,"2010-05-06T21:00:00","ND","ND","ND","ND","ND","ND","0.2","300.6","24.8","77","ND","0"],
    [3,"2010-05-06T22:00:00","ND","ND","ND","ND","5.24","ND","0.2","169.3","24.6","78.2","ND","0"],
    [4,"2010-05-06T23:00:00","ND","ND","ND","ND","6.02","ND","0","276.9","24","81.9","ND","0"],
    [5,"2010-05-07T00:00:00","ND","ND","ND","ND","4.60","ND","0.1","355.2","23.4","84.3","ND","0"],
    [6,"2010-05-07T01:00:00","ND","ND","ND","ND","5.86","ND","0.1","345.9","22.8","86.6","ND","0"],
    [7,"2010-05-07T02:00:00","ND","ND","ND","ND","3.70","ND","0","273.2","22.4","88.6","ND","0"],
    [8,"2010-05-07T03:00:00","ND","ND","ND","ND","3.70","ND","0.2","5","22.2","89.1","ND","0"],
    [9,"2010-05-07T04:00:00","ND","ND","ND","ND","3.34","ND","0.1","264.1","21.7","89.2","ND","0"],
    [10,"2010-05-07T05:00:00","ND","ND","ND","ND","2.50","ND","0.1","345.9","21.5","90","ND","0"],
    [11,"2010-05-07T06:00:00","ND","ND","ND","ND","2.37","ND","0.1","139.7","21.4","90.4","ND","0"],
    [12,"2010-05-07T07:00:00","ND","ND","ND","ND","2.11","ND","0","210.5","22","89.5","ND","0"],
    [13,"2010-05-07T08:00:00","ND","ND","ND","ND","2.93","ND","0.2","72.7","23.8","81.3","ND","0"],
    [14,"2010-05-07T09:00:00","ND","ND","ND","ND","4.61","ND","0.8","121.1","25.3","73.8","ND","0"],
    [15,"2010-05-07T10:00:00","ND","ND","ND","ND","4.11","ND","0.8","117.1","26.7","67.9","ND","0"],
    [16,"2010-05-07T11:00:00","ND","ND","ND","ND","18.20","ND","0.7","156","28","62.6","ND","0"],
    [17,"2010-05-07T12:00:00","ND","ND","ND","ND","61.25","ND","0.9","111.7","28.7","60.6","ND","0"],
    [18,"2010-05-07T13:00:00","ND","ND","ND","ND","80.76","ND","0.7","123","29.4","58","ND","0"],
    [19,"2010-05-07T14:00:00","ND","ND","ND","ND","84.87","ND","0.8","47.1","30","57.4","ND","0"],
    [20,"2010-05-07T15:00:00","ND","ND","ND","ND","93.50","ND","1.3","26.7","29.7","57.7","ND","0"],
    [21,"2010-05-07T16:00:00","ND","ND","ND","ND","117.45","ND","2.3","249.4","29.7","55","ND","0"],
    [22,"2010-05-07T17:00:00","ND","ND","ND","ND","86.37","ND","2.2","258.4","30","53.7","ND","0"],
    [23,"2010-05-07T18:00:00","ND","ND","ND","ND","21.91","ND","1.3","252.4","29.1","54.6","ND","0"],
    [24,"2010-05-07T19:00:00","ND","ND","ND","ND","22.68","ND","0.4","239.5","28.5","55.8","ND","0"],
    [25,"2010-05-07T20:00:00","ND","ND","ND","ND","16.56","ND","0.2","82.1","28.1","57.6","ND","0"],
    [26,"2010-05-07T21:00:00","ND","ND","ND","ND","8.57","ND","0.8","153.7","27.6","62","ND","0"],
    [27,"2010-05-07T22:00:00","ND","ND","ND","ND","6.14","ND","0.3","198","27.1","64.8","ND","0"],
    [28,"2010-05-07T23:00:00","ND","ND","ND","ND","3.95","ND","1.1","119.1","26.4","68.9","ND","0"],
    [29,"2010-05-08T00:00:00","ND","ND","ND","ND","6.45","ND","0.5","162.1","25.7","73.7","ND","0"],
    [30,"2010-05-08T01:00:00","ND","ND","ND","ND","5.76","ND","0.2","312.9","25.2","76.4","ND","0"],
    [31,"2010-05-08T02:00:00","ND","ND","ND","ND","2.26","ND","0.2","44.6","24.2","84.2","ND","0"],
    [32,"2010-05-08T03:00:00","ND","ND","ND","ND","1.72","ND","0.6","241.2","23.8","85.3","ND","0"],
    [33,"2010-05-08T04:00:00","ND","ND","ND","ND","3.03","ND","0.2","234","23.9","83.5","ND","0"],
    [34,"2010-05-08T05:00:00","ND","ND","ND","ND","2.37","ND","0.6","28.9","23.8","83.2","ND","0"],
    [35,"2010-05-08T06:00:00","ND","ND","ND","ND","1.02","ND","0.2","58.2","23.1","88.8","ND","0"],
    [36,"2010-05-08T07:00:00","ND","ND","ND","ND","1.25","ND","0.1","323.8","23","88.3","ND","0"],
    [37,"2010-05-08T08:00:00","ND","ND","ND","ND","2.51","ND","0.8","34.1","23.9","83.9","ND","0"],
    [38,"2010-05-08T09:00:00","ND","ND","ND","ND","3.44","ND","1.2","2","24.8","78.1","ND","0"],
    [39,"2010-05-08T10:00:00","ND","ND","ND","ND","4.90","ND","1.5","33.9","26.8","67.4","ND","0"],
    [40,"2010-05-08T11:00:00","ND","ND","ND","ND","9.36","ND","1.4","42","27.5","66.3","ND","0"],
    [41,"2010-05-08T12:00:00","ND","ND","ND","ND","22.58","ND","0.7","54.3","28.1","65","ND","0"],
    [42,"2010-05-08T13:00:00","ND","ND","ND","ND","47.86","ND","0.6","38.5","28.7","63.1","ND","0"],
    [43,"2010-05-08T14:00:00","ND","ND","ND","ND","65.60","ND","1.3","48.6","28.8","63.4","ND","0"],
    [44,"2010-05-08T15:00:00","ND","ND","ND","ND","96.85","ND","0.5","4.3","29.6","60.3","ND","0"],
    [45,"2010-05-08T16:00:00","ND","ND","ND","ND","96.64","ND","0.6","357.5","30.6","58.4","ND","0"],
    [46,"2010-05-08T17:00:00","ND","ND","ND","ND","114.96","ND","1","257.7","30.5","55.9","ND","0"],
    [47,"2010-05-08T18:00:00","ND","ND","ND","ND","128.27","ND","1.7","233.3","29.3","54.9","ND","0"],
    [48,"2010-05-08T19:00:00","ND","ND","ND","ND","90.91","ND","0.5","267.3","28.1","59.7","ND","0"],
    [49,"2010-05-08T20:00:00","ND","ND","ND","ND","14.95","ND","0.3","241.8","27.2","65.5","ND","0"],
    [50,"2010-05-08T21:00:00","ND","ND","ND","ND","12.34","ND","0.1","30.3","26.8","65.7","ND","0"],
    [51,"2010-05-08T22:00:00","ND","ND","ND","ND","5.39","ND","0.6","169.6","26.3","70","ND","0"],
    [52,"2010-05-08T23:00:00","ND","ND","ND","ND","5.03","ND","0.2","36.6","25.4","74.8","ND","0"],
    [53,"2010-05-09T00:00:00","ND","ND","ND","ND","5.72","ND","0.1","243.1","25.1","75.4","ND","0"],
    [54,"2010-05-09T01:00:00","ND","ND","ND","ND","3.85","ND","0.4","56.2","25","77.5","ND","0"],
    [55,"2010-05-09T02:00:00","ND","ND","ND","ND","5.16","ND","0.2","38.5","24.3","80.1","ND","0"],
    [56,"2010-05-09T03:00:00","ND","ND","ND","ND","4.50","ND","0.6","161.5","24.5","79.5","ND","0"],
    [57,"2010-05-09T04:00:00","ND","ND","ND","ND","4.19","ND","1.3","197.8","23.6","87.2","ND","0"],
    [58,"2010-05-09T05:00:00","ND","ND","ND","ND","5.33","ND","0.9","19","23.5","86.8","ND","0"],
    [59,"2010-05-09T06:00:00","ND","ND","ND","ND","5.99","ND","0.6","41.2","22.9","89.8","ND","0"],
    [60,"2010-05-09T07:00:00","ND","ND","ND","ND","4.25","ND","0.2","319.7","23","89.5","ND","0"],
    [61,"2010-05-09T08:00:00","ND","ND","ND","ND","4.03","ND","0.3","176.8","23.9","84.4","ND","0"],
    [62,"2010-05-09T09:00:00","ND","ND","ND","ND","4.54","ND","0.4","56.2","26","73.4","ND","0"],
    [63,"2010-05-09T10:00:00","ND","ND","ND","ND","7.74","ND","1.2","132.4","27.2","67.7","ND","0"],
    [64,"2010-05-09T11:00:00","ND","ND","ND","ND","18.19","ND","1.4","148.9","27.4","66.5","ND","0"],
    [65,"2010-05-09T12:00:00","ND","ND","ND","ND","32.80","ND","0.8","204.4","28.7","61.3","ND","0"],
    [66,"2010-05-09T13:00:00","ND","ND","ND","ND","37.15","ND","1.5","141.3","30.1","56.9","ND","0"],
    [67,"2010-05-09T14:00:00","ND","ND","ND","ND","72.11","ND","1","141.6","30.8","55.7","ND","0"],
    [68,"2010-05-09T15:00:00","ND","ND","ND","ND","68.04","ND","1.4","72.6","30.5","56.6","ND","0"],
    [69,"2010-05-09T16:00:00","ND","ND","ND","ND","73.79","ND","0.7","12","30.1","58.2","ND","0"],
    [70,"2010-05-09T17:00:00","ND","ND","ND","ND","88.24","ND","0.8","336.6","30.1","58.5","ND","0"],
    [71,"2010-05-09T18:00:00","ND","ND","ND","ND","80.28","ND","0.9","259.5","29.8","58.1","ND","0"],
    [72,"2010-05-09T19:00:00","ND","ND","ND","ND","67.00","ND","0.3","260.2","28.4","61.4","ND","0"],
    [73,"2010-05-09T20:00:00","ND","ND","ND","ND","46.15","ND","0.7","252.4","27.8","62.1","ND","0"],
    [74,"2010-05-09T21:00:00","ND","ND","ND","ND","15.03","ND","0.4","144.4","27.1","66.5","ND","0"],
    [75,"2010-05-09T22:00:00","ND","ND","ND","ND","12.55","ND","1.1","150.7","27.5","64.4","ND","0"],
    [76,"2010-05-09T23:00:00","ND","ND","ND","ND","5.11","ND","0.2","69.8","25.9","74.3","ND","0"],
    [77,"2010-05-10T00:00:00","ND","ND","ND","ND","5.81","ND","0.2","292.3","25.8","74.7","ND","0"],
    [78,"2010-05-10T01:00:00","ND","ND","ND","ND","4.64","ND","0.4","109.1","25.7","76","ND","0"],
    [79,"2010-05-10T02:00:00","ND","ND","ND","ND","4.25","ND","0.3","75.4","25.3","78.2","ND","0"],
    [80,"2010-05-10T03:00:00","ND","ND","ND","ND","5.26","ND","0.3","47","24.6","82","ND","0"],
    [81,"2010-05-10T04:00:00","ND","ND","ND","ND","6.15","ND","2.4","247.5","24.3","75.8","ND","0"],
    [82,"2010-05-10T05:00:00","ND","ND","ND","ND","4.23","ND","0.8","21.7","24.2","76.7","ND","0"],
    [83,"2010-05-10T06:00:00","ND","ND","ND","ND","ND","ND","1.3","340.5","23.1","83","ND","0"],
    [84,"2010-05-10T07:00:00","ND","ND","ND","ND","ND","ND","0.5","84.9","23.1","84.8","ND","0"],
    [85,"2010-05-10T08:00:00","ND","ND","ND","ND","ND","ND","0.6","150.7","24.1","81.5","ND","0"],
    [86,"2010-05-10T09:00:00","ND","ND","ND","ND","ND","ND","0.5","130.4","25.9","72.8","ND","0"],
    [87,"2010-05-10T10:00:00","ND","ND","ND","ND","ND","ND","0.9","99.3","27.4","67","ND","0"],
    [88,"2010-05-10T11:00:00","ND","ND","ND","ND","ND","ND","1","86.4","27.6","67","ND","0"],
    [89,"2010-05-10T12:00:00","ND","ND","ND","ND","ND","ND","1.7","137.1","28","64.7","ND","0"],
    [90,"2010-05-10T13:00:00","ND","ND","ND","ND","ND","ND","1.7","163.4","28.1","65.1","ND","0"],
    [91,"2010-05-10T14:00:00","ND","ND","ND","ND","ND","ND","2","176.7","28.4","62.8","ND","0"],
    [92,"2010-05-10T15:00:00","ND","ND","ND","ND","ND","ND","1.1","193.1","29.6","56.1","ND","0"],
    [93,"2010-05-10T16:00:00","ND","ND","ND","ND","ND","ND","0.4","262.8","30.2","54.9","ND","0"],
    [94,"2010-05-10T17:00:00","ND","ND","ND","ND","ND","ND","1.8","35.2","29.8","58.8","ND","0"],
    [95,"2010-05-10T18:00:00","ND","ND","ND","ND","ND","ND","0.6","242.9","28.8","58.9","ND","0"],
    [96,"2010-05-10T19:00:00","ND","ND","ND","ND","ND","ND","0.6","237.9","27.9","59.9","ND","0"],
    [97,"2010-05-10T20:00:00","ND","ND","ND","ND","ND","ND","0.4","258.7","27.1","64.5","ND","0"],
    [98,"2010-05-10T21:00:00","ND","ND","ND","ND","ND","ND","0.1","25.6","26.5","67","ND","0"],
    [99,"2010-05-10T22:00:00","ND","ND","ND","ND","ND","ND","0.4","117.5","26","71.2","ND","0"],
    [100,"2010-05-10T23:00:00","ND","ND","ND","ND","ND","ND","0.3","119.3","25.4","72.9","ND","0"],
    [101,"2010-05-11T00:00:00","ND","ND","ND","ND","ND","ND","0.1","201.9","24.7","77.3","ND","0"],
    [102,"2010-05-11T01:00:00","ND","ND","ND","ND","ND","ND","0.2","46.3","24.2","79.9","ND","0"],
    [103,"2010-05-11T02:00:00","ND","ND","ND","ND","ND","ND","0.2","225.3","24","81","ND","0"],
    [104,"2010-05-11T03:00:00","ND","ND","ND","ND","ND","ND","0.5","30.7","23.4","84.7","ND","0"],
    [105,"2010-05-11T04:00:00","ND","ND","ND","ND","ND","ND","0.2","280.8","23.3","84.3","ND","0"],
    [106,"2010-05-11T05:00:00","ND","ND","ND","ND","ND","ND","0.1","180.2","23.4","84.1","ND","0"],
    [107,"2010-05-11T06:00:00","ND","ND","ND","ND","ND","ND","0.1","318.7","22.5","88.5","ND","0"],
    [108,"2010-05-11T07:00:00","ND","ND","ND","ND","ND","ND","0.7","28.3","22.5","87.6","ND","0"],
    [109,"2010-05-11T08:00:00","ND","ND","ND","ND","ND","ND","0.6","51.8","23.3","83.9","ND","0"],
    [110,"2010-05-11T09:00:00","ND","ND","ND","ND","ND","ND","0.5","36.9","24.6","79.3","ND","0"],
    [111,"2010-05-11T10:00:00","ND","ND","ND","ND","ND","ND","0.8","74.5","26.6","70.1","ND","0"],
    [112,"2010-05-11T11:00:00","ND","ND","ND","ND","ND","ND","1.2","38.3","27.9","65","ND","0"],
    [113,"2010-05-11T12:00:00","ND","ND","ND","ND","ND","ND","1.3","29.7","28.9","62","ND","0"],
    [114,"2010-05-11T13:00:00","ND","ND","ND","ND","ND","ND","1.2","23","29.3","59.8","ND","0"],
    [115,"2010-05-11T14:00:00","ND","ND","ND","ND","ND","ND","0.3","6.1","30.2","57.1","ND","0"],
    [116,"2010-05-11T15:00:00","ND","ND","ND","ND","ND","ND","1.1","128.2","30.3","57.2","ND","0"],
    [117,"2010-05-11T16:00:00","ND","ND","ND","ND","ND","ND","2.2","129.8","29.5","62","ND","0"],
    [118,"2010-05-11T17:00:00","ND","ND","ND","ND","ND","ND","1.9","190.2","29","61","ND","0"],
    [119,"2010-05-11T18:00:00","ND","ND","ND","ND","ND","ND","1.2","13.7","27.1","61.4","ND","0"],
    [120,"2010-05-11T19:00:00","ND","ND","ND","ND","ND","ND","0.9","52","25.1","70.9","ND","0"],
    [121,"2010-05-11T20:00:00","ND","ND","ND","ND","ND","ND","0.6","124.2","25","71.3","ND","0"],
    [122,"2010-05-11T21:00:00","ND","ND","ND","ND","ND","ND","0.4","36.4","24.1","76.6","ND","0"],
    [123,"2010-05-11T22:00:00","ND","ND","ND","ND","ND","ND","0.2","15","23.6","80.1","ND","0"],
    [124,"2010-05-11T23:00:00","ND","ND","ND","ND","ND","ND","0.2","325.4","23.8","80.6","ND","0"],
    [125,"2010-05-12T00:00:00","ND","ND","ND","ND","ND","ND","0.2","210.8","24.1","79","ND","0"],
    [126,"2010-05-12T01:00:00","ND","ND","ND","ND","ND","ND","0.1","274.4","24.2","80.4","ND","0"],
    [127,"2010-05-12T02:00:00","ND","ND","ND","ND","ND","ND","0.2","35.1","23.7","85.6","ND","0"],
    [128,"2010-05-12T03:00:00","ND","ND","ND","ND","ND","ND","1.2","8.5","22.4","92.2","ND","1.52"],
    [129,"2010-05-12T04:00:00","ND","ND","ND","ND","ND","ND","0.6","37","21.8","95.8","ND","1.52"],
    [130,"2010-05-12T05:00:00","ND","ND","ND","ND","ND","ND","0.6","76.1","21.5","94.6","ND","0.25"],
    [131,"2010-05-12T06:00:00","ND","ND","ND","ND","ND","ND","0.3","126.6","21.3","93.6","ND","0"],
    [132,"2010-05-12T07:00:00","ND","ND","ND","ND","ND","ND","0.4","167.5","21.6","92.8","ND","0"],
    [133,"2010-05-12T08:00:00","ND","ND","ND","ND","ND","ND","0.4","66","21.9","92.6","ND","0.25"],
    [134,"2010-05-12T09:00:00","ND","ND","ND","ND","ND","ND","0.3","68.8","22.5","90.2","ND","0"],
    [135,"2010-05-12T10:00:00","ND","ND","ND","ND","ND","ND","0.7","102.8","23.8","85.9","ND","0"],
    [136,"2010-05-12T11:00:00","ND","ND","ND","ND","ND","ND","0.7","54.7","24.3","83.9","ND","0"],
    [137,"2010-05-12T12:00:00","ND","ND","ND","ND","ND","ND","1.1","41.1","24.3","84.1","ND","0"],
    [138,"2010-05-12T13:00:00","ND","ND","ND","ND","ND","ND","0.1","62.5","25.1","80.5","ND","0"],
    [139,"2010-05-12T14:00:00","ND","ND","ND","ND","ND","ND","0.4","135.9","26.4","73.7","ND","0"],
    [140,"2010-05-12T15:00:00","ND","ND","ND","ND","ND","ND","0.7","38.6","26.9","71.5","ND","0"],
    [141,"2010-05-12T16:00:00","ND","ND","ND","ND","ND","ND","0.9","50.6","27.1","69.6","ND","0"],
    [142,"2010-05-12T17:00:00","ND","ND","ND","ND","ND","ND","0.1","214","27.5","65.7","ND","0"],
    [143,"2010-05-12T18:00:00","ND","ND","ND","ND","ND","ND","0.4","32.9","27.1","66.1","ND","0"],
    [144,"2010-05-12T19:00:00","ND","ND","ND","ND","ND","ND","0.6","251.5","25.8","77.5","ND","0"],
    [145,"2010-05-12T20:00:00","ND","ND","ND","ND","ND","ND","0.3","279.3","25.4","77.6","ND","0"],
    [146,"2010-05-12T21:00:00","ND","ND","ND","ND","ND","ND","0.1","232.9","25.3","78","ND","0"],
    [147,"2010-05-12T22:00:00","ND","ND","ND","ND","ND","ND","0.1","286.9","24.9","81","ND","0"],
    [148,"2010-05-12T23:00:00","ND","ND","ND","ND","ND","ND","0.3","164.2","24.2","82.9","ND","0"],
    [149,"2010-05-13T00:00:00","ND","ND","ND","ND","ND","ND","0.7","239.5","23.6","84","ND","0"],
    [150,"2010-05-13T01:00:00","ND","ND","ND","ND","ND","ND","0.5","196","23.8","83.2","ND","0"],
    [151,"2010-05-13T02:00:00","ND","ND","ND","ND","ND","ND","0.2","204.3","23.5","85.4","ND","0"],
    [152,"2010-05-13T03:00:00","ND","ND","ND","ND","ND","ND","0.3","312.4","22.8","87.1","ND","0"],
    [153,"2010-05-13T04:00:00","ND","ND","ND","ND","ND","ND","0.5","16.4","22.3","89.4","ND","0"],
    [154,"2010-05-13T05:00:00","ND","ND","ND","ND","ND","ND","0.1","7.1","21.9","90.8","ND","0"],
    [155,"2010-05-13T06:00:00","ND","ND","ND","ND","ND","ND","0.1","14.6","21.9","91.6","ND","0"],
    [156,"2010-05-13T07:00:00","ND","ND","ND","ND","ND","ND","0","43.6","22.3","89.6","ND","0"],
    [157,"2010-05-13T08:00:00","ND","ND","ND","ND","ND","ND","0.1","23.4","23.9","82.6","ND","0"],
    [158,"2010-05-13T09:00:00","ND","ND","ND","ND","ND","ND","0.9","46.5","24.9","80.8","ND","0"],
    [159,"2010-05-13T10:00:00","ND","ND","ND","ND","ND","ND","0.1","122.6","26.6","70.5","ND","0"],
    [160,"2010-05-13T11:00:00","ND","ND","ND","ND","ND","ND","0.7","299.8","27.7","64.4","ND","0"],
    [161,"2010-05-13T12:00:00","ND","ND","ND","ND","ND","ND","1","44.3","28.8","60.9","ND","0"],
    [162,"2010-05-13T13:00:00","ND","ND","ND","ND","ND","ND","1.2","14.6","30","56.7","ND","0"],
    [163,"2010-05-13T14:00:00","ND","ND","ND","ND","ND","ND","1.7","61.6","30.6","55.6","ND","0"],
    [164,"2010-05-13T15:00:00","ND","ND","ND","ND","ND","ND","1.6","31.7","31.3","53.4","ND","0"],
    [165,"2010-05-13T16:00:00","ND","ND","ND","ND","ND","ND","1.4","292.6","31.9","50.4","ND","0"],
    [166,"2010-05-13T17:00:00","ND","ND","ND","ND","ND","ND","2.6","262.5","31","51","310.2","0"],
    [167,"2010-05-13T18:00:00","ND","ND","ND","ND","ND","ND","0.9","265","29.9","53.4","37.6","0"],
    [168,"2010-05-13T19:00:00","ND","ND","ND","ND","ND","ND","0.4","238.6","29.3","54.3","1.7","0"],
    [169,"2010-05-13T20:00:00","ND","ND","ND","ND","ND","ND","0.9","140.6","28.7","55.4","0","0"],
    [170,"2010-05-13T21:00:00","ND","ND","ND","ND","18.40","ND","1.6","148.7","27.3","63.5","0","0"],
    [171,"2010-05-13T22:00:00","ND","ND","ND","ND","11.00","ND","1.5","204.7","27.1","62.8","0","0"],
    [172,"2010-05-13T23:00:00","ND","4.59","ND","1718.98","5.06","ND","0.6","339.5","25.7","73.1","0","0"],
    [173,"2010-05-14T00:00:00","ND","ND","ND","1251.65","8.77","ND","0.1","276.5","25.7","73","0","0"],
    [174,"2010-05-14T01:00:00","ND","ND","ND","1607.62","5.39","ND","0.4","50.2","25.1","76.5","0","0"],
    [175,"2010-05-14T02:00:00","ND","ND","ND","1627.31","4.53","ND","0.6","353.8","24","82.1","0","0"],
    [176,"2010-05-14T03:00:00","ND","ND","ND","1472.87","4.36","ND","0.4","315.8","23.7","83","0","0"],
    [177,"2010-05-14T04:00:00","ND","ND","ND","1186.23","4.61","ND","0","342.7","23.6","83.1","0","0"],
    [178,"2010-05-14T05:00:00","ND","ND","ND","1106.02","4.55","ND","0.1","205.3","23.5","83","0","0"],
    [179,"2010-05-14T06:00:00","ND","ND","ND","1208.23","4.47","ND","0.3","18","23","86.2","0.4","0"],
    [180,"2010-05-14T07:00:00","ND","ND","ND","1172.06","3.78","ND","0.1","328.1","22.9","86.9","49.2","0"],
    [181,"2010-05-14T08:00:00","ND","ND","ND","1296.79","3.51","ND","0.4","33.2","24","81.5","236.2","0"],
    [182,"2010-05-14T09:00:00","ND","ND","ND","1598.47","5.01","ND","0.9","61.8","25.8","73.4","497.1","0"],
    [183,"2010-05-14T10:00:00","ND","0.97","ND","1941.27","8.80","ND","1.1","39.5","27.4","67.4","773.1","0"],
    [184,"2010-05-14T11:00:00","ND","15.13","ND","1339.61","24.27","ND","1.3","116.9","28.7","61","656","0"],
    [185,"2010-05-14T12:00:00","ND","20.67","ND","1113.44","39.14","ND","0.6","122.7","29.8","56.4","706","0"],
    [186,"2010-05-14T13:00:00","ND","14.11","ND","1024.37","58.06","ND","0.8","324.3","30.6","54.6","797.8","0"],
    [187,"2010-05-14T14:00:00","ND","4.99","ND","1015.41","94.28","ND","1.6","0.4","31.3","52.7","738.1","0"],
    [188,"2010-05-14T15:00:00","ND","0.67","ND","1076.24","108.83","ND","1.7","322.8","31.9","49.2","670.9","0"],
    [189,"2010-05-14T16:00:00","ND","15.42","ND","972.87","106.63","ND","2.8","266.7","32.1","47.1","572.5","0"],
    [190,"2010-05-14T17:00:00","ND","ND","ND","809.30","58.75","ND","2.8","266.9","31.6","47.4","351.9","0"],
    [191,"2010-05-14T18:00:00","ND","4.37","ND","819.69","39.68","ND","2.1","257.2","30.2","50.8","76.5","0"],
    [192,"2010-05-14T19:00:00","ND","4.29","ND","839.23","ND","ND","ND","ND","ND","ND","ND","ND"],
    [193,"2010-05-14T20:00:00","ND","ND","ND","ND","ND","ND","0.4","229.1","28.6","55.5","0.8","0"],
    [194,"2010-05-14T21:00:00","ND","ND","ND","ND","ND","ND","0.3","79","28","58.1","0","0"],
    [195,"2010-05-14T22:00:00","ND","6.83","ND","1342.28","9.99","ND","1.1","129.2","26.9","65.3","0","0"],
    [196,"2010-05-14T23:00:00","ND","13.45","ND","2144.42","4.62","ND","0.2","57.1","26.3","68.7","0","0"],
    [197,"2010-05-15T00:00:00","ND","13.24","ND","1794.94","5.30","ND","0.6","178.7","26.1","69.3","0","0"],
    [198,"2010-05-15T01:00:00","ND","11.10","ND","1897.23","5.65","ND","0.3","89","25.9","69.3","0","0"],
    [199,"2010-05-15T02:00:00","ND","10.75","ND","1643.17","3.25","ND","0.7","121.9","25.3","73.1","0","0"],
    [200,"2010-05-15T03:00:00","ND","9.39","ND","1433.45","4.22","ND","0.1","45.5","24.6","79","0","0"],
    [201,"2010-05-15T04:00:00","ND","8.95","ND","1144.07","5.45","ND","0.4","10.7","24","83","0","0"],
    [202,"2010-05-15T05:00:00","ND","6.50","ND","1107.51","4.52","ND","0.8","346.9","23.7","83.5","0","0"],
    [203,"2010-05-15T06:00:00","ND","5.64","ND","1094.99","5.49","ND","0.2","346.7","23.6","82.8","0.9","0"],
    [204,"2010-05-15T07:00:00","ND","7.51","ND","1163.03","4.86","ND","0.1","338","23.8","80.5","35.3","0"],
    [205,"2010-05-15T08:00:00","ND","8.17","ND","1220.86","3.95","ND","0.3","60.2","24.9","75.5","180.9","0"],
    [206,"2010-05-15T09:00:00","ND","9.61","ND","1465.89","5.26","ND","0.4","46.1","26.4","70","473.5","0"],
    [207,"2010-05-15T10:00:00","ND","26.27","ND","1404.21","6.57","ND","1.1","48.3","27.2","68.5","563.4","0"],
    [208,"2010-05-15T11:00:00","ND","56.99","ND","1500.28","14.23","ND","1","32.6","28.4","63.3","773.1","0"],
    [209,"2010-05-15T12:00:00","ND","52.55","ND","1309.31","26.93","ND","0.7","60.6","30.1","56.2","843.2","0"],
    [210,"2010-05-15T13:00:00","ND","18.26","ND","1106.95","73.61","ND","0.9","13","31","53.1","883.6","0"],
    [211,"2010-05-15T14:00:00","ND","3.29","ND","1110.24","102.88","ND","1.9","358.2","31.4","53","725.2","0"],
    [212,"2010-05-15T15:00:00","ND","1.37","ND","1006.38","137.63","ND","3","262.1","32.2","48.5","786.8","0"],
    [213,"2010-05-15T16:00:00","ND","2.23","ND","997.29","117.19","ND","2.8","262.3","31.8","47.8","466.5","0"],
    [214,"2010-05-15T17:00:00","ND","2.04","ND","925.68","32.27","ND","2.3","280.2","31.4","46.9","284.5","0"],
    [215,"2010-05-15T18:00:00","ND","0.72","ND","912.76","31.27","ND","1.1","265.5","30.3","50","66.5","0"],
    [216,"2010-05-15T19:00:00","ND","0.08","ND","862.83","31.34","ND","0.5","102.7","29.3","52.7","0.7","0"],
    [217,"2010-05-15T20:00:00","ND","0.37","ND","1011.06","18.87","ND","0.8","103.5","28.6","56","0","0"],
    [218,"2010-05-15T21:00:00","ND","0.13","ND","1217.42","10.05","ND","ND","ND","ND","ND","ND","ND"],
    [219,"2010-05-15T22:00:00","ND","ND","ND","ND","ND","ND","ND","ND","ND","ND","ND","ND"],
    [220,"2010-05-15T23:00:00","ND","ND","ND","ND","ND","ND","ND","ND","ND","ND","ND","ND"],
    [221,"2010-05-16T00:00:00","ND","ND","ND","ND","ND","ND","ND","ND","ND","ND","ND","ND"],
    [222,"2010-05-16T01:00:00","ND","ND","ND","ND","ND","ND","ND","ND","ND","ND","ND","ND"],
    [223,"2010-05-16T02:00:00","ND","ND","ND","ND","ND","ND","ND","ND","ND","ND","ND","ND"],
    [224,"2010-05-16T03:00:00","ND","ND","ND","ND","ND","ND","ND","ND","ND","ND","ND","ND"],
    [225,"2010-05-16T04:00:00","ND","ND","ND","ND","ND","ND","ND","ND","ND","ND","ND","ND"],
    [226,"2010-05-16T05:00:00","ND","ND","ND","ND","ND","ND","ND","ND","ND","ND","ND","ND"],
    [227,"2010-05-16T06:00:00","ND","ND","ND","ND","ND","ND","ND","ND","ND","ND","ND","ND"],
    [228,"2010-05-16T07:00:00","ND","ND","ND","ND","ND","ND","ND","ND","ND","ND","ND","ND"],
    [229,"2010-05-16T08:00:00","ND","ND","ND","ND","ND","ND","ND","ND","ND","ND","ND","ND"],
    [230,"2010-05-16T09:00:00","ND","ND","ND","ND","ND","ND","ND","ND","ND","ND","ND","ND"],
    [231,"2010-05-16T10:00:00","ND","ND","ND","ND","ND","ND","ND","ND","ND","ND","ND","ND"],
    [232,"2010-05-16T11:00:00","ND","ND","ND","ND","ND","ND","ND","ND","ND","ND","ND","ND"],
    [233,"2010-05-16T12:00:00","ND","ND","ND","ND","ND","ND","ND","ND","ND","ND","ND","ND"],
    [234,"2010-05-16T13:00:00","ND","ND","ND","ND","ND","ND","ND","ND","ND","ND","ND","ND"],
    [235,"2010-05-16T14:00:00","ND","ND","ND","ND","ND","ND","ND","ND","ND","ND","ND","ND"],
    [236,"2010-05-16T15:00:00","ND","ND","ND","ND","ND","ND","ND","ND","ND","ND","ND","ND"],
    [237,"2010-05-16T16:00:00","ND","ND","ND","ND","ND","ND","ND","ND","ND","ND","ND","ND"],
    [238,"2010-05-16T17:00:00","ND","ND","ND","ND","ND","ND","ND","ND","ND","ND","ND","ND"],
    [239,"2010-05-16T18:00:00","ND","ND","ND","ND","ND","ND","ND","ND","ND","ND","ND","ND"],
    [240,"2010-05-16T19:00:00","ND","ND","ND","ND","ND","ND","ND","ND","ND","ND","ND","ND"],
    [241,"2010-05-16T20:00:00","ND","ND","ND","ND","ND","ND","ND","ND","ND","ND","ND","ND"],
    [242,"2010-05-16T21:00:00","ND","ND","ND","ND","ND","ND","ND","ND","ND","ND","ND","ND"],
    [243,"2010-05-16T22:00:00","ND","ND","ND","ND","ND","ND","ND","ND","ND","ND","ND","ND"],
    [244,"2010-05-16T23:00:00","ND","ND","ND","ND","ND","ND","ND","ND","ND","ND","ND","ND"],
    [245,"2010-05-17T00:00:00","ND","ND","ND","ND","ND","ND","ND","ND","ND","ND","ND","ND"],
    [246,"2010-05-17T01:00:00","ND","ND","ND","ND","ND","ND","ND","ND","ND","ND","ND","ND"],
    [247,"2010-05-17T02:00:00","ND","ND","ND","ND","ND","ND","ND","ND","ND","ND","ND","ND"],
    [248,"2010-05-17T03:00:00","ND","ND","ND","ND","ND","ND","ND","ND","ND","ND","ND","ND"],
    [249,"2010-05-17T04:00:00","ND","ND","ND","ND","ND","ND","ND","ND","ND","ND","ND","ND"],
    [250,"2010-05-17T05:00:00","ND","ND","ND","ND","ND","ND","ND","ND","ND","ND","ND","ND"],
    [251,"2010-05-17T06:00:00","ND","ND","ND","ND","ND","ND","ND","ND","ND","ND","ND","ND"],
    [252,"2010-05-17T07:00:00","ND","ND","ND","ND","ND","ND","ND","ND","ND","ND","ND","ND"],
    [253,"2010-05-17T08:00:00","ND","ND","ND","ND","ND","ND","ND","ND","ND","ND","ND","ND"],
    [254,"2010-05-17T09:00:00","ND","ND","ND","ND","ND","ND","ND","ND","ND","ND","ND","ND"],
    [255,"2010-05-17T10:00:00","ND","ND","ND","ND","ND","ND","ND","ND","ND","ND","ND","ND"],
    [256,"2010-05-17T11:00:00","ND","ND","ND","ND","ND","ND","ND","ND","ND","ND","ND","ND"],
    [257,"2010-05-17T12:00:00","ND","ND","ND","ND","ND","ND","ND","ND","ND","ND","ND","ND"],
    [258,"2010-05-17T13:00:00","ND","ND","ND","ND","ND","ND","ND","ND","ND","ND","ND","ND"],
    [259,"2010-05-17T14:00:00","ND","ND","ND","ND","ND","ND","ND","ND","ND","ND","ND","ND"],
    [260,"2010-05-17T15:00:00","ND","ND","ND","ND","ND","ND","ND","ND","ND","ND","ND","ND"],
    [261,"2010-05-17T16:00:00","ND","ND","ND","ND","ND","ND","ND","ND","ND","ND","ND","ND"],
    [262,"2010-05-17T17:00:00","ND","ND","ND","ND","ND","ND","ND","ND","ND","ND","ND","ND"],
    [263,"2010-05-17T18:00:00","ND","ND","ND","ND","ND","ND","ND","ND","ND","ND","ND","ND"],
    [264,"2010-05-17T19:00:00","ND","ND","ND","ND","ND","ND","ND","ND","ND","ND","ND","ND"],
    [265,"2010-05-17T20:00:00","ND","ND","ND","ND","ND","ND","ND","ND","ND","ND","ND","ND"],
    [266,"2010-05-17T21:00:00","ND","ND","ND","ND","ND","ND","ND","ND","ND","ND","ND","ND"],
    [267,"2010-05-17T22:00:00","ND","ND","ND","ND","ND","ND","ND","ND","ND","ND","ND","ND"],
    [268,"2010-05-17T23:00:00","ND","ND","ND","ND","ND","ND","ND","ND","ND","ND","ND","ND"],
    [269,"2010-05-18T00:00:00","ND","ND","ND","ND","ND","ND","ND","ND","ND","ND","ND","ND"],
    [270,"2010-05-18T01:00:00","ND","ND","ND","ND","ND","ND","ND","ND","ND","ND","ND","ND"],
    [271,"2010-05-18T02:00:00","ND","ND","ND","ND","ND","ND","ND","ND","ND","ND","ND","ND"],
    [272,"2010-05-18T03:00:00","ND","ND","ND","ND","ND","ND","ND","ND","ND","ND","ND","ND"],
    [273,"2010-05-18T04:00:00","ND","ND","ND","ND","ND","ND","ND","ND","ND","ND","ND","ND"],
    [274,"2010-05-18T05:00:00","ND","ND","ND","ND","ND","ND","ND","ND","ND","ND","ND","ND"],
    [275,"2010-05-18T06:00:00","ND","ND","ND","ND","ND","ND","ND","ND","ND","ND","ND","ND"],
    [276,"2010-05-18T07:00:00","ND","ND","ND","ND","ND","ND","ND","ND","ND","ND","ND","ND"],
    [277,"2010-05-18T08:00:00","ND","ND","ND","ND","ND","ND","ND","ND","ND","ND","ND","ND"],
    [278,"2010-05-18T09:00:00","ND","ND","ND","ND","ND","ND","ND","ND","ND","ND","ND","ND"],
    [279,"2010-05-18T10:00:00","ND","ND","ND","ND","ND","ND","ND","ND","ND","ND","ND","ND"],
    [280,"2010-05-18T11:00:00","ND","ND","ND","ND","ND","ND","ND","ND","ND","ND","ND","ND"],
    [281,"2010-05-18T12:00:00","ND","ND","ND","ND","ND","ND","ND","ND","ND","ND","ND","ND"],
    [282,"2010-05-18T13:00:00","ND","ND","ND","ND","ND","ND","ND","ND","ND","ND","ND","ND"],
    [283,"2010-05-18T14:00:00","ND","ND","ND","ND","ND","ND","ND","ND","ND","ND","ND","ND"],
    [284,"2010-05-18T15:00:00","ND","ND","ND","ND","ND","ND","ND","ND","ND","ND","ND","ND"],
    [285,"2010-05-18T16:00:00","ND","ND","ND","ND","ND","ND","ND","ND","ND","ND","ND","ND"],
    [286,"2010-05-18T17:00:00","ND","ND","ND","ND","ND","ND","ND","ND","ND","ND","ND","ND"],
    [287,"2010-05-18T18:00:00","ND","ND","ND","ND","ND","ND","ND","ND","ND","ND","ND","ND"],
    [288,"2010-05-18T19:00:00","ND","ND","ND","ND","ND","ND","ND","ND","ND","ND","ND","ND"],
    [289,"2010-05-18T20:00:00","ND","ND","ND","ND","ND","ND","ND","ND","ND","ND","ND","ND"],
    [290,"2010-05-18T21:00:00","ND","ND","ND","ND","ND","ND","ND","ND","ND","ND","ND","ND"],
    [291,"2010-05-18T22:00:00","ND","ND","ND","ND","ND","ND","ND","ND","ND","ND","ND","ND"],
    [292,"2010-05-18T23:00:00","ND","ND","ND","ND","ND","ND","ND","ND","ND","ND","ND","ND"],
    [293,"2010-05-19T00:00:00","ND","ND","ND","ND","ND","ND","ND","ND","ND","ND","ND","ND"],
    [294,"2010-05-19T01:00:00","ND","ND","ND","ND","ND","ND","ND","ND","ND","ND","ND","ND"],
    [295,"2010-05-19T02:00:00","ND","ND","ND","ND","ND","ND","ND","ND","ND","ND","ND","ND"],
    [296,"2010-05-19T03:00:00","ND","ND","ND","ND","ND","ND","ND","ND","ND","ND","ND","ND"],
    [297,"2010-05-19T04:00:00","ND","ND","ND","ND","ND","ND","ND","ND","ND","ND","ND","ND"],
    [298,"2010-05-19T05:00:00","ND","ND","ND","ND","ND","ND","ND","ND","ND","ND","ND","ND"],
    [299,"2010-05-19T06:00:00","ND","ND","ND","ND","ND","ND","ND","ND","ND","ND","ND","ND"],
    [300,"2010-05-19T07:00:00","ND","ND","ND","ND","ND","ND","ND","ND","ND","ND","ND","ND"],
    [301,"2010-05-19T08:00:00","ND","ND","ND","ND","ND","ND","ND","ND","ND","ND","ND","ND"],
    [302,"2010-05-19T09:00:00","ND","ND","ND","ND","ND","ND","ND","ND","ND","ND","ND","ND"],
    [303,"2010-05-19T10:00:00","ND","ND","ND","ND","ND","ND","ND","ND","ND","ND","ND","ND"],
    [304,"2010-05-19T11:00:00","ND","ND","ND","ND","ND","ND","ND","ND","ND","ND","ND","ND"],
    [305,"2010-05-19T12:00:00","ND","ND","ND","ND","ND","ND","ND","ND","ND","ND","ND","ND"],
    [306,"2010-05-19T13:00:00","ND","ND","ND","ND","ND","ND","ND","ND","ND","ND","ND","ND"],
    [307,"2010-05-19T14:00:00","ND","ND","ND","ND","ND","ND","ND","ND","ND","ND","ND","ND"],
    [308,"2010-05-19T15:00:00","ND","ND","ND","ND","ND","ND","ND","ND","ND","ND","ND","ND"],
    [309,"2010-05-19T16:00:00","ND","ND","ND","ND","ND","ND","ND","ND","ND","ND","ND","ND"],
    [310,"2010-05-19T17:00:00","ND","ND","ND","ND","ND","ND","ND","ND","ND","ND","ND","ND"],
    [311,"2010-05-19T18:00:00","ND","ND","ND","ND","ND","ND","ND","ND","ND","ND","ND","ND"],
    [312,"2010-05-19T19:00:00","ND","ND","ND","ND","ND","ND","ND","ND","ND","ND","ND","ND"],
    [313,"2010-05-19T20:00:00","ND","ND","ND","ND","ND","ND","ND","ND","ND","ND","ND","ND"],
    [314,"2010-05-19T21:00:00","ND","ND","ND","ND","ND","ND","ND","ND","ND","ND","ND","ND"],
    [315,"2010-05-19T22:00:00","ND","ND","ND","ND","ND","ND","ND","ND","ND","ND","ND","ND"],
    [316,"2010-05-19T23:00:00","ND","ND","ND","ND","ND","ND","ND","ND","ND","ND","ND","ND"],
    [317,"2010-05-20T00:00:00","ND","ND","ND","ND","ND","ND","ND","ND","ND","ND","ND","ND"],
    [318,"2010-05-20T01:00:00","ND","ND","ND","ND","ND","ND","ND","ND","ND","ND","ND","ND"],
    [319,"2010-05-20T02:00:00","ND","ND","ND","ND","ND","ND","ND","ND","ND","ND","ND","ND"],
    [320,"2010-05-20T03:00:00","ND","ND","ND","ND","ND","ND","ND","ND","ND","ND","ND","ND"],
    [321,"2010-05-20T04:00:00","ND","ND","ND","ND","ND","ND","ND","ND","ND","ND","ND","ND"],
    [322,"2010-05-20T05:00:00","ND","ND","ND","ND","ND","ND","ND","ND","ND","ND","ND","ND"],
    [323,"2010-05-20T06:00:00","ND","ND","ND","ND","ND","ND","ND","ND","ND","ND","ND","ND"],
    [324,"2010-05-20T07:00:00","ND","ND","ND","ND","ND","ND","ND","ND","ND","ND","ND","ND"],
    [325,"2010-05-20T08:00:00","ND","ND","ND","ND","ND","ND","ND","ND","ND","ND","ND","ND"],
    [326,"2010-05-20T09:00:00","ND","ND","ND","ND","ND","ND","ND","ND","ND","ND","ND","ND"],
    [327,"2010-05-20T10:00:00","ND","ND","ND","ND","ND","ND","ND","ND","ND","ND","ND","ND"],
    [328,"2010-05-20T11:00:00","ND","ND","ND","ND","ND","ND","ND","ND","ND","ND","ND","ND"],
    [329,"2010-05-20T12:00:00","ND","ND","ND","ND","ND","ND","ND","ND","ND","ND","ND","ND"],
    [330,"2010-05-20T13:00:00","ND","ND","ND","ND","ND","ND","ND","ND","ND","ND","ND","ND"],
    [331,"2010-05-20T14:00:00","ND","ND","ND","ND","ND","ND","ND","ND","ND","ND","ND","ND"],
    [332,"2010-05-20T15:00:00","ND","ND","ND","ND","ND","ND","ND","ND","ND","ND","ND","ND"],
    [333,"2010-05-20T16:00:00","ND","ND","ND","ND","ND","ND","ND","ND","ND","ND","ND","ND"],
    [334,"2010-05-20T17:00:00","ND","ND","ND","ND","ND","ND","ND","ND","ND","ND","ND","ND"],
    [335,"2010-05-20T18:00:00","ND","ND","ND","ND","ND","ND","ND","ND","ND","ND","ND","ND"],
    [336,"2010-05-20T19:00:00","ND","ND","ND","ND","ND","ND","ND","ND","ND","ND","ND","ND"],
    [337,"2010-05-20T20:00:00","ND","ND","ND","ND","ND","ND","ND","ND","ND","ND","ND","ND"],
    [338,"2010-05-20T21:00:00","ND","ND","ND","ND","ND","ND","ND","ND","ND","ND","ND","ND"],
    [339,"2010-05-20T22:00:00","ND","ND","ND","ND","ND","ND","ND","ND","ND","ND","ND","ND"],
    [340,"2010-05-20T23:00:00","ND","ND","ND","ND","ND","ND","ND","ND","ND","ND","ND","ND"],
    [341,"2010-05-21T00:00:00","ND","ND","ND","ND","ND","ND","ND","ND","ND","ND","ND","ND"],
    [342,"2010-05-21T01:00:00","ND","ND","ND","ND","ND","ND","ND","ND","ND","ND","ND","ND"],
    [343,"2010-05-21T02:00:00","ND","ND","ND","ND","ND","ND","ND","ND","ND","ND","ND","ND"],
    [344,"2010-05-21T03:00:00","ND","ND","ND","ND","ND","ND","ND","ND","ND","ND","ND","ND"],
    [345,"2010-05-21T04:00:00","ND","ND","ND","ND","ND","ND","ND","ND","ND","ND","ND","ND"],
    [346,"2010-05-21T05:00:00","ND","ND","ND","ND","ND","ND","ND","ND","ND","ND","ND","ND"],
    [347,"2010-05-21T06:00:00","ND","ND","ND","ND","ND","ND","ND","ND","ND","ND","ND","ND"],
    [348,"2010-05-21T07:00:00","ND","ND","ND","ND","ND","ND","ND","ND","ND","ND","ND","ND"],
    [349,"2010-05-21T08:00:00","ND","ND","ND","ND","ND","ND","ND","ND","ND","ND","ND","ND"],
    [350,"2010-05-21T09:00:00","ND","ND","ND","ND","ND","ND","ND","ND","ND","ND","ND","ND"],
    [351,"2010-05-21T10:00:00","ND","ND","ND","ND","ND","ND","ND","ND","ND","ND","ND","ND"],
    [352,"2010-05-21T11:00:00","ND","ND","ND","ND","ND","ND","ND","ND","ND","ND","ND","ND"],
    [353,"2010-05-21T12:00:00","ND","ND","ND","ND","ND","ND","ND","ND","ND","ND","ND","ND"],
    [354,"2010-05-21T13:00:00","ND","ND","ND","ND","ND","ND","ND","ND","ND","ND","ND","ND"],
    [355,"2010-05-21T14:00:00","ND","ND","ND","ND","ND","ND","ND","ND","ND","ND","ND","ND"],
    [356,"2010-05-21T15:00:00","ND","ND","ND","ND","ND","ND","ND","ND","ND","ND","ND","ND"],
    [357,"2010-05-21T16:00:00","ND","ND","ND","ND","ND","ND","ND","ND","ND","ND","ND","ND"],
    [358,"2010-05-21T17:00:00","ND","ND","ND","ND","ND","ND","ND","ND","ND","ND","ND","ND"],
    [359,"2010-05-21T18:00:00","ND","ND","ND","ND","ND","ND","ND","ND","ND","ND","ND","ND"],
    [360,"2010-05-21T19:00:00","ND","ND","ND","ND","ND","ND","ND","ND","ND","ND","ND","ND"],
    [361,"2010-05-21T20:00:00","ND","ND","ND","ND","ND","ND","ND","ND","ND","ND","ND","ND"],
    [362,"2010-05-21T21:00:00","ND","ND","ND","ND","ND","ND","ND","ND","ND","ND","ND","ND"],
    [363,"2010-05-21T22:00:00","ND","ND","ND","ND","ND","ND","ND","ND","ND","ND","ND","ND"],
    [364,"2010-05-21T23:00:00","ND","ND","ND","ND","ND","ND","ND","ND","ND","ND","ND","ND"],
    [365,"2010-05-22T00:00:00","ND","ND","ND","ND","ND","ND","ND","ND","ND","ND","ND","ND"],
    [366,"2010-05-22T01:00:00","ND","ND","ND","ND","ND","ND","ND","ND","ND","ND","ND","ND"],
    [367,"2010-05-22T02:00:00","ND","ND","ND","ND","ND","ND","ND","ND","ND","ND","ND","ND"],
    [368,"2010-05-22T03:00:00","ND","ND","ND","ND","ND","ND","ND","ND","ND","ND","ND","ND"],
    [369,"2010-05-22T04:00:00","ND","ND","ND","ND","ND","ND","ND","ND","ND","ND","ND","ND"],
    [370,"2010-05-22T05:00:00","ND","ND","ND","ND","ND","ND","ND","ND","ND","ND","ND","ND"],
    [371,"2010-05-22T06:00:00","ND","ND","ND","ND","ND","ND","ND","ND","ND","ND","ND","ND"],
    [372,"2010-05-22T07:00:00","ND","ND","ND","ND","ND","ND","ND","ND","ND","ND","ND","ND"],
    [373,"2010-05-22T08:00:00","ND","ND","ND","ND","ND","ND","ND","ND","ND","ND","ND","ND"],
    [374,"2010-05-22T09:00:00","ND","ND","ND","ND","ND","ND","ND","ND","ND","ND","ND","ND"],
    [375,"2010-05-22T10:00:00","ND","ND","ND","ND","ND","ND","ND","ND","ND","ND","ND","ND"],
    [376,"2010-05-22T11:00:00","ND","ND","ND","ND","ND","ND","ND","ND","ND","ND","ND","ND"],
    [377,"2010-05-22T12:00:00","ND","ND","ND","ND","ND","ND","ND","ND","ND","ND","ND","ND"],
    [378,"2010-05-22T13:00:00","ND","ND","ND","ND","ND","ND","ND","ND","ND","ND","ND","ND"],
    [379,"2010-05-22T14:00:00","ND","ND","ND","ND","ND","ND","ND","ND","ND","ND","ND","ND"],
    [380,"2010-05-22T15:00:00","ND","ND","ND","ND","ND","ND","ND","ND","ND","ND","ND","ND"],
    [381,"2010-05-22T16:00:00","ND","ND","ND","ND","ND","ND","ND","ND","ND","ND","ND","ND"],
    [382,"2010-05-22T17:00:00","ND","ND","ND","ND","ND","ND","ND","ND","ND","ND","ND","ND"],
    [383,"2010-05-22T18:00:00","ND","ND","ND","ND","ND","ND","ND","ND","ND","ND","ND","ND"],
    [384,"2010-05-22T19:00:00","ND","ND","ND","ND","ND","ND","ND","ND","ND","ND","ND","ND"],
    [385,"2010-05-22T20:00:00","ND","ND","ND","ND","ND","ND","ND","ND","ND","ND","ND","ND"],
    [386,"2010-05-22T21:00:00","ND","ND","ND","ND","ND","ND","ND","ND","ND","ND","ND","ND"],
    [387,"2010-05-22T22:00:00","ND","ND","ND","ND","ND","ND","ND","ND","ND","ND","ND","ND"],
    [388,"2010-05-22T23:00:00","ND","ND","ND","ND","ND","ND","ND","ND","ND","ND","ND","ND"],
    [389,"2010-05-23T00:00:00","ND","ND","ND","ND","ND","ND","ND","ND","ND","ND","ND","ND"],
    [390,"2010-05-23T01:00:00","ND","ND","ND","ND","ND","ND","ND","ND","ND","ND","ND","ND"],
    [391,"2010-05-23T02:00:00","ND","ND","ND","ND","ND","ND","ND","ND","ND","ND","ND","ND"],
    [392,"2010-05-23T03:00:00","ND","ND","ND","ND","ND","ND","ND","ND","ND","ND","ND","ND"],
    [393,"2010-05-23T04:00:00","ND","ND","ND","ND","ND","ND","ND","ND","ND","ND","ND","ND"],
    [394,"2010-05-23T05:00:00","ND","ND","ND","ND","ND","ND","ND","ND","ND","ND","ND","ND"],
    [395,"2010-05-23T06:00:00","ND","ND","ND","ND","ND","ND","ND","ND","ND","ND","ND","ND"],
    [396,"2010-05-23T07:00:00","ND","ND","ND","ND","ND","ND","ND","ND","ND","ND","ND","ND"],
    [397,"2010-05-23T08:00:00","ND","ND","ND","ND","ND","ND","ND","ND","ND","ND","ND","ND"],
    [398,"2010-05-23T09:00:00","ND","ND","ND","ND","ND","ND","ND","ND","ND","ND","ND","ND"],
    [399,"2010-05-23T10:00:00","ND","ND","ND","ND","ND","ND","ND","ND","ND","ND","ND","ND"],
    [400,"2010-05-23T11:00:00","ND","ND","ND","ND","ND","ND","ND","ND","ND","ND","ND","ND"],
    [401,"2010-05-23T12:00:00","ND","ND","ND","ND","ND","ND","ND","ND","ND","ND","ND","ND"],
    [402,"2010-05-23T13:00:00","ND","ND","ND","ND","ND","ND","ND","ND","ND","ND","ND","ND"],
    [403,"2010-05-23T14:00:00","ND","ND","ND","ND","ND","ND","ND","ND","ND","ND","ND","ND"],
    [404,"2010-05-23T15:00:00","ND","ND","ND","ND","ND","ND","ND","ND","ND","ND","ND","ND"],
    [405,"2010-05-23T16:00:00","ND","ND","ND","ND","ND","ND","ND","ND","ND","ND","ND","ND"],
    [406,"2010-05-23T17:00:00","ND","ND","ND","ND","ND","ND","ND","ND","ND","ND","ND","ND"],
    [407,"2010-05-23T18:00:00","ND","ND","ND","ND","ND","ND","ND","ND","ND","ND","ND","ND"],
    [408,"2010-05-23T19:00:00","ND","ND","ND","ND","ND","ND","ND","ND","ND","ND","ND","ND"],
    [409,"2010-05-23T20:00:00","ND","ND","ND","ND","ND","ND","ND","ND","ND","ND","ND","ND"],
    [410,"2010-05-23T21:00:00","ND","ND","ND","ND","ND","ND","ND","ND","ND","ND","ND","ND"],
    [411,"2010-05-23T22:00:00","ND","ND","ND","ND","ND","ND","ND","ND","ND","ND","ND","ND"],
    [412,"2010-05-23T23:00:00","ND","ND","ND","ND","ND","ND","ND","ND","ND","ND","ND","ND"],
    [413,"2010-05-24T00:00:00","ND","ND","ND","ND","ND","ND","ND","ND","ND","ND","ND","ND"],
    [414,"2010-05-24T01:00:00","ND","ND","ND","ND","ND","ND","ND","ND","ND","ND","ND","ND"],
    [415,"2010-05-24T02:00:00","ND","ND","ND","ND","ND","ND","ND","ND","ND","ND","ND","ND"],
    [416,"2010-05-24T03:00:00","ND","ND","ND","ND","ND","ND","ND","ND","ND","ND","ND","ND"],
    [417,"2010-05-24T04:00:00","ND","ND","ND","ND","ND","ND","ND","ND","ND","ND","ND","ND"],
    [418,"2010-05-24T05:00:00","ND","ND","ND","ND","ND","ND","ND","ND","ND","ND","ND","ND"],
    [419,"2010-05-24T06:00:00","ND","ND","ND","ND","ND","ND","ND","ND","ND","ND","ND","ND"],
    [420,"2010-05-24T07:00:00","ND","ND","ND","ND","ND","ND","ND","ND","ND","ND","ND","ND"],
    [421,"2010-05-24T08:00:00","ND","ND","ND","ND","ND","ND","ND","ND","ND","ND","ND","ND"],
    [422,"2010-05-24T09:00:00","ND","ND","ND","ND","ND","ND","ND","ND","ND","ND","ND","ND"],
    [423,"2010-05-24T10:00:00","ND","ND","ND","ND","ND","ND","ND","ND","ND","ND","ND","ND"],
    [424,"2010-05-24T11:00:00","ND","ND","ND","ND","ND","ND","ND","ND","ND","ND","ND","ND"],
    [425,"2010-05-24T12:00:00","ND","ND","ND","ND","ND","ND","ND","ND","ND","ND","ND","ND"],
    [426,"2010-05-24T13:00:00","ND","ND","ND","ND","ND","ND","ND","ND","ND","ND","ND","ND"],
    [427,"2010-05-24T14:00:00","ND","ND","ND","ND","ND","ND","ND","ND","ND","ND","ND","ND"],
    [428,"2010-05-24T15:00:00","ND","ND","ND","ND","ND","ND","ND","ND","ND","ND","ND","ND"],
    [429,"2010-05-24T16:00:00","ND","ND","ND","ND","ND","ND","ND","ND","ND","ND","ND","ND"],
    [430,"2010-05-24T17:00:00","ND","ND","ND","ND","ND","ND","ND","ND","ND","ND","ND","ND"],
    [431,"2010-05-24T18:00:00","ND","ND","ND","ND","ND","ND","ND","ND","ND","ND","ND","ND"],
    [432,"2010-05-24T19:00:00","ND","ND","ND","ND","ND","ND","ND","ND","ND","ND","ND","ND"],
    [433,"2010-05-24T20:00:00","ND","ND","ND","ND","ND","ND","ND","ND","ND","ND","ND","ND"],
    [434,"2010-05-24T21:00:00","ND","ND","ND","ND","ND","ND","ND","ND","ND","ND","ND","ND"],
    [435,"2010-05-24T22:00:00","ND","ND","ND","ND","ND","ND","ND","ND","ND","ND","ND","ND"],
    [436,"2010-05-24T23:00:00","ND","ND","ND","ND","ND","ND","ND","ND","ND","ND","ND","ND"],
    [437,"2010-05-25T00:00:00","ND","ND","ND","ND","ND","ND","ND","ND","ND","ND","ND","ND"],
    [438,"2010-05-25T01:00:00","ND","ND","ND","ND","ND","ND","ND","ND","ND","ND","ND","ND"],
    [439,"2010-05-25T02:00:00","ND","ND","ND","ND","ND","ND","ND","ND","ND","ND","ND","ND"],
    [440,"2010-05-25T03:00:00","ND","ND","ND","ND","ND","ND","ND","ND","ND","ND","ND","ND"],
    [441,"2010-05-25T04:00:00","ND","ND","ND","ND","ND","ND","ND","ND","ND","ND","ND","ND"],
    [442,"2010-05-25T05:00:00","ND","ND","ND","ND","ND","ND","ND","ND","ND","ND","ND","ND"],
    [443,"2010-05-25T06:00:00","ND","ND","ND","ND","ND","ND","ND","ND","ND","ND","ND","ND"],
    [444,"2010-05-25T07:00:00","ND","ND","ND","ND","ND","ND","ND","ND","ND","ND","ND","ND"],
    [445,"2010-05-25T08:00:00","ND","ND","ND","ND","ND","ND","ND","ND","ND","ND","ND","ND"],
    [446,"2010-05-25T09:00:00","ND","ND","ND","ND","ND","ND","ND","ND","ND","ND","ND","ND"],
    [447,"2010-05-25T10:00:00","ND","ND","ND","ND","ND","ND","ND","ND","ND","ND","ND","ND"],
    [448,"2010-05-25T11:00:00","ND","ND","ND","ND","ND","ND","ND","ND","ND","ND","ND","ND"],
    [449,"2010-05-25T12:00:00","ND","ND","ND","ND","ND","ND","ND","ND","ND","ND","ND","ND"],
    [450,"2010-05-25T13:00:00","ND","ND","ND","ND","ND","ND","ND","ND","ND","ND","ND","ND"],
    [451,"2010-05-25T14:00:00","ND","ND","ND","ND","ND","ND","ND","ND","ND","ND","ND","ND"],
    [452,"2010-05-25T15:00:00","ND","ND","ND","ND","ND","ND","ND","ND","ND","ND","ND","ND"],
    [453,"2010-05-25T16:00:00","ND","ND","ND","ND","ND","ND","ND","ND","ND","ND","ND","ND"],
    [454,"2010-05-25T17:00:00","ND","ND","ND","ND","ND","ND","ND","ND","ND","ND","ND","ND"],
    [455,"2010-05-25T18:00:00","ND","ND","ND","ND","ND","ND","ND","ND","ND","ND","ND","ND"],
    [456,"2010-05-25T19:00:00","ND","ND","ND","ND","ND","ND","ND","ND","ND","ND","ND","ND"],
    [457,"2010-05-25T20:00:00","ND","ND","ND","ND","ND","ND","ND","ND","ND","ND","ND","ND"],
    [458,"2010-05-25T21:00:00","ND","ND","ND","ND","ND","ND","ND","ND","ND","ND","ND","ND"],
    [459,"2010-05-25T22:00:00","ND","ND","ND","ND","ND","ND","ND","ND","ND","ND","ND","ND"],
    [460,"2010-05-25T23:00:00","ND","ND","ND","ND","ND","ND","ND","ND","ND","ND","ND","ND"],
    [461,"2010-05-26T00:00:00","ND","ND","ND","ND","ND","ND","ND","ND","ND","ND","ND","ND"],
    [462,"2010-05-26T01:00:00","ND","ND","ND","ND","ND","ND","ND","ND","ND","ND","ND","ND"],
    [463,"2010-05-26T02:00:00","ND","ND","ND","ND","ND","ND","ND","ND","ND","ND","ND","ND"],
    [464,"2010-05-26T03:00:00","ND","ND","ND","ND","ND","ND","ND","ND","ND","ND","ND","ND"],
    [465,"2010-05-26T04:00:00","ND","ND","ND","ND","ND","ND","ND","ND","ND","ND","ND","ND"],
    [466,"2010-05-26T05:00:00","ND","ND","ND","ND","ND","ND","ND","ND","ND","ND","ND","ND"],
    [467,"2010-05-26T06:00:00","ND","ND","ND","ND","ND","ND","ND","ND","ND","ND","ND","ND"],
    [468,"2010-05-26T07:00:00","ND","ND","ND","ND","ND","ND","ND","ND","ND","ND","ND","ND"],
    [469,"2010-05-26T08:00:00","ND","ND","ND","ND","ND","ND","ND","ND","ND","ND","ND","ND"],
    [470,"2010-05-26T09:00:00","ND","ND","ND","ND","ND","ND","ND","ND","ND","ND","ND","ND"],
    [471,"2010-05-26T10:00:00","ND","ND","ND","ND","ND","ND","ND","ND","ND","ND","ND","ND"],
    [472,"2010-05-26T11:00:00","ND","ND","ND","ND","ND","ND","ND","ND","ND","ND","ND","ND"],
    [473,"2010-05-26T12:00:00","ND","ND","ND","ND","ND","ND","ND","ND","ND","ND","ND","ND"],
    [474,"2010-05-26T13:00:00","ND","ND","ND","ND","ND","ND","ND","ND","ND","ND","ND","ND"],
    [475,"2010-05-26T14:00:00","ND","ND","ND","ND","ND","ND","ND","ND","ND","ND","ND","ND"],
    [476,"2010-05-26T15:00:00","ND","ND","ND","ND","ND","ND","ND","ND","ND","ND","ND","ND"],
    [477,"2010-05-26T16:00:00","ND","ND","ND","ND","ND","ND","ND","ND","ND","ND","ND","ND"],
    [478,"2010-05-26T17:00:00","ND","ND","ND","ND","ND","ND","ND","ND","ND","ND","ND","ND"],
    [479,"2010-05-26T18:00:00","ND","ND","ND","ND","ND","ND","ND","ND","ND","ND","ND","ND"],
    [480,"2010-05-26T19:00:00","ND","ND","ND","ND","ND","ND","ND","ND","ND","ND","ND","ND"],
    [481,"2010-05-26T20:00:00","ND","ND","ND","ND","ND","ND","ND","ND","ND","ND","ND","ND"],
    [482,"2010-05-26T21:00:00","ND","ND","ND","ND","ND","ND","ND","ND","ND","ND","ND","ND"],
    [483,"2010-05-26T22:00:00","ND","ND","ND","ND","ND","ND","ND","ND","ND","ND","ND","ND"],
    [484,"2010-05-26T23:00:00","ND","ND","ND","ND","ND","ND","ND","ND","ND","ND","ND","ND"],
    [485,"2010-05-27T00:00:00","ND","ND","ND","ND","ND","ND","ND","ND","ND","ND","ND","ND"],
    [486,"2010-05-27T01:00:00","ND","ND","ND","ND","ND","ND","ND","ND","ND","ND","ND","ND"],
    [487,"2010-05-27T02:00:00","ND","ND","ND","ND","ND","ND","ND","ND","ND","ND","ND","ND"],
    [488,"2010-05-27T03:00:00","ND","ND","ND","ND","ND","ND","ND","ND","ND","ND","ND","ND"],
    [489,"2010-05-27T04:00:00","ND","ND","ND","ND","ND","ND","ND","ND","ND","ND","ND","ND"],
    [490,"2010-05-27T05:00:00","ND","ND","ND","ND","ND","ND","ND","ND","ND","ND","ND","ND"],
    [491,"2010-05-27T06:00:00","ND","ND","ND","ND","ND","ND","ND","ND","ND","ND","ND","ND"],
    [492,"2010-05-27T07:00:00","ND","ND","ND","ND","ND","ND","ND","ND","ND","ND","ND","ND"],
    [493,"2010-05-27T08:00:00","ND","ND","ND","ND","ND","ND","ND","ND","ND","ND","ND","ND"],
    [494,"2010-05-27T09:00:00","ND","ND","ND","ND","ND","ND","ND","ND","ND","ND","ND","ND"],
    [495,"2010-05-27T10:00:00","ND","ND","ND","ND","ND","ND","ND","ND","ND","ND","ND","ND"],
    [496,"2010-05-27T11:00:00","ND","ND","ND","ND","ND","ND","ND","ND","ND","ND","ND","ND"],
    [497,"2010-05-27T12:00:00","ND","ND","ND","ND","ND","ND","ND","ND","ND","ND","ND","ND"],
    [498,"2010-05-27T13:00:00","ND","ND","ND","ND","ND","ND","ND","ND","ND","ND","ND","ND"],
    [499,"2010-05-27T14:00:00","ND","ND","ND","ND","ND","ND","ND","ND","ND","ND","ND","ND"],
    [500,"2010-05-27T15:00:00","ND","ND","ND","ND","ND","ND","ND","ND","ND","ND","ND","ND"],
    [501,"2010-05-27T16:00:00","ND","ND","ND","ND","ND","ND","ND","ND","ND","ND","ND","ND"],
    [502,"2010-05-27T17:00:00","ND","ND","ND","ND","ND","ND","ND","ND","ND","ND","ND","ND"],
    [503,"2010-05-27T18:00:00","ND","ND","ND","ND","ND","ND","ND","ND","ND","ND","ND","ND"],
    [504,"2010-05-27T19:00:00","ND","ND","ND","ND","ND","ND","ND","ND","ND","ND","ND","ND"],
    [505,"2010-05-27T20:00:00","ND","ND","ND","ND","ND","ND","ND","ND","ND","ND","ND","ND"],
    [506,"2010-05-27T21:00:00","ND","ND","ND","ND","ND","ND","ND","ND","ND","ND","ND","ND"],
    [507,"2010-05-27T22:00:00","ND","ND","ND","ND","ND","ND","ND","ND","ND","ND","ND","ND"],
    [508,"2010-05-27T23:00:00","ND","ND","ND","ND","ND","ND","ND","ND","ND","ND","ND","ND"],
    [509,"2010-05-28T00:00:00","ND","ND","ND","ND","ND","ND","ND","ND","ND","ND","ND","ND"],
    [510,"2010-05-28T01:00:00","ND","ND","ND","ND","ND","ND","ND","ND","ND","ND","ND","ND"],
    [511,"2010-05-28T02:00:00","ND","ND","ND","ND","ND","ND","ND","ND","ND","ND","ND","ND"],
    [512,"2010-05-28T03:00:00","ND","ND","ND","ND","ND","ND","ND","ND","ND","ND","ND","ND"],
    [513,"2010-05-28T04:00:00","ND","ND","ND","ND","ND","ND","ND","ND","ND","ND","ND","ND"],
    [514,"2010-05-28T05:00:00","ND","ND","ND","ND","ND","ND","ND","ND","ND","ND","ND","ND"],
    [515,"2010-05-28T06:00:00","ND","ND","ND","ND","ND","ND","ND","ND","ND","ND","ND","ND"],
    [516,"2010-05-28T07:00:00","ND","ND","ND","ND","ND","ND","ND","ND","ND","ND","ND","ND"],
    [517,"2010-05-28T08:00:00","ND","ND","ND","ND","ND","ND","ND","ND","ND","ND","ND","ND"],
    [518,"2010-05-28T09:00:00","ND","ND","ND","ND","ND","ND","ND","ND","ND","ND","ND","ND"],
    [519,"2010-05-28T10:00:00","ND","ND","ND","ND","ND","ND","ND","ND","ND","ND","ND","ND"],
    [520,"2010-05-28T11:00:00","ND","ND","ND","ND","ND","ND","ND","ND","ND","ND","ND","ND"],
    [521,"2010-05-28T12:00:00","ND","ND","ND","ND","ND","ND","ND","ND","ND","ND","ND","ND"],
    [522,"2010-05-28T13:00:00","ND","ND","ND","ND","ND","ND","ND","ND","ND","ND","ND","ND"],
    [523,"2010-05-28T14:00:00","ND","ND","ND","ND","ND","ND","ND","ND","ND","ND","ND","ND"],
    [524,"2010-05-28T15:00:00","ND","ND","ND","ND","ND","ND","ND","ND","ND","ND","ND","ND"],
    [525,"2010-05-28T16:00:00","ND","ND","ND","ND","ND","ND","ND","ND","ND","ND","ND","ND"],
    [526,"2010-05-28T17:00:00","ND","ND","ND","ND","ND","ND","ND","ND","ND","ND","ND","ND"],
    [527,"2010-05-28T18:00:00","ND","ND","ND","ND","ND","ND","ND","ND","ND","ND","ND","ND"],
    [528,"2010-05-28T19:00:00","ND","ND","ND","ND","ND","ND","ND","ND","ND","ND","ND","ND"],
    [529,"2010-05-28T20:00:00","ND","ND","ND","ND","ND","ND","ND","ND","ND","ND","ND","ND"],
    [530,"2010-05-28T21:00:00","ND","ND","ND","ND","ND","ND","ND","ND","ND","ND","ND","ND"],
    [531,"2010-05-28T22:00:00","ND","ND","ND","ND","ND","ND","ND","ND","ND","ND","ND","ND"],
    [532,"2010-05-28T23:00:00","ND","ND","ND","ND","ND","ND","ND","ND","ND","ND","ND","ND"],
    [533,"2010-05-29T00:00:00","ND","ND","ND","ND","ND","ND","ND","ND","ND","ND","ND","ND"],
    [534,"2010-05-29T01:00:00","ND","ND","ND","ND","ND","ND","ND","ND","ND","ND","ND","ND"],
    [535,"2010-05-29T02:00:00","ND","ND","ND","ND","ND","ND","ND","ND","ND","ND","ND","ND"],
    [536,"2010-05-29T03:00:00","ND","ND","ND","ND","ND","ND","ND","ND","ND","ND","ND","ND"],
    [537,"2010-05-29T04:00:00","ND","ND","ND","ND","ND","ND","ND","ND","ND","ND","ND","ND"],
    [538,"2010-05-29T05:00:00","ND","ND","ND","ND","ND","ND","ND","ND","ND","ND","ND","ND"],
    [539,"2010-05-29T06:00:00","ND","ND","ND","ND","ND","ND","ND","ND","ND","ND","ND","ND"],
    [540,"2010-05-29T07:00:00","ND","ND","ND","ND","ND","ND","ND","ND","ND","ND","ND","ND"],
    [541,"2010-05-29T08:00:00","ND","ND","ND","ND","ND","ND","ND","ND","ND","ND","ND","ND"],
    [542,"2010-05-29T09:00:00","ND","ND","ND","ND","ND","ND","ND","ND","ND","ND","ND","ND"],
    [543,"2010-05-29T10:00:00","ND","ND","ND","ND","ND","ND","ND","ND","ND","ND","ND","ND"],
    [544,"2010-05-29T11:00:00","ND","ND","ND","ND","ND","ND","ND","ND","ND","ND","ND","ND"],
    [545,"2010-05-29T12:00:00","ND","ND","ND","ND","ND","ND","ND","ND","ND","ND","ND","ND"],
    [546,"2010-05-29T13:00:00","ND","ND","ND","ND","ND","ND","ND","ND","ND","ND","ND","ND"],
    [547,"2010-05-29T14:00:00","ND","ND","ND","ND","ND","ND","ND","ND","ND","ND","ND","ND"],
    [548,"2010-05-29T15:00:00","ND","ND","ND","ND","ND","ND","ND","ND","ND","ND","ND","ND"],
    [549,"2010-05-29T16:00:00","ND","ND","ND","ND","ND","ND","ND","ND","ND","ND","ND","ND"],
    [550,"2010-05-29T17:00:00","ND","ND","ND","ND","ND","ND","ND","ND","ND","ND","ND","ND"],
    [551,"2010-05-29T18:00:00","ND","ND","ND","ND","ND","ND","ND","ND","ND","ND","ND","ND"],
    [552,"2010-05-29T19:00:00","ND","ND","ND","ND","ND","ND","ND","ND","ND","ND","ND","ND"],
    [553,"2010-05-29T20:00:00","ND","ND","ND","ND","ND","ND","ND","ND","ND","ND","ND","ND"],
    [554,"2010-05-29T21:00:00","ND","ND","ND","ND","ND","ND","ND","ND","ND","ND","ND","ND"],
    [555,"2010-05-29T22:00:00","ND","ND","ND","ND","ND","ND","ND","ND","ND","ND","ND","ND"],
    [556,"2010-05-29T23:00:00","ND","ND","ND","ND","ND","ND","ND","ND","ND","ND","ND","ND"],
    [557,"2010-05-30T00:00:00","ND","ND","ND","ND","ND","ND","ND","ND","ND","ND","ND","ND"],
    [558,"2010-05-30T01:00:00","ND","ND","ND","ND","ND","ND","ND","ND","ND","ND","ND","ND"],
    [559,"2010-05-30T02:00:00","ND","ND","ND","ND","ND","ND","ND","ND","ND","ND","ND","ND"],
    [560,"2010-05-30T03:00:00","ND","ND","ND","ND","ND","ND","ND","ND","ND","ND","ND","ND"],
    [561,"2010-05-30T04:00:00","ND","ND","ND","ND","ND","ND","ND","ND","ND","ND","ND","ND"],
    [562,"2010-05-30T05:00:00","ND","ND","ND","ND","ND","ND","ND","ND","ND","ND","ND","ND"],
    [563,"2010-05-30T06:00:00","ND","ND","ND","ND","ND","ND","ND","ND","ND","ND","ND","ND"],
    [564,"2010-05-30T07:00:00","ND","ND","ND","ND","ND","ND","ND","ND","ND","ND","ND","ND"],
    [565,"2010-05-30T08:00:00","ND","ND","ND","ND","ND","ND","ND","ND","ND","ND","ND","ND"],
    [566,"2010-05-30T09:00:00","ND","ND","ND","ND","ND","ND","ND","ND","ND","ND","ND","ND"],
    [567,"2010-05-30T10:00:00","ND","ND","ND","ND","ND","ND","ND","ND","ND","ND","ND","ND"],
    [568,"2010-05-30T11:00:00","ND","ND","ND","ND","ND","ND","ND","ND","ND","ND","ND","ND"],
    [569,"2010-05-30T12:00:00","ND","ND","ND","ND","ND","ND","ND","ND","ND","ND","ND","ND"],
    [570,"2010-05-30T13:00:00","ND","ND","ND","ND","ND","ND","ND","ND","ND","ND","ND","ND"],
    [571,"2010-05-30T14:00:00","ND","ND","ND","ND","ND","ND","ND","ND","ND","ND","ND","ND"],
    [572,"2010-05-30T15:00:00","ND","ND","ND","ND","ND","ND","ND","ND","ND","ND","ND","ND"],
    [573,"2010-05-30T16:00:00","ND","ND","ND","ND","ND","ND","ND","ND","ND","ND","ND","ND"],
    [574,"2010-05-30T17:00:00","ND","ND","ND","ND","ND","ND","ND","ND","ND","ND","ND","ND"],
    [575,"2010-05-30T18:00:00","ND","ND","ND","ND","ND","ND","ND","ND","ND","ND","ND","ND"],
    [576,"2010-05-30T19:00:00","ND","ND","ND","ND","ND","ND","ND","ND","ND","ND","ND","ND"],
    [577,"2010-05-30T20:00:00","ND","ND","ND","ND","ND","ND","ND","ND","ND","ND","ND","ND"],
    [578,"2010-05-30T21:00:00","ND","ND","ND","ND","ND","ND","ND","ND","ND","ND","ND","ND"],
    [579,"2010-05-30T22:00:00","ND","ND","ND","ND","ND","ND","ND","ND","ND","ND","ND","ND"],
    [580,"2010-05-30T23:00:00","ND","ND","ND","ND","ND","ND","ND","ND","ND","ND","ND","ND"],
    [581,"2010-05-31T00:00:00","ND","ND","ND","ND","ND","ND","ND","ND","ND","ND","ND","ND"],
    [582,"2010-05-31T01:00:00","ND","ND","ND","ND","ND","ND","ND","ND","ND","ND","ND","ND"],
    [583,"2010-05-31T02:00:00","ND","ND","ND","ND","ND","ND","ND","ND","ND","ND","ND","ND"],
    [584,"2010-05-31T03:00:00","ND","ND","ND","ND","ND","ND","ND","ND","ND","ND","ND","ND"],
    [585,"2010-05-31T04:00:00","ND","ND","ND","ND","ND","ND","ND","ND","ND","ND","ND","ND"],
    [586,"2010-05-31T05:00:00","ND","ND","ND","ND","ND","ND","ND","ND","ND","ND","ND","ND"],
    [587,"2010-05-31T06:00:00","ND","ND","ND","ND","ND","ND","ND","ND","ND","ND","ND","ND"],
    [588,"2010-05-31T07:00:00","ND","ND","ND","ND","ND","ND","ND","ND","ND","ND","ND","ND"],
    [589,"2010-05-31T08:00:00","ND","ND","ND","ND","ND","ND","ND","ND","ND","ND","ND","ND"],
    [590,"2010-05-31T09:00:00","ND","ND","ND","ND","ND","ND","ND","ND","ND","ND","ND","ND"],
    [591,"2010-05-31T10:00:00","ND","ND","ND","ND","ND","ND","ND","ND","ND","ND","ND","ND"],
    [592,"2010-05-31T11:00:00","ND","ND","ND","ND","ND","ND","ND","ND","ND","ND","ND","ND"],
    [593,"2010-05-31T12:00:00","ND","ND","ND","ND","ND","ND","ND","ND","ND","ND","ND","ND"],
    [594,"2010-05-31T13:00:00","ND","ND","ND","ND","ND","ND","ND","ND","ND","ND","ND","ND"],
    [595,"2010-05-31T14:00:00","ND","ND","ND","ND","ND","ND","ND","ND","ND","ND","ND","ND"],
    [596,"2010-05-31T15:00:00","ND","ND","ND","ND","ND","ND","ND","ND","ND","ND","ND","ND"],
    [597,"2010-05-31T16:00:00","ND","ND","ND","ND","ND","ND","ND","ND","ND","ND","ND","ND"],
    [598,"2010-05-31T17:00:00","ND","ND","ND","ND","ND","ND","ND","ND","ND","ND","ND","ND"],
    [599,"2010-05-31T18:00:00","ND","ND","ND","ND","ND","ND","ND","ND","ND","ND","ND","ND"],
    [600,"2010-05-31T19:00:00","ND","ND","ND","ND","ND","ND","ND","ND","ND","ND","ND","ND"],
    [601,"2010-05-31T20:00:00","ND","ND","ND","ND","ND","ND","ND","ND","ND","ND","ND","ND"],
    [602,"2010-05-31T21:00:00","ND","ND","ND","ND","ND","ND","ND","ND","ND","ND","ND","ND"],
    [603,"2010-05-31T22:00:00","ND","ND","ND","ND","ND","ND","ND","ND","ND","ND","ND","ND"],
    [604,"2010-05-31T23:00:00","ND","ND","ND","ND","ND","ND","ND","ND","ND","ND","ND","ND"],
    [605,"2010-06-01T00:00:00","ND","ND","ND","ND","ND","ND","ND","ND","ND","ND","ND","ND"],
    [606,"2010-06-01T01:00:00","ND","ND","ND","ND","ND","ND","ND","ND","ND","ND","ND","ND"],
    [607,"2010-06-01T02:00:00","ND","ND","ND","ND","ND","ND","ND","ND","ND","ND","ND","ND"],
    [608,"2010-06-01T03:00:00","ND","ND","ND","ND","ND","ND","ND","ND","ND","ND","ND","ND"],
    [609,"2010-06-01T04:00:00","ND","ND","ND","ND","ND","ND","ND","ND","ND","ND","ND","ND"],
    [610,"2010-06-01T05:00:00","ND","ND","ND","ND","ND","ND","ND","ND","ND","ND","ND","ND"],
    [611,"2010-06-01T06:00:00","ND","ND","ND","ND","ND","ND","ND","ND","ND","ND","ND","ND"],
    [612,"2010-06-01T07:00:00","ND","ND","ND","ND","ND","ND","ND","ND","ND","ND","ND","ND"],
    [613,"2010-06-01T08:00:00","ND","ND","ND","ND","ND","ND","ND","ND","ND","ND","ND","ND"],
    [614,"2010-06-01T09:00:00","ND","ND","ND","ND","ND","ND","ND","ND","ND","ND","ND","ND"],
    [615,"2010-06-01T10:00:00","ND","ND","ND","ND","ND","ND","ND","ND","ND","ND","ND","ND"],
    [616,"2010-06-01T11:00:00","ND","ND","ND","ND","ND","ND","ND","ND","ND","ND","ND","ND"],
    [617,"2010-06-01T12:00:00","ND","ND","ND","ND","ND","ND","ND","ND","ND","ND","ND","ND"],
    [618,"2010-06-01T13:00:00","ND","ND","ND","ND","ND","ND","ND","ND","ND","ND","ND","ND"],
    [619,"2010-06-01T14:00:00","ND","ND","ND","ND","ND","ND","ND","ND","ND","ND","ND","ND"],
    [620,"2010-06-01T15:00:00","ND","ND","ND","ND","ND","ND","ND","ND","ND","ND","ND","ND"],
    [621,"2010-06-01T16:00:00","ND","ND","ND","ND","ND","ND","ND","ND","ND","ND","ND","ND"],
    [622,"2010-06-01T17:00:00","ND","ND","ND","ND","ND","ND","ND","ND","ND","ND","ND","ND"],
    [623,"2010-06-01T18:00:00","ND","ND","ND","ND","ND","ND","ND","ND","ND","ND","ND","ND"],
    [624,"2010-06-01T19:00:00","ND","ND","ND","ND","ND","ND","ND","ND","ND","ND","ND","ND"],
    [625,"2010-06-01T20:00:00","ND","ND","ND","ND","ND","ND","ND","ND","ND","ND","ND","ND"],
    [626,"2010-06-01T21:00:00","ND","ND","ND","ND","ND","ND","ND","ND","ND","ND","ND","ND"],
    [627,"2010-06-01T22:00:00","ND","ND","ND","ND","ND","ND","ND","ND","ND","ND","ND","ND"],
    [628,"2010-06-01T23:00:00","ND","ND","ND","ND","ND","ND","ND","ND","ND","ND","ND","ND"],
    [629,"2010-06-02T00:00:00","ND","ND","ND","ND","ND","ND","ND","ND","ND","ND","ND","ND"],
    [630,"2010-06-02T01:00:00","ND","ND","ND","ND","ND","ND","ND","ND","ND","ND","ND","ND"],
    [631,"2010-06-02T02:00:00","ND","ND","ND","ND","ND","ND","ND","ND","ND","ND","ND","ND"],
    [632,"2010-06-02T03:00:00","ND","ND","ND","ND","ND","ND","ND","ND","ND","ND","ND","ND"],
    [633,"2010-06-02T04:00:00","ND","ND","ND","ND","ND","ND","ND","ND","ND","ND","ND","ND"],
    [634,"2010-06-02T05:00:00","ND","ND","ND","ND","ND","ND","ND","ND","ND","ND","ND","ND"],
    [635,"2010-06-02T06:00:00","ND","ND","ND","ND","ND","ND","ND","ND","ND","ND","ND","ND"],
    [636,"2010-06-02T07:00:00","ND","ND","ND","ND","ND","ND","ND","ND","ND","ND","ND","ND"],
    [637,"2010-06-02T08:00:00","ND","ND","ND","ND","ND","ND","ND","ND","ND","ND","ND","ND"],
    [638,"2010-06-02T09:00:00","ND","ND","ND","ND","ND","ND","ND","ND","ND","ND","ND","ND"],
    [639,"2010-06-02T10:00:00","ND","ND","ND","ND","ND","ND","ND","ND","ND","ND","ND","ND"],
    [640,"2010-06-02T11:00:00","ND","ND","ND","ND","ND","ND","ND","ND","ND","ND","ND","ND"],
    [641,"2010-06-02T12:00:00","ND","ND","ND","ND","ND","ND","ND","ND","ND","ND","ND","ND"],
    [642,"2010-06-02T13:00:00","ND","ND","ND","ND","ND","ND","ND","ND","ND","ND","ND","ND"],
    [643,"2010-06-02T14:00:00","ND","ND","ND","ND","ND","ND","ND","ND","ND","ND","ND","ND"],
    [644,"2010-06-02T15:00:00","ND","ND","ND","ND","ND","ND","ND","ND","ND","ND","ND","ND"],
    [645,"2010-06-02T16:00:00","ND","ND","ND","ND","ND","ND","ND","ND","ND","ND","ND","ND"],
    [646,"2010-06-02T17:00:00","ND","ND","ND","ND","ND","ND","ND","ND","ND","ND","ND","ND"],
    [647,"2010-06-02T18:00:00","ND","ND","ND","ND","ND","ND","ND","ND","ND","ND","ND","ND"],
    [648,"2010-06-02T19:00:00","ND","ND","ND","ND","ND","ND","ND","ND","ND","ND","ND","ND"],
    [649,"2010-06-02T20:00:00","ND","ND","ND","ND","ND","ND","ND","ND","ND","ND","ND","ND"],
    [650,"2010-06-02T21:00:00","ND","ND","ND","ND","ND","ND","ND","ND","ND","ND","ND","ND"],
    [651,"2010-06-02T22:00:00","ND","ND","ND","ND","ND","ND","ND","ND","ND","ND","ND","ND"],
    [652,"2010-06-02T23:00:00","ND","ND","ND","ND","ND","ND","ND","ND","ND","ND","ND","ND"],
    [653,"2010-06-03T00:00:00","ND","ND","ND","ND","ND","ND","ND","ND","ND","ND","ND","ND"],
    [654,"2010-06-03T01:00:00","ND","ND","ND","ND","ND","ND","ND","ND","ND","ND","ND","ND"],
    [655,"2010-06-03T02:00:00","ND","ND","ND","ND","ND","ND","ND","ND","ND","ND","ND","ND"],
    [656,"2010-06-03T03:00:00","ND","ND","ND","ND","ND","ND","ND","ND","ND","ND","ND","ND"],
    [657,"2010-06-03T04:00:00","ND","ND","ND","ND","ND","ND","ND","ND","ND","ND","ND","ND"],
    [658,"2010-06-03T05:00:00","ND","ND","ND","ND","ND","ND","ND","ND","ND","ND","ND","ND"],
    [659,"2010-06-03T06:00:00","ND","ND","ND","ND","ND","ND","ND","ND","ND","ND","ND","ND"],
    [660,"2010-06-03T07:00:00","ND","ND","ND","ND","ND","ND","ND","ND","ND","ND","ND","ND"],
    [661,"2010-06-03T08:00:00","ND","ND","ND","ND","ND","ND","ND","ND","ND","ND","ND","ND"],
    [662,"2010-06-03T09:00:00","ND","ND","ND","ND","ND","ND","ND","ND","ND","ND","ND","ND"],
    [663,"2010-06-03T10:00:00","ND","ND","ND","ND","ND","ND","ND","ND","ND","ND","ND","ND"],
    [664,"2010-06-03T11:00:00","ND","ND","ND","ND","ND","ND","ND","ND","ND","ND","ND","ND"],
    [665,"2010-06-03T12:00:00","ND","ND","ND","ND","ND","ND","ND","ND","ND","ND","ND","ND"],
    [666,"2010-06-03T13:00:00","ND","ND","ND","ND","ND","ND","ND","ND","ND","ND","ND","ND"],
    [667,"2010-06-03T14:00:00","ND","ND","ND","ND","ND","ND","ND","ND","ND","ND","ND","ND"],
    [668,"2010-06-03T15:00:00","ND","ND","ND","ND","ND","ND","ND","ND","ND","ND","ND","ND"],
    [669,"2010-06-03T16:00:00","ND","ND","ND","ND","ND","ND","ND","ND","ND","ND","ND","ND"],
    [670,"2010-06-03T17:00:00","ND","ND","ND","ND","ND","ND","ND","ND","ND","ND","ND","ND"],
    [671,"2010-06-03T18:00:00","ND","ND","ND","ND","ND","ND","ND","ND","ND","ND","ND","ND"],
    [672,"2010-06-03T19:00:00","ND","ND","ND","ND","ND","ND","ND","ND","ND","ND","ND","ND"],
    [673,"2010-06-03T20:00:00","ND","ND","ND","ND","ND","ND","ND","ND","ND","ND","ND","ND"],
    [674,"2010-06-03T21:00:00","ND","ND","ND","ND","ND","ND","ND","ND","ND","ND","ND","ND"],
    [675,"2010-06-03T22:00:00","ND","ND","ND","ND","ND","ND","ND","ND","ND","ND","ND","ND"],
    [676,"2010-06-03T23:00:00","ND","ND","ND","ND","ND","ND","ND","ND","ND","ND","ND","ND"],
    [677,"2010-06-04T00:00:00","ND","ND","ND","ND","ND","ND","ND","ND","ND","ND","ND","ND"],
    [678,"2010-06-04T01:00:00","ND","ND","ND","ND","ND","ND","ND","ND","ND","ND","ND","ND"],
    [679,"2010-06-04T02:00:00","ND","ND","ND","ND","ND","ND","ND","ND","ND","ND","ND","ND"],
    [680,"2010-06-04T03:00:00","ND","ND","ND","ND","ND","ND","ND","ND","ND","ND","ND","ND"],
    [681,"2010-06-04T04:00:00","ND","ND","ND","ND","ND","ND","ND","ND","ND","ND","ND","ND"],
    [682,"2010-06-04T05:00:00","ND","ND","ND","ND","ND","ND","ND","ND","ND","ND","ND","ND"],
    [683,"2010-06-04T06:00:00","ND","ND","ND","ND","ND","ND","ND","ND","ND","ND","ND","ND"],
    [684,"2010-06-04T07:00:00","ND","ND","ND","ND","ND","ND","ND","ND","ND","ND","ND","ND"],
    [685,"2010-06-04T08:00:00","ND","ND","ND","ND","ND","ND","ND","ND","ND","ND","ND","ND"],
    [686,"2010-06-04T09:00:00","ND","ND","ND","ND","ND","ND","ND","ND","ND","ND","ND","ND"],
    [687,"2010-06-04T10:00:00","ND","ND","ND","ND","ND","ND","ND","ND","ND","ND","ND","ND"],
    [688,"2010-06-04T11:00:00","ND","ND","ND","ND","ND","ND","ND","ND","ND","ND","ND","ND"],
    [689,"2010-06-04T12:00:00","ND","ND","ND","ND","ND","ND","ND","ND","ND","ND","ND","ND"],
    [690,"2010-06-04T13:00:00","ND","ND","ND","ND","ND","ND","ND","ND","ND","ND","ND","ND"],
    [691,"2010-06-04T14:00:00","ND","ND","ND","ND","ND","ND","ND","ND","ND","ND","ND","ND"],
    [692,"2010-06-04T15:00:00","ND","ND","ND","ND","ND","ND","ND","ND","ND","ND","ND","ND"],
    [693,"2010-06-04T16:00:00","ND","ND","ND","ND","ND","ND","ND","ND","ND","ND","ND","ND"],
    [694,"2010-06-04T17:00:00","ND","ND","ND","ND","ND","ND","ND","ND","ND","ND","ND","ND"],
    [695,"2010-06-04T18:00:00","ND","ND","ND","ND","ND","ND","ND","ND","ND","ND","ND","ND"],
    [696,"2010-06-04T19:00:00","ND","ND","ND","ND","ND","ND","ND","ND","ND","ND","ND","ND"],
    [697,"2010-06-04T20:00:00","ND","ND","ND","ND","ND","ND","ND","ND","ND","ND","ND","ND"],
    [698,"2010-06-04T21:00:00","ND","ND","ND","ND","ND","ND","ND","ND","ND","ND","ND","ND"],
    [699,"2010-06-04T22:00:00","ND","ND","ND","ND","ND","ND","ND","ND","ND","ND","ND","ND"],
    [700,"2010-06-04T23:00:00","ND","ND","ND","ND","ND","ND","ND","ND","ND","ND","ND","ND"],
    [701,"2010-06-05T00:00:00","ND","ND","ND","ND","ND","ND","ND","ND","ND","ND","ND","ND"],
    [702,"2010-06-05T01:00:00","ND","ND","ND","ND","ND","ND","ND","ND","ND","ND","ND","ND"],
    [703,"2010-06-05T02:00:00","ND","ND","ND","ND","ND","ND","ND","ND","ND","ND","ND","ND"],
    [704,"2010-06-05T03:00:00","ND","ND","ND","ND","ND","ND","ND","ND","ND","ND","ND","ND"],
    [705,"2010-06-05T04:00:00","ND","ND","ND","ND","ND","ND","ND","ND","ND","ND","ND","ND"],
    [706,"2010-06-05T05:00:00","ND","ND","ND","ND","ND","ND","ND","ND","ND","ND","ND","ND"],
    [707,"2010-06-05T06:00:00","ND","ND","ND","ND","ND","ND","ND","ND","ND","ND","ND","ND"],
    [708,"2010-06-05T07:00:00","ND","ND","ND","ND","ND","ND","ND","ND","ND","ND","ND","ND"],
    [709,"2010-06-05T08:00:00","ND","ND","ND","ND","ND","ND","ND","ND","ND","ND","ND","ND"],
    [710,"2010-06-05T09:00:00","ND","ND","ND","ND","ND","ND","ND","ND","ND","ND","ND","ND"],
    [711,"2010-06-05T10:00:00","ND","ND","ND","ND","ND","ND","ND","ND","ND","ND","ND","ND"],
    [712,"2010-06-05T11:00:00","ND","ND","ND","ND","ND","ND","ND","ND","ND","ND","ND","ND"],
    [713,"2010-06-05T12:00:00","ND","ND","ND","ND","ND","ND","ND","ND","ND","ND","ND","ND"],
    [714,"2010-06-05T13:00:00","ND","ND","ND","ND","ND","ND","ND","ND","ND","ND","ND","ND"],
    [715,"2010-06-05T14:00:00","ND","ND","ND","ND","ND","ND","ND","ND","ND","ND","ND","ND"],
    [716,"2010-06-05T15:00:00","ND","ND","ND","ND","ND","ND","ND","ND","ND","ND","ND","ND"],
    [717,"2010-06-05T16:00:00","ND","ND","ND","ND","ND","ND","ND","ND","ND","ND","ND","ND"],
    [718,"2010-06-05T17:00:00","ND","ND","ND","ND","ND","ND","ND","ND","ND","ND","ND","ND"],
    [719,"2010-06-05T18:00:00","ND","ND","ND","ND","ND","ND","ND","ND","ND","ND","ND","ND"],
    [720,"2010-06-05T19:00:00","ND","ND","ND","ND","ND","ND","ND","ND","ND","ND","ND","ND"],
    [721,"2010-06-05T20:00:00","ND","ND","ND","ND","ND","ND","ND","ND","ND","ND","ND","ND"],
    [722,"2010-06-05T21:00:00","ND","ND","ND","ND","ND","ND","ND","ND","ND","ND","ND","ND"],
    [723,"2010-06-05T22:00:00","ND","ND","ND","ND","ND","ND","ND","ND","ND","ND","ND","ND"],
    [724,"2010-06-05T23:00:00","ND","ND","ND","ND","ND","ND","ND","ND","ND","ND","ND","ND"],
    [725,"2010-06-06T00:00:00","ND","ND","ND","ND","ND","ND","ND","ND","ND","ND","ND","ND"],
    [726,"2010-06-06T01:00:00","ND","ND","ND","ND","ND","ND","ND","ND","ND","ND","ND","ND"],
    [727,"2010-06-06T02:00:00","ND","ND","ND","ND","ND","ND","ND","ND","ND","ND","ND","ND"],
    [728,"2010-06-06T03:00:00","ND","ND","ND","ND","ND","ND","ND","ND","ND","ND","ND","ND"],
    [729,"2010-06-06T04:00:00","ND","ND","ND","ND","ND","ND","ND","ND","ND","ND","ND","ND"],
    [730,"2010-06-06T05:00:00","ND","ND","ND","ND","ND","ND","ND","ND","ND","ND","ND","ND"],
    [731,"2010-06-06T06:00:00","ND","ND","ND","ND","ND","ND","ND","ND","ND","ND","ND","ND"],
    [732,"2010-06-06T07:00:00","ND","ND","ND","ND","ND","ND","ND","ND","ND","ND","ND","ND"],
    [733,"2010-06-06T08:00:00","ND","ND","ND","ND","ND","ND","ND","ND","ND","ND","ND","ND"],
    [734,"2010-06-06T09:00:00","ND","ND","ND","ND","ND","ND","ND","ND","ND","ND","ND","ND"],
    [735,"2010-06-06T10:00:00","ND","ND","ND","ND","ND","ND","ND","ND","ND","ND","ND","ND"],
    [736,"2010-06-06T11:00:00","ND","ND","ND","ND","ND","ND","ND","ND","ND","ND","ND","ND"],
    [737,"2010-06-06T12:00:00","ND","ND","ND","ND","ND","ND","ND","ND","ND","ND","ND","ND"],
    [738,"2010-06-06T13:00:00","ND","ND","ND","ND","ND","ND","ND","ND","ND","ND","ND","ND"],
    [739,"2010-06-06T14:00:00","ND","ND","ND","ND","ND","ND","ND","ND","ND","ND","ND","ND"],
    [740,"2010-06-06T15:00:00","ND","ND","ND","ND","ND","ND","ND","ND","ND","ND","ND","ND"],
    [741,"2010-06-06T16:00:00","ND","ND","ND","ND","ND","ND","ND","ND","ND","ND","ND","ND"],
    [742,"2010-06-06T17:00:00","ND","ND","ND","ND","ND","ND","ND","ND","ND","ND","ND","ND"],
    [743,"2010-06-06T18:00:00","ND","ND","ND","ND","ND","ND","ND","ND","ND","ND","ND","ND"],
    [744,"2010-06-06T19:00:00","ND","ND","ND","ND","ND","ND","ND","ND","ND","ND","ND","ND"],
    [745,"2010-06-06T20:00:00","ND","ND","ND","ND","ND","ND","ND","ND","ND","ND","ND","ND"],
    [746,"2010-06-06T21:00:00","ND","ND","ND","ND","ND","ND","ND","ND","ND","ND","ND","ND"],
    [747,"2010-06-06T22:00:00","ND","ND","ND","ND","ND","ND","ND","ND","ND","ND","ND","ND"],
    [748,"2010-06-06T23:00:00","ND","ND","ND","ND","ND","ND","ND","ND","ND","ND","ND","ND"],
    [749,"2010-06-07T00:00:00","ND","ND","ND","ND","ND","ND","ND","ND","ND","ND","ND","ND"],
    [750,"2010-06-07T01:00:00","ND","ND","ND","ND","ND","ND","ND","ND","ND","ND","ND","ND"],
    [751,"2010-06-07T02:00:00","ND","ND","ND","ND","ND","ND","ND","ND","ND","ND","ND","ND"],
    [752,"2010-06-07T03:00:00","ND","ND","ND","ND","ND","ND","ND","ND","ND","ND","ND","ND"],
    [753,"2010-06-07T04:00:00","ND","ND","ND","ND","ND","ND","ND","ND","ND","ND","ND","ND"],
    [754,"2010-06-07T05:00:00","ND","ND","ND","ND","ND","ND","ND","ND","ND","ND","ND","ND"],
    [755,"2010-06-07T06:00:00","ND","ND","ND","ND","ND","ND","ND","ND","ND","ND","ND","ND"],
    [756,"2010-06-07T07:00:00","ND","ND","ND","ND","ND","ND","ND","ND","ND","ND","ND","ND"],
    [757,"2010-06-07T08:00:00","ND","ND","ND","ND","ND","ND","ND","ND","ND","ND","ND","ND"],
    [758,"2010-06-07T09:00:00","ND","ND","ND","ND","ND","ND","ND","ND","ND","ND","ND","ND"],
    [759,"2010-06-07T10:00:00","ND","ND","ND","ND","ND","ND","ND","ND","ND","ND","ND","ND"],
    [760,"2010-06-07T11:00:00","ND","ND","ND","ND","ND","ND","ND","ND","ND","ND","ND","ND"],
    [761,"2010-06-07T12:00:00","ND","ND","ND","ND","ND","ND","ND","ND","ND","ND","ND","ND"],
    [762,"2010-06-07T13:00:00","ND","ND","ND","ND","ND","ND","ND","ND","ND","ND","ND","ND"],
    [763,"2010-06-07T14:00:00","ND","ND","ND","ND","ND","ND","ND","ND","ND","ND","ND","ND"],
    [764,"2010-06-07T15:00:00","ND","ND","ND","ND","ND","ND","ND","ND","ND","ND","ND","ND"],
    [765,"2010-06-07T16:00:00","ND","ND","ND","ND","ND","ND","ND","ND","ND","ND","ND","ND"],
    [766,"2010-06-07T17:00:00","ND","ND","ND","ND","ND","ND","ND","ND","ND","ND","ND","ND"],
    [767,"2010-06-07T18:00:00","ND","ND","ND","ND","ND","ND","ND","ND","ND","ND","ND","ND"],
    [768,"2010-06-07T19:00:00","ND","ND","ND","ND","ND","ND","ND","ND","ND","ND","ND","ND"],
    [769,"2010-06-07T20:00:00","ND","ND","ND","ND","ND","ND","ND","ND","ND","ND","ND","ND"],
    [770,"2010-06-07T21:00:00","ND","ND","ND","ND","ND","ND","ND","ND","ND","ND","ND","ND"],
    [771,"2010-06-07T22:00:00","ND","ND","ND","ND","ND","ND","ND","ND","ND","ND","ND","ND"],
    [772,"2010-06-07T23:00:00","ND","ND","ND","ND","ND","ND","ND","ND","ND","ND","ND","ND"],
    [773,"2010-06-08T00:00:00","ND","ND","ND","ND","ND","ND","ND","ND","ND","ND","ND","ND"],
    [774,"2010-06-08T01:00:00","ND","ND","ND","ND","ND","ND","ND","ND","ND","ND","ND","ND"],
    [775,"2010-06-08T02:00:00","ND","ND","ND","ND","ND","ND","ND","ND","ND","ND","ND","ND"],
    [776,"2010-06-08T03:00:00","ND","ND","ND","ND","ND","ND","ND","ND","ND","ND","ND","ND"],
    [777,"2010-06-08T04:00:00","ND","ND","ND","ND","ND","ND","ND","ND","ND","ND","ND","ND"],
    [778,"2010-06-08T05:00:00","ND","ND","ND","ND","ND","ND","ND","ND","ND","ND","ND","ND"],
    [779,"2010-06-08T06:00:00","ND","ND","ND","ND","ND","ND","ND","ND","ND","ND","ND","ND"],
    [780,"2010-06-08T07:00:00","ND","ND","ND","ND","ND","ND","ND","ND","ND","ND","ND","ND"],
    [781,"2010-06-08T08:00:00","ND","ND","ND","ND","ND","ND","ND","ND","ND","ND","ND","ND"],
    [782,"2010-06-08T09:00:00","ND","ND","ND","ND","ND","ND","ND","ND","ND","ND","ND","ND"],
    [783,"2010-06-08T10:00:00","ND","ND","ND","ND","ND","ND","ND","ND","ND","ND","ND","ND"],
    [784,"2010-06-08T11:00:00","ND","ND","ND","ND","ND","ND","ND","ND","ND","ND","ND","ND"],
    [785,"2010-06-08T12:00:00","ND","ND","ND","ND","ND","ND","ND","ND","ND","ND","ND","ND"],
    [786,"2010-06-08T13:00:00","ND","ND","ND","ND","ND","ND","ND","ND","ND","ND","ND","ND"],
    [787,"2010-06-08T14:00:00","ND","ND","ND","ND","ND","ND","ND","ND","ND","ND","ND","ND"],
    [788,"2010-06-08T15:00:00","ND","ND","ND","ND","ND","ND","ND","ND","ND","ND","ND","ND"],
    [789,"2010-06-08T16:00:00","ND","ND","ND","ND","ND","ND","ND","ND","ND","ND","ND","ND"],
    [790,"2010-06-08T17:00:00","ND","ND","ND","ND","ND","ND","ND","ND","ND","ND","ND","ND"],
    [791,"2010-06-08T18:00:00","ND","ND","ND","ND","ND","ND","ND","ND","ND","ND","ND","ND"],
    [792,"2010-06-08T19:00:00","ND","ND","ND","ND","ND","ND","ND","ND","ND","ND","ND","ND"],
    [793,"2010-06-08T20:00:00","ND","ND","ND","ND","ND","ND","ND","ND","ND","ND","ND","ND"],
    [794,"2010-06-08T21:00:00","ND","ND","ND","ND","ND","ND","ND","ND","ND","ND","ND","ND"],
    [795,"2010-06-08T22:00:00","ND","ND","ND","ND","ND","ND","ND","ND","ND","ND","ND","ND"],
    [796,"2010-06-08T23:00:00","ND","ND","ND","ND","ND","ND","ND","ND","ND","ND","ND","ND"],
    [797,"2010-06-09T00:00:00","ND","ND","ND","ND","ND","ND","ND","ND","ND","ND","ND","ND"],
    [798,"2010-06-09T01:00:00","ND","ND","ND","ND","ND","ND","ND","ND","ND","ND","ND","ND"],
    [799,"2010-06-09T02:00:00","ND","ND","ND","ND","ND","ND","ND","ND","ND","ND","ND","ND"],
    [800,"2010-06-09T03:00:00","ND","ND","ND","ND","ND","ND","ND","ND","ND","ND","ND","ND"],
    [801,"2010-06-09T04:00:00","ND","ND","ND","ND","ND","ND","ND","ND","ND","ND","ND","ND"],
    [802,"2010-06-09T05:00:00","ND","ND","ND","ND","ND","ND","ND","ND","ND","ND","ND","ND"],
    [803,"2010-06-09T06:00:00","ND","ND","ND","ND","ND","ND","ND","ND","ND","ND","ND","ND"],
    [804,"2010-06-09T07:00:00","ND","ND","ND","ND","ND","ND","ND","ND","ND","ND","ND","ND"],
    [805,"2010-06-09T08:00:00","ND","ND","ND","ND","ND","ND","ND","ND","ND","ND","ND","ND"],
    [806,"2010-06-09T09:00:00","ND","ND","ND","ND","ND","ND","ND","ND","ND","ND","ND","ND"],
    [807,"2010-06-09T10:00:00","ND","ND","ND","ND","ND","ND","ND","ND","ND","ND","ND","ND"],
    [808,"2010-06-09T11:00:00","ND","ND","ND","ND","ND","ND","ND","ND","ND","ND","ND","ND"],
    [809,"2010-06-09T12:00:00","ND","ND","ND","ND","ND","ND","ND","ND","ND","ND","ND","ND"],
    [810,"2010-06-09T13:00:00","ND","ND","ND","ND","ND","ND","ND","ND","ND","ND","ND","ND"],
    [811,"2010-06-09T14:00:00","ND","ND","ND","ND","ND","ND","ND","ND","ND","ND","ND","ND"],
    [812,"2010-06-09T15:00:00","ND","ND","ND","ND","ND","ND","ND","ND","ND","ND","ND","ND"],
    [813,"2010-06-09T16:00:00","ND","ND","ND","ND","ND","ND","ND","ND","ND","ND","ND","ND"],
    [814,"2010-06-09T17:00:00","ND","ND","ND","ND","ND","ND","ND","ND","ND","ND","ND","ND"],
    [815,"2010-06-09T18:00:00","ND","ND","ND","ND","ND","ND","ND","ND","ND","ND","ND","ND"],
    [816,"2010-06-09T19:00:00","ND","ND","ND","ND","ND","ND","ND","ND","ND","ND","ND","ND"],
    [817,"2010-06-09T20:00:00","ND","ND","ND","ND","ND","ND","ND","ND","ND","ND","ND","ND"],
    [818,"2010-06-09T21:00:00","ND","ND","ND","ND","ND","ND","ND","ND","ND","ND","ND","ND"],
    [819,"2010-06-09T22:00:00","ND","ND","ND","ND","ND","ND","ND","ND","ND","ND","ND","ND"],
    [820,"2010-06-09T23:00:00","ND","ND","ND","ND","ND","ND","ND","ND","ND","ND","ND","ND"],
    [821,"2010-06-10T00:00:00","ND","ND","ND","ND","ND","ND","ND","ND","ND","ND","ND","ND"],
    [822,"2010-06-10T01:00:00","ND","ND","ND","ND","ND","ND","ND","ND","ND","ND","ND","ND"],
    [823,"2010-06-10T02:00:00","ND","ND","ND","ND","ND","ND","ND","ND","ND","ND","ND","ND"],
    [824,"2010-06-10T03:00:00","ND","ND","ND","ND","ND","ND","ND","ND","ND","ND","ND","ND"],
    [825,"2010-06-10T04:00:00","ND","ND","ND","ND","ND","ND","ND","ND","ND","ND","ND","ND"],
    [826,"2010-06-10T05:00:00","ND","ND","ND","ND","ND","ND","ND","ND","ND","ND","ND","ND"],
    [827,"2010-06-10T06:00:00","ND","ND","ND","ND","ND","ND","ND","ND","ND","ND","ND","ND"],
    [828,"2010-06-10T07:00:00","ND","ND","ND","ND","ND","ND","ND","ND","ND","ND","ND","ND"],
    [829,"2010-06-10T08:00:00","ND","ND","ND","ND","ND","ND","ND","ND","ND","ND","ND","ND"],
    [830,"2010-06-10T09:00:00","ND","ND","ND","ND","ND","ND","ND","ND","ND","ND","ND","ND"],
    [831,"2010-06-10T10:00:00","ND","ND","ND","ND","ND","ND","ND","ND","ND","ND","ND","ND"],
    [832,"2010-06-10T11:00:00","ND","ND","ND","ND","ND","ND","ND","ND","ND","ND","ND","ND"],
    [833,"2010-06-10T12:00:00","ND","ND","ND","ND","ND","ND","ND","ND","ND","ND","ND","ND"],
    [834,"2010-06-10T13:00:00","ND","ND","ND","ND","ND","ND","ND","ND","ND","ND","ND","ND"],
    [835,"2010-06-10T14:00:00","ND","ND","ND","ND","ND","ND","ND","ND","ND","ND","ND","ND"],
    [836,"2010-06-10T15:00:00","ND","ND","ND","ND","ND","ND","ND","ND","ND","ND","ND","ND"],
    [837,"2010-06-10T16:00:00","ND","ND","ND","ND","ND","ND","ND","ND","ND","ND","ND","ND"],
    [838,"2010-06-10T17:00:00","ND","ND","ND","ND","ND","ND","ND","ND","ND","ND","ND","ND"],
    [839,"2010-06-10T18:00:00","ND","ND","ND","ND","ND","ND","ND","ND","ND","ND","ND","ND"],
    [840,"2010-06-10T19:00:00","ND","ND","ND","ND","ND","ND","ND","ND","ND","ND","ND","ND"],
    [841,"2010-06-10T20:00:00","ND","ND","ND","ND","ND","ND","ND","ND","ND","ND","ND","ND"],
    [842,"2010-06-10T21:00:00","ND","ND","ND","ND","ND","ND","ND","ND","ND","ND","ND","ND"],
    [843,"2010-06-10T22:00:00","ND","ND","ND","ND","ND","ND","ND","ND","ND","ND","ND","ND"],
    [844,"2010-06-10T23:00:00","ND","ND","ND","ND","ND","ND","ND","ND","ND","ND","ND","ND"],
    [845,"2010-06-11T00:00:00","ND","ND","ND","ND","ND","ND","ND","ND","ND","ND","ND","ND"],
    [846,"2010-06-11T01:00:00","ND","ND","ND","ND","ND","ND","ND","ND","ND","ND","ND","ND"],
    [847,"2010-06-11T02:00:00","ND","ND","ND","ND","ND","ND","ND","ND","ND","ND","ND","ND"],
    [848,"2010-06-11T03:00:00","ND","ND","ND","ND","ND","ND","ND","ND","ND","ND","ND","ND"],
    [849,"2010-06-11T04:00:00","ND","ND","ND","ND","ND","ND","ND","ND","ND","ND","ND","ND"],
    [850,"2010-06-11T05:00:00","ND","ND","ND","ND","ND","ND","ND","ND","ND","ND","ND","ND"],
    [851,"2010-06-11T06:00:00","ND","ND","ND","ND","ND","ND","ND","ND","ND","ND","ND","ND"],
    [852,"2010-06-11T07:00:00","ND","ND","ND","ND","ND","ND","ND","ND","ND","ND","ND","ND"],
    [853,"2010-06-11T08:00:00","ND","ND","ND","ND","ND","ND","ND","ND","ND","ND","ND","ND"],
    [854,"2010-06-11T09:00:00","ND","ND","ND","ND","ND","ND","ND","ND","ND","ND","ND","ND"],
    [855,"2010-06-11T10:00:00","ND","ND","ND","ND","ND","ND","ND","ND","ND","ND","ND","ND"],
    [856,"2010-06-11T11:00:00","ND","ND","ND","ND","ND","ND","ND","ND","ND","ND","ND","ND"],
    [857,"2010-06-11T12:00:00","ND","ND","ND","ND","ND","ND","ND","ND","ND","ND","ND","ND"],
    [858,"2010-06-11T13:00:00","ND","ND","ND","ND","ND","ND","ND","ND","ND","ND","ND","ND"],
    [859,"2010-06-11T14:00:00","ND","ND","ND","ND","ND","ND","ND","ND","ND","ND","ND","ND"],
    [860,"2010-06-11T15:00:00","ND","ND","ND","ND","ND","ND","ND","ND","ND","ND","ND","ND"],
    [861,"2010-06-11T16:00:00","ND","ND","ND","ND","ND","ND","ND","ND","ND","ND","ND","ND"],
    [862,"2010-06-11T17:00:00","ND","ND","ND","ND","ND","ND","ND","ND","ND","ND","ND","ND"],
    [863,"2010-06-11T18:00:00","ND","ND","ND","ND","ND","ND","ND","ND","ND","ND","ND","ND"],
    [864,"2010-06-11T19:00:00","ND","ND","ND","ND","ND","ND","ND","ND","ND","ND","ND","ND"],
    [865,"2010-06-11T20:00:00","ND","ND","ND","ND","ND","ND","ND","ND","ND","ND","ND","ND"],
    [866,"2010-06-11T21:00:00","ND","ND","ND","ND","ND","ND","ND","ND","ND","ND","ND","ND"],
    [867,"2010-06-11T22:00:00","ND","ND","ND","ND","ND","ND","ND","ND","ND","ND","ND","ND"],
    [868,"2010-06-11T23:00:00","ND","ND","ND","ND","ND","ND","ND","ND","ND","ND","ND","ND"],
    [869,"2010-06-12T00:00:00","ND","ND","ND","ND","ND","ND","ND","ND","ND","ND","ND","ND"],
    [870,"2010-06-12T01:00:00","ND","ND","ND","ND","ND","ND","ND","ND","ND","ND","ND","ND"],
    [871,"2010-06-12T02:00:00","ND","ND","ND","ND","ND","ND","ND","ND","ND","ND","ND","ND"],
    [872,"2010-06-12T03:00:00","ND","ND","ND","ND","ND","ND","ND","ND","ND","ND","ND","ND"],
    [873,"2010-06-12T04:00:00","ND","ND","ND","ND","ND","ND","ND","ND","ND","ND","ND","ND"],
    [874,"2010-06-12T05:00:00","ND","ND","ND","ND","ND","ND","ND","ND","ND","ND","ND","ND"],
    [875,"2010-06-12T06:00:00","ND","ND","ND","ND","ND","ND","ND","ND","ND","ND","ND","ND"],
    [876,"2010-06-12T07:00:00","ND","ND","ND","ND","ND","ND","ND","ND","ND","ND","ND","ND"],
    [877,"2010-06-12T08:00:00","ND","ND","ND","ND","ND","ND","ND","ND","ND","ND","ND","ND"],
    [878,"2010-06-12T09:00:00","ND","ND","ND","ND","ND","ND","ND","ND","ND","ND","ND","ND"],
    [879,"2010-06-12T10:00:00","ND","ND","ND","ND","ND","ND","ND","ND","ND","ND","ND","ND"],
    [880,"2010-06-12T11:00:00","ND","ND","ND","ND","ND","ND","ND","ND","ND","ND","ND","ND"],
    [881,"2010-06-12T12:00:00","ND","ND","ND","ND","ND","ND","ND","ND","ND","ND","ND","ND"],
    [882,"2010-06-12T13:00:00","ND","ND","ND","ND","ND","ND","ND","ND","ND","ND","ND","ND"],
    [883,"2010-06-12T14:00:00","ND","ND","ND","ND","ND","ND","ND","ND","ND","ND","ND","ND"],
    [884,"2010-06-12T15:00:00","ND","ND","ND","ND","ND","ND","ND","ND","ND","ND","ND","ND"],
    [885,"2010-06-12T16:00:00","ND","ND","ND","ND","ND","ND","ND","ND","ND","ND","ND","ND"],
    [886,"2010-06-12T17:00:00","ND","ND","ND","ND","ND","ND","ND","ND","ND","ND","ND","ND"],
    [887,"2010-06-12T18:00:00","ND","ND","ND","ND","ND","ND","ND","ND","ND","ND","ND","ND"],
    [888,"2010-06-12T19:00:00","ND","ND","ND","ND","ND","ND","ND","ND","ND","ND","ND","ND"],
    [889,"2010-06-12T20:00:00","ND","ND","ND","ND","ND","ND","ND","ND","ND","ND","ND","ND"],
    [890,"2010-06-12T21:00:00","ND","ND","ND","ND","ND","ND","ND","ND","ND","ND","ND","ND"],
    [891,"2010-06-12T22:00:00","ND","ND","ND","ND","ND","ND","ND","ND","ND","ND","ND","ND"],
    [892,"2010-06-12T23:00:00","ND","ND","ND","ND","ND","ND","ND","ND","ND","ND","ND","ND"],
    [893,"2010-06-13T00:00:00","ND","ND","ND","ND","ND","ND","ND","ND","ND","ND","ND","ND"],
    [894,"2010-06-13T01:00:00","ND","ND","ND","ND","ND","ND","ND","ND","ND","ND","ND","ND"],
    [895,"2010-06-13T02:00:00","ND","ND","ND","ND","ND","ND","ND","ND","ND","ND","ND","ND"],
    [896,"2010-06-13T03:00:00","ND","ND","ND","ND","ND","ND","ND","ND","ND","ND","ND","ND"],
    [897,"2010-06-13T04:00:00","ND","ND","ND","ND","ND","ND","ND","ND","ND","ND","ND","ND"],
    [898,"2010-06-13T05:00:00","ND","ND","ND","ND","ND","ND","ND","ND","ND","ND","ND","ND"],
    [899,"2010-06-13T06:00:00","ND","ND","ND","ND","ND","ND","ND","ND","ND","ND","ND","ND"],
    [900,"2010-06-13T07:00:00","ND","ND","ND","ND","ND","ND","ND","ND","ND","ND","ND","ND"],
    [901,"2010-06-13T08:00:00","ND","ND","ND","ND","ND","ND","ND","ND","ND","ND","ND","ND"],
    [902,"2010-06-13T09:00:00","ND","ND","ND","ND","ND","ND","ND","ND","ND","ND","ND","ND"],
    [903,"2010-06-13T10:00:00","ND","ND","ND","ND","ND","ND","ND","ND","ND","ND","ND","ND"],
    [904,"2010-06-13T11:00:00","ND","ND","ND","ND","ND","ND","ND","ND","ND","ND","ND","ND"],
    [905,"2010-06-13T12:00:00","ND","ND","ND","ND","ND","ND","ND","ND","ND","ND","ND","ND"],
    [906,"2010-06-13T13:00:00","ND","ND","ND","ND","ND","ND","ND","ND","ND","ND","ND","ND"],
    [907,"2010-06-13T14:00:00","ND","ND","ND","ND","ND","ND","ND","ND","ND","ND","ND","ND"],
    [908,"2010-06-13T15:00:00","ND","ND","ND","ND","ND","ND","ND","ND","ND","ND","ND","ND"],
    [909,"2010-06-13T16:00:00","ND","ND","ND","ND","ND","ND","ND","ND","ND","ND","ND","ND"],
    [910,"2010-06-13T17:00:00","ND","ND","ND","ND","ND","ND","ND","ND","ND","ND","ND","ND"],
    [911,"2010-06-13T18:00:00","ND","ND","ND","ND","ND","ND","ND","ND","ND","ND","ND","ND"],
    [912,"2010-06-13T19:00:00","ND","ND","ND","ND","ND","ND","ND","ND","ND","ND","ND","ND"],
    [913,"2010-06-13T20:00:00","ND","ND","ND","ND","ND","ND","ND","ND","ND","ND","ND","ND"],
    [914,"2010-06-13T21:00:00","ND","ND","ND","ND","ND","ND","ND","ND","ND","ND","ND","ND"],
    [915,"2010-06-13T22:00:00","ND","ND","ND","ND","ND","ND","ND","ND","ND","ND","ND","ND"],
    [916,"2010-06-13T23:00:00","ND","ND","ND","ND","ND","ND","ND","ND","ND","ND","ND","ND"],
    [917,"2010-06-14T00:00:00","ND","ND","ND","ND","ND","ND","ND","ND","ND","ND","ND","ND"],
    [918,"2010-06-14T01:00:00","ND","ND","ND","ND","ND","ND","ND","ND","ND","ND","ND","ND"],
    [919,"2010-06-14T02:00:00","ND","ND","ND","ND","ND","ND","ND","ND","ND","ND","ND","ND"],
    [920,"2010-06-14T03:00:00","ND","ND","ND","ND","ND","ND","ND","ND","ND","ND","ND","ND"],
    [921,"2010-06-14T04:00:00","ND","ND","ND","ND","ND","ND","ND","ND","ND","ND","ND","ND"],
    [922,"2010-06-14T05:00:00","ND","ND","ND","ND","ND","ND","ND","ND","ND","ND","ND","ND"],
    [923,"2010-06-14T06:00:00","ND","ND","ND","ND","ND","ND","ND","ND","ND","ND","ND","ND"],
    [924,"2010-06-14T07:00:00","ND","ND","ND","ND","ND","ND","ND","ND","ND","ND","ND","ND"],
    [925,"2010-06-14T08:00:00","ND","ND","ND","ND","ND","ND","ND","ND","ND","ND","ND","ND"],
    [926,"2010-06-14T09:00:00","ND","ND","ND","ND","ND","ND","ND","ND","ND","ND","ND","ND"],
    [927,"2010-06-14T10:00:00","ND","ND","ND","ND","ND","ND","ND","ND","ND","ND","ND","ND"],
    [928,"2010-06-14T11:00:00","ND","ND","ND","ND","ND","ND","ND","ND","ND","ND","ND","ND"],
    [929,"2010-06-14T12:00:00","ND","ND","ND","ND","ND","ND","ND","ND","ND","ND","ND","ND"],
    [930,"2010-06-14T13:00:00","ND","ND","ND","ND","ND","ND","ND","ND","ND","ND","ND","ND"],
    [931,"2010-06-14T14:00:00","ND","ND","ND","ND","ND","ND","ND","ND","ND","ND","ND","ND"],
    [932,"2010-06-14T15:00:00","ND","ND","ND","ND","ND","ND","ND","ND","ND","ND","ND","ND"],
    [933,"2010-06-14T16:00:00","ND","ND","ND","ND","ND","ND","ND","ND","ND","ND","ND","ND"],
    [934,"2010-06-14T17:00:00","ND","ND","ND","ND","ND","ND","ND","ND","ND","ND","ND","ND"],
    [935,"2010-06-14T18:00:00","ND","ND","ND","ND","ND","ND","ND","ND","ND","ND","ND","ND"],
    [936,"2010-06-14T19:00:00","ND","ND","ND","ND","ND","ND","ND","ND","ND","ND","ND","ND"],
    [937,"2010-06-14T20:00:00","ND","ND","ND","ND","ND","ND","ND","ND","ND","ND","ND","ND"],
    [938,"2010-06-14T21:00:00","ND","ND","ND","ND","ND","ND","ND","ND","ND","ND","ND","ND"],
    [939,"2010-06-14T22:00:00","ND","ND","ND","ND","ND","ND","ND","ND","ND","ND","ND","ND"],
    [940,"2010-06-14T23:00:00","ND","ND","ND","ND","ND","ND","ND","ND","ND","ND","ND","ND"],
    [941,"2010-06-15T00:00:00","ND","ND","ND","ND","ND","ND","ND","ND","ND","ND","ND","ND"],
    [942,"2010-06-15T01:00:00","ND","ND","ND","ND","ND","ND","ND","ND","ND","ND","ND","ND"],
    [943,"2010-06-15T02:00:00","ND","ND","ND","ND","ND","ND","ND","ND","ND","ND","ND","ND"],
    [944,"2010-06-15T03:00:00","ND","ND","ND","ND","ND","ND","ND","ND","ND","ND","ND","ND"],
    [945,"2010-06-15T04:00:00","ND","ND","ND","ND","ND","ND","ND","ND","ND","ND","ND","ND"],
    [946,"2010-06-15T05:00:00","ND","ND","ND","ND","ND","ND","ND","ND","ND","ND","ND","ND"],
    [947,"2010-06-15T06:00:00","ND","ND","ND","ND","ND","ND","ND","ND","ND","ND","ND","ND"],
    [948,"2010-06-15T07:00:00","ND","ND","ND","ND","ND","ND","ND","ND","ND","ND","ND","ND"],
    [949,"2010-06-15T08:00:00","ND","ND","ND","ND","ND","ND","ND","ND","ND","ND","ND","ND"],
    [950,"2010-06-15T09:00:00","ND","ND","ND","ND","ND","ND","ND","ND","ND","ND","ND","ND"],
    [951,"2010-06-15T10:00:00","ND","ND","ND","ND","ND","ND","ND","ND","ND","ND","ND","ND"],
    [952,"2010-06-15T11:00:00","ND","ND","ND","ND","ND","ND","ND","ND","ND","ND","ND","ND"],
    [953,"2010-06-15T12:00:00","ND","ND","ND","ND","ND","ND","ND","ND","ND","ND","ND","ND"],
    [954,"2010-06-15T13:00:00","ND","ND","ND","ND","ND","ND","ND","ND","ND","ND","ND","ND"],
    [955,"2010-06-15T14:00:00","ND","ND","ND","ND","ND","ND","ND","ND","ND","ND","ND","ND"],
    [956,"2010-06-15T15:00:00","ND","ND","ND","ND","ND","ND","ND","ND","ND","ND","ND","ND"],
    [957,"2010-06-15T16:00:00","ND","ND","ND","ND","ND","ND","ND","ND","ND","ND","ND","ND"],
    [958,"2010-06-15T17:00:00","ND","ND","ND","ND","ND","ND","ND","ND","ND","ND","ND","ND"],
    [959,"2010-06-15T18:00:00","ND","ND","ND","ND","ND","ND","1.1","258.1","24.2","75.6","31.3","0.25"],
    [960,"2010-06-15T19:00:00","ND","ND","ND","ND","ND","ND","0.4","119.3","24.4","74.2","1.5","0"],
    [961,"2010-06-15T20:00:00","ND","3.53","ND","ND","ND","ND","0.2","148.3","24.1","77.4","0","4.83"],
    [962,"2010-06-15T21:00:00","ND","1.85","ND","ND","ND","ND","0.3","264.6","22.8","86.6","0","0"],
    [963,"2010-06-15T22:00:00","ND","7.33","ND","ND","ND","ND","0.1","297","22.9","86.5","0","0.25"],
    [964,"2010-06-15T23:00:00","ND","6.79","ND","ND","ND","ND","0.3","0.4","22.9","83.8","0","0"],
    [965,"2010-06-16T00:00:00","ND","7.05","ND","ND","ND","ND","0.1","235.7","22.6","85.4","0","0"],
    [966,"2010-06-16T01:00:00","ND","3.69","ND","ND","ND","ND","0.1","238.1","22.3","88.5","0","0"],
    [967,"2010-06-16T02:00:00","ND","2.16","ND","ND","ND","ND","0.1","212","22.3","86.3","0","0"],
    [968,"2010-06-16T03:00:00","ND","1.35","ND","ND","ND","ND","0.2","272.8","21.8","88.4","0","0"],
    [969,"2010-06-16T04:00:00","ND","0.99","ND","ND","ND","ND","0.1","235.7","21.7","90.1","0","0"],
    [970,"2010-06-16T05:00:00","ND","ND","ND","ND","ND","ND","0.2","289.7","21.9","88.7","0","0"],
    [971,"2010-06-16T06:00:00","ND","ND","ND","ND","ND","ND","0.1","247.4","21.7","90.7","0.2","0"],
    [972,"2010-06-16T07:00:00","ND","ND","ND","ND","ND","ND","0","187.8","21.4","91.9","21.3","0"],
    [973,"2010-06-16T08:00:00","ND","ND","ND","ND","ND","ND","0.1","149.3","22.5","85.1","174.8","0"],
    [974,"2010-06-16T09:00:00","ND","2.88","ND","ND","ND","ND","1","118.7","23.6","78.8","267.7","0"],
    [975,"2010-06-16T10:00:00","ND","4.38","ND","ND","ND","ND","0.6","113.7","24.6","74.8","378.3","0"],
    [976,"2010-06-16T11:00:00","ND","3.14","ND","ND","ND","ND","0.6","98.7","25.1","71.6","269.3","0"],
    [977,"2010-06-16T12:00:00","ND","4.88","ND","ND","ND","ND","0.5","92","25.6","70.4","294.8","0"],
    [978,"2010-06-16T13:00:00","ND","11.11","ND","ND","ND","ND","1.3","155.2","25.7","70.4","279.5","0"],
    [979,"2010-06-16T14:00:00","ND","11.11","ND","ND","ND","ND","1","81.8","25.8","72.2","284.6","0"],
    [980,"2010-06-16T15:00:00","ND","5.20","ND","ND","ND","ND","0.3","191.8","26.4","68.7","293.5","0"],
    [981,"2010-06-16T16:00:00","ND","2.11","ND","ND","ND","ND","0.4","33.6","26.6","66.9","220.8","0"],
    [982,"2010-06-16T17:00:00","ND","1.11","ND","ND","ND","ND","0.9","41.9","26.5","68.7","134.5","0"],
    [983,"2010-06-16T18:00:00","ND","2.98","ND","ND","ND","ND","1","61.9","26.5","66.5","66.6","0"],
    [984,"2010-06-16T19:00:00","ND","5.27","ND","ND","ND","ND","0.2","94.6","25.9","69.2","1.6","0"],
    [985,"2010-06-16T20:00:00","ND","12.27","ND","ND","ND","ND","0.1","133.7","25.5","68.9","0","0"],
    [986,"2010-06-16T21:00:00","ND","5.62","ND","ND","ND","ND","0.4","249.4","24.7","74.7","0","0"],
    [987,"2010-06-16T22:00:00","ND","5.68","ND","ND","ND","ND","0.2","299.7","23.8","78.8","0","0"],
    [988,"2010-06-16T23:00:00","ND","5.22","ND","ND","ND","ND","0.4","167.4","23.8","78.9","0","0"],
    [989,"2010-06-17T00:00:00","ND","2.43","ND","ND","ND","ND","0.2","136.1","23.6","79.5","0","0"],
    [990,"2010-06-17T01:00:00","ND","2.69","ND","ND","ND","ND","1.1","23.2","22.5","84.4","0","0"],
    [991,"2010-06-17T02:00:00","ND","2.62","ND","ND","ND","ND","0.9","15.2","21.9","89.8","0","0"],
    [992,"2010-06-17T03:00:00","ND","3.37","ND","ND","ND","ND","0.6","345.4","21.5","91.9","0","0"],
    [993,"2010-06-17T04:00:00","ND","11.60","ND","ND","ND","ND","0.3","162.1","21.7","92.7","0","0"],
    [994,"2010-06-17T05:00:00","ND","19.90","ND","ND","ND","ND","0.1","160.2","21.6","92.4","0","0"],
    [995,"2010-06-17T06:00:00","ND","7.12","ND","ND","ND","ND","0.8","141.9","21.9","89.9","0.2","0"],
    [996,"2010-06-17T07:00:00","ND","4.46","ND","ND","ND","ND","0.1","155.7","21.9","89.7","56.6","0"],
    [997,"2010-06-17T08:00:00","ND","2.52","ND","ND","ND","ND","0.8","58.8","23","84.3","266.3","0"],
    [998,"2010-06-17T09:00:00","ND","1.98","ND","ND","ND","ND","1.3","53.1","24.3","77.6","520","0"],
    [999,"2010-06-17T10:00:00","ND","4.39","ND","ND","ND","ND","1.6","37.1","25.2","72.7","720.7","0"],
    [1000,"2010-06-17T11:00:00","ND","7.79","ND","ND","ND","ND","0.8","104.3","26.8","65.2","788.2","0"],
    [1001,"2010-06-17T12:00:00","ND","7.75","ND","ND","ND","ND","1","45","27.4","63.7","537","0"],
    [1002,"2010-06-17T13:00:00","ND","12.44","ND","ND","ND","ND","0.7","336.4","28.2","60.4","465.2","0"],
    [1003,"2010-06-17T14:00:00","ND","5.83","ND","ND","ND","ND","1.1","62.7","29.2","56.9","789.3","0"],
    [1004,"2010-06-17T15:00:00","ND","2.15","ND","ND","ND","ND","0.6","4","30.3","53.5","647.8","0"],
    [1005,"2010-06-17T16:00:00","ND","3.09","ND","ND","ND","ND","1.3","34.7","29.3","56","167.1","0"],
    [1006,"2010-06-17T17:00:00","ND","ND","ND","ND","ND","ND","2.3","260.6","29.8","51.8","327.2","0"],
    [1007,"2010-06-17T18:00:00","ND","ND","ND","ND","ND","ND","1.2","262.8","29.3","52.7","80.8","0"],
    [1008,"2010-06-17T19:00:00","ND","2.87","ND","1871.04","52.59","ND","0.2","90.6","27.6","58.2","0.8","0"],
    [1009,"2010-06-17T20:00:00","ND","1.88","ND","1976.08","ND","ND","0.1","83.4","27.2","58.6","0","0"],
    [1010,"2010-06-17T21:00:00","ND","ND","ND","ND","ND","ND","0.6","147.5","26.5","61.5","0","0"],
    [1011,"2010-06-17T22:00:00","ND","ND","ND","ND","ND","ND","0.7","106.7","25.1","69.3","0","0"],
    [1012,"2010-06-17T23:00:00","ND","18.69","ND","1478.33","8.11","ND","0.3","151.9","24.1","73.8","0","0"],
    [1013,"2010-06-18T00:00:00","ND","25.65","ND","1724.64","10.27","ND","0.1","145.3","23.6","76.7","0","0"],
    [1014,"2010-06-18T01:00:00","ND","16.85","ND","1721.74","9.63","ND","0","341.2","23","79.6","0","0"],
    [1015,"2010-06-18T02:00:00","ND","22.77","ND","1547.57","7.31","ND","0","329.5","22.4","82.6","0","0"],
    [1016,"2010-06-18T03:00:00","ND","20.13","ND","1521.72","7.53","ND","0.1","307.3","21.9","84.2","0","0"],
    [1017,"2010-06-18T04:00:00","ND","15.87","ND","1247.06","6.58","ND","0.1","237.9","22.1","84.1","0","0"],
    [1018,"2010-06-18T05:00:00","ND","15.13","ND","964.29","6.47","ND","0.2","99.5","22","85.6","0","0.25"],
    [1019,"2010-06-18T06:00:00","ND","11.78","ND","997.99","6.33","ND","0.1","354.9","21.1","91.6","0.4","0"],
    [1020,"2010-06-18T07:00:00","ND","21.80","ND","972.33","6.43","ND","0.4","327.8","21.3","89.6","20.5","0"],
    [1021,"2010-06-18T08:00:00","ND","26.27","ND","1029.56","7.07","ND","0.6","109.2","23","82.6","166.3","0"],
    [1022,"2010-06-18T09:00:00","ND","51.95","ND","1263.09","6.35","ND","0.9","72.1","24.8","75.7","517.7","0"],
    [1023,"2010-06-18T10:00:00","ND","74.31","ND","1969.12","8.28","ND","1.3","157.6","25.1","73.8","265","0"],
    [1024,"2010-06-18T11:00:00","ND","209.59","ND","1294.97","11.97","ND","0.5","29.5","26.5","66.3","705.3","0"],
    [1025,"2010-06-18T12:00:00","ND","56.59","ND","1439.22","15.96","ND","0.8","119.7","27.8","60.4","377.4","0"],
    [1026,"2010-06-18T13:00:00","ND","15.26","ND","1144.81","60.89","ND","0.4","133.8","27.9","60.6","342.7","0"],
    [1027,"2010-06-18T14:00:00","ND","8.92","ND","775.03","73.59","ND","1.4","347.2","28.6","57.7","622.5","0"],
    [1028,"2010-06-18T15:00:00","ND","7.64","ND","660.88","72.93","ND","3.2","269.2","29","52.2","601.7","0"],
    [1029,"2010-06-18T16:00:00","ND","4.78","ND","650.15","89.09","ND","2.5","269.6","29.1","51","483.1","0"],
    [1030,"2010-06-18T17:00:00","ND","4.28","ND","406.48","39.13","ND","3.7","269.6","28.4","52","337.1","0"],
    [1031,"2010-06-18T18:00:00","ND","4.96","ND","382.36","37.53","ND","3.4","286.2","27.1","53.2","97.1","0"],
    [1032,"2010-06-18T19:00:00","ND","8.13","ND","403.79","33.16","ND","2","285.7","26.9","51.9","2.4","0"],
    [1033,"2010-06-18T20:00:00","ND","6.38","ND","299.76","31.01","ND","1.2","197.7","26.5","53","0","0"],
    [1034,"2010-06-18T21:00:00","2.6","5.74","ND","391.47","21.64","ND","3.2","176.1","24.4","70.1","0","0"],
    [1035,"2010-06-18T22:00:00","16.3","7.71","ND","708.85","11.24","ND","1.5","149","23.5","76.4","0","0"],
    [1036,"2010-06-18T23:00:00","9.8","5.14","ND","683.90","8.24","ND","1.3","144","22.7","79.1","0","0"],
    [1037,"2010-06-19T00:00:00","6.5","6.76","ND","841.21","7.46","ND","0.3","197.2","22.6","81.4","0","0"],
    [1038,"2010-06-19T01:00:00","9","5.80","ND","681.83","6.95","ND","0.6","29.3","21.9","86.4","0","0"],
    [1039,"2010-06-19T02:00:00","15.5","5.29","ND","634.87","6.35","ND","0.3","8","21.7","87.6","0","0"],
    [1040,"2010-06-19T03:00:00","34.6","6.30","ND","668.42","5.05","ND","0.3","347.3","21.4","88.4","0","0"],
    [1041,"2010-06-19T04:00:00","37.3","6.68","ND","577.20","5.35","ND","0.5","34.8","21.3","88.7","0","0"],
    [1042,"2010-06-19T05:00:00","27","7.12","ND","724.09","5.45","ND","0.1","343.4","21","89.7","0","0"],
    [1043,"2010-06-19T06:00:00","34.6","8.01","ND","972.00","6.25","ND","0.3","22.4","21.1","89.1","0.2","0"],
    [1044,"2010-06-19T07:00:00","24.7","7.19","ND","576.61","5.52","ND","0.3","26.7","21.4","87.5","17.3","0"],
    [1045,"2010-06-19T08:00:00","53.1","7.87","ND","531.93","5.95","ND","1.2","42.6","21.5","88.8","108.9","0"],
    [1046,"2010-06-19T09:00:00","27.1","9.71","ND","724.58","6.23","ND","1.1","50.9","22.2","84.9","150.3","0"],
    [1047,"2010-06-19T10:00:00","34","10.43","ND","692.25","7.43","ND","1","44.7","23","79.4","205.8","0"],
    [1048,"2010-06-19T11:00:00","29.8","13.25","ND","568.96","8.67","ND","1.7","6.2","23.3","78.3","271.6","0"],
    [1049,"2010-06-19T12:00:00","39.4","18.24","ND","558.15","12.45","ND","0.8","27.9","23.8","73.1","186.2","0"],
    [1050,"2010-06-19T13:00:00","21.6","58.67","ND","524.86","13.49","ND","1","88.7","25.3","67.1","439","0"],
    [1051,"2010-06-19T14:00:00","12.6","56.89","ND","447.24","14.24","ND","2.4","62.4","25.4","67.7","382.6","0"],
    [1052,"2010-06-19T15:00:00","7","33.72","ND","481.80","27.22","ND","1.8","48.5","22.8","83.7","246.4","0"],
    [1053,"2010-06-19T16:00:00","4.5","19.01","ND","352.52","28.81","ND","0.1","1.6","23.7","77.1","248.2","0"],
    [1054,"2010-06-19T17:00:00","3.3","11.74","ND","296.56","19.46","ND","0.7","119.2","23.7","77.8","90.4","0"],
    [1055,"2010-06-19T18:00:00","13.7","15.31","ND","342.18","17.58","ND","2.3","182","23.5","78.5","24.6","0"],
    [1056,"2010-06-19T19:00:00","9","9.85","ND","444.54","17.08","ND","2.1","168.2","22.5","82.9","0.4","0"],
    [1057,"2010-06-19T20:00:00","21.8","8.34","ND","829.28","10.47","ND","1.8","139.9","20.8","91.4","0","16.26"],
    [1058,"2010-06-19T21:00:00","11.9","7.13","ND","948.75","7.87","ND","0.4","106.1","19.3","99.9","0","36.58"],
    [1059,"2010-06-19T22:00:00","6.8","6.12","ND","831.53","6.41","ND","1","180.3","19.1","100","0","42.16"],
    [1060,"2010-06-19T23:00:00","6.5","5.42","ND","786.05","5.81","ND","0.6","224","19.4","100","0","1.27"],
    [1061,"2010-06-20T00:00:00","10.9","5.66","ND","955.47","6.03","ND","0","268.1","19.6","97.2","0","1.02"],
    [1062,"2010-06-20T01:00:00","8.2","6.90","ND","1034.86","6.09","ND","0.2","267.4","19.7","96.2","0","0"],
    [1063,"2010-06-20T02:00:00","4.1","4.76","ND","697.64","6.03","ND","0.1","65.9","20","94.9","0","0.25"],
    [1064,"2010-06-20T03:00:00","3.4","4.25","ND","630.78","5.87","ND","0.8","18.2","19.7","97.6","0","7.11"],
    [1065,"2010-06-20T04:00:00","3.9","3.81","ND","528.86","5.59","ND","1.4","20","19.3","99.8","0","12.7"],
    [1066,"2010-06-20T05:00:00","4.5","4.14","ND","471.95","5.91","ND","1.4","6.6","19.2","99.5","0","5.84"],
    [1067,"2010-06-20T06:00:00","3.7","5.96","ND","426.86","4.79","ND","0.6","58.2","19.2","98.9","0","5.33"],
    [1068,"2010-06-20T07:00:00","2.4","11.05","ND","303.29","3.73","ND","0.6","51.1","19","98.7","7.4","4.83"],
    [1069,"2010-06-20T08:00:00","3.7","7.34","ND","269.41","5.65","ND","0","323.2","19.2","98.3","26.7","4.83"],
    [1070,"2010-06-20T09:00:00","3.7","5.88","ND","269.59","5.91","ND","0.5","153.8","19.6","97","98.9","1.52"],
    [1071,"2010-06-20T10:00:00","17.9","7.13","ND","348.70","5.59","ND","1.2","140.7","20.4","93.6","199.5","0.25"],
    [1072,"2010-06-20T11:00:00","11.4","7.48","ND","541.40","6.14","ND","1.8","159.9","20.7","91.1","203.3","0"],
    [1073,"2010-06-20T12:00:00","7","7.93","ND","891.97","7.58","ND","1.3","162.7","21.1","89","251.8","0.25"],
    [1074,"2010-06-20T13:00:00","5.9","6.41","ND","768.82","9.06","ND","1.1","131.1","22.2","82.7","331","0"],
    [1075,"2010-06-20T14:00:00","5.6","5.24","ND","737.65","9.49","ND","0.9","123.3","22.9","78.4","459.6","0"],
    [1076,"2010-06-20T15:00:00","4.9","5.10","ND","693.90","17.93","ND","0.4","92.5","23.6","74.6","320.9","0"],
    [1077,"2010-06-20T16:00:00","3.3","4.69","ND","524.50","28.14","ND","0.9","71.5","23.4","76.6","222.3","0"],
    [1078,"2010-06-20T17:00:00","3.3","4.59","ND","444.39","35.19","ND","0.7","70.5","23.5","76.4","113.8","0"],
    [1079,"2010-06-20T18:00:00","4","4.90","ND","353.35","28.53","ND","1.1","43","22.9","77.4","30","0"],
    [1080,"2010-06-20T19:00:00","3.1","4.45","ND","375.39","24.73","ND","0.6","1.2","22.4","80.5","3.4","0"],
    [1081,"2010-06-20T20:00:00","8.8","4.70","ND","397.46","20.17","ND","0.2","302.4","21.8","85.2","0","0"],
    [1082,"2010-06-20T21:00:00","7","5.88","ND","498.65","14.37","ND","0.2","302.1","21.4","86.3","0","0"],
    [1083,"2010-06-20T22:00:00","4.3","6.32","ND","792.24","6.46","ND","0.7","308.5","21.4","81.6","0","0"],
    [1084,"2010-06-20T23:00:00","3.6","8.13","ND","950.68","5.06","ND","0.2","277","20.9","86","0","0"],
    [1085,"2010-06-21T00:00:00","9.9","6.51","ND","644.01","8.55","ND","0.3","19","20.2","86","0","0"],
    [1086,"2010-06-21T01:00:00","6.4","7.45","ND","946.81","5.62","ND","0.2","207.9","19.9","89.8","0","0"],
    [1087,"2010-06-21T02:00:00","3.9","5.61","ND","731.90","5.05","ND","0.2","197.6","19.8","90.2","0","0"],
    [1088,"2010-06-21T03:00:00","2.6","5.72","ND","742.91","5.09","ND","0.1","272.8","19.3","93.2","0","0"],
    [1089,"2010-06-21T04:00:00","3","4.91","ND","696.69","5.20","ND","0.1","277.6","19.2","92.3","0","0"],
    [1090,"2010-06-21T05:00:00","11.3","4.24","ND","673.99","5.12","ND","0","341.2","19.9","89.8","0","0"],
    [1091,"2010-06-21T06:00:00","24","3.40","ND","585.52","5.11","ND","0.1","161.9","20.1","91.2","0.1","0"],
    [1092,"2010-06-21T07:00:00","14","3.76","ND","495.78","4.65","ND","0.4","50.7","20.2","91.2","26.7","0"],
    [1093,"2010-06-21T08:00:00","39.3","5.03","ND","642.48","4.61","ND","1.2","47.7","20","91.6","108.3","0"],
    [1094,"2010-06-21T09:00:00","35.5","8.40","ND","1070.07","4.79","ND","0.6","45.3","21.6","84.1","360.5","0"],
    [1095,"2010-06-21T10:00:00","20.5","11.03","ND","1381.69","5.41","ND","0.4","91.8","24.3","70.1","736.4","0"],
    [1096,"2010-06-21T11:00:00","11.6","10.87","ND","1302.92","12.14","ND","0.7","98.1","26.1","62.2","813.2","0"],
    [1097,"2010-06-21T12:00:00","13","12.26","ND","781.89","30.21","ND","1.2","83","27.1","59.6","873.3","0"],
    [1098,"2010-06-21T13:00:00","19.4","10.61","ND","738.36","57.88","ND","0.8","93.1","27.8","57.1","697.4","0"],
    [1099,"2010-06-21T14:00:00","18.2","11.43","ND","612.88","93.55","ND","1.5","52.1","28.6","54.1","829.7","0"],
    [1100,"2010-06-21T15:00:00","11.5","9.02","ND","475.37","87.84","ND","0.4","69.6","29.1","52.7","479.3","0"],
    [1101,"2010-06-21T16:00:00","23.2","11.10","ND","360.02","96.35","ND","1.3","276.8","24.8","75.6","99.9","ND"],
    [1102,"2010-06-21T17:00:00","28.4","27.65","ND","309.11","73.58","ND","2.1","277.5","23.6","82.9","157.3","0"],
    [1103,"2010-06-21T18:00:00","16.6","12.94","ND","319.26","44.00","ND","0.6","231.3","25.7","68.5","85.5","0"],
    [1104,"2010-06-21T19:00:00","10","7.62","ND","895.67","20.99","ND","0.5","57.1","24.9","69.1","2","0"],
    [1105,"2010-06-21T20:00:00","28.5","8.04","ND","1133.77","9.12","ND","0.5","76.5","24.8","69.6","0","0"],
    [1106,"2010-06-21T21:00:00","22.7","8.12","ND","1202.08","6.00","ND","0.5","138.8","24.6","69.3","0","0"],
    [1107,"2010-06-21T22:00:00","32.1","10.05","ND","1796.19","6.00","ND","0.2","170.5","23.6","75.6","0","0"],
    [1108,"2010-06-21T23:00:00","17.6","13.22","ND","1983.99","5.61","ND","0.1","189.1","22.9","80.4","0","0"],
    [1109,"2010-06-22T00:00:00","37.6","9.31","ND","1353.67","5.69","ND","0.1","61.9","22.5","81.5","0","0"],
    [1110,"2010-06-22T01:00:00","20.1","9.82","ND","1635.84","5.47","ND","0.1","332.4","21.5","85.4","0","0"],
    [1111,"2010-06-22T02:00:00","10.8","7.82","ND","1177.44","5.41","ND","0.2","200","21.2","88.6","0","0"],
    [1112,"2010-06-22T03:00:00","7.3","4.94","ND","769.08","6.06","ND","0.1","137.8","21.2","89.1","0","0"],
    [1113,"2010-06-22T04:00:00","23.7","5.41","ND","803.01","5.83","ND","0.6","5.1","20.4","91.2","0","0"],
    [1114,"2010-06-22T05:00:00","34.7","5.21","ND","654.20","5.56","ND","0.2","182.8","20.3","88.7","0","0"],
    [1115,"2010-06-22T06:00:00","28.3","8.64","ND","428.46","5.27","ND","0.2","50.5","20.3","91.6","0","0"],
    [1116,"2010-06-22T07:00:00","35.4","11.55","ND","496.12","5.10","ND","0.2","228.5","20.2","93.4","8.3","0"],
    [1117,"2010-06-22T08:00:00","65.8","8.84","ND","586.12","5.44","ND","0.5","154.6","20.7","92.5","32.4","0"],
    [1118,"2010-06-22T09:00:00","55.2","9.56","ND","959.72","5.13","ND","0.5","75.1","21.1","91.8","63.6","0"],
    [1119,"2010-06-22T10:00:00","58.1","11.02","ND","1537.64","5.56","ND","0.7","99.2","21.7","89.5","183.1","0"],
    [1120,"2010-06-22T11:00:00","44.7","9.95","ND","1608.75","5.07","ND","0","269.6","22.6","81.6","175.1","0"],
    [1121,"2010-06-22T12:00:00","30.1","13.67","ND","1454.57","5.70","ND","0.7","34","24","76.1","510.6","0"],
    [1122,"2010-06-22T13:00:00","20.7","12.51","ND","1073.26","9.35","ND","1.4","6.1","25.3","69.1","834.7","0"],
    [1123,"2010-06-22T14:00:00","15.4","32.97","ND","768.33","21.10","ND","1.6","23.4","26.9","63.9","841.5","0"],
    [1124,"2010-06-22T15:00:00","10.4","41.14","ND","403.52","40.25","ND","1.9","40.4","27.5","58.8","657.1","0"],
    [1125,"2010-06-22T16:00:00","7","42.22","ND","277.25","48.11","ND","1.2","28.7","27.7","59.6","520.5","0"],
    [1126,"2010-06-22T17:00:00","4.1","14.86","ND","231.20","55.56","ND","1.6","42.2","27.5","61.3","274.9","0"],
    [1127,"2010-06-22T18:00:00","45.9","13.79","ND","219.49","59.96","ND","0.7","17.7","27.2","62.6","64.7","0"],
    [1128,"2010-06-22T19:00:00","62.7","24.31","ND","288.52","58.95","ND","1","252.4","26.2","68.7","2.5","0"],
    [1129,"2010-06-22T20:00:00","51.2","62.22","ND","563.61","33.93","ND","0.2","275.5","25","71.8","0","0"],
    [1130,"2010-06-22T21:00:00","48.5","34.59","ND","1317.45","13.58","ND","0.2","248.1","24.5","76.2","0","0"],
    [1131,"2010-06-22T22:00:00","58.2","16.09","ND","1246.62","6.46","ND","0.2","233.6","23.8","79.4","0","0"],
    [1132,"2010-06-22T23:00:00","57.7","18.06","ND","2578.65","6.06","ND","0.2","90.5","23.9","79","0","0"],
    [1133,"2010-06-23T00:00:00","54.1","13.11","ND","1826.21","5.75","ND","0.5","6.6","22.9","83.8","0","0"],
    [1134,"2010-06-23T01:00:00","52","14.83","ND","2115.81","6.24","ND","0.2","344.9","22.4","86","0","0"],
    [1135,"2010-06-23T02:00:00","45.7","13.69","ND","1135.61","5.74","ND","0.2","330.1","22","87.8","0","0"],
    [1136,"2010-06-23T03:00:00","37.1","10.53","ND","1032.01","5.52","ND","0.1","229.7","21.6","88.6","0","0"],
    [1137,"2010-06-23T04:00:00","33.8","7.98","ND","917.35","5.57","ND","0.4","186","21.4","89.5","0","0"],
    [1138,"2010-06-23T05:00:00","18.1","6.83","ND","792.24","5.45","ND","0.2","252.3","21.3","89.6","0","0"],
    [1139,"2010-06-23T06:00:00","34.3","6.31","ND","814.60","5.85","ND","0.2","270.2","21.2","89.5","0.2","0"],
    [1140,"2010-06-23T07:00:00","18.3","5.98","ND","769.08","5.91","ND","0.2","303.2","21.7","87","22.3","0"],
    [1141,"2010-06-23T08:00:00","29.9","6.48","ND","747.73","5.38","ND","0.4","244.7","22.5","84.3","109.1","0"],
    [1142,"2010-06-23T09:00:00","33.8","6.94","ND","920.16","4.96","ND","0.7","205.3","24.3","74.9","398.4","0"],
    [1143,"2010-06-23T10:00:00","36.2","9.99","ND","1634.37","5.11","ND","1.2","117.9","26.1","67","638","0"],
    [1144,"2010-06-23T11:00:00","34.1","10.34","ND","1506.29","11.38","ND","1.2","106.1","27.6","60.7","798.3","0"],
    [1145,"2010-06-23T12:00:00","ND","10.65","ND","1097.82","43.49","ND","0.8","150.3","28.9","54.9","700.3","0"],
    [1146,"2010-06-23T13:00:00","ND","12.66","ND","707.97","84.19","ND","1","58.5","29.3","55.8","643.6","0"],
    [1147,"2010-06-23T14:00:00","ND","7.68","ND","429.99","84.80","ND","0.6","50.2","30.4","53","750.5","0"],
    [1148,"2010-06-23T15:00:00","ND","12.86","ND","548.19","ND","ND","1.7","55","30.4","52.3","464.6","0"],
    [1149,"2010-06-23T16:00:00","ND","20.83","ND","1154.70","ND","ND","2.2","270.9","30.6","48.8","390.5","0"],
    [1150,"2010-06-23T17:00:00","ND","38.07","ND","2182.54","ND","ND","4.1","280.5","29.3","50.2","301.8","0"],
    [1151,"2010-06-23T18:00:00","ND","29.98","ND","ND","ND","ND","1.7","281.6","28.7","50.8","103.6","0"],
    [1152,"2010-06-23T19:00:00","ND","26.93","ND","ND","ND","ND","0.4","153.6","27.8","54.4","1.7","0"],
    [1153,"2010-06-23T20:00:00","ND","27.19","ND","ND","ND","ND","0.3","109.6","27.4","57","0","0"],
    [1154,"2010-06-23T21:00:00","ND","28.37","ND","ND","ND","ND","1","157","26.7","61.2","0","0"],
    [1155,"2010-06-23T22:00:00","ND","30.30","ND","ND","ND","ND","0.5","34","25.2","70.5","0","0"],
    [1156,"2010-06-23T23:00:00","ND","32.41","ND","ND","ND","ND","0.5","114.5","24.4","74.5","0","0"],
    [1157,"2010-06-24T00:00:00","ND","36.48","ND","ND","ND","ND","0.3","320.9","23.6","79.2","0","0"],
    [1158,"2010-06-24T01:00:00","ND","30.80","ND","ND","ND","ND","0.2","357.2","22.8","83.1","0","0"],
    [1159,"2010-06-24T02:00:00","ND","27.91","ND","ND","ND","ND","0.2","243.4","22.9","82.7","0","0"],
    [1160,"2010-06-24T03:00:00","ND","30.34","ND","ND","ND","ND","0.5","251.5","22.4","84.5","0","0"],
    [1161,"2010-06-24T04:00:00","ND","27.58","ND","ND","ND","ND","0.1","164.6","22.4","84.4","0","0"],
    [1162,"2010-06-24T05:00:00","ND","26.42","ND","ND","ND","ND","0.1","275.9","21.7","87.5","0","0"],
    [1163,"2010-06-24T06:00:00","ND","24.07","ND","ND","ND","ND","0","86.7","22.1","84.9","0.1","0"],
    [1164,"2010-06-24T07:00:00","ND","22.42","ND","ND","ND","ND","0.9","35.4","21.3","88.9","15.2","0"],
    [1165,"2010-06-24T08:00:00","ND","20.81","ND","ND","ND","ND","0.2","267.9","21.9","85.5","99.7","0"],
    [1166,"2010-06-24T09:00:00","ND","33.71","ND","ND","ND","ND","0.4","166","23.4","78.5","219.2","0"],
    [1167,"2010-06-24T10:00:00","ND","36.07","ND","ND","ND","ND","0.5","63.3","24.7","73","330","0"],
    [1168,"2010-06-24T11:00:00","ND","32.64","ND","ND","ND","ND","1.6","33.3","25.7","69.7","632","0"],
    [1169,"2010-06-24T12:00:00","ND","43.70","ND","ND","ND","ND","1.9","56.3","27.1","64.9","897.4","0"],
    [1170,"2010-06-24T13:00:00","ND","43.20","ND","ND","ND","ND","1.8","52.6","28.4","59.1","791.7","0"],
    [1171,"2010-06-24T14:00:00","ND","41.74","ND","ND","ND","ND","2","49.4","29","55.6","822.1","0"],
    [1172,"2010-06-24T15:00:00","ND","28.15","ND","ND","ND","ND","1.6","70.5","29.8","53.4","665.7","0"],
    [1173,"2010-06-24T16:00:00","ND","34.40","ND","ND","ND","ND","1.3","53","30","52","530.9","0"],
    [1174,"2010-06-24T17:00:00","ND","34.77","ND","ND","ND","ND","ND","ND","ND","ND","ND","ND"],
    [1175,"2010-06-24T18:00:00","ND","ND","ND","ND","ND","ND","ND","ND","ND","ND","ND","ND"],
    [1176,"2010-06-24T19:00:00","ND","ND","ND","ND","ND","ND","ND","ND","ND","ND","ND","ND"],
    [1177,"2010-06-24T20:00:00","ND","ND","ND","ND","ND","ND","ND","ND","ND","ND","ND","ND"],
    [1178,"2010-06-24T21:00:00","ND","ND","ND","ND","ND","ND","ND","ND","ND","ND","ND","ND"],
    [1179,"2010-06-24T22:00:00","ND","ND","ND","ND","ND","ND","ND","ND","ND","ND","ND","ND"],
    [1180,"2010-06-24T23:00:00","ND","ND","ND","ND","ND","ND","ND","ND","ND","ND","ND","ND"],
    [1181,"2010-06-25T00:00:00","ND","ND","ND","ND","ND","ND","ND","ND","ND","ND","ND","ND"],
    [1182,"2010-06-25T01:00:00","ND","ND","ND","ND","ND","ND","ND","ND","ND","ND","ND","ND"],
    [1183,"2010-06-25T02:00:00","ND","ND","ND","ND","ND","ND","ND","ND","ND","ND","ND","ND"],
    [1184,"2010-06-25T03:00:00","ND","ND","ND","ND","ND","ND","ND","ND","ND","ND","ND","ND"],
    [1185,"2010-06-25T04:00:00","ND","ND","ND","ND","ND","ND","ND","ND","ND","ND","ND","ND"],
    [1186,"2010-06-25T05:00:00","ND","ND","ND","ND","ND","ND","ND","ND","ND","ND","ND","ND"],
    [1187,"2010-06-25T06:00:00","ND","ND","ND","ND","ND","ND","ND","ND","ND","ND","ND","ND"],
    [1188,"2010-06-25T07:00:00","ND","ND","ND","ND","ND","ND","ND","ND","ND","ND","ND","ND"],
    [1189,"2010-06-25T08:00:00","ND","ND","ND","ND","ND","ND","ND","ND","ND","ND","ND","ND"],
    [1190,"2010-06-25T09:00:00","ND","ND","ND","ND","ND","ND","ND","ND","ND","ND","ND","ND"],
    [1191,"2010-06-25T10:00:00","ND","ND","ND","ND","ND","ND","0.7","8.3","29.8","53.3","351","0"],
    [1192,"2010-06-25T11:00:00","ND","ND","ND","ND","ND","ND","1.3","124","27","65.4","464.8","0"],
    [1193,"2010-06-25T12:00:00","ND","55.45","ND","ND","ND","ND","1.8","95.1","27.4","64.7","636.1","0"],
    [1194,"2010-06-25T13:00:00","ND","29.56","ND","369.55","44.75","ND","1.2","79.1","28.1","63","609.2","0"],
    [1195,"2010-06-25T14:00:00","ND","1.35","ND","243.08","49.61","ND","1.2","49.5","28.7","63.1","611.8","0"],
    [1196,"2010-06-25T15:00:00","ND","ND","ND","255.16","67.07","ND","1.9","18.5","29.2","58.1","547","0"],
    [1197,"2010-06-25T16:00:00","ND","ND","ND","197.50","82.31","ND","2","345.9","30.4","49.8","563","0"],
    [1198,"2010-06-25T17:00:00","ND","0.03","ND","93.31","55.50","ND","0.9","340.2","30.3","49.3","311.5","0"],
    [1199,"2010-06-25T18:00:00","ND","ND","ND","58.30","38.31","ND","1.1","251.1","29.8","49.2","106.4","0"],
    [1200,"2010-06-25T19:00:00","ND","ND","ND","279.37","31.68","ND","0.6","247.4","28.3","53.6","2.8","0"],
    [1201,"2010-06-25T20:00:00","ND","0.05","ND","486.48","23.81","ND","0.9","253.8","27.4","57.3","0","0"],
    [1202,"2010-06-25T21:00:00","ND","0.85","ND","692.90","10.41","ND","0.4","198.4","27.3","57.4","0","0"],
    [1203,"2010-06-25T22:00:00","ND","1.11","ND","808.11","10.48","ND","1.2","356.8","25.4","67.8","0","0"],
    [1204,"2010-06-25T23:00:00","ND","1.57","ND","940.66","9.08","ND","1.5","24.9","24","73.3","0","0"],
    [1205,"2010-06-26T00:00:00","ND","1.02","ND","742.15","8.63","ND","0.2","288","23.3","74.3","0","0"],
    [1206,"2010-06-26T01:00:00","ND","0.08","ND","296.16","11.61","ND","0.2","316","22.8","77.7","0","0"],
    [1207,"2010-06-26T02:00:00","ND","0.03","ND","307.03","9.64","ND","0.1","58.3","22.7","79","0","0"],
    [1208,"2010-06-26T03:00:00","ND","0.21","ND","397.87","6.62","ND","0.1","55.6","22.4","80.2","0","0"],
    [1209,"2010-06-26T04:00:00","ND","0.78","ND","488.31","5.62","ND","0.1","301.4","21.9","83.1","0","0"],
    [1210,"2010-06-26T05:00:00","ND","1.09","ND","510.16","5.55","ND","0.1","0.3","21.8","83.5","0","0"],
    [1211,"2010-06-26T06:00:00","ND","1.19","ND","577.99","5.11","ND","0.5","18.2","21.9","82","0.5","0"],
    [1212,"2010-06-26T07:00:00","ND","1.84","ND","634.87","6.02","ND","0","50.2","22","82","27.7","0"],
    [1213,"2010-06-26T08:00:00","ND","0.18","ND","487.65","5.26","ND","0.3","322.6","22.5","81.2","81.7","0"],
    [1214,"2010-06-26T09:00:00","ND","2.36","ND","681.60","5.80","ND","0.5","337.2","23.6","75.7","245.2","0"],
    [1215,"2010-06-26T10:00:00","ND","3.76","ND","1003.40","6.19","ND","1.3","59.7","25.3","69","499.4","0"],
    [1216,"2010-06-26T11:00:00","ND","2.20","ND","791.26","11.12","ND","1.4","47.5","26.6","65.7","677.2","0"],
    [1217,"2010-06-26T12:00:00","ND","2.58","ND","380.08","21.11","ND","0.8","36.8","28","60.9","733.4","0"],
    [1218,"2010-06-26T13:00:00","ND","1.51","ND","254.57","35.44","ND","1.6","55.6","28.9","57.3","689.1","0"],
    [1219,"2010-06-26T14:00:00","ND","0.24","ND","232.12","65.67","ND","1.8","57.1","29.7","56.4","599.5","0"],
    [1220,"2010-06-26T15:00:00","ND","ND","ND","139.64","81.13","ND","1.7","59","29.2","58","344.5","0"],
    [1221,"2010-06-26T16:00:00","ND","0.03","ND","162.65","83.30","ND","2.3","268.1","30.4","51.8","589.4","0"],
    [1222,"2010-06-26T17:00:00","ND","ND","ND","93.31","68.01","ND","2.7","269.7","29.7","51.5","273","0"],
    [1223,"2010-06-26T18:00:00","ND","ND","ND","58.18","54.46","ND","2.3","272.5","29","52.6","118","0"],
    [1224,"2010-06-26T19:00:00","ND","0.03","ND","81.27","42.94","ND","0.7","153.8","28","55.4","1.4","0"],
    [1225,"2010-06-26T20:00:00","ND","0.03","ND","150.43","35.94","ND","3.2","248.9","26.6","60.9","0","0"],
    [1226,"2010-06-26T21:00:00","ND","0.13","ND","506.77","15.74","ND","1.9","93.9","26.7","61.2","0","0"],
    [1227,"2010-06-26T22:00:00","ND","0.05","ND","126.74","18.83","ND","1.3","8.1","23.6","78.8","0","0"],
    [1228,"2010-06-26T23:00:00","ND","0.31","ND","421.88","11.25","ND","0.3","295.9","22.7","87.1","0","1.27"],
    [1229,"2010-06-27T00:00:00","ND","0.16","ND","341.03","11.61","ND","0.2","323.5","22.8","88.1","0","0"],
    [1230,"2010-06-27T01:00:00","ND","0.49","ND","557.20","8.43","ND","0","249.3","22.6","89.1","0","0"],
    [1231,"2010-06-27T02:00:00","ND","1.04","ND","636.37","7.10","ND","0.2","210.5","22.2","89.5","0","0"],
    [1232,"2010-06-27T03:00:00","ND","0.55","ND","760.34","7.00","ND","0.4","7.2","21.8","90.1","0","0"],
    [1233,"2010-06-27T04:00:00","ND","1.43","ND","702.65","5.98","ND","0.4","77","21.9","89.7","0","0"],
    [1234,"2010-06-27T05:00:00","ND","1.22","ND","657.54","6.52","ND","0.6","9.2","21.5","91.6","0","0"],
    [1235,"2010-06-27T06:00:00","ND","1.29","ND","634.01","5.99","ND","0.2","276.5","21.4","91.8","0.1","0"],
    [1236,"2010-06-27T07:00:00","ND","0.96","ND","520.61","5.53","ND","0.2","218.9","21.7","91.4","17.7","0"],
    [1237,"2010-06-27T08:00:00","ND","0.62","ND","498.49","5.63","ND","0.2","289.7","22.4","87.4","108.5","0"],
    [1238,"2010-06-27T09:00:00","ND","1.22","ND","601.87","5.97","ND","0.1","57.9","23.5","82.9","185.8","0"],
    [1239,"2010-06-27T10:00:00","ND","1.43","ND","695.30","7.13","ND","1.2","72.2","24.5","77.8","399.5","0"],
    [1240,"2010-06-27T11:00:00","ND","0.97","ND","800.58","10.83","ND","0.9","61.2","25.5","71.7","532.3","0"],
    [1241,"2010-06-27T12:00:00","ND","0.60","ND","585.24","27.42","ND","0.6","132.1","26.6","66.9","493.2","0"],
    [1242,"2010-06-27T13:00:00","ND","0.03","ND","276.42","48.93","ND","1.1","134.1","27.7","62.4","625.4","0"],
    [1243,"2010-06-27T14:00:00","ND","0.03","ND","265.88","57.23","ND","2.3","121.4","27.9","60.7","437","0"],
    [1244,"2010-06-27T15:00:00","ND","0.08","ND","347.03","76.27","ND","2.2","118.2","27.1","64.8","329.5","0"],
    [1245,"2010-06-27T16:00:00","ND","ND","ND","230.74","57.25","ND","0.9","149.3","27","65.6","327.9","0"],
    [1246,"2010-06-27T17:00:00","ND","ND","ND","184.53","48.52","ND","0.3","303.8","27.4","63.3","244.8","0"],
    [1247,"2010-06-27T18:00:00","ND","ND","ND","254.06","53.25","ND","0.4","353.5","27","61.1","73.1","0"],
    [1248,"2010-06-27T19:00:00","ND","0.05","ND","299.86","63.30","ND","0.1","129.8","26.1","65.3","1.1","0"],
    [1249,"2010-06-27T20:00:00","ND","0.03","ND","218.47","32.58","ND","0.1","345.7","25.4","66.2","0","0"],
    [1250,"2010-06-27T21:00:00","ND","0.08","ND","619.46","11.34","ND","0.7","162.5","25.3","67.6","0","0"],
    [1251,"2010-06-27T22:00:00","ND","1.15","ND","940.34","6.11","ND","0.5","112.9","24.3","72.7","0","0"],
    [1252,"2010-06-27T23:00:00","ND","1.93","ND","1017.20","5.56","ND","0.6","21.9","23","79.9","0","0"],
    [1253,"2010-06-28T00:00:00","ND","2.08","ND","887.58","5.89","ND","0","316.1","22.7","81.3","0","0"],
    [1254,"2010-06-28T01:00:00","ND","0.42","ND","466.07","5.32","ND","0.1","29.1","22.5","83.4","0","0"],
    [1255,"2010-06-28T02:00:00","ND","0.60","ND","533.92","5.57","ND","0.4","334.1","21.7","86.7","0","0"],
    [1256,"2010-06-28T03:00:00","ND","0.98","ND","679.75","4.41","ND","0.4","196.6","22.1","84.7","0","0"],
    [1257,"2010-06-28T04:00:00","ND","0.16","ND","249.58","5.52","ND","0.5","79.9","21.9","86.7","0","0"],
    [1258,"2010-06-28T05:00:00","ND","0.18","ND","317.43","4.62","ND","0.5","344.1","21.2","89.2","0","0"],
    [1259,"2010-06-28T06:00:00","ND","0.18","ND","237.51","6.59","ND","0.1","285.9","21.6","88","0.1","0"],
    [1260,"2010-06-28T07:00:00","ND","0.41","ND","203.86","5.49","ND","0.2","295.8","22","86.7","23.6","0"],
    [1261,"2010-06-28T08:00:00","ND","0.78","ND","374.24","4.74","ND","0.2","140.5","22.8","82.3","113.1","0"],
    [1262,"2010-06-28T09:00:00","ND","2.24","ND","670.92","5.30","ND","0.6","148.1","23.7","78.8","222.2","0"],
    [1263,"2010-06-28T10:00:00","ND","3.29","ND","958.11","6.58","ND","1.1","158.7","25","71.6","555.3","0"],
    [1264,"2010-06-28T11:00:00","ND","4.24","ND","1432.01","8.75","ND","1.4","118.5","26.6","65.1","584.9","0"],
    [1265,"2010-06-28T12:00:00","ND","2.63","ND","1105.69","23.46","ND","1.2","54.9","27.8","59.9","928.4","0"],
    [1266,"2010-06-28T13:00:00","ND","1.90","ND","531.93","44.17","ND","1.7","56.4","28.2","57","436.5","0"],
    [1267,"2010-06-28T14:00:00","ND","0.53","ND","358.95","84.34","ND","1.2","29.1","28.6","58.5","659.1","0"],
    [1268,"2010-06-28T15:00:00","ND","0.27","ND","197.11","80.08","ND","1.8","40.9","28.9","57.9","548.1","0"],
    [1269,"2010-06-28T16:00:00","ND","0.08","ND","162.48","74.41","ND","1.3","23.5","29.1","56.5","360.3","0"],
    [1270,"2010-06-28T17:00:00","ND","0.21","ND","185.82","88.96","ND","1.2","4.5","29.8","51.1","369.6","0"],
    [1271,"2010-06-28T18:00:00","ND","0.13","ND","221.17","62.39","ND","1.7","281.6","29.1","51.4","123.8","0"],
    [1272,"2010-06-28T19:00:00","ND","0.16","ND","150.98","40.11","ND","0.8","259.7","27.6","53.8","2.4","0"],
    [1273,"2010-06-28T20:00:00","ND","0.40","ND","288.90","21.58","ND","0.1","243.3","26.6","58","0","0"],
    [1274,"2010-06-28T21:00:00","ND","0.50","ND","564.36","12.39","ND","0.2","288.2","25.7","61.5","0","0"],
    [1275,"2010-06-28T22:00:00","ND","3.99","ND","1504.27","6.86","ND","0.4","88.5","25.2","66.7","0","0"],
    [1276,"2010-06-28T23:00:00","ND","2.94","ND","1157.84","5.68","ND","0.1","328.2","24.6","71.4","0","0"],
    [1277,"2010-06-29T00:00:00","ND","3.06","ND","1132.63","6.15","ND","0.1","243.2","24.4","72.2","0","0"],
    [1278,"2010-06-29T01:00:00","ND","3.11","ND","1257.63","5.48","ND","0.1","313.8","24","73.6","0","0"],
    [1279,"2010-06-29T02:00:00","ND","2.82","ND","959.08","5.32","ND","1.2","345.3","23.3","78.8","0","0"],
    [1280,"2010-06-29T03:00:00","ND","1.09","ND","660.66","5.25","ND","0.5","349.1","23","79.4","0","0"],
    [1281,"2010-06-29T04:00:00","ND","1.41","ND","682.75","6.08","ND","0.2","2","22.5","81","0","0"],
    [1282,"2010-06-29T05:00:00","ND","1.22","ND","477.12","5.31","ND","0.3","228.4","22.3","81.7","0","0"],
    [1283,"2010-06-29T06:00:00","ND","1.38","ND","408.68","5.29","ND","0.7","36.5","21.9","85.1","0.2","0"],
    [1284,"2010-06-29T07:00:00","ND","1.79","ND","408.13","5.11","ND","0.3","303","21.6","86.3","23.6","0"],
    [1285,"2010-06-29T08:00:00","ND","4.12","ND","645.55","5.94","ND","0.4","296.8","23.1","80","211.3","0"],
    [1286,"2010-06-29T09:00:00","ND","5.83","ND","944.79","5.75","ND","0.8","122.5","25.4","69.7","410.1","0"],
    [1287,"2010-06-29T10:00:00","ND","7.32","ND","1193.03","8.12","ND","1.9","134.3","26.6","63.8","626.4","0"],
    [1288,"2010-06-29T11:00:00","ND","15.17","ND","1036.58","17.74","ND","0.7","163.6","28","59.3","730.1","0"],
    [1289,"2010-06-29T12:00:00","ND","11.91","ND","821.57","35.66","ND","0.7","52.1","28.7","57.5","491.1","0"],
    [1290,"2010-06-29T13:00:00","ND","10.53","ND","487.13","76.27","ND","0.5","67.8","29.7","55.3","775.6","0"],
    [1291,"2010-06-29T14:00:00","ND","3.89","ND","465.47","102.84","ND","0.7","109.1","30","53.5","321.9","0"],
    [1292,"2010-06-29T15:00:00","ND","1.49","ND","384.39","114.53","ND","2.7","284.1","29.2","53","175.1","0"],
    [1293,"2010-06-29T16:00:00","ND","0.90","ND","383.38","110.19","ND","2.5","258","27.5","58.6","44.6","0"],
    [1294,"2010-06-29T17:00:00","ND","2.17","ND","335.01","58.34","ND","1.7","241.3","25.5","71.6","57.9","3.3"],
    [1295,"2010-06-29T18:00:00","ND","1.18","ND","367.21","44.78","ND","0.6","302.9","24.9","75.8","27.9","0"],
    [1296,"2010-06-29T19:00:00","ND","1.20","ND","538.25","26.17","ND","0.4","115","25.4","70","1","0"],
    [1297,"2010-06-29T20:00:00","ND","2.13","ND","1078.32","12.05","ND","0.9","279.2","25","68.3","0","0"],
    [1298,"2010-06-29T21:00:00","ND","2.44","ND","1065.41","8.46","ND","0.8","156.8","24.4","69.7","0","0"],
    [1299,"2010-06-29T22:00:00","ND","3.40","ND","1280.50","8.85","ND","0.5","330.1","23.3","75.6","0","0"],
    [1300,"2010-06-29T23:00:00","ND","0.99","ND","831.52","6.05","ND","0.7","48","23","77.7","0","0"],
    [1301,"2010-06-30T00:00:00","ND","1.04","ND","785.16","6.74","ND","0.3","93.8","22.5","79.2","0","0"],
    [1302,"2010-06-30T01:00:00","ND","0.26","ND","533.92","6.73","ND","0.6","200.1","22.3","84.9","0","0"],
    [1303,"2010-06-30T02:00:00","ND","0.26","ND","351.92","6.86","ND","1","172.4","21.9","86.9","0","0"],
    [1304,"2010-06-30T03:00:00","ND","1.61","ND","419.47","5.28","ND","0.6","220.5","21.8","87.3","0","0"],
    [1305,"2010-06-30T04:00:00","ND","5.47","ND","328.66","8.06","ND","0.5","254","21.6","86.5","0","0"],
    [1306,"2010-06-30T05:00:00","ND","9.92","ND","260.48","8.36","ND","0.2","358.8","21.3","86.6","0","0"],
    [1307,"2010-06-30T06:00:00","ND","9.63","ND","226.28","7.11","ND","0.9","31.9","21.2","91.4","0","0"],
    [1308,"2010-06-30T07:00:00","ND","8.28","ND","260.13","5.10","ND","0.4","333.2","21.2","91.6","16.9","0"],
    [1309,"2010-06-30T08:00:00","ND","7.79","ND","373.23","5.11","ND","0.7","26.7","21.8","88","130","0"],
    [1310,"2010-06-30T09:00:00","ND","8.19","ND","555.32","5.16","ND","1.3","68.4","23.3","81.9","395","0"],
    [1311,"2010-06-30T10:00:00","ND","9.77","ND","672.05","7.47","ND","0.7","57.7","24.5","74.6","544.9","0"],
    [1312,"2010-06-30T11:00:00","ND","26.79","ND","629.03","11.99","ND","0.6","80.3","25.9","68","601.6","0"],
    [1313,"2010-06-30T12:00:00","ND","36.95","ND","517.08","27.40","ND","1","70.7","27.2","62.2","605.6","0"],
    [1314,"2010-06-30T13:00:00","ND","4.49","ND","380.84","53.26","ND","0.9","110.3","27.9","58.6","479.4","0"],
    [1315,"2010-06-30T14:00:00","ND","1.77","ND","416.43","81.22","ND","1.1","328.8","28.1","58.2","435","0"],
    [1316,"2010-06-30T15:00:00","ND","0.26","ND","393.56","86.59","ND","2.4","39.3","28.3","57.6","732.4","0"],
    [1317,"2010-06-30T16:00:00","ND","0.48","ND","370.65","78.67","ND","2.2","77.1","28.6","55","300.1","0"],
    [1318,"2010-06-30T17:00:00","ND","0.11","ND","243.48","51.86","ND","0.4","18.6","28.7","53.4","196.4","0"],
    [1319,"2010-06-30T18:00:00","ND","0.13","ND","266.76","39.79","ND","1.6","247.3","27.9","56.5","47.8","0"],
    [1320,"2010-06-30T19:00:00","34.4","0.16","ND","254.49","29.29","ND","0.7","187.8","27","59.5","1.5","0"],
    [1321,"2010-06-30T20:00:00","36.8","0.87","ND","841.91","16.28","ND","1.3","144.9","25.7","66.1","0","0"],
    [1322,"2010-06-30T21:00:00","33.1","2.55","ND","976.05","7.63","ND","0.5","119","25.1","68.8","0","0"],
    [1323,"2010-06-30T22:00:00","55","11.17","ND","1100.15","5.50","ND","0.1","154.1","24.5","72.8","0","0"],
    [1324,"2010-06-30T23:00:00","39.9","15.36","ND","1383.86","6.74","ND","0.3","76.2","23.6","77","0","0"],
    [1325,"2010-07-01T00:00:00","51.3","12.02","ND","1664.73","5.74","ND","0.2","93.4","22.7","80.5","0","0"],
    [1326,"2010-07-01T01:00:00","45.8","6.99","ND","1341.38","5.22","ND","0.2","150.6","22.9","79.9","0","0"],
    [1327,"2010-07-01T02:00:00","31.5","6.37","ND","568.77","5.61","ND","0.2","261","22.5","82.9","0","0"],
    [1328,"2010-07-01T03:00:00","30.4","14.68","ND","795.20","5.51","ND","0.4","134.7","22.7","81.1","0","0"],
    [1329,"2010-07-01T04:00:00","41.9","13.34","ND","829.84","5.28","ND","0.4","25.8","22","83.9","0","0"],
    [1330,"2010-07-01T05:00:00","90","12.19","ND","669.10","4.16","ND","0.1","330.2","21.7","86.4","0","0"],
    [1331,"2010-07-01T06:00:00","94.4","14.48","ND","611.78","5.65","ND","0.3","39.3","21.7","86.2","0.2","0"],
    [1332,"2010-07-01T07:00:00","63.7","22.47","ND","691.08","5.12","ND","0.7","29.5","21","87.7","25.9","0"],
    [1333,"2010-07-01T08:00:00","52.6","18.66","ND","689.44","4.92","ND","0.5","163","22.2","83.5","142","0"],
    [1334,"2010-07-01T09:00:00","52","18.22","ND","544.72","4.90","ND","0.9","60.1","23.4","79.6","294.4","0"],
    [1335,"2010-07-01T10:00:00","77.7","17.51","ND","1002.72","5.89","ND","0.9","100.2","25.5","70.1","586.6","0"],
    [1336,"2010-07-01T11:00:00","67","18.42","ND","1216.38","12.80","ND","0.8","139.5","26.5","64.9","369.3","0"],
    [1337,"2010-07-01T12:00:00","69.8","6.64","ND","1312.57","43.31","ND","0.3","189.8","27.6","60.8","468.3","0"],
    [1338,"2010-07-01T13:00:00","47.7","4.84","ND","1051.60","69.90","ND","0.3","64","28.3","58.4","412.5","0"],
    [1339,"2010-07-01T14:00:00","42.4","4.72","ND","891.89","98.73","ND","1.8","17.3","28.5","57.4","303.4","0"],
    [1340,"2010-07-01T15:00:00","27.3","2.20","ND","556.35","91.63","ND","0.9","230.6","28.8","54.8","297.9","0"],
    [1341,"2010-07-01T16:00:00","15.4","1.25","ND","382.87","68.57","ND","3.2","243.1","28.8","53.4","308.3","0"],
    [1342,"2010-07-01T17:00:00","8.5","0.11","0.57","324.86","43.90","ND","2.3","261.8","28.2","54.5","223.1","0"],
    [1343,"2010-07-01T18:00:00","10.9","14.17","12.43","301.06","25.80","ND","1.3","268.8","27.5","54.5","44.5","0"],
    [1344,"2010-07-01T19:00:00","7.9","14.82","30.73","335.01","23.41","ND","0.4","231.1","27","55.4","1.5","0"],
    [1345,"2010-07-01T20:00:00","10.3","13.00","0.63","530.52","18.49","ND","0.6","67.1","26.5","57.9","0","0"],
    [1346,"2010-07-01T21:00:00","6.8","11.17","26.33","495.09","13.69","ND","2.3","160.2","25.1","67.1","0","0"],
    [1347,"2010-07-01T22:00:00","37.8","14.02","36.42","802.19","5.81","ND","2.8","190.6","23.9","71.8","0","0"],
    [1348,"2010-07-01T23:00:00","20.6","16.66","28.28","593.52","6.92","ND","1.6","135.7","24.2","70.7","0","0"],
    [1349,"2010-07-02T00:00:00","18.8","11.50","23.22","365.61","13.99","ND","1.1","139.5","22.2","85.6","0","1.27"],
    [1350,"2010-07-02T01:00:00","10.8","14.15","22.26","351.80","8.94","ND","0.2","191.5","21.6","91.4","0","0"],
    [1351,"2010-07-02T02:00:00","10.3","16.91","20.26","317.11","10.40","ND","0.1","345.3","21.8","91.4","0","0"],
    [1352,"2010-07-02T03:00:00","10.8","15.32","18.18","328.66","7.90","ND","0.6","84.3","21.3","92.6","0","0"],
    [1353,"2010-07-02T04:00:00","11.8","12.86","21.73","384.67","5.64","ND","0.5","59.2","21.1","93","0","0"],
    [1354,"2010-07-02T05:00:00","18.1","15.08","15.17","260.04","8.44","ND","0.4","58.7","21.1","91.8","0","0"],
    [1355,"2010-07-02T06:00:00","11","16.58","12.64","214.82","9.14","ND","0.2","81.4","21.3","90.3","0","0"],
    [1356,"2010-07-02T07:00:00","11.6","16.43","13.36","237.59","9.48","ND","0.5","42.7","21.3","91.8","7.6","0"],
    [1357,"2010-07-02T08:00:00","12.5","16.98","14.49","271.53","7.52","ND","0.5","51.9","21.4","89.9","21.7","0"],
    [1358,"2010-07-02T09:00:00","20","20.58","19.97","430.07","5.70","ND","0.5","120.7","21.3","92.1","24.1","3.05"],
    [1359,"2010-07-02T10:00:00","30","15.97","21.87","531.75","6.55","ND","1","171.8","21.1","95.4","205.3","3.56"],
    [1360,"2010-07-02T11:00:00","16.7","21.31","24.70","723.59","6.12","ND","1.3","137.4","22.8","85.2","383.4","0.25"],
    [1361,"2010-07-02T12:00:00","10.4","23.04","23.03","716.40","8.96","ND","0.9","117.8","24.6","75.6","751.6","0"],
    [1362,"2010-07-02T13:00:00","6.3","19.23","27.80","709.32","20.73","ND","0.8","116.1","25.6","71.4","464.9","0"],
    [1363,"2010-07-02T14:00:00","4.1","14.81","21.31","447.69","41.23","ND","0.4","37.3","26.7","65.7","533.3","0"],
    [1364,"2010-07-02T15:00:00","2.9","15.31","18.81","368.69","51.35","ND","0.7","355.4","27.5","63.6","549.2","0"],
    [1365,"2010-07-02T16:00:00","6.1","14.16","18.48","369.67","78.58","ND","1","40.9","27.5","63.4","229.1","0"],
    [1366,"2010-07-02T17:00:00","19.9","14.19","23.85","450.54","96.78","ND","1.6","42.5","27.2","62.9","207.6","0"],
    [1367,"2010-07-02T18:00:00","23.3","17.34","22.60","369.30","96.17","ND","0.5","328.3","25.2","72.6","38.5","0"],
    [1368,"2010-07-02T19:00:00","19.3","37.00","29.06","378.30","64.59","ND","0.2","44.1","24.8","73.7","1.7","0"],
    [1369,"2010-07-02T20:00:00","45.7","20.82","30.21","480.83","33.48","ND","0.7","207.4","24.2","76.7","0","0"],
    [1370,"2010-07-02T21:00:00","44.9","19.10","43.67","868.32","15.72","ND","0.1","229.2","23.9","78.3","0","0"],
    [1371,"2010-07-02T22:00:00","51.3","26.81","48.60","2351.24","8.02","ND","0.3","344.3","23.5","82","0","0"],
    [1372,"2010-07-02T23:00:00","42.6","16.74","45.63","2256.88","5.58","ND","0.6","15.1","22.8","86.1","0","0"],
    [1373,"2010-07-03T00:00:00","56.8","14.30","39.11","1421.44","6.19","ND","0","313.2","22.4","87.2","0","0"],
    [1374,"2010-07-03T01:00:00","46","15.71","31.63","1203.75","5.37","ND","0.1","293.5","22.5","87.3","0","0"],
    [1375,"2010-07-03T02:00:00","65.3","11.64","24.28","829.28","5.78","ND","0.2","228.7","22.4","86.5","0","0"],
    [1376,"2010-07-03T03:00:00","33.2","11.17","23.97","1112.90","5.58","ND","0.5","167.6","22.4","85.8","0","0"],
    [1377,"2010-07-03T04:00:00","48.9","11.30","21.32","908.49","4.32","ND","0.3","10.1","21.7","89.7","0","0"],
    [1378,"2010-07-03T05:00:00","27.4","20.03","21.75","849.69","5.76","ND","0.5","43.6","21.2","91.2","0","0"],
    [1379,"2010-07-03T06:00:00","39.2","14.36","18.22","712.53","4.82","ND","0.1","357.7","21.2","91.5","0.1","0"],
    [1380,"2010-07-03T07:00:00","25.4","16.63","18.00","542.88","4.69","ND","0.1","284","21.3","91.2","24.2","0"],
    [1381,"2010-07-03T08:00:00","28.7","12.71","17.56","565.69","5.10","ND","0.1","20.5","22.1","87.6","107.3","0"],
    [1382,"2010-07-03T09:00:00","33.6","13.60","18.45","805.47","5.36","ND","0.3","132.2","23.9","78.6","351.2","0"],
    [1383,"2010-07-03T10:00:00","43.2","13.81","23.17","947.34","6.30","ND","0.7","79.3","25.1","72.3","482","0"],
    [1384,"2010-07-03T11:00:00","52","18.71","36.70","882.41","15.13","ND","0.5","141","26","68.5","372.8","0"],
    [1385,"2010-07-03T12:00:00","57.4","20.77","45.09","977.03","36.94","ND","0.5","123.2","27.4","62.9","471.8","0"],
    [1386,"2010-07-03T13:00:00","34.1","20.07","40.06","866.13","63.86","ND","0.3","326.5","28","59.7","401.5","0"],
    [1387,"2010-07-03T14:00:00","63.6","28.77","30.82","601.71","85.59","ND","1","321.7","28.6","58.1","572.4","0"],
    [1388,"2010-07-03T15:00:00","34.3","36.44","29.93","556.53","99.24","ND","2.4","254.5","27.8","60.7","221.4","0"],
    [1389,"2010-07-03T16:00:00","43.8","49.59","25.82","427.86","91.35","ND","1.7","247.8","26.8","69.4","247.8","0"],
    [1390,"2010-07-03T17:00:00","23.5","28.65","16.11","299.66","ND","ND","2","249.2","27.4","62.5","209.2","0"],
    [1391,"2010-07-03T18:00:00","12.4","10.54","18.49","531.22","ND","ND","0.8","266.6","27.3","58","92.5","0"],
    [1392,"2010-07-03T19:00:00","7.8","18.38","21.28","554.14","25.15","ND","0.3","175.8","26.2","60.5","1.7","0"],
    [1393,"2010-07-03T20:00:00","20.4","11.52","17.95","425.58","22.01","ND","0.3","290.1","25.6","64.4","0","0"],
    [1394,"2010-07-03T21:00:00","11.9","11.45","22.12","723.19","12.86","ND","0.8","205.6","25.1","69.6","0","0"],
    [1395,"2010-07-03T22:00:00","54.3","10.54","33.10","1111.61","5.93","ND","0.2","297.8","23.4","82.6","0","0"],
    [1396,"2010-07-03T23:00:00","45","16.65","33.93","2176.36","4.86","ND","0.2","250.8","22.8","85.9","0","0"],
    [1397,"2010-07-04T00:00:00","57.4","15.61","29.82","1853.55","8.41","ND","0.3","238.5","22.3","87.5","0","0"],
    [1398,"2010-07-04T01:00:00","64.4","11.94","23.78","1623.38","6.49","ND","0.1","310.1","22.5","85.2","0","0"],
    [1399,"2010-07-04T02:00:00","33","12.19","20.64","1715.35","5.02","ND","0.3","195.3","22.6","84.6","0","0"],
    [1400,"2010-07-04T03:00:00","25.8","13.13","21.15","1625.02","5.78","ND","0.2","162.9","22.4","85.4","0","0"],
    [1401,"2010-07-04T04:00:00","23.5","13.79","19.10","1305.95","5.14","ND","0.7","138.2","22.1","87.1","0","0.25"],
    [1402,"2010-07-04T05:00:00","14.4","13.39","16.39","1134.46","4.61","ND","0.4","49.6","21.3","93.3","0","0"],
    [1403,"2010-07-04T06:00:00","11.1","13.48","15.44","859.85","5.95","ND","0","1","21.2","94.2","0","0.25"],
    [1404,"2010-07-04T07:00:00","6.1","10.92","12.90","441.09","4.96","ND","0.8","43.2","21.2","95.1","2.8","0"],
    [1405,"2010-07-04T08:00:00","4.7","8.64","10.86","361.92","4.48","ND","1.5","43.2","20.7","97.3","7.5","0.25"],
    [1406,"2010-07-04T09:00:00","4.4","12.27","10.69","395.18","5.09","ND","1.2","44.1","19.9","98.2","26.4","4.57"],
    [1407,"2010-07-04T10:00:00","12.2","12.95","10.29","326.54","5.23","ND","0.6","46.9","20.3","97.2","88.6","1.02"],
    [1408,"2010-07-04T11:00:00","7.5","10.01","7.34","169.13","8.92","ND","0.6","164.9","21.1","94.2","119.6","0.76"],
    [1409,"2010-07-04T12:00:00","4.6","10.99","10.41","305.27","8.85","ND","0.9","148.4","21.8","91.8","172.2","1.27"],
    [1410,"2010-07-04T13:00:00","3","14.72","13.68","430.66","7.80","ND","1","125.6","22.5","89.1","233.8","0.25"],
    [1411,"2010-07-04T14:00:00","3.3","15.77","18.68","579.36","11.91","ND","0.7","144.5","23.1","85.2","239.4","0"],
    [1412,"2010-07-04T15:00:00","2.6","11.98","17.82","569.15","18.23","ND","0.1","21.5","23.7","82.4","282.3","0"],
    [1413,"2010-07-04T16:00:00","3.5","11.58","16.07","536.09","27.41","ND","0.3","81.8","24.5","78.9","349.2","0"],
    [1414,"2010-07-04T17:00:00","3","8.08","17.32","560.41","41.57","ND","1.2","252.6","24.8","76.2","222.3","0"],
    [1415,"2010-07-04T18:00:00","4.6","9.19","18.82","606.76","60.54","ND","0.8","267.7","24.9","72.6","92.5","0"],
    [1416,"2010-07-04T19:00:00","3.3","8.02","23.55","664.23","55.58","ND","0.3","342.8","23.5","79.6","3.2","0"],
    [1417,"2010-07-04T20:00:00","10.7","7.27","20.00","569.92","35.50","ND","0.4","279","22.3","87","0","0"],
    [1418,"2010-07-04T21:00:00","15","7.84","25.76","771.95","13.61","ND","0.1","272.3","21.7","90.4","0","0"],
    [1419,"2010-07-04T22:00:00","35","8.68","27.96","1348.18","5.43","ND","0.1","274.3","21.8","90.6","0","0"],
    [1420,"2010-07-04T23:00:00","18.8","8.19","25.64","1665.96","5.55","ND","0.1","290.7","21.7","91.3","0","0"],
    [1421,"2010-07-05T00:00:00","28.7","10.83","25.76","2583.06","5.78","ND","0","257","21.1","93.4","0","0"],
    [1422,"2010-07-05T01:00:00","28.2","9.52","22.32","1673.31","4.74","ND","0.6","345.6","21","93.2","0","0"],
    [1423,"2010-07-05T02:00:00","35.8","7.52","19.21","1559.72","4.49","ND","0.2","283","21","91","0","0"],
    [1424,"2010-07-05T03:00:00","19.6","10.62","21.15","1288.46","5.50","ND","0.3","343.7","21.2","91.2","0","0"],
    [1425,"2010-07-05T04:00:00","34.3","9.23","20.99","1063.14","5.23","ND","0.3","62.2","21.3","90.6","0","0"],
    [1426,"2010-07-05T05:00:00","27.6","8.64","19.88","1029.56","4.96","ND","0.1","82","21.3","90.9","0","0"],
    [1427,"2010-07-05T06:00:00","36.5","9.37","19.88","769.34","5.31","ND","0.3","226.3","21.2","92.3","0.1","0"],
    [1428,"2010-07-05T07:00:00","40.2","8.82","17.46","576.81","4.65","ND","0.1","247","21.3","91.8","18.9","0"],
    [1429,"2010-07-05T08:00:00","49.5","11.39","14.84","769.34","5.06","ND","0.5","50.6","21.7","90.5","102","0"],
    [1430,"2010-07-05T09:00:00","49.4","8.55","14.23","962.98","5.08","ND","1.2","34.2","21.7","90.8","120.6","0"],
    [1431,"2010-07-05T10:00:00","51.3","10.75","17.84","1098.93","6.21","ND","1.2","21.3","22.7","85","337.9","0"],
    [1432,"2010-07-05T11:00:00","47.6","10.30","19.32","727.53","6.99","ND","1.1","52","24.2","76.9","594.8","0"],
    [1433,"2010-07-05T12:00:00","35.2","80.49","25.79","594.12","12.86","ND","1.1","53","25.8","71.2","657.8","0"],
    [1434,"2010-07-05T13:00:00","25.3","41.88","12.84","356.09","41.99","ND","0.8","37.3","26.4","67.3","372.2","0"],
    [1435,"2010-07-05T14:00:00","ND","91.74","20.99","379.83","51.14","ND","0.4","170.5","26.1","70.2","187.4","1.27"],
    [1436,"2010-07-05T15:00:00","ND","79.77","17.98","344.95","63.87","ND","0.2","169.2","22.1","94.5","39.4","27.94"],
    [1437,"2010-07-05T16:00:00","ND","39.36","22.23","328.99","50.89","ND","1.1","177","21.8","96.9","73.2","0.51"],
    [1438,"2010-07-05T17:00:00","ND","20.63","25.79","407.99","19.22","ND","0.4","110","22.7","92.5","88.2","0.25"],
    [1439,"2010-07-05T18:00:00","ND","19.97","27.98","579.75","10.36","ND","1.2","127.3","23","90.2","38.3","0"],
    [1440,"2010-07-05T19:00:00","ND","11.19","46.70","1115.16","16.45","ND","0.4","3.6","23","83","0.6","0"],
    [1441,"2010-07-05T20:00:00","ND","12.86","54.61","1479.29","12.42","ND","0.8","179","22.4","89.7","0","0"],
    [1442,"2010-07-05T21:00:00","ND","12.21","38.22","1203.75","6.54","ND","1.9","161.5","22","90.7","0","0"],
    [1443,"2010-07-05T22:00:00","ND","15.10","27.58","1769.16","6.82","ND","1.5","172.6","21.8","91.3","0","0"],
    [1444,"2010-07-05T23:00:00","ND","13.63","29.87","1439.30","ND","ND","0.8","162","21.6","92","0","0"],
    [1445,"2010-07-06T00:00:00","ND","10.49","29.62","1109.89","ND","ND","0.1","269.5","21.3","92.5","0","0"],
    [1446,"2010-07-06T01:00:00","ND","10.40","27.16","995.62","ND","ND","0.8","36","20.9","94.9","0","0"],
    [1447,"2010-07-06T02:00:00","ND","7.68","19.73","858.68","ND","ND","0.5","62.8","20.6","95.6","0","0"],
    [1448,"2010-07-06T03:00:00","ND","7.54","16.42","643.35","ND","ND","0.1","42","20.7","94.6","0","0"],
    [1449,"2010-07-06T04:00:00","ND","7.95","11.66","372.60","ND","ND","0.2","69.7","20.7","95.4","0","0"],
    [1450,"2010-07-06T05:00:00","ND","7.10","9.76","293.56","ND","ND","0.3","83.9","20.6","95.9","0","0"],
    [1451,"2010-07-06T06:00:00","ND","8.88","8.74","270.89","ND","ND","0.4","48.9","20.6","94.4","0","0"],
    [1452,"2010-07-06T07:00:00","ND","9.63","8.18","304.75","ND","ND","0.4","46.1","20.4","94.7","7","0"],
    [1453,"2010-07-06T08:00:00","ND","10.71","9.87","327.10","ND","ND","0.4","164.6","20.9","92.7","16.2","0"],
    [1454,"2010-07-06T09:00:00","ND","9.20","9.68","338.95","ND","ND","1.3","156.2","21.4","89.4","72.3","0"],
    [1455,"2010-07-06T10:00:00","ND","11.34","13.69","826.19","ND","ND","1.7","156.4","22.1","85.7","115.9","0"],
    [1456,"2010-07-06T11:00:00","ND","14.04","21.32","1179.84","ND","ND","1.8","151.2","22.6","83","218.4","0"],
    [1457,"2010-07-06T12:00:00","ND","11.64","26.45","1136.38","ND","ND","ND","ND","ND","ND","ND","ND"],
    [1458,"2010-07-06T13:00:00","2.6","ND","ND","ND","ND","ND","0.4","125.1","24.4","74","514.7","0"],
    [1459,"2010-07-06T14:00:00","32.2","ND","ND","ND","ND","ND","1.4","0.1","25.8","69.1","553.1","0"],
    [1460,"2010-07-06T15:00:00","25.5","9.41","26.65","723.67","55.92","ND","0.8","45.4","26.4","66.4","314.5","0"],
    [1461,"2010-07-06T16:00:00","42.2","22.01","27.89","656.06","80.62","ND","0.6","286.9","27.1","59.5","205.2","0"],
    [1462,"2010-07-06T17:00:00","23.7","142.52","56.28","634.52","44.50","ND","0.9","86.6","26.7","60.1","203.9","0"],
    [1463,"2010-07-06T18:00:00","35.5","62.80","24.55","449.34","26.17","ND","0.8","130.6","25.1","70.3","59.2","0"],
    [1464,"2010-07-06T19:00:00","46.3","20.05","13.89","412.56","16.51","ND","0.8","243.7","24.5","70.9","3","0"],
    [1465,"2010-07-06T20:00:00","37.4","16.69","28.56","1155.12","8.64","ND","0.7","93.3","24.3","69.1","0","0"],
    [1466,"2010-07-06T21:00:00","32.1","18.17","29.37","2022.96","5.81","ND","0.2","351.1","23.3","78.2","0","0"],
    [1467,"2010-07-06T22:00:00","33.9","14.09","21.46","1252.98","6.40","ND","1.2","97.6","22.4","80.6","0","0"],
    [1468,"2010-07-06T23:00:00","20.4","11.97","30.88","1249.17","5.74","ND","2.1","159.7","20.9","92","0","0"],
    [1469,"2010-07-07T00:00:00","28.9","11.45","24.48","881.28","6.74","ND","2","154.3","20.6","91.9","0","0"],
    [1470,"2010-07-07T01:00:00","17.9","10.84","20.19","688.50","8.82","ND","1.6","155.7","20.4","91.7","0","0"],
    [1471,"2010-07-07T02:00:00","10.5","7.33","10.64","281.98","11.86","ND","1","172.2","20.4","93.3","0","0.51"],
    [1472,"2010-07-07T03:00:00","7.8","6.40","6.73","157.91","11.52","ND","0.3","134.9","20.3","94.7","0","1.02"],
    [1473,"2010-07-07T04:00:00","4.9","6.16","5.36","112.75","9.77","ND","0.1","163","20.3","96.1","0","0.25"],
    [1474,"2010-07-07T05:00:00","5.2","6.29","6.08","135.30","8.21","ND","0.7","85.6","20.1","97.1","0","0"],
    [1475,"2010-07-07T06:00:00","3.3","6.96","6.13","146.48","6.16","ND","0.4","77.3","19.7","96.5","0","0"],
    [1476,"2010-07-07T07:00:00","15","7.10","7.70","168.78","6.01","ND","0.4","49.1","19.8","95.3","26.7","0"],
    [1477,"2010-07-07T08:00:00","8.2","7.13","8.79","135.07","4.86","ND","0.1","195.8","20.5","90.2","109.1","0"],
    [1478,"2010-07-07T09:00:00","10.3","10.22","14.21","462.61","4.81","ND","0.3","20.1","21.3","85.8","206.5","0"],
    [1479,"2010-07-07T10:00:00","29.7","10.56","20.11","814.60","5.72","ND","0.7","59.1","22.3","82.2","288.8","0"],
    [1480,"2010-07-07T11:00:00","29.2","11.76","32.77","1067.11","8.52","ND","1","47","23.3","75.2","522.6","0"],
    [1481,"2010-07-07T12:00:00","18.6","15.37","35.04","956.82","16.88","ND","1.3","60.2","24.6","70","617.9","0"],
    [1482,"2010-07-07T13:00:00","10.8","17.61","20.29","469.07","32.06","ND","1.3","25.1","26","63.4","808.4","0"],
    [1483,"2010-07-07T14:00:00","7.8","22.29","15.65","333.34","46.47","ND","1.5","55.5","27.2","59.1","788.3","0"],
    [1484,"2010-07-07T15:00:00","6.5","26.66","13.74","300.06","58.20","ND","1.7","45","27.5","60.1","557.6","0"],
    [1485,"2010-07-07T16:00:00","5.4","34.88","11.28","184.83","55.53","ND","1.3","52.9","27.8","59.9","503.3","0"],
    [1486,"2010-07-07T17:00:00","7","30.44","11.56","185.02","47.78","ND","1","53.6","27.7","59.7","195.8","0"],
    [1487,"2010-07-07T18:00:00","6.9","36.59","13.84","196.52","47.56","ND","1","255.6","27.8","56.1","130.7","0"],
    [1488,"2010-07-07T19:00:00","10.2","34.09","16.27","265.97","37.16","ND","0.3","267.6","25.9","61.8","4.7","0"],
    [1489,"2010-07-07T20:00:00","18.1","16.50","13.68","482.61","19.96","ND","0.2","287.5","24.4","69.5","0","0"],
    [1490,"2010-07-07T21:00:00","29.1","11.92","18.85","891.77","8.26","ND","0.2","278.3","23.4","73.2","0","0"],
    [1491,"2010-07-07T22:00:00","46.5","16.21","24.09","2256.12","4.92","ND","0.6","108","23.3","73.8","0","0"],
    [1492,"2010-07-07T23:00:00","24.1","16.20","21.31","2437.61","5.21","ND","0.4","314.2","22.2","79","0","0"],
    [1493,"2010-07-08T00:00:00","40.7","18.87","20.67","2723.62","5.17","ND","0.1","274.1","21.6","81.5","0","0"],
    [1494,"2010-07-08T01:00:00","23.5","13.44","17.76","1653.50","4.77","ND","0.1","297.9","21.3","81.9","0","0"],
    [1495,"2010-07-08T02:00:00","22.4","11.00","15.35","1651.82","4.34","ND","0","68.3","21.5","81.9","0","0"],
    [1496,"2010-07-08T03:00:00","28.9","8.21","15.82","1222.72","4.29","ND","0.1","354.6","21","84.3","0","0"],
    [1497,"2010-07-08T04:00:00","27","7.08","16.05","1017.21","4.43","ND","0","257.1","21","84.4","0","0"],
    [1498,"2010-07-08T05:00:00","27.5","8.35","15.16","904.18","4.45","ND","0.1","315.1","21.1","85.1","0","0"],
    [1499,"2010-07-08T06:00:00","48.2","6.31","14.42","768.82","4.38","ND","0.3","215.3","21","87.5","0","0"],
    [1500,"2010-07-08T07:00:00","45.4","6.62","13.68","734.65","4.03","ND","0.3","268.1","21.3","84.3","22.8","0"],
    [1501,"2010-07-08T08:00:00","64.6","10.51","14.23","780.65","4.61","ND","0.5","43.5","21.8","84.1","95.8","0"],
    [1502,"2010-07-08T09:00:00","48.8","11.35","15.86","974.64","4.64","ND","0.5","120.3","22.6","81.5","234.5","0"],
    [1503,"2010-07-08T10:00:00","59.4","16.43","25.17","1443.20","5.45","ND","0.9","149.4","24.3","73.4","452.5","0"],
    [1504,"2010-07-08T11:00:00","41.3","22.51","36.57","1440.07","7.60","ND","0.6","51.1","25.7","68","566.8","0"],
    [1505,"2010-07-08T12:00:00","31.6","18.46","39.83","1010.50","22.48","ND","1","55.8","26.9","62","710.9","0"],
    [1506,"2010-07-08T13:00:00","20.9","19.14","31.27","680.22","52.37","ND","0.8","359.5","27.6","60.3","590.9","0"],
    [1507,"2010-07-08T14:00:00","21.8","26.43","14.78","265.79","61.30","ND","0.9","12","28.8","55.8","787.5","0"],
    [1508,"2010-07-08T15:00:00","12.3","23.19","11.35","232.04","60.70","ND","0.9","71.6","28.9","55.2","378.3","0"],
    [1509,"2010-07-08T16:00:00","7.1","35.78","11.85","220.51","71.95","ND","0.4","42.7","29.2","54.2","371.1","0"],
    [1510,"2010-07-08T17:00:00","21.5","35.31","12.24","209.12","65.39","ND","2.1","239.4","28.3","59.1","354.4","0"],
    [1511,"2010-07-08T18:00:00","16.3","42.02","16.91","196.91","57.38","ND","1.5","239.6","26.9","63.5","97.6","0"],
    [1512,"2010-07-08T19:00:00","31","ND","ND","ND","ND","ND","1.6","127.2","26","67.6","2","0"],
    [1513,"2010-07-08T20:00:00","48.3","6.76","19.99","758.64","ND","ND","0.7","87.3","24.6","74.4","0","0"],
    [1514,"2010-07-08T21:00:00","40","6.28","39.44","1201.27","10.50","ND","0.4","172.5","24.3","73.9","0","0"],
    [1515,"2010-07-08T22:00:00","57.7","8.05","49.68","1634.37","8.75","ND","1.4","182.1","23.7","77.5","0","0"],
    [1516,"2010-07-08T23:00:00","42.8","8.87","45.89","1710.91","8.25","ND","1.6","190.4","22.5","89","0","1.78"],
    [1517,"2010-07-09T00:00:00","34","9.25","42.77","2033.43","6.87","ND","0.9","354.2","22","92.7","0","0"],
    [1518,"2010-07-09T01:00:00","30.1","5.32","37.81","1496.98","9.19","ND","0.2","34.5","21.7","93.5","0","0"],
    [1519,"2010-07-09T02:00:00","42.6","5.86","35.43","1438.81","7.20","ND","0.3","17.2","21.5","95.6","0","0.51"],
    [1520,"2010-07-09T03:00:00","22.3","5.26","33.88","1030.26","7.74","ND","0.2","225.8","21.6","94.6","0","0"],
    [1521,"2010-07-09T04:00:00","29.8","4.22","27.84","951.33","7.68","ND","0","195","21.5","94.4","0","0"],
    [1522,"2010-07-09T05:00:00","15.7","3.96","23.14","984.97","6.92","ND","0","55.6","21.4","93.4","0","0"],
    [1523,"2010-07-09T06:00:00","29.2","5.05","23.30","1052.54","8.43","ND","0.3","37.5","21.3","93.8","0","0"],
    [1524,"2010-07-09T07:00:00","27.5","3.83","22.06","950.36","6.38","ND","0","260.7","21.4","93.8","8.4","0"],
    [1525,"2010-07-09T08:00:00","42.6","6.63","22.61","894.10","8.10","ND","0.6","43.6","21.5","94","28.2","0"],
    [1526,"2010-07-09T09:00:00","28.1","6.63","24.03","1256.69","8.40","ND","0.5","13.7","21.7","93.3","56.9","0"],
    [1527,"2010-07-09T10:00:00","64","7.23","26.97","1472.80","7.94","ND","0.7","278.9","23","85.9","320.7","0"],
    [1528,"2010-07-09T11:00:00","34.6","7.37","30.19","1228.95","9.20","ND","0.6","233.3","25.8","70.4","741.9","0"],
    [1529,"2010-07-09T12:00:00","18","5.04","32.29","1183.14","16.84","ND","0.1","108.1","27.4","62.9","636.3","0"],
    [1530,"2010-07-09T13:00:00","10.6","2.72","26.49","958.51","51.04","ND","0.8","120.8","27.8","60.9","296","0"],
    [1531,"2010-07-09T14:00:00","5.3","3.28","29.43","971.35","98.37","ND","0.6","135.5","29.1","56.4","643.6","0"],
    [1532,"2010-07-09T15:00:00","4.3","6.24","22.22","766.50","85.76","ND","0.9","11","29.6","55.7","594.3","0"],
    [1533,"2010-07-09T16:00:00","15.2","5.08","16.39","628.18","90.93","ND","1.4","344.1","29.9","53.4","460.1","0"],
    [1534,"2010-07-09T17:00:00","9","18.22","22.55","605.51","90.96","ND","0.8","329.5","29.3","54.8","143.5","0"],
    [1535,"2010-07-09T18:00:00","14.5","14.25","15.65","499.72","57.43","ND","2.3","250.4","27.9","59.8","60.8","0"],
    [1536,"2010-07-09T19:00:00","10","13.65","16.62","555.24","36.89","ND","0.3","259.4","27","62.6","1.4","0"],
    [1537,"2010-07-09T20:00:00","29","8.89","16.74","761.18","18.65","ND","0","147","26.9","63.3","0","0"],
    [1538,"2010-07-09T21:00:00","39.4","9.81","32.03","1856.19","9.89","ND","2.3","175.4","26.2","66.7","0","0"],
    [1539,"2010-07-09T22:00:00","30.9","11.15","35.44","2185.42","9.08","ND","1.9","233.3","25.5","68.1","0","0"],
    [1540,"2010-07-09T23:00:00","17","13.99","32.79","2191.78","8.04","ND","0.9","73","25.2","70.2","0","0"],
    [1541,"2010-07-10T00:00:00","18.7","4.43","18.23","768.07","15.41","ND","0.9","2.8","23.2","78","0","0"],
    [1542,"2010-07-10T01:00:00","23.3","7.29","26.00","990.66","7.35","ND","0.3","9","23.1","78.8","0","0"],
    [1543,"2010-07-10T02:00:00","31.7","7.52","26.37","808.20","ND","ND","0.3","47","23","79.4","0","0"],
    [1544,"2010-07-10T03:00:00","17.9","5.47","26.32","659.99","ND","ND","0.3","317.6","22.4","84.4","0","0"],
    [1545,"2010-07-10T04:00:00","30","6.26","25.95","726.79","ND","ND","0.3","252.7","22.4","83.8","0","0"],
    [1546,"2010-07-10T05:00:00","17.2","5.58","22.40","749.50","ND","ND","0.3","258.6","22.5","84.2","0","0"],
    [1547,"2010-07-10T06:00:00","22.7","4.18","17.18","727.04","ND","ND","0.7","163.3","22.2","90.7","0","1.52"],
    [1548,"2010-07-10T07:00:00","23.7","3.22","17.61","714.95","ND","ND","0.2","208.5","21.4","93.3","10.7","0.25"],
    [1549,"2010-07-10T08:00:00","44","6.76","18.03","803.56","ND","ND","0.2","135.1","21.7","90.8","102.3","0"],
    [1550,"2010-07-10T09:00:00","30.2","6.14","19.61","861.02","ND","ND","0.2","327.2","22.7","87.7","136.1","0"],
    [1551,"2010-07-10T10:00:00","51.2","7.25","24.13","1091.29","ND","ND","0.5","272","24.1","77.7","479.4","0"],
    [1552,"2010-07-10T11:00:00","32.9","8.70","37.10","1530.48","ND","ND","1","180.3","26.3","68.3","688.6","0"],
    [1553,"2010-07-10T12:00:00","32.3","84.66","41.03","1185.12","ND","ND","1.6","142.5","27.7","60.9","832.5","0"],
    [1554,"2010-07-10T13:00:00","26.8","74.32","53.67","1340.94","ND","ND","1.2","124","28.9","55.5","724.5","0"],
    [1555,"2010-07-10T14:00:00","40.8","21.53","31.46","1090.96","ND","ND","1.3","130.5","29.5","54.4","490.7","0"],
    [1556,"2010-07-10T15:00:00","21.7","13.51","24.59","1000.10","ND","ND","1.2","85.8","29.6","55.5","520.8","0"],
    [1557,"2010-07-10T16:00:00","32.4","11.25","21.19","849.20","ND","ND","1.1","78.5","29.6","57.1","208.2","0"],
    [1558,"2010-07-10T17:00:00","39.4","9.13","17.79","721.24","ND","ND","0.7","248.4","30.1","52.7","310.8","0"],
    [1559,"2010-07-10T18:00:00","22","10.95","20.21","710.78","ND","ND","1.6","268.6","29.1","52.1","103.9","0"],
    [1560,"2010-07-10T19:00:00","16.1","18.89","18.31","638.75","ND","ND","0.5","121.2","28","55.2","1.6","0"],
    [1561,"2010-07-10T20:00:00","55.6","8.20","14.42","590.14","ND","ND","0.7","216.7","27.2","58.1","0","0"],
    [1562,"2010-07-10T21:00:00","37.5","6.55","23.51","830.93","ND","ND","1","92.2","26.5","62.6","0","0"],
    [1563,"2010-07-10T22:00:00","41.3","5.53","27.09","955.64","ND","ND","1","167","25","73","0","0"],
    [1564,"2010-07-10T23:00:00","43.3","6.87","28.01","1031.05","ND","ND","0.5","155.5","24.6","76.7","0","0"],
    [1565,"2010-07-11T00:00:00","58.1","8.43","23.29","1006.78","ND","ND","0.4","219.5","23.5","88.2","0","0.76"],
    [1566,"2010-07-11T01:00:00","31.7","7.87","24.19","1379.21","ND","ND","0.4","114.3","23.4","86.9","0","0"],
    [1567,"2010-07-11T02:00:00","38.1","8.91","21.34","1504.08","ND","ND","0.8","133.4","22.7","88.5","0","7.11"],
    [1568,"2010-07-11T03:00:00","31.3","7.67","21.60","1409.59","ND","ND","0.4","212.8","21.8","91.5","0","0.51"],
    [1569,"2010-07-11T04:00:00","25.7","6.12","19.34","917.98","ND","ND","0.8","333.7","21.9","93.5","0","0"],
    [1570,"2010-07-11T05:00:00","19.5","4.69","16.12","748.24","ND","ND","0.2","28.7","21.8","94.4","0","0"],
    [1571,"2010-07-11T06:00:00","25.1","3.78","17.85","804.65","ND","ND","0.4","99.9","21.3","92.9","0","0"],
    [1572,"2010-07-11T07:00:00","40.3","3.44","14.62","746.71","ND","ND","0.9","136.8","21.4","91","4.9","0"],
    [1573,"2010-07-11T08:00:00","22.5","4.06","10.55","543.25","ND","ND","0.4","134.7","21","92.6","31.7","1.78"],
    [1574,"2010-07-11T09:00:00","12.5","4.32","12.56","587.72","ND","ND","0.5","169.5","21.8","88.7","153","0"],
    [1575,"2010-07-11T10:00:00","11.2","4.43","14.25","679.98","ND","ND","1.1","185.9","22.7","84.1","292.9","0"],
    [1576,"2010-07-11T11:00:00","7.4","3.85","15.66","682.06","ND","ND","1","153.4","24","77.6","301.1","0"],
    [1577,"2010-07-11T12:00:00","5.6","3.39","18.10","799.23","ND","ND","1.1","144.4","25","72.1","527","0"],
    [1578,"2010-07-11T13:00:00","3.6","3.41","17.33","767.56","ND","ND","0.8","168","26.2","67","503.8","0"],
    [1579,"2010-07-11T14:00:00","3.8","3.13","12.39","667.13","ND","ND","1.5","59.2","26.4","66","346.8","0"],
    [1580,"2010-07-11T15:00:00","3.9","3.61","11.56","679.08","ND","ND","1.2","250.2","26","64.2","225.2","0"],
    [1581,"2010-07-11T16:00:00","3.2","7.62","13.06","632.20","ND","ND","1.2","280.8","26.4","58.3","351.5","0"],
    [1582,"2010-07-11T17:00:00","2.3","8.37","8.93","483.42","ND","ND","0.6","348.6","25.7","59.4","128.2","0.25"],
    [1583,"2010-07-11T18:00:00","3.5","3.10","4.85","413.39","ND","ND","0.4","61.9","24.4","64.5","36.1","0.25"],
    [1584,"2010-07-11T19:00:00","2.4","1.65","5.36","411.59","ND","ND","1.1","127.1","22.2","79.6","1.3","0.51"],
    [1585,"2010-07-11T20:00:00","10","1.71","13.53","680.91","ND","ND","1.6","49.2","21.2","84.5","0","0"],
    [1586,"2010-07-11T21:00:00","5.9","1.99","20.81","904.80","ND","ND","0.7","33.4","21.2","84.6","0","0"],
    [1587,"2010-07-11T22:00:00","30.4","3.18","17.55","746.46","ND","ND","0.6","158.7","21.4","82.3","0","0"],
    [1588,"2010-07-11T23:00:00","28.3","6.45","18.48","611.15","ND","ND","1","144","21.2","84.4","0","0"],
    [1589,"2010-07-12T00:00:00","16.2","5.46","16.59","622.05","ND","ND","1.5","174.4","20.9","87","0","0"],
    [1590,"2010-07-12T01:00:00","9.4","3.57","16.31","677.91","ND","ND","1.6","151.7","20.4","90.3","0","0.76"],
    [1591,"2010-07-12T02:00:00","5.9","2.84","16.41","699.31","ND","ND","1.5","165.1","20.1","93.6","0","0.25"],
    [1592,"2010-07-12T03:00:00","4","2.01","14.89","ND","ND","ND","0.9","172.6","20","93.2","0","0"],
    [1593,"2010-07-12T04:00:00","2.9","1.62","10.70","574.46","ND","ND","0.6","160.7","20.1","91.2","0","0"],
    [1594,"2010-07-12T05:00:00","2.2","1.47","7.15","495.78","ND","ND","0.6","161.3","20.1","89.9","0","0.25"],
    [1595,"2010-07-12T06:00:00","2.2","2.14","5.91","450.71","ND","ND","0.2","176.3","20.2","90.3","0.1","0"],
    [1596,"2010-07-12T07:00:00","2.7","2.35","6.39","450.86","ND","ND","0.8","46","19.8","94.8","21.9","0"],
    [1597,"2010-07-12T08:00:00","27.7","1.70","8.73","472.76","ND","ND","0.4","20.4","20.6","90.5","141.3","0"],
    [1598,"2010-07-12T09:00:00","31.1","2.94","13.68","756.22","ND","ND","0.8","63.2","21.8","84.6","262.6","0"],
    [1599,"2010-07-12T10:00:00","34.2","4.51","18.74","974.64","ND","ND","0.8","77.4","23.3","75.9","486.2","0"],
    [1600,"2010-07-12T11:00:00","17.7","8.81","22.14","911.26","ND","ND","0.6","55.1","23.9","70.8","364.5","0"],
    [1601,"2010-07-12T12:00:00","15.9","7.73","24.34","913.10","ND","ND","0.5","44.5","25.2","66.6","539.5","0"],
    [1602,"2010-07-12T13:00:00","21.1","4.48","18.24","699.29","ND","ND","1","36.8","26.2","63.3","704.7","0"],
    [1603,"2010-07-12T14:00:00","11.5","5.58","19.33","736.14","ND","ND","1.7","46.8","27.3","58.2","668.9","0"],
    [1604,"2010-07-12T15:00:00","7.1","21.26","17.54","634.95","ND","ND","1.5","41","28.1","55.2","643.8","0"],
    [1605,"2010-07-12T16:00:00","7.9","19.17","12.77","532.46","ND","ND","1.8","354.1","28","55.3","255.7","0"],
    [1606,"2010-07-12T17:00:00","4.7","11.62","9.57","509.14","ND","ND","1.8","262.7","27.8","54.8","253.6","0"],
    [1607,"2010-07-12T18:00:00","5.7","13.22","17.30","601.31","ND","ND","1.3","270.5","27","54.9","62.7","0"],
    [1608,"2010-07-12T19:00:00","12.7","ND","8.55","ND","ND","ND","0.6","238.4","26.3","56.7","4.5","0"],
    [1609,"2010-07-12T20:00:00","32.7","ND","21.45","632.83","16.04","ND","1.2","26.5","24.8","67.4","0","0"],
    [1610,"2010-07-12T21:00:00","19.4","6.78","23.47","961.66","11.49","ND","0.2","337.8","23.2","78.6","0","0.76"],
    [1611,"2010-07-12T22:00:00","24.1","14.71","27.78","1036.21","10.03","ND","0.5","58.9","22.7","82.1","0","0"],
    [1612,"2010-07-12T23:00:00","15.7","8.22","23.85","1000.35","12.60","ND","0.8","154.2","22.9","82","0","0"],
    [1613,"2010-07-13T00:00:00","24.7","8.12","24.26","1126.16","8.20","ND","0.4","160.7","22.9","82","0","0"],
    [1614,"2010-07-13T01:00:00","41.8","8.20","23.40","1137.53","10.56","ND","0.4","327.2","21.9","89.7","0","0"],
    [1615,"2010-07-13T02:00:00","40.8","6.04","24.71","1008.98","9.94","ND","0.2","41.4","21.6","90.4","0","0"],
    [1616,"2010-07-13T03:00:00","30","6.45","19.03","872.05","7.53","ND","0.1","32.5","21.5","89.4","0","0"],
    [1617,"2010-07-13T04:00:00","21","6.84","16.90","803.83","6.87","ND","0.2","3.9","21.4","89.2","0","0"],
    [1618,"2010-07-13T05:00:00","26","6.83","16.15","792.24","6.98","ND","0.1","228.1","21.5","88.6","0","0"],
    [1619,"2010-07-13T06:00:00","36.8","6.40","16.08","826.47","7.14","ND","0","247.2","21.6","87.7","0","0"],
    [1620,"2010-07-13T07:00:00","23.8","7.56","15.71","815.43","7.37","ND","0.4","66.5","21.6","90","11.8","0"],
    [1621,"2010-07-13T08:00:00","58.2","6.27","15.40","860.73","6.91","ND","0.4","63.4","21.2","91.7","40.7","5.08"],
    [1622,"2010-07-13T09:00:00","30.7","11.12","18.69","1300.65","7.98","ND","1.4","116.2","21.1","94.1","24.2","22.35"],
    [1623,"2010-07-13T10:00:00","27.5","13.71","21.12","1187.15","7.44","ND","0.7","178.2","20.2","100","190.3","20.57"],
    [1624,"2010-07-13T11:00:00","15.8","12.40","22.00","1318.77","7.90","ND","1","169.2","23.1","85.3","757.9","0"],
    [1625,"2010-07-13T12:00:00","13.5","9.40","20.94","1161.07","8.38","ND","0.6","166.5","25.6","70.2","884","0"],
    [1626,"2010-07-13T13:00:00","8.1","8.77","32.35","1297.14","29.57","ND","0.4","113.1","26.6","65.7","545.3","0"],
    [1627,"2010-07-13T14:00:00","6.5","10.46","29.79","1059.62","71.22","ND","0.9","96.4","27.8","61.4","787.7","0"],
    [1628,"2010-07-13T15:00:00","4.1","7.38","27.28","1017.61","110.98","ND","0.7","29.8","28.7","58.9","706.7","0"],
    [1629,"2010-07-13T16:00:00","31.7","9.89","21.93","893.07","107.64","ND","1","300.1","27.4","62.7","63.2","0"],
    [1630,"2010-07-13T17:00:00","18.4","11.01","22.76","819.93","127.83","ND","3","258.9","24.4","70","56.8","0"],
    [1631,"2010-07-13T18:00:00","28.9","5.26","21.30","731.71","81.94","ND","0.6","254.7","25.3","69.5","46.1","0"],
    [1632,"2010-07-13T19:00:00","33.3","8.42","16.31","699.52","23.93","ND","0.8","260.3","24","74.1","2.4","0"],
    [1633,"2010-07-13T20:00:00","52.4","9.14","23.46","1541.38","11.17","ND","0.3","262.1","23.2","76.4","0","0"],
    [1634,"2010-07-13T21:00:00","38.3","11.64","25.85","2197.67","6.87","ND","0.2","294.7","23","77.1","0","0"],
    [1635,"2010-07-13T22:00:00","47","10.85","25.48","2139.29","6.98","ND","0.7","343.7","22.8","78.9","0","0"],
    [1636,"2010-07-13T23:00:00","36","9.78","26.60","2069.61","7.77","ND","0.3","321.2","22.5","81.3","0","0"],
    [1637,"2010-07-14T00:00:00","72.8","10.03","26.33","1760.79","7.08","ND","0.2","228.6","21.8","84.6","0","0"],
    [1638,"2010-07-14T01:00:00","56.9","13.14","25.28","1552.63","7.30","ND","0.5","325.6","21.7","85.1","0","0"],
    [1639,"2010-07-14T02:00:00","59.2","10.75","20.15","1642.74","7.04","ND","0.2","307.5","21.9","85.2","0","0"],
    [1640,"2010-07-14T03:00:00","50.6","7.91","19.33","1315.08","7.15","ND","0.5","249.9","21.5","86.4","0","0"],
    [1641,"2010-07-14T04:00:00","52.4","8.31","21.91","1437.83","7.49","ND","0.2","259.2","21.2","87.6","0","0"],
    [1642,"2010-07-14T05:00:00","28.1","8.25","18.56","1244.10","6.65","ND","0.5","1.4","20.8","90.7","0","0"],
    [1643,"2010-07-14T06:00:00","36.2","6.97","16.58","1095.58","6.29","ND","0.3","264.9","20.6","91.5","0","0"],
    [1644,"2010-07-14T07:00:00","53.4","8.13","16.52","1185.13","7.13","ND","0.3","254.1","20.7","91","16.6","0"],
    [1645,"2010-07-14T08:00:00","79.6","7.98","15.05","1332.31","6.69","ND","0.1","158.2","22","83.6","132.1","0"],
    [1646,"2010-07-14T09:00:00","42.1","10.56","16.97","1927.93","7.27","ND","0.6","170.9","23.9","71.8","328","0"],
    [1647,"2010-07-14T10:00:00","24","12.40","25.65","2351.24","6.94","ND","0.8","107.3","25.5","67","479.3","0"],
    [1648,"2010-07-14T11:00:00","13.9","12.34","37.32","1767.20","13.31","ND","1.7","88.9","25.7","69.5","278.5","0"],
    [1649,"2010-07-14T12:00:00","27.4","11.21","42.29","1446.86","38.28","ND","0.6","300.6","26","66.8","374.1","0"],
    [1650,"2010-07-14T13:00:00","33.9","8.89","38.78","1206.92","55.41","ND","0.9","280.9","27.4","60.7","729.2","0"],
    [1651,"2010-07-14T14:00:00","28.9","8.80","24.80","958.51","65.10","ND","0.7","219.8","28.2","57.6","344.2","0"],
    [1652,"2010-07-14T15:00:00","16.1","16.05","23.85","949.49","97.53","ND","1.4","267.3","27.6","59.4","197","0"],
    [1653,"2010-07-14T16:00:00","22.4","14.17","22.70","889.81","103.11","ND","2.9","257.7","27","59.7","209.1","0.76"],
    [1654,"2010-07-14T17:00:00","12.8","14.06","17.80","738.11","56.66","ND","1.2","293.8","24.6","70.8","94.8","3.81"],
    [1655,"2010-07-14T18:00:00","13.7","6.78","14.39","720.76","24.46","ND","0.2","283.3","25.6","62.4","43.4","0"],
    [1656,"2010-07-14T19:00:00","8.6","6.77","19.80","975.73","16.85","ND","3","265.1","25.1","63.2","2.5","0"],
    [1657,"2010-07-14T20:00:00","6.9","5.85","15.00","802.19","15.66","ND","3","268.3","24.8","62.5","0","0"],
    [1658,"2010-07-14T21:00:00","11.3","4.61","13.06","744.15","16.45","ND","1.4","159.2","23.3","73","0","0"],
    [1659,"2010-07-14T22:00:00","32.3","3.49","9.12","580.93","20.51","ND","0.9","195","22.5","77.1","0","0"],
    [1660,"2010-07-14T23:00:00","22.4","5.56","26.76","1079.20","8.62","ND","0.2","292.4","22.3","79.4","0","0"],
    [1661,"2010-07-15T00:00:00","35.5","5.87","27.58","1146.58","7.18","ND","0.1","320","22.2","81.7","0","0"],
    [1662,"2010-07-15T01:00:00","29.1","5.04","25.60","1134.84","7.70","ND","0.3","80.7","21.7","87.4","0","0"],
    [1663,"2010-07-15T02:00:00","31","4.56","22.74","1053.62","7.26","ND","0.5","163.6","21.7","88.3","0","0"],
    [1664,"2010-07-15T03:00:00","19.7","6.24","24.51","1166.91","7.53","ND","1.5","188.8","20.2","95.3","0","38.86"],
    [1665,"2010-07-15T04:00:00","12.5","5.36","20.22","879.18","8.30","ND","0.7","259.3","19.3","100","0","16.51"],
    [1666,"2010-07-15T05:00:00","7.5","4.52","11.53","696.69","11.90","ND","0","131.8","19.6","100","0","0"],
    [1667,"2010-07-15T06:00:00","4.4","3.24","7.16","551.18","12.72","ND","0.3","35.5","20.1","97.4","0","1.02"],
    [1668,"2010-07-15T07:00:00","9.2","3.20","6.00","552.12","10.67","ND","0.5","56.8","20.1","97.9","6.2","4.06"],
    [1669,"2010-07-15T08:00:00","5.8","3.74","12.74","721.13","7.45","ND","0.5","68.5","20.1","97.1","35.1","5.84"],
    [1670,"2010-07-15T09:00:00","6.4","4.54","16.80","845.08","7.03","ND","0.6","181.1","20.5","95.6","66","0.76"],
    [1671,"2010-07-15T10:00:00","33.9","5.14","21.11","1094.46","7.63","ND","0.9","101.7","20.2","97.4","37.9","21.84"],
    [1672,"2010-07-15T11:00:00","18.9","6.73","25.41","1420.21","7.26","ND","0.7","49.2","19.6","99.4","120.6","13.72"],
    [1673,"2010-07-15T12:00:00","11.7","5.97","24.98","1248.58","9.11","ND","0.8","46.2","20.7","93.2","223.8","0"],
    [1674,"2010-07-15T13:00:00","8.8","4.55","17.21","846.81","11.10","ND","1.4","49.3","21.7","87.8","272.3","0"],
    [1675,"2010-07-15T14:00:00","6.9","4.35","16.43","725.07","17.47","ND","1","18.8","21.4","89.1","140.2","0.25"],
    [1676,"2010-07-15T15:00:00","4","6.47","13.32","735.65","24.16","ND","0.4","39.1","21.2","91.2","74.4","0"],
    [1677,"2010-07-15T16:00:00","3.2","8.51","17.74","746.46","20.54","ND","0","225.6","21.9","88","115.9","0"],
    [1678,"2010-07-15T17:00:00","7.8","6.72","18.51","793.58","15.98","ND","0.2","56.5","22.6","84.8","92.6","0"],
    [1679,"2010-07-15T18:00:00","20.6","6.71","29.85","1170.47","13.35","ND","0.1","166","22.8","83.5","25.3","0"],
    [1680,"2010-07-15T19:00:00","28.8","9.81","48.57","1705.72","12.33","ND","0.6","271.2","22.3","83.6","2.3","0"],
    [1681,"2010-07-15T20:00:00","29","10.65","60.68","2225.05","9.14","ND","0.8","258","22","82.4","0","0"],
    [1682,"2010-07-15T21:00:00","15.2","9.70","33.08","2245.47","8.55","ND","0.5","246.7","22","79.8","0","0"],
    [1683,"2010-07-15T22:00:00","20.4","9.70","24.78","2075.36","6.55","ND","0.3","15.4","21.8","83.3","0","0"],
    [1684,"2010-07-15T23:00:00","57","8.94","27.63","1903.95","6.76","ND","0.3","307.8","21.6","86.7","0","0"],
    [1685,"2010-07-16T00:00:00","34.4","8.63","24.30","1698.81","6.65","ND","0.1","232.1","21.4","88.9","0","0"],
    [1686,"2010-07-16T01:00:00","50.4","7.33","25.77","1561.84","7.70","ND","0.1","274.5","21.1","90.3","0","0"],
    [1687,"2010-07-16T02:00:00","36.5","9.00","24.94","1944.66","7.32","ND","0.1","61.9","21.1","90.8","0","0"],
    [1688,"2010-07-16T03:00:00","38.8","7.45","22.64","1741.15","6.24","ND","0.1","302.5","20.7","94.6","0","0"],
    [1689,"2010-07-16T04:00:00","40.7","7.13","23.07","1625.87","7.31","ND","1","190.2","19.4","99","0","36.83"],
    [1690,"2010-07-16T05:00:00","21.1","5.94","21.16","1483.78","7.07","ND","0.2","168","19","100","0","7.62"],
    [1691,"2010-07-16T06:00:00","13.1","5.52","16.79","1122.54","8.71","ND","0","296.9","19.1","100","0","6.35"],
    [1692,"2010-07-16T07:00:00","14.4","4.08","14.51","875.88","10.35","ND","0","252.8","19.1","100","8.7","4.06"],
    [1693,"2010-07-16T08:00:00","9.2","3.57","13.48","797.28","8.93","ND","0","251.8","19.4","100","27.4","1.78"],
    [1694,"2010-07-16T09:00:00","5.9","4.09","16.23","977.95","6.41","ND","0.2","160.8","19.7","100","52.9","3.3"],
    [1695,"2010-07-16T10:00:00","15.5","6.18","18.70","1620.33","6.77","ND","0.2","254","20","96.5","97.9","2.29"],
    [1696,"2010-07-16T11:00:00","12.7","8.22","28.15","2218.98","7.02","ND","0.4","185.6","20.7","91.4","221.5","0.25"],
    [1697,"2010-07-16T12:00:00","10.9","7.44","35.31","2156.54","8.05","ND","0.7","122.4","21.5","87.2","232.3","0"],
    [1698,"2010-07-16T13:00:00","6.1","6.21","39.11","1811.44","11.09","ND","0.3","278.8","22.1","84.8","305.5","0"],
    [1699,"2010-07-16T14:00:00","6.2","5.55","44.20","1690.34","19.96","ND","0.2","53.2","23.1","78.7","330.4","0"],
    [1700,"2010-07-16T15:00:00","25","4.11","44.22","1559.48","44.89","ND","0.8","308.6","23.1","78.3","231.6","0"],
    [1701,"2010-07-16T16:00:00","14.6","4.56","38.66","1400.11","72.16","ND","1","53.7","23.8","75.4","293.1","0"],
    [1702,"2010-07-16T17:00:00","32.6","5.06","42.54","1380.60","66.69","ND","0.4","72.2","23.9","73.5","116.2","0"],
    [1703,"2010-07-16T18:00:00","23.1","15.79","34.64","1129.96","68.12","ND","0.1","174.2","23.8","73.8","42.4","0"],
    [1704,"2010-07-16T19:00:00","24.5","32.52","46.22","1198.04","50.09","ND","0.6","308.5","23.2","79","2","0"],
    [1705,"2010-07-16T20:00:00","49.5","29.92","53.48","1275.33","36.83","ND","0.3","238.8","22.3","86.6","0","0"],
    [1706,"2010-07-16T21:00:00","47.1","25.03","59.15","1714.19","18.08","ND","0.3","224.1","21.8","88.6","0","0.25"],
    [1707,"2010-07-16T22:00:00","46.4","19.13","60.46","2889.93","12.07","ND","0.1","219.2","21.3","90.1","0","0"],
    [1708,"2010-07-16T23:00:00","34.9","17.60","57.51","2975.54","8.29","ND","0.1","208.9","21.1","91.6","0","0"],
    [1709,"2010-07-17T00:00:00","38.8","11.87","44.69","2589.11","7.28","ND","0.1","205.7","20.9","92.6","0","0"],
    [1710,"2010-07-17T01:00:00","38.1","11.60","41.13","3050.58","8.30","ND","0.4","216.8","20.7","91.4","0","0"],
    [1711,"2010-07-17T02:00:00","21","10.54","35.12","2777.53","6.96","ND","0.1","118.6","20.7","89.1","0","0"],
    [1712,"2010-07-17T03:00:00","11.7","9.74","31.15","2450.10","6.96","ND","0.1","287.4","20.4","89.9","0","0"],
    [1713,"2010-07-17T04:00:00","20.9","8.00","27.87","2120.50","6.51","ND","0.1","211.1","20.2","91.8","0","0"],
    [1714,"2010-07-17T05:00:00","15.9","6.29","25.31","1848.53","6.24","ND","0.1","0.8","20.2","92.7","0","0"],
    [1715,"2010-07-17T06:00:00","29.8","6.60","22.77","1825.99","6.12","ND","0.1","281.6","20","95","0","0"],
    [1716,"2010-07-17T07:00:00","28.7","6.11","21.20","1689.58","6.50","ND","0.2","185.6","20.1","93","39.8","0"],
    [1717,"2010-07-17T08:00:00","34.1","5.44","19.60","1352.12","6.00","ND","0.1","133.6","20.9","89.7","127.2","0"],
    [1718,"2010-07-17T09:00:00","21.2","7.24","19.58","1581.78","6.60","ND","0.3","171.7","21.7","86","190.2","0"],
    [1719,"2010-07-17T10:00:00","58.1","6.79","25.18","1540.77","8.21","ND","0.7","169.3","22.9","79.4","405","0"],
    [1720,"2010-07-17T11:00:00","59.6","6.30","38.88","1683.55","13.02","ND","1","174.6","24.4","71","546.1","0"],
    [1721,"2010-07-17T12:00:00","42.1","7.79","52.55","1909.31","30.65","ND","0.6","104.5","26.4","62.1","808.6","0"],
    [1722,"2010-07-17T13:00:00","23.8","7.85","41.71","1588.37","80.03","ND","1.4","46.3","26.9","58.6","676.2","0"],
    [1723,"2010-07-17T14:00:00","18.5","9.81","23.52","1129.85","90.51","ND","0.9","71","27.7","57","621.3","0"],
    [1724,"2010-07-17T15:00:00","19.2","17.00","15.17","797.63","87.74","ND","1.2","90.2","27.7","57.1","312.4","0"],
    [1725,"2010-07-17T16:00:00","21.1","15.39","13.93","739.83","86.53","ND","1.3","142.4","27.3","60.5","224.1","0"],
    [1726,"2010-07-17T17:00:00","23.4","10.72","15.16","761.94","69.98","ND","0.6","167.1","27.1","64.9","229","0"],
    [1727,"2010-07-17T18:00:00","42.6","7.18","18.40","865.26","57.47","ND","0.5","276.8","26.4","68.2","43.1","0"],
    [1728,"2010-07-17T19:00:00","32.2","6.16","20.93","978.34","65.24","ND","0.9","56.9","25.5","68","1","0"],
    [1729,"2010-07-17T20:00:00","31.6","3.28","27.75","1078.68","63.16","ND","0.9","195.2","25.1","70.3","0","0"],
    [1730,"2010-07-17T21:00:00","36.5","5.01","28.07","962.63","33.27","ND","0.8","241.3","24.4","72.2","0","0"],
    [1731,"2010-07-17T22:00:00","48","7.84","39.30","1634.92","7.91","ND","0.1","197.1","23.9","76.6","0","0"],
    [1732,"2010-07-17T23:00:00","55.1","7.47","44.25","2020.24","10.93","ND","0.6","37","22.9","82.1","0","0"],
    [1733,"2010-07-18T00:00:00","56.9","9.34","42.32","2593.58","8.55","ND","0.1","236","22.5","83.2","0","0"],
    [1734,"2010-07-18T01:00:00","47.9","7.33","33.28","1738.07","6.89","ND","0.7","205.5","22.5","84.1","0","0"],
    [1735,"2010-07-18T02:00:00","39.6","5.46","23.44","1238.24","7.84","ND","0","307","22.5","84.6","0","0"],
    [1736,"2010-07-18T03:00:00","26","6.21","25.14","1590.40","7.80","ND","0.4","166.9","22","86.2","0","0"],
    [1737,"2010-07-18T04:00:00","46.1","4.49","25.60","1372.23","7.69","ND","0.6","359.7","20.9","92.6","0","0"],
    [1738,"2010-07-18T05:00:00","28.5","5.09","21.77","1446.20","7.43","ND","0.5","319.8","21","91.9","0","0"],
    [1739,"2010-07-18T06:00:00","41.5","4.32","16.20","1017.21","7.76","ND","0.2","264.4","21.4","90.7","0","0"],
    [1740,"2010-07-18T07:00:00","49.8","3.68","15.98","939.37","7.23","ND","0.1","110.8","21.5","90.3","11.4","0"],
    [1741,"2010-07-18T08:00:00","47.8","3.44","14.70","1018.94","7.06","ND","0.5","67.8","21.2","90.6","84.3","0"],
    [1742,"2010-07-18T09:00:00","33.8","5.04","15.84","1119.69","6.94","ND","1.1","173","22.4","88.4","291.4","0"],
    [1743,"2010-07-18T10:00:00","34.1","4.73","17.42","953.91","9.47","ND","1.3","150.5","23.4","83.3","249.4","0"],
    [1744,"2010-07-18T11:00:00","19.9","5.84","24.62","1185.03","10.83","ND","0.9","148.4","24.7","74.5","532.9","0"],
    [1745,"2010-07-18T12:00:00","31.9","6.78","35.39","1396.23","19.25","ND","0.8","99.3","26.3","66.9","656.1","0"],
    [1746,"2010-07-18T13:00:00","24.9","10.74","25.46","1139.10","42.79","ND","1.5","47.8","26.8","65.1","584.3","0"],
    [1747,"2010-07-18T14:00:00","15","15.76","18.02","922.02","71.41","ND","1.1","46.7","27.6","62.9","460.9","0"],
    [1748,"2010-07-18T15:00:00","9.6","28.33","14.21","728.03","62.53","ND","1.3","50.4","27.6","60.4","387.5","0"],
    [1749,"2010-07-18T16:00:00","16.9","11.71","9.18","658.69","51.51","ND","0.9","25.2","28","58.4","283.1","0"],
    [1750,"2010-07-18T17:00:00","9.2","35.89","12.61","613.28","45.01","ND","1","39.4","27.8","60.7","221.1","0"],
    [1751,"2010-07-18T18:00:00","20.2","28.11","12.62","636.00","44.55","ND","0.8","12.8","27.4","62.9","51.3","0"],
    [1752,"2010-07-18T19:00:00","10.6","21.45","10.78","612.06","50.52","ND","0.7","281.4","26.4","63.9","2.9","0"],
    [1753,"2010-07-18T20:00:00","9.5","20.38","17.31","748.14","40.93","ND","0.7","139","25.9","66.1","0","0"],
    [1754,"2010-07-18T21:00:00","14","11.49","18.65","999.69","14.23","ND","0.5","286.1","24.3","74.1","0","0"],
    [1755,"2010-07-18T22:00:00","16.1","9.41","25.24","1405.79","9.46","ND","0.2","242.6","24.3","73.3","0","0"],
    [1756,"2010-07-18T23:00:00","20.7","8.05","24.31","1725.80","8.71","ND","0.3","342.8","23.7","77.6","0","0"],
    [1757,"2010-07-19T00:00:00","25.2","9.08","24.27","2167.16","7.80","ND","0.2","1.5","23.4","82.7","0","0"],
    [1758,"2010-07-19T01:00:00","18","7.14","20.85","1561.06","7.46","ND","0.3","251.5","22.7","84.5","0","0"],
    [1759,"2010-07-19T02:00:00","39.9","5.43","20.00","1204.97","9.66","ND","0","308.5","21.8","86.8","0","0"],
    [1760,"2010-07-19T03:00:00","21.8","5.16","17.29","1223.97","7.20","ND","0.1","322.1","21.4","87.3","0","0"],
    [1761,"2010-07-19T04:00:00","25.2","4.01","15.96","1063.86","5.91","ND","0.1","14.1","20.9","89.2","0","0"],
    [1762,"2010-07-19T05:00:00","14.5","3.41","16.03","1073.35","7.01","ND","0.1","310.6","20.4","90.8","0","0"],
    [1763,"2010-07-19T06:00:00","37.1","2.92","14.52","1037.69","6.28","ND","0","246.1","20.3","91.8","0.1","0"],
    [1764,"2010-07-19T07:00:00","27.4","3.30","13.09","1014.79","6.37","ND","0.1","275.9","20.7","90","41.1","0"],
    [1765,"2010-07-19T08:00:00","55.1","3.28","12.57","1151.66","6.77","ND","0.1","33.5","22.7","83.8","228.5","0"],
    [1766,"2010-07-19T09:00:00","50.4","6.66","16.35","1432.32","7.19","ND","1.1","56.4","24.1","77.1","451.8","0"],
    [1767,"2010-07-19T10:00:00","38.6","9.17","36.50","1987.34","10.51","ND","1","70.1","25.3","71","659.9","0"],
    [1768,"2010-07-19T11:00:00","31.2","9.52","25.75","1055.02","23.73","ND","0.8","47.8","27","64.1","800.5","0"],
    [1769,"2010-07-19T12:00:00","25.9","24.32","22.11","911.10","40.89","ND","0.9","22","28.1","58.2","821.7","0"],
    [1770,"2010-07-19T13:00:00","14.3","24.38","18.42","844.99","66.11","ND","0.7","335.5","29.5","54.5","768","0"],
    [1771,"2010-07-19T14:00:00","23","22.34","12.52","721.00","78.07","ND","0.7","19","30","53","689.3","0"],
    [1772,"2010-07-19T15:00:00","20.5","23.34","16.09","757.14","85.70","ND","1.2","243.6","29.8","50.9","239.3","0"],
    [1773,"2010-07-19T16:00:00","21.4","19.17","14.39","698.44","74.71","ND","3","264.1","30","50.2","521.4","0"],
    [1774,"2010-07-19T17:00:00","13.3","16.17","15.40","803.73","37.91","ND","2.7","249.6","29.6","50.8","314","0"],
    [1775,"2010-07-19T18:00:00","16","7.45","9.89","732.87","30.11","ND","2.3","265.8","28.2","53","72.1","0"],
    [1776,"2010-07-19T19:00:00","16.3","6.54","13.42","810.54","32.71","ND","0.2","328.5","27.4","54.3","2.3","0"],
    [1777,"2010-07-19T20:00:00","36.4","6.13","18.78","866.13","30.54","ND","0.3","57.2","26.9","56.1","0","0"],
    [1778,"2010-07-19T21:00:00","61","6.28","28.51","1060.68","21.15","ND","0.9","128.2","25.5","64","0","0"],
    [1779,"2010-07-19T22:00:00","59.9","9.24","41.73","1560.64","10.71","ND","0.2","197","24.4","70.5","0","0"],
    [1780,"2010-07-19T23:00:00","62.9","12.16","38.10","2035.08","7.54","ND","0.3","186.2","23.9","73","0","0"],
    [1781,"2010-07-20T00:00:00","46.2","8.61","25.75","1734.90","8.66","ND","0.2","49.2","23.4","74.1","0","0"],
    [1782,"2010-07-20T01:00:00","40.2","10.92","25.70","2244.73","7.12","ND","0.5","216.1","23","76.7","0","0"],
    [1783,"2010-07-20T02:00:00","39","7.65","23.72","1467.92","7.02","ND","0.2","301","22.8","78.7","0","0"],
    [1784,"2010-07-20T03:00:00","39.2","6.45","20.86","1194.01","6.95","ND","0.1","284.7","22.4","80.7","0","0"],
    [1785,"2010-07-20T04:00:00","35.1","5.48","20.00","1158.32","7.39","ND","0.2","263.5","22.4","81.7","0","0"],
    [1786,"2010-07-20T05:00:00","18.3","5.35","17.90","1181.04","6.26","ND","0.1","346.6","22.1","82.1","0","0"],
    [1787,"2010-07-20T06:00:00","13.7","5.76","16.39","1338.66","6.78","ND","0","21.7","21.9","83.3","0.1","0"],
    [1788,"2010-07-20T07:00:00","12.6","6.66","17.18","1111.02","6.41","ND","0.2","205.9","21.9","83.5","25.5","0"],
    [1789,"2010-07-20T08:00:00","27.8","6.92","18.15","1065.67","6.58","ND","0.5","199.6","22.7","80","71.1","0"],
    [1790,"2010-07-20T09:00:00","34.2","8.27","18.39","1250.44","7.17","ND","0.3","172.6","23.9","73.6","229.8","0"],
    [1791,"2010-07-20T10:00:00","33.2","9.37","23.51","1312.59","7.49","ND","0.6","162.1","25.5","66.1","539","0"],
    [1792,"2010-07-20T11:00:00","18.3","9.34","28.53","1159.00","14.11","ND","1","86.3","26.8","60.5","674.3","0"],
    [1793,"2010-07-20T12:00:00","11.1","25.44","31.47","1106.43","27.68","ND","0.9","60.4","27.5","59.4","654.5","0"],
    [1794,"2010-07-20T13:00:00","6.8","20.61","18.78","912.62","58.10","ND","1","27.4","28.5","56.6","721.4","0"],
    [1795,"2010-07-20T14:00:00","21.8","16.97","14.73","799.75","77.37","ND","1.3","15.3","28.4","56.3","343.2","0"],
    [1796,"2010-07-20T15:00:00","21.3","14.36","12.34","764.73","92.85","ND","1.7","340.5","26.8","60.6","157.1","0"],
    [1797,"2010-07-20T16:00:00","12.8","13.34","11.08","726.09","86.73","ND","0.1","234.3","28.8","51.4","574.4","0"],
    [1798,"2010-07-20T17:00:00","7","8.92","9.73","684.53","29.57","ND","1.9","258.7","29.3","48.9","354.8","0"],
    [1799,"2010-07-20T18:00:00","5.9","8.08","7.03","627.55","45.87","ND","1.6","266.8","28.1","52.2","102.5","0"],
    [1800,"2010-07-20T19:00:00","5.4","6.78","7.71","659.79","44.30","ND","0.1","163.5","27","54.8","2.1","0"],
    [1801,"2010-07-20T20:00:00","12.8","4.93","11.45","703.51","30.54","ND","0.4","93.8","25.9","59.3","0","0"],
    [1802,"2010-07-20T21:00:00","12.8","4.36","19.17","884.78","17.83","ND","0.1","14.7","25.3","61.9","0","0"],
    [1803,"2010-07-20T22:00:00","26","4.75","23.70","1043.55","11.10","ND","0.7","131.1","24.1","72.6","0","0"],
    [1804,"2010-07-20T23:00:00","15.2","6.53","32.17","1690.38","7.16","ND","0","12.3","23.4","75.8","0","0"],
    [1805,"2010-07-21T00:00:00","26.5","6.28","21.99","1207.82","8.84","ND","0.4","276.5","22.5","76.5","0","0"],
    [1806,"2010-07-21T01:00:00","27.7","5.69","20.15","1272.32","7.47","ND","0.5","323","21.8","80.3","0","0"],
    [1807,"2010-07-21T02:00:00","24.2","5.03","20.50","1065.31","7.05","ND","0","331.9","21.3","81.8","0","0"],
    [1808,"2010-07-21T03:00:00","14.2","4.99","19.55","1086.13","5.95","ND","0.1","325.4","21.3","83.3","0","0"],
    [1809,"2010-07-21T04:00:00","11.6","3.29","17.11","984.30","6.38","ND","0.1","295.3","20.8","85.9","0","0"],
    [1810,"2010-07-21T05:00:00","12.8","2.69","15.34","926.16","6.00","ND","0","221.8","20.8","85.1","0","0"],
    [1811,"2010-07-21T06:00:00","40.9","2.38","13.63","914.86","6.27","ND","0.2","14.9","20.4","85.9","0.1","0"],
    [1812,"2010-07-21T07:00:00","37.2","1.78","11.96","913.62","5.99","ND","0","257.8","20.4","86.8","29.5","0"],
    [1813,"2010-07-21T08:00:00","48.9","5.93","15.69","1071.53","5.99","ND","0.4","272.6","21.5","82.4","106.3","0"],
    [1814,"2010-07-21T09:00:00","38","7.15","17.72","1290.65","6.73","ND","0.8","166.4","23.3","75.1","404.6","0"],
    [1815,"2010-07-21T10:00:00","68.6","11.28","25.56","1663.05","6.93","ND","1.1","158.1","24.8","69.7","514.1","0"],
    [1816,"2010-07-21T11:00:00","50.1","15.53","43.14","1866.09","11.61","ND","0.6","195.2","25.6","66.9","453.6","0"],
    [1817,"2010-07-21T12:00:00","52.4","10.84","40.86","1469.33","33.70","ND","0.8","60.9","27","61.2","687.5","0"],
    [1818,"2010-07-21T13:00:00","65.1","9.60","33.45","1257.09","54.17","ND","0.9","31.9","28.2","56.6","657.3","0"],
    [1819,"2010-07-21T14:00:00","37.4","12.84","20.50","949.49","91.24","ND","1.3","42.7","29.4","53.6","781.3","0"],
    [1820,"2010-07-21T15:00:00","20.4","35.12","19.86","871.89","96.50","ND","1.1","6.2","29.9","52.1","569.9","0"],
    [1821,"2010-07-21T16:00:00","23.1","46.08","20.29","780.18","88.50","ND","0.7","346.8","30.7","48","518.4","0"],
    [1822,"2010-07-21T17:00:00","12.7","41.44","16.99","688.84","78.86","ND","3.2","262.9","29.1","51.3","203.6","0"],
    [1823,"2010-07-21T18:00:00","24.4","24.62","10.20","638.75","55.76","ND","1.7","254","27.4","58.7","74.1","0"],
    [1824,"2010-07-21T19:00:00","14.3","8.16","10.08","727.55","26.31","ND","0.5","165.7","27.6","55.5","17.9","0"],
    [1825,"2010-07-21T20:00:00","15.9","3.38","16.64","1005.37","17.87","ND","0.3","197.4","26.1","62.5","0","0"],
    [1826,"2010-07-21T21:00:00","32.3","7.89","26.65","1310.81","8.25","ND","0.3","346.7","24.9","68.4","0","0"],
    [1827,"2010-07-21T22:00:00","28.4","9.48","31.67","1798.00","7.85","ND","0.1","223.3","23.9","73.4","0","0"],
    [1828,"2010-07-21T23:00:00","50.5","10.52","28.03","1620.76","8.21","ND","0.8","238.7","23.5","74.4","0","0"],
    [1829,"2010-07-22T00:00:00","31.5","9.85","27.21","2222.69","8.14","ND","0.5","12.6","23.1","76","0","0"],
    [1830,"2010-07-22T01:00:00","31.2","10.78","26.72","2014.80","6.36","ND","0.1","288.8","22.3","81","0","0"],
    [1831,"2010-07-22T02:00:00","27.6","10.33","26.09","1555.26","7.35","ND","0.2","309.9","21.6","82.2","0","0"],
    [1832,"2010-07-22T03:00:00","15.4","6.68","20.74","1121.21","7.06","ND","0.3","341.8","21.2","81.9","0","0"],
    [1833,"2010-07-22T04:00:00","15.9","4.99","19.86","1198.86","5.58","ND","0.4","341.3","20.6","83.9","0","0"],
    [1834,"2010-07-22T05:00:00","16.3","5.01","19.48","1106.12","6.34","ND","0.1","342.7","20.4","85.7","0","0"],
    [1835,"2010-07-22T06:00:00","25.4","5.52","17.60","992.57","6.51","ND","0.1","228.7","20.7","84.7","0.2","0"],
    [1836,"2010-07-22T07:00:00","44.2","5.81","15.93","959.72","6.00","ND","0","283.2","21","82.6","52","0"],
    [1837,"2010-07-22T08:00:00","67.1","6.59","15.66","1062.42","6.02","ND","0.4","8","22.4","78.4","135","0"],
    [1838,"2010-07-22T09:00:00","72","8.29","17.42","1408.16","6.59","ND","0.4","105.9","23.9","74.8","417.7","0"],
    [1839,"2010-07-22T10:00:00","87","13.52","32.69","1849.03","8.07","ND","0.9","83.8","25.9","64.8","606.5","0"],
    [1840,"2010-07-22T11:00:00","68.3","19.87","50.80","1895.96","14.96","ND","1.4","43","26.7","62.5","660.7","0"],
    [1841,"2010-07-22T12:00:00","64.6","18.71","45.50","1509.31","51.35","ND","1.1","48.6","27.8","59.3","804.7","0"],
    [1842,"2010-07-22T13:00:00","58.3","16.42","28.19","1156.37","82.36","ND","1.4","21.8","28.9","56.3","761","0"],
    [1843,"2010-07-22T14:00:00","33.1","14.65","19.23","974.90","109.12","ND","1.6","51","29.7","54.6","563.5","0"],
    [1844,"2010-07-22T15:00:00","18.2","23.50","14.71","826.21","107.82","ND","2.5","266.3","30.6","47.8","517","0"],
    [1845,"2010-07-22T16:00:00","11.1","25.76","12.80","816.99","102.48","ND","3.2","270.2","30.4","46.9","476.1","0"],
    [1846,"2010-07-22T17:00:00","7.3","17.02","12.12","828.12","46.31","ND","3.6","272.2","29.8","48.1","363.2","0"],
    [1847,"2010-07-22T18:00:00","8.5","6.52","8.92","779.92","29.27","ND","2.2","260.7","28.5","50.6","104.9","0"],
    [1848,"2010-07-22T19:00:00","14.4","5.73","9.43","799.75","29.36","ND","0.5","111.9","27.9","52.5","2.2","0"],
    [1849,"2010-07-22T20:00:00","35.9","5.32","14.30","913.84","26.18","ND","0.4","306.5","27.3","54.1","0","0"],
    [1850,"2010-07-22T21:00:00","18.9","7.23","30.54","1258.35","12.50","ND","1.6","234.8","26.7","55","0","0"],
    [1851,"2010-07-22T22:00:00","28.6","8.62","32.50","1532.35","12.53","ND","0.5","156.2","25.5","63.5","0","0"],
    [1852,"2010-07-22T23:00:00","47.4","4.49","17.49","952.45","20.01","ND","0.4","74.1","24.1","71.5","0","0"],
    [1853,"2010-07-23T00:00:00","44.7","5.62","24.92","1290.63","11.33","ND","0.2","239.8","23.4","73.8","0","0"],
    [1854,"2010-07-23T01:00:00","34.1","7.25","28.47","1481.29","8.63","ND","0.3","351.3","22.9","76.5","0","0"],
    [1855,"2010-07-23T02:00:00","43.6","6.76","24.78","1274.04","7.25","ND","0.2","6.6","22","80.6","0","0"],
    [1856,"2010-07-23T03:00:00","38.1","6.12","25.28","1349.55","6.41","ND","0.3","239.6","22.2","79.4","0","0"],
    [1857,"2010-07-23T04:00:00","36.4","10.43","21.08","1236.98","7.56","ND","0.1","254.9","22","79.8","0","0"],
    [1858,"2010-07-23T05:00:00","27.9","7.99","20.45","1224.80","6.78","ND","0.6","17.4","21.5","81.6","0","0"],
    [1859,"2010-07-23T06:00:00","54.2","5.62","21.07","1211.40","7.33","ND","0.5","13.7","20.7","83.5","0","0"],
    [1860,"2010-07-23T07:00:00","73.9","9.74","21.01","1185.53","6.32","ND","0.4","202.1","21.2","82.2","54.1","0"],
    [1861,"2010-07-23T08:00:00","59.4","22.17","22.28","1198.86","6.39","ND","0.1","317.7","23","74.5","176.8","0"],
    [1862,"2010-07-23T09:00:00","52","19.88","22.00","1524.81","6.74","ND","1.5","42.1","24","69","442.8","0"],
    [1863,"2010-07-23T10:00:00","63","35.46","34.95","1701.23","9.39","ND","1","51.3","24.3","69.5","340.1","0"],
    [1864,"2010-07-23T11:00:00","47.8","64.25","26.61","1131.49","22.59","ND","1.1","68","25.8","64","628.1","0"],
    [1865,"2010-07-23T12:00:00","68","44.48","21.98","987.87","33.67","ND","1.2","112.9","27.2","58.5","447.7","0"],
    [1866,"2010-07-23T13:00:00","44.8","68.71","25.86","980.96","43.55","ND","0.2","171.1","28.3","53.6","692.1","0"],
    [1867,"2010-07-23T14:00:00","27.9","38.55","23.14","1007.72","57.38","ND","1","48.2","29.2","50.4","707.5","0"],
    [1868,"2010-07-23T15:00:00","18.6","19.53","16.52","964.26","78.75","ND","1.2","44","30.1","48.5","672.4","0"],
    [1869,"2010-07-23T16:00:00","50","19.27","16.13","920.52","88.86","ND","1.5","39.7","30.1","50.4","444.7","0"],
    [1870,"2010-07-23T17:00:00","53.8","38.88","16.76","862.26","96.44","ND","1.4","33.7","29.9","50.8","217.3","0"],
    [1871,"2010-07-23T18:00:00","63.9","ND","15.32","ND","100.03","ND","1.2","313.8","29.3","54.4","97.6","0"],
    [1872,"2010-07-23T19:00:00","36.1","ND","25.54","662.42","ND","ND","1.4","252.9","27.8","58.1","4.2","0"],
    [1873,"2010-07-23T20:00:00","54.6","20.50","29.66","867.28","54.51","ND","0.7","245.7","27.2","59.3","0","0"],
    [1874,"2010-07-23T21:00:00","38","20.40","40.60","1061.74","37.96","ND","0.1","245.3","26.4","63.6","0","0"],
    [1875,"2010-07-23T22:00:00","59.8","14.95","37.77","1081.93","31.47","ND","0.5","97.4","25.8","66.8","0","0"],
    [1876,"2010-07-23T23:00:00","32.4","16.39","61.96","2125.06","10.80","ND","0.5","123.3","25.3","70.1","0","0"],
    [1877,"2010-07-24T00:00:00","45.2","16.42","50.56","1788.95","11.51","ND","0.1","163","25","72","0","0"],
    [1878,"2010-07-24T01:00:00","27.8","12.68","37.25","1638.22","11.48","ND","0.3","106.6","24.7","72.3","0","0"],
    [1879,"2010-07-24T02:00:00","35.8","11.57","31.91","1442.01","9.76","ND","0.3","99.6","24.5","74.7","0","0"],
    [1880,"2010-07-24T03:00:00","19.6","10.38","30.46","1475.35","11.01","ND","0.4","34","23.6","78.3","0","0"],
    [1881,"2010-07-24T04:00:00","30.7","10.25","29.17","1254.25","10.86","ND","0.2","271.2","23.3","80.6","0","0"],
    [1882,"2010-07-24T05:00:00","18.3","10.00","21.97","854.30","13.15","ND","0.1","270.6","22.8","82.9","0","0"],
    [1883,"2010-07-24T06:00:00","38.4","8.45","20.06","875.61","11.03","ND","0.1","330","22.6","82.9","0.1","0"],
    [1884,"2010-07-24T07:00:00","43.8","7.23","19.22","920.47","11.11","ND","0.3","44.8","22.8","82.6","18.4","0"],
    [1885,"2010-07-24T08:00:00","65.6","7.78","18.62","1012.06","9.08","ND","0.7","36.6","22.8","83","106.7","0"],
    [1886,"2010-07-24T09:00:00","79.3","8.90","20.36","1228.12","9.45","ND","0.1","309.7","24.1","75.4","286.5","0"],
    [1887,"2010-07-24T10:00:00","73.7","15.41","26.44","1199.25","12.56","ND","1.2","94.8","26.1","67","578.2","0"],
    [1888,"2010-07-24T11:00:00","66.9","19.20","26.47","1046.35","16.86","ND","1.3","92.5","27.8","59","691.8","0"],
    [1889,"2010-07-24T12:00:00","59.8","24.49","40.06","1272.01","47.78","ND","1.4","156.7","28.2","54.8","439.3","0"],
    [1890,"2010-07-24T13:00:00","48.3","18.96","28.25","995.80","87.21","ND","0.3","168","29","52.2","449.4","0"],
    [1891,"2010-07-24T14:00:00","31.3","11.84","18.82","835.91","76.43","ND","0.3","55.7","29.3","52","346.6","0"],
    [1892,"2010-07-24T15:00:00","25","10.63","16.32","767.01","104.27","ND","0.6","104.7","29.3","51.6","323.2","0"],
    [1893,"2010-07-24T16:00:00","40.4","10.02","19.14","767.01","108.67","ND","1.1","58.1","29.1","52.9","212.8","0"],
    [1894,"2010-07-24T17:00:00","50.3","8.55","13.90","696.82","98.00","ND","2","254.8","29","53.1","198.7","0"],
    [1895,"2010-07-24T18:00:00","27.8","9.90","18.95","743.03","106.12","ND","1.9","246.7","28.6","54.4","129.8","0"],
    [1896,"2010-07-24T19:00:00","36.1","8.99","19.08","753.64","79.36","ND","0.3","276.2","27.1","57.8","4.1","0"],
    [1897,"2010-07-24T20:00:00","34","7.12","21.21","819.11","54.62","ND","0.3","46.9","26.6","60","0","0"],
    [1898,"2010-07-24T21:00:00","50.2","6.95","30.86","932.92","37.52","ND","0.1","333.9","25.7","63","0","0"],
    [1899,"2010-07-24T22:00:00","72.4","7.75","42.59","1309.06","15.68","ND","0.1","66.5","24.5","70.1","0","0"],
    [1900,"2010-07-24T23:00:00","84","7.53","39.24","1223.74","12.64","ND","0.4","145.7","23.9","74.5","0","0"],
    [1901,"2010-07-25T00:00:00","93.1","10.08","34.26","1552.27","11.22","ND","0.1","155.2","23.3","77.4","0","0"],
    [1902,"2010-07-25T01:00:00","87.1","10.45","31.93","1526.36","9.52","ND","0.2","235.1","22.6","79.7","0","0"],
    [1903,"2010-07-25T02:00:00","75.4","9.93","26.44","1556.84","11.06","ND","0.5","325.7","21.9","82.2","0","0"],
    [1904,"2010-07-25T03:00:00","50.5","9.08","25.67","1768.56","7.96","ND","0.6","29.4","21.2","87.3","0","0"],
    [1905,"2010-07-25T04:00:00","59.5","7.76","24.82","1323.27","8.54","ND","0.1","10.9","21.3","86.5","0","0"],
    [1906,"2010-07-25T05:00:00","48.7","10.32","19.44","1018.25","8.12","ND","0.2","309.5","21.5","85.3","0","0"],
    [1907,"2010-07-25T06:00:00","60","7.85","18.05","905.72","8.22","ND","0.4","10.8","21.7","84.8","0.1","0"],
    [1908,"2010-07-25T07:00:00","45.3","7.57","18.89","1053.62","8.23","ND","0.2","24.6","21.6","86.1","45.7","0"],
    [1909,"2010-07-25T08:00:00","49","11.92","21.15","1053.26","8.81","ND","0.2","36.7","22.9","80.3","216.4","0"],
    [1910,"2010-07-25T09:00:00","80","15.01","20.20","1001.03","9.70","ND","0.9","53.4","24.2","74.3","333.3","0"],
    [1911,"2010-07-25T10:00:00","62","30.37","25.40","948.30","13.25","ND","0.6","103.4","25.4","66.8","564.7","0"],
    [1912,"2010-07-25T11:00:00","32.9","92.62","37.10","894.77","21.50","ND","1","39.2","27.1","61.7","797.3","0"],
    [1913,"2010-07-25T12:00:00","27.1","196.35","37.71","738.36","27.69","ND","1","51.8","28.1","57.1","807.7","0"],
    [1914,"2010-07-25T13:00:00","18.4","67.48","15.49","601.91","69.38","ND","1.2","344.4","29.1","54.1","657","0"],
    [1915,"2010-07-25T14:00:00","13","35.38","10.35","580.68","92.92","ND","2.3","14.2","29.8","51.9","830.2","0"],
    [1916,"2010-07-25T15:00:00","7.9","32.32","10.43","558.75","99.10","ND","1.8","9.7","30.3","49.3","587.3","0"],
    [1917,"2010-07-25T16:00:00","16.3","29.23","8.34","478.05","67.91","ND","2.9","282.2","30","48.4","454","0"],
    [1918,"2010-07-25T17:00:00","10.4","13.59","4.60","454.28","48.07","ND","1.9","275.4","30.1","46.8","316","0"],
    [1919,"2010-07-25T18:00:00","8.8","9.70","5.27","466.09","46.03","ND","1.2","265.7","28.9","49.7","91","0"],
    [1920,"2010-07-25T19:00:00","25","9.56","5.99","487.45","51.69","ND","0.3","313.3","27.9","52.6","3.1","0"],
    [1921,"2010-07-25T20:00:00","14.1","8.18","11.16","555.24","41.87","ND","0.9","245.8","26.9","56.5","0","0"],
    [1922,"2010-07-25T21:00:00","12.4","8.86","20.00","749.39","27.71","ND","0.2","114.7","26.6","58.3","0","0"],
    [1923,"2010-07-25T22:00:00","19.2","9.93","16.57","644.98","26.46","ND","0.3","64.3","25.8","62.8","0","0"],
    [1924,"2010-07-25T23:00:00","14.6","18.63","24.36","907.46","13.83","ND","0.6","86.6","24.8","69.2","0","0"],
    [1925,"2010-07-26T00:00:00","23","16.47","30.38","1362.36","10.45","ND","0.2","112","24.2","71.6","0","0"],
    [1926,"2010-07-26T01:00:00","13.3","13.20","27.50","1188.23","9.32","ND","0.4","170.2","23.9","73","0","0"],
    [1927,"2010-07-26T02:00:00","30.2","10.63","23.85","901.69","9.68","ND","0.2","19.5","23.2","76.8","0","0"],
    [1928,"2010-07-26T03:00:00","26.7","10.05","19.81","899.56","12.72","ND","0.4","351.4","22.4","83.9","0","0"],
    [1929,"2010-07-26T04:00:00","23.8","8.62","17.79","726.79","11.67","ND","0.6","325","21.7","87.5","0","0"],
    [1930,"2010-07-26T05:00:00","14.4","8.50","16.19","657.09","11.29","ND","0.1","130.9","22.3","84.1","0","0"],
    [1931,"2010-07-26T06:00:00","26","9.04","11.80","601.67","15.71","ND","0.4","350.7","21.9","88","0","0"],
    [1932,"2010-07-26T07:00:00","36.5","9.21","10.18","589.52","12.93","ND","0.2","211.8","22.1","85.1","19.1","0"],
    [1933,"2010-07-26T08:00:00","43","25.84","19.96","839.50","10.40","ND","0.4","35.1","23","80.9","129.6","0"],
    [1934,"2010-07-26T09:00:00","54.1","45.00","20.30","1069.64","8.63","ND","1.3","44.1","23.4","80.6","243","0"],
    [1935,"2010-07-26T10:00:00","52.7","36.33","27.46","1276.19","12.57","ND","1.3","57.9","24.5","73.7","393.7","0"],
    [1936,"2010-07-26T11:00:00","35.9","62.02","32.08","1178.00","15.40","ND","1.1","56.2","26","66.7","688.7","0"],
    [1937,"2010-07-26T12:00:00","24.4","93.65","24.89","827.61","25.73","ND","1.6","61.4","27.3","61.6","702.4","0"],
    [1938,"2010-07-26T13:00:00","13.6","34.80","17.48","750.39","53.93","ND","1.8","71.6","28.1","58.9","764","0"],
    [1939,"2010-07-26T14:00:00","8.7","39.69","14.14","682.94","65.00","ND","1.4","48","29","56.3","566.2","0"],
    [1940,"2010-07-26T15:00:00","6.6","41.50","12.90","638.54","72.71","ND","1.5","0.6","29.6","52.8","526","0"],
    [1941,"2010-07-26T16:00:00","4.7","37.94","11.97","639.81","82.70","ND","1.4","335.9","29.9","49.4","317.4","0"],
    [1942,"2010-07-26T17:00:00","5.9","31.48","13.40","640.44","52.36","ND","0.7","330","28.2","55.8","104.6","0"],
    [1943,"2010-07-26T18:00:00","18.2","12.87","9.10","648.43","44.15","ND","1.6","279.9","28.1","54.3","110.5","0"],
    [1944,"2010-07-26T19:00:00","19.5","14.06","16.90","787.12","33.07","ND","0.5","251.3","27.3","55.8","2.2","0"],
    [1945,"2010-07-26T20:00:00","41.9","12.91","18.88","865.84","26.54","ND","0.9","106.7","27.1","57.9","0","0"],
    [1946,"2010-07-26T21:00:00","23.5","10.74","23.77","1015.24","18.66","ND","2.3","96.1","25.3","66","0","0"],
    [1947,"2010-07-26T22:00:00","78.2","16.63","30.79","1089.42","10.80","ND","2.3","146.5","22.9","77","0","0"],
    [1948,"2010-07-26T23:00:00","54.9","18.68","28.84","1217.16","14.28","ND","0.4","157.5","22.1","84.6","0","0"],
    [1949,"2010-07-27T00:00:00","42.3","8.33","22.16","1032.36","18.15","ND","0.4","91.6","21.5","91","0","0"],
    [1950,"2010-07-27T01:00:00","37.4","7.28","19.77","883.08","17.40","ND","0.2","280.5","21.4","90.7","0","0"],
    [1951,"2010-07-27T02:00:00","30.6","8.75","22.51","939.37","10.43","ND","0.1","215.8","21.4","89.3","0","0"],
    [1952,"2010-07-27T03:00:00","32.4","6.81","17.12","882.78","13.55","ND","0.2","327.6","21.2","89.7","0","0"],
    [1953,"2010-07-27T04:00:00","35.9","6.88","16.53","870.87","9.32","ND","0.4","12.5","20.9","93.1","0","0"],
    [1954,"2010-07-27T05:00:00","27.7","6.36","16.75","847.38","10.03","ND","0.1","20","20.3","94.9","0","0"],
    [1955,"2010-07-27T06:00:00","48","10.42","18.35","958.41","8.58","ND","0.4","340.2","20.4","93.6","0","0"],
    [1956,"2010-07-27T07:00:00","48.5","12.18","14.61","823.38","7.65","ND","0.3","34.4","20.5","92.2","24.9","0"],
    [1957,"2010-07-27T08:00:00","74.9","15.10","14.62","970.34","10.11","ND","0.1","37.8","21.5","86.9","104.2","0"],
    [1958,"2010-07-27T09:00:00","78.4","23.51","17.98","1268.01","7.99","ND","0.3","40.4","22.5","83.9","188.5","0"],
    [1959,"2010-07-27T10:00:00","100.2","24.89","27.08","1476.80","10.53","ND","1.1","45","24.2","75.7","488.3","0"],
    [1960,"2010-07-27T11:00:00","79.4","30.05","39.77","1622.40","13.35","ND","1.6","52.8","24.4","73.7","437.2","0"],
    [1961,"2010-07-27T12:00:00","42.9","100.57","40.92","1189.03","19.47","ND","0.7","89.2","25.9","66.6","742.2","0"],
    [1962,"2010-07-27T13:00:00","24.3","154.25","30.49","838.82","34.84","ND","0.9","52.7","27.6","59.6","610.6","0"],
    [1963,"2010-07-27T14:00:00","13.6","36.74","16.09","728.03","50.95","ND","0.9","50.4","27.6","60.4","365.7","0"],
    [1964,"2010-07-27T15:00:00","7.9","25.16","12.01","693.36","78.33","ND","1.4","38.2","28.1","60.1","395.2","0"],
    [1965,"2010-07-27T16:00:00","29.3","23.27","12.35","717.67","86.89","ND","0.6","56.5","27.7","60.7","149.3","0"],
    [1966,"2010-07-27T17:00:00","16.8","32.20","15.83","739.83","86.08","ND","0.1","155.5","27.7","57.1","112.3","0"],
    [1967,"2010-07-27T18:00:00","12.1","34.42","20.37","739.83","52.06","ND","0.9","253.6","26.8","58.8","28.8","0"],
    [1968,"2010-07-27T19:00:00","8.7","15.32","14.93","795.24","28.29","ND","0.6","238.5","26.3","60.9","2.2","0"],
    [1969,"2010-07-27T20:00:00","6.8","13.26","18.42","966.51","16.34","ND","0.5","285.3","25.9","61.2","0","0"],
    [1970,"2010-07-27T21:00:00","5.3","12.80","21.86","1149.07","11.77","ND","1.6","195.6","25.1","62.5","0","0"],
    [1971,"2010-07-27T22:00:00","8","11.45","18.84","882.41","14.68","ND","0.6","50.4","24.2","70","0","0"],
    [1972,"2010-07-27T23:00:00","4.9","7.79","14.54","811.20","15.21","ND","0.3","36.2","23.2","75.1","0","0"],
    [1973,"2010-07-28T00:00:00","13","9.74","24.45","1081.75","10.57","ND","0.3","138.2","23.2","77.3","0","0"],
    [1974,"2010-07-28T01:00:00","20.7","8.72","17.82","728.76","12.33","ND","0.8","149.8","22.9","77.6","0","0"],
    [1975,"2010-07-28T02:00:00","22.8","8.92","19.32","819.02","8.44","ND","1.1","162.7","22.5","79.1","0","0"],
    [1976,"2010-07-28T03:00:00","12.4","7.87","17.43","806.56","10.72","ND","0.3","148.6","22.3","81.7","0","0"],
    [1977,"2010-07-28T04:00:00","27.4","6.10","12.19","726.55","12.93","ND","0.2","218.2","21.9","84.4","0","0"],
    [1978,"2010-07-28T05:00:00","23.1","6.53","12.56","759.57","12.47","ND","0.1","51.4","21.7","86","0","0"],
    [1979,"2010-07-28T06:00:00","33.4","7.36","11.66","759.06","11.31","ND","0.6","46.7","21.4","88.5","0","0"],
    [1980,"2010-07-28T07:00:00","19.5","10.33","14.29","803.56","8.45","ND","0.3","44.9","21.3","89.5","14.1","0"],
    [1981,"2010-07-28T08:00:00","42.2","17.44","16.54","859.85","9.46","ND","0.3","194.6","22.1","85","103.3","0"],
    [1982,"2010-07-28T09:00:00","32","26.67","18.17","1100.43","8.82","ND","0.5","156.8","23.5","76.8","294.9","0"],
    [1983,"2010-07-28T10:00:00","39.8","35.64","22.77","1367.81","9.22","ND","0.6","131","24.8","70.6","334.8","0"],
    [1984,"2010-07-28T11:00:00","20.7","33.78","29.21","1328.01","17.45","ND","0.6","120.1","26","65.5","499.9","0"],
    [1985,"2010-07-28T12:00:00","29.1","25.92","34.00","1275.89","36.96","ND","1.5","130.7","27","62.6","516.7","0"],
    [1986,"2010-07-28T13:00:00","19.3","19.28","26.89","1118.70","64.42","ND","0.7","127","28.1","57.7","669.9","0"],
    [1987,"2010-07-28T14:00:00","30.8","14.30","21.98","1018.62","76.28","ND","0.5","32.4","28.6","55.8","482.5","0"],
    [1988,"2010-07-28T15:00:00","16.9","12.70","19.42","1031.91","129.21","ND","1.1","28.3","28.9","53.9","308.2","0"],
    [1989,"2010-07-28T16:00:00","32.7","11.76","18.55","858.84","116.46","ND","2.7","280.6","29.1","50.4","464.2","0"],
    [1990,"2010-07-28T17:00:00","17.8","12.78","18.48","847.80","113.16","ND","1.5","276.3","29.4","48.9","305.1","0"],
    [1991,"2010-07-28T18:00:00","9.4","8.59","10.72","732.39","44.85","ND","1.7","262.1","28.3","50.7","95.3","0"],
    [1992,"2010-07-28T19:00:00","10.4","7.34","13.86","764.47","45.57","ND","0.5","112.5","27.3","53.5","3.2","0"],
    [1993,"2010-07-28T20:00:00","18.3","8.98","21.09","912.01","37.38","ND","0.5","53.3","26","57.6","0","0"],
    [1994,"2010-07-28T21:00:00","25.5","9.49","28.80","ND","17.37","ND","0.2","100","25.6","59.9","0","0"],
    [1995,"2010-07-28T22:00:00","37.8","9.85","28.57","ND","16.34","ND","0.4","63.8","24.6","65","0","0"],
    [1996,"2010-07-28T23:00:00","47.2","11.70","33.82","ND","9.41","ND","1","183.5","23.3","73.9","0","0"],
    [1997,"2010-07-29T00:00:00","39.1","12.32","33.50","ND","10.63","ND","0.1","337.2","22.7","74.6","0","0"],
    [1998,"2010-07-29T01:00:00","21.3","10.87","24.35","ND","9.68","ND","0.4","47.8","22.2","78","0","0"],
    [1999,"2010-07-29T02:00:00","39.4","9.68","23.40","ND","8.09","ND","0.1","239.8","22","79.8","0","0"],
    [2000,"2010-07-29T03:00:00","22.1","8.72","20.02","ND","8.63","ND","0.2","185.7","22","81.5","0","0"],
    [2001,"2010-07-29T04:00:00","22.4","10.69","20.12","ND","10.08","ND","0.3","307.6","21.2","84.1","0","0"],
    [2002,"2010-07-29T05:00:00","29.6","9.88","16.98","ND","9.24","ND","0.1","320.4","20.8","84.4","0","0"],
    [2003,"2010-07-29T06:00:00","27.8","8.42","15.75","ND","7.58","ND","0.3","253.8","20.8","85.2","0","0"],
    [2004,"2010-07-29T07:00:00","28.1","8.27","14.19","ND","7.31","ND","0.2","297.6","20.8","85.1","24","0"],
    [2005,"2010-07-29T08:00:00","22.6","7.75","13.91","ND","7.56","ND","0.2","165.1","22.1","79.5","115.4","0"],
    [2006,"2010-07-29T09:00:00","16.7","8.93","15.42","ND","8.14","ND","1.1","133.6","24.2","70","396.8","0"],
    [2007,"2010-07-29T10:00:00","26.5","10.92","23.59","ND","8.44","ND","1.7","130.6","25.1","67.5","302.7","0"],
    [2008,"2010-07-29T11:00:00","22.1","14.23","31.95","ND","22.20","ND","1.3","173.8","25.4","66.2","414.2","0"],
    [2009,"2010-07-29T12:00:00","44.7","14.59","34.57","ND","37.20","ND","1.5","139.8","26.7","62.4","635.3","0"],
    [2010,"2010-07-29T13:00:00","29.2","11.83","21.01","ND","46.06","ND","1.4","147.8","27.2","60.5","374.5","0"],
    [2011,"2010-07-29T14:00:00","43.1","13.99","22.14","ND","66.46","ND","0.5","221.4","27.9","58.2","540.9","0"],
    [2012,"2010-07-29T15:00:00","ND","13.97","21.22","ND","79.40","ND","1.2","337.7","28.4","56.3","533.1","0"],
    [2013,"2010-07-29T16:00:00","28","12.80","22.00","ND","115.87","ND","2","358.7","29","51.8","472","0"],
    [2014,"2010-07-29T17:00:00","27.8","ND","17.87","ND","107.63","ND","1.5","320.5","29.2","49.8","344.2","0"],
    [2015,"2010-07-29T18:00:00","15.9","8.56","8.90","638.96","ND","ND","1.6","273.1","27.6","55.7","59.3","0"],
    [2016,"2010-07-29T19:00:00","33.6","8.56","10.09","670.25","18.07","ND","0.8","135.8","25.2","70.1","1.1","0"],
    [2017,"2010-07-29T20:00:00","40","6.90","14.64","836.85","13.08","ND","0.3","105.7","24.8","73","0","0"],
    [2018,"2010-07-29T21:00:00","38.8","9.35","36.82","1568.43","6.61","ND","0.5","63.6","24.2","74.5","0","0"],
    [2019,"2010-07-29T22:00:00","25.9","12.44","50.45","1953.73","5.50","ND","0.9","180.5","24","74.6","0","0"],
    [2020,"2010-07-29T23:00:00","38.5","12.64","35.95","1404.37","6.63","ND","0.8","157.9","23.5","74.6","0","0"],
    [2021,"2010-07-30T00:00:00","20.6","12.46","32.51","1618.57","4.86","ND","0.8","138.9","23.5","75.1","0","0"],
    [2022,"2010-07-30T01:00:00","19.3","9.07","28.26","1322.22","5.23","ND","0.5","131.6","23.3","76.6","0","0"],
    [2023,"2010-07-30T02:00:00","30.1","8.57","28.54","1196.03","5.56","ND","0.2","187","22.8","80","0","0"],
    [2024,"2010-07-30T03:00:00","35.2","7.44","26.96","1057.55","5.59","ND","0.4","332.9","22.4","83.1","0","0"],
    [2025,"2010-07-30T04:00:00","19","6.99","19.60","1022.05","9.26","ND","0.5","68.1","22","85.8","0","0"],
    [2026,"2010-07-30T05:00:00","21.5","9.18","22.21","1066.03","5.46","ND","0.2","20.3","21.8","86.3","0","0"],
    [2027,"2010-07-30T06:00:00","34","11.02","19.64","974.64","4.99","ND","0.2","275.6","21.9","86.2","0","0"],
    [2028,"2010-07-30T07:00:00","43.7","11.67","16.91","816.26","4.93","ND","0.4","44.9","21.9","87","9","0"],
    [2029,"2010-07-30T08:00:00","49","13.07","17.89","1008.98","5.20","ND","0.3","81.9","21.9","88.7","57.8","0"],
    [2030,"2010-07-30T09:00:00","36","17.74","22.05","1201.71","5.03","ND","1.3","139.6","22.7","83.9","131.9","0"],
    [2031,"2010-07-30T10:00:00","19.1","17.89","23.75","1557.37","4.81","ND","1.3","133.8","23.5","79.6","267.6","0"],
    [2032,"2010-07-30T11:00:00","22.9","15.28","29.72","1538.79","6.01","ND","0.3","333.3","24.8","72.7","580.9","0"],
    [2033,"2010-07-30T12:00:00","ND","14.87","27.03","1202.08","12.45","ND","1.6","92","26.1","65.8","447.4","ND"],
    [2034,"2010-07-30T13:00:00","4.1","18.62","24.31","1046.35","24.92","ND","0.4","241.4","26.9","61.4","340.9","0"],
    [2035,"2010-07-30T14:00:00","3.8","20.20","21.12","887.74","43.37","ND","0.8","337.7","27.8","58.6","429.9","0"],
    [2036,"2010-07-30T15:00:00","4","17.06","18.69","797.90","48.97","ND","0.8","61.4","28","56.8","332.9","0"],
    [2037,"2010-07-30T16:00:00","8.8","17.07","21.12","867.86","55.16","ND","0.6","180.2","28.1","55.1","284","0"],
    [2038,"2010-07-30T17:00:00","6.3","18.29","15.30","694.51","34.50","ND","2.1","249.3","27.7","55.1","192.9","0"],
    [2039,"2010-07-30T18:00:00","4.5","13.30","13.19","716.71","18.63","ND","2.1","273.7","26.8","56.2","83.5","0"],
    [2040,"2010-07-30T19:00:00","3.8","9.60","14.78","841.34","13.78","ND","0.1","174.5","26.3","57.3","2.4","0"],
    [2041,"2010-07-30T20:00:00","25.4","8.03","14.45","782.41","12.40","ND","0.4","307.3","25.8","58.5","0","0"],
    [2042,"2010-07-30T21:00:00","14.3","8.56","19.94","953.41","7.56","ND","1.8","247","25","59.4","0","0"],
    [2043,"2010-07-30T22:00:00","13","14.33","25.35","1168.52","5.73","ND","3.2","185.9","23.7","71.9","0","0"],
    [2044,"2010-07-30T23:00:00","8.7","7.23","16.11","821.24","10.86","ND","1.9","166.5","23.4","74.5","0","0"],
    [2045,"2010-07-31T00:00:00","5.1","6.72","18.34","888.78","8.14","ND","0.6","250.6","23.3","70.7","0","0"],
    [2046,"2010-07-31T01:00:00","4.2","6.98","23.67","1002.38","7.53","ND","0.9","22.7","22.3","82","0","0"],
    [2047,"2010-07-31T02:00:00","35.7","6.80","20.98","930.89","6.49","ND","0.6","349.5","22.1","84.3","0","0"],
    [2048,"2010-07-31T03:00:00","21.6","20.97","23.39","1009.67","5.71","ND","0.4","36.4","21.9","85.6","0","0"],
    [2049,"2010-07-31T04:00:00","27","19.97","21.86","1008.98","6.23","ND","0.3","188.3","21.8","85.6","0","1.02"],
    [2050,"2010-07-31T05:00:00","18.9","24.39","21.26","ND","4.64","ND","0.8","246.6","20.1","95.8","0","11.43"],
    [2051,"2010-07-31T06:00:00","16","19.69","18.45","ND","4.65","ND","0.5","67.4","20.8","93.9","0","0.25"],
    [2052,"2010-07-31T07:00:00","9.5","17.26","19.66","ND","5.77","ND","0.3","57.5","20.8","89.8","7.1","0"],
    [2053,"2010-07-31T08:00:00","11.9","15.53","19.57","ND","4.80","ND","0.6","38.9","20.9","90.9","31.7","0"],
    [2054,"2010-07-31T09:00:00","10.1","15.87","20.77","ND","4.74","ND","0.5","58","21","90.9","40.3","0"],
    [2055,"2010-07-31T10:00:00","32.5","16.34","22.34","ND","4.74","ND","0.4","279.4","21.6","88","175.1","0"],
    [2056,"2010-07-31T11:00:00","24.6","18.52","22.14","ND","5.01","ND","0.6","215","22.7","81.3","246.1","0"],
    [2057,"2010-07-31T12:00:00","22.9","16.54","23.29","ND","6.74","ND","1.3","201.5","24.4","72.4","501.8","0"],
    [2058,"2010-07-31T13:00:00","12.2","19.85","33.44","ND","10.05","ND","1.7","190.9","25.7","66.7","627.9","0"],
    [2059,"2010-07-31T14:00:00","8.3","17.83","36.30","ND","20.81","ND","1.6","142.1","26.5","63.1","409","0"],
    [2060,"2010-07-31T15:00:00","18.2","13.11","23.89","ND","30.41","ND","1.4","272","26.2","63.5","232.7","0"],
    [2061,"2010-07-31T16:00:00","10.5","11.31","20.59","ND","37.55","ND","1.8","281.7","26.1","59.8","172.1","0"],
    [2062,"2010-07-31T17:00:00","6.2","10.68","21.13","ND","41.34","ND","1.2","123.9","24","72","20.6","1.27"],
    [2063,"2010-07-31T18:00:00","4.4","8.80","11.30","ND","21.65","ND","0.1","3.5","21.4","91.1","7.1","4.57"],
    [2064,"2010-07-31T19:00:00","8.9","7.90","18.98","ND","9.07","ND","0.4","334.3","21.2","91.9","0.5","1.52"],
    [2065,"2010-07-31T20:00:00","26.9","8.82","30.03","ND","6.01","ND","0.5","19.4","20.8","94.1","0","1.52"],
    [2066,"2010-07-31T21:00:00","15.7","8.01","30.30","ND","5.46","ND","0.3","73.1","20.7","92.6","0","0"],
    [2067,"2010-07-31T22:00:00","20.5","8.06","31.82","ND","4.45","ND","1.2","220.1","20.9","93","0","0"],
    [2068,"2010-07-31T23:00:00","12.6","8.79","28.42","ND","5.88","ND","0.8","204.2","21.1","91.5","0","0"],
    [2069,"2010-08-01T00:00:00","15.6","12.49","33.24","ND","4.92","ND","0.1","343.6","20.9","93.9","0","1.27"],
    [2070,"2010-08-01T01:00:00","10.1","20.54","28.59","ND","3.89","ND","0.2","323.7","20.6","96.9","0","1.52"],
    [2071,"2010-08-01T02:00:00","10.6","14.48","25.16","ND","4.97","ND","0.7","190.4","20.4","96.9","0","11.94"],
    [2072,"2010-08-01T03:00:00","5.8","11.92","22.03","ND","4.37","ND","0.6","165.6","20.3","96.8","0","2.79"],
    [2073,"2010-08-01T04:00:00","4.6","11.58","21.87","ND","4.91","ND","0.9","160","20.2","96.8","0","3.56"],
    [2074,"2010-08-01T05:00:00","6.3","9.46","20.90","ND","5.31","ND","0.6","202.4","19.9","96.4","0","0.25"],
    [2075,"2010-08-01T06:00:00","5","7.85","18.92","ND","6.42","ND","0.4","139.4","20.1","94.3","0","0"],
    [2076,"2010-08-01T07:00:00","3.8","6.37","13.93","ND","7.99","ND","0.3","172.5","20.2","92.9","6.3","1.02"],
    [2077,"2010-08-01T08:00:00","3","6.57","15.23","ND","5.41","ND","0.4","192.5","19.9","96.6","48.4","6.35"],
    [2078,"2010-08-01T09:00:00","2.8","5.87","14.33","ND","4.98","ND","1","148.6","21.4","88.5","317.1","0.25"],
    [2079,"2010-08-01T10:00:00","1.4","5.72","16.75","ND","5.68","ND","1.8","129.2","23.7","77.3","638","0.25"],
    [2080,"2010-08-01T11:00:00","2.2","6.03","15.64","ND","8.75","ND","0.4","125.7","24.8","71.7","759.7","0"],
    [2081,"2010-08-01T12:00:00","1.8","5.73","14.32","ND","15.08","ND","1.4","106.1","26","66.1","670","0"],
    [2082,"2010-08-01T13:00:00","3.1","6.36","11.70","ND","31.31","ND","1","93.3","26.8","61.6","600.7","0"],
    [2083,"2010-08-01T14:00:00","3.3","7.06","11.16","ND","40.75","ND","1.4","43.3","28.1","57","852.3","0"],
    [2084,"2010-08-01T15:00:00","3.4","6.62","8.07","ND","41.92","ND","1.1","40.9","28","56.7","448.3","0"],
    [2085,"2010-08-01T16:00:00","3.4","6.88","6.09","ND","44.34","ND","1.3","17.2","27.8","57.5","197.8","0"],
    [2086,"2010-08-01T17:00:00","3.8","21.82","8.23","ND","52.77","ND","1.1","294.8","27.2","58.2","151.3","0"],
    [2087,"2010-08-01T18:00:00","1.9","10.80","6.09","ND","44.20","ND","0.4","269.4","27.3","58.4","94.9","0"],
    [2088,"2010-08-01T19:00:00","3.2","7.39","7.78","ND","19.14","ND","0.4","183.3","26.7","59.1","10.2","0"],
    [2089,"2010-08-01T20:00:00","3.8","7.09","12.60","ND","12.91","ND","0.4","232.9","25.3","70.1","0","0"],
    [2090,"2010-08-01T21:00:00","3.7","6.77","17.10","ND","7.98","ND","0.5","235.6","24.3","70.4","0","0"],
    [2091,"2010-08-01T22:00:00","9.9","9.36","22.64","ND","5.72","ND","0.4","119.8","24.1","72.8","0","0"],
    [2092,"2010-08-01T23:00:00","6.8","8.67","21.82","ND","4.50","ND","0.3","172.4","23.6","77.3","0","0"],
    [2093,"2010-08-02T00:00:00","15.8","8.87","20.43","ND","3.93","ND","0.6","329","22.9","81.6","0","0"],
    [2094,"2010-08-02T01:00:00","9.9","7.18","19.24","ND","5.85","ND","0.1","303.4","22.3","83.3","0","0"],
    [2095,"2010-08-02T02:00:00","5.7","7.27","17.13","ND","4.47","ND","0.2","299.8","22.2","83","0","0"],
    [2096,"2010-08-02T03:00:00","15.1","5.89","14.03","ND","4.49","ND","0.1","6.3","22","84.2","0","0"],
    [2097,"2010-08-02T04:00:00","8.4","5.58","14.65","ND","4.12","ND","0.1","295.7","21.9","85.4","0","0"],
    [2098,"2010-08-02T05:00:00","7.4","5.47","13.87","ND","4.58","ND","0.2","56.2","21.9","86.6","0","0"],
    [2099,"2010-08-02T06:00:00","5.2","4.56","12.75","ND","4.89","ND","0.1","17.6","21.8","88.9","0","0"],
    [2100,"2010-08-02T07:00:00","22.3","4.82","13.97","ND","4.10","ND","0.6","6.5","21.5","90.6","27.2","0"],
    [2101,"2010-08-02T08:00:00","24.4","5.13","13.90","ND","5.39","ND","0.3","50.1","22.3","87.4","142.4","0"],
    [2102,"2010-08-02T09:00:00","29.1","6.54","16.70","ND","4.90","ND","2","147.8","23.1","79.8","197.8","0"],
    [2103,"2010-08-02T10:00:00","16.2","8.31","24.25","ND","5.54","ND","2","140.8","23.9","76.4","433","0"],
    [2104,"2010-08-02T11:00:00","9.4","8.14","28.92","ND","7.18","ND","0.9","115.7","26","66.7","706.5","0"],
    [2105,"2010-08-02T12:00:00","6.4","6.13","20.50","ND","16.34","ND","1.3","153.2","27.1","61.5","690.8","0"],
    [2106,"2010-08-02T13:00:00","4.9","7.31","16.79","ND","34.52","ND","1.1","171.2","28.2","57.1","799.8","0"],
    [2107,"2010-08-02T14:00:00","3.1","6.09","15.13","ND","43.20","ND","0.9","137.5","29.1","53.9","597.6","0"],
    [2108,"2010-08-02T15:00:00","3.8","6.14","15.31","ND","56.82","ND","1.1","81.7","29.7","52.2","558.8","0"],
    [2109,"2010-08-02T16:00:00","6.7","6.79","15.94","ND","66.18","ND","1","95.3","30.2","51.1","394.8","0"],
    [2110,"2010-08-02T17:00:00","5.2","6.96","15.14","ND","73.10","ND","0.5","303","30.1","51.9","249.3","0"],
    [2111,"2010-08-02T18:00:00","26.5","7.49","15.82","ND","76.11","ND","1.1","31.2","29.4","54.7","139.3","0"],
    [2112,"2010-08-02T19:00:00","13.8","9.17","20.05","ND","86.19","ND","1.3","238.7","28.3","56.3","7","0"],
    [2113,"2010-08-02T20:00:00","11.1","13.83","21.94","ND","53.41","ND","2.6","255.5","27.2","58.1","0","0"],
    [2114,"2010-08-02T21:00:00","7.6","8.50","24.48","ND","10.56","ND","0.8","274.7","27.1","58.6","0","0"],
    [2115,"2010-08-02T22:00:00","9.1","6.12","15.00","ND","13.85","ND","0.2","87.1","26.6","63.4","0","0"],
    [2116,"2010-08-02T23:00:00","14.7","6.22","21.87","ND","10.00","ND","0.3","177.7","25.6","71.2","0","0"],
    [2117,"2010-08-03T00:00:00","19.2","7.33","30.21","ND","6.67","ND","0.2","307.5","24.8","74","0","0"],
    [2118,"2010-08-03T01:00:00","10.3","7.20","26.95","ND","5.31","ND","0.2","330.7","24.5","73.8","0","0"],
    [2119,"2010-08-03T02:00:00","14.3","5.78","23.58","ND","5.80","ND","0.2","77","23.9","79.2","0","0"],
    [2120,"2010-08-03T03:00:00","12.6","5.33","22.05","ND","6.18","ND","0.7","8","22.9","84.8","0","0"],
    [2121,"2010-08-03T04:00:00","19.6","5.13","19.00","ND","6.16","ND","0.3","329","22.4","87.1","0","0"],
    [2122,"2010-08-03T05:00:00","10.4","5.53","16.99","ND","5.84","ND","0.2","265.7","22.2","87","0","0"],
    [2123,"2010-08-03T06:00:00","12","8.64","15.91","ND","5.38","ND","0","343.1","22.3","84.6","0","0"],
    [2124,"2010-08-03T07:00:00","33.3","6.23","13.23","ND","5.06","ND","0.5","27.2","22.4","84.5","14.8","0"],
    [2125,"2010-08-03T08:00:00","47.4","5.77","13.03","ND","5.33","ND","0.6","47.8","22.5","86","56.1","0"],
    [2126,"2010-08-03T09:00:00","40.2","10.73","20.17","ND","5.23","ND","0.8","126","23.8","78.7","153.2","0"],
    [2127,"2010-08-03T10:00:00","52","11.14","22.08","ND","5.61","ND","1.5","171.9","22.7","87.3","92.1","17.53"],
    [2128,"2010-08-03T11:00:00","31.5","12.38","25.51","ND","5.76","ND","0.6","187.6","22.7","83.6","231.2","1.52"],
    [2129,"2010-08-03T12:00:00","18","10.50","25.32","ND","7.93","ND","1.2","172.2","23.9","79.7","327.2","0"],
    [2130,"2010-08-03T13:00:00","9.9","7.62","24.04","ND","7.90","ND","1.3","115.5","25.9","69.4","392.3","0"],
    [2131,"2010-08-03T14:00:00","11.6","8.30","43.94","ND","11.95","ND","0.9","69.4","26.5","66.6","435.2","0"],
    [2132,"2010-08-03T15:00:00","16.1","8.85","46.09","ND","24.67","ND","2.9","43.6","26.7","65.7","556.9","0"],
    [2133,"2010-08-03T16:00:00","16.4","12.54","21.16","ND","41.50","ND","2.7","50.7","26.1","66.8","252.4","0"],
    [2134,"2010-08-03T17:00:00","10.1","17.25","14.05","ND","35.85","ND","2.1","53.2","26.2","65.5","154.3","0"],
    [2135,"2010-08-03T18:00:00","24.2","9.79","13.75","ND","24.55","ND","2.1","143.2","25","71.9","36.9","0"],
    [2136,"2010-08-03T19:00:00","21.6","9.22","18.55","ND","24.57","ND","1.6","193.4","20.9","90.9","0","14.22"],
    [2137,"2010-08-03T20:00:00","28","16.82","29.76","ND","9.81","ND","1.3","168","20.9","90.3","0","2.03"],
    [2138,"2010-08-03T21:00:00","16.1","13.10","33.53","ND","6.50","ND","1.1","157.7","20.8","91","0","0.51"],
    [2139,"2010-08-03T22:00:00","8.7","11.13","33.37","ND","4.53","ND","0.7","179.2","20.9","94.4","0","0"],
    [2140,"2010-08-03T23:00:00","5.3","10.78","31.19","ND","4.78","ND","0.7","240.9","21.1","90.2","0","0.51"],
    [2141,"2010-08-04T00:00:00","5.7","10.42","28.90","ND","5.36","ND","0.6","31.8","20.5","95.3","0","0.25"],
    [2142,"2010-08-04T01:00:00","4.5","8.59","22.71","ND","4.10","ND","0.1","183.3","20.2","95.9","0","0"],
    [2143,"2010-08-04T02:00:00","11.6","8.25","23.44","ND","3.96","ND","0.4","70","20.2","95.1","0","0"],
    [2144,"2010-08-04T03:00:00","9","7.48","21.37","ND","4.04","ND","0.1","311.1","20.3","95.1","0","0"],
    [2145,"2010-08-04T04:00:00","7.7","6.96","18.74","ND","4.71","ND","0.2","73","20.3","95.5","0","0"],
    [2146,"2010-08-04T05:00:00","13.7","6.91","17.83","ND","4.35","ND","0.2","254.5","20.3","95.6","0","0"],
    [2147,"2010-08-04T06:00:00","42.6","7.40","18.02","ND","4.19","ND","0.3","100.4","20.4","94","0","0"],
    [2148,"2010-08-04T07:00:00","40.4","7.79","14.83","ND","4.62","ND","0.6","26.7","20.2","93.7","35.4","0"],
    [2149,"2010-08-04T08:00:00","33.6","8.33","17.72","ND","4.32","ND","1.1","108.9","20.7","91.3","105.4","0"],
    [2150,"2010-08-04T09:00:00","40.9","11.00","21.85","ND","4.53","ND","1.3","155.5","21.4","87.2","207.1","0"],
    [2151,"2010-08-04T10:00:00","52.7","12.68","26.76","ND","4.46","ND","0.9","153.5","22.5","81.5","251.7","0"],
    [2152,"2010-08-04T11:00:00","32.5","14.45","27.77","ND","7.63","ND","0.6","81.9","23.8","74.3","341.1","0"],
    [2153,"2010-08-04T12:00:00","20","13.65","36.45","ND","13.06","ND","0.7","41","25.4","66.6","813.9","0"],
    [2154,"2010-08-04T13:00:00","12.6","12.04","24.86","ND","33.42","ND","0.8","88.2","27","61.2","815","0"],
    [2155,"2010-08-04T14:00:00","21.4","12.53","19.04","ND","62.86","ND","1.1","66.2","28","57.9","800.5","0"],
    [2156,"2010-08-04T15:00:00","11.2","12.41","20.01","ND","78.45","ND","1.3","41.8","28.9","55.5","724.5","0"],
    [2157,"2010-08-04T16:00:00","11.2","12.85","16.18","ND","72.05","ND","1.7","46.2","29.2","53.7","531","0"],
    [2158,"2010-08-04T17:00:00","7.8","25.69","16.56","ND","75.88","ND","0.6","40.9","29.6","52.5","301.2","0"],
    [2159,"2010-08-04T18:00:00","23.2","15.75","10.69","ND","66.89","ND","1.8","252.4","28.5","58.1","100","0"],
    [2160,"2010-08-04T19:00:00","18.4","20.31","14.35","ND","61.45","ND","1","251.5","27","61.4","2.2","0"],
    [2161,"2010-08-04T20:00:00","28.1","9.36","29.56","ND","24.69","ND","0.3","233.2","26.7","61.7","0","0"],
    [2162,"2010-08-04T21:00:00","15.7","4.48","34.85","ND","15.24","ND","0.9","120.7","26.1","66.6","0","0"],
    [2163,"2010-08-04T22:00:00","31.6","7.15","36.14","ND","11.99","ND","0.1","144.2","24.9","74.2","0","0"],
    [2164,"2010-08-04T23:00:00","34.6","14.09","43.76","ND","5.89","ND","0.8","210.4","24.5","75.8","0","0"],
    [2165,"2010-08-05T00:00:00","47.4","10.88","32.90","ND","5.86","ND","0.2","76.4","23.7","80","0","0"],
    [2166,"2010-08-05T01:00:00","46.4","12.94","32.65","ND","5.51","ND","0.3","344.4","22.7","83.5","0","0"],
    [2167,"2010-08-05T02:00:00","57.6","12.06","28.56","ND","5.18","ND","0.2","279.1","22.3","85.9","0","0"],
    [2168,"2010-08-05T03:00:00","60","9.92","25.83","ND","5.15","ND","0.1","258.9","21.8","88.5","0","0"],
    [2169,"2010-08-05T04:00:00","55.4","9.05","21.59","ND","5.07","ND","0.2","9.2","21.9","88.7","0","0"],
    [2170,"2010-08-05T05:00:00","36.9","7.99","17.46","ND","4.60","ND","0.3","344.4","21.6","90","0","0"],
    [2171,"2010-08-05T06:00:00","47.3","7.18","17.73","ND","5.14","ND","0.2","257.7","21.8","89.1","0","0"],
    [2172,"2010-08-05T07:00:00","33.9","8.19","20.63","ND","5.05","ND","0.2","46.2","21.9","87.3","21.8","0"],
    [2173,"2010-08-05T08:00:00","64.2","7.99","17.48","ND","5.38","ND","1","38.6","21.9","88.8","177","0"],
    [2174,"2010-08-05T09:00:00","67.1","9.65","18.66","ND","4.82","ND","0.8","42.1","23.8","79.9","427.7","0"],
    [2175,"2010-08-05T10:00:00","61","16.39","23.39","ND","5.96","ND","0.7","66.9","25.7","69.9","560.8","0"],
    [2176,"2010-08-05T11:00:00","32","16.94","28.51","ND","13.26","ND","0.6","96.3","27.2","63","705.3","0"],
    [2177,"2010-08-05T12:00:00","31.5","40.49","34.85","ND","24.71","ND","1.2","116.6","28.6","57.6","507.3","0"],
    [2178,"2010-08-05T13:00:00","43.4","ND","28.67","ND","43.26","ND","2","171.3","27.9","60","250.3","0"],
    [2179,"2010-08-05T14:00:00","46.6","ND","ND","ND","44.19","ND","1","178.8","28.6","56.9","737.8","0"],
    [2180,"2010-08-05T15:00:00","34.9","12.89","27.49","ND","ND","ND","0.8","34.2","30","53.5","653.4","0"],
    [2181,"2010-08-05T16:00:00","55.5","10.90","28.84","ND","98.19","ND","1","40","30","53.5","515.1","0"],
    [2182,"2010-08-05T17:00:00","40.2","11.70","25.22","ND","164.83","ND","1","326.2","30","51.4","234.5","0"],
    [2183,"2010-08-05T18:00:00","39.7","13.85","23.44","ND","150.64","ND","2.5","253.2","28.7","53.5","82.2","0"],
    [2184,"2010-08-05T19:00:00","23.8","22.39","20.42","ND","59.48","ND","0.9","249.3","27.5","56.7","2.2","0"],
    [2185,"2010-08-05T20:00:00","49.6","10.28","24.58","ND","30.93","ND","0.3","151.8","27","59.1","0","0"],
    [2186,"2010-08-05T21:00:00","28.4","9.07","30.55","ND","18.63","ND","1.2","110.4","26.6","61.4","0","0"],
    [2187,"2010-08-05T22:00:00","53.4","9.54","37.83","ND","15.29","ND","0.6","116.8","25.3","68.4","0","0"],
    [2188,"2010-08-05T23:00:00","59.1","11.20","47.21","ND","7.82","ND","0.7","126.6","24.8","71.8","0","0"],
    [2189,"2010-08-06T00:00:00","52.7","15.63","32.00","ND","6.80","ND","0.9","194","24.1","73.5","0","0"],
    [2190,"2010-08-06T01:00:00","28.4","13.61","27.53","ND","5.48","ND","0.8","191","23.8","75.9","0","0"],
    [2191,"2010-08-06T02:00:00","22.2","10.18","24.25","ND","9.46","ND","1","10.9","23.4","76.5","0","0"],
    [2192,"2010-08-06T03:00:00","15.8","8.18","20.78","ND","8.69","ND","0.2","226.9","23.3","78.2","0","0"],
    [2193,"2010-08-06T04:00:00","41.9","14.33","22.14","ND","8.23","ND","0.2","68.9","23.1","79","0","0"],
    [2194,"2010-08-06T05:00:00","24.7","15.73","23.80","ND","5.50","ND","0.3","0.6","22.5","82.4","0","0"],
    [2195,"2010-08-06T06:00:00","44.2","15.41","20.66","ND","6.73","ND","0.2","334.5","22.1","85.2","0.1","0"],
    [2196,"2010-08-06T07:00:00","23.1","16.71","18.09","ND","5.81","ND","0.2","239.5","22.1","84.4","44.8","0"],
    [2197,"2010-08-06T08:00:00","37.6","17.07","18.86","ND","6.24","ND","0.1","56.1","23.5","77.9","124.8","0"],
    [2198,"2010-08-06T09:00:00","54.8","15.38","19.25","ND","5.45","ND","0.6","85.5","24.5","74.2","308.4","0"],
    [2199,"2010-08-06T10:00:00","39.2","16.01","31.23","ND","7.17","ND","1.8","155.7","26","52.8","434.3","0"],
    [2200,"2010-08-06T11:00:00","20.7","22.82","62.49","ND","13.66","ND","1.8","154.4","27.1","45.5","483.1","0"],
    [2201,"2010-08-06T12:00:00","10.3","14.14","36.02","ND","24.66","ND","1.8","131.9","28.8","39.3","927.7","0"],
    [2202,"2010-08-06T13:00:00","6.1","8.28","24.53","ND","34.66","ND","1.6","155.6","29.5","37.8","754.9","0"],
    [2203,"2010-08-06T14:00:00","4.3","6.81","16.90","ND","49.80","ND","2","122.4","30.2","39.7","768.7","0"],
    [2204,"2010-08-06T15:00:00","5.3","5.07","14.76","ND","56.34","ND","0.6","322.4","29.8","42.4","383.3","0"],
    [2205,"2010-08-06T16:00:00","9.9","5.48","14.01","ND","71.44","ND","2.8","272.9","29.4","47.5","526.4","0"],
    [2206,"2010-08-06T17:00:00","6.2","6.51","18.39","ND","63.60","ND","3.2","280.7","28.9","48","322.8","0"],
    [2207,"2010-08-06T18:00:00","3.1","6.37","14.48","ND","50.18","ND","2.6","279.9","27.8","49.3","54.7","0"],
    [2208,"2010-08-06T19:00:00","3","5.50","14.47","ND","38.17","ND","2","259","27.3","49.8","1.6","0"],
    [2209,"2010-08-06T20:00:00","4.6","4.75","17.80","ND","28.87","ND","0.9","104.6","27.3","51.6","0","0"],
    [2210,"2010-08-06T21:00:00","13.5","5.70","24.14","ND","22.19","ND","1","152.1","26.2","56.5","0","0"],
    [2211,"2010-08-06T22:00:00","41.2","13.50","35.51","ND","8.41","ND","0.3","137.8","25.2","62.7","0","0"],
    [2212,"2010-08-06T23:00:00","31.8","13.69","30.10","ND","5.89","ND","0.3","100.4","24.6","66","0","0"],
    [2213,"2010-08-07T00:00:00","52.3","15.75","30.58","ND","5.13","ND","0.4","96.4","23.9","69.1","0","0"],
    [2214,"2010-08-07T01:00:00","26.6","16.13","28.88","ND","5.47","ND","0.1","127.6","23.4","72.3","0","0"],
    [2215,"2010-08-07T02:00:00","36.4","15.12","26.15","ND","4.65","ND","0.1","343.5","23","75.2","0","0"],
    [2216,"2010-08-07T03:00:00","20","10.70","22.21","ND","4.78","ND","0.2","1.7","22.2","77.8","0","0"],
    [2217,"2010-08-07T04:00:00","23","9.14","20.19","ND","4.80","ND","0.2","307.6","22.1","79.4","0","0"],
    [2218,"2010-08-07T05:00:00","19.3","13.41","17.94","ND","5.52","ND","0","314.2","21.6","81","0","0"],
    [2219,"2010-08-07T06:00:00","17.7","11.58","17.56","ND","5.33","ND","0.3","7.2","21.6","81.7","0.2","0"],
    [2220,"2010-08-07T07:00:00","40.1","7.69","14.15","ND","4.60","ND","0.1","60.2","22","80.6","18.8","0"],
    [2221,"2010-08-07T08:00:00","67.1","8.09","14.58","ND","4.80","ND","0","247.8","22.5","79","73.3","0"],
    [2222,"2010-08-07T09:00:00","35.3","11.09","19.98","ND","5.22","ND","0.2","70.7","23.4","74.8","145.8","0"],
    [2223,"2010-08-07T10:00:00","71.8","11.13","25.35","ND","5.95","ND","0.9","45.3","23.7","76.7","318.9","0"],
    [2224,"2010-08-07T11:00:00","57.8","12.99","32.42","ND","8.25","ND","1","47.1","25.5","69.9","650.3","0"],
    [2225,"2010-08-07T12:00:00","51.1","26.40","43.60","ND","17.53","ND","1.2","131.5","27.4","59.2","529.2","0"],
    [2226,"2010-08-07T13:00:00","26.1","28.69","45.34","ND","52.12","ND","0.5","282.8","27.7","57.7","259.2","0"],
    [2227,"2010-08-07T14:00:00","28.7","20.52","29.38","ND","68.04","ND","1.5","244.2","28.2","53.5","628.5","0"],
    [2228,"2010-08-07T15:00:00","14.4","16.08","21.68","ND","95.72","ND","0.5","22.7","29.5","49.3","563.4","0"],
    [2229,"2010-08-07T16:00:00","10.5","10.88","10.97","ND","38.78","ND","2.7","263.4","28","52.4","154.2","0"],
    [2230,"2010-08-07T17:00:00","12","8.13","7.00","ND","47.35","ND","1.9","268.9","26.9","55.9","92.7","0"],
    [2231,"2010-08-07T18:00:00","10.3","6.46","8.70","ND","33.53","ND","0.2","140.4","26.5","57.2","44.2","0"],
    [2232,"2010-08-07T19:00:00","14.4","6.90","11.87","ND","26.78","ND","1.1","118.6","25.8","58.2","3","0"],
    [2233,"2010-08-07T20:00:00","18.7","6.46","15.33","ND","16.10","ND","0.3","110","24.9","60.8","0","0"],
    [2234,"2010-08-07T21:00:00","11.4","6.71","19.77","ND","10.34","ND","0.4","125.2","24.6","62.1","0","0"],
    [2235,"2010-08-07T22:00:00","30.8","8.69","27.27","ND","7.02","ND","1","121.4","23.6","67.8","0","0"],
    [2236,"2010-08-07T23:00:00","42","9.81","27.41","ND","5.31","ND","0.7","42.4","23","70.4","0","0"],
    [2237,"2010-08-08T00:00:00","28.6","11.71","26.36","ND","6.16","ND","0.8","337.1","21.7","81.9","0","0.51"],
    [2238,"2010-08-08T01:00:00","15.2","10.68","26.21","ND","5.53","ND","0","102.4","21.6","84.4","0","0"],
    [2239,"2010-08-08T02:00:00","9.7","9.17","21.95","ND","7.06","ND","0.2","354.6","21.6","84.6","0","0"],
    [2240,"2010-08-08T03:00:00","6.4","8.70","18.81","ND","4.79","ND","0.3","13.8","21.4","84.8","0","0"],
    [2241,"2010-08-08T04:00:00","3.2","8.13","17.79","ND","5.25","ND","0.1","285.8","21.2","86.2","0","0"],
    [2242,"2010-08-08T05:00:00","3.6","7.94","16.75","ND","5.97","ND","0.1","241.2","21.2","87.6","0","0"],
    [2243,"2010-08-08T06:00:00","14.3","7.48","14.91","ND","5.46","ND","0.4","11.7","20.8","87.5","0.3","0"],
    [2244,"2010-08-08T07:00:00","9.7","6.54","13.93","ND","4.57","ND","0.2","318.8","20.8","88","32.2","0"],
    [2245,"2010-08-08T08:00:00","30.3","6.87","12.26","ND","5.75","ND","0.2","69.6","21.7","84.6","163.8","0"],
    [2246,"2010-08-08T09:00:00","16.6","5.91","12.46","ND","5.55","ND","0.1","54.3","22.9","79.3","199","0"],
    [2247,"2010-08-08T10:00:00","26.7","7.10","17.02","ND","8.44","ND","0.4","113.5","24.1","73.4","469.7","0"],
    [2248,"2010-08-08T11:00:00","14.8","9.82","25.93","ND","14.30","ND","0.7","46.2","25.5","66.4","540.7","0"],
    [2249,"2010-08-08T12:00:00","30.5","15.35","24.15","ND","30.45","ND","0.9","142.3","26.8","60.7","522.5","0"],
    [2250,"2010-08-08T13:00:00","21.4","19.61","16.79","ND","53.40","ND","0.7","46.1","27.8","57.1","653.6","0"],
    [2251,"2010-08-08T14:00:00","17.7","15.90","12.55","ND","65.09","ND","0.5","324.6","29.7","51.2","840","0"],
    [2252,"2010-08-08T15:00:00","12.6","21.45","11.92","ND","96.76","ND","1.2","311.7","29.5","51.8","477.8","0"],
    [2253,"2010-08-08T16:00:00","11.3","37.42","12.81","ND","100.42","ND","3.1","258.7","29.2","52.1","447.2","0"],
    [2254,"2010-08-08T17:00:00","7.5","34.99","10.45","ND","72.30","ND","2.6","281.5","28.8","51.9","352.1","0"],
    [2255,"2010-08-08T18:00:00","6.6","15.23","7.61","ND","42.53","ND","2.2","275.8","28.1","52.3","132.2","0"],
    [2256,"2010-08-08T19:00:00","4.7","9.53","7.04","ND","36.07","ND","0.8","221.1","27","58.1","1.4","0"],
    [2257,"2010-08-08T20:00:00","10.2","8.73","9.90","ND","42.32","ND","0.7","266.2","25.4","64.4","0","0"],
    [2258,"2010-08-08T21:00:00","9.8","9.39","19.97","ND","24.78","ND","0.3","106.8","25","68.7","0","0"],
    [2259,"2010-08-08T22:00:00","35.1","9.43","22.24","ND","12.17","ND","0.7","140","24.8","69.5","0","0"],
    [2260,"2010-08-08T23:00:00","29.8","11.21","29.12","ND","6.47","ND","0.2","291.3","24.4","71.5","0","0"],
    [2261,"2010-08-09T00:00:00","22","10.46","27.10","ND","4.52","ND","0.6","83","23.9","75","0","0"],
    [2262,"2010-08-09T01:00:00","12.7","9.03","22.89","ND","6.88","ND","0.1","7","23.3","78.7","0","0"],
    [2263,"2010-08-09T02:00:00","19.7","8.42","21.74","ND","5.74","ND","0.4","89","23.3","79.1","0","0"],
    [2264,"2010-08-09T03:00:00","11.3","7.48","17.60","ND","4.33","ND","0.7","16.2","22.2","84.5","0","0"],
    [2265,"2010-08-09T04:00:00","14","6.72","16.49","ND","6.51","ND","0.1","314.5","22.1","84.8","0","0"],
    [2266,"2010-08-09T05:00:00","8.8","7.03","14.03","ND","5.31","ND","0.1","308.4","21.6","87.6","0","0"],
    [2267,"2010-08-09T06:00:00","21.7","6.11","12.77","ND","5.68","ND","0.1","14.5","21.7","86.5","0.1","0"],
    [2268,"2010-08-09T07:00:00","11.8","6.19","11.81","ND","5.96","ND","0.2","317.5","21.6","86.8","31.7","0"],
    [2269,"2010-08-09T08:00:00","50.6","6.79","12.33","ND","5.02","ND","0.2","94.7","22.8","80.3","166.8","0"],
    [2270,"2010-08-09T09:00:00","39.8","9.16","14.28","ND","6.23","ND","0.2","126.3","24.2","73","335.5","0"],
    [2271,"2010-08-09T10:00:00","32.7","15.39","27.99","ND","6.07","ND","1.2","67.5","25.7","65.2","665","0"],
    [2272,"2010-08-09T11:00:00","17.7","17.83","48.31","ND","14.95","ND","0.9","49.9","26.9","59.6","771.4","0"],
    [2273,"2010-08-09T12:00:00","10.8","43.72","33.32","ND","26.94","ND","0.6","129.9","28.4","53","871.5","0"],
    [2274,"2010-08-09T13:00:00","9.9","57.56","22.90","ND","32.59","ND","1.4","121.8","30.1","46.3","854.7","0"],
    [2275,"2010-08-09T14:00:00","14.1","41.23","22.18","ND","55.01","ND","1.7","111.4","31.4","42","825.6","0"],
    [2276,"2010-08-09T15:00:00","18.8","26.12","19.68","ND","93.71","ND","1.5","109.7","31.9","38","713","0"],
    [2277,"2010-08-09T16:00:00","32.1","20.37","19.35","ND","112.98","ND","1.6","6.9","32","40.1","491.7","0"],
    [2278,"2010-08-09T17:00:00","28.8","12.98","15.36","ND","108.50","ND","1.6","279.4","31.6","43.9","341.8","0"],
    [2279,"2010-08-09T18:00:00","25.3","13.82","17.87","ND","109.98","ND","2.2","252.4","29.9","48.8","110","0"],
    [2280,"2010-08-09T19:00:00","35","10.65","21.36","ND","76.20","ND","1","242.8","28.4","51.7","2.1","0"],
    [2281,"2010-08-09T20:00:00","30.6","9.22","24.82","ND","56.07","ND","0.5","241.3","27.6","54.2","0","0"],
    [2282,"2010-08-09T21:00:00","50.8","10.44","41.59","ND","29.55","ND","0.1","282.4","26.7","58.4","0","0"],
    [2283,"2010-08-09T22:00:00","54.6","11.46","50.95","ND","17.11","ND","0.8","112","25.5","64.5","0","0"],
    [2284,"2010-08-09T23:00:00","123.4","12.99","54.58","ND","8.59","ND","0.4","154.3","24.4","70.8","0","0"],
    [2285,"2010-08-10T00:00:00","96.7","14.80","38.36","ND","6.07","ND","0.2","167.2","24.4","70.5","0","0"],
    [2286,"2010-08-10T01:00:00","62.6","12.79","32.48","ND","7.19","ND","0","143.2","23.9","72.2","0","0"],
    [2287,"2010-08-10T02:00:00","53.8","11.59","30.92","ND","7.21","ND","0.6","120.1","23.1","76","0","0"],
    [2288,"2010-08-10T03:00:00","28.1","10.15","26.95","ND","6.59","ND","0.4","160.5","22.7","77.4","0","0"],
    [2289,"2010-08-10T04:00:00","34.8","9.54","21.04","ND","7.17","ND","0.1","268.6","22.1","80.3","0","0"],
    [2290,"2010-08-10T05:00:00","22.1","9.32","13.39","ND","9.87","ND","0.1","242.2","21.5","81.9","0","0"],
    [2291,"2010-08-10T06:00:00","25","7.17","12.55","ND","7.49","ND","0.4","8.3","21.3","82.7","0.1","0"],
    [2292,"2010-08-10T07:00:00","44.9","6.00","11.90","ND","5.74","ND","0.2","331.6","21.3","83.3","59.1","0"],
    [2293,"2010-08-10T08:00:00","61.4","7.06","14.47","ND","5.14","ND","0.2","338.3","22.7","76.6","184.6","0"],
    [2294,"2010-08-10T09:00:00","65.2","13.34","20.30","ND","5.72","ND","0.2","315.3","24.4","67.5","352.1","0"],
    [2295,"2010-08-10T10:00:00","66.3","21.81","33.93","ND","7.01","ND","0.6","75.6","26.1","61.8","590.2","0"],
    [2296,"2010-08-10T11:00:00","51.8","25.96","52.80","ND","19.18","ND","1.1","111","28.1","53.4","762.2","0"],
    [2297,"2010-08-10T12:00:00","56.2","30.23","54.67","ND","53.26","ND","1.3","101.4","29.1","50.5","842.1","0"],
    [2298,"2010-08-10T13:00:00","39","21.25","34.46","ND","88.11","ND","0.9","79.4","30.2","47","786.6","0"],
    [2299,"2010-08-10T14:00:00","58.6","18.74","22.00","ND","110.53","ND","1.2","12.2","30.9","46.5","681.5","0"],
    [2300,"2010-08-10T15:00:00","37.9","20.66","20.09","1460.36","136.68","ND","2","294.4","30.5","47.2","334.9","0"],
    [2301,"2010-08-10T16:00:00","37.8","46.25","22.37","1353.43","138.90","ND","2.9","256.8","30.3","48.7","339.5","0"],
    [2302,"2010-08-10T17:00:00","25.7","34.51","19.34","1212.62","75.86","ND","2.6","258.9","30.2","49.3","285.5","0"],
    [2303,"2010-08-10T18:00:00","33.7","16.82","18.72","1270.50","60.60","ND","2.2","259.1","28.7","52.5","55.8","0"],
    [2304,"2010-08-10T19:00:00","18.6","15.76","17.29","1159.83","63.18","ND","0.6","238.5","27.7","55.7","1.4","0"],
    [2305,"2010-08-10T20:00:00","37.2","13.72","26.65","1364.06","44.75","ND","0.8","240.8","27.2","57.4","0","0"],
    [2306,"2010-08-10T21:00:00","25.6","13.59","42.25","1696.48","25.05","ND","0.3","107.8","27.1","58.2","0","0"],
    [2307,"2010-08-10T22:00:00","51.6","12.19","39.34","1534.39","20.91","ND","0.4","110.1","26.1","63.1","0","0"],
    [2308,"2010-08-10T23:00:00","36.8","13.68","42.97","1586.77","13.89","ND","0.5","142.5","25.3","67.7","0","0"],
    [2309,"2010-08-11T00:00:00","57","18.05","39.61","1754.54","6.84","ND","0.6","138.6","24.6","70.5","0","0"],
    [2310,"2010-08-11T01:00:00","31.2","14.76","31.43","1784.75","8.11","ND","0.7","176.7","23.5","74.4","0","0"],
    [2311,"2010-08-11T02:00:00","40.4","15.17","26.03","1572.98","5.25","ND","1.2","195","23.3","77.2","0","0"],
    [2312,"2010-08-11T03:00:00","29","10.97","20.64","1264.37","6.91","ND","0.6","206","23.3","75.3","0","0"],
    [2313,"2010-08-11T04:00:00","50.4","8.86","18.39","1116.29","7.61","ND","0.5","163","22.8","75.4","0","0"],
    [2314,"2010-08-11T05:00:00","30.9","8.37","12.71","1034.81","12.52","ND","0.1","290","21.5","81.2","0","0"],
    [2315,"2010-08-11T06:00:00","17.1","8.93","11.24","1018.94","10.20","ND","0.2","282.7","21","82.5","0.1","0"],
    [2316,"2010-08-11T07:00:00","26.8","6.15","9.92","960.70","6.16","ND","0.2","359.4","21.4","80","45.6","0"],
    [2317,"2010-08-11T08:00:00","56.7","5.82","13.19","1063.86","5.56","ND","1.1","41.8","22.4","77.2","214.9","0"],
    [2318,"2010-08-11T09:00:00","53.2","8.68","19.60","1521.72","5.84","ND","1.5","53.8","23.7","72.8","449.6","0"],
    [2319,"2010-08-11T10:00:00","41.4","18.26","28.17","1688.10","8.93","ND","0.3","174.9","25.5","61.6","611.3","0"],
    [2320,"2010-08-11T11:00:00","32.1","26.14","25.56","1239.33","21.86","ND","1.4","92.5","26.8","58.5","601.4","0"],
    [2321,"2010-08-11T12:00:00","53","19.16","18.32","1129.48","39.98","ND","1.4","126.9","27.4","57.2","527.7","0"],
    [2322,"2010-08-11T13:00:00","32.7","16.48","20.18","1154.83","60.71","ND","0.2","267.3","28.3","54.6","569.6","0"],
    [2323,"2010-08-11T14:00:00","48","17.38","16.72","1100.38","62.60","ND","0.6","106.7","29.9","50.7","679.2","0"],
    [2324,"2010-08-11T15:00:00","28","20.05","23.07","1222.67","118.92","ND","1.1","25.2","29.9","51.2","403.5","0"],
    [2325,"2010-08-11T16:00:00","53.8","20.16","20.29","1211.02","134.12","ND","0.7","296.9","30","50.6","267.7","0"],
    [2326,"2010-08-11T17:00:00","29","27.57","20.47","1141.53","121.71","ND","0.8","223.8","29.7","51.2","103.3","0"],
    [2327,"2010-08-11T18:00:00","28.1","32.31","21.56","1093.86","69.47","ND","1.8","234.2","28.5","54.1","40.5","0"],
    [2328,"2010-08-11T19:00:00","15.6","14.13","16.69","1217.02","58.01","ND","1.5","248.1","27.3","57.9","2.1","0"],
    [2329,"2010-08-11T20:00:00","37.6","10.69","27.92","1512.33","36.90","ND","0.1","182.5","26.9","58.6","0","0"],
    [2330,"2010-08-11T21:00:00","38.8","10.10","33.63","1602.55","25.97","ND","0.1","97.9","26.4","59.9","0","0"],
    [2331,"2010-08-11T22:00:00","62.5","10.29","37.56","1657.42","18.99","ND","0.9","122.5","25.6","64.9","0","0"],
    [2332,"2010-08-11T23:00:00","51.6","9.77","45.58","1836.66","10.87","ND","0","281.2","24.2","71.3","0","0"],
    [2333,"2010-08-12T00:00:00","57.7","13.54","39.13","1942.30","7.26","ND","0.1","241.3","23.5","74","0","0"],
    [2334,"2010-08-12T01:00:00","50.9","10.95","36.79","2028.92","5.70","ND","0.1","65.8","22.9","77.4","0","0"],
    [2335,"2010-08-12T02:00:00","36.1","9.78","32.28","1888.31","5.73","ND","0.1","315.1","22.1","80.7","0","0"],
    [2336,"2010-08-12T03:00:00","38.1","8.02","26.39","1599.59","5.50","ND","0.2","213.1","22.2","81.1","0","0"],
    [2337,"2010-08-12T04:00:00","29","7.40","23.92","1520.69","5.25","ND","0.4","333.3","21.6","83.9","0","0"],
    [2338,"2010-08-12T05:00:00","40.6","6.76","21.78","1494.95","5.61","ND","0.4","270.3","21.7","83.5","0","0"],
    [2339,"2010-08-12T06:00:00","51.4","9.82","18.51","1291.53","5.61","ND","0.1","254.6","22","81.8","0.3","0"],
    [2340,"2010-08-12T07:00:00","50.1","8.95","17.32","1304.19","4.97","ND","0.5","84.5","22","78.1","36.8","0"],
    [2341,"2010-08-12T08:00:00","51.4","9.86","19.86","1383.57","5.25","ND","0.3","336.3","22.5","75.8","204.4","0"],
    [2342,"2010-08-12T09:00:00","72.2","11.41","22.75","1647.20","4.77","ND","0.9","36.2","24.9","65.2","487.6","0"],
    [2343,"2010-08-12T10:00:00","38.2","16.66","28.02","1820.90","7.42","ND","1.2","91.7","25.9","60.6","483.5","0"],
    [2344,"2010-08-12T11:00:00","27","50.04","30.04","1459.32","18.92","ND","0.9","133.9","26.7","57.2","495.1","0"],
    [2345,"2010-08-12T12:00:00","32.5","42.37","22.73","1255.84","32.47","ND","0.6","88.1","27.4","56.4","372.6","0"],
    [2346,"2010-08-12T13:00:00","27.2","ND","20.39","ND","45.08","ND","1.7","114.1","27.1","58.9","203.5","0"],
    [2347,"2010-08-12T14:00:00","48.6","ND","27.10","ND","ND","ND","1.4","217.5","27.2","57","362.7","0"],
    [2348,"2010-08-12T15:00:00","24.9","22.17","22.81","773.22","65.39","ND","2.2","283.7","25.9","62.5","118.8","6.86"],
    [2349,"2010-08-12T16:00:00","33.3","17.21","19.46","896.27","43.72","ND","0.9","11.6","20.8","96.2","40.9","39.62"],
    [2350,"2010-08-12T17:00:00","29.4","12.22","12.35","971.34","25.40","ND","0.1","139.6","22.1","86","123.6","0.25"],
    [2351,"2010-08-12T18:00:00","43.2","12.25","29.62","1406.73","12.75","ND","0.5","160.4","23.6","80.1","48.4","0"],
    [2352,"2010-08-12T19:00:00","24.2","11.34","28.72","1516.50","14.55","ND","0.5","17.7","23","79.9","1.5","0"],
    [2353,"2010-08-12T20:00:00","47.1","16.16","43.14","2583.08","10.31","ND","0.5","169.1","22.8","83.9","0","0"],
    [2354,"2010-08-12T21:00:00","26.9","18.02","33.80","2194.70","7.97","ND","0.2","86.7","22.7","84.4","0","0"],
    [2355,"2010-08-12T22:00:00","47","20.18","29.36","2239.43","6.02","ND","0.2","114.9","22.5","79.7","0","0"],
    [2356,"2010-08-12T23:00:00","43.5","18.53","27.77","2624.15","7.49","ND","0.5","86.7","21.5","84.8","0","0"],
    [2357,"2010-08-13T00:00:00","26.2","18.80","23.15","2309.59","6.36","ND","0.4","109.2","21.1","85.7","0","0"],
    [2358,"2010-08-13T01:00:00","14.7","18.36","19.16","1842.90","5.11","ND","0.2","76.3","20.9","86","0","0"],
    [2359,"2010-08-13T02:00:00","8.7","14.06","16.61","1276.73","6.56","ND","0.1","71.6","20.8","86.9","0","0"],
    [2360,"2010-08-13T03:00:00","6.6","12.79","16.60","1095.58","4.95","ND","0","316","20.9","87.8","0","0"],
    [2361,"2010-08-13T04:00:00","8.2","12.90","17.20","1095.95","5.11","ND","0.5","173.4","21.2","86.7","0","0"],
    [2362,"2010-08-13T05:00:00","ND","13.12","15.88","1187.55","4.98","ND","0.3","207.6","21.2","87.8","0","0"],
    [2363,"2010-08-13T06:00:00","ND","12.11","14.60","1085.76","5.95","ND","0.2","47.5","20.7","90.8","0.3","0"],
    [2364,"2010-08-13T07:00:00","ND","11.16","11.77","1038.75","6.29","ND","0.8","32.1","20.3","93","15.8","0"],
    [2365,"2010-08-13T08:00:00","ND","11.04","12.70","1183.92","7.36","ND","0.2","40.4","20.5","92.1","83.2","0"],
    [2366,"2010-08-13T09:00:00","ND","13.65","15.01","1399.10","5.37","ND","0.1","222.2","21.7","84.9","178.6","0"],
    [2367,"2010-08-13T10:00:00","ND","13.19","15.20","1302.86","6.04","ND","0.2","95.1","23.5","76.4","434.8","0"],
    [2368,"2010-08-13T11:00:00","ND","15.51","24.02","1504.59","7.89","ND","0.9","103.7","24.9","70","535.3","0"],
    [2369,"2010-08-13T12:00:00","ND","16.95","41.20","1752.19","18.97","ND","0.6","103","26","64.8","614.5","0"],
    [2370,"2010-08-13T13:00:00","ND","25.19","38.83","1436.81","32.49","ND","0.8","150.3","27.4","59.9","600.5","0"],
    [2371,"2010-08-13T14:00:00","ND","34.63","31.74","1316.51","56.48","ND","1.5","69.9","27.6","59.7","409.8","0"],
    [2372,"2010-08-13T15:00:00","ND","25.11","30.36","1432.95","101.39","ND","1.5","43.9","27.9","58.5","639.8","0"],
    [2373,"2010-08-13T16:00:00","ND","23.07","28.75","1388.11","124.89","ND","0.9","43.5","27.8","57.6","291.7","0"],
    [2374,"2010-08-13T17:00:00","ND","23.33","23.44","1295.14","108.09","ND","2.2","254.4","27.8","56.6","247.3","0"],
    [2375,"2010-08-13T18:00:00","ND","32.43","20.34","1144.81","66.87","ND","2","256.9","27.1","57.9","69.8","0"],
    [2376,"2010-08-13T19:00:00","ND","19.13","20.01","ND","40.16","ND","0.4","254.3","25.9","61.6","2.5","0"],
    [2377,"2010-08-13T20:00:00","ND","14.80","24.82","ND","23.82","ND","0.5","33","25.2","65.6","0","0"],
    [2378,"2010-08-13T21:00:00","ND","14.19","31.85","ND","14.06","ND","0.4","328.1","24","69.3","0","0"],
    [2379,"2010-08-13T22:00:00","ND","17.39","40.47","ND","6.55","ND","0.1","178.2","23.6","71.5","0","0"],
    [2380,"2010-08-13T23:00:00","ND","15.73","33.26","ND","7.70","ND","0.3","296.9","22.7","76","0","0"],
    [2381,"2010-08-14T00:00:00","ND","16.87","31.53","ND","6.72","ND","0.2","69.8","22.7","78.5","0","0"],
    [2382,"2010-08-14T01:00:00","ND","13.34","31.29","ND","6.17","ND","0.6","172.9","22.4","80.4","0","0"],
    [2383,"2010-08-14T02:00:00","ND","15.40","29.27","ND","6.22","ND","0.2","126.8","22.2","82.4","0","0"],
    [2384,"2010-08-14T03:00:00","ND","15.57","24.81","ND","6.40","ND","0.5","154.1","21.9","83.7","0","0"],
    [2385,"2010-08-14T04:00:00","ND","13.85","24.19","ND","6.64","ND","0.1","236.7","21.5","87","0","0"],
    [2386,"2010-08-14T05:00:00","ND","12.27","23.55","ND","7.80","ND","0.8","16.5","21.2","88.1","0","0"],
    [2387,"2010-08-14T06:00:00","ND","11.69","21.48","ND","5.91","ND","0.5","353","20.9","88.8","0","0"],
    [2388,"2010-08-14T07:00:00","ND","16.28","21.70","ND","5.61","ND","0.2","32.3","20.9","88.3","19.7","0"],
    [2389,"2010-08-14T08:00:00","ND","17.88","19.99","ND","5.42","ND","0.3","6.5","21.3","86.6","70.2","0"],
    [2390,"2010-08-14T09:00:00","ND","17.98","20.42","ND","6.10","ND","0.2","30.1","21.7","85","106.3","0"],
    [2391,"2010-08-14T10:00:00","ND","18.19","24.21","ND","6.29","ND","0.2","110.4","22.8","79.2","209.9","0"],
    [2392,"2010-08-14T11:00:00","ND","25.90","32.64","ND","7.67","ND","0.7","173.2","24.7","68.5","612.4","0"],
    [2393,"2010-08-14T12:00:00","ND","43.95","51.25","ND","8.59","ND","0.6","106.8","25.7","63.6","432.5","0"],
    [2394,"2010-08-14T13:00:00","ND","44.25","46.33","ND","29.29","ND","0.9","102.4","26.2","62.3","362.4","0"],
    [2395,"2010-08-14T14:00:00","ND","39.70","33.36","ND","58.32","ND","1.1","113.4","26.7","61.1","308.5","0"],
    [2396,"2010-08-14T15:00:00","ND","30.41","31.03","ND","69.98","ND","0.9","105.3","26.9","60.9","269.7","0"],
    [2397,"2010-08-14T16:00:00","ND","27.82","33.06","ND","82.23","ND","0.6","128.7","27.3","58.7","265.5","0"],
    [2398,"2010-08-14T17:00:00","ND","23.63","26.69","ND","79.71","ND","0.6","78.9","27.3","58.8","156.2","0"],
    [2399,"2010-08-14T18:00:00","ND","22.89","27.82","ND","102.36","ND","0.6","65.4","26.9","62.2","75.8","0"],
    [2400,"2010-08-14T19:00:00","ND","25.63","33.80","ND","122.23","ND","0.4","310.8","25.8","69.2","4.3","0"],
    [2401,"2010-08-14T20:00:00","ND","20.23","29.76","ND","70.64","ND","0.3","259.5","24.7","73.1","0","0"],
    [2402,"2010-08-14T21:00:00","ND","18.27","54.66","ND","39.72","ND","0.2","282.5","24","75.1","0","0"],
    [2403,"2010-08-14T22:00:00","ND","16.48","79.21","ND","12.15","ND","0.1","319.6","23.4","78.3","0","0"],
    [2404,"2010-08-14T23:00:00","ND","14.65","75.55","ND","15.28","ND","0.3","214.6","23.2","78.4","0","0"],
    [2405,"2010-08-15T00:00:00","ND","14.09","72.73","ND","10.57","ND","0.1","335.7","22.7","81.9","0","0"],
    [2406,"2010-08-15T01:00:00","ND","13.88","65.11","ND","7.38","ND","0.2","266.9","22.1","84.3","0","0"],
    [2407,"2010-08-15T02:00:00","ND","16.97","60.15","ND","7.73","ND","0.2","315.5","22.3","83.2","0","0"],
    [2408,"2010-08-15T03:00:00","ND","14.31","56.44","ND","6.71","ND","0.3","1.1","22","83.7","0","0"],
    [2409,"2010-08-15T04:00:00","ND","12.89","57.74","ND","7.07","ND","0.6","11.1","21.1","89.9","0","0"],
    [2410,"2010-08-15T05:00:00","ND","12.90","50.11","ND","6.51","ND","0.1","103.7","20.7","90.9","0","0"],
    [2411,"2010-08-15T06:00:00","ND","14.64","38.37","ND","7.08","ND","0.3","335.5","20.6","91.1","0.2","0"],
    [2412,"2010-08-15T07:00:00","ND","13.48","32.03","ND","5.63","ND","0.3","50.3","20.5","90.2","38.4","0"],
    [2413,"2010-08-15T08:00:00","ND","12.85","30.76","ND","5.97","ND","0.9","23","20.8","90.3","152","0"],
    [2414,"2010-08-15T09:00:00","ND","14.36","31.07","ND","5.80","ND","0.5","52.6","23.4","77.6","424.3","0"],
    [2415,"2010-08-15T10:00:00","ND","14.52","28.70","ND","8.47","ND","0.8","54.2","25.6","69.5","615.5","0"],
    [2416,"2010-08-15T11:00:00","ND","64.43","42.75","ND","15.32","ND","1","124.4","27.4","61.5","708.7","0"],
    [2417,"2010-08-15T12:00:00","ND","117.30","39.43","ND","44.01","ND","0.4","95.1","28.8","54.3","801.7","0"],
    [2418,"2010-08-15T13:00:00","ND","46.33","22.81","ND","75.06","ND","0.6","100.1","29.6","51.8","335.3","0"],
    [2419,"2010-08-15T14:00:00","ND","38.69","17.00","ND","113.54","ND","2.9","277.3","29.2","51.3","424.9","0"],
    [2420,"2010-08-15T15:00:00","ND","33.13","16.27","ND","113.37","ND","4.8","275.9","29.1","50.1","726","0"],
    [2421,"2010-08-15T16:00:00","ND","21.52","10.67","ND","59.38","ND","4.9","277.7","28.6","49.1","589.2","0"],
    [2422,"2010-08-15T17:00:00","ND","16.12","7.53","ND","52.33","ND","3.4","282.4","27.7","48.8","104","0"],
    [2423,"2010-08-15T18:00:00","ND","12.59","5.99","ND","47.70","ND","0.5","203.1","27.2","48.7","22.6","0"],
    [2424,"2010-08-15T19:00:00","ND","11.80","7.02","ND","46.24","ND","1.3","268.7","25.4","56.4","0.1","0"],
    [2425,"2010-08-15T20:00:00","ND","10.65","10.71","ND","29.93","ND","0.4","90","24","66.2","0","0"],
    [2426,"2010-08-15T21:00:00","ND","11.23","14.92","ND","23.33","ND","0.5","95.5","23.5","66.8","0","0"],
    [2427,"2010-08-15T22:00:00","ND","13.84","22.66","ND","11.42","ND","0.7","93.4","22.5","69.7","0","0"],
    [2428,"2010-08-15T23:00:00","ND","17.02","27.57","ND","6.87","ND","0.3","43.1","21.3","76","0","0"],
    [2429,"2010-08-16T00:00:00","ND","16.98","19.74","ND","13.43","ND","0.3","13.4","20.9","79.5","0","0"],
    [2430,"2010-08-16T01:00:00","ND","12.53","16.12","ND","13.82","ND","0.2","352.5","20.2","83.1","0","0"],
    [2431,"2010-08-16T02:00:00","ND","11.83","22.22","ND","5.85","ND","0.2","268.9","20.5","81.7","0","0"],
    [2432,"2010-08-16T03:00:00","ND","11.15","18.36","ND","6.61","ND","0.1","298.1","20","84.4","0","0"],
    [2433,"2010-08-16T04:00:00","ND","10.77","19.89","ND","5.58","ND","0.1","266","19.5","86.9","0","0"],
    [2434,"2010-08-16T05:00:00","ND","9.57","15.14","ND","5.24","ND","0.2","261.5","19.3","87.5","0","0"],
    [2435,"2010-08-16T06:00:00","ND","9.72","14.43","ND","4.93","ND","0.3","357.4","19.1","88.1","0.2","0"],
    [2436,"2010-08-16T07:00:00","ND","9.45","13.72","ND","4.89","ND","0.8","18","18.7","91.3","44.5","0"],
    [2437,"2010-08-16T08:00:00","ND","9.95","15.28","ND","4.84","ND","0.1","264.9","19.8","86.6","160.4","0"],
    [2438,"2010-08-16T09:00:00","ND","11.69","15.86","ND","4.94","ND","0.3","71.5","22.4","74.2","478.2","0"],
    [2439,"2010-08-16T10:00:00","ND","13.32","18.00","ND","6.77","ND","0.8","52.7","23.7","69.4","445.5","0"],
    [2440,"2010-08-16T11:00:00","ND","19.10","24.58","ND","19.56","ND","0.9","65.3","25.3","63","773.5","0"],
    [2441,"2010-08-16T12:00:00","ND","38.45","25.41","ND","38.32","ND","1.3","51.7","26.6","59.6","815.8","0"],
    [2442,"2010-08-16T13:00:00","ND","27.92","16.97","ND","61.54","ND","1.1","52","27.8","55.9","803.5","0"],
    [2443,"2010-08-16T14:00:00","ND","48.24","19.20","ND","80.74","ND","1.7","59.3","28.5","53","750.3","0"],
    [2444,"2010-08-16T15:00:00","ND","66.73","18.18","ND","89.05","ND","1.9","63.3","29.4","51.2","694.5","0"],
    [2445,"2010-08-16T16:00:00","ND","33.21","9.40","ND","95.07","ND","1.4","47.7","29.7","49.7","380.8","0"],
    [2446,"2010-08-16T17:00:00","ND","34.89","10.16","ND","88.06","ND","1.1","288.4","29.8","49","293.8","0"],
    [2447,"2010-08-16T18:00:00","ND","24.84","8.42","ND","79.74","ND","2.3","253.3","28.5","52.3","78.7","0"],
    [2448,"2010-08-16T19:00:00","ND","21.98","8.99","ND","55.35","ND","1","256.9","27.7","53.6","1.1","0"],
    [2449,"2010-08-16T20:00:00","ND","15.81","11.99","ND","38.53","ND","0.3","183.7","27.4","54.5","0","0"],
    [2450,"2010-08-16T21:00:00","ND","15.08","19.67","ND","27.44","ND","0.5","101.8","27","57","0","0"],
    [2451,"2010-08-16T22:00:00","ND","13.87","20.63","ND","21.69","ND","1.1","145.2","26.3","61.4","0","0"],
    [2452,"2010-08-16T23:00:00","ND","17.13","34.20","ND","10.07","ND","1.1","73.4","25.2","67.2","0","0"],
    [2453,"2010-08-17T00:00:00","ND","17.91","28.29","ND","8.25","ND","0.5","148.8","25","67.7","0","0"],
    [2454,"2010-08-17T01:00:00","ND","20.54","29.19","ND","6.57","ND","0.4","203.8","24.2","71.9","0","0"],
    [2455,"2010-08-17T02:00:00","ND","16.80","25.55","ND","6.46","ND","0.4","85.1","23.1","77","0","0"],
    [2456,"2010-08-17T03:00:00","ND","14.42","23.97","ND","6.40","ND","0.3","202.4","22.7","78.2","0","0"],
    [2457,"2010-08-17T04:00:00","ND","13.18","18.45","ND","7.91","ND","0.3","325.8","22.5","79.1","0","0"],
    [2458,"2010-08-17T05:00:00","ND","11.90","15.95","ND","7.74","ND","0.2","341.4","22.1","81.2","0","0"],
    [2459,"2010-08-17T06:00:00","ND","11.44","13.76","ND","8.36","ND","0.7","0.2","21.8","82.7","0.2","0"],
    [2460,"2010-08-17T07:00:00","ND","11.25","15.87","ND","6.41","ND","0","39.9","21.9","83","23.3","0"],
    [2461,"2010-08-17T08:00:00","ND","13.33","18.06","ND","5.83","ND","0.2","354.6","22.1","82.9","80.3","0"],
    [2462,"2010-08-17T09:00:00","ND","17.90","21.11","ND","7.00","ND","0.9","47.8","23.1","77.6","206.9","0"],
    [2463,"2010-08-17T10:00:00","ND","23.59","28.75","ND","6.65","ND","0.9","49.6","24.1","72.6","345.8","0"],
    [2464,"2010-08-17T11:00:00","ND","32.13","39.30","ND","10.33","ND","0.4","347.7","25.8","64.7","660.7","0"],
    [2465,"2010-08-17T12:00:00","ND","39.93","39.56","ND","23.10","ND","0.5","173.9","27.9","56.1","665.3","0"],
    [2466,"2010-08-17T13:00:00","ND","45.40","36.00","ND","51.28","ND","0.5","74.5","28.4","54.7","361.5","0"],
    [2467,"2010-08-17T14:00:00","ND","26.69","25.87","ND","80.56","ND","0.6","306.7","29.2","51.4","609.2","0"],
    [2468,"2010-08-17T15:00:00","ND","24.82","23.05","ND","102.96","ND","2.3","263.8","30.3","46","634.4","0"],
    [2469,"2010-08-17T16:00:00","ND","30.30","18.42","ND","85.74","ND","3.4","268.3","30.1","45.3","580.6","0"],
    [2470,"2010-08-17T17:00:00","ND","16.68","10.65","ND","47.80","ND","3.3","278.6","29.4","46.3","369","0"],
    [2471,"2010-08-17T18:00:00","ND","11.99","11.09","ND","41.64","ND","2.2","258.4","28.5","49.1","125.1","0"],
    [2472,"2010-08-17T19:00:00","ND","10.82","11.53","ND","38.36","ND","0.9","243.8","26.9","53.9","2.3","0"],
    [2473,"2010-08-17T20:00:00","ND","10.50","17.70","ND","32.27","ND","0.3","38.4","26.6","54","0","0"],
    [2474,"2010-08-17T21:00:00","ND","12.46","26.74","ND","19.55","ND","0.4","119","26.6","53.1","0","0"],
    [2475,"2010-08-17T22:00:00","ND","12.12","22.08","ND","25.04","ND","1.8","110.4","26.1","56.5","0","0"],
    [2476,"2010-08-17T23:00:00","ND","12.26","20.96","ND","23.08","ND","0.3","77.8","24.5","63.7","0","0"],
    [2477,"2010-08-18T00:00:00","ND","18.62","36.51","ND","7.41","ND","0.3","308.4","23.6","67.4","0","0"],
    [2478,"2010-08-18T01:00:00","ND","17.47","30.12","ND","8.75","ND","0.5","352.7","22.5","73.2","0","0"],
    [2479,"2010-08-18T02:00:00","ND","15.59","30.29","ND","5.76","ND","0.4","15.9","22.1","75.4","0","0"],
    [2480,"2010-08-18T03:00:00","ND","16.11","24.40","ND","6.30","ND","0.1","299.9","21.8","76.4","0","0"],
    [2481,"2010-08-18T04:00:00","ND","16.69","21.74","ND","6.78","ND","0.2","269.1","21.9","74.2","0","0"],
    [2482,"2010-08-18T05:00:00","ND","14.24","20.13","ND","6.29","ND","0.1","238.7","21.9","74.9","0","0"],
    [2483,"2010-08-18T06:00:00","ND","15.77","20.00","ND","5.98","ND","0.3","15.1","21.4","76.2","0","0"],
    [2484,"2010-08-18T07:00:00","ND","16.67","19.91","ND","5.66","ND","0.3","296.6","21","78.9","33","0"],
    [2485,"2010-08-18T08:00:00","ND","27.12","24.19","ND","4.78","ND","0.5","174.3","22.4","73.8","204.5","0"],
    [2486,"2010-08-18T09:00:00","ND","24.65","24.85","ND","5.76","ND","0.9","117","24.7","63.4","419.5","0"],
    [2487,"2010-08-18T10:00:00","ND","26.28","25.78","ND","8.27","ND","ND","ND","ND","ND","ND","ND"],
    [2488,"2010-08-18T11:00:00","ND","ND","ND","ND","ND","ND","ND","ND","ND","ND","ND","ND"],
    [2489,"2010-08-18T12:00:00","ND","ND","ND","ND","ND","ND","ND","ND","ND","ND","ND","ND"],
    [2490,"2010-08-18T13:00:00","ND","ND","ND","ND","ND","ND","ND","ND","ND","ND","ND","ND"],
    [2491,"2010-08-18T14:00:00","ND","ND","ND","ND","ND","ND","ND","ND","ND","ND","ND","ND"],
    [2492,"2010-08-18T15:00:00","ND","ND","ND","ND","ND","ND","2.2","31.9","27.3","56.3","471.6","0"],
    [2493,"2010-08-18T16:00:00","3.4","ND","ND","ND","ND","ND","2.5","31.4","28.1","56.2","333.2","0"],
    [2494,"2010-08-18T17:00:00","23.4","43.90","13.70","ND","35.97","ND","2.3","36.7","27.9","57","218.1","0"],
    [2495,"2010-08-18T18:00:00","13.6","49.63","19.85","ND","49.14","ND","1.1","330.9","28.1","52.6","155.8","0"],
    [2496,"2010-08-18T19:00:00","18.9","39.34","22.46","ND","45.09","ND","0.4","279.7","27.3","55.2","4.9","0"],
    [2497,"2010-08-18T20:00:00","15.3","12.62","11.48","ND","43.43","ND","0.2","271.4","26.7","54.7","0","0"],
    [2498,"2010-08-18T21:00:00","45.1","19.00","34.97","ND","16.14","ND","0.4","115.8","26.1","58.7","0","0"],
    [2499,"2010-08-18T22:00:00","23.9","15.57","35.84","ND","13.91","ND","0.9","98.9","25.2","66.2","0","0"],
    [2500,"2010-08-18T23:00:00","27.8","25.22","36.09","ND","10.78","ND","0.2","297.8","24.6","69.5","0","0"],
    [2501,"2010-08-19T00:00:00","31.7","27.06","34.46","ND","9.35","ND","0.3","34.2","23.8","74.8","0","0"],
    [2502,"2010-08-19T01:00:00","66.2","26.28","27.67","ND","8.37","ND","0.2","250.8","23","78.5","0","0"],
    [2503,"2010-08-19T02:00:00","44.9","32.06","ND","ND","9.04","ND","0.5","155.8","23.1","77.7","0","0"],
    [2504,"2010-08-19T03:00:00","29.5","32.93","ND","ND","8.01","ND","0.5","162.4","22.7","78.3","0","0"],
    [2505,"2010-08-19T04:00:00","17.8","21.61","ND","ND","8.37","ND","0.6","160.7","22.6","77.8","0","0"],
    [2506,"2010-08-19T05:00:00","21.1","27.29","23.91","ND","7.63","ND","0.4","4.3","21.5","83.3","0","0"],
    [2507,"2010-08-19T06:00:00","26.9","21.44","ND","ND","11.15","ND","0.2","333.5","20.8","85.7","0.3","0"],
    [2508,"2010-08-19T07:00:00","45.8","20.67","0.24","ND","8.63","ND","0.1","255.1","21.2","83.7","49.9","0"],
    [2509,"2010-08-19T08:00:00","48.8","34.97","ND","ND","6.24","ND","1.1","107.7","22.6","78","245.7","0"],
    [2510,"2010-08-19T09:00:00","64.8","36.10","ND","ND","7.36","ND","1","68.9","23.8","73.9","404.5","0"],
    [2511,"2010-08-19T10:00:00","34.9","40.08","ND","ND","12.92","ND","0.5","254.1","25.3","67.3","566.3","0"],
    [2512,"2010-08-19T11:00:00","43.8","32.60","ND","ND","32.10","ND","0.9","198.3","26.8","57.4","640.8","0"],
    [2513,"2010-08-19T12:00:00","30.3","34.19","ND","ND","58.30","ND","0.4","53.9","28.3","53.5","510.2","0"],
    [2514,"2010-08-19T13:00:00","25.5","20.40","ND","ND","57.56","ND","1.7","300","28.2","51.8","261.6","0"],
    [2515,"2010-08-19T14:00:00","14","26.17","ND","ND","89.43","ND","3.2","263.4","29.2","46.8","785.8","0"],
    [2516,"2010-08-19T15:00:00","8.7","31.43","ND","ND","59.66","ND","3.5","277.5","29.3","45.6","429.3","0"],
    [2517,"2010-08-19T16:00:00","6.7","11.06","ND","ND","49.19","ND","1.3","172.8","27","58.6","148.7","1.52"],
    [2518,"2010-08-19T17:00:00","3.4","9.34","ND","ND","50.44","ND","1.3","141.5","23.3","77.5","69.3","0"],
    [2519,"2010-08-19T18:00:00","22.2","12.56","ND","ND","ND","ND","1.3","157","23.2","77.5","11","0"],
    [2520,"2010-08-19T19:00:00","15.3","ND","ND","ND","ND","ND","1.3","158.6","23","74.3","0","0"],
    [2521,"2010-08-19T20:00:00","12.8","15.02","ND","2241.70","ND","ND","0.6","166.3","22.9","75.2","0","0"],
    [2522,"2010-08-19T21:00:00","39.5","14.67","48.34","2354.70","ND","ND","0.4","332.6","22.7","78.6","0","0"],
    [2523,"2010-08-19T22:00:00","37.8","15.11","ND","2591.83","ND","ND","1.1","34.2","21.9","83.1","0","0"],
    [2524,"2010-08-19T23:00:00","45.2","15.84","ND","2573.48","ND","ND","1.1","7.9","20.8","87.9","0","0"],
    [2525,"2010-08-20T00:00:00","23.7","20.49","ND","1784.55","ND","ND","0.5","70.9","21.1","85.6","0","0"],
    [2526,"2010-08-20T01:00:00","32.7","33.75","ND","1028.86","ND","ND","0.1","266.7","21.1","85.9","0","0"],
    [2527,"2010-08-20T02:00:00","17","65.76","ND","1062.78","ND","ND","0.1","268.9","21.3","85.2","0","0"],
    [2528,"2010-08-20T03:00:00","27.8","52.87","5.39","1040.87","ND","ND","0.1","12","21.6","83.8","0","0"],
    [2529,"2010-08-20T04:00:00","25.3","82.81","28.39","1200.49","ND","ND","0.4","44.1","21.2","85.5","0","0"],
    [2530,"2010-08-20T05:00:00","56.8","100.19","ND","1187.55","ND","ND","0.2","264.8","21.3","85","0","0"],
    [2531,"2010-08-20T06:00:00","58.5","125.06","ND","1165.32","ND","ND","0","70.7","21.5","84.2","0","0"],
    [2532,"2010-08-20T07:00:00","67.3","114.71","ND","1279.33","ND","ND","0.4","19","21.2","86.9","49.1","0"],
    [2533,"2010-08-20T08:00:00","59","165.43","ND","1357.20","ND","ND","1","43.8","21.5","87.4","76","0"],
    [2534,"2010-08-20T09:00:00","77.2","86.90","ND","1618.98","ND","ND","0.6","313.5","22.2","83.1","205.3","0"],
    [2535,"2010-08-20T10:00:00","ND","88.95","ND","1452.60","ND","ND","0.3","50.5","24.6","70.7","602.5","0"],
    [2536,"2010-08-20T11:00:00","ND","117.41","ND","1498.73","ND","ND","1","98.8","26.3","63.8","651.4","0"],
    [2537,"2010-08-20T12:00:00","ND","67.63","37.51","1461.27","ND","ND","1","77.7","27.5","58.3","709.7","0"],
    [2538,"2010-08-20T13:00:00","ND","37.02","32.46","1166.77","ND","ND","1.4","68.9","28.3","53.9","707.3","0"],
    [2539,"2010-08-20T14:00:00","12.2","24.90","20.28","1054.05","99.28","ND","0.5","119.3","29.4","49.2","523.3","0"],
    [2540,"2010-08-20T15:00:00","22.8","19.68","16.47","1081.15","113.47","ND","0.9","11.3","30.3","47.4","678.4","0"],
    [2541,"2010-08-20T16:00:00","30.5","16.91","16.66","1037.72","117.42","ND","1.2","338.6","30.3","48.2","437.5","0"],
    [2542,"2010-08-20T17:00:00","28.6","19.41","17.18","979.43","138.25","ND","2.1","282.7","30.1","47.7","362.8","0"],
    [2543,"2010-08-20T18:00:00","38.5","19.91","19.10","978.78","106.52","ND","2.3","249.5","28.6","50.6","73.7","0"],
    [2544,"2010-08-20T19:00:00","37.3","18.22","20.05","1066.69","85.00","ND","1.8","261.4","27.5","52.1","0.7","0"],
    [2545,"2010-08-20T20:00:00","ND","12.26","27.54","1224.53","57.37","ND","ND","ND","ND","ND","ND","ND"],
    [2546,"2010-08-20T21:00:00","9.3","ND","ND","ND","ND","ND","0.7","132.8","26.8","57.2","0","0"],
    [2547,"2010-08-20T22:00:00","15.8","ND","ND","ND","ND","ND","0.5","120","25.3","65.3","0","0"],
    [2548,"2010-08-20T23:00:00","52.1","14.69","36.44","1318.77","16.32","ND","0.2","333.7","24.2","69.8","0","0"],
    [2549,"2010-08-21T00:00:00","51.9","16.62","37.98","1679.52","7.65","ND","0.7","348","23.2","75","0","0"],
    [2550,"2010-08-21T01:00:00","53.7","15.37","37.72","1685.26","5.34","ND","0.3","237","22.9","76.2","0","0"],
    [2551,"2010-08-21T02:00:00","55.6","18.99","33.36","1490.17","5.81","ND","0.2","123.5","23.2","73.2","0","0"],
    [2552,"2010-08-21T03:00:00","42","20.47","27.58","1434.75","5.44","ND","0.2","347.9","22.2","79.8","0","0"],
    [2553,"2010-08-21T04:00:00","53.9","15.73","24.27","1282.37","8.79","ND","0.2","86.8","22","79.8","0","0"],
    [2554,"2010-08-21T05:00:00","40.1","16.76","24.00","1190.78","5.58","ND","0.5","158.4","21.9","79","0","0"],
    [2555,"2010-08-21T06:00:00","36.8","15.97","23.19","1281.07","5.13","ND","0.2","339.1","21.1","82.3","0","0"],
    [2556,"2010-08-21T07:00:00","56.7","14.69","18.14","1209.76","4.96","ND","0.2","65.9","20.9","83.1","40.8","0"],
    [2557,"2010-08-21T08:00:00","43","12.43","17.67","1186.34","6.14","ND","0.5","56.7","22.2","78.2","207.2","0"],
    [2558,"2010-08-21T09:00:00","83.7","14.48","21.94","1566.08","5.21","ND","0.6","96.6","24.2","68.6","419.1","0"],
    [2559,"2010-08-21T10:00:00","80.2","26.79","32.03","1656.67","7.57","ND","1","98.8","26","61.9","611.1","0"],
    [2560,"2010-08-21T11:00:00","87.9","80.84","39.25","1356.35","15.95","ND","1.3","127","27.4","55.7","775.5","0"],
    [2561,"2010-08-21T12:00:00","64.7","42.63","39.93","1478.19","48.98","ND","1.1","98.3","28.7","51.6","832.9","0"],
    [2562,"2010-08-21T13:00:00","54.8","22.95","25.00","1171.43","76.97","ND","1.2","61.8","29.8","48.2","855.3","0"],
    [2563,"2010-08-21T14:00:00","30.1","20.13","20.08","1105.86","106.18","ND","2","103.3","31.3","44.4","838.3","0"],
    [2564,"2010-08-21T15:00:00","51.4","18.11","17.27","1029.45","120.67","ND","0.2","7.2","31.5","44.4","387.9","0"],
    [2565,"2010-08-21T16:00:00","41.5","14.78","16.32","1018.42","105.25","ND","1.8","248.7","30.8","47.7","191.3","0"],
    [2566,"2010-08-21T17:00:00","54.3","19.29","15.98","981.04","118.99","ND","2.1","244.1","29.2","51.7","83.8","0"],
    [2567,"2010-08-21T18:00:00","29.5","14.59","18.76","1010.73","66.49","ND","2.5","251","27.9","54.5","19.2","0"],
    [2568,"2010-08-21T19:00:00","46.7","12.41","23.03","1017.95","58.14","ND","0.9","249.6","27.6","55.5","0.4","0"],
    [2569,"2010-08-21T20:00:00","26.8","11.81","20.04","982.26","48.34","ND","0.6","118","27.3","58","0","0"],
    [2570,"2010-08-21T21:00:00","43","12.73","28.89","1200.63","36.90","ND","0.4","47.5","26.5","61.6","0","0"],
    [2571,"2010-08-21T22:00:00","46.9","13.06","42.06","1496.79","18.03","ND","0.4","144","25.8","65.7","0","0"],
    [2572,"2010-08-21T23:00:00","76.4","16.13","59.05","2113.58","7.63","ND","0.3","129.9","24.6","71.2","0","0"],
    [2573,"2010-08-22T00:00:00","96.2","18.03","44.73","2162.29","6.31","ND","0.2","56.2","23.6","75","0","0"],
    [2574,"2010-08-22T01:00:00","61.8","19.82","36.78","2075.21","8.83","ND","0.1","349.5","22.8","78.8","0","0"],
    [2575,"2010-08-22T02:00:00","41.3","16.02","32.59","1626.12","6.68","ND","0.2","343.7","22.1","81.7","0","0"],
    [2576,"2010-08-22T03:00:00","37.6","12.61","29.13","1656.31","5.73","ND","0.3","339.4","21.9","81.4","0","0"],
    [2577,"2010-08-22T04:00:00","32.9","10.53","26.71","1598.50","5.11","ND","0.2","268.4","21.8","81.9","0","0"],
    [2578,"2010-08-22T05:00:00","48.6","12.70","27.67","1314.63","5.24","ND","0.1","318.2","21.2","83.2","0","0"],
    [2579,"2010-08-22T06:00:00","42.4","10.30","24.95","1458.99","4.88","ND","0.2","325.6","21","81.2","0","0"],
    [2580,"2010-08-22T07:00:00","31.1","9.56","22.91","1435.39","5.13","ND","0","126.8","20.9","80.5","36.3","0"],
    [2581,"2010-08-22T08:00:00","26.6","10.88","25.04","1265.43","4.86","ND","0.2","106.2","22.9","74.6","226.9","0"],
    [2582,"2010-08-22T09:00:00","49.5","12.83","25.12","1365.04","5.16","ND","1","50.7","24.9","66.6","468.8","0"],
    [2583,"2010-08-22T10:00:00","42.3","22.58","35.28","1431.53","9.30","ND","0.8","59.3","26.4","59.6","728.8","0"],
    [2584,"2010-08-22T11:00:00","34.9","102.20","40.74","1243.07","19.87","ND","1","121.8","28.5","49.1","804.9","0"],
    [2585,"2010-08-22T12:00:00","19.3","83.72","24.16","962.02","44.00","ND","1.1","153.2","29.6","43.2","880.4","0"],
    [2586,"2010-08-22T13:00:00","37.2","46.96","21.99","1058.60","77.61","ND","1.5","149.3","31","38.8","634.2","0"],
    [2587,"2010-08-22T14:00:00","20","18.15","14.22","1028.43","97.33","ND","1.7","90","30.6","39.3","380","0"],
    [2588,"2010-08-22T15:00:00","12.1","11.88","12.41","1027.08","77.67","ND","1.4","80.7","30.4","40","317.4","0"],
    [2589,"2010-08-22T16:00:00","8.6","10.30","10.97","979.75","77.78","ND","1.5","40.1","29.5","42.4","126","0"],
    [2590,"2010-08-22T17:00:00","8.7","10.48","11.32","988.47","77.87","ND","1.1","271.3","28.8","50.5","51.5","0"],
    [2591,"2010-08-22T18:00:00","6.1","12.31","9.14","939.77","83.69","ND","2.1","247.1","28.1","52.4","13.7","0"],
    [2592,"2010-08-22T19:00:00","17.7","14.67","16.04","949.17","52.58","ND","1.4","259","27.6","53.9","0","0"],
    [2593,"2010-08-22T20:00:00","10.4","11.87","16.74","1005.37","39.51","ND","0.3","146.3","27.3","56.3","0","0"],
    [2594,"2010-08-22T21:00:00","20.8","11.01","19.38","1096.73","34.17","ND","0.3","74.7","26.1","60.6","0","0"],
    [2595,"2010-08-22T22:00:00","15.7","14.15","31.65","1368.30","15.32","ND","0.7","148.2","25.3","65.1","0","0"],
    [2596,"2010-08-22T23:00:00","34","14.50","37.91","1582.53","11.39","ND","0.3","195.8","24.1","72.4","0","0"],
    [2597,"2010-08-23T00:00:00","33.2","16.95","38.14","1724.64","5.58","ND","0.2","270.8","23.1","75.3","0","0"],
    [2598,"2010-08-23T01:00:00","39","13.30","30.90","1513.94","6.94","ND","0.2","10.2","22.7","77.7","0","0"],
    [2599,"2010-08-23T02:00:00","33.1","10.82","30.86","1432.32","5.16","ND","0.1","321.3","22.1","80.3","0","0"],
    [2600,"2010-08-23T03:00:00","40.2","10.33","26.41","1361.35","6.57","ND","0.3","344.1","21.5","82.9","0","0"],
    [2601,"2010-08-23T04:00:00","38.2","9.24","23.40","1222.72","7.74","ND","0","26.4","21.2","83.6","0","0"],
    [2602,"2010-08-23T05:00:00","41.2","8.77","20.45","1108.38","7.40","ND","0.2","5.7","20.9","84.5","0","0"],
    [2603,"2010-08-23T06:00:00","36.1","9.17","19.52","1107.25","6.74","ND","0.4","20.9","20.6","85.1","0","0"],
    [2604,"2010-08-23T07:00:00","61.9","9.40","18.52","1083.54","5.49","ND","0.1","192.3","21.1","83","29.9","0"],
    [2605,"2010-08-23T08:00:00","54.1","12.93","23.51","1209.76","5.44","ND","0.7","27.1","22.6","77.8","176.7","0"],
    [2606,"2010-08-23T09:00:00","80.2","14.69","23.76","1431.84","5.74","ND","1.3","51.4","22.6","77.6","251.9","0"],
    [2607,"2010-08-23T10:00:00","40.1","27.32","37.66","1852.30","6.99","ND","0.7","79.2","24.7","67.2","422.2","0"],
    [2608,"2010-08-23T11:00:00","20","49.39","38.18","1384.79","14.25","ND","1.2","78","26.5","61.2","671.2","0"],
    [2609,"2010-08-23T12:00:00","27.9","49.27","31.57","1139.86","36.92","ND","1.5","96.5","27.3","58.4","449.8","0"],
    [2610,"2010-08-23T13:00:00","46.3","41.72","29.02","1131.36","60.43","ND","1.2","108.2","27.6","58.7","285.6","0"],
    [2611,"2010-08-23T14:00:00","29.5","33.25","17.12","1016.93","74.07","ND","1","39.3","28","57.8","366.8","0"],
    [2612,"2010-08-23T15:00:00","50.9","23.37","18.07","1029.85","65.39","ND","0.6","18.1","28.6","52.8","306.6","0"],
    [2613,"2010-08-23T16:00:00","27.7","25.96","23.35","1008.72","79.40","ND","2.3","247.8","29","48.9","268.5","0"],
    [2614,"2010-08-23T17:00:00","22.2","25.68","17.29","963.62","58.65","ND","2.3","253.1","28.7","50.2","201.3","0"],
    [2615,"2010-08-23T18:00:00","12.9","14.14","15.24","869.87","36.54","ND","1.7","261.2","27.9","52.3","71.4","0"],
    [2616,"2010-08-23T19:00:00","24.8","11.61","17.29","890.70","32.32","ND","0.7","238","26.6","56.5","0.8","0"],
    [2617,"2010-08-23T20:00:00","16.7","11.64","25.53","1140.24","25.53","ND","0.7","87.4","26","59.7","0","0"],
    [2618,"2010-08-23T21:00:00","43.5","11.94","33.83","1367.85","14.87","ND","0.7","144","25.6","61.1","0","0"],
    [2619,"2010-08-23T22:00:00","47.4","16.25","47.31","1894.06","5.66","ND","0.7","129.8","24.1","68.7","0","0"],
    [2620,"2010-08-23T23:00:00","50","16.93","41.78","2067.29","4.58","ND","0.3","162.8","23.8","70.6","0","0"],
    [2621,"2010-08-24T00:00:00","101.2","15.14","32.60","1677.26","6.84","ND","0.3","162.3","23.7","71.9","0","0"],
    [2622,"2010-08-24T01:00:00","114.7","15.73","29.68","1391.54","5.49","ND","0.6","119.4","23.2","73.7","0","0"],
    [2623,"2010-08-24T02:00:00","59.6","16.56","27.03","1446.13","5.79","ND","0.5","143.6","22.5","75.1","0","0"],
    [2624,"2010-08-24T03:00:00","51.1","16.24","22.60","1158.72","5.90","ND","0.3","169.6","22.7","77.3","0","0"],
    [2625,"2010-08-24T04:00:00","45.8","13.08","16.04","920.78","9.70","ND","0.5","140.5","22.7","78","0","0"],
    [2626,"2010-08-24T05:00:00","34.1","10.92","17.57","886.68","7.09","ND","0.7","39.1","21.7","82","0","0"],
    [2627,"2010-08-24T06:00:00","24.5","10.68","14.81","872.35","10.01","ND","0.2","18.2","21.5","81.5","0","0"],
    [2628,"2010-08-24T07:00:00","24.8","11.32","17.11","826.47","5.64","ND","0.2","233.7","21.9","80.5","15.3","0"],
    [2629,"2010-08-24T08:00:00","20.9","14.73","20.91","793.58","4.64","ND","0.6","61.8","22.5","77.9","99","0"],
    [2630,"2010-08-24T09:00:00","61.1","16.52","21.07","1033.76","5.16","ND","0.3","95.7","23.4","74.3","259.5","0"],
    [2631,"2010-08-24T10:00:00","64.3","20.17","29.50","1549.66","7.05","ND","0.7","145.5","25.1","66.5","514.3","0"],
    [2632,"2010-08-24T11:00:00","ND","20.26","37.36","1524.17","11.21","ND","1.2","121.2","26.9","59.1","678","0"],
    [2633,"2010-08-24T12:00:00","ND","20.44","38.04","1383.49","29.11","ND","1","89.9","27.9","54.7","782.7","0"],
    [2634,"2010-08-24T13:00:00","ND","ND","ND","ND","53.82","ND","0.8","287.3","28.8","51.9","462.6","0"],
    [2635,"2010-08-24T14:00:00","ND","ND","ND","ND","72.50","ND","1.8","0.4","29.2","50.2","359.6","0"],
    [2636,"2010-08-24T15:00:00","9.8","13.66","ND","ND","112.56","ND","1.4","282.3","29","49.4","256.4","0"],
    [2637,"2010-08-24T16:00:00","2.4","14.66","ND","ND","71.36","ND","2","249.4","29","49.9","212.3","0"],
    [2638,"2010-08-24T17:00:00","15.1","13.38","17.12","1184.20","ND","ND","1.7","253.1","28.8","50.9","170.6","0"],
    [2639,"2010-08-24T18:00:00","13.3","9.50","19.95","1322.65","44.90","ND","1.1","246.1","28.3","52.3","30.4","0"],
    [2640,"2010-08-24T19:00:00","33.5","8.37","20.47","1297.29","38.33","ND","0.4","235.1","27.4","55","0.5","0"],
    [2641,"2010-08-24T20:00:00","34.4","7.34","28.14","1512.83","30.76","ND","0.4","223.5","27","56.7","0","0"],
    [2642,"2010-08-24T21:00:00","31.9","8.28","39.48","1764.54","12.98","ND","0.9","206.8","26.9","56.4","0","0"],
    [2643,"2010-08-24T22:00:00","47","8.46","43.37","1902.30","8.99","ND","0.7","50","25.7","63.5","0","0"],
    [2644,"2010-08-24T23:00:00","31.1","8.69","37.53","1779.86","7.95","ND","0.5","49.3","24.5","69.5","0","0"],
    [2645,"2010-08-25T00:00:00","60.8","12.66","37.02","1726.96","4.64","ND","0.2","338.9","24.2","71.8","0","0"],
    [2646,"2010-08-25T01:00:00","51.2","14.53","34.54","1645.25","3.44","ND","0.6","143","24.2","72","0","0"],
    [2647,"2010-08-25T02:00:00","50.7","10.69","33.62","1576.69","3.09","ND","0.5","314.6","23.7","74.5","0","0"],
    [2648,"2010-08-25T03:00:00","62.2","9.73","31.17","1574.04","4.06","ND","0.9","119.4","23.3","76","0","0"],
    [2649,"2010-08-25T04:00:00","49","8.68","32.96","1583.31","4.45","ND","0.4","152.1","22.9","78.6","0","0"],
    [2650,"2010-08-25T05:00:00","34.5","9.44","25.38","1433.29","2.94","ND","0.7","251.2","22.8","79.7","0","0"],
    [2651,"2010-08-25T06:00:00","36.8","8.27","19.74","1239.49","4.89","ND","1","154.6","23","79.7","0","0"],
    [2652,"2010-08-25T07:00:00","40.8","8.54","20.56","1285.85","1.75","ND","0.3","273.3","22.8","81.5","3.2","0"],
    [2653,"2010-08-25T08:00:00","51.9","8.56","17.97","1307.72","4.97","ND","0.1","224.3","23","81.4","44.2","0"],
    [2654,"2010-08-25T09:00:00","87.1","6.98","24.49","1513.43","2.69","ND","1.1","4.5","23","83.4","128.7","0"],
    [2655,"2010-08-25T10:00:00","89","7.60","30.23","2162.05","4.33","ND","0.8","24.4","24.8","73.5","473.2","0"],
    [2656,"2010-08-25T11:00:00","53","16.89","40.18","2255.33","5.22","ND","1.6","46.4","26.1","65.4","466.2","0"],
    [2657,"2010-08-25T12:00:00","45","32.66","44.78","1793.74","18.44","ND","1.3","58.2","25.6","65","234.3","0"],
    [2658,"2010-08-25T13:00:00","23.4","56.40","34.80","1400.46","41.17","ND","0.2","63.8","26.7","60.8","436.2","0"],
    [2659,"2010-08-25T14:00:00","36.9","26.62","15.95","1209.75","34.62","ND","1","102.4","28","58.1","545.3","0"],
    [2660,"2010-08-25T15:00:00","20.7","54.47","31.28","1272.85","39.74","ND","0.5","82.8","28.9","55.7","512.2","0"],
    [2661,"2010-08-25T16:00:00","16.2","93.71","39.19","1369.51","45.13","ND","1.8","244.6","29.8","48.6","488.6","0"],
    [2662,"2010-08-25T17:00:00","13.7","79.39","32.00","1385.23","62.67","ND","1","225.8","29.8","47.3","202.6","0"],
    [2663,"2010-08-25T18:00:00","29.8","29.47","16.44","1280.47","37.79","ND","1.3","285.6","28.6","50.9","103.6","0"],
    [2664,"2010-08-25T19:00:00","28.6","15.62","14.35","1229.01","35.49","ND","0.4","23","27.5","53.9","0.3","0"],
    [2665,"2010-08-25T20:00:00","40.7","12.00","22.35","1397.81","19.06","ND","0.6","70","26.6","57.1","0","0"],
    [2666,"2010-08-25T21:00:00","22.6","12.59","32.76","1600.94","9.19","ND","0.3","43.3","26","59.7","0","0"],
    [2667,"2010-08-25T22:00:00","48.2","12.67","32.98","1597.74","4.75","ND","0.9","127.1","25","66","0","0"],
    [2668,"2010-08-25T23:00:00","29.6","11.42","33.11","1592.39","4.51","ND","1","120.6","24.1","72.3","0","0"],
    [2669,"2010-08-26T00:00:00","28","17.76","29.22","1758.91","3.01","ND","0.1","133.8","23.6","74.4","0","0"],
    [2670,"2010-08-26T01:00:00","15.2","13.80","27.03","1516.50","4.67","ND","0.3","125.3","23.6","75","0","0"],
    [2671,"2010-08-26T02:00:00","8.9","11.58","27.16","1436.68","1.91","ND","0.3","167","23.3","75.2","0","0"],
    [2672,"2010-08-26T03:00:00","6.6","12.06","25.43","1378.28","2.95","ND","0.4","127","23.3","76.7","0","0"],
    [2673,"2010-08-26T04:00:00","19.8","11.39","19.20","1218.81","4.14","ND","0.8","156.7","22.8","79.1","0","0"],
    [2674,"2010-08-26T05:00:00","10.9","11.18","20.56","1273.61","4.50","ND","0.9","164.6","22.7","80.8","0","0"],
    [2675,"2010-08-26T06:00:00","23.3","10.27","15.66","1227.71","3.47","ND","0.3","101.8","22.4","82","0","0"],
    [2676,"2010-08-26T07:00:00","24.4","8.55","14.69","1215.10","4.01","ND","0.7","173.9","22.5","81.9","15.7","0"],
    [2677,"2010-08-26T08:00:00","41.2","7.66","18.83","1170.08","3.78","ND","0.5","153.3","23.3","80.1","150.3","0"],
    [2678,"2010-08-26T09:00:00","22.8","9.17","19.72","1389.67","1.29","ND","1.5","158.6","23.9","74.4","179.3","0"],
    [2679,"2010-08-26T10:00:00","12.6","9.69","28.41","1974.58","6.41","ND","0.8","178.6","24.9","70.3","339.5","0"],
    [2680,"2010-08-26T11:00:00","9.9","9.93","26.98","1683.48","7.26","ND","0.8","150.2","26.2","65.5","377.2","0"],
    [2681,"2010-08-26T12:00:00","5.8","10.34","30.24","1679.32","22.30","ND","0.5","306.2","26.7","62.1","215.4","0"],
    [2682,"2010-08-26T13:00:00","5.5","9.88","35.65","1682.13","41.41","ND","1.4","349.6","26","62.3","179.5","0"],
    [2683,"2010-08-26T14:00:00","18","9.57","23.87","1448.31","53.00","ND","0.7","167","26","65.7","224.2","0"],
    [2684,"2010-08-26T15:00:00","20.4","11.09","22.51","1344.86","26.66","ND","1","55.9","24.8","74.8","164.8","1.78"],
    [2685,"2010-08-26T16:00:00","20.4","8.75","21.93","1396.70","20.12","ND","0.8","104.7","24.8","73.3","76.4","0"],
    [2686,"2010-08-26T17:00:00","21.1","32.10","38.58","1431.05","14.00","ND","0.4","117.4","24.6","75.7","58.7","0"],
    [2687,"2010-08-26T18:00:00","41","19.99","44.20","1819.07","9.52","ND","1.2","134.4","24.9","71.9","34.6","0"],
    [2688,"2010-08-26T19:00:00","22.8","15.74","55.41","2462.23","8.36","ND","0.6","127.6","24.3","76.2","0.3","0"],
    [2689,"2010-08-26T20:00:00","34.4","13.91","46.15","2160.11","6.66","ND","0.2","26.3","23.8","78","0","0"],
    [2690,"2010-08-26T21:00:00","37","11.25","45.98","2304.81","6.70","ND","0.3","109.4","23.5","80.7","0","0"],
    [2691,"2010-08-26T22:00:00","62","9.67","49.55","2405.06","2.32","ND","0.5","337.1","23","83.1","0","0"],
    [2692,"2010-08-26T23:00:00","45.9","10.12","40.93","2708.25","5.17","ND","0.9","1.8","22.4","84.7","0","0"],
    [2693,"2010-08-27T00:00:00","44.2","9.01","36.89","2464.28","2.20","ND","0","136.8","22","83.9","0","0"],
    [2694,"2010-08-27T01:00:00","36.1","10.58","30.58","1984.63","3.15","ND","0.3","58","22.1","84.7","0","0"],
    [2695,"2010-08-27T02:00:00","36.3","9.50","24.43","1554.21","1.96","ND","0.5","33.8","21.2","88.7","0","0"],
    [2696,"2010-08-27T03:00:00","45.2","9.16","23.73","1651.26","2.62","ND","0.2","90.4","21.4","88.3","0","0.25"],
    [2697,"2010-08-27T04:00:00","23.3","8.26","21.73","1629.75","3.32","ND","0.5","50.2","20.8","90.9","0","0"],
    [2698,"2010-08-27T05:00:00","13.5","9.51","20.72","1671.60","1.74","ND","0.1","147.7","20.9","90.9","0","0"],
    [2699,"2010-08-27T06:00:00","17.6","10.47","19.24","1333.22","2.40","ND","0.2","241","21","90","0","0"],
    [2700,"2010-08-27T07:00:00","19.3","7.81","18.54","1333.67","3.27","ND","0.5","43.8","20.9","90.5","22.4","0"],
    [2701,"2010-08-27T08:00:00","32.5","7.93","18.56","1468.80","1.57","ND","0.2","72.4","21.3","87.2","105.7","0"],
    [2702,"2010-08-27T09:00:00","20.2","8.20","19.83","1708.39","1.94","ND","0.5","182.6","23.1","79.7","354","0"],
    [2703,"2010-08-27T10:00:00","40.3","7.68","23.94","1536.71","2.81","ND","0.7","129.8","25.2","68.9","533.1","0"],
    [2704,"2010-08-27T11:00:00","32.2","10.28","33.17","1776.88","10.66","ND","1.1","79.1","25.8","67.4","375.2","0"],
    [2705,"2010-08-27T12:00:00","32.4","19.81","35.99","1608.16","30.60","ND","1","51.5","27","61.4","623","0"],
    [2706,"2010-08-27T13:00:00","23.3","17.86","30.93","1499.28","61.32","ND","1.3","51.9","28.3","55.6","719.3","0"],
    [2707,"2010-08-27T14:00:00","19.6","16.82","18.85","1285.71","84.05","ND","0.4","57.5","29.7","52","563.4","0"],
    [2708,"2010-08-27T15:00:00","29.8","24.38","16.91","1280.04","91.51","ND","1.6","343","29.8","49.5","357.3","0"],
    [2709,"2010-08-27T16:00:00","15.7","30.78","20.13","1245.54","113.06","ND","3","284.3","30","47","523.8","0"],
    [2710,"2010-08-27T17:00:00","17.9","22.25","18.17","1188.13","63.57","ND","2.1","286.2","29.9","47.5","306.5","0"],
    [2711,"2010-08-27T18:00:00","13.8","9.14","14.68","1187.73","32.77","ND","1.4","298.2","28.4","50.6","50.3","0"],
    [2712,"2010-08-27T19:00:00","28.8","10.10","17.13","1262.96","36.38","ND","0.3","99.8","27.7","54.3","0.3","0"],
    [2713,"2010-08-27T20:00:00","38","8.46","22.24","1329.39","25.23","ND","0.6","331.5","24.7","71.9","0","0.25"],
    [2714,"2010-08-27T21:00:00","28.6","8.87","35.98","1602.24","10.96","ND","0.9","79.4","24.3","72","0","0"],
    [2715,"2010-08-27T22:00:00","30.4","8.55","36.94","1782.95","5.81","ND","0.4","108.8","23.4","78.3","0","0"],
    [2716,"2010-08-27T23:00:00","15.9","9.17","28.81","1481.29","6.58","ND","2.1","180.7","23.8","76.8","0","0"],
    [2717,"2010-08-28T00:00:00","10","9.94","29.68","1643.03","5.22","ND","1","197.2","22.9","81.7","0","0"],
    [2718,"2010-08-28T01:00:00","6.9","9.00","27.58","1808.68","3.47","ND","0.5","169.7","22.8","80.2","0","0"],
    [2719,"2010-08-28T02:00:00","21.1","5.75","21.35","1353.21","6.66","ND","0.6","357.2","22.4","83.2","0","0"],
    [2720,"2010-08-28T03:00:00","16.2","5.74","15.93","1328.67","9.22","ND","0.6","40.9","22.1","86.6","0","0"],
    [2721,"2010-08-28T04:00:00","19.4","5.63","22.14","1429.42","3.81","ND","0.7","39.8","21.7","89.4","0","0"],
    [2722,"2010-08-28T05:00:00","11.8","10.70","23.80","1438.81","3.80","ND","0.8","46.2","21","92.1","0","0"],
    [2723,"2010-08-28T06:00:00","8.1","8.61","19.53","1401.49","2.57","ND","0.7","58.1","20.9","93.9","0","0"],
    [2724,"2010-08-28T07:00:00","5.8","8.01","14.30","1152.44","3.97","ND","0.4","83.3","20.9","92.8","28.4","0"],
    [2725,"2010-08-28T08:00:00","6.8","6.38","14.38","1197.64","2.55","ND","0.6","68.1","21.7","88.6","173.4","0"],
    [2726,"2010-08-28T09:00:00","19.3","8.53","18.09","1359.51","2.37","ND","0.5","122.5","22.8","83.5","166.7","0"],
    [2727,"2010-08-28T10:00:00","42.4","12.43","24.60","1489.67","5.67","ND","1.4","117.6","24.2","76.3","375.7","0"],
    [2728,"2010-08-28T11:00:00","22.5","19.73","33.15","1622.40","8.04","ND","1.7","132.8","25.3","69","461.6","0"],
    [2729,"2010-08-28T12:00:00","11.2","29.64","36.12","1662.80","15.34","ND","0.8","125.6","26.3","64.8","488.3","0"],
    [2730,"2010-08-28T13:00:00","6.5","26.66","26.94","1369.22","23.43","ND","1","108.3","27.3","60.4","592.2","0"],
    [2731,"2010-08-28T14:00:00","18.3","19.06","21.09","1281.44","42.08","ND","1.1","116.1","27.9","57.8","474.3","0"],
    [2732,"2010-08-28T15:00:00","10.8","13.41","17.06","1260.86","66.99","ND","0.7","102.5","28.7","55.3","419.5","0"],
    [2733,"2010-08-28T16:00:00","7.5","11.33","14.34","1148.23","63.24","ND","1.1","342.3","28.6","55.6","251.3","0"],
    [2734,"2010-08-28T17:00:00","6.2","10.85","15.99","1217.42","80.87","ND","1","284.1","28.8","53.1","164","0"],
    [2735,"2010-08-28T18:00:00","21.3","11.04","20.92","1241.43","101.99","ND","0.9","149.5","28.3","55.8","98.3","0"],
    [2736,"2010-08-28T19:00:00","11.6","8.64","15.52","1193.04","56.71","ND","1.2","241.7","27.4","56.7","0.5","0"],
    [2737,"2010-08-28T20:00:00","16","8.29","19.10","1293.41","41.54","ND","0.4","250.9","26.3","60.1","0","0"],
    [2738,"2010-08-28T21:00:00","10.4","7.47","32.04","1622.35","18.21","ND","0.2","287.1","25.3","64.8","0","0"],
    [2739,"2010-08-28T22:00:00","34.5","7.92","41.16","1915.09","7.58","ND","0.2","90.5","24.5","68.6","0","0"],
    [2740,"2010-08-28T23:00:00","55.6","9.39","46.03","2561.85","2.86","ND","0.2","225.7","24.2","71.4","0","0"],
    [2741,"2010-08-29T00:00:00","80.2","8.62","42.36","2250.79","3.31","ND","0.1","335.6","23.5","73.9","0","0"],
    [2742,"2010-08-29T01:00:00","63.7","8.16","34.59","2256.88","3.69","ND","0.1","312.4","23.2","75.9","0","0"],
    [2743,"2010-08-29T02:00:00","42.4","8.72","35.66","2368.47","1.76","ND","0.2","178.3","23.2","77","0","0"],
    [2744,"2010-08-29T03:00:00","27","8.36","32.80","2083.80","2.30","ND","0.7","153.9","23.2","78.4","0","0"],
    [2745,"2010-08-29T04:00:00","27.5","7.76","29.45","1890.22","2.81","ND","0.5","127.1","22.5","81.9","0","0"],
    [2746,"2010-08-29T05:00:00","15.4","7.28","26.48","1567.68","2.84","ND","0.1","202.1","21.9","85","0","0"],
    [2747,"2010-08-29T06:00:00","15.6","6.17","18.77","1315.08","7.22","ND","0.2","267.1","21.7","86.3","0","0"],
    [2748,"2010-08-29T07:00:00","16.4","4.90","18.59","1393.49","3.61","ND","0.3","324","21.8","85.3","14.1","0"],
    [2749,"2010-08-29T08:00:00","28.6","5.16","19.53","1484.63","1.59","ND","0.6","49.6","22.1","84.5","64.9","0"],
    [2750,"2010-08-29T09:00:00","31.6","5.66","20.96","1554.21","4.22","ND","0.4","69.3","23.6","78.3","267.2","0"],
    [2751,"2010-08-29T10:00:00","31.4","6.78","25.29","1516.50","2.93","ND","0.7","27.4","25.4","69.5","598.1","0"],
    [2752,"2010-08-29T11:00:00","18.1","12.73","31.02","1433.93","9.83","ND","1.2","56.7","26.9","63.2","712.8","0"],
    [2753,"2010-08-29T12:00:00","12","27.21","24.94","1279.73","30.53","ND","1.5","50.3","27.4","60.8","528.5","0"],
    [2754,"2010-08-29T13:00:00","7.7","26.68","13.20","1131.74","49.16","ND","0.7","126.3","28.9","54.2","570.2","0"],
    [2755,"2010-08-29T14:00:00","5.2","21.55","10.11","1090.96","61.89","ND","0.3","67.7","30","50.7","429.6","0"],
    [2756,"2010-08-29T15:00:00","3.8","22.59","12.10","1106.59","64.65","ND","2","3.9","27.9","58.4","135.8","0"],
    [2757,"2010-08-29T16:00:00","2.6","18.68","11.51","1168.32","85.78","ND","1.1","289.1","29.2","51.3","447.6","0"],
    [2758,"2010-08-29T17:00:00","2.7","23.91","13.05","1103.67","45.31","ND","2.1","250.5","29.6","49.3","278","0"],
    [2759,"2010-08-29T18:00:00","3.4","18.78","9.29","1058.60","46.79","ND","0.5","289.8","29.3","50.2","107.2","0"],
    [2760,"2010-08-29T19:00:00","4.1","13.56","9.92","1057.55","43.00","ND","0.1","328.9","27.1","56","0.6","0"],
    [2761,"2010-08-29T20:00:00","10.6","9.39","13.14","1165.22","36.28","ND","0.1","96.9","26.5","57.1","0","0"],
    [2762,"2010-08-29T21:00:00","6.3","9.16","33.24","1542.84","12.96","ND","0.1","337.8","25.5","61","0","0"],
    [2763,"2010-08-29T22:00:00","17.8","10.03","39.86","1950.80","4.84","ND","0.8","152.1","24.6","67.3","0","0"],
    [2764,"2010-08-29T23:00:00","35","10.78","39.41","2173.73","1.74","ND","0.2","296.7","23.5","72.2","0","0"],
    [2765,"2010-08-30T00:00:00","34.6","8.99","30.88","1971.92","3.34","ND","0.2","270","22.9","74.5","0","0"],
    [2766,"2010-08-30T01:00:00","19","8.38","29.96","2024.81","1.87","ND","0.1","55.6","22.9","75.8","0","0"],
    [2767,"2010-08-30T02:00:00","28.1","7.49","28.11","1899.68","1.31","ND","0.2","45.1","22.8","77.2","0","0"],
    [2768,"2010-08-30T03:00:00","20","7.39","24.86","1785.33","1.93","ND","0.1","353","22.1","81.5","0","0"],
    [2769,"2010-08-30T04:00:00","18.8","6.05","21.60","1440.76","2.33","ND","0.2","201.3","22","81","0","0"],
    [2770,"2010-08-30T05:00:00","11","6.10","19.32","1394.91","2.60","ND","0.5","297.9","21.5","81.9","0","0"],
    [2771,"2010-08-30T06:00:00","6.7","5.88","20.29","1494.44","2.35","ND","0.2","194.8","21.8","80.4","0","0"],
    [2772,"2010-08-30T07:00:00","11.5","4.67","17.78","1371.30","1.30","ND","0.1","15.7","21.8","80.4","28.1","0"],
    [2773,"2010-08-30T08:00:00","52","6.27","19.41","1439.30","1.63","ND","0.1","216","23.3","73.7","185","0"],
    [2774,"2010-08-30T09:00:00","33.5","9.72","25.47","2107.28","2.09","ND","0.7","57.2","24.9","69","405.6","0"],
    [2775,"2010-08-30T10:00:00","44.3","11.79","37.67","2370.61","3.26","ND","1.1","94.9","26.6","63","665.6","0"],
    [2776,"2010-08-30T11:00:00","27.2","27.53","55.12","2073.16","12.98","ND","0.8","126.2","27.8","58.4","746.7","0"],
    [2777,"2010-08-30T12:00:00","16.1","35.84","34.54","1387.65","39.62","ND","1.2","79.4","28.8","54.8","642","0"],
    [2778,"2010-08-30T13:00:00","9.9","ND","ND","ND","ND","ND","0.9","113.3","30.2","50.8","699.9","0"],
    [2779,"2010-08-30T14:00:00","18","14.50","15.89","1060.69","ND","ND","0.7","84.3","30.8","49","515.1","0"],
    [2780,"2010-08-30T15:00:00","22","20.14","17.55","1144.55","86.74","ND","3","267.9","30.2","49.4","314.7","0"],
    [2781,"2010-08-30T16:00:00","35.4","25.35","16.15","1177.25","104.32","ND","2.6","264.7","31.2","46","528.3","0"],
    [2782,"2010-08-30T17:00:00","19.8","13.16","17.67","1263.00","39.30","ND","2.5","271.9","31.1","46.1","358.3","0"],
    [2783,"2010-08-30T18:00:00","30.2","10.40","16.05","1192.44","64.56","ND","1.9","276.6","29.9","49","53.3","0"],
    [2784,"2010-08-30T19:00:00","22.3","9.48","16.96","1245.96","71.15","ND","0.4","264.1","28.5","52.2","0.1","0"],
    [2785,"2010-08-30T20:00:00","23.2","7.61","25.02","1367.69","44.16","ND","0.3","171.7","27.8","54.9","0","0"],
    [2786,"2010-08-30T21:00:00","21.7","6.80","25.84","1433.90","32.96","ND","1","94.4","26.8","60.7","0","0"],
    [2787,"2010-08-30T22:00:00","36.1","6.43","32.91","1544.39","15.34","ND","0.6","154.6","26.6","61","0","0"],
    [2788,"2010-08-30T23:00:00","52.6","7.98","35.86","1716.12","7.06","ND","0.3","93.9","26.1","64.2","0","0"],
    [2789,"2010-08-31T00:00:00","50.3","8.81","34.35","1770.75","7.37","ND","2.3","94.8","24.8","70.8","0","0"],
    [2790,"2010-08-31T01:00:00","33.4","12.28","33.31","1808.84","5.18","ND","1.4","206","23.3","80.8","0","0.25"],
    [2791,"2010-08-31T02:00:00","18","10.84","21.33","1309.93","8.64","ND","1.1","1.5","23","81.4","0","0"],
    [2792,"2010-08-31T03:00:00","10","6.40","13.15","1172.06","10.02","ND","1.4","175.7","21.3","90.8","0","26.16"],
    [2793,"2010-08-31T04:00:00","6.3","6.34","13.62","1108.76","9.96","ND","2.2","189.4","19.7","98.3","0","21.34"],
    [2794,"2010-08-31T05:00:00","5.2","6.38","10.90","1068.97","13.11","ND","1.2","194.9","20.7","93","0","0.51"],
    [2795,"2010-08-31T06:00:00","3.4","4.70","5.96","959.72","21.82","ND","0.2","154","20.9","90.4","0","0"],
    [2796,"2010-08-31T07:00:00","2.9","4.29","6.13","1005.56","15.52","ND","0.5","212.6","21","92.4","23.4","0.25"],
    [2797,"2010-08-31T08:00:00","9.1","3.41","19.23","1152.83","7.88","ND","1.3","191.1","22","87.2","98.5","0"],
    [2798,"2010-08-31T09:00:00","18.8","5.50","31.55","1621.73","5.92","ND","0.6","181","22.5","85","133.9","0"],
    [2799,"2010-08-31T10:00:00","15.7","7.25","29.62","2249.27","4.94","ND","1.5","116.8","23.6","79.9","362.7","0"],
    [2800,"2010-08-31T11:00:00","10.4","6.13","29.99","1949.79","8.48","ND","1.1","129.7","24.1","76.6","328.5","0"],
    [2801,"2010-08-31T12:00:00","7","7.00","34.33","1884.54","16.14","ND","1","134.9","23.8","77.2","223.8","0"],
    [2802,"2010-08-31T13:00:00","4.5","7.75","24.82","1483.29","26.74","ND","0.5","158.8","25.3","70","586.4","0"],
    [2803,"2010-08-31T14:00:00","10.4","7.66","25.02","1467.85","23.69","ND","1.6","56.8","26.3","67.5","527.7","0"],
    [2804,"2010-08-31T15:00:00","22.9","7.63","24.06","1461.27","53.02","ND","2.2","86.7","23.5","86","88.5","7.62"],
    [2805,"2010-08-31T16:00:00","14.6","10.43","19.13","1253.82","56.99","ND","0.7","28.8","22.9","85.7","195.5","0.51"],
    [2806,"2010-08-31T17:00:00","9.3","9.34","26.76","1399.17","29.38","ND","0.9","7.5","23.2","85.8","95.4","0"],
    [2807,"2010-08-31T18:00:00","36.1","6.46","24.17","1423.36","27.23","ND","0.3","217.6","23.6","83.7","30.9","0"],
    [2808,"2010-08-31T19:00:00","22.9","7.54","34.94","1493.70","19.45","ND","0.6","172.3","23.5","82.9","0","0"],
    [2809,"2010-08-31T20:00:00","28.4","6.54","44.90","1892.14","10.84","ND","0.6","195.9","23.1","80.4","0","0"],
    [2810,"2010-08-31T21:00:00","16","9.16","40.68","2287.99","5.97","ND","1.9","189.7","22.1","84.4","0","0"],
    [2811,"2010-08-31T22:00:00","8","8.90","37.26","2495.81","6.12","ND","0.1","316.7","22.4","83.3","0","0"],
    [2812,"2010-08-31T23:00:00","18","8.08","30.15","2100.88","5.35","ND","0.7","341.8","22.2","85.8","0","0"],
    [2813,"2010-09-01T00:00:00","26.4","6.31","29.65","1917.89","6.53","ND","0.4","28.6","21.8","87.3","0","0"],
    [2814,"2010-09-01T01:00:00","14.1","7.15","29.01","1824.62","3.84","ND","0.4","174","21.2","94.7","0","1.02"],
    [2815,"2010-09-01T02:00:00","8.6","7.45","25.96","1549.47","5.17","ND","0.6","129","21.1","95.9","0","1.52"],
    [2816,"2010-09-01T03:00:00","7.3","6.67","25.69","1639.39","5.79","ND","1.3","139.5","20.6","96.1","0","14.99"],
    [2817,"2010-09-01T04:00:00","5.9","5.55","26.74","1647.89","6.19","ND","1.8","152","19.6","100","0","54.86"],
    [2818,"2010-09-01T05:00:00","24.5","5.53","22.04","1417.31","6.98","ND","0.8","135.3","19.8","100","0","8.64"],
    [2819,"2010-09-01T06:00:00","13.9","5.41","20.06","1260.69","6.04","ND","1.1","157.5","19.5","100","0","12.19"],
    [2820,"2010-09-01T07:00:00","7.8","4.71","20.43","1326.87","6.43","ND","0.7","151.9","19.5","100","5.6","6.35"],
    [2821,"2010-09-01T08:00:00","6","4.48","19.23","1281.89","5.62","ND","0.1","161.2","19.6","100","43","2.29"],
    [2822,"2010-09-01T09:00:00","4.2","4.53","22.14","1383.56","4.14","ND","0","207.4","20.1","100","87","1.52"],
    [2823,"2010-09-01T10:00:00","4.3","5.31","28.29","1836.64","4.15","ND","0.3","65","20.7","98.9","245.9","1.27"],
    [2824,"2010-09-01T11:00:00","4.1","5.35","35.08","2269.44","5.45","ND","0.2","8.1","22.1","88.5","331.9","0"],
    [2825,"2010-09-01T12:00:00","2.6","5.45","44.97","2382.36","8.36","ND","0.2","173.9","23.5","80.6","367.3","0"],
    [2826,"2010-09-01T13:00:00","5.4","5.11","41.32","1949.13","20.31","ND","0.4","178.8","24.9","72.8","517.3","0"],
    [2827,"2010-09-01T14:00:00","3.9","6.31","48.41","2072.85","40.41","ND","0.6","144.6","26.2","65.2","528.9","0"],
    [2828,"2010-09-01T15:00:00","3.5","6.81","45.44","2173.92","102.38","ND","0.5","283.9","25.2","68.7","86.2","1.52"],
    [2829,"2010-09-01T16:00:00","3","8.31","27.55","1753.96","118.12","ND","0.6","35.7","24.3","72.9","91.5","0.25"],
    [2830,"2010-09-01T17:00:00","3.1","6.61","27.81","1577.22","50.14","ND","0.9","87.5","21.6","88.3","23.5","1.02"],
    [2831,"2010-09-01T18:00:00","18.5","8.65","26.92","1517.60","13.58","ND","0.3","324.6","21.1","90.5","3.8","1.52"],
    [2832,"2010-09-01T19:00:00","14.8","11.56","30.99","1526.33","10.28","ND","0.2","58.6","21.2","91","0","0"],
    [2833,"2010-09-01T20:00:00","27.1","8.92","36.74","1922.70","5.00","ND","0.5","181.7","21.2","90.9","0","0.25"],
    [2834,"2010-09-01T21:00:00","32.5","9.88","35.96","2194.14","4.73","ND","0.8","161.1","21.2","91.4","0","0.51"],
    [2835,"2010-09-01T22:00:00","18","10.50","30.87","2544.75","4.55","ND","0.1","256.3","21","93.5","0","0.25"],
    [2836,"2010-09-01T23:00:00","11.6","12.05","30.92","3187.25","5.89","ND","0.4","253.8","21","93.1","0","0.25"],
    [2837,"2010-09-02T00:00:00","30.3","10.00","29.80","3153.34","5.46","ND","0.6","33.6","20.6","95.6","0","0"],
    [2838,"2010-09-02T01:00:00","33.8","8.52","26.74","2833.02","3.52","ND","0.1","301","20.6","95.3","0","0.25"],
    [2839,"2010-09-02T02:00:00","28.8","6.25","23.90","2144.52","4.27","ND","0.3","67.1","20.4","96.5","0","3.56"],
    [2840,"2010-09-02T03:00:00","36.9","6.04","22.55","2120.50","3.75","ND","0.4","37.8","20","98.5","0","3.81"],
    [2841,"2010-09-02T04:00:00","40.3","6.67","21.43","2083.81","3.61","ND","0.6","50.8","19.9","98.8","0","4.06"],
    [2842,"2010-09-02T05:00:00","42.9","6.88","20.75","1722.78","3.90","ND","0.4","51.7","19.9","98.9","0","4.32"],
    [2843,"2010-09-02T06:00:00","31.9","6.75","18.40","1520.10","5.19","ND","0.7","95.1","19.9","98.1","0","2.79"],
    [2844,"2010-09-02T07:00:00","16.8","7.42","17.51","1396.24","4.76","ND","0.8","57.7","19.9","98.3","2.6","1.78"],
    [2845,"2010-09-02T08:00:00","9.2","5.87","19.64","1306.16","4.84","ND","0.6","65.8","19.9","98.7","23.3","1.02"],
    [2846,"2010-09-02T09:00:00","6.9","6.21","21.99","1553.88","4.42","ND","1","50","20.1","98","97.9","0.76"],
    [2847,"2010-09-02T10:00:00","4.1","5.80","20.23","1622.55","4.30","ND","0.6","70.3","21.2","91.6","289.7","0"],
    [2848,"2010-09-02T11:00:00","4.1","6.05","19.71","1492.92","5.66","ND","0.6","74.1","22.8","82.8","466.3","0.25"],
    [2849,"2010-09-02T12:00:00","2.9","11.96","21.78","1466.92","9.29","ND","1","44","23.6","77.8","335.6","0"],
    [2850,"2010-09-02T13:00:00","3.3","18.13","26.69","1573.51","27.34","ND","1.1","53.9","24.2","74.9","287.4","0"],
    [2851,"2010-09-02T14:00:00","3.2","26.32","27.61","1508.14","38.99","ND","0.9","8.1","25.3","68.8","422.6","0"],
    [2852,"2010-09-02T15:00:00","3.9","21.25","14.99","1272.90","44.73","ND","1","26.5","25.9","65.9","301.2","0"],
    [2853,"2010-09-02T16:00:00","7.8","18.87","15.68","1321.43","47.20","ND","1.6","63.2","26","66.2","320.9","0"],
    [2854,"2010-09-02T17:00:00","3.9","43.35","27.93","1333.36","42.81","ND","0.8","89.1","26.2","63.4","210.3","0"],
    [2855,"2010-09-02T18:00:00","1.9","48.43","24.02","1196.23","34.46","ND","0.9","329.5","25.8","61","92.8","0"],
    [2856,"2010-09-02T19:00:00","20.1","24.85","18.45","1275.04","36.34","ND","0.2","244.9","24.1","67.9","0.7","0"],
    [2857,"2010-09-02T20:00:00","53.2","17.14","23.94","1564.74","20.76","ND","0.5","188.8","23.7","67.9","0","0"],
    [2858,"2010-09-02T21:00:00","56.4","16.57","35.50","2714.65","5.29","ND","0.5","194.7","22.6","73.8","0","0"],
    [2859,"2010-09-02T22:00:00","69.8","16.66","35.40","3375.05","4.63","ND","0.1","22.6","21.8","79.2","0","0"],
    [2860,"2010-09-02T23:00:00","62","15.76","32.03","3479.25","3.47","ND","0.2","290.8","20.9","84.1","0","0"],
    [2861,"2010-09-03T00:00:00","75","13.59","28.61","3231.36","4.41","ND","0.7","231.2","20.4","85.1","0","0"],
    [2862,"2010-09-03T01:00:00","47.8","12.38","24.55","2774.69","3.44","ND","1","220.3","20.6","82.3","0","0"],
    [2863,"2010-09-03T02:00:00","45.9","10.64","22.64","2437.98","3.81","ND","0.3","22.6","20.5","82.8","0","0"],
    [2864,"2010-09-03T03:00:00","44.6","9.19","21.48","2222.77","3.56","ND","0.4","345.1","19.6","86.7","0","0"],
    [2865,"2010-09-03T04:00:00","58.4","8.31","20.90","2013.48","3.76","ND","0.3","288.7","19.2","89","0","0"],
    [2866,"2010-09-03T05:00:00","42.8","8.66","19.61","1842.23","3.31","ND","0.1","189.9","19.5","87.6","0","0"],
    [2867,"2010-09-03T06:00:00","42.4","7.23","15.34","1799.14","3.91","ND","0.2","130.2","20","86.8","0","0"],
    [2868,"2010-09-03T07:00:00","70.5","6.90","16.07","1633.26","3.69","ND","0.2","285.8","20","88.8","22.6","0"],
    [2869,"2010-09-03T08:00:00","80.9","8.97","16.57","1836.01","3.28","ND","0.1","147.1","21.4","80.9","210.3","0"],
    [2870,"2010-09-03T09:00:00","91.8","14.83","22.57","2161.68","3.82","ND","0.5","76.5","23","75.8","256.9","0"],
    [2871,"2010-09-03T10:00:00","92.7","23.94","33.34","2457.90","5.22","ND","1.3","155.1","24.5","69.6","505.2","0"],
    [2872,"2010-09-03T11:00:00","62.5","49.20","61.35","2527.54","8.42","ND","1.3","134.4","25.5","63.4","504.9","0"],
    [2873,"2010-09-03T12:00:00","52.6","33.52","71.20","2616.37","29.98","ND","1.1","54","26.1","63.1","541.5","0"],
    [2874,"2010-09-03T13:00:00","27.8","20.28","38.72","1816.74","45.24","ND","1.2","77.4","26.7","62","581.4","0"],
    [2875,"2010-09-03T14:00:00","37.6","23.64","26.86","1613.00","70.69","ND","1.1","99.4","27.4","58","486.5","0"],
    [2876,"2010-09-03T15:00:00","28.8","22.77","23.50","1489.74","77.60","ND","1.3","121.5","27.7","57.3","414","0"],
    [2877,"2010-09-03T16:00:00","45.5","18.43","21.57","1444.98","74.20","ND","0.4","67.9","28.1","56.4","325.2","0"],
    [2878,"2010-09-03T17:00:00","43.4","17.55","24.78","1435.33","74.61","ND","1.1","118.9","27.9","57.2","109.7","0"],
    [2879,"2010-09-03T18:00:00","47.4","20.77","24.86","1469.08","106.37","ND","0.6","227.8","27.3","57.4","48.7","0"],
    [2880,"2010-09-03T19:00:00","24.4","19.04","28.34","1512.33","69.00","ND","0.3","304.9","26.3","59.2","0.8","0"],
    [2881,"2010-09-03T20:00:00","28.9","12.16","36.28","1829.46","26.53","ND","0.3","321.8","25.9","61.2","0","0"],
    [2882,"2010-09-03T21:00:00","55.2","11.33","40.79","1953.41","13.17","ND","0.3","222.8","24.9","67.7","0","0"],
    [2883,"2010-09-03T22:00:00","65.1","11.16","43.32","2130.11","9.20","ND","0.4","90.8","24.2","72","0","0"],
    [2884,"2010-09-03T23:00:00","40","16.96","46.06","3827.48","5.79","ND","0.2","198.7","23.8","75.1","0","0"],
    [2885,"2010-09-04T00:00:00","78.4","13.99","38.34","2555.83","5.30","ND","0.1","43.3","23.6","77.4","0","0"],
    [2886,"2010-09-04T01:00:00","57.1","13.98","34.10","2782.15","5.59","ND","0.2","69.3","22.9","80","0","0"],
    [2887,"2010-09-04T02:00:00","62.6","14.21","31.55","2877.96","5.38","ND","0.3","144.1","22.4","82","0","0"],
    [2888,"2010-09-04T03:00:00","33.6","12.99","26.98","2430.21","3.72","ND","0.2","209.4","22.2","83.5","0","0"],
    [2889,"2010-09-04T04:00:00","41.2","12.54","22.00","1963.28","4.41","ND","1","320.6","20.8","93.7","0","10.67"],
    [2890,"2010-09-04T05:00:00","22","9.17","20.30","1705.49","4.43","ND","0.3","281.5","21.1","91.6","0","0"],
    [2891,"2010-09-04T06:00:00","25.1","7.47","20.19","1605.47","5.98","ND","0.4","249.1","21","93.4","0","2.54"],
    [2892,"2010-09-04T07:00:00","14.9","5.58","19.44","1514.51","5.17","ND","0.1","66.7","21.1","93.7","18.2","0.25"],
    [2893,"2010-09-04T08:00:00","45.7","5.35","19.78","1526.33","4.88","ND","0.5","57.4","21.3","92.2","53.7","0"],
    [2894,"2010-09-04T09:00:00","34.8","6.16","21.07","1798.90","5.39","ND","0.3","117","22.9","84.2","330.3","0"],
    [2895,"2010-09-04T10:00:00","22.6","7.05","27.88","2104.44","4.75","ND","0","85","24.3","75.3","500.9","0"],
    [2896,"2010-09-04T11:00:00","34.5","6.27","24.63","1725.80","14.57","ND","0.6","184.7","26.1","65.9","704.3","0"],
    [2897,"2010-09-04T12:00:00","22.7","8.18","27.58","1621.27","37.01","ND","1","138.8","27.1","61.4","710.7","0"],
    [2898,"2010-09-04T13:00:00","19.1","9.90","29.85","1718.98","74.98","ND","0.7","112.5","27.6","59.1","286.9","0"],
    [2899,"2010-09-04T14:00:00","23.9","9.38","22.48","1617.84","85.49","ND","0.5","65.3","27.8","57.7","484.2","0"],
    [2900,"2010-09-04T15:00:00","12.5","9.68","18.73","1503.28","91.47","ND","0.7","285.2","28.3","53.9","322.6","0"],
    [2901,"2010-09-04T16:00:00","6.8","10.12","18.32","1447.87","89.28","ND","3.4","249.3","26.9","58.8","159","0"],
    [2902,"2010-09-04T17:00:00","4.7","8.39","12.85","1268.20","46.51","ND","2.1","235.4","26.8","58.4","140.4","0"],
    [2903,"2010-09-04T18:00:00","16.2","6.06","13.66","1359.98","27.99","ND","0.2","219","26.5","58.7","28","0"],
    [2904,"2010-09-04T19:00:00","8.6","5.11","16.00","1427.70","23.06","ND","2.6","144.9","22.6","86","0","8.13"],
    [2905,"2010-09-04T20:00:00","28","4.70","21.13","1534.11","18.73","ND","0.2","191.9","21.5","92.1","0","0.25"],
    [2906,"2010-09-04T21:00:00","16.1","4.04","31.46","1766.16","16.93","ND","0.4","2.5","21.5","92.4","0","0.25"],
    [2907,"2010-09-04T22:00:00","33.7","4.61","50.09","2298.27","6.85","ND","0.4","36.4","21","94.4","0","0.76"],
    [2908,"2010-09-04T23:00:00","30.7","4.76","47.70","2249.16","5.25","ND","0.1","337.4","21","94.5","0","0.25"],
    [2909,"2010-09-05T00:00:00","33.9","6.13","40.81","2181.34","4.74","ND","0.1","287.4","21.1","94.2","0","0"],
    [2910,"2010-09-05T01:00:00","21","7.63","34.35","2204.70","4.28","ND","0.1","68","21.1","93.8","0","0"],
    [2911,"2010-09-05T02:00:00","23.8","6.36","29.78","2102.94","5.64","ND","0.2","287.6","20.9","93.2","0","0"],
    [2912,"2010-09-05T03:00:00","12.8","6.77","27.62","2304.89","3.79","ND","0.2","48.7","20.8","92","0","0"],
    [2913,"2010-09-05T04:00:00","25.6","5.76","25.38","2044.32","3.75","ND","0.6","31.6","20.3","96.6","0","0"],
    [2914,"2010-09-05T05:00:00","19.5","6.16","24.95","1792.79","3.63","ND","0.2","41.5","20.3","94.8","0","0"],
    [2915,"2010-09-05T06:00:00","11.5","6.42","24.91","1871.71","4.58","ND","0.1","47.7","20.4","94.5","0","0"],
    [2916,"2010-09-05T07:00:00","30.4","6.29","21.97","1691.89","4.37","ND","0.2","52.9","20.5","94.8","3.2","0"],
    [2917,"2010-09-05T08:00:00","36.7","6.43","22.85","1636.05","4.06","ND","0.3","52.1","21","92.3","77.3","0"],
    [2918,"2010-09-05T09:00:00","45.2","7.76","23.32","1672.74","4.10","ND","0.4","59.9","22.1","84.1","205","0"],
    [2919,"2010-09-05T10:00:00","31.4","9.32","26.54","1747.07","5.36","ND","0.5","30.5","23.5","76.9","517.9","0"],
    [2920,"2010-09-05T11:00:00","31.5","16.69","29.36","1595.78","10.99","ND","0.7","112.5","25.4","68","777.7","0"],
    [2921,"2010-09-05T12:00:00","17","76.35","35.00","1537.17","22.17","ND","0.7","95","26.8","61.5","793.9","0"],
    [2922,"2010-09-05T13:00:00","15.2","68.38","23.95","1463.71","45.03","ND","1.1","99.7","27.9","58","841.3","0"],
    [2923,"2010-09-05T14:00:00","21.2","43.44","18.09","1399.67","80.39","ND","0.8","53.6","28.8","54","721.9","0"],
    [2924,"2010-09-05T15:00:00","12.8","28.74","16.58","1508.28","99.97","ND","1.3","97.4","29.3","51.5","518","0"],
    [2925,"2010-09-05T16:00:00","26.5","21.45","15.17","1429.43","117.93","ND","0.4","305.8","29.3","53.1","344","0"],
    [2926,"2010-09-05T17:00:00","15.4","17.22","13.22","1371.32","97.03","ND","1.6","250.9","29.4","52.9","276.6","0"],
    [2927,"2010-09-05T18:00:00","12.9","18.77","11.93","1336.90","106.76","ND","0.7","303.3","27.9","56","74.3","0"],
    [2928,"2010-09-05T19:00:00","7.2","14.74","11.83","1307.13","48.39","ND","0.2","138.5","27","58.6","0.4","0"],
    [2929,"2010-09-05T20:00:00","41.4","10.10","15.19","1314.76","32.00","ND","0.3","264.4","25.9","64.3","0","0"],
    [2930,"2010-09-05T21:00:00","22.1","10.17","33.68","1884.47","11.57","ND","0.1","125.4","24.9","69.7","0","0"],
    [2931,"2010-09-05T22:00:00","65.3","11.55","43.47","2416.42","5.85","ND","0.7","184.3","24.8","69.3","0","0"],
    [2932,"2010-09-05T23:00:00","45.9","12.70","39.02","2862.10","5.16","ND","0.1","356.9","24","72.6","0","0"],
    [2933,"2010-09-06T00:00:00","39.9","12.59","33.04","2466.21","5.97","ND","0.4","202.4","23.2","76.6","0","0"],
    [2934,"2010-09-06T01:00:00","52.8","11.02","33.00","2106.57","3.71","ND","0.1","250.2","22.9","78.9","0","0"],
    [2935,"2010-09-06T02:00:00","59.9","8.87","27.29","1888.31","5.01","ND","0.2","233","22.5","81.9","0","0"],
    [2936,"2010-09-06T03:00:00","47","9.04","26.41","1931.19","3.89","ND","0.4","143.7","22.6","82.6","0","0"],
    [2937,"2010-09-06T04:00:00","41.7","7.49","23.58","1806.85","5.61","ND","0.2","270.5","22.3","84","0","0"],
    [2938,"2010-09-06T05:00:00","27.8","6.75","20.62","1532.56","6.96","ND","0.1","308.3","22","85.9","0","0"],
    [2939,"2010-09-06T06:00:00","41.8","6.33","17.97","1451.62","6.66","ND","0.1","338.4","22","85.4","0","0"],
    [2940,"2010-09-06T07:00:00","60.8","5.08","18.22","1428.93","3.79","ND","0.3","52.3","22","86.6","28.4","0"],
    [2941,"2010-09-06T08:00:00","80","5.68","19.00","1587.70","3.75","ND","0.3","154.6","22.8","83.1","107.2","0"],
    [2942,"2010-09-06T09:00:00","57.4","9.91","25.15","2251.56","5.42","ND","1.1","141.5","24.1","76.7","261.6","0"],
    [2943,"2010-09-06T10:00:00","30.3","11.91","32.15","2558.41","6.22","ND","0.8","124.2","25.1","70.4","246.1","0"],
    [2944,"2010-09-06T11:00:00","16.9","12.35","41.96","2372.20","11.13","ND","0.9","105.2","26.1","66.3","535.8","0"],
    [2945,"2010-09-06T12:00:00","22.4","16.49","29.06","1644.27","26.14","ND","1","25","26.3","64.5","228.1","0"],
    [2946,"2010-09-06T13:00:00","29.9","18.68","23.36","1461.27","41.72","ND","1.9","209.6","25.2","65.6","128.2","0"],
    [2947,"2010-09-06T14:00:00","17.1","23.02","21.77","1364.19","46.36","ND","1.8","256.6","26.1","61.1","401.3","0"],
    [2948,"2010-09-06T15:00:00","10.2","13.62","19.49","1448.79","19.62","ND","2.2","280.5","28.2","49.6","645.1","0"],
    [2949,"2010-09-06T16:00:00","6.2","7.57","17.65","1377.91","21.94","ND","1.4","120.6","27","58.9","51.7","0.25"],
    [2950,"2010-09-06T17:00:00","10.3","6.59","9.33","1234.03","38.40","ND","0.8","95.9","23.2","85.3","42.2","1.02"],
    [2951,"2010-09-06T18:00:00","19","6.20","21.30","1389.20","27.01","ND","0.7","128.7","22.4","88.2","9.9","0.76"],
    [2952,"2010-09-06T19:00:00","10.9","6.65","29.63","1555.79","13.46","ND","1.1","125.1","22.4","87","0.1","0"],
    [2953,"2010-09-06T20:00:00","12.4","7.30","30.02","1669.35","6.65","ND","0.5","216.5","22","86.6","0","0"],
    [2954,"2010-09-06T21:00:00","14.3","6.30","34.53","2018.65","8.41","ND","0.8","137.8","21.6","87.7","0","0"],
    [2955,"2010-09-06T22:00:00","25.6","6.45","38.88","2423.63","5.84","ND","0.3","195.2","21.3","89.1","0","0.25"],
    [2956,"2010-09-06T23:00:00","14.6","6.62","36.23","2341.96","4.38","ND","0.3","355.1","21","90.9","0","0"],
    [2957,"2010-09-07T00:00:00","47.6","6.70","35.42","2531.72","5.03","ND","0.2","4.4","20.7","92","0","0"],
    [2958,"2010-09-07T01:00:00","55.6","5.97","32.63","2359.77","3.64","ND","0.8","18.1","20.2","95.1","0","0"],
    [2959,"2010-09-07T02:00:00","49.8","5.52","30.02","2186.68","4.11","ND","0.5","24.5","20","96.1","0","0"],
    [2960,"2010-09-07T03:00:00","61.9","7.16","22.87","1802.22","3.61","ND","0.9","50.9","19.6","96.2","0","0"],
    [2961,"2010-09-07T04:00:00","47","8.54","20.51","1586.04","3.89","ND","0.1","81.4","19.7","95.2","0","0"],
    [2962,"2010-09-07T05:00:00","38.3","12.51","18.65","1440.30","4.14","ND","0.2","278.1","19.8","94.8","0","0"],
    [2963,"2010-09-07T06:00:00","44.8","10.84","19.45","1395.76","4.01","ND","0","203","19.7","94.4","0.2","0"],
    [2964,"2010-09-07T07:00:00","50.1","8.70","17.26","1406.54","3.51","ND","0.2","32.7","19.6","93.8","25.7","0"],
    [2965,"2010-09-07T08:00:00","73.2","9.13","14.09","1417.31","3.37","ND","0.1","24.8","20.4","91","122.5","0"],
    [2966,"2010-09-07T09:00:00","89.6","10.55","18.38","1951.31","3.84","ND","0.7","112.2","21.8","86.3","187.1","0"],
    [2967,"2010-09-07T10:00:00","77.7","12.21","29.79","2425.27","4.80","ND","0.9","91.6","23","79.1","332.9","0"],
    [2968,"2010-09-07T11:00:00","44.4","17.96","46.43","2583.08","6.22","ND","0.9","60.8","24","75","344.4","0"],
    [2969,"2010-09-07T12:00:00","48.4","24.39","33.11","1769.73","20.54","ND","1.4","38.2","24.9","70.6","556.6","0"],
    [2970,"2010-09-07T13:00:00","26.1","ND","27.68","ND","ND","ND","1.9","40.1","26","65.4","546.5","0"],
    [2971,"2010-09-07T14:00:00","28.4","61.15","ND","ND","ND","ND","3","31.3","26.7","60","477","0"],
    [2972,"2010-09-07T15:00:00","46.7","24.19","13.77","1163.66","ND","ND","3.2","25.7","25.4","63.7","240.5","0"],
    [2973,"2010-09-07T16:00:00","37.5","12.80","13.56","1296.27","56.57","ND","2.1","28.6","24.3","72.2","195.1","0"],
    [2974,"2010-09-07T17:00:00","27.5","13.99","20.56","1382.93","51.61","ND","0.6","18.9","24.5","73.3","129.2","0"],
    [2975,"2010-09-07T18:00:00","15.4","26.86","28.66","1475.35","42.79","ND","1.1","43.6","24.3","69.6","36","0"],
    [2976,"2010-09-07T19:00:00","12","62.03","48.42","1600.08","22.69","ND","0.8","53.4","23.7","72.1","0.6","0"],
    [2977,"2010-09-07T20:00:00","25","59.38","39.44","1585.45","25.40","ND","0.5","267","22.6","79.5","0","0"],
    [2978,"2010-09-07T21:00:00","16","19.55","33.33","1681.84","25.17","ND","0.3","265.7","22.7","78.4","0","0"],
    [2979,"2010-09-07T22:00:00","33","17.89","44.82","2546.35","5.10","ND","0.1","299.1","22.7","80.6","0","0"],
    [2980,"2010-09-07T23:00:00","25","15.60","46.37","2966.96","4.24","ND","0","266.2","22.6","79.8","0","0"],
    [2981,"2010-09-08T00:00:00","33.9","13.05","44.13","3215.96","4.32","ND","0.3","244.9","22.4","81.4","0","0"],
    [2982,"2010-09-08T01:00:00","18.6","10.75","41.32","2634.62","4.77","ND","0.1","172.8","22.4","80.6","0","0"],
    [2983,"2010-09-08T02:00:00","29.5","9.53","36.29","2350.72","3.73","ND","0.8","136","21.8","87.7","0","0"],
    [2984,"2010-09-08T03:00:00","15.3","8.87","36.63","2175.95","3.44","ND","0.3","156.6","21.3","90.1","0","0"],
    [2985,"2010-09-08T04:00:00","26.9","7.76","25.87","1912.04","7.35","ND","0.1","284.8","21.1","91.6","0","0"],
    [2986,"2010-09-08T05:00:00","37.5","6.49","17.88","1684.62","9.20","ND","0.1","48.3","20.9","92.1","0","0"],
    [2987,"2010-09-08T06:00:00","46.7","4.81","20.15","1706.07","5.09","ND","0.1","315.5","20.5","92.5","0.1","0"],
    [2988,"2010-09-08T07:00:00","36.8","5.81","23.15","1703.74","3.79","ND","0.2","270.6","20.7","91.1","13.6","0"],
    [2989,"2010-09-08T08:00:00","49.2","7.85","21.57","1750.07","3.77","ND","0.1","32.7","21.5","87.3","63.1","0"],
    [2990,"2010-09-08T09:00:00","73.3","8.60","22.82","2219.02","4.00","ND","0.6","74.8","22","87.5","219.9","0"],
    [2991,"2010-09-08T10:00:00","67.3","9.62","31.94","2540.33","5.32","ND","0.9","99.5","24.1","76.2","550.6","0"],
    [2992,"2010-09-08T11:00:00","58.2","16.90","41.16","2409.93","7.67","ND","1","128.8","26","64.3","732.7","0"],
    [2993,"2010-09-08T12:00:00","47","31.15","56.84","2275.91","24.63","ND","0.4","111.5","27.5","56.2","670.9","0"],
    [2994,"2010-09-08T13:00:00","24.3","28.27","41.97","1929.21","65.44","ND","1.4","105.8","28.1","54.1","679.1","0"],
    [2995,"2010-09-08T14:00:00","13.9","16.20","25.25","1655.26","99.81","ND","0.9","88.9","28.7","53","558.1","0"],
    [2996,"2010-09-08T15:00:00","8.3","11.96","18.08","1496.18","82.33","ND","1.3","112.6","29","51.6","383.8","0"],
    [2997,"2010-09-08T16:00:00","35.5","9.37","16.26","1462.84","97.03","ND","1.5","74.6","28.2","56.1","133.2","0"],
    [2998,"2010-09-08T17:00:00","32.1","8.55","16.96","1458.97","85.78","ND","0.8","273.4","27.3","58","71.9","0"],
    [2999,"2010-09-08T18:00:00","45.3","8.29","19.81","1535.42","79.10","ND","2.4","26.3","25.2","62.8","31.5","0"],
    [3000,"2010-09-08T19:00:00","49","9.57","28.20","1662.25","37.74","ND","1","26.3","22.6","75.1","0.5","0"],
    [3001,"2010-09-08T20:00:00","96.3","14.06","31.80","1636.39","24.12","ND","0.6","50.2","22.5","77","0","0"],
    [3002,"2010-09-08T21:00:00","95.3","16.29","35.17","1783.51","16.25","ND","0.6","81.4","22.9","75.3","0","0"],
    [3003,"2010-09-08T22:00:00","74.1","22.32","36.66","2036.19","9.47","ND","0.9","46.2","22.3","78.2","0","0"],
    [3004,"2010-09-08T23:00:00","47.9","21.34","34.49","2043.41","8.01","ND","0.5","82.8","21.7","82.2","0","0"],
    [3005,"2010-09-09T00:00:00","34.5","22.21","30.06","1857.99","9.51","ND","0.1","264.3","21.9","81.4","0","0"],
    [3006,"2010-09-09T01:00:00","27.2","19.81","25.67","1802.57","10.91","ND","1.8","223.3","21.7","81.4","0","0"],
    [3007,"2010-09-09T02:00:00","23.9","15.63","30.10","1835.33","5.61","ND","1.9","199.6","21.1","82.3","0","0"],
    [3008,"2010-09-09T03:00:00","31.9","12.98","21.99","1695.92","8.72","ND","1","171.6","20.9","82.4","0","0"],
    [3009,"2010-09-09T04:00:00","31.9","10.08","13.41","1559.19","15.00","ND","0.4","357.9","20.5","86.3","0","0"],
    [3010,"2010-09-09T05:00:00","70.1","8.23","11.04","1466.80","14.59","ND","0.8","351.9","20.2","89.4","0","0"],
    [3011,"2010-09-09T06:00:00","57.4","17.04","15.90","1476.57","9.65","ND","0.3","1","20.5","86.3","0.2","0"],
    [3012,"2010-09-09T07:00:00","61.4","83.72","19.38","1636.05","7.34","ND","0.8","12.4","20.1","89.5","24","0"],
    [3013,"2010-09-09T08:00:00","69.2","36.72","17.88","1645.08","4.90","ND","0.4","78","20.7","87.3","112.7","0"],
    [3014,"2010-09-09T09:00:00","54.7","25.98","24.00","1840.40","5.34","ND","0.7","82.9","21.7","83.3","266.9","0"],
    [3015,"2010-09-09T10:00:00","66","27.52","32.56","2016.60","6.66","ND","1.4","40.8","23.3","72.5","474.6","0"],
    [3016,"2010-09-09T11:00:00","34.6","40.41","44.72","2152.85","10.73","ND","1.9","20.3","24.4","63.9","622.6","0"],
    [3017,"2010-09-09T12:00:00","19","57.06","31.73","1703.52","25.03","ND","1.8","25.1","26.3","57.8","863.5","0"],
    [3018,"2010-09-09T13:00:00","18.2","62.34","19.82","1403.74","38.61","ND","2.2","48.6","27.4","53.3","845.8","0"],
    [3019,"2010-09-09T14:00:00","16.1","65.51","20.60","1420.45","48.41","ND","2","36","27.7","52.7","485.1","0"],
    [3020,"2010-09-09T15:00:00","10.1","54.25","48.31","1502.78","53.72","ND","1.6","45.3","27.6","53.1","342.7","0"],
    [3021,"2010-09-09T16:00:00","42.8","44.22","57.60","1606.29","51.94","ND","1.3","48.3","27.7","52.8","266.4","0"],
    [3022,"2010-09-09T17:00:00","46.1","50.08","42.38","1606.82","51.29","ND","1","27.5","28","54.7","227.8","0"],
    [3023,"2010-09-09T18:00:00","30.8","41.34","48.93","1620.00","53.04","ND","1.3","357","27.4","58.2","125.2","0"],
    [3024,"2010-09-09T19:00:00","28.3","60.94","61.02","1709.15","42.85","ND","1.6","247.3","26.4","58.9","3.8","0"],
    [3025,"2010-09-09T20:00:00","27.7","24.11","27.15","1565.35","30.28","ND","0.2","281","25.3","63.4","0","0"],
    [3026,"2010-09-09T21:00:00","14.4","15.40","28.32","1846.28","19.68","ND","0.3","314.4","24.6","66.5","0","0"],
    [3027,"2010-09-09T22:00:00","33.4","16.15","42.30","2299.58","7.17","ND","0.7","141.1","24.7","66.5","0","0"],
    [3028,"2010-09-09T23:00:00","32","14.68","43.56","2323.24","6.16","ND","0.5","189.4","23.5","73.3","0","0"],
    [3029,"2010-09-10T00:00:00","51.8","17.21","43.27","2621.63","4.61","ND","0.1","254.3","22.6","77.3","0","0"],
    [3030,"2010-09-10T01:00:00","43.3","15.26","32.97","2511.40","5.14","ND","0.3","344.1","21.6","81.3","0","0"],
    [3031,"2010-09-10T02:00:00","51.1","11.89","30.74","2344.35","3.82","ND","0.4","3.9","21.3","83.4","0","0"],
    [3032,"2010-09-10T03:00:00","26.5","11.62","27.73","2149.63","3.80","ND","0","231.5","21.1","83.7","0","0"],
    [3033,"2010-09-10T04:00:00","22.2","13.71","25.39","1899.43","4.28","ND","0","216.7","20.8","85","0","0"],
    [3034,"2010-09-10T05:00:00","15.5","9.74","21.65","1965.26","3.35","ND","0.3","284.9","20.5","85.6","0","0"],
    [3035,"2010-09-10T06:00:00","39.5","9.24","18.33","1782.73","4.31","ND","0.9","11.5","19.9","88.2","0.2","0"],
    [3036,"2010-09-10T07:00:00","52.2","8.83","17.07","1689.00","4.40","ND","0.5","39.3","19.8","92.7","27.7","0"],
    [3037,"2010-09-10T08:00:00","86.5","18.64","23.78","1902.29","4.47","ND","0.4","117.7","22.2","81","242.9","0"],
    [3038,"2010-09-10T09:00:00","84.4","20.22","25.30","2008.67","4.08","ND","0.7","77.8","24.4","72.6","430.4","0"],
    [3039,"2010-09-10T10:00:00","96.6","92.86","45.68","2503.83","5.60","ND","1.6","111.2","25.8","65.9","599.3","0"],
    [3040,"2010-09-10T11:00:00","50.4","86.88","53.78","2331.83","17.89","ND","1.5","126.1","27.4","59.2","813.4","0"],
    [3041,"2010-09-10T12:00:00","46.4","43.21","45.45","2124.89","37.68","ND","1.1","126.9","28.7","54.6","751.2","0"],
    [3042,"2010-09-10T13:00:00","32.7","26.61","24.77","1728.15","63.08","ND","0.5","145.8","29.7","51.2","809.6","0"],
    [3043,"2010-09-10T14:00:00","60","20.95","16.78","1605.87","79.49","ND","0.9","258.6","31","45.8","672.2","0"],
    [3044,"2010-09-10T15:00:00","60.2","18.34","16.79","1589.40","106.12","ND","1.1","1.2","30.9","47.3","436.5","0"],
    [3045,"2010-09-10T16:00:00","75.6","18.12","21.82","1658.97","128.98","ND","2.1","354.2","30.2","51.2","239","0"],
    [3046,"2010-09-10T17:00:00","38.6","23.86","25.33","1666.80","145.57","ND","1.5","286.2","29.8","49.5","200.1","0"],
    [3047,"2010-09-10T18:00:00","51.8","35.04","32.32","1699.53","104.48","ND","1.8","280.7","29.1","48.1","68.1","0"],
    [3048,"2010-09-10T19:00:00","33.8","13.12","23.58","1591.08","33.52","ND","0.3","107.7","28.1","49.8","1.2","0"],
    [3049,"2010-09-10T20:00:00","56.2","9.50","21.75","1516.36","33.31","ND","0.5","53.8","27.1","54.1","0","0"],
    [3050,"2010-09-10T21:00:00","83.1","11.58","47.70","2238.14","10.57","ND","0.4","38.2","26.1","62.3","0","0"],
    [3051,"2010-09-10T22:00:00","93.4","16.99","53.38","2518.14","6.70","ND","0","276.7","25.3","66.2","0","0"],
    [3052,"2010-09-10T23:00:00","74.1","18.39","41.99","2396.73","9.86","ND","0.5","162.9","24.7","69.1","0","0"],
    [3053,"2010-09-11T00:00:00","69.8","17.70","43.16","2552.13","4.21","ND","0.4","106.6","24.4","71.3","0","0"],
    [3054,"2010-09-11T01:00:00","37","18.83","38.42","2766.79","5.33","ND","0.1","189.8","24","73.5","0","0"],
    [3055,"2010-09-11T02:00:00","19.5","17.99","33.07","2294.94","5.59","ND","0.4","82.9","23.2","78.6","0","0"],
    [3056,"2010-09-11T03:00:00","10.5","15.31","30.96","1981.32","4.35","ND","0.1","156.7","22.5","82.1","0","0"],
    [3057,"2010-09-11T04:00:00","19.4","13.23","26.33","1760.79","5.27","ND","0.4","259.8","22","83.7","0","0"],
    [3058,"2010-09-11T05:00:00","25.8","10.63","20.94","1633.07","5.34","ND","0.4","255.7","22.1","84.4","0","0"],
    [3059,"2010-09-11T06:00:00","32.4","9.32","21.93","1747.07","3.94","ND","0.2","209.7","22.2","83.3","0.1","0"],
    [3060,"2010-09-11T07:00:00","38.8","7.81","20.84","1622.83","3.79","ND","2.2","163.7","22.2","78.9","6.2","0"],
    [3061,"2010-09-11T08:00:00","20.1","7.14","21.33","1668.22","3.15","ND","2","159.2","21.2","79.7","89.5","0"],
    [3062,"2010-09-11T09:00:00","11.6","9.13","21.94","1662.57","7.52","ND","0.6","225.2","22.8","70.3","299.1","0"],
    [3063,"2010-09-11T10:00:00","12.4","6.61","22.36","1592.01","16.03","ND","0.6","356.4","25.2","62","414.7","0"],
    [3064,"2010-09-11T11:00:00","18.2","7.58","21.30","1604.93","31.73","ND","0.9","86.9","27.3","55.6","545.7","0"],
    [3065,"2010-09-11T12:00:00","26.6","18.35","24.22","1616.23","45.92","ND","1.7","48.9","28.6","51","889.6","0"],
    [3066,"2010-09-11T13:00:00","14.8","42.35","29.03","1727.58","67.27","ND","1.2","19.2","29.9","47.9","742.9","0"],
    [3067,"2010-09-11T14:00:00","36","20.61","19.30","1595.29","97.64","ND","1.2","316.7","29.7","48.4","401.6","0"],
    [3068,"2010-09-11T15:00:00","18.8","41.20","14.71","1431.32","97.99","ND","2.8","296.5","30.7","41.8","699.9","0"],
    [3069,"2010-09-11T16:00:00","10","37.71","15.03","1412.70","89.00","ND","3.3","266.9","30.4","38.1","405.6","0"],
    [3070,"2010-09-11T17:00:00","9.4","10.48","9.84","1411.30","45.87","ND","1.2","273.2","30.4","36.7","214.4","0"],
    [3071,"2010-09-11T18:00:00","6.8","6.70","10.80","1294.67","51.65","ND","2.2","248.5","29.3","40.8","57.7","0"],
    [3072,"2010-09-11T19:00:00","4.1","6.30","14.73","1394.57","53.13","ND","0.5","67.9","28.4","41","1.3","0"],
    [3073,"2010-09-11T20:00:00","19.4","4.66","22.10","1564.22","39.64","ND","0.3","36.1","27.4","42.3","0","0"],
    [3074,"2010-09-11T21:00:00","28.9","6.95","46.31","1859.28","18.16","ND","0.2","102.5","26.3","49.4","0","0"],
    [3075,"2010-09-11T22:00:00","66.4","7.79","40.84","1806.45","22.25","ND","0.3","114.5","25.8","52.8","0","0"],
    [3076,"2010-09-11T23:00:00","85.1","13.98","55.99","2722.38","4.74","ND","0.6","123.4","24.4","64.5","0","0"],
    [3077,"2010-09-12T00:00:00","109","16.37","51.78","2881.12","4.03","ND","0.4","164","23.4","70.3","0","0"],
    [3078,"2010-09-12T01:00:00","86.2","15.01","37.54","2415.65","4.63","ND","0.2","170.2","23.1","72.2","0","0"],
    [3079,"2010-09-12T02:00:00","72.7","13.30","30.75","2162.78","3.10","ND","0","43.6","22.4","77.4","0","0"],
    [3080,"2010-09-12T03:00:00","38.5","10.49","27.72","2180.38","4.18","ND","0.7","171.2","22.5","76.2","0","0"],
    [3081,"2010-09-12T04:00:00","51.2","9.69","25.33","1794.87","4.09","ND","0.8","124.5","22.7","74.1","0","0"],
    [3082,"2010-09-12T05:00:00","49.3","9.46","22.43","1841.56","3.82","ND","0.6","142.6","22.5","73.9","0","0"],
    [3083,"2010-09-12T06:00:00","27.2","7.53","23.36","1647.20","5.92","ND","0.2","36.1","21.6","80.5","0.1","0"],
    [3084,"2010-09-12T07:00:00","16","7.87","20.30","1630.85","5.26","ND","0","189.9","22","77.5","25.5","0"],
    [3085,"2010-09-12T08:00:00","47.1","10.09","20.04","1553.68","4.29","ND","0.2","306.1","22.6","76.5","96.2","0"],
    [3086,"2010-09-12T09:00:00","51.4","9.38","21.69","1625.02","4.59","ND","0.4","49.6","23.4","73.7","162.5","0"],
    [3087,"2010-09-12T10:00:00","42.7","12.64","26.83","1766.16","6.09","ND","1.2","58.6","24.2","70.5","433.9","0"],
    [3088,"2010-09-12T11:00:00","25.6","72.54","35.84","1713.80","7.40","ND","1.9","63.5","26.3","62.4","719.4","0"],
    [3089,"2010-09-12T12:00:00","17","95.56","29.28","1564.82","20.14","ND","2.6","55.5","27.3","55.3","680.1","0"],
    [3090,"2010-09-12T13:00:00","8.5","45.42","17.44","1477.70","42.85","ND","2.2","37.5","28","53.6","658","0"],
    [3091,"2010-09-12T14:00:00","4.3","20.35","8.69","1342.28","45.53","ND","1.6","53","27.7","53.8","644.4","0"],
    [3092,"2010-09-12T15:00:00","2.1","13.01","7.41","1294.71","50.39","ND","1.2","328.8","29.4","48.3","641","0"],
    [3093,"2010-09-12T16:00:00","1.1","13.08","6.31","1290.40","53.91","ND","1.4","339.7","29.8","46.8","434.6","0"],
    [3094,"2010-09-12T17:00:00","15.3","29.50","10.20","1361.95","69.95","ND","1","9.9","29.6","46.1","245.8","0"],
    [3095,"2010-09-12T18:00:00","10.4","47.15","15.40","1337.78","61.91","ND","2.1","52.5","28.3","49.7","72.5","0"],
    [3096,"2010-09-12T19:00:00","7.4","48.75","16.15","1401.54","54.29","ND","0.9","245.3","26.7","57.1","0.6","0"],
    [3097,"2010-09-12T20:00:00","15.4","35.31","19.43","1451.70","40.34","ND","0.1","145.1","26","60","0","0"],
    [3098,"2010-09-12T21:00:00","9.6","13.25","22.92","1643.72","23.84","ND","0.1","17.1","24.9","65","0","0"],
    [3099,"2010-09-12T22:00:00","20.4","11.76","33.78","1935.43","11.61","ND","0.6","133.7","23.6","70.6","0","0"],
    [3100,"2010-09-12T23:00:00","11.5","12.88","43.21","2394.47","4.61","ND","0.4","139.1","23.3","71","0","0"],
    [3101,"2010-09-13T00:00:00","17.2","10.86","31.54","2016.16","3.63","ND","0.1","20.3","22.6","74.6","0","0"],
    [3102,"2010-09-13T01:00:00","10.8","9.56","28.85","1965.94","4.94","ND","0.2","315.6","22.1","77.6","0","0"],
    [3103,"2010-09-13T02:00:00","18.6","9.34","29.90","1917.24","3.73","ND","0.5","244.5","21.9","78.6","0","0"],
    [3104,"2010-09-13T03:00:00","10.9","10.22","27.58","1904.60","3.34","ND","0.2","353.3","22.2","77.2","0","0"],
    [3105,"2010-09-13T04:00:00","18.5","8.80","26.18","1827.10","2.80","ND","0.7","0.1","20.9","83.1","0","0"],
    [3106,"2010-09-13T05:00:00","15.7","7.73","25.78","1762.56","3.56","ND","0.2","322.7","20.7","83.3","0","0"],
    [3107,"2010-09-13T06:00:00","22.9","8.47","20.36","1490.38","4.66","ND","0","317.2","20.7","83.1","0.2","0"],
    [3108,"2010-09-13T07:00:00","37.1","8.32","19.19","1490.38","3.81","ND","0.5","5.5","20.9","81.9","60.9","0"],
    [3109,"2010-09-13T08:00:00","53","7.73","19.45","1660.87","3.85","ND","0.2","20.7","22.7","73.7","227.5","0"],
    [3110,"2010-09-13T09:00:00","71.8","10.19","24.86","1989.34","4.26","ND","0.7","76","24.7","66.6","413.6","0"],
    [3111,"2010-09-13T10:00:00","48","25.16","34.92","2048.57","7.37","ND","1.1","70.7","25.7","63.3","535.3","0"],
    [3112,"2010-09-13T11:00:00","38.6","61.09","45.54","2021.01","14.38","ND","0.7","11.7","27.1","57.4","750.3","0"],
    [3113,"2010-09-13T12:00:00","37","50.14","35.79","1788.20","39.78","ND","0.6","18.2","28.6","52.5","754.3","0"],
    [3114,"2010-09-13T13:00:00","21","42.48","22.30","1611.63","62.68","ND","1","42.9","29.5","49.8","696.2","0"],
    [3115,"2010-09-13T14:00:00","18.9","50.43","19.06","1558.30","72.47","ND","0.6","14.5","30.1","47.2","408.7","0"],
    [3116,"2010-09-13T15:00:00","19.5","55.11","20.94","1561.39","81.77","ND","2","272.7","29.3","48.1","132.3","0"],
    [3117,"2010-09-13T16:00:00","11.8","33.81","15.40","1510.78","81.28","ND","3.4","279.5","29.5","48.1","442.8","0"],
    [3118,"2010-09-13T17:00:00","6.9","17.02","17.88","1662.96","51.08","ND","2.5","271.7","29.5","48.1","245.6","0"],
    [3119,"2010-09-13T18:00:00","25.7","9.81","14.84","1581.55","44.56","ND","1.3","266","28.1","51.3","59.4","0"],
    [3120,"2010-09-13T19:00:00","13.8","11.15","19.92","1643.69","46.52","ND","0.3","223.4","27.3","53.4","0.5","0"],
    [3121,"2010-09-13T20:00:00","43.8","10.01","27.86","1754.76","35.36","ND","0.3","339.5","26.1","58.5","0","0"],
    [3122,"2010-09-13T21:00:00","12.6","10.68","41.93","2092.70","16.03","ND","0.1","256.8","25.4","60.7","0","0"],
    [3123,"2010-09-13T22:00:00","33.6","15.48","56.99","2982.58","5.17","ND","0.3","128.6","24.8","64.6","0","0"],
    [3124,"2010-09-13T23:00:00","38","13.56","49.86","2678.92","4.14","ND","0.5","147.2","24","69.4","0","0"],
    [3125,"2010-09-14T00:00:00","56.4","13.97","44.77","2648.89","4.91","ND","0.1","282.3","23","74.3","0","0"],
    [3126,"2010-09-14T01:00:00","39","12.13","36.05","2184.80","4.74","ND","0.1","6.3","22.6","76.4","0","0"],
    [3127,"2010-09-14T02:00:00","46.9","9.77","33.74","2238.67","3.89","ND","0.1","299.5","22.3","77.7","0","0"],
    [3128,"2010-09-14T03:00:00","34.2","10.65","29.97","1963.94","3.71","ND","0.4","179.9","22.4","77.3","0","0"],
    [3129,"2010-09-14T04:00:00","36.2","7.74","26.59","1680.71","4.09","ND","0.9","118.6","22.5","77.7","0","0"],
    [3130,"2010-09-14T05:00:00","24.5","7.30","23.74","1726.71","2.96","ND","0.4","70.6","21.9","80.6","0","0"],
    [3131,"2010-09-14T06:00:00","76.2","8.30","18.17","1564.49","6.82","ND","0.2","109.6","21.6","82.2","0.1","0"],
    [3132,"2010-09-14T07:00:00","58.3","8.50","18.43","1528.92","7.06","ND","0.5","291.2","21.8","82.3","27.8","0"],
    [3133,"2010-09-14T08:00:00","58.9","8.87","21.84","1541.30","4.10","ND","0.3","145.2","23","77","151.7","0"],
    [3134,"2010-09-14T09:00:00","64.7","8.33","22.99","1843.43","4.54","ND","0.8","68.3","24.4","72.8","360.2","0"],
    [3135,"2010-09-14T10:00:00","91","10.43","29.96","2126.54","6.89","ND","0.9","49.4","26.2","64.3","627.4","0"],
    [3136,"2010-09-14T11:00:00","67.3","21.34","51.66","2415.46","16.53","ND","1.1","58.8","27.6","57.7","773.6","0"],
    [3137,"2010-09-14T12:00:00","41.8","183.22","55.34","1918.30","28.84","ND","1.7","62.9","28.6","54.7","796.3","0"],
    [3138,"2010-09-14T13:00:00","23.4","62.00","27.81","1715.98","64.21","ND","1.3","31.7","29.9","50.9","811.7","0"],
    [3139,"2010-09-14T14:00:00","27.8","39.76","13.96","1548.71","77.15","ND","2","81.3","30.2","50.9","566.9","0"],
    [3140,"2010-09-14T15:00:00","19.2","41.11","14.49","1550.25","90.21","ND","1.2","86","30.2","50.6","353.9","0"],
    [3141,"2010-09-14T16:00:00","92.1","20.66","13.64","1573.56","76.75","ND","0.9","144","30.4","50.4","289.7","0"],
    [3142,"2010-09-14T17:00:00","ND","19.69","18.70","1632.91","75.40","ND","2.5","245.5","29.8","51.3","122.4","0"],
    [3143,"2010-09-14T18:00:00","15.2","ND","ND","ND","ND","ND","1.7","253.2","29","51.4","75.9","0"],
    [3144,"2010-09-14T19:00:00","23.4","12.32","ND","1021.67","ND","ND","0.3","266","28","54.4","0.5","0"],
    [3145,"2010-09-14T20:00:00","13.6","10.72","28.17","1006.71","29.49","ND","0.2","29.1","27.6","55.2","0","0"],
    [3146,"2010-09-14T21:00:00","24.4","11.05","35.51","1213.38","22.74","ND","0.8","136.1","26.9","59.4","0","0"],
    [3147,"2010-09-14T22:00:00","27.1","10.23","29.46","1049.15","18.21","ND","0.3","149.5","25.5","67.3","0","0"],
    [3148,"2010-09-14T23:00:00","45","11.78","37.24","1250.81","6.41","ND","0.3","57.2","24.9","70.9","0","0"],
    [3149,"2010-09-15T00:00:00","33.1","11.53","33.76","1500.24","8.63","ND","0.2","189","25","70.6","0","0"],
    [3150,"2010-09-15T01:00:00","71.7","14.78","34.71","1535.11","5.69","ND","0.4","104.3","24","75.3","0","0"],
    [3151,"2010-09-15T02:00:00","48.5","14.18","32.34","1438.62","5.55","ND","0.5","139.8","23.7","77.1","0","0"],
    [3152,"2010-09-15T03:00:00","43.3","11.74","26.59","1094.99","6.90","ND","0.3","179","23.3","79.4","0","0"],
    [3153,"2010-09-15T04:00:00","31.8","9.90","21.55","979.60","7.20","ND","0.5","196.1","23.2","80.1","0","0"],
    [3154,"2010-09-15T05:00:00","65.2","9.01","19.73","1002.05","7.53","ND","0.5","223.6","22.8","81.7","0","0"],
    [3155,"2010-09-15T06:00:00","50.9","7.15","19.11","989.32","5.57","ND","0.3","95.2","22.8","81","0.2","0"],
    [3156,"2010-09-15T07:00:00","67.7","6.55","16.73","909.72","7.23","ND","0.3","24.6","22.3","83.6","40.5","0"],
    [3157,"2010-09-15T08:00:00","66.1","6.65","19.17","999.00","6.09","ND","0.3","346","23.2","79.6","165.1","0"],
    [3158,"2010-09-15T09:00:00","97","11.33","25.27","1446.13","5.34","ND","0.5","75.5","25.1","71.9","376.9","0"],
    [3159,"2010-09-15T10:00:00","76.8","16.15","39.13","1994.03","8.13","ND","2","126.6","26.4","66.3","524.7","0"],
    [3160,"2010-09-15T11:00:00","78.8","19.72","66.76","2209.90","24.84","ND","1","122.3","27.4","61.2","659.3","0"],
    [3161,"2010-09-15T12:00:00","58.3","18.62","38.69","1455.09","35.53","ND","0.7","99.7","28.6","55.6","704","0"],
    [3162,"2010-09-15T13:00:00","53","16.87","20.17","985.53","56.23","ND","1.2","104.4","30","52.4","555.8","0"],
    [3163,"2010-09-15T14:00:00","32.5","14.39","18.00","966.81","81.71","ND","0.7","157.9","29.6","53.2","148.8","0"],
    [3164,"2010-09-15T15:00:00","44.8","16.36","21.04","1035.33","112.63","ND","1.9","234.7","28.6","53.5","58.6","0"],
    [3165,"2010-09-15T16:00:00","24.6","17.58","19.98","915.96","81.91","ND","2.8","243.4","27.9","55.4","148.1","0"],
    [3166,"2010-09-15T17:00:00","14.8","10.74","27.84","1110.49","23.30","ND","2","270.8","28.4","51.1","203.6","0"],
    [3167,"2010-09-15T18:00:00","8.9","8.43","22.73","1008.05","25.52","ND","0.5","230.2","27.7","53.1","45.2","0"],
    [3168,"2010-09-15T19:00:00","18.2","7.22","20.13","901.67","36.22","ND","0.4","313","25.5","65.4","0.2","3.56"],
    [3169,"2010-09-15T20:00:00","17.6","7.56","29.24","1101.63","19.72","ND","0.3","82","23.3","83.6","0","0"],
    [3170,"2010-09-15T21:00:00","32.2","6.41","28.88","1241.59","18.40","ND","0.2","178.5","22.9","83.8","0","0"],
    [3171,"2010-09-15T22:00:00","34.9","8.79","35.07","2024.81","8.03","ND","0.3","325.2","22.5","84.8","0","0"],
    [3172,"2010-09-15T23:00:00","38.2","8.83","27.81","1703.99","7.16","ND","0.1","293.7","22.6","85.1","0","0"],
    [3173,"2010-09-16T00:00:00","50.4","7.93","28.94","1840.94","5.35","ND","0.2","101.3","22.5","84","0","0"],
    [3174,"2010-09-16T01:00:00","44.2","8.81","26.45","2192.47","6.87","ND","0.4","127.7","22.3","82","0","0"],
    [3175,"2010-09-16T02:00:00","36.8","7.35","27.03","1589.32","5.25","ND","0.1","145.3","21.7","84.3","0","0"],
    [3176,"2010-09-16T03:00:00","33.2","7.46","22.35","1132.92","4.48","ND","0.2","281.8","21.2","87.6","0","0"],
    [3177,"2010-09-16T04:00:00","21.3","6.00","20.45","1063.14","6.32","ND","0.2","227.4","21.2","86.7","0","0"],
    [3178,"2010-09-16T05:00:00","31.6","4.91","18.28","1006.59","3.64","ND","0.3","279.2","21.3","87.3","0","0"],
    [3179,"2010-09-16T06:00:00","18","4.86","18.17","961.68","3.90","ND","0.1","329.4","20.9","88.3","0.1","0"],
    [3180,"2010-09-16T07:00:00","49.3","4.24","17.24","994.26","4.12","ND","0.7","14.4","20.8","87","34.4","0"],
    [3181,"2010-09-16T08:00:00","72","4.73","17.83","1174.64","3.71","ND","0.9","53.3","21.4","86","165.2","0"],
    [3182,"2010-09-16T09:00:00","84.6","8.72","22.55","1448.66","4.36","ND","0.4","64.5","23.4","77","344.8","0"],
    [3183,"2010-09-16T10:00:00","63.2","15.87","32.18","1686.40","6.42","ND","0.6","44.7","25.1","69.1","604.8","0"],
    [3184,"2010-09-16T11:00:00","69.3","23.67","43.65","1489.79","14.04","ND","1.2","52.7","26.8","60.8","769.7","0"],
    [3185,"2010-09-16T12:00:00","39.1","38.83","42.65","1313.88","34.65","ND","1.1","80.2","28.1","56.5","748","0"],
    [3186,"2010-09-16T13:00:00","41.6","36.51","21.35","983.90","61.80","ND","0.9","22.4","29.5","52.4","793.6","0"],
    [3187,"2010-09-16T14:00:00","30.6","38.75","18.28","860.55","73.78","ND","1.3","17.7","30.3","49.8","672.9","0"],
    [3188,"2010-09-16T15:00:00","37","44.27","18.67","851.17","99.00","ND","2.2","282.3","31","45.1","569.4","0"],
    [3189,"2010-09-16T16:00:00","20.3","40.26","18.45","829.76","86.74","ND","3.8","283.8","29.7","47.2","432.9","0"],
    [3190,"2010-09-16T17:00:00","11.5","16.48","12.93","826.21","40.32","ND","4.5","283.4","28.7","49.3","169.8","0"],
    [3191,"2010-09-16T18:00:00","9.6","8.17","10.81","765.49","35.09","ND","3.8","279.2","28.1","50.3","59.7","0"],
    [3192,"2010-09-16T19:00:00","19.6","6.09","11.08","763.97","34.70","ND","0.3","274.3","27.5","53.5","0.2","0"],
    [3193,"2010-09-16T20:00:00","14.1","6.10","13.50","774.00","36.01","ND","1.1","98.5","27.3","55.5","0","0"],
    [3194,"2010-09-16T21:00:00","25.7","8.19","27.03","1004.37","22.98","ND","1.5","128.5","26.6","57.5","0","0"],
    [3195,"2010-09-16T22:00:00","23.8","10.30","39.33","1289.97","6.67","ND","1.7","202.4","25.7","61.2","0","0"],
    [3196,"2010-09-16T23:00:00","24.2","9.32","31.96","1148.30","4.92","ND","1.1","57.7","25.1","64.6","0","0"],
    [3197,"2010-09-17T00:00:00","14","7.52","23.21","974.09","10.09","ND","1.2","76.5","24.4","68.8","0","0"],
    [3198,"2010-09-17T01:00:00","8.2","14.02","23.59","788.88","6.78","ND","0.4","45.9","23.7","73.5","0","0"],
    [3199,"2010-09-17T02:00:00","23.8","16.02","19.48","775.61","9.42","ND","1.3","30.9","22.6","79.9","0","0"],
    [3200,"2010-09-17T03:00:00","22.4","14.24","20.42","840.92","8.04","ND","0.5","84.4","22.4","80.3","0","0"],
    [3201,"2010-09-17T04:00:00","12","15.06","20.56","897.13","7.20","ND","0.7","115","21.8","87.6","0","1.52"],
    [3202,"2010-09-17T05:00:00","18.4","12.42","15.84","747.98","10.25","ND","0.1","40.2","21.1","92.2","0","3.81"],
    [3203,"2010-09-17T06:00:00","11.8","9.90","12.49","712.29","9.76","ND","0.2","126.7","20.8","95.4","0","3.05"],
    [3204,"2010-09-17T07:00:00","10.5","6.95","12.05","779.33","8.74","ND","0.3","44.7","21","94.3","8.6","0"],
    [3205,"2010-09-17T08:00:00","7.6","6.44","17.86","802.46","5.98","ND","0.3","82.2","21.3","92.7","52.1","0.25"],
    [3206,"2010-09-17T09:00:00","20.1","6.62","21.76","1176.64","5.29","ND","0.5","10.6","22.1","89.3","233.9","0"],
    [3207,"2010-09-17T10:00:00","10.7","7.84","27.62","1679.00","5.25","ND","0.5","60","23.5","80.8","360.7","0"],
    [3208,"2010-09-17T11:00:00","13.8","8.24","38.23","1846.54","10.33","ND","0.9","107.3","25.8","68.7","756.4","0"],
    [3209,"2010-09-17T12:00:00","18.1","11.01","46.51","1734.51","24.71","ND","0.6","46.3","27.1","62.3","567.7","0"],
    [3210,"2010-09-17T13:00:00","39.6","11.08","39.57","1534.39","64.84","ND","0.6","296.1","27.6","58.1","623.2","0"],
    [3211,"2010-09-17T14:00:00","21","11.05","29.64","1259.61","103.07","ND","0.2","302.3","29.2","51.6","576.3","0"],
    [3212,"2010-09-17T15:00:00","11.9","14.03","27.45","1150.14","80.56","ND","3","261.7","29.4","47.4","507.7","0"],
    [3213,"2010-09-17T16:00:00","7.3","24.54","16.09","837.02","64.74","ND","2.8","275.3","29","48.8","340.4","0"],
    [3214,"2010-09-17T17:00:00","11.4","10.14","12.56","812.69","37.19","ND","1.1","263.4","27","58.2","81.4","0.25"],
    [3215,"2010-09-17T18:00:00","14","7.23","13.69","864.97","30.60","ND","0.2","334.5","26.4","59.3","30.5","0.25"],
    [3216,"2010-09-17T19:00:00","8.5","7.87","24.35","1162.50","23.23","ND","1.2","295.9","26","59.1","0.1","0"],
    [3217,"2010-09-17T20:00:00","7.5","8.83","32.26","1310.37","10.63","ND","0.6","128.2","25.7","62","0","0"],
    [3218,"2010-09-17T21:00:00","23.9","5.73","17.61","953.09","15.24","ND","0.6","141.4","25.1","64.7","0","0"],
    [3219,"2010-09-17T22:00:00","23.6","8.13","29.50","1581.47","5.50","ND","0.7","108.7","24","71","0","0"],
    [3220,"2010-09-17T23:00:00","29.5","10.45","31.01","2352.03","5.30","ND","1.2","160","23.7","71.9","0","0"],
    [3221,"2010-09-18T00:00:00","35.6","11.53","27.66","1745.13","4.26","ND","1.2","159.7","23.5","75","0","0"],
    [3222,"2010-09-18T01:00:00","39.1","11.39","22.82","1766.75","4.69","ND","0.8","186.6","22.8","79.9","0","0"],
    [3223,"2010-09-18T02:00:00","21.6","10.74","24.43","1455.55","5.14","ND","1.2","145.4","22.7","78.8","0","0"],
    [3224,"2010-09-18T03:00:00","19","7.44","20.17","1170.87","5.53","ND","1.1","188.5","21.8","85.7","0","13.72"],
    [3225,"2010-09-18T04:00:00","11","6.35","20.03","1042.64","4.62","ND","0.3","279.4","20.7","94.8","0","0.51"],
    [3226,"2010-09-18T05:00:00","6.9","5.60","15.41","925.84","10.21","ND","0.3","324","21","91.7","0","0"],
    [3227,"2010-09-18T06:00:00","16.4","3.70","14.66","904.18","6.20","ND","0.2","18.3","21.3","89.8","0.1","0"],
    [3228,"2010-09-18T07:00:00","39.2","3.73","15.35","995.62","4.24","ND","0.1","79.9","21.6","89","35.9","0"],
    [3229,"2010-09-18T08:00:00","40.5","5.34","17.13","1007.96","3.72","ND","0.4","147","22.2","85.6","121.4","0"],
    [3230,"2010-09-18T09:00:00","56.6","7.99","23.08","1463.95","5.21","ND","0.7","57.6","23.2","80.4","229.2","0"],
    [3231,"2010-09-18T10:00:00","34.9","10.26","25.83","1457.52","5.48","ND","0.3","90.7","24.5","72.7","479.3","0"],
    [3232,"2010-09-18T11:00:00","53.9","14.65","44.19","1749.84","14.54","ND","0.7","135.8","26.1","64.7","680","0"],
    [3233,"2010-09-18T12:00:00","28.9","20.62","35.67","1333.81","31.99","ND","0.8","117.1","27.7","56.7","753.9","0"],
    [3234,"2010-09-18T13:00:00","21.3","20.15","33.14","1306.27","69.03","ND","1","103.7","29.3","51.7","786.5","0"],
    [3235,"2010-09-18T14:00:00","28.2","16.64","27.40","1243.49","107.22","ND","0.8","108.4","30","48.3","619.5","0"],
    [3236,"2010-09-18T15:00:00","29.6","14.95","22.23","1153.18","133.80","ND","0.5","16","30.1","48.4","378.3","0"],
    [3237,"2010-09-18T16:00:00","34.7","13.35","22.72","1118.60","135.47","ND","2.4","262.4","30.2","48.2","525.5","0"],
    [3238,"2010-09-18T17:00:00","32.1","16.02","23.44","1049.04","116.16","ND","2.4","276.7","29.6","48.9","276.3","0"],
    [3239,"2010-09-18T18:00:00","39.6","14.95","18.49","1000.43","76.98","ND","2.1","279.9","28.2","51.4","41.8","0"],
    [3240,"2010-09-18T19:00:00","37","9.43","17.30","926.33","64.82","ND","1.1","267.2","27.3","53.6","0.1","0"],
    [3241,"2010-09-18T20:00:00","20","7.79","20.42","923.56","49.60","ND","0.6","107.2","27.2","55.1","0","0"],
    [3242,"2010-09-18T21:00:00","40.3","6.76","23.56","1050.20","34.10","ND","0.7","119.5","26","60.4","0","0"],
    [3243,"2010-09-18T22:00:00","24.6","13.80","38.87","1436.81","19.65","ND","0.2","134.8","25","66.2","0","0"],
    [3244,"2010-09-18T23:00:00","55.3","17.56","41.28","1569.48","6.04","ND","0.1","270.7","24.1","72.2","0","0"],
    [3245,"2010-09-19T00:00:00","31.5","11.76","35.96","2010.18","6.87","ND","0.2","207.8","23.3","73.8","0","0"],
    [3246,"2010-09-19T01:00:00","50.4","11.59","34.08","2676.82","5.44","ND","0.1","46.9","23","75.5","0","0"],
    [3247,"2010-09-19T02:00:00","58.3","10.41","32.78","2196.18","3.94","ND","0.9","146.5","22.7","77.3","0","0"],
    [3248,"2010-09-19T03:00:00","75.6","9.00","30.46","2159.85","5.04","ND","0.2","183.3","22.3","80.2","0","0"],
    [3249,"2010-09-19T04:00:00","56","7.76","22.73","1509.85","6.94","ND","0.4","174.4","22.4","79.8","0","0"],
    [3250,"2010-09-19T05:00:00","51.4","5.97","21.62","1362.73","5.45","ND","0.5","150.5","22.2","80.3","0","0"],
    [3251,"2010-09-19T06:00:00","49","5.79","22.46","1327.77","5.58","ND","0.3","332.1","21.4","84.7","0.1","0"],
    [3252,"2010-09-19T07:00:00","69.9","5.25","22.09","1256.26","4.44","ND","0.2","31.5","21.2","85","33.3","0"],
    [3253,"2010-09-19T08:00:00","48.4","6.60","20.71","1425.06","3.89","ND","0.5","181.2","22.7","78.1","191.1","0"],
    [3254,"2010-09-19T09:00:00","47.8","7.70","19.85","1227.71","4.38","ND","1.2","121.4","24.4","69","393.6","0"],
    [3255,"2010-09-19T10:00:00","35.1","8.79","27.41","1211.90","8.50","ND","1.3","104.4","25.5","64.7","567.2","0"],
    [3256,"2010-09-19T11:00:00","27.1","10.63","26.47","1147.53","21.27","ND","0.6","79.9","26.7","58.8","765","0"],
    [3257,"2010-09-19T12:00:00","30.4","13.86","18.71","979.32","41.98","ND","0.9","62.7","28.2","53.5","846","0"],
    [3258,"2010-09-19T13:00:00","27.5","17.35","12.74","880.01","63.11","ND","1.3","93.3","29.2","50.3","480","0"],
    [3259,"2010-09-19T14:00:00","20.2","22.56","10.93","882.93","91.80","ND","1.2","101.1","28.7","53.2","263.8","0"],
    [3260,"2010-09-19T15:00:00","43.6","17.93","13.12","881.47","83.07","ND","2.2","275.9","27.8","53.5","116","0"],
    [3261,"2010-09-19T16:00:00","22.6","15.37","11.56","809.46","73.31","ND","0.8","281.4","26","66.5","149.4","1.02"],
    [3262,"2010-09-19T17:00:00","12.7","10.33","11.11","781.63","48.38","ND","0.9","274","26.7","61.4","185.3","0"],
    [3263,"2010-09-19T18:00:00","7.5","6.93","16.97","967.80","36.18","ND","0.9","256.5","26.2","60.1","27.3","0"],
    [3264,"2010-09-19T19:00:00","20.4","6.45","14.92","943.18","34.68","ND","0.9","237.9","25.7","62.8","0","0"],
    [3265,"2010-09-19T20:00:00","13.6","6.38","19.46","976.05","28.52","ND","0.8","103.2","25.3","64.9","0","0"],
    [3266,"2010-09-19T21:00:00","23.4","6.24","33.43","1272.90","15.79","ND","1.1","95.2","25","63","0","0"],
    [3267,"2010-09-19T22:00:00","13.7","6.42","32.13","1202.89","10.13","ND","1.9","125","24.1","67.5","0","0"],
    [3268,"2010-09-19T23:00:00","19.2","6.87","31.58","1244.94","11.13","ND","2.5","166.2","23.2","72.3","0","0"],
    [3269,"2010-09-20T00:00:00","11.3","6.25","24.67","1013.43","13.38","ND","1.8","132.4","22.4","77.9","0","0"],
    [3270,"2010-09-20T01:00:00","7.1","2.91","15.78","885.78","19.34","ND","1.3","153.6","21.4","85.5","0","0.76"],
    [3271,"2010-09-20T02:00:00","4.6","3.24","10.79","826.19","21.54","ND","0.7","156.4","20.7","88.4","0","1.02"],
    [3272,"2010-09-20T03:00:00","4.6","3.12","9.36","745.19","15.47","ND","0.1","150.9","20.5","90.6","0","0.25"],
    [3273,"2010-09-20T04:00:00","2.8","2.53","7.16","778.53","19.04","ND","0.4","98.2","20.5","93.7","0","0.25"],
    [3274,"2010-09-20T05:00:00","5.5","2.25","7.07","868.80","18.32","ND","0","222.5","20.4","94.7","0","0"],
    [3275,"2010-09-20T06:00:00","3.8","1.63","8.98","868.50","11.67","ND","0.1","283.2","20.4","93.5","0","0.51"],
    [3276,"2010-09-20T07:00:00","38.2","2.17","9.01","800.83","8.62","ND","0.9","44.1","20.1","95.6","18.1","0.25"],
    [3277,"2010-09-20T08:00:00","27.9","1.91","11.36","845.08","7.74","ND","1.2","40.5","20.1","95.2","55.4","0.51"],
    [3278,"2010-09-20T09:00:00","46.4","3.22","20.60","1160.57","4.25","ND","0.6","16","20.6","91.6","171.7","0.25"],
    [3279,"2010-09-20T10:00:00","36.8","5.06","25.44","1252.85","4.99","ND","0.7","100.9","21.8","84.3","274.4","0"],
    [3280,"2010-09-20T11:00:00","37.2","23.43","30.22","1201.30","6.35","ND","0.3","130.5","22.9","76.6","275.4","0"],
    [3281,"2010-09-20T12:00:00","21","35.44","32.20","1251.29","13.31","ND","0.5","13.3","23.4","75","393.8","0"],
    [3282,"2010-09-20T13:00:00","12.1","33.75","31.40","1207.82","21.33","ND","0.8","53.4","24.8","69.4","517.6","0"],
    [3283,"2010-09-20T14:00:00","11.2","32.84","28.01","1179.18","31.65","ND","0.7","54.6","25.7","63.6","414","0"],
    [3284,"2010-09-20T15:00:00","7","31.86","19.82","ND","40.74","ND","0.7","37.8","26.9","56","518.7","0"],
    [3285,"2010-09-20T16:00:00","5.2","34.02","23.43","1060.68","47.77","ND","1.9","10.4","26.7","55","351.3","0"],
    [3286,"2010-09-20T17:00:00","7.3","24.16","16.88","ND","45.85","ND","1.4","63.1","25.2","64.6","72.7","0"],
    [3287,"2010-09-20T18:00:00","13","20.24","15.66","ND","40.47","ND","2.8","179.3","22.8","77","9.6","0"],
    [3288,"2010-09-20T19:00:00","33.3","9.34","20.94","1159.89","28.48","ND","2.5","188.9","21.8","81.9","0","0"],
    [3289,"2010-09-20T20:00:00","23.5","6.40","37.58","1586.63","13.14","ND","0.8","166.5","22.2","80.1","0","0"],
    [3290,"2010-09-20T21:00:00","28.2","5.42","51.74","2054.07","11.47","ND","0.2","297.7","22.5","78.7","0","0"],
    [3291,"2010-09-20T22:00:00","20.5","7.17","56.78","2476.47","4.77","ND","0.3","344.7","22.2","80.9","0","0"],
    [3292,"2010-09-20T23:00:00","45.8","7.68","45.86","2508.00","3.93","ND","0.7","2.5","20.9","88.5","0","0"],
    [3293,"2010-09-21T00:00:00","34.9","7.44","44.51","2248.39","4.57","ND","0.1","9.8","20.6","89.2","0","0"],
    [3294,"2010-09-21T01:00:00","46.5","10.38","39.28","1918.78","3.58","ND","0.8","0.8","20.5","88.7","0","0"],
    [3295,"2010-09-21T02:00:00","57.7","10.55","30.83","1748.88","3.98","ND","0.7","31.2","20.7","88.6","0","0"],
    [3296,"2010-09-21T03:00:00","51.9","14.82","30.89","1592.00","4.76","ND","0.5","50.3","20.6","90.3","0","0"],
    [3297,"2010-09-21T04:00:00","40.3","41.74","34.42","1580.17","3.58","ND","0.5","12.5","20.6","91","0","0"],
    [3298,"2010-09-21T05:00:00","21","33.64","25.81","1331.86","6.84","ND","0.7","41.6","20.5","90.6","0","0"],
    [3299,"2010-09-21T06:00:00","11.2","15.69","15.66","1252.42","9.26","ND","0.2","322.5","20.4","91.9","0.2","0"],
    [3300,"2010-09-21T07:00:00","36.2","12.41","14.93","1094.09","10.90","ND","0.6","48.1","20.5","91.9","15.2","0"],
    [3301,"2010-09-21T08:00:00","31.3","11.41","19.81","1184.72","4.02","ND","0.5","65.5","20.5","92.1","70.7","0"],
    [3302,"2010-09-21T09:00:00","43","13.29","22.65","1613.48","4.66","ND","0.7","55.9","21.1","88.4","108","0"],
    [3303,"2010-09-21T10:00:00","31.3","13.24","23.72","1616.78","6.22","ND","0.7","39.4","21.5","85.4","131.3","0"],
    [3304,"2010-09-21T11:00:00","22.4","13.21","23.79","1494.44","8.51","ND","0.5","77.7","22.6","78.9","228.4","0"],
    [3305,"2010-09-21T12:00:00","12","12.32","17.77","1227.29","14.17","ND","0.5","54.5","23.7","73.3","366.4","0"],
    [3306,"2010-09-21T13:00:00","22.3","24.63","20.70","1186.23","18.64","ND","1.4","45.1","24.4","70.9","376","0"],
    [3307,"2010-09-21T14:00:00","18","36.66","21.90","1234.76","33.25","ND","1.4","36.9","24.8","68.8","396.4","0"],
    [3308,"2010-09-21T15:00:00","30.6","59.88","26.46","1259.32","36.36","ND","0.4","91.4","25.4","65.9","316.8","0"],
    [3309,"2010-09-21T16:00:00","16.6","60.06","22.76","1238.92","50.19","ND","1.5","176.6","26.1","63.6","304.8","0"],
    [3310,"2010-09-21T17:00:00","33.3","40.63","19.77","1218.83","57.16","ND","0.8","147.6","26.3","63.6","163.8","0"],
    [3311,"2010-09-21T18:00:00","23.1","ND","ND","ND","55.40","ND","0.6","334.9","26","65.4","61.4","0"],
    [3312,"2010-09-21T19:00:00","61.3","12.49","26.80","1229.91","ND","ND","0.5","232.4","25.5","63.6","0.1","0"],
    [3313,"2010-09-21T20:00:00","33","12.76","44.71","1767.20","66.87","ND","0.2","326.5","25","64","0","0"],
    [3314,"2010-09-21T21:00:00","28.1","10.82","46.01","1993.36","28.53","ND","0.9","245.2","24.3","68.1","0","0"],
    [3315,"2010-09-21T22:00:00","19","11.87","47.31","2377.27","8.03","ND","0.3","278.6","23.8","70.5","0","0"],
    [3316,"2010-09-21T23:00:00","20.7","9.86","43.35","2259.17","6.84","ND","1.3","45.7","22.5","80","0","0"],
    [3317,"2010-09-22T00:00:00","19.8","7.38","33.82","1863.03","11.97","ND","0.2","70.9","22","84.4","0","0"],
    [3318,"2010-09-22T01:00:00","23.9","7.44","25.90","1428.93","12.39","ND","0.1","77","22.1","84.4","0","0"],
    [3319,"2010-09-22T02:00:00","13.6","5.71","22.14","1384.04","9.21","ND","0.3","167.3","21.9","85.1","0","0"],
    [3320,"2010-09-22T03:00:00","16.6","4.72","26.09","1371.76","5.69","ND","0.8","178.5","21.3","88.7","0","16"],
    [3321,"2010-09-22T04:00:00","10.3","9.13","23.10","1233.21","3.43","ND","0.8","209.9","20.8","95.2","0","2.29"],
    [3322,"2010-09-22T05:00:00","18.3","9.40","17.47","1219.82","7.26","ND","0.6","46.1","20.8","95.9","0","0.76"],
    [3323,"2010-09-22T06:00:00","9.7","4.55","15.38","1253.70","6.52","ND","0.5","128.5","20.5","96.1","0.1","0.51"],
    [3324,"2010-09-22T07:00:00","9.4","3.05","17.27","1218.57","4.68","ND","0.7","172.3","20.6","95.7","15.7","1.02"],
    [3325,"2010-09-22T08:00:00","13.6","3.87","19.50","1252.85","5.43","ND","0.5","119.6","21.1","94.1","78.1","0.51"],
    [3326,"2010-09-22T09:00:00","40.1","4.84","19.89","1458.49","4.28","ND","0.8","123.5","21.6","91.6","113.5","0"],
    [3327,"2010-09-22T10:00:00","23.4","5.08","26.81","2129.17","7.51","ND","1.7","128.5","21.6","91.3","77.5","0.76"],
    [3328,"2010-09-22T11:00:00","41.3","4.48","32.34","2049.89","7.92","ND","0.2","315.8","21.5","90.5","178.9","0.51"],
    [3329,"2010-09-22T12:00:00","22.2","3.99","31.57","1834.09","8.46","ND","0.3","42.1","22.8","83.6","282.3","0"],
    [3330,"2010-09-22T13:00:00","33.2","2.55","36.74","1876.30","18.93","ND","0.8","57.6","23.9","77.1","343.3","0"],
    [3331,"2010-09-22T14:00:00","27","4.39","41.02","1871.86","33.43","ND","1.5","118.3","24","77.9","168.1","0"],
    [3332,"2010-09-22T15:00:00","23.6","9.19","22.17","1518.54","45.18","ND","1.2","140.7","24.1","76.4","171.3","0"],
    [3333,"2010-09-22T16:00:00","14.3","12.51","22.74","1473.37","24.94","ND","0.8","252.4","24.8","73.3","324.3","0"],
    [3334,"2010-09-22T17:00:00","27","8.51","20.33","1499.74","31.65","ND","1.7","204.9","25.1","72.4","194.8","0"],
    [3335,"2010-09-22T18:00:00","45.7","8.26","25.85","1650.23","50.41","ND","1.5","221.5","24.5","74.8","51.4","0"],
    [3336,"2010-09-22T19:00:00","30.6","11.35","35.99","1807.02","43.45","ND","1","248.5","23.5","80","0.2","0"],
    [3337,"2010-09-22T20:00:00","49","8.34","50.35","2291.08","30.42","ND","0.6","261.6","23.2","79.5","0","0"],
    [3338,"2010-09-22T21:00:00","57.7","6.82","70.84","3461.61","8.39","ND","0.2","273.9","22.4","83","0","0"],
    [3339,"2010-09-22T22:00:00","40.6","5.61","66.61","2941.24","5.14","ND","0","191.8","22.6","80.6","0","0"],
    [3340,"2010-09-22T23:00:00","71.3","5.51","50.93","2829.59","4.38","ND","0.5","7.1","22.2","82.5","0","0"],
    [3341,"2010-09-23T00:00:00","71.5","6.41","48.30","3370.48","4.98","ND","0.2","287","21.9","85.5","0","0"],
    [3342,"2010-09-23T01:00:00","65.9","6.07","44.66","2494.12","3.81","ND","0.1","299.9","21.6","87.8","0","0"],
    [3343,"2010-09-23T02:00:00","35.6","5.85","39.86","2049.89","4.56","ND","0.1","255.7","21.5","88","0","0"],
    [3344,"2010-09-23T03:00:00","55.8","3.55","33.84","1924.66","4.46","ND","0.1","223.9","21.2","88.5","0","0"],
    [3345,"2010-09-23T04:00:00","42.8","3.08","30.77","1888.77","4.18","ND","0.5","193.2","20.9","88.7","0","0"],
    [3346,"2010-09-23T05:00:00","42.6","3.70","27.79","1728.66","3.62","ND","0.1","18.2","21.1","86.2","0","0"],
    [3347,"2010-09-23T06:00:00","25.4","4.68","23.40","1842.90","4.82","ND","0.2","295.6","20.7","89.3","0.2","0"],
    [3348,"2010-09-23T07:00:00","63.5","3.85","25.54","1648.45","4.10","ND","0.2","341.8","20.6","89.7","49","0"],
    [3349,"2010-09-23T08:00:00","54.5","5.03","24.23","1952.64","3.94","ND","0.6","165.8","22.1","83.7","151.3","0"],
    [3350,"2010-09-23T09:00:00","78.1","7.37","26.78","2325.64","4.51","ND","0.5","144.7","23.5","74.9","266.4","0"],
    [3351,"2010-09-23T10:00:00","40.6","10.19","40.68","2587.44","6.54","ND","0.9","101.2","25.3","69.3","566.2","0"],
    [3352,"2010-09-23T11:00:00","57.5","11.38","52.36","2568.74","20.65","ND","1.1","119.9","26.2","65.9","473.3","0"],
    [3353,"2010-09-23T12:00:00","34.2","11.89","43.91","2196.92","52.43","ND","1.3","143.1","26.8","62.5","498.6","0"],
    [3354,"2010-09-23T13:00:00","44.2","11.23","27.87","1867.09","63.73","ND","1.5","308.3","25.7","63.4","208.1","0"],
    [3355,"2010-09-23T14:00:00","25.6","8.77","21.82","1756.90","72.29","ND","4.1","259.9","25.4","61.1","320.2","0"],
    [3356,"2010-09-23T15:00:00","14","7.14","16.16","1502.76","34.98","ND","1.4","200.2","24.2","67.5","35.8","0"],
    [3357,"2010-09-23T16:00:00","17.6","3.71","10.56","1439.59","23.80","ND","0.5","46.9","22","86.5","63.5","2.29"],
    [3358,"2010-09-23T17:00:00","47.9","3.61","22.43","1825.86","14.41","ND","0.7","17","21.6","89.6","40.4","0.25"],
    [3359,"2010-09-23T18:00:00","48.6","5.21","41.71","2536.88","7.45","ND","0.8","237.1","21.5","89.6","6.2","0.25"],
    [3360,"2010-09-23T19:00:00","38.8","5.31","44.39","2354.88","6.73","ND","1.6","201.2","21.3","87.5","0.1","0"],
    [3361,"2010-09-23T20:00:00","21","5.15","40.44","2409.85","5.19","ND","0.6","169.7","21.1","90.1","0","0"],
    [3362,"2010-09-23T21:00:00","29","5.87","45.11","2724.78","3.91","ND","0.5","319.4","20.3","91","0","0"],
    [3363,"2010-09-23T22:00:00","29.7","5.16","39.65","2807.57","5.27","ND","0.3","29","20","91.7","0","0"],
    [3364,"2010-09-23T23:00:00","42","3.63","33.48","2534.37","3.40","ND","0.6","31","19.8","96.2","0","0"],
    [3365,"2010-09-24T00:00:00","21.7","4.45","30.18","2420.08","3.45","ND","0.5","40.5","19.6","95.8","0","0"],
    [3366,"2010-09-24T01:00:00","31.1","3.50","25.74","2047.22","3.66","ND","0.5","5.4","19.6","94.7","0","0"],
    [3367,"2010-09-24T02:00:00","44.6","2.37","22.40","1732.27","3.68","ND","0.2","324","19.8","94.2","0","0.25"],
    [3368,"2010-09-24T03:00:00","55.5","2.83","19.04","1632.14","6.46","ND","0.1","255.8","19.8","94.2","0","0"],
    [3369,"2010-09-24T04:00:00","51.2","7.83","22.37","1699.68","3.32","ND","0.2","308.6","19.9","93.6","0","0"],
    [3370,"2010-09-24T05:00:00","38.9","6.54","20.59","1689.00","3.39","ND","0.2","283.7","19.8","92.6","0","0"],
    [3371,"2010-09-24T06:00:00","25.6","4.74","19.71","1609.63","3.51","ND","0.2","271.4","19.4","94.7","0.2","0.25"],
    [3372,"2010-09-24T07:00:00","42.1","7.15","18.74","1641.16","3.43","ND","0.1","58.4","19.5","96.1","26.1","0"],
    [3373,"2010-09-24T08:00:00","22.3","5.40","16.27","1720.43","3.47","ND","0.5","312.1","20.1","93.7","94.6","0"],
    [3374,"2010-09-24T09:00:00","69.5","6.70","16.60","2073.26","3.98","ND","0.3","198.3","21.1","86.6","200","0"],
    [3375,"2010-09-24T10:00:00","76.9","8.66","25.86","2351.68","4.32","ND","0.8","63.2","22.4","81.6","290.9","0"],
    [3376,"2010-09-24T11:00:00","74.5","13.40","36.07","2248.51","7.99","ND","0.9","80.8","24","74.2","543.1","0"],
    [3377,"2010-09-24T12:00:00","54.4","15.38","47.51","2306.36","23.67","ND","0.5","92.3","25.3","65.9","538.4","0"],
    [3378,"2010-09-24T13:00:00","48.7","16.37","31.65","1903.62","45.16","ND","0.5","33.9","26.2","62.7","543.9","0"],
    [3379,"2010-09-24T14:00:00","26.6","15.60","23.22","1771.34","81.81","ND","1","69.6","27.5","57.8","678.2","0"],
    [3380,"2010-09-24T15:00:00","18.2","14.93","17.64","1605.75","91.66","ND","1.2","78.9","28.1","55.2","444.5","0"],
    [3381,"2010-09-24T16:00:00","10.7","21.29","15.76","1632.11","98.31","ND","0.7","9.4","28","55.8","162.1","0"],
    [3382,"2010-09-24T17:00:00","37.4","22.28","16.11","1573.71","97.36","ND","2.2","256.1","27.7","55.9","174","0"],
    [3383,"2010-09-24T18:00:00","19.6","18.72","22.35","1653.06","89.50","ND","1.6","249.3","27","57.7","39.4","0"],
    [3384,"2010-09-24T19:00:00","11.8","14.85","20.10","1649.21","30.88","ND","0.3","213.9","26.3","58.6","0.3","0"],
    [3385,"2010-09-24T20:00:00","28","10.18","29.47","2059.58","14.96","ND","0.7","172.1","25.7","62.6","0","0"],
    [3386,"2010-09-24T21:00:00","38.8","9.27","37.38","2331.05","6.47","ND","0.6","184.5","25.1","65.7","0","0"],
    [3387,"2010-09-24T22:00:00","48.8","11.93","39.17","3254.62","4.32","ND","0.2","280.4","23.6","73.5","0","0"],
    [3388,"2010-09-24T23:00:00","46.2","10.56","35.99","2998.79","5.84","ND","0","154.2","23.4","74.4","0","0"],
    [3389,"2010-09-25T00:00:00","48.2","10.37","34.83","3179.08","3.92","ND","0.4","205.7","22.9","77.4","0","0"],
    [3390,"2010-09-25T01:00:00","68.5","8.61","32.07","2855.21","3.66","ND","0.5","353.4","22.2","79.5","0","0"],
    [3391,"2010-09-25T02:00:00","37.6","9.81","29.96","3313.74","4.96","ND","0.3","216.6","21.9","81.4","0","0"],
    [3392,"2010-09-25T03:00:00","42.9","7.78","26.41","2324.06","3.20","ND","0.4","94.3","22.1","82.4","0","0"],
    [3393,"2010-09-25T04:00:00","24.9","6.12","21.11","2223.54","4.28","ND","0.2","311.9","21.8","84.3","0","0"],
    [3394,"2010-09-25T05:00:00","54.4","4.85","23.44","1949.29","4.64","ND","0.3","35.3","21.6","86.4","0","0"],
    [3395,"2010-09-25T06:00:00","73.9","4.43","21.02","1902.66","4.27","ND","0.2","66.7","21.4","87.4","0.2","0"],
    [3396,"2010-09-25T07:00:00","47.8","7.02","19.82","1867.42","3.78","ND","0.1","183.3","21.6","86.6","12.7","0"],
    [3397,"2010-09-25T08:00:00","61.2","10.39","20.07","1913.99","4.81","ND","0.5","56.2","21.2","90.8","75.5","2.54"],
    [3398,"2010-09-25T09:00:00","45.7","9.55","21.38","1979.25","4.75","ND","0.3","69.2","21.6","91.3","239.6","0.76"],
    [3399,"2010-09-25T10:00:00","25.2","9.43","25.23","2321.70","5.86","ND","0.3","133.8","23","84.7","228.7","0"],
    [3400,"2010-09-25T11:00:00","40.4","8.61","32.33","2423.77","8.25","ND","0.8","129.9","24.6","74.1","444.2","0"],
    [3401,"2010-09-25T12:00:00","36.3","11.44","46.68","2471.19","13.66","ND","0.5","148.7","26","68.1","595","0"],
    [3402,"2010-09-25T13:00:00","25.6","15.14","40.61","2264.42","38.57","ND","1.2","80.2","26","68.8","265.5","0"],
    [3403,"2010-09-25T14:00:00","18.2","13.20","36.77","2218.44","84.00","ND","2.1","42.4","26.2","68.2","543.3","0"],
    [3404,"2010-09-25T15:00:00","18.8","12.10","24.72","2024.39","78.12","ND","1.7","49.6","27.5","59.8","593.8","0"],
    [3405,"2010-09-25T16:00:00","12","13.37","17.70","1663.51","74.70","ND","1.5","76.5","28.6","52.2","396.9","0"],
    [3406,"2010-09-25T17:00:00","6","22.44","14.01","1692.79","54.86","ND","1.4","52.2","28.7","51.5","299.5","0"],
    [3407,"2010-09-25T18:00:00","5.5","17.67","11.06","1600.57","44.70","ND","1.3","284.9","27.9","51.8","55.9","0"],
    [3408,"2010-09-25T19:00:00","2.7","11.54","11.64","1700.43","40.18","ND","1.8","312.2","27","48.2","0.3","0"],
    [3409,"2010-09-25T20:00:00","2","6.99","14.28","1706.88","25.62","ND","0.6","204","26.6","51.8","0","0"],
    [3410,"2010-09-25T21:00:00","1.5","3.35","13.86","1647.01","23.62","ND","0.4","230.4","25.7","56.6","0","0"],
    [3411,"2010-09-25T22:00:00","4.4","4.57","21.52","1848.76","14.67","ND","0.3","301.7","24.9","59.8","0","0"],
    [3412,"2010-09-25T23:00:00","13.6","4.82","29.99","2141.57","7.24","ND","0.6","76.6","23.9","69.4","0","0"],
    [3413,"2010-09-26T00:00:00","22.7","4.12","27.96","1951.76","5.81","ND","2","178.8","23.1","71.3","0","0"],
    [3414,"2010-09-26T01:00:00","15","5.88","29.12","2140.01","4.09","ND","0.6","256.6","22.4","74.5","0","0"],
    [3415,"2010-09-26T02:00:00","9","3.82","26.23","1862.40","9.77","ND","0.5","22.7","21.4","80.7","0","0"],
    [3416,"2010-09-26T03:00:00","34.5","2.85","21.55","1663.70","10.39","ND","0.3","281.4","21.1","82.5","0","0"],
    [3417,"2010-09-26T04:00:00","34.7","2.90","22.42","1786.37","5.56","ND","0.2","273.6","21.4","80.9","0","0"],
    [3418,"2010-09-26T05:00:00","37.2","2.46","21.29","1754.24","5.04","ND","0.5","20.1","21.4","81.6","0","0"],
    [3419,"2010-09-26T06:00:00","43.7","2.93","20.24","1856.10","4.30","ND","0.3","68.6","21.2","83.4","0.1","0"],
    [3420,"2010-09-26T07:00:00","45","4.19","22.55","1820.91","4.40","ND","0.1","123.6","21","86.1","26.4","0"],
    [3421,"2010-09-26T08:00:00","38.6","5.74","21.44","1853.58","4.22","ND","0.1","96","21.9","81.1","166.9","0"],
    [3422,"2010-09-26T09:00:00","50.5","6.25","19.59","1893.26","4.80","ND","0.5","90","23.6","73.9","289.6","0"],
    [3423,"2010-09-26T10:00:00","44.3","5.69","21.16","1767.35","10.94","ND","1.3","43.6","24.1","71.7","413.7","0"],
    [3424,"2010-09-26T11:00:00","34.4","10.48","27.26","1804.59","21.25","ND","1.2","48.7","24.8","70.4","449","0"],
    [3425,"2010-09-26T12:00:00","17.8","26.37","19.01","1602.77","33.97","ND","1.3","48","26","67.3","644.4","0"],
    [3426,"2010-09-26T13:00:00","15.1","44.27","20.90","1574.75","36.29","ND","2","35.5","27.6","60.1","750.5","0"],
    [3427,"2010-09-26T14:00:00","8.4","55.56","21.85","1733.40","45.94","ND","1.9","39.1","28.7","54.2","731.1","0"],
    [3428,"2010-09-26T15:00:00","6.3","35.60","12.34","1600.57","58.17","ND","1.2","54","29.4","48.5","306.6","0"],
    [3429,"2010-09-26T16:00:00","8.2","37.12","11.22","1557.78","48.73","ND","2","313.7","29.2","45.1","283.2","0"],
    [3430,"2010-09-26T17:00:00","5.4","24.45","9.15","1487.04","45.37","ND","1.3","262.2","29.5","45.8","261.6","0"],
    [3431,"2010-09-26T18:00:00","4.8","5.90","7.53","1558.30","35.28","ND","1.8","229","28.5","49.4","76.1","0"],
    [3432,"2010-09-26T19:00:00","12.6","4.37","7.41","1599.51","35.98","ND","1.5","201.5","27.1","52.7","0.2","0"],
    [3433,"2010-09-26T20:00:00","8.6","3.88","12.44","1753.59","28.22","ND","0.8","235.1","25.8","57.8","0","0"],
    [3434,"2010-09-26T21:00:00","8.8","3.00","18.45","1872.35","18.16","ND","0.3","57.1","25.3","62.2","0","0"],
    [3435,"2010-09-26T22:00:00","21.6","3.83","22.13","1903.62","14.18","ND","0.1","29.6","24","70.9","0","0"],
    [3436,"2010-09-26T23:00:00","20.3","4.23","30.11","2078.01","7.96","ND","0.1","339","23.2","73.8","0","0"],
    [3437,"2010-09-27T00:00:00","31.6","5.70","32.91","2231.83","3.92","ND","0.1","116.5","23","74.7","0","0"],
    [3438,"2010-09-27T01:00:00","29.2","4.89","29.18","2264.46","4.39","ND","0.1","63.6","22.1","79.6","0","0"],
    [3439,"2010-09-27T02:00:00","17.2","4.13","27.06","2246.23","4.53","ND","0.1","283.5","22.1","80.2","0","0"],
    [3440,"2010-09-27T03:00:00","12.8","3.79","22.81","1803.79","3.48","ND","0.4","24.6","21.5","83.9","0","0"],
    [3441,"2010-09-27T04:00:00","17.7","2.77","20.98","2003.91","3.82","ND","0.2","295.2","21.1","85","0","0"],
    [3442,"2010-09-27T05:00:00","17.7","3.10","20.26","1842.90","3.87","ND","0.2","91.7","21.3","83.7","0","0"],
    [3443,"2010-09-27T06:00:00","16.5","2.33","18.53","1776.27","4.07","ND","0.3","17.6","21","85.1","0.1","0"],
    [3444,"2010-09-27T07:00:00","37","3.88","19.51","1751.86","4.12","ND","0.3","174","21.5","82.8","24.7","0"],
    [3445,"2010-09-27T08:00:00","35.8","6.03","20.03","1811.44","3.61","ND","0.4","142.9","22.2","78.2","71.9","0"],
    [3446,"2010-09-27T09:00:00","50.2","9.50","23.32","2371.82","4.86","ND","0.6","5.7","22.4","80.2","95.9","0"],
    [3447,"2010-09-27T10:00:00","62.5","8.86","27.33","2384.79","5.33","ND","1.5","35","22.2","83.6","83.4","0"],
    [3448,"2010-09-27T11:00:00","54.5","10.72","41.23","2678.23","5.73","ND","0.9","17.6","21.2","92.1","129.5","4.57"],
    [3449,"2010-09-27T12:00:00","27.9","21.11","41.54","2228.07","6.41","ND","0.6","350.2","23.5","80.1","610.4","0"],
    [3450,"2010-09-27T13:00:00","28.2","25.42","28.50","1892.14","8.12","ND","0.6","64","26","67.8","504.5","0"],
    [3451,"2010-09-27T14:00:00","14.7","31.76","28.44","1804.64","17.17","ND","2.3","324","23.8","79.7","103.7","10.92"],
    [3452,"2010-09-27T15:00:00","7.3","32.28","18.10","1722.90","39.60","ND","0.4","192.6","24.2","78.2","201.5","0.25"],
    [3453,"2010-09-27T16:00:00","6","19.05","20.32","1656.67","27.24","ND","1.9","318","26.1","61.4","444.9","0"],
    [3454,"2010-09-27T17:00:00","4.6","7.47","21.83","2127.20","12.09","ND","1.8","305.9","27","54.6","278.3","0"],
    [3455,"2010-09-27T18:00:00","8.3","3.43","18.66","1902.94","16.65","ND","2","315.5","25.9","56.3","27.1","0"],
    [3456,"2010-09-27T19:00:00","4.7","9.30","16.45","1723.60","22.01","ND","0.5","344.7","25","62.1","0.1","0"],
    [3457,"2010-09-27T20:00:00","18.8","6.55","20.47","1913.16","17.92","ND","0.3","38.1","23.8","70.6","0","0"],
    [3458,"2010-09-27T21:00:00","30.3","4.12","21.52","1939.69","15.95","ND","1.6","177.8","23.4","74.9","0","0"],
    [3459,"2010-09-27T22:00:00","18.7","5.50","29.13","2153.57","5.29","ND","2","164.4","22.8","75.3","0","0"],
    [3460,"2010-09-27T23:00:00","34.2","6.03","29.50","2365.27","3.37","ND","2.3","176.5","21.9","80","0","0"],
    [3461,"2010-09-28T00:00:00","17.6","3.92","30.73","2256.04","5.48","ND","1.3","181.1","21.2","85.7","0","0"],
    [3462,"2010-09-28T01:00:00","13.8","2.48","22.46","1979.25","9.14","ND","0.2","253.9","20.9","87.2","0","0"],
    [3463,"2010-09-28T02:00:00","12","1.11","12.00","1683.47","14.03","ND","0.2","6.9","21.1","86.1","0","0"],
    [3464,"2010-09-28T03:00:00","14.4","0.83","11.34","1628.08","6.78","ND","0.4","49.4","20.5","91.1","0","0"],
    [3465,"2010-09-28T04:00:00","8","0.57","13.95","1805.29","5.93","ND","0.3","24.2","20.3","92.7","0","0"],
    [3466,"2010-09-28T05:00:00","9.3","1.11","11.40","1702.58","8.54","ND","0.2","256.9","20.4","91.7","0","0"],
    [3467,"2010-09-28T06:00:00","8.4","1.26","11.52","1646.77","6.74","ND","0.1","212.9","20.4","91.5","0.2","0"],
    [3468,"2010-09-28T07:00:00","25.7","1.16","13.61","1725.72","5.08","ND","0.1","100.3","20.6","91.3","38.6","0"],
    [3469,"2010-09-28T08:00:00","38.5","1.55","14.34","1726.90","3.60","ND","0.6","353.3","21.1","89.3","101.9","0"],
    [3470,"2010-09-28T09:00:00","79.5","3.08","16.88","2182.09","3.95","ND","0.5","83.2","22.2","83.8","211.4","0"],
    [3471,"2010-09-28T10:00:00","71.2","4.93","27.11","2553.40","5.54","ND","0.4","154","23.7","76.4","489.1","0"],
    [3472,"2010-09-28T11:00:00","47.5","5.74","45.61","2851.52","8.50","ND","1.7","127.8","25.9","65.7","673","0"],
    [3473,"2010-09-28T12:00:00","25.3","6.36","46.30","2562.42","30.94","ND","0.4","198.1","26.9","60.5","764","0"],
    [3474,"2010-09-28T13:00:00","15.9","7.46","31.65","2179.00","51.88","ND","0.7","141","28.6","52.3","913","0"],
    [3475,"2010-09-28T14:00:00","14.2","6.47","16.81","1889.90","76.96","ND","1.4","35","29.6","48.9","832.3","0"],
    [3476,"2010-09-28T15:00:00","8.9","4.66","15.63","1919.43","94.13","ND","1.3","41.7","30","47.2","483.4","0"],
    [3477,"2010-09-28T16:00:00","ND","6.02","15.26","1863.73","103.22","ND","1.5","259.7","29.9","47.5","317.7","0"],
    [3478,"2010-09-28T17:00:00","ND","3.99","11.51","1769.96","76.97","ND","1.2","302","28.9","44.7","111.1","0"],
    [3479,"2010-09-28T18:00:00","4.2","ND","ND","ND","68.81","ND","0.7","340.7","28.4","43.4","42.4","0"],
    [3480,"2010-09-28T19:00:00","36.6","8.37","ND","834.25","ND","ND","0.7","265","26.8","52.5","0.1","0"],
    [3481,"2010-09-28T20:00:00","47.7","14.16","42.80","864.40","26.32","ND","0.1","153.4","26.2","54.8","0","0"],
    [3482,"2010-09-28T21:00:00","60.1","15.39","53.91","2392.46","2.68","ND","0.4","318.2","25.7","58","0","0"],
    [3483,"2010-09-28T22:00:00","73.3","15.86","59.51","1538.72","2.60","ND","0.6","7.6","24.1","66.6","0","0"],
    [3484,"2010-09-28T23:00:00","50.4","18.00","56.82","1987.34","3.11","ND","0.5","297.6","24","67.7","0","0"],
    [3485,"2010-09-29T00:00:00","66.6","15.20","43.77","1107.51","2.50","ND","0.7","247.9","24.1","67.1","0","0"],
    [3486,"2010-09-29T01:00:00","49.1","11.44","42.98","1199.25","1.78","ND","0.3","4.2","23.3","72.9","0","0"],
    [3487,"2010-09-29T02:00:00","47","9.72","33.00","1002.38","4.57","ND","0.4","62.3","22.7","76.4","0","0"],
    [3488,"2010-09-29T03:00:00","25.8","9.52","31.51","818.47","3.15","ND","0.4","239.2","22.4","77.6","0","0"],
    [3489,"2010-09-29T04:00:00","32.5","10.18","26.03","590.52","2.24","ND","0.9","160.8","22.8","74.3","0","0"],
    [3490,"2010-09-29T05:00:00","18.1","7.78","22.49","670.92","2.63","ND","0.3","300.9","21.7","82.9","0","8.13"],
    [3491,"2010-09-29T06:00:00","31.6","9.10","18.59","736.40","3.24","ND","1","359.9","20.4","90.3","0.3","0.76"],
    [3492,"2010-09-29T07:00:00","28.8","7.07","16.08","1342.23","5.97","ND","0.4","332.2","20.2","88.9","18.3","0.51"],
    [3493,"2010-09-29T08:00:00","50.5","6.93","21.09","1690.73","3.11","ND","1.2","360","19.9","89","85.8","0"],
    [3494,"2010-09-29T09:00:00","26.6","7.62","31.41","2173.18","2.76","ND","2.3","352.4","20.6","84.5","295.6","0"],
    [3495,"2010-09-29T10:00:00","23.7","9.04","32.40","2268.67","5.39","ND","1.8","45.5","23.1","71.4","641.7","0"],
    [3496,"2010-09-29T11:00:00","11.8","21.53","29.38","2140.01","12.83","ND","1.2","67.5","25.7","59.1","743.7","0"],
    [3497,"2010-09-29T12:00:00","5.9","58.15","27.41","2021.01","23.66","ND","1.8","53.1","26.8","55.8","796.9","0"],
    [3498,"2010-09-29T13:00:00","3.6","32.27","14.57","2028.45","39.09","ND","1","81.7","27.9","52.7","776.2","0"],
    [3499,"2010-09-29T14:00:00","3","14.55","8.52","2001.19","47.36","ND","1.3","84.7","29","49.6","808.4","0"],
    [3500,"2010-09-29T15:00:00","3.8","10.89","9.01","2054.94","51.31","ND","0.5","56.7","30.1","45.6","671.1","0"],
    [3501,"2010-09-29T16:00:00","5.1","13.62","11.61","2062.43","67.12","ND","1.9","42.5","29.8","47.6","373.5","0"],
    [3502,"2010-09-29T17:00:00","3.8","15.87","12.94","2176.79","95.65","ND","1.2","48.1","29.6","46.4","202.9","0"],
    [3503,"2010-09-29T18:00:00","19.3","18.78","18.55","2233.52","87.88","ND","0.8","96.7","29.1","49.3","44","0"],
    [3504,"2010-09-29T19:00:00","10.9","22.10","19.15","2148.53","71.38","ND","0.9","41.3","27.6","56.9","0.3","0"],
    [3505,"2010-09-29T20:00:00","59.8","12.71","32.01","2438.32","51.78","ND","0.8","327.2","26.6","60.8","0","0"],
    [3506,"2010-09-29T21:00:00","38.7","14.01","43.34","2487.80","21.09","ND","1.5","305.4","25.9","61.3","0","0"],
    [3507,"2010-09-29T22:00:00","38.1","13.98","46.34","2723.29","11.30","ND","0.3","192.9","25.6","64.8","0","0"],
    [3508,"2010-09-29T23:00:00","36.5","11.60","29.23","2502.45","26.07","ND","0.2","177.1","25.2","68.3","0","0"],
    [3509,"2010-09-30T00:00:00","34.9","9.52","45.65","2911.80","9.39","ND","0.8","142.8","24.3","75.5","0","0"],
    [3510,"2010-09-30T01:00:00","39.2","10.43","50.55","3188.74","2.39","ND","0.5","158","23.5","80.9","0","0"],
    [3511,"2010-09-30T02:00:00","21.2","8.99","29.07","2507.65","5.04","ND","0.2","151.9","23.3","80.2","0","0"],
    [3512,"2010-09-30T03:00:00","12.5","7.16","21.91","2266.75","6.81","ND","0.8","146.7","23.3","78","0","0"],
    [3513,"2010-09-30T04:00:00","19.4","6.04","15.88","1959.20","7.34","ND","0.5","91.8","22.6","84.1","0","0"],
    [3514,"2010-09-30T05:00:00","30.6","6.47","16.57","2090.94","5.94","ND","0.5","345.8","22.3","86.4","0","0"],
    [3515,"2010-09-30T06:00:00","30.7","5.17","15.34","2043.41","6.01","ND","0.8","52.1","21.9","88.9","0","0"],
    [3516,"2010-09-30T07:00:00","19","5.34","17.37","2120.00","2.29","ND","0.7","167.1","21.8","89.9","44","3.3"],
    [3517,"2010-09-30T08:00:00","30.1","6.69","17.37","2062.62","2.10","ND","1.3","343.3","22.5","89.1","178.3","0"],
    [3518,"2010-09-30T09:00:00","33.1","6.91","20.30","2226.55","4.86","ND","0.6","5.5","24","83.7","404.1","0"],
    [3519,"2010-09-30T10:00:00","46.7","8.38","32.94","3174.10","5.79","ND","1.2","57.3","25.9","71.8","612.2","0"],
    [3520,"2010-09-30T11:00:00","24.6","7.46","36.03","2757.76","13.17","ND","2","142.2","26.8","66.5","393.6","0"],
    [3521,"2010-09-30T12:00:00","30.3","6.67","27.02","2282.00","41.04","ND","1.3","150.4","27.2","63.2","467.6","0"],
    [3522,"2010-09-30T13:00:00","33.8","11.54","21.86","2377.37","33.23","ND","1.6","143.4","27.8","60.5","316.3","0"],
    [3523,"2010-09-30T14:00:00","48.4","10.13","20.27","2324.31","58.51","ND","0.6","211.3","28.5","56.5","442.2","0"],
    [3524,"2010-09-30T15:00:00","26.5","11.77","26.01","2271.76","63.99","ND","1.7","257.3","29.9","47.8","677","0"],
    [3525,"2010-09-30T16:00:00","15.4","12.12","28.24","2352.18","84.49","ND","4.1","271.9","29.4","47.2","336","0"],
    [3526,"2010-09-30T17:00:00","15.1","9.49","13.88","2034.41","63.52","ND","4","284.4","27.9","46.5","66.9","0"],
    [3527,"2010-09-30T18:00:00","17.6","6.96","12.57","1989.62","40.22","ND","1.9","288.3","27","49.2","7.1","0"],
    [3528,"2010-09-30T19:00:00","27.9","5.20","13.08","1879.87","38.01","ND","1.4","107.3","25.6","62.7","0","0"],
    [3529,"2010-09-30T20:00:00","21.2","5.25","17.72","2146.60","33.68","ND","1.2","126.7","24.4","67.7","0","0"],
    [3530,"2010-09-30T21:00:00","12.8","6.72","36.18","2492.40","10.22","ND","1.7","239.2","23.6","74.9","0","0"],
    [3531,"2010-09-30T22:00:00","18.9","5.97","30.05","2405.88","9.24","ND","2.1","159.3","23.1","75.7","0","0"],
    [3532,"2010-09-30T23:00:00","11.5","5.78","32.96","2470.12","7.08","ND","0.4","155.1","22.2","78.4","0","0"],
    [3533,"2010-10-01T00:00:00","39.7","5.63","26.83","2303.73","4.74","ND","0.4","18.8","21.3","84.6","0","0"],
    [3534,"2010-10-01T01:00:00","32.2","4.71","24.63","2093.06","9.32","ND","0.2","151.8","21.4","84.4","0","0"],
    [3535,"2010-10-01T02:00:00","39.3","6.81","28.13","2218.26","2.42","ND","1.4","172.3","21.4","82.9","0","0"],
    [3536,"2010-10-01T03:00:00","20.5","6.70","26.20","2297.49","2.56","ND","0.3","269.9","21.4","82.7","0","0"],
    [3537,"2010-10-01T04:00:00","38.6","6.34","19.41","2059.82","6.07","ND","0.6","82.3","20.5","88.9","0","0"],
    [3538,"2010-10-01T05:00:00","20.3","4.85","15.73","2087.37","7.09","ND","0.6","359.7","19.9","91.9","0","0"],
    [3539,"2010-10-01T06:00:00","36.7","18.88","19.46","2161.92","3.01","ND","0.3","25.2","19.8","92.1","0.8","0"],
    [3540,"2010-10-01T07:00:00","35.6","12.87","17.88","2104.90","1.89","ND","0.1","55.9","20.3","88.7","56.8","0"],
    [3541,"2010-10-01T08:00:00","55.4","14.06","18.57","2345.28","1.87","ND","0.1","141.1","22.1","80.4","267.2","0"],
    [3542,"2010-10-01T09:00:00","32.4","16.11","21.22","2507.15","1.69","ND","0.5","128.2","23.9","70.6","363.1","0"],
    [3543,"2010-10-01T10:00:00","54","15.14","29.44","2522.45","6.39","ND","1.4","108.1","25.3","66.8","545.6","0"],
    [3544,"2010-10-01T11:00:00","42.2","17.23","40.93","2729.29","30.37","ND","0.8","62.2","26.5","62","650.6","0"],
    [3545,"2010-10-01T12:00:00","39.9","16.56","32.88","2498.48","50.11","ND","1.3","57.9","27.5","58.9","813.8","0"],
    [3546,"2010-10-01T13:00:00","20.9","16.01","21.73","2356.65","69.16","ND","0.9","85.6","29.4","52.4","790.4","0"],
    [3547,"2010-10-01T14:00:00","33.3","32.68","17.64","2115.79","76.63","ND","1.1","31.8","29.9","48.9","462","0"],
    [3548,"2010-10-01T15:00:00","18.2","35.34","18.09","2026.13","79.21","ND","1.5","8.4","29.9","47.7","300.2","0"],
    [3549,"2010-10-01T16:00:00","10.7","33.50","19.64","1863.11","66.94","ND","3.4","291.9","30","47.1","462","0"],
    [3550,"2010-10-01T17:00:00","7.2","37.96","21.01","1840.43","46.19","ND","3.9","282.3","28.6","50.1","208.3","0"],
    [3551,"2010-10-01T18:00:00","9.5","12.30","13.40","1855.12","31.96","ND","0.9","252.3","28","52","39.5","0"],
    [3552,"2010-10-01T19:00:00","5.9","6.35","10.65","1816.71","28.72","ND","1.1","93.3","27.5","53.7","0.1","0"],
    [3553,"2010-10-01T20:00:00","31.7","7.98","23.38","2449.06","17.00","ND","2.3","171.3","25.9","63.8","0","0"],
    [3554,"2010-10-01T21:00:00","17.1","14.32","37.74","2746.27","5.41","ND","1.5","170.2","25.1","66.6","0","0"],
    [3555,"2010-10-01T22:00:00","29.1","12.56","39.83","3036.88","4.46","ND","0.5","340.6","24.3","68.6","0","0"],
    [3556,"2010-10-01T23:00:00","48.9","9.18","44.23","2834.43","5.29","ND","1.6","357.9","23","77.8","0","0"],
    [3557,"2010-10-02T00:00:00","51.1","10.05","40.61","2753.76","2.94","ND","0.2","154.7","22.9","76.9","0","0"],
    [3558,"2010-10-02T01:00:00","61.1","26.90","39.35","2320.57","6.04","ND","0.2","309.2","22","77.1","0","0"],
    [3559,"2010-10-02T02:00:00","56.1","47.36","41.48","2472.28","2.41","ND","0.6","7.6","21.3","80.2","0","0"],
    [3560,"2010-10-02T03:00:00","38.3","27.22","34.67","2466.42","1.09","ND","0.2","246.7","21.1","82.5","0","0"],
    [3561,"2010-10-02T04:00:00","67.4","25.70","31.84","2476.05","2.73","ND","0.1","293.2","20.6","83.7","0","0"],
    [3562,"2010-10-02T05:00:00","52","20.34","28.82","2483.12","2.49","ND","0.1","263.2","20.6","82.7","0","0"],
    [3563,"2010-10-02T06:00:00","33.6","13.79","26.87","2562.13","1.24","ND","0.1","71.4","20.6","82.6","0.2","0"],
    [3564,"2010-10-02T07:00:00","34.2","13.53","25.29","2483.12","1.31","ND","0.3","41.3","20.9","80.1","31.9","0"],
    [3565,"2010-10-02T08:00:00","73.5","13.10","23.59","2609.94","0.87","ND","0.4","101.6","21.7","77.5","145.5","0"],
    [3566,"2010-10-02T09:00:00","76.2","38.25","31.37","2843.63","1.79","ND","0.8","80.1","23.3","73.6","304.9","0"],
    [3567,"2010-10-02T10:00:00","88","38.69","35.15","2551.52","3.18","ND","0.8","92.9","24.3","70.2","451","0"],
    [3568,"2010-10-02T11:00:00","68.1","29.54","50.34","2777.29","17.42","ND","1.1","122.7","25.7","64.3","515","0"],
    [3569,"2010-10-02T12:00:00","54.3","26.32","38.23","2285.11","31.94","ND","1.1","118.7","27.2","58.8","670.5","0"],
    [3570,"2010-10-02T13:00:00","36.1","27.16","30.26","2158.10","51.64","ND","1.4","67.2","27.3","58.7","491.2","0"],
    [3571,"2010-10-02T14:00:00","59.2","32.00","31.34","2297.35","73.98","ND","0.6","305.6","28.1","55.5","575.6","0"],
    [3572,"2010-10-02T15:00:00","43.1","38.81","24.07","1990.94","72.79","ND","1","143.9","28.9","53","368.2","0"],
    [3573,"2010-10-02T16:00:00","60.6","46.16","38.64","3087.20","87.93","ND","1.4","143.6","28.7","54.4","193.8","0"],
    [3574,"2010-10-02T17:00:00","52.1","43.08","53.18","3873.84","89.90","ND","1.3","177.3","28.4","55.8","174.7","0"],
    [3575,"2010-10-02T18:00:00","72.4","26.53","27.20","2386.88","83.96","ND","1.7","275.6","27.5","56.5","51.6","0"],
    [3576,"2010-10-02T19:00:00","41.7","20.27","25.05","2321.99","86.99","ND","0.2","271.2","26.5","55.5","0.2","0"],
    [3577,"2010-10-02T20:00:00","47.1","17.80","44.73","3143.25","38.26","ND","0.1","1.2","26.4","55.6","0","0"],
    [3578,"2010-10-02T21:00:00","38.3","11.24","23.82","2405.57","20.27","ND","0.4","87.8","25.9","58.6","0","0"],
    [3579,"2010-10-02T22:00:00","42.3","10.62","32.57","2355.59","13.40","ND","0.6","131","24.8","64.6","0","0"],
    [3580,"2010-10-02T23:00:00","37.9","12.41","41.11","2530.09","3.77","ND","0.2","161.6","23.8","71.1","0","0"],
    [3581,"2010-10-03T00:00:00","47.2","12.21","36.15","2475.96","2.31","ND","0.2","198.3","22.8","75.2","0","0"],
    [3582,"2010-10-03T01:00:00","24.2","10.66","30.88","2490.36","1.79","ND","0.1","311.7","22.6","75","0","0"],
    [3583,"2010-10-03T02:00:00","44.8","10.06","27.89","2511.40","2.06","ND","1","166.5","22.8","77.9","0","0"],
    [3584,"2010-10-03T03:00:00","25.1","9.73","27.63","2319.79","2.57","ND","1.1","149.2","22.2","83.5","0","0"],
    [3585,"2010-10-03T04:00:00","13.3","10.51","24.70","2088.11","4.68","ND","0.4","343.3","21.6","86.4","0","0"],
    [3586,"2010-10-03T05:00:00","30","7.95","16.72","2004.59","12.20","ND","0.2","172.6","22","85","0","0"],
    [3587,"2010-10-03T06:00:00","30.2","6.95","22.93","2086.70","4.99","ND","0.3","160.3","22","86.4","0.3","0"],
    [3588,"2010-10-03T07:00:00","18","7.63","24.44","2200.10","2.53","ND","0.6","119.3","22.3","83.6","56.3","0"],
    [3589,"2010-10-03T08:00:00","16","6.57","24.45","2293.16","2.51","ND","0.5","79.5","22.7","83.6","180.5","0"],
    [3590,"2010-10-03T09:00:00","26.5","7.31","18.73","2148.49","10.01","ND","1.2","17.1","22.9","83.2","195.1","0"],
    [3591,"2010-10-03T10:00:00","14.3","7.13","19.84","2013.44","13.15","ND","0.8","56.2","24.6","72.5","320.5","0"],
    [3592,"2010-10-03T11:00:00","8.1","8.32","19.54","1841.95","21.09","ND","0.5","60.3","25.8","66.6","386.6","0"],
    [3593,"2010-10-03T12:00:00","8.1","9.30","11.27","1734.51","36.79","ND","0.7","46.2","27.1","61.1","766.2","0"],
    [3594,"2010-10-03T13:00:00","6.4","9.13","10.72","1742.06","47.07","ND","1.1","220.8","28.3","54.4","450.4","0"],
    [3595,"2010-10-03T14:00:00","7.5","9.27","11.35","1830.10","72.46","ND","1","258.6","28.7","51.7","373.4","0"],
    [3596,"2010-10-03T15:00:00","4.4","7.88","12.28","1797.74","73.77","ND","3.1","265.6","29","47.8","601.8","0"],
    [3597,"2010-10-03T16:00:00","4.5","6.35","8.30","1695.04","47.57","ND","3.9","288.4","29.2","45.6","537.1","0"],
    [3598,"2010-10-03T17:00:00","4.5","5.13","6.57","1638.07","35.68","ND","1","280.7","29.4","45","197.4","0"],
    [3599,"2010-10-03T18:00:00","9.6","4.09","4.53","1604.28","33.06","ND","1.1","287.7","27.5","50.5","18","0"],
    [3600,"2010-10-03T19:00:00","14.9","4.78","7.94","1686.62","31.66","ND","2.5","245.3","26.3","57.2","0","0"],
    [3601,"2010-10-03T20:00:00","23.3","4.50","12.58","1794.94","23.30","ND","2.6","212.3","23.8","74.6","0","10.16"],
    [3602,"2010-10-03T21:00:00","26.7","5.01","15.83","1848.41","19.25","ND","1.8","239.9","21.4","87.8","0","8.13"],
    [3603,"2010-10-03T22:00:00","20.5","4.45","15.82","1980.59","16.85","ND","0.1","176","21.5","90.9","0","3.3"],
    [3604,"2010-10-03T23:00:00","10.8","3.78","13.22","1924.66","12.10","ND","0.2","256.9","21.5","91.9","0","0.51"],
    [3605,"2010-10-04T00:00:00","7","4.40","21.26","2309.59","5.70","ND","0.2","324.2","21.4","91.9","0","0"],
    [3606,"2010-10-04T01:00:00","5.2","4.04","22.42","2297.49","4.27","ND","0.1","354.2","21.4","92","0","0.25"],
    [3607,"2010-10-04T02:00:00","3.7","3.55","21.92","2218.26","2.85","ND","0.7","189.2","21.3","93.3","0","0"],
    [3608,"2010-10-04T03:00:00","4.5","4.76","22.51","2251.45","3.12","ND","0.7","206.1","20.5","95.9","0","5.33"],
    [3609,"2010-10-04T04:00:00","2.9","4.93","18.62","2346.88","3.34","ND","0.6","155.7","20.6","94.5","0","0.25"],
    [3610,"2010-10-04T05:00:00","3.2","5.24","9.96","2065.51","6.53","ND","0.9","148.9","20.7","93.4","0","0"],
    [3611,"2010-10-04T06:00:00","3.9","4.65","8.04","2133.96","6.09","ND","1.1","153.3","20.6","94.1","0","0.25"],
    [3612,"2010-10-04T07:00:00","4.4","5.01","8.50","2054.22","7.39","ND","1.5","182.4","20.2","95.7","8.2","2.54"],
    [3613,"2010-10-04T08:00:00","22.5","4.59","10.73","1972.52","7.59","ND","1.1","200.3","20.2","95.5","36.5","3.05"],
    [3614,"2010-10-04T09:00:00","18.3","4.33","21.33","2175.41","4.23","ND","0.6","139.2","20.9","92.1","121.9","1.52"],
    [3615,"2010-10-04T10:00:00","11.1","5.40","28.07","2700.33","1.88","ND","1.2","149.9","21.3","90.6","154.1","0"],
    [3616,"2010-10-04T11:00:00","8.8","5.02","32.46","2828.46","4.92","ND","1.6","192.7","21.9","87.9","280.9","0.25"],
    [3617,"2010-10-04T12:00:00","12.5","5.03","36.27","2902.25","6.25","ND","2.1","171.7","23.2","80.2","470.9","0"],
    [3618,"2010-10-04T13:00:00","8.4","5.13","37.31","2937.81","9.83","ND","2","160.3","24.4","72.8","505.5","0"],
    [3619,"2010-10-04T14:00:00","5.1","5.15","33.23","2652.46","19.74","ND","1.9","146.5","24.8","69.8","377.1","0"],
    [3620,"2010-10-04T15:00:00","5","4.79","20.91","2106.50","31.20","ND","1.2","155.4","25.2","68.1","297.7","0"],
    [3621,"2010-10-04T16:00:00","14.7","4.98","14.51","1857.13","30.93","ND","0.3","231.8","25.4","67.1","249.2","0"],
    [3622,"2010-10-04T17:00:00","16.3","4.70","17.12","1915.73","36.00","ND","0.7","57.8","25.3","68.3","137.5","0"],
    [3623,"2010-10-04T18:00:00","30.6","5.40","30.84","2190.31","44.67","ND","0.6","68.5","24.7","71.4","35","0"],
    [3624,"2010-10-04T19:00:00","27.2","6.62","32.63","2185.91","44.83","ND","0.4","130.8","24.3","74","0","0"],
    [3625,"2010-10-04T20:00:00","40","6.48","31.60","2274.40","27.49","ND","0.2","232.9","23.7","77.9","0","0"],
    [3626,"2010-10-04T21:00:00","25","5.74","42.96","2646.21","9.85","ND","0.2","259.9","23","82.7","0","0"],
    [3627,"2010-10-04T22:00:00","55","6.92","44.81","3493.41","8.89","ND","0.1","302","22.6","84.3","0","0"],
    [3628,"2010-10-04T23:00:00","39.3","7.28","40.99","3568.24","0.97","ND","0.3","257.1","22.3","85.1","0","0"],
    [3629,"2010-10-05T00:00:00","61.6","6.78","36.94","3201.34","1.30","ND","0.3","36.9","21.9","86.4","0","0"],
    [3630,"2010-10-05T01:00:00","48","5.34","35.77","3094.97","1.20","ND","0.3","236.5","21.5","89.1","0","0"],
    [3631,"2010-10-05T02:00:00","56.8","5.36","32.00","2694.52","1.42","ND","0.3","188.5","21.4","88","0","0"],
    [3632,"2010-10-05T03:00:00","29.5","5.28","28.64","2670.97","0.78","ND","0.2","204.5","21.1","88.4","0","0"],
    [3633,"2010-10-05T04:00:00","32.5","5.22","24.93","2555.19","2.73","ND","0.6","27.2","20.9","88.6","0","0"],
    [3634,"2010-10-05T05:00:00","37.5","5.01","20.80","2451.77","0.77","ND","0.4","343.7","20.6","94.6","0","0"],
    [3635,"2010-10-05T06:00:00","39.2","4.85","17.87","2370.25","2.07","ND","0","177.5","20.9","92.7","0.2","0"],
    [3636,"2010-10-05T07:00:00","58.3","5.14","19.84","2124.11","1.32","ND","0.2","140.1","21.2","91","21.2","0"],
    [3637,"2010-10-05T08:00:00","63.5","5.10","18.67","2295.93","0.93","ND","0.4","179","21.8","88.1","144.4","0"],
    [3638,"2010-10-05T09:00:00","72.9","6.27","21.52","2697.27","2.33","ND","0.8","125.9","23.8","77.9","331.8","0"],
    [3639,"2010-10-05T10:00:00","66.3","8.40","31.18","3286.06","4.36","ND","0.8","155.3","25.2","70.4","447.1","0"],
    [3640,"2010-10-05T11:00:00","60.3","9.12","57.39","3313.03","13.51","ND","1","271.6","25.9","68.2","395.2","0"],
    [3641,"2010-10-05T12:00:00","51.7","8.91","38.93","2436.02","43.79","ND","0.3","53.7","27.2","63.6","458.1","0"],
    [3642,"2010-10-05T13:00:00","59.7","8.61","32.08","2296.59","70.51","ND","0.4","18.2","27.9","61","506.5","0"],
    [3643,"2010-10-05T14:00:00","58.9","10.45","30.50","2186.27","102.80","ND","1.1","48","28.1","57.6","279.5","0"],
    [3644,"2010-10-05T15:00:00","30.6","14.93","27.73","2257.17","96.94","ND","3.4","268.9","29","50.7","632.2","0"],
    [3645,"2010-10-05T16:00:00","1.1","35.18","27.10","1996.89","56.36","ND","2.4","286.6","28.4","51","254.9","0"],
    [3646,"2010-10-05T17:00:00","1.9","13.12","12.80","1853.88","24.89","ND","2.8","264.1","27.7","52.8","137.5","0"],
    [3647,"2010-10-05T18:00:00","4.3","7.77","10.98","1872.70","19.94","ND","2.9","272.5","26.2","60","10.4","0"],
    [3648,"2010-10-05T19:00:00","4.7","6.73","13.35","1805.85","17.95","ND","1.5","216","25.6","61.7","0","0"],
    [3649,"2010-10-05T20:00:00","5.6","6.06","15.98","2066.25","15.22","ND","0.2","149.5","24.8","68.4","0","0"],
    [3650,"2010-10-05T21:00:00","4","5.76","23.02","2266.78","10.65","ND","0.5","345.3","23.7","76.2","0","0"],
    [3651,"2010-10-05T22:00:00","29.6","6.89","30.83","2703.25","5.04","ND","0.3","49","23.2","82.7","0","0"],
    [3652,"2010-10-05T23:00:00","39.4","7.50","30.38","2767.01","2.96","ND","0.2","279","22.7","86.6","0","0"],
    [3653,"2010-10-06T00:00:00","32","6.68","35.70","2557.72","3.87","ND","1.3","179.9","22.5","85.8","0","0.25"],
    [3654,"2010-10-06T01:00:00","19.6","6.11","31.32","2964.95","3.15","ND","0.3","8.6","22","88.5","0","0.51"],
    [3655,"2010-10-06T02:00:00","22.5","7.52","27.97","2597.03","3.28","ND","0.2","11.5","21.4","93.9","0","0.51"],
    [3656,"2010-10-06T03:00:00","12.9","4.81","20.58","1890.05","10.04","ND","0.3","206.6","21.4","93.2","0","0.51"],
    [3657,"2010-10-06T04:00:00","19.6","4.22","20.62","1969.28","4.79","ND","0.4","166.4","20.9","94.8","0","5.08"],
    [3658,"2010-10-06T05:00:00","11.7","4.26","17.96","1977.23","3.85","ND","0.8","135.5","20.7","96.3","0","2.29"],
    [3659,"2010-10-06T06:00:00","9.3","4.39","12.55","1862.98","7.72","ND","0.9","127.6","20.6","95.2","0.1","0.76"],
    [3660,"2010-10-06T07:00:00","10","4.16","10.74","1851.06","8.37","ND","0.1","242.2","20.7","95.3","18.5","0"],
    [3661,"2010-10-06T08:00:00","21","3.98","14.68","1727.49","6.96","ND","0.1","175.1","21.4","92.5","92.6","0"],
    [3662,"2010-10-06T09:00:00","14","4.30","24.71","2297.49","3.26","ND","0.3","102","22.5","86.3","203.7","0"],
    [3663,"2010-10-06T10:00:00","17.6","4.81","28.44","2601.43","3.15","ND","0.5","94.6","24.1","78.7","386.7","0"],
    [3664,"2010-10-06T11:00:00","23.9","5.75","45.65","2992.43","7.45","ND","1.2","66.6","24.4","78.7","404.4","0"],
    [3665,"2010-10-06T12:00:00","102.9","ND","ND","ND","28.42","ND","0.2","208.8","25.7","70.9","502.9","0"],
    [3666,"2010-10-06T13:00:00","71.8","ND","ND","ND","39.30","ND","0.9","57.8","26.2","67.8","334.6","0"],
    [3667,"2010-10-06T14:00:00","56.1","5.31","ND","1575.80","ND","ND","1.7","49","26","68.2","328.1","0"],
    [3668,"2010-10-06T15:00:00","36.5","3.76","24.94","1333.36","83.96","ND","1","35.2","26.4","65.3","385.6","0"],
    [3669,"2010-10-06T16:00:00","29.8","6.82","19.87","1208.54","48.86","ND","1.3","282.9","26.9","61.3","215.3","0"],
    [3670,"2010-10-06T17:00:00","29.2","31.96","20.74","1037.62","44.75","ND","1.1","283.9","27.2","61.2","158.9","0"],
    [3671,"2010-10-06T18:00:00","33.3","34.31","27.25","1154.06","33.63","ND","0.8","18","26.1","63","47.9","0"],
    [3672,"2010-10-06T19:00:00","56.8","32.85","26.79","1310.81","26.25","ND","0.3","273.4","24.9","70.8","0.2","0"],
    [3673,"2010-10-06T20:00:00","58.7","49.95","44.85","1866.71","12.85","ND","0.4","250.2","23.8","75.7","0","0"],
    [3674,"2010-10-06T21:00:00","45.8","61.82","45.06","3662.59","5.02","ND","0.1","256","23.3","79.4","0","0"],
    [3675,"2010-10-06T22:00:00","71.2","27.38","32.70","3303.31","2.97","ND","0.2","221.3","22.8","81.1","0","0"],
    [3676,"2010-10-06T23:00:00","65.8","20.89","30.44","3809.45","3.88","ND","0.1","129.4","22.9","80.3","0","0"],
    [3677,"2010-10-07T00:00:00","71","18.55","29.72","3901.74","3.00","ND","0.1","108.4","22.4","82","0","0"],
    [3678,"2010-10-07T01:00:00","55","15.69","29.50","3122.93","2.96","ND","0","7.3","22.2","84.5","0","0"],
    [3679,"2010-10-07T02:00:00","55.4","12.93","25.82","2099.46","3.36","ND","0.1","6.7","22.2","83.9","0","0"],
    [3680,"2010-10-07T03:00:00","50.2","10.85","21.75","2076.76","2.92","ND","0.3","221.5","22.1","84.3","0","0"],
    [3681,"2010-10-07T04:00:00","45","9.00","22.46","1803.79","2.55","ND","0.1","213","22.2","83.2","0","0"],
    [3682,"2010-10-07T05:00:00","25.1","8.15","20.88","1793.05","2.33","ND","1.1","20","21.2","90.1","0","0"],
    [3683,"2010-10-07T06:00:00","48","7.35","18.59","1492.92","4.51","ND","0.2","301.7","21.2","89.6","0.3","0"],
    [3684,"2010-10-07T07:00:00","63.2","11.72","20.68","1515.54","3.04","ND","0","153.3","21.5","88.2","23.6","0"],
    [3685,"2010-10-07T08:00:00","55.6","12.38","20.25","1664.26","3.01","ND","0.2","24.9","22.1","86.2","108.7","0"],
    [3686,"2010-10-07T09:00:00","74.4","12.58","20.85","2427.74","3.87","ND","0.2","148.7","23.3","80.3","248.4","0"],
    [3687,"2010-10-07T10:00:00","86.1","13.83","36.37","2585.69","3.43","ND","0.7","84.5","24.9","73.5","434.2","0"],
    [3688,"2010-10-07T11:00:00","80.6","18.96","59.03","2473.68","7.08","ND","1","62.3","25.8","68.7","498.5","0"],
    [3689,"2010-10-07T12:00:00","58.9","23.28","71.27","2090.60","24.06","ND","0.7","28.3","27.4","61.8","749.5","0"],
    [3690,"2010-10-07T13:00:00","42.6","32.22","46.04","1559.03","49.16","ND","1","87.2","28.9","57.2","586.1","0"],
    [3691,"2010-10-07T14:00:00","42.8","36.71","30.47","1241.84","75.90","ND","1.3","55.6","29.5","55.1","608.2","0"],
    [3692,"2010-10-07T15:00:00","28.3","33.17","25.35","1302.46","96.63","ND","2.4","270.8","30","51.5","481.6","0"],
    [3693,"2010-10-07T16:00:00","22.5","43.51","20.97","1083.29","96.97","ND","3.5","289.5","29.4","51.5","441.2","0"],
    [3694,"2010-10-07T17:00:00","15.6","29.81","14.53","883.52","52.47","ND","1.2","242.3","29.5","50.4","163.1","0"],
    [3695,"2010-10-07T18:00:00","15","11.65","7.53","814.03","33.76","ND","0.9","264.8","28.5","53.2","47.6","0"],
    [3696,"2010-10-07T19:00:00","19.9","8.96","11.22","927.25","26.29","ND","0.2","16.9","27.7","54.7","0.2","0"],
    [3697,"2010-10-07T20:00:00","20.3","11.03","21.38","1028.83","20.14","ND","0.5","58.9","27.1","59.5","0","0"],
    [3698,"2010-10-07T21:00:00","28.3","9.00","19.21","1061.39","16.86","ND","1.1","146.1","26.7","61.3","0","0"],
    [3699,"2010-10-07T22:00:00","35","11.33","34.25","1970.16","5.39","ND","0.3","50.8","25.7","67","0","0"],
    [3700,"2010-10-07T23:00:00","31.7","11.40","29.32","1630.58","4.64","ND","0.8","165","24.7","73.2","0","0"],
    [3701,"2010-10-08T00:00:00","24.9","10.76","30.59","1899.79","3.88","ND","0.2","36.5","24.2","75.2","0","0"],
    [3702,"2010-10-08T01:00:00","20.5","11.13","24.79","1725.22","4.70","ND","0.2","292.5","23.5","78.8","0","0"],
    [3703,"2010-10-08T02:00:00","29.2","7.90","23.20","1470.39","3.73","ND","0.4","248.1","23.3","80","0","0"],
    [3704,"2010-10-08T03:00:00","24.1","7.19","21.11","1309.93","2.83","ND","0.1","35.9","23.4","81.4","0","0"],
    [3705,"2010-10-08T04:00:00","23.2","6.62","19.52","1447.11","2.65","ND","0.3","95.1","22.8","84","0","0"],
    [3706,"2010-10-08T05:00:00","19.9","6.32","19.27","1353.21","3.19","ND","0.4","239.3","22.6","85.4","0","0"],
    [3707,"2010-10-08T06:00:00","16.4","6.99","17.34","1125.02","4.22","ND","0.2","272.7","22.5","85.5","0.4","0"],
    [3708,"2010-10-08T07:00:00","10.2","5.92","16.17","1215.52","4.32","ND","0.4","22.5","22.7","84.5","23.9","0"],
    [3709,"2010-10-08T08:00:00","43.2","5.77","15.77","1227.71","2.71","ND","1.8","41.8","22.4","86.5","63.2","0"],
    [3710,"2010-10-08T09:00:00","24.1","8.13","20.29","1726.13","2.88","ND","0.6","348.2","23.5","81.6","259.9","0"],
    [3711,"2010-10-08T10:00:00","34.5","10.19","20.09","1276.62","4.59","ND","1","245.4","25.9","65.6","440.4","0"],
    [3712,"2010-10-08T11:00:00","17.9","37.48","23.12","1240.99","6.18","ND","0.5","271.8","26.9","59.1","518.1","0"],
    [3713,"2010-10-08T12:00:00","24.1","87.44","24.45","1083.74","13.69","ND","1.1","107.1","28.3","52.3","612.6","0"],
    [3714,"2010-10-08T13:00:00","14.6","50.12","18.68","903.47","26.17","ND","1.4","108","29.7","48.8","461.8","0"],
    [3715,"2010-10-08T14:00:00","9.8","28.53","17.18","896.03","39.53","ND","1.7","97.6","28","56.6","145.1","0"],
    [3716,"2010-10-08T15:00:00","5.4","18.02","16.57","914.14","53.79","ND","1.7","165.5","27.8","59.7","244.9","0"],
    [3717,"2010-10-08T16:00:00","17.4","15.29","16.84","948.22","39.52","ND","1.1","149.5","28.7","51.1","325.5","0"],
    [3718,"2010-10-08T17:00:00","10.9","11.73","20.38","1067.04","34.77","ND","1.1","269.4","29","50.7","244.3","0"],
    [3719,"2010-10-08T18:00:00","24.2","9.59","21.64","1137.76","35.72","ND","0.8","254","28.1","53.3","77","0"],
    [3720,"2010-10-08T19:00:00","21.7","9.98","20.23","1111.22","40.87","ND","0.1","170.3","27.2","56.4","0.4","0"],
    [3721,"2010-10-08T20:00:00","34.8","9.34","23.07","1200.23","20.62","ND","0.2","344.2","25.5","65.2","0","0"],
    [3722,"2010-10-08T21:00:00","64.6","10.60","43.15","1996.70","5.35","ND","0.1","354.2","24.8","68.1","0","0"],
    [3723,"2010-10-08T22:00:00","79","12.62","44.57","2461.40","2.77","ND","0.2","180.9","24.2","71.8","0","0"],
    [3724,"2010-10-08T23:00:00","56.5","12.33","39.60","2102.26","4.15","ND","0.2","6.7","23.4","76.4","0","0"],
    [3725,"2010-10-09T00:00:00","73.7","14.91","39.71","2689.12","3.01","ND","0.2","242.1","22.7","79.8","0","0"],
    [3726,"2010-10-09T01:00:00","55.7","13.16","34.54","2660.03","4.75","ND","0.3","346.4","22.7","79.8","0","0"],
    [3727,"2010-10-09T02:00:00","58","11.10","29.88","2387.21","4.28","ND","1.1","8.6","21.6","85.8","0","0"],
    [3728,"2010-10-09T03:00:00","44.1","12.20","30.68","2333.03","2.60","ND","0.3","283.3","22.1","83.6","0","0"],
    [3729,"2010-10-09T04:00:00","45.9","17.18","23.44","1350.01","3.81","ND","0.1","218.7","22.2","84.3","0","0"],
    [3730,"2010-10-09T05:00:00","25.2","14.12","24.20","1452.60","2.94","ND","0.8","133.9","22.2","84.7","0","0"],
    [3731,"2010-10-09T06:00:00","27.2","12.77","23.02","1554.74","3.58","ND","0.8","174.9","22","85.1","0.7","0"],
    [3732,"2010-10-09T07:00:00","22.9","14.01","21.48","1383.57","3.22","ND","0.8","138.6","22","84.6","37.8","0"],
    [3733,"2010-10-09T08:00:00","36.1","12.63","20.29","1338.21","4.60","ND","1.5","170.7","22.9","79","173.8","0"],
    [3734,"2010-10-09T09:00:00","24.8","10.59","20.72","1399.17","4.36","ND","2.3","150.9","24.2","73.2","434.2","0"],
    [3735,"2010-10-09T10:00:00","42.8","10.82","24.16","1382.46","6.01","ND","1.8","154.1","26","65.9","646.3","0"],
    [3736,"2010-10-09T11:00:00","22.9","11.09","27.21","1333.36","12.52","ND","1.9","144.7","27.3","61.6","535.1","0"],
    [3737,"2010-10-09T12:00:00","21","11.59","26.36","1269.89","32.97","ND","0.3","155.5","28.4","57.2","696.5","0"],
    [3738,"2010-10-09T13:00:00","32.7","12.64","20.61","1089.16","54.54","ND","1.1","160.9","30.1","52","731.3","0"],
    [3739,"2010-10-09T14:00:00","52.8","14.44","17.70","1025.39","91.65","ND","0.8","170.8","31.3","47.7","730.8","0"],
    [3740,"2010-10-09T15:00:00","35.3","16.48","19.58","1099.64","112.50","ND","1.2","105.7","32","46.8","626.3","0"],
    [3741,"2010-10-09T16:00:00","53","16.14","21.55","1207.69","141.05","ND","0.9","88.9","31.3","48.8","176.2","0"],
    [3742,"2010-10-09T17:00:00","37.2","15.76","22.25","1240.02","137.87","ND","0.7","326.8","30.8","51","197.8","0"],
    [3743,"2010-10-09T18:00:00","43.9","14.32","21.01","1202.94","135.06","ND","1.1","273.9","29.5","55.6","41.7","0"],
    [3744,"2010-10-09T19:00:00","33.9","10.93","20.13","1162.91","69.70","ND","0.5","211","28.4","55.8","0.1","0"],
    [3745,"2010-10-09T20:00:00","49.8","8.77","29.68","1309.31","57.82","ND","0.5","226.3","27.7","57.7","0","0"],
    [3746,"2010-10-09T21:00:00","52.8","10.05","36.85","1502.78","39.86","ND","0.4","143.7","27","61.6","0","0"],
    [3747,"2010-10-09T22:00:00","74.5","9.97","46.49","1729.94","27.28","ND","0.7","90","26","65.7","0","0"],
    [3748,"2010-10-09T23:00:00","64.7","13.99","67.20","2540.29","5.06","ND","0.3","110.6","24.9","72.2","0","0"],
    [3749,"2010-10-10T00:00:00","48.8","18.44","55.60","2313.35","5.98","ND","0.3","201.7","24.3","75.2","0","0"],
    [3750,"2010-10-10T01:00:00","40.1","12.34","40.76","1965.82","5.19","ND","0.5","174.3","24.2","75.1","0","0"],
    [3751,"2010-10-10T02:00:00","32.4","11.86","40.25","2422.17","3.31","ND","0.1","208.3","23.9","77.1","0","0"],
    [3752,"2010-10-10T03:00:00","45.2","8.30","33.70","1894.69","5.26","ND","0.5","139.5","23.6","79.5","0","0"],
    [3753,"2010-10-10T04:00:00","46.3","8.19","32.09","1790.15","3.67","ND","0.4","129.6","23.4","80.9","0","0"],
    [3754,"2010-10-10T05:00:00","35.4","8.47","26.00","1526.87","6.11","ND","0.1","302","22.9","85.3","0","0"],
    [3755,"2010-10-10T06:00:00","38.5","7.52","22.85","1421.92","6.66","ND","0.4","15.4","22.8","85.8","0.5","0"],
    [3756,"2010-10-10T07:00:00","35.8","6.22","21.09","1501.04","5.63","ND","0.3","109.1","23","84.1","46.9","0"],
    [3757,"2010-10-10T08:00:00","42.4","6.38","21.98","1581.71","3.00","ND","0.7","123.9","24.1","79.2","228","0"],
    [3758,"2010-10-10T09:00:00","34.2","7.99","23.38","1382.00","5.26","ND","1.3","117.2","25.9","69.6","459.3","0"],
    [3759,"2010-10-10T10:00:00","34.8","10.72","24.94","1309.94","13.29","ND","0.9","142.8","27.3","63.2","657.4","0"],
    [3760,"2010-10-10T11:00:00","28.6","17.72","20.65","992.83","23.45","ND","1.2","116.7","28.5","58.5","768.6","0"],
    [3761,"2010-10-10T12:00:00","44.4","20.28","16.73","857.71","46.64","ND","0.8","95.1","29.7","53.8","823.6","0"],
    [3762,"2010-10-10T13:00:00","24.5","28.21","17.41","884.39","66.30","ND","1.6","60.2","30.7","51.2","575.6","0"],
    [3763,"2010-10-10T14:00:00","45.9","29.03","13.59","805.59","88.20","ND","1.6","55.5","30.3","52.4","397.8","0"],
    [3764,"2010-10-10T15:00:00","24.5","35.74","14.86","874.49","107.37","ND","0.4","337.7","30.2","51.4","198.3","0"],
    [3765,"2010-10-10T16:00:00","35.3","35.22","12.99","792.61","111.67","ND","2.4","257.3","29.9","51","190.3","0"],
    [3766,"2010-10-10T17:00:00","18.6","30.95","12.69","803.47","73.60","ND","1.1","271.6","29.9","50.7","139.5","0"],
    [3767,"2010-10-10T18:00:00","19.2","15.37","12.37","838.40","44.50","ND","1.4","252.3","28.5","54.2","35.3","0"],
    [3768,"2010-10-10T19:00:00","35.4","14.87","15.44","822.93","44.89","ND","0.3","123.1","27.8","55.8","0","0"],
    [3769,"2010-10-10T20:00:00","46.7","15.05","20.06","994.48","32.11","ND","0.5","148.3","27.3","57.6","0","0"],
    [3770,"2010-10-10T21:00:00","41","14.92","28.01","1235.26","17.60","ND","0.8","177.6","26.3","61.3","0","0"],
    [3771,"2010-10-10T22:00:00","33.2","14.05","43.24","1633.86","5.09","ND","0.6","153.2","25.3","67.5","0","0"],
    [3772,"2010-10-10T23:00:00","46.7","11.93","34.78","1697.21","7.66","ND","0.3","1.9","24.6","71.8","0","0"],
    [3773,"2010-10-11T00:00:00","51.5","15.15","34.70","1933.48","3.65","ND","0.2","34.2","23.4","77.1","0","0"],
    [3774,"2010-10-11T01:00:00","31.7","13.42","32.45","1925.68","4.29","ND","0.4","133.5","23.3","77.3","0","0"],
    [3775,"2010-10-11T02:00:00","18","15.79","26.52","1161.85","3.79","ND","0.1","91.8","22.7","80","0","0"],
    [3776,"2010-10-11T03:00:00","10.6","14.40","24.07","1216.34","4.83","ND","0.1","234","22.5","81.1","0","0"],
    [3777,"2010-10-11T04:00:00","10.6","10.21","18.41","1158.72","4.77","ND","0.1","305.8","21.9","83.7","0","0"],
    [3778,"2010-10-11T05:00:00","5.9","7.05","18.90","1213.05","3.36","ND","0","299.7","21.5","84.7","0","0"],
    [3779,"2010-10-11T06:00:00","22.5","6.91","16.01","1098.19","3.34","ND","0.4","338.8","21.6","84.9","0.8","0"],
    [3780,"2010-10-11T07:00:00","26.1","6.61","15.32","1177.84","3.07","ND","0.9","2.5","21.9","83.8","52.5","0"],
    [3781,"2010-10-11T08:00:00","55","7.73","18.17","1439.79","3.20","ND","0.7","49.7","23.2","78.1","228.1","0"],
    [3782,"2010-10-11T09:00:00","59","11.49","24.34","1548.62","4.04","ND","1","64.1","24.9","69.2","491.9","0"],
    [3783,"2010-10-11T10:00:00","51.3","29.83","32.50","1546.05","6.51","ND","0.9","31.9","26.5","62.2","664.2","0"],
    [3784,"2010-10-11T11:00:00","40.7","120.11","32.54","1243.48","15.50","ND","1","97.8","28.4","55.7","780.8","0"],
    [3785,"2010-10-11T12:00:00","38.6","52.98","19.09","857.42","36.74","ND","1.3","65.3","29.7","51.7","770.5","0"],
    [3786,"2010-10-11T13:00:00","20.5","33.27","16.38","861.12","59.00","ND","1.5","55.7","30.3","48.7","633.8","0"],
    [3787,"2010-10-11T14:00:00","21.5","30.72","14.24","897.81","77.69","ND","1.6","92.3","31.2","45.3","658.5","0"],
    [3788,"2010-10-11T15:00:00","21.3","23.70","13.25","806.92","94.67","ND","1.5","67.4","31.9","41.5","487.9","0"],
    [3789,"2010-10-11T16:00:00","51","16.59","14.59","773.61","96.42","ND","1.7","329.9","31.3","45.8","280.9","0"],
    [3790,"2010-10-11T17:00:00","38.3","16.16","19.04","818.88","121.35","ND","2.8","273.4","30.9","45.2","251.1","0"],
    [3791,"2010-10-11T18:00:00","44.2","15.07","23.24","981.36","72.86","ND","1.1","249.5","29.4","47.7","25.5","0"],
    [3792,"2010-10-11T19:00:00","43.3","12.71","19.48","860.27","57.61","ND","0.3","105.6","28.5","51","0","0"],
    [3793,"2010-10-11T20:00:00","75.8","11.19","28.47","1077.93","44.83","ND","0.4","94.1","27.9","53.4","0","0"],
    [3794,"2010-10-11T21:00:00","65.3","13.92","60.29","1735.13","16.57","ND","0.7","83.7","27","58","0","0"],
    [3795,"2010-10-11T22:00:00","74.6","15.27","70.31","2006.74","5.79","ND","0.9","100.7","25.7","65.1","0","0"],
    [3796,"2010-10-11T23:00:00","66.1","16.42","63.77","1963.59","4.27","ND","0.3","143.7","24.7","70.8","0","0"],
    [3797,"2010-10-12T00:00:00","56.7","16.86","49.15","1876.90","4.27","ND","0.3","52.1","23.8","74.9","0","0"],
    [3798,"2010-10-12T01:00:00","50.8","13.15","34.22","1334.96","5.20","ND","0.4","344.9","22.9","77.9","0","0"],
    [3799,"2010-10-12T02:00:00","39.6","10.75","31.03","1296.79","3.62","ND","0.2","21.2","22.5","81.4","0","0"],
    [3800,"2010-10-12T03:00:00","38.4","10.29","27.57","1317.76","3.93","ND","0.2","359.5","22.2","81.9","0","0"],
    [3801,"2010-10-12T04:00:00","30.6","10.88","24.29","1395.86","4.32","ND","0.2","297.8","22","82.4","0","0"],
    [3802,"2010-10-12T05:00:00","16.4","13.77","22.73","1315.53","4.27","ND","0.1","39.1","21.3","83.8","0","0"],
    [3803,"2010-10-12T06:00:00","41.8","11.64","22.17","1312.40","2.93","ND","0.1","43.5","20.9","85.6","1.4","0"],
    [3804,"2010-10-12T07:00:00","46.2","9.15","17.27","1242.83","2.86","ND","0.2","67.1","21.8","81.9","74.2","0"],
    [3805,"2010-10-12T08:00:00","63.8","11.22","20.70","1291.97","3.34","ND","0.9","14.9","23.4","73.6","262.6","0"],
    [3806,"2010-10-12T09:00:00","59.1","12.38","25.21","1663.61","4.16","ND","1.1","61.2","24.9","68.7","481.1","0"],
    [3807,"2010-10-12T10:00:00","60.9","17.81","46.28","2153.02","6.91","ND","1.1","129.7","26.6","60.7","665.5","0"],
    [3808,"2010-10-12T11:00:00","ND","24.34","36.62","1382.11","26.89","ND","1.7","116.3","28.1","54.7","743.9","0"],
    [3809,"2010-10-12T12:00:00","46.3","ND","ND","ND","65.37","ND","1.8","116.5","29.7","48.5","782.7","0"],
    [3810,"2010-10-12T13:00:00","33.2","ND","ND","ND","91.55","ND","1.9","91.6","30.8","44","776.9","0"],
    [3811,"2010-10-12T14:00:00","30.6","18.16","ND","712.42","ND","ND","0.7","30.1","31.4","44.9","489.1","0"],
    [3812,"2010-10-12T15:00:00","47.5","15.82","15.16","912.76","113.18","ND","1.3","258.8","31.4","45.9","374.6","0"],
    [3813,"2010-10-12T16:00:00","26.2","20.42","16.70","1006.38","133.46","ND","3.1","268.2","30.5","48.3","273.4","0"],
    [3814,"2010-10-12T17:00:00","17.8","19.24","18.28","875.06","70.49","ND","1.9","262.2","29.7","49.5","121.1","0"],
    [3815,"2010-10-12T18:00:00","10.9","12.62","16.84","965.85","52.32","ND","0.7","260.9","29","50.4","22.9","0"],
    [3816,"2010-10-12T19:00:00","40","14.55","25.00","1079.72","43.17","ND","0.3","142.9","28.2","52","0","0"],
    [3817,"2010-10-12T20:00:00","30.8","13.27","29.60","1192.65","37.65","ND","0.7","154.9","27.4","56","0","0"],
    [3818,"2010-10-12T21:00:00","38.4","11.33","33.93","1328.06","21.88","ND","0.4","97.1","26.7","59.6","0","0"],
    [3819,"2010-10-12T22:00:00","43.8","11.86","42.66","1716.69","7.36","ND","0.7","104.7","26","62.9","0","0"],
    [3820,"2010-10-12T23:00:00","64.7","14.14","43.94","1873.61","4.43","ND","0.7","168.9","24.9","68","0","0"],
    [3821,"2010-10-13T00:00:00","65","21.48","38.15","1969.78","4.26","ND","0.4","135.1","24.6","70.4","0","0"],
    [3822,"2010-10-13T01:00:00","60.3","20.20","30.41","1590.26","3.17","ND","0.2","34.7","23.9","73.9","0","0"],
    [3823,"2010-10-13T02:00:00","48.2","16.37","28.69","1460.96","4.85","ND","0.2","26.8","23","77.4","0","0"],
    [3824,"2010-10-13T03:00:00","32.6","19.57","25.01","1240.33","4.35","ND","0.1","267.6","23","78.2","0","0"],
    [3825,"2010-10-13T04:00:00","19.1","16.94","17.83","1115.16","4.99","ND","0.4","21.4","22.7","79.2","0","0"],
    [3826,"2010-10-13T05:00:00","40.8","10.35","19.89","1102.66","3.62","ND","0.2","327.3","22.4","80.6","0","0"],
    [3827,"2010-10-13T06:00:00","30.3","11.74","21.23","1090.19","3.13","ND","0","271.7","22.2","81.7","1","0"],
    [3828,"2010-10-13T07:00:00","42.2","12.25","20.56","1146.19","3.03","ND","0.2","51.5","22.4","81.3","47.4","0"],
    [3829,"2010-10-13T08:00:00","69.3","10.18","19.27","1385.45","2.80","ND","0.7","94.1","23.9","75.3","245.7","0"],
    [3830,"2010-10-13T09:00:00","48.2","13.03","25.73","1677.83","3.60","ND","0.7","111.9","25.5","68.8","477.8","0"],
    [3831,"2010-10-13T10:00:00","36.2","18.69","39.32","1927.85","8.31","ND","1.3","105.3","27","63.3","617.1","0"],
    [3832,"2010-10-13T11:00:00","35.4","28.07","39.40","1522.35","23.41","ND","1.2","78.4","28.2","59.1","674.8","0"],
    [3833,"2010-10-13T12:00:00","49","27.65","30.76","1296.86","49.07","ND","1.6","34.7","29.4","54.4","710.1","0"],
    [3834,"2010-10-13T13:00:00","27.1","27.87","16.59","744.01","61.65","ND","1.8","61.1","30","53","618","0"],
    [3835,"2010-10-13T14:00:00","14.6","24.30","14.59","768.79","82.67","ND","1.7","50.3","30.9","50.4","755.1","0"],
    [3836,"2010-10-13T15:00:00","18.6","24.58","12.93","771.07","70.00","ND","1","3.3","31.4","47.8","304.1","0"],
    [3837,"2010-10-13T16:00:00","14.8","32.89","13.43","748.94","81.06","ND","2","256.9","31.2","48.2","314.3","0"],
    [3838,"2010-10-13T17:00:00","21.7","30.97","16.52","689.97","75.94","ND","2.8","272.2","30.9","48.3","230.9","0"],
    [3839,"2010-10-13T18:00:00","28.3","20.87","18.71","806.12","55.33","ND","1.9","254.2","29.4","49.7","36.1","0"],
    [3840,"2010-10-13T19:00:00","31.8","17.42","20.66","918.39","61.85","ND","0.3","53.4","28.2","52.8","0.1","0"],
    [3841,"2010-10-13T20:00:00","26.8","13.32","27.83","1181.07","38.66","ND","0.8","249","27.7","55.8","0","0"],
    [3842,"2010-10-13T21:00:00","54.2","12.27","41.58","1444.98","19.48","ND","1.2","142.2","27.2","58.9","0","0"],
    [3843,"2010-10-13T22:00:00","51.3","11.35","42.71","1488.74","14.51","ND","0.7","90","26.1","64.5","0","0"],
    [3844,"2010-10-13T23:00:00","54.4","15.17","45.26","1598.27","3.43","ND","0.4","137.9","25.2","69.8","0","0"],
    [3845,"2010-10-14T00:00:00","28.7","19.32","36.98","1593.46","5.79","ND","0.4","91.4","24.7","72.2","0","0"],
    [3846,"2010-10-14T01:00:00","33.3","16.10","28.19","1430.57","5.55","ND","0.2","44.6","24.2","74.8","0","0"],
    [3847,"2010-10-14T02:00:00","36.3","11.92","25.32","1188.23","3.95","ND","1","150.2","24","77.9","0","0"],
    [3848,"2010-10-14T03:00:00","40.1","11.52","24.31","1073.26","3.42","ND","0.1","242.6","23.7","80.5","0","0"],
    [3849,"2010-10-14T04:00:00","55.2","12.18","21.45","1163.42","4.42","ND","0.1","140.6","23.3","80.2","0","0"],
    [3850,"2010-10-14T05:00:00","60.6","8.13","21.78","1127.68","5.72","ND","0.2","248","22.9","82.5","0","0"],
    [3851,"2010-10-14T06:00:00","41.1","9.37","19.43","1103.41","4.73","ND","0.6","225.1","22.8","83.9","2","0"],
    [3852,"2010-10-14T07:00:00","50.5","8.37","18.83","1091.66","4.17","ND","0.1","62.6","23.2","81.3","69.1","0"],
    [3853,"2010-10-14T08:00:00","45.2","7.97","17.73","1150.07","4.14","ND","1.5","136.4","23.6","75.2","136.3","0"],
    [3854,"2010-10-14T09:00:00","65.4","8.06","21.39","1493.70","5.14","ND","0.4","252.7","24.5","72.4","313.8","0"],
    [3855,"2010-10-14T10:00:00","50.1","12.61","26.23","1498.23","6.58","ND","0.8","100","26.7","64.6","608.5","0"],
    [3856,"2010-10-14T11:00:00","64.2","14.65","37.32","1532.35","14.15","ND","1","66.2","28","59.2","554","0"],
    [3857,"2010-10-14T12:00:00","45.1","54.39","41.36","1377.00","38.91","ND","0.7","13.3","28.9","56.1","581","0"],
    [3858,"2010-10-14T13:00:00","50.3","54.55","25.34","1009.72","61.33","ND","1.1","43.1","29.2","54.8","379.3","0"],
    [3859,"2010-10-14T14:00:00","44.6","58.01","22.37","882.93","84.14","ND","1.6","43.2","29.3","54.6","337.7","0"],
    [3860,"2010-10-14T15:00:00","37","52.42","18.21","813.50","82.93","ND","1","278.2","30.1","51.4","391.9","0"],
    [3861,"2010-10-14T16:00:00","19.2","34.51","15.94","815.65","64.55","ND","2.4","262.2","29.2","51.9","142.7","0"],
    [3862,"2010-10-14T17:00:00","19.7","22.48","12.84","801.61","37.19","ND","1.8","264.7","28.6","53","115.9","0"],
    [3863,"2010-10-14T18:00:00","11.1","14.21","14.79","1020.31","25.72","ND","1.1","240.4","27.8","55.3","36.7","0"],
    [3864,"2010-10-14T19:00:00","26.6","13.78","21.25","1040.73","20.60","ND","0.2","41","27.1","56.9","0","0"],
    [3865,"2010-10-14T20:00:00","30.2","13.17","25.51","1015.24","15.22","ND","0.2","223.3","26.1","61.1","0","0"],
    [3866,"2010-10-14T21:00:00","38.5","13.83","37.39","1678.76","6.54","ND","0.5","60.9","26.3","59.9","0","0"],
    [3867,"2010-10-14T22:00:00","35.5","15.08","39.21","2025.06","3.84","ND","1","163.8","25.6","64","0","0"],
    [3868,"2010-10-14T23:00:00","56.6","14.20","34.18","1434.89","5.39","ND","0.5","58.1","24.6","69.1","0","0"],
    [3869,"2010-10-15T00:00:00","30.7","19.68","31.56","1887.71","4.10","ND","0.3","120.7","23.5","73.4","0","0"],
    [3870,"2010-10-15T01:00:00","32.4","18.67","29.08","1686.96","4.55","ND","1.1","164.1","23.4","77.3","0","0"],
    [3871,"2010-10-15T02:00:00","18.6","15.64","23.34","1128.06","2.91","ND","0.2","217.8","23.1","78.8","0","0"],
    [3872,"2010-10-15T03:00:00","26.8","12.42","21.61","1115.54","3.80","ND","0.1","317.5","22.8","80.1","0","0"],
    [3873,"2010-10-15T04:00:00","23.6","9.31","20.15","1068.92","3.99","ND","0","272.2","22.4","81.7","0","0"],
    [3874,"2010-10-15T05:00:00","18.2","8.18","19.30","1078.83","2.68","ND","0.1","13.5","22.3","81.4","0","0"],
    [3875,"2010-10-15T06:00:00","16.7","7.69","17.71","1101.17","3.48","ND","0.4","353.8","22.1","82.2","0.3","0"],
    [3876,"2010-10-15T07:00:00","72","7.94","18.30","1043.70","2.39","ND","0.1","2.9","22.6","80.6","27.3","0"],
    [3877,"2010-10-15T08:00:00","69.9","15.23","21.60","1318.20","3.50","ND","0.8","94.4","23.2","78.8","115.1","0"],
    [3878,"2010-10-15T09:00:00","90.8","13.83","21.49","1616.94","3.84","ND","1.3","156.1","24.4","74.8","310.6","0"],
    [3879,"2010-10-15T10:00:00","58.6","28.14","31.97","2000.78","4.43","ND","1.7","127.2","25.7","67.9","381.2","0"],
    [3880,"2010-10-15T11:00:00","48.5","22.85","36.95","1688.00","11.00","ND","1.1","164.4","26.9","60.6","607.4","0"],
    [3881,"2010-10-15T12:00:00","34.1","19.28","35.71","1395.02","19.41","ND","2","110.1","27.5","60.3","507.7","0"],
    [3882,"2010-10-15T13:00:00","25","20.29","28.24","1085.91","47.39","ND","0.8","86","28","58.4","421.3","0"],
    [3883,"2010-10-15T14:00:00","13.7","17.89","20.36","972.00","53.97","ND","0.4","26.7","28.2","57.8","373","0"],
    [3884,"2010-10-15T15:00:00","44.5","16.71","21.93","1076.86","75.41","ND","1.6","254.5","28.1","55","177.1","0"],
    [3885,"2010-10-15T16:00:00","38.4","17.98","22.91","1041.77","93.94","ND","1.9","250.6","27.2","58","114.8","0"],
    [3886,"2010-10-15T17:00:00","24.5","21.04","21.16","992.50","64.62","ND","2.1","243.9","25.8","63.3","67.6","0"],
    [3887,"2010-10-15T18:00:00","14.4","11.82","22.85","987.87","27.11","ND","1.7","246.8","25.4","64.1","11.1","0"],
    [3888,"2010-10-15T19:00:00","11","10.81","27.08","1319.22","13.40","ND","0.6","277.5","23.7","75.8","0","0"],
    [3889,"2010-10-15T20:00:00","23.8","10.25","27.79","1448.57","13.40","ND","0.3","314.7","23.6","77.5","0","0"],
    [3890,"2010-10-15T21:00:00","30","9.52","33.11","1972.59","6.93","ND","0.2","226.3","23.4","76.9","0","0.25"],
    [3891,"2010-10-15T22:00:00","18.6","11.62","36.59","2518.20","4.08","ND","0.2","234.5","22.7","80.1","0","0"],
    [3892,"2010-10-15T23:00:00","26.4","13.81","31.36","2103.02","4.93","ND","0.2","108.7","22.5","81.7","0","0"],
    [3893,"2010-10-16T00:00:00","53.1","11.80","27.64","2169.75","2.96","ND","1.1","131.7","22.4","83.1","0","0"],
    [3894,"2010-10-16T01:00:00","39.5","11.95","26.47","2543.77","3.21","ND","0.6","164.9","22","85.5","0","0"],
    [3895,"2010-10-16T02:00:00","40.8","10.66","28.56","1973.29","4.47","ND","0.3","171.8","22","86.4","0","0"],
    [3896,"2010-10-16T03:00:00","21.8","9.39","26.94","1655.75","3.21","ND","0.4","201.5","22","86.5","0","0"],
    [3897,"2010-10-16T04:00:00","24.2","8.07","25.90","1553.68","3.50","ND","0.2","67.8","22","86.8","0","0"],
    [3898,"2010-10-16T05:00:00","25.3","7.29","24.76","1451.62","3.55","ND","0.3","3.9","21.8","86.4","0","0"],
    [3899,"2010-10-16T06:00:00","44.2","7.13","24.93","1518.63","3.07","ND","0.5","32","21.8","86","0.5","0"],
    [3900,"2010-10-16T07:00:00","50.5","9.75","25.08","1541.30","2.95","ND","0.2","76.9","21.6","87.9","14.9","0"],
    [3901,"2010-10-16T08:00:00","49.5","18.24","25.92","1585.55","2.95","ND","0.7","66.2","21.9","87","87.2","0"],
    [3902,"2010-10-16T09:00:00","57.8","17.09","27.31","1632.51","2.72","ND","0.4","129.7","23.1","80.7","220.3","0"],
    [3903,"2010-10-16T10:00:00","50.9","17.94","27.49","1627.77","6.08","ND","1.2","88.2","24.2","76.2","365.8","0"],
    [3904,"2010-10-16T11:00:00","59.3","20.59","30.05","1359.61","10.29","ND","0.5","180.2","25.5","69","458.7","0"],
    [3905,"2010-10-16T12:00:00","30.4","36.85","35.19","1354.08","17.93","ND","0.7","109.3","27.1","61.7","453.5","0"],
    [3906,"2010-10-16T13:00:00","50.3","46.86","34.35","1199.83","35.14","ND","1.1","245.1","28.5","55.4","803.4","0"],
    [3907,"2010-10-16T14:00:00","32.8","39.84","27.61","1066.34","66.15","ND","0.7","9.4","29.6","50.1","458","0"],
    [3908,"2010-10-16T15:00:00","29.2","35.81","25.80","1093.49","89.61","ND","2","300.2","28.2","53.5","126.5","0"],
    [3909,"2010-10-16T16:00:00","16.8","34.48","20.16","926.33","96.04","ND","2.2","312.1","27.3","58.5","200.9","0"],
    [3910,"2010-10-16T17:00:00","12.7","23.34","16.89","854.29","53.47","ND","2.1","290","27.9","51.9","166","0"],
    [3911,"2010-10-16T18:00:00","12.5","14.34","12.44","763.46","32.48","ND","0.4","215.5","27.4","52.5","25.7","0"],
    [3912,"2010-10-16T19:00:00","19","14.08","16.35","866.13","31.69","ND","0.2","300","26.5","55.4","0","0"],
    [3913,"2010-10-16T20:00:00","22.4","12.14","20.41","886.56","26.88","ND","0.6","171.8","26.2","57.2","0","0"],
    [3914,"2010-10-16T21:00:00","18.1","12.00","21.86","977.69","21.54","ND","1.2","121.4","25.2","64.4","0","0"],
    [3915,"2010-10-16T22:00:00","14.7","11.80","32.10","1238.09","7.09","ND","0.5","327.1","24.3","70","0","0"],
    [3916,"2010-10-16T23:00:00","44.2","9.86","36.28","1302.92","10.69","ND","0.3","226.2","23.6","74.6","0","0"],
    [3917,"2010-10-17T00:00:00","25.1","10.98","43.17","1562.11","5.96","ND","0.7","5.8","23.2","76.7","0","0"],
    [3918,"2010-10-17T01:00:00","26.3","10.70","35.33","1366.43","9.07","ND","0.4","322.4","22.9","78","0","0"],
    [3919,"2010-10-17T02:00:00","22.6","13.76","34.45","1296.79","8.52","ND","0.1","298","22.9","77.8","0","0"],
    [3920,"2010-10-17T03:00:00","40","16.08","32.58","1365.04","5.88","ND","0.4","73.6","22","87.3","0","0.25"],
    [3921,"2010-10-17T04:00:00","28.4","12.58","31.06","1281.50","4.55","ND","0.3","246.7","22.1","87.7","0","0"],
    [3922,"2010-10-17T05:00:00","44.4","13.88","32.23","1372.70","4.94","ND","0.1","306.3","21.9","88.6","0","0"],
    [3923,"2010-10-17T06:00:00","40.7","9.78","30.60","1439.79","3.53","ND","0.2","203.5","21.9","88.7","0.6","0"],
    [3924,"2010-10-17T07:00:00","47.9","11.54","27.08","1462.46","3.63","ND","0.8","166.6","22.2","85.8","35","0"],
    [3925,"2010-10-17T08:00:00","27.4","10.72","25.13","1475.30","4.22","ND","1.3","154.3","22.8","82","114.8","0"],
    [3926,"2010-10-17T09:00:00","52.9","11.05","23.91","1307.72","3.78","ND","1.9","157.8","22.2","87.2","121.3","1.02"],
    [3927,"2010-10-17T10:00:00","27.8","10.25","22.50","1259.68","7.60","ND","1.4","145.2","22.6","86.9","270.3","0"],
    [3928,"2010-10-17T11:00:00","15.7","9.49","20.94","1090.93","8.58","ND","0.7","172.8","24.3","74.9","523.8","0"],
    [3929,"2010-10-17T12:00:00","9.7","9.31","20.54","1051.48","12.06","ND","1","154.2","26.1","64.8","595.7","0"],
    [3930,"2010-10-17T13:00:00","18.4","10.49","18.77","1046.35","32.50","ND","0.7","246.4","27.3","58.2","580.9","0"],
    [3931,"2010-10-17T14:00:00","11.8","14.18","16.72","969.74","52.11","ND","1","146.1","28.3","53.6","490.7","0"],
    [3932,"2010-10-17T15:00:00","11.6","14.52","14.80","961.38","86.71","ND","0.8","153","28.2","54.3","275.4","0"],
    [3933,"2010-10-17T16:00:00","15.8","12.26","14.45","903.17","89.83","ND","1.1","239.1","28.1","54.6","238.6","0"],
    [3934,"2010-10-17T17:00:00","17.8","11.78","14.77","960.75","94.46","ND","2.9","280.5","28.3","52","280.3","0"],
    [3935,"2010-10-17T18:00:00","12.1","10.20","15.31","984.55","74.92","ND","1.2","285.5","27","54.7","20.7","0"],
    [3936,"2010-10-17T19:00:00","20.1","7.99","8.99","807.31","38.82","ND","0.9","105.5","26.3","58.2","0","0"],
    [3937,"2010-10-17T20:00:00","11.4","7.18","12.58","908.98","32.46","ND","1.3","121.1","25.7","60.9","0","0"],
    [3938,"2010-10-17T21:00:00","20.8","7.59","25.79","1148.30","12.25","ND","0.5","129.2","25.3","62.3","0","0"],
    [3939,"2010-10-17T22:00:00","12.8","9.31","31.22","1318.77","5.79","ND","2.1","185.4","24.6","66.4","0","0"],
    [3940,"2010-10-17T23:00:00","35.4","12.35","31.15","1407.21","3.65","ND","2.5","205.1","23.9","69.1","0","0"],
    [3941,"2010-10-18T00:00:00","19.5","11.09","29.35","1746.31","4.91","ND","0.3","100.2","21.9","83.3","0","4.32"],
    [3942,"2010-10-18T01:00:00","11.3","5.68","15.81","929.63","18.76","ND","0.9","163.1","20.8","86.9","0","0"],
    [3943,"2010-10-18T02:00:00","6.8","4.91","10.86","847.10","13.02","ND","0.5","356.6","20.5","89.1","0","0"],
    [3944,"2010-10-18T03:00:00","3.4","4.67","16.94","1207.29","9.08","ND","1.4","19.1","20","90.3","0","0.25"],
    [3945,"2010-10-18T04:00:00","18","4.56","20.48","1295.34","7.29","ND","0.7","30.8","20","90.8","0","0.76"],
    [3946,"2010-10-18T05:00:00","11.5","8.19","17.70","1160.18","12.16","ND","0.6","42.8","19.8","95.3","0","0.25"],
    [3947,"2010-10-18T06:00:00","6.4","27.50","22.45","1181.90","6.09","ND","0.5","139.5","20","94","0.1","0"],
    [3948,"2010-10-18T07:00:00","4.9","15.92","14.00","1137.65","6.62","ND","0.4","141.3","20.2","92.2","9.2","1.02"],
    [3949,"2010-10-18T08:00:00","18","12.12","13.16","1025.71","4.96","ND","0.4","148.9","20.4","92.5","45.5","0.25"],
    [3950,"2010-10-18T09:00:00","11.2","8.33","12.50","1071.53","6.18","ND","1.5","213.5","21.4","86.8","209.3","0"],
    [3951,"2010-10-18T10:00:00","7.8","8.26","14.79","1018.59","5.66","ND","1.6","133.6","23.6","74.4","297.2","0"],
    [3952,"2010-10-18T11:00:00","15.3","8.19","15.30","1014.80","7.93","ND","1.9","77.9","23","81.1","164.7","0"],
    [3953,"2010-10-18T12:00:00","9.5","9.32","16.26","910.33","13.57","ND","0.9","118.3","23.3","76.3","125.5","0"],
    [3954,"2010-10-18T13:00:00","5.7","8.65","17.47","1025.16","22.61","ND","0.6","287.8","24","73","411.5","0"],
    [3955,"2010-10-18T14:00:00","5","8.88","13.74","1027.59","24.39","ND","0.8","270.5","25.4","67.5","467.2","0"],
    [3956,"2010-10-18T15:00:00","3.9","8.26","13.54","1020.96","32.50","ND","1","248.4","26","64.8","265.9","0"],
    [3957,"2010-10-18T16:00:00","4","14.35","16.38","1068.99","51.09","ND","0.3","7.1","27","59.1","306.8","0"],
    [3958,"2010-10-18T17:00:00","25.2","13.37","16.17","1095.63","61.89","ND","1.7","13.4","27","58.2","151.6","0"],
    [3959,"2010-10-18T18:00:00","33.9","18.54","14.13","968.77","64.72","ND","0.7","271.7","26.2","60.8","21.3","0"],
    [3960,"2010-10-18T19:00:00","17.7","47.04","21.16","851.16","51.03","ND","0.2","267.8","25.2","63.1","0","0"],
    [3961,"2010-10-18T20:00:00","31.1","32.20","20.60","1123.45","20.82","ND","0.3","229","24.5","67.6","0","0"],
    [3962,"2010-10-18T21:00:00","19.1","16.58","25.03","1486.79","5.99","ND","0.3","308.4","24.5","66.4","0","0"],
    [3963,"2010-10-18T22:00:00","14.6","17.13","29.01","2481.80","2.39","ND","0.4","150.2","24","74.2","0","0"],
    [3964,"2010-10-18T23:00:00","52.6","14.47","27.12","1529.96","3.17","ND","0.8","135.9","23.5","76.4","0","0"],
    [3965,"2010-10-19T00:00:00","27","14.70","28.02","1983.32","3.55","ND","0.2","172.5","23.1","78.1","0","0"],
    [3966,"2010-10-19T01:00:00","15","12.76","24.98","1661.92","3.65","ND","1.3","129.8","22.9","78.5","0","0"],
    [3967,"2010-10-19T02:00:00","18.5","9.83","21.08","1342.29","3.12","ND","0.6","161.6","22.4","81.8","0","0"],
    [3968,"2010-10-19T03:00:00","11.2","10.52","19.94","1317.31","3.00","ND","1.1","167.5","22.5","81","0","0"],
    [3969,"2010-10-19T04:00:00","6.8","7.85","19.37","1215.52","3.60","ND","0.6","348.4","21.7","83.4","0","0"],
    [3970,"2010-10-19T05:00:00","14.7","7.75","15.31","1178.24","5.80","ND","0.2","12","21.5","85.2","0","0"],
    [3971,"2010-10-19T06:00:00","9.2","8.34","16.75","1143.47","4.19","ND","0.4","38","21.4","85.2","0.4","0"],
    [3972,"2010-10-19T07:00:00","28.9","12.32","17.19","1109.13","2.38","ND","0.1","35.1","21.4","86.3","24","0"],
    [3973,"2010-10-19T08:00:00","36.8","11.08","19.22","1177.04","2.05","ND","0.3","236.3","21.8","86.6","65.7","0"],
    [3974,"2010-10-19T09:00:00","42.7","11.82","20.66","1518.63","2.99","ND","1.2","168.6","22.8","81.7","257","0"],
    [3975,"2010-10-19T10:00:00","42.1","12.54","26.21","2353.90","2.82","ND","1.2","162","24.5","72.9","457.7","0"],
    [3976,"2010-10-19T11:00:00","34.4","14.05","35.52","2070.07","7.11","ND","1.8","251.9","24.7","70.6","342","2.29"],
    [3977,"2010-10-19T12:00:00","18.9","12.88","38.10","1648.01","19.58","ND","2","236.5","23.4","80.6","603.5","17.78"],
    [3978,"2010-10-19T13:00:00","13.3","12.46","25.59","1230.61","33.43","ND","1.2","265.9","27.2","60.1","613.8","0"],
    [3979,"2010-10-19T14:00:00","7.9","5.97","25.67","1465.66","23.50","ND","1.6","282.5","26.9","62.1","610.7","0"],
    [3980,"2010-10-19T15:00:00","5.3","7.67","21.99","1233.62","52.10","ND","1.7","334.3","28.9","52.1","672.1","0"],
    [3981,"2010-10-19T16:00:00","4.5","8.31","13.03","998.12","27.65","ND","2.2","260.5","29.2","50.2","451.7","0"],
    [3982,"2010-10-19T17:00:00","6.2","9.25","9.65","824.84","27.76","ND","2.6","265.4","28.6","51.4","283.3","0"],
    [3983,"2010-10-19T18:00:00","5.6","ND","ND","ND","28.60","ND","0.5","255.2","27.5","53.2","51.5","0"],
    [3984,"2010-10-19T19:00:00","17","7.48","ND","658.47","ND","ND","0.2","218.8","26.5","55.9","0","0"],
    [3985,"2010-10-19T20:00:00","19","6.82","23.68","1128.35","14.20","ND","1.1","133.9","25.8","61","0","0"],
    [3986,"2010-10-19T21:00:00","29.1","8.33","32.71","2044.66","4.39","ND","3.1","180.2","24.7","67.9","0","0"],
    [3987,"2010-10-19T22:00:00","21.6","10.16","33.51","2071.46","4.16","ND","1.7","186.2","24.8","66","0","0"],
    [3988,"2010-10-19T23:00:00","33.1","7.07","31.55","1556.98","6.35","ND","1.7","47","23.7","74","0","0"],
    [3989,"2010-10-20T00:00:00","27.6","5.71","26.03","1323.11","9.55","ND","1.7","2","20.4","91.9","0","9.4"],
    [3990,"2010-10-20T01:00:00","20.8","6.09","23.70","1173.04","7.77","ND","0.6","18.3","19.8","92.8","0","5.59"],
    [3991,"2010-10-20T02:00:00","11.6","7.29","20.12","1114.36","11.86","ND","0.5","172.9","20","92.6","0","1.78"],
    [3992,"2010-10-20T03:00:00","10.9","7.42","18.89","1070.07","8.55","ND","0.6","197","20.2","92.8","0","0.51"],
    [3993,"2010-10-20T04:00:00","6.2","8.25","22.40","1104.61","4.27","ND","1.3","161.7","20.1","94.4","0","1.27"],
    [3994,"2010-10-20T05:00:00","3.8","8.04","18.28","1014.09","6.87","ND","1.9","157.1","19.5","94.5","0","0.51"],
    [3995,"2010-10-20T06:00:00","3.5","6.79","13.83","1034.51","6.11","ND","1","173.9","19.1","94.1","0.3","0"],
    [3996,"2010-10-20T07:00:00","10.9","5.83","10.56","932.03","10.08","ND","1","354.9","19.2","94","37.6","0.25"],
    [3997,"2010-10-20T08:00:00","32.2","5.09","11.62","876.18","9.08","ND","1.6","17.9","20.1","89","223.8","0"],
    [3998,"2010-10-20T09:00:00","18.7","5.88","21.66","1115.50","4.71","ND","0.9","73.2","21.4","82.4","317.1","0"],
    [3999,"2010-10-20T10:00:00","17.8","26.14","28.34","1346.80","6.44","ND","1.8","98.1","22.6","77.6","361.1","0"],
    [4000,"2010-10-20T11:00:00","19.8","22.61","16.96","988.65","16.84","ND","0.9","181.6","23.8","71.2","364.3","0"],
    [4001,"2010-10-20T12:00:00","19.6","17.59","14.88","958.44","21.71","ND","1.7","168.3","24.7","67.5","411.3","0"],
    [4002,"2010-10-20T13:00:00","21.6","13.32","15.35","1041.45","29.76","ND","1.4","113.5","25.2","66.4","366.1","0"],
    [4003,"2010-10-20T14:00:00","26.7","11.20","23.11","1272.48","41.00","ND","0.8","117.7","25.1","66.3","256.6","0"],
    [4004,"2010-10-20T15:00:00","31.7","10.64","20.12","1180.37","49.04","ND","0.7","267.5","25.2","65.4","206.5","0"],
    [4005,"2010-10-20T16:00:00","17.4","10.17","18.21","1043.20","59.85","ND","0.4","240.6","25.4","65.2","156.1","0"],
    [4006,"2010-10-20T17:00:00","36.2","9.63","22.67","975.07","72.27","ND","0.3","44.4","25.6","62.4","118.2","0"],
    [4007,"2010-10-20T18:00:00","34.7","9.01","30.04","1343.06","68.84","ND","0.5","253.1","24.8","67.4","13.2","0"],
    [4008,"2010-10-20T19:00:00","52.3","10.68","32.05","1270.77","41.24","ND","1.5","253.6","23.9","71.8","0","0"],
    [4009,"2010-10-20T20:00:00","36.3","10.68","45.26","1746.31","22.21","ND","0.7","272.8","23.6","73.7","0","0"],
    [4010,"2010-10-20T21:00:00","45.6","8.92","57.16","2109.42","10.45","ND","0.7","252.2","23.4","69.2","0","0"],
    [4011,"2010-10-20T22:00:00","25.1","8.44","64.93","2153.57","7.55","ND","0.6","161.3","23.3","65.1","0","0"],
    [4012,"2010-10-20T23:00:00","39.2","7.14","47.55","1754.17","10.56","ND","1.1","179.4","21.9","78.8","0","0"],
    [4013,"2010-10-21T00:00:00","20.1","7.60","34.03","1519.14","8.04","ND","1.1","225.9","21.2","80.1","0","0"],
    [4014,"2010-10-21T01:00:00","21","9.18","33.82","1549.47","2.67","ND","2.6","245.5","21.6","70","0","0"],
    [4015,"2010-10-21T02:00:00","11.6","8.44","28.88","1449.65","3.94","ND","0.6","285.6","21.4","70.3","0","0"],
    [4016,"2010-10-21T03:00:00","7.8","6.52","13.23","995.96","15.59","ND","0.8","27.2","20.5","83","0","0"],
    [4017,"2010-10-21T04:00:00","42.3","7.64","14.69","970.34","12.95","ND","0.3","276.2","20.4","84.6","0","0"],
    [4018,"2010-10-21T05:00:00","21.8","10.58","23.64","1206.88","4.00","ND","0.1","264.1","19.9","85.6","0","0"],
    [4019,"2010-10-21T06:00:00","15.1","8.86","21.90","1249.86","2.03","ND","0.3","318.8","19.8","83.9","1.8","0"],
    [4020,"2010-10-21T07:00:00","58.4","7.65","19.62","1091.85","2.12","ND","0.2","348.1","20.2","83.8","49.8","0"],
    [4021,"2010-10-21T08:00:00","53.8","8.43","21.74","1217.33","2.51","ND","0.6","352.4","21.9","77.6","247.9","0"],
    [4022,"2010-10-21T09:00:00","79.2","12.21","26.39","1915.94","3.03","ND","1","128.1","23.5","71.4","438.4","0"],
    [4023,"2010-10-21T10:00:00","54","63.35","43.49","1903.53","8.51","ND","0.9","106.8","25.3","63.4","687.3","0"],
    [4024,"2010-10-21T11:00:00","50.6","37.72","43.16","1616.93","18.11","ND","1","118.1","26.9","57","779.9","0"],
    [4025,"2010-10-21T12:00:00","34.2","26.47","38.21","1383.49","48.68","ND","1","69.2","27.9","52.7","571.7","0"],
    [4026,"2010-10-21T13:00:00","19.1","21.06","23.32","1041.08","75.36","ND","1.2","35.6","27.9","51.6","437.2","0"],
    [4027,"2010-10-21T14:00:00","24.7","18.94","17.48","936.97","79.14","ND","1","53.3","28","51.9","350.3","0"],
    [4028,"2010-10-21T15:00:00","14.1","17.20","14.57","856.28","76.31","ND","1.7","251.7","27.6","54","254.4","0"],
    [4029,"2010-10-21T16:00:00","8.2","15.81","14.61","832.03","78.55","ND","1.5","301.8","27.6","53.3","240.7","0"],
    [4030,"2010-10-21T17:00:00","9","12.95","17.42","889.81","45.25","ND","1.2","301.1","27.7","52.2","260.8","0"],
    [4031,"2010-10-21T18:00:00","5.8","10.10","16.88","913.23","28.79","ND","0.4","315.5","27.3","51.6","40.5","0"],
    [4032,"2010-10-21T19:00:00","30.1","8.98","13.06","761.94","25.45","ND","0.4","98","26.5","55.7","0","0"],
    [4033,"2010-10-21T20:00:00","39.2","9.43","19.53","1105.32","14.89","ND","0.3","2.3","25.7","59.2","0","0"],
    [4034,"2010-10-21T21:00:00","28.8","13.79","29.15","1343.51","5.04","ND","0.6","145","25.6","61","0","0"],
    [4035,"2010-10-21T22:00:00","39","13.13","36.42","1905.54","2.73","ND","0.2","89.5","24.4","68.1","0","0"],
    [4036,"2010-10-21T23:00:00","44.5","13.96","33.23","1829.28","2.90","ND","1.2","128.6","22.9","79.2","0","1.02"],
    [4037,"2010-10-22T00:00:00","24.4","26.85","29.64","1638.05","3.14","ND","0.1","185.3","21.7","88.1","0","0.25"],
    [4038,"2010-10-22T01:00:00","13.9","19.20","24.98","1234.88","5.78","ND","0.1","185.7","21.6","89.1","0","0"],
    [4039,"2010-10-22T02:00:00","14.5","10.83","22.38","1223.14","4.17","ND","0.2","298.7","21.3","89.1","0","0"],
    [4040,"2010-10-22T03:00:00","12.2","9.06","20.91","1312.40","4.73","ND","0.2","206.6","21.4","89.9","0","0.25"],
    [4041,"2010-10-22T04:00:00","7.5","7.51","18.77","1222.31","3.14","ND","0.1","41.1","21.2","91.3","0","0"],
    [4042,"2010-10-22T05:00:00","25.8","6.83","17.44","1164.93","3.29","ND","0.4","142.4","21","91.3","0","0"],
    [4043,"2010-10-22T06:00:00","18.2","5.43","16.17","1220.65","2.75","ND","1.4","178.4","20.8","93","0.4","0"],
    [4044,"2010-10-22T07:00:00","28.5","7.21","14.93","1084.28","3.56","ND","1.4","134.1","20.8","90.8","17.1","0"],
    [4045,"2010-10-22T08:00:00","15.8","7.62","16.14","1084.28","2.98","ND","0.9","140.2","20.9","88.9","47.7","0"],
    [4046,"2010-10-22T09:00:00","19.6","7.18","21.70","1265.43","5.05","ND","1.3","160.5","22.3","82.9","377.2","0"],
    [4047,"2010-10-22T10:00:00","11.8","7.30","24.43","1362.27","5.13","ND","1.5","176","23.5","75.8","368","0"],
    [4048,"2010-10-22T11:00:00","7","8.32","28.45","1493.19","9.16","ND","1.2","110.4","25.2","68.3","648.1","0"],
    [4049,"2010-10-22T12:00:00","4.2","8.34","27.55","1306.87","22.39","ND","1","135.4","26.5","61.1","489","0"],
    [4050,"2010-10-22T13:00:00","14","9.11","18.53","1013.21","42.54","ND","0.8","245.8","27","58.5","290.2","0"],
    [4051,"2010-10-22T14:00:00","24","9.65","16.48","968.77","67.11","ND","2","316.2","27.3","55.5","570.3","0"],
    [4052,"2010-10-22T15:00:00","14.3","9.00","20.73","981.28","75.96","ND","2.5","24.5","27.7","55.7","476.5","0"],
    [4053,"2010-10-22T16:00:00","27.4","8.49","16.67","855.43","52.47","ND","1.3","36.7","26.6","61","138.8","0"],
    [4054,"2010-10-22T17:00:00","25.2","30.08","18.52","691.05","44.90","ND","0.9","229.8","26.9","59.2","116.9","0"],
    [4055,"2010-10-22T18:00:00","14.2","62.34","35.44","979.97","18.13","ND","1.8","253","26.1","58.1","18.5","0"],
    [4056,"2010-10-22T19:00:00","12.6","44.79","27.01","1149.84","16.45","ND","0.2","140.5","25.7","60.2","0","0"],
    [4057,"2010-10-22T20:00:00","7.4","15.39","13.25","1240.16","14.69","ND","3","146","23.3","75.3","0","0"],
    [4058,"2010-10-22T21:00:00","18.4","14.38","ND","1856.69","5.27","ND","1.5","183.4","21.5","87","0","1.52"],
    [4059,"2010-10-22T22:00:00","12","10.93","ND","1562.37","13.83","ND","1.5","147.8","21.5","89.7","0","0"],
    [4060,"2010-10-22T23:00:00","21","7.59","ND","1505.76","10.07","ND","1.2","149.1","21.2","88.2","0","0"],
    [4061,"2010-10-23T00:00:00","11.3","7.81","ND","1707.81","4.80","ND","0.8","156.8","20.7","89.6","0","0"],
    [4062,"2010-10-23T01:00:00","6.5","7.39","ND","1512.96","5.26","ND","0.2","25.5","20.7","90.9","0","0.25"],
    [4063,"2010-10-23T02:00:00","4","7.08","ND","1388.76","6.21","ND","0.4","36.6","20.5","92.6","0","0"],
    [4064,"2010-10-23T03:00:00","22.7","6.12","ND","1534.50","2.61","ND","0.7","128.9","20.5","92.8","0","0"],
    [4065,"2010-10-23T04:00:00","13.4","6.58","ND","1455.52","2.78","ND","0.4","129.3","20","95.2","0","0"],
    [4066,"2010-10-23T05:00:00","8.4","7.16","ND","1396.72","2.82","ND","0.2","210.2","20.1","96.1","0","0.25"],
    [4067,"2010-10-23T06:00:00","13.5","6.80","ND","1194.38","8.65","ND","0.1","256.2","20.2","96.7","0.5","4.32"],
    [4068,"2010-10-23T07:00:00","30","6.63","ND","1330.04","4.75","ND","0.2","42.6","20.3","97.3","28.5","0.25"],
    [4069,"2010-10-23T08:00:00","24.5","6.16","ND","1274.12","4.00","ND","0.1","66.6","20.8","94.2","105.2","0"],
    [4070,"2010-10-23T09:00:00","65.2","6.56","ND","1457.00","2.32","ND","0.8","48","21.8","87.8","165.4","0"],
    [4071,"2010-10-23T10:00:00","57","7.78","ND","1665.96","4.74","ND","0.1","63","22.8","83.6","305.1","0"],
    [4072,"2010-10-23T11:00:00","57.8","26.61","ND","1444.18","8.49","ND","1.7","173.1","24.3","76.6","700.8","0"],
    [4073,"2010-10-23T12:00:00","30.5","21.98","ND","1451.50","17.52","ND","0.2","142","26","67","551.1","0"],
    [4074,"2010-10-23T13:00:00","37.4","23.14","ND","1655.21","35.76","ND","0.5","22.5","26.5","64.4","296.4","0"],
    [4075,"2010-10-23T14:00:00","20.9","20.07","ND","1554.35","84.98","ND","1.5","100.1","27.6","58.4","543","0"],
    [4076,"2010-10-23T15:00:00","23.8","20.54","ND","1490.73","97.55","ND","0.6","173.3","27.4","56.5","131.1","0"],
    [4077,"2010-10-23T16:00:00","19","21.29","ND","1270.32","88.40","ND","1.9","281.1","26.6","56.7","186.5","0"],
    [4078,"2010-10-23T17:00:00","10.2","17.44","ND","990.51","34.13","ND","1.4","262.1","25.8","58.6","81.6","0"],
    [4079,"2010-10-23T18:00:00","13.5","10.90","ND","861.51","20.40","ND","0.5","209.8","24","70.3","13.6","0"],
    [4080,"2010-10-23T19:00:00","16.4","9.06","ND","924.83","17.88","ND","1.9","118.1","23.8","74.5","0","0"],
    [4081,"2010-10-23T20:00:00","28.9","9.00","ND","1255.09","8.33","ND","2.3","151.4","22.8","78.6","0","0"],
    [4082,"2010-10-23T21:00:00","26.6","10.90","ND","1876.30","3.88","ND","1.7","163.4","21.6","85.2","0","0"],
    [4083,"2010-10-23T22:00:00","15.7","9.64","ND","1846.03","3.51","ND","2","189.6","21.2","86.2","0","0"],
    [4084,"2010-10-23T23:00:00","17.8","7.66","ND","1538.16","3.70","ND","1.3","236.2","21.7","79.3","0","0"],
    [4085,"2010-10-24T00:00:00","11.1","7.10","ND","1472.80","3.36","ND","0.5","263.4","21.6","81","0","0"],
    [4086,"2010-10-24T01:00:00","7.9","5.60","ND","1313.74","11.21","ND","0.8","4.5","20.7","86.2","0","0"],
    [4087,"2010-10-24T02:00:00","5.6","5.35","ND","1343.60","4.00","ND","0.4","41.2","20.6","88.1","0","0"],
    [4088,"2010-10-24T03:00:00","18.8","6.53","ND","1422.15","2.05","ND","0.4","85.3","20.5","89.7","0","0"],
    [4089,"2010-10-24T04:00:00","15","7.33","ND","1590.91","2.01","ND","0.6","16.8","20.3","91.7","0","0"],
    [4090,"2010-10-24T05:00:00","16.5","7.97","ND","1443.25","2.72","ND","0.2","326.8","20.2","91","0","0"],
    [4091,"2010-10-24T06:00:00","31.7","7.86","ND","1273.68","3.15","ND","0","51.9","20.4","88.9","0.7","0"],
    [4092,"2010-10-24T07:00:00","30.4","7.82","ND","1376.07","2.30","ND","0.1","358.4","20.5","89.5","27.4","0"],
    [4093,"2010-10-24T08:00:00","26.2","8.23","ND","1579.63","1.87","ND","0.3","31.4","21","87.7","90.3","0"],
    [4094,"2010-10-24T09:00:00","50.8","8.43","ND","1288.46","2.48","ND","0.4","1.7","21.7","84.2","159.4","0"],
    [4095,"2010-10-24T10:00:00","31.5","10.39","ND","1189.57","5.14","ND","0.2","28.9","22.9","77.5","367.9","0"],
    [4096,"2010-10-24T11:00:00","21.2","22.79","ND","1080.66","10.70","ND","0.6","166.5","25","66.5","686.9","0"],
    [4097,"2010-10-24T12:00:00","11.3","31.50","ND","973.77","21.19","ND","1.4","116.5","26.3","61.7","494.1","0"],
    [4098,"2010-10-24T13:00:00","27.3","25.40","ND","978.01","32.70","ND","1.3","291.1","25.2","69.9","164","0"],
    [4099,"2010-10-24T14:00:00","14.9","19.19","ND","1169.30","53.77","ND","0.8","12.3","25.2","70.5","279.9","0"],
    [4100,"2010-10-24T15:00:00","17.2","14.11","ND","1742.49","51.63","ND","1.2","88.9","26.6","62","308","0"],
    [4101,"2010-10-24T16:00:00","10.4","27.03","ND","1428.18","33.56","ND","0.3","43.3","26.8","60.5","319.9","0"],
    [4102,"2010-10-24T17:00:00","7.3","22.59","ND","1244.73","34.49","ND","1.4","310","27","57.4","211","0"],
    [4103,"2010-10-24T18:00:00","5.3","30.18","ND","1118.70","41.82","ND","1.1","315.2","25.4","62.1","14.5","0"],
    [4104,"2010-10-24T19:00:00","8.9","24.35","ND","711.23","24.52","ND","0.7","112","23.6","75","0","0"],
    [4105,"2010-10-24T20:00:00","7.3","12.54","ND","775.35","14.14","ND","0.8","105.7","23.9","71.9","0","0"],
    [4106,"2010-10-24T21:00:00","17.2","12.79","ND","1107.14","7.43","ND","1.3","152.1","23","76.2","0","0"],
    [4107,"2010-10-24T22:00:00","11.3","12.96","ND","1615.84","3.74","ND","3.1","191.5","22.6","78.8","0","0"],
    [4108,"2010-10-24T23:00:00","13","13.44","ND","1522.75","2.63","ND","2.1","182.1","22.1","80.7","0","0"],
    [4109,"2010-10-25T00:00:00","8.8","9.24","ND","1304.63","7.03","ND","0.9","168.5","21.6","83.7","0","0"],
    [4110,"2010-10-25T01:00:00","15.9","6.73","ND","1041.93","6.19","ND","0.6","40.4","21.4","85.4","0","0"],
    [4111,"2010-10-25T02:00:00","9.2","7.35","ND","1075.18","3.26","ND","0.3","340.3","20.7","90.4","0","0"],
    [4112,"2010-10-25T03:00:00","5.6","6.28","ND","1083.91","2.71","ND","0.2","302.6","20.7","90","0","0"],
    [4113,"2010-10-25T04:00:00","6.3","6.04","ND","959.72","3.42","ND","0.1","15.8","20.9","87.6","0","0"],
    [4114,"2010-10-25T05:00:00","14.7","6.56","ND","1050.76","2.84","ND","0.1","71.3","20.9","87.3","0","0"],
    [4115,"2010-10-25T06:00:00","17.4","9.15","ND","1016.86","2.23","ND","0.4","57.6","20.5","91.8","0.6","0"],
    [4116,"2010-10-25T07:00:00","28.1","22.71","ND","936.50","1.93","ND","0.5","19.8","20.3","92.6","42.3","0"],
    [4117,"2010-10-25T08:00:00","18.1","19.37","ND","1071.16","2.22","ND","0.5","49.4","21.3","86.8","165.9","0"],
    [4118,"2010-10-25T09:00:00","25.6","18.22","ND","1244.52","2.66","ND","0.1","113.7","22.7","79.5","260","0"],
    [4119,"2010-10-25T10:00:00","24.2","18.51","ND","1250.44","4.44","ND","1.3","173.8","22.6","81.7","106","4.57"],
    [4120,"2010-10-25T11:00:00","27.6","45.07","ND","1090.93","6.77","ND","1.4","177.6","22.7","82.7","422.3","0.25"],
    [4121,"2010-10-25T12:00:00","15.2","42.33","ND","1193.60","8.90","ND","1.1","161.6","24.9","69.7","472.3","0"],
    [4122,"2010-10-25T13:00:00","9.1","21.40","ND","1202.48","14.48","ND","0.7","190.4","25.7","65","364.2","0"],
    [4123,"2010-10-25T14:00:00","9.4","17.94","ND","1113.85","41.96","ND","0.6","206.1","26.2","63.1","307.3","0"],
    [4124,"2010-10-25T15:00:00","7.3","18.39","ND","1242.24","63.54","ND","0.4","259.2","27.2","56.4","584.5","0"],
    [4125,"2010-10-25T16:00:00","5.1","18.61","ND","1338.72","79.15","ND","1.4","277.6","27.3","53.9","231.2","0"],
    [4126,"2010-10-25T17:00:00","31.8","15.47","ND","1004.37","46.18","ND","2.2","40.8","23.4","79.6","27","0.76"],
    [4127,"2010-10-25T18:00:00","36.4","13.29","ND","900.17","29.82","ND","0.3","97.2","22.4","87.2","4.4","0.25"],
    [4128,"2010-10-25T19:00:00","20.1","51.45","ND","1112.90","6.57","ND","1.1","167.5","22","88.5","0","0"],
    [4129,"2010-10-25T20:00:00","30.4","19.04","ND","1485.64","4.86","ND","0.7","215.5","22","86.3","0","0"],
    [4130,"2010-10-25T21:00:00","34.2","15.77","ND","1712.45","3.92","ND","0.4","266.5","21.7","86.9","0","0"],
    [4131,"2010-10-25T22:00:00","19.4","13.16","ND","2243.18","4.13","ND","0.4","351","21.8","86.1","0","0"],
    [4132,"2010-10-25T23:00:00","25.8","11.17","ND","2209.95","2.08","ND","0.3","19.4","21.3","89.4","0","0"],
    [4133,"2010-10-26T00:00:00","33.4","11.36","ND","1923.35","2.62","ND","0.9","39.8","20.9","92.1","0","0"],
    [4134,"2010-10-26T01:00:00","57.9","11.89","ND","1864.25","2.34","ND","0.5","27","20.1","96.7","0","6.1"],
    [4135,"2010-10-26T02:00:00","31.2","12.22","ND","1577.48","2.14","ND","0.3","59.5","20.1","97.8","0","0.51"],
    [4136,"2010-10-26T03:00:00","39.2","10.62","ND","1104.23","2.90","ND","0","288","20.1","97.6","0","0.25"],
    [4137,"2010-10-26T04:00:00","21.3","10.03","ND","1014.09","2.51","ND","0.2","68","20","97.1","0","0"],
    [4138,"2010-10-26T05:00:00","29.1","8.50","ND","1081.33","2.18","ND","0.2","21.4","20","96.9","0","0"],
    [4139,"2010-10-26T06:00:00","16.1","8.48","ND","1081.33","2.20","ND","0.3","35.4","19.7","97.5","0","0"],
    [4140,"2010-10-26T07:00:00","34.9","8.18","ND","1091.48","2.27","ND","0","49.8","20","96.4","23.9","0"],
    [4141,"2010-10-26T08:00:00","38.2","9.25","ND","1193.97","2.33","ND","0.6","45.1","20.5","94","89.9","0"],
    [4142,"2010-10-26T09:00:00","65.5","9.47","ND","1421.67","2.44","ND","1","41.2","21.9","87.2","456.7","0"],
    [4143,"2010-10-26T10:00:00","34.6","27.12","ND","1666.52","3.01","ND","1","44.3","23.8","76.3","584.4","0"],
    [4144,"2010-10-26T11:00:00","39.8","50.31","ND","1334.96","10.57","ND","0.8","81.6","25.5","66.2","656.4","0"],
    [4145,"2010-10-26T12:00:00","21","66.98","ND","975.40","23.10","ND","1","109.3","26.7","61.7","435","0"],
    [4146,"2010-10-26T13:00:00","14.6","ND","ND","ND","38.29","ND","0.6","98.7","26.6","62.4","268.9","0"],
    [4147,"2010-10-26T14:00:00","9","25.74","ND","610.43","52.87","ND","0.4","299.1","27.4","59.6","369.6","0"],
    [4148,"2010-10-26T15:00:00","26.8","19.84","ND","773.74","55.65","ND","1.1","343.2","26.7","64.3","326.2","0.25"],
    [4149,"2010-10-26T16:00:00","17.7","17.21","ND","875.63","83.80","ND","0.5","62","28.1","57.5","386.3","0"],
    [4150,"2010-10-26T17:00:00","32.4","41.17","ND","752.39","44.69","ND","1.8","57.6","27.6","60.3","109.9","0"],
    [4151,"2010-10-26T18:00:00","23.6","52.02","ND","808.92","52.38","ND","0.8","133.8","25.7","69.5","10.2","0"],
    [4152,"2010-10-26T19:00:00","43.3","34.06","ND","918.64","25.94","ND","0.1","170.7","24.8","70.4","0","0"],
    [4153,"2010-10-26T20:00:00","30.9","19.17","ND","1293.67","7.35","ND","0.3","298.7","23.7","74.9","0","0"],
    [4154,"2010-10-26T21:00:00","56","16.83","ND","2087.32","6.13","ND","0.4","126","23.5","77.5","0","0"],
    [4155,"2010-10-26T22:00:00","50.4","15.59","ND","2199.89","2.77","ND","0.4","138.7","22.9","80.3","0","0"],
    [4156,"2010-10-26T23:00:00","56.4","16.91","ND","1956.56","2.20","ND","0.1","249.1","22.4","83.7","0","0"],
    [4157,"2010-10-27T00:00:00","39.8","14.78","ND","1919.18","4.44","ND","0.3","268.5","22.3","83.8","0","0"],
    [4158,"2010-10-27T01:00:00","59.3","12.02","ND","2225.05","3.95","ND","0.4","34.5","22.2","84.6","0","0"],
    [4159,"2010-10-27T02:00:00","60.4","11.06","ND","2076.76","2.70","ND","0.2","327.9","21.9","86.6","0","0"],
    [4160,"2010-10-27T03:00:00","76.5","11.18","ND","1893.26","2.25","ND","0","290.1","21.6","87.8","0","0"],
    [4161,"2010-10-27T04:00:00","66.7","10.88","ND","1664.83","2.83","ND","0.1","226.6","21.6","87.7","0","0"],
    [4162,"2010-10-27T05:00:00","53.4","10.31","ND","1427.00","2.87","ND","0.3","168.5","21.8","86.5","0","0"],
    [4163,"2010-10-27T06:00:00","44.2","9.67","ND","1495.96","3.53","ND","0.2","14.7","21.5","87","0.5","0"],
    [4164,"2010-10-27T07:00:00","57.8","9.09","ND","1335.94","2.09","ND","0.2","225.8","21.7","87.2","44.8","0"],
    [4165,"2010-10-27T08:00:00","40.3","9.64","ND","1416.15","3.78","ND","0.1","155.7","23.2","78.4","163.8","0"],
    [4166,"2010-10-27T09:00:00","72.9","11.25","ND","1878.83","3.24","ND","0.4","103.1","24.7","72.2","404.8","0"],
    [4167,"2010-10-27T10:00:00","50.9","10.84","ND","1808.24","5.94","ND","1.9","106.4","25.4","70.6","260.4","0"],
    [4168,"2010-10-27T11:00:00","51.5","14.09","ND","1961.62","23.91","ND","2.2","249.6","22.8","83.3","128.5","3.56"],
    [4169,"2010-10-27T12:00:00","27","17.01","ND","1432.81","36.13","ND","0.9","239.2","26","68.1","775.6","0"],
    [4170,"2010-10-27T13:00:00","17","11.25","ND","1344.86","22.94","ND","2.2","11.5","25","72.6","226.9","12.45"],
    [4171,"2010-10-27T14:00:00","34.5","5.53","ND","1076.87","28.08","ND","1.1","13.9","20.8","93.7","38.2","4.57"],
    [4172,"2010-10-27T15:00:00","23.5","10.10","ND","1016.52","26.82","ND","0.2","175.3","21.5","89.5","119.2","0.51"],
    [4173,"2010-10-27T16:00:00","13.6","15.30","ND","1166.12","10.45","ND","1.3","82.6","22.7","84.6","78.4","1.02"],
    [4174,"2010-10-27T17:00:00","23.4","12.48","ND","1546.00","9.85","ND","1.1","41.8","21.5","90.4","71.8","0.76"],
    [4175,"2010-10-27T18:00:00","14","12.90","ND","1607.66","6.98","ND","0.6","81.3","21.7","88.6","22.1","0"],
    [4176,"2010-10-27T19:00:00","18.5","10.36","ND","1212.23","7.47","ND","0.3","174.4","21.6","90.5","0","1.02"],
    [4177,"2010-10-27T20:00:00","26.6","9.09","ND","1370.37","5.70","ND","1","153.8","21.4","91.2","0","0.25"],
    [4178,"2010-10-27T21:00:00","35.1","11.96","ND","2365.39","3.88","ND","0.6","154.3","21.5","90.2","0","0"],
    [4179,"2010-10-27T22:00:00","23","11.91","ND","2071.84","2.81","ND","0.1","188.8","21.3","93.2","0","0"],
    [4180,"2010-10-27T23:00:00","14.2","9.55","ND","1561.31","3.80","ND","1","142.5","21.2","93.7","0","0"],
    [4181,"2010-10-28T00:00:00","8.3","9.11","ND","1877.46","2.65","ND","0.8","159.6","21","92.6","0","0.25"],
    [4182,"2010-10-28T01:00:00","6.1","9.05","ND","1582.32","4.22","ND","0.2","98","20.9","93.8","0","0.25"],
    [4183,"2010-10-28T02:00:00","4","8.42","ND","1186.34","4.53","ND","0.2","115.1","20.5","96.5","0","1.02"],
    [4184,"2010-10-28T03:00:00","24.5","6.17","ND","1150.87","2.30","ND","0.4","84.7","20.3","97.6","0","0.25"],
    [4185,"2010-10-28T04:00:00","13.8","6.14","ND","1059.89","2.11","ND","0.5","357.8","20.1","98","0","1.02"],
    [4186,"2010-10-28T05:00:00","14.5","5.21","ND","845.08","3.88","ND","0.1","13.1","20.2","97.5","0","0"],
    [4187,"2010-10-28T06:00:00","14.5","5.72","ND","822.82","3.32","ND","0.3","48.2","20.2","96.9","0.9","0"],
    [4188,"2010-10-28T07:00:00","23.9","5.93","ND","834.09","2.45","ND","0.4","51.2","20.1","97.8","39","0.25"],
    [4189,"2010-10-28T08:00:00","23.7","6.52","ND","946.49","3.78","ND","0.5","274.9","20.8","93.8","115","0"],
    [4190,"2010-10-28T09:00:00","19.8","7.10","ND","1174.64","3.19","ND","0.4","219","22.6","81.7","319.4","0"],
    [4191,"2010-10-28T10:00:00","11.4","6.73","ND","1386.38","5.29","ND","0.7","88.1","24.3","72.8","479.5","0"],
    [4192,"2010-10-28T11:00:00","11.8","10.59","ND","1188.63","12.88","ND","1.1","56.4","25.8","65.6","771.4","0"],
    [4193,"2010-10-28T12:00:00","12.9","14.77","ND","1148.68","25.19","ND","0.8","90.6","26.5","64.9","454.4","0"],
    [4194,"2010-10-28T13:00:00","34.6","18.99","ND","852.02","44.77","ND","0.6","129.8","24.5","75.5","100.2","59.44"],
    [4195,"2010-10-28T14:00:00","16.4","21.19","ND","823.45","53.91","ND","1","73.4","19.4","100","35.6","0"],
    [4196,"2010-10-28T15:00:00","67.9","19.21","ND","1000.43","45.67","ND","0.4","31","20.4","100","33.2","0.51"],
    [4197,"2010-10-28T16:00:00","76.9","9.93","ND","1330.95","17.62","ND","0.2","34.3","21.5","96.6","74.9","1.02"],
    [4198,"2010-10-28T17:00:00","46.3","9.22","ND","2117.12","5.82","ND","1","106","22.6","87.7","50.4","0.76"],
    [4199,"2010-10-28T18:00:00","39.1","10.89","ND","2431.86","4.57","ND","0.3","194.5","22.1","90.8","11.9","0"],
    [4200,"2010-10-28T19:00:00","52.9","12.92","ND","2858.84","4.47","ND","0","21","21.9","91.2","0","0.25"],
    [4201,"2010-10-28T20:00:00","28.2","12.29","ND","3015.62","8.49","ND","0.4","291.1","21.6","90.7","0","0"],
    [4202,"2010-10-28T21:00:00","27.2","14.66","ND","3963.88","3.38","ND","0","325.5","21.4","91.1","0","0"],
    [4203,"2010-10-28T22:00:00","14.8","13.20","ND","3214.22","2.83","ND","0.3","259.4","21.4","91.3","0","0"],
    [4204,"2010-10-28T23:00:00","46","11.73","ND","2965.23","4.40","ND","ND","ND","21","91.5","0","0"],
    [4205,"2010-10-29T00:00:00","24.8","11.61","ND","2995.11","2.75","ND","0.2","319","20.6","93.5","0","0"],
    [4206,"2010-10-29T01:00:00","37.8","10.53","ND","2562.13","1.78","ND","0","263.1","20.4","93.8","0","0"],
    [4207,"2010-10-29T02:00:00","30.1","10.91","ND","2402.48","2.42","ND","0.2","2.8","20.3","94.2","0","0"],
    [4208,"2010-10-29T03:00:00","53","10.01","ND","2209.98","2.20","ND","0.1","270.5","20.2","96.7","0","0"],
    [4209,"2010-10-29T04:00:00","35.6","9.49","ND","1938.71","2.97","ND","0.2","279.5","19.8","96.3","0","0"],
    [4210,"2010-10-29T05:00:00","43.9","9.11","ND","1857.27","2.37","ND","0.2","210.2","19.7","95.8","0","0"],
    [4211,"2010-10-29T06:00:00","38.5","9.27","ND","1597.83","1.83","ND","0.2","271.3","20.1","94.2","0.7","0"],
    [4212,"2010-10-29T07:00:00","85.2","9.12","ND","1566.21","1.91","ND","0.7","354.8","20","94.2","25.6","0"],
    [4213,"2010-10-29T08:00:00","95.2","9.45","ND","1599.47","2.95","ND","0.1","231.2","21.4","88.6","181.1","0"],
    [4214,"2010-10-29T09:00:00","109.8","12.97","ND","2150.36","3.16","ND","0.8","144.7","23.3","80","311.7","0"],
    [4215,"2010-10-29T10:00:00","92.7","17.98","ND","2300.93","3.59","ND","0.9","121.9","24.7","73.6","522.8","0"],
    [4216,"2010-10-29T11:00:00","68.7","57.93","ND","1945.57","9.08","ND","1.3","136.4","26.4","64.3","699.6","0"],
    [4217,"2010-10-29T12:00:00","38.9","44.60","ND","1864.60","30.86","ND","1.1","295.4","26","65.8","176.6","0"],
    [4218,"2010-10-29T13:00:00","58.8","26.29","ND","1264.40","68.72","ND","0.8","353.8","26.5","64.6","314.5","0"],
    [4219,"2010-10-29T14:00:00","31.3","17.22","ND","1266.51","73.90","ND","0.7","184.5","27.5","59.2","403.3","0"],
    [4220,"2010-10-29T15:00:00","39.6","17.15","ND","1432.47","92.55","ND","1.6","311.6","25.5","69.1","245.8","0.25"],
    [4221,"2010-10-29T16:00:00","24.2","14.93","ND","1227.86","72.63","ND","1","293.7","25.8","64.5","177.2","0"],
    [4222,"2010-10-29T17:00:00","22.8","12.14","ND","1194.63","38.94","ND","1.8","249.3","25.4","62.1","51.4","0"],
    [4223,"2010-10-29T18:00:00","15.2","12.23","ND","1158.62","13.32","ND","0.9","5.7","23.4","72","6.5","0"],
    [4224,"2010-10-29T19:00:00","22","10.24","ND","1059.69","13.16","ND","0.6","236.6","23","74.8","0","0.76"],
    [4225,"2010-10-29T20:00:00","12.9","8.22","ND","1160.68","9.34","ND","0.7","31.9","21.6","84.9","0","0.25"],
    [4226,"2010-10-29T21:00:00","38","8.32","ND","1687.48","6.03","ND","0.5","221.7","21.1","89.3","0","0"],
    [4227,"2010-10-29T22:00:00","35.4","8.97","ND","1594.17","2.87","ND","0.5","186","21.4","89.1","0","0"],
    [4228,"2010-10-29T23:00:00","41.4","14.52","ND","2987.87","2.52","ND","0.7","172.2","21","89.6","0","0"],
    [4229,"2010-10-30T00:00:00","32.5","16.42","ND","3401.99","4.26","ND","0.5","213.5","20.8","90.5","0","0"],
    [4230,"2010-10-30T01:00:00","18.4","14.49","ND","3207.67","2.81","ND","0.1","144.1","20.8","90.2","0","0"],
    [4231,"2010-10-30T02:00:00","10.2","10.75","ND","2450.93","2.63","ND","0.2","79.3","20.7","89.7","0","0"],
    [4232,"2010-10-30T03:00:00","6.2","9.22","ND","2348.48","2.26","ND","0.7","65.4","20.4","93.2","0","2.03"],
    [4233,"2010-10-30T04:00:00","3.9","8.10","ND","2064.10","1.66","ND","0.7","355.1","19.6","93.8","0","1.27"],
    [4234,"2010-10-30T05:00:00","4.1","7.90","ND","1900.99","2.56","ND","0.2","161.8","19.8","94.2","0","0"],
    [4235,"2010-10-30T06:00:00","2.6","7.21","ND","1463.30","9.72","ND","0.2","74.2","19.9","94.4","1","0.25"],
    [4236,"2010-10-30T07:00:00","1.3","7.75","ND","1475.06","4.94","ND","0.3","33.4","19.9","94.8","41.4","0.25"],
    [4237,"2010-10-30T08:00:00","3","6.88","ND","1373.72","3.76","ND","0.2","60.5","21","89.9","184.2","0"],
    [4238,"2010-10-30T09:00:00","7","7.55","ND","1446.69","2.85","ND","0.7","112","22.6","82.3","330","0"],
    [4239,"2010-10-30T10:00:00","4.2","8.03","ND","1375.02","6.66","ND","0.7","87.1","23","80.3","179.1","0"],
    [4240,"2010-10-30T11:00:00","14.8","11.22","ND","1456.54","11.93","ND","1.1","343.1","22.8","81.7","94.1","0"],
    [4241,"2010-10-30T12:00:00","33.6","11.73","ND","1580.64","20.12","ND","0.9","333","21.8","87.7","211.4","0.25"],
    [4242,"2010-10-30T13:00:00","17.9","15.14","ND","1235.30","17.88","ND","0.6","350","23.5","77.9","510.8","0"],
    [4243,"2010-10-30T14:00:00","9.8","18.80","ND","1322.22","13.34","ND","1.3","342","24.9","70.3","518.3","0"],
    [4244,"2010-10-30T15:00:00","49.5","15.64","ND","1168.13","30.07","ND","0.8","343.9","25.9","68.4","321.3","0"],
    [4245,"2010-10-30T16:00:00","36.4","99.95","ND","1103.10","30.17","ND","0.5","1.8","25","73","93","0.25"],
    [4246,"2010-10-30T17:00:00","38.8","151.08","ND","1099.78","32.95","ND","0.5","157.6","22.6","85.5","46","0.25"],
    [4247,"2010-10-30T18:00:00","21.8","54.14","ND","1079.56","17.40","ND","0.2","174.1","22.8","83.3","11.6","0"],
    [4248,"2010-10-30T19:00:00","29.4","24.79","ND","1626.12","8.82","ND","0.1","55.7","22.6","85.2","0","0"],
    [4249,"2010-10-30T20:00:00","30.7","20.72","ND","2261.40","5.26","ND","0.3","336.3","22.1","87.5","0","0"],
    [4250,"2010-10-30T21:00:00","65.9","18.14","ND","3380.69","3.42","ND","0.4","186","21.9","86.5","0","0"],
    [4251,"2010-10-30T22:00:00","56.8","15.45","ND","2664.17","3.11","ND","0","262.2","21.7","88","0","0"],
    [4252,"2010-10-30T23:00:00","52","14.85","ND","2537.74","3.47","ND","0","292.9","21.5","89.4","0","0"],
    [4253,"2010-10-31T00:00:00","27.1","13.49","ND","3158.70","2.95","ND","0.1","235.3","21.6","86.7","0","0"],
    [4254,"2010-10-31T01:00:00","42.5","14.61","ND","3261.71","1.49","ND","0.3","48.7","21.2","87.7","0","0"],
    [4255,"2010-10-31T02:00:00","23.7","13.35","ND","3087.63","2.36","ND","0.1","274.5","20.9","88.4","0","0"],
    [4256,"2010-10-31T03:00:00","16.9","12.51","ND","2587.35","1.68","ND","0.1","281.7","21","88.3","0","0"],
    [4257,"2010-10-31T04:00:00","33.2","9.28","ND","2079.62","1.86","ND","0.1","359.5","20.8","88.9","0","0"],
    [4258,"2010-10-31T05:00:00","33.1","10.02","ND","2112.09","1.72","ND","0","316.9","20.6","93.1","0","0"],
    [4259,"2010-10-31T06:00:00","43.7","10.17","ND","2031.65","2.09","ND","0","39","20.7","93.4","0.5","0"],
    [4260,"2010-10-31T07:00:00","39","8.19","ND","1738.78","2.01","ND","0.4","9.3","20.7","93","61.1","0"],
    [4261,"2010-10-31T08:00:00","45.5","8.83","ND","1964.59","1.86","ND","1.1","48.3","22.2","86.1","316.2","0"],
    [4262,"2010-10-31T09:00:00","42.1","9.86","ND","1815.75","2.68","ND","1.2","63.4","24","76.2","570.4","0"],
    [4263,"2010-10-31T10:00:00","25","22.77","ND","1472.87","8.49","ND","1.5","102","25.7","69.4","697.6","0"],
    [4264,"2010-10-31T11:00:00","16.7","82.42","ND","1343.51","16.72","ND","1.3","108","26.3","65.9","613.8","0"],
    [4265,"2010-10-31T12:00:00","9.3","52.84","ND","1242.65","28.99","ND","0.7","337.3","26.4","64.1","237","0"],
    [4266,"2010-10-31T13:00:00","15","27.27","ND","1047.40","45.74","ND","0.3","311.8","27.5","60.1","545.9","0"],
    [4267,"2010-10-31T14:00:00","9.2","23.36","ND","981.94","60.61","ND","0.9","286.6","28.9","55.3","767.9","0"],
    [4268,"2010-10-31T15:00:00","5.1","23.89","ND","916.87","66.48","ND","2","305.6","29.6","50.4","665.8","0"],
    [4269,"2010-10-31T16:00:00","3.1","36.29","ND","953.90","47.88","ND","3.2","266.5","29.7","49.1","528.6","0"],
    [4270,"2010-10-31T17:00:00","2.4","17.30","ND","802.94","24.54","ND","3.2","276.4","28.6","51.2","199","0"],
    [4271,"2010-10-31T18:00:00","4.1","12.17","ND","904.37","22.88","ND","0.4","289.9","27.4","54.3","39.5","0"],
    [4272,"2010-10-31T19:00:00","4.3","9.54","ND","843.03","17.94","ND","0.5","137.4","26.5","57.7","0","0"],
    [4273,"2010-10-31T20:00:00","19.5","8.08","ND","1059.26","14.30","ND","1.4","143.1","25.7","62.8","0","0"],
    [4274,"2010-10-31T21:00:00","25.2","15.99","ND","1400.92","3.82","ND","0.3","306.8","24.5","68.2","0","0"],
    [4275,"2010-10-31T22:00:00","28.7","19.88","ND","2001.45","4.43","ND","0.4","315.8","23.9","71.2","0","0"],
    [4276,"2010-10-31T23:00:00","48.4","13.11","ND","1746.31","2.78","ND","0.4","112.6","24.3","69.9","0","0"],
    [4277,"2010-11-01T00:00:00","30.8","13.44","ND","1897.24","1.96","ND","0.4","302.6","23.4","77.2","0","0"],
    [4278,"2010-11-01T01:00:00","26.2","16.58","ND","1868.71","3.20","ND","0.1","15.1","23.2","78.4","0","0"],
    [4279,"2010-11-01T02:00:00","36.7","14.32","ND","1730.81","2.79","ND","0.5","174.9","22.5","86.4","0","2.54"],
    [4280,"2010-11-01T03:00:00","31.7","11.69","ND","1760.79","2.45","ND","0.2","245.4","22.1","90.7","0","0.25"],
    [4281,"2010-11-01T04:00:00","23","12.17","ND","1633.62","6.08","ND","0.7","37.1","21.6","90.6","0","1.78"],
    [4282,"2010-11-01T05:00:00","19.3","7.95","ND","1517.60","3.67","ND","1.5","33","20.2","98.4","0","8.89"],
    [4283,"2010-11-01T06:00:00","11.6","9.00","ND","1408.94","3.76","ND","0.9","13.2","20.2","98.7","0.1","3.56"],
    [4284,"2010-11-01T07:00:00","19.5","17.50","ND","1217.33","4.90","ND","0.3","149.5","20.4","98.4","21.5","2.54"],
    [4285,"2010-11-01T08:00:00","11.3","16.20","ND","1139.20","2.99","ND","1.6","118.5","20.9","95.6","44.2","0"],
    [4286,"2010-11-01T09:00:00","8.5","18.79","ND","1175.04","3.33","ND","2.6","184.1","21","91.6","74.8","0"],
    [4287,"2010-11-01T10:00:00","6.6","18.59","ND","1344.97","2.36","ND","1.1","187","21.5","85.7","144","0"],
    [4288,"2010-11-01T11:00:00","4.4","14.79","ND","1279.33","7.19","ND","1","157.5","23.3","75.4","350.1","0"],
    [4289,"2010-11-01T12:00:00","2.2","10.92","ND","1309.93","8.04","ND","0.7","292","24.4","70","390.9","0"],
    [4290,"2010-11-01T13:00:00","1.1","10.41","ND","1269.06","17.47","ND","0.2","70.7","25.5","65.5","520.3","0"],
    [4291,"2010-11-01T14:00:00","1.8","11.50","ND","1147.53","30.70","ND","0.9","75.3","25.7","66.1","330.4","0"],
    [4292,"2010-11-01T15:00:00","3.1","22.11","ND","1056.43","40.89","ND","1.3","139.4","25.5","68","133","0"],
    [4293,"2010-11-01T16:00:00","8.9","18.58","ND","1147.53","46.21","ND","1","26","24.2","76.3","63.3","0"],
    [4294,"2010-11-01T17:00:00","7.9","11.71","ND","1108.26","33.39","ND","0.9","31.5","22.9","81.1","60","0"],
    [4295,"2010-11-01T18:00:00","4.9","9.91","ND","1035.16","30.79","ND","0.8","341.8","22.5","82","4.2","0.25"],
    [4296,"2010-11-01T19:00:00","4.9","9.02","ND","1192.80","18.66","ND","0.3","240.8","22.7","81","0","0"],
    [4297,"2010-11-01T20:00:00","7.3","8.50","ND","1239.07","10.94","ND","0.2","322.7","22.5","81.9","0","0"],
    [4298,"2010-11-01T21:00:00","29.6","8.76","ND","1885.75","6.52","ND","0.2","328.5","22.1","84.2","0","0"],
    [4299,"2010-11-01T22:00:00","15.8","9.11","ND","2178.16","1.87","ND","0.4","16.4","21.6","88","0","0"],
    [4300,"2010-11-01T23:00:00","42.9","8.63","ND","1596.88","2.60","ND","0.2","337.8","21.4","89.8","0","0"],
    [4301,"2010-11-02T00:00:00","53.3","9.01","ND","1595.79","2.21","ND","0.3","21.8","21.4","90.4","0","0"],
    [4302,"2010-11-02T01:00:00","28.6","10.22","ND","1482.62","3.00","ND","0.5","180","21.5","89","0","0"],
    [4303,"2010-11-02T02:00:00","27.5","9.76","ND","1415.19","2.46","ND","0.3","120.9","21.5","87.8","0","0"],
    [4304,"2010-11-02T03:00:00","35.5","9.48","ND","1483.12","2.39","ND","0.1","43","20.9","91.6","0","0"],
    [4305,"2010-11-02T04:00:00","34.8","8.09","ND","1491.40","2.98","ND","0.5","352.4","20.8","91.5","0","0"],
    [4306,"2010-11-02T05:00:00","40.9","7.85","ND","1615.13","2.71","ND","0.6","7.9","20.5","93.5","0","0"],
    [4307,"2010-11-02T06:00:00","22.8","8.67","ND","1613.48","1.97","ND","0","154.6","20.5","94.2","0.7","0"],
    [4308,"2010-11-02T07:00:00","43.7","13.16","ND","1455.52","2.36","ND","0.5","41.1","20.7","93.6","30.7","0"],
    [4309,"2010-11-02T08:00:00","49.2","10.38","ND","1524.25","2.28","ND","0.5","20.8","21.2","91.9","141.3","0"],
    [4310,"2010-11-02T09:00:00","66.3","10.86","ND","1628.64","2.94","ND","1","67.9","22.9","82","338.1","0"],
    [4311,"2010-11-02T10:00:00","64.4","11.68","ND","1490.17","3.68","ND","0.8","148.3","24.3","73.9","511.3","0"],
    [4312,"2010-11-02T11:00:00","49","23.11","ND","1234.35","12.80","ND","1","125.7","26","66.2","693.9","0"],
    [4313,"2010-11-02T12:00:00","26.7","19.43","ND","1160.95","23.45","ND","0.5","269.4","26.9","61.9","520","0"],
    [4314,"2010-11-02T13:00:00","49.7","18.25","ND","1210.56","51.60","ND","0.7","295.1","27.3","59.9","527.4","0"],
    [4315,"2010-11-02T14:00:00","28.7","15.76","ND","1316.07","85.63","ND","1","9.5","28.4","55.1","531.4","0"],
    [4316,"2010-11-02T15:00:00","49.1","15.58","ND","1123.92","92.99","ND","2.3","289.5","27.5","58.7","189.5","0"],
    [4317,"2010-11-02T16:00:00","31.3","21.03","ND","947.28","94.43","ND","2.3","272.3","27.7","56.5","262.5","0"],
    [4318,"2010-11-02T17:00:00","17.8","32.89","ND","1005.71","41.29","ND","3","268.8","27.3","56.2","121.4","0"],
    [4319,"2010-11-02T18:00:00","9.6","14.44","ND","1131.36","16.59","ND","0.7","288.8","26.8","57.5","16.5","0"],
    [4320,"2010-11-02T19:00:00","13.6","10.04","ND","1290.83","13.13","ND","0.2","228.6","26.4","59","0","0"],
    [4321,"2010-11-02T20:00:00","8.3","8.85","ND","1381.19","8.77","ND","0.2","311","25.9","62.4","0","0"],
    [4322,"2010-11-02T21:00:00","24.1","9.83","ND","1850.00","5.47","ND","2.2","173.3","25","69.8","0","0.51"],
    [4323,"2010-11-02T22:00:00","12.9","10.27","ND","1661.13","5.34","ND","2","223.5","21.8","88.4","0","2.79"],
    [4324,"2010-11-02T23:00:00","10.6","10.42","ND","1801.96","4.50","ND","1","310","21.8","88.3","0","0"],
    [4325,"2010-11-03T00:00:00","7.8","5.96","ND","1325.97","7.07","ND","0.4","243.9","21.6","92.7","0","2.54"],
    [4326,"2010-11-03T01:00:00","5.9","6.48","ND","1415.67","5.84","ND","0.1","123.7","21.8","88.7","0","0"],
    [4327,"2010-11-03T02:00:00","5.5","5.68","ND","1405.30","3.80","ND","0.7","137.3","21.5","91.3","0","0.51"],
    [4328,"2010-11-03T03:00:00","7.1","5.46","ND","1426.51","2.52","ND","1","55.8","20.8","95.1","0","1.02"],
    [4329,"2010-11-03T04:00:00","4.7","6.59","ND","1479.59","4.47","ND","1.1","39.9","20.2","97.3","0","11.43"],
    [4330,"2010-11-03T05:00:00","15.4","5.52","ND","1634.37","4.02","ND","1.3","155.9","19.9","99","0","16.26"],
    [4331,"2010-11-03T06:00:00","9","8.96","ND","1587.66","3.34","ND","1.9","188.2","19.1","99.8","0","28.96"],
    [4332,"2010-11-03T07:00:00","4.5","7.83","ND","1628.24","5.64","ND","0.5","197.7","18.8","100","4.3","7.37"],
    [4333,"2010-11-03T08:00:00","4.9","5.85","ND","1536.83","11.11","ND","0.6","358.5","19.1","99.2","10.7","3.81"],
    [4334,"2010-11-03T09:00:00","16.4","5.73","ND","1504.72","6.10","ND","0.8","14","19.2","98.9","29.1","9.65"],
    [4335,"2010-11-03T10:00:00","10.5","6.73","ND","1258.11","2.92","ND","0.2","355.9","19.6","97.8","97.8","3.81"],
    [4336,"2010-11-03T11:00:00","6.1","7.44","ND","1349.82","3.29","ND","0.3","63.2","20.9","92.8","184.4","0.25"],
    [4337,"2010-11-03T12:00:00","17.9","9.35","ND","1310.62","4.10","ND","1.2","63.4","21.3","91.8","188.9","0"],
    [4338,"2010-11-03T13:00:00","9.5","8.54","ND","1335.03","6.78","ND","0.6","87.1","22.3","81.5","260.4","0.25"],
    [4339,"2010-11-03T14:00:00","17","13.74","ND","1339.57","6.09","ND","0.6","86.4","23.1","78.2","304.3","0"],
    [4340,"2010-11-03T15:00:00","10.4","20.41","ND","1377.35","16.40","ND","1","62.3","23.4","75.6","252.6","0"],
    [4341,"2010-11-03T16:00:00","7.4","16.21","ND","1253.40","23.50","ND","1.2","39.8","23.2","73.9","69.8","0"],
    [4342,"2010-11-03T17:00:00","57.3","24.04","ND","1263.94","25.65","ND","0.4","14.5","23.4","72.1","85.5","0"],
    [4343,"2010-11-03T18:00:00","31","25.38","ND","1310.37","20.38","ND","1","308.2","23","76.9","20.7","0"],
    [4344,"2010-11-03T19:00:00","45","17.65","ND","1354.12","26.72","ND","1","292.9","22.3","80.3","0","0"],
    [4345,"2010-11-03T20:00:00","42.3","17.29","ND","1487.15","9.47","ND","0.5","244.6","21.7","84.3","0","0"],
    [4346,"2010-11-03T21:00:00","48.2","18.40","25.57","1552.10","3.11","ND","0.1","346.9","21.6","84.4","0","0"],
    [4347,"2010-11-03T22:00:00","58","20.18","24.47","1585.55","2.19","ND","0.4","212.8","21.2","87.9","0","0"],
    [4348,"2010-11-03T23:00:00","81.6","17.82","20.19","1549.47","3.27","ND","0.6","175.5","21.2","87.1","0","0"],
    [4349,"2010-11-04T00:00:00","64","18.70","20.58","1673.88","2.54","ND","0.5","17.7","21","88.7","0","0"],
    [4350,"2010-11-04T01:00:00","83.4","18.25","22.87","1695.35","3.33","ND","0.1","52.1","20.7","90.6","0","0"],
    [4351,"2010-11-04T02:00:00","45.2","15.18","24.80","1637.16","2.46","ND","0.5","232.8","20.4","92.8","0","2.03"],
    [4352,"2010-11-04T03:00:00","40.4","14.73","18.95","1612.93","2.43","ND","0.1","277.3","20","95.8","0","0"],
    [4353,"2010-11-04T04:00:00","21.8","12.57","13.61","1723.37","2.72","ND","0","306.1","19.8","96.1","0","0"],
    [4354,"2010-11-04T05:00:00","11.6","9.99","11.83","1722.19","2.33","ND","0.1","255.1","19.7","96.7","0","0.25"],
    [4355,"2010-11-04T06:00:00","8","9.03","9.34","1699.10","2.12","ND","0.1","251.8","19.6","96.8","0.6","0"],
    [4356,"2010-11-04T07:00:00","33.4","8.10","7.77","1642.28","1.91","ND","0","283","19.7","95.1","24.8","0"],
    [4357,"2010-11-04T08:00:00","47.6","8.54","8.10","1687.85","1.95","ND","0.7","55.9","20.7","92","160.6","0"],
    [4358,"2010-11-04T09:00:00","76.8","10.67","10.58","1682.32","2.42","ND","0.8","47.7","22.4","85.6","406.6","0"],
    [4359,"2010-11-04T10:00:00","80.4","10.78","17.40","1567.14","3.11","ND","0.8","28","24.4","75.5","642.5","0"],
    [4360,"2010-11-04T11:00:00","66.2","14.30","34.13","1429.13","10.11","ND","0.7","97.6","25.8","69.6","359.1","0"],
    [4361,"2010-11-04T12:00:00","60.1","20.65","29.93","1389.91","33.15","ND","0.6","264","25.7","69.9","398.2","0"],
    [4362,"2010-11-04T13:00:00","67.3","22.22","21.99","1412.41","52.99","ND","1.4","299.8","25.9","68.3","247.1","0"],
    [4363,"2010-11-04T14:00:00","62.5","16.32","20.63","1470.81","72.57","ND","1","267.5","26.4","64.8","229.5","0"],
    [4364,"2010-11-04T15:00:00","44.9","14.24","19.66","1484.78","81.51","ND","0.8","248.7","26.7","61.6","148.8","0"],
    [4365,"2010-11-04T16:00:00","23.6","12.17","14.49","1417.14","37.42","ND","1.6","296.9","25.7","63.3","130.2","0"],
    [4366,"2010-11-04T17:00:00","12.5","11.19","12.01","1458.34","23.62","ND","0.3","153.3","26.1","63.8","107.8","0"],
    [4367,"2010-11-04T18:00:00","25.4","10.28","10.55","1517.78","14.08","ND","0.3","176.7","26","63.4","30.5","0"],
    [4368,"2010-11-04T19:00:00","20.6","12.09","10.90","1471.30","4.27","ND","0.9","301.8","25","65.3","0","0"],
    [4369,"2010-11-04T20:00:00","34","13.73","14.97","1489.29","4.93","ND","0.7","158.7","24.2","70.4","0","0"],
    [4370,"2010-11-04T21:00:00","58.2","11.37","8.79","1656.67","4.25","ND","0.3","131.7","23.5","74.7","0","0"],
    [4371,"2010-11-04T22:00:00","55.7","17.02","13.42","1652.77","4.10","ND","0.2","285.1","22.3","80.4","0","0"],
    [4372,"2010-11-04T23:00:00","64.7","18.31","12.99","1543.91","3.36","ND","0.4","6.5","21.7","84.5","0","0"],
    [4373,"2010-11-05T00:00:00","63.1","14.93","10.58","1597.42","1.73","ND","0.1","318","21.2","87","0","0"],
    [4374,"2010-11-05T01:00:00","76","17.05","11.34","1673.88","3.10","ND","0.3","240.9","21","88.3","0","0"],
    [4375,"2010-11-05T02:00:00","72.2","12.18","9.10","1706.65","2.71","ND","0.2","177.3","20.7","88.9","0","0"],
    [4376,"2010-11-05T03:00:00","64.8","12.21","8.17","1750.07","2.42","ND","0.5","194.5","20.3","89.6","0","0"],
    [4377,"2010-11-05T04:00:00","35.9","10.86","7.75","1815.34","2.74","ND","0.2","223.2","20.1","88.4","0","0"],
    [4378,"2010-11-05T05:00:00","45.8","10.00","6.72","1881.71","2.39","ND","0.2","11.5","19.9","88.6","0","0"],
    [4379,"2010-11-05T06:00:00","29.3","8.96","6.24","1880.42","1.97","ND","0.3","21.6","19.7","90","0.5","0"],
    [4380,"2010-11-05T07:00:00","66.4","8.26","6.03","1924.15","1.83","ND","0.1","2.8","19.8","91.2","25.1","0"],
    [4381,"2010-11-05T08:00:00","69.1","9.55","6.51","2026.11","2.16","ND","0.1","346.7","21","85.5","93.2","0"],
    [4382,"2010-11-05T09:00:00","87.3","12.18","10.63","2102.23","2.40","ND","0.4","109.5","23.2","76.6","353.9","0"],
    [4383,"2010-11-05T10:00:00","71","14.12","14.56","2015.48","2.48","ND","0.9","100","25.3","67.1","627.3","0"],
    [4384,"2010-11-05T11:00:00","43.4","31.87","23.06","1972.43","5.72","ND","0.9","72.8","26.4","62.4","593.6","0"],
    [4385,"2010-11-05T12:00:00","37.6","125.57","20.47","1899.13","16.76","ND","1.9","108.9","26.8","63.1","424.9","0"],
    [4386,"2010-11-05T13:00:00","39.8","41.54","10.46","1867.09","37.37","ND","0.6","125.5","27.4","61.3","537.4","0"],
    [4387,"2010-11-05T14:00:00","21.7","23.59","8.09","1743.80","47.22","ND","1","250.5","29","54.9","689.1","0"],
    [4388,"2010-11-05T15:00:00","37.9","22.60","10.48","1869.19","54.41","ND","0.7","303.6","29.2","53.1","414.6","0"],
    [4389,"2010-11-05T16:00:00","20.6","19.69","9.26","1858.81","90.43","ND","1.8","298.8","29.7","49.6","424.7","0"],
    [4390,"2010-11-05T17:00:00","12.3","17.70","9.30","1896.79","78.26","ND","2.4","287.5","28.9","49.3","255.3","0"],
    [4391,"2010-11-05T18:00:00","8.2","ND","ND","ND","26.94","ND","0.8","304.2","27.5","51.7","36.8","0"],
    [4392,"2010-11-05T19:00:00","6.2","ND","ND","ND","14.78","ND","0.7","73.5","26.4","55.9","0.1","0"],
    [4393,"2010-11-05T20:00:00","38.9","ND","ND","ND","7.59","ND","0.1","267.2","25.5","60.4","0","0"],
    [4394,"2010-11-05T21:00:00","78.7","10.34","28.66","ND","3.81","ND","0.3","157.5","24.7","66.7","0","0"],
    [4395,"2010-11-05T22:00:00","111.5","12.41","32.16","ND","2.29","ND","0.3","149.5","23.8","72.5","0","0"],
    [4396,"2010-11-05T23:00:00","82.7","13.49","26.73","ND","3.56","ND","0.2","211.5","23.4","74.3","0","0"],
    [4397,"2010-11-06T00:00:00","62.5","14.39","27.82","ND","3.20","ND","0.2","172.2","23","76.1","0","0"],
    [4398,"2010-11-06T01:00:00","40.6","12.02","28.38","ND","2.30","ND","0.3","166.8","22.5","78.7","0","0"],
    [4399,"2010-11-06T02:00:00","21.9","11.69","26.52","ND","3.15","ND","0.2","64.9","22.3","79.8","0","0"],
    [4400,"2010-11-06T03:00:00","16.9","8.20","25.92","ND","2.63","ND","0.1","189.3","22.2","81","0","0"],
    [4401,"2010-11-06T04:00:00","17","7.68","25.04","ND","2.25","ND","0.7","151.6","22.1","81.3","0","0"],
    [4402,"2010-11-06T05:00:00","20","5.66","24.04","ND","1.73","ND","0.4","230","21.9","82.6","0","0"],
    [4403,"2010-11-06T06:00:00","19.6","7.57","22.63","ND","2.12","ND","0.3","6","22","83.1","0.2","0"],
    [4404,"2010-11-06T07:00:00","49","5.71","21.27","ND","3.17","ND","1","24.4","21.6","85.7","26.9","0"],
    [4405,"2010-11-06T08:00:00","34.1","4.95","20.63","ND","1.13","ND","1.7","38.7","20.9","90.1","75.5","0"],
    [4406,"2010-11-06T09:00:00","39.8","11.11","26.36","ND","2.83","ND","0.3","303.8","22.2","84.2","191.3","0"],
    [4407,"2010-11-06T10:00:00","64.2","10.10","19.55","ND","3.85","ND","1.7","168","24","74.1","368.1","0"],
    [4408,"2010-11-06T11:00:00","46.2","31.89","23.58","ND","3.66","ND","1.4","116.5","24.6","71.6","281.4","0"],
    [4409,"2010-11-06T12:00:00","25.1","54.53","37.20","ND","7.33","ND","1.6","41.7","24.1","76","303.8","0"],
    [4410,"2010-11-06T13:00:00","29.5","37.83","34.66","ND","17.43","ND","1.7","146.3","25.1","71.1","264.2","0"],
    [4411,"2010-11-06T14:00:00","22.2","21.86","16.75","ND","13.60","ND","1.8","156.4","24.8","70.5","133.3","0"],
    [4412,"2010-11-06T15:00:00","12.5","25.87","23.88","ND","15.26","ND","0.4","234.3","26","65.7","377.4","0"],
    [4413,"2010-11-06T16:00:00","7.2","13.09","21.22","ND","16.20","ND","0.5","115.1","26.1","65.9","204.5","0"],
    [4414,"2010-11-06T17:00:00","25.2","11.57","22.27","ND","34.82","ND","0.3","340.5","25.8","67.3","39.9","0"],
    [4415,"2010-11-06T18:00:00","27.8","11.74","25.17","ND","41.34","ND","0.2","50.3","25.3","70.3","16.4","0"],
    [4416,"2010-11-06T19:00:00","66.6","9.70","40.20","ND","42.35","ND","0.6","255.4","24.5","74","0","0"],
    [4417,"2010-11-06T20:00:00","35.1","10.41","48.14","ND","31.35","ND","0.1","276","24.2","72.2","0","0"],
    [4418,"2010-11-06T21:00:00","24.2","8.15","61.03","ND","3.74","ND","1.7","276.2","23.4","76.3","0","0"],
    [4419,"2010-11-06T22:00:00","14.1","8.81","38.98","ND","1.95","ND","0.2","270.5","23.3","73.7","0","0"],
    [4420,"2010-11-06T23:00:00","19.3","7.24","28.13","ND","7.22","ND","0.3","47.1","23.3","74.3","0","0"],
    [4421,"2010-11-07T00:00:00","14.5","6.15","25.49","ND","5.76","ND","0.1","265.7","22.3","80","0","0"],
    [4422,"2010-11-07T01:00:00","17","7.63","31.30","ND","3.25","ND","0.4","199.7","22.1","81.9","0","0"],
    [4423,"2010-11-07T02:00:00","10.8","8.80","28.09","ND","2.35","ND","0.1","204.3","22.1","81.8","0","0"],
    [4424,"2010-11-07T03:00:00","6.8","9.08","27.51","ND","1.94","ND","0.2","260.7","21.9","84.6","0","0"],
    [4425,"2010-11-07T04:00:00","4.9","7.80","24.86","ND","2.64","ND","0.2","129.7","22.1","81.9","0","0"],
    [4426,"2010-11-07T05:00:00","8.3","5.94","26.71","ND","2.02","ND","1.3","13.6","21.2","89.5","0","0"],
    [4427,"2010-11-07T06:00:00","16.3","6.88","23.65","ND","2.00","ND","0.7","18.5","20.3","95.8","0.3","2.29"],
    [4428,"2010-11-07T07:00:00","20.6","11.48","22.65","ND","2.43","ND","0.7","50.3","20.2","97.3","7.8","1.52"],
    [4429,"2010-11-07T08:00:00","12.2","41.25","22.33","ND","2.14","ND","0.9","46.2","20.4","97.3","67.9","0.25"],
    [4430,"2010-11-07T09:00:00","7.1","18.16","23.62","ND","2.01","ND","0.6","200.1","21.5","89.2","158.9","0"],
    [4431,"2010-11-07T10:00:00","6","13.75","21.48","ND","3.24","ND","1.9","174.4","22.5","82.4","227.3","0"],
    [4432,"2010-11-07T11:00:00","3.6","16.78","23.31","ND","3.97","ND","2.2","157.7","23.4","79","367","0"],
    [4433,"2010-11-07T12:00:00","3.3","26.19","26.69","ND","5.21","ND","1.4","120.4","24.1","77.7","357","0"],
    [4434,"2010-11-07T13:00:00","7.3","23.64","32.56","ND","9.12","ND","0.6","104.6","24.6","74.3","274.2","0"],
    [4435,"2010-11-07T14:00:00","4.5","14.34","26.33","ND","21.75","ND","0.7","104.6","25.3","70.8","348.4","0"],
    [4436,"2010-11-07T15:00:00","19.2","11.23","24.21","ND","38.11","ND","0.6","224","25.3","74.3","183.4","0.25"],
    [4437,"2010-11-07T16:00:00","11.6","12.25","23.70","ND","43.18","ND","0.5","171.2","25","74.8","104.5","0"],
    [4438,"2010-11-07T17:00:00","16.4","8.07","31.00","ND","43.03","ND","1.4","123.5","23.7","80.2","160.1","0"],
    [4439,"2010-11-07T18:00:00","8.8","2.24","40.65","ND","33.59","ND","0.6","19.3","22.2","87.8","4.3","1.02"],
    [4440,"2010-11-07T19:00:00","5.8","5.84","28.92","ND","15.18","ND","0.3","219.1","21.6","89.9","0","1.52"],
    [4441,"2010-11-07T20:00:00","18.2","7.67","26.37","ND","5.80","ND","0.3","18.7","21.3","93.7","0","1.78"],
    [4442,"2010-11-07T21:00:00","11.4","7.14","27.51","ND","3.99","ND","0.7","351.3","21","96.3","0","0.25"],
    [4443,"2010-11-07T22:00:00","6.8","7.19","26.96","ND","3.23","ND","0.9","340.7","20.8","94.3","0","0"],
    [4444,"2010-11-07T23:00:00","7.2","5.37","26.42","ND","2.92","ND","0.2","344","21.1","93.1","0","0"],
    [4445,"2010-11-08T00:00:00","3.6","5.79","30.28","ND","1.39","ND","0.6","61.1","20.6","95.2","0","0"],
    [4446,"2010-11-08T01:00:00","1.8","7.13","25.85","ND","1.95","ND","0.3","50.9","20.4","95.9","0","0"],
    [4447,"2010-11-08T02:00:00","1.8","6.37","25.57","ND","1.74","ND","0.7","60","20.4","95.6","0","0.25"],
    [4448,"2010-11-08T03:00:00","3.2","6.22","22.33","ND","2.99","ND","1.2","51.6","20","97.4","0","0"],
    [4449,"2010-11-08T04:00:00","3.1","6.60","18.54","ND","4.32","ND","0.4","354.4","20.2","97","0","0.25"],
    [4450,"2010-11-08T05:00:00","9.6","5.83","12.14","ND","5.85","ND","0.3","138.6","20.3","96.9","0","1.27"],
    [4451,"2010-11-08T06:00:00","5.5","10.14","22.63","ND","2.41","ND","0.7","107.5","20.2","96.8","0.3","1.27"],
    [4452,"2010-11-08T07:00:00","17.1","16.58","22.85","ND","2.51","ND","0.4","136.2","20.1","96.1","15.6","3.81"],
    [4453,"2010-11-08T08:00:00","10.7","15.39","24.12","ND","2.93","ND","0","182.9","20.2","96.6","35.2","1.27"],
    [4454,"2010-11-08T09:00:00","18.7","12.14","26.98","ND","2.74","ND","0.5","46.7","20.7","93.4","84.1","0.25"],
    [4455,"2010-11-08T10:00:00","22.2","9.71","33.04","ND","2.90","ND","0.3","131","21.1","92.1","105","2.03"],
    [4456,"2010-11-08T11:00:00","12.2","7.60","28.18","ND","3.76","ND","0.6","67.9","21.5","91.2","184.1","0.76"],
    [4457,"2010-11-08T12:00:00","17.8","7.46","25.41","ND","6.13","ND","0.8","63.1","22","89.9","128.9","0.51"],
    [4458,"2010-11-08T13:00:00","12.5","6.17","22.90","ND","7.95","ND","1.1","234","22.3","88.3","195.1","0.51"],
    [4459,"2010-11-08T14:00:00","7.3","7.71","25.92","ND","11.12","ND","1","239.3","23.3","79.7","268.6","0"],
    [4460,"2010-11-08T15:00:00","20.7","6.59","35.92","ND","9.97","ND","1.2","148.3","25.1","69.3","343","0"],
    [4461,"2010-11-08T16:00:00","15","6.79","40.77","ND","22.26","ND","0.7","159.5","25.6","67.3","212.8","0"],
    [4462,"2010-11-08T17:00:00","40.7","ND","ND","ND","26.11","ND","0.7","193.8","25.5","68.4","110.8","0"],
    [4463,"2010-11-08T18:00:00","31.9","ND","ND","2421.29","48.18","ND","0.5","44.1","24.7","70.6","25","0"],
    [4464,"2010-11-08T19:00:00","58.6","5.10","63.50","2803.91","50.77","ND","0.3","326.1","23.2","79.9","0","0"],
    [4465,"2010-11-08T20:00:00","53.5","2.71","75.84","2778.40","23.60","ND","0.2","304.2","22.2","79.2","0","0"],
    [4466,"2010-11-08T21:00:00","48.8","3.04","74.59","3291.05","9.29","ND","0.5","178.5","22.1","73.8","0","0"],
    [4467,"2010-11-08T22:00:00","56.9","3.94","58.49","3641.61","2.41","ND","0.3","343.9","21.1","81.5","0","0"],
    [4468,"2010-11-08T23:00:00","68.2","4.19","42.51","3369.23","2.65","ND","0.2","198.3","20.8","84.8","0","0"],
    [4469,"2010-11-09T00:00:00","39.4","4.18","39.94","3298.03","2.88","ND","0.4","231.5","19.9","89.2","0","0"],
    [4470,"2010-11-09T01:00:00","67.3","4.74","37.69","3366.74","2.28","ND","0.3","155","20.1","87.8","0","0"],
    [4471,"2010-11-09T02:00:00","50.5","2.78","30.03","3109.89","1.85","ND","0.7","12.2","19.6","89.8","0","0"],
    [4472,"2010-11-09T03:00:00","37.3","1.90","28.44","2857.11","2.56","ND","0.1","77.9","19.4","91.1","0","0"],
    [4473,"2010-11-09T04:00:00","47.4","1.21","27.37","2259.40","1.46","ND","0","180.2","19.5","90.7","0","0"],
    [4474,"2010-11-09T05:00:00","44.1","3.01","24.81","2181.46","1.91","ND","0.1","17.1","19.4","91.6","0","0"],
    [4475,"2010-11-09T06:00:00","52.1","0.67","22.44","2113.27","2.04","ND","0.2","74.2","19.4","92.5","0.6","0"],
    [4476,"2010-11-09T07:00:00","75.6","0.33","20.48","2012.10","2.10","ND","0.2","182.7","19.7","91.4","61.1","0"],
    [4477,"2010-11-09T08:00:00","71.9","3.96","23.49","2272.97","2.26","ND","1.6","155.3","21.4","83.5","152.9","0"],
    [4478,"2010-11-09T09:00:00","64.8","6.21","27.82","2659.65","2.40","ND","2","154.3","22.4","76.8","324.4","0"],
    [4479,"2010-11-09T10:00:00","45.9","5.58","35.02","2895.81","3.62","ND","2","160.7","24.7","68.2","609.3","0"],
    [4480,"2010-11-09T11:00:00","31.8","2.85","39.34","2529.24","8.08","ND","1.1","124.7","26.5","60.6","672.6","0"],
    [4481,"2010-11-09T12:00:00","26.9","2.05","38.82","2210.64","25.03","ND","0.9","36","26.8","57.9","361.9","0"],
    [4482,"2010-11-09T13:00:00","40.7","3.06","28.04","2016.92","61.18","ND","1.7","331.4","26.5","60.2","243.4","0"],
    [4483,"2010-11-09T14:00:00","42.9","3.34","21.92","1853.71","80.72","ND","1","43.1","27.4","57.4","479.5","0"],
    [4484,"2010-11-09T15:00:00","52.8","6.68","32.88","1986.31","76.50","ND","0.8","356.5","27.8","56.3","295.8","0"],
    [4485,"2010-11-09T16:00:00","28.2","38.14","28.33","1850.19","74.26","ND","1.2","289.1","27.7","55.8","141.2","0"],
    [4486,"2010-11-09T17:00:00","16.8","43.63","31.04","1861.14","45.15","ND","0.8","259.8","27","56.7","67.4","0"],
    [4487,"2010-11-09T18:00:00","9.7","10.74","16.50","1753.01","20.62","ND","0.3","201.4","26.1","60.1","17.8","0"],
    [4488,"2010-11-09T19:00:00","28","4.21","20.49","1977.72","12.68","ND","0.7","102.2","25.4","62.3","0","0"],
    [4489,"2010-11-09T20:00:00","33.3","2.78","28.21","2328.70","6.74","ND","1.4","102.6","24.9","66.8","0","0"],
    [4490,"2010-11-09T21:00:00","34.8","1.23","30.92","2301.90","5.38","ND","1.5","174","24.1","70.8","0","0"],
    [4491,"2010-11-09T22:00:00","30.2","6.74","32.45","2535.57","4.05","ND","0.8","161.3","23.7","71","0","0"],
    [4492,"2010-11-09T23:00:00","35.5","3.08","32.70","2486.53","3.13","ND","0.5","281.5","22.5","82.8","0","0"],
    [4493,"2010-11-10T00:00:00","19.2","0.81","41.26","2499.19","5.00","ND","0.6","239.7","22.2","85.7","0","0"],
    [4494,"2010-11-10T01:00:00","18.7","ND","33.83","2246.99","3.36","ND","0.9","209.1","21.5","86.3","0","0"],
    [4495,"2010-11-10T02:00:00","10.9","ND","30.15","2151.09","1.67","ND","0.3","151.5","21.5","85.6","0","0"],
    [4496,"2010-11-10T03:00:00","7.9","ND","22.69","2026.55","8.96","ND","0.4","105.9","21.3","87.9","0","0"],
    [4497,"2010-11-10T04:00:00","4.7","ND","17.26","1855.47","10.56","ND","0.4","98.6","20.8","92.6","0","0.51"],
    [4498,"2010-11-10T05:00:00","12.7","ND","13.82","1841.02","10.82","ND","0.4","41.2","20.3","96.8","0","2.54"],
    [4499,"2010-11-10T06:00:00","8.8","ND","12.86","1849.16","10.33","ND","1.2","8.9","20","98.1","0","4.57"],
    [4500,"2010-11-10T07:00:00","6.5","ND","18.09","1937.38","6.75","ND","0.5","14.7","19.9","99.2","1.7","26.67"],
    [4501,"2010-11-10T08:00:00","5.3","ND","28.49","1981.76","4.15","ND","1.5","44.7","19.6","100","7.7","15.49"],
    [4502,"2010-11-10T09:00:00","4.3","ND","31.49","2114.71","2.43","ND","0.6","26.1","19.6","100","31.9","8.89"],
    [4503,"2010-11-10T10:00:00","2.8","ND","27.17","2058.47","3.91","ND","0.1","198","20.5","97.3","271.8","1.02"],
    [4504,"2010-11-10T11:00:00","8.6","ND","28.57","2200.20","3.79","ND","0.7","184.7","23.3","81.4","715.4","0"],
    [4505,"2010-11-10T12:00:00","6.3","ND","23.86","2152.85","7.28","ND","1.3","133.1","25.3","70.6","635.7","0"],
    [4506,"2010-11-10T13:00:00","5.1","0.10","29.45","2236.18","21.29","ND","1.9","126.2","26.2","65.5","477.7","0"],
    [4507,"2010-11-10T14:00:00","4.2","2.74","31.16","2104.90","47.56","ND","2.2","164.8","25.3","70","369.9","0"],
    [4508,"2010-11-10T15:00:00","19.7","1.18","16.89","1915.09","46.79","ND","1.9","208.6","25.6","68.5","353.4","0"],
    [4509,"2010-11-10T16:00:00","11","ND","17.08","1917.02","36.18","ND","0.9","233.7","26.6","62.8","377","0"],
    [4510,"2010-11-10T17:00:00","6.3","ND","29.05","2234.41","40.44","ND","0.8","235.9","27.1","61.1","185.7","0"],
    [4511,"2010-11-10T18:00:00","10","ND","19.59","1995.87","71.46","ND","0.7","247.7","25.6","70.3","22.1","0"],
    [4512,"2010-11-10T19:00:00","29.8","ND","23.46","2123.64","75.84","ND","0.4","269.4","23.9","77.2","0","0"],
    [4513,"2010-11-10T20:00:00","37.2","ND","57.38","2887.69","19.16","ND","0","159","23.7","75.7","0","0"],
    [4514,"2010-11-10T21:00:00","69.7","0.68","58.86","3627.14","2.21","ND","0.1","118.1","23.5","74.3","0","0"],
    [4515,"2010-11-10T22:00:00","50","2.09","60.85","4103.43","3.71","ND","0.3","156.2","23","78.8","0","0"],
    [4516,"2010-11-10T23:00:00","40.2","0.96","47.54","3482.03","2.32","ND","0.4","201.2","22.8","79.8","0","0"],
    [4517,"2010-11-11T00:00:00","22.2","ND","31.82","2683.67","2.96","ND","0.1","43.2","22.7","79.9","0","0"],
    [4518,"2010-11-11T01:00:00","12","0.73","33.32","3182.94","3.41","ND","1.6","10.8","21","92.1","0","8.64"],
    [4519,"2010-11-11T02:00:00","7","0.21","32.03","2780.37","2.63","ND","0.4","48","20","96.8","0","13.97"],
    [4520,"2010-11-11T03:00:00","4.3","ND","26.39","2095.08","5.36","ND","0.2","53.5","19.7","97","0","8.38"],
    [4521,"2010-11-11T04:00:00","5.4","ND","23.64","1991.66","5.13","ND","0.1","76.1","19.9","97.4","0","4.06"],
    [4522,"2010-11-11T05:00:00","4","ND","21.77","1914.20","4.84","ND","0.1","86.6","19.8","97.5","0","0.51"],
    [4523,"2010-11-11T06:00:00","4.2","ND","25.02","2003.60","3.03","ND","0.1","289.9","19.9","97.5","0.3","1.52"],
    [4524,"2010-11-11T07:00:00","2.8","ND","18.88","1981.76","4.51","ND","0.1","237.4","20.1","96.7","32.1","0"],
    [4525,"2010-11-11T08:00:00","4.6","ND","19.82","2005.65","3.03","ND","0.2","47.8","21.1","92.7","157.1","0.25"],
    [4526,"2010-11-11T09:00:00","3.4","ND","27.23","2464.74","2.52","ND","0.3","50.4","22.1","88.4","202.3","0"],
    [4527,"2010-11-11T10:00:00","5.5","0.10","38.37","3176.48","5.09","ND","0.4","84.3","23.1","82.8","248.2","0"],
    [4528,"2010-11-11T11:00:00","4.3","2.11","53.24","3005.12","5.97","ND","0.9","52.9","23.6","79.9","246.5","0"],
    [4529,"2010-11-11T12:00:00","ND","8.01","46.13","2839.16","12.30","ND","0.8","52.1","24.8","72.7","462.2","0"],
    [4530,"2010-11-11T13:00:00","3.3","11.42","ND","2243.88","23.40","ND","0.4","3.4","25.5","69.4","324.8","0"],
    [4531,"2010-11-11T14:00:00","22.5","13.20","ND","2088.50","40.41","ND","0.3","203.6","26.3","66.4","408.3","0"],
    [4532,"2010-11-11T15:00:00","13.6","11.11","ND","1990.55","36.13","ND","0.4","104.8","27","63.5","299.6","0"],
    [4533,"2010-11-11T16:00:00","31.6","7.91","ND","2029.80","37.85","ND","0.7","94.5","26.6","64.1","165.5","0"],
    [4534,"2010-11-11T17:00:00","18.2","8.96","ND","1992.54","44.71","ND","0.8","278.3","25.3","65.3","51.4","0"],
    [4535,"2010-11-11T18:00:00","35.9","11.41","ND","1972.43","23.71","ND","1.1","345.1","22.6","81.3","2.7","1.78"],
    [4536,"2010-11-11T19:00:00","23.2","5.98","ND","2034.12","12.46","ND","0.1","15.6","22.3","87.5","0","0"],
    [4537,"2010-11-11T20:00:00","35.7","4.15","ND","2281.81","5.64","ND","0.8","149.6","22.4","88.9","0","0"],
    [4538,"2010-11-11T21:00:00","18.4","5.12","35.45","3111.58","5.25","ND","0.5","174.6","22.1","88.9","0","0"],
    [4539,"2010-11-11T22:00:00","49.4","5.97","37.75","3630.27","4.76","ND","0.2","185.7","22","91.7","0","0.25"],
    [4540,"2010-11-11T23:00:00","26.5","3.32","33.90","3356.86","6.62","ND","0.1","305","21.7","93.1","0","0"],
    [4541,"2010-11-12T00:00:00","33","4.41","35.80","4214.47","4.77","ND","0.3","3.6","21.4","93.2","0","0"],
    [4542,"2010-11-12T01:00:00","35.3","3.57","31.05","4244.13","2.15","ND","0.2","129.3","21.3","94.1","0","1.02"],
    [4543,"2010-11-12T02:00:00","25.1","0.52","32.50","3292.33","2.34","ND","0.1","41","21","96.4","0","0.51"],
    [4544,"2010-11-12T03:00:00","15","ND","30.72","3040.32","3.35","ND","0.3","60.8","20.7","97.6","0","0.25"],
    [4545,"2010-11-12T04:00:00","19.4","ND","28.40","2664.62","2.44","ND","0.2","51.6","20.6","98","0","0.51"],
    [4546,"2010-11-12T05:00:00","13","ND","24.53","2381.54","1.97","ND","0","82.4","20.7","97.6","0","0"],
    [4547,"2010-11-12T06:00:00","21.6","ND","20.42","2224.28","2.38","ND","0","0","20.7","96.7","0.4","0"],
    [4548,"2010-11-12T07:00:00","26.3","ND","18.82","2122.66","3.44","ND","0.2","18.6","20.7","96.5","33.5","0"],
    [4549,"2010-11-12T08:00:00","49.4","ND","22.20","2145.25","1.70","ND","0.2","60.3","21","95.9","47.2","0.25"],
    [4550,"2010-11-12T09:00:00","63.4","0.16","25.25","2746.46","2.79","ND","0.3","134","22","89.7","112.7","0"],
    [4551,"2010-11-12T10:00:00","62.3","0.26","32.48","2982.62","3.81","ND","0.5","144.5","23.3","82.6","285.5","0"],
    [4552,"2010-11-12T11:00:00","48.2","0.05","50.17","3280.53","6.24","ND","0.4","100","25","72.5","470.3","0"],
    [4553,"2010-11-12T12:00:00","31.9","0.08","63.53","3345.17","12.03","ND","0.5","0.9","26","67.6","439.1","0"],
    [4554,"2010-11-12T13:00:00","41.8","ND","ND","ND","ND","ND","0.9","274.6","25.8","68.2","175.3","0"],
    [4555,"2010-11-12T14:00:00","37.8","7.70","28.93","1068.28","76.78","ND","0.8","160.8","26.7","62.9","335.3","0"],
    [4556,"2010-11-12T15:00:00","21.3","5.27","38.89","1290.40","75.11","ND","0.4","86.8","27.8","58.6","453","0"],
    [4557,"2010-11-12T16:00:00","20.8","5.55","26.48","1098.55","48.27","ND","1.5","114","27.3","61.5","455.3","0"],
    [4558,"2010-11-12T17:00:00","19.6","6.57","22.11","1039.00","56.30","ND","0.7","316.5","27.2","57.1","203.5","0"],
    [4559,"2010-11-12T18:00:00","19.4","10.22","20.87","980.96","26.55","ND","0.1","159.7","25.9","60","14.9","0"],
    [4560,"2010-11-12T19:00:00","24.2","7.44","19.59","976.71","16.32","ND","2.6","140.6","23.5","75.5","0","0"],
    [4561,"2010-11-12T20:00:00","23.3","5.89","25.79","1196.83","9.53","ND","2.4","156.3","22.4","81.4","0","0"],
    [4562,"2010-11-12T21:00:00","20.7","5.32","42.23","1692.06","8.42","ND","2.2","158.3","21.5","86.1","0","0.25"],
    [4563,"2010-11-12T22:00:00","31.2","4.71","45.43","1641.62","6.88","ND","0.9","155.6","20.6","92.7","0","3.56"],
    [4564,"2010-11-12T23:00:00","17.7","3.79","43.50","1546.31","7.62","ND","1.2","152.1","20.1","97.2","0","0.76"],
    [4565,"2010-11-13T00:00:00","12.4","3.63","40.98","1611.28","4.59","ND","1.3","145.2","19.8","97.1","0","8.64"],
    [4566,"2010-11-13T01:00:00","7.1","3.71","37.05","1767.22","3.88","ND","0.6","162.2","19.7","97.2","0","2.29"],
    [4567,"2010-11-13T02:00:00","5.4","2.88","34.09","1541.57","4.82","ND","1","112.7","19.9","96.6","0","0.51"],
    [4568,"2010-11-13T03:00:00","4","2.81","27.06","1418.76","4.92","ND","0.7","89.8","19.6","97.1","0","1.52"],
    [4569,"2010-11-13T04:00:00","3.5","1.83","22.40","1282.33","8.21","ND","0.3","35.2","19.4","97.3","0","0.51"],
    [4570,"2010-11-13T05:00:00","3.1","2.06","14.27","1112.84","9.74","ND","0","221.5","19.6","96.1","0","0"],
    [4571,"2010-11-13T06:00:00","3.1","2.50","13.74","967.37","8.23","ND","0.1","219.7","19.9","95.3","0.1","0"],
    [4572,"2010-11-13T07:00:00","3.3","2.52","14.81","1080.96","6.73","ND","0.1","171.6","20","95.5","13.3","0.25"],
    [4573,"2010-11-13T08:00:00","10.4","2.42","16.46","1148.91","5.61","ND","0.9","164.4","20.5","92.6","58.3","0"],
    [4574,"2010-11-13T09:00:00","10.9","3.87","21.20","1286.27","5.22","ND","1.7","154.8","21","88.8","157.3","0"],
    [4575,"2010-11-13T10:00:00","13.1","5.82","27.05","1582.32","6.33","ND","1.3","151.7","22.4","79.8","326.8","0"],
    [4576,"2010-11-13T11:00:00","7.3","5.82","36.67","1998.68","7.24","ND","1.1","155.8","24","71.7","604","0"],
    [4577,"2010-11-13T12:00:00","5.6","5.22","42.72","1883.91","17.37","ND","1.3","113.7","25.5","65.7","748.7","0"],
    [4578,"2010-11-13T13:00:00","5.3","5.25","29.86","1377.04","37.68","ND","0.4","51","25.8","63.9","451.6","0"],
    [4579,"2010-11-13T14:00:00","6.8","6.86","22.17","1206.12","54.25","ND","0.6","17.8","26.6","61.2","383","0"],
    [4580,"2010-11-13T15:00:00","20.2","7.96","20.32","1163.28","72.72","ND","1.4","267.6","25.9","63.8","94.5","0"],
    [4581,"2010-11-13T16:00:00","12.4","9.33","23.80","1218.01","81.02","ND","2.5","257.2","25.5","64.2","222.6","0"],
    [4582,"2010-11-13T17:00:00","7.3","7.17","37.41","1468.84","53.47","ND","1.2","253.4","26.1","59.1","135.5","0"],
    [4583,"2010-11-13T18:00:00","5","5.02","23.93","1207.33","29.05","ND","0.7","146.5","25.5","61.7","30.2","0"],
    [4584,"2010-11-13T19:00:00","13.9","4.38","18.51","1204.91","16.20","ND","0.6","172.1","24.7","64.7","0","0"],
    [4585,"2010-11-13T20:00:00","20.2","4.40","22.63","1339.01","10.96","ND","0.3","89.7","24.2","69.5","0","0"],
    [4586,"2010-11-13T21:00:00","16.2","5.10","29.27","1862.33","4.99","ND","0.2","129.2","23.7","75.3","0","0"],
    [4587,"2010-11-13T22:00:00","46.6","6.03","30.88","2269.81","6.37","ND","0.2","81","23.1","80.6","0","0"],
    [4588,"2010-11-13T23:00:00","44.4","7.39","27.27","2515.65","6.79","ND","1.6","186.3","22.6","81.8","0","0.25"],
    [4589,"2010-11-14T00:00:00","44.3","9.15","24.29","2170.49","6.05","ND","2.7","172.9","21.5","84.8","0","0"],
    [4590,"2010-11-14T01:00:00","23.1","9.17","21.55","2173.73","6.26","ND","1.8","161.2","20.7","90.7","0","0"],
    [4591,"2010-11-14T02:00:00","12.2","4.60","19.49","1343.60","9.59","ND","1.7","163.5","19.7","94.2","0","2.29"],
    [4592,"2010-11-14T03:00:00","14.3","3.19","15.13","1226.50","9.91","ND","0.9","173.1","19.5","96.9","0","6.1"],
    [4593,"2010-11-14T04:00:00","8.3","2.96","10.13","1090.73","12.12","ND","0.6","185.6","19.5","96.4","0","4.06"],
    [4594,"2010-11-14T05:00:00","5.2","2.62","10.28","1090.73","9.57","ND","0.3","159.5","19.6","95.3","0","2.29"],
    [4595,"2010-11-14T06:00:00","4","2.42","13.43","1203.59","7.34","ND","0","144.6","19.6","96","0.1","1.78"],
    [4596,"2010-11-14T07:00:00","3.3","2.34","13.30","1079.85","6.63","ND","0.2","97.6","19.5","97.1","9.2","1.52"],
    [4597,"2010-11-14T08:00:00","3.5","1.85","16.16","1158.20","5.01","ND","0.3","54.6","19.5","97.4","37.2","1.78"],
    [4598,"2010-11-14T09:00:00","3.8","1.98","19.37","1203.18","3.99","ND","1","50.2","19.7","97.5","114","0.76"],
    [4599,"2010-11-14T10:00:00","7.8","2.78","21.53","1327.77","5.44","ND","0.9","62.1","20.2","94.3","162.8","0"],
    [4600,"2010-11-14T11:00:00","5.9","3.58","19.38","1206.06","7.63","ND","0.6","64.8","20.7","90.8","146.9","0.51"],
    [4601,"2010-11-14T12:00:00","3.7","3.80","14.26","1185.53","11.49","ND","0.2","93.9","21.4","87.9","328.2","0.51"],
    [4602,"2010-11-14T13:00:00","3.7","4.94","20.26","1222.31","13.49","ND","0.5","147.1","23.4","77.6","714.7","0"],
    [4603,"2010-11-14T14:00:00","4","7.30","21.17","1093.88","20.08","ND","0.3","195.5","25.3","66","631.6","0"],
    [4604,"2010-11-14T15:00:00","3.7","14.27","25.85","1272.90","40.60","ND","0.7","114.1","26","63.7","437.2","0"],
    [4605,"2010-11-14T16:00:00","22.3","14.83","17.69","1206.92","59.86","ND","0.9","88.6","25.8","63.6","170.3","0"],
    [4606,"2010-11-14T17:00:00","11.9","15.13","20.43","1217.60","72.43","ND","1.1","197.7","25.7","63.6","97.6","0"],
    [4607,"2010-11-14T18:00:00","7","19.07","20.96","1171.26","57.12","ND","0.9","272.6","24.5","64.6","12.9","0"],
    [4608,"2010-11-14T19:00:00","12.6","13.39","23.35","1189.43","47.06","ND","0.2","325.7","23.9","67.5","0","0"],
    [4609,"2010-11-14T20:00:00","19.7","7.99","20.57","1255.52","14.66","ND","0.4","133.1","22.4","82.7","0","0.51"],
    [4610,"2010-11-14T21:00:00","25.9","6.78","20.72","1396.80","6.05","ND","0.4","39.7","21.8","86.8","0","0"],
    [4611,"2010-11-14T22:00:00","18.3","7.70","27.02","2255.28","6.46","ND","0.1","203.2","21.4","88","0","0"],
    [4612,"2010-11-14T23:00:00","11.5","6.63","24.23","2071.14","4.63","ND","0.1","101.3","21.5","87.1","0","0"],
    [4613,"2010-11-15T00:00:00","22.2","5.49","18.37","1890.69","3.30","ND","0.4","160.2","21.3","86.5","0","0"],
    [4614,"2010-11-15T01:00:00","16.5","5.23","18.60","1866.78","3.78","ND","0.2","113.2","21.1","88.2","0","0"],
    [4615,"2010-11-15T02:00:00","18.9","5.02","17.68","1594.17","3.52","ND","0.2","329.3","20.8","90.9","0","0"],
    [4616,"2010-11-15T03:00:00","12","5.27","18.12","1682.90","5.05","ND","0","210.6","20.6","91.8","0","0"],
    [4617,"2010-11-15T04:00:00","19","4.75","17.93","1557.60","3.96","ND","0","114","20.6","91.5","0","0"],
    [4618,"2010-11-15T05:00:00","19","3.77","15.42","1399.58","3.81","ND","0.4","18.4","20.5","93.3","0","0.25"],
    [4619,"2010-11-15T06:00:00","19.1","3.56","15.32","1241.14","4.60","ND","0.2","54.5","20","96.7","0.1","0.25"],
    [4620,"2010-11-15T07:00:00","10.3","3.94","16.07","1306.61","4.19","ND","0.7","42.8","19.8","97.4","3.1","0.25"],
    [4621,"2010-11-15T08:00:00","15.2","4.22","14.92","1238.18","3.99","ND","0.3","38.6","19.8","97.5","47.7","0"],
    [4622,"2010-11-15T09:00:00","12","3.27","14.56","1114.36","4.36","ND","0.8","89.2","20.8","94.2","137.6","0.51"],
    [4623,"2010-11-15T10:00:00","7.5","4.21","13.35","1174.64","6.02","ND","0.7","129.9","21.5","87.6","216.6","0"],
    [4624,"2010-11-15T11:00:00","4.6","5.10","18.48","1256.69","8.22","ND","0.9","189.6","22.4","83.2","270.7","0"],
    [4625,"2010-11-15T12:00:00","8","7.06","15.93","1124.26","10.56","ND","1.4","204","23.1","80.9","341.4","0"],
    [4626,"2010-11-15T13:00:00","6.4","8.46","18.96","1206.60","17.02","ND","2.5","186.7","24.6","73.7","814.6","0.25"],
    [4627,"2010-11-15T14:00:00","6.7","9.11","25.39","1372.88","22.97","ND","2.9","171.7","25","70.4","364.7","0"],
    [4628,"2010-11-15T15:00:00","4.8","8.23","20.89","1271.62","34.54","ND","1.2","40.8","22.2","85.8","28.5","1.02"],
    [4629,"2010-11-15T16:00:00","15.3","4.59","16.27","1168.89","31.16","ND","0.6","56.6","21.2","92.7","18.2","2.29"],
    [4630,"2010-11-15T17:00:00","9","8.15","22.37","1210.17","24.22","ND","0.9","52.1","19.9","97.6","19.6","6.1"],
    [4631,"2010-11-15T18:00:00","6.3","5.38","26.73","1227.34","13.00","ND","0.6","354.3","20","96.4","8.6","0.25"],
    [4632,"2010-11-15T19:00:00","4.3","4.64","23.35","1171.44","9.57","ND","0.3","33.8","20.4","95","0","0.25"],
    [4633,"2010-11-15T20:00:00","25.6","6.17","28.06","1364.79","7.23","ND","0.5","13.9","20.2","96","0","0"],
    [4634,"2010-11-15T21:00:00","22.2","15.70","32.43","1330.04","5.08","ND","0.1","164.6","20.5","94.5","0","0.25"],
    [4635,"2010-11-15T22:00:00","31.1","14.81","32.05","1590.91","4.75","ND","0.3","228.5","20.6","94.7","0","0"],
    [4636,"2010-11-15T23:00:00","17.1","14.35","28.60","1918.78","5.65","ND","0.5","177","20.6","95.8","0","0"],
    [4637,"2010-11-16T00:00:00","25","11.51","29.47","2110.65","4.93","ND","0.4","66.1","20.5","96.4","0","0"],
    [4638,"2010-11-16T01:00:00","13","13.39","29.03","2245.33","6.11","ND","0.2","150.8","20.4","97","0","0"],
    [4639,"2010-11-16T02:00:00","16.2","9.88","29.04","2154.33","6.41","ND","0.5","159.9","20.3","96.1","0","0.25"],
    [4640,"2010-11-16T03:00:00","10.3","7.94","25.27","1736.41","5.10","ND","0.2","90.9","20.1","96.8","0","1.52"],
    [4641,"2010-11-16T04:00:00","7","7.37","18.84","1611.28","5.17","ND","0.6","92.5","19.7","98.3","0","6.6"],
    [4642,"2010-11-16T05:00:00","5","5.58","18.41","1305.27","5.20","ND","0.4","159.5","19.6","96.1","0","0"],
    [4643,"2010-11-16T06:00:00","3.8","5.30","20.32","1327.32","4.39","ND","0.4","168.4","19.7","95.9","0.1","0.25"],
    [4644,"2010-11-16T07:00:00","3","5.17","13.52","1192.75","7.05","ND","0.3","217.8","19.8","95.4","16.8","0"],
    [4645,"2010-11-16T08:00:00","2.7","5.20","17.12","1294.46","4.38","ND","0.8","168.5","20.4","91.3","80.7","0"],
    [4646,"2010-11-16T09:00:00","3","6.29","22.98","1748.28","5.14","ND","1.4","156.4","21.7","83.1","272.7","0"],
    [4647,"2010-11-16T10:00:00","10.4","6.92","25.22","2163.88","4.91","ND","1","148","22.8","78.7","365","0"],
    [4648,"2010-11-16T11:00:00","6.1","6.61","37.30","2319.79","9.64","ND","0.7","167.4","23.9","73","376.7","0"],
    [4649,"2010-11-16T12:00:00","15.4","6.50","43.31","1860.45","20.65","ND","0.2","282.2","24.8","69.3","353.5","0"],
    [4650,"2010-11-16T13:00:00","18.7","7.57","26.71","1534.08","33.61","ND","0.6","41.6","25.6","66.1","457","0"],
    [4651,"2010-11-16T14:00:00","40.7","9.71","28.23","1434.89","54.80","ND","1","51.5","26.3","63.3","438.4","0"],
    [4652,"2010-11-16T15:00:00","30.4","14.50","26.92","1369.22","79.68","ND","0.9","14.7","26","64","143.9","0"],
    [4653,"2010-11-16T16:00:00","66.5","13.01","22.02","1390.84","91.73","ND","0.1","201.8","26.1","65.4","158.7","0"],
    [4654,"2010-11-16T17:00:00","58.1","25.41","33.54","1333.81","65.37","ND","0.8","212.8","24","77.5","22.1","4.32"],
    [4655,"2010-11-16T18:00:00","47.4","29.61","39.87","1495.71","49.79","ND","1.6","179","21.6","87.7","4.7","0.51"],
    [4656,"2010-11-16T19:00:00","49.9","15.80","59.90","1936.64","28.61","ND","0.6","230.8","21.5","90.5","0","0"],
    [4657,"2010-11-16T20:00:00","39.4","10.88","44.36","2320.91","6.32","ND","0.1","325","21.9","89.9","0","0"],
    [4658,"2010-11-16T21:00:00","36.7","13.43","43.61","4149.31","8.82","ND","0.8","6.9","21.6","88.6","0","0"],
    [4659,"2010-11-16T22:00:00","45.7","13.44","32.47","4473.52","7.45","ND","0","79.4","21.5","88.9","0","0"],
    [4660,"2010-11-16T23:00:00","32.2","9.53","33.75","2875.67","6.01","ND","0.1","119.7","21.4","91.5","0","0.25"],
    [4661,"2010-11-17T00:00:00","26.5","8.52","31.63","2512.52","5.49","ND","0.2","82.3","21.1","94.9","0","0"],
    [4662,"2010-11-17T01:00:00","18","8.61","31.90","2916.99","9.63","ND","1.3","35.8","20.5","96.6","0","3.3"],
    [4663,"2010-11-17T02:00:00","24.2","7.74","31.94","2730.51","6.73","ND","1.7","46.7","20","98.3","0","2.54"],
    [4664,"2010-11-17T03:00:00","13.2","5.54","24.13","1599.47","10.30","ND","1.8","41.9","19.7","98.4","0","1.02"],
    [4665,"2010-11-17T04:00:00","8.8","4.53","15.15","1350.28","11.29","ND","0.4","114.4","19.6","98.4","0","2.03"],
    [4666,"2010-11-17T05:00:00","6.1","3.22","8.41","1259.83","10.21","ND","0.8","113.2","19.7","97.6","0","1.52"],
    [4667,"2010-11-17T06:00:00","3.6","3.11","8.40","1102.73","5.24","ND","0.5","118.8","19.5","96.6","0.2","1.78"],
    [4668,"2010-11-17T07:00:00","10.1","3.34","10.96","1101.97","5.72","ND","0.4","129.2","19.5","96.3","9.9","1.02"],
    [4669,"2010-11-17T08:00:00","7.6","3.37","13.09","1101.97","4.95","ND","1","166.5","19.9","94","99.5","0.25"],
    [4670,"2010-11-17T09:00:00","10.8","3.32","18.22","1328.68","3.09","ND","1","122.1","20.9","89.9","162.2","0"],
    [4671,"2010-11-17T10:00:00","9.5","5.01","22.87","1830.35","4.90","ND","0.9","99.5","21.9","84.8","333.8","0"],
    [4672,"2010-11-17T11:00:00","5.9","5.99","36.48","2278.72","8.87","ND","0.4","304.4","22.7","80.3","248.6","0"],
    [4673,"2010-11-17T12:00:00","14.8","6.63","33.96","1841.56","16.79","ND","0.5","116.4","23.1","76.7","210.6","0"],
    [4674,"2010-11-17T13:00:00","8.5","7.63","34.13","1707.45","23.81","ND","0.7","113.5","23.8","73.2","428.7","0"],
    [4675,"2010-11-17T14:00:00","10.1","7.75","29.90","1585.98","25.45","ND","0.5","31.8","23.8","73.5","269.7","0"],
    [4676,"2010-11-17T15:00:00","14.2","8.06","24.76","1688.67","44.74","ND","0.3","246.4","24.8","70.3","289.8","0"],
    [4677,"2010-11-17T16:00:00","12.8","10.66","30.79","1534.08","56.91","ND","1.1","90.8","24.1","71.8","86.5","0"],
    [4678,"2010-11-17T17:00:00","22.1","8.15","31.21","1530.48","61.76","ND","0.6","298.6","23.5","74.4","47.6","0"],
    [4679,"2010-11-17T18:00:00","21.3","7.25","29.07","1504.59","26.91","ND","0.5","286.2","23","75.2","7.2","0"],
    [4680,"2010-11-17T19:00:00","11.3","5.67","25.85","1354.12","18.65","ND","0.3","265","22.4","82.2","0","0"],
    [4681,"2010-11-17T20:00:00","44.5","6.16","26.81","1669.35","6.56","ND","0","227.7","22.2","84.3","0","0"],
    [4682,"2010-11-17T21:00:00","48.9","7.84","31.33","2780.37","6.86","ND","0","315.4","21.9","87.4","0","0"],
    [4683,"2010-11-17T22:00:00","46","8.30","32.24","3174.33","7.03","ND","0.2","268.7","21.4","92.6","0","0.25"],
    [4684,"2010-11-17T23:00:00","49","9.58","27.67","3350.03","6.67","ND","0.2","225.4","21.2","93.1","0","0"],
    [4685,"2010-11-18T00:00:00","34.7","8.95","26.46","3279.90","8.29","ND","0.3","261.1","21.1","91.8","0","0"],
    [4686,"2010-11-18T01:00:00","17.8","9.10","25.91","3380.54","6.41","ND","0.1","156.5","21.1","90.8","0","0"],
    [4687,"2010-11-18T02:00:00","18.4","7.71","22.97","3165.72","6.66","ND","0.2","355","20.9","92","0","0"],
    [4688,"2010-11-18T03:00:00","19.5","5.58","21.18","2417.87","4.92","ND","0.4","25.7","20.5","93.7","0","0"],
    [4689,"2010-11-18T04:00:00","29.2","4.52","21.41","2053.52","6.11","ND","0.2","356.5","20.5","89.8","0","0"],
    [4690,"2010-11-18T05:00:00","15.1","3.95","15.66","1613.48","4.54","ND","0.6","316.9","20.2","92.6","0","0.51"],
    [4691,"2010-11-18T06:00:00","23.6","3.43","15.10","1431.49","5.54","ND","0.1","270","20","94.8","0.2","0.25"],
    [4692,"2010-11-18T07:00:00","22","3.58","15.31","1385.45","5.27","ND","0.1","265.4","20.2","95","11.3","0"],
    [4693,"2010-11-18T08:00:00","28.4","3.97","16.05","1431.49","4.87","ND","0.2","2.1","20.5","92.6","48.3","0"],
    [4694,"2010-11-18T09:00:00","38.3","6.97","19.03","2121.22","7.81","ND","0.1","53","21.2","89.2","132.1","0"],
    [4695,"2010-11-18T10:00:00","64.8","6.47","23.43","2239.38","7.83","ND","0.2","7.3","23.1","78.4","457.5","0"],
    [4696,"2010-11-18T11:00:00","35.2","6.56","35.99","2458.73","11.04","ND","0.8","59.4","25.5","66.6","768.9","0"],
    [4697,"2010-11-18T12:00:00","40.6","7.24","56.62","2180.31","27.05","ND","0.7","92.6","26.4","61.3","620.1","0"],
    [4698,"2010-11-18T13:00:00","21.3","10.50","47.57","1910.64","59.36","ND","0.7","354.2","27.4","57","639","0"],
    [4699,"2010-11-18T14:00:00","19.1","11.70","32.03","1593.67","78.61","ND","0.8","327","27.9","54.5","484","0"],
    [4700,"2010-11-18T15:00:00","11.6","12.28","22.44","1388.11","78.03","ND","1.1","304.1","28.3","52.2","408.8","0"],
    [4701,"2010-11-18T16:00:00","5.8","16.27","14.66","1077.21","44.88","ND","3.9","266.6","28.3","50.3","501.8","0"],
    [4702,"2010-11-18T17:00:00","4.1","11.66","16.07","1077.21","21.07","ND","1.5","314.3","28","50.4","345.3","0"],
    [4703,"2010-11-18T18:00:00","3.4","5.50","9.53","1064.57","17.70","ND","1.1","237.4","26.8","55.1","37.3","0"],
    [4704,"2010-11-18T19:00:00","23","4.22","9.00","991.17","17.95","ND","1.5","104.7","25.6","63.1","0","0"],
    [4705,"2010-11-18T20:00:00","37.4","6.06","20.08","1377.50","9.62","ND","1.3","60.2","22.6","81.9","0","1.52"],
    [4706,"2010-11-18T21:00:00","39.9","7.38","28.30","1772.75","4.48","ND","1.2","164.1","21.6","91.5","0","2.03"],
    [4707,"2010-11-18T22:00:00","41.1","5.75","20.65","1415.67","9.86","ND","1.4","180.2","21.4","91.8","0","0.25"],
    [4708,"2010-11-18T23:00:00","33.7","6.65","24.08","1459.98","4.73","ND","1.4","157.9","21.2","92.3","0","0"],
    [4709,"2010-11-19T00:00:00","18.4","4.66","28.82","1594.71","5.11","ND","1.1","184.5","21.2","91.4","0","0"],
    [4710,"2010-11-19T01:00:00","10.3","3.98","25.60","1583.40","4.98","ND","0.5","171.5","21","87.2","0","0"],
    [4711,"2010-11-19T02:00:00","7.1","3.33","21.96","1514.51","6.10","ND","0.2","179.3","20.8","89.1","0","0.25"],
    [4712,"2010-11-19T03:00:00","4.5","3.10","19.85","1344.06","5.34","ND","0.2","297.4","20.4","90.8","0","0"],
    [4713,"2010-11-19T04:00:00","7.5","2.73","17.36","1263.27","5.41","ND","0","283.5","20.4","90.7","0","0"],
    [4714,"2010-11-19T05:00:00","5.3","2.09","12.72","1161.76","3.90","ND","0","345.6","20.4","91.7","0","0"],
    [4715,"2010-11-19T06:00:00","21.3","2.14","12.85","1274.55","4.17","ND","0.1","267","20.4","92.8","0.2","0"],
    [4716,"2010-11-19T07:00:00","14.6","2.40","15.30","1252.00","5.56","ND","0.8","142.4","20.5","92.7","6.4","5.08"],
    [4717,"2010-11-19T08:00:00","40.2","2.61","16.92","1365.25","5.43","ND","1.4","182","19.3","99","65.1","18.54"],
    [4718,"2010-11-19T09:00:00","20.8","3.24","19.80","1561.94","4.99","ND","1.3","176.1","21","89.5","222.2","0"],
    [4719,"2010-11-19T10:00:00","10.9","4.76","25.48","2158.74","6.31","ND","1.8","174.8","23.5","72.7","616.1","0"],
    [4720,"2010-11-19T11:00:00","ND","5.11","36.67","2519.05","8.01","ND","1.4","190.7","24.7","65.5","588.9","0"],
    [4721,"2010-11-19T12:00:00","ND","3.93","24.23","1430.57","20.98","ND","0.8","168.9","26","60.4","470.8","0"],
    [4722,"2010-11-19T13:00:00","ND","ND","ND","ND","37.41","ND","0.7","116.4","26.4","57.2","359.6","0"],
    [4723,"2010-11-19T14:00:00","0.6","6.29","17.66","874.75","ND","ND","1.9","304","25.7","59.9","184","0"],
    [4724,"2010-11-19T15:00:00","1.9","4.89","14.35","976.05","56.90","ND","1.8","302.7","26.3","56.9","408","0"],
    [4725,"2010-11-19T16:00:00","2.9","4.26","18.37","1265.67","37.80","ND","1.4","323.7","26.1","57.7","221.6","0"],
    [4726,"2010-11-19T17:00:00","2.4","3.52","9.49","977.36","21.72","ND","1.3","277.3","25.4","54.7","86.6","0"],
    [4727,"2010-11-19T18:00:00","10.1","3.54","13.73","1147.15","11.97","ND","2.2","191.2","24","64.7","6.1","0"],
    [4728,"2010-11-19T19:00:00","25.9","2.77","14.12","1061.84","12.77","ND","2.5","160.5","21.7","80.7","0","0"],
    [4729,"2010-11-19T20:00:00","17.1","3.73","21.62","1234.88","7.49","ND","1.4","197.4","21.1","83.3","0","0"],
    [4730,"2010-11-19T21:00:00","22.5","2.74","27.38","1537.64","4.84","ND","0.4","144.4","20.8","81.9","0","0"],
    [4731,"2010-11-19T22:00:00","34.1","3.33","29.00","1795.84","3.99","ND","0.3","165.5","20.8","85.6","0","0"],
    [4732,"2010-11-19T23:00:00","42.3","3.00","28.56","1750.66","2.92","ND","0.4","151.3","20.9","87.7","0","0"],
    [4733,"2010-11-20T00:00:00","48.1","4.47","29.68","2067.62","2.75","ND","0.6","92.7","19.9","94.3","0","0.25"],
    [4734,"2010-11-20T01:00:00","59.6","5.92","25.62","2443.42","3.39","ND","0.8","34.6","19.1","96.8","0","0"],
    [4735,"2010-11-20T02:00:00","55.4","5.14","23.89","2178.48","2.96","ND","0.7","20.7","19","96.5","0","0"],
    [4736,"2010-11-20T03:00:00","29.8","3.54","19.16","1448.08","2.31","ND","0.8","350.1","19.3","94.2","0","0"],
    [4737,"2010-11-20T04:00:00","31.7","3.50","18.09","1292.25","3.12","ND","0","164","19.5","92.8","0","0.25"],
    [4738,"2010-11-20T05:00:00","51.1","8.80","22.59","1236.91","2.41","ND","0.1","217.6","19.6","92.9","0","0"],
    [4739,"2010-11-20T06:00:00","33.3","7.74","18.38","1439.81","2.04","ND","0.2","184.7","19.6","92.9","0.2","0"],
    [4740,"2010-11-20T07:00:00","45.1","7.77","17.46","1327.32","2.16","ND","1","148.9","20","92","28.2","0"],
    [4741,"2010-11-20T08:00:00","34.1","6.83","15.24","1531.88","1.58","ND","1.3","151.7","21.4","83.4","276","0"],
    [4742,"2010-11-20T09:00:00","21.9","8.05","17.53","1584.47","3.04","ND","1.9","148.1","22.6","75.6","391.3","0"],
    [4743,"2010-11-20T10:00:00","18.2","9.95","23.90","1750.03","5.14","ND","1.8","135.8","23.6","71.8","396.2","0"],
    [4744,"2010-11-20T11:00:00","19.6","11.42","27.35","1505.10","11.52","ND","0.9","86.7","24.3","68.2","371.9","0"],
    [4745,"2010-11-20T12:00:00","11.2","9.33","25.03","1360.07","22.46","ND","0.6","356.7","25.3","63.8","520.2","0"],
    [4746,"2010-11-20T13:00:00","12.6","7.63","18.91","1295.84","41.47","ND","0.7","31.1","26.6","59.3","616.6","0"],
    [4747,"2010-11-20T14:00:00","24.4","7.85","16.74","1197.83","52.60","ND","1.8","348.9","26.7","59.1","312.6","0"],
    [4748,"2010-11-20T15:00:00","18.9","8.75","15.00","1186.71","71.40","ND","2.3","7.2","27","56.9","320.3","0"],
    [4749,"2010-11-20T16:00:00","14.3","30.78","26.37","1176.36","70.98","ND","2.4","29.6","26.9","57.8","211.2","0"],
    [4750,"2010-11-20T17:00:00","32.5","18.56","16.53","1095.27","38.04","ND","2.1","55.4","26.9","60","213.4","0"],
    [4751,"2010-11-20T18:00:00","18.5","12.53","13.86","1003.03","30.77","ND","0.4","247.3","26.5","57.4","26.2","0"],
    [4752,"2010-11-20T19:00:00","28.3","15.09","16.81","1220.46","34.36","ND","0.1","104.1","25.4","59.9","0","0"],
    [4753,"2010-11-20T20:00:00","37.7","11.62","16.71","1170.09","10.36","ND","0.7","216.3","24.9","63.9","0","0"],
    [4754,"2010-11-20T21:00:00","47.5","8.46","21.43","1465.89","4.49","ND","1","160.3","24.8","66.5","0","0"],
    [4755,"2010-11-20T22:00:00","24.6","10.87","24.47","2095.05","3.12","ND","0.4","80.2","22.6","82.5","0","0"],
    [4756,"2010-11-20T23:00:00","35","10.60","22.08","2204.58","4.32","ND","0.1","155.9","21.9","88.5","0","0.25"],
    [4757,"2010-11-21T00:00:00","35.8","8.04","20.54","1859.25","2.76","ND","0.7","204","22.1","87.2","0","0"],
    [4758,"2010-11-21T01:00:00","17.9","6.95","15.93","2053.37","4.84","ND","0.8","111.9","22.2","82.8","0","0"],
    [4759,"2010-11-21T02:00:00","19.7","7.61","16.94","2190.25","3.42","ND","0.2","119.6","21.5","85.3","0","0"],
    [4760,"2010-11-21T03:00:00","11.9","5.62","18.33","1879.37","3.14","ND","0.1","188.1","21.2","87.4","0","0"],
    [4761,"2010-11-21T04:00:00","32.1","4.32","15.06","1515.54","2.36","ND","0.1","285","21.1","89.6","0","0"],
    [4762,"2010-11-21T05:00:00","18.1","3.93","14.05","1345.43","2.56","ND","1.5","137.3","21.2","88.4","0","0"],
    [4763,"2010-11-21T06:00:00","11.7","3.26","13.69","1504.23","2.87","ND","1.2","170.3","20.5","90.9","0.1","1.02"],
    [4764,"2010-11-21T07:00:00","7.7","4.15","12.35","1387.82","3.05","ND","0.2","36.9","20","94.2","14.6","4.06"],
    [4765,"2010-11-21T08:00:00","6.2","3.43","12.35","1239.02","4.75","ND","0.2","342.8","19.8","96.1","37.3","14.48"],
    [4766,"2010-11-21T09:00:00","4.3","2.83","15.43","1429.53","2.62","ND","0.2","149.1","20.1","95.9","141.6","3.05"],
    [4767,"2010-11-21T10:00:00","4.2","2.71","13.91","1295.79","4.92","ND","0.9","150.3","22.4","84.3","494.2","0"],
    [4768,"2010-11-21T11:00:00","2.8","2.62","11.46","1271.89","8.13","ND","1.4","116.9","24.4","72.7","723.8","0"],
    [4769,"2010-11-21T12:00:00","2.5","3.11","17.44","1474.86","17.49","ND","0.6","178.2","25.8","65.6","491.4","0"],
    [4770,"2010-11-21T13:00:00","3.3","4.07","18.19","1263.55","36.20","ND","0.9","249.7","26.6","61.9","347.2","0"],
    [4771,"2010-11-21T14:00:00","3.3","4.16","14.50","1428.18","59.25","ND","0.9","242.9","26.3","60","285.6","0"],
    [4772,"2010-11-21T15:00:00","1.6","3.82","15.89","1265.67","71.90","ND","0.8","108.8","28.1","53","440.3","0"],
    [4773,"2010-11-21T16:00:00","3.3","3.65","9.52","1238.55","18.22","ND","1.4","83.7","27.2","59.8","51","0"],
    [4774,"2010-11-21T17:00:00","18.3","3.51","9.03","1142.52","51.93","ND","1.4","204.6","25.4","66.1","6.3","0"],
    [4775,"2010-11-21T18:00:00","20.1","4.41","16.45","1273.33","47.97","ND","2.3","210.4","22.1","83.5","1.5","17.53"],
    [4776,"2010-11-21T19:00:00","33.4","4.64","16.26","1236.56","10.84","ND","1.4","11.6","19.7","100","0","38.35"],
    [4777,"2010-11-21T20:00:00","18.7","2.88","11.80","1294.02","8.83","ND","0.7","350.9","19.7","100","0","9.14"],
    [4778,"2010-11-21T21:00:00","10.2","2.68","15.58","1294.02","6.50","ND","1.4","31.1","19.7","99.9","0","6.6"],
    [4779,"2010-11-21T22:00:00","7.3","6.10","17.37","1339.03","3.78","ND","1.3","47.3","19.5","99.5","0","4.57"],
    [4780,"2010-11-21T23:00:00","14.5","8.23","20.76","1191.93","2.31","ND","0.5","33.3","19.3","99.2","0","0.51"],
    [4781,"2010-11-22T00:00:00","9.2","8.12","17.25","1213.59","4.18","ND","0.4","152.1","19.3","97.7","0","0"],
    [4782,"2010-11-22T01:00:00","8.8","5.29","12.89","1033.80","4.75","ND","0.1","27.8","19.4","96.2","0","0"],
    [4783,"2010-11-22T02:00:00","7.1","4.29","13.38","1258.97","3.10","ND","0.3","200.7","19.6","96.6","0","0.25"],
    [4784,"2010-11-22T03:00:00","5","4.45","16.79","1203.59","2.27","ND","0.1","169.5","19.7","96.7","0","0"],
    [4785,"2010-11-22T04:00:00","4.1","4.86","16.54","1271.51","1.58","ND","0","69.2","19.7","96.8","0","0"],
    [4786,"2010-11-22T05:00:00","15.6","4.56","14.91","1361.53","2.39","ND","0.1","7.7","19.7","97.3","0","0"],
    [4787,"2010-11-22T06:00:00","9.8","3.83","13.76","1271.51","1.87","ND","0.6","156.4","19.7","97.2","0","0"],
    [4788,"2010-11-22T07:00:00","27.5","3.45","13.15","1204.00","2.02","ND","0.1","341.8","19.9","96.2","15.2","0"],
    [4789,"2010-11-22T08:00:00","41.3","4.20","13.16","1261.12","1.81","ND","1.3","29.6","20.1","95.7","78.5","0"],
    [4790,"2010-11-22T09:00:00","35","4.72","12.97","1645.08","2.70","ND","1.7","24.2","19.9","95.6","44.2","0"],
    [4791,"2010-11-22T10:00:00","18.7","6.10","17.51","1689.00","2.76","ND","1.3","3.3","21.2","87.5","420.3","0"],
    [4792,"2010-11-22T11:00:00","10","7.17","17.03","1526.85","3.06","ND","1.6","37.3","23.1","77.9","544.9","0"],
    [4793,"2010-11-22T12:00:00","6.2","19.89","19.31","1434.26","7.57","ND","1","65.4","24.6","70.5","519.5","0"],
    [4794,"2010-11-22T13:00:00","3.7","49.01","22.46","1189.83","21.13","ND","0.7","135.7","25.9","65.8","402.9","0"],
    [4795,"2010-11-22T14:00:00","2.9","30.88","13.77","1045.65","32.00","ND","0.8","38.6","25.9","65.1","212.3","0"],
    [4796,"2010-11-22T15:00:00","6.6","21.89","15.72","1149.07","41.41","ND","0.8","256.5","25.3","70.9","140.7","11.18"],
    [4797,"2010-11-22T16:00:00","5.4","19.30","15.52","1135.29","43.86","ND","2","244.5","23","82.7","128.2","1.52"],
    [4798,"2010-11-22T17:00:00","21.3","13.79","18.61","1319.99","33.92","ND","0.6","214.1","23.4","77.9","27.8","2.29"],
    [4799,"2010-11-22T18:00:00","15.7","7.04","22.01","1640.82","12.37","ND","0.2","9.1","21.7","88.4","4","0"],
    [4800,"2010-11-22T19:00:00","18.7","7.31","20.79","1733.37","4.37","ND","0.1","112.3","21.5","91.2","0","0"],
    [4801,"2010-11-22T20:00:00","19.4","7.33","23.51","1766.16","4.44","ND","0.1","69.1","21.6","92.1","0","0.25"],
    [4802,"2010-11-22T21:00:00","32.5","9.51","23.94","2955.92","5.20","ND","0.5","199.9","21.5","92.7","0","0"],
    [4803,"2010-11-22T22:00:00","20.4","8.31","22.41","2694.52","4.46","ND","0.1","275.1","21.5","90.2","0","0"],
    [4804,"2010-11-22T23:00:00","18.6","10.38","22.52","3271.92","4.15","ND","0.1","253.3","21.3","91.6","0","0"],
    [4805,"2010-11-23T00:00:00","16.8","9.50","27.19","3009.48","4.48","ND","0.2","314.7","21","91.9","0","0"],
    [4806,"2010-11-23T01:00:00","18.3","8.32","23.52","2915.99","3.12","ND","0.1","292.8","20.4","94.2","0","0"],
    [4807,"2010-11-23T02:00:00","11.7","6.29","21.25","2255.85","2.36","ND","0","266.4","20.3","93.6","0","0"],
    [4808,"2010-11-23T03:00:00","24.2","5.93","17.91","2176.15","1.85","ND","0","352.9","20.3","94.1","0","0"],
    [4809,"2010-11-23T04:00:00","20.6","5.21","16.52","2164.87","1.82","ND","0.1","93.2","20.5","94.8","0","0"],
    [4810,"2010-11-23T05:00:00","42.1","4.85","15.80","2042.24","2.20","ND","0","163.8","20.5","95.5","0","0"],
    [4811,"2010-11-23T06:00:00","22.3","6.53","18.42","2030.95","2.38","ND","0.3","140.2","20.4","91.3","0.2","0"],
    [4812,"2010-11-23T07:00:00","46.8","5.86","14.52","1928.75","1.76","ND","0","170","20.5","91.8","15.3","0"],
    [4813,"2010-11-23T08:00:00","46.4","6.19","17.05","1827.86","2.49","ND","0.3","217.8","21.2","87.7","112.7","0"],
    [4814,"2010-11-23T09:00:00","40.2","6.39","19.38","1934.01","2.58","ND","0.6","169.7","22.8","79","385.6","0"],
    [4815,"2010-11-23T10:00:00","22.2","5.67","25.37","2001.38","2.92","ND","1.8","141.7","24","73.6","505.6","0"],
    [4816,"2010-11-23T11:00:00","18.2","6.69","35.21","2009.50","11.34","ND","1.2","151.2","25.2","69.1","653.5","0"],
    [4817,"2010-11-23T12:00:00","20.1","7.13","34.68","1857.13","18.99","ND","0.7","322.2","25.2","69.6","211.1","0"],
    [4818,"2010-11-23T13:00:00","19.3","8.02","25.05","1536.14","42.75","ND","1.8","257.6","25.8","65.6","704.3","0"],
    [4819,"2010-11-23T14:00:00","11","9.01","24.10","1435.85","54.48","ND","0.8","331.7","27.5","54.6","653.6","0"],
    [4820,"2010-11-23T15:00:00","9.9","7.27","22.41","1536.44","58.65","ND","1.5","7.4","26.7","60.7","243.4","0"],
    [4821,"2010-11-23T16:00:00","7.4","7.19","14.66","1198.23","50.44","ND","1.7","7","27.2","53.9","366.6","0"],
    [4822,"2010-11-23T17:00:00","7.2","16.47","20.97","1154.06","41.83","ND","1.2","246.3","27.4","53.8","246.9","0"],
    [4823,"2010-11-23T18:00:00","11.3","14.90","14.30","1224.12","21.44","ND","1.4","249.6","25.6","60","31.7","0"],
    [4824,"2010-11-23T19:00:00","20","10.34","12.40","1113.48","17.34","ND","0.5","89.2","25.1","60.8","0","0"],
    [4825,"2010-11-23T20:00:00","37.9","6.24","17.26","1375.19","9.52","ND","0.5","287.6","24.3","65.2","0","0"],
    [4826,"2010-11-23T21:00:00","45.8","18.56","25.67","1725.80","4.17","ND","0.9","169.8","23.7","72.5","0","0"],
    [4827,"2010-11-23T22:00:00","27","31.49","29.29","2304.03","2.58","ND","1.4","161.7","22.7","80.5","0","0"],
    [4828,"2010-11-23T23:00:00","15.3","16.04","31.04","2057.55","3.17","ND","1.6","177.4","21.8","84.8","0","0"],
    [4829,"2010-11-24T00:00:00","8.5","8.84","36.50","1745.29","6.91","ND","0.3","309.8","21.1","91.2","0","1.78"],
    [4830,"2010-11-24T01:00:00","6.4","5.82","28.27","1707.23","7.77","ND","0.8","80.4","20.5","94.9","0","2.29"],
    [4831,"2010-11-24T02:00:00","5.5","4.13","20.83","1399.10","8.27","ND","0.9","353.8","19.5","97.2","0","3.81"],
    [4832,"2010-11-24T03:00:00","3.7","3.75","16.36","1315.62","9.98","ND","0.1","311.7","19.5","96.5","0","3.56"],
    [4833,"2010-11-24T04:00:00","3.4","3.19","9.13","1124.46","10.02","ND","0.4","128.4","19.6","95.7","0","1.52"],
    [4834,"2010-11-24T05:00:00","2.6","3.04","9.62","1012.36","8.03","ND","0.3","192.9","19.6","96.2","0","0.25"],
    [4835,"2010-11-24T06:00:00","1.8","2.98","6.55","1181.09","8.96","ND","0.2","242.5","19.8","95.2","0.1","0.25"],
    [4836,"2010-11-24T07:00:00","10.8","3.27","6.64","1181.90","8.04","ND","0.3","90.8","20.2","94.3","26.7","0"],
    [4837,"2010-11-24T08:00:00","7.7","2.53","11.43","1172.24","5.60","ND","0.2","101.7","21.2","88.5","193","0"],
    [4838,"2010-11-24T09:00:00","5","3.85","21.48","1685.19","2.67","ND","1.4","98.2","22.4","83.4","317.9","0"],
    [4839,"2010-11-24T10:00:00","3.1","5.48","34.11","2248.51","4.20","ND","0.6","109.8","22.9","78.7","313.4","0"],
    [4840,"2010-11-24T11:00:00","12","4.68","30.17","1831.43","13.43","ND","1.1","119.1","24.3","72.8","635.3","0"],
    [4841,"2010-11-24T12:00:00","6.7","4.73","21.31","1485.79","22.38","ND","0.9","147.3","26","64.8","724.3","0"],
    [4842,"2010-11-24T13:00:00","21.2","5.86","24.59","1425.32","44.26","ND","1","110.7","26.6","61.3","416.9","0"],
    [4843,"2010-11-24T14:00:00","21.7","6.19","19.58","1370.59","63.07","ND","1.2","326.5","25.8","66.4","174.2","0"],
    [4844,"2010-11-24T15:00:00","29.8","5.62","16.66","1332.47","65.90","ND","1.4","276.1","26.7","61","381.4","0"],
    [4845,"2010-11-24T16:00:00","15.5","7.59","24.89","1532.35","53.96","ND","1.7","235.6","26.5","59.6","166.6","0"],
    [4846,"2010-11-24T17:00:00","9.2","15.62","20.33","1381.65","40.75","ND","0.2","134","26.4","60.6","116.3","0"],
    [4847,"2010-11-24T18:00:00","16.3","7.08","14.97","1289.11","13.09","ND","1.1","104.6","23.8","78.9","15.9","0"],
    [4848,"2010-11-24T19:00:00","53.3","6.11","17.31","1426.24","11.39","ND","0.1","278.9","23.2","81.3","0","0"],
    [4849,"2010-11-24T20:00:00","60.5","5.37","25.85","1411.97","12.39","ND","0.4","8.5","22.9","83.5","0","0"],
    [4850,"2010-11-24T21:00:00","63.6","5.72","36.15","2070.31","5.59","ND","0.2","45.2","22.6","82.8","0","0"],
    [4851,"2010-11-24T22:00:00","50.4","6.81","36.47","2113.67","2.51","ND","0.4","170.7","22.6","82.6","0","0"],
    [4852,"2010-11-24T23:00:00","43.2","9.25","28.10","1761.39","3.45","ND","0.2","153.3","22.2","82.8","0","0"],
    [4853,"2010-11-25T00:00:00","27.2","9.06","27.39","2315.08","4.80","ND","0.1","97.4","21.4","88.6","0","0"],
    [4854,"2010-11-25T01:00:00","22.6","7.58","23.09","2014.55","3.33","ND","0.3","196.4","21.4","88.7","0","0"],
    [4855,"2010-11-25T02:00:00","15.8","5.36","19.72","1697.65","2.68","ND","0.1","54.4","20.9","90.8","0","0"],
    [4856,"2010-11-25T03:00:00","17.4","4.50","19.95","1728.66","2.55","ND","0.2","348.4","20.6","92.6","0","0"],
    [4857,"2010-11-25T04:00:00","13.2","3.46","17.15","1512.45","2.09","ND","0.1","274.8","20","91.4","0","0"],
    [4858,"2010-11-25T05:00:00","11.2","3.63","15.91","1464.30","1.85","ND","0","273.6","19.8","93.2","0","0"],
    [4859,"2010-11-25T06:00:00","19","3.09","10.47","1542.10","1.83","ND","0","176.4","19.4","93.3","0.2","0"],
    [4860,"2010-11-25T07:00:00","52.3","3.16","9.26","1292.69","1.93","ND","0","50.1","19.4","93.1","26.6","0"],
    [4861,"2010-11-25T08:00:00","79.8","4.24","9.57","1472.54","2.08","ND","0","36.6","20.5","92.9","100.8","0"],
    [4862,"2010-11-25T09:00:00","100.5","8.31","13.41","2279.18","2.57","ND","0.7","64.2","22","84.4","289.5","0"],
    [4863,"2010-11-25T10:00:00","52.5","6.93","33.82","2415.58","3.71","ND","0.8","66.4","24.1","72.9","590.4","0"],
    [4864,"2010-11-25T11:00:00","28.4","10.06","42.91","2284.29","8.84","ND","1.1","50","25.3","66.3","536.7","0"],
    [4865,"2010-11-25T12:00:00","15.6","20.20","18.97","1318.77","23.14","ND","1.7","40.2","26.7","60.1","696.7","0"],
    [4866,"2010-11-25T13:00:00","13.8","19.92","13.52","1324.96","34.38","ND","0.9","353.2","27.2","57.3","395.8","0"],
    [4867,"2010-11-25T14:00:00","28.4","16.37","11.57","1084.82","40.55","ND","2.5","284.9","27.3","58.2","452.9","0"],
    [4868,"2010-11-25T15:00:00","15.8","10.59","10.55","1281.44","33.48","ND","1.4","299","28","54.5","404.1","0"],
    [4869,"2010-11-25T16:00:00","10.2","14.37","12.97","1157.14","29.81","ND","1.5","269.8","27.7","54.5","321","0"],
    [4870,"2010-11-25T17:00:00","6.2","8.86","11.29","1260.03","19.25","ND","1.3","335.2","28.1","49.8","274.5","0"],
    [4871,"2010-11-25T18:00:00","3.7","6.04","10.77","1296.43","17.27","ND","0.6","227.5","26.9","54.7","46.1","0"],
    [4872,"2010-11-25T19:00:00","16.8","5.56","11.83","1210.56","16.39","ND","1.2","188.5","25.7","60.7","0","0"],
    [4873,"2010-11-25T20:00:00","40.7","5.25","16.56","1504.27","8.75","ND","0.5","173.8","24.9","67.4","0","0"],
    [4874,"2010-11-25T21:00:00","49.3","6.52","22.86","1820.90","4.32","ND","0.4","124.2","24.1","72.7","0","0"],
    [4875,"2010-11-25T22:00:00","39.7","8.91","25.89","2546.99","4.03","ND","0.4","284.2","23.2","76.9","0","0"],
    [4876,"2010-11-25T23:00:00","53.4","8.86","24.09","2425.40","4.53","ND","0.5","326.7","22.8","82.5","0","0"],
    [4877,"2010-11-26T00:00:00","56","7.91","22.38","2319.79","2.92","ND","0.1","304.8","22.4","84","0","0"],
    [4878,"2010-11-26T01:00:00","47.4","7.04","22.20","2134.95","4.71","ND","0","246.1","22.2","83.7","0","0"],
    [4879,"2010-11-26T02:00:00","43.3","5.63","19.61","2008.67","2.84","ND","0.4","259.2","21.8","86.5","0","0"],
    [4880,"2010-11-26T03:00:00","41.4","4.46","17.74","1699.96","2.95","ND","0.1","280.6","21.8","86.7","0","0"],
    [4881,"2010-11-26T04:00:00","21.7","4.17","15.87","1790.62","2.39","ND","0.1","45.2","21.8","85.5","0","0"],
    [4882,"2010-11-26T05:00:00","36.1","4.38","15.41","1869.95","2.43","ND","0","279.2","21.8","86.3","0","0"],
    [4883,"2010-11-26T06:00:00","37","4.80","16.86","1790.62","1.67","ND","0.1","239","21.7","87.8","0.4","0"],
    [4884,"2010-11-26T07:00:00","22.6","6.56","17.53","1506.79","2.50","ND","0.8","179.4","21.9","86.8","18","0"],
    [4885,"2010-11-26T08:00:00","30.6","6.59","15.02","1587.17","1.84","ND","1.5","153.5","22.2","84.8","67.6","0"],
    [4886,"2010-11-26T09:00:00","34.7","7.55","15.50","1815.75","3.42","ND","1.5","151.4","22.8","82.5","185.5","0"],
    [4887,"2010-11-26T10:00:00","19.5","8.50","17.95","2126.47","3.04","ND","1.1","162.7","24","75.9","387.8","0"],
    [4888,"2010-11-26T11:00:00","24.9","7.52","23.31","2032.34","5.32","ND","0.5","105","25.7","67","432.7","0"],
    [4889,"2010-11-26T12:00:00","13.9","6.99","24.05","1722.45","13.24","ND","0.6","93.6","27.1","61.7","534.8","0"],
    [4890,"2010-11-26T13:00:00","24.8","ND","ND","ND","42.17","ND","0.7","89.4","27.2","60.4","438.7","0"],
    [4891,"2010-11-26T14:00:00","28.9","11.38","ND","173.11","41.30","ND","1","137.1","28.6","55.2","529","0"],
    [4892,"2010-11-26T15:00:00","35.8","8.30","ND","57.97","ND","ND","0.9","72.7","28.1","58.6","154.2","0"],
    [4893,"2010-11-26T16:00:00","39","7.52","18.38","81.03","80.86","ND","1","194.1","26.8","63.6","58.3","0"],
    [4894,"2010-11-26T17:00:00","42.4","7.22","26.60","334.23","78.02","ND","0.8","250.4","23.7","79.5","23","0.25"],
    [4895,"2010-11-26T18:00:00","22.2","6.86","29.89","365.00","42.51","ND","0.3","262.4","23.4","81.5","5.3","0.25"],
    [4896,"2010-11-26T19:00:00","29.4","5.29","25.93","695.07","11.81","ND","0.5","280.1","23","81.7","0","0"],
    [4897,"2010-11-26T20:00:00","55.3","6.74","29.78","1308.61","6.37","ND","0.3","277","22.8","85.5","0","0"],
    [4898,"2010-11-26T21:00:00","62.3","8.82","25.95","1978.64","3.29","ND","0.3","309.9","22.4","85.2","0","0"],
    [4899,"2010-11-26T22:00:00","49.2","10.57","28.01","2441.57","3.07","ND","0.3","306.7","22.6","83.4","0","0"],
    [4900,"2010-11-26T23:00:00","48.3","9.56","28.15","2068.21","1.28","ND","0.1","300.4","22.5","85.9","0","0"],
    [4901,"2010-11-27T00:00:00","26.7","8.18","29.14","1806.23","2.59","ND","0.2","217.9","22.2","87.1","0","0"],
    [4902,"2010-11-27T01:00:00","51.7","10.75","27.71","2769.02","2.57","ND","0.3","154.8","22.3","83","0","0"],
    [4903,"2010-11-27T02:00:00","37","7.17","25.03","1793.66","1.58","ND","0","214.3","21.8","85.2","0","0"],
    [4904,"2010-11-27T03:00:00","40.7","6.01","32.21","1529.96","2.97","ND","0.2","191.3","21.5","88","0","0"],
    [4905,"2010-11-27T04:00:00","32.2","5.90","26.97","1234.05","1.80","ND","0.3","290.8","21.3","89","0","0"],
    [4906,"2010-11-27T05:00:00","59.6","6.44","24.40","1323.72","2.19","ND","0.6","41.6","21","91.4","0","0"],
    [4907,"2010-11-27T06:00:00","51","6.49","23.93","1424.09","1.70","ND","0.3","280.4","20.6","92.3","0.4","0"],
    [4908,"2010-11-27T07:00:00","69","6.09","22.77","1027.11","1.66","ND","0.1","277.4","20.7","91","27.9","0"],
    [4909,"2010-11-27T08:00:00","75.5","6.17","19.05","971.01","1.33","ND","0.2","104.1","21.9","84.2","81.5","0"],
    [4910,"2010-11-27T09:00:00","77","6.59","19.74","1383.10","1.20","ND","0.7","62.3","22.5","81.7","134.4","0"],
    [4911,"2010-11-27T10:00:00","53.1","7.30","26.67","1113.28","2.49","ND","0.3","118.8","23.5","76.6","263.5","0"],
    [4912,"2010-11-27T11:00:00","51.2","8.94","30.04","1003.06","2.99","ND","1.2","161.2","24.2","73","267.1","0"],
    [4913,"2010-11-27T12:00:00","48.1","10.51","26.18","822.62","11.21","ND","1.2","159.8","25.9","65.5","614.9","0"],
    [4914,"2010-11-27T13:00:00","45.6","10.20","25.09","643.48","16.47","ND","0.7","155.7","27.1","61.4","581.5","0"],
    [4915,"2010-11-27T14:00:00","45.8","10.24","21.28","530.69","42.59","ND","0.6","49.2","27.6","59.3","341.3","0"],
    [4916,"2010-11-27T15:00:00","46.2","10.39","22.95","543.13","73.62","ND","1.5","354.5","28.1","58.4","550.6","0"],
    [4917,"2010-11-27T16:00:00","26.4","10.30","26.74","694.51","101.50","ND","2.4","42","27.2","64.7","217.2","0"],
    [4918,"2010-11-27T17:00:00","33.6","9.61","19.30","427.00","81.70","ND","0.2","268.5","26.6","65.3","88.2","0"],
    [4919,"2010-11-27T18:00:00","24.2","25.66","22.31","322.49","28.67","ND","1.7","254.9","26.4","60.4","26.6","0"],
    [4920,"2010-11-27T19:00:00","13.9","27.69","23.62","333.79","10.82","ND","0.3","247.1","25.7","62.2","0","0"],
    [4921,"2010-11-27T20:00:00","9.1","13.39","15.31","401.90","12.73","ND","1.1","138.4","25.2","66","0","0"],
    [4922,"2010-11-27T21:00:00","40.8","9.96","24.41","699.29","4.56","ND","0.4","155.8","24.3","73.6","0","0"],
    [4923,"2010-11-27T22:00:00","35.1","9.33","26.17","960.05","3.62","ND","0.6","128.8","24.2","73.8","0","0"],
    [4924,"2010-11-27T23:00:00","45.2","9.83","23.12","1131.11","3.41","ND","1.1","155.3","23.6","79.1","0","0"],
    [4925,"2010-11-28T00:00:00","37.7","9.26","23.69","1356.87","1.84","ND","2.3","170.2","22.8","85.1","0","0"],
    [4926,"2010-11-28T01:00:00","21.1","8.27","19.67","1057.55","2.71","ND","1.3","194.5","22.1","89.2","0","0"],
    [4927,"2010-11-28T02:00:00","11.3","5.79","21.06","714.71","4.47","ND","0.6","97","22","87.8","0","0"],
    [4928,"2010-11-28T03:00:00","7.9","4.33","20.66","578.38","4.68","ND","1.6","129.4","20.9","92.8","0","11.43"],
    [4929,"2010-11-28T04:00:00","5.1","3.62","19.26","564.92","3.54","ND","0.7","45.8","20","98.6","0","26.16"],
    [4930,"2010-11-28T05:00:00","7.7","3.86","10.89","428.03","5.75","ND","0.1","91.8","19.6","100","0","24.64"],
    [4931,"2010-11-28T06:00:00","5.6","3.42","11.45","449.94","9.02","ND","0.3","50.6","19.7","100","0","4.57"],
    [4932,"2010-11-28T07:00:00","2.8","2.47","8.23","270.06","6.59","ND","1.4","39.1","19.6","99.9","21.3","1.02"],
    [4933,"2010-11-28T08:00:00","2","2.32","12.59","427.44","3.80","ND","1.3","54.2","19.8","98.1","70.7","0.76"],
    [4934,"2010-11-28T09:00:00","1.7","2.57","10.46","337.69","5.80","ND","1.1","50.4","20.1","94.3","109.9","0"],
    [4935,"2010-11-28T10:00:00","2.1","2.24","10.17","360.57","8.28","ND","0.9","212.2","21.5","87.5","303.5","0"],
    [4936,"2010-11-28T11:00:00","3.2","2.43","8.36","339.65","12.63","ND","1.5","173.9","22.8","79.8","450.8","0"],
    [4937,"2010-11-28T12:00:00","1.6","3.88","12.19","363.89","14.10","ND","1.1","142.4","24.8","67.6","488.6","0"],
    [4938,"2010-11-28T13:00:00","0.8","5.24","13.93","343.45","17.57","ND","0.9","141.3","25.6","66","389.7","0"],
    [4939,"2010-11-28T14:00:00","1.2","4.91","13.51","367.33","34.74","ND","1","153.4","26","66.4","399.5","0"],
    [4940,"2010-11-28T15:00:00","1.4","4.71","12.38","367.82","54.23","ND","0.5","244.9","26.3","63.7","291.4","0"],
    [4941,"2010-11-28T16:00:00","2.3","4.00","12.14","333.68","51.58","ND","0.4","19.7","27.5","57","404","0"],
    [4942,"2010-11-28T17:00:00","10.1","4.04","13.37","404.33","63.84","ND","0.5","281.4","26.5","57.8","78.6","0"],
    [4943,"2010-11-28T18:00:00","7.1","4.42","9.24","241.79","49.05","ND","0.9","125.5","24.5","73.6","16.3","0"],
    [4944,"2010-11-28T19:00:00","5.4","3.92","13.73","285.92","30.46","ND","0.4","21.9","23.2","79.3","0","0"],
    [4945,"2010-11-28T20:00:00","5","3.23","20.12","557.96","14.00","ND","0.4","193.6","23.1","82.3","0","0"],
    [4946,"2010-11-28T21:00:00","16.6","2.81","21.80","512.24","15.23","ND","0.4","288.8","22.8","83.3","0","0"],
    [4947,"2010-11-28T22:00:00","10.9","3.23","32.57","1034.81","3.51","ND","0","0","22.7","84","0","0"],
    [4948,"2010-11-28T23:00:00","16","3.77","33.25","1386.85","3.31","ND","0.3","108.5","22.4","84.8","0","0"],
    [4949,"2010-11-29T00:00:00","10.5","5.14","30.99","1578.50","1.21","ND","0.2","124.4","22","87.9","0","0"],
    [4950,"2010-11-29T01:00:00","12.2","3.97","26.81","1202.12","1.59","ND","0","323.8","21.5","89.8","0","0"],
    [4951,"2010-11-29T02:00:00","11.9","2.82","23.36","883.08","2.68","ND","0.1","27.5","21.2","89.2","0","0"],
    [4952,"2010-11-29T03:00:00","7.7","3.13","21.14","983.97","0.43","ND","0.1","200.4","21.2","89.3","0","0"],
    [4953,"2010-11-29T04:00:00","11.5","2.66","20.73","825.63","1.47","ND","0.1","167.4","21.4","90.4","0","0"],
    [4954,"2010-11-29T05:00:00","23.9","2.30","17.47","735.65","1.26","ND","0.6","31.4","21.1","91.3","0","0"],
    [4955,"2010-11-29T06:00:00","28.1","2.48","15.73","621.84","3.56","ND","0.1","300.3","20.9","91.3","0.3","0"],
    [4956,"2010-11-29T07:00:00","45.5","2.48","16.51","598.82","1.94","ND","0.4","47.3","20.7","92.6","42.6","0"],
    [4957,"2010-11-29T08:00:00","60.7","3.12","17.63","711.32","0.97","ND","0.2","270.4","21.7","86.6","96.1","0"],
    [4958,"2010-11-29T09:00:00","67.9","5.42","20.38","1064.95","1.82","ND","1","60.5","22.5","84.2","229.1","0"],
    [4959,"2010-11-29T10:00:00","36.3","5.33","33.06","1351.84","3.33","ND","1.2","66.8","23.5","79.7","340.1","0"],
    [4960,"2010-11-29T11:00:00","18.8","7.51","35.81","968.86","7.65","ND","0.5","196.6","24.4","73.5","320.1","0"],
    [4961,"2010-11-29T12:00:00","11.5","10.43","20.98","571.65","14.75","ND","0.5","70.5","26.2","66.3","413.5","0"],
    [4962,"2010-11-29T13:00:00","7.2","10.39","21.31","517.60","28.51","ND","0.1","222.7","26.8","63","331.8","0"],
    [4963,"2010-11-29T14:00:00","4.6","11.28","23.48","507.11","53.72","ND","0.6","76.1","27.7","58.8","547.2","0"],
    [4964,"2010-11-29T15:00:00","39.3","11.71","23.74","508.63","60.04","ND","0.2","19.9","28.8","55.1","504.1","0"],
    [4965,"2010-11-29T16:00:00","26.7","13.51","17.82","382.87","76.85","ND","0.3","54.8","28.4","56","346.9","0.51"],
    [4966,"2010-11-29T17:00:00","33.4","12.83","22.57","428.71","88.38","ND","0.9","337.5","27.7","55.5","132.5","0"],
    [4967,"2010-11-29T18:00:00","33.2","10.73","14.27","242.76","41.44","ND","1.4","133.2","25.2","74.1","32.1","0"],
    [4968,"2010-11-29T19:00:00","61.2","7.42","16.74","355.38","21.15","ND","0.2","280.3","24.1","78.4","0","0"],
    [4969,"2010-11-29T20:00:00","58.3","6.53","26.53","548.23","17.90","ND","0.3","203.5","23.6","79","0","0"],
    [4970,"2010-11-29T21:00:00","70.6","6.49","40.15","1573.51","7.11","ND","0.1","149.5","23.1","81.9","0","0"],
    [4971,"2010-11-29T22:00:00","64.1","8.23","37.77","2151.39","2.92","ND","0.2","226.3","22.7","84.7","0","0"],
    [4972,"2010-11-29T23:00:00","76.4","8.42","37.98","2296.27","4.36","ND","0.3","167","22.6","85","0","0"],
    [4973,"2010-11-30T00:00:00","44.8","9.46","36.58","3102.32","1.83","ND","0.1","13.5","22","87.1","0","0"],
    [4974,"2010-11-30T01:00:00","78.2","6.35","31.29","1746.47","2.72","ND","0.1","253.8","21.7","88.3","0","0"],
    [4975,"2010-11-30T02:00:00","67.1","5.83","26.82","1574.76","1.63","ND","0.1","26.8","21.2","89.6","0","0"],
    [4976,"2010-11-30T03:00:00","48.1","5.02","25.88","1255.41","1.38","ND","0","192.9","21.1","89.2","0","0"],
    [4977,"2010-11-30T04:00:00","36","4.81","21.43","1209.76","1.20","ND","0.2","283.7","20.9","89.6","0","0"],
    [4978,"2010-11-30T05:00:00","41.2","3.15","19.30","1039.46","1.39","ND","0.1","85.3","21","89.4","0","0"],
    [4979,"2010-11-30T06:00:00","48.4","3.18","17.19","870.28","1.10","ND","0.2","284.7","21","89","0","0"],
    [4980,"2010-11-30T07:00:00","47.5","3.41","16.28","802.46","1.61","ND","0.2","155.3","21.4","87.1","18.4","0"],
    [4981,"2010-11-30T08:00:00","86.7","3.88","17.38","780.92","1.26","ND","0.8","64.9","22.1","84.9","197.3","0"],
    [4982,"2010-11-30T09:00:00","91.7","5.53","19.92","1043.70","1.59","ND","0.5","102.1","24.2","74.3","331","0"],
    [4983,"2010-11-30T10:00:00","74.9","8.36","32.91","1713.80","3.56","ND","0.7","37.5","24.9","71.2","211.8","0"],
    [4984,"2010-11-30T11:00:00","68.4","11.79","62.23","1603.31","15.73","ND","0.7","44.9","26.5","64.2","463.9","0"],
    [4985,"2010-11-30T12:00:00","82","12.64","51.68","1128.35","35.46","ND","1.1","29.5","26.5","65.3","358.9","0"],
    [4986,"2010-11-30T13:00:00","67","12.48","28.05","713.85","53.96","ND","0.6","39","27.7","60.4","383.6","0"],
    [4987,"2010-11-30T14:00:00","53.3","11.66","26.30","670.47","78.89","ND","0.8","42.2","28.3","57.9","383.8","0"],
    [4988,"2010-11-30T15:00:00","50.8","17.41","30.62","637.06","88.67","ND","1.1","289.2","29.1","53.3","552.5","0"],
    [4989,"2010-11-30T16:00:00","26.2","26.51","24.59","476.16","64.59","ND","1.2","12","29.5","50.4","415.7","0"],
    [4990,"2010-11-30T17:00:00","20.5","21.78","16.56","360.50","33.82","ND","1.5","265.2","29.3","50.7","266.9","0"],
    [4991,"2010-11-30T18:00:00","12.7","12.04","12.71","313.78","26.26","ND","0.9","263.6","27.6","55.2","44.7","0"],
    [4992,"2010-11-30T19:00:00","31.1","8.17","14.72","485.35","17.56","ND","0.5","248.7","26.3","57.8","0.3","0"],
    [4993,"2010-11-30T20:00:00","36.2","6.92","22.02","678.86","8.51","ND","0.8","99.8","26","59.6","0","0"],
    [4994,"2010-11-30T21:00:00","50","6.36","22.28","781.63","5.73","ND","0.8","60.9","25.5","62.9","0","0"],
    [4995,"2010-11-30T22:00:00","26","7.40","27.30","1101.63","3.89","ND","0.6","172.8","24.8","66.1","0","0"],
    [4996,"2010-11-30T23:00:00","24","9.53","30.60","1522.64","2.20","ND","0.9","166.7","23.9","73.7","0","0"],
    [4997,"2010-12-01T00:00:00","12.8","8.12","26.89","1004.41","2.23","ND","0.6","150.1","23.8","75","0","0"],
    [4998,"2010-12-01T01:00:00","48.6","5.82","33.63","969.85","5.49","ND","0.7","24.3","23","79.8","0","0"],
    [4999,"2010-12-01T02:00:00","25","5.44","31.49","887.58","2.96","ND","0.4","99.2","22.1","85.8","0.2","0.51"],
    [5000,"2010-12-01T03:00:00","22.6","11.57","31.04","726.05","1.52","ND","1.3","17.7","20.6","95.2","0","1.78"],
    [5001,"2010-12-01T04:00:00","13.8","10.20","17.00","496.62","5.94","ND","1","21.8","20.5","96.2","0","0.51"],
    [5002,"2010-12-01T05:00:00","21.3","6.43","11.95","338.49","7.79","ND","0.9","51.1","20.5","96.5","0","0.25"],
    [5003,"2010-12-01T06:00:00","12.4","6.74","17.03","406.19","4.16","ND","1.2","51.5","20.5","96.7","0","0"],
    [5004,"2010-12-01T07:00:00","11.9","6.45","11.96","327.21","5.20","ND","1.5","41.6","20.5","96.9","7.6","1.52"],
    [5005,"2010-12-01T08:00:00","8.3","5.19","15.56","451.32","3.25","ND","1.2","38.2","20.6","96.3","55.3","0.51"],
    [5006,"2010-12-01T09:00:00","8.8","5.24","17.02","598.21","2.59","ND","1.3","57.5","21.5","91.2","217.7","0"],
    [5007,"2010-12-01T10:00:00","6.5","5.39","19.54","803.83","3.10","ND","0.6","179.5","23.4","82.3","473.7","0"],
    [5008,"2010-12-01T11:00:00","5.4","10.32","19.03","592.52","6.40","ND","0.4","144.4","25.3","73.9","302.6","0"],
    [5009,"2010-12-01T12:00:00","3.2","16.60","19.72","550.45","10.65","ND","0.5","257.8","25.4","71.4","209.5","0"],
    [5010,"2010-12-01T13:00:00","2.2","16.71","19.93","550.63","20.99","ND","1.3","276.3","24.8","72.6","459.4","2.79"],
    [5011,"2010-12-01T14:00:00","2.2","13.75","18.39","560.97","23.43","ND","0.7","305.2","27.3","60.8","524.1","0"],
    [5012,"2010-12-01T15:00:00","2.8","9.27","14.75","542.59","17.15","ND","0.9","271.1","27.8","57.1","593.4","0"],
    [5013,"2010-12-01T16:00:00","3","9.02","8.92","427.86","20.94","ND","2.1","295","28","53.8","491.5","0"],
    [5014,"2010-12-01T17:00:00","2.4","8.23","9.74","358.71","17.32","ND","1.6","64","26","66.5","93.7","0"],
    [5015,"2010-12-01T18:00:00","9.4","6.10","7.45","229.89","17.62","ND","0.9","147.6","24.5","77.1","27.1","0"],
    [5016,"2010-12-01T19:00:00","36.9","12.32","16.38","468.91","13.44","ND","0.7","152.3","24","81","0.1","0"],
    [5017,"2010-12-01T20:00:00","48.3","8.91","32.29","1073.26","6.88","ND","1.1","123.4","23.9","80.7","0","0"],
    [5018,"2010-12-01T21:00:00","42.2","7.88","34.77","1358.24","3.81","ND","1.2","154.3","23.3","82.2","0","0"],
    [5019,"2010-12-01T22:00:00","57","7.74","34.59","1731.39","4.68","ND","0.3","239.5","23.1","84","0","0"],
    [5020,"2010-12-01T23:00:00","48.6","6.67","29.49","1513.94","2.92","ND","0.5","2.5","22.9","84","0","0"],
    [5021,"2010-12-02T00:00:00","54.1","6.53","29.98","1899.68","4.11","ND","0.3","55.4","22.4","90.5","0","0"],
    [5022,"2010-12-02T01:00:00","31.8","5.74","30.45","1601.21","1.32","ND","0.8","111.5","22.1","89.7","0","0"],
    [5023,"2010-12-02T02:00:00","18","4.90","24.10","1236.56","2.02","ND","0.6","152.4","21.3","93.5","0","1.52"],
    [5024,"2010-12-02T03:00:00","12.2","4.19","18.97","871.17","3.00","ND","0.5","132.6","21.2","93.4","0","0"],
    [5025,"2010-12-02T04:00:00","7.4","4.60","15.04","780.39","3.22","ND","0.1","352","21.2","94.9","0","0"],
    [5026,"2010-12-02T05:00:00","5.2","4.14","16.07","735.15","4.18","ND","0","348.9","21.3","94.6","0","0"],
    [5027,"2010-12-02T06:00:00","4.5","3.39","14.97","690.14","2.56","ND","0.2","42.1","21.3","94.6","0","0"],
    [5028,"2010-12-02T07:00:00","29.2","3.70","17.02","825.91","1.30","ND","1.1","55.8","20.6","96.6","6.6","2.79"],
    [5029,"2010-12-02T08:00:00","16.3","4.00","18.17","835.23","2.18","ND","1","46.7","20.1","97.5","28.7","3.81"],
    [5030,"2010-12-02T09:00:00","10.6","6.91","22.86","946.49","1.93","ND","1.7","43.4","20.4","97.4","75.4","0.76"],
    [5031,"2010-12-02T10:00:00","5.8","13.57","25.37","1026.41","1.47","ND","0.8","52.8","21","93","121.6","0"],
    [5032,"2010-12-02T11:00:00","4.7","15.05","23.58","904.18","3.54","ND","2.1","174.8","20.9","92.3","106.2","0.25"],
    [5033,"2010-12-02T12:00:00","3.1","10.41","16.01","655.31","7.74","ND","1.6","197.9","21.5","89.7","209.9","1.27"],
    [5034,"2010-12-02T13:00:00","2.3","10.12","23.02","905.72","4.11","ND","0.8","195.5","23.2","81.1","499.6","0.25"],
    [5035,"2010-12-02T14:00:00","1.9","8.15","29.71","1332.26","8.72","ND","0.7","146.2","25.5","68.8","560.9","0"],
    [5036,"2010-12-02T15:00:00","2.4","6.61","35.32","1308.18","23.12","ND","0.9","94.5","24.8","70.5","92.9","0"],
    [5037,"2010-12-02T16:00:00","2.5","7.23","23.98","858.63","40.91","ND","1.6","35.1","23.6","79.2","193.1","0"],
    [5038,"2010-12-02T17:00:00","3.4","6.99","22.33","661.33","23.85","ND","1.3","44.9","22.9","84.5","125.8","0.25"],
    [5039,"2010-12-02T18:00:00","12.8","7.10","17.75","557.39","22.66","ND","0.8","46.6","22.7","85.3","30.9","0"],
    [5040,"2010-12-02T19:00:00","35.4","12.69","28.28","738.90","15.29","ND","0.6","164.3","22.6","85.5","0","0"],
    [5041,"2010-12-02T20:00:00","47.6","14.01","34.96","897.74","5.78","ND","0.3","237.6","22.3","86.6","0","0"],
    [5042,"2010-12-02T21:00:00","39.8","12.05","36.64","2111.52","4.73","ND","0.2","329","22.1","85.7","0","0"],
    [5043,"2010-12-02T22:00:00","24.7","10.72","33.44","2597.91","1.96","ND","0.1","352","21.8","88.3","0","0"],
    [5044,"2010-12-02T23:00:00","47.9","11.17","28.36","2561.27","3.55","ND","0.1","4.5","21.7","90.3","0","0"],
    [5045,"2010-12-03T00:00:00","48.3","9.74","27.38","2356.48","2.41","ND","0.1","160.8","21.7","90.5","0","0"],
    [5046,"2010-12-03T01:00:00","40.6","8.50","25.42","1891.98","2.06","ND","0.1","330.1","21.5","91.5","0","0"],
    [5047,"2010-12-03T02:00:00","62.3","7.46","24.42","1811.44","2.40","ND","0.6","347.4","21.2","94.7","0","0"],
    [5048,"2010-12-03T03:00:00","48.2","6.60","23.58","1549.47","1.41","ND","0.4","56.4","20.9","94.7","0","0"],
    [5049,"2010-12-03T04:00:00","26.3","10.26","22.72","1288.02","2.17","ND","0.8","54.2","20.7","94.3","0","0"],
    [5050,"2010-12-03T05:00:00","28.1","16.45","17.76","971.01","1.41","ND","1.2","94.1","20.6","94.9","0","0"],
    [5051,"2010-12-03T06:00:00","15.1","11.54","13.29","756.22","2.57","ND","0.8","152.6","20.4","94.9","0","8.38"],
    [5052,"2010-12-03T07:00:00","17.6","8.38","12.96","620.36","2.78","ND","0.1","121.4","20","97.6","5.2","4.32"],
    [5053,"2010-12-03T08:00:00","11.2","7.81","13.04","642.04","2.05","ND","0.5","101.3","20.1","97.2","28.4","0.51"],
    [5054,"2010-12-03T09:00:00","8.8","7.04","16.99","732.40","2.45","ND","0.8","81.8","20.6","96.1","75.3","1.02"],
    [5055,"2010-12-03T10:00:00","ND","8.67","26.15","1523.73","2.92","ND","1.1","46.2","20.8","95.3","152.6","0.51"],
    [5056,"2010-12-03T11:00:00","ND","8.14","29.13","1615.13","2.63","ND","1.4","49.2","21.3","92.4","172.8","0.25"],
    [5057,"2010-12-03T12:00:00","4.5","6.70","23.98","972.99","6.32","ND","0.7","54","22.4","86.4","208","0"],
    [5058,"2010-12-03T13:00:00","3.7","ND","ND","ND","ND","ND","0.3","356.3","22.9","83.3","256.3","0"],
    [5059,"2010-12-03T14:00:00","5.6","15.25","20.29","1126.16","ND","ND","0.6","4.2","23.8","79.4","309.1","0"],
    [5060,"2010-12-03T15:00:00","23.1","17.95","23.79","1369.19","21.05","ND","1.2","319.8","23","86.1","236.9","1.02"],
    [5061,"2010-12-03T16:00:00","17","23.22","25.93","1365.50","30.72","ND","1","337.1","23.6","81.2","205.2","0"],
    [5062,"2010-12-03T17:00:00","20.1","41.67","42.57","1596.32","13.09","ND","0.5","42.2","24","76.5","86.9","0"],
    [5063,"2010-12-03T18:00:00","27.4","84.04","44.79","1632.72","13.69","ND","0.8","260.3","23.8","77.3","11.8","0"],
    [5064,"2010-12-03T19:00:00","28.5","37.27","29.08","1517.52","20.44","ND","0.5","315.2","22.8","75.8","0","0"],
    [5065,"2010-12-03T20:00:00","27.3","23.67","42.38","2433.50","7.93","ND","0.6","75.9","22.7","78.9","0","0"],
    [5066,"2010-12-03T21:00:00","42","18.77","21.25","1784.72","5.28","ND","0.7","125.3","21.9","88.3","0","2.03"],
    [5067,"2010-12-03T22:00:00","49.6","16.65","28.16","2584.81","5.15","ND","0.2","308.7","20.9","94.7","0","16"],
    [5068,"2010-12-03T23:00:00","46.2","14.91","36.17","2734.23","4.92","ND","0.1","258.3","20","96.2","0","2.79"],
    [5069,"2010-12-04T00:00:00","24.4","12.06","33.93","2545.63","4.44","ND","1","166.6","20.3","95.7","0","0.25"],
    [5070,"2010-12-04T01:00:00","24.3","9.90","21.10","2221.25","4.35","ND","0.9","149.4","20.2","95.3","0","0"],
    [5071,"2010-12-04T02:00:00","14.4","8.97","24.48","2231.77","4.71","ND","0.5","145.7","20","95.5","0","4.06"],
    [5072,"2010-12-04T03:00:00","8.5","7.32","22.07","1813.48","5.75","ND","0.5","160.9","19.6","97.5","0","6.86"],
    [5073,"2010-12-04T04:00:00","5","6.66","16.87","1698.52","6.32","ND","0.2","39.2","19.7","98.1","0","2.03"],
    [5074,"2010-12-04T05:00:00","4.3","6.00","16.09","1575.33","5.86","ND","0.4","51.4","19.8","98.5","0","2.03"],
    [5075,"2010-12-04T06:00:00","3.2","5.10","18.14","1553.35","5.09","ND","0.6","42.4","19.7","98.8","0","0.51"],
    [5076,"2010-12-04T07:00:00","10.9","4.76","17.91","1395.29","4.09","ND","0.6","51.1","19.6","98.8","6.3","0.51"],
    [5077,"2010-12-04T08:00:00","7","5.20","17.25","1406.06","3.87","ND","0.8","77.4","19.5","98.5","27.3","0.76"],
    [5078,"2010-12-04T09:00:00","6.5","5.92","17.67","1529.27","3.74","ND","0.2","37.3","19.9","97.4","61.7","0.25"],
    [5079,"2010-12-04T10:00:00","5.8","6.90","21.29","1677.74","3.43","ND","0.5","172.1","21.3","91.4","331.2","0"],
    [5080,"2010-12-04T11:00:00","11.3","6.94","18.21","1617.88","4.30","ND","0.5","131.6","23.5","79.7","475.7","0"],
    [5081,"2010-12-04T12:00:00","8","7.64","21.12","1652.77","8.40","ND","0.9","110.3","24.2","75.6","238.5","0"],
    [5082,"2010-12-04T13:00:00","32.5","8.60","45.38","2216.51","38.63","ND","1","236.6","24.1","76.2","242.3","0"],
    [5083,"2010-12-04T14:00:00","41.4","8.57","44.56","2192.92","72.80","ND","1.3","2.2","23.4","79.5","323.4","0"],
    [5084,"2010-12-04T15:00:00","38.5","7.04","38.52","2119.39","78.95","ND","0.9","48.5","24.6","71.6","300.3","0"],
    [5085,"2010-12-04T16:00:00","20.3","12.27","31.98","1807.63","52.29","ND","0.9","63.6","24.7","70.9","147.9","0"],
    [5086,"2010-12-04T17:00:00","13.1","10.78","30.48","1716.68","67.48","ND","0.4","75.9","24.9","69.2","134.2","0"],
    [5087,"2010-12-04T18:00:00","14.6","11.08","24.57","1511.69","45.88","ND","0","233.4","24.6","68.1","44.3","0"],
    [5088,"2010-12-04T19:00:00","8.7","10.62","22.82","1510.17","39.45","ND","1","54.9","22.4","84.2","0","0"],
    [5089,"2010-12-04T20:00:00","5.2","8.57","23.64","1544.43","22.20","ND","1","149.9","22.2","85.1","0","0"],
    [5090,"2010-12-04T21:00:00","9.8","6.10","18.12","1509.34","9.10","ND","0.8","153.1","21.8","87.4","0","0"],
    [5091,"2010-12-04T22:00:00","26.6","6.27","21.78","1858.62","4.48","ND","0.6","174","21.7","87.1","0","0"],
    [5092,"2010-12-04T23:00:00","27.1","6.27","22.89","2186.54","5.18","ND","0.4","337.3","21.4","87","0","0"],
    [5093,"2010-12-05T00:00:00","32.8","7.87","23.48","2682.29","3.72","ND","0.2","35.6","21.4","87.6","0","0"],
    [5094,"2010-12-05T01:00:00","30.7","6.76","23.09","2501.21","3.43","ND","0.6","34.1","21.1","88.8","0","0"],
    [5095,"2010-12-05T02:00:00","29.3","7.01","20.13","2261.23","3.16","ND","0.2","56.4","20.8","92.6","0","0"],
    [5096,"2010-12-05T03:00:00","46","11.47","19.89","1987.85","3.35","ND","0.4","214","20.8","92.6","0","0"],
    [5097,"2010-12-05T04:00:00","33.7","11.11","17.06","1965.26","3.77","ND","0.3","238.3","20.7","91","0","0"],
    [5098,"2010-12-05T05:00:00","33.8","12.29","16.74","2066.21","3.73","ND","0.1","5.1","20.5","94.5","0","0"],
    [5099,"2010-12-05T06:00:00","36","13.11","14.60","1997.11","3.34","ND","0","270.9","20.3","92.5","0.4","0"],
    [5100,"2010-12-05T07:00:00","18.5","10.99","12.51","1984.47","3.55","ND","1.1","353.5","20.1","95.1","26.5","0"],
    [5101,"2010-12-05T08:00:00","19.1","9.30","10.71","2028.19","3.53","ND","1.1","42.3","20.5","94.7","28.2","0"],
    [5102,"2010-12-05T09:00:00","33.1","8.46","13.73","1827.86","3.48","ND","0.8","36.4","20.6","95.2","69.5","0"],
    [5103,"2010-12-05T10:00:00","25.6","9.55","14.29","1614.03","3.89","ND","0.8","43.8","21.5","87.9","140.5","0"],
    [5104,"2010-12-05T11:00:00","36.2","9.32","15.02","1539.73","6.21","ND","0.2","139.9","22.6","81.6","202.4","0"],
    [5105,"2010-12-05T12:00:00","23.9","13.31","19.00","1568.21","9.56","ND","0.1","152","23.9","74.1","389.5","0"],
    [5106,"2010-12-05T13:00:00","12.8","20.55","21.88","1495.21","12.83","ND","0.5","219.1","26.4","61","658.4","0"],
    [5107,"2010-12-05T14:00:00","8.8","30.43","25.34","1622.90","21.94","ND","1.1","289.7","27.1","56.5","691.5","0"],
    [5108,"2010-12-05T15:00:00","4.2","32.88","19.37","1453.64","46.44","ND","0.7","71.7","28.3","54.1","530.5","0"],
    [5109,"2010-12-05T16:00:00","31.1","18.76","16.24","1378.37","73.95","ND","1.7","115.9","27.8","57.5","127.6","0"],
    [5110,"2010-12-05T17:00:00","36.8","23.04","46.90","1399.21","92.84","ND","1.3","151","27.1","59.5","88.9","0"],
    [5111,"2010-12-05T18:00:00","ND","18.73","70.06","1580.54","42.09","ND","ND","ND","ND","ND","ND","ND"],
    [5112,"2010-12-05T19:00:00","ND","ND","ND","ND","ND","ND","ND","ND","ND","ND","ND","ND"],
    [5113,"2010-12-05T20:00:00","ND","ND","ND","ND","ND","ND","ND","ND","ND","ND","ND","ND"],
    [5114,"2010-12-05T21:00:00","ND","ND","ND","ND","ND","ND","ND","ND","ND","ND","ND","ND"],
    [5115,"2010-12-05T22:00:00","ND","ND","ND","ND","ND","ND","ND","ND","ND","ND","ND","ND"],
    [5116,"2010-12-05T23:00:00","ND","ND","ND","ND","ND","ND","ND","ND","ND","ND","ND","ND"],
    [5117,"2010-12-06T00:00:00","ND","ND","ND","ND","ND","ND","ND","ND","ND","ND","ND","ND"],
    [5118,"2010-12-06T01:00:00","ND","ND","ND","ND","ND","ND","ND","ND","ND","ND","ND","ND"],
    [5119,"2010-12-06T02:00:00","ND","ND","ND","ND","ND","ND","ND","ND","ND","ND","ND","ND"],
    [5120,"2010-12-06T03:00:00","ND","ND","ND","ND","ND","ND","ND","ND","ND","ND","ND","ND"],
    [5121,"2010-12-06T04:00:00","ND","ND","ND","ND","ND","ND","ND","ND","ND","ND","ND","ND"],
    [5122,"2010-12-06T05:00:00","ND","ND","ND","ND","ND","ND","ND","ND","ND","ND","ND","ND"],
    [5123,"2010-12-06T06:00:00","ND","ND","ND","ND","ND","ND","ND","ND","ND","ND","ND","ND"],
    [5124,"2010-12-06T07:00:00","ND","ND","ND","ND","ND","ND","ND","ND","ND","ND","ND","ND"],
    [5125,"2010-12-06T08:00:00","ND","ND","ND","ND","ND","ND","ND","ND","ND","ND","ND","ND"],
    [5126,"2010-12-06T09:00:00","ND","ND","ND","ND","ND","ND","ND","ND","ND","ND","ND","ND"],
    [5127,"2010-12-06T10:00:00","ND","ND","ND","ND","ND","ND","ND","ND","ND","ND","ND","ND"],
    [5128,"2010-12-06T11:00:00","ND","ND","ND","ND","ND","ND","ND","ND","ND","ND","ND","ND"],
    [5129,"2010-12-06T12:00:00","ND","ND","ND","ND","ND","ND","ND","ND","ND","ND","ND","ND"],
    [5130,"2010-12-06T13:00:00","ND","ND","ND","ND","ND","ND","ND","ND","ND","ND","ND","ND"],
    [5131,"2010-12-06T14:00:00","ND","ND","ND","ND","ND","ND","ND","ND","ND","ND","ND","ND"],
    [5132,"2010-12-06T15:00:00","ND","ND","ND","ND","ND","ND","ND","ND","ND","ND","ND","ND"],
    [5133,"2010-12-06T16:00:00","ND","ND","ND","ND","ND","ND","ND","ND","ND","ND","ND","ND"],
    [5134,"2010-12-06T17:00:00","ND","ND","ND","ND","ND","ND","ND","ND","ND","ND","ND","ND"],
    [5135,"2010-12-06T18:00:00","ND","ND","ND","ND","ND","ND","ND","ND","ND","ND","ND","ND"],
    [5136,"2010-12-06T19:00:00","ND","ND","ND","ND","ND","ND","ND","ND","ND","ND","ND","ND"],
    [5137,"2010-12-06T20:00:00","ND","ND","ND","ND","ND","ND","ND","ND","ND","ND","ND","ND"],
    [5138,"2010-12-06T21:00:00","ND","ND","ND","ND","ND","ND","ND","ND","ND","ND","ND","ND"],
    [5139,"2010-12-06T22:00:00","ND","ND","ND","ND","ND","ND","ND","ND","ND","ND","ND","ND"],
    [5140,"2010-12-06T23:00:00","ND","ND","ND","ND","ND","ND","ND","ND","ND","ND","ND","ND"],
    [5141,"2010-12-07T00:00:00","ND","ND","ND","ND","ND","ND","ND","ND","ND","ND","ND","ND"],
    [5142,"2010-12-07T01:00:00","ND","ND","ND","ND","ND","ND","ND","ND","ND","ND","ND","ND"],
    [5143,"2010-12-07T02:00:00","ND","ND","ND","ND","ND","ND","ND","ND","ND","ND","ND","ND"],
    [5144,"2010-12-07T03:00:00","ND","ND","ND","ND","ND","ND","ND","ND","ND","ND","ND","ND"],
    [5145,"2010-12-07T04:00:00","ND","ND","ND","ND","ND","ND","ND","ND","ND","ND","ND","ND"],
    [5146,"2010-12-07T05:00:00","ND","ND","ND","ND","ND","ND","ND","ND","ND","ND","ND","ND"],
    [5147,"2010-12-07T06:00:00","ND","ND","ND","ND","ND","ND","ND","ND","ND","ND","ND","ND"],
    [5148,"2010-12-07T07:00:00","ND","ND","ND","ND","ND","ND","ND","ND","ND","ND","ND","ND"],
    [5149,"2010-12-07T08:00:00","ND","ND","ND","ND","ND","ND","ND","ND","ND","ND","ND","ND"],
    [5150,"2010-12-07T09:00:00","ND","ND","ND","ND","ND","ND","ND","ND","ND","ND","ND","ND"],
    [5151,"2010-12-07T10:00:00","ND","ND","ND","ND","ND","ND","ND","ND","ND","ND","ND","ND"],
    [5152,"2010-12-07T11:00:00","ND","ND","ND","ND","ND","ND","ND","ND","ND","ND","ND","ND"],
    [5153,"2010-12-07T12:00:00","ND","ND","ND","ND","ND","ND","ND","ND","ND","ND","ND","ND"],
    [5154,"2010-12-07T13:00:00","ND","ND","ND","ND","ND","ND","ND","ND","ND","ND","ND","ND"],
    [5155,"2010-12-07T14:00:00","ND","ND","ND","ND","ND","ND","ND","ND","ND","ND","ND","ND"],
    [5156,"2010-12-07T15:00:00","ND","ND","ND","ND","ND","ND","0.6","240.6","26","67","77.8","0"],
    [5157,"2010-12-07T16:00:00","ND","ND","ND","ND","ND","ND","2.6","259.5","28.4","53.3","273.1","0"],
    [5158,"2010-12-07T17:00:00","ND","15.34","34.86","1320.89","32.21","ND","3.2","279.9","27.4","53.5","136.8","0"],
    [5159,"2010-12-07T18:00:00","1.3","15.40","8.83","288.71","40.75","ND","1.1","248.1","26.8","55.6","15.9","0"],
    [5160,"2010-12-07T19:00:00","4","4.67","14.04","426.44","24.95","ND","1.3","95.6","26.1","61","0","0"],
    [5161,"2010-12-07T20:00:00","2.9","4.97","21.89","574.92","17.43","ND","2.3","38.4","22.8","81.2","0","0"],
    [5162,"2010-12-07T21:00:00","11.7","5.70","29.95","989.32","10.03","ND","0.6","127.8","21.8","86.1","0","0"],
    [5163,"2010-12-07T22:00:00","41.4","5.78","20.10","600.65","16.11","ND","1.4","139.2","22.4","82.6","0","0"],
    [5164,"2010-12-07T23:00:00","25.6","5.51","22.24","522.38","10.85","ND","0.9","147","22.1","81.3","0","0"],
    [5165,"2010-12-08T00:00:00","41.7","4.57","27.42","771.43","8.67","ND","0.8","168.7","21.9","82.8","0","0"],
    [5166,"2010-12-08T01:00:00","29.7","4.15","28.01","940.96","6.80","ND","0.3","225.4","21.8","83.4","0","0"],
    [5167,"2010-12-08T02:00:00","21","3.99","28.43","1031.31","7.49","ND","0.1","71.1","21.7","84.7","0","0"],
    [5168,"2010-12-08T03:00:00","35.6","2.90","32.93","1098.93","5.90","ND","0.8","155.1","21.6","83.8","0","0"],
    [5169,"2010-12-08T04:00:00","22.8","3.42","31.43","1109.89","3.10","ND","0.8","166.5","21.5","84.4","0","0"],
    [5170,"2010-12-08T05:00:00","24","4.43","24.18","951.01","4.96","ND","0.7","164.4","21","87.9","0","0"],
    [5171,"2010-12-08T06:00:00","13.4","3.62","18.67","745.95","8.31","ND","0.1","282.8","21.2","87.1","0","0"],
    [5172,"2010-12-08T07:00:00","8.6","2.97","12.83","508.95","9.80","ND","0.2","2.6","21.2","88.6","16.1","0"],
    [5173,"2010-12-08T08:00:00","14.8","1.89","16.57","475.02","7.48","ND","0.6","102.9","21.6","87.8","54.2","0"],
    [5174,"2010-12-08T09:00:00","27.3","2.95","21.99","679.52","5.45","ND","0.6","47.1","21.7","89.7","133.2","0"],
    [5175,"2010-12-08T10:00:00","24.4","4.69","22.63","793.04","6.75","ND","0.4","190.9","23.2","80.1","282.9","0"],
    [5176,"2010-12-08T11:00:00","14.1","3.80","21.55","740.15","10.47","ND","0.2","295.3","24.8","71.1","328.2","0"],
    [5177,"2010-12-08T12:00:00","8.5","4.19","21.34","721.25","22.02","ND","1","54.2","26.1","65.1","608.9","0"],
    [5178,"2010-12-08T13:00:00","5.7","4.89","20.78","781.89","44.73","ND","1.1","177.5","27.2","60.8","416.9","0"],
    [5179,"2010-12-08T14:00:00","4.8","5.38","14.14","577.03","65.24","ND","1.9","141.4","28","57.8","490.1","0"],
    [5180,"2010-12-08T15:00:00","19.6","5.45","12.35","497.57","52.45","ND","0.7","248.7","27.1","61.1","109.7","0"],
    [5181,"2010-12-08T16:00:00","11.4","5.07","11.38","473.01","50.16","ND","0.6","307.2","25.3","68.3","145.4","0.51"],
    [5182,"2010-12-08T17:00:00","7.7","4.64","12.12","447.24","50.99","ND","0.7","278.6","25.4","70.8","77.5","0"],
    [5183,"2010-12-08T18:00:00","11.9","4.01","14.58","516.22","30.65","ND","0.7","304","25.3","66.5","35.2","0"],
    [5184,"2010-12-08T19:00:00","24.9","4.51","20.53","699.52","31.68","ND","0.3","215.1","24.2","70.1","0.1","0"],
    [5185,"2010-12-08T20:00:00","25.8","5.33","23.03","811.20","18.08","ND","0.1","352.9","23.5","73.5","0","0"],
    [5186,"2010-12-08T21:00:00","32.7","6.13","32.34","1208.23","7.61","ND","0.1","258.9","22.8","77.7","0","0"],
    [5187,"2010-12-08T22:00:00","28.6","8.17","36.31","2069.61","5.57","ND","0.1","325.2","23","78.3","0","0"],
    [5188,"2010-12-08T23:00:00","58","8.95","30.96","2401.01","4.05","ND","0.2","5.9","23","77.4","0","0"],
    [5189,"2010-12-09T00:00:00","31.2","9.63","29.90","2594.45","4.13","ND","0.1","161.7","22.3","82.6","0","0"],
    [5190,"2010-12-09T01:00:00","45.4","6.31","27.81","1350.92","4.63","ND","0.3","287.8","21.6","85.4","0","0"],
    [5191,"2010-12-09T02:00:00","24.2","5.62","22.57","1347.72","4.04","ND","0.1","313.2","21.1","87.8","0","0"],
    [5192,"2010-12-09T03:00:00","12.1","4.60","19.35","1085.39","3.60","ND","0.1","19.9","21.4","85.5","0","0.76"],
    [5193,"2010-12-09T04:00:00","22.6","4.40","16.41","973.32","3.49","ND","0.4","345.1","20.3","94.9","0","18.8"],
    [5194,"2010-12-09T05:00:00","30.9","3.33","17.17","868.21","4.93","ND","0.4","287.1","20.5","93.6","0","0.25"],
    [5195,"2010-12-09T06:00:00","16.5","3.69","19.24","891.36","5.49","ND","0.2","233.5","20.7","95","0","0"],
    [5196,"2010-12-09T07:00:00","10.7","3.20","15.41","688.74","4.87","ND","0.2","52.5","20.9","93.9","10.4","0"],
    [5197,"2010-12-09T08:00:00","7.7","3.36","14.88","824.79","4.18","ND","0.4","217.9","21.4","91.4","106.1","0"],
    [5198,"2010-12-09T09:00:00","26.4","5.33","19.95","1244.94","4.44","ND","0.1","226.9","23.1","82","276.3","0"],
    [5199,"2010-12-09T10:00:00","15.2","7.89","28.11","2083.09","6.40","ND","0.9","81.4","24.5","75.1","282.3","0"],
    [5200,"2010-12-09T11:00:00","48.2","7.98","43.74","1658.34","9.46","ND","0.3","13.3","24.9","72.5","322.1","0"],
    [5201,"2010-12-09T12:00:00","26.7","14.62","59.78","1637.67","31.27","ND","0.5","71.9","26.5","65.1","576.4","0"],
    [5202,"2010-12-09T13:00:00","27.9","13.19","40.07","1036.24","40.17","ND","0.2","59.8","27.7","59.4","599.4","0"],
    [5203,"2010-12-09T14:00:00","ND","15.84","27.63","797.63","58.24","ND","ND","ND","ND","ND","ND","ND"],
    [5204,"2010-12-09T15:00:00","ND","ND","ND","ND","ND","ND","ND","ND","ND","ND","ND","ND"],
    [5205,"2010-12-09T16:00:00","ND","ND","ND","ND","ND","ND","ND","ND","ND","ND","ND","ND"],
    [5206,"2010-12-09T17:00:00","ND","ND","ND","ND","ND","ND","ND","ND","ND","ND","ND","ND"],
    [5207,"2010-12-09T18:00:00","ND","ND","ND","ND","ND","ND","ND","ND","ND","ND","ND","ND"],
    [5208,"2010-12-09T19:00:00","ND","ND","ND","ND","ND","ND","ND","ND","ND","ND","ND","ND"],
    [5209,"2010-12-09T20:00:00","ND","ND","ND","ND","ND","ND","ND","ND","ND","ND","ND","ND"],
    [5210,"2010-12-09T21:00:00","ND","ND","ND","ND","ND","ND","ND","ND","ND","ND","ND","ND"],
    [5211,"2010-12-09T22:00:00","ND","ND","ND","ND","ND","ND","ND","ND","ND","ND","ND","ND"],
    [5212,"2010-12-09T23:00:00","ND","ND","ND","ND","ND","ND","ND","ND","ND","ND","ND","ND"],
    [5213,"2010-12-10T00:00:00","ND","ND","ND","ND","ND","ND","ND","ND","ND","ND","ND","ND"],
    [5214,"2010-12-10T01:00:00","ND","ND","ND","ND","ND","ND","ND","ND","ND","ND","ND","ND"],
    [5215,"2010-12-10T02:00:00","ND","ND","ND","ND","ND","ND","ND","ND","ND","ND","ND","ND"],
    [5216,"2010-12-10T03:00:00","ND","ND","ND","ND","ND","ND","ND","ND","ND","ND","ND","ND"],
    [5217,"2010-12-10T04:00:00","ND","ND","ND","ND","ND","ND","ND","ND","ND","ND","ND","ND"],
    [5218,"2010-12-10T05:00:00","ND","ND","ND","ND","ND","ND","ND","ND","ND","ND","ND","ND"],
    [5219,"2010-12-10T06:00:00","ND","ND","ND","ND","ND","ND","ND","ND","ND","ND","ND","ND"],
    [5220,"2010-12-10T07:00:00","ND","ND","ND","ND","ND","ND","ND","ND","ND","ND","ND","ND"],
    [5221,"2010-12-10T08:00:00","ND","ND","ND","ND","ND","ND","ND","ND","ND","ND","ND","ND"],
    [5222,"2010-12-10T09:00:00","ND","ND","ND","ND","ND","ND","ND","ND","ND","ND","ND","ND"],
    [5223,"2010-12-10T10:00:00","ND","ND","ND","ND","ND","ND","ND","ND","ND","ND","ND","ND"],
    [5224,"2010-12-10T11:00:00","ND","ND","ND","ND","ND","ND","ND","ND","ND","ND","ND","ND"],
    [5225,"2010-12-10T12:00:00","ND","ND","ND","ND","ND","ND","ND","ND","ND","ND","ND","ND"],
    [5226,"2010-12-10T13:00:00","ND","ND","ND","ND","ND","ND","ND","ND","ND","ND","ND","ND"],
    [5227,"2010-12-10T14:00:00","ND","ND","ND","ND","ND","ND","ND","ND","ND","ND","ND","ND"],
    [5228,"2010-12-10T15:00:00","ND","ND","ND","ND","ND","ND","ND","ND","ND","ND","ND","ND"],
    [5229,"2010-12-10T16:00:00","ND","ND","ND","ND","ND","ND","0.3","182.4","27.8","56.6","224.5","0"],
    [5230,"2010-12-10T17:00:00","ND","ND","ND","ND","ND","ND","1.5","253","27.2","55.8","83.3","0"],
    [5231,"2010-12-10T18:00:00","ND","ND","ND","ND","ND","ND","0.2","287.6","26.3","58.9","20","0"],
    [5232,"2010-12-10T19:00:00","ND","ND","ND","1334.70","ND","ND","0.5","241.1","25.4","61.8","0","0"],
    [5233,"2010-12-10T20:00:00","8.4","6.87","30.46","1732.19","8.78","ND","0.3","2.4","24.6","64.7","0","0"],
    [5234,"2010-12-10T21:00:00","41.7","9.21","32.58","2105.09","6.96","ND","0.2","96.4","23.9","69.6","0","0"],
    [5235,"2010-12-10T22:00:00","49.4","8.25","35.48","2157.21","5.24","ND","0.1","291","22.8","77.2","0","0"],
    [5236,"2010-12-10T23:00:00","72.1","9.99","32.55","2899.73","5.49","ND","0.3","218.5","22.1","79.5","0","0"],
    [5237,"2010-12-11T00:00:00","47.3","7.78","25.12","2541.19","5.25","ND","0.3","351.5","22.1","79.7","0","0"],
    [5238,"2010-12-11T01:00:00","66.2","6.77","23.59","2711.36","6.53","ND","0.7","1.6","21.7","83.1","0","0"],
    [5239,"2010-12-11T02:00:00","56.5","6.14","24.27","2277.17","4.79","ND","0.1","34.9","21.6","83","0","0"],
    [5240,"2010-12-11T03:00:00","51.6","12.82","26.77","1981.94","5.02","ND","0.2","10.4","21.7","82.5","0","0"],
    [5241,"2010-12-11T04:00:00","51.4","10.26","22.18","1778.69","4.75","ND","0","234.7","21.9","82.5","0","0"],
    [5242,"2010-12-11T05:00:00","51.3","9.93","24.21","1519.14","4.16","ND","0.2","3.1","21.7","84","0","0"],
    [5243,"2010-12-11T06:00:00","38.6","9.17","20.64","1722.04","5.07","ND","0.3","283.4","21.4","88.2","0.1","0"],
    [5244,"2010-12-11T07:00:00","46.5","10.25","21.40","1426.03","4.61","ND","0.2","41.1","21.7","87.2","42","0"],
    [5245,"2010-12-11T08:00:00","67.4","9.15","16.89","1484.13","6.07","ND","1","40.4","22.1","86.1","131.6","0"],
    [5246,"2010-12-11T09:00:00","67.1","11.11","21.19","1644.97","5.05","ND","0.8","71.7","23.7","75.2","360.1","0"],
    [5247,"2010-12-11T10:00:00","35.2","14.30","25.03","1665.29","6.29","ND","1.4","148.4","25.6","65.3","471.7","0"],
    [5248,"2010-12-11T11:00:00","41.7","14.52","17.72","1044.60","14.85","ND","1.8","127.8","26.8","61.3","595.5","0"],
    [5249,"2010-12-11T12:00:00","38.6","14.63","29.03","1256.25","29.87","ND","1.7","115.9","28.1","56.9","603.4","0"],
    [5250,"2010-12-11T13:00:00","26.3","12.39","26.95","1238.55","63.65","ND","0.3","216.8","28.3","55.2","397.3","0"],
    [5251,"2010-12-11T14:00:00","15.3","9.03","19.73","1030.88","65.48","ND","0.4","343.7","29.6","51.5","579.1","0"],
    [5252,"2010-12-11T15:00:00","30.1","6.97","20.06","1093.49","69.70","ND","1.7","298.7","29","52.7","326.3","0"],
    [5253,"2010-12-11T16:00:00","16.8","6.74","20.04","1033.28","89.81","ND","2.7","264.1","29.8","48.4","432.2","0"],
    [5254,"2010-12-11T17:00:00","20.6","5.03","17.24","907.97","46.88","ND","2.8","279.1","29","48.8","238.5","0"],
    [5255,"2010-12-11T18:00:00","12.5","2.20","8.32","777.86","35.74","ND","0.7","308.8","28.1","52.2","45.2","0"],
    [5256,"2010-12-11T19:00:00","7.9","0.58","9.67","798.69","28.95","ND","0.2","131.6","27.2","55.2","0","0"],
    [5257,"2010-12-11T20:00:00","22.3","1.50","15.75","877.09","25.13","ND","1.4","109.3","26.1","61.5","0","0"],
    [5258,"2010-12-11T21:00:00","44.6","1.97","26.65","1253.32","11.54","ND","2.4","153.4","24.4","70.2","0","0"],
    [5259,"2010-12-11T22:00:00","48.8","3.43","30.38","1291.93","8.17","ND","0.6","137.1","23.7","73.3","0","0"],
    [5260,"2010-12-11T23:00:00","40","2.92","25.37","1266.08","7.44","ND","0.4","278.7","23.2","76.4","0","0"],
    [5261,"2010-12-12T00:00:00","23.5","2.68","27.41","1332.26","8.00","ND","0.5","322","22.8","77.2","0","0"],
    [5262,"2010-12-12T01:00:00","22.8","3.54","28.88","1830.81","4.62","ND","0.2","79.7","22.7","78.3","0","0"],
    [5263,"2010-12-12T02:00:00","38.3","3.43","24.46","1534.63","5.63","ND","0.4","147.5","22.5","81.5","0","0"],
    [5264,"2010-12-12T03:00:00","28","2.91","23.35","1363.20","4.40","ND","0.2","284.4","21.7","83.5","0","0"],
    [5265,"2010-12-12T04:00:00","15.8","4.46","22.59","1359.51","4.56","ND","0","239.5","21.8","83","0","0"],
    [5266,"2010-12-12T05:00:00","16.4","2.83","21.18","1257.97","5.34","ND","0.2","337.7","21.6","84.8","0","0"],
    [5267,"2010-12-12T06:00:00","23","3.47","18.86","1460.97","4.44","ND","0.3","328.1","21.2","88","0","0"],
    [5268,"2010-12-12T07:00:00","38.4","3.91","19.21","1311.96","3.66","ND","0.3","282.5","21.5","86.6","19.9","0"],
    [5269,"2010-12-12T08:00:00","34.6","4.07","17.50","1234.05","4.31","ND","0.1","200.2","22.1","84.1","60.1","0"],
    [5270,"2010-12-12T09:00:00","40.5","6.02","19.04","1304.63","4.90","ND","0.3","165.1","22.8","80.6","84.3","0"],
    [5271,"2010-12-12T10:00:00","22.3","7.41","22.27","1330.47","6.80","ND","0.5","165.9","23.5","78.8","228.9","0"],
    [5272,"2010-12-12T11:00:00","27","8.03","25.30","1299.42","9.41","ND","1","155.4","25.1","68.8","368.9","0"],
    [5273,"2010-12-12T12:00:00","16.1","8.62","28.30","1352.27","14.70","ND","1.2","278.3","25.6","68.8","294.1","0"],
    [5274,"2010-12-12T13:00:00","10.2","9.11","20.53","1136.43","25.62","ND","0.9","258.5","25.4","67.2","255.1","0"],
    [5275,"2010-12-12T14:00:00","5.1","7.48","18.77","1066.84","47.14","ND","2.4","234.3","26.3","60.5","313.9","0"],
    [5276,"2010-12-12T15:00:00","2.5","6.13","10.90","851.45","27.71","ND","3.7","255.9","27.5","55.4","443.3","0"],
    [5277,"2010-12-12T16:00:00","12.1","3.43","9.14","854.86","24.24","ND","3.8","283.8","26.2","57.5","81.4","0"],
    [5278,"2010-12-12T17:00:00","6.8","1.95","5.77","724.64","27.84","ND","0.3","94","24.5","70.2","40.4","0"],
    [5279,"2010-12-12T18:00:00","16.4","0.65","5.51","743.40","24.92","ND","1.4","129.2","23.6","80.7","15.6","0"],
    [5280,"2010-12-12T19:00:00","8.7","1.12","13.53","900.78","19.12","ND","0.5","133.2","22.8","83.2","0","0"],
    [5281,"2010-12-12T20:00:00","5.8","1.77","18.96","1034.81","11.08","ND","0.2","222.4","22.7","85.5","0","0"],
    [5282,"2010-12-12T21:00:00","28","1.92","21.72","1261.81","7.67","ND","1","179.7","23","82","0","0"],
    [5283,"2010-12-12T22:00:00","40.2","3.10","26.38","1866.19","7.93","ND","2.6","182.6","22.5","84","0","0"],
    [5284,"2010-12-12T23:00:00","23.9","4.68","27.70","2249.27","4.71","ND","0.8","198","22.5","83.6","0","0"],
    [5285,"2010-12-13T00:00:00","13.4","3.38","24.93","1510.88","7.22","ND","0.2","184.2","22.3","84.8","0","2.54"],
    [5286,"2010-12-13T01:00:00","10","1.95","22.99","1180.64","9.82","ND","0.6","167.5","20.6","96","0","14.73"],
    [5287,"2010-12-13T02:00:00","6","1.39","15.31","1027.11","9.40","ND","0.1","303","20.9","93.5","0","0.25"],
    [5288,"2010-12-13T03:00:00","3.6","1.19","12.67","971.67","12.52","ND","0.6","175.1","20.4","95.6","0","4.32"],
    [5289,"2010-12-13T04:00:00","4.1","0.75","11.96","902.34","7.42","ND","0","271.9","20.3","94.8","0","0"],
    [5290,"2010-12-13T05:00:00","3.3","0.98","7.80","868.21","8.73","ND","0.1","356.6","20.6","94.6","0","0.76"],
    [5291,"2010-12-13T06:00:00","11.3","0.21","4.90","744.94","8.89","ND","1.1","29.3","20.4","97.1","0","0.25"],
    [5292,"2010-12-13T07:00:00","16.9","0.59","11.22","891.06","6.09","ND","1.4","27.1","20.2","96.4","9.3","1.78"],
    [5293,"2010-12-13T08:00:00","9.6","1.52","16.40","879.18","5.14","ND","1.1","357.2","20","96.5","43.6","1.02"],
    [5294,"2010-12-13T09:00:00","8.8","4.28","19.07","1058.80","5.25","ND","0.7","124.7","20.7","91.2","137.6","0.25"],
    [5295,"2010-12-13T10:00:00","6.1","6.90","25.39","1422.64","5.36","ND","1","104.4","21.3","87.1","173.5","0"],
    [5296,"2010-12-13T11:00:00","3.6","6.37","23.14","1221.89","7.17","ND","0.7","110.9","22","83.1","182.9","0"],
    [5297,"2010-12-13T12:00:00","4.2","5.03","19.73","1156.76","12.84","ND","1.2","201.9","22.7","79.1","409.2","0"],
    [5298,"2010-12-13T13:00:00","8.9","4.13","17.94","1045.82","15.31","ND","1.5","189.5","25.5","66","764.5","0"],
    [5299,"2010-12-13T14:00:00","4.5","3.86","25.79","1354.08","25.14","ND","1","251.5","26.1","60","375.8","0"],
    [5300,"2010-12-13T15:00:00","2.2","3.45","19.30","1161.33","40.12","ND","1.5","11.1","25.3","62.6","266.2","0"],
    [5301,"2010-12-13T16:00:00","2.6","2.83","15.18","963.28","50.96","ND","1","85.4","25.9","60.1","118.4","0"],
    [5302,"2010-12-13T17:00:00","23","4.13","16.19","1011.18","25.98","ND","1.2","105.8","26","59.4","110","0"],
    [5303,"2010-12-13T18:00:00","12.7","3.68","22.58","1080.48","18.82","ND","1.6","217.5","25.2","60.9","32.9","0"],
    [5304,"2010-12-13T19:00:00","24.6","3.85","25.97","1123.45","16.63","ND","2","263.8","24.3","62.6","0","0"],
    [5305,"2010-12-13T20:00:00","14.2","3.11","26.16","1462.93","10.24","ND","0.9","57.2","23.8","68.4","0","0"],
    [5306,"2010-12-13T21:00:00","35.6","2.30","22.85","1255.09","12.96","ND","0.4","37.2","22.7","78.3","0","0"],
    [5307,"2010-12-13T22:00:00","42.4","4.37","33.14","1614.21","5.57","ND","0.2","251.1","22","82.5","0","0"],
    [5308,"2010-12-13T23:00:00","30","5.08","29.09","1531.00","5.09","ND","1.4","195.1","21.9","81","0","0"],
    [5309,"2010-12-14T00:00:00","16.6","5.60","26.73","1802.57","4.47","ND","0.2","217","21.4","80","0","0"],
    [5310,"2010-12-14T01:00:00","9.8","5.07","25.75","1641.06","3.94","ND","0.1","316.1","20.4","84.3","0","0"],
    [5311,"2010-12-14T02:00:00","5.8","3.22","20.53","1297.11","4.23","ND","0.6","5.2","20","87.5","0","0"],
    [5312,"2010-12-14T03:00:00","26.4","1.88","14.22","1160.18","4.30","ND","0.2","356.7","19.8","91.9","0","0"],
    [5313,"2010-12-14T04:00:00","34.6","2.47","16.14","1136.87","4.72","ND","0.1","81.7","20.1","90.3","0","0"],
    [5314,"2010-12-14T05:00:00","23.5","3.20","17.21","1329.59","3.47","ND","0","46","20.1","91.7","0","0"],
    [5315,"2010-12-14T06:00:00","23.2","3.09","15.41","1149.31","3.92","ND","0","124","19.9","92.6","0.1","0"],
    [5316,"2010-12-14T07:00:00","31.8","4.12","14.18","1159.78","3.38","ND","0","260.6","20.1","91.4","23.3","0"],
    [5317,"2010-12-14T08:00:00","51.4","5.41","12.28","1318.32","3.94","ND","0.6","123.3","21.8","81","202.7","0"],
    [5318,"2010-12-14T09:00:00","53.1","6.97","13.68","1813.29","4.08","ND","1.2","139.7","23.1","75.5","309.6","0"],
    [5319,"2010-12-14T10:00:00","54","7.68","25.68","1992.03","6.42","ND","1.5","124.2","24.5","70.5","520.7","0"],
    [5320,"2010-12-14T11:00:00","51.8","8.14","49.26","2115.82","20.34","ND","1.4","96.9","25.7","64.6","626.6","0"],
    [5321,"2010-12-14T12:00:00","35.7","8.30","34.28","1573.17","39.50","ND","0.4","166","26.4","60.6","516.6","0"],
    [5322,"2010-12-14T13:00:00","44.5","8.82","22.99","1208.54","60.43","ND","0.3","12.8","26.6","60.3","228.9","0"],
    [5323,"2010-12-14T14:00:00","24.4","7.46","16.68","1036.58","78.13","ND","0.7","26.2","27.2","59.3","383.5","0"],
    [5324,"2010-12-14T15:00:00","42.9","8.05","18.48","1004.04","71.52","ND","1.2","315.6","27.3","59.7","214.1","0"],
    [5325,"2010-12-14T16:00:00","41.9","12.44","20.02","1027.46","84.02","ND","1","326.8","27.1","60.3","170.1","0"],
    [5326,"2010-12-14T17:00:00","74","31.30","34.25","1222.90","84.09","ND","1.6","212.7","27.4","55.7","117.5","0"],
    [5327,"2010-12-14T18:00:00","39.3","ND","ND","ND","ND","ND","0.8","266","26.8","56.3","37.1","0"],
    [5328,"2010-12-14T19:00:00","27.1","19.03","33.90","1117.95","ND","ND","0.4","13.7","25.7","59.3","0","0"],
    [5329,"2010-12-14T20:00:00","15.9","10.53","28.64","1263.13","14.30","ND","0.3","287.8","25.5","59.3","0","0"],
    [5330,"2010-12-14T21:00:00","31.8","6.40","20.83","1147.53","11.46","ND","0.2","96.5","25","63.2","0","0"],
    [5331,"2010-12-14T22:00:00","27.8","5.92","22.73","1191.43","10.36","ND","1.5","195.1","24.2","67","0","0"],
    [5332,"2010-12-14T23:00:00","31.1","7.19","29.90","1679.52","5.52","ND","2.5","209.7","20.7","90.6","0","38.86"],
    [5333,"2010-12-15T00:00:00","17.5","5.84","22.20","1445.22","10.04","ND","1.2","256.1","20.2","92.6","0","2.79"],
    [5334,"2010-12-15T01:00:00","15.2","2.84","14.23","1048.25","15.87","ND","0.1","73.8","20.9","91.4","0","0.25"],
    [5335,"2010-12-15T02:00:00","9.9","1.99","10.68","915.17","14.38","ND","0.3","247.6","20.8","92.8","0","0"],
    [5336,"2010-12-15T03:00:00","6.3","1.94","15.17","960.04","8.13","ND","0.7","183.2","20.5","93.8","0","16"],
    [5337,"2010-12-15T04:00:00","5.3","1.96","15.79","981.63","5.39","ND","0.6","221.4","19.5","99.4","0","41.66"],
    [5338,"2010-12-15T05:00:00","3.6","2.29","9.24","910.82","7.96","ND","0.4","354.4","19.4","100","0","4.32"],
    [5339,"2010-12-15T06:00:00","3.9","1.59","7.98","831.82","10.07","ND","0.3","318","19.6","99.7","0","0.76"],
    [5340,"2010-12-15T07:00:00","3.5","1.44","8.58","843.64","9.06","ND","0.2","195","20.2","97.9","11.5","0"],
    [5341,"2010-12-15T08:00:00","9.6","1.21","10.25","890.45","6.82","ND","0.1","57","20.9","94.6","48.8","0"],
    [5342,"2010-12-15T09:00:00","24.9","3.20","17.54","1434.90","4.35","ND","0.6","118.9","21.4","91.3","67.4","0"],
    [5343,"2010-12-15T10:00:00","27.1","6.16","25.38","2535.16","4.71","ND","1.1","58.8","20.8","96.6","161.5","15.24"],
    [5344,"2010-12-15T11:00:00","31","5.84","35.76","2450.93","5.49","ND","1.2","336.5","21.1","93.9","189.7","0.76"],
    [5345,"2010-12-15T12:00:00","16.9","3.96","28.77","1775.06","8.95","ND","1.5","30.1","22.6","84.8","608.6","0"],
    [5346,"2010-12-15T13:00:00","8.5","4.21","25.54","1556.84","11.52","ND","0.9","22.4","24.2","76.6","398.3","0"],
    [5347,"2010-12-15T14:00:00","4.9","8.94","15.78","1085.41","24.80","ND","1.1","58","25","73.2","415.4","0"],
    [5348,"2010-12-15T15:00:00","11.7","13.44","19.47","1031.05","34.71","ND","0.2","148.3","25.9","66.4","304.1","0"],
    [5349,"2010-12-15T16:00:00","8.1","18.82","18.25","976.71","43.58","ND","2.5","163.3","24.2","73.3","60.1","0"],
    [5350,"2010-12-15T17:00:00","36.2","21.22","17.92","1062.55","36.50","ND","2.8","178.9","21.8","83.5","18.8","0"],
    [5351,"2010-12-15T18:00:00","21","11.41","25.10","1359.97","19.39","ND","0.9","152.4","20.4","93.4","1","7.87"],
    [5352,"2010-12-15T19:00:00","12.4","4.77","35.81","1601.65","14.90","ND","0.1","89.9","19.8","98.3","0","20.57"],
    [5353,"2010-12-15T20:00:00","8","5.20","34.38","1789.73","5.23","ND","0.8","42.6","19.8","98.8","0","3.3"],
    [5354,"2010-12-15T21:00:00","10.1","5.23","28.81","2059.88","4.76","ND","1","53.1","19.8","98.5","0","0"],
    [5355,"2010-12-15T22:00:00","7.1","4.53","31.48","1958.57","4.24","ND","0.4","0.9","20","97.7","0","0.25"],
    [5356,"2010-12-15T23:00:00","4.8","2.24","22.68","1374.19","4.48","ND","0.1","340.4","20","97.1","0","0"],
    [5357,"2010-12-16T00:00:00","23.5","4.79","22.70","1419.25","3.45","ND","0","237.2","20.1","96.7","0","0"],
    [5358,"2010-12-16T01:00:00","12.9","8.01","18.90","1566.21","3.53","ND","0.1","257.8","20","96.1","0","0"],
    [5359,"2010-12-16T02:00:00","9.9","7.34","16.76","1678.31","3.82","ND","0.4","242.5","20","95","0","0.25"],
    [5360,"2010-12-16T03:00:00","5.7","5.41","13.19","1419.25","3.63","ND","0.1","267.6","20","94.2","0","0"],
    [5361,"2010-12-16T04:00:00","4.8","4.66","13.44","1137.65","3.40","ND","0.5","140.7","20.1","95.8","0","0"],
    [5362,"2010-12-16T05:00:00","11.4","4.30","12.63","1205.64","3.73","ND","1.2","151.8","19.7","97.1","0","0"],
    [5363,"2010-12-16T06:00:00","7.1","4.63","13.97","1339.03","4.28","ND","1.1","163","19.6","96.2","0","0"],
    [5364,"2010-12-16T07:00:00","19.6","4.37","13.02","1248.58","4.53","ND","0.9","175.9","19.6","96.2","17.5","0.25"],
    [5365,"2010-12-16T08:00:00","19","3.34","14.66","1113.60","4.49","ND","0.4","27.1","20.1","93","82.5","0"],
    [5366,"2010-12-16T09:00:00","25","4.36","15.86","1385.93","3.88","ND","0.9","7","21","88.5","272.3","0"],
    [5367,"2010-12-16T10:00:00","13.4","6.67","25.57","2283.06","4.30","ND","0.8","79.9","22.8","76.6","272.5","0"],
    [5368,"2010-12-16T11:00:00","8.6","5.64","31.56","1705.72","8.36","ND","1","74.9","23.1","75.4","298.9","0"],
    [5369,"2010-12-16T12:00:00","5.7","5.81","22.78","1320.43","21.92","ND","0.5","136","23.7","72.8","191.4","0"],
    [5370,"2010-12-16T13:00:00","16.4","5.84","15.38","1049.36","28.86","ND","0.4","165.2","24.1","70.9","304.4","0"],
    [5371,"2010-12-16T14:00:00","33.3","5.67","20.32","1199.25","31.11","ND","1.3","35.1","24.3","70.5","247.6","0"],
    [5372,"2010-12-16T15:00:00","17.6","5.52","19.69","1142.92","41.17","ND","1.1","66.8","24.8","66.9","292.3","0"],
    [5373,"2010-12-16T16:00:00","9.9","11.57","17.71","1076.15","50.48","ND","0.4","68.3","25.8","64.3","267.6","0"],
    [5374,"2010-12-16T17:00:00","27.8","7.49","16.49","1022.33","43.47","ND","0.7","56.6","25.5","65.6","179","0"],
    [5375,"2010-12-16T18:00:00","28.5","7.56","19.77","1078.68","46.98","ND","0.2","167.8","25.4","65.2","25.3","0"],
    [5376,"2010-12-16T19:00:00","46.6","9.42","21.41","1135.67","44.61","ND","1","147.2","24.8","69.2","0","0"],
    [5377,"2010-12-16T20:00:00","42.1","8.80","31.73","1350.91","32.89","ND","0.2","335.7","24.1","72.5","0","0"],
    [5378,"2010-12-16T21:00:00","61.6","7.65","52.35","2307.14","9.04","ND","0.6","262.5","22.8","79.6","0","0"],
    [5379,"2010-12-16T22:00:00","33.3","8.84","54.57","2922.48","5.67","ND","0.2","294","22.1","79.6","0","0"],
    [5380,"2010-12-16T23:00:00","43.1","7.76","44.31","2938.25","4.66","ND","0.6","340.5","21.7","83.3","0","0"],
    [5381,"2010-12-17T00:00:00","24.9","6.24","30.55","2379.13","3.57","ND","0","235.9","21.6","84.7","0","0"],
    [5382,"2010-12-17T01:00:00","40.4","5.60","26.01","2049.89","3.98","ND","0","278.5","21.3","87.6","0","0"],
    [5383,"2010-12-17T02:00:00","21.6","5.85","22.41","2070.43","4.11","ND","0.1","254.1","21.1","89.1","0","0"],
    [5384,"2010-12-17T03:00:00","30.2","5.38","19.44","1741.15","3.45","ND","0.3","160.5","21.2","87.5","0","0"],
    [5385,"2010-12-17T04:00:00","25.6","4.99","15.97","1843.53","3.60","ND","0.2","249.5","21.2","87.5","0","0"],
    [5386,"2010-12-17T05:00:00","27.8","4.19","15.34","1617.33","3.62","ND","0","0","21.1","88.5","0","0"],
    [5387,"2010-12-17T06:00:00","14.8","4.27","16.97","1560.25","4.18","ND","0","271","20.7","90.5","0","0"],
    [5388,"2010-12-17T07:00:00","43.7","3.31","14.46","1388.76","3.54","ND","0","327.5","20.9","90.4","31","0"],
    [5389,"2010-12-17T08:00:00","56","3.70","12.11","1604.38","3.52","ND","0.3","42.8","21.3","90.4","42.5","0"],
    [5390,"2010-12-17T09:00:00","92.5","6.73","17.50","2160.94","4.55","ND","0.3","100.5","22","87.4","168.2","0"],
    [5391,"2010-12-17T10:00:00","90.2","7.55","27.22","2415.58","4.64","ND","1.1","136.2","24","75.4","421.4","0"],
    [5392,"2010-12-17T11:00:00","74.9","8.33","40.85","2694.56","5.32","ND","0.6","130.1","25.3","68.9","396.7","0"],
    [5393,"2010-12-17T12:00:00","37.9","8.24","46.79","2098.57","25.08","ND","0.7","40","25.2","68","261.2","0"],
    [5394,"2010-12-17T13:00:00","29.5","10.86","30.70","1501.75","48.09","ND","0","210","25.9","66","296.5","0"],
    [5395,"2010-12-17T14:00:00","16.2","12.35","22.99","1195.03","60.54","ND","0.5","17.2","27.4","61","683.5","0"],
    [5396,"2010-12-17T15:00:00","41.5","11.57","23.60","1224.12","69.95","ND","1.1","58.5","27.6","59.2","394.2","0"],
    [5397,"2010-12-17T16:00:00","26.4","12.55","26.18","1444.50","85.99","ND","1.7","41.7","27.8","54.7","197.3","0"],
    [5398,"2010-12-17T17:00:00","40.8","17.61","19.98","1006.04","72.81","ND","1.6","240.9","27.2","54.8","82.3","0"],
    [5399,"2010-12-17T18:00:00","28.7","16.18","18.97","1130.98","23.84","ND","2.7","187.6","24.6","67.4","8.6","0"],
    [5400,"2010-12-17T19:00:00","45.6","7.82","21.59","1350.00","13.37","ND","0.8","251.7","24.2","68.7","0.1","0"],
    [5401,"2010-12-17T20:00:00","32.9","5.25","32.50","1519.57","11.68","ND","0.6","32.4","23.8","70","0","0"],
    [5402,"2010-12-17T21:00:00","50.2","6.39","41.08","2053.79","6.51","ND","0.5","138.4","23.3","74.7","0","0"],
    [5403,"2010-12-17T22:00:00","58","9.35","39.68","2403.44","4.55","ND","1","207.8","22.8","76.6","0","0"],
    [5404,"2010-12-17T23:00:00","44.6","8.09","43.11","2319.79","5.45","ND","0.6","215","22.5","79.3","0","0"],
    [5405,"2010-12-18T00:00:00","34.4","8.37","40.17","2896.79","3.85","ND","0.2","276.2","21.9","80.8","0","0"],
    [5406,"2010-12-18T01:00:00","39.4","8.74","37.11","3015.62","5.71","ND","0.1","262.1","21.9","82.7","0","0"],
    [5407,"2010-12-18T02:00:00","38.4","6.98","29.32","2516.79","3.88","ND","0.5","148.7","21.9","84.5","0","0"],
    [5408,"2010-12-18T03:00:00","61.3","7.26","27.99","2652.83","3.79","ND","0.5","30.8","21.3","89.7","0","0"],
    [5409,"2010-12-18T04:00:00","48.1","5.95","25.61","2240.14","4.77","ND","0.7","36.9","20.8","94.2","0","0"],
    [5410,"2010-12-18T05:00:00","44.5","5.94","24.16","1987.85","4.08","ND","1.1","87.6","20.6","94.5","0","0.25"],
    [5411,"2010-12-18T06:00:00","34.3","4.67","18.06","1410.87","3.87","ND","1.6","90.5","19.5","98.8","0","82.04"],
    [5412,"2010-12-18T07:00:00","19.4","3.73","15.79","1326.87","5.51","ND","0.3","223.9","19.1","100","1.6","65.28"],
    [5413,"2010-12-18T08:00:00","10.8","3.44","13.07","1089.24","6.77","ND","0.5","175","19.1","100","14.7","7.11"],
    [5414,"2010-12-18T09:00:00","7.1","3.75","15.80","1122.93","4.56","ND","0.3","119.4","19.3","100","67.4","4.06"],
    [5415,"2010-12-18T10:00:00","4.1","3.47","18.83","1382.14","4.29","ND","0.6","135.1","19.9","100","93.7","0.25"],
    [5416,"2010-12-18T11:00:00","4.9","3.94","24.45","1565.14","6.02","ND","1.8","120","20.6","94.6","118.3","0"],
    [5417,"2010-12-18T12:00:00","3.4","4.88","37.93","2110.65","5.51","ND","1.1","148","22","82.2","278.8","0"],
    [5418,"2010-12-18T13:00:00","2.6","4.23","41.37","2075.36","8.86","ND","1","145","22.8","78.5","251.1","0"],
    [5419,"2010-12-18T14:00:00","2.1","3.04","24.58","1341.84","19.21","ND","1.5","155.6","24","71.7","383.2","0"],
    [5420,"2010-12-18T15:00:00","1.9","3.03","23.11","1404.37","30.31","ND","1.1","164","24.5","67.5","188.7","0"],
    [5421,"2010-12-18T16:00:00","4.3","3.14","21.66","1429.61","45.80","ND","1","299.3","23.3","75.5","54.5","3.3"],
    [5422,"2010-12-18T17:00:00","14.4","2.94","17.88","1161.85","37.11","ND","0.4","285","21.8","86.2","80.4","1.27"],
    [5423,"2010-12-18T18:00:00","9.4","2.05","32.76","1427.96","22.69","ND","0.3","61.7","22.3","84.1","23.3","0"],
    [5424,"2010-12-18T19:00:00","19","2.78","34.60","1782.31","12.45","ND","0.7","233.6","21.2","85.4","0.2","0"],
    [5425,"2010-12-18T20:00:00","11.3","4.16","39.01","2114.97","7.87","ND","0.3","226.6","20.7","86.8","0","0.25"],
    [5426,"2010-12-18T21:00:00","23.4","7.57","33.19","2969.47","3.87","ND","0.4","250.2","20.5","88.9","0","0"],
    [5427,"2010-12-18T22:00:00","26.3","8.98","25.91","3520.32","4.41","ND","0.1","264.6","20.2","89.5","0","0"],
    [5428,"2010-12-18T23:00:00","28.5","11.47","24.50","4193.02","3.65","ND","0.8","193.3","20.6","84.4","0","0"],
    [5429,"2010-12-19T00:00:00","16.2","10.09","19.89","3668.25","3.67","ND","0.1","245.1","20.3","85.9","0","0"],
    [5430,"2010-12-19T01:00:00","34.8","8.97","20.13","3438.99","4.00","ND","0.4","2.1","20","91","0","1.02"],
    [5431,"2010-12-19T02:00:00","25.1","5.59","17.94","2703.33","3.72","ND","0.1","318","19.7","95.3","0","0"],
    [5432,"2010-12-19T03:00:00","16.9","4.66","19.26","2272.97","3.57","ND","0","3.4","19.6","96.1","0","0"],
    [5433,"2010-12-19T04:00:00","9.4","4.53","17.48","2103.47","3.39","ND","0.1","174.3","19.6","95.9","0","0.25"],
    [5434,"2010-12-19T05:00:00","11.1","4.43","15.94","2013.48","3.82","ND","0.2","254.9","19.7","95.2","0","0"],
    [5435,"2010-12-19T06:00:00","9.8","4.79","13.52","2047.92","3.32","ND","0","169.6","19.8","94.2","0","0"],
    [5436,"2010-12-19T07:00:00","25.1","5.20","12.92","2059.88","3.45","ND","0","0","19.8","94.1","13.7","0"],
    [5437,"2010-12-19T08:00:00","15.6","5.59","12.53","1981.09","3.59","ND","0.3","158.5","20.2","89.1","81.2","0"],
    [5438,"2010-12-19T09:00:00","9.4","4.95","14.60","1882.35","3.19","ND","0.7","109","21.4","83.7","252.4","0"],
    [5439,"2010-12-19T10:00:00","11.8","3.78","19.39","1629.75","4.73","ND","1.1","137.5","22.4","77.8","331","0"],
    [5440,"2010-12-19T11:00:00","10.3","3.17","25.76","1544.43","13.46","ND","0.7","186.7","22.8","74.4","300.1","0"],
    [5441,"2010-12-19T12:00:00","7.2","3.04","26.88","1569.27","17.45","ND","0.7","141.5","24.4","67.4","682.7","0"],
    [5442,"2010-12-19T13:00:00","8.6","2.69","22.31","1394.83","28.89","ND","0.7","69.8","25.2","64.2","347.2","0"],
    [5443,"2010-12-19T14:00:00","6.1","2.86","19.58","1226.62","54.90","ND","0.4","307","24.4","70.6","218.6","0.76"],
    [5444,"2010-12-19T15:00:00","10.4","3.95","13.38","1051.84","58.77","ND","1.9","249.1","22.5","80.6","91.7","0"],
    [5445,"2010-12-19T16:00:00","7.4","4.34","14.06","976.96","47.21","ND","0.6","202.3","23.3","73.5","86.3","0"],
    [5446,"2010-12-19T17:00:00","6.1","2.71","20.67","1344.10","18.22","ND","0.5","50.1","22.8","78.2","40","0"],
    [5447,"2010-12-19T18:00:00","13.1","2.81","18.55","1444.18","9.88","ND","0.7","357.1","21.6","84.9","11.7","0"],
    [5448,"2010-12-19T19:00:00","16.4","2.38","25.32","1585.55","8.90","ND","0.1","274.6","21.4","88.1","0.2","0"],
    [5449,"2010-12-19T20:00:00","8.9","2.95","27.20","1459.98","10.26","ND","0.4","254.5","21.2","89.4","0","0"],
    [5450,"2010-12-19T21:00:00","31.2","4.09","26.74","1990.56","5.08","ND","0.4","162.6","21.5","86.9","0","0"],
    [5451,"2010-12-19T22:00:00","16.7","5.08","26.13","2343.56","3.65","ND","1","83.6","21.5","86.5","0","0.25"],
    [5452,"2010-12-19T23:00:00","40.7","5.62","26.91","2683.20","4.69","ND","0.7","41.9","20.8","90.9","0","0"],
    [5453,"2010-12-20T00:00:00","22.6","4.73","30.40","2337.98","4.12","ND","0.6","334.8","20.5","91.3","0","0.25"],
    [5454,"2010-12-20T01:00:00","13.2","3.82","25.82","1805.29","3.87","ND","0.8","274.2","19.7","93.7","0","0.51"],
    [5455,"2010-12-20T02:00:00","8.2","2.70","21.27","1462.80","3.80","ND","0","96.8","19.9","94","0","0"],
    [5456,"2010-12-20T03:00:00","5.1","2.52","17.07","1306.16","4.92","ND","0.1","40.2","19.7","94.4","0","0"],
    [5457,"2010-12-20T04:00:00","4.8","2.55","17.20","1384.04","4.34","ND","0.3","214.2","19.7","95","0","0"],
    [5458,"2010-12-20T05:00:00","16.8","2.01","14.97","1226.50","3.89","ND","0.1","172.8","19.8","94.8","0","0"],
    [5459,"2010-12-20T06:00:00","9.4","2.09","13.44","1238.18","3.86","ND","0.1","289.9","19.7","96.1","0.1","0"],
    [5460,"2010-12-20T07:00:00","9.6","1.85","10.75","1080.22","4.11","ND","0.3","342.4","19.6","93.5","9.4","0.25"],
    [5461,"2010-12-20T08:00:00","23.5","2.16","10.58","1113.60","3.45","ND","0.1","51.2","20.4","91.2","68.4","0"],
    [5462,"2010-12-20T09:00:00","27.8","3.10","12.85","1466.30","3.32","ND","0.7","66.7","21.7","83.4","310.8","0"],
    [5463,"2010-12-20T10:00:00","14.8","4.66","16.54","1948.62","3.61","ND","0.6","84.9","22.7","78.3","195","0"],
    [5464,"2010-12-20T11:00:00","35.4","4.68","29.60","1682.41","9.31","ND","1.2","271.9","22.5","80.5","277.5","0"],
    [5465,"2010-12-20T12:00:00","18.6","5.01","36.44","1567.68","24.71","ND","0.9","279.8","23.6","73.4","210.4","0"],
    [5466,"2010-12-20T13:00:00","32.6","4.30","31.94","1550.71","19.51","ND","0.2","274.2","25.2","64.8","523.3","0"],
    [5467,"2010-12-20T14:00:00","18.4","5.53","34.38","1467.36","35.35","ND","0.9","30.8","25.7","60","278.7","0"],
    [5468,"2010-12-20T15:00:00","14.8","9.85","27.64","1217.20","48.70","ND","1","2.4","26","62.2","422","0"],
    [5469,"2010-12-20T16:00:00","9.3","15.83","20.26","977.03","54.50","ND","1","31","25.4","62.7","113.1","0"],
    [5470,"2010-12-20T17:00:00","12.4","24.19","25.71","998.02","49.26","ND","1.8","147","24.4","69.8","64.3","0"],
    [5471,"2010-12-20T18:00:00","21.1","16.66","20.00","1143.30","22.05","ND","1","7.6","22.5","81.1","13","0"],
    [5472,"2010-12-20T19:00:00","40.7","8.65","25.27","1431.36","6.64","ND","0.3","250","22.3","83.8","0.1","0"],
    [5473,"2010-12-20T20:00:00","40.7","9.19","26.67","1634.73","6.42","ND","0.4","232.9","22.2","84.2","0","0"],
    [5474,"2010-12-20T21:00:00","46.6","8.90","24.94","2292.38","5.56","ND","0.4","244.4","22.1","84.1","0","0"],
    [5475,"2010-12-20T22:00:00","50.8","10.07","24.77","3255.90","4.29","ND","0.6","175.8","21.9","86.1","0","0"],
    [5476,"2010-12-20T23:00:00","38.9","11.44","25.33","3627.81","3.32","ND","0.2","199.5","21.8","84.9","0","0"],
    [5477,"2010-12-21T00:00:00","28.5","11.17","23.53","3637.91","3.71","ND","0.5","169.7","21.4","87.2","0","0"],
    [5478,"2010-12-21T01:00:00","22.6","7.71","21.81","2580.43","4.27","ND","1","164.1","21.1","88","0","0"],
    [5479,"2010-12-21T02:00:00","12.7","6.26","17.75","2125.56","3.76","ND","0.5","172.7","21","89.4","0","0"],
    [5480,"2010-12-21T03:00:00","9.1","4.60","14.85","1740.55","4.32","ND","0.7","160.6","20.7","92.2","0","0"],
    [5481,"2010-12-21T04:00:00","11.1","3.74","14.00","1219.40","4.10","ND","0.2","256.2","20.4","94.3","0","0.25"],
    [5482,"2010-12-21T05:00:00","17","3.56","12.48","1173.04","3.54","ND","0.2","229","20.1","96","0","0"],
    [5483,"2010-12-21T06:00:00","10.1","2.76","12.91","1183.11","3.92","ND","0.1","358","20.3","95.8","0","0.25"],
    [5484,"2010-12-21T07:00:00","25.7","2.53","10.70","992.23","2.94","ND","0.3","7.4","20.3","94.5","16.8","0"],
    [5485,"2010-12-21T08:00:00","14.1","3.35","11.49","1307.95","3.11","ND","0.4","27.4","20.7","93.3","52","0"],
    [5486,"2010-12-21T09:00:00","32.3","4.44","15.67","1524.25","3.62","ND","0.9","43.5","21.1","89.9","103.6","0"],
    [5487,"2010-12-21T10:00:00","17.6","3.57","20.15","1673.31","3.99","ND","0.7","197.2","22.1","84.5","180.4","0"],
    [5488,"2010-12-21T11:00:00","27","4.46","18.13","1145.80","7.02","ND","0.5","67.4","24.1","73.7","528.7","0"],
    [5489,"2010-12-21T12:00:00","34.2","7.26","22.10","1370.58","8.63","ND","1.2","74.1","25.2","69","616.8","0"],
    [5490,"2010-12-21T13:00:00","18.8","8.63","36.96","1627.85","31.22","ND","0.7","42.2","26.1","63.7","431.5","0"],
    [5491,"2010-12-21T14:00:00","10.6","16.83","26.03","1218.83","41.18","ND","1.6","49.4","26.5","60.8","486","0"],
    [5492,"2010-12-21T15:00:00","11.9","29.60","19.40","932.61","44.63","ND","0.9","42.2","27.3","57.9","474.3","0"],
    [5493,"2010-12-21T16:00:00","7.6","28.54","16.15","865.84","48.77","ND","0.8","28.5","27.7","57.9","367","0"],
    [5494,"2010-12-21T17:00:00","5.1","29.03","16.53","913.23","56.97","ND","1.1","35","27.5","57.9","197.2","0"],
    [5495,"2010-12-21T18:00:00","4","32.02","17.49","820.20","46.66","ND","0.7","288.5","26.6","58.2","44.1","0"],
    [5496,"2010-12-21T19:00:00","23.2","23.37","19.05","909.89","31.13","ND","0.2","175.7","25.5","62","0.3","0"],
    [5497,"2010-12-21T20:00:00","32","9.82","24.13","1147.53","12.64","ND","0","211.9","24.6","67.4","0","0"],
    [5498,"2010-12-21T21:00:00","66.2","8.98","31.52","2070.77","5.31","ND","0.2","106.8","24","71.1","0","0"],
    [5499,"2010-12-21T22:00:00","85.9","11.31","34.99","3105.60","5.69","ND","0.6","115.4","23.3","74.2","0","0"],
    [5500,"2010-12-21T23:00:00","75.6","13.23","32.12","3269.14","3.67","ND","0.4","159.1","22.1","80.7","0","0"],
    [5501,"2010-12-22T00:00:00","55.2","11.08","27.49","2824.80","5.44","ND","0.4","172.3","21.7","82.3","0","0"],
    [5502,"2010-12-22T01:00:00","52.2","8.99","17.94","2515.08","3.92","ND","0.3","234.6","21","85.6","0","0"],
    [5503,"2010-12-22T02:00:00","45.3","8.43","15.40","2192.65","4.45","ND","0.1","269.8","20.6","87.1","0","0"],
    [5504,"2010-12-22T03:00:00","46.9","8.65","13.81","2155.80","4.58","ND","0.2","327.8","20.9","86.3","0","0"],
    [5505,"2010-12-22T04:00:00","54.9","6.46","12.89","1977.23","3.17","ND","0.1","94.7","20.9","86.8","0","0"],
    [5506,"2010-12-22T05:00:00","50.1","6.41","12.48","1694.77","3.79","ND","0.2","124.2","20.7","86.7","0","0"],
    [5507,"2010-12-22T06:00:00","38.9","6.40","12.70","1704.91","3.09","ND","0.1","282.5","20.5","89","0","0"],
    [5508,"2010-12-22T07:00:00","58.7","4.52","10.46","1263.70","4.10","ND","0.1","262","20.6","89.3","16.7","0"],
    [5509,"2010-12-22T08:00:00","47.4","4.29","10.58","1320.57","3.19","ND","0.1","329.5","21.6","85.3","129.2","0"],
    [5510,"2010-12-22T09:00:00","67.4","5.44","11.56","1585.55","3.67","ND","0.3","171.6","23","77.6","162.7","0"],
    [5511,"2010-12-22T10:00:00","68.7","8.28","24.10","2480.66","4.31","ND","0.4","152.6","24.2","72.1","335.1","0"],
    [5512,"2010-12-22T11:00:00","50.6","7.97","42.41","2227.94","7.12","ND","0.2","208.2","25.4","66.1","490","0"],
    [5513,"2010-12-22T12:00:00","26.7","11.33","50.62","1996.03","25.82","ND","1","57.7","26.8","60.6","538","0"],
    [5514,"2010-12-22T13:00:00","39.8","11.86","40.91","1602.01","49.91","ND","0.8","41","27.3","59","471.4","0"],
    [5515,"2010-12-22T14:00:00","29.3","12.78","30.50","1408.43","95.59","ND","0.5","321.5","27.7","56.5","206.5","0"],
    [5516,"2010-12-22T15:00:00","29.6","19.46","30.35","1306.27","112.39","ND","2.1","245.4","28.1","53.6","469.9","0"],
    [5517,"2010-12-22T16:00:00","15.4","37.20","27.38","879.72","55.32","ND","1.5","351.9","26.7","62.5","263.2","0"],
    [5518,"2010-12-22T17:00:00","15.5","12.86","16.61","794.98","25.72","ND","0.2","337.6","26.5","59.4","87.8","0"],
    [5519,"2010-12-22T18:00:00","30.9","11.82","16.77","656.28","20.39","ND","0.4","283.5","26","59","13.1","0"],
    [5520,"2010-12-22T19:00:00","16.8","8.57","19.84","850.59","12.27","ND","1.3","80.9","24.9","66.5","0","0"],
    [5521,"2010-12-22T20:00:00","55.4","7.81","27.00","1202.48","7.73","ND","1.2","127.7","23","76.8","0","0"],
    [5522,"2010-12-22T21:00:00","55.8","6.64","28.92","1570.33","7.47","ND","1.7","165","21.8","78","0","0"],
    [5523,"2010-12-22T22:00:00","29.7","4.98","38.21","1291.97","8.17","ND","0.3","165.8","21.1","82.1","0","0"],
    [5524,"2010-12-22T23:00:00","17.8","2.95","35.48","1401.96","7.48","ND","0","142.4","21.3","82.2","0","0"],
    [5525,"2010-12-23T00:00:00","27.7","2.90","29.72","1221.89","7.38","ND","0.8","4","20.9","86.3","0","0"],
    [5526,"2010-12-23T01:00:00","34.4","3.02","33.81","1242.83","3.75","ND","0.7","64.8","20","95.3","0","0.25"],
    [5527,"2010-12-23T02:00:00","19.5","3.86","32.33","1385.45","4.21","ND","0.1","125.2","20","93.9","0","0"],
    [5528,"2010-12-23T03:00:00","18.4","4.48","20.96","1025.01","4.94","ND","0.1","5.5","20.1","94.4","0","0"],
    [5529,"2010-12-23T04:00:00","13.9","4.05","18.95","867.61","4.90","ND","0","113","20.3","93","0","0"],
    [5530,"2010-12-23T05:00:00","37.2","4.28","19.85","924.58","3.57","ND","0.7","173.6","20.4","91.9","0","0"],
    [5531,"2010-12-23T06:00:00","20.7","6.19","19.99","902.34","3.19","ND","0.6","158.1","20.4","90.5","0","0"],
    [5532,"2010-12-23T07:00:00","18.8","6.94","16.71","902.34","4.41","ND","0.2","92.4","20.5","91.3","7.8","0"],
    [5533,"2010-12-23T08:00:00","22.9","5.47","16.45","868.80","5.08","ND","0.5","300.6","20.8","90.4","62.3","0"],
    [5534,"2010-12-23T09:00:00","34.2","5.17","17.99","1140.76","3.29","ND","0.7","44","22","85.6","252","0"],
    [5535,"2010-12-23T10:00:00","46.5","5.89","23.12","1428.93","4.33","ND","1.4","66.7","22.9","82.6","288","0"],
    [5536,"2010-12-23T11:00:00","33.8","8.95","35.35","1569.80","8.59","ND","0.8","251.7","23.8","75.2","392.9","0"],
    [5537,"2010-12-23T12:00:00","27.6","11.48","40.52","1506.11","17.51","ND","0.7","314.1","25.7","64.6","728.7","0"],
    [5538,"2010-12-23T13:00:00","16.9","7.67","23.50","1090.88","27.20","ND","1.7","53.5","26.6","59.8","535.6","0"],
    [5539,"2010-12-23T14:00:00","ND","7.82","20.43","967.48","49.72","ND","1.7","12.5","26.9","59.6","379.9","0"],
    [5540,"2010-12-23T15:00:00","20.8","19.07","18.48","853.15","63.31","ND","1.9","39","26.9","61.6","374.2","0"],
    [5541,"2010-12-23T16:00:00","12.5","25.55","17.91","737.86","53.89","ND","1.1","253.6","27.5","55.6","262.1","0"],
    [5542,"2010-12-23T17:00:00","6.9","28.22","23.97","658.47","42.43","ND","0.6","258.7","26.3","58.6","36.3","0"],
    [5543,"2010-12-23T18:00:00","12.8","15.95","18.54","678.86","24.58","ND","1","221.7","25.5","61.1","14","0"],
    [5544,"2010-12-23T19:00:00","29.1","7.01","22.05","883.60","11.99","ND","1.5","81.6","24","73.6","0.1","0"],
    [5545,"2010-12-23T20:00:00","36.5","5.88","24.31","1176.02","9.80","ND","0.7","155.5","22.4","77.7","0","1.02"],
    [5546,"2010-12-23T21:00:00","24.3","7.56","45.82","2066.81","6.05","ND","0.2","186.9","21","88.1","0","0.25"],
    [5547,"2010-12-23T22:00:00","18.1","4.76","35.19","1503.21","7.49","ND","0.2","291.5","21.1","88","0","0"],
    [5548,"2010-12-23T23:00:00","17.5","3.93","36.51","1673.31","6.37","ND","0.3","36","21","90","0","0"],
    [5549,"2010-12-24T00:00:00","29.1","3.77","31.92","1638.83","3.97","ND","0.4","299.7","20.9","91.5","0","0"],
    [5550,"2010-12-24T01:00:00","20.1","4.13","31.56","1638.28","3.72","ND","0.2","323.9","20.7","92.4","0","0"],
    [5551,"2010-12-24T02:00:00","11.4","3.56","27.32","1343.60","3.73","ND","0.1","248.9","20.4","92.3","0","0.25"],
    [5552,"2010-12-24T03:00:00","12.7","3.97","22.64","1387.35","3.40","ND","0","0","19.9","94.2","0","0"],
    [5553,"2010-12-24T04:00:00","10.4","3.89","16.07","1114.74","3.47","ND","0.1","267.1","20.1","93.6","0","0"],
    [5554,"2010-12-24T05:00:00","19.4","4.20","12.93","1149.31","3.69","ND","0.6","164.7","20.2","92.8","0","0"],
    [5555,"2010-12-24T06:00:00","11.8","3.51","15.01","1149.70","3.88","ND","0.3","131.5","20.4","89.5","0","0"],
    [5556,"2010-12-24T07:00:00","19.3","3.74","15.78","1285.83","4.23","ND","0.3","47.3","20.2","91.2","24.8","0"],
    [5557,"2010-12-24T08:00:00","43","3.25","17.40","1318.77","4.52","ND","0.2","244.6","20.8","88.9","138.3","0"],
    [5558,"2010-12-24T09:00:00","24.1","4.29","18.46","1355.35","4.02","ND","0.7","67.5","23.1","77.8","341.4","0"],
    [5559,"2010-12-24T10:00:00","ND","5.88","26.85","1627.77","5.28","ND","1.4","54.5","23.2","77.7","304.6","0"],
    [5560,"2010-12-24T11:00:00","ND","8.36","32.41","1263.94","17.44","ND","0.3","47","24.1","73.9","328.2","0"],
    [5561,"2010-12-24T12:00:00","ND","29.13","32.35","993.67","25.49","ND","0.8","38.4","25","70.3","477.3","0"],
    [5562,"2010-12-24T13:00:00","ND","ND","ND","ND","27.22","ND","1.6","32.8","25.5","68.6","441.6","0"],
    [5563,"2010-12-24T14:00:00","6.3","13.07","30.19","1009.83","73.00","ND","1.3","35.1","26.2","64.4","407.3","0"],
    [5564,"2010-12-24T15:00:00","28.7","9.58","18.97","897.17","83.54","ND","1.5","30.3","27.2","61","421.2","0"],
    [5565,"2010-12-24T16:00:00","19.2","26.66","23.85","1004.04","108.85","ND","1.1","73.4","28","55.4","321.3","0"],
    [5566,"2010-12-24T17:00:00","13.4","33.64","18.87","844.71","82.02","ND","2.3","250","27.8","53.9","173.7","0"],
    [5567,"2010-12-24T18:00:00","8.8","21.05","11.88","728.51","40.39","ND","1.4","250.3","26.5","56.5","28","0"],
    [5568,"2010-12-24T19:00:00","14.2","8.66","14.41","886.56","21.44","ND","0.3","277.2","25.1","62.7","0.3","0"],
    [5569,"2010-12-24T20:00:00","28.3","5.74","16.69","1088.69","11.72","ND","0.3","280.1","23.6","69.6","0","0"],
    [5570,"2010-12-24T21:00:00","37","7.77","24.44","1767.35","7.15","ND","0.3","245.8","23.1","72","0","0"],
    [5571,"2010-12-24T22:00:00","35.8","7.39","24.89","1650.54","4.04","ND","0.2","8.7","22.5","76.5","0","0"],
    [5572,"2010-12-24T23:00:00","55.3","10.11","24.69","2669.59","4.22","ND","0.3","323.6","21.6","81.1","0","0"],
    [5573,"2010-12-25T00:00:00","30.2","10.39","23.18","2718.09","4.27","ND","0","281.6","21.2","83.7","0","0"],
    [5574,"2010-12-25T01:00:00","32.5","6.91","19.13","2114.97","4.28","ND","0.1","316.5","21.4","81.9","0","0"],
    [5575,"2010-12-25T02:00:00","43.1","7.09","16.17","2161.68","4.01","ND","0.3","33.8","21.2","84.7","0","0"],
    [5576,"2010-12-25T03:00:00","46.6","5.64","16.25","2103.66","3.74","ND","0.1","216","21.2","86.1","0","0"],
    [5577,"2010-12-25T04:00:00","37.9","6.62","15.36","2318.55","4.30","ND","0.1","207.6","21.1","86.4","0","0"],
    [5578,"2010-12-25T05:00:00","34.1","7.16","13.64","2272.54","3.95","ND","0.3","169.8","21.1","86.4","0","0"],
    [5579,"2010-12-25T06:00:00","26.2","7.55","12.34","2464.74","3.76","ND","0.6","158.1","21.2","85.4","0","0"],
    [5580,"2010-12-25T07:00:00","31.4","6.83","11.84","2081.04","4.09","ND","0","191.7","21.1","87.3","18.1","0"],
    [5581,"2010-12-25T08:00:00","31.4","5.30","12.27","1616.78","4.07","ND","0.2","184","21.8","84.2","101.4","0"],
    [5582,"2010-12-25T09:00:00","17.5","4.33","11.33","1461.96","3.53","ND","0.8","161.8","22.8","79.4","278.7","0"],
    [5583,"2010-12-25T10:00:00","10.7","4.37","15.31","1148.52","4.79","ND","0.5","108.8","24.9","70","438.7","0"],
    [5584,"2010-12-25T11:00:00","11.7","3.75","13.84","904.73","11.97","ND","1","94.3","26","64.6","604.7","0"],
    [5585,"2010-12-25T12:00:00","17","4.50","13.91","850.59","29.26","ND","0.8","105.8","26.8","60","430.5","0"],
    [5586,"2010-12-25T13:00:00","10","6.67","10.84","749.14","45.64","ND","0.8","63.9","28","56.3","559.1","0"],
    [5587,"2010-12-25T14:00:00","7.1","16.57","11.79","729.00","51.97","ND","1.1","35.5","28.3","55.9","352.4","0"],
    [5588,"2010-12-25T15:00:00","12.5","16.69","12.04","729.72","78.75","ND","0.5","326.8","28.6","54.5","318.7","0"],
    [5589,"2010-12-25T16:00:00","10.1","19.62","10.73","626.10","91.20","ND","1.7","255.9","29.6","50.2","367.3","0"],
    [5590,"2010-12-25T17:00:00","5","23.36","9.45","639.81","61.61","ND","1.3","252.4","28.5","52","104.1","0"],
    [5591,"2010-12-25T18:00:00","3.1","10.07","7.53","718.62","40.54","ND","0.4","226.4","27.4","55.4","46.1","0"],
    [5592,"2010-12-25T19:00:00","25.5","4.99","9.63","635.16","29.38","ND","0.1","107.3","26.1","59.6","0.7","0"],
    [5593,"2010-12-25T20:00:00","26.8","4.00","12.59","770.39","21.23","ND","0.3","3.2","25.6","62.2","0","0"],
    [5594,"2010-12-25T21:00:00","29.7","4.02","21.34","929.81","10.81","ND","0.3","117.4","25.1","65.2","0","0"],
    [5595,"2010-12-25T22:00:00","17.3","4.25","29.09","1363.73","6.28","ND","0.3","115.8","23.8","74.8","0","0"],
    [5596,"2010-12-25T23:00:00","14.9","5.66","29.94","1722.90","3.91","ND","0.2","128.8","23","78.9","0","0"],
    [5597,"2010-12-26T00:00:00","10.5","3.51","20.97","1217.57","4.37","ND","0.2","232.5","22.9","79.2","0","0"],
    [5598,"2010-12-26T01:00:00","26","4.74","18.61","1558.42","4.83","ND","0.2","16.8","22.7","80.1","0","0"],
    [5599,"2010-12-26T02:00:00","19.4","5.49","18.45","1716.52","3.84","ND","0.5","21.1","22.2","84.9","0","0"],
    [5600,"2010-12-26T03:00:00","22.1","4.10","18.77","1600.13","3.27","ND","0.4","353.6","22.3","83.9","0","0"],
    [5601,"2010-12-26T04:00:00","13.4","3.22","16.59","1089.82","4.18","ND","0.9","25.4","21.3","92.2","0","2.54"],
    [5602,"2010-12-26T05:00:00","17.2","3.91","15.87","1142.70","3.84","ND","0.8","27.2","20.7","95.3","0","2.29"],
    [5603,"2010-12-26T06:00:00","10.6","6.02","15.44","858.10","4.18","ND","0.1","43.2","20.6","97.3","0","0.25"],
    [5604,"2010-12-26T07:00:00","6.2","6.87","13.10","869.09","4.06","ND","0.3","33.5","21","95.6","6.9","0"],
    [5605,"2010-12-26T08:00:00","5.2","7.73","11.87","892.88","3.99","ND","0.2","306.2","21.4","92.6","58.3","0"],
    [5606,"2010-12-26T09:00:00","8.4","6.52","13.25","916.73","5.02","ND","0.3","186.3","22.3","87.2","105.7","0"],
    [5607,"2010-12-26T10:00:00","5.3","6.78","14.26","1101.17","4.03","ND","1.3","30","22.9","85.7","217.1","0"],
    [5608,"2010-12-26T11:00:00","20.8","7.83","19.90","1160.28","7.19","ND","1.5","28.7","23.4","81.5","351.2","0"],
    [5609,"2010-12-26T12:00:00","11.8","12.72","27.89","1093.88","12.47","ND","2.1","45.5","24.6","74.4","500","0"],
    [5610,"2010-12-26T13:00:00","7.8","38.34","26.61","1018.22","25.77","ND","1.9","32.6","24.8","72.7","452.2","0"],
    [5611,"2010-12-26T14:00:00","4.8","23.64","10.97","675.45","29.20","ND","1.2","45.7","25.6","69.8","536.7","0"],
    [5612,"2010-12-26T15:00:00","3","16.49","6.59","631.35","30.22","ND","1.2","43.2","26.3","66.6","386.2","0"],
    [5613,"2010-12-26T16:00:00","3.2","21.58","8.34","690.36","37.64","ND","0.8","354.9","26.1","67.8","87.2","0"],
    [5614,"2010-12-26T17:00:00","16.6","19.70","6.01","666.90","46.98","ND","0.7","18","25.9","64","54.6","0"],
    [5615,"2010-12-26T18:00:00","9.6","25.52","12.37","769.88","42.10","ND","0.4","82.6","25.8","62.2","37.6","0"],
    [5616,"2010-12-26T19:00:00","30.7","25.43","12.92","608.80","28.10","ND","0.4","225","24.5","69.5","0.5","0"],
    [5617,"2010-12-26T20:00:00","29.7","13.81","18.20","960.70","13.71","ND","0.1","316.7","24","69.7","0","0"],
    [5618,"2010-12-26T21:00:00","19.5","11.36","23.60","1107.51","6.38","ND","0.1","297.8","23.4","74.6","0","0"],
    [5619,"2010-12-26T22:00:00","11.9","8.76","20.87","1298.98","4.84","ND","0.4","349.1","23.3","73.9","0","0"],
    [5620,"2010-12-26T23:00:00","31.5","11.57","19.51","2528.74","4.06","ND","0.6","182.6","23","76.1","0","0"],
    [5621,"2010-12-27T00:00:00","17.2","8.74","19.57","1775.15","4.15","ND","1.2","185.7","22.6","80.1","0","0"],
    [5622,"2010-12-27T01:00:00","21.4","8.42","18.57","2136.40","4.40","ND","1.4","176.3","22.6","80.9","0","0"],
    [5623,"2010-12-27T02:00:00","12.2","5.90","17.21","1375.02","4.19","ND","1.3","145.4","21.7","83.1","0","0"],
    [5624,"2010-12-27T03:00:00","7.1","4.15","16.47","1132.92","6.17","ND","0.8","156.5","21.1","84","0","0"],
    [5625,"2010-12-27T04:00:00","4.6","3.15","14.55","893.19","7.75","ND","0","65.6","21.1","84.2","0","0"],
    [5626,"2010-12-27T05:00:00","3.9","2.79","14.18","814.04","5.81","ND","0.5","137.4","21.1","85.2","0","0"],
    [5627,"2010-12-27T06:00:00","2.5","2.56","11.86","723.59","6.00","ND","0.4","116.3","20.9","86","0","0"],
    [5628,"2010-12-27T07:00:00","2.7","2.43","11.80","757.00","5.05","ND","0.4","2.2","20.6","89.6","23.4","0"],
    [5629,"2010-12-27T08:00:00","4.9","2.12","10.84","688.50","5.95","ND","0.5","8.5","21.2","89.2","149.1","0"],
    [5630,"2010-12-27T09:00:00","37.3","3.34","14.24","983.97","3.95","ND","0.9","72.8","23.6","78.5","387.9","0"],
    [5631,"2010-12-27T10:00:00","35.7","4.59","15.03","1037.61","4.77","ND","1.3","46.1","25","71.2","526.2","0"],
    [5632,"2010-12-27T11:00:00","33","35.69","24.67","1031.05","9.03","ND","1.4","28.5","25.7","66.7","572.2","0"],
    [5633,"2010-12-27T12:00:00","17.5","66.08","26.00","964.57","18.59","ND","1.1","62.6","26.3","64.1","376.5","0"],
    [5634,"2010-12-27T13:00:00","18.3","46.71","16.15","713.38","28.93","ND","1","31.6","27.3","60.3","466.2","0"],
    [5635,"2010-12-27T14:00:00","10.5","18.91","11.16","681.13","40.22","ND","1.8","64.3","28.2","56.6","610.4","0"],
    [5636,"2010-12-27T15:00:00","7.5","16.76","10.98","683.17","53.43","ND","1.6","32.5","28.2","55.9","226.2","0"],
    [5637,"2010-12-27T16:00:00","5.8","40.94","15.36","729.48","48.28","ND","1.6","255.5","28.7","52.2","305.3","0"],
    [5638,"2010-12-27T17:00:00","2.9","30.40","12.64","869.87","46.25","ND","2.6","268.7","28.3","52.4","209.7","0"],
    [5639,"2010-12-27T18:00:00","3.6","15.10","12.99","729.72","28.23","ND","0.6","289.6","27.4","54.5","39.8","0"],
    [5640,"2010-12-27T19:00:00","13.4","7.50","10.12","704.45","20.02","ND","0.4","264.5","26.4","57.7","0.3","0"],
    [5641,"2010-12-27T20:00:00","7.6","6.69","17.77","920.79","12.22","ND","1.2","109.4","25.7","63","0","0"],
    [5642,"2010-12-27T21:00:00","37.2","6.49","21.77","1056.43","7.63","ND","1.6","122","24","72.3","0","0"],
    [5643,"2010-12-27T22:00:00","24","6.53","21.23","1107.51","5.71","ND","0.3","181.2","23.2","73.2","0","0"],
    [5644,"2010-12-27T23:00:00","37.6","5.99","23.36","1070.37","10.57","ND","0.8","178.7","22.7","77.7","0","0"],
    [5645,"2010-12-28T00:00:00","19.3","4.99","23.27","1045.82","8.80","ND","0.2","290.1","21.8","82.6","0","0"],
    [5646,"2010-12-28T01:00:00","16.3","4.69","27.50","1155.97","5.01","ND","0.1","289.3","21.4","81.9","0","0"],
    [5647,"2010-12-28T02:00:00","17.9","4.76","26.91","1573.16","4.07","ND","0.5","23.6","21.3","83.6","0","0"],
    [5648,"2010-12-28T03:00:00","23.4","4.22","20.46","1233.21","3.62","ND","0.2","38.3","21","88.7","0","0"],
    [5649,"2010-12-28T04:00:00","23.8","6.80","19.29","1073.72","3.99","ND","0.5","336.5","20.9","88.2","0","0"],
    [5650,"2010-12-28T05:00:00","30.3","7.65","18.22","881.28","4.43","ND","0.1","82.1","20.9","88.3","0","0"],
    [5651,"2010-12-28T06:00:00","24.1","8.81","18.17","926.47","4.14","ND","0.2","248.6","21","86.5","0","0"],
    [5652,"2010-12-28T07:00:00","45.2","10.91","17.62","915.49","3.68","ND","0.2","340.7","20.9","87.6","15","0"],
    [5653,"2010-12-28T08:00:00","61.5","11.24","15.12","892.58","3.66","ND","0.1","347.1","21.5","86.9","90.4","0"],
    [5654,"2010-12-28T09:00:00","68.4","11.50","17.24","1324.62","4.13","ND","0.8","22.9","22.5","81.7","179.3","0"],
    [5655,"2010-12-28T10:00:00","42","17.77","27.42","1556.32","4.44","ND","1.2","43","23.5","80.3","357.9","0"],
    [5656,"2010-12-28T11:00:00","37.1","45.26","30.96","1231.03","5.76","ND","0.5","78.8","25.6","67.5","605.7","0"],
    [5657,"2010-12-28T12:00:00","27","102.03","29.18","1021.64","13.06","ND","0.9","115.3","27.2","60.8","642.3","0"],
    [5658,"2010-12-28T13:00:00","16.5","94.60","27.76","888.63","21.41","ND","0.9","55.7","28.2","55.8","640.5","0"],
    [5659,"2010-12-28T14:00:00","8.9","50.85","26.99","949.49","47.03","ND","1","80.4","29.1","53.7","581.9","0"],
    [5660,"2010-12-28T15:00:00","8.9","28.77","15.39","789.73","66.54","ND","1.7","14.2","28.5","56.1","328.6","0"],
    [5661,"2010-12-28T16:00:00","5.1","29.80","14.52","683.85","71.14","ND","2.1","31.3","28.7","54.6","211.1","0"],
    [5662,"2010-12-28T17:00:00","13","44.70","19.18","788.69","65.86","ND","0.7","5.4","29","52.2","157","0"],
    [5663,"2010-12-28T18:00:00","7.5","33.33","16.07","661.76","48.84","ND","0.9","299.5","28","55.7","29.6","0"],
    [5664,"2010-12-28T19:00:00","25.1","11.59","11.24","798.43","26.44","ND","0.4","208","26.8","58.3","0.3","0"],
    [5665,"2010-12-28T20:00:00","30.8","9.52","18.61","875.92","14.87","ND","0.5","198.9","25.8","61.4","0","0"],
    [5666,"2010-12-28T21:00:00","39.9","9.75","27.29","1229.09","5.39","ND","0.2","2.9","24.8","66.9","0","0"],
    [5667,"2010-12-28T22:00:00","31.2","8.51","26.97","1350.91","6.49","ND","0.9","355.2","23.9","74.7","0","0"],
    [5668,"2010-12-28T23:00:00","38.9","9.22","29.12","1906.10","4.32","ND","0.3","320","23.2","77.4","0","0"],
    [5669,"2010-12-29T00:00:00","33.6","9.30","29.93","1411.97","6.03","ND","0.5","31","22.6","79.4","0","0"],
    [5670,"2010-12-29T01:00:00","26.8","9.28","26.40","1159.11","6.52","ND","0.2","325.5","22.2","80.5","0","0"],
    [5671,"2010-12-29T02:00:00","29.8","9.11","23.68","1066.75","6.30","ND","0.1","272.9","22.2","80.8","0","0"],
    [5672,"2010-12-29T03:00:00","17.1","9.53","23.90","1078.10","4.92","ND","0.2","326.9","21.9","82","0","0"],
    [5673,"2010-12-29T04:00:00","11.6","8.82","20.84","1042.99","4.08","ND","0.4","314.1","21.4","83.7","0","0"],
    [5674,"2010-12-29T05:00:00","20.7","12.68","20.43","1109.13","3.76","ND","0.2","295.4","21.2","84.9","0","0"],
    [5675,"2010-12-29T06:00:00","12","19.19","20.51","961.35","3.66","ND","0.1","276.8","20.8","86.1","0","0"],
    [5676,"2010-12-29T07:00:00","24.4","13.72","17.51","1072.99","3.95","ND","0.2","240.5","21.2","85","18.8","0"],
    [5677,"2010-12-29T08:00:00","33.1","11.05","14.67","1108.38","3.99","ND","0.2","4.2","21.8","85.1","99.5","0"],
    [5678,"2010-12-29T09:00:00","47.8","14.23","17.20","1201.30","3.67","ND","0.5","57.7","23.2","78","181.8","0"],
    [5679,"2010-12-29T10:00:00","48.5","17.14","28.87","1514.45","5.07","ND","0","339.3","24.3","72.7","311.9","0"],
    [5680,"2010-12-29T11:00:00","33.3","47.60","35.48","1360.07","6.30","ND","0.8","163.2","26.2","63.2","607.4","0"],
    [5681,"2010-12-29T12:00:00","19","93.13","41.13","1253.74","10.23","ND","0.8","99.5","27.8","56.6","666.5","0"],
    [5682,"2010-12-29T13:00:00","27.6","60.44","32.72","1052.30","28.13","ND","0.8","40.8","28.4","54.6","516.8","0"],
    [5683,"2010-12-29T14:00:00","16.2","36.55","25.83","1042.81","65.42","ND","1","288.6","29.7","51.5","668.9","0"],
    [5684,"2010-12-29T15:00:00","35.1","25.71","20.80","791.30","91.02","ND","2","25.4","30","50.5","538","0"],
    [5685,"2010-12-29T16:00:00","19.1","23.47","14.52","931.86","82.23","ND","2.2","290.2","30.4","47.8","470.1","0"],
    [5686,"2010-12-29T17:00:00","17","26.22","14.80","758.14","50.07","ND","3.2","280.3","29.2","50.4","277.6","0"],
    [5687,"2010-12-29T18:00:00","10.4","9.09","9.45","755.14","29.21","ND","3.2","283.2","27.5","53.8","24.5","0"],
    [5688,"2010-12-29T19:00:00","14.1","5.42","9.34","785.55","24.72","ND","0.6","90.5","27.3","56.2","0.1","0"],
    [5689,"2010-12-29T20:00:00","12.4","4.04","9.30","623.40","22.07","ND","0.3","299.9","26.3","58.3","0","0"],
    [5690,"2010-12-29T21:00:00","22.9","7.24","25.44","1093.07","8.08","ND","1","233.4","25.5","62.9","0","0"],
    [5691,"2010-12-29T22:00:00","12.5","7.06","19.56","1021.30","10.69","ND","1.9","248.8","24.9","64","0","0"],
    [5692,"2010-12-29T23:00:00","10.6","6.47","21.82","1225.39","8.16","ND","0.9","206.8","24.4","65.4","0","0"],
    [5693,"2010-12-30T00:00:00","7.2","5.49","15.51","971.81","11.14","ND","0.7","171.7","24","71","0","0"],
    [5694,"2010-12-30T01:00:00","8.9","5.61","18.06","1073.26","5.71","ND","0.8","353.6","23.2","75.3","0","0"],
    [5695,"2010-12-30T02:00:00","5","5.18","19.66","1070.37","4.95","ND","0.5","4.9","22.7","77.4","0","0"],
    [5696,"2010-12-30T03:00:00","7.7","17.03","21.08","954.88","4.60","ND","0.5","49.9","21.9","83.7","0","0"],
    [5697,"2010-12-30T04:00:00","4.9","26.19","20.39","986.31","3.96","ND","0.3","312.6","21.8","83.1","0","0"],
    [5698,"2010-12-30T05:00:00","7.3","15.32","14.89","702.65","4.95","ND","0.5","87.3","21.6","85.5","0","0"],
    [5699,"2010-12-30T06:00:00","19.5","12.20","14.99","883.38","4.17","ND","0.5","356.6","21.3","87.1","0","0"],
    [5700,"2010-12-30T07:00:00","20.9","12.55","14.40","814.60","3.97","ND","0.2","51.1","21.4","85.3","22.3","0"],
    [5701,"2010-12-30T08:00:00","12","10.66","15.33","780.92","3.82","ND","0.6","46.8","22.1","84.7","137.2","0"],
    [5702,"2010-12-30T09:00:00","28.6","14.82","15.78","952.95","3.85","ND","0.5","85.7","24.5","72.1","364.7","0"],
    [5703,"2010-12-30T10:00:00","16","15.93","18.52","1052.19","5.58","ND","1.1","97.1","25.5","67.9","439.6","0"],
    [5704,"2010-12-30T11:00:00","34.5","23.54","27.51","1250.81","15.49","ND","1.2","79.9","26.5","65.1","408.4","0"],
    [5705,"2010-12-30T12:00:00","35.6","26.91","29.87","1301.05","30.31","ND","0.7","98.1","27.5","60.3","432.3","0"],
    [5706,"2010-12-30T13:00:00","25.7","ND","ND","ND","45.22","ND","0.8","44.4","28","58.5","416.3","0"],
    [5707,"2010-12-30T14:00:00","22.8","16.99","ND","ND","ND","ND","0.2","259.2","29.1","54.5","405.4","0"],
    [5708,"2010-12-30T15:00:00","28","11.74","14.91","2113.69","75.16","ND","0.6","184.6","29.7","51.2","488.4","0"],
    [5709,"2010-12-30T16:00:00","16.6","11.18","17.39","2280.80","79.53","ND","2.8","283.7","29.5","49.3","402.7","0"],
    [5710,"2010-12-30T17:00:00","9.3","8.99","14.49","2221.15","67.73","ND","2","280.6","29.4","47.7","259.9","0"],
    [5711,"2010-12-30T18:00:00","5.8","5.90","9.25","1906.54","32.10","ND","1.1","275","27.9","50.7","45.9","0"],
    [5712,"2010-12-30T19:00:00","6.4","4.58","8.58","2001.19","23.48","ND","0.5","307.1","27","54.8","0.6","0"],
    [5713,"2010-12-30T20:00:00","4.6","4.12","12.59","2087.47","18.59","ND","0.2","350.8","26.3","58.5","0","0"],
    [5714,"2010-12-30T21:00:00","9.6","4.45","16.42","2358.74","10.49","ND","1","324.4","25.5","61.4","0","0"],
    [5715,"2010-12-30T22:00:00","11.1","4.93","21.00","2467.19","6.29","ND","0.4","139.4","24.5","68.3","0","0"],
    [5716,"2010-12-30T23:00:00","47.6","4.66","16.90","2378.87","8.80","ND","0.1","56","23.7","71.5","0","0"],
    [5717,"2010-12-31T00:00:00","49.8","7.46","20.06","2908.55","4.88","ND","0.2","188.5","23.2","74.7","0","0"],
    [5718,"2010-12-31T01:00:00","44.1","8.02","19.39","3006.14","3.92","ND","0.4","174","23.1","76.9","0","0"],
    [5719,"2010-12-31T02:00:00","41.7","8.70","16.08","3141.72","4.19","ND","0.5","25.6","22.7","79.2","0","0"],
    [5720,"2010-12-31T03:00:00","24.8","6.73","15.81","2830.55","4.52","ND","0.3","38.8","22.3","82.1","0","0"],
    [5721,"2010-12-31T04:00:00","17.3","6.54","16.14","2633.73","4.43","ND","0.3","353.4","22.1","83.1","0","0"],
    [5722,"2010-12-31T05:00:00","28","6.59","13.58","2439.09","4.12","ND","0.3","9.1","22","83.7","0","0"],
    [5723,"2010-12-31T06:00:00","18.4","6.43","13.07","2438.26","3.52","ND","0.4","15.1","21.8","83.2","0","0"],
    [5724,"2010-12-31T07:00:00","19.5","6.84","12.50","2470.61","3.77","ND","0.3","353.6","21.9","83.2","10.6","0"],
    [5725,"2010-12-31T08:00:00","16.6","9.44","13.53","2233.37","3.42","ND","0.1","324.7","22.7","80.1","106.4","0"],
    [5726,"2010-12-31T09:00:00","32.3","10.24","14.45","2682.77","3.80","ND","0.8","50.3","23.4","77.4","197.6","0"],
    [5727,"2010-12-31T10:00:00","19.5","10.71","17.80","2700.51","5.31","ND","1.3","109.5","24.8","70.3","453.2","0"],
    [5728,"2010-12-31T11:00:00","9.8","13.67","25.15","2587.34","10.02","ND","1","117.9","26.6","61.7","575.2","0"],
    [5729,"2010-12-31T12:00:00","5.7","18.68","18.48","2292.00","17.87","ND","0.4","103.4","27.4","57.8","493.1","0"],
    [5730,"2010-12-31T13:00:00","13.3","18.36","15.25","2194.18","34.46","ND","1.1","251.2","27.4","57.4","295.5","0"],
    [5731,"2010-12-31T14:00:00","8.3","18.86","13.63","2147.99","45.52","ND","0.3","171.2","29.2","50.6","623.1","0"],
    [5732,"2010-12-31T15:00:00","5","14.61","16.58","2160.86","54.25","ND","1.9","314.6","29.8","46.4","630.2","0"],
    [5733,"2010-12-31T16:00:00","2.5","10.81","9.66","2060.39","51.35","ND","2","308.2","30","44.8","468.6","0"],
    [5734,"2010-12-31T17:00:00","1.2","6.34","5.21","1828.78","32.66","ND","1.7","299.9","29.7","44.7","269.9","0"],
    [5735,"2010-12-31T18:00:00","1.8","4.36","4.94","1978.25","28.94","ND","0.3","329.8","28.3","48.2","70.3","0"],
    [5736,"2010-12-31T19:00:00","17.1","4.03","6.36","2038.60","25.36","ND","0.1","76.9","26.8","53.1","0.8","0"],
    [5737,"2010-12-31T20:00:00","9.2","2.93","9.44","2201.33","20.04","ND","0.2","334.6","26","56.7","0","0"],
    [5738,"2010-12-31T21:00:00","5.2","3.92","15.12","2321.89","10.97","ND","0.3","50.4","25.4","60.7","0","0"],
    [5739,"2010-12-31T22:00:00","20.9","4.15","13.75","2282.82","8.72","ND","0.9","151.3","24.8","66.6","0","0"],
    [5740,"2010-12-31T23:00:00","32.8","7.65","21.48","3262.79","3.84","ND","0.5","71.8","23.5","74.2","0","0"],
    [5741,"2011-01-01T00:00:00","17.6","6.99","17.32","3043.38","3.92","ND","0.3","168.7","22.8","76.5","0","0"],
    [5742,"2011-01-01T01:00:00","27.8","5.61","13.81","2905.20","5.07","ND","0.1","257.3","22.2","79.3","0","0"],
    [5743,"2011-01-01T02:00:00","45","6.53","12.77","2988.88","3.96","ND","0.1","316.5","21.5","82.1","0","0"],
    [5744,"2011-01-01T03:00:00","60.1","6.34","12.62","2965.23","4.34","ND","0.1","98.9","21.4","81.8","0","0"],
    [5745,"2011-01-01T04:00:00","34.8","6.61","10.10","3015.66","3.64","ND","0","299.7","20.8","84.9","0","0"],
    [5746,"2011-01-01T05:00:00","67.1","6.15","11.03","3061.88","3.95","ND","0.1","343.1","20.9","84.3","0","0"],
    [5747,"2011-01-01T06:00:00","56.9","5.99","10.44","2778.47","3.75","ND","0.1","300.5","20.8","85.3","0","0"],
    [5748,"2011-01-01T07:00:00","49.8","5.47","9.57","2831.09","3.83","ND","0.1","321.6","20.4","85.5","22.1","0"],
    [5749,"2011-01-01T08:00:00","42.5","5.39","16.45","2697.27","6.23","ND","0","16.8","21.8","80.8","113.6","0"],
    [5750,"2011-01-01T09:00:00","41.1","12.39","28.45","2618.10","12.42","ND","0.3","44.5","23.1","75.7","219.3","0"],
    [5751,"2011-01-01T10:00:00","33","37.47","28.44","2463.06","31.83","ND","0.8","84.2","25","66.6","470.5","0"],
    [5752,"2011-01-01T11:00:00","21.7","18.43","11.40","2072.47","57.85","ND","1","48.2","26.5","61.3","672.2","0"],
    [5753,"2011-01-01T12:00:00","11.6","13.76","7.23","1927.93","60.04","ND","0.7","38.4","27.3","57.8","624.6","0"],
    [5754,"2011-01-01T13:00:00","7.7","18.25","7.31","1980.68","69.96","ND","1.3","14.5","28.3","54.1","629","0"],
    [5755,"2011-01-01T14:00:00","3.8","26.54","9.10","1976.94","58.74","ND","1.5","310.9","29.5","50.4","700.6","0"],
    [5756,"2011-01-01T15:00:00","1.9","9.24","2.47","1862.50","27.92","ND","1.5","349.2","29.8","47.3","433.3","0"],
    [5757,"2011-01-01T16:00:00","2.6","4.50","1.99","1828.18","23.56","ND","2.9","288.9","29.9","46.6","470.3","0"],
    [5758,"2011-01-01T17:00:00","1.9","3.94","2.79","1908.43","21.27","ND","2.1","281","29.7","46.5","288.1","0"],
    [5759,"2011-01-01T18:00:00","1.9","3.52","4.04","1992.27","19.68","ND","0.9","304.3","28.3","49.7","85.1","0"],
    [5760,"2011-01-01T19:00:00","1","4.09","9.75","2214.33","12.76","ND","0.1","237","27","52.6","0.9","0"],
    [5761,"2011-01-01T20:00:00","1.1","4.19","13.18","2177.55","7.10","ND","0.8","114.8","26.7","54.5","0","0"],
    [5762,"2011-01-01T21:00:00","0.5","5.25","16.35","2458.18","4.51","ND","0.7","76.1","25.8","60","0","0"],
    [5763,"2011-01-01T22:00:00","2.5","4.83","14.70","2467.19","4.21","ND","0.8","134.5","25.5","61.6","0","0"],
    [5764,"2011-01-01T23:00:00","9.8","5.00","13.68","2610.23","3.80","ND","0.2","85.8","24.8","67","0","0"],
    [5765,"2011-01-02T00:00:00","6.4","5.26","12.61","2560.99","4.72","ND","0.5","133.4","24.4","68.9","0","0"],
    [5766,"2011-01-02T01:00:00","4.9","4.51","10.30","2266.75","5.01","ND","1","128.2","23.3","74.7","0","0"],
    [5767,"2011-01-02T02:00:00","3.1","3.69","8.20","2103.02","6.13","ND","1.1","133.8","22.7","79.4","0","0"],
    [5768,"2011-01-02T03:00:00","3.3","3.66","6.23","1996.65","5.56","ND","0.9","146.2","22.1","84.2","0","0"],
    [5769,"2011-01-02T04:00:00","3.7","3.68","5.70","2084.57","4.89","ND","0.7","162.5","21.7","86.9","0","0"],
    [5770,"2011-01-02T05:00:00","13.2","3.13","6.73","2138.31","3.99","ND","0.1","44.4","21.3","88.4","0","0"],
    [5771,"2011-01-02T06:00:00","7.8","3.08","6.32","2126.28","3.29","ND","0.1","248.6","21.2","88","0","0"],
    [5772,"2011-01-02T07:00:00","5.7","3.21","6.19","2069.02","3.31","ND","0.3","272.8","21.1","88.1","13.8","0"],
    [5773,"2011-01-02T08:00:00","11","3.18","10.42","2241.70","7.23","ND","0.4","90.5","23","80.5","211.1","0"],
    [5774,"2011-01-02T09:00:00","7.2","4.39","12.01","2264.50","19.22","ND","0.7","104.7","24.5","73.9","418.3","0"],
    [5775,"2011-01-02T10:00:00","9.6","5.40","9.75","2178.85","28.82","ND","0.8","91.4","25.3","68.6","492.4","0"],
    [5776,"2011-01-02T11:00:00","7.1","8.39","9.08","2127.91","39.98","ND","1.2","46.5","26.2","65.6","526.6","0"],
    [5777,"2011-01-02T12:00:00","4.5","12.25","9.20","1988.96","45.46","ND","1","88","27.8","58.8","661.5","0"],
    [5778,"2011-01-02T13:00:00","2.8","22.42","8.62","2099.29","62.58","ND","0.6","34","28.7","54.9","569.1","0"],
    [5779,"2011-01-02T14:00:00","2.6","17.06","6.34","1858.81","32.06","ND","0.5","281.5","29.2","49.8","369.7","0"],
    [5780,"2011-01-02T15:00:00","2.6","6.51","2.97","1960.79","25.69","ND","1.5","308","30.6","44.6","620.9","0"],
    [5781,"2011-01-02T16:00:00","3.8","3.67","2.66","1827.57","20.68","ND","4.1","286.2","29.8","46.6","561.7","0"],
    [5782,"2011-01-02T17:00:00","1.9","2.76","2.41","1905.28","21.79","ND","3","285.1","29.2","46.1","319.4","0"],
    [5783,"2011-01-02T18:00:00","2.3","2.74","4.02","1937.54","16.48","ND","3","279.9","27","51.8","30.6","0"],
    [5784,"2011-01-02T19:00:00","1.2","1.82","4.05","2013.56","17.84","ND","3.1","276.5","26.3","53.9","1.3","0"],
    [5785,"2011-01-02T20:00:00","1.7","2.26","10.58","2209.90","8.68","ND","1.1","130.8","26.4","54.6","0","0"],
    [5786,"2011-01-02T21:00:00","10.3","3.86","15.39","2305.76","6.94","ND","2.7","138.5","25.4","58.4","0","0"],
    [5787,"2011-01-02T22:00:00","6","7.12","17.37","2207.31","5.94","ND","1.2","117.6","24.5","61","0","0"],
    [5788,"2011-01-02T23:00:00","3.8","4.20","15.40","2213.53","7.19","ND","0.7","123.6","23.8","62.9","0","0"],
    [5789,"2011-01-03T00:00:00","2.7","3.80","17.00","2300.15","4.39","ND","0.3","157","23.2","66.8","0","0"],
    [5790,"2011-01-03T01:00:00","14.4","3.27","15.17","2403.42","3.03","ND","0.2","248.8","21.9","73.3","0","0"],
    [5791,"2011-01-03T02:00:00","8.4","3.08","12.54","2228.83","3.64","ND","0.2","323.1","21.3","76.6","0","0"],
    [5792,"2011-01-03T03:00:00","8.4","3.00","9.50","2111.37","4.41","ND","0.2","311.3","20.7","80.7","0","0"],
    [5793,"2011-01-03T04:00:00","5.6","2.87","8.26","2094.48","4.89","ND","0.1","216","21.5","78.4","0","0"],
    [5794,"2011-01-03T05:00:00","3.5","3.03","8.47","2172.99","4.65","ND","0.1","174.2","21.4","79.4","0","0"],
    [5795,"2011-01-03T06:00:00","2.7","3.43","9.48","2166.35","3.50","ND","0.4","24.5","20.5","84.1","0","0"],
    [5796,"2011-01-03T07:00:00","2.6","5.06","12.42","2537.83","3.75","ND","0.3","9.1","20.4","85.1","27","0"],
    [5797,"2011-01-03T08:00:00","3","5.66","18.33","2427.74","5.97","ND","0.3","100.4","22.1","77.7","192.8","0"],
    [5798,"2011-01-03T09:00:00","15.7","8.82","23.85","2453.96","16.34","ND","0.6","75.9","23.9","69.1","385.7","0"],
    [5799,"2011-01-03T10:00:00","9.8","12.17","14.49","2201.04","26.04","ND","1.1","80.1","25.2","64.1","551.4","0"],
    [5800,"2011-01-03T11:00:00","6.9","11.59","9.59","2079.12","39.59","ND","1.3","36.4","25.8","60.5","504.2","0"],
    [5801,"2011-01-03T12:00:00","4.4","11.02","11.05","2114.05","49.93","ND","0.7","95.4","27.5","54.9","615.6","0"],
    [5802,"2011-01-03T13:00:00","4.6","14.68","10.06","2178.31","67.82","ND","0.7","57.6","28.4","52.5","618","0"],
    [5803,"2011-01-03T14:00:00","3.4","25.57","12.45","2087.70","59.84","ND","0.8","17.2","28.7","51","324.3","0"],
    [5804,"2011-01-03T15:00:00","6.8","13.92","8.88","2187.71","30.48","ND","1.7","287.1","29.7","46.3","536.5","0"],
    [5805,"2011-01-03T16:00:00","3.4","4.25","5.83","2034.41","22.78","ND","3.1","275.3","29.4","45.9","451.1","0"],
    [5806,"2011-01-03T17:00:00","1.7","2.99","5.96","2176.15","20.78","ND","3.8","279.8","28.1","48.1","299.6","0"],
    [5807,"2011-01-03T18:00:00","4.7","3.62","12.56","2357.43","14.09","ND","0.8","254.9","27.6","47.9","59.9","0"],
    [5808,"2011-01-03T19:00:00","19.7","2.17","16.23","2356.78","13.64","ND","4.6","187.8","24.6","65.3","0.6","0"],
    [5809,"2011-01-03T20:00:00","12","1.80","14.29","2331.95","10.31","ND","3.3","174.1","22.9","74.2","0","0"],
    [5810,"2011-01-03T21:00:00","8.2","2.68","13.58","2215.19","9.32","ND","1.9","126.3","22.5","77.7","0","0"],
    [5811,"2011-01-03T22:00:00","5.8","2.90","11.32","2216.00","11.14","ND","1.8","88.9","21.1","87.5","0","1.78"],
    [5812,"2011-01-03T23:00:00","5.6","3.14","9.92","2060.58","11.03","ND","1.4","22.8","19.9","95.7","0","3.05"],
    [5813,"2011-01-04T00:00:00","4.8","3.52","9.92","1898.39","13.74","ND","1.2","12.8","19.2","96.3","0","3.56"],
    [5814,"2011-01-04T01:00:00","3.6","4.21","9.09","1988.26","11.28","ND","0.5","326","19.2","96.4","0","3.56"],
    [5815,"2011-01-04T02:00:00","3.6","5.20","12.33","2058.47","8.77","ND","0.6","311.1","19.6","93.2","0","0.25"],
    [5816,"2011-01-04T03:00:00","2.9","9.56","17.02","1982.44","3.63","ND","0.2","216.5","20","93.1","0","0"],
    [5817,"2011-01-04T04:00:00","3.1","10.14","15.04","2036.67","3.47","ND","0.3","269.6","19.7","93.3","0","2.03"],
    [5818,"2011-01-04T05:00:00","3.6","13.01","14.51","2049.32","3.41","ND","0.1","322.9","19.9","92.1","0","1.02"],
    [5819,"2011-01-04T06:00:00","3.6","8.16","14.58","2115.44","3.70","ND","0.5","273.3","19.7","94","0","0.76"],
    [5820,"2011-01-04T07:00:00","2.6","7.49","13.97","2182.95","4.86","ND","0.2","7.1","19.7","92.3","11.2","0"],
    [5821,"2011-01-04T08:00:00","2.8","7.20","16.76","2469.31","5.14","ND","0.3","49.5","20.3","90.5","89.2","0"],
    [5822,"2011-01-04T09:00:00","2.8","9.07","19.82","2617.94","9.69","ND","0.2","29.5","21.8","83.5","308","0"],
    [5823,"2011-01-04T10:00:00","1.9","14.51","20.41","2398.58","16.24","ND","0.9","318.5","22.7","78.8","294.2","0"],
    [5824,"2011-01-04T11:00:00","10.6","13.70","18.78","2355.20","32.80","ND","0.4","63.9","24.4","70.2","582.6","0"],
    [5825,"2011-01-04T12:00:00","7.7","9.93","16.09","2354.80","53.13","ND","0.7","64.4","25.8","63.8","397.1","0"],
    [5826,"2011-01-04T13:00:00","5.4","9.19","19.86","2449.95","36.83","ND","1.5","288.6","24.8","68.5","134.8","0"],
    [5827,"2011-01-04T14:00:00","6.6","17.70","14.20","2279.72","38.70","ND","0.2","337.4","26.5","61.2","492.3","0"],
    [5828,"2011-01-04T15:00:00","5.6","13.26","9.69","2128.62","28.68","ND","1.6","23.2","26.3","58","261.2","0"],
    [5829,"2011-01-04T16:00:00","4.8","8.07","8.28","2155.23","28.98","ND","1.4","358.4","26.8","55.7","317.3","0"],
    [5830,"2011-01-04T17:00:00","5","5.87","11.85","2234.41","19.99","ND","0.7","346.4","26.6","55.9","154.4","0"],
    [5831,"2011-01-04T18:00:00","19.5","4.86","19.29","2435.23","10.32","ND","2.3","156.3","24.4","67.6","11.4","0"],
    [5832,"2011-01-04T19:00:00","22.3","5.39","32.73","2993.74","6.12","ND","1.7","154.2","23.1","76.7","0.2","0"],
    [5833,"2011-01-04T20:00:00","23.6","6.87","34.36","3354.59","3.92","ND","0.7","46.3","22.8","78.9","0","0"],
    [5834,"2011-01-04T21:00:00","23.8","6.34","28.73","3077.51","4.44","ND","0.4","130.2","22.4","78","0","0"],
    [5835,"2011-01-04T22:00:00","22.6","6.30","26.09","3117.65","4.33","ND","1.5","171.2","21.9","82.5","0","0"],
    [5836,"2011-01-04T23:00:00","15.1","5.34","23.21","2764.33","4.08","ND","0.2","185.7","21.7","83.7","0","0"],
    [5837,"2011-01-05T00:00:00","9.8","5.18","22.58","2898.31","3.18","ND","0.4","322.1","21.5","85.8","0","0"],
    [5838,"2011-01-05T01:00:00","21.8","5.25","21.51","2736.09","3.20","ND","0.6","47.1","21.1","88.8","0","0"],
    [5839,"2011-01-05T02:00:00","31.6","6.04","18.98","2496.11","3.66","ND","0.3","12.4","20.8","91.6","0","0"],
    [5840,"2011-01-05T03:00:00","16.4","6.15","17.14","2315.40","3.70","ND","0.4","9.7","20.8","92.4","0","0"],
    [5841,"2011-01-05T04:00:00","9.9","7.23","13.39","2290.47","4.89","ND","0.9","92.5","20.5","93.6","0","5.08"],
    [5842,"2011-01-05T05:00:00","11.5","6.03","10.48","2117.61","7.76","ND","0.4","114.7","20","96","0","0.51"],
    [5843,"2011-01-05T06:00:00","8.2","5.34","11.82","2299.40","6.64","ND","0.2","180.8","20.2","94.4","0","0"],
    [5844,"2011-01-05T07:00:00","8","4.64","16.15","2366.22","4.15","ND","0.3","352.8","20.1","95.5","5.7","26.42"],
    [5845,"2011-01-05T08:00:00","7.9","5.33","16.68","2677.14","4.24","ND","0.8","174.4","19.6","99.3","32","3.56"],
    [5846,"2011-01-05T09:00:00","18.7","6.50","17.75","2795.34","5.14","ND","0.6","172.6","20.2","95.4","164.2","0.76"],
    [5847,"2011-01-05T10:00:00","10.4","6.34","29.28","2954.59","14.25","ND","0.8","139","22.6","82.1","447.7","0"],
    [5848,"2011-01-05T11:00:00","6.8","7.90","28.55","2686.76","37.33","ND","0.7","139.5","24.4","71.7","532.8","0"],
    [5849,"2011-01-05T12:00:00","5.9","10.67","24.81","2573.05","52.34","ND","0.7","103.2","25.8","64.2","662.8","0"],
    [5850,"2011-01-05T13:00:00","4","11.70","23.74","2593.19","79.03","ND","0.2","62.5","26.8","59.9","429.8","0"],
    [5851,"2011-01-05T14:00:00","2","8.06","22.14","2552.18","87.55","ND","0.8","157.8","27.4","56.8","467.4","0"],
    [5852,"2011-01-05T15:00:00","5.2","5.38","17.32","2478.76","58.81","ND","1.6","270.9","26.9","58.6","220.6","0"],
    [5853,"2011-01-05T16:00:00","2.6","4.33","16.70","2476.79","14.64","ND","0.5","354.9","23.9","72.5","45.9","6.6"],
    [5854,"2011-01-05T17:00:00","15.8","10.95","32.59","2780.37","6.26","ND","0.2","61.7","22.2","87.3","36.1","2.03"],
    [5855,"2011-01-05T18:00:00","9.4","9.63","34.94","3519.21","7.86","ND","0.2","98.2","22.3","87.7","23.1","0"],
    [5856,"2011-01-05T19:00:00","18.7","12.51","33.99","4970.61","4.22","ND","0.4","270.5","22.2","86","0.9","0"],
    [5857,"2011-01-05T20:00:00","11.1","10.52","23.29","4009.18","2.79","ND","0.4","309.9","21.6","84.1","0","0"],
    [5858,"2011-01-05T21:00:00","16.7","10.72","21.10","4326.29","4.17","ND","0.2","272.5","21.6","85.7","0","0"],
    [5859,"2011-01-05T22:00:00","14.5","9.06","19.57","3904.60","3.22","ND","0.7","258.4","21.4","83.8","0","0"],
    [5860,"2011-01-05T23:00:00","34.2","7.20","16.49","3519.80","3.76","ND","0.1","23.7","21.4","84.8","0","0"],
    [5861,"2011-01-06T00:00:00","23.3","8.17","17.55","3434.73","3.50","ND","0.3","346.4","20.9","87.9","0","0"],
    [5862,"2011-01-06T01:00:00","35.4","6.19","15.42","2990.02","3.56","ND","0.4","359.5","20.5","88.9","0","0"],
    [5863,"2011-01-06T02:00:00","23.2","5.56","13.65","2714.59","3.47","ND","0.3","309.6","20","91.7","0","0"],
    [5864,"2011-01-06T03:00:00","26.7","3.83","10.97","2565.53","3.53","ND","0.1","260.3","19.7","92.6","0","0"],
    [5865,"2011-01-06T04:00:00","14.9","3.99","9.21","2609.65","3.51","ND","0","279.4","19.6","93.2","0","0"],
    [5866,"2011-01-06T05:00:00","18.1","3.83","9.08","2552.53","3.33","ND","0","256.3","19.5","93.4","0","0"],
    [5867,"2011-01-06T06:00:00","9.8","4.53","9.71","2464.26","3.41","ND","0","217.5","19.7","92.4","0","0"],
    [5868,"2011-01-06T07:00:00","10.3","5.49","15.41","2681.71","3.26","ND","0.1","263.8","20.1","90.9","13.4","0"],
    [5869,"2011-01-06T08:00:00","19.4","6.54","20.63","3041.35","3.80","ND","0.2","158.6","21.1","85.7","144","0"],
    [5870,"2011-01-06T09:00:00","33.1","7.81","27.53","2879.91","9.94","ND","1.4","136.8","23.1","77","351.9","0"],
    [5871,"2011-01-06T10:00:00","18.7","7.55","23.03","2570.70","25.83","ND","1.2","122.5","24.2","71.2","503.8","0"],
    [5872,"2011-01-06T11:00:00","11.2","7.09","18.16","2479.49","49.63","ND","0.9","114.3","25.6","64.8","554.8","0"],
    [5873,"2011-01-06T12:00:00","7.3","7.92","17.80","2473.80","75.29","ND","1.2","49.5","26.3","62.7","605.1","0"],
    [5874,"2011-01-06T13:00:00","18.4","7.90","14.06","2403.65","84.29","ND","1.4","50.5","27.6","57.2","659.3","0"],
    [5875,"2011-01-06T14:00:00","10.1","20.27","16.34","2291.14","73.12","ND","1.1","11.5","28","55.3","470.1","0"],
    [5876,"2011-01-06T15:00:00","13.6","18.26","11.04","2146.40","40.70","ND","1.8","0.6","28.8","51.7","531","0"],
    [5877,"2011-01-06T16:00:00","8.4","5.53","6.03","2078.85","33.06","ND","1.9","291.6","29.1","49","419.2","0"],
    [5878,"2011-01-06T17:00:00","5.6","5.04","8.97","2216.75","26.20","ND","2","262.4","28.9","48.6","306.1","0"],
    [5879,"2011-01-06T18:00:00","3.5","4.28","10.82","2228.09","18.55","ND","3.3","262.2","27.3","52.1","86.5","0"],
    [5880,"2011-01-06T19:00:00","9.4","3.79","16.45","2486.97","12.50","ND","0.9","262.7","26.5","54.7","1.2","0"],
    [5881,"2011-01-06T20:00:00","6.8","4.17","17.91","2582.81","8.22","ND","0.5","121.2","25.6","60.2","0","0"],
    [5882,"2011-01-06T21:00:00","16.5","5.03","18.87","2748.54","6.79","ND","1.7","220.1","24.9","62.9","0","0"],
    [5883,"2011-01-06T22:00:00","9.6","4.52","19.42","2830.62","4.16","ND","0.4","205.1","23.9","68.3","0","0"],
    [5884,"2011-01-06T23:00:00","28.7","4.14","20.76","2661.83","3.68","ND","0.6","315.4","22.9","73.6","0","0"],
    [5885,"2011-01-07T00:00:00","15.8","5.32","16.78","2540.33","3.01","ND","0.5","282.7","22","77.7","0","0"],
    [5886,"2011-01-07T01:00:00","32.2","5.15","14.84","2344.35","3.45","ND","0.1","318.2","21.6","79.3","0","0"],
    [5887,"2011-01-07T02:00:00","25.4","8.13","18.15","2411.48","5.06","ND","0.6","16.2","21.5","84.1","0","0"],
    [5888,"2011-01-07T03:00:00","30.2","12.28","17.36","2271.76","5.29","ND","0.8","18.3","21","89.5","0","0"],
    [5889,"2011-01-07T04:00:00","18.7","8.91","12.30","2257.38","6.11","ND","0.3","23.2","20.6","91.3","0","0"],
    [5890,"2011-01-07T05:00:00","18.4","8.14","13.11","2282.29","3.56","ND","0.5","274.5","20.9","88","0","0"],
    [5891,"2011-01-07T06:00:00","10.8","7.23","10.99","2348.48","3.09","ND","0.1","192.3","20.7","87.8","0","0"],
    [5892,"2011-01-07T07:00:00","10.9","9.93","13.46","2589.11","3.97","ND","0.3","358.3","21.1","85.5","6.7","0"],
    [5893,"2011-01-07T08:00:00","40.3","15.92","17.68","2603.07","4.94","ND","1.3","16.5","21.4","86.4","72.1","0"],
    [5894,"2011-01-07T09:00:00","62.4","26.80","19.49","2416.40","7.89","ND","1.6","42","22.1","84.4","206.5","0"],
    [5895,"2011-01-07T10:00:00","34.5","29.75","18.50","2357.88","13.44","ND","0.9","14.8","23.3","77.4","370.9","0"],
    [5896,"2011-01-07T11:00:00","40.4","31.48","16.76","2261.39","28.87","ND","1","101.3","25.6","65.8","624.2","0"],
    [5897,"2011-01-07T12:00:00","ND","ND","ND","ND","ND","ND","ND","ND","ND","ND","ND","ND"],
    [5898,"2011-01-07T13:00:00","34","ND","ND","ND","60.37","ND","0.3","78.6","26.8","61","327.7","0"],
    [5899,"2011-01-07T14:00:00","23.6","12.29","ND","1487.75","56.76","ND","1.3","10","27","61","198.4","0"],
    [5900,"2011-01-07T15:00:00","38.4","21.30","21.04","1489.29","29.36","ND","2.1","355.6","25","71.9","195.4","3.56"],
    [5901,"2011-01-07T16:00:00","21.6","6.64","19.14","1880.69","15.71","ND","1","339.9","25.3","69","170.6","0"],
    [5902,"2011-01-07T17:00:00","36.7","8.59","27.21","2228.44","8.93","ND","0.7","181.3","25.8","64.5","44.6","0"],
    [5903,"2011-01-07T18:00:00","39.2","7.42","28.68","2257.60","9.66","ND","1.1","156.2","25.1","66.5","12.9","0"],
    [5904,"2011-01-07T19:00:00","33.7","7.30","37.84","2840.12","6.62","ND","0.6","314.2","23.7","76.1","0.4","0"],
    [5905,"2011-01-07T20:00:00","39","7.21","37.93","3108.62","4.84","ND","0.3","106.2","23.2","79.4","0","0"],
    [5906,"2011-01-07T21:00:00","53.3","6.47","35.19","2918.52","5.93","ND","0.1","27.9","22.4","83.2","0","0"],
    [5907,"2011-01-07T22:00:00","66.7","6.58","32.21","2548.21","4.15","ND","0.4","10.7","21.6","87.9","0","0"],
    [5908,"2011-01-07T23:00:00","62.7","6.20","26.98","2350.88","4.12","ND","0.3","6.4","21","91","0","0"],
    [5909,"2011-01-08T00:00:00","47.2","5.57","22.93","2234.05","3.65","ND","0.2","347.1","20.5","90.4","0","0"],
    [5910,"2011-01-08T01:00:00","54.6","6.01","19.04","2143.05","3.71","ND","0.1","73.8","20.4","89.6","0","0"],
    [5911,"2011-01-08T02:00:00","27.8","5.62","15.19","2107.06","3.34","ND","0.1","241.2","20.1","91.2","0","0"],
    [5912,"2011-01-08T03:00:00","45.9","5.26","16.55","2209.22","3.82","ND","0.1","311.7","20.2","90","0","0"],
    [5913,"2011-01-08T04:00:00","39.6","5.00","15.25","2140.86","3.84","ND","0.2","103.7","20.1","90.8","0","0"],
    [5914,"2011-01-08T05:00:00","40.8","4.61","19.00","1959.91","3.47","ND","0","65.4","20","91","0","0"],
    [5915,"2011-01-08T06:00:00","22.5","4.36","15.38","1961.25","3.71","ND","0.1","268.3","20.2","91.4","0","0"],
    [5916,"2011-01-08T07:00:00","27.9","5.86","19.40","2312.24","3.65","ND","0","351.9","20.4","90.5","7.6","0"],
    [5917,"2011-01-08T08:00:00","37.4","6.43","24.29","2496.11","4.04","ND","0","319.6","20.8","88.7","39.3","0"],
    [5918,"2011-01-08T09:00:00","67.8","7.08","43.00","2753.93","5.75","ND","0.1","53.4","21.8","84.2","146.7","0"],
    [5919,"2011-01-08T10:00:00","47.2","14.82","52.57","2720.14","24.06","ND","1.5","103.2","24.3","71.1","509.1","0"],
    [5920,"2011-01-08T11:00:00","56.4","14.33","32.85","2092.70","57.65","ND","0.6","89.6","26.1","61.7","654.3","0"],
    [5921,"2011-01-08T12:00:00","29.1","14.27","22.24","1753.01","76.51","ND","1.3","58.1","27","59.9","690.5","0"],
    [5922,"2011-01-08T13:00:00","35.4","36.33","24.25","1745.54","73.80","ND","1.9","60.1","27.7","58.3","515.1","0"],
    [5923,"2011-01-08T14:00:00","41.7","24.32","16.91","1745.54","66.22","ND","2","19.1","27.7","58.1","320.1","0"],
    [5924,"2011-01-08T15:00:00","25.9","20.71","20.62","1730.52","33.44","ND","1.4","316.2","27.1","61.8","199.3","0"],
    [5925,"2011-01-08T16:00:00","15.4","8.02","10.40","1604.15","14.83","ND","1.4","313.6","27.2","58.4","171.8","0"],
    [5926,"2011-01-08T17:00:00","9.9","5.78","10.94","1764.54","13.69","ND","1.5","337.3","27","57.7","109.8","0"],
    [5927,"2011-01-08T18:00:00","6.5","5.40","11.58","1657.42","10.86","ND","0.6","307.3","26.4","60","36.6","0"],
    [5928,"2011-01-08T19:00:00","4.6","5.88","17.17","2008.85","5.31","ND","0.2","276.1","25.6","62.9","0.9","0"],
    [5929,"2011-01-08T20:00:00","4.7","6.15","16.60","2253.06","4.70","ND","0.9","247.1","24.5","66.1","0","0"],
    [5930,"2011-01-08T21:00:00","2.3","5.87","16.08","2339.04","3.91","ND","0.3","284","23.8","70.1","0","0"],
    [5931,"2011-01-08T22:00:00","13.4","6.86","17.66","2691.84","3.77","ND","0.1","234.3","23.7","72.2","0","0"],
    [5932,"2011-01-08T23:00:00","11.5","7.41","16.21","2830.62","5.67","ND","0.8","176","23.9","73.7","0","0"],
    [5933,"2011-01-09T00:00:00","8.3","5.63","16.75","2404.25","3.94","ND","0.6","93.4","23.4","77.2","0","0"],
    [5934,"2011-01-09T01:00:00","21.5","5.20","15.67","2002.06","3.99","ND","0.2","77.6","22.9","80.2","0","0"],
    [5935,"2011-01-09T02:00:00","11.3","3.81","14.00","1880.01","4.33","ND","0.2","60.8","21.6","88.7","0","0.51"],
    [5936,"2011-01-09T03:00:00","15.5","3.70","10.64","2013.86","5.17","ND","0.2","237.8","21.3","91.6","0","0"],
    [5937,"2011-01-09T04:00:00","10.2","3.05","10.27","2059.12","3.90","ND","0","346.5","21.3","91.4","0","0"],
    [5938,"2011-01-09T05:00:00","6.8","3.75","10.32","1797.68","3.56","ND","0.4","25.4","21.1","92.1","0","0"],
    [5939,"2011-01-09T06:00:00","24.2","3.41","8.46","1786.37","3.52","ND","0.3","266.5","21.1","92.4","0","0"],
    [5940,"2011-01-09T07:00:00","14","4.01","7.84","2169.30","3.44","ND","0.3","283.2","20.9","93.4","12.6","0"],
    [5941,"2011-01-09T08:00:00","7.5","2.72","13.10","2154.01","6.23","ND","0.1","176.4","21.9","88","154.3","0"],
    [5942,"2011-01-09T09:00:00","5.9","4.56","26.24","2051.71","8.81","ND","0.7","80.4","23.5","82.5","206.5","0"],
    [5943,"2011-01-09T10:00:00","3.5","5.82","25.56","1996.07","17.23","ND","0.2","8.4","23.7","79.2","203","0"],
    [5944,"2011-01-09T11:00:00","8.7","7.59","21.23","1860.87","36.68","ND","0.8","129.6","25.8","68.9","677.3","0"],
    [5945,"2011-01-09T12:00:00","5.6","10.82","15.60","1673.39","45.45","ND","1.5","121.9","27.2","61.1","465.2","0"],
    [5946,"2011-01-09T13:00:00","5.1","8.68","11.85","1637.68","57.78","ND","1.1","51.5","27","63","435.7","0"],
    [5947,"2011-01-09T14:00:00","3.9","8.10","9.83","1631.03","60.49","ND","1.4","81.9","27.9","60.9","616.3","0"],
    [5948,"2011-01-09T15:00:00","15.5","8.98","16.45","1586.86","64.72","ND","1.1","33.7","28.3","59","274","0"],
    [5949,"2011-01-09T16:00:00","8.6","14.56","10.01","1629.40","22.82","ND","1.6","244.8","27.6","57.1","88.7","0"],
    [5950,"2011-01-09T17:00:00","15","8.97","12.94","1742.06","17.67","ND","1.4","241","27.1","58","45.5","0"],
    [5951,"2011-01-09T18:00:00","13","6.67","8.29","1481.30","14.32","ND","1.9","250.9","25.7","61.4","17.3","0"],
    [5952,"2011-01-09T19:00:00","16.7","5.54","17.09","1783.55","9.54","ND","0.4","223.7","24.4","71.3","1.5","0"],
    [5953,"2011-01-09T20:00:00","23.9","5.95","20.34","1983.99","5.78","ND","0.3","30.1","23.6","77.1","0","0"],
    [5954,"2011-01-09T21:00:00","28.8","4.95","19.45","1892.14","6.40","ND","0","145","23.5","77","0","0"],
    [5955,"2011-01-09T22:00:00","25.8","5.63","18.45","2027.55","4.14","ND","1.2","165.2","23.3","79.3","0","0"],
    [5956,"2011-01-09T23:00:00","29.1","5.01","22.32","2225.05","6.63","ND","0.7","150.1","22.3","87.4","0","0"],
    [5957,"2011-01-10T00:00:00","15.4","3.60","21.55","2199.36","5.90","ND","0.4","245.6","21.9","89.6","0","0"],
    [5958,"2011-01-10T01:00:00","12.2","3.06","17.85","2119.28","4.15","ND","0.2","302.6","21.8","89","0","0"],
    [5959,"2011-01-10T02:00:00","6.6","2.46","16.34","2085.28","3.88","ND","0","220.7","21.8","88.8","0","0"],
    [5960,"2011-01-10T03:00:00","11.5","2.41","16.99","1971.95","3.49","ND","0.2","8.9","21.8","86.6","0","0"],
    [5961,"2011-01-10T04:00:00","7.1","2.25","16.33","1970.61","3.34","ND","0.2","10","21.6","87.4","0","0"],
    [5962,"2011-01-10T05:00:00","25.9","2.30","14.11","1877.46","4.18","ND","0.3","19.7","21.2","92.5","0","0"],
    [5963,"2011-01-10T06:00:00","20.8","2.43","14.07","1819.67","4.03","ND","0.6","15.1","21","93.4","0","0"],
    [5964,"2011-01-10T07:00:00","11.5","2.48","15.40","1843.53","3.89","ND","0.1","351.1","21.2","91.8","17.4","0"],
    [5965,"2011-01-10T08:00:00","8.1","3.37","17.31","2005.95","5.32","ND","0.2","163.8","21.8","88.1","74","0"],
    [5966,"2011-01-10T09:00:00","28.6","5.79","25.51","1874.39","8.76","ND","0.5","23.9","22.5","85","164.4","0"],
    [5967,"2011-01-10T10:00:00","16.5","12.17","22.40","1742.78","16.49","ND","0.5","62.9","23.3","80.8","196.6","0"],
    [5968,"2011-01-10T11:00:00","29.3","11.56","20.52","1802.77","22.40","ND","0.7","64.4","23.8","78.6","242.2","0"],
    [5969,"2011-01-10T12:00:00","16.1","10.68","15.84","1716.10","31.45","ND","1.1","57.1","24.6","75.5","267.4","0"],
    [5970,"2011-01-10T13:00:00","18.6","8.85","17.07","1929.14","51.24","ND","0.2","130.4","25.7","69.6","357.3","0"],
    [5971,"2011-01-10T14:00:00","21.1","7.12","16.54","1751.84","72.93","ND","0.1","246.8","26.8","64.6","475.4","0"],
    [5972,"2011-01-10T15:00:00","30.4","6.39","16.19","1789.40","85.39","ND","0.7","68.5","27.3","62.5","295.6","0"],
    [5973,"2011-01-10T16:00:00","16.6","7.92","13.92","1720.70","79.21","ND","0.8","47.6","27.4","61.7","230.5","0"],
    [5974,"2011-01-10T17:00:00","32.7","14.41","17.46","1777.26","80.60","ND","0.3","353.8","27.2","61.9","119","0"],
    [5975,"2011-01-10T18:00:00","24.7","13.50","25.23","1913.83","43.31","ND","0.8","251.7","26.9","63.1","38","0"],
    [5976,"2011-01-10T19:00:00","33","11.09","21.57","2075.64","7.70","ND","1","260.4","25.3","64.8","1.3","0"],
    [5977,"2011-01-10T20:00:00","19.1","9.87","27.77","2540.69","3.78","ND","0.9","255.5","24.7","67.7","0","0"],
    [5978,"2011-01-10T21:00:00","31.7","7.65","27.37","2340.61","5.18","ND","0.2","21.5","24","71.6","0","0"],
    [5979,"2011-01-10T22:00:00","16.5","7.71","26.19","2653.14","3.53","ND","0.7","241.9","23.2","75.2","0","0"],
    [5980,"2011-01-10T23:00:00","24.3","7.39","20.91","2570.83","4.11","ND","0.2","140.7","22.9","78.7","0","0"],
    [5981,"2011-01-11T00:00:00","17.2","5.82","13.62","2375.84","4.56","ND","0","232.1","22.7","81.5","0","0"],
    [5982,"2011-01-11T01:00:00","10.4","5.35","14.22","2272.76","3.91","ND","0.1","257.3","22.6","82.1","0","0"],
    [5983,"2011-01-11T02:00:00","10","5.14","13.57","2077.47","3.21","ND","0.2","357.7","22.3","83.3","0","0"],
    [5984,"2011-01-11T03:00:00","16.4","4.23","14.74","2032.06","4.16","ND","0.1","0.3","22.3","84.5","0","0"],
    [5985,"2011-01-11T04:00:00","8.8","3.89","13.69","1826.48","4.00","ND","0.2","39.6","22.1","85.8","0","0"],
    [5986,"2011-01-11T05:00:00","24.1","3.14","12.82","1768.56","4.72","ND","0.2","192.2","21.9","87.7","0","0"],
    [5987,"2011-01-11T06:00:00","23.7","2.80","12.24","1903.31","5.43","ND","0.1","260","21.7","89.5","0","0"],
    [5988,"2011-01-11T07:00:00","30.4","5.91","14.17","2502.91","3.53","ND","0.1","265.6","21.6","89.8","16.3","0"],
    [5989,"2011-01-11T08:00:00","36.4","6.52","25.73","3011.41","4.34","ND","0.2","127.7","22.6","84.6","96.8","0"],
    [5990,"2011-01-11T09:00:00","43","5.07","43.94","3015.27","14.87","ND","0.8","131.8","24.1","77.5","236.1","0"],
    [5991,"2011-01-11T10:00:00","22.8","6.71","26.35","1983.23","23.03","ND","1.4","119.2","25.2","70.7","364.8","0"],
    [5992,"2011-01-11T11:00:00","17.3","8.46","25.20","1986.56","35.11","ND","0.9","153.8","25.7","68.2","394.2","0"],
    [5993,"2011-01-11T12:00:00","9.6","8.70","24.28","2033.86","74.43","ND","0.6","79.9","27.6","60.4","611.5","0"],
    [5994,"2011-01-11T13:00:00","18.9","9.30","18.24","1702.13","93.66","ND","1.1","56.7","28.2","58.5","473.9","0"],
    [5995,"2011-01-11T14:00:00","10","15.34","19.46","1822.14","88.89","ND","0.6","350.7","28.9","56.5","386.3","0"],
    [5996,"2011-01-11T15:00:00","9.4","19.54","24.61","1889.90","62.68","ND","1.1","7.6","28.6","57.6","184.6","0"],
    [5997,"2011-01-11T16:00:00","5.6","14.21","15.02","1658.01","25.56","ND","1.1","304.6","28.6","55.1","179.9","0"],
    [5998,"2011-01-11T17:00:00","5.6","12.20","19.71","1831.93","23.40","ND","0.4","348.6","28.6","55","108.3","0"],
    [5999,"2011-01-11T18:00:00","3.8","11.17","18.88","1944.64","14.53","ND","1.5","243.9","28.1","55.7","58.5","0"],
    [6000,"2011-01-11T19:00:00","10","7.98","25.92","2268.96","7.50","ND","1.2","245.7","26.6","59.7","1.4","0"],
    [6001,"2011-01-11T20:00:00","7.1","8.61","29.54","2845.87","5.37","ND","0.1","224.7","25.5","65.5","0","0"],
    [6002,"2011-01-11T21:00:00","31.8","12.66","34.25","4038.57","4.70","ND","0.2","204.7","24.6","70","0","0"],
    [6003,"2011-01-11T22:00:00","48.2","9.43","25.41","3277.96","5.63","ND","0.2","121.8","24.1","73.1","0","0"],
    [6004,"2011-01-11T23:00:00","51.5","8.70","21.65","3212.18","4.21","ND","0.1","248.5","23.3","77.3","0","0"],
    [6005,"2011-01-12T00:00:00","33.8","6.69","18.70","2707.33","2.51","ND","0.4","229.7","22.9","78.6","0","0"],
    [6006,"2011-01-12T01:00:00","40.8","5.98","16.16","2295.49","4.44","ND","0.3","23.7","22.6","80.4","0","0"],
    [6007,"2011-01-12T02:00:00","29.3","5.17","14.74","2122.16","5.44","ND","0.1","337.4","22.2","84.3","0","0"],
    [6008,"2011-01-12T03:00:00","42.5","3.58","15.49","1861.77","3.91","ND","0.3","272.4","22.3","84.6","0","0"],
    [6009,"2011-01-12T04:00:00","24.9","3.38","16.73","1828.34","3.73","ND","0","244.7","22.4","84.2","0","0"],
    [6010,"2011-01-12T05:00:00","23.6","3.55","14.47","1916.59","2.84","ND","0.2","259.7","22","85.8","0","0"],
    [6011,"2011-01-12T06:00:00","13.3","4.64","14.61","1868.05","4.44","ND","0.2","19.1","21.5","88.1","0","0"],
    [6012,"2011-01-12T07:00:00","43.7","5.15","15.45","2207.70","5.26","ND","0.1","300.4","21.5","88.7","17.2","0"],
    [6013,"2011-01-12T08:00:00","65.1","6.83","26.15","2894.83","5.29","ND","0.3","32.8","22.3","85","101.7","0"],
    [6014,"2011-01-12T09:00:00","73.2","6.84","41.46","2661.20","9.08","ND","0.7","71.6","24.1","75.6","259.1","0"],
    [6015,"2011-01-12T10:00:00","68","7.60","29.67","2120.08","21.87","ND","0.9","79.9","25.1","71","429","0"],
    [6016,"2011-01-12T11:00:00","49","8.57","29.28","2017.60","46.53","ND","0.7","102.5","26.9","63.3","534.8","0"],
    [6017,"2011-01-12T12:00:00","25.5","7.01","24.22","1914.36","79.00","ND","0.5","165.2","28.8","55.5","699.6","0"],
    [6018,"2011-01-12T13:00:00","43.8","6.18","21.85","1960.11","89.96","ND","0.5","24.9","28.7","55.7","321.3","0"],
    [6019,"2011-01-12T14:00:00","ND","ND","ND","ND","ND","ND","ND","ND","ND","ND","ND","ND"],
    [6020,"2011-01-12T15:00:00","30.8","5.19","15.70","1802.51","50.28","ND","1.5","284.6","29.5","51.4","481.7","0"],
    [6021,"2011-01-12T16:00:00","17.2","3.87","9.81","1670.10","26.99","ND","2.6","251.1","30.8","46.1","473.9","0"],
    [6022,"2011-01-12T17:00:00","9.8","3.42","12.35","1670.10","23.65","ND","2.1","266.1","30.8","46.7","337.8","0"],
    [6023,"2011-01-12T18:00:00","6.3","3.16","22.99","1987.91","15.53","ND","1.1","257.8","29.4","50.3","75.4","0"],
    [6024,"2011-01-12T19:00:00","6.7","4.92","31.53","2589.41","6.63","ND","0.7","241.8","27.7","54.5","1.8","0"],
    [6025,"2011-01-12T20:00:00","6.4","6.26","34.77","2747.59","4.33","ND","0.1","62.7","27.3","55.9","0","0"],
    [6026,"2011-01-12T21:00:00","28","7.38","33.61","2823.69","5.25","ND","0.7","98.5","26.8","59.6","0","0"],
    [6027,"2011-01-12T22:00:00","39.9","7.55","21.03","2373.00","5.32","ND","0.6","137.7","25.2","69.3","0","0"],
    [6028,"2011-01-12T23:00:00","37.2","6.77","17.86","2583.86","6.33","ND","0.3","158.4","24.4","73.7","0","0"],
    [6029,"2011-01-13T00:00:00","53.4","6.37","16.95","2566.37","4.83","ND","0.1","235","23.7","76.7","0","0"],
    [6030,"2011-01-13T01:00:00","42.2","5.00","15.49","2290.31","5.93","ND","0.1","216.4","23.4","77.9","0","0"],
    [6031,"2011-01-13T02:00:00","32.6","2.63","15.05","1945.18","3.49","ND","0.1","277.3","22.9","80.1","0","0"],
    [6032,"2011-01-13T03:00:00","30.6","2.89","14.47","1989.34","3.68","ND","0.1","267.6","22.7","81.5","0","0"],
    [6033,"2011-01-13T04:00:00","16.4","2.65","14.00","1830.81","4.40","ND","0","267","22.8","82.5","0","0"],
    [6034,"2011-01-13T05:00:00","19.8","3.33","13.99","1772.75","3.80","ND","0.4","33.1","22.6","83.4","0","0"],
    [6035,"2011-01-13T06:00:00","44.2","5.82","14.46","2032.06","4.90","ND","0.2","26.6","22.3","85.3","0","0"],
    [6036,"2011-01-13T07:00:00","42.1","6.07","15.15","2326.43","4.53","ND","0.2","288.7","22.2","85.7","13.1","0"],
    [6037,"2011-01-13T08:00:00","25.1","6.98","22.07","2675.92","6.36","ND","0.5","144.2","23.2","80.2","92.4","0"],
    [6038,"2011-01-13T09:00:00","45.9","7.41","30.62","2862.93","5.33","ND","0.3","63.3","23.7","78.7","53.8","0"],
    [6039,"2011-01-13T10:00:00","62.4","9.13","37.15","2805.90","5.61","ND","0.5","61.5","23.7","80.5","117.1","0"],
    [6040,"2011-01-13T11:00:00","74.1","12.55","46.36","2674.42","8.16","ND","0.9","15","24.3","78.4","206.2","0"],
    [6041,"2011-01-13T12:00:00","58.3","40.69","43.86","2155.19","11.19","ND","1.3","33.5","25.2","72.9","294.1","0"],
    [6042,"2011-01-13T13:00:00","76.4","143.92","53.27","2010.87","10.41","ND","1.7","39.6","25.9","70.6","339.3","0"],
    [6043,"2011-01-13T14:00:00","60.1","89.83","48.27","2130.04","17.61","ND","0.9","31.1","26.5","68.5","235.2","0"],
    [6044,"2011-01-13T15:00:00","55.7","55.54","39.16","1996.53","15.14","ND","0.6","140.8","27.2","62","126.1","0"],
    [6045,"2011-01-13T16:00:00","36.4","31.86","26.37","1984.99","12.77","ND","0.4","97.9","27.2","58.3","107.3","0"],
    [6046,"2011-01-13T17:00:00","65.5","23.95","29.05","2168.20","9.78","ND","0.9","17.2","27","59.1","151.9","0"],
    [6047,"2011-01-13T18:00:00","44.3","19.95","21.16","2027.77","9.69","ND","0.7","54.5","26.7","59.4","69.3","0"],
    [6048,"2011-01-13T19:00:00","39.5","18.05","26.29","2669.40","4.99","ND","0.6","119.7","26.3","61.8","2.7","0"],
    [6049,"2011-01-13T20:00:00","27.8","15.57","22.70","2720.56","5.45","ND","0.6","197","25.6","64.6","0","0"],
    [6050,"2011-01-13T21:00:00","36.1","15.74","19.25","2858.25","5.64","ND","0.8","117.5","24.4","73","0","0"],
    [6051,"2011-01-13T22:00:00","18.8","15.60","19.80","3130.54","5.56","ND","0.2","133.3","24.2","73.4","0","0"],
    [6052,"2011-01-13T23:00:00","51.9","14.23","17.95","2974.98","5.02","ND","0.2","110.4","23.5","76.8","0","0"],
    [6053,"2011-01-14T00:00:00","64.3","13.89","16.69","2928.40","5.86","ND","0.3","154.2","23.4","77.4","0","0"],
    [6054,"2011-01-14T01:00:00","38.6","12.21","13.45","2317.43","3.68","ND","0.4","38.2","22.5","82.2","0","0"],
    [6055,"2011-01-14T02:00:00","25.5","10.44","12.86","2179.64","5.21","ND","0.3","225.7","22.3","83","0","0"],
    [6056,"2011-01-14T03:00:00","18.7","8.65","14.30","1941.90","3.89","ND","0.8","220.1","22.4","82.4","0","0"],
    [6057,"2011-01-14T04:00:00","11.6","8.11","14.25","1983.28","4.64","ND","0.5","357.2","21.8","84.5","0","0"],
    [6058,"2011-01-14T05:00:00","34.6","8.81","13.26","1868.69","4.15","ND","0.1","8.7","21.6","85.9","0","0"],
    [6059,"2011-01-14T06:00:00","18.3","9.11","12.83","2025.18","3.41","ND","0.1","342.3","21.3","86.9","0","0"],
    [6060,"2011-01-14T07:00:00","42","11.81","15.54","2575.17","3.83","ND","0.2","353.1","20.8","88.8","16","0"],
    [6061,"2011-01-14T08:00:00","63.6","14.01","23.05","2790.77","4.24","ND","0.2","48.1","22.1","82.8","130.4","0"],
    [6062,"2011-01-14T09:00:00","58.2","20.13","42.55","2785.90","9.13","ND","0.4","109.7","24","74.7","308.5","0"],
    [6063,"2011-01-14T10:00:00","56.3","20.11","56.81","2826.71","29.52","ND","1.1","139.1","25.9","66.6","487.2","0"],
    [6064,"2011-01-14T11:00:00","45","14.81","32.57","2158.82","43.13","ND","1.3","158.7","27.3","60.1","582.9","0"],
    [6065,"2011-01-14T12:00:00","28.5","12.77","24.40","1976.74","77.82","ND","0.7","75.2","27.7","59.9","466.1","0"],
    [6066,"2011-01-14T13:00:00","43.9","15.14","24.32","2101.38","90.98","ND","0.6","9","29","54.6","516.9","0"],
    [6067,"2011-01-14T14:00:00","24","11.70","12.42","1754.83","41.78","ND","1.1","297.9","29.3","50","505.8","0"],
    [6068,"2011-01-14T15:00:00","13.3","8.88","11.54","1672.30","50.96","ND","0.6","290.3","31.2","44.6","659.7","0"],
    [6069,"2011-01-14T16:00:00","13","ND","ND","ND","37.83","ND","1.9","321.3","30","48.5","268.5","0"],
    [6070,"2011-01-14T17:00:00","20.2","6.05","13.87","640.87","ND","ND","2","292.3","30.1","48","257","0"],
    [6071,"2011-01-14T18:00:00","18.8","5.47","21.33","812.42","31.11","ND","0.9","273","28.9","51.1","74.6","0"],
    [6072,"2011-01-14T19:00:00","27.2","6.29","35.21","1201.43","13.95","ND","0.1","236.3","27.5","54.6","1.6","0"],
    [6073,"2011-01-14T20:00:00","41","6.88","44.05","1556.95","4.48","ND","0.8","100.7","27","56.4","0","0"],
    [6074,"2011-01-14T21:00:00","68.4","12.68","50.43","3243.62","1.87","ND","0.1","79.2","26.2","60.1","0","0"],
    [6075,"2011-01-14T22:00:00","54.7","13.70","35.79","2497.42","2.75","ND","1","116.9","25","66.6","0","0"],
    [6076,"2011-01-14T23:00:00","118.3","11.09","21.89","1791.36","3.03","ND","0.5","146.5","23.8","72.8","0","0"],
    [6077,"2011-01-15T00:00:00","103.4","8.40","22.11","1722.32","1.45","ND","0.1","358.7","23.7","74","0","0"],
    [6078,"2011-01-15T01:00:00","85.8","6.77","20.13","1754.17","1.99","ND","0","0","23.3","76.8","0","0"],
    [6079,"2011-01-15T02:00:00","44.2","6.61","18.24","1388.26","1.31","ND","0.2","32.4","23","77.5","0","0"],
    [6080,"2011-01-15T03:00:00","46.4","7.53","17.67","1021.70","1.71","ND","0.5","9","22.3","81.4","0","0"],
    [6081,"2011-01-15T04:00:00","36.5","6.21","15.98","942.56","2.76","ND","0","340.1","22.4","81","0","0"],
    [6082,"2011-01-15T05:00:00","52","8.12","16.97","1122.73","2.62","ND","0.3","22.9","22","82.8","0","0"],
    [6083,"2011-01-15T06:00:00","55.6","9.12","17.28","1245.79","1.67","ND","0.1","347.5","21.6","84.9","0","0"],
    [6084,"2011-01-15T07:00:00","54","8.26","15.23","1596.88","0.78","ND","0.1","145.4","21.6","84.8","20","0"],
    [6085,"2011-01-15T08:00:00","48.6","9.63","27.27","1912.35","4.04","ND","0.1","70.3","23.1","78","146.1","0"],
    [6086,"2011-01-15T09:00:00","54.3","12.31","43.90","1713.80","6.97","ND","0.4","120","24.2","73.1","219.4","0"],
    [6087,"2011-01-15T10:00:00","33.3","13.09","48.24","1801.02","21.85","ND","0.4","166.3","25.4","67","390.6","0"],
    [6088,"2011-01-15T11:00:00","39.5","12.05","29.15","1051.25","41.48","ND","1.7","123.3","27.5","58.1","656.5","0"],
    [6089,"2011-01-15T12:00:00","29.8","10.55","17.85","938.53","65.22","ND","0.9","120.3","28.4","55.8","685.7","0"],
    [6090,"2011-01-15T13:00:00","42.4","9.08","17.86","954.53","93.16","ND","0.2","96.8","29.8","51.9","677.9","0"],
    [6091,"2011-01-15T14:00:00","38","9.33","15.52","955.79","89.37","ND","0.5","300","30.2","50","389.4","0"],
    [6092,"2011-01-15T15:00:00","26.4","5.93","9.34","771.32","26.24","ND","3.6","257.1","31","43.9","636.1","0"],
    [6093,"2011-01-15T16:00:00","23.4","4.38","9.10","759.14","27.27","ND","3.8","263.5","30.8","44.5","468.6","0"],
    [6094,"2011-01-15T17:00:00","12.5","4.42","10.42","827.30","32.95","ND","2.8","276.4","30.1","45.1","272.3","0"],
    [6095,"2011-01-15T18:00:00","10.9","4.09","16.52","847.80","22.34","ND","1.8","261.7","29.1","47.2","75.4","0"],
    [6096,"2011-01-15T19:00:00","5.4","3.57","19.91","925.40","17.42","ND","0.4","279.9","27.9","50.4","1.5","0"],
    [6097,"2011-01-15T20:00:00","11.4","4.86","34.52","1397.35","4.99","ND","1.1","109.5","27.4","54.2","0","0"],
    [6098,"2011-01-15T21:00:00","31.1","8.16","34.66","1851.86","3.51","ND","0.9","109.9","26.2","61.2","0","0"],
    [6099,"2011-01-15T22:00:00","40","8.14","25.44","1510.68","2.76","ND","0.3","99.7","24.7","69","0","0"],
    [6100,"2011-01-15T23:00:00","42.7","7.74","23.44","1760.68","3.17","ND","0.4","158.6","24.4","70.2","0","0"],
    [6101,"2011-01-16T00:00:00","24.6","6.50","22.81","1722.90","1.88","ND","0.1","274.5","23.8","72.5","0","0"],
    [6102,"2011-01-16T01:00:00","53.6","7.53","21.57","1527.39","2.52","ND","0.3","127.2","23.5","75.4","0","0"],
    [6103,"2011-01-16T02:00:00","31.6","7.07","17.95","1204.16","1.17","ND","0.3","57.7","22.5","80.3","0","0"],
    [6104,"2011-01-16T03:00:00","45.3","5.61","16.81","1202.93","1.77","ND","0.5","269.2","22.2","80.9","0","0"],
    [6105,"2011-01-16T04:00:00","32.3","5.04","17.28","1295.47","1.30","ND","0.1","333","22.6","79.9","0","0"],
    [6106,"2011-01-16T05:00:00","21.5","8.12","17.65","919.22","1.19","ND","0.4","50.4","22.2","81.7","0","0"],
    [6107,"2011-01-16T06:00:00","14.2","11.09","17.12","987.98","1.61","ND","0.4","107","22.4","81","0","0"],
    [6108,"2011-01-16T07:00:00","31.8","11.15","15.82","1067.84","2.78","ND","0.8","178.4","22.5","80.9","21.9","0"],
    [6109,"2011-01-16T08:00:00","18.2","8.43","19.96","1058.26","3.31","ND","0.4","37.3","23","79.2","74.7","0"],
    [6110,"2011-01-16T09:00:00","29.8","10.37","24.83","1150.46","3.55","ND","0.3","103.3","23.3","78.8","106.2","0"],
    [6111,"2011-01-16T10:00:00","32","9.82","30.66","1213.53","14.88","ND","0.3","39","24.8","72.8","395.1","0"],
    [6112,"2011-01-16T11:00:00","25.3","13.03","23.04","1081.57","27.81","ND","1.2","163.5","26.3","63.4","360.5","0"],
    [6113,"2011-01-16T12:00:00","14.9","12.30","16.01","911.71","37.56","ND","1.8","152.1","27.2","59.9","533.1","0"],
    [6114,"2011-01-16T13:00:00","7.5","8.58","13.76","902.87","63.55","ND","0.4","261.2","28.1","57.1","428.7","0"],
    [6115,"2011-01-16T14:00:00","4.7","6.82","7.57","788.42","30.33","ND","1.1","242.3","28.6","52.4","538.7","0"],
    [6116,"2011-01-16T15:00:00","3.7","4.58","4.54","687.25","25.92","ND","2.3","262.4","30","47.4","586.5","0"],
    [6117,"2011-01-16T16:00:00","3.8","3.64","5.60","720.29","19.50","ND","2.6","278.1","29.2","48.9","255.3","0"],
    [6118,"2011-01-16T17:00:00","3","4.27","8.68","729.72","19.05","ND","1.4","263.6","28.3","51.4","171.1","0"],
    [6119,"2011-01-16T18:00:00","9.2","5.21","10.84","774.00","17.06","ND","0.6","267.8","27.5","52.4","64.5","0"],
    [6120,"2011-01-16T19:00:00","11.3","4.53","18.66","944.13","7.14","ND","0.5","122.2","26.5","56.6","1.4","0"],
    [6121,"2011-01-16T20:00:00","25.9","6.56","30.01","1490.79","1.71","ND","0.3","355.5","25.3","61.3","0","0"],
    [6122,"2011-01-16T21:00:00","24.8","7.22","25.66","1590.26","3.06","ND","0.5","108.6","24.6","66.9","0","0"],
    [6123,"2011-01-16T22:00:00","13","7.50","25.17","2095.89","2.32","ND","0.2","316.5","23.3","72.9","0","0"],
    [6124,"2011-01-16T23:00:00","29.4","5.46","22.82","1535.67","1.48","ND","0.2","321.5","22.9","73.2","0","0"],
    [6125,"2011-01-17T00:00:00","18.7","5.20","22.06","1364.58","1.13","ND","0.2","322.9","22.8","73.6","0","0"],
    [6126,"2011-01-17T01:00:00","25.7","6.09","21.10","1274.04","1.33","ND","0.3","114.6","22.9","73.7","0","0"],
    [6127,"2011-01-17T02:00:00","21.6","4.93","15.48","975.63","1.26","ND","0.2","175.5","22.1","77","0","0"],
    [6128,"2011-01-17T03:00:00","23.8","4.31","15.82","897.44","1.71","ND","0.8","216.2","22.5","75","0","0"],
    [6129,"2011-01-17T04:00:00","13.2","3.30","14.09","828.44","2.29","ND","0.4","208.7","22.2","77.5","0","0"],
    [6130,"2011-01-17T05:00:00","27.2","3.27","11.05","794.66","2.39","ND","0.1","213.1","22.3","76.9","0","0"],
    [6131,"2011-01-17T06:00:00","23.8","4.96","18.04","1090.19","1.01","ND","0.5","46.8","22.4","77","0","0"],
    [6132,"2011-01-17T07:00:00","23.6","8.17","20.76","1417.11","2.17","ND","0.7","346.1","21.9","80.3","10.4","0"],
    [6133,"2011-01-17T08:00:00","22.6","12.15","23.30","1463.95","2.24","ND","0.8","46.1","22.2","81.4","90.1","0"],
    [6134,"2011-01-17T09:00:00","38.6","11.55","26.11","1208.64","7.89","ND","0.5","38.5","23.6","75.3","248.8","0"],
    [6135,"2011-01-17T10:00:00","32.3","38.43","27.92","883.01","15.26","ND","0.7","78.9","25.3","67.6","500.8","0"],
    [6136,"2011-01-17T11:00:00","43.8","36.86","24.61","924.17","35.14","ND","0.9","88.9","27.5","57.8","604.1","0"],
    [6137,"2011-01-17T12:00:00","23.6","18.71","18.04","776.31","59.58","ND","0.4","92","28.4","54.7","581.1","0"],
    [6138,"2011-01-17T13:00:00","25.7","17.48","16.60","861.97","70.61","ND","1.2","225.9","30","49.9","726.6","0"],
    [6139,"2011-01-17T14:00:00","14.7","18.23","12.55","779.41","55.40","ND","0.6","35.5","29.6","50.6","320","0"],
    [6140,"2011-01-17T15:00:00","10.7","11.41","10.33","711.25","31.60","ND","2","285.2","30.3","47.9","468.3","0"],
    [6141,"2011-01-17T16:00:00","6.6","5.98","9.14","700.51","25.24","ND","3.4","263.5","30.7","45","551","0"],
    [6142,"2011-01-17T17:00:00","5.2","5.84","12.91","792.35","23.21","ND","1.8","295.9","30.1","46.6","244.2","0"],
    [6143,"2011-01-17T18:00:00","3.8","5.01","17.55","869.30","13.76","ND","0.8","294","28.5","49.3","42.2","0"],
    [6144,"2011-01-17T19:00:00","17.8","5.58","26.44","1386.26","4.89","ND","0.2","181.2","27.5","51","1.5","0"],
    [6145,"2011-01-17T20:00:00","27.8","9.98","33.46","2522.35","1.54","ND","0.2","274.5","26.6","55.6","0","0"],
    [6146,"2011-01-17T21:00:00","58.5","10.98","37.26","2423.72","0.75","ND","0.1","74.6","25.8","59.7","0","0"],
    [6147,"2011-01-17T22:00:00","30.4","8.86","28.36","2004.81","2.85","ND","0.5","306.3","25","65","0","0"],
    [6148,"2011-01-17T23:00:00","44","8.96","26.01","1695.50","3.06","ND","0.8","118.5","25","65.8","0","0"],
    [6149,"2011-01-18T00:00:00","42.1","9.45","22.66","1141.76","1.51","ND","0.5","26","24","70.8","0","0"],
    [6150,"2011-01-18T01:00:00","35.8","8.13","21.37","1093.88","1.27","ND","0.1","289.6","23.4","73.2","0","0"],
    [6151,"2011-01-18T02:00:00","18.4","6.56","18.83","1013.09","1.21","ND","0.2","184.8","23.1","75","0","0"],
    [6152,"2011-01-18T03:00:00","19.9","6.55","14.50","852.57","2.40","ND","0.5","154.7","22.7","78","0","0"],
    [6153,"2011-01-18T04:00:00","10.6","4.29","13.76","784.37","2.36","ND","0","55.7","22.7","78.7","0","0"],
    [6154,"2011-01-18T05:00:00","16.9","4.70","14.22","737.90","2.10","ND","0.3","295.8","22.3","80.1","0","0"],
    [6155,"2011-01-18T06:00:00","13.6","5.90","15.98","953.91","1.50","ND","0.4","49.4","22.4","79.4","0","0"],
    [6156,"2011-01-18T07:00:00","28.4","7.29","18.66","1418.55","1.05","ND","0.1","331.5","22.2","80.7","6.8","0"],
    [6157,"2011-01-18T08:00:00","25.8","10.49","21.13","1524.30","3.43","ND","0.2","326.2","22.9","78.1","71.4","0"],
    [6158,"2011-01-18T09:00:00","45.1","47.20","29.84","1404.84","3.70","ND","0.1","242.7","24.1","72.4","228","0"],
    [6159,"2011-01-18T10:00:00","23.4","56.38","35.51","1404.68","21.46","ND","1.5","133.1","26.5","62.6","533.4","0"],
    [6160,"2011-01-18T11:00:00","28","18.16","23.87","992.50","32.80","ND","1.8","154.5","27.2","60.5","379","0"],
    [6161,"2011-01-18T12:00:00","22.9","17.84","23.34","1106.06","41.84","ND","0.3","324.9","26.7","63.1","108.9","0"],
    [6162,"2011-01-18T13:00:00","32","15.68","20.69","1100.01","57.22","ND","0.4","193.7","28.2","57.1","536.9","0"],
    [6163,"2011-01-18T14:00:00","24.6","11.11","12.79","815.38","48.63","ND","0.5","172.8","30","49.6","602.7","0"],
    [6164,"2011-01-18T15:00:00","28.7","7.62","9.56","792.61","27.87","ND","1.1","308.9","30.2","46.8","362.5","0"],
    [6165,"2011-01-18T16:00:00","15.5","5.28","8.32","827.85","23.97","ND","3","280.2","30.3","45.8","474.4","0"],
    [6166,"2011-01-18T17:00:00","9.8","3.40","8.22","708.90","19.71","ND","3.7","279.7","29.3","47.4","278.8","0"],
    [6167,"2011-01-18T18:00:00","10.5","3.53","13.72","892.77","14.78","ND","1.8","270.3","28.6","48.4","82.6","0"],
    [6168,"2011-01-18T19:00:00","21.8","3.67","20.18","1085.54","8.35","ND","0.2","219.6","27.4","52","1.8","0"],
    [6169,"2011-01-18T20:00:00","26","4.16","22.81","1197.43","4.44","ND","1.2","190.3","26.5","55.3","0","0"],
    [6170,"2011-01-18T21:00:00","19.6","1.52","13.93","858.92","7.18","ND","3.2","172.2","24.9","67.5","0","0"],
    [6171,"2011-01-18T22:00:00","17.2","2.45","15.63","843.77","4.69","ND","1.5","165.2","23.6","76.3","0","0"],
    [6172,"2011-01-18T23:00:00","14.2","3.05","20.89","1082.48","3.63","ND","0.3","201.6","23.4","77","0","0"],
    [6173,"2011-01-19T00:00:00","8.3","3.38","16.81","865.11","2.71","ND","0.2","295.7","23.1","77.7","0","0"],
    [6174,"2011-01-19T01:00:00","4.8","4.86","17.61","886.98","2.14","ND","0.5","29","22.8","80.5","0","0"],
    [6175,"2011-01-19T02:00:00","12.1","4.33","16.57","987.31","3.77","ND","0.1","66.4","22.2","85.3","0","0"],
    [6176,"2011-01-19T03:00:00","28.8","5.19","17.06","997.99","3.19","ND","0.1","328.6","22","84.2","0","0"],
    [6177,"2011-01-19T04:00:00","15.7","6.84","15.95","860.44","1.65","ND","0.2","311.3","21.5","85.1","0","0"],
    [6178,"2011-01-19T05:00:00","13.4","4.58","14.63","860.44","0.76","ND","0","214.5","21.5","84","0","0"],
    [6179,"2011-01-19T06:00:00","7.4","7.04","15.89","995.96","1.11","ND","0.2","13.3","21.4","83.4","0","0"],
    [6180,"2011-01-19T07:00:00","39.7","8.69","15.92","1412.79","2.61","ND","0.2","342.2","21","89.3","12.3","0"],
    [6181,"2011-01-19T08:00:00","57.6","10.84","20.90","1939.27","1.52","ND","0.1","314.2","22","84.5","38.8","0"],
    [6182,"2011-01-19T09:00:00","64.5","13.95","34.17","2024.81","2.47","ND","0.4","344.3","22.9","81.1","112.6","0"],
    [6183,"2011-01-19T10:00:00","52.3","39.79","30.64","1290.63","7.75","ND","0.7","4.3","24.1","75","355.8","0"],
    [6184,"2011-01-19T11:00:00","53.3","70.26","30.13","1001.36","24.59","ND","1","65","26.4","64.5","609.8","0"],
    [6185,"2011-01-19T12:00:00","29.1","36.40","18.77","959.15","52.20","ND","0.9","59.1","27.6","58.3","417.7","0"],
    [6186,"2011-01-19T13:00:00","31.2","26.32","14.81","914.44","42.09","ND","1.1","291.8","28.1","55.5","454.2","0"],
    [6187,"2011-01-19T14:00:00","17.9","25.08","13.54","696.82","42.85","ND","1","6.7","29.1","51.2","305.2","0"],
    [6188,"2011-01-19T15:00:00","10","13.85","7.90","781.47","32.93","ND","1.5","260.3","30.4","46.3","679.4","0"],
    [6189,"2011-01-19T16:00:00","5.8","6.98","9.15","745.00","24.27","ND","2.9","285.5","29.8","47.1","366","0"],
    [6190,"2011-01-19T17:00:00","5.1","5.95","10.50","836.46","20.38","ND","2.6","280.1","29.2","48.4","233.3","0"],
    [6191,"2011-01-19T18:00:00","6","5.16","12.47","821.02","15.47","ND","1.6","287.8","27.8","51.2","60","0"],
    [6192,"2011-01-19T19:00:00","12.8","5.86","20.28","1038.31","7.02","ND","0.1","228.8","27.1","53.7","2","0"],
    [6193,"2011-01-19T20:00:00","9","8.18","26.68","1403.27","3.82","ND","0.6","82.5","26.2","58.9","0","0"],
    [6194,"2011-01-19T21:00:00","51.6","10.67","30.82","1451.50","6.19","ND","0.7","70.1","24.3","67.8","0","0"],
    [6195,"2011-01-19T22:00:00","64.7","8.41","26.00","1456.54","7.13","ND","0.2","240.4","23","73.6","0","0"],
    [6196,"2011-01-19T23:00:00","58.8","8.94","25.58","1193.20","3.74","ND","0.6","301.8","22.6","75","0","0"],
    [6197,"2011-01-20T00:00:00","44.7","16.43","27.52","1181.84","1.67","ND","0.3","326","22.6","75.5","0","0"],
    [6198,"2011-01-20T01:00:00","53.3","16.67","23.29","1044.41","1.87","ND","0.1","65.5","22.3","78.3","0","0"],
    [6199,"2011-01-20T02:00:00","50.9","15.03","22.20","1032.71","1.69","ND","0.2","4.5","22.2","78.8","0","0"],
    [6200,"2011-01-20T03:00:00","41.7","25.35","22.82","1167.30","1.79","ND","0.3","349.3","21.8","80.1","0","0"],
    [6201,"2011-01-20T04:00:00","39","19.11","20.39","1042.99","2.17","ND","0.2","141","21.9","79.6","0","0"],
    [6202,"2011-01-20T05:00:00","35.8","14.39","12.80","849.98","2.81","ND","0.8","164.6","21.8","80.9","0","0"],
    [6203,"2011-01-20T06:00:00","30","10.35","14.14","860.14","0.83","ND","0.1","227.1","21.4","84","0","0"],
    [6204,"2011-01-20T07:00:00","37.3","10.97","16.38","1232.79","1.18","ND","0.2","334.3","21.2","84.3","10.5","0"],
    [6205,"2011-01-20T08:00:00","46.9","14.99","21.48","1496.98","2.12","ND","0.6","8.9","22","80.3","116.7","0"],
    [6206,"2011-01-20T09:00:00","59.2","66.37","30.81","1243.26","6.33","ND","0.8","76.1","23.7","72.1","273.6","0"],
    [6207,"2011-01-20T10:00:00","40.4","44.20","27.68","1032.08","19.74","ND","1.1","116.3","25.3","66","527.1","0"],
    [6208,"2011-01-20T11:00:00","53.8","20.10","26.27","1114.22","39.16","ND","1.2","117.2","25.8","63.1","224.8","0"],
    [6209,"2011-01-20T12:00:00","27.9","16.12","16.94","932.61","48.16","ND","0.5","163.1","26.5","60.6","268.1","0"],
    [6210,"2011-01-20T13:00:00","30.6","13.18","15.18","833.14","59.05","ND","1.4","153.7","28","54.5","646.9","0"],
    [6211,"2011-01-20T14:00:00","17","11.04","16.91","1056.15","81.43","ND","0.9","231.9","28.9","51","489.2","0"],
    [6212,"2011-01-20T15:00:00","16.3","8.00","14.16","906.77","59.28","ND","1.5","278.3","29.4","48.9","442.5","0"],
    [6213,"2011-01-20T16:00:00","10.4","6.12","10.37","814.84","25.54","ND","2.9","267.5","29.8","45.7","444.9","0"],
    [6214,"2011-01-20T17:00:00","6.7","4.70","12.28","835.36","27.64","ND","2.5","281.7","28.8","47.4","245.7","0"],
    [6215,"2011-01-20T18:00:00","4.5","4.02","14.69","914.14","20.04","ND","1.5","274.8","28","48.5","90.4","0"],
    [6216,"2011-01-20T19:00:00","5.2","4.32","23.21","1037.27","8.23","ND","0.4","79.7","26.8","51.8","2.1","0"],
    [6217,"2011-01-20T20:00:00","14.6","5.03","27.49","1185.92","4.75","ND","0.6","104.8","26.5","54.6","0","0"],
    [6218,"2011-01-20T21:00:00","35.8","8.04","33.40","1884.47","1.32","ND","0.6","139.8","25.9","58.3","0","0"],
    [6219,"2011-01-20T22:00:00","57.6","12.59","28.67","1602.24","2.23","ND","0.6","120.2","24.7","64.6","0","0"],
    [6220,"2011-01-20T23:00:00","79.9","13.29","25.12","1435.72","2.23","ND","0.6","344.4","23.4","71.5","0","0"],
    [6221,"2011-01-21T00:00:00","66.1","14.13","23.37","1217.57","1.36","ND","0.2","354.1","23","73.9","0","0"],
    [6222,"2011-01-21T01:00:00","51.1","12.68","21.08","1229.78","1.62","ND","0.1","231.9","23.2","73.6","0","0"],
    [6223,"2011-01-21T02:00:00","33.4","21.36","19.44","1181.44","1.52","ND","0.8","9.7","22.5","78.5","0","0"],
    [6224,"2011-01-21T03:00:00","37.3","27.40","16.17","974.64","1.67","ND","0.4","18.5","21.8","82.6","0","0"],
    [6225,"2011-01-21T04:00:00","31.7","17.25","16.16","907.26","1.20","ND","0.3","263.6","22","80.9","0","0"],
    [6226,"2011-01-21T05:00:00","16.5","15.21","13.45","941.60","2.06","ND","0.4","163","22.1","79.6","0","0"],
    [6227,"2011-01-21T06:00:00","10.5","11.84","16.11","1109.89","0.89","ND","0.1","353.2","21.6","82.2","0","0"],
    [6228,"2011-01-21T07:00:00","40.8","12.27","18.31","1482.62","1.32","ND","0.1","295.8","21.4","83","10.5","0"],
    [6229,"2011-01-21T08:00:00","34.4","12.71","24.77","1837.82","1.71","ND","0.2","246.5","22.1","79.8","81.5","0"],
    [6230,"2011-01-21T09:00:00","46.9","16.01","43.90","2177.83","3.96","ND","0.7","86.2","23.6","71.8","220.6","0"],
    [6231,"2011-01-21T10:00:00","32.7","15.69","49.10","1786.55","20.23","ND","0.3","276.5","24.9","64.9","279.4","0"],
    [6232,"2011-01-21T11:00:00","42.6","23.25","38.03","ND","40.65","ND","1.3","67.7","26.1","62.6","541.1","0"],
    [6233,"2011-01-21T12:00:00","24.8","ND","ND","ND","78.58","ND","0.6","42.4","27.2","58.6","458.9","0"],
    [6234,"2011-01-21T13:00:00","31.7","17.97","ND","ND","101.30","ND","0.4","2.7","28.8","52.6","669.9","0"],
    [6235,"2011-01-21T14:00:00","25.7","41.31","20.16","1522.40","72.68","ND","0.5","347.7","29.3","49.2","474.9","0"],
    [6236,"2011-01-21T15:00:00","31.4","21.93","13.01","967.13","46.23","ND","0.5","295.8","30.1","45.1","417.9","0"],
    [6237,"2011-01-21T16:00:00","17.2","11.06","9.50","922.34","33.14","ND","1.6","288.3","30.7","42","491.7","0"],
    [6238,"2011-01-21T17:00:00","9.3","8.15","8.63","905.87","32.15","ND","4","286.2","29.1","46.1","276.4","0"],
    [6239,"2011-01-21T18:00:00","6.7","8.43","21.08","1194.23","25.12","ND","0.9","278.8","28.6","46.9","91.8","0"],
    [6240,"2011-01-21T19:00:00","34","7.73","35.63","1431.04","12.67","ND","0.3","17.2","27.2","49","2.6","0"],
    [6241,"2011-01-21T20:00:00","19.3","6.56","24.73","1220.86","13.47","ND","0.8","70.2","26.6","52.1","0","0"],
    [6242,"2011-01-21T21:00:00","20.2","12.05","33.59","1747.75","2.32","ND","1.4","123.8","26.1","55.5","0","0"],
    [6243,"2011-01-21T22:00:00","32.6","14.13","29.16","1646.91","2.15","ND","1.3","126.4","24.5","64.3","0","0"],
    [6244,"2011-01-21T23:00:00","46.1","13.67","27.83","1996.07","1.60","ND","0.1","342.5","23.7","68.7","0","0"],
    [6245,"2011-01-22T00:00:00","29.6","12.48","25.03","1629.42","1.33","ND","0.3","316.6","23.4","69.3","0","0"],
    [6246,"2011-01-22T01:00:00","45.8","12.18","21.91","1445.65","1.46","ND","0.5","146.8","23.1","71.4","0","0"],
    [6247,"2011-01-22T02:00:00","24.4","9.98","19.13","1238.66","0.99","ND","0.2","168.3","22.6","73.8","0","0"],
    [6248,"2011-01-22T03:00:00","15.2","10.44","16.80","1180.64","0.84","ND","0.4","196.4","22.3","75.6","0","0"],
    [6249,"2011-01-22T04:00:00","13.6","9.71","13.13","1033.41","1.73","ND","1.2","144.6","22.4","76.8","0","0"],
    [6250,"2011-01-22T05:00:00","10.9","7.73","12.38","929.94","2.29","ND","0.4","155.4","22","80.6","0","0"],
    [6251,"2011-01-22T06:00:00","19.4","7.51","13.70","1086.87","0.48","ND","0.2","270.4","21.5","81.7","0","0"],
    [6252,"2011-01-22T07:00:00","10.4","8.09","14.67","1401.01","0.52","ND","0.1","284.8","20.9","83.2","18.4","0"],
    [6253,"2011-01-22T08:00:00","8","10.66","28.29","1806.85","2.67","ND","0.3","44","22.6","76.3","162.4","0"],
    [6254,"2011-01-22T09:00:00","54.4","20.35","41.03","1644.69","13.77","ND","1.1","62.7","24.1","71.7","345.8","0"],
    [6255,"2011-01-22T10:00:00","43","67.75","33.33","1158.23","25.42","ND","1.3","57.2","25.3","65.4","498.6","0"],
    [6256,"2011-01-22T11:00:00","43.2","28.06","16.07","978.34","49.61","ND","0.8","67.3","26.4","60.1","525.8","0"],
    [6257,"2011-01-22T12:00:00","25.3","25.03","14.24","925.40","57.84","ND","0.8","64.4","27.9","53.5","649.1","0"],
    [6258,"2011-01-22T13:00:00","20.8","28.47","12.04","754.14","72.20","ND","0.7","59.1","28.8","50.7","495.8","0"],
    [6259,"2011-01-22T14:00:00","11.2","28.79","13.65","824.57","62.39","ND","1.2","1.3","29.1","50.2","485.6","0"],
    [6260,"2011-01-22T15:00:00","9.9","16.44","7.58","687.25","35.62","ND","1.8","344.4","30","46.6","541.1","0"],
    [6261,"2011-01-22T16:00:00","5.8","8.33","5.93","770.31","30.71","ND","1.4","316.8","30.6","42.6","401.6","0"],
    [6262,"2011-01-22T17:00:00","10.6","5.94","6.12","742.54","23.87","ND","3.5","290.2","28.8","47.3","211.5","0"],
    [6263,"2011-01-22T18:00:00","14.5","6.45","11.23","881.76","19.30","ND","1.5","254.8","28.8","45.8","97.2","0"],
    [6264,"2011-01-22T19:00:00","8.9","7.24","22.71","1131.74","6.98","ND","0.3","176.5","27.4","49.7","1.4","0"],
    [6265,"2011-01-22T20:00:00","13.3","10.43","31.61","1738.57","1.60","ND","0.2","326.1","26.5","54.2","0","0"],
    [6266,"2011-01-22T21:00:00","38.9","12.96","29.63","1747.17","1.91","ND","0.9","88.6","26","59.2","0","0"],
    [6267,"2011-01-22T22:00:00","51.9","14.72","26.27","1832.36","1.96","ND","0.3","107.8","24.9","64.5","0","0"],
    [6268,"2011-01-22T23:00:00","64.6","15.26","23.67","1519.57","1.98","ND","0.4","46.7","24.2","67.7","0","0"],
    [6269,"2011-01-23T00:00:00","34.7","15.46","21.91","1358.70","1.84","ND","0.4","96.7","24","70.2","0","1.52"],
    [6270,"2011-01-23T01:00:00","24.7","11.23","18.20","1312.85","3.20","ND","0.4","343.2","21.4","90.3","0","7.87"],
    [6271,"2011-01-23T02:00:00","27.4","7.18","12.22","1061.69","5.49","ND","0.9","272.4","20.8","92.8","0","11.68"],
    [6272,"2011-01-23T03:00:00","14.8","6.34","13.80","1097.07","3.72","ND","0.2","123.3","21.2","92.8","0","0.25"],
    [6273,"2011-01-23T04:00:00","8.6","5.61","15.30","1130.61","1.98","ND","0.1","299.3","21.1","93.3","0","0"],
    [6274,"2011-01-23T05:00:00","14.9","5.66","10.33","1062.05","1.14","ND","0.2","268.4","20.9","93.6","0","0"],
    [6275,"2011-01-23T06:00:00","9.7","5.39","10.60","1026.06","0.75","ND","0.2","304.3","20.3","92.2","0","0"],
    [6276,"2011-01-23T07:00:00","12.8","6.04","11.27","1231.11","1.37","ND","0.1","183.3","20.8","90.9","20.6","0"],
    [6277,"2011-01-23T08:00:00","17.8","7.36","13.76","1292.41","2.47","ND","0.4","195.7","21.9","84.7","112.7","0"],
    [6278,"2011-01-23T09:00:00","10.9","7.29","15.03","1195.62","6.59","ND","1.1","195.8","23.2","76","288.8","0"],
    [6279,"2011-01-23T10:00:00","8","9.15","17.80","1146.76","24.24","ND","0.8","150.7","25.3","67.5","549","0"],
    [6280,"2011-01-23T11:00:00","5.4","11.11","14.36","1058.91","33.52","ND","1.2","143","26.4","63.9","556.8","0"],
    [6281,"2011-01-23T12:00:00","3.5","11.23","10.97","981.61","62.13","ND","0.3","163.4","27.4","58.7","675.9","0"],
    [6282,"2011-01-23T13:00:00","14.3","10.26","11.22","987.82","79.67","ND","0.7","138.2","29.3","50.5","756.6","0"],
    [6283,"2011-01-23T14:00:00","9.5","11.22","11.89","990.10","111.76","ND","0.9","43.4","30","49","706.2","0"],
    [6284,"2011-01-23T15:00:00","21.3","23.53","10.17","862.26","66.47","ND","1.9","283.5","30.1","48.3","546.2","0"],
    [6285,"2011-01-23T16:00:00","13","15.14","6.79","805.59","54.60","ND","1.2","318.5","30.7","44.3","485.3","0"],
    [6286,"2011-01-23T17:00:00","8","10.25","7.20","861.40","39.28","ND","2.7","284.5","29.8","45.9","286.5","0"],
    [6287,"2011-01-23T18:00:00","18.1","7.71","8.97","856.85","32.83","ND","2.5","274.7","28.2","49.1","71.8","0"],
    [6288,"2011-01-23T19:00:00","11.4","6.86","25.46","1269.47","14.91","ND","0.5","82.7","27.2","52.6","1.1","0"],
    [6289,"2011-01-23T20:00:00","7.8","8.12","40.86","1613.00","3.87","ND","0.4","95.2","26.7","54.2","0","0"],
    [6290,"2011-01-23T21:00:00","32.5","10.58","40.48","1998.04","1.79","ND","0.5","99.3","25.7","59.6","0","0"],
    [6291,"2011-01-23T22:00:00","18.3","7.99","15.78","1294.10","11.48","ND","2.5","228","24.9","63.5","0","0"],
    [6292,"2011-01-23T23:00:00","22","6.29","21.75","1415.31","4.71","ND","0.6","287.1","23.9","68","0","0"],
    [6293,"2011-01-24T00:00:00","17.6","6.98","24.45","1481.29","1.07","ND","0.3","11.4","23.4","71.4","0","0"],
    [6294,"2011-01-24T01:00:00","19.3","10.89","20.47","1317.76","1.79","ND","0.4","1.4","22.5","76.9","0","0"],
    [6295,"2011-01-24T02:00:00","17.9","12.25","18.77","1282.37","2.74","ND","0.5","6.1","22.2","78.7","0","0"],
    [6296,"2011-01-24T03:00:00","9.8","8.95","15.99","1157.54","2.06","ND","0.5","262.8","22.2","78.2","0","0"],
    [6297,"2011-01-24T04:00:00","5.5","6.69","13.57","1156.36","1.42","ND","0","256.1","21.9","80.2","0","0"],
    [6298,"2011-01-24T05:00:00","4.3","6.06","14.13","1155.19","0.80","ND","0.2","211","21.6","81.1","0","0"],
    [6299,"2011-01-24T06:00:00","3.5","6.27","18.26","1212.64","0.47","ND","0","186.8","21.8","79.1","0","0"],
    [6300,"2011-01-24T07:00:00","13.2","9.77","20.26","1574.76","0.45","ND","0","183.1","21.7","80.6","13.1","0"],
    [6301,"2011-01-24T08:00:00","9.2","10.66","27.35","2136.40","3.41","ND","0.2","151.2","22.6","76.9","143","0"],
    [6302,"2011-01-24T09:00:00","25.6","11.13","42.45","2239.36","11.02","ND","0.6","77.9","24.2","70.5","305.5","0"],
    [6303,"2011-01-24T10:00:00","31.7","11.49","36.80","1823.35","27.54","ND","0.6","94.2","25.3","66.6","514.5","0"],
    [6304,"2011-01-24T11:00:00","33.2","10.05","17.82","1348.91","42.24","ND","1.6","121.2","26.9","57.2","652.2","0"],
    [6305,"2011-01-24T12:00:00","17.3","10.27","14.06","1157.14","58.89","ND","1.5","106","28","53.7","588.7","0"],
    [6306,"2011-01-24T13:00:00","31","9.85","12.41","1172.59","80.60","ND","0.1","36.8","29","50","653.9","0"],
    [6307,"2011-01-24T14:00:00","47.9","17.63","13.86","1082.58","88.69","ND","0.8","331.8","29.8","48.5","692.5","0"],
    [6308,"2011-01-24T15:00:00","25.1","11.13","10.39","1036.01","36.13","ND","1.8","348.6","29.8","46.6","396.9","0"],
    [6309,"2011-01-24T16:00:00","15.6","6.53","7.16","1048.35","34.52","ND","3.2","288.7","30","45.9","524.5","0"],
    [6310,"2011-01-24T17:00:00","24.5","7.82","14.03","1209.02","32.82","ND","3.2","275.3","29.4","46.6","257.8","0"],
    [6311,"2011-01-24T18:00:00","16.5","8.71","23.41","1400.60","28.89","ND","1.9","276.1","28.1","49.3","50.5","0"],
    [6312,"2011-01-24T19:00:00","42.8","6.71","27.24","1409.37","19.95","ND","0.2","122.9","27.5","50.7","1.4","0"],
    [6313,"2011-01-24T20:00:00","23","6.89","33.82","1661.30","8.26","ND","0.6","140.3","27.1","53.4","0","0"],
    [6314,"2011-01-24T21:00:00","35","9.02","36.50","1932.37","4.57","ND","0.2","276.3","26.2","57.2","0","0"],
    [6315,"2011-01-24T22:00:00","53.7","11.84","32.61","1958.33","2.16","ND","0.8","87.2","24.9","64.5","0","0"],
    [6316,"2011-01-24T23:00:00","63.9","10.14","30.69","1702.37","1.31","ND","0.2","293.6","24.2","66.9","0","0"],
    [6317,"2011-01-25T00:00:00","62.7","11.09","24.54","1494.70","1.52","ND","0.1","40.2","23.8","69.1","0","0"],
    [6318,"2011-01-25T01:00:00","37.5","12.86","18.20","1413.88","3.79","ND","0.8","157.3","23.6","71.1","0","0"],
    [6319,"2011-01-25T02:00:00","19.6","8.18","15.05","1229.37","3.69","ND","0","107.2","23.1","74.1","0","0"],
    [6320,"2011-01-25T03:00:00","27.3","7.33","17.10","1227.71","1.09","ND","0.1","322.9","22.7","76.8","0","0"],
    [6321,"2011-01-25T04:00:00","16.2","6.59","14.17","1259.25","1.90","ND","0","344.3","22.1","79.6","0","0"],
    [6322,"2011-01-25T05:00:00","19","6.02","14.32","1236.14","1.40","ND","0","90.8","22","80.1","0","0"],
    [6323,"2011-01-25T06:00:00","12.2","6.96","16.31","1305.51","1.21","ND","0.2","225.7","22.3","79.1","0","0"],
    [6324,"2011-01-25T07:00:00","16.9","8.05","18.37","1646.64","0.58","ND","0.2","279.6","22.4","79.4","16.9","0"],
    [6325,"2011-01-25T08:00:00","27.1","9.52","23.46","2171.96","1.19","ND","0.2","219.7","22.8","76.9","56.1","0"],
    [6326,"2011-01-25T09:00:00","57.4","16.79","38.99","2442.55","4.71","ND","0.3","256.6","23.9","73","237.5","0"],
    [6327,"2011-01-25T10:00:00","30","15.11","26.96","1752.19","11.24","ND","1.4","189.1","24.9","64.5","199.1","0"],
    [6328,"2011-01-25T11:00:00","15.6","10.97","20.93","1414.30","24.58","ND","1.2","170","26.1","59.5","408.9","0"],
    [6329,"2011-01-25T12:00:00","8.6","11.26","13.76","1329.39","58.43","ND","0.4","155.5","27.7","53.7","717.4","0"],
    [6330,"2011-01-25T13:00:00","10.6","9.08","10.19","1172.59","72.53","ND","0.4","222.2","29","50.1","706.3","0"],
    [6331,"2011-01-25T14:00:00","18.9","7.85","10.06","1105.49","56.75","ND","0.8","279.4","29.7","47.9","426.7","0"],
    [6332,"2011-01-25T15:00:00","12.5","5.99","10.65","1128.39","31.07","ND","2.8","255.5","29.6","46.6","431.4","0"],
    [6333,"2011-01-25T16:00:00","8.4","5.80","11.71","1186.95","32.85","ND","3","263.5","29.7","47","416.8","0"],
    [6334,"2011-01-25T17:00:00","12.2","5.37","15.01","1231.46","36.26","ND","2.3","257.1","29.2","48.3","180.2","0"],
    [6335,"2011-01-25T18:00:00","24.5","5.56","24.77","1540.02","28.28","ND","1.7","253.3","28.2","51.6","55.1","0"],
    [6336,"2011-01-25T19:00:00","12.9","5.46","27.81","1661.30","16.76","ND","0.7","244.1","27.1","54.9","1.6","0"],
    [6337,"2011-01-25T20:00:00","29","6.17","33.70","1671.72","8.27","ND","0.4","90.9","26.9","55.1","0","0"],
    [6338,"2011-01-25T21:00:00","24.1","8.63","42.79","2006.74","2.69","ND","1","90.8","27","57.1","0","0"],
    [6339,"2011-01-25T22:00:00","39.3","16.27","29.78","1747.17","3.86","ND","0.9","154.6","26","59.5","0","0"],
    [6340,"2011-01-25T23:00:00","27.3","8.19","10.04","1009.83","16.04","ND","1.9","236.7","25.5","63.1","0","0"],
    [6341,"2011-01-26T00:00:00","28.4","5.76","6.54","922.96","9.76","ND","1.3","229.7","23.4","76.8","0","0"],
    [6342,"2011-01-26T01:00:00","17.8","4.93","5.62","900.78","11.05","ND","0.5","238.8","23.6","76.3","0","0"],
    [6343,"2011-01-26T02:00:00","10.9","5.26","10.84","967.56","4.15","ND","0.7","325.7","23.1","78.7","0","0"],
    [6344,"2011-01-26T03:00:00","25.8","8.34","13.52","942.56","1.63","ND","0.3","354","22.4","81.2","0","0"],
    [6345,"2011-01-26T04:00:00","14","6.31","12.77","942.24","1.32","ND","0.1","269","22.3","81","0","0"],
    [6346,"2011-01-26T05:00:00","15.6","5.73","12.53","940.96","0.93","ND","0.1","272.9","21.9","83.7","0","0"],
    [6347,"2011-01-26T06:00:00","18.3","6.09","12.66","1122.35","0.54","ND","0.1","181.5","21.9","82.5","0","0"],
    [6348,"2011-01-26T07:00:00","21.1","10.31","16.13","1880.65","1.57","ND","0.1","281.4","21.7","83.2","11.5","0"],
    [6349,"2011-01-26T08:00:00","50","12.57","26.14","2089.53","1.77","ND","0.3","63","22.4","79.9","77.2","0"],
    [6350,"2011-01-26T09:00:00","59.9","17.84","45.53","2589.18","3.71","ND","0.4","158.8","23.7","73.3","158.5","0"],
    [6351,"2011-01-26T10:00:00","34.7","13.83","31.08","1718.41","16.03","ND","0.7","124.5","25","65","270.1","0"],
    [6352,"2011-01-26T11:00:00","29.9","11.14","19.47","1220.05","40.73","ND","0.5","101.3","26.4","59.7","596.5","0"],
    [6353,"2011-01-26T12:00:00","24.1","12.41","20.86","1249.30","74.01","ND","0.3","104.1","27.9","55.8","591.5","0"],
    [6354,"2011-01-26T13:00:00","51.4","27.50","24.91","1250.96","66.63","ND","0.8","358.6","28.3","54.2","338.5","0"],
    [6355,"2011-01-26T14:00:00","28.1","14.00","10.27","950.75","25.52","ND","1.5","239.5","28.6","48.4","384.8","0"],
    [6356,"2011-01-26T15:00:00","16.3","7.91","6.26","931.86","25.24","ND","2.4","266.6","30","45.5","708.5","0"],
    [6357,"2011-01-26T16:00:00","9.7","5.99","6.35","931.25","21.77","ND","3.1","279.9","29.8","45.6","521.9","0"],
    [6358,"2011-01-26T17:00:00","8.8","5.83","9.18","927.25","18.17","ND","2.3","284.3","28.5","48.6","215.4","0"],
    [6359,"2011-01-26T18:00:00","6.7","5.97","11.70","1074.35","16.74","ND","2.7","254.4","27.5","51.6","75.4","0"],
    [6360,"2011-01-26T19:00:00","12.4","4.98","16.90","1129.10","8.68","ND","1.4","179","26.7","54.4","1.5","0"],
    [6361,"2011-01-26T20:00:00","15.7","4.35","18.57","1283.08","8.61","ND","2","202.7","25","62.1","0","0"],
    [6362,"2011-01-26T21:00:00","9","7.27","26.00","1321.77","5.25","ND","0.6","64.6","23.4","67.8","0","0"],
    [6363,"2011-01-26T22:00:00","28.2","7.87","23.54","1351.38","7.90","ND","0.4","159.9","22.4","69.3","0","0"],
    [6364,"2011-01-26T23:00:00","22.8","8.20","22.82","1315.53","5.11","ND","0.4","291.9","22","72.8","0","0"],
    [6365,"2011-01-27T00:00:00","24.7","8.17","26.82","1293.28","1.88","ND","0.1","8","22.1","73.4","0","0"],
    [6366,"2011-01-27T01:00:00","13.1","13.50","20.64","1074.45","3.68","ND","0.8","67.6","21.2","79.5","0","0"],
    [6367,"2011-01-27T02:00:00","9.3","10.05","15.45","1072.99","3.97","ND","0.4","285.1","20.8","81.2","0","0"],
    [6368,"2011-01-27T03:00:00","17.3","9.39","16.65","1141.92","2.32","ND","0.2","220.8","21.1","79.7","0","0"],
    [6369,"2011-01-27T04:00:00","29","10.52","17.06","1209.35","1.84","ND","0.3","11.7","21","80.8","0","0"],
    [6370,"2011-01-27T05:00:00","38","30.74","18.98","1150.09","0.91","ND","0.7","3.6","20.3","85","0","0"],
    [6371,"2011-01-27T06:00:00","26.6","27.56","19.18","1273.68","1.10","ND","0.4","9","20.2","85.8","0","0"],
    [6372,"2011-01-27T07:00:00","55.9","22.40","19.15","1667.62","1.10","ND","0.2","47.5","20.1","87.1","4.2","0"],
    [6373,"2011-01-27T08:00:00","78.8","27.60","26.50","1930.06","1.35","ND","0.5","31.5","20.6","84.2","50.2","0"],
    [6374,"2011-01-27T09:00:00","60.3","38.97","26.69","1667.65","6.02","ND","0.1","329","22.1","76.9","281.6","0"],
    [6375,"2011-01-27T10:00:00","31.9","43.71","26.44","1428.65","22.51","ND","0.4","150.8","24.3","64.6","478","0"],
    [6376,"2011-01-27T11:00:00","38.6","30.27","24.42","1299.31","42.43","ND","1.3","120.2","26.1","58.3","659.8","0"],
    [6377,"2011-01-27T12:00:00","21.8","21.29","16.99","1108.64","71.23","ND","1.1","90.5","27.4","54.1","663.2","0"],
    [6378,"2011-01-27T13:00:00","38","18.54","16.89","1100.01","87.85","ND","0.8","122","28.2","52","388.3","0"],
    [6379,"2011-01-27T14:00:00","31.6","27.75","17.87","1090.24","67.83","ND","0.5","268.2","28.7","50.2","431.5","0"],
    [6380,"2011-01-27T15:00:00","17.1","19.54","10.99","976.20","58.43","ND","0.8","338.1","29.3","47.2","286.3","0"],
    [6381,"2011-01-27T16:00:00","9.3","8.99","8.16","988.47","28.29","ND","3.1","283.4","29.5","45.6","473","0"],
    [6382,"2011-01-27T17:00:00","21.3","7.76","11.71","999.11","27.84","ND","2","285.6","29.2","45.9","257.1","0"],
    [6383,"2011-01-27T18:00:00","20.4","7.06","13.84","1063.51","21.31","ND","0.9","329.4","27.7","50.5","75.5","0"],
    [6384,"2011-01-27T19:00:00","11.8","7.78","22.39","1383.49","11.93","ND","0.2","211.6","26.9","50.9","1.7","0"],
    [6385,"2011-01-27T20:00:00","7.5","8.25","25.49","1554.87","5.76","ND","0.8","133.1","26.6","54.9","0","0"],
    [6386,"2011-01-27T21:00:00","32.6","15.30","29.91","1592.39","13.87","ND","1.6","39.4","25","65.8","0","0"],
    [6387,"2011-01-27T22:00:00","33","18.10","31.10","1509.66","13.71","ND","1.4","101","24.5","66.4","0","0"],
    [6388,"2011-01-27T23:00:00","56.6","12.54","33.20","1493.70","6.13","ND","0.5","73.4","23.6","72.8","0","0"],
    [6389,"2011-01-28T00:00:00","45.5","11.83","27.38","1458.01","5.07","ND","0.5","173.9","23.3","74.1","0","0"],
    [6390,"2011-01-28T01:00:00","37.4","12.30","28.36","1375.95","5.40","ND","0.5","348.9","22.8","77.4","0","0"],
    [6391,"2011-01-28T02:00:00","36","18.28","16.68","1156.36","7.77","ND","0.5","21.9","21.9","83.8","0","0"],
    [6392,"2011-01-28T03:00:00","21.4","13.93","19.68","1179.84","7.05","ND","0.5","340.5","22.1","81.2","0","0"],
    [6393,"2011-01-28T04:00:00","11.4","12.78","20.71","1192.39","3.95","ND","0.3","158.9","22.4","78.6","0","0"],
    [6394,"2011-01-28T05:00:00","26.4","12.10","10.35","1066.75","7.80","ND","0.8","181.4","22.2","80.6","0","0"],
    [6395,"2011-01-28T06:00:00","14.7","10.38","12.67","1055.40","3.52","ND","0.6","183.6","22.2","81","0","0"],
    [6396,"2011-01-28T07:00:00","11.8","9.33","16.68","1201.30","2.60","ND","1.3","153.3","21.8","82.9","10.9","0"],
    [6397,"2011-01-28T08:00:00","10.5","7.98","21.89","1529.96","3.51","ND","1.9","134.7","21.8","82.5","98.7","0"],
    [6398,"2011-01-28T09:00:00","6.9","7.19","22.15","1475.80","8.19","ND","1.8","150.3","22.3","79.1","228.5","0"],
    [6399,"2011-01-28T10:00:00","8.8","7.44","22.53","1437.65","21.13","ND","1.2","162.5","23.8","70.9","377.3","0"],
    [6400,"2011-01-28T11:00:00","5.2","7.53","16.41","1296.71","52.72","ND","0.6","236.8","25.5","62.4","572.5","0"],
    [6401,"2011-01-28T12:00:00","3.4","8.01","16.85","1197.83","74.08","ND","0.5","63.3","26.6","58.7","487.6","0"],
    [6402,"2011-01-28T13:00:00","24","11.65","17.64","1247.22","84.86","ND","0.7","253.9","27.4","55.1","344.5","0"],
    [6403,"2011-01-28T14:00:00","17.7","26.03","20.09","1063.86","57.21","ND","2.2","290.8","27.8","53.6","493.2","0"],
    [6404,"2011-01-28T15:00:00","15.3","9.79","8.06","973.94","37.48","ND","1","338.7","28.6","49.2","403.4","0"],
    [6405,"2011-01-28T16:00:00","17.2","6.83","11.60","1041.43","24.20","ND","2.4","289.3","28","50.3","244.5","0"],
    [6406,"2011-01-28T17:00:00","9.2","5.92","12.77","1086.27","24.27","ND","1.6","289.2","27.6","49.5","172.8","0"],
    [6407,"2011-01-28T18:00:00","16","5.86","19.71","1292.12","14.84","ND","0.4","227.7","27.1","51","61.4","0"],
    [6408,"2011-01-28T19:00:00","9.9","6.16","28.90","1530.30","6.01","ND","0.2","125.7","26.3","53.3","1.9","0"],
    [6409,"2011-01-28T20:00:00","11.4","8.01","33.07","1732.77","2.52","ND","0.4","162.8","25.5","56.3","0","0"],
    [6410,"2011-01-28T21:00:00","35.2","4.58","23.81","1431.05","5.53","ND","2.3","180","24.8","61.6","0","0"],
    [6411,"2011-01-28T22:00:00","18.1","5.56","35.54","1826.21","2.31","ND","0.4","198.8","23.9","67.7","0","0"],
    [6412,"2011-01-28T23:00:00","13.2","7.06","28.72","1595.24","0.84","ND","0.3","11.4","23.4","67.3","0","0"],
    [6413,"2011-01-29T00:00:00","17.1","11.83","30.08","1647.75","1.91","ND","1","357.9","22.6","75.2","0","0"],
    [6414,"2011-01-29T01:00:00","25.4","11.33","24.63","1348.63","4.12","ND","0.3","316.9","21.8","79.6","0","0"],
    [6415,"2011-01-29T02:00:00","17","10.68","22.68","1314.63","1.86","ND","0.2","186.8","21.8","77.3","0","0"],
    [6416,"2011-01-29T03:00:00","23.2","10.11","20.19","1303.74","2.72","ND","0.2","321","21.9","76.8","0","0"],
    [6417,"2011-01-29T04:00:00","13.4","9.11","11.74","1165.32","7.75","ND","0.6","87.2","21.3","83.3","0","0"],
    [6418,"2011-01-29T05:00:00","11","8.16","10.30","1185.13","5.07","ND","0.5","155.5","20.6","89.3","0","0"],
    [6419,"2011-01-29T06:00:00","7.7","6.59","13.45","1152.44","2.48","ND","0.1","198.2","20.9","88.2","0","0"],
    [6420,"2011-01-29T07:00:00","10.7","6.94","16.62","1346.80","1.24","ND","0.3","178.8","21.4","84.3","10.9","0"],
    [6421,"2011-01-29T08:00:00","20.3","8.02","20.73","1644.41","2.91","ND","0.9","155.7","22","81.4","54.3","0"],
    [6422,"2011-01-29T09:00:00","24.2","8.34","30.73","2000.03","3.95","ND","1.5","158.7","22.6","79.9","190.9","0"],
    [6423,"2011-01-29T10:00:00","13","8.16","30.93","1840.10","14.74","ND","1.7","137.8","24.3","70","435.6","0"],
    [6424,"2011-01-29T11:00:00","8.5","9.43","25.02","1470.31","43.72","ND","1.6","108.8","25.8","65","638.1","0"],
    [6425,"2011-01-29T12:00:00","6.7","9.53","15.14","1151.37","50.37","ND","0.4","119.2","26.5","60.8","319.9","0"],
    [6426,"2011-01-29T13:00:00","29","9.09","12.68","1111.96","57.22","ND","0.4","214.8","28.3","53","745.2","0"],
    [6427,"2011-01-29T14:00:00","15.8","15.34","14.23","1146.71","53.05","ND","1.6","314.9","28.3","51.6","364.8","0"],
    [6428,"2011-01-29T15:00:00","9.5","9.01","7.78","999.77","37.32","ND","0.9","296.4","29.4","47.2","592.5","0"],
    [6429,"2011-01-29T16:00:00","6.4","6.41","7.37","999.44","39.75","ND","1.5","270.9","29.3","47","366.2","0"],
    [6430,"2011-01-29T17:00:00","15.2","5.00","10.39","1064.92","27.84","ND","2.4","267.1","28.1","49.9","116.1","0"],
    [6431,"2011-01-29T18:00:00","13.7","4.54","11.57","1085.91","27.43","ND","0.8","292.7","27.5","51.3","66.9","0"],
    [6432,"2011-01-29T19:00:00","8.1","5.43","23.87","1498.29","14.17","ND","0.5","241.1","26.8","53.7","3.5","0"],
    [6433,"2011-01-29T20:00:00","6","7.18","36.74","1725.91","4.83","ND","0.5","86.8","26.3","56.1","0","0"],
    [6434,"2011-01-29T21:00:00","27.8","7.55","35.26","2018.30","2.32","ND","0.9","188.4","25.3","60","0","0"],
    [6435,"2011-01-29T22:00:00","14.8","4.82","22.68","1580.94","8.97","ND","2.9","210.5","25","63.1","0","0"],
    [6436,"2011-01-29T23:00:00","39.2","4.78","24.92","1461.95","6.98","ND","0.7","161.7","24.1","68.6","0","0"],
    [6437,"2011-01-30T00:00:00","21.2","5.12","21.93","1455.55","3.64","ND","0.5","24.2","22.8","74.8","0","0"],
    [6438,"2011-01-30T01:00:00","33.5","4.57","17.03","1226.46","5.93","ND","0","295.5","22.4","76.6","0","0"],
    [6439,"2011-01-30T02:00:00","18.8","4.67","16.24","1258.82","4.55","ND","0.6","307.1","22","78.6","0","0"],
    [6440,"2011-01-30T03:00:00","13.9","5.42","18.04","1325.97","3.65","ND","0.3","49.2","21.8","78.7","0","0"],
    [6441,"2011-01-30T04:00:00","9.1","6.55","13.34","1120.45","6.38","ND","0.4","64","21.4","81.2","0","0"],
    [6442,"2011-01-30T05:00:00","29.3","6.07","10.73","1095.58","5.15","ND","0.7","53.6","20.8","85","0","0"],
    [6443,"2011-01-30T06:00:00","15.6","5.42","13.33","1072.62","3.15","ND","0.3","316.9","20.7","85.4","0","0"],
    [6444,"2011-01-30T07:00:00","28","5.38","16.15","1231.95","1.65","ND","0.3","248.1","21","84.2","11.4","0"],
    [6445,"2011-01-30T08:00:00","14.9","6.40","17.27","1246.21","2.37","ND","0.1","171.6","21.7","81.2","54.1","0"],
    [6446,"2011-01-30T09:00:00","8.7","7.62","17.36","1265.65","7.21","ND","0.7","158.8","23.6","71.9","248.4","0"],
    [6447,"2011-01-30T10:00:00","5.5","9.51","18.16","1260.59","21.12","ND","1.9","165.1","25.1","64.6","523","0"],
    [6448,"2011-01-30T11:00:00","16.3","11.45","11.15","1118.70","39.08","ND","1.4","131","27","57.3","679.5","0"],
    [6449,"2011-01-30T12:00:00","9.8","11.06","7.34","1029.85","52.76","ND","1.7","127","28","53.8","656.4","0"],
    [6450,"2011-01-30T13:00:00","5.6","9.60","7.65","985.86","63.22","ND","0.5","128.1","28.7","51","587.3","0"],
    [6451,"2011-01-30T14:00:00","4.9","8.51","8.37","1011.73","76.61","ND","1","8.6","29.5","49.2","479.8","0"],
    [6452,"2011-01-30T15:00:00","3.9","6.92","5.36","988.80","51.97","ND","2.2","274.1","29.6","47.8","442.7","0"],
    [6453,"2011-01-30T16:00:00","3.9","4.42","3.60","942.89","28.71","ND","3.9","278.6","29.8","45.7","519.8","0"],
    [6454,"2011-01-30T17:00:00","3.4","3.86","5.61","942.58","29.16","ND","2.9","269.6","29.7","44.7","313.5","0"],
    [6455,"2011-01-30T18:00:00","2.7","3.47","9.21","1030.54","26.58","ND","2.1","254","28.2","48.6","34","0"],
    [6456,"2011-01-30T19:00:00","8.1","4.60","23.42","1374.71","14.92","ND","0.2","94.7","27.5","50.9","1.6","0"],
    [6457,"2011-01-30T20:00:00","6.3","5.59","30.86","1511.32","6.13","ND","0.7","77.9","27.1","53.9","0","0"],
    [6458,"2011-01-30T21:00:00","15.4","5.60","23.03","1447.82","11.79","ND","1.9","258.5","25.9","59.9","0","0"],
    [6459,"2011-01-30T22:00:00","9.8","6.90","25.64","1536.66","5.09","ND","0.6","94.6","25.3","62.4","0","0"],
    [6460,"2011-01-30T23:00:00","10.2","6.18","24.48","1316.12","4.10","ND","0.2","52.9","24.7","65.1","0","0"],
    [6461,"2011-01-31T00:00:00","21.6","7.68","24.56","1403.90","1.64","ND","0.6","33","23.9","70","0","0"],
    [6462,"2011-01-31T01:00:00","18","8.37","16.57","1261.38","3.97","ND","0.6","339.7","22.6","76.6","0","0"],
    [6463,"2011-01-31T02:00:00","10.3","6.06","13.42","1239.07","3.39","ND","0.3","274.2","22.7","76.2","0","0"],
    [6464,"2011-01-31T03:00:00","6","5.35","11.11","1158.72","4.83","ND","0.3","292.7","22.5","76.6","0","0"],
    [6465,"2011-01-31T04:00:00","4.8","5.83","9.35","1159.89","4.52","ND","0.5","157.5","22.8","75.1","0","0"],
    [6466,"2011-01-31T05:00:00","3.5","6.11","12.59","1113.28","4.50","ND","0.5","117.4","22.5","76.8","0","0"],
    [6467,"2011-01-31T06:00:00","5.5","7.10","16.82","1166.91","1.42","ND","0.6","37","21.7","81.9","0","0"],
    [6468,"2011-01-31T07:00:00","21.7","8.57","18.15","1539.73","2.02","ND","0.4","271.5","21.5","83.9","7.6","0"],
    [6469,"2011-01-31T08:00:00","32.5","10.29","24.09","1942.55","3.23","ND","0.5","149.3","22.5","79.6","60.7","0"],
    [6470,"2011-01-31T09:00:00","28.6","11.64","28.30","2071.71","3.16","ND","0.8","121.8","23.1","77.9","136.6","0"],
    [6471,"2011-01-31T10:00:00","16.8","12.25","25.99","1648.57","16.81","ND","1","126.1","24.8","66.1","396.1","0"],
    [6472,"2011-01-31T11:00:00","10.6","10.02","19.78","1394.56","38.00","ND","1.3","119.3","26.8","56.9","620.4","0"],
    [6473,"2011-01-31T12:00:00","7","9.56","17.36","1259.19","69.77","ND","0.7","48.8","27.5","55.6","380.3","0"],
    [6474,"2011-01-31T13:00:00","34.7","20.31","20.27","1265.47","84.16","ND","0.5","48.1","29","50.9","723.2","0"],
    [6475,"2011-01-31T14:00:00","21.7","16.00","15.73","1152.42","75.53","ND","0.6","55.9","29.8","47.7","450.1","0"],
    [6476,"2011-01-31T15:00:00","36.2","12.55","9.84","1059.99","48.21","ND","0.9","307.5","30","44.4","384.6","0"],
    [6477,"2011-01-31T16:00:00","ND","ND","ND","804.26","39.33","ND","2.8","281.5","30.2","45.7","422.2","0"],
    [6478,"2011-01-31T17:00:00","ND","5.79","14.29","1022.34","ND","ND","2.8","267.1","29.2","47.9","205.9","0"],
    [6479,"2011-01-31T18:00:00","ND","4.96","22.71","1298.15","25.23","ND","0.9","270.4","28.5","49.7","76.2","0"],
    [6480,"2011-01-31T19:00:00","1","6.47","26.32","1513.34","17.55","ND","0.5","234","27.5","51.7","2.9","0"],
    [6481,"2011-01-31T20:00:00","17.1","8.81","36.22","1787.61","6.54","ND","0.2","104.1","27","53.1","0","0"],
    [6482,"2011-01-31T21:00:00","25.6","13.85","42.95","2222.15","1.85","ND","0.3","117.5","26.5","55.5","0","0"],
    [6483,"2011-01-31T22:00:00","44.2","13.65","29.77","1778.67","4.13","ND","0.4","187.5","25.5","59.6","0","0"],
    [6484,"2011-01-31T23:00:00","23.6","11.08","31.79","1771.52","1.49","ND","0.4","337.3","24.3","65.5","0","0"],
    [6485,"2011-02-01T00:00:00","41.7","16.08","24.66","1495.21","2.07","ND","0.3","348.4","23.9","68.5","0","0"],
    [6486,"2011-02-01T01:00:00","27.7","ND","ND","ND","ND","ND","0.6","356.5","23.2","71.5","0","0"],
    [6487,"2011-02-01T02:00:00","45.8","ND","ND","ND","ND","ND","0.5","348.5","22.4","75.8","0","0"],
    [6488,"2011-02-01T03:00:00","45.8","15.45","24.16","1487.65","1.75","ND","0.3","13.4","22.6","74.8","0","0"],
    [6489,"2011-02-01T04:00:00","33.1","14.95","19.50","1329.57","2.88","ND","0.1","340.6","22.3","76","0","0"],
    [6490,"2011-02-01T05:00:00","18.6","12.70","17.67","1271.46","3.15","ND","0.3","247.5","21.8","77.4","0","0"],
    [6491,"2011-02-01T06:00:00","28.5","12.57","20.27","1291.97","1.07","ND","0.2","198.1","21.6","77.8","0","0"],
    [6492,"2011-02-01T07:00:00","22.8","11.09","16.70","1245.79","1.16","ND","0.4","310.5","21.2","80.7","7.5","0"],
    [6493,"2011-02-01T08:00:00","52.6","10.63","17.55","1413.75","1.08","ND","0.7","23","22.3","76.6","110.1","0"],
    [6494,"2011-02-01T09:00:00","50.4","15.37","22.60","2202.34","1.01","ND","0.8","39.8","23.3","75.4","238.2","0"],
    [6495,"2011-02-01T10:00:00","35.6","20.06","30.60","2335.10","2.28","ND","1.1","63.8","24.7","68.6","410.3","0"],
    [6496,"2011-02-01T11:00:00","19.3","25.42","27.51","1682.35","6.67","ND","1.1","68.7","26.1","62.4","461.5","0"],
    [6497,"2011-02-01T12:00:00","22.8","22.78","15.95","1310.81","21.39","ND","1.1","79.9","27.5","55.5","673.8","0"],
    [6498,"2011-02-01T13:00:00","17.6","22.33","14.76","1247.64","34.75","ND","1","162.6","28.7","51.4","565.4","0"],
    [6499,"2011-02-01T14:00:00","31.7","18.81","10.18","1171.43","50.50","ND","1.2","150","29.8","48.3","565","0"],
    [6500,"2011-02-01T15:00:00","33.7","13.92","13.65","1222.26","67.14","ND","1.3","77.1","30.2","47.8","410.9","0"],
    [6501,"2011-02-01T16:00:00","25.9","11.97","15.08","1352.09","90.79","ND","1.3","65.9","29.6","50.2","182","0"],
    [6502,"2011-02-01T17:00:00","31.4","12.16","17.10","1349.42","122.91","ND","0.8","78.6","29.6","50.9","211.2","0"],
    [6503,"2011-02-01T18:00:00","45.2","10.91","14.94","1151.66","71.12","ND","1.5","255.2","28.9","52.1","97","0"],
    [6504,"2011-02-01T19:00:00","50.3","17.87","15.53","1299.87","50.58","ND","1.1","241","27.8","54.5","1.9","0"],
    [6505,"2011-02-01T20:00:00","32.9","14.73","19.56","1457.03","41.58","ND","0.9","252.8","27.1","56.6","0","0"],
    [6506,"2011-02-01T21:00:00","24.8","12.43","33.08","1880.50","24.25","ND","0.5","218","26.3","59.5","0","0"],
    [6507,"2011-02-01T22:00:00","36.2","10.55","23.06","1507.29","27.57","ND","0.3","185.6","25.6","62.3","0","0"],
    [6508,"2011-02-01T23:00:00","19","11.68","44.69","2203.99","5.84","ND","0.1","38.5","24.4","69.5","0","0"],
    [6509,"2011-02-02T00:00:00","33.2","11.92","43.10","2275.17","3.37","ND","0","239.1","23.9","71.4","0","0"],
    [6510,"2011-02-02T01:00:00","17.7","11.59","35.02","2008.83","1.96","ND","0","353.5","23.9","72","0","0"],
    [6511,"2011-02-02T02:00:00","27.3","9.19","32.11","1871.86","2.58","ND","0.3","138.1","23.8","72.1","0","0"],
    [6512,"2011-02-02T03:00:00","15.2","8.19","28.96","1688.67","1.45","ND","0.5","157.2","23.6","73.9","0","0"],
    [6513,"2011-02-02T04:00:00","13.5","8.74","21.05","1493.70","3.22","ND","1.4","182.4","23.6","74.6","0","0"],
    [6514,"2011-02-02T05:00:00","12.4","8.27","15.39","1356.87","5.25","ND","0.8","167.1","23.1","78.5","0","0"],
    [6515,"2011-02-02T06:00:00","36.1","7.99","12.86","1274.90","5.81","ND","0.2","302.1","23","79.3","0","0"],
    [6516,"2011-02-02T07:00:00","39.2","7.26","11.82","1354.12","6.59","ND","0.2","335.6","22.9","79.2","6.3","0"],
    [6517,"2011-02-02T08:00:00","50.4","5.80","15.56","1410.54","3.16","ND","0.1","195","23.5","76.5","67.8","0"],
    [6518,"2011-02-02T09:00:00","63.3","7.01","20.28","1584.38","2.48","ND","0.6","33.4","24.3","74.6","171.7","0"],
    [6519,"2011-02-02T10:00:00","86.9","8.39","25.12","1874.38","4.17","ND","1.1","55.7","25.4","71.4","430.2","0"],
    [6520,"2011-02-02T11:00:00","58.4","19.05","40.77","2328.70","5.95","ND","0.6","133.9","27.6","61.1","545.8","0"],
    [6521,"2011-02-02T12:00:00","85.8","21.96","45.82","2195.64","29.34","ND","1","123.1","28.9","55.5","700.1","0"],
    [6522,"2011-02-02T13:00:00","70.6","26.47","42.74","1868.57","61.31","ND","1.2","65","30.1","52.2","637","0"],
    [6523,"2011-02-02T14:00:00","77.8","28.06","31.07","1759.47","98.18","ND","0.8","348.4","29.8","52.6","269.7","0"],
    [6524,"2011-02-02T15:00:00","62.4","22.84","24.96","1571.48","155.13","ND","0.8","353.8","30.6","49.1","374.1","0"],
    [6525,"2011-02-02T16:00:00","56","26.27","21.91","1423.91","150.76","ND","1.4","327","31.1","46.3","401.7","0"],
    [6526,"2011-02-02T17:00:00","43.7","25.21","16.43","1309.34","86.55","ND","2.9","278.2","30.6","47.2","283.6","0"],
    [6527,"2011-02-02T18:00:00","56.4","24.51","13.20","1295.52","68.17","ND","2.1","270","29.6","48.9","95.2","0"],
    [6528,"2011-02-02T19:00:00","30.5","13.73","12.91","1267.99","47.27","ND","0.2","131.3","28.6","51.5","4.6","0"],
    [6529,"2011-02-02T20:00:00","52.4","11.77","21.20","1391.34","44.45","ND","0.4","191.7","27.9","53.3","0","0"],
    [6530,"2011-02-02T21:00:00","59.5","10.74","29.10","1712.00","29.84","ND","1.2","132.4","27.3","56.5","0","0"],
    [6531,"2011-02-02T22:00:00","54.6","11.20","37.88","1985.65","9.97","ND","0.5","134.1","25.6","64.8","0","0"],
    [6532,"2011-02-02T23:00:00","35.2","13.57","39.95","2181.04","4.72","ND","0.2","187.5","24.7","69.2","0","0"],
    [6533,"2011-02-03T00:00:00","30","13.72","31.40","2151.57","3.00","ND","0.2","179.7","24","71.5","0","0"],
    [6534,"2011-02-03T01:00:00","27.1","11.93","29.34","2386.28","2.64","ND","0.1","275","23.4","73.4","0","0"],
    [6535,"2011-02-03T02:00:00","28","11.81","27.80","2210.55","2.11","ND","0.4","58.3","22.9","77.2","0","0"],
    [6536,"2011-02-03T03:00:00","15.7","9.16","25.98","1763.18","2.65","ND","0.4","349.4","22.4","80.7","0","0"],
    [6537,"2011-02-03T04:00:00","31.4","7.84","22.25","1635.28","2.02","ND","0","265.3","22.5","80.4","0","0"],
    [6538,"2011-02-03T05:00:00","27.7","8.65","19.57","1533.60","1.63","ND","0","244.3","22.5","80.9","0","0"],
    [6539,"2011-02-03T06:00:00","33.7","6.39","18.96","1510.88","1.58","ND","0.1","193.4","22.8","79.5","0","0"],
    [6540,"2011-02-03T07:00:00","19","6.01","16.94","1512.41","1.71","ND","0.2","242.1","22.8","79.3","11","0"],
    [6541,"2011-02-03T08:00:00","53.8","6.94","18.73","1739.84","1.75","ND","1","27.4","22.8","80.8","113.7","0"],
    [6542,"2011-02-03T09:00:00","58.7","8.04","21.95","1967.27","1.09","ND","0.1","132.5","24.3","74.3","285.6","0"],
    [6543,"2011-02-03T10:00:00","44.8","13.65","29.76","2594.42","2.35","ND","1.9","200.2","26.1","64","455.7","0"],
    [6544,"2011-02-03T11:00:00","29.8","19.25","38.34","2207.69","7.25","ND","1.7","129.9","28.1","56.9","641.4","0"],
    [6545,"2011-02-03T12:00:00","22.9","18.90","26.20","1759.44","23.44","ND","2.1","115.3","28.8","55.2","691.8","0"],
    [6546,"2011-02-03T13:00:00","25.6","13.88","19.80","1577.89","44.72","ND","0.8","47.7","29.4","53.1","515.9","0"],
    [6547,"2011-02-03T14:00:00","39.4","13.27","13.67","1336.90","62.47","ND","1","327.5","30.9","46.9","691.6","0"],
    [6548,"2011-02-03T15:00:00","27.1","12.00","12.31","1320.17","74.77","ND","3.7","277.4","31","44.8","628.9","0"],
    [6549,"2011-02-03T16:00:00","35.3","9.03","8.63","1192.05","52.69","ND","3.1","280.1","30.4","45.7","362.5","0"],
    [6550,"2011-02-03T17:00:00","19.7","6.16","8.74","1248.01","32.65","ND","2.6","274.6","29.9","46.2","207.8","0"],
    [6551,"2011-02-03T18:00:00","24.5","5.35","8.92","1234.31","26.79","ND","1.8","261.1","29.5","46.8","90.5","0"],
    [6552,"2011-02-03T19:00:00","18.9","5.40","10.44","1290.83","23.80","ND","1.8","286.4","28.2","50.3","3.1","0"],
    [6553,"2011-02-03T20:00:00","35.3","5.72","15.42","1493.70","17.08","ND","0.4","62.4","27.9","52.6","0","0"],
    [6554,"2011-02-03T21:00:00","27.8","5.24","13.10","1469.08","16.62","ND","0.3","141.9","27.3","55.3","0","0"],
    [6555,"2011-02-03T22:00:00","46.6","7.08","24.62","1673.95","6.29","ND","0.9","117.5","25.9","64","0","0"],
    [6556,"2011-02-03T23:00:00","41.3","7.49","25.88","1872.98","4.35","ND","0.1","25.1","25.1","67.1","0","0"],
    [6557,"2011-02-04T00:00:00","37.4","10.85","26.62","2120.08","3.10","ND","0.5","176.4","24.6","68.8","0","0"],
    [6558,"2011-02-04T01:00:00","21.2","10.13","25.88","2082.21","2.76","ND","0.2","179.5","23.9","72.4","0","0"],
    [6559,"2011-02-04T02:00:00","32.8","10.39","23.27","1917.52","2.37","ND","0.4","141.2","23.7","72.8","0","0"],
    [6560,"2011-02-04T03:00:00","17.2","8.79","22.30","1665.29","2.77","ND","0.2","24.3","23.1","75.5","0","0"],
    [6561,"2011-02-04T04:00:00","30.2","8.07","15.91","1582.24","4.89","ND","0.2","219.8","23.1","76.2","0","0"],
    [6562,"2011-02-04T05:00:00","28","6.93","13.72","1263.52","4.48","ND","0.2","261.6","22.7","78.9","0","0"],
    [6563,"2011-02-04T06:00:00","27.6","6.58","16.13","1420.96","2.03","ND","0.2","9.5","22.5","79.6","0","0"],
    [6564,"2011-02-04T07:00:00","39.4","6.03","12.61","1374.56","2.20","ND","0.5","15.5","22.2","82","4.4","0"],
    [6565,"2011-02-04T08:00:00","68.4","6.02","13.68","1384.51","1.65","ND","0.4","96.2","22.8","79.2","72.5","0"],
    [6566,"2011-02-04T09:00:00","64.8","9.57","17.65","1819.44","1.60","ND","0.6","252.7","23.3","80.3","134.1","0"],
    [6567,"2011-02-04T10:00:00","52","14.07","24.38","2187.02","3.30","ND","0.8","141.1","25.9","67.1","484.2","0"],
    [6568,"2011-02-04T11:00:00","30","12.33","33.38","2930.12","4.66","ND","1.8","143.7","27.7","58.1","585.8","0"],
    [6569,"2011-02-04T12:00:00","37.6","14.99","50.84","2520.05","18.93","ND","0.9","144.2","28.2","55.4","471.8","0"],
    [6570,"2011-02-04T13:00:00","31.1","ND","ND","ND","36.95","ND","0.6","248.6","29.7","51.1","560","0"],
    [6571,"2011-02-04T14:00:00","37.3","14.35","ND","1070.58","59.24","ND","3.2","283.4","29.5","50.3","455.6","0"],
    [6572,"2011-02-04T15:00:00","29.2","10.72","15.22","1325.71","81.05","ND","4.4","278.4","28.8","48.9","310.3","0"],
    [6573,"2011-02-04T16:00:00","34.4","7.70","10.05","1137.01","44.06","ND","2.6","290.3","29.8","44.1","366.5","0"],
    [6574,"2011-02-04T17:00:00","27.6","5.22","6.95","1117.50","25.24","ND","1.5","314.4","29.5","46.9","245.1","0"],
    [6575,"2011-02-04T18:00:00","20","4.73","7.55","1209.42","29.02","ND","1.1","269","28.8","47.8","96.8","0"],
    [6576,"2011-02-04T19:00:00","18.1","5.23","11.92","1345.85","21.17","ND","1.3","223.7","27.6","51.4","3.4","0"],
    [6577,"2011-02-04T20:00:00","28.1","5.02","15.18","1490.73","17.16","ND","2.6","189.7","26.6","56.9","0","0"],
    [6578,"2011-02-04T21:00:00","20.6","5.19","19.24","1589.43","8.80","ND","0.8","245.1","25.7","62.8","0","0"],
    [6579,"2011-02-04T22:00:00","47.9","4.31","18.73","1573.17","5.82","ND","1.3","357.2","24.4","69.1","0","0"],
    [6580,"2011-02-04T23:00:00","36.8","5.62","21.86","1703.52","11.38","ND","1.3","135.4","25","66.9","0","0"],
    [6581,"2011-02-05T00:00:00","30.8","20.49","28.80","1626.76","5.73","ND","1.5","144.9","23.8","73","0","0"],
    [6582,"2011-02-05T01:00:00","17.8","17.17","30.50","1711.49","2.85","ND","0.1","219.6","23.2","75.7","0","0"],
    [6583,"2011-02-05T02:00:00","31.4","13.39","23.83","1639.71","5.89","ND","0.2","333.2","22.9","77.5","0","0"],
    [6584,"2011-02-05T03:00:00","27.9","8.46","22.42","1558.42","3.20","ND","0.2","53.2","23","76.9","0","0"],
    [6585,"2011-02-05T04:00:00","46.2","7.42","25.93","1718.26","2.87","ND","0.4","34.4","22.7","78.2","0","0"],
    [6586,"2011-02-05T05:00:00","33.4","11.80","27.64","1693.78","1.54","ND","0.4","58.8","22.6","79.4","0","0"],
    [6587,"2011-02-05T06:00:00","43.5","15.96","21.82","1568.21","1.99","ND","0.5","36.1","22.1","82.4","0","0"],
    [6588,"2011-02-05T07:00:00","45.6","20.42","20.24","1610.93","2.37","ND","0.2","283","22.1","82.2","26.8","0"],
    [6589,"2011-02-05T08:00:00","66.8","18.22","17.98","1633.62","1.57","ND","0.2","117","23.4","76.7","171.2","0"],
    [6590,"2011-02-05T09:00:00","50.8","14.36","17.10","1640.82","2.15","ND","1.1","116.3","24.8","70.9","226.3","0"],
    [6591,"2011-02-05T10:00:00","56.9","16.47","23.19","1900.43","3.78","ND","0.3","231.2","25.7","66.5","288.7","0"],
    [6592,"2011-02-05T11:00:00","73.2","17.39","30.53","1940.62","12.88","ND","0.4","325.3","25.4","69.5","113.1","2.03"],
    [6593,"2011-02-05T12:00:00","66.6","15.14","24.67","1766.60","31.26","ND","0.2","337","26","68.5","473.8","0"],
    [6594,"2011-02-05T13:00:00","54","14.12","29.10","1804.64","36.64","ND","0.3","205.5","28.7","55.2","509.4","0"],
    [6595,"2011-02-05T14:00:00","31","10.69","25.11","1890.53","47.44","ND","1.3","259.6","30.6","47.1","653.5","0"],
    [6596,"2011-02-05T15:00:00","18","10.62","23.54","1844.07","87.55","ND","1.3","246.8","31.4","44.8","598.2","0"],
    [6597,"2011-02-05T16:00:00","14.8","9.31","14.31","1556.38","74.33","ND","2.7","275.4","30.5","46.9","458.5","0"],
    [6598,"2011-02-05T17:00:00","17.4","7.66","10.03","1400.10","63.78","ND","3.9","284.3","29.6","48.6","285.8","0"],
    [6599,"2011-02-05T18:00:00","24.4","5.80","7.63","1174.92","31.15","ND","1.1","293.3","29.2","49.6","107","0"],
    [6600,"2011-02-05T19:00:00","22.2","4.94","7.07","1196.61","34.31","ND","0.4","343.7","28","52.8","3.8","0"],
    [6601,"2011-02-05T20:00:00","29.4","5.35","11.53","1377.00","38.61","ND","0.6","215.9","27","56.1","0","0"],
    [6602,"2011-02-05T21:00:00","19","5.51","17.37","1453.15","29.16","ND","0.5","37.6","26.5","58.6","0","0"],
    [6603,"2011-02-05T22:00:00","28.3","6.35","31.54","1796.14","11.14","ND","0.7","118.4","25.7","62.9","0","0"],
    [6604,"2011-02-05T23:00:00","15.5","9.88","33.30","1963.59","7.28","ND","0.4","329.1","24.1","70.8","0","0"],
    [6605,"2011-02-06T00:00:00","14.8","10.29","30.33","2101.55","4.46","ND","0.2","290","24.2","70.2","0","0"],
    [6606,"2011-02-06T01:00:00","17.3","9.75","22.99","1873.75","2.29","ND","0.3","328.1","24.1","72.2","0","0"],
    [6607,"2011-02-06T02:00:00","27.4","8.44","24.26","1873.12","1.68","ND","0.6","68.1","23.5","76.2","0","0"],
    [6608,"2011-02-06T03:00:00","19.2","7.93","22.92","1721.16","2.15","ND","0.2","300","23.1","78.2","0","0"],
    [6609,"2011-02-06T04:00:00","28.2","11.12","18.83","1650.54","3.31","ND","0.4","247.1","22.8","79.6","0","0"],
    [6610,"2011-02-06T05:00:00","23.3","8.95","19.97","1614.75","2.03","ND","1.5","171.8","22.7","82.6","0","0"],
    [6611,"2011-02-06T06:00:00","15.5","11.23","18.20","1568.74","3.00","ND","0.5","161.1","22.8","81.9","0","0"],
    [6612,"2011-02-06T07:00:00","9.8","12.35","13.20","1421.44","4.38","ND","0.2","138.1","22.1","87.8","0.7","1.02"],
    [6613,"2011-02-06T08:00:00","4.9","9.57","11.10","1406.73","5.15","ND","0.1","135.7","21.6","93.7","34.4","2.54"],
    [6614,"2011-02-06T09:00:00","5","7.90","14.13","1574.23","4.66","ND","0.6","353.1","21.9","93.5","58.3","0"],
    [6615,"2011-02-06T10:00:00","16","6.09","16.01","1564.49","5.07","ND","1.2","45.4","22.3","91.5","169.5","0"],
    [6616,"2011-02-06T11:00:00","16.7","5.58","19.45","1691.49","4.06","ND","1.2","3.4","23","86.6","213.1","0"],
    [6617,"2011-02-06T12:00:00","48.6","6.19","18.05","1684.12","6.18","ND","1.1","43.7","24.2","79.3","312","0"],
    [6618,"2011-02-06T13:00:00","26.7","22.00","24.33","1610.97","4.87","ND","0.8","28.2","25.9","68.6","469.5","0"],
    [6619,"2011-02-06T14:00:00","15.3","85.68","31.76","1459.32","8.38","ND","0.2","62","27.5","61.2","497.6","0"],
    [6620,"2011-02-06T15:00:00","10.9","61.11","16.60","1420.92","24.89","ND","2.3","272.6","26.7","65.6","346.2","0"],
    [6621,"2011-02-06T16:00:00","6.6","31.96","9.93","1371.05","37.60","ND","2.2","270.4","27.6","58.2","301.2","0"],
    [6622,"2011-02-06T17:00:00","6.2","14.46","9.56","1432.95","25.28","ND","1.2","252.3","27.4","58","146.2","0"],
    [6623,"2011-02-06T18:00:00","12.4","10.06","3.85","1258.77","14.16","ND","1.6","259.6","26.7","59.8","45.6","0"],
    [6624,"2011-02-06T19:00:00","7.2","12.28","6.91","1348.01","13.70","ND","1","230.6","26","61","3","0"],
    [6625,"2011-02-06T20:00:00","7.8","10.86","11.41","1482.79","10.87","ND","1.8","171","25.2","66","0","0"],
    [6626,"2011-02-06T21:00:00","16.3","9.28","13.51","1708.10","8.60","ND","1","308","23.9","79.6","0","0"],
    [6627,"2011-02-06T22:00:00","37.2","6.60","17.83","1632.17","5.81","ND","1","11.8","23.1","83.6","0","0"],
    [6628,"2011-02-06T23:00:00","20.2","7.81","31.55","1980.65","4.00","ND","0.4","322.8","22.8","84.8","0","0"],
    [6629,"2011-02-07T00:00:00","11.5","8.61","25.28","1773.95","5.65","ND","0.6","9","22.8","84.1","0","0"],
    [6630,"2011-02-07T01:00:00","19.5","7.00","18.43","1614.75","6.56","ND","0.8","18.1","22.4","86.1","0","0"],
    [6631,"2011-02-07T02:00:00","20.5","7.48","16.52","1533.08","8.35","ND","0.6","127.2","21","93.8","0","16.26"],
    [6632,"2011-02-07T03:00:00","19","8.84","16.91","1480.60","6.00","ND","0.7","113.6","20.1","96.8","0","19.81"],
    [6633,"2011-02-07T04:00:00","10.6","8.71","10.32","1374.66","9.80","ND","0.1","160.9","19.8","98.3","0","24.38"],
    [6634,"2011-02-07T05:00:00","7","6.77","4.77","1294.46","10.60","ND","0.2","152.2","19.7","99.1","0","12.19"],
    [6635,"2011-02-07T06:00:00","5.5","6.49","3.70","1204.00","8.54","ND","0","188","19.9","98.4","0","3.56"],
    [6636,"2011-02-07T07:00:00","3.5","5.64","3.85","1283.64","7.79","ND","0.2","42.4","20.1","98.3","1.6","5.59"],
    [6637,"2011-02-07T08:00:00","10","4.74","7.91","1340.86","4.50","ND","0.2","289.2","20","98.8","19.3","8.64"],
    [6638,"2011-02-07T09:00:00","11","6.34","18.70","1824.74","1.22","ND","0.5","49.5","20.3","95.9","87.6","0.51"],
    [6639,"2011-02-07T10:00:00","10.9","7.22","22.58","2209.98","1.16","ND","0.2","18.8","21.3","92.7","173.3","0.51"],
    [6640,"2011-02-07T11:00:00","9.7","6.47","24.29","2059.12","2.13","ND","0.4","175.9","21.9","88.6","175.1","1.52"],
    [6641,"2011-02-07T12:00:00","10.4","6.38","27.03","1927.27","4.37","ND","1","131.8","21.8","88","181.9","3.05"],
    [6642,"2011-02-07T13:00:00","5.2","7.08","37.10","2368.61","5.42","ND","0.1","3.5","22.3","83.6","264.5","1.02"],
    [6643,"2011-02-07T14:00:00","2.6","7.40","31.78","2134.23","12.41","ND","0.5","48.2","22.5","84.4","292.7","1.27"],
    [6644,"2011-02-07T15:00:00","3.3","5.51","24.19","1840.31","23.14","ND","1","49.1","23","83.6","393.5","0"],
    [6645,"2011-02-07T16:00:00","2.9","6.17","32.57","1934.46","31.67","ND","1.3","40","23.6","83.1","209.1","0"],
    [6646,"2011-02-07T17:00:00","7.9","7.82","24.48","1698.94","37.56","ND","0.5","78","23.7","81.3","71.1","0"],
    [6647,"2011-02-07T18:00:00","37.2","19.23","24.30","1528.42","29.62","ND","0.7","178.9","23.4","81.9","43.1","0.25"],
    [6648,"2011-02-07T19:00:00","30.3","17.46","25.03","1663.61","18.99","ND","0.8","183","22.8","85","1.9","0"],
    [6649,"2011-02-07T20:00:00","36.5","16.67","33.71","2422.13","8.84","ND","0.2","140.7","22.3","87.7","0","0"],
    [6650,"2011-02-07T21:00:00","24.2","15.50","36.86","3394.33","3.93","ND","1","164.5","22.1","86.4","0","0"],
    [6651,"2011-02-07T22:00:00","20.3","13.10","37.58","3993.30","4.24","ND","1.7","156.4","21.5","90","0","0.25"],
    [6652,"2011-02-07T23:00:00","12","13.72","31.55","3815.35","2.66","ND","1.9","169.3","21","90.1","0","0"],
    [6653,"2011-02-08T00:00:00","7.7","10.11","27.20","2949.90","1.72","ND","1.7","164.7","20.6","90.7","0","0"],
    [6654,"2011-02-08T01:00:00","5.2","7.05","23.73","2110.65","3.33","ND","1.3","192.1","20.7","89.9","0","0"],
    [6655,"2011-02-08T02:00:00","3.5","5.14","17.43","1671.03","5.16","ND","0.4","174.7","20.7","90.2","0","0"],
    [6656,"2011-02-08T03:00:00","2.6","4.49","10.38","1490.38","10.13","ND","0.2","164.8","20.5","91.4","0","0"],
    [6657,"2011-02-08T04:00:00","2.9","4.49","8.05","1410.38","6.42","ND","0","277.9","20.5","92.7","0","0"],
    [6658,"2011-02-08T05:00:00","2.3","4.34","7.85","1399.10","6.15","ND","0.3","358.2","20.5","93.3","0","0"],
    [6659,"2011-02-08T06:00:00","7.9","3.82","7.22","1444.23","3.23","ND","0.5","45","20.2","95.8","0","0"],
    [6660,"2011-02-08T07:00:00","18.3","4.05","9.15","1510.39","2.80","ND","0.2","46.4","20.1","96.3","5.9","0"],
    [6661,"2011-02-08T08:00:00","44.3","4.69","14.10","1588.75","1.08","ND","0.2","77.6","20.5","93.9","47.2","0"],
    [6662,"2011-02-08T09:00:00","31.7","6.61","15.01","1884.27","0.72","ND","0.3","157.8","21.7","86.1","198.1","0"],
    [6663,"2011-02-08T10:00:00","41.1","7.90","21.05","2458.44","1.75","ND","1","141.8","23.4","77.4","429.8","0"],
    [6664,"2011-02-08T11:00:00","22.4","6.93","30.18","2449.83","4.65","ND","0.6","150.2","24.7","70.6","354.2","0"],
    [6665,"2011-02-08T12:00:00","15","7.04","40.32","2483.47","21.72","ND","0.7","135.2","25.4","66.6","455.8","0"],
    [6666,"2011-02-08T13:00:00","10","6.64","20.22","1743.66","37.08","ND","0.6","186.3","27","60.8","796.3","0"],
    [6667,"2011-02-08T14:00:00","17.6","6.46","14.13","1614.61","50.87","ND","0.9","114.6","27.9","57.7","531.8","0"],
    [6668,"2011-02-08T15:00:00","23","6.19","16.70","1665.73","78.13","ND","1.6","309.2","27.7","57.1","317.4","0"],
    [6669,"2011-02-08T16:00:00","13.6","5.98","18.81","1653.06","97.98","ND","1","292.1","28.6","51.9","520.2","0"],
    [6670,"2011-02-08T17:00:00","8.4","5.89","19.94","1588.44","68.04","ND","2.7","254.5","28.3","52.6","323.6","0"],
    [6671,"2011-02-08T18:00:00","18.6","5.40","10.19","1482.62","36.31","ND","1.6","238.3","27.3","55","89.4","0"],
    [6672,"2011-02-08T19:00:00","9.8","5.39","12.58","1454.61","29.62","ND","1.1","181.7","25.7","61.3","5.7","0"],
    [6673,"2011-02-08T20:00:00","23.6","5.25","18.54","1699.48","13.08","ND","1.4","200","24.7","67.2","0","0"],
    [6674,"2011-02-08T21:00:00","13.7","5.16","22.20","1854.02","8.74","ND","0.9","208.1","24.1","67.7","0","0"],
    [6675,"2011-02-08T22:00:00","39.8","4.91","28.41","2044.44","7.36","ND","0.3","50.4","23.7","70.2","0","0"],
    [6676,"2011-02-08T23:00:00","44.1","4.28","22.35","1767.95","5.31","ND","0.3","121.7","22.8","77.8","0","4.06"],
    [6677,"2011-02-09T00:00:00","39.6","5.15","23.89","1899.04","2.84","ND","0.8","336.9","21.1","88.5","0","0.51"],
    [6678,"2011-02-09T01:00:00","22.1","6.85","24.16","1899.43","2.91","ND","0.7","155.2","21.4","88.7","0","0"],
    [6679,"2011-02-09T02:00:00","13.2","8.59","23.09","1822.15","3.35","ND","0.9","132.8","20.6","90.8","0","0.25"],
    [6680,"2011-02-09T03:00:00","7.8","6.61","15.31","1636.60","5.72","ND","0.2","121.5","20","94.5","0","2.29"],
    [6681,"2011-02-09T04:00:00","5.6","5.41","9.67","1543.15","6.91","ND","0.9","80.8","19.8","95.7","0","0.25"],
    [6682,"2011-02-09T05:00:00","3.5","4.94","6.40","1384.51","8.12","ND","0.4","313.2","19.8","93.6","0","0"],
    [6683,"2011-02-09T06:00:00","3.5","4.56","6.50","1305.72","9.20","ND","0.3","130.6","20.1","91.4","0","0"],
    [6684,"2011-02-09T07:00:00","4.1","4.46","5.08","1363.39","8.72","ND","0.7","155.3","20.1","93","7.4","0.25"],
    [6685,"2011-02-09T08:00:00","24.3","4.43","10.52","1340.86","3.90","ND","0.7","105.9","20.4","93.4","52.1","0"],
    [6686,"2011-02-09T09:00:00","21.3","5.75","16.24","1646.77","0.75","ND","0.7","147.9","21.2","88.4","137.5","0"],
    [6687,"2011-02-09T10:00:00","11.5","6.52","24.43","2499.51","2.56","ND","1.2","158.4","22.3","82.4","294.5","0"],
    [6688,"2011-02-09T11:00:00","7.4","6.08","29.97","2497.50","4.14","ND","1.9","158.2","23.5","75.8","401.6","0"],
    [6689,"2011-02-09T12:00:00","6.6","6.73","30.73","2336.67","9.63","ND","1.1","156.2","24.8","68.1","426.2","0"],
    [6690,"2011-02-09T13:00:00","5.4","6.07","23.72","2014.92","17.39","ND","0.9","119.4","25.9","64","434.8","0"],
    [6691,"2011-02-09T14:00:00","3.9","6.20","19.99","1735.09","36.81","ND","0.7","105.2","26.5","62.2","414","0"],
    [6692,"2011-02-09T15:00:00","3","6.87","14.69","1623.44","59.34","ND","0.1","254.1","27.4","58.2","556.3","0"],
    [6693,"2011-02-09T16:00:00","3.6","6.47","14.05","1582.12","58.67","ND","0.2","289.6","28","54.5","384.6","0"],
    [6694,"2011-02-09T17:00:00","3.6","6.35","15.09","1620.00","77.56","ND","1.5","273.5","27.5","57.7","147.6","0"],
    [6695,"2011-02-09T18:00:00","13.4","6.34","15.38","1651.96","93.82","ND","1","263.2","26.5","59.9","32.7","0"],
    [6696,"2011-02-09T19:00:00","17.1","5.77","19.91","1761.60","58.16","ND","0.5","264.4","25.3","64.1","1.5","0"],
    [6697,"2011-02-09T20:00:00","44.8","5.85","22.32","1766.01","14.32","ND","0.2","254.9","24.5","70.1","0","0"],
    [6698,"2011-02-09T21:00:00","33.4","7.12","24.26","2630.48","2.98","ND","0.1","285","24.1","71.2","0","0"],
    [6699,"2011-02-09T22:00:00","56.7","11.44","29.89","3780.51","1.58","ND","0.7","199.3","23.4","75.7","0","0"],
    [6700,"2011-02-09T23:00:00","50.3","7.92","30.18","2803.06","1.60","ND","0.3","91.1","22.9","78.4","0","0"],
    [6701,"2011-02-10T00:00:00","61","9.18","23.06","2843.84","2.84","ND","0.2","181.8","22.4","80.6","0","0"],
    [6702,"2011-02-10T01:00:00","37.5","8.65","21.34","2759.54","1.63","ND","0.1","261.5","22.4","81.6","0","0"],
    [6703,"2011-02-10T02:00:00","19.8","7.14","18.97","2373.43","0.78","ND","0.1","9.3","22.3","81.1","0","0"],
    [6704,"2011-02-10T03:00:00","11.7","6.75","17.21","2259.10","1.75","ND","0.3","36.2","21.9","85","0","0"],
    [6705,"2011-02-10T04:00:00","24.9","5.26","15.79","1847.91","0.54","ND","0.1","126.9","21.9","84.9","0","0"],
    [6706,"2011-02-10T05:00:00","13.9","5.99","16.40","1643.85","0.93","ND","0.1","92.7","21.6","86.8","0","0"],
    [6707,"2011-02-10T06:00:00","23.5","4.95","14.60","1698.81","1.65","ND","1.1","150.3","21.7","85.6","0","0"],
    [6708,"2011-02-10T07:00:00","19.3","5.31","13.32","1529.44","1.07","ND","1.1","166.8","21.6","85.9","5.5","0"],
    [6709,"2011-02-10T08:00:00","14.4","6.24","12.55","1540.25","1.13","ND","1.6","159.5","21.3","91.9","55.6","0"],
    [6710,"2011-02-10T09:00:00","8.1","6.37","14.49","1719.70","1.98","ND","1.6","134.2","21.8","89.3","111.4","0"],
    [6711,"2011-02-10T10:00:00","5","6.92","17.78","2198.61","1.77","ND","0.8","111.3","22.4","85.9","170.7","0"],
    [6712,"2011-02-10T11:00:00","4.4","6.29","21.40","2237.16","4.32","ND","0.5","103.7","23.1","82.4","192.1","0"],
    [6713,"2011-02-10T12:00:00","24","5.42","22.68","1912.35","8.93","ND","0.1","16","25","73.3","632.3","0"],
    [6714,"2011-02-10T13:00:00","19.9","5.69","23.81","1844.43","10.03","ND","0.6","58.5","26.2","67.6","449.5","0"],
    [6715,"2011-02-10T14:00:00","18.6","6.79","22.67","1725.33","33.47","ND","0.5","92.2","26.9","64.8","240.1","0"],
    [6716,"2011-02-10T15:00:00","26.4","11.02","18.92","1729.37","66.59","ND","0.6","142.7","27","63.3","188.6","0"],
    [6717,"2011-02-10T16:00:00","52.5","13.98","17.97","1568.48","70.03","ND","1.2","353","26.4","66.3","106.2","0"],
    [6718,"2011-02-10T17:00:00","27.7","16.82","19.43","1749.50","71.83","ND","0.8","229.2","26.4","61.3","71.7","0"],
    [6719,"2011-02-10T18:00:00","26.2","41.15","33.93","1542.33","25.51","ND","0.2","91","26.1","62.4","50.8","0"],
    [6720,"2011-02-10T19:00:00","17.8","26.83","17.98","1678.76","10.68","ND","0.6","33.8","25.2","64.7","2.8","0"],
    [6721,"2011-02-10T20:00:00","52.7","16.02","21.94","1880.06","4.32","ND","0.3","263.6","24.1","70.4","0","0"],
    [6722,"2011-02-10T21:00:00","69","14.42","24.79","2170.08","2.86","ND","0.3","251.6","23.4","74.7","0","0"],
    [6723,"2011-02-10T22:00:00","59.6","15.64","26.38","3122.11","1.41","ND","0.3","192","23.2","74.6","0","0"],
    [6724,"2011-02-10T23:00:00","30.9","15.94","25.27","3894.31","0.76","ND","0.1","348.2","22.4","79.3","0","0"],
    [6725,"2011-02-11T00:00:00","49.9","16.08","25.65","3929.22","0.47","ND","0.2","330.5","21.6","82.2","0","0"],
    [6726,"2011-02-11T01:00:00","45.8","12.28","20.65","3171.10","2.06","ND","0.1","263.5","21","84.8","0","0"],
    [6727,"2011-02-11T02:00:00","49.2","10.29","17.80","2610.83","1.12","ND","0.3","264.8","20.9","84.6","0","0"],
    [6728,"2011-02-11T03:00:00","51.3","9.90","15.36","2711.63","0.39","ND","0.2","21.1","21.4","83.6","0","0"],
    [6729,"2011-02-11T04:00:00","50.2","8.08","13.82","2342.76","0.78","ND","0.3","248.1","21.4","83.9","0","0"],
    [6730,"2011-02-11T05:00:00","29.1","7.82","15.83","2365.39","1.01","ND","0.3","240.2","21.5","83.4","0","0"],
    [6731,"2011-02-11T06:00:00","31.2","8.05","14.76","2128.45","0.58","ND","0.2","280.5","21.4","83","0","0"],
    [6732,"2011-02-11T07:00:00","41.9","9.06","13.92","1957.96","0.70","ND","0.5","164.9","21.5","83.4","3.9","0"],
    [6733,"2011-02-11T08:00:00","40.3","7.90","13.55","1698.23","1.11","ND","1.1","170.1","21.6","85.1","30","0"],
    [6734,"2011-02-11T09:00:00","36.3","11.09","14.49","2446.28","1.53","ND","0.6","158","22.1","83.4","63.9","0"],
    [6735,"2011-02-11T10:00:00","47.6","10.15","15.85","2541.19","1.96","ND","1.6","163.5","22.5","82.3","165.2","0"],
    [6736,"2011-02-11T11:00:00","24.4","10.45","20.25","2783.19","1.81","ND","1.4","163.6","23.7","76.5","311.1","0"],
    [6737,"2011-02-11T12:00:00","39.2","9.60","23.52","2509.34","3.48","ND","1.3","153.1","24.5","73.1","287.8","0"],
    [6738,"2011-02-11T13:00:00","21.2","8.84","29.75","2321.68","11.19","ND","0.4","162.4","26.3","65.1","697.6","0"],
    [6739,"2011-02-11T14:00:00","30.7","8.05","27.03","2025.06","22.23","ND","1.4","170.1","27.1","60.6","364.2","0"],
    [6740,"2011-02-11T15:00:00","32.2","7.97","19.92","1615.15","66.76","ND","1.8","245.6","26.3","62.6","115","0"],
    [6741,"2011-02-11T16:00:00","27.6","7.45","18.10","1679.88","78.60","ND","2.4","164.8","25.2","69.7","107.4","0"],
    [6742,"2011-02-11T17:00:00","28.4","6.56","19.73","1650.78","32.40","ND","0.7","122.1","23.9","73.6","46.6","0"],
    [6743,"2011-02-11T18:00:00","59.4","5.90","30.59","2134.38","4.48","ND","0.2","220.2","24.3","73.3","31.2","0"],
    [6744,"2011-02-11T19:00:00","48.9","5.67","45.23","2251.55","18.89","ND","0.9","135.5","24.7","70.8","1.4","0"],
    [6745,"2011-02-11T20:00:00","69.5","7.22","66.02","2952.69","11.41","ND","0.6","241.1","23.7","75","0","0"],
    [6746,"2011-02-11T21:00:00","45.8","9.18","62.33","3284.96","4.02","ND","0.1","172.2","23.8","74.2","0","0"],
    [6747,"2011-02-11T22:00:00","87","10.36","52.71","3571.31","2.13","ND","1.4","181.9","23.6","79.2","0","0"],
    [6748,"2011-02-11T23:00:00","48.3","11.27","45.89","3682.93","1.95","ND","0.6","154.9","23.2","79.2","0","0"],
    [6749,"2011-02-12T00:00:00","60.4","13.33","40.60","4201.76","2.89","ND","0.5","20.2","22.6","83.1","0","0"],
    [6750,"2011-02-12T01:00:00","69.7","9.56","34.71","3204.59","3.31","ND","0.1","21","22.4","84.8","0","0"],
    [6751,"2011-02-12T02:00:00","44.2","7.27","28.06","2634.62","1.34","ND","0.3","294.1","22.1","84.5","0","0"],
    [6752,"2011-02-12T03:00:00","42.6","7.65","28.22","2620.60","2.20","ND","0.2","276.1","21.8","84.5","0","0"],
    [6753,"2011-02-12T04:00:00","39.4","7.57","23.51","2266.61","0.91","ND","0.2","36.7","21.4","85.6","0","0"],
    [6754,"2011-02-12T05:00:00","29.2","6.96","21.40","2116.41","0.62","ND","0.3","282.2","21.4","88.4","0","0"],
    [6755,"2011-02-12T06:00:00","42.2","6.68","17.58","2071.14","0.78","ND","0.1","256.1","21.5","86.9","0","0"],
    [6756,"2011-02-12T07:00:00","42.3","5.65","16.98","1834.09","1.45","ND","0.2","337.6","21.3","88.1","13","0"],
    [6757,"2011-02-12T08:00:00","52.6","7.32","18.02","1798.90","0.91","ND","0.6","52.4","22.2","84.5","103.9","0"],
    [6758,"2011-02-12T09:00:00","27.2","7.99","17.31","2394.52","1.07","ND","0.6","83.6","23.7","78.2","251.1","0"],
    [6759,"2011-02-12T10:00:00","40.8","10.88","24.32","2155.75","2.74","ND","1.4","110.5","25.5","70.8","559","0"],
    [6760,"2011-02-12T11:00:00","28.1","13.12","24.87","1962.28","8.16","ND","0.8","103.9","26.6","64.4","536","0"],
    [6761,"2011-02-12T12:00:00","15","15.88","22.50","1773.71","27.92","ND","1.2","117.7","27.6","59.4","492.2","0"],
    [6762,"2011-02-12T13:00:00","9","14.09","16.49","1583.18","55.19","ND","0.7","47.5","28","58.5","266.6","0"],
    [6763,"2011-02-12T14:00:00","23.4","9.98","13.72","1365.43","62.04","ND","1","70.4","29","55.2","504.1","0"],
    [6764,"2011-02-12T15:00:00","20.2","7.67","12.94","1358.35","74.28","ND","0.6","85.7","29.5","53.6","259.8","0"],
    [6765,"2011-02-12T16:00:00","27.6","7.55","12.56","1383.86","72.83","ND","1.4","222.2","30.2","50.8","417.4","0"],
    [6766,"2011-02-12T17:00:00","15.4","7.09","13.34","1410.37","77.75","ND","3.2","269.9","29.6","50.5","300.9","0"],
    [6767,"2011-02-12T18:00:00","12.6","6.76","11.70","1430.85","60.58","ND","1.7","255.5","28.8","51.2","99.5","0"],
    [6768,"2011-02-12T19:00:00","21.5","5.33","8.91","1311.04","30.49","ND","0.4","261.4","27.4","55.4","3.5","0"],
    [6769,"2011-02-12T20:00:00","21.3","4.99","15.42","1420.45","24.49","ND","0.1","77.8","26.7","59.3","0","0"],
    [6770,"2011-02-12T21:00:00","21.2","5.35","24.76","1751.26","13.18","ND","0.7","72.8","26","63.1","0","0"],
    [6771,"2011-02-12T22:00:00","52.6","6.99","41.99","2551.78","5.89","ND","1.1","128.6","25.7","66.7","0","0"],
    [6772,"2011-02-12T23:00:00","34.5","8.43","32.79","2216.22","3.42","ND","0.4","111.2","24.4","73.4","0","0"],
    [6773,"2011-02-13T00:00:00","44","9.23","27.99","2298.03","3.72","ND","0.5","96","24.4","72.1","0","0"],
    [6774,"2011-02-13T01:00:00","34.5","8.26","20.83","2000.78","1.98","ND","1.6","234.3","22.4","84.1","0","16.51"],
    [6775,"2011-02-13T02:00:00","26.6","8.94","20.89","2112.24","4.09","ND","0.3","215.7","21.2","93.8","0","15.24"],
    [6776,"2011-02-13T03:00:00","14.5","7.32","12.76","1617.33","7.03","ND","0.4","6.2","21.5","92.7","0","0"],
    [6777,"2011-02-13T04:00:00","11.4","4.84","12.56","1641.62","6.24","ND","0.5","63.2","21.3","92.8","0","0"],
    [6778,"2011-02-13T05:00:00","7.4","4.09","14.36","1606.56","2.52","ND","0.1","219.7","21.1","94.5","0","0.25"],
    [6779,"2011-02-13T06:00:00","7.3","3.88","13.36","1526.33","3.33","ND","0.4","97.9","21","94.7","0","0"],
    [6780,"2011-02-13T07:00:00","12.9","3.93","13.03","1491.90","3.83","ND","0.3","244.7","21.3","95.4","1.6","1.02"],
    [6781,"2011-02-13T08:00:00","7.7","3.83","14.17","1459.48","2.36","ND","0.4","149.9","21.3","94.5","25.9","0.25"],
    [6782,"2011-02-13T09:00:00","4.9","4.09","15.01","1798.90","1.84","ND","0.4","153.3","22.1","91.4","147.1","0"],
    [6783,"2011-02-13T10:00:00","5.6","4.28","15.54","1690.34","5.44","ND","1.7","165.3","22.5","86.9","127.6","0"],
    [6784,"2011-02-13T11:00:00","16.8","4.52","18.38","2010.71","4.50","ND","1.6","155.4","21.6","93.1","137.6","1.78"],
    [6785,"2011-02-13T12:00:00","11","5.26","17.67","1778.08","4.48","ND","0.8","124.1","22.8","88.1","305","0"],
    [6786,"2011-02-13T13:00:00","5.5","5.25","15.70","1751.21","5.22","ND","0.7","98.6","25.3","71.2","684.6","0"],
    [6787,"2011-02-13T14:00:00","2.7","4.93","20.61","1880.69","11.61","ND","1","76.1","26.2","68.4","453.6","0"],
    [6788,"2011-02-13T15:00:00","2.4","4.87","12.92","1621.81","31.56","ND","0.8","323.7","25.8","67.9","273.2","0"],
    [6789,"2011-02-13T16:00:00","1.2","4.81","10.05","1493.29","46.67","ND","3.1","197.4","23.9","74.2","67.9","0.51"],
    [6790,"2011-02-13T17:00:00","3.8","6.24","7.81","1415.31","29.70","ND","1.7","162.6","22.1","81.2","62.6","0.25"],
    [6791,"2011-02-13T18:00:00","2.5","4.80","10.52","1542.86","13.56","ND","0.5","45.8","21.8","83.2","19.8","0"],
    [6792,"2011-02-13T19:00:00","1.8","4.04","15.24","1575.29","12.68","ND","1.2","348.1","21","89","0.4","0.76"],
    [6793,"2011-02-13T20:00:00","15.1","3.70","16.70","1593.62","10.67","ND","0.2","223.1","21","90.4","0","0.25"],
    [6794,"2011-02-13T21:00:00","10.9","3.21","15.59","1491.90","7.92","ND","0.2","326.7","21","92.3","0","0"],
    [6795,"2011-02-13T22:00:00","14.6","4.99","20.68","2305.67","2.69","ND","0.2","227.4","21","91.7","0","0.25"],
    [6796,"2011-02-13T23:00:00","9.5","6.10","19.49","2452.60","1.82","ND","0.1","286.4","20.7","92.7","0","0"],
    [6797,"2011-02-14T00:00:00","15","5.86","16.95","2427.52","1.37","ND","0.6","92","20.7","94.1","0","0"],
    [6798,"2011-02-14T01:00:00","9.6","5.29","14.37","2212.99","1.35","ND","0.2","142.9","20.3","95.2","0","0"],
    [6799,"2011-02-14T02:00:00","11.9","5.70","15.61","2232.53","1.89","ND","0.3","258.3","20.5","94.9","0","0"],
    [6800,"2011-02-14T03:00:00","9.2","3.66","12.95","1669.90","1.62","ND","0.4","359.3","20.7","93.5","0","0"],
    [6801,"2011-02-14T04:00:00","23","3.28","11.79","1524.25","0.89","ND","0.1","81.3","20.6","92.7","0","1.78"],
    [6802,"2011-02-14T05:00:00","13.2","3.49","13.08","1591.46","1.01","ND","0.1","178.2","20.4","95.6","0","0"],
    [6803,"2011-02-14T06:00:00","23.2","4.28","13.48","1748.28","0.52","ND","0","273.8","20.1","95.9","0","0"],
    [6804,"2011-02-14T07:00:00","22.7","5.41","11.11","1735.23","1.41","ND","0.8","358.9","20.2","93.9","7.9","0"],
    [6805,"2011-02-14T08:00:00","32.8","5.26","9.80","1690.73","0.41","ND","0.9","45.6","20.3","96","29.5","0"],
    [6806,"2011-02-14T09:00:00","28.9","6.91","13.03","2052.12","1.39","ND","0.8","38.9","20.8","92.3","123.1","0"],
    [6807,"2011-02-14T10:00:00","44.4","8.63","16.99","2473.52","1.49","ND","0.7","114.9","22.6","82.8","373.8","0"],
    [6808,"2011-02-14T11:00:00","24.7","11.07","24.36","2159.12","4.81","ND","1.4","137","24.7","70.4","703","0"],
    [6809,"2011-02-14T12:00:00","32","14.19","21.90","1876.90","10.94","ND","0.9","213.5","25.7","67.3","472.4","0"],
    [6810,"2011-02-14T13:00:00","18.4","14.00","14.50","1492.79","27.26","ND","0.5","307.1","26.2","63.6","534.8","0"],
    [6811,"2011-02-14T14:00:00","45.8","11.81","16.26","1748.34","46.56","ND","0.7","83","27.7","57.7","523.1","0"],
    [6812,"2011-02-14T15:00:00","26.8","9.02","16.90","1768.66","72.63","ND","0.3","308.4","28.2","54.8","387.8","0"],
    [6813,"2011-02-14T16:00:00","35.3","8.93","14.85","1655.81","84.38","ND","2","266.8","28.5","54","378.7","0"],
    [6814,"2011-02-14T17:00:00","19.5","7.34","12.98","1472.01","76.80","ND","1.2","228.3","27.9","57.5","132.8","2.03"],
    [6815,"2011-02-14T18:00:00","27.1","7.33","17.12","1573.19","78.27","ND","1.5","173.4","24.7","73.3","31.5","0.25"],
    [6816,"2011-02-14T19:00:00","39.9","5.58","16.71","1636.57","22.09","ND","0.1","258.2","25.3","71","2.5","0"],
    [6817,"2011-02-14T20:00:00","48","5.51","25.83","2132.97","20.29","ND","0.6","116.6","25.4","70.5","0","0"],
    [6818,"2011-02-14T21:00:00","44.1","8.71","40.74","3624.98","2.06","ND","0.2","120.8","24.8","72.4","0","0"],
    [6819,"2011-02-14T22:00:00","45.5","11.52","37.08","4098.52","2.27","ND","0.3","151.5","23.9","76.9","0","0"],
    [6820,"2011-02-14T23:00:00","31.6","12.84","33.63","4474.20","2.40","ND","0.4","99","23.8","74.7","0","0"],
    [6821,"2011-02-15T00:00:00","33.2","7.15","21.46","2692.75","3.21","ND","0.2","35.8","23.4","76.6","0","0"],
    [6822,"2011-02-15T01:00:00","17.6","6.10","19.22","2290.31","3.32","ND","0.2","356.8","23","80.7","0","0.76"],
    [6823,"2011-02-15T02:00:00","25.2","4.92","19.38","1911.70","1.70","ND","0.6","195.5","22.1","85.3","0","0.25"],
    [6824,"2011-02-15T03:00:00","14.1","4.80","18.76","1610.93","1.75","ND","0.9","198.8","21.7","82.1","0","0.25"],
    [6825,"2011-02-15T04:00:00","8","4.61","13.97","1925.97","4.97","ND","0.3","304.2","21.3","88.4","0","0"],
    [6826,"2011-02-15T05:00:00","6.1","4.30","5.93","1629.19","9.77","ND","1.6","188.7","20.8","90.6","0","0.25"],
    [6827,"2011-02-15T06:00:00","5.4","3.59","6.94","1649.01","7.27","ND","1.3","169.9","20.7","91.8","0","0"],
    [6828,"2011-02-15T07:00:00","5.6","3.74","5.64","1569.42","7.95","ND","0.2","161.8","20.9","90.9","15.7","0"],
    [6829,"2011-02-15T08:00:00","5.9","3.59","7.97","1480.10","5.63","ND","0.4","350.9","21.4","88.6","86.8","0"],
    [6830,"2011-02-15T09:00:00","6.8","3.81","15.11","1924.01","1.69","ND","0.8","147.6","22.9","80.1","298","0"],
    [6831,"2011-02-15T10:00:00","14","5.13","22.59","2559.45","2.34","ND","1.3","156","24.3","72.1","410.7","0"],
    [6832,"2011-02-15T11:00:00","9.5","4.89","26.49","2457.27","6.97","ND","1","129.5","25.4","68.6","534.8","0"],
    [6833,"2011-02-15T12:00:00","11.6","4.54","29.40","2397.53","28.18","ND","0.6","134.7","26.5","64.2","527.4","0"],
    [6834,"2011-02-15T13:00:00","6.5","4.32","18.25","1980.36","46.76","ND","1","151.6","27.9","57.6","741.4","0"],
    [6835,"2011-02-15T14:00:00","5.2","4.47","15.90","2047.46","66.85","ND","0.2","149.5","28.9","52.6","520.8","0"],
    [6836,"2011-02-15T15:00:00","11.6","4.70","15.82","2019.44","78.73","ND","1.1","55.7","28.1","56.8","153.8","0"],
    [6837,"2011-02-15T16:00:00","20.9","4.55","12.45","1817.31","98.37","ND","0.6","292.2","27.6","59.6","162.1","0"],
    [6838,"2011-02-15T17:00:00","12.1","4.89","17.33","1825.85","72.47","ND","1.7","268.4","28.3","52.3","222","0"],
    [6839,"2011-02-15T18:00:00","8.2","6.78","15.75","1969.10","55.69","ND","1.7","282.4","27","54.2","33.8","0"],
    [6840,"2011-02-15T19:00:00","21.7","5.75","9.58","1799.14","25.90","ND","0.5","160.2","26.3","57.1","2.4","0"],
    [6841,"2011-02-15T20:00:00","25.8","4.55","11.77","1898.50","14.57","ND","0.2","194.6","25.5","60.9","0","0"],
    [6842,"2011-02-15T21:00:00","19.2","4.25","18.94","2203.26","6.01","ND","1","158.4","24.3","74.7","0","0"],
    [6843,"2011-02-15T22:00:00","34.9","5.65","22.59","2468.70","2.53","ND","0.3","167.2","24.1","75.5","0","0"],
    [6844,"2011-02-15T23:00:00","19.9","5.54","20.90","2421.35","3.91","ND","0.2","294.6","24.1","74.8","0","0"],
    [6845,"2011-02-16T00:00:00","24.6","5.07","21.89","2512.72","2.78","ND","1.7","114.1","23.4","78.4","0","0.25"],
    [6846,"2011-02-16T01:00:00","13.1","5.73","23.44","2700.51","0.96","ND","0.8","145.4","20.6","94","0","7.87"],
    [6847,"2011-02-16T02:00:00","8.6","5.01","16.63","2246.10","2.38","ND","0.7","172.3","20.5","93.6","0","5.59"],
    [6848,"2011-02-16T03:00:00","5.2","3.66","8.94","1827.86","7.54","ND","0.1","279.1","20.4","95.7","0","3.05"],
    [6849,"2011-02-16T04:00:00","4.2","3.38","7.97","1714.44","6.72","ND","0.1","162.2","20.4","94.8","0","0.76"],
    [6850,"2011-02-16T05:00:00","4.1","2.79","6.64","1804.68","3.94","ND","0.2","233","20.5","95.7","0","0.25"],
    [6851,"2011-02-16T06:00:00","3.2","2.86","7.48","1613.48","3.59","ND","0.3","278.7","20.3","93.9","0","0"],
    [6852,"2011-02-16T07:00:00","12.2","2.94","7.34","1792.79","3.77","ND","0.2","30.3","20.5","94.7","12.6","0"],
    [6853,"2011-02-16T08:00:00","27.5","3.79","11.45","1963.26","1.24","ND","0.8","136.8","21","93.5","66.9","0"],
    [6854,"2011-02-16T09:00:00","38.3","5.17","13.53","2554.32","1.39","ND","0.8","119.8","21.5","91.6","95.1","0"],
    [6855,"2011-02-16T10:00:00","38.4","7.07","17.48","3000.20","3.67","ND","1.4","172.8","22.1","85.8","130.8","0"],
    [6856,"2011-02-16T11:00:00","21.4","6.77","27.83","3131.11","3.65","ND","1.1","135.6","23.3","78.7","292.4","0"],
    [6857,"2011-02-16T12:00:00","14.4","7.63","28.75","2916.02","3.63","ND","1.8","132.4","24.8","71.7","615.8","0"],
    [6858,"2011-02-16T13:00:00","9.1","6.91","32.94","2907.89","10.71","ND","1.2","143.8","26.2","64.6","783.9","0"],
    [6859,"2011-02-16T14:00:00","6.7","6.81","26.89","2415.46","32.49","ND","0.7","45.8","26.7","62.4","435.1","0"],
    [6860,"2011-02-16T15:00:00","5.1","5.59","13.79","2016.25","51.08","ND","1.6","279.1","27","60.1","399.7","0"],
    [6861,"2011-02-16T16:00:00","16.8","5.86","11.51","1845.27","74.68","ND","0.9","32.6","26.3","61.7","178.9","0"],
    [6862,"2011-02-16T17:00:00","ND","4.79","11.92","1829.46","44.92","ND","0.5","175.7","25.7","59.6","70.6","0"],
    [6863,"2011-02-16T18:00:00","21.6","14.81","12.52","1538.72","20.52","ND","0.5","2.5","25.3","61.8","58.3","0"],
    [6864,"2011-02-16T19:00:00","20.7","ND","ND","ND","11.00","ND","0.2","358.7","23.7","73.4","1.2","0"],
    [6865,"2011-02-16T20:00:00","28.4","ND","ND","ND","ND","ND","2.1","206.8","23.6","71.2","0","0"],
    [6866,"2011-02-16T21:00:00","32.1","12.18","24.22","ND","10.72","ND","1.5","175.5","23.4","75.9","0","0"],
    [6867,"2011-02-16T22:00:00","18.3","11.96","25.95","ND","4.18","ND","1.1","340.6","22.4","84.8","0","0"],
    [6868,"2011-02-16T23:00:00","32","8.16","22.59","ND","7.43","ND","0.3","259.2","22.3","84.6","0","0"],
    [6869,"2011-02-17T00:00:00","16.8","8.00","22.40","ND","6.03","ND","0.3","245.6","22.2","84.1","0","0"],
    [6870,"2011-02-17T01:00:00","29","6.72","20.06","ND","5.37","ND","0.2","324","22","82.8","0","0"],
    [6871,"2011-02-17T02:00:00","16.6","6.95","17.90","ND","4.23","ND","0.3","254.9","21.9","82.8","0","0"],
    [6872,"2011-02-17T03:00:00","17.2","6.92","18.04","ND","3.79","ND","0.4","126.8","21.9","85.3","0","0"],
    [6873,"2011-02-17T04:00:00","9.6","7.00","15.41","ND","4.41","ND","0.6","2.2","21.2","91.5","0","0"],
    [6874,"2011-02-17T05:00:00","5.9","6.65","15.01","ND","5.66","ND","0.3","118.5","20.9","93.3","0","0"],
    [6875,"2011-02-17T06:00:00","3.6","6.46","14.54","ND","5.54","ND","0.2","252.4","20.8","93.3","0","0"],
    [6876,"2011-02-17T07:00:00","17","6.92","11.14","ND","5.03","ND","0.3","117.1","20.8","93.1","10.3","0"],
    [6877,"2011-02-17T08:00:00","9.7","6.87","12.27","ND","5.88","ND","0.4","16","21","93.1","38.7","0"],
    [6878,"2011-02-17T09:00:00","45.1","4.91","16.02","ND","5.67","ND","0.5","15.4","21.5","89.5","116.5","0"],
    [6879,"2011-02-17T10:00:00","63.9","6.37","22.11","ND","5.33","ND","0.6","52.6","23.7","76.6","509.4","0"],
    [6880,"2011-02-17T11:00:00","56.2","5.48","28.77","ND","6.76","ND","1.1","75.7","25.4","68.3","461.3","0"],
    [6881,"2011-02-17T12:00:00","30.2","6.72","30.12","ND","22.62","ND","0.8","41.2","25.8","67.3","280.9","0"],
    [6882,"2011-02-17T13:00:00","24.3","11.69","24.83","ND","58.95","ND","1.8","200","25.7","66.8","363","1.27"],
    [6883,"2011-02-17T14:00:00","25.5","ND","21.07","ND","80.00","ND","1.5","297.2","24.3","78.2","474","5.84"],
    [6884,"2011-02-17T15:00:00","31.6","4.91","32.09","ND","96.54","ND","1.2","335.7","27.2","58.8","473.5","0"],
    [6885,"2011-02-17T16:00:00","24.6","2.51","34.40","1846.50","88.60","ND","0.8","326.7","26.9","60.7","216.2","0"],
    [6886,"2011-02-17T17:00:00","13.7","1.95","17.55","1683.25","80.93","ND","0.9","339.2","27.1","57.9","140","0"],
    [6887,"2011-02-17T18:00:00","9.1","3.11","22.25","1834.35","38.00","ND","0.7","319.6","26.3","60.6","51.8","0"],
    [6888,"2011-02-17T19:00:00","24.5","6.42","19.31","1910.00","18.65","ND","0.3","248","25.4","63.4","2.4","0"],
    [6889,"2011-02-17T20:00:00","34.5","18.81","23.54","2099.28","11.53","ND","0.1","255.9","24.4","67.1","0","0"],
    [6890,"2011-02-17T21:00:00","45.6","12.55","27.88","2801.09","6.40","ND","0.3","161.4","23.9","71.3","0","0"],
    [6891,"2011-02-17T22:00:00","44.2","15.22","33.03","3743.72","4.95","ND","0.9","191.2","23.5","73.8","0","0"],
    [6892,"2011-02-17T23:00:00","50.1","17.18","32.55","4525.17","5.58","ND","1.6","186.3","23.2","77.1","0","0"],
    [6893,"2011-02-18T00:00:00","33.2","14.74","28.75","3643.80","5.58","ND","0.2","179.4","23","78","0","0"],
    [6894,"2011-02-18T01:00:00","33.3","8.04","35.06","2344.11","4.76","ND","0.3","20.4","22","84.9","0","0"],
    [6895,"2011-02-18T02:00:00","26","7.57","31.47","2426.92","5.52","ND","0.2","357.6","21.5","84.5","0","0"],
    [6896,"2011-02-18T03:00:00","30.6","7.43","29.07","2366.20","5.04","ND","0.4","118.1","21.4","86.9","0","0"],
    [6897,"2011-02-18T04:00:00","17.8","11.78","24.91","2127.72","4.83","ND","0.3","32","21","90","0","0"],
    [6898,"2011-02-18T05:00:00","26.9","10.81","24.21","2249.16","5.40","ND","0.3","4.2","20.6","91.7","0","0"],
    [6899,"2011-02-18T06:00:00","14.2","15.18","22.04","2065.51","4.74","ND","0.3","222.9","20.9","89.7","0","0"],
    [6900,"2011-02-18T07:00:00","32.4","15.84","20.30","2146.71","5.30","ND","0.4","211.7","21.1","88.8","4.7","0"],
    [6901,"2011-02-18T08:00:00","31.3","25.37","25.04","2724.78","4.76","ND","1.1","157.3","21.7","83.8","117.9","0"],
    [6902,"2011-02-18T09:00:00","19","25.91","25.28","2990.91","4.72","ND","0.3","166.3","23.2","74.7","234.4","0"],
    [6903,"2011-02-18T10:00:00","11","21.38","41.35","3393.29","5.85","ND","0.9","110.4","24.1","73.4","252.3","0"],
    [6904,"2011-02-18T11:00:00","25.3","16.67","43.02","2901.05","14.61","ND","1.3","141.5","25","67.5","383","0"],
    [6905,"2011-02-18T12:00:00","14.2","13.00","46.29","2795.28","30.93","ND","0.5","56.1","25.6","64.3","484.2","0"],
    [6906,"2011-02-18T13:00:00","14.6","9.29","19.91","2261.39","44.85","ND","0.9","119.3","27.5","57.5","683.8","0"],
    [6907,"2011-02-18T14:00:00","9.6","8.09","22.75","2241.12","60.16","ND","1.3","180.2","28.6","51.5","527.6","0"],
    [6908,"2011-02-18T15:00:00","6.3","8.59","27.64","2678.32","93.03","ND","1.8","304","26.7","63.8","273.1","0"],
    [6909,"2011-02-18T16:00:00","5.1","6.56","20.44","2696.01","110.48","ND","0.8","85.1","28","57","433.4","0"],
    [6910,"2011-02-18T17:00:00","3.7","5.43","24.66","2788.71","86.04","ND","0.5","335.5","28.7","51.4","284.9","0"],
    [6911,"2011-02-18T18:00:00","3.1","4.88","22.10","2725.60","58.79","ND","1.3","266.9","27.8","53.2","69.8","0"],
    [6912,"2011-02-18T19:00:00","13.3","5.87","12.89","2509.33","ND","ND","0.1","264.2","26.7","56","2.7","0"],
    [6913,"2011-02-18T20:00:00","8.9","5.64","13.69","2661.45","ND","ND","0.3","88.1","25.9","59.6","0","0"],
    [6914,"2011-02-18T21:00:00","9.3","6.41","24.22","2976.08","8.82","ND","0.6","186.4","25.1","62.9","0","0"],
    [6915,"2011-02-18T22:00:00","7","10.25","28.90","3048.34","5.93","ND","0.5","101.4","24.8","65.9","0","0"],
    [6916,"2011-02-18T23:00:00","32.8","9.43","28.21","3377.27","5.88","ND","0.4","94.7","24.3","68.7","0","0"],
    [6917,"2011-02-19T00:00:00","28.4","15.79","32.53","3943.06","5.72","ND","0.3","111.9","23.2","74.3","0","0"],
    [6918,"2011-02-19T01:00:00","29.5","19.90","29.24","3700.73","4.82","ND","0.1","283.1","22.7","76.9","0","0"],
    [6919,"2011-02-19T02:00:00","22","13.08","23.08","2841.91","4.46","ND","0.3","194.7","22.2","80.5","0","0"],
    [6920,"2011-02-19T03:00:00","12.2","10.90","21.74","3041.38","4.49","ND","0.4","343.8","22","81.1","0","0"],
    [6921,"2011-02-19T04:00:00","7.9","8.40","20.21","2937.25","5.25","ND","0.2","34.3","21.9","82.9","0","0"],
    [6922,"2011-02-19T05:00:00","23.4","7.73","22.72","2856.90","3.96","ND","0.7","321.7","21.8","82.9","0","0"],
    [6923,"2011-02-19T06:00:00","18.2","17.42","22.54","2719.93","6.08","ND","0.6","43.8","21.5","87.6","0","0"],
    [6924,"2011-02-19T07:00:00","34.9","34.13","21.54","2830.38","4.17","ND","0.3","58.7","21.2","88.6","5.4","0"],
    [6925,"2011-02-19T08:00:00","19.7","28.58","19.84","2940.60","5.50","ND","0.2","10.1","21.5","87.5","44.4","0"],
    [6926,"2011-02-19T09:00:00","51.4","24.21","21.14","2762.45","5.06","ND","0.5","278.9","22.2","83.7","104","0"],
    [6927,"2011-02-19T10:00:00","38.3","41.71","31.33","3188.91","5.87","ND","0.3","142.1","24","69.8","379.2","0"],
    [6928,"2011-02-19T11:00:00","35.6","58.94","37.13","3356.78","6.59","ND","1","113.4","25.5","65","438.5","0"],
    [6929,"2011-02-19T12:00:00","26.2","45.35","22.73","2765.55","18.56","ND","0.8","171.3","26.9","58.6","651.2","0"],
    [6930,"2011-02-19T13:00:00","17.9","30.14","42.44","3158.98","57.63","ND","1","306.5","27.4","56.5","406.7","0"],
    [6931,"2011-02-19T14:00:00","11.3","17.51","25.82","2887.08","92.93","ND","0.4","62.2","28.6","50.8","612.1","0"],
    [6932,"2011-02-19T15:00:00","16.5","14.06","27.98","2945.00","118.31","ND","0.9","24.1","29","49.3","339.2","0"],
    [6933,"2011-02-19T16:00:00","9.4","15.27","18.00","2797.97","115.37","ND","1.2","256.3","29.9","46.7","380.5","0"],
    [6934,"2011-02-19T17:00:00","12.9","37.18","19.26","2724.80","98.12","ND","2.6","286.5","29.1","48.8","292.7","0"],
    [6935,"2011-02-19T18:00:00","17.3","16.95","10.67","2671.15","51.15","ND","1.8","307.1","27.6","52.6","56.6","0"],
    [6936,"2011-02-19T19:00:00","14.5","8.14","5.87","2542.33","40.62","ND","0.7","283.7","26.6","54.9","2.7","0"],
    [6937,"2011-02-19T20:00:00","15.8","5.69","8.69","2637.53","26.52","ND","0.4","163.5","26.2","57.1","0","0"],
    [6938,"2011-02-19T21:00:00","22.3","5.76","13.27","2726.02","17.75","ND","0.4","266.4","25.4","61.4","0","0"],
    [6939,"2011-02-19T22:00:00","12.4","10.39","29.01","3349.66","8.41","ND","0.7","180.4","24.9","64.2","0","0"],
    [6940,"2011-02-19T23:00:00","48.1","17.55","32.23","4157.16","6.36","ND","0.6","147.6","23.9","71.1","0","0"],
    [6941,"2011-02-20T00:00:00","32.5","15.53","30.14","3698.07","5.75","ND","0.2","200.7","23.4","74.1","0","0"],
    [6942,"2011-02-20T01:00:00","21.7","18.84","27.28","3589.29","5.21","ND","0.4","132.3","23","75.8","0","0"],
    [6943,"2011-02-20T02:00:00","12","13.85","24.47","3573.06","4.76","ND","0.8","157.4","22.5","79.7","0","0"],
    [6944,"2011-02-20T03:00:00","7.6","13.12","23.89","3453.43","4.67","ND","0.6","172.7","22.4","79.3","0","0"],
    [6945,"2011-02-20T04:00:00","5.8","10.39","18.95","2680.04","4.98","ND","0.2","161.1","22.3","79.7","0","0"],
    [6946,"2011-02-20T05:00:00","18","13.37","19.02","2724.55","4.78","ND","0","344","21.7","84.1","0","0"],
    [6947,"2011-02-20T06:00:00","10.2","11.14","20.26","2764.33","4.42","ND","0","267","20.8","87.3","0","0"],
    [6948,"2011-02-20T07:00:00","18.8","11.13","17.08","2981.78","4.80","ND","0","349.7","20.5","87.8","16.5","0"],
    [6949,"2011-02-20T08:00:00","11.5","9.14","13.56","3080.28","3.96","ND","0","165.5","21.8","83.2","83.8","0"],
    [6950,"2011-02-20T09:00:00","11.6","7.88","14.05","3116.59","4.17","ND","0.5","144.7","23.4","76.1","294.4","0"],
    [6951,"2011-02-20T10:00:00","17.1","8.08","21.28","3247.45","5.95","ND","0.5","51.6","25.1","68.5","565.3","0"],
    [6952,"2011-02-20T11:00:00","15.5","12.56","30.62","3082.72","17.63","ND","0.8","124.6","26.8","58.6","700.9","0"],
    [6953,"2011-02-20T12:00:00","8.4","20.77","29.92","3019.62","40.93","ND","1.1","107.6","28","54.5","749.2","0"],
    [6954,"2011-02-20T13:00:00","5.2","17.49","13.32","2742.42","70.27","ND","0.5","115.7","28.8","51.6","574.7","0"],
    [6955,"2011-02-20T14:00:00","16.1","14.75","11.98","2807.72","91.54","ND","0.8","358","29.3","49.9","395.4","0"],
    [6956,"2011-02-20T15:00:00","15.5","16.67","8.98","2731.02","96.15","ND","1.1","307.1","29.6","49.5","499.5","0"],
    [6957,"2011-02-20T16:00:00","9.7","19.93","10.19","2757.00","95.27","ND","4","261.6","30.4","44.8","589.5","0"],
    [6958,"2011-02-20T17:00:00","11.2","32.41","10.39","2752.63","86.79","ND","3.4","275.1","29.7","45.2","329.5","0"],
    [6959,"2011-02-20T18:00:00","9.4","8.70","3.08","2653.18","33.55","ND","2.8","275","28.5","46.9","91.1","0"],
    [6960,"2011-02-20T19:00:00","13.1","4.88","3.03","2573.12","30.81","ND","0.4","345.7","27.2","50.4","4","0"],
    [6961,"2011-02-20T20:00:00","7.2","4.30","5.27","2677.43","29.06","ND","0.1","358.4","26.3","54.3","0","0"],
    [6962,"2011-02-20T21:00:00","17.8","5.55","14.30","2772.96","19.65","ND","0.4","77.5","25.9","55.5","0","0"],
    [6963,"2011-02-20T22:00:00","10.1","8.36","26.94","3470.18","9.11","ND","1.1","116.2","24.5","65.4","0","0"],
    [6964,"2011-02-20T23:00:00","41","7.90","23.77","3168.01","11.32","ND","0.2","273.9","23.5","69","0","0"],
    [6965,"2011-02-21T00:00:00","31.9","12.90","30.85","3476.51","6.35","ND","0.3","305.1","22.5","73.1","0","0"],
    [6966,"2011-02-21T01:00:00","34.4","12.91","29.53","3271.67","4.83","ND","0.3","26.6","22.4","74.1","0","0"],
    [6967,"2011-02-21T02:00:00","42.4","10.81","24.59","3077.51","4.42","ND","0.4","325.9","21.6","79.5","0","0"],
    [6968,"2011-02-21T03:00:00","23.2","10.41","23.24","2967.25","4.48","ND","0.3","350.4","21.5","80.2","0","0"],
    [6969,"2011-02-21T04:00:00","28.1","12.58","20.60","2819.06","4.63","ND","0.2","216.1","22.1","76.7","0","0"],
    [6970,"2011-02-21T05:00:00","17.8","18.34","21.26","2813.46","4.66","ND","0.1","11.5","22.1","79.9","0","0"],
    [6971,"2011-02-21T06:00:00","12.1","25.43","18.87","2745.39","4.72","ND","0.4","250.9","21.2","83.5","0","0"],
    [6972,"2011-02-21T07:00:00","22.3","24.99","20.71","2759.64","5.44","ND","0.5","183.6","21.1","83.4","12.9","0"],
    [6973,"2011-02-21T08:00:00","42.7","16.11","18.48","2871.76","4.01","ND","0.3","246","21.8","78.5","81.3","0"],
    [6974,"2011-02-21T09:00:00","45.9","15.66","23.66","3717.24","5.01","ND","0.6","167.4","23.7","70.5","259.6","0"],
    [6975,"2011-02-21T10:00:00","25.4","18.11","31.02","4151.82","4.98","ND","1.2","124.8","25.2","65.7","430.6","0"],
    [6976,"2011-02-21T11:00:00","24.7","16.10","47.19","3886.22","12.37","ND","1","131.1","26.8","58.6","684.7","0"],
    [6977,"2011-02-21T12:00:00","21.8","14.52","42.33","3399.96","38.04","ND","0.4","172.9","28.2","53","766.5","0"],
    [6978,"2011-02-21T13:00:00","18.2","14.17","23.87","2941.09","64.22","ND","1.3","97.5","30","47.6","660.5","0"],
    [6979,"2011-02-21T14:00:00","9.8","12.55","22.62","3005.26","99.49","ND","1","311.4","30","46.9","558.4","0"],
    [6980,"2011-02-21T15:00:00","44.6","14.76","24.55","3051.85","121.33","ND","0.9","347.9","31","43.2","748.7","0"],
    [6981,"2011-02-21T16:00:00","23.4","23.15","20.04","2991.80","120.63","ND","2.5","281.5","31.1","43.2","539.6","0"],
    [6982,"2011-02-21T17:00:00","13.7","15.96","11.44","2875.88","79.18","ND","3.7","277.4","30.1","45.9","341.9","0"],
    [6983,"2011-02-21T18:00:00","9","7.04","5.63","2808.16","40.44","ND","2.1","286.6","28.6","47.4","82.3","0"],
    [6984,"2011-02-21T19:00:00","10.9","7.00","8.20","2887.02","35.55","ND","0.3","145.6","27.7","49.3","2.2","0"],
    [6985,"2011-02-21T20:00:00","6.5","6.69","14.96","2924.65","29.66","ND","0.3","83","27.2","50.1","0","0"],
    [6986,"2011-02-21T21:00:00","14.8","9.03","29.28","3219.84","17.16","ND","1","119.5","26.6","54.4","0","0"],
    [6987,"2011-02-21T22:00:00","21.3","8.32","33.36","3270.99","10.56","ND","0.2","57.6","24.6","65.5","0","0"],
    [6988,"2011-02-21T23:00:00","47.4","14.29","37.67","3592.38","6.33","ND","0.7","147.3","24.4","66.8","0","0"],
    [6989,"2011-02-22T00:00:00","30.1","16.68","27.67","3269.84","4.74","ND","0.2","340.8","23.6","70","0","0"],
    [6990,"2011-02-22T01:00:00","28","17.81","25.03","3112.82","4.79","ND","1","122.1","23.6","71.9","0","0"],
    [6991,"2011-02-22T02:00:00","15.3","16.01","24.48","3044.40","4.51","ND","0.2","26","23.1","75","0","0"],
    [6992,"2011-02-22T03:00:00","15.7","23.41","22.14","2891.29","4.80","ND","0.6","64.8","22.9","76.4","0","0"],
    [6993,"2011-02-22T04:00:00","12.5","18.47","19.09","2786.96","4.62","ND","0.2","260.6","22.8","77.2","0","0"],
    [6994,"2011-02-22T05:00:00","11.3","13.47","17.05","2763.27","5.01","ND","0.4","180.2","22.8","77.5","0","0"],
    [6995,"2011-02-22T06:00:00","23.3","13.06","16.17","2751.90","5.32","ND","1.3","156.5","22.7","78.9","0","0"],
    [6996,"2011-02-22T07:00:00","16","12.22","15.70","2773.71","4.97","ND","1.3","150.7","22.4","81.6","9","0"],
    [6997,"2011-02-22T08:00:00","8.6","11.53","18.56","2941.24","5.29","ND","1.6","151.8","21.8","86","28","0.76"],
    [6998,"2011-02-22T09:00:00","8.2","13.09","19.73","3173.26","4.85","ND","1.3","151.7","21.8","87.5","68.9","0"],
    [6999,"2011-02-22T10:00:00","5.2","12.65","27.46","3977.90","6.04","ND","1.2","130.7","22.3","85.2","113.9","0"],
    [7000,"2011-02-22T11:00:00","23","10.44","36.64","4098.17","6.75","ND","1.1","138.2","23.4","78.2","536.4","0"],
    [7001,"2011-02-22T12:00:00","12.6","12.69","28.85","3520.92","9.19","ND","1.4","96.5","25.4","69","520.3","0"],
    [7002,"2011-02-22T13:00:00","12.3","20.91","23.10","3257.89","25.53","ND","0.6","318.8","26.5","63","534.4","0"],
    [7003,"2011-02-22T14:00:00","11.5","22.33","22.47","3166.28","56.52","ND","1.6","262.1","27.9","54.5","452.7","0"],
    [7004,"2011-02-22T15:00:00","6.9","18.26","21.83","3192.65","99.13","ND","2","269","28.3","52.4","444.9","0"],
    [7005,"2011-02-22T16:00:00","4.3","11.42","11.01","2999.98","46.03","ND","1.2","277.5","28.9","49.3","421.8","0"],
    [7006,"2011-02-22T17:00:00","3.4","6.32","7.84","2947.92","28.91","ND","1.9","301.3","28.2","51.5","253.9","0"],
    [7007,"2011-02-22T18:00:00","3.8","6.46","7.98","2941.09","28.92","ND","2.7","279.9","27","53.5","54.9","0"],
    [7008,"2011-02-22T19:00:00","5.6","6.49","7.91","2929.37","21.45","ND","1.4","289.1","26.3","56.3","1.8","0"],
    [7009,"2011-02-22T20:00:00","4.4","5.24","7.87","2934.04","20.56","ND","1.8","204.3","25.4","61.5","0","0"],
    [7010,"2011-02-22T21:00:00","2.7","5.67","10.83","2994.05","16.58","ND","3","188","24","71.1","0","0"],
    [7011,"2011-02-22T22:00:00","3.7","6.53","15.17","3117.01","11.75","ND","2.1","182.8","23.4","77.9","0","0"],
    [7012,"2011-02-22T23:00:00","11.7","5.55","21.60","3122.11","19.23","ND","0.3","204.9","23.5","74.7","0","0"],
    [7013,"2011-02-23T00:00:00","6.5","5.94","36.37","3316.94","19.97","ND","1.6","151.8","22.5","83.7","0","1.27"],
    [7014,"2011-02-23T01:00:00","13.4","7.72","31.66","3294.39","7.04","ND","0.2","159.4","21.6","92.3","0","0"],
    [7015,"2011-02-23T02:00:00","7.5","11.24","26.50","3080.50","14.12","ND","0","284.1","21.6","92.5","0","0"],
    [7016,"2011-02-23T03:00:00","4.8","5.44","24.17","3069.17","10.44","ND","0.4","6.8","21.3","93.3","0","0"],
    [7017,"2011-02-23T04:00:00","4.1","4.97","25.63","3133.93","6.10","ND","0","122.9","21.2","94.1","0","0"],
    [7018,"2011-02-23T05:00:00","11.1","9.26","23.47","3065.01","5.99","ND","1.3","164.6","21","92.4","0","3.3"],
    [7019,"2011-02-23T06:00:00","6.3","18.25","20.89","3062.92","6.31","ND","0.1","176","20.7","93.9","0","2.54"],
    [7020,"2011-02-23T07:00:00","3.8","16.37","7.93","2856.56","14.16","ND","0.5","3","20.9","92.9","7.4","0"],
    [7021,"2011-02-23T08:00:00","15.7","10.44","14.73","2835.91","10.28","ND","0.5","191.1","21.3","94.1","81.6","0.25"],
    [7022,"2011-02-23T09:00:00","33.2","9.89","28.27","3416.78","7.35","ND","1.3","170.1","22.3","86.5","138.1","0"],
    [7023,"2011-02-23T10:00:00","17.5","16.98","29.79","3916.54","6.40","ND","1.6","154.5","23.7","77.2","341.8","0"],
    [7024,"2011-02-23T11:00:00","16","27.86","48.42","4448.38","7.39","ND","1.2","148.6","25.3","70.5","643.4","0"],
    [7025,"2011-02-23T12:00:00","10.2","17.99","35.10","3612.30","24.24","ND","0.6","138.3","27.2","60.7","831.4","0"],
    [7026,"2011-02-23T13:00:00","6.6","14.68","25.84","3346.79","48.77","ND","1.9","250.4","27.3","57.5","341.4","0"],
    [7027,"2011-02-23T14:00:00","3.9","13.65","14.94","3140.10","85.15","ND","3.5","261.1","27.3","53.7","387","0"],
    [7028,"2011-02-23T15:00:00","2","8.90","16.32","3163.19","72.10","ND","2.2","257.9","28.4","50.2","522.6","0"],
    [7029,"2011-02-23T16:00:00","3.2","6.41","9.60","2989.39","31.95","ND","2.4","270.8","28.3","50","328.6","0"],
    [7030,"2011-02-23T17:00:00","3.3","6.07","10.38","3069.48","44.05","ND","3.4","269.5","27.2","53.4","163","0"],
    [7031,"2011-02-23T18:00:00","3.2","8.66","8.86","3000.57","35.29","ND","2","284.2","26.5","55.2","46.3","0"],
    [7032,"2011-02-23T19:00:00","2.7","5.61","8.65","2924.49","20.59","ND","0.5","119.8","25.1","63.5","1.2","0"],
    [7033,"2011-02-23T20:00:00","3.2","5.06","8.31","2899.36","18.32","ND","1.5","84.2","24","76.9","0","0.25"],
    [7034,"2011-02-23T21:00:00","12.1","6.14","18.15","3208.35","12.71","ND","0.3","336.9","22.5","86.5","0","0"],
    [7035,"2011-02-23T22:00:00","7.6","10.60","25.98","3317.11","10.66","ND","1.2","136.6","22.6","85.3","0","0"],
    [7036,"2011-02-23T23:00:00","22.4","7.77","26.06","3306.87","6.37","ND","1.5","152","21.8","91.1","0","0.51"],
    [7037,"2011-02-24T00:00:00","13.1","8.04","30.80","3513.25","5.51","ND","1.6","182.5","20.9","93.6","0","3.81"],
    [7038,"2011-02-24T01:00:00","7.2","6.59","22.96","3242.66","6.43","ND","1.3","195.6","20.4","96.5","0","6.35"],
    [7039,"2011-02-24T02:00:00","5.8","5.91","17.76","2943.88","8.39","ND","0.7","181.6","20.2","97.2","0","6.6"],
    [7040,"2011-02-24T03:00:00","4.3","4.51","15.42","2930.60","9.92","ND","0.3","169.8","20.2","96.1","0","0.76"],
    [7041,"2011-02-24T04:00:00","3.4","4.18","10.66","2874.24","10.60","ND","0.1","225.4","20.4","94.6","0","0.25"],
    [7042,"2011-02-24T05:00:00","3.4","4.36","10.44","2898.76","11.07","ND","0.1","165.4","20.4","95.2","0","0.25"],
    [7043,"2011-02-24T06:00:00","3.2","3.84","8.96","2876.20","10.63","ND","0.7","168.5","20.4","95.7","0","0"],
    [7044,"2011-02-24T07:00:00","3.5","4.21","12.46","2864.93","7.01","ND","1","160.5","20.4","94.8","4.4","0"],
    [7045,"2011-02-24T08:00:00","4.1","5.24","18.06","3022.83","5.27","ND","1.5","166.8","20.5","93.2","36.4","0"],
    [7046,"2011-02-24T09:00:00","4.5","7.20","22.19","3497.75","4.62","ND","2","179.9","20.6","90.4","117.5","0.76"],
    [7047,"2011-02-24T10:00:00","3.5","9.11","26.52","4142.30","5.05","ND","2.5","170.3","21.4","86.5","325.7","0"],
    [7048,"2011-02-24T11:00:00","4","9.68","27.05","3814.06","6.55","ND","2.5","172.9","22.9","78.2","552.2","0"],
    [7049,"2011-02-24T12:00:00","2","8.20","26.11","3480.85","15.06","ND","1","143.2","24","74.7","432.1","0"],
    [7050,"2011-02-24T13:00:00","1","9.64","20.70","3265.44","30.47","ND","0.9","338.6","24.1","76.8","505","0"],
    [7051,"2011-02-24T14:00:00","2.2","10.11","23.98","3300.81","46.76","ND","1.5","250.6","23.3","82.4","169.1","2.29"],
    [7052,"2011-02-24T15:00:00","13.3","13.99","28.00","3394.43","69.40","ND","1.5","196.7","23.5","79.5","309.5","0.25"],
    [7053,"2011-02-24T16:00:00","7.5","14.42","35.23","3522.11","59.80","ND","0.7","158.5","23.6","79.3","250","4.32"],
    [7054,"2011-02-24T17:00:00","4.9","7.56","34.96","3637.32","37.29","ND","1.5","4.2","23.4","80.5","159.3","0.51"],
    [7055,"2011-02-24T18:00:00","8","6.54","41.72","3634.87","55.59","ND","2.7","4.4","20.9","89.5","29.5","3.81"],
    [7056,"2011-02-24T19:00:00","24.6","11.55","38.10","3355.64","48.60","ND","1","357.5","20.2","90.4","1","1.27"],
    [7057,"2011-02-24T20:00:00","13.5","50.89","31.21","3054.59","12.22","ND","0.7","201.8","20.3","92","0","0"],
    [7058,"2011-02-24T21:00:00","10.2","17.87","32.50","3314.96","7.80","ND","1.9","134","20.5","91.6","0","0"],
    [7059,"2011-02-24T22:00:00","6","18.14","37.56","4028.06","5.62","ND","1.5","175.2","20.2","91.2","0","0.25"],
    [7060,"2011-02-24T23:00:00","5.1","17.17","32.54","3697.07","5.14","ND","1","157.4","20.4","90.4","0","0"],
    [7061,"2011-02-25T00:00:00","3.9","12.10","27.11","3304.82","7.19","ND","0.7","159","20.4","89.3","0","0"],
    [7062,"2011-02-25T01:00:00","2.7","9.78","30.89","3372.49","4.93","ND","0.2","231.8","20.3","90.8","0","0"],
    [7063,"2011-02-25T02:00:00","2.5","9.03","27.05","3168.38","6.47","ND","0.3","267.7","20","93.5","0","0"],
    [7064,"2011-02-25T03:00:00","2.7","9.40","25.44","3210.20","6.43","ND","0.4","30.4","19.7","93.2","0","0"],
    [7065,"2011-02-25T04:00:00","3","7.77","20.09","3150.65","4.38","ND","0.5","2.3","19.3","97","0","0"],
    [7066,"2011-02-25T05:00:00","3.6","6.94","15.72","3078.92","4.77","ND","0.2","21","19.3","97.1","0","0"],
    [7067,"2011-02-25T06:00:00","10.4","7.32","17.25","3011.50","4.31","ND","0.3","217","19.4","96.6","0","0"],
    [7068,"2011-02-25T07:00:00","7.7","24.12","18.81","3035.01","4.45","ND","0","0","19.5","95","15.2","0"],
    [7069,"2011-02-25T08:00:00","16.5","20.58","19.49","3069.79","4.45","ND","0.6","38.7","20","92.3","89.1","0"],
    [7070,"2011-02-25T09:00:00","54.7","18.96","19.50","4133.84","4.94","ND","0.3","59.1","20.7","90","173.1","0"],
    [7071,"2011-02-25T10:00:00","56.3","27.17","29.61","4516.31","5.47","ND","1","122.8","23.1","77.6","392.6","0"],
    [7072,"2011-02-25T11:00:00","72.3","47.31","53.56","4473.53","8.50","ND","0.9","130.8","23.7","72.9","365","0"],
    [7073,"2011-02-25T12:00:00","2.5","32.48","76.66","4357.13","33.76","ND","0.6","145.3","24.5","67.4","318.3","0"],
    [7074,"2011-02-25T13:00:00","3.3","ND","ND","ND","58.95","ND","0.9","94.8","25","66.7","432.8","0"],
    [7075,"2011-02-25T14:00:00","3.8","14.04","22.86","1260.17","ND","ND","1.1","187.3","26.5","62.1","729.4","0"],
    [7076,"2011-02-25T15:00:00","14.2","11.90","22.94","1278.02","66.11","ND","0.8","92","27.3","57.2","504.8","0"],
    [7077,"2011-02-25T16:00:00","8","10.98","22.93","1396.88","104.97","ND","0.9","326.9","27.9","56.3","361.6","0"],
    [7078,"2011-02-25T17:00:00","31.8","13.55","20.75","1295.57","116.02","ND","1.4","357.9","26.7","66","253.9","0"],
    [7079,"2011-02-25T18:00:00","37.3","22.43","23.75","1359.53","105.21","ND","0.5","309.9","27.5","61.8","120.8","0"],
    [7080,"2011-02-25T19:00:00","34.2","56.25","40.34","1582.65","72.76","ND","0.5","270.6","25.7","66.6","7.5","0"],
    [7081,"2011-02-25T20:00:00","25.7","42.78","39.83","1561.69","39.12","ND","0.6","254.5","25","66.9","0","0"],
    [7082,"2011-02-25T21:00:00","35.9","18.60","36.84","2050.64","10.01","ND","0.2","25.6","24.4","69.8","0","0"],
    [7083,"2011-02-25T22:00:00","36.7","15.27","33.46","2298.03","6.56","ND","0.4","232.4","23.3","75.4","0","0"],
    [7084,"2011-02-25T23:00:00","65.4","16.75","36.18","2540.13","5.76","ND","0.1","308.4","22.5","79.3","0","0"],
    [7085,"2011-02-26T00:00:00","55.7","21.07","35.91","3703.35","5.94","ND","0.3","232.9","21.7","83.3","0","0"],
    [7086,"2011-02-26T01:00:00","63.2","21.30","30.49","3251.48","5.22","ND","0.2","18.3","21.5","83.6","0","0"],
    [7087,"2011-02-26T02:00:00","61.2","17.79","25.76","3022.85","5.14","ND","0.3","257.1","20.8","86","0","0"],
    [7088,"2011-02-26T03:00:00","56.1","15.78","27.46","2609.06","4.33","ND","0.1","281.6","20.7","87.3","0","0"],
    [7089,"2011-02-26T04:00:00","41.2","18.75","23.26","1942.01","3.23","ND","0.1","238","20.5","87.5","0","0"],
    [7090,"2011-02-26T05:00:00","46.8","16.54","21.26","1929.41","3.54","ND","0.5","358.4","20.4","88.2","0","0"],
    [7091,"2011-02-26T06:00:00","29.9","13.54","19.73","1838.52","3.71","ND","0.2","37.8","20.1","89.2","0","0"],
    [7092,"2011-02-26T07:00:00","52","15.67","23.27","1780.30","4.09","ND","0.1","214.1","20.1","90.4","19","0"],
    [7093,"2011-02-26T08:00:00","30.8","20.28","21.88","1611.28","4.27","ND","0.3","212.7","21","85.5","68.2","0"],
    [7094,"2011-02-26T09:00:00","57.5","28.38","23.13","1966.60","4.14","ND","1.2","140.6","23.3","75.7","316.9","0"],
    [7095,"2011-02-26T10:00:00","69.1","53.85","30.32","2369.27","5.01","ND","1.3","115.2","25.6","66.7","602.4","0"],
    [7096,"2011-02-26T11:00:00","49","51.22","76.28","3317.47","15.65","ND","1.5","118.5","26.2","64.6","499.6","0"],
    [7097,"2011-02-26T12:00:00","37.9","33.17","43.00","1874.86","57.49","ND","0.5","34.4","27.2","61.1","472.1","0"],
    [7098,"2011-02-26T13:00:00","28.8","29.51","21.82","1407.96","79.61","ND","0.7","27.8","28.2","57.1","450.2","0"],
    [7099,"2011-02-26T14:00:00","19.1","32.52","23.93","1458.97","107.68","ND","1.5","61.1","28.8","54","450.8","0"],
    [7100,"2011-02-26T15:00:00","38","31.53","19.42","1403.86","110.42","ND","1","342.9","29.4","49.7","459.2","0"],
    [7101,"2011-02-26T16:00:00","20.4","57.51","17.91","1243.90","104.61","ND","3","256.9","29.4","48.5","338.9","0"],
    [7102,"2011-02-26T17:00:00","10.7","40.92","13.68","1139.27","59.38","ND","2.7","267.8","29.2","46.9","303.9","0"],
    [7103,"2011-02-26T18:00:00","6.8","9.27","8.90","1184.99","37.69","ND","1","253.9","28.7","48.1","117.3","0"],
    [7104,"2011-02-26T19:00:00","5","7.64","7.34","1125.04","40.75","ND","0.4","167.7","27.3","53.3","2.1","0"],
    [7105,"2011-02-26T20:00:00","4.5","6.92","17.08","1292.98","29.05","ND","0.5","60","25.7","63.7","0","0"],
    [7106,"2011-02-26T21:00:00","24","7.88","26.26","1584.65","20.54","ND","0.5","226","24.6","68.3","0","0"],
    [7107,"2011-02-26T22:00:00","28.1","15.99","31.00","1544.49","14.78","ND","0.4","255.2","24","69.9","0","0"],
    [7108,"2011-02-26T23:00:00","ND","18.85","38.27","2865.83","5.73","ND","ND","ND","ND","ND","ND","ND"],
    [7109,"2011-02-27T00:00:00","40.4","ND","ND","ND","ND","ND","0.2","14.9","23.7","73.5","0","0"],
    [7110,"2011-02-27T01:00:00","66.9","ND","ND","ND","ND","ND","0.4","357.4","23.1","79.5","0","0"],
    [7111,"2011-02-27T02:00:00","62.6","39.60","35.00","2265.22","5.21","ND","0.4","202.4","23.3","76.3","0","0"],
    [7112,"2011-02-27T03:00:00","45.6","54.58","28.48","1959.20","5.27","ND","0.2","11.8","23","76.3","0","0"],
    [7113,"2011-02-27T04:00:00","24.7","35.86","29.78","1741.02","4.64","ND","0.8","9.1","22","85","0","0"],
    [7114,"2011-02-27T05:00:00","57.4","20.96","22.21","1304.19","7.27","ND","0.2","277.6","22.1","84.7","0","0"],
    [7115,"2011-02-27T06:00:00","39.8","41.31","20.81","1452.11","4.78","ND","0","38.6","22.2","84.3","0","0"],
    [7116,"2011-02-27T07:00:00","50","50.80","20.67","1475.30","5.02","ND","0.8","11.6","21.6","87.2","1.4","0.76"],
    [7117,"2011-02-27T08:00:00","47","39.89","19.83","1664.83","5.10","ND","0.8","296.9","20.7","94.3","19.6","8.89"],
    [7118,"2011-02-27T09:00:00","35.9","31.92","17.71","1490.38","5.05","ND","0.2","72.6","21.5","91.8","73.3","0.25"],
    [7119,"2011-02-27T10:00:00","18.9","25.64","16.14","1279.33","4.58","ND","1.2","53.4","21.6","93.2","164.2","0"],
    [7120,"2011-02-27T11:00:00","16","36.94","22.34","1585.55","6.25","ND","0.9","12.6","23","85.4","436.2","0"],
    [7121,"2011-02-27T12:00:00","27.5","47.73","20.24","1411.02","7.52","ND","0.8","41.6","25.1","72.5","657.5","0"],
    [7122,"2011-02-27T13:00:00","24","123.19","25.06","1317.89","15.21","ND","0.7","93.4","26.5","66.2","502.2","0"],
    [7123,"2011-02-27T14:00:00","13.8","159.74","27.16","1208.94","32.56","ND","1","154.1","27.5","61.7","351.5","0"],
    [7124,"2011-02-27T15:00:00","9.1","87.83","19.03","1166.77","48.58","ND","1.4","296.2","21.5","89.1","97.8","30.23"],
    [7125,"2011-02-27T16:00:00","9.1","56.74","13.96","1211.40","58.33","ND","0.7","190.2","25.1","77.7","379.4","0"],
    [7126,"2011-02-27T17:00:00","1.7","24.53","19.86","1272.05","34.41","ND","0.5","189.7","27.3","61.1","130.4","0"],
    [7127,"2011-02-27T18:00:00","13.2","19.99","28.43","1512.33","25.04","ND","0.7","278.6","26.3","68.9","59.1","0"],
    [7128,"2011-02-27T19:00:00","21.5","12.79","20.64","1196.63","29.90","ND","0.3","338.7","24.7","72.9","1.8","0"],
    [7129,"2011-02-27T20:00:00","12.6","12.72","37.12","1625.12","18.25","ND","0.3","198.4","23.3","76.9","0","0"],
    [7130,"2011-02-27T21:00:00","29.3","14.43","26.67","1913.64","8.88","ND","0.4","229.2","23","77.2","0","0"],
    [7131,"2011-02-27T22:00:00","25.7","15.07","26.17","2651.35","4.46","ND","0.4","267.4","22.3","80.3","0","0"],
    [7132,"2011-02-27T23:00:00","53.3","17.42","27.42","3224.05","4.55","ND","0.6","244.4","21.7","83.7","0","0"],
    [7133,"2011-02-28T00:00:00","27.9","15.44","25.61","2549.07","4.99","ND","0.2","273.6","21.6","84.2","0","0"],
    [7134,"2011-02-28T01:00:00","20.3","13.52","24.32","2344.35","4.52","ND","0.6","354","21.6","85.4","0","0"],
    [7135,"2011-02-28T02:00:00","10.8","12.05","21.00","1449.65","4.17","ND","0.4","236.8","21.2","87","0","0"],
    [7136,"2011-02-28T03:00:00","20.4","15.29","21.38","1391.13","4.38","ND","0.2","219.2","21.3","86.5","0","0"],
    [7137,"2011-02-28T04:00:00","23.7","23.94","20.48","1368.97","4.46","ND","0.4","234","21.3","85.5","0","0"],
    [7138,"2011-02-28T05:00:00","21.5","22.49","18.84","1255.84","4.36","ND","0.1","87.6","21.2","86.6","0","0"],
    [7139,"2011-02-28T06:00:00","15","21.96","17.44","1108.38","4.34","ND","0.1","322","20.6","89.6","0","0"],
    [7140,"2011-02-28T07:00:00","28.8","17.94","17.26","1162.55","4.35","ND","0.6","244.6","20.5","87.9","22.2","0"],
    [7141,"2011-02-28T08:00:00","34.1","15.48","17.01","1376.54","4.33","ND","0.8","163.3","22.4","79","123.7","0"],
    [7142,"2011-02-28T09:00:00","46.8","15.69","21.90","2021.39","4.51","ND","1","44.1","23.1","79.2","164.8","0"],
    [7143,"2011-02-28T10:00:00","53.1","30.12","31.63","2766.08","6.10","ND","0.9","79.2","24.3","75.2","442.2","0"],
    [7144,"2011-02-28T11:00:00","65.6","31.06","46.00","2125.82","8.30","ND","1","90.3","26.2","65.6","611.8","0"],
    [7145,"2011-02-28T12:00:00","47.8","37.15","55.39","2001.38","30.50","ND","1.2","87.6","27.7","59","574.4","0"],
    [7146,"2011-02-28T13:00:00","41.9","32.81","38.07","1491.22","73.98","ND","0.6","342.7","28.5","54.3","531.8","0"],
    [7147,"2011-02-28T14:00:00","22.8","32.50","23.02","1240.20","100.20","ND","1.9","321.8","29.9","48.1","805.4","0"],
    [7148,"2011-02-28T15:00:00","13.3","40.22","19.89","1082.93","98.85","ND","0.8","259.3","30.5","44.7","557.6","0"],
    [7149,"2011-02-28T16:00:00","8.4","20.39","8.61","886.73","54.18","ND","4","277.9","29.4","48.4","505.2","0"],
    [7150,"2011-02-28T17:00:00","10","9.20","7.40","883.52","51.52","ND","3.5","272","28.3","50","271.2","0"],
    [7151,"2011-02-28T18:00:00","6.1","6.23","7.01","949.80","42.70","ND","2.7","279.7","26.8","52.9","20.4","0"],
    [7152,"2011-02-28T19:00:00","10.2","6.17","8.83","956.60","39.88","ND","2.8","210.4","25.5","60.9","0.9","0"],
    [7153,"2011-02-28T20:00:00","38","6.33","10.87","998.35","33.87","ND","0.9","112.7","23.5","77.4","0","1.78"],
    [7154,"2011-02-28T21:00:00","20.7","8.92","22.08","1367.81","20.42","ND","0.3","76.8","22","90.3","0","0.51"],
    [7155,"2011-02-28T22:00:00","11.2","9.44","29.63","1462.96","15.62","ND","0.6","164.5","21.8","89.2","0","0"],
    [7156,"2011-02-28T23:00:00","7.5","9.59","42.56","2085.28","4.56","ND","0.1","229.7","21.7","90.1","0","0"],
    [7157,"2011-03-01T00:00:00","5","8.45","45.39","1778.69","4.48","ND","0.2","164.9","21.8","88","0","0"],
    [7158,"2011-03-01T01:00:00","4.1","7.88","36.02","1813.29","4.39","ND","1","158.7","21.7","88.4","0","0"],
    [7159,"2011-03-01T02:00:00","3.9","7.46","28.55","1416.15","10.21","ND","1.3","145.6","21.7","89","0","0"],
    [7160,"2011-03-01T03:00:00","6.1","8.71","19.00","1087.60","17.78","ND","1.8","161","21.1","89.3","0","0"],
    [7161,"2011-03-01T04:00:00","3.7","10.45","12.88","1006.25","18.32","ND","2.2","159.5","20.5","92.9","0","0"],
    [7162,"2011-03-01T05:00:00","3.1","10.45","6.29","891.36","31.37","ND","1.6","183.9","20.1","93.5","0","0.25"],
    [7163,"2011-03-01T06:00:00","2.6","8.89","8.32","901.42","19.90","ND","0.9","177.7","20","94","0","0"],
    [7164,"2011-03-01T07:00:00","1.9","8.01","6.85","799.73","21.05","ND","0.5","193.8","20.2","93.3","8.8","0"],
    [7165,"2011-03-01T08:00:00","18.3","7.32","14.81","935.54","16.57","ND","0.5","174.5","20.4","92.3","43.4","0.25"],
    [7166,"2011-03-01T09:00:00","11.3","7.28","19.97","1026.41","6.18","ND","0.3","179.2","21.4","85.8","201.6","0"],
    [7167,"2011-03-01T10:00:00","6.3","9.58","20.24","1199.67","5.95","ND","0.6","74.2","23","77.8","278.4","0"],
    [7168,"2011-03-01T11:00:00","4.5","11.76","37.02","1581.71","11.70","ND","0.9","111.3","23.8","74.6","280","0"],
    [7169,"2011-03-01T12:00:00","29.6","24.74","73.51","1380.60","20.19","ND","0.6","116.9","24.7","70.5","332.5","0"],
    [7170,"2011-03-01T13:00:00","21.6","28.37","84.50","1293.23","36.13","ND","1.2","289","24.6","72.1","252.9","0"],
    [7171,"2011-03-01T14:00:00","11.5","17.58","39.95","1052.54","51.60","ND","1.4","294.9","24.2","77.4","359.2","0.51"],
    [7172,"2011-03-01T15:00:00","13.2","16.75","27.20","1188.23","64.00","ND","0.2","354.7","25.1","69.9","192.3","0"],
    [7173,"2011-03-01T16:00:00","7.6","22.65","20.25","1180.37","59.54","ND","0.8","30.6","25.3","67.2","235.8","0"],
    [7174,"2011-03-01T17:00:00","10.3","38.03","22.38","1181.16","46.75","ND","1.6","273.1","25.7","60.7","159.6","0"],
    [7175,"2011-03-01T18:00:00","7.4","58.54","27.24","1102.37","32.83","ND","3.2","259.1","23.1","70.9","24.7","1.27"],
    [7176,"2011-03-01T19:00:00","3.7","15.28","10.67","990.32","29.29","ND","0.5","88","22.3","77","1.7","0.51"],
    [7177,"2011-03-01T20:00:00","2.8","7.97","14.02","1180.64","24.39","ND","1.1","183.5","22.3","77.9","0","0"],
    [7178,"2011-03-01T21:00:00","3.3","10.20","35.54","2179.64","7.64","ND","2","180.1","22.2","78.6","0","0"],
    [7179,"2011-03-01T22:00:00","6.1","13.08","37.50","3154.86","5.03","ND","1.4","173","21.7","85.7","0","0"],
    [7180,"2011-03-01T23:00:00","4.2","8.08","34.53","1857.99","7.88","ND","1.3","184.1","21.3","87.5","0","0"],
    [7181,"2011-03-02T00:00:00","3.2","6.99","41.13","1764.96","10.81","ND","1","153.8","21.1","88.5","0","0"],
    [7182,"2011-03-02T01:00:00","3.3","6.15","37.29","1447.19","11.00","ND","0.1","248.2","21","88.6","0","0"],
    [7183,"2011-03-02T02:00:00","8.8","6.07","27.37","1220.65","15.47","ND","0","47.7","21.2","86.7","0","0"],
    [7184,"2011-03-02T03:00:00","6.6","6.49","24.36","1176.24","11.16","ND","0.9","161.4","20.6","89.3","0","1.78"],
    [7185,"2011-03-02T04:00:00","5.6","5.99","16.31","1049.68","13.48","ND","0.9","126.2","20.3","92.1","0","0.25"],
    [7186,"2011-03-02T05:00:00","4.7","6.63","9.05","947.13","21.90","ND","0.5","116.1","19.9","94.4","0","0"],
    [7187,"2011-03-02T06:00:00","3","7.13","6.29","900.80","22.45","ND","0.5","172.2","19.8","95.1","0","0"],
    [7188,"2011-03-02T07:00:00","2.3","6.49","9.25","934.26","18.57","ND","1.3","156.3","20","92.8","9.4","0"],
    [7189,"2011-03-02T08:00:00","2.5","6.52","18.24","1081.33","10.36","ND","2","168.7","20.1","90.3","88.2","0"],
    [7190,"2011-03-02T09:00:00","3.1","7.91","31.55","1611.28","5.52","ND","2.4","180.4","20.7","87","213.9","0"],
    [7191,"2011-03-02T10:00:00","4","9.32","35.29","1942.01","7.87","ND","2.8","171.1","21.6","82.3","351.8","0"],
    [7192,"2011-03-02T11:00:00","3","9.48","30.48","1698.81","15.31","ND","3.3","180.4","22.3","78.5","463.3","0"],
    [7193,"2011-03-02T12:00:00","2.4","8.28","24.60","1464.44","26.08","ND","2.7","185.3","22.4","76.7","317","0"],
    [7194,"2011-03-02T13:00:00","2","6.99","15.37","1226.46","33.77","ND","2.5","199.6","22.8","73","210.9","0"],
    [7195,"2011-03-02T14:00:00","3.3","6.61","19.27","1262.24","33.37","ND","2.2","199.2","22.1","80.3","179.7","0"],
    [7196,"2011-03-02T15:00:00","2.9","5.97","23.15","1531.52","32.16","ND","1.3","195.8","23.9","69.3","392","0"],
    [7197,"2011-03-02T16:00:00","1.4","5.85","22.48","1506.62","25.36","ND","0.8","116.9","25.5","62","223.6","0"],
    [7198,"2011-03-02T17:00:00","0.7","5.28","13.19","1250.81","28.97","ND","0.6","130.3","24.5","68.7","85","0"],
    [7199,"2011-03-02T18:00:00","14.3","5.60","20.40","1418.17","37.10","ND","1.7","275.7","23.8","66.4","30.7","0"],
    [7200,"2011-03-02T19:00:00","12.6","10.28","47.91","1928.28","50.37","ND","1.1","290.9","23.3","67.8","1.8","0"],
    [7201,"2011-03-02T20:00:00","8","9.64","22.43","1344.10","24.90","ND","0.2","79.8","22.2","75.3","0","0"],
    [7202,"2011-03-02T21:00:00","4.8","6.80","16.59","1429.90","12.87","ND","0.2","292.3","21.6","79","0","0"],
    [7203,"2011-03-02T22:00:00","3.6","13.24","23.78","1653.50","6.03","ND","0.6","301.2","21.2","80.6","0","0"],
    [7204,"2011-03-02T23:00:00","50.7","28.33","25.59","2793.57","4.82","ND","0.1","224.9","20.9","81.9","0","0"],
    [7205,"2011-03-03T00:00:00","25.9","25.33","23.72","2598.64","4.26","ND","0.1","291.9","20.7","81.7","0","0"],
    [7206,"2011-03-03T01:00:00","43.4","21.49","23.02","2675.91","4.49","ND","0.1","296","20.8","82","0","0"],
    [7207,"2011-03-03T02:00:00","22.7","16.74","18.38","1829.73","4.06","ND","0.1","43","20.6","83.2","0","0"],
    [7208,"2011-03-03T03:00:00","38","15.05","16.00","1399.58","4.14","ND","0.1","350.6","20.4","85.9","0","0"],
    [7209,"2011-03-03T04:00:00","24.3","16.92","17.36","1500.14","4.50","ND","0.1","271","20.2","87.3","0","0"],
    [7210,"2011-03-03T05:00:00","36.1","21.27","18.49","1724.55","5.00","ND","0","224.5","19.8","89.5","0","0"],
    [7211,"2011-03-03T06:00:00","31.7","20.54","13.25","1508.33","4.36","ND","0.1","30.4","19.4","90.6","0","0"],
    [7212,"2011-03-03T07:00:00","33.3","16.71","12.16","1461.30","4.02","ND","0.4","329.8","19","90.5","21.9","0"],
    [7213,"2011-03-03T08:00:00","44","15.53","14.23","1672.59","4.25","ND","0.1","9.3","20.5","86.2","88.7","0"],
    [7214,"2011-03-03T09:00:00","64.4","17.81","17.81","2121.22","4.31","ND","0.4","67.5","22.6","73.4","249.8","0"],
    [7215,"2011-03-03T10:00:00","35.5","77.84","34.21","2681.86","6.23","ND","0.5","109.4","24","67.2","392.4","0"],
    [7216,"2011-03-03T11:00:00","32","165.04","34.56","1689.81","10.44","ND","1","74.4","24.8","66.3","428.8","0"],
    [7217,"2011-03-03T12:00:00","17.3","94.61","27.95","1339.46","28.71","ND","1","119","26.2","60.1","668.6","0"],
    [7218,"2011-03-03T13:00:00","20.6","72.93","32.77","1357.26","47.11","ND","0.9","120.7","27.5","52.5","533","0"],
    [7219,"2011-03-03T14:00:00","12.2","37.39","17.28","1247.64","85.86","ND","1.2","302.2","27.4","53.4","412.2","0"],
    [7220,"2011-03-03T15:00:00","26.5","17.62","11.92","1131.74","86.25","ND","0.7","246","28","51.9","370.6","0"],
    [7221,"2011-03-03T16:00:00","25.7","21.04","14.25","1226.57","100.93","ND","0.9","105.4","28.5","50.7","293.9","0"],
    [7222,"2011-03-03T17:00:00","37.5","19.51","14.02","1182.24","94.49","ND","1.2","109.7","28.4","49.6","148.5","0"],
    [7223,"2011-03-03T18:00:00","25.6","14.81","26.14","1598.98","117.82","ND","0.8","266","27.5","53.1","109.2","0"],
    [7224,"2011-03-03T19:00:00","28.3","12.10","31.01","1559.54","93.01","ND","1.3","246.2","26.1","56.3","4.6","0"],
    [7225,"2011-03-03T20:00:00","33.7","13.89","25.86","1460.29","40.42","ND","0.4","109","25.5","58.4","0","0"],
    [7226,"2011-03-03T21:00:00","30","11.68","37.56","1859.00","15.19","ND","0.3","89.7","24.6","63.4","0","0"],
    [7227,"2011-03-03T22:00:00","54.5","12.85","47.66","2105.09","7.17","ND","0.7","130.4","23.4","70.1","0","0"],
    [7228,"2011-03-03T23:00:00","57.7","19.83","52.81","3327.21","5.95","ND","0.2","217.6","22.4","75.4","0","0"],
    [7229,"2011-03-04T00:00:00","44.7","23.48","25.56","2169.02","4.98","ND","0.5","154.9","22","77.3","0","0"],
    [7230,"2011-03-04T01:00:00","53.9","20.98","24.65","2381.56","4.88","ND","0.5","229.1","21.6","79.2","0","0"],
    [7231,"2011-03-04T02:00:00","28.1","17.20","25.73","1925.31","4.38","ND","0.2","260.3","21.2","80.2","0","0"],
    [7232,"2011-03-04T03:00:00","47.3","15.78","19.02","1651.26","4.20","ND","0.4","182.7","21.3","78.7","0","0"],
    [7233,"2011-03-04T04:00:00","31","15.16","19.10","1493.43","4.09","ND","0.1","103.8","20.8","80.1","0","0"],
    [7234,"2011-03-04T05:00:00","17.6","13.67","17.40","1445.71","3.83","ND","0.1","65","20.1","83.8","0","0"],
    [7235,"2011-03-04T06:00:00","9.7","10.15","17.38","1183.11","4.17","ND","0.1","311.8","19.4","86.4","0","0"],
    [7236,"2011-03-04T07:00:00","23.6","9.33","14.82","1169.04","4.22","ND","0.2","330.7","19.5","85.5","11.4","0"],
    [7237,"2011-03-04T08:00:00","34.5","11.47","14.79","1270.64","3.81","ND","0.3","79.9","20.8","81.8","76.2","0"],
    [7238,"2011-03-04T09:00:00","60.1","16.53","17.47","1908.79","4.37","ND","0.1","39.7","22.2","75.9","245.6","0"],
    [7239,"2011-03-04T10:00:00","54.5","49.52","30.24","2167.55","6.14","ND","0.4","63.8","24.5","65","570.4","0"],
    [7240,"2011-03-04T11:00:00","48.6","87.29","47.95","1944.26","12.69","ND","1","56.6","26.2","58.2","700.8","0"],
    [7241,"2011-03-04T12:00:00","30.6","55.72","35.10","1506.79","31.80","ND","1.1","115.5","27.9","51.5","791.6","0"],
    [7242,"2011-03-04T13:00:00","22.7","24.34","10.27","1041.08","53.38","ND","0.7","40.2","28.2","51.6","315.9","0"],
    [7243,"2011-03-04T14:00:00","24.3","20.60","12.07","1100.01","86.26","ND","0.8","276.3","28.1","52.4","270.7","0"],
    [7244,"2011-03-04T15:00:00","25.8","24.15","17.53","1331.15","108.54","ND","1.9","302.8","27.2","56.7","275.4","0"],
    [7245,"2011-03-04T16:00:00","13.8","27.11","22.20","1407.96","130.39","ND","1.2","49.7","27.9","52","299.8","0"],
    [7246,"2011-03-04T17:00:00","33.1","16.69","26.24","1434.38","67.57","ND","3.7","278.3","28","49.1","265.8","0"],
    [7247,"2011-03-04T18:00:00","18","15.93","16.15","1134.00","35.26","ND","1.5","274.9","27.2","49.9","60.3","0"],
    [7248,"2011-03-04T19:00:00","12.5","6.47","6.45","1073.28","30.64","ND","0.7","120","26.5","52.3","4.3","0"],
    [7249,"2011-03-04T20:00:00","16.4","6.14","8.69","1278.02","19.29","ND","0.1","50.7","25.3","57.6","0","0"],
    [7250,"2011-03-04T21:00:00","40.5","10.10","ND","1823.35","8.70","ND","0.6","149.1","24.7","61.4","0","0"],
    [7251,"2011-03-04T22:00:00","60.5","16.07","ND","2529.24","5.23","ND","0.3","252.7","23.5","69.3","0","0"],
    [7252,"2011-03-04T23:00:00","98","24.69","ND","2724.22","4.76","ND","0.2","17.1","22.8","71.9","0","0"],
    [7253,"2011-03-05T00:00:00","91.2","41.22","ND","2979.33","4.75","ND","0.2","192.4","21.9","75","0","0"],
    [7254,"2011-03-05T01:00:00","78.7","29.22","ND","3038.29","4.31","ND","0","146.6","21.4","78","0","0"],
    [7255,"2011-03-05T02:00:00","67.2","26.53","ND","1856.10","3.84","ND","0.1","250.9","21","80.5","0","0"],
    [7256,"2011-03-05T03:00:00","38.2","26.57","ND","2170.04","3.97","ND","0.2","327.3","20.5","82.4","0","0"],
    [7257,"2011-03-05T04:00:00","20","21.26","ND","2042.24","3.77","ND","0.3","276.8","20.5","82.8","0","0"],
    [7258,"2011-03-05T05:00:00","35.8","16.44","ND","1692.46","3.69","ND","0.8","246.8","20.6","81.4","0","0"],
    [7259,"2011-03-05T06:00:00","18.7","22.61","ND","1659.18","4.29","ND","0.2","257.7","20.6","81.3","0","0"],
    [7260,"2011-03-05T07:00:00","11.2","18.92","ND","1456.01","3.58","ND","0.4","338.2","20.2","82.6","12.1","0"],
    [7261,"2011-03-05T08:00:00","8.3","15.70","ND","1442.76","3.71","ND","0.7","9.7","20.8","79","99.6","0"],
    [7262,"2011-03-05T09:00:00","48.4","14.26","ND","1886.20","4.02","ND","0.5","133","23.9","66.4","428.1","0"],
    [7263,"2011-03-05T10:00:00","26.4","61.56","ND","1849.03","6.37","ND","0.9","64.1","24.9","63.5","372.4","0"],
    [7264,"2011-03-05T11:00:00","25.7","76.70","ND","1557.50","20.24","ND","0.9","61.7","26.7","57.6","677.2","0"],
    [7265,"2011-03-05T12:00:00","29.4","42.87","ND","1578.44","42.49","ND","0.9","99.2","28.2","52","772.8","0"],
    [7266,"2011-03-05T13:00:00","32.1","32.76","ND","1354.75","67.42","ND","1.2","222.7","28.7","49.3","472.1","0"],
    [7267,"2011-03-05T14:00:00","17.1","24.99","ND","1194.63","84.73","ND","0.7","328.3","29.2","47.7","417.1","0"],
    [7268,"2011-03-05T15:00:00","9.8","21.95","ND","1231.46","89.07","ND","3.1","271.8","26.8","56.1","86.9","5.33"],
    [7269,"2011-03-05T16:00:00","4.9","15.39","ND","1106.43","60.77","ND","3.7","284.5","26.3","53.7","151.5","0"],
    [7270,"2011-03-05T17:00:00","3.2","10.61","ND","1150.60","27.57","ND","2.4","306.3","27.1","48.4","195.9","0"],
    [7271,"2011-03-05T18:00:00","1.6","8.05","ND","1072.92","22.29","ND","0.3","324.5","26.9","49.2","49.4","0"],
    [7272,"2011-03-05T19:00:00","0.8","5.41","ND","1026.09","23.28","ND","0.2","98.7","25.9","54.6","2.1","0"],
    [7273,"2011-03-05T20:00:00","1.8","5.76","ND","1137.58","17.95","ND","0.8","317.7","25.6","53.3","0","0"],
    [7274,"2011-03-05T21:00:00","1.5","10.55","ND","1917.02","6.76","ND","1.2","130.6","25","57.6","0","0"],
    [7275,"2011-03-05T22:00:00","19.8","11.06","ND","1271.62","17.47","ND","0.2","119.1","24.5","60.1","0","0"],
    [7276,"2011-03-05T23:00:00","15.8","12.06","ND","2367.43","7.19","ND","0.7","309.8","24","63.3","0","0"],
    [7277,"2011-03-06T00:00:00","9.8","8.62","ND","1575.63","6.30","ND","0.3","335.4","23.2","70.3","0","0"],
    [7278,"2011-03-06T01:00:00","24.7","11.90","ND","1605.55","5.03","ND","0.1","25.9","22.8","73.9","0","0"],
    [7279,"2011-03-06T02:00:00","14.1","19.25","ND","1466.92","6.06","ND","0.1","75.3","22.4","76.4","0","0"],
    [7280,"2011-03-06T03:00:00","12.9","20.81","ND","1442.23","5.68","ND","0.4","349.8","21.8","78.3","0","0"],
    [7281,"2011-03-06T04:00:00","7.1","24.96","ND","1382.63","5.57","ND","1.1","22.1","21.2","83.7","0","0"],
    [7282,"2011-03-06T05:00:00","4.9","27.52","ND","1278.03","4.57","ND","0.4","32.7","20.6","88.2","0","0"],
    [7283,"2011-03-06T06:00:00","3.7","26.07","ND","1049.68","9.72","ND","0.5","5.7","20.4","88.9","0","0"],
    [7284,"2011-03-06T07:00:00","11.2","12.05","ND","1003.85","10.01","ND","0.7","32.1","20.2","90","12.7","0"],
    [7285,"2011-03-06T08:00:00","19.6","10.03","ND","1093.34","8.07","ND","0.9","37.8","20.4","89.7","94.9","0"],
    [7286,"2011-03-06T09:00:00","12.1","13.93","ND","1150.48","6.07","ND","1.1","50.2","21","86.4","98.3","0"],
    [7287,"2011-03-06T10:00:00","6.7","21.20","ND","1141.53","10.28","ND","1.2","52.2","21.4","85.9","151.9","0"],
    [7288,"2011-03-06T11:00:00","5.9","22.86","ND","1041.23","16.23","ND","0.6","61.2","21.8","84.7","186.8","0"],
    [7289,"2011-03-06T12:00:00","9.3","26.54","ND","1087.97","17.10","ND","0.8","41.1","22.5","81.7","237.8","0"],
    [7290,"2011-03-06T13:00:00","7.5","51.65","ND","1226.88","17.32","ND","0.6","125.1","24.2","73","531.2","0"],
    [7291,"2011-03-06T14:00:00","4.9","56.03","ND","1336.76","22.70","ND","0.8","154.2","26.1","61.7","531","0"],
    [7292,"2011-03-06T15:00:00","4.2","36.87","ND","1425.80","53.61","ND","1.4","303.8","25.7","61.2","214.3","0"],
    [7293,"2011-03-06T16:00:00","3.2","16.70","ND","1630.58","111.84","ND","0.7","277","25","67.1","116.2","0"],
    [7294,"2011-03-06T17:00:00","7.5","9.69","ND","1420.55","101.06","ND","1","17.1","25.7","59.2","110.2","0"],
    [7295,"2011-03-06T18:00:00","5.8","17.86","ND","1377.96","71.99","ND","1","25.9","25.6","57.9","59","0"],
    [7296,"2011-03-06T19:00:00","4.8","69.73","ND","1308.62","38.42","ND","0.4","284","24.6","64.7","3.7","0"],
    [7297,"2011-03-06T20:00:00","15.5","55.21","ND","1224.15","34.10","ND","0.3","274.1","23","69.9","0","0"],
    [7298,"2011-03-06T21:00:00","13","27.33","ND","2127.91","6.96","ND","0.1","286.3","22.6","72.4","0","0"],
    [7299,"2011-03-06T22:00:00","8.8","15.70","ND","2204.58","4.52","ND","0.2","240.2","22.5","73.3","0","0"],
    [7300,"2011-03-06T23:00:00","25.9","14.86","ND","2453.75","4.50","ND","0.3","248.5","22.1","76.9","0","0"],
    [7301,"2011-03-07T00:00:00","19.7","15.28","ND","2926.90","4.37","ND","0","286.5","22.2","76.6","0","0"],
    [7302,"2011-03-07T01:00:00","23.6","14.35","ND","2746.32","4.26","ND","0.1","319.3","21.9","78","0","0"],
    [7303,"2011-03-07T02:00:00","13","12.42","ND","2006.63","4.00","ND","0.1","293.2","21.8","78.4","0","0"],
    [7304,"2011-03-07T03:00:00","7.3","10.45","ND","1631.96","3.84","ND","0.2","1.2","21.7","80.7","0","0"],
    [7305,"2011-03-07T04:00:00","5.5","9.95","ND","1314.19","3.92","ND","0.6","29.1","21","84.9","0","0"],
    [7306,"2011-03-07T05:00:00","25.3","13.03","ND","1378.88","4.51","ND","0","0.8","21","84.5","0","0"],
    [7307,"2011-03-07T06:00:00","14","14.42","ND","1299.76","4.39","ND","0.1","283","21","84.4","0","0"],
    [7308,"2011-03-07T07:00:00","36.4","14.92","ND","1299.76","4.22","ND","0","75.7","20.9","83.2","13.8","0"],
    [7309,"2011-03-07T08:00:00","44","14.37","ND","1480.10","3.68","ND","0.4","22.5","21.6","81.5","100.6","0"],
    [7310,"2011-03-07T09:00:00","71.2","17.15","ND","2129.17","4.42","ND","0.4","83.5","23.3","72.8","343.5","0"],
    [7311,"2011-03-07T10:00:00","36.6","33.11","ND","3303.31","5.85","ND","1.2","97.6","25.1","67.1","426.4","0"],
    [7312,"2011-03-07T11:00:00","34.6","79.37","ND","1661.69","16.10","ND","1","108.1","26.3","62.5","669.3","0"],
    [7313,"2011-03-07T12:00:00","19.6","39.98","ND","1438.26","32.34","ND","1.2","104.9","27.2","58.3","688.4","0"],
    [7314,"2011-03-07T13:00:00","19.5","30.94","ND","1281.01","60.29","ND","1","92.6","28.2","53.8","496.5","0"],
    [7315,"2011-03-07T14:00:00","10.6","37.82","ND","1192.65","74.42","ND","0.8","337.2","29.2","49.1","523.7","0"],
    [7316,"2011-03-07T15:00:00","9.5","29.28","ND","1243.08","99.00","ND","2.9","286.7","29.1","48.2","300.8","0"],
    [7317,"2011-03-07T16:00:00","5.3","28.45","ND","1184.60","100.24","ND","3.2","271.8","29.4","46.1","395.4","0"],
    [7318,"2011-03-07T17:00:00","5.8","16.72","ND","1209.02","70.16","ND","2.6","279.9","28.9","45.3","225.5","0"],
    [7319,"2011-03-07T18:00:00","5","11.15","ND","1137.39","47.47","ND","0.9","296.9","28.1","48.1","55","0"],
    [7320,"2011-03-07T19:00:00","6.2","8.55","ND","1180.68","41.22","ND","0.2","112","27","51.4","2.4","0"],
    [7321,"2011-03-07T20:00:00","32.5","9.60","ND","1522.35","31.73","ND","0.2","276.5","26","57.6","0","0"],
    [7322,"2011-03-07T21:00:00","48.5","12.51","ND","2069.01","9.20","ND","0.1","239.4","25.5","59.7","0","0"],
    [7323,"2011-03-07T22:00:00","42.5","20.66","ND","3431.11","5.46","ND","1.1","184.4","25.5","61.3","0","0"],
    [7324,"2011-03-07T23:00:00","40.1","20.50","ND","3396.69","5.54","ND","0.3","330.4","24.3","69.2","0","0"],
    [7325,"2011-03-08T00:00:00","47.2","29.17","ND","2617.28","6.23","ND","0.3","346.5","23.1","73","0","0"],
    [7326,"2011-03-08T01:00:00","37.4","24.97","ND","2128.63","5.34","ND","0.2","320.6","22.5","75.5","0","0"],
    [7327,"2011-03-08T02:00:00","21","19.59","ND","1658.55","4.42","ND","0.2","277.3","21.9","78.3","0","0"],
    [7328,"2011-03-08T03:00:00","21.1","14.39","ND","1575.83","4.82","ND","0.1","322","21.5","80.2","0","0"],
    [7329,"2011-03-08T04:00:00","20.8","11.45","ND","1426.51","4.38","ND","0.1","12.3","22","78.4","0","0"],
    [7330,"2011-03-08T05:00:00","42.2","12.58","ND","1394.91","4.06","ND","0.2","15.5","21.5","81.2","0","0"],
    [7331,"2011-03-08T06:00:00","26.8","20.56","ND","1494.44","4.29","ND","0.4","260.5","20.9","83.1","0","0"],
    [7332,"2011-03-08T07:00:00","40.9","23.00","ND","1389.71","4.18","ND","0.1","203.3","20.9","83.5","15.6","0"],
    [7333,"2011-03-08T08:00:00","59.3","19.77","ND","1615.68","4.06","ND","0.1","237.7","22.5","77.1","109.1","0"],
    [7334,"2011-03-08T09:00:00","68.4","22.63","ND","2658.23","4.67","ND","0.9","56.3","23.4","74.9","160.6","0"],
    [7335,"2011-03-08T10:00:00","79.9","40.29","ND","3213.27","5.62","ND","1.2","95","24.5","70.2","333.6","0"],
    [7336,"2011-03-08T11:00:00","57.2","87.16","ND","2470.36","9.09","ND","0.7","161.7","26.6","59.9","749.7","0"],
    [7337,"2011-03-08T12:00:00","33.4","54.85","ND","1635.50","22.27","ND","1.2","49.5","28.7","53.9","881.4","0"],
    [7338,"2011-03-08T13:00:00","18","43.72","ND","1299.01","46.71","ND","1.2","294","28.1","53.9","208.3","0"],
    [7339,"2011-03-08T14:00:00","10.3","21.87","ND","1273.28","79.95","ND","0.8","336.5","28.3","54.2","356.8","0"],
    [7340,"2011-03-08T15:00:00","8.2","25.72","ND","1378.37","81.39","ND","2.1","278.1","29","51.2","446.8","0"],
    [7341,"2011-03-08T16:00:00","5.7","82.48","ND","1346.74","80.03","ND","3.2","277.4","27.4","53","115.5","0"],
    [7342,"2011-03-08T17:00:00","15","11.67","ND","1304.96","41.48","ND","0.4","44.1","27.2","54.5","45","0"],
    [7343,"2011-03-08T18:00:00","29.2","6.78","ND","1234.85","34.02","ND","1.7","236.4","26.7","55.7","18.3","0"],
    [7344,"2011-03-08T19:00:00","19","20.16","ND","1440.18","21.81","ND","0.4","133.9","26.2","59.3","0.4","0"],
    [7345,"2011-03-08T20:00:00","30.4","13.31","ND","1472.28","23.21","ND","1.6","167.4","24.7","67.9","0","0"],
    [7346,"2011-03-08T21:00:00","27.4","24.19","ND","1819.68","11.98","ND","0.2","41.5","24.3","68.1","0","0"],
    [7347,"2011-03-08T22:00:00","30.1","17.04","ND","2148.68","5.79","ND","0","183.9","23.9","69.9","0","0"],
    [7348,"2011-03-08T23:00:00","25.5","20.81","ND","1883.27","5.90","ND","0.6","102.5","23.3","75","0","0"],
    [7349,"2011-03-09T00:00:00","16.8","26.94","ND","2152.85","5.44","ND","0","171.1","22.7","79","0","0"],
    [7350,"2011-03-09T01:00:00","42.1","30.39","ND","2398.58","5.32","ND","0.4","314.9","22.2","81.2","0","0"],
    [7351,"2011-03-09T02:00:00","37","22.19","ND","1781.70","4.76","ND","0.5","330.8","21.7","85.1","0","0"],
    [7352,"2011-03-09T03:00:00","52.4","19.93","ND","1812.67","4.50","ND","0.3","322.1","21.6","83.6","0","0"],
    [7353,"2011-03-09T04:00:00","40.5","31.60","ND","1574.23","4.62","ND","0.5","175.5","21.9","82.4","0","0"],
    [7354,"2011-03-09T05:00:00","45.2","32.54","ND","1575.83","5.36","ND","1","143.3","21.9","85.2","0","0"],
    [7355,"2011-03-09T06:00:00","25","32.62","ND","1643.85","6.72","ND","1.4","160.6","21.5","87.8","0","0"],
    [7356,"2011-03-09T07:00:00","30.3","21.29","ND","1188.76","10.63","ND","2.4","159.6","21.4","83.8","6.7","0"],
    [7357,"2011-03-09T08:00:00","18.8","14.88","ND","1244.94","5.54","ND","2.1","159.8","21.1","82.7","37.3","0"],
    [7358,"2011-03-09T09:00:00","23.6","15.18","ND","1571.55","7.86","ND","2.6","171.7","21.1","80.6","99.7","0"],
    [7359,"2011-03-09T10:00:00","13.7","13.37","ND","2148.17","8.39","ND","0.8","107.9","21","82","109.4","0"],
    [7360,"2011-03-09T11:00:00","12.9","10.26","ND","1876.18","16.15","ND","1.2","154.5","21.7","78.9","295.1","0.25"],
    [7361,"2011-03-09T12:00:00","7.9","8.71","ND","1710.71","16.07","ND","2.1","105.5","22","81","291","0"],
    [7362,"2011-03-09T13:00:00","5.8","10.30","ND","1735.13","33.30","ND","1.8","117.6","22.1","81.4","333.7","0"],
    [7363,"2011-03-09T14:00:00","21","10.12","ND","1633.62","39.31","ND","0.8","163.4","23","75.1","303.5","0"],
    [7364,"2011-03-09T15:00:00","12.1","8.54","ND","1388.26","34.01","ND","0.4","138.3","24.5","66.4","337.6","0"],
    [7365,"2011-03-09T16:00:00","8.4","9.47","ND","1486.79","44.47","ND","1.2","4.6","23.1","75.5","74.3","0.76"],
    [7366,"2011-03-09T17:00:00","15.5","9.63","ND","1457.03","61.58","ND","0.9","344","21.8","82.8","99.1","0"],
    [7367,"2011-03-09T18:00:00","10","13.53","ND","1416.63","36.11","ND","0.4","35.9","22.2","79.2","35.4","0"],
    [7368,"2011-03-09T19:00:00","5.9","31.80","ND","1634.17","18.72","ND","0.3","6.9","22","83.3","1.4","0"],
    [7369,"2011-03-09T20:00:00","28","48.82","ND","1519.66","19.39","ND","0.2","272.6","21.8","85","0","0"],
    [7370,"2011-03-09T21:00:00","37.3","38.00","ND","2221.28","5.98","ND","0.2","324.7","21.6","84","0","0"],
    [7371,"2011-03-09T22:00:00","26.4","26.65","ND","2536.88","4.46","ND","0.2","10","21.3","83.3","0","0"],
    [7372,"2011-03-09T23:00:00","30.2","19.74","ND","2692.69","4.26","ND","0.1","267.6","20.9","88.8","0","0"],
    [7373,"2011-03-10T00:00:00","33.1","15.22","ND","2101.51","4.49","ND","0.2","297.9","20.8","87.3","0","0"],
    [7374,"2011-03-10T01:00:00","30.1","15.96","ND","2055.62","5.13","ND","0.1","330.3","20.6","86.7","0","0"],
    [7375,"2011-03-10T02:00:00","25.8","16.75","ND","2121.94","4.12","ND","0.2","170.9","20.8","85.3","0","0"],
    [7376,"2011-03-10T03:00:00","29.4","17.90","ND","1863.61","4.16","ND","0.1","137.2","20.8","84.9","0","0"],
    [7377,"2011-03-10T04:00:00","16.6","18.50","ND","1795.84","4.00","ND","1.6","179.2","20.7","84.3","0","0"],
    [7378,"2011-03-10T05:00:00","19.9","19.83","ND","1592.00","4.02","ND","1.2","162","20.6","86.9","0","0"],
    [7379,"2011-03-10T06:00:00","11","19.70","ND","1444.73","4.21","ND","1.4","167.3","20.2","90.2","0","0"],
    [7380,"2011-03-10T07:00:00","7.5","13.30","ND","1330.04","4.40","ND","0.6","165.2","20","90.8","2.9","0"],
    [7381,"2011-03-10T08:00:00","4.9","11.28","ND","1329.14","4.82","ND","0.5","250.9","19.9","92.2","10.3","12.45"],
    [7382,"2011-03-10T09:00:00","9.1","12.52","ND","1587.66","4.30","ND","0.2","173.1","19.4","97.1","50.5","1.78"],
    [7383,"2011-03-10T10:00:00","7.6","17.28","ND","2225.68","4.49","ND","0.3","50.2","20.4","92.9","98","0"],
    [7384,"2011-03-10T11:00:00","9.8","16.67","ND","2526.55","4.95","ND","1.5","37.6","19.5","95.4","40","18.54"],
    [7385,"2011-03-10T12:00:00","5.8","22.68","ND","1922.83","8.76","ND","0.4","228.3","19.6","96.2","153.1","3.81"],
    [7386,"2011-03-10T13:00:00","16.2","14.41","ND","1496.05","12.33","ND","1.6","155","21.9","78.8","452.3","0"],
    [7387,"2011-03-10T14:00:00","10.3","42.63","ND","1813.90","9.03","ND","1.1","155.1","22.9","71.7","261","0"],
    [7388,"2011-03-10T15:00:00","7.1","40.72","ND","1797.30","36.30","ND","0.9","158","23.3","71","272.7","0"],
    [7389,"2011-03-10T16:00:00","16.2","19.41","ND","1776.95","71.96","ND","0.4","184.6","23.8","69.7","213","0"],
    [7390,"2011-03-10T17:00:00","14.6","16.78","ND","2019.56","81.91","ND","0.1","190","23.5","71.3","87.4","0"],
    [7391,"2011-03-10T18:00:00","19.6","17.52","ND","2097.31","95.16","ND","2.5","191.1","22","77.7","39.5","0"],
    [7392,"2011-03-10T19:00:00","20","29.60","ND","2098.04","65.27","ND","0.7","195.7","21.9","75.1","1.5","0"],
    [7393,"2011-03-10T20:00:00","11.8","18.02","ND","2154.01","26.86","ND","0.2","292","21.3","81.1","0","0"],
    [7394,"2011-03-10T21:00:00","30.4","15.37","ND","2681.38","13.95","ND","0.2","292.6","20.7","85.6","0","0"],
    [7395,"2011-03-10T22:00:00","30.8","15.11","ND","2709.78","6.77","ND","0.5","222.8","20.6","85.7","0","0"],
    [7396,"2011-03-10T23:00:00","42.3","14.64","ND","3228.06","4.49","ND","0.3","334.7","20.4","85.9","0","0"],
    [7397,"2011-03-11T00:00:00","47.7","16.05","ND","4060.52","4.91","ND","0.2","185.3","20","87.5","0","0"],
    [7398,"2011-03-11T01:00:00","52.5","12.26","ND","2500.58","5.58","ND","0","276.9","19.4","90","0","0"],
    [7399,"2011-03-11T02:00:00","49.7","12.39","ND","2585.38","4.35","ND","0.3","334","19","91.3","0","0"],
    [7400,"2011-03-11T03:00:00","27.3","11.09","ND","2166.50","4.04","ND","0.1","17.6","18.9","91.1","0","0"],
    [7401,"2011-03-11T04:00:00","15","9.75","ND","2266.76","4.04","ND","0.2","179.5","18.9","89.7","0","0"],
    [7402,"2011-03-11T05:00:00","30.7","9.34","ND","2199.43","3.98","ND","0.1","38","19","90.5","0","0"],
    [7403,"2011-03-11T06:00:00","28.2","9.78","ND","1998.12","4.06","ND","0.2","53.9","18.7","93.5","0","0"],
    [7404,"2011-03-11T07:00:00","47.3","11.21","ND","1984.86","4.34","ND","0","278","18.2","95.1","16.7","0"],
    [7405,"2011-03-11T08:00:00","55.4","12.62","ND","2037.43","4.62","ND","0.2","39.3","19.9","87.6","153.9","0"],
    [7406,"2011-03-11T09:00:00","69.2","18.31","ND","3197.84","4.65","ND","0.9","68.1","21.2","82.1","331.7","0"],
    [7407,"2011-03-11T10:00:00","68.3","35.52","ND","3381.69","6.12","ND","0.4","126.8","23.6","69.7","566","0"],
    [7408,"2011-03-11T11:00:00","50.5","86.48","ND","2280.45","13.89","ND","0.9","103.3","25.3","61.2","671.5","0"],
    [7409,"2011-03-11T12:00:00","27.3","90.44","ND","1766.01","39.80","ND","0.9","112","26.9","53.5","789","0"],
    [7410,"2011-03-11T13:00:00","20.5","56.96","ND","1544.90","84.19","ND","0.4","106","27.4","50.3","492.8","0"],
    [7411,"2011-03-11T14:00:00","12.2","28.84","ND","1397.35","106.11","ND","0.5","78.9","28.4","46.3","529.9","0"],
    [7412,"2011-03-11T15:00:00","10.4","19.08","ND","1320.89","96.78","ND","1.4","262.3","28.9","44.8","397.9","0"],
    [7413,"2011-03-11T16:00:00","10.6","14.28","ND","1427.54","115.53","ND","1.1","241.6","29.6","43.5","512.7","0"],
    [7414,"2011-03-11T17:00:00","15.8","11.31","ND","1582.08","134.54","ND","2.4","297.8","29.2","45.4","360.4","0"],
    [7415,"2011-03-11T18:00:00","9.6","8.98","ND","1463.81","83.38","ND","2","294.4","28","48.4","164.8","0"],
    [7416,"2011-03-11T19:00:00","6.8","5.77","ND","1342.28","29.71","ND","0.3","346.5","26.1","52.3","3.2","0"],
    [7417,"2011-03-11T20:00:00","4","4.94","ND","1345.31","23.91","ND","0.4","115.7","25.6","53.4","0","0"],
    [7418,"2011-03-11T21:00:00","19","8.45","ND","1825.18","12.39","ND","0.8","101.6","25","56.1","0","0"],
    [7419,"2011-03-11T22:00:00","20.7","10.66","ND","2096.46","6.77","ND","0.9","101.8","24.2","60.3","0","0"],
    [7420,"2011-03-11T23:00:00","41.7","12.96","ND","2125.11","6.52","ND","0.4","44.7","22.5","70.9","0","0"],
    [7421,"2011-03-12T00:00:00","56","17.38","ND","2453.75","5.06","ND","0.4","175.6","21.7","75.8","0","0"],
    [7422,"2011-03-12T01:00:00","44.1","20.29","ND","2050.59","5.41","ND","0.2","311.4","21","77.3","0","0"],
    [7423,"2011-03-12T02:00:00","23.4","21.12","ND","2136.13","5.38","ND","0.1","69.1","21.5","76.4","0","0"],
    [7424,"2011-03-12T03:00:00","24.9","16.39","ND","2083.16","4.17","ND","0.3","215.6","21.4","78","0","0"],
    [7425,"2011-03-12T04:00:00","14.1","16.46","ND","1867.42","4.81","ND","0.6","156.2","21.4","78.7","0","0"],
    [7426,"2011-03-12T05:00:00","11.9","13.10","ND","1516.57","4.40","ND","0.6","176.1","21.1","80.7","0","0"],
    [7427,"2011-03-12T06:00:00","14.1","13.24","ND","1277.59","4.71","ND","0.6","138.7","20.9","82","0","0"],
    [7428,"2011-03-12T07:00:00","23","13.49","ND","1254.13","4.74","ND","1.3","180.4","20.8","82.1","13.4","0"],
    [7429,"2011-03-12T08:00:00","17.4","14.16","ND","1366.65","4.14","ND","0.1","260","21.3","80.8","107.6","0"],
    [7430,"2011-03-12T09:00:00","25.7","16.15","ND","1516.05","4.19","ND","0.8","22.8","22.4","76.4","260.6","0"],
    [7431,"2011-03-12T10:00:00","36.2","21.25","ND","1623.93","5.70","ND","1.2","54.3","24.9","63.4","642.5","0"],
    [7432,"2011-03-12T11:00:00","36.4","37.61","ND","1763.64","10.99","ND","1.7","48.5","26.2","56.6","790.8","0"],
    [7433,"2011-03-12T12:00:00","19.8","108.70","ND","1437.78","22.91","ND","1.9","49.4","27.2","53.2","830.9","0"],
    [7434,"2011-03-12T13:00:00","31.2","57.12","ND","1246.39","40.03","ND","1.1","67.2","27.8","51.6","527.1","0"],
    [7435,"2011-03-12T14:00:00","17.1","63.27","ND","1110.12","42.63","ND","0.8","17.6","27.9","50.9","286.8","0"],
    [7436,"2011-03-12T15:00:00","23","35.69","ND","1284.00","56.33","ND","0.7","317.7","28.7","48.6","383.9","0"],
    [7437,"2011-03-12T16:00:00","13","33.64","ND","1241.02","48.38","ND","1.5","260.6","28.6","49.2","262.9","0"],
    [7438,"2011-03-12T17:00:00","10.3","39.06","ND","1321.77","47.94","ND","2.8","275.1","27.7","50.1","168.3","0"],
    [7439,"2011-03-12T18:00:00","7.1","24.06","ND","1260.03","42.34","ND","1","269.9","27.2","50.9","73.7","0"],
    [7440,"2011-03-12T19:00:00","5.7","6.52","ND","1246.39","26.47","ND","0.8","280.1","26.4","52","4.1","0"],
    [7441,"2011-03-12T20:00:00","3.9","6.13","ND","1381.19","20.13","ND","0.2","356.2","25.8","53.8","0","0"],
    [7442,"2011-03-12T21:00:00","4.2","6.62","ND","1378.42","19.99","ND","0.3","53.1","25.3","56.6","0","0"],
    [7443,"2011-03-12T22:00:00","18.8","7.92","ND","1479.32","18.60","ND","0.2","344.8","24.5","61.4","0","0"],
    [7444,"2011-03-12T23:00:00","50","10.23","ND","1978.58","10.52","ND","0.3","142.6","23.8","65.5","0","0"],
    [7445,"2011-03-13T00:00:00","27","26.15","ND","2612.88","4.77","ND","0.1","321.7","22.4","71.4","0","0"],
    [7446,"2011-03-13T01:00:00","38.4","19.79","ND","2362.07","5.12","ND","0.3","339.4","21.6","74.2","0","0"],
    [7447,"2011-03-13T02:00:00","30.2","17.23","ND","2129.17","4.36","ND","0.2","289.3","20.9","78","0","0"],
    [7448,"2011-03-13T03:00:00","17","15.53","ND","1852.95","4.16","ND","0.2","281.6","20.7","80.5","0","0"],
    [7449,"2011-03-13T04:00:00","10.7","13.17","ND","1750.07","3.89","ND","0.1","313.4","20.6","82.2","0","0"],
    [7450,"2011-03-13T05:00:00","24.6","13.11","ND","1918.78","4.04","ND","0.2","276.4","20","84.5","0","0"],
    [7451,"2011-03-13T06:00:00","28.2","12.11","ND","1836.01","3.88","ND","0","279.5","19.4","87.8","0","0"],
    [7452,"2011-03-13T07:00:00","21.3","11.34","ND","1708.60","3.66","ND","0.1","245.7","19.4","87.7","14.4","0"],
    [7453,"2011-03-13T08:00:00","25.4","10.05","ND","1731.08","4.18","ND","0.2","72.3","21.5","78.7","117.4","0"],
    [7454,"2011-03-13T09:00:00","24.7","10.36","ND","2003.91","4.01","ND","0.4","58.7","22.8","74.2","330.8","0"],
    [7455,"2011-03-13T10:00:00","14.6","35.63","ND","2001.38","6.78","ND","0.2","49.3","24.7","64.5","386.2","0"],
    [7456,"2011-03-13T11:00:00","21.3","87.27","ND","1693.79","14.47","ND","0.3","89.6","25.8","58.7","506.1","0"],
    [7457,"2011-03-13T12:00:00","10.6","65.89","ND","1435.85","37.56","ND","1.7","255.8","26.1","58.5","279.1","0"],
    [7458,"2011-03-13T13:00:00","13.3","28.96","ND","1264.82","57.00","ND","0.7","268.2","27.1","53.7","385.2","0"],
    [7459,"2011-03-13T14:00:00","7.4","34.38","ND","1430.56","65.77","ND","0.9","194.5","28.8","48.7","756.4","0"],
    [7460,"2011-03-13T15:00:00","12","26.54","ND","1450.27","95.87","ND","0.8","175.6","29.2","48.8","304.6","0"],
    [7461,"2011-03-13T16:00:00","8.4","33.88","ND","1463.81","110.25","ND","1.2","27","28.5","50.3","259.8","0"],
    [7462,"2011-03-13T17:00:00","13.4","22.00","ND","1437.24","118.03","ND","3.7","281.2","28.8","45.7","367.6","0"],
    [7463,"2011-03-13T18:00:00","8.1","26.24","ND","1380.66","93.65","ND","3.2","277.6","27.5","46.8","139.3","0"],
    [7464,"2011-03-13T19:00:00","5.6","20.05","ND","1155.22","44.11","ND","0.4","169.4","27","46","10.9","0"],
    [7465,"2011-03-13T20:00:00","4.8","5.46","ND","1222.49","30.64","ND","0.6","95.8","26.1","47.5","0","0"],
    [7466,"2011-03-13T21:00:00","3.8","7.89","ND","1483.29","21.31","ND","1.2","137.2","25.3","53.1","0","0"],
    [7467,"2011-03-13T22:00:00","2.9","7.82","ND","1972.43","9.94","ND","0","358","24.1","60","0","0"],
    [7468,"2011-03-13T23:00:00","32.9","11.13","ND","2067.29","5.22","ND","0","291.7","23.3","62.2","0","0"],
    [7469,"2011-03-14T00:00:00","24.2","14.59","ND","2027.55","4.76","ND","0.3","146.4","23.3","65","0","0"],
    [7470,"2011-03-14T01:00:00","78.8","11.54","ND","1685.83","4.51","ND","0.8","184.1","22.3","70.9","0","0"],
    [7471,"2011-03-14T02:00:00","70.8","24.30","ND","1691.49","4.69","ND","0.3","214.4","21.8","73.9","0","0"],
    [7472,"2011-03-14T03:00:00","58.3","28.31","ND","1450.63","5.20","ND","0.4","234.4","21.6","75","0","0"],
    [7473,"2011-03-14T04:00:00","36.1","30.51","ND","1472.30","5.55","ND","0.2","246.1","21.3","77.3","0","0"],
    [7474,"2011-03-14T05:00:00","32.6","17.49","ND","1368.97","5.47","ND","0","320.8","20.8","80.1","0","0"],
    [7475,"2011-03-14T06:00:00","18.4","12.09","ND","1287.59","5.98","ND","0.1","249.9","20.3","81.6","0","0"],
    [7476,"2011-03-14T07:00:00","22.9","9.77","ND","1330.50","5.18","ND","0.1","342.2","20.5","79.9","22.4","0"],
    [7477,"2011-03-14T08:00:00","40.3","10.94","ND","1478.08","4.48","ND","0.5","21.3","22.1","73.8","187.6","0"],
    [7478,"2011-03-14T09:00:00","62.1","16.94","ND","2722.70","4.49","ND","0.8","42.7","23.9","66.6","399.1","0"],
    [7479,"2011-03-14T10:00:00","48.6","50.12","ND","2579.52","8.04","ND","1","115.8","25.5","60.5","598.6","0"],
    [7480,"2011-03-14T11:00:00","55.1","48.08","ND","2295.06","19.01","ND","1","81.2","27.1","54.2","710.3","0"],
    [7481,"2011-03-14T12:00:00","29.5","29.82","ND","1972.79","61.06","ND","1.1","111.6","28.2","49.8","733.4","0"],
    [7482,"2011-03-14T13:00:00","43.7","23.23","ND","1482.12","92.39","ND","1","63.2","29.1","47.9","709.1","0"],
    [7483,"2011-03-14T14:00:00","25.4","21.22","ND","1416.87","114.97","ND","0.5","256.3","30.4","43.6","719.3","0"],
    [7484,"2011-03-14T15:00:00","32.1","22.73","ND","1422.97","123.37","ND","1.7","262.1","30.8","41.6","497.7","0"],
    [7485,"2011-03-14T16:00:00","17","27.17","ND","1366.45","128.36","ND","4.2","275.1","30.4","41","567.2","0"],
    [7486,"2011-03-14T17:00:00","10.7","16.19","ND","1341.32","71.69","ND","5.1","278.6","29.2","44","318.3","0"],
    [7487,"2011-03-14T18:00:00","7.8","5.10","ND","1184.99","33.27","ND","3.3","280.6","28.4","46.3","102","0"],
    [7488,"2011-03-14T19:00:00","13.2","4.72","ND","1170.26","30.35","ND","1","275.7","27.7","47.7","3.5","0"],
    [7489,"2011-03-14T20:00:00","7.7","5.55","ND","1283.15","37.39","ND","0.9","102.3","26.9","52","0","0"],
    [7490,"2011-03-14T21:00:00","30.5","6.80","ND","1579.49","29.96","ND","0.9","135.4","26","56.5","0","0"],
    [7491,"2011-03-14T22:00:00","28.3","9.62","ND","1942.57","11.12","ND","0.5","61.2","24.6","63.1","0","0"],
    [7492,"2011-03-14T23:00:00","67.7","17.01","ND","2379.66","5.66","ND","0.3","79","23.6","68.1","0","0"],
    [7493,"2011-03-15T00:00:00","48","42.38","ND","2531.30","6.31","ND","0.1","189.1","23.4","68.5","0","0"],
    [7494,"2011-03-15T01:00:00","42.8","25.59","ND","2187.76","10.54","ND","0.3","102.2","23","69.7","0","0"],
    [7495,"2011-03-15T02:00:00","36.3","16.79","ND","1763.77","6.72","ND","0.6","82.1","22.2","74.4","0","0"],
    [7496,"2011-03-15T03:00:00","35.5","16.92","ND","1702.26","7.97","ND","0.1","253.7","21.4","77.4","0","0"],
    [7497,"2011-03-15T04:00:00","18.3","17.84","ND","1369.44","6.38","ND","0.1","196.5","20.9","79.8","0","0"],
    [7498,"2011-03-15T05:00:00","25.1","12.27","ND","1231.53","6.60","ND","0.1","206.8","20.4","81","0","0"],
    [7499,"2011-03-15T06:00:00","13.8","9.34","ND","1330.95","5.22","ND","1","161.9","20.7","86.1","0","0"],
    [7500,"2011-03-15T07:00:00","47.8","9.43","ND","1298.44","4.58","ND","0.1","268.7","20.1","85.6","26","0"],
    [7501,"2011-03-15T08:00:00","41.4","8.48","ND","1476.07","4.03","ND","0.2","173.6","22.4","72.5","206.2","0"],
    [7502,"2011-03-15T09:00:00","40.3","12.73","ND","2532.42","4.28","ND","1","130.2","24","67.7","409.2","0"],
    [7503,"2011-03-15T10:00:00","35.3","16.53","ND","2500.46","6.61","ND","1.4","125.2","25.5","60.2","585.6","0"],
    [7504,"2011-03-15T11:00:00","24.1","20.26","ND","1859.00","25.53","ND","1.2","135.3","26.8","53.4","697","0"],
    [7505,"2011-03-15T12:00:00","13.7","20.09","ND","1532.86","52.42","ND","1.3","106.7","28.3","49","809.3","0"],
    [7506,"2011-03-15T13:00:00","11.4","16.61","ND","1332.04","71.19","ND","0.6","121.2","29","47.6","550.7","0"],
    [7507,"2011-03-15T14:00:00","14.6","15.08","ND","1346.74","99.57","ND","0.8","356.6","28.5","48.1","230.5","0"],
    [7508,"2011-03-15T15:00:00","34.1","15.35","ND","1460.42","113.82","ND","3.6","272.2","28.7","47.2","500.6","0"],
    [7509,"2011-03-15T16:00:00","19.5","13.50","ND","1380.20","92.66","ND","4","277.9","29.4","44.5","503.1","0"],
    [7510,"2011-03-15T17:00:00","11.2","5.88","ND","1441.53","40.28","ND","3.6","260.5","29.1","45.2","311.4","0"],
    [7511,"2011-03-15T18:00:00","6.1","4.52","ND","1370.42","34.48","ND","1.7","257.1","28.5","45.9","100.8","0"],
    [7512,"2011-03-15T19:00:00","4.3","5.33","ND","1367.69","34.90","ND","1","253.1","27.1","48.9","2.3","0"],
    [7513,"2011-03-15T20:00:00","24.8","6.41","ND","1730.52","26.26","ND","0.7","83.3","26.9","51.3","0","0"],
    [7514,"2011-03-15T21:00:00","17.3","7.25","ND","1902.30","24.65","ND","1.3","132.3","26.2","54.8","0","0"],
    [7515,"2011-03-15T22:00:00","20.9","9.76","ND","1989.88","14.07","ND","0.3","9.4","24.7","62.6","0","0"],
    [7516,"2011-03-15T23:00:00","43.9","16.78","ND","1819.68","12.43","ND","0.3","160.6","24.4","63.6","0","0"],
    [7517,"2011-03-16T00:00:00","27.1","27.67","ND","1840.71","6.19","ND","0.3","235.3","23.2","68.5","0","0"],
    [7518,"2011-03-16T01:00:00","31.8","29.01","ND","1992.70","4.88","ND","0.2","47.6","22.8","70.8","0","0"],
    [7519,"2011-03-16T02:00:00","17.3","15.55","ND","1762.58","4.34","ND","0.4","134.3","22.5","73.7","0","0"],
    [7520,"2011-03-16T03:00:00","12.1","18.03","ND","1533.60","4.85","ND","0.6","215.7","22.3","75.5","0","0"],
    [7521,"2011-03-16T04:00:00","7.1","19.14","ND","1362.27","8.44","ND","0.7","212.8","22.3","76.3","0","0"],
    [7522,"2011-03-16T05:00:00","10.3","13.22","ND","1271.46","9.68","ND","0.1","346.8","22.3","76.2","0","0"],
    [7523,"2011-03-16T06:00:00","5.8","11.63","ND","1271.46","12.99","ND","0.5","44","21.6","79.9","0","0"],
    [7524,"2011-03-16T07:00:00","37","10.57","ND","1279.77","13.95","ND","0.3","32.7","21.8","79.6","25.8","0"],
    [7525,"2011-03-16T08:00:00","43.5","21.64","ND","1529.96","4.66","ND","0.9","53.5","22","79.5","49.8","0"],
    [7526,"2011-03-16T09:00:00","76.3","27.55","ND","1939.27","4.86","ND","0.2","17.9","22.6","77","119.4","0"],
    [7527,"2011-03-16T10:00:00","83.8","79.14","ND","2397.76","5.68","ND","0.7","39.7","24.1","69.8","317","0"],
    [7528,"2011-03-16T11:00:00","83.8","63.01","ND","2604.10","7.20","ND","1.2","47.4","26.2","60","732","0"],
    [7529,"2011-03-16T12:00:00","43","188.84","ND","1817.35","14.88","ND","1","35.8","27.7","53.1","582.9","0"],
    [7530,"2011-03-16T13:00:00","32","200.70","ND","1364.06","31.35","ND","0.9","30.5","28.7","49.4","739.7","0"],
    [7531,"2011-03-16T14:00:00","16.8","97.78","ND","1357.00","57.24","ND","1","355.8","29.3","47.2","385.5","0"],
    [7532,"2011-03-16T15:00:00","11.4","58.34","ND","1255.11","69.89","ND","1.1","354.7","29.6","46.7","312.3","0"],
    [7533,"2011-03-16T16:00:00","7.8","29.99","ND","1337.78","63.23","ND","2.9","283.1","30","45.7","533.9","0"],
    [7534,"2011-03-16T17:00:00","11.7","20.19","ND","1397.79","51.28","ND","3.1","282.6","29","47.1","281.9","0"],
    [7535,"2011-03-16T18:00:00","17.3","8.50","ND","1288.69","47.05","ND","1.9","280","28.5","47.8","114.9","0"],
    [7536,"2011-03-16T19:00:00","31.1","6.52","ND","1425.65","48.46","ND","1","252.8","27.4","49.6","2.6","0"],
    [7537,"2011-03-16T20:00:00","22","9.03","ND","1535.93","45.04","ND","0.7","74","26.6","53.1","0","0"],
    [7538,"2011-03-16T21:00:00","51.3","13.65","ND","1635.50","31.15","ND","0.4","64.3","26","55.3","0","0"],
    [7539,"2011-03-16T22:00:00","29.3","21.35","ND","2057.52","11.72","ND","1.1","129.3","24.8","62.6","0","0"],
    [7540,"2011-03-16T23:00:00","57.1","16.21","ND","1866.09","17.06","ND","0.2","22.3","23.8","67.7","0","0"],
    [7541,"2011-03-17T00:00:00","44.1","35.81","ND","2156.48","5.84","ND","0.1","233.1","22.9","70.8","0","0"],
    [7542,"2011-03-17T01:00:00","42","23.47","ND","1956.56","4.73","ND","1.4","173.3","23.3","69.8","0","0"],
    [7543,"2011-03-17T02:00:00","26.2","56.98","ND","1708.61","5.27","ND","0.3","359","23.1","71.4","0","0"],
    [7544,"2011-03-17T03:00:00","25.7","28.38","ND","1741.60","4.80","ND","0.7","66.7","22.4","77","0","0"],
    [7545,"2011-03-17T04:00:00","26.9","21.90","ND","1544.43","6.44","ND","0.4","206","22.1","78.6","0","0"],
    [7546,"2011-03-17T05:00:00","15.4","31.68","ND","1520.17","5.25","ND","0.1","213.3","22.1","78.6","0","0"],
    [7547,"2011-03-17T06:00:00","16.8","26.78","ND","1429.42","6.12","ND","0.1","253.2","22.2","79.1","0","0"],
    [7548,"2011-03-17T07:00:00","23.1","20.48","ND","1588.78","5.17","ND","0.3","43.3","22.2","79","8.2","0"],
    [7549,"2011-03-17T08:00:00","29.2","21.13","ND","1566.08","2.74","ND","0.1","37.1","22.7","77.2","86.2","0"],
    [7550,"2011-03-17T09:00:00","59.9","27.74","ND","2091.65","4.15","ND","0.5","12.4","23.5","75.1","217.3","0"],
    [7551,"2011-03-17T10:00:00","60.4","62.39","ND","2963.59","5.33","ND","1","66.3","25.2","67.4","489.7","0"],
    [7552,"2011-03-17T11:00:00","63.6","88.18","ND","2831.55","9.72","ND","1.7","131.5","26.6","61.5","510.7","0"],
    [7553,"2011-03-17T12:00:00","68.6","96.92","ND","2303.52","30.34","ND","0.8","207.1","26.8","60","358.5","0"],
    [7554,"2011-03-17T13:00:00","51.2","55.30","ND","1959.30","77.88","ND","0.2","148.6","27.5","57.9","288.1","0"],
    [7555,"2011-03-17T14:00:00","39.6","32.00","ND","1779.04","95.38","ND","0.8","105.2","27.7","58","237.8","0"],
    [7556,"2011-03-17T15:00:00","48.7","27.81","ND","1884.26","118.14","ND","1.8","262.6","27.9","53.8","333.1","0"],
    [7557,"2011-03-17T16:00:00","32.6","25.95","ND","1735.13","113.26","ND","2.5","259.9","28.3","49.9","391.5","0"],
    [7558,"2011-03-17T17:00:00","19.9","17.19","ND","1540.53","61.65","ND","2.3","258.9","28.4","49.2","264.7","0"],
    [7559,"2011-03-17T18:00:00","11.3","9.49","ND","1459.93","48.27","ND","2","264.9","27.7","50.7","103","0"],
    [7560,"2011-03-17T19:00:00","25.8","7.43","ND","1444.98","41.40","ND","0.9","244.1","26.6","54.2","3.9","0"],
    [7561,"2011-03-17T20:00:00","14.4","8.01","ND","1600.94","30.95","ND","2.7","152.8","25.6","63.8","0","0"],
    [7562,"2011-03-17T21:00:00","41.3","9.29","ND","1848.14","19.64","ND","0.6","258.8","25","64.8","0","0"],
    [7563,"2011-03-17T22:00:00","25.6","15.62","ND","2188.11","12.01","ND","0.4","306.1","24.4","67.4","0","0"],
    [7564,"2011-03-17T23:00:00","39.5","16.71","ND","1977.91","9.83","ND","0.7","28.5","23.1","76.8","0","0"],
    [7565,"2011-03-18T00:00:00","61.9","15.91","ND","2060.33","6.79","ND","0.3","338","22.4","78.2","0","0"],
    [7566,"2011-03-18T01:00:00","60.1","60.13","ND","1941.90","5.58","ND","0.3","23.7","21.9","79.8","0","0"],
    [7567,"2011-03-18T02:00:00","57.2","85.36","ND","1779.89","5.24","ND","0.3","358.8","21.8","79.7","0","0"],
    [7568,"2011-03-18T03:00:00","58.4","39.45","ND","1779.29","4.85","ND","0.6","330.6","21.9","79.1","0","0"],
    [7569,"2011-03-18T04:00:00","66.6","67.70","ND","1779.89","4.49","ND","0.2","65.5","22.2","79.1","0","0"],
    [7570,"2011-03-18T05:00:00","57.8","51.21","ND","1770.36","4.45","ND","0","9.6","21.9","81.6","0","0"],
    [7571,"2011-03-18T06:00:00","52.7","121.90","ND","1700.53","5.22","ND","0.3","352.8","21.9","84.5","0","0"],
    [7572,"2011-03-18T07:00:00","58.7","107.38","ND","1802.57","4.70","ND","0.4","24","21.7","85.7","9.4","0"],
    [7573,"2011-03-18T08:00:00","61.2","79.42","ND","1869.32","5.01","ND","0.3","33","22.4","81.7","55.6","0"],
    [7574,"2011-03-18T09:00:00","89.2","101.95","ND","2237.16","5.29","ND","0.9","34.9","22.9","80.7","148.4","0"],
    [7575,"2011-03-18T10:00:00","79.1","108.55","ND","2809.71","5.88","ND","0.8","59.4","25","69.1","432.4","0"],
    [7576,"2011-03-18T11:00:00","72.2","166.54","ND","2222.48","6.79","ND","1.7","86.8","26.6","61.4","661.9","0"],
    [7577,"2011-03-18T12:00:00","40.1","161.01","ND","1854.33","22.31","ND","0.8","4.1","27.6","56.6","372.5","0"],
    [7578,"2011-03-18T13:00:00","40.4","115.08","ND","1467.62","39.85","ND","1.6","11.1","28.1","54.8","351.7","0"],
    [7579,"2011-03-18T14:00:00","21","113.47","ND","1458.48","42.02","ND","0.5","333.5","29.5","50.2","513.1","0"],
    [7580,"2011-03-18T15:00:00","12.7","74.18","ND","1500.15","48.33","ND","1.5","202","29.6","48.6","288.6","0"],
    [7581,"2011-03-18T16:00:00","149.7","43.18","ND","1489.01","53.76","ND","2.8","274.8","28.3","51.3","114.2","0"],
    [7582,"2011-03-18T17:00:00","84.8","23.23","ND","1586.86","62.00","ND","2.9","275.1","27.7","51.4","96.3","0"],
    [7583,"2011-03-18T18:00:00","47.1","12.06","ND","1572.14","39.21","ND","0.9","263.9","27.6","50.7","42.3","0"],
    [7584,"2011-03-18T19:00:00","25.5","9.54","ND","1606.29","35.99","ND","0.7","90.8","27.1","53.2","1.9","0"],
    [7585,"2011-03-18T20:00:00","25.1","9.60","ND","1765.13","29.78","ND","1.1","73.6","26.1","61.1","0","0"],
    [7586,"2011-03-18T21:00:00","48","16.99","ND","2115.70","14.14","ND","0.5","3.9","24.2","70.3","0","0"],
    [7587,"2011-03-18T22:00:00","52.1","39.07","ND","2330.77","8.45","ND","0.3","294","23.6","73.5","0","0"],
    [7588,"2011-03-18T23:00:00","70.2","40.40","ND","2223.44","12.11","ND","0.2","326.2","22.9","76","0","0"],
    [7589,"2011-03-19T00:00:00","52.6","48.84","ND","2149.94","10.76","ND","0.5","350.9","22.8","74.1","0","0"],
    [7590,"2011-03-19T01:00:00","55.8","36.10","ND","2967.96","4.99","ND","0.1","70.4","22.7","77.1","0","0"],
    [7591,"2011-03-19T02:00:00","37.4","30.97","ND","2330.37","4.85","ND","0.1","332.4","21.9","81.4","0","0"],
    [7592,"2011-03-19T03:00:00","49","51.44","ND","1881.93","5.26","ND","0.2","233.4","22","79.9","0","0"],
    [7593,"2011-03-19T04:00:00","33.6","35.80","ND","1984.63","5.92","ND","0.4","265.1","22.2","80.5","0","0"],
    [7594,"2011-03-19T05:00:00","25.4","30.42","ND","2224.29","4.67","ND","0.4","122.1","22.4","79.9","0","0"],
    [7595,"2011-03-19T06:00:00","21.8","27.45","ND","1907.83","7.39","ND","0.3","347.6","21.8","84.9","0","0"],
    [7596,"2011-03-19T07:00:00","32","25.58","ND","1586.63","7.96","ND","0.1","339","21.7","84.7","17.2","0"],
    [7597,"2011-03-19T08:00:00","40.6","28.94","ND","1540.77","5.86","ND","0.3","226.6","22.3","81.7","65.7","0"],
    [7598,"2011-03-19T09:00:00","56.6","45.10","ND","2009.35","4.98","ND","0.6","109.3","23.8","75.6","212.1","0"],
    [7599,"2011-03-19T10:00:00","54.1","45.90","ND","2202.12","7.39","ND","0.6","133.7","25.9","66.2","473.5","0"],
    [7600,"2011-03-19T11:00:00","50.1","39.74","ND","2654.35","13.01","ND","2","127","27.3","59.6","645.7","0"],
    [7601,"2011-03-19T12:00:00","34.9","32.74","ND","2551.33","56.64","ND","1.4","98","28.3","56.3","560.4","0"],
    [7602,"2011-03-19T13:00:00","29.3","27.76","ND","1760.61","83.65","ND","1.2","350","28.1","56.4","292.2","0"],
    [7603,"2011-03-19T14:00:00","20.5","26.08","ND","1574.23","87.50","ND","1.5","8.2","28.7","54","372.8","0"],
    [7604,"2011-03-19T15:00:00","29.5","26.58","ND","1658.56","105.48","ND","2.6","254.4","29.4","49.3","431.9","0"],
    [7605,"2011-03-19T16:00:00","16.1","30.76","ND","1499.65","63.27","ND","3.7","266.1","29.9","47.4","434","0"],
    [7606,"2011-03-19T17:00:00","9","9.19","ND","1362.40","37.58","ND","2.7","268.9","28.3","50","116.9","0"],
    [7607,"2011-03-19T18:00:00","12.4","6.76","ND","1343.62","36.33","ND","2.6","165.3","26.3","63","21.3","0"],
    [7608,"2011-03-19T19:00:00","50.4","6.42","ND","1288.68","34.02","ND","1.4","79.3","22.8","87.1","1.1","1.02"],
    [7609,"2011-03-19T20:00:00","70.4","10.53","ND","1512.41","31.56","ND","1","19.8","21.3","93.6","0","4.32"],
    [7610,"2011-03-19T21:00:00","45.5","9.63","ND","1482.11","33.33","ND","0.1","39.4","21.5","91.7","0","1.78"],
    [7611,"2011-03-19T22:00:00","24.4","6.16","ND","860.44","25.29","ND","0.2","269.7","22","91.8","0","0"],
    [7612,"2011-03-19T23:00:00","34.3","5.50","ND","952.62","22.96","ND","0.7","35.9","21.8","93.5","0","0"],
    [7613,"2011-03-20T00:00:00","20.2","7.13","ND","1620.63","6.78","ND","0.4","148.6","21.7","94.4","0","0.25"],
    [7614,"2011-03-20T01:00:00","11.9","13.71","ND","1223.55","6.91","ND","1.1","161.9","21.5","93.1","0","0"],
    [7615,"2011-03-20T02:00:00","7.6","21.00","ND","1222.72","5.62","ND","0.3","151.3","21.6","92.4","0","0"],
    [7616,"2011-03-20T03:00:00","5.2","16.32","ND","1064.58","7.72","ND","0.1","161.4","21.6","91.5","0","0"],
    [7617,"2011-03-20T04:00:00","3.4","9.22","ND","1245.79","8.17","ND","0.1","250.5","21.6","91.9","0","0"],
    [7618,"2011-03-20T05:00:00","5.2","5.26","ND","1166.51","9.06","ND","0.2","18.4","21.4","93.3","0","0"],
    [7619,"2011-03-20T06:00:00","3.4","4.37","ND","1199.67","5.62","ND","0.5","47.6","21.1","95.4","0","0"],
    [7620,"2011-03-20T07:00:00","10.8","3.44","ND","1141.92","5.17","ND","0.2","33.3","21.3","94","14.2","0"],
    [7621,"2011-03-20T08:00:00","23.2","3.39","ND","1063.50","4.90","ND","0.5","57.9","21.6","93.1","81.7","0"],
    [7622,"2011-03-20T09:00:00","26.2","4.43","ND","1234.46","4.75","ND","0.2","101.2","22.6","86.7","169.1","0"],
    [7623,"2011-03-20T10:00:00","14.3","6.39","ND","1170.47","6.23","ND","1.3","66.8","23.8","82.6","314.2","0"],
    [7624,"2011-03-20T11:00:00","36","11.69","ND","1152.40","9.48","ND","0.7","127.6","25.1","74.5","400.7","0"],
    [7625,"2011-03-20T12:00:00","20.4","26.29","ND","1203.29","17.41","ND","1.1","70.2","26.8","63.2","485","0"],
    [7626,"2011-03-20T13:00:00","16.6","30.10","ND","1083.38","30.30","ND","2.7","27.1","23.8","75.9","147.8","1.02"],
    [7627,"2011-03-20T14:00:00","10.5","19.10","ND","1004.07","41.77","ND","2.5","27.5","25.9","64","671.9","0.25"],
    [7628,"2011-03-20T15:00:00","7.4","7.70","ND","988.20","34.56","ND","3.2","26","26.6","58.8","498.9","0"],
    [7629,"2011-03-20T16:00:00","4.9","8.48","ND","886.85","41.21","ND","1.9","86.4","26.5","61.1","272.2","0"],
    [7630,"2011-03-20T17:00:00","3.5","8.53","ND","875.04","44.16","ND","2.8","194.1","23.9","72.5","53.2","0"],
    [7631,"2011-03-20T18:00:00","3.1","7.88","ND","947.34","42.19","ND","1.5","212.1","23.3","74.6","21.9","0"],
    [7632,"2011-03-20T19:00:00","4.6","7.71","ND","1082.12","34.18","ND","1.9","192.3","23.2","73.4","0.5","0"],
    [7633,"2011-03-20T20:00:00","4.7","7.11","ND","1218.40","23.04","ND","1.5","128.4","22.7","77.6","0","0"],
    [7634,"2011-03-20T21:00:00","17","6.71","ND","1352.75","17.72","ND","0.9","133.2","21.3","86.3","0","0"],
    [7635,"2011-03-20T22:00:00","9.4","6.03","ND","1448.17","12.40","ND","0.7","48.8","20.6","92.3","0","0.76"],
    [7636,"2011-03-20T23:00:00","9.5","5.21","ND","1230.27","14.02","ND","0.7","19.7","20.1","95.4","0","0.51"],
    [7637,"2011-03-21T00:00:00","6.1","4.79","ND","1194.38","10.46","ND","1.3","47.8","19.7","96.1","0","0"],
    [7638,"2011-03-21T01:00:00","4.9","5.22","ND","1147.74","6.15","ND","1","40.4","19.5","96","0","0"],
    [7639,"2011-03-21T02:00:00","4.5","6.74","ND","1000.77","7.07","ND","1.2","35.5","19.5","95.2","0","0"],
    [7640,"2011-03-21T03:00:00","2.2","7.74","ND","888.33","9.78","ND","1.3","358","19.5","93.9","0","0"],
    [7641,"2011-03-21T04:00:00","2.1","7.30","ND","877.08","11.21","ND","0.4","304.1","19.7","90.4","0","0"],
    [7642,"2011-03-21T05:00:00","3.8","19.23","ND","978.95","5.17","ND","0.2","253.1","19.6","90.1","0","0"],
    [7643,"2011-03-21T06:00:00","3.2","28.38","ND","933.62","7.98","ND","0.4","237.9","19.3","87","0","0"],
    [7644,"2011-03-21T07:00:00","3.4","16.65","ND","910.19","6.62","ND","0.7","141.3","19.5","90.2","20.5","0"],
    [7645,"2011-03-21T08:00:00","3.9","11.55","ND","888.33","8.44","ND","0.3","139.8","19.9","88.7","62.5","0"],
    [7646,"2011-03-21T09:00:00","16.6","10.82","ND","1069.70","5.81","ND","0.5","186","20.5","85.3","121.5","0.25"],
    [7647,"2011-03-21T10:00:00","10.1","16.00","ND","1038.04","7.81","ND","0.6","194.2","21.6","79.9","256.6","0"],
    [7648,"2011-03-21T11:00:00","10.7","17.82","ND","1087.24","11.23","ND","0.3","147.2","23","72.3","334.5","0"],
    [7649,"2011-03-21T12:00:00","6.5","13.98","ND","1137.92","18.23","ND","0.5","149.2","24.6","65","593.4","0"],
    [7650,"2011-03-21T13:00:00","6.8","12.35","ND","1063.98","36.37","ND","0.4","85.7","26.5","56.4","799.2","0"],
    [7651,"2011-03-21T14:00:00","4.7","14.80","ND","1047.75","69.52","ND","1.8","37.2","27.5","54.1","658.9","0"],
    [7652,"2011-03-21T15:00:00","19.2","12.79","ND","1062.80","94.83","ND","2","313.7","26.9","57.4","408.7","0"],
    [7653,"2011-03-21T16:00:00","10.9","11.92","ND","1014.56","90.96","ND","2.8","280.7","27.1","56.2","254","0"],
    [7654,"2011-03-21T17:00:00","6.1","37.15","ND","1003.70","69.54","ND","2.8","261.2","26.9","56.9","121.4","0"],
    [7655,"2011-03-21T18:00:00","3.9","8.86","ND","945.39","28.95","ND","1.8","261.5","26.5","57.5","34.6","0"],
    [7656,"2011-03-21T19:00:00","3","5.74","ND","1001.70","23.63","ND","1.2","249","26","58.2","0.7","0"],
    [7657,"2011-03-21T20:00:00","9.5","5.71","ND","1160.95","24.91","ND","0.6","217.6","25.2","61.9","0","0"],
    [7658,"2011-03-21T21:00:00","10.3","6.03","ND","1238.09","14.83","ND","0.6","306.5","24.2","65.9","0","0"],
    [7659,"2011-03-21T22:00:00","20.2","6.74","ND","1645.25","8.87","ND","0.8","4.3","23.4","72.3","0","0"],
    [7660,"2011-03-21T23:00:00","36.1","6.54","ND","1367.35","13.39","ND","1","216.8","23.4","75.6","0","0"],
    [7661,"2011-03-22T00:00:00","26.5","24.65","ND","1264.80","10.85","ND","0.2","182.3","23","78.1","0","0"],
    [7662,"2011-03-22T01:00:00","13.8","27.80","ND","1467.92","8.58","ND","1","162.7","22.5","78.2","0","0"],
    [7663,"2011-03-22T02:00:00","8.6","19.38","ND","1192.80","7.41","ND","2.6","186.8","21.8","83","0","0"],
    [7664,"2011-03-22T03:00:00","10.8","14.36","ND","1008.64","6.29","ND","1.5","153.3","22","81.1","0","0"],
    [7665,"2011-03-22T04:00:00","6.6","11.36","ND","975.30","14.69","ND","1.1","149.8","20.6","92.6","0","13.46"],
    [7666,"2011-03-22T05:00:00","5.3","10.07","ND","925.53","21.63","ND","0.8","175.8","19.2","98.3","0","39.12"],
    [7667,"2011-03-22T06:00:00","4.4","7.86","ND","1010.98","15.07","ND","0.3","300.9","18.9","99.7","0","12.7"],
    [7668,"2011-03-22T07:00:00","3.1","6.34","ND","920.17","17.36","ND","0.3","359.3","19.3","98.5","1.3","0"],
    [7669,"2011-03-22T08:00:00","2.4","5.53","ND","977.61","14.34","ND","1","48.7","19.4","97.6","10.6","10.67"],
    [7670,"2011-03-22T09:00:00","2.8","6.58","ND","1539.99","5.64","ND","0.5","39.8","19.3","98.9","62.2","6.86"],
    [7671,"2011-03-22T10:00:00","3.3","7.94","ND","1595.65","6.64","ND","0.2","109","20.4","94.8","185.7","0"],
    [7672,"2011-03-22T11:00:00","3.9","11.17","ND","1432.46","7.73","ND","0.6","61.4","21.6","87.4","313.5","0"],
    [7673,"2011-03-22T12:00:00","3.8","22.69","ND","1257.12","11.33","ND","1","86.5","23","81.4","521.3","0"],
    [7674,"2011-03-22T13:00:00","2.9","51.95","ND","1240.33","14.70","ND","1.1","27.5","24.7","73.7","599.9","0"],
    [7675,"2011-03-22T14:00:00","3.6","46.67","ND","1499.23","26.54","ND","0.2","341.7","25.9","67.3","471.4","0"],
    [7676,"2011-03-22T15:00:00","18.4","35.16","ND","1436.33","61.61","ND","0.8","270.9","27.1","59.9","411.9","0"],
    [7677,"2011-03-22T16:00:00","9.9","24.94","ND","1269.05","81.46","ND","0.6","141.3","28.1","54.7","402.1","0"],
    [7678,"2011-03-22T17:00:00","6.7","20.65","ND","1169.10","73.66","ND","1.4","295.6","27.8","54.2","247.7","0"],
    [7679,"2011-03-22T18:00:00","7.2","13.07","ND","1167.94","61.80","ND","1.5","260.5","26.6","56.2","72.5","0"],
    [7680,"2011-03-22T19:00:00","8.1","8.32","ND","1197.83","25.35","ND","0.1","307.1","25.7","60.3","1.9","0"],
    [7681,"2011-03-22T20:00:00","5.3","7.04","ND","1274.61","15.70","ND","0.1","157.6","25.1","62.6","0","0"],
    [7682,"2011-03-22T21:00:00","7.7","11.95","ND","1718.99","7.42","ND","0.2","191.9","24.8","62.7","0","0"],
    [7683,"2011-03-22T22:00:00","5.9","11.34","ND","1579.88","8.35","ND","0.3","33.3","23.8","71.6","0","0"],
    [7684,"2011-03-22T23:00:00","22.1","11.72","ND","1734.31","6.94","ND","0.5","216.1","22.5","82.8","0","0"],
    [7685,"2011-03-23T00:00:00","13.4","13.23","ND","1772.15","5.95","ND","0.8","157.9","22.4","85.2","0","0"],
    [7686,"2011-03-23T01:00:00","14.8","11.77","ND","1794.27","5.14","ND","0.2","288.7","22.2","86.1","0","0"],
    [7687,"2011-03-23T02:00:00","8","8.98","ND","1452.60","6.80","ND","0.2","325","22","83.9","0","0"],
    [7688,"2011-03-23T03:00:00","4.7","7.42","ND","1360.89","4.08","ND","0.2","340.2","21.6","88.4","0","0"],
    [7689,"2011-03-23T04:00:00","21","6.89","ND","1200.49","4.44","ND","0.2","254.3","21.1","89.7","0","0"],
    [7690,"2011-03-23T05:00:00","28.2","7.65","ND","1198.45","5.29","ND","1.5","182.6","21.1","87.1","0","0"],
    [7691,"2011-03-23T06:00:00","15.4","9.46","ND","1254.98","4.01","ND","1.1","176.8","21.1","88.3","0","0"],
    [7692,"2011-03-23T07:00:00","9.4","10.60","ND","1028.86","13.36","ND","1.6","174.7","20.9","91.1","6.9","0"],
    [7693,"2011-03-23T08:00:00","7.7","8.99","ND","1073.35","10.66","ND","0.6","181.9","21.1","88","92.6","0.25"],
    [7694,"2011-03-23T09:00:00","7.6","8.15","ND","1526.33","4.59","ND","0.9","154.2","22.3","82.4","182.7","0"],
    [7695,"2011-03-23T10:00:00","12.8","8.57","ND","1884.48","7.25","ND","1.3","151.9","23.5","74.5","295.9","0"],
    [7696,"2011-03-23T11:00:00","18.5","11.34","ND","2108.71","10.80","ND","0.9","128.2","24.9","67.9","464.3","0"],
    [7697,"2011-03-23T12:00:00","11.6","13.75","ND","1694.93","30.19","ND","0.6","103.4","26.2","62.9","651.1","0"],
    [7698,"2011-03-23T13:00:00","20.6","15.68","ND","1460.78","61.39","ND","0.5","156.7","28.1","55","726.8","0"],
    [7699,"2011-03-23T14:00:00","10.3","17.42","ND","1458.48","95.71","ND","0.7","78.7","28.6","52.6","494.4","0"],
    [7700,"2011-03-23T15:00:00","5.1","15.51","ND","1286.99","113.56","ND","0.5","113.3","29","51.4","253.9","0"],
    [7701,"2011-03-23T16:00:00","3.8","10.46","ND","1277.08","103.97","ND","1.5","321.1","28.3","53.9","212","0"],
    [7702,"2011-03-23T17:00:00","17","9.93","ND","1158.29","86.63","ND","1.4","276.5","28.1","54.7","101.9","0"],
    [7703,"2011-03-23T18:00:00","11.1","10.83","ND","1226.98","60.73","ND","1.3","249.7","27.5","56.3","21.9","0"],
    [7704,"2011-03-23T19:00:00","23.8","7.58","ND","1374.71","21.45","ND","0.8","117.2","27.3","57.3","2.1","0"],
    [7705,"2011-03-23T20:00:00","49.4","7.26","ND","1777.85","11.23","ND","0.4","318.4","25.6","67.9","0","0"],
    [7706,"2011-03-23T21:00:00","29.2","10.16","ND","1974.41","6.00","ND","0.7","38.1","23.6","77.6","0","0"],
    [7707,"2011-03-23T22:00:00","25.7","13.46","ND","1459.49","10.90","ND","1","62.8","22.4","86","0","1.78"],
    [7708,"2011-03-23T23:00:00","18.9","16.16","ND","1181.04","12.10","ND","1","51.8","21.5","91.9","0","0.25"],
    [7709,"2011-03-24T00:00:00","11.7","11.76","ND","1188.76","14.00","ND","0.2","123.6","21.3","93.8","0","0"],
    [7710,"2011-03-24T01:00:00","7.3","10.20","ND","1074.81","13.60","ND","0.1","30.4","21.5","91.7","0","0"],
    [7711,"2011-03-24T02:00:00","5.5","6.53","ND","1052.90","11.11","ND","0.2","198.7","21.5","91.4","0","0"],
    [7712,"2011-03-24T03:00:00","7.1","9.04","ND","1143.47","6.23","ND","0.1","33.3","21.4","91","0","0"],
    [7713,"2011-03-24T04:00:00","6","15.64","ND","1177.04","5.45","ND","0","257.8","21.4","92.7","0","0"],
    [7714,"2011-03-24T05:00:00","6.2","21.43","ND","1143.09","5.62","ND","0.5","66.4","21.1","93.3","0","0"],
    [7715,"2011-03-24T06:00:00","3.8","16.34","ND","1119.31","5.54","ND","0.3","42.8","20.9","94","0","0"],
    [7716,"2011-03-24T07:00:00","3.1","13.02","ND","1050.76","4.95","ND","0.7","43.6","20.7","95.5","11.4","0"],
    [7717,"2011-03-24T08:00:00","10.3","12.50","ND","1309.73","4.99","ND","0.1","42.7","21.3","92.5","51.4","0"],
    [7718,"2011-03-24T09:00:00","32.5","14.34","ND","1436.86","4.50","ND","1","161.5","22.9","83.5","239.4","0"],
    [7719,"2011-03-24T10:00:00","16.9","24.33","ND","1581.17","5.46","ND","0.9","130.3","25","72.2","558.8","0"],
    [7720,"2011-03-24T11:00:00","28.4","30.81","ND","2130.83","9.56","ND","0.8","119.3","26.6","65.3","427.1","0"],
    [7721,"2011-03-24T12:00:00","14.8","19.44","ND","1946.47","38.10","ND","0.9","83.4","27.8","60.6","431.2","0"],
    [7722,"2011-03-24T13:00:00","10.8","14.97","ND","1595.79","77.94","ND","0.6","60.5","28.4","58","505.2","0"],
    [7723,"2011-03-24T14:00:00","7.6","13.17","ND","1390.41","87.98","ND","1.6","2.1","29.5","54.8","759.4","0"],
    [7724,"2011-03-24T15:00:00","25.5","11.76","ND","1290.83","102.35","ND","2.1","300.9","30.6","49.2","661.8","0"],
    [7725,"2011-03-24T16:00:00","15.1","40.68","ND","1225.49","101.00","ND","3.7","277","29.9","49.3","409.9","0"],
    [7726,"2011-03-24T17:00:00","9.3","25.04","ND","1199.38","35.58","ND","1.1","310.5","28.6","51.7","87.4","0"],
    [7727,"2011-03-24T18:00:00","12.2","7.50","ND","997.12","28.36","ND","2.2","163.1","26.1","66.6","6.1","0"],
    [7728,"2011-03-24T19:00:00","20.9","17.28","ND","1184.33","21.82","ND","2.4","191.2","23.7","76","0","0.51"],
    [7729,"2011-03-24T20:00:00","12.1","11.17","ND","1482.79","21.80","ND","0.9","195.3","23.1","83.1","0","0.25"],
    [7730,"2011-03-24T21:00:00","17.2","10.65","ND","1752.99","18.54","ND","0.9","155.6","23","84.3","0","0"],
    [7731,"2011-03-24T22:00:00","11.3","8.12","ND","2366.87","9.02","ND","0.6","45.8","22.5","87.2","0","0.25"],
    [7732,"2011-03-24T23:00:00","20","7.35","ND","2237.91","6.09","ND","0.4","50.7","21.5","89.4","0","0"],
    [7733,"2011-03-25T00:00:00","11.5","7.41","ND","2049.20","6.15","ND","0.3","348.2","21.4","90.8","0","0"],
    [7734,"2011-03-25T01:00:00","22.6","10.02","ND","1505.25","8.84","ND","0.5","48.8","21.1","92","0","0"],
    [7735,"2011-03-25T02:00:00","23.4","9.57","ND","1187.15","10.23","ND","0.2","339.4","21.1","91.3","0","0"],
    [7736,"2011-03-25T03:00:00","37.5","11.90","ND","1175.84","6.10","ND","0.4","334","21.3","90.2","0","0"],
    [7737,"2011-03-25T04:00:00","28.8","50.77","ND","1199.27","4.65","ND","0.1","203.8","21.6","89.6","0","0"],
    [7738,"2011-03-25T05:00:00","37.5","58.83","ND","1245.79","5.78","ND","0.3","83.1","21.5","89.6","0","0"],
    [7739,"2011-03-25T06:00:00","19.9","45.37","ND","1369.90","5.27","ND","0.4","38.6","21","92.2","0","0"],
    [7740,"2011-03-25T07:00:00","50.2","36.09","ND","1299.76","4.84","ND","0.2","356.9","21.1","90.7","7.4","0"],
    [7741,"2011-03-25T08:00:00","38.1","25.96","ND","1526.33","5.09","ND","0.3","343.4","21.6","88.7","52.6","0"],
    [7742,"2011-03-25T09:00:00","75.3","28.80","ND","1755.43","5.35","ND","0.3","74.9","22.5","84.2","126.3","0"],
    [7743,"2011-03-25T10:00:00","55.9","57.24","ND","2124.31","6.38","ND","0.8","81.3","24","77.3","398.5","0"],
    [7744,"2011-03-25T11:00:00","78.5","137.52","ND","2169.35","7.22","ND","1","60.8","26.2","63.5","663","0"],
    [7745,"2011-03-25T12:00:00","40.3","221.62","ND","1656.32","11.82","ND","1.3","48","27.2","60.5","507.3","0"],
    [7746,"2011-03-25T13:00:00","20.8","126.99","ND","1096.36","33.13","ND","0.8","54.9","28.1","59.1","572.2","0"],
    [7747,"2011-03-25T14:00:00","12.4","30.82","ND","1145.95","55.64","ND","1.3","292.3","28.2","57.1","278.3","0"],
    [7748,"2011-03-25T15:00:00","11.4","49.66","ND","1262.12","75.67","ND","1.5","294.7","28.6","50.5","346.5","0"],
    [7749,"2011-03-25T16:00:00","7.6","40.41","ND","1136.26","61.97","ND","0.6","292.6","28.9","45.9","158.6","0"],
    [7750,"2011-03-25T17:00:00","5.1","13.83","ND","1183.81","36.18","ND","1.3","112.1","27.5","54.9","48","0"],
    [7751,"2011-03-25T18:00:00","6.4","9.86","ND","1212.98","37.72","ND","1.2","178","24.5","70.1","31.3","0"],
    [7752,"2011-03-25T19:00:00","30.2","10.23","ND","1566.85","29.62","ND","0.7","157.8","24.6","68","7.1","0"],
    [7753,"2011-03-25T20:00:00","20.4","21.22","ND","1796.19","14.54","ND","0.4","149.9","23.5","73.4","0","0"],
    [7754,"2011-03-25T21:00:00","27","15.36","ND","2120.10","13.57","ND","0.1","298.2","22.9","77.2","0","0"],
    [7755,"2011-03-25T22:00:00","49.6","14.73","ND","2775.58","5.79","ND","0.6","23.4","21.8","82.5","0","0"],
    [7756,"2011-03-25T23:00:00","53.4","17.55","ND","3932.57","5.79","ND","0.4","330","21.1","85.7","0","0"],
    [7757,"2011-03-26T00:00:00","55.8","13.76","ND","2238.62","4.90","ND","0.1","319.9","21","85.8","0","0"],
    [7758,"2011-03-26T01:00:00","59.8","13.91","ND","2102.23","4.78","ND","0","22.1","20.8","87.3","0","0"],
    [7759,"2011-03-26T02:00:00","52.1","16.46","ND","1965.26","5.46","ND","0.5","352.6","20.5","89.3","0","0"],
    [7760,"2011-03-26T03:00:00","45.4","18.79","ND","2019.67","5.01","ND","0","195.6","20.5","89","0","0"],
    [7761,"2011-03-26T04:00:00","36.6","21.29","ND","1703.74","4.99","ND","0.2","281","20.4","88.3","0","0"],
    [7762,"2011-03-26T05:00:00","37","40.12","ND","1714.44","5.14","ND","0.1","22.7","20.5","88.6","0","0"],
    [7763,"2011-03-26T06:00:00","41.4","47.54","ND","1534.50","4.75","ND","0.3","173.3","20.4","88.5","0","0"],
    [7764,"2011-03-26T07:00:00","51.7","44.06","ND","1737.00","5.43","ND","0.7","178.5","20.6","88.7","35.3","0"],
    [7765,"2011-03-26T08:00:00","54.8","56.82","ND","1614.03","5.45","ND","0.2","53.6","21.8","83.7","119.4","0"],
    [7766,"2011-03-26T09:00:00","66.7","45.80","ND","1892.62","5.69","ND","0.3","45.2","22.7","80.9","204.6","0"],
    [7767,"2011-03-26T10:00:00","65.1","41.94","ND","2591.83","6.60","ND","0.8","172.5","24.7","69.3","413.8","0"],
    [7768,"2011-03-26T11:00:00","36.8","46.46","ND","2700.91","9.86","ND","1.6","155.7","26.4","62.1","561.3","0"],
    [7769,"2011-03-26T12:00:00","20.7","43.78","ND","1933.66","36.69","ND","1.7","159.3","27.3","57.9","556.2","0"],
    [7770,"2011-03-26T13:00:00","12","28.02","ND","1720.13","74.28","ND","1.2","105.7","28.5","54.1","536.8","0"],
    [7771,"2011-03-26T14:00:00","8","18.98","ND","1564.73","89.09","ND","1.5","115.7","28.8","53.5","332.1","0"],
    [7772,"2011-03-26T15:00:00","9.4","14.14","ND","1357.45","91.62","ND","1","86.3","29.3","53.1","303.1","0"],
    [7773,"2011-03-26T16:00:00","6.8","12.01","ND","1278.35","76.48","ND","1.1","350.1","28.1","57","117.6","0"],
    [7774,"2011-03-26T17:00:00","32.6","10.62","ND","1400.60","74.73","ND","0.3","351.2","27.8","57.9","117.2","0"],
    [7775,"2011-03-26T18:00:00","17.6","21.40","ND","1237.32","69.57","ND","1.2","47","26.5","61.3","61.9","0"],
    [7776,"2011-03-26T19:00:00","19.1","27.76","ND","1278.02","37.79","ND","0.1","177.3","26.3","61.8","2.7","0"],
    [7777,"2011-03-26T20:00:00","14.3","19.74","ND","1265.67","28.14","ND","0.2","152.2","25.9","64.3","0","0"],
    [7778,"2011-03-26T21:00:00","24.3","24.10","ND","1723.60","10.53","ND","0.8","159.6","25.7","65.3","0","0"],
    [7779,"2011-03-26T22:00:00","19.3","25.06","ND","2135.83","5.29","ND","1.1","139.9","24.6","71.8","0","0"],
    [7780,"2011-03-26T23:00:00","23.4","49.82","ND","2505.51","5.60","ND","0.2","189.1","24","74.3","0","0"],
    [7781,"2011-03-27T00:00:00","23.7","18.49","ND","1735.48","7.82","ND","0.9","213.7","24.2","72.4","0","0"],
    [7782,"2011-03-27T01:00:00","14.7","15.24","ND","2262.21","4.62","ND","0.2","282.5","23.6","75.3","0","0"],
    [7783,"2011-03-27T02:00:00","7.8","12.23","ND","1869.97","5.64","ND","0.1","293.2","23.2","76.3","0","0"],
    [7784,"2011-03-27T03:00:00","5.1","9.90","ND","1639.71","5.11","ND","0.7","10","22.1","83.3","0","0"],
    [7785,"2011-03-27T04:00:00","26.3","8.56","ND","1520.17","5.95","ND","0.5","19.4","21.5","86.9","0","0"],
    [7786,"2011-03-27T05:00:00","40.4","12.79","ND","1562.37","5.20","ND","0.2","37.3","21.3","87.2","0","0"],
    [7787,"2011-03-27T06:00:00","30.7","40.81","ND","1516.05","6.10","ND","0.7","18.7","21.1","90.6","0","0"],
    [7788,"2011-03-27T07:00:00","28.3","39.18","ND","1548.94","5.62","ND","0.5","21.8","21.1","90.8","35.9","0"],
    [7789,"2011-03-27T08:00:00","14.9","32.12","ND","1187.15","5.11","ND","0.6","47.7","22.4","84.5","146.7","0"],
    [7790,"2011-03-27T09:00:00","26.7","21.38","ND","1203.75","4.88","ND","0.8","45.7","23.7","76.6","367.5","0"],
    [7791,"2011-03-27T10:00:00","20.2","54.11","ND","1380.14","6.13","ND","1","73.3","25.6","69.3","580.1","0"],
    [7792,"2011-03-27T11:00:00","25.3","95.99","ND","1262.71","10.56","ND","1","103","27.4","62.7","643.6","0"],
    [7793,"2011-03-27T12:00:00","17.8","91.89","ND","1177.93","22.69","ND","0.4","56.8","28.3","58.9","563.9","0"],
    [7794,"2011-03-27T13:00:00","30","63.29","ND","1262.54","49.50","ND","0.7","143.4","29.6","54.5","555.9","0"],
    [7795,"2011-03-27T14:00:00","41.9","26.18","ND","1314.52","76.92","ND","0.5","214.9","30.8","50.1","782.8","0"],
    [7796,"2011-03-27T15:00:00","22.6","22.39","ND","1261.34","95.19","ND","0.8","31.2","30.8","50.7","256.8","0"],
    [7797,"2011-03-27T16:00:00","20.6","18.38","ND","1378.13","108.25","ND","1.6","285","29.9","52.7","131.2","0"],
    [7798,"2011-03-27T17:00:00","25.8","18.03","ND","1292.53","100.13","ND","2.6","261.5","29.7","52.1","184","0"],
    [7799,"2011-03-27T18:00:00","14.5","14.24","ND","1175.31","47.40","ND","2.1","266.3","29.3","52","74.7","0"],
    [7800,"2011-03-27T19:00:00","27.5","12.36","ND","1231.87","54.35","ND","0.7","241","28.2","54.5","2.8","0"],
    [7801,"2011-03-27T20:00:00","22.2","11.76","ND","1308.44","53.39","ND","0.1","56.3","27.6","57.5","0","0"],
    [7802,"2011-03-27T21:00:00","30.8","9.96","ND","1536.95","31.43","ND","0.8","150.2","27.3","59.9","0","0"],
    [7803,"2011-03-27T22:00:00","32.5","23.55","ND","1881.75","15.05","ND","0","126.2","26.2","64.5","0","0"],
    [7804,"2011-03-27T23:00:00","38.4","40.41","ND","1840.35","8.41","ND","0.6","308.1","25.6","68.5","0","0"],
    [7805,"2011-03-28T00:00:00","26.6","18.80","ND","1951.45","6.88","ND","0.4","6.1","24.4","75.4","0","0"],
    [7806,"2011-03-28T01:00:00","47.9","16.19","ND","1852.15","6.68","ND","0.4","252.9","24.1","77.6","0","0"],
    [7807,"2011-03-28T02:00:00","31.2","17.14","ND","1519.06","5.63","ND","0.1","257.2","23.9","78.3","0","0"],
    [7808,"2011-03-28T03:00:00","42.8","17.80","ND","1506.62","5.45","ND","0.1","0.5","23.9","78.2","0","0"],
    [7809,"2011-03-28T04:00:00","23.2","20.08","ND","1540.86","5.40","ND","0.1","111.8","23.3","82.6","0","0"],
    [7810,"2011-03-28T05:00:00","46.3","17.40","ND","1252.98","6.61","ND","0.4","36.2","23.5","81.9","0","0"],
    [7811,"2011-03-28T06:00:00","34.6","21.25","ND","1333.61","5.53","ND","0.1","34.9","22.9","85.3","0","0"],
    [7812,"2011-03-28T07:00:00","77.6","24.51","ND","1319.54","5.24","ND","0.1","309.1","23.1","84.2","21.9","0"],
    [7813,"2011-03-28T08:00:00","68.3","28.04","ND","1513.94","5.23","ND","0.2","270.1","24","79.3","115.3","0"],
    [7814,"2011-03-28T09:00:00","76.7","38.81","ND","2157.93","5.69","ND","0.9","79","25.4","71.9","251.7","0"],
    [7815,"2011-03-28T10:00:00","75.2","50.45","ND","2431.95","6.21","ND","0.1","18.4","26.5","67.1","287.4","0"],
    [7816,"2011-03-28T11:00:00","64.5","39.08","ND","2383.34","9.84","ND","0.7","77.4","27.6","63.3","543.7","0"],
    [7817,"2011-03-28T12:00:00","ND","30.42","ND","1976.08","20.35","ND","0.6","86.6","28.9","58.4","488.7","0"],
    [7818,"2011-03-28T13:00:00","13.5","33.53","ND","1659.66","50.79","ND","0.4","195.1","29.7","54.1","241.1","0"],
    [7819,"2011-03-28T14:00:00","7.6","30.08","ND","1570.96","100.66","ND","2.9","261","30.4","48.7","710.4","0"],
    [7820,"2011-03-28T15:00:00","4.4","23.21","ND","1772.88","120.26","ND","2.6","261","31.4","45.2","711.8","0"],
    [7821,"2011-03-28T16:00:00","3.6","9.34","ND","1544.68","47.49","ND","1.4","320.1","29.5","52.4","139.9","0"],
    [7822,"2011-03-28T17:00:00","17.3","ND","ND","ND","56.23","ND","2.5","45.2","27.7","64.4","222.1","0"],
    [7823,"2011-03-28T18:00:00","27.2","ND","ND","ND","ND","ND","0.3","150.5","28","57.1","42.3","0"],
    [7824,"2011-03-28T19:00:00","24.8","11.99","ND","856.28","ND","ND","2.4","145.5","26.2","66.5","1.8","0"],
    [7825,"2011-03-28T20:00:00","32.1","11.84","ND","1046.70","26.52","ND","2.1","177.9","24.7","71.1","0","0"],
    [7826,"2011-03-28T21:00:00","22.4","11.36","ND","1384.79","14.74","ND","0.6","102.4","24.5","71","0","0"],
    [7827,"2011-03-28T22:00:00","55.9","9.89","ND","1395.30","14.81","ND","0.6","21.6","23.3","78.5","0","0"],
    [7828,"2011-03-28T23:00:00","53.8","10.00","ND","1697.22","9.23","ND","0","269.4","23.1","79.1","0","0"],
    [7829,"2011-03-29T00:00:00","64.1","14.29","ND","1343.20","14.06","ND","0.2","285.4","22.7","81.8","0","0"],
    [7830,"2011-03-29T01:00:00","51.9","17.52","ND","1295.91","9.19","ND","0.2","110.3","22.6","81.3","0","0"],
    [7831,"2011-03-29T02:00:00","53.6","17.13","ND","1454.57","9.27","ND","0.1","103.6","22.2","82.4","0","0"],
    [7832,"2011-03-29T03:00:00","56","20.82","ND","1259.68","9.02","ND","0.1","155.6","22.2","82.6","0","0"],
    [7833,"2011-03-29T04:00:00","43.5","18.07","ND","953.27","13.72","ND","0.6","33.7","21.6","86.6","0","0"],
    [7834,"2011-03-29T05:00:00","36","21.86","ND","1053.26","11.25","ND","0.5","105.2","21.8","86.2","0","0"],
    [7835,"2011-03-29T06:00:00","28.8","21.10","ND","985.98","9.18","ND","0.3","30.2","21.5","88.5","0","0"],
    [7836,"2011-03-29T07:00:00","17.9","25.66","ND","905.72","8.69","ND","0.4","66.7","21.5","89.3","35.2","0"],
    [7837,"2011-03-29T08:00:00","61","19.50","ND","984.97","8.94","ND","0.1","187.5","22.5","84.2","158.8","0"],
    [7838,"2011-03-29T09:00:00","58.4","18.11","ND","1567.68","8.99","ND","0.6","73.6","24.1","76.6","297.3","0"],
    [7839,"2011-03-29T10:00:00","60.8","30.72","ND","1907.39","10.25","ND","1.2","56.9","25","72.7","389.6","0"],
    [7840,"2011-03-29T11:00:00","45.9","35.92","ND","1706.95","15.46","ND","1","91.2","26.7","65.9","548.6","0"],
    [7841,"2011-03-29T12:00:00","57.3","29.41","ND","1140.62","30.27","ND","0.8","156.7","27.8","61","434.9","0"],
    [7842,"2011-03-29T13:00:00","45.6","22.96","ND","994.48","59.38","ND","0.9","63.5","29.2","56","606.3","0"],
    [7843,"2011-03-29T14:00:00","43.9","18.39","ND","975.87","86.29","ND","1.2","52","29.6","52.8","389.5","0"],
    [7844,"2011-03-29T15:00:00","40.5","21.63","ND","942.27","108.78","ND","1.5","16","30.3","51.4","559.7","0"],
    [7845,"2011-03-29T16:00:00","41.1","37.68","ND","827.85","111.31","ND","1.6","354.8","29.7","51.5","193.8","0"],
    [7846,"2011-03-29T17:00:00","22.6","68.08","ND","837.85","97.63","ND","2.6","268.7","29.7","50.4","215.1","0"],
    [7847,"2011-03-29T18:00:00","22.8","43.49","ND","802.94","51.51","ND","0.6","250.2","28.6","51.9","35.2","0"],
    [7848,"2011-03-29T19:00:00","12.2","13.63","ND","800.02","39.19","ND","0.4","215.8","27.7","53.6","1.3","0"],
    [7849,"2011-03-29T20:00:00","26.8","11.50","ND","1017.27","27.43","ND","0.4","150.7","27.3","55.4","0","0"],
    [7850,"2011-03-29T21:00:00","14.1","10.14","ND","1431.52","18.59","ND","1","112.9","26.7","59.6","0","0"],
    [7851,"2011-03-29T22:00:00","48.1","10.09","ND","1232.79","19.12","ND","0.7","108.7","25.7","64.9","0","0"],
    [7852,"2011-03-29T23:00:00","42.6","16.39","ND","1619.10","9.89","ND","0.2","124.5","24.7","70.2","0","0"],
    [7853,"2011-03-30T00:00:00","40.9","22.49","ND","1396.23","8.66","ND","0.1","91.4","24.2","72.4","0","0"],
    [7854,"2011-03-30T01:00:00","22.5","17.01","ND","1028.28","8.85","ND","0.2","82.9","23.9","73.9","0","0"],
    [7855,"2011-03-30T02:00:00","12.4","15.35","ND","1118.55","7.68","ND","0.4","123.1","23.6","75.2","0","0"],
    [7856,"2011-03-30T03:00:00","8.2","13.77","ND","855.17","8.26","ND","0.1","142.1","23.2","76.4","0","0"],
    [7857,"2011-03-30T04:00:00","8.5","11.09","ND","592.12","12.64","ND","0.7","233.6","22.8","79.3","0","0"],
    [7858,"2011-03-30T05:00:00","4.8","10.40","ND","534.46","15.49","ND","0.4","213.2","22.9","79.1","0","0"],
    [7859,"2011-03-30T06:00:00","28.3","9.86","ND","671.15","11.11","ND","0.2","306.8","22.5","80.7","0","0"],
    [7860,"2011-03-30T07:00:00","54","9.33","ND","624.80","15.45","ND","0","318.1","22.4","80.8","28.2","0"],
    [7861,"2011-03-30T08:00:00","62.5","8.81","ND","738.15","10.10","ND","0.3","35.7","23.3","77.1","88.3","0"],
    [7862,"2011-03-30T09:00:00","76.3","14.56","ND","1480.79","8.08","ND","0.4","34.9","24.6","74","295.3","0"],
    [7863,"2011-03-30T10:00:00","78.2","35.77","ND","1819.07","10.66","ND","1.2","36.8","26.6","64.3","595.1","0"],
    [7864,"2011-03-30T11:00:00","40.8","66.33","ND","1831.30","14.34","ND","1.3","60.6","27.9","58","684.4","0"],
    [7865,"2011-03-30T12:00:00","39.8","246.95","ND","1098.92","24.13","ND","0.6","272.7","28.7","54.9","342.1","0"],
    [7866,"2011-03-30T13:00:00","27.9","87.33","ND","765.49","50.98","ND","0.8","211.7","29.5","51.3","333.5","0"],
    [7867,"2011-03-30T14:00:00","15.2","37.58","ND","790.78","68.68","ND","0.4","149.3","30.6","46.6","573.3","0"],
    [7868,"2011-03-30T15:00:00","29.5","29.15","ND","887.02","86.41","ND","1.1","324.9","30.3","47.6","343.4","0"],
    [7869,"2011-03-30T16:00:00","18.1","18.53","ND","757.89","72.48","ND","3.4","281.4","30.5","46.6","447.5","0"],
    [7870,"2011-03-30T17:00:00","10.8","16.09","ND","840.06","46.85","ND","2.8","276.7","29.6","47.9","226.8","0"],
    [7871,"2011-03-30T18:00:00","24.1","7.93","ND","674.71","45.93","ND","2.9","230.1","28.4","51.9","74.2","0"],
    [7872,"2011-03-30T19:00:00","35.5","7.13","ND","718.38","42.59","ND","2","196.4","26.4","60.8","1.2","0"],
    [7873,"2011-03-30T20:00:00","42","7.19","ND","886.26","32.33","ND","1.4","48.3","25.7","65","0","0"],
    [7874,"2011-03-30T21:00:00","75.7","8.48","ND","1148.30","19.08","ND","1.1","85.8","24.8","69.8","0","0"],
    [7875,"2011-03-30T22:00:00","93.1","15.34","ND","1373.81","18.26","ND","0.2","107.9","25","67.2","0","0"],
    [7876,"2011-03-30T23:00:00","62.3","16.61","ND","1558.03","27.41","ND","0.4","330.9","24.9","67.9","0","0"],
    [7877,"2011-03-31T00:00:00","79","22.68","ND","1362.82","15.32","ND","0.9","130.5","24.4","70.6","0","0"],
    [7878,"2011-03-31T01:00:00","68.2","39.07","ND","1166.17","12.38","ND","1.1","169","23.4","76.3","0","0"],
    [7879,"2011-03-31T02:00:00","44.1","31.77","ND","888.78","15.56","ND","0.4","202.7","23.3","77.9","0","0"],
    [7880,"2011-03-31T03:00:00","23.2","18.50","ND","990.99","20.72","ND","0.2","21.1","23.3","78.4","0","0"],
    [7881,"2011-03-31T04:00:00","26.5","14.49","ND","899.87","18.50","ND","0.3","39.2","22.6","81.4","0","0"],
    [7882,"2011-03-31T05:00:00","30.7","12.50","ND","897.74","15.57","ND","0.7","50.2","22","84.7","0","0"],
    [7883,"2011-03-31T06:00:00","39.5","13.80","ND","929.94","10.86","ND","0.4","16.9","21.3","93.5","0","0"],
    [7884,"2011-03-31T07:00:00","50.2","16.02","ND","961.68","9.15","ND","0.6","359.2","21.2","93.3","7.3","0"],
    [7885,"2011-03-31T08:00:00","79.3","11.54","ND","961.35","8.97","ND","0.2","239.8","22.1","85.5","68.3","0"],
    [7886,"2011-03-31T09:00:00","84.6","12.97","ND","1179.84","8.18","ND","0.4","54.9","23.4","79.8","168.5","0"],
    [7887,"2011-03-31T10:00:00","71.5","195.31","ND","1196.43","8.88","ND","1.3","40.5","23.7","79.2","193","0"],
    [7888,"2011-03-31T11:00:00","63.2","238.81","ND","1528.42","11.76","ND","0.5","39.2","24.7","74.1","344.6","0"],
    [7889,"2011-03-31T12:00:00","65.1","129.00","ND","1144.45","18.37","ND","1.3","131.7","26.9","64.1","580.3","0"],
    [7890,"2011-03-31T13:00:00","34","64.66","ND","1014.56","37.80","ND","0.2","288.9","28.8","54.5","767.3","0"],
    [7891,"2011-03-31T14:00:00","55.2","48.83","ND","1113.81","71.74","ND","1.4","95.1","29.2","52.5","390.8","0"],
    [7892,"2011-03-31T15:00:00","28.6","26.81","ND","1115.28","114.59","ND","1.2","37.9","29.6","52","410.2","0"],
    [7893,"2011-03-31T16:00:00","42.2","16.84","ND","942.27","94.39","ND","1.5","252.8","30","51.4","395.2","0"],
    [7894,"2011-03-31T17:00:00","22.4","18.97","ND","885.27","100.56","ND","2.5","275.1","29.9","50.1","292.6","0"],
    [7895,"2011-03-31T18:00:00","20.5","23.78","ND","861.69","78.69","ND","1.8","266.3","29.4","50.6","120.4","0"],
    [7896,"2011-03-31T19:00:00","12.2","10.21","ND","871.89","51.52","ND","0.6","290.7","28.1","53.3","2.9","0"],
    [7897,"2011-03-31T20:00:00","12","8.90","ND","1099.65","47.53","ND","0.4","61.4","28","52.4","0","0"],
    [7898,"2011-03-31T21:00:00","26.2","13.92","ND","1238.14","25.67","ND","1.8","110.5","27.8","55.9","0","0"],
    [7899,"2011-03-31T22:00:00","60","12.19","ND","1133.24","20.68","ND","0.5","310.5","26.8","59.6","0","0"],
    [7900,"2011-03-31T23:00:00","72.6","21.62","ND","1475.23","10.13","ND","0.9","113.9","26.4","63.3","0","0"],
    [7901,"2011-04-01T00:00:00","36.8","23.88","ND","1657.42","8.54","ND","0.7","150.6","25.8","66","0","0"],
    [7902,"2011-04-01T01:00:00","23.3","32.21","ND","1527.75","9.46","ND","0.6","67.2","24.9","70.5","0","0"],
    [7903,"2011-04-01T02:00:00","30.3","38.50","ND","1099.41","8.26","ND","0.5","137.1","23.7","79","0","0"],
    [7904,"2011-04-01T03:00:00","17.4","21.81","ND","878.27","10.67","ND","0.9","159.2","22.9","85.2","0","0.51"],
    [7905,"2011-04-01T04:00:00","9.6","15.32","ND","728.02","13.29","ND","0.5","149.7","22.5","89.4","0","0"],
    [7906,"2011-04-01T05:00:00","7.2","12.42","ND","795.20","12.57","ND","1.6","152.1","22.1","87.6","0","0"],
    [7907,"2011-04-01T06:00:00","5.9","10.51","ND","816.81","10.80","ND","1.7","158.5","20.5","89.3","0","0"],
    [7908,"2011-04-01T07:00:00","5.5","11.17","ND","654.42","15.35","ND","0.5","142.7","20.7","89.2","42.4","0"],
    [7909,"2011-04-01T08:00:00","7","10.25","ND","722.61","20.77","ND","0.9","13","22","83.7","223.6","0"],
    [7910,"2011-04-01T09:00:00","22.6","8.82","ND","1043.35","10.06","ND","1.6","55.5","24.1","75","427.6","0"],
    [7911,"2011-04-01T10:00:00","21.6","19.80","ND","1130.73","14.15","ND","1.1","64.1","26.4","63.7","582.1","0"],
    [7912,"2011-04-01T11:00:00","13.3","151.08","ND","955.32","19.78","ND","0.3","38.4","27.8","57.2","711.3","0"],
    [7913,"2011-04-01T12:00:00","7.4","53.53","ND","809.46","42.45","ND","0.9","46.1","29.1","52.7","769.7","0"],
    [7914,"2011-04-01T13:00:00","5.1","23.11","ND","894.25","70.05","ND","1.2","53.5","30.4","48.5","790.6","0"],
    [7915,"2011-04-01T14:00:00","34.9","16.09","ND","793.13","97.74","ND","1.1","42.7","31.3","46.7","634.1","0"],
    [7916,"2011-04-01T15:00:00","22.3","19.37","ND","795.48","107.63","ND","2.7","353.3","31","49.2","415.8","0"],
    [7917,"2011-04-01T16:00:00","17","47.26","ND","864.82","108.42","ND","2.5","303.5","31.5","46.7","483.6","0"],
    [7918,"2011-04-01T17:00:00","15.2","17.38","ND","842.83","56.79","ND","1.4","264","30.8","47.6","178","0"],
    [7919,"2011-04-01T18:00:00","23.7","11.14","ND","899.29","52.53","ND","0.3","259","30.1","49.6","81.2","0"],
    [7920,"2011-04-01T19:00:00","13.3","8.79","ND","932.17","43.15","ND","2.1","246.6","28.5","54.1","2.2","0"],
    [7921,"2011-04-01T20:00:00","9.2","15.38","ND","1008.38","33.30","ND","0.8","185.1","28.1","55.2","0","0"],
    [7922,"2011-04-01T21:00:00","7","10.62","ND","1099.65","26.47","ND","0.9","62","26.8","62.1","0","0"],
    [7923,"2011-04-01T22:00:00","44.2","11.63","ND","1302.36","19.66","ND","1.1","11","25.2","68.8","0","0"],
    [7924,"2011-04-01T23:00:00","24.7","13.87","ND","1444.43","14.16","ND","0.3","358","24.3","71.6","0","0"],
    [7925,"2011-04-02T00:00:00","46","32.55","ND","1142.92","16.95","ND","0.6","0.9","23.2","77.8","0","0"],
    [7926,"2011-04-02T01:00:00","37.8","24.30","ND","1058.98","22.65","ND","0.4","53.4","23.2","78.1","0","0"],
    [7927,"2011-04-02T02:00:00","52.2","18.80","ND","1138.69","13.46","ND","0.4","25.5","22.8","78.9","0","0"],
    [7928,"2011-04-02T03:00:00","37.5","25.70","ND","1273.61","10.97","ND","0.3","314","22.4","81","0","0"],
    [7929,"2011-04-02T04:00:00","56.6","36.80","ND","1033.41","11.83","ND","0.2","197","22.7","80.2","0","0"],
    [7930,"2011-04-02T05:00:00","72.7","43.78","ND","1023.09","10.67","ND","0.8","32.8","22.5","79.6","0","0"],
    [7931,"2011-04-02T06:00:00","99.3","47.11","ND","1317.76","10.02","ND","1","3.1","22.1","81","0","0"],
    [7932,"2011-04-02T07:00:00","102.9","59.32","ND","1508.83","13.25","ND","0.4","168.1","22.4","82.3","5.3","0.25"],
    [7933,"2011-04-02T08:00:00","71","80.78","ND","1442.23","13.31","ND","0.3","208","22","88.1","64.1","1.02"],
    [7934,"2011-04-02T09:00:00","62.3","113.14","ND","1633.07","12.16","ND","2.2","158.8","22.9","84.9","149.5","0"],
    [7935,"2011-04-02T10:00:00","44.9","56.87","ND","2070.31","10.79","ND","2.7","162.2","23","83","340.3","0"],
    [7936,"2011-04-02T11:00:00","25","71.60","ND","2412.39","11.73","ND","2.7","161.2","25.2","69.4","593.1","0"],
    [7937,"2011-04-02T12:00:00","13.9","35.45","ND","1238.09","18.05","ND","1.8","146.6","27.1","59.1","745.3","0"],
    [7938,"2011-04-02T13:00:00","8.8","27.44","ND","1061.39","43.83","ND","1.8","140","28.3","54.8","648.8","0"],
    [7939,"2011-04-02T14:00:00","5.2","17.09","ND","903.47","73.25","ND","1","119.4","29.1","52.9","585","0"],
    [7940,"2011-04-02T15:00:00","13.1","14.50","ND","1022.00","96.09","ND","1.5","20.4","29.1","52.7","336.5","0"],
    [7941,"2011-04-02T16:00:00","13.4","14.03","ND","998.78","112.54","ND","1.6","322","28.9","53.9","306.2","0"],
    [7942,"2011-04-02T17:00:00","7.8","21.66","ND","847.24","121.83","ND","3.6","277.4","28.6","52.5","329.8","0"],
    [7943,"2011-04-02T18:00:00","5.2","16.44","ND","846.40","47.88","ND","1.4","276.3","28.5","52.1","113","0"],
    [7944,"2011-04-02T19:00:00","10.7","7.03","ND","683.85","46.20","ND","0.2","52.2","27.4","55","2.9","0"],
    [7945,"2011-04-02T20:00:00","9","7.08","ND","854.58","40.26","ND","0.9","200.7","26.6","57.5","0","0"],
    [7946,"2011-04-02T21:00:00","6.5","8.59","ND","1082.65","26.67","ND","0.4","291.3","25.7","62.5","0","0"],
    [7947,"2011-04-02T22:00:00","26.7","9.67","ND","1343.51","20.06","ND","0.7","24.6","24","71.7","0","0"],
    [7948,"2011-04-02T23:00:00","16.4","17.97","ND","1655.56","9.04","ND","0.2","327.8","23.3","74.1","0","0"],
    [7949,"2011-04-03T00:00:00","35.7","14.88","ND","1275.76","9.83","ND","0.1","302.2","22.8","74.5","0","0"],
    [7950,"2011-04-03T01:00:00","19.2","16.41","ND","1444.18","8.08","ND","0.1","127.9","22.5","75","0","0"],
    [7951,"2011-04-03T02:00:00","13.9","16.01","ND","1533.60","7.73","ND","0","0","22.4","76","0","0"],
    [7952,"2011-04-03T03:00:00","7.8","14.05","ND","1340.02","7.92","ND","0.1","22.1","22.8","74","0","0"],
    [7953,"2011-04-03T04:00:00","5.2","15.06","ND","1557.90","7.64","ND","0.2","32.6","22.1","78.2","0","0"],
    [7954,"2011-04-03T05:00:00","3.7","16.94","ND","1315.97","7.70","ND","0.2","161.6","22.2","80.5","0","0"],
    [7955,"2011-04-03T06:00:00","15.9","16.66","ND","805.74","7.85","ND","0.2","23.3","21.8","82.3","0","0"],
    [7956,"2011-04-03T07:00:00","33.1","14.62","ND","1076.64","8.58","ND","0.4","50.5","21.6","83.9","10.4","0"],
    [7957,"2011-04-03T08:00:00","52.7","14.51","ND","1053.26","7.64","ND","0.4","15.6","22","83.8","51.5","0"],
    [7958,"2011-04-03T09:00:00","45.2","23.50","ND","1134.07","8.92","ND","0.2","153.8","22.9","79.6","78.5","0"],
    [7959,"2011-04-03T10:00:00","61","24.61","ND","1160.28","9.53","ND","0.2","59.7","24.3","72.6","301.7","0"],
    [7960,"2011-04-03T11:00:00","42.8","24.05","ND","1314.35","12.10","ND","0.4","80.5","26.2","63.4","460.4","0"],
    [7961,"2011-04-03T12:00:00","58.4","57.09","ND","1368.76","19.62","ND","1.3","61.6","27","61.2","497.9","0"],
    [7962,"2011-04-03T13:00:00","41.3","79.82","ND","1303.22","48.74","ND","0.7","63.1","27.8","57.7","366.7","0"],
    [7963,"2011-04-03T14:00:00","57.8","46.50","ND","1086.99","87.25","ND","1.5","20.6","27.9","57.3","369.7","0"],
    [7964,"2011-04-03T15:00:00","28.9","49.61","ND","763.46","97.77","ND","0.7","305.1","29.5","49.9","649","0"],
    [7965,"2011-04-03T16:00:00","14.5","66.87","ND","802.41","93.70","ND","3.3","256.8","30.3","45.9","542.7","0"],
    [7966,"2011-04-03T17:00:00","9.3","52.62","ND","559.67","59.90","ND","3.6","268.7","29.6","47.1","227.9","0"],
    [7967,"2011-04-03T18:00:00","10.6","11.39","ND","453.68","49.82","ND","3","277.7","28.1","50.2","56.4","0"],
    [7968,"2011-04-03T19:00:00","7.5","7.41","ND","509.31","42.91","ND","0.5","99.5","27.6","52.6","1.3","0"],
    [7969,"2011-04-03T20:00:00","19.5","6.98","ND","473.80","41.77","ND","1.1","161.2","26.8","56.3","0","0"],
    [7970,"2011-04-03T21:00:00","12.1","7.67","ND","783.72","28.29","ND","0.5","230.8","25.8","61.9","0","0"],
    [7971,"2011-04-03T22:00:00","32.1","8.99","ND","1102.74","19.01","ND","1.7","132.9","25.5","65.6","0","0"],
    [7972,"2011-04-03T23:00:00","30.6","8.53","ND","1032.78","18.95","ND","1.2","168.1","24.5","71","0","0"],
    [7973,"2011-04-04T00:00:00","28.4","9.05","ND","1040.75","23.47","ND","0.8","103.6","23.7","76.7","0","0"],
    [7974,"2011-04-04T01:00:00","15.2","11.40","ND","1129.20","38.29","ND","1","116.1","22.9","82","0","0"],
    [7975,"2011-04-04T02:00:00","18.4","9.26","ND","830.40","24.75","ND","0.9","121.9","22.5","84.7","0","0"],
    [7976,"2011-04-04T03:00:00","11.4","7.02","ND","965.60","27.13","ND","1.6","161.3","21.2","91.4","0","0"],
    [7977,"2011-04-04T04:00:00","8","7.27","ND","1017.90","27.36","ND","1.3","152.8","20.9","92.4","0","0.25"],
    [7978,"2011-04-04T05:00:00","5.4","6.77","ND","1163.74","24.19","ND","1.6","150.7","20.5","93.1","0","0"],
    [7979,"2011-04-04T06:00:00","4.6","6.50","ND","1410.38","28.84","ND","0.9","167.5","20.7","91","0","0"],
    [7980,"2011-04-04T07:00:00","3.6","6.07","ND","1501.67","27.54","ND","0.2","244.5","20.9","90.2","14.6","0"],
    [7981,"2011-04-04T08:00:00","20.4","5.89","ND","1819.05","21.93","ND","0.8","60.5","21.3","89.7","83.6","0"],
    [7982,"2011-04-04T09:00:00","12","5.74","ND","2217.51","17.46","ND","0.8","54","21.7","87","83","0"],
    [7983,"2011-04-04T10:00:00","18.9","10.29","ND","2990.91","10.05","ND","0.2","321.1","22.5","82.8","225.6","0"],
    [7984,"2011-04-04T11:00:00","16.4","14.45","ND","2805.91","15.53","ND","0.6","57.9","24.4","73.5","434.8","0"],
    [7985,"2011-04-04T12:00:00","31.9","37.34","ND","2972.58","19.37","ND","0.3","170.3","26.6","62.9","747.5","0"],
    [7986,"2011-04-04T13:00:00","19.6","110.54","ND","3017.61","30.34","ND","1.4","87.6","27.9","57.6","589.2","0"],
    [7987,"2011-04-04T14:00:00","21.3","36.99","ND","3123.24","80.96","ND","1.2","13","28.4","56.6","479.9","0"],
    [7988,"2011-04-04T15:00:00","12.3","16.03","ND","3221.12","112.02","ND","0.5","23.6","28.5","56","236.2","0"],
    [7989,"2011-04-04T16:00:00","9.1","25.56","ND","3164.24","94.23","ND","0.3","82.9","29","53.5","257.7","0"],
    [7990,"2011-04-04T17:00:00","26.3","40.44","ND","3262.37","89.29","ND","1.2","17.5","25.6","75.5","97","7.87"],
    [7991,"2011-04-04T18:00:00","40.9","40.70","ND","3214.16","69.84","ND","1","232.7","25","81.3","27.1","0.25"],
    [7992,"2011-04-04T19:00:00","24.2","25.63","ND","3700.31","36.85","ND","3.5","197.6","24.2","77.8","0.5","0"],
    [7993,"2011-04-04T20:00:00","25.3","18.03","ND","4524.43","13.27","ND","0.7","193.7","23.9","76.6","0","0"],
    [7994,"2011-04-04T21:00:00","27.2","12.32","ND","4131.79","21.78","ND","0.8","38.4","23.7","79.9","0","0"],
    [7995,"2011-04-04T22:00:00","27.2","9.86","ND","3912.29","21.63","ND","0.8","166.6","22.8","84.7","0","0"],
    [7996,"2011-04-04T23:00:00","14.3","16.70","ND","3820.82","12.68","ND","0.3","130.3","22.7","86.4","0","0"],
    [7997,"2011-04-05T00:00:00","26.7","14.14","ND","3592.18","13.36","ND","0.7","69.5","22","92.1","0","0.76"],
    [7998,"2011-04-05T01:00:00","15","10.30","ND","3731.10","8.20","ND","0.1","211.5","21.7","91.3","0","0.25"],
    [7999,"2011-04-05T02:00:00","12","8.03","ND","3398.76","8.75","ND","0","301.1","21.7","92.8","0","0.25"],
    [8000,"2011-04-05T03:00:00","7.2","7.72","ND","2866.29","12.38","ND","0.4","46.6","21.6","94.1","0","0"],
    [8001,"2011-04-05T04:00:00","7.5","7.85","ND","2933.27","9.68","ND","0.6","49.7","21","95.9","0","0"],
    [8002,"2011-04-05T05:00:00","5.2","7.76","ND","2882.09","8.58","ND","0.1","26.8","21.3","94.7","0","0"],
    [8003,"2011-04-05T06:00:00","24.7","8.90","ND","2636.12","7.71","ND","0.7","35.2","21.1","95.1","0","3.3"],
    [8004,"2011-04-05T07:00:00","27.5","13.58","ND","2543.88","7.94","ND","0.6","13.7","20.9","97.4","14.2","8.38"],
    [8005,"2011-04-05T08:00:00","42.9","18.58","ND","2530.85","7.94","ND","0.9","71.6","21.1","97.6","37.8","0.25"],
    [8006,"2011-04-05T09:00:00","33.4","20.48","ND","2770.01","9.06","ND","1.3","52.1","21.1","95.9","43.9","1.52"],
    [8007,"2011-04-05T10:00:00","23.6","37.32","ND","3086.58","8.37","ND","0.9","95.9","21.1","96.9","32","8.38"],
    [8008,"2011-04-05T11:00:00","14.1","56.89","ND","2690.86","8.25","ND","0.9","156.5","20.9","95.8","66.9","8.13"],
    [8009,"2011-04-05T12:00:00","12.4","38.50","ND","2451.77","8.96","ND","0.6","131","21.6","93.4","228.8","3.05"],
    [8010,"2011-04-05T13:00:00","6.7","31.29","ND","2616.16","10.03","ND","1","77.8","23","85.3","332.5","0"],
    [8011,"2011-04-05T14:00:00","5.2","28.79","ND","2913.07","14.52","ND","1","69.4","22","87.5","177.4","0"],
    [8012,"2011-04-05T15:00:00","3.2","26.46","ND","2528.99","27.76","ND","1","229.1","22.7","81.9","211.4","0"],
    [8013,"2011-04-05T16:00:00","2.8","17.45","ND","1955.24","28.49","ND","0.8","220","24.6","69.4","299.7","0"],
    [8014,"2011-04-05T17:00:00","2.5","15.65","ND","2127.97","32.98","ND","1.9","178.1","25.8","60.9","247.4","0"],
    [8015,"2011-04-05T18:00:00","1.2","11.30","ND","1837.89","45.89","ND","1","177.8","25.6","58.5","65.2","0"],
    [8016,"2011-04-05T19:00:00","18.7","8.90","ND","1675.95","46.80","ND","0.3","184.4","24.4","67.9","2","0"],
    [8017,"2011-04-05T20:00:00","46.3","7.98","ND","1989.34","32.00","ND","0.1","347.3","23.2","75.7","0","0"],
    [8018,"2011-04-05T21:00:00","47.1","13.28","ND","3791.83","10.65","ND","0.1","281.2","22.2","80.3","0","0"],
    [8019,"2011-04-05T22:00:00","65.7","17.34","ND","4357.80","8.44","ND","0","236","21.9","81.5","0","0"],
    [8020,"2011-04-05T23:00:00","52","13.56","ND","3253.69","7.63","ND","0.2","250.5","21.9","82","0","0"],
    [8021,"2011-04-06T00:00:00","33.7","12.76","ND","3491.77","8.16","ND","0.3","269.1","21.5","83.3","0","0"],
    [8022,"2011-04-06T01:00:00","17.5","12.33","ND","3000.20","7.72","ND","0","251.1","21.3","84","0","0"],
    [8023,"2011-04-06T02:00:00","26.8","9.45","ND","2149.63","7.79","ND","0.1","143.7","21.4","86.8","0","0"],
    [8024,"2011-04-06T03:00:00","14.2","7.82","ND","1652.38","7.54","ND","0","37.9","21.2","88.2","0","0"],
    [8025,"2011-04-06T04:00:00","36.6","8.02","ND","1470.30","8.41","ND","0.3","187.8","21.1","89","0","0"],
    [8026,"2011-04-06T05:00:00","25.3","8.64","ND","1300.21","7.46","ND","0.1","272.5","21.2","90","0","0"],
    [8027,"2011-04-06T06:00:00","31.8","10.30","ND","1153.62","7.38","ND","0.1","76.1","20.9","92.1","0","0"],
    [8028,"2011-04-06T07:00:00","16.9","11.55","ND","1141.14","7.78","ND","0.1","42.2","20.9","92.4","18.9","0"],
    [8029,"2011-04-06T08:00:00","53.3","12.46","ND","1468.80","7.95","ND","0.6","34.9","21.1","90.7","93.1","0"],
    [8030,"2011-04-06T09:00:00","54.3","12.59","ND","1922.04","8.21","ND","0.7","76","22.9","82.7","342.2","0"],
    [8031,"2011-04-06T10:00:00","55.3","16.47","ND","1956.56","8.87","ND","1","57.9","24.5","75.3","535.1","0"],
    [8032,"2011-04-06T11:00:00","51.8","56.89","ND","1532.54","15.54","ND","1.6","83.1","25.8","69","417.2","0"],
    [8033,"2011-04-06T12:00:00","43.9","69.23","ND","1252.06","41.46","ND","1.1","53.2","25.7","69","273.1","0"],
    [8034,"2011-04-06T13:00:00","24.1","43.60","ND","1125.33","81.71","ND","0.3","344.9","26.5","64.3","286.7","0"],
    [8035,"2011-04-06T14:00:00","12.7","28.36","ND","852.02","79.70","ND","0.7","176.7","28.1","56.8","711.3","0"],
    [8036,"2011-04-06T15:00:00","7.3","31.56","ND","833.42","92.93","ND","0.3","314","29.5","52.7","582.9","0"],
    [8037,"2011-04-06T16:00:00","38.5","32.98","ND","697.74","103.05","ND","1.5","338.8","28.1","57.2","111.2","0"],
    [8038,"2011-04-06T17:00:00","23.7","30.71","ND","856.57","117.08","ND","1.6","231.4","27.4","58.9","46.5","0"],
    [8039,"2011-04-06T18:00:00","24.6","40.17","ND","750.64","75.01","ND","3.5","201.2","24.5","70.4","18.8","0"],
    [8040,"2011-04-06T19:00:00","14.7","12.79","ND","789.14","27.78","ND","2.7","172.1","23.6","74","2.2","0"],
    [8041,"2011-04-06T20:00:00","8","9.73","ND","900.78","35.37","ND","0.3","98.6","23.9","74.2","0.4","0"],
    [8042,"2011-04-06T21:00:00","26.6","9.19","ND","1358.24","19.10","ND","1","37.4","21.7","89.2","0","6.6"],
    [8043,"2011-04-06T22:00:00","16.6","10.52","ND","1676.72","8.58","ND","0.3","327.1","20.8","93.9","0","5.08"],
    [8044,"2011-04-06T23:00:00","22.9","9.48","ND","1355.35","14.10","ND","0.3","241","21","92.3","0","0.25"],
    [8045,"2011-04-07T00:00:00","18.2","8.07","ND","858.97","19.63","ND","0.2","243.9","21.1","93.5","0","0"],
    [8046,"2011-04-07T01:00:00","12.8","10.14","ND","904.49","14.20","ND","0","285.9","21","92.4","0","0.25"],
    [8047,"2011-04-07T02:00:00","15.4","10.91","ND","1085.02","7.40","ND","0.1","265.8","21.1","92.8","0","0"],
    [8048,"2011-04-07T03:00:00","9.6","9.70","ND","554.00","7.98","ND","0.1","306.9","21","93.5","0","0"],
    [8049,"2011-04-07T04:00:00","10.8","8.84","ND","678.14","7.61","ND","0.1","324.7","20.7","92.7","0","0"],
    [8050,"2011-04-07T05:00:00","7.8","8.37","ND","756.48","7.18","ND","0.1","268.5","20.8","93.2","0","0"],
    [8051,"2011-04-07T06:00:00","8.8","7.88","ND","779.33","7.29","ND","0.1","276","20.9","93.3","0","0"],
    [8052,"2011-04-07T07:00:00","20.7","7.52","ND","677.91","7.34","ND","0.2","3.9","21.1","92.1","17","0"],
    [8053,"2011-04-07T08:00:00","43.3","8.48","ND","904.49","7.40","ND","0.7","48.3","21.3","93.1","76.9","0"],
    [8054,"2011-04-07T09:00:00","69.3","9.96","ND","1074.81","7.81","ND","0.4","58.5","22","91.6","140.8","0"],
    [8055,"2011-04-07T10:00:00","71.5","15.41","ND","1610.39","10.00","ND","0.2","181.7","23.1","81.9","220.1","0"],
    [8056,"2011-04-07T11:00:00","50.5","30.93","ND","1411.50","11.31","ND","1.5","106.4","23.8","79.8","210.9","0"],
    [8057,"2011-04-07T12:00:00","51.1","198.15","ND","1277.91","15.91","ND","0.8","95.8","24.1","76.4","320.9","0"],
    [8058,"2011-04-07T13:00:00","26.6","92.11","ND","1062.20","31.71","ND","0.7","75.2","25.4","70.6","411.8","0"],
    [8059,"2011-04-07T14:00:00","15.8","44.60","ND","768.59","46.90","ND","0.6","50.6","26.5","64.4","512.2","0"],
    [8060,"2011-04-07T15:00:00","10.1","30.31","ND","794.45","74.67","ND","0.2","50.8","27.2","61.2","245.1","0"],
    [8061,"2011-04-07T16:00:00","44.9","24.92","ND","796.30","120.05","ND","1.7","311","27.1","62.4","217.1","0"],
    [8062,"2011-04-07T17:00:00","31.2","19.24","ND","715.28","126.26","ND","1.1","255.5","26.2","64.6","59.4","0"],
    [8063,"2011-04-07T18:00:00","35.4","19.70","ND","908.67","127.06","ND","0.6","269.9","25.8","65.3","37.9","0"],
    [8064,"2011-04-07T19:00:00","18.9","12.37","ND","873.00","59.64","ND","0.3","282.5","25.1","66","0.5","0"],
    [8065,"2011-04-07T20:00:00","32.8","10.69","ND","1008.47","23.91","ND","0.1","357.5","24.3","71.8","0","0"],
    [8066,"2011-04-07T21:00:00","42.4","10.30","ND","1211.49","14.06","ND","0.2","176.4","24.4","72.6","0","0"],
    [8067,"2011-04-07T22:00:00","62","13.02","ND","2069.37","8.73","ND","0.9","181.4","24.3","69.3","0","0"],
    [8068,"2011-04-07T23:00:00","37","17.67","ND","2880.15","8.58","ND","1.7","201.3","23.2","78.9","0","0"],
    [8069,"2011-04-08T00:00:00","20.2","18.75","ND","2630.37","8.00","ND","0.5","194.3","23","78.2","0","0"],
    [8070,"2011-04-08T01:00:00","12.1","11.35","ND","1263.09","8.40","ND","0.1","347.1","22.8","79.3","0","0"],
    [8071,"2011-04-08T02:00:00","25","9.96","ND","1125.78","7.25","ND","0.2","58.8","22.5","82.3","0","0"],
    [8072,"2011-04-08T03:00:00","28.6","7.87","ND","772.48","9.38","ND","0.2","353","21.9","85.3","0","0"],
    [8073,"2011-04-08T04:00:00","42.1","8.58","ND","838.93","7.81","ND","0.1","222.9","21.9","85.1","0","0"],
    [8074,"2011-04-08T05:00:00","23.4","10.66","ND","476.15","8.14","ND","0.2","155.7","21.8","86.4","0","0"],
    [8075,"2011-04-08T06:00:00","27.6","11.38","ND","566.65","7.75","ND","0.2","164","21.6","87.2","0","0"],
    [8076,"2011-04-08T07:00:00","37.2","10.08","ND","577.59","7.53","ND","0.1","20.3","21.6","87.6","14","0"],
    [8077,"2011-04-08T08:00:00","44.3","9.92","ND","645.55","7.62","ND","0.7","57.7","21.5","87.7","59.8","0"],
    [8078,"2011-04-08T09:00:00","24.2","12.30","ND","1392.55","7.99","ND","1.1","165.8","23","80.4","400.7","0"],
    [8079,"2011-04-08T10:00:00","23.5","11.53","ND","1092.40","9.36","ND","1.3","173.5","24.3","72.9","347.7","0"],
    [8080,"2011-04-08T11:00:00","14.2","13.54","ND","914.33","18.40","ND","1.3","168.4","26","64.1","598.1","0"],
    [8081,"2011-04-08T12:00:00","17","24.24","ND","620.70","31.82","ND","0.7","167.4","27.7","57.6","741.8","0"],
    [8082,"2011-04-08T13:00:00","13.2","29.03","ND","577.99","71.23","ND","2.4","120.4","28","58.3","470.2","0"],
    [8083,"2011-04-08T14:00:00","17.2","17.92","ND","729.00","124.99","ND","0.3","79.1","27.8","59.1","398.9","0"],
    [8084,"2011-04-08T15:00:00","9.4","13.78","ND","624.44","110.71","ND","0.4","21.7","27.4","60.1","219","0"],
    [8085,"2011-04-08T16:00:00","15.3","11.12","ND","554.32","107.26","ND","1.2","356.6","28.2","55.1","367.9","0"],
    [8086,"2011-04-08T17:00:00","18.6","10.46","ND","555.80","81.84","ND","2","307.5","27.8","55.4","183.7","0"],
    [8087,"2011-04-08T18:00:00","15.4","14.36","ND","439.42","54.14","ND","0.4","346.5","27.5","55.2","50.3","0"],
    [8088,"2011-04-08T19:00:00","9.8","8.06","ND","496.74","33.72","ND","0.3","167","26.9","57.4","0.7","0"],
    [8089,"2011-04-08T20:00:00","36.1","7.57","ND","461.16","25.77","ND","2.4","153.2","25.5","65.9","0","0"],
    [8090,"2011-04-08T21:00:00","38.1","7.95","ND","998.35","13.03","ND","2.7","162.9","23.9","75.7","0","0.51"],
    [8091,"2011-04-08T22:00:00","26.8","10.08","ND","1095.72","22.11","ND","0.9","219.3","22","88.7","0","1.27"],
    [8092,"2011-04-08T23:00:00","15","8.87","ND","782.51","29.53","ND","0.3","54.2","22.1","89.1","0","0.25"],
    [8093,"2011-04-09T00:00:00","37.9","6.67","ND","1123.11","13.27","ND","0.5","73.9","21.3","92.7","0","0"],
    [8094,"2011-04-09T01:00:00","30.9","8.28","ND","1538.68","7.89","ND","0.4","9.5","21.1","94","0","0"],
    [8095,"2011-04-09T02:00:00","31.2","7.06","ND","610.53","10.77","ND","0.3","49.5","20.8","94.2","0","0"],
    [8096,"2011-04-09T03:00:00","17.5","6.77","ND","440.49","10.04","ND","0.5","27.2","20.5","94.9","0","0"],
    [8097,"2011-04-09T04:00:00","40.6","8.28","ND","361.06","10.65","ND","0.4","12.9","20.7","93.3","0","0"],
    [8098,"2011-04-09T05:00:00","21","12.94","ND","225.82","14.12","ND","0.7","48.8","20.6","93.2","0","0"],
    [8099,"2011-04-09T06:00:00","25","24.52","ND","237.03","10.92","ND","0.8","39.7","20.4","96","0","15.24"],
    [8100,"2011-04-09T07:00:00","135.2","27.68","ND","180.47","15.69","ND","0.7","227.4","20","98.6","15.1","13.21"],
    [8101,"2011-04-09T08:00:00","69.4","23.03","ND","382.97","11.69","ND","1.2","155.9","20.8","92.8","117","0.76"],
    [8102,"2011-04-09T09:00:00","36.8","19.40","ND","553.44","10.41","ND","2.1","153.8","21.3","87.3","130.8","0"],
    [8103,"2011-04-09T10:00:00","20.8","29.84","ND","848.54","13.29","ND","1.3","192.1","22.4","83.5","241.2","0"],
    [8104,"2011-04-09T11:00:00","16.5","25.14","ND","670.01","22.41","ND","1.2","167.7","24","76","410.8","0"],
    [8105,"2011-04-09T12:00:00","10.6","20.11","ND","559.46","29.36","ND","0.3","120.2","25.6","69.4","419.8","0"],
    [8106,"2011-04-09T13:00:00","7.7","19.04","ND","459.17","48.76","ND","0.7","275.7","26.4","66.4","459.8","0"],
    [8107,"2011-04-09T14:00:00","16.6","18.64","ND","425.87","77.07","ND","0.5","275.9","26.5","64.4","192.3","0"],
    [8108,"2011-04-09T15:00:00","17.2","18.25","ND","552.66","108.22","ND","1.3","331.9","25.9","66.9","145.4","0"],
    [8109,"2011-04-09T16:00:00","36.4","15.69","ND","471.12","110.91","ND","0.9","159.3","24.6","77.1","73.2","0"],
    [8110,"2011-04-09T17:00:00","20.1","104.28","ND","423.31","46.13","ND","0.3","86.3","24.2","80.1","61.4","0"],
    [8111,"2011-04-09T18:00:00","31.1","111.85","ND","879.75","27.07","ND","0.9","196.5","23.9","80.6","13.1","0"],
    [8112,"2011-04-09T19:00:00","20","48.35","ND","1346.83","11.97","ND","0","110.8","23.8","78.6","0.4","0.25"],
    [8113,"2011-04-09T20:00:00","60.2","31.24","ND","2236.35","10.20","ND","0.7","133.8","23.5","82.1","0","0"],
    [8114,"2011-04-09T21:00:00","45.3","22.00","ND","1857.94","8.20","ND","2","177.1","22.4","84.1","0","0"],
    [8115,"2011-04-09T22:00:00","22.6","21.04","ND","2782.25","8.97","ND","2.2","185.5","21.5","85.6","0","0.51"],
    [8116,"2011-04-09T23:00:00","11.3","15.20","ND","1143.47","8.44","ND","1.1","182.4","21.3","85.3","0","0"],
    [8117,"2011-04-10T00:00:00","5.7","9.60","ND","441.24","12.38","ND","1.7","188.4","20.5","91.8","0","5.84"],
    [8118,"2011-04-10T01:00:00","4.6","8.00","ND","428.76","9.51","ND","0.3","185.6","20","97.8","0","12.7"],
    [8119,"2011-04-10T02:00:00","3","6.26","ND","214.01","16.63","ND","0.8","106","19.6","98.5","0","11.43"],
    [8120,"2011-04-10T03:00:00","2.5","5.56","ND","382.45","8.38","ND","0.5","76.9","19","98.3","0","6.86"],
    [8121,"2011-04-10T04:00:00","3.1","5.11","ND","202.06","16.33","ND","0.4","201.8","19.1","97.7","0","4.06"],
    [8122,"2011-04-10T05:00:00","3.4","4.91","ND","11.23","27.60","ND","0.5","167.9","19.3","97.5","0","2.03"],
    [8123,"2011-04-10T06:00:00","3.6","5.50","ND","11.24","26.24","ND","0.1","159.6","19.5","97.2","0","1.02"],
    [8124,"2011-04-10T07:00:00","4","5.12","ND","78.71","18.28","ND","0","338.5","19.7","96.8","13","0.25"],
    [8125,"2011-04-10T08:00:00","4.7","5.04","ND","135.03","11.53","ND","0","328.4","20","95.6","61.1","0.25"],
    [8126,"2011-04-10T09:00:00","3.2","5.02","ND","292.86","9.07","ND","0.6","105.3","20.7","90.6","117","0"],
    [8127,"2011-04-10T10:00:00","2.7","6.07","ND","575.83","9.50","ND","0.7","112.4","21.4","86.5","190.9","0"],
    [8128,"2011-04-10T11:00:00","3.5","7.71","ND","611.15","15.68","ND","0.6","54.4","21.2","87.7","69.4","0"],
    [8129,"2011-04-10T12:00:00","2.5","8.92","ND","429.78","31.27","ND","0.6","12.7","21.6","86.3","175.7","0"],
    [8130,"2011-04-10T13:00:00","3.7","8.44","ND","317.11","29.99","ND","1","39.9","22.1","84.9","238.6","0"],
    [8131,"2011-04-10T14:00:00","3.8","9.83","ND","283.61","33.42","ND","1","47.4","22.9","81.4","309.1","0"],
    [8132,"2011-04-10T15:00:00","19.1","39.26","ND","250.26","36.94","ND","0.6","43","24.1","75.5","368.2","0"],
    [8133,"2011-04-10T16:00:00","11.7","211.86","ND","262.69","24.77","ND","0.5","62.7","24.4","73.6","273.2","0"],
    [8134,"2011-04-10T17:00:00","6.8","181.43","ND","262.96","35.80","ND","0.3","70.4","24.6","73","154.6","0"],
    [8135,"2011-04-10T18:00:00","11.1","88.05","ND","183.05","51.46","ND","0.9","40.3","24.1","75.5","46.4","0"],
    [8136,"2011-04-10T19:00:00","7.5","48.96","ND","354.07","52.51","ND","0.1","344.1","23.7","79.2","0.7","0"],
    [8137,"2011-04-10T20:00:00","26.6","30.63","ND","353.59","47.26","ND","0.1","2","22.9","85","0","0"],
    [8138,"2011-04-10T21:00:00","20","20.66","ND","853.15","27.07","ND","0.3","214.8","22.7","86.3","0","0"],
    [8139,"2011-04-10T22:00:00","47.3","20.51","ND","1375.49","10.92","ND","0.3","230","22.5","86.6","0","0"],
    [8140,"2011-04-10T23:00:00","50.4","23.31","ND","2624.15","8.93","ND","0.2","174.6","22.4","84.8","0","0"],
    [8141,"2011-04-11T00:00:00","37.3","18.81","ND","1987.32","7.82","ND","0","259.1","22","86.9","0","0"],
    [8142,"2011-04-11T01:00:00","20.4","16.52","ND","1508.32","7.48","ND","0.1","285.9","21.9","87.1","0","0"],
    [8143,"2011-04-11T02:00:00","24.8","13.30","ND","1145.03","7.96","ND","0.2","334.4","21.7","87.7","0","0"],
    [8144,"2011-04-11T03:00:00","20.7","10.70","ND","781.72","7.06","ND","0","261.6","21.4","89.2","0","0"],
    [8145,"2011-04-11T04:00:00","25.7","14.08","ND","396.12","7.74","ND","0.1","168.8","21.5","88","0","0"],
    [8146,"2011-04-11T05:00:00","14.9","37.96","ND","396.25","7.33","ND","0.5","90.4","21.7","85.9","0","0"],
    [8147,"2011-04-11T06:00:00","15.6","29.54","ND","464.50","7.39","ND","1","11.4","20.9","95.3","0.2","0"],
    [8148,"2011-04-11T07:00:00","23.9","19.25","ND","858.68","15.56","ND","1.2","11.4","20.7","95.2","26.1","0"],
    [8149,"2011-04-11T08:00:00","43","13.66","ND","496.79","7.87","ND","0.7","40","21.3","91.4","95","0"],
    [8150,"2011-04-11T09:00:00","34.3","25.77","ND","656.20","7.79","ND","0.7","53.5","21.9","86.2","191.8","0"],
    [8151,"2011-04-11T10:00:00","29.8","151.51","ND","ND","8.91","ND","0.6","83.8","23.7","77.4","406.3","0"],
    [8152,"2011-04-11T11:00:00","16.3","160.65","ND","ND","11.29","ND","0.5","192.7","24.6","72.5","307.5","0"],
    [8153,"2011-04-11T12:00:00","18.9","80.83","ND","ND","25.28","ND","0.3","213","26.1","62.5","580.9","0"],
    [8154,"2011-04-11T13:00:00","16.7","45.68","ND","ND","45.87","ND","1","38.6","27.3","59.8","744.7","0"],
    [8155,"2011-04-11T14:00:00","37.3","31.05","ND","ND","90.49","ND","1.2","49.8","27.6","59.7","475.9","0"],
    [8156,"2011-04-11T15:00:00","21.2","30.82","ND","ND","122.45","ND","1.6","338.6","28","57.1","460.9","0"],
    [8157,"2011-04-11T16:00:00","12.6","33.80","ND","2001.85","145.86","ND","1.5","312.5","28.1","55.6","317","0"],
    [8158,"2011-04-11T17:00:00","8.4","42.33","ND","578.76","130.43","ND","1.4","263.2","27.9","55.1","113.4","0"],
    [8159,"2011-04-11T18:00:00","5.5","11.64","ND","277.62","33.53","ND","0.9","217.8","26.9","56.7","33.7","0"],
    [8160,"2011-04-11T19:00:00","3.4","9.10","ND","345.87","20.40","ND","0.3","1.1","26.2","59.2","0.5","0"],
    [8161,"2011-04-11T20:00:00","21","9.05","ND","425.58","14.91","ND","1","118.2","25.9","62.8","0","0"],
    [8162,"2011-04-11T21:00:00","15.3","10.09","ND","528.57","13.33","ND","3.4","177.2","24.5","70.8","0","0"],
    [8163,"2011-04-11T22:00:00","28","72.54","ND","823.45","9.19","ND","3","172.8","23.5","75.1","0","0"],
    [8164,"2011-04-11T23:00:00","16.3","26.10","ND","695.30","13.41","ND","1.6","184.7","22.8","77.8","0","0.25"],
    [8165,"2011-04-12T00:00:00","10.6","12.17","ND","545.83","13.99","ND","0.1","223.6","21.6","89.9","0","0.51"],
    [8166,"2011-04-12T01:00:00","7.9","9.61","ND","328.44","12.75","ND","0.7","339","21.3","90.5","0","0"],
    [8167,"2011-04-12T02:00:00","6.4","7.56","ND","271.53","8.37","ND","0.6","10.7","20.9","92.4","0","0"],
    [8168,"2011-04-12T03:00:00","5.9","18.79","ND","350.25","8.13","ND","0.3","43.3","20.8","92.3","0","0"],
    [8169,"2011-04-12T04:00:00","4.5","62.98","ND","304.95","9.79","ND","0","211.1","21","91.4","0","0"],
    [8170,"2011-04-12T05:00:00","10","39.60","ND","282.56","10.49","ND","0.3","154.4","21.2","89.3","0","0"],
    [8171,"2011-04-12T06:00:00","16.6","39.68","ND","327.99","8.25","ND","1.6","191.4","20.9","91.5","0","0.25"],
    [8172,"2011-04-12T07:00:00","13.1","54.04","ND","305.06","10.41","ND","1.3","178.2","20.1","96.2","13.5","7.11"],
    [8173,"2011-04-12T08:00:00","6.5","25.59","ND","270.42","9.65","ND","1.1","168.8","20.2","96.5","52.9","0.51"],
    [8174,"2011-04-12T09:00:00","3.9","16.14","ND","529.76","9.69","ND","0.5","175","20.9","91.9","148.8","2.29"],
    [8175,"2011-04-12T10:00:00","2.5","13.88","ND","1175.04","8.53","ND","0.4","166.5","21.9","87.3","212.4","1.52"],
    [8176,"2011-04-12T11:00:00","1.2","16.26","ND","1247.06","10.53","ND","0.3","194.3","22.8","79.1","296.8","0.25"],
    [8177,"2011-04-12T12:00:00","0.6","14.98","ND","852.86","16.03","ND","0.4","247.2","23.8","73.3","421.1","0.25"],
    [8178,"2011-04-12T13:00:00","1.6","11.53","ND","524.86","26.35","ND","0.5","5.8","25.7","66.4","593.2","0"],
    [8179,"2011-04-12T14:00:00","13.5","9.64","ND","505.25","38.12","ND","1","35.3","26.2","63.8","414.3","0"],
    [8180,"2011-04-12T15:00:00","17.2","12.39","ND","460.09","53.57","ND","1.1","32.6","26.2","63.2","311.8","0"],
    [8181,"2011-04-12T16:00:00","16.3","90.60","ND","368.07","48.27","ND","0.5","290.8","25","68.8","109.5","18.29"],
    [8182,"2011-04-12T17:00:00","10","149.83","ND","332.23","38.89","ND","0.9","171.3","22.2","88.3","86.6","4.83"],
    [8183,"2011-04-12T18:00:00","22.9","68.50","ND","329.10","36.33","ND","0.9","91.9","22.5","89.1","29.8","1.27"],
    [8184,"2011-04-12T19:00:00","21.6","16.34","ND","1056.48","14.26","ND","1","30.7","21.3","90.9","0.3","0.51"],
    [8185,"2011-04-12T20:00:00","18.1","13.92","ND","1301.09","9.57","ND","0.9","201.8","21.2","92.7","0","0.51"],
    [8186,"2011-04-12T21:00:00","10","11.46","ND","701.22","9.16","ND","1.4","174.7","21.2","92.3","0","0.25"],
    [8187,"2011-04-12T22:00:00","11.8","16.40","ND","1357.20","8.56","ND","1.6","166.1","20.9","93.8","0","0.25"],
    [8188,"2011-04-12T23:00:00","7.6","16.46","ND","1593.08","7.18","ND","1.6","166.6","20.3","97.1","0","9.65"],
    [8189,"2011-04-13T00:00:00","5.4","12.04","ND","969.68","8.05","ND","1.4","158.6","20.1","97.7","0","3.56"],
    [8190,"2011-04-13T01:00:00","4.2","8.53","ND","619.72","8.05","ND","1.8","165.5","19.9","97.9","0","6.86"],
    [8191,"2011-04-13T02:00:00","2.1","6.26","ND","360.32","11.17","ND","1.6","196.2","19.3","99.4","0","36.07"],
    [8192,"2011-04-13T03:00:00","3.6","6.17","ND","78.66","20.13","ND","0.2","211","19.4","100","0","3.05"],
    [8193,"2011-04-13T04:00:00","3.2","5.60","ND","22.48","24.68","ND","0.1","225.7","19.3","100","0","0.51"],
    [8194,"2011-04-13T05:00:00","3.3","4.91","ND","44.95","22.62","ND","0","40.5","19.4","99.8","0","0"],
    [8195,"2011-04-13T06:00:00","4","5.24","ND","33.72","23.78","ND","0.3","49.8","19.5","99.5","0","0.25"],
    [8196,"2011-04-13T07:00:00","2.6","5.17","ND","56.22","16.53","ND","0.2","24.7","19.6","99.1","73.3","0"],
    [8197,"2011-04-13T08:00:00","13.6","5.76","ND","168.73","8.36","ND","0.4","39.5","20.8","90.6","186.8","0"],
    [8198,"2011-04-13T09:00:00","8.2","7.05","ND","576.03","8.24","ND","0.9","30.9","21.4","85.6","258.3","0"],
    [8199,"2011-04-13T10:00:00","6.5","13.69","ND","430.07","12.70","ND","0.8","56.2","22.8","77.9","353.6","0"],
    [8200,"2011-04-13T11:00:00","5.2","22.81","ND","272.92","18.41","ND","0.3","56.7","24","69.2","427.3","0"],
    [8201,"2011-04-13T12:00:00","3.5","37.89","ND","251.19","26.85","ND","1.3","130.6","25.2","65.8","636.7","0"],
    [8202,"2011-04-13T13:00:00","2.6","32.07","ND","298.06","45.44","ND","0.9","82.4","26.6","61.3","694.3","0"],
    [8203,"2011-04-13T14:00:00","10.2","21.50","ND","310.97","59.03","ND","0.9","94.9","27.9","56.7","787.2","0"],
    [8204,"2011-04-13T15:00:00","21.2","69.95","ND","254.49","71.29","ND","1.1","358.7","27.8","57.3","307","0"],
    [8205,"2011-04-13T16:00:00","22.6","67.36","ND","289.09","90.36","ND","1.8","329.9","27.1","62.2","468.6","0"],
    [8206,"2011-04-13T17:00:00","16.9","77.21","ND","299.96","78.18","ND","0.8","65.6","27.4","61.9","111.4","0"],
    [8207,"2011-04-13T18:00:00","11.6","122.61","ND","369.55","53.63","ND","0.9","346.8","27.6","56.2","94.3","0"],
    [8208,"2011-04-13T19:00:00","6.9","207.38","ND","323.57","27.79","ND","0.3","9","26.6","58","1.8","0"],
    [8209,"2011-04-13T20:00:00","43.7","43.10","ND","287.94","18.53","ND","0.3","119","26.1","61.5","0","0"],
    [8210,"2011-04-13T21:00:00","53.6","16.96","ND","459.93","13.63","ND","0.5","175.8","25.3","67","0","0"],
    [8211,"2011-04-13T22:00:00","66.9","17.23","ND","1169.70","8.43","ND","0.2","260.8","23.7","73.6","0","0"],
    [8212,"2011-04-13T23:00:00","49.3","37.15","ND","2087.32","8.89","ND","0.4","16","23.2","78","0","0"],
    [8213,"2011-04-14T00:00:00","64.5","26.93","ND","1787.74","7.74","ND","0.1","281.4","22.4","83.2","0","0"],
    [8214,"2011-04-14T01:00:00","33","18.29","ND","760.86","8.56","ND","0.3","270.2","21.8","83.8","0","0"],
    [8215,"2011-04-14T02:00:00","25.6","27.42","ND","634.65","7.49","ND","0","49.4","21.4","84","0","0"],
    [8216,"2011-04-14T03:00:00","15.4","18.77","ND","633.79","7.35","ND","0.2","47.5","21","86.6","0","0"],
    [8217,"2011-04-14T04:00:00","14.7","13.31","ND","350.37","9.56","ND","0.2","234.5","21.1","86.9","0","0"],
    [8218,"2011-04-14T05:00:00","14.9","14.53","ND","339.18","8.19","ND","0.2","329.4","20.9","88","0","0"],
    [8219,"2011-04-14T06:00:00","30.8","18.74","ND","372.85","8.17","ND","0.2","237.5","20.6","87.5","0.3","0"],
    [8220,"2011-04-14T07:00:00","40.7","16.24","ND","395.04","7.06","ND","0.1","22.2","20.6","88.8","53.4","0"],
    [8221,"2011-04-14T08:00:00","92.3","21.22","ND","462.76","7.46","ND","0.5","43.6","21.8","85.6","107.4","0"],
    [8222,"2011-04-14T09:00:00","57.9","29.24","ND","1915.29","8.35","ND","0.5","146.6","23.2","74.8","228.8","0"],
    [8223,"2011-04-14T10:00:00","73.6","61.80","ND","2243.21","9.89","ND","0.8","130.4","25.6","66.1","575.1","0"],
    [8224,"2011-04-14T11:00:00","47.6","55.48","ND","1871.10","12.86","ND","1.7","119.9","27.3","59.9","679.4","0"],
    [8225,"2011-04-14T12:00:00","56.4","45.52","ND","1627.77","53.12","ND","1","130.7","27.9","57.2","574.2","0"],
    [8226,"2011-04-14T13:00:00","29","43.13","ND","636.22","85.68","ND","0.5","32.8","28.2","56.6","416.8","0"],
    [8227,"2011-04-14T14:00:00","41.2","31.25","ND","347.37","98.44","ND","0.7","239","28.9","53.7","428.3","0"],
    [8228,"2011-04-14T15:00:00","22.9","23.28","ND","417.82","99.32","ND","1.8","254.7","28.5","52.3","159.3","0"],
    [8229,"2011-04-14T16:00:00","32.6","23.01","ND","289.77","85.89","ND","1.3","256.7","28.8","51.2","243.9","0"],
    [8230,"2011-04-14T17:00:00","18.4","9.98","ND","336.46","18.01","ND","1.6","222.6","29.1","49.5","210.8","0"],
    [8231,"2011-04-14T18:00:00","21.8","10.55","ND","278.73","24.77","ND","1.3","232.6","27.5","54.1","42.1","0"],
    [8232,"2011-04-14T19:00:00","17.1","7.00","ND","242.60","20.54","ND","0.8","231","26.5","58.6","1.4","0"],
    [8233,"2011-04-14T20:00:00","31.7","8.19","ND","414.49","12.84","ND","0.9","78.5","25.8","65.3","0","0"],
    [8234,"2011-04-14T21:00:00","34","10.12","ND","1079.76","9.52","ND","0.4","164.3","25.1","69.6","0","0"],
    [8235,"2011-04-14T22:00:00","43.4","13.58","ND","893.87","9.52","ND","0.1","240.3","24.3","74.2","0","0"],
    [8236,"2011-04-14T23:00:00","42.6","22.48","ND","857.19","8.18","ND","0.4","163.3","23.8","76.4","0","0"],
    [8237,"2011-04-15T00:00:00","23.7","19.99","ND","1437.65","8.40","ND","0.3","254.8","22.8","86.4","0","0.76"],
    [8238,"2011-04-15T01:00:00","12.8","17.74","ND","796.00","8.28","ND","0.5","357.8","22","90.5","0","1.78"],
    [8239,"2011-04-15T02:00:00","16.4","13.88","ND","1009.33","9.79","ND","0.6","12.6","21.7","92.7","0","0.25"],
    [8240,"2011-04-15T03:00:00","9.3","10.21","ND","861.02","7.55","ND","0.5","6","21.2","93.6","0","0.25"],
    [8241,"2011-04-15T04:00:00","11.3","10.14","ND","441.09","8.25","ND","0.3","74.7","21","95.8","0","3.3"],
    [8242,"2011-04-15T05:00:00","15.3","11.25","ND","339.07","10.28","ND","0.1","162.8","21","97.1","0","0"],
    [8243,"2011-04-15T06:00:00","9.9","11.25","ND","158.23","14.17","ND","1.3","155.6","21.2","95.1","0","0.25"],
    [8244,"2011-04-15T07:00:00","9.3","9.78","ND","294.06","13.29","ND","1.4","150.8","21.2","94.2","20.3","0"],
    [8245,"2011-04-15T08:00:00","27.5","10.48","ND","373.23","12.36","ND","1","146.6","21.6","92","74","0"],
    [8246,"2011-04-15T09:00:00","16.3","11.27","ND","826.75","8.26","ND","1.7","133.5","22","89","60.9","0"],
    [8247,"2011-04-15T10:00:00","22","12.94","ND","1565.02","9.83","ND","1.1","90.4","21.5","91.1","98.2","0"],
    [8248,"2011-04-15T11:00:00","19.4","12.46","ND","1007.62","13.15","ND","1.5","352.4","21.6","89.7","240.5","0"],
    [8249,"2011-04-15T12:00:00","17.5","13.34","ND","679.52","11.45","ND","1.1","40.3","22.8","84.1","398.2","0"],
    [8250,"2011-04-15T13:00:00","11","28.40","ND","534.46","16.34","ND","0.9","65.7","24.6","74.8","466.3","0"],
    [8251,"2011-04-15T14:00:00","6.6","41.82","ND","320.34","25.77","ND","0.7","100.6","25.9","68.7","548.2","0"],
    [8252,"2011-04-15T15:00:00","14.8","119.63","ND","413.66","34.54","ND","1.4","126.5","26.5","65.6","208.8","0"],
    [8253,"2011-04-15T16:00:00","11.2","36.82","ND","322.38","60.47","ND","2","270.2","22.6","82","23.4","8.38"],
    [8254,"2011-04-15T17:00:00","11.6","22.87","ND","431.82","58.09","ND","0.7","152","22.8","79","27.9","0"],
    [8255,"2011-04-15T18:00:00","23.1","13.99","ND","568.57","29.98","ND","0.9","61.3","22.2","85.2","7.3","0"],
    [8256,"2011-04-15T19:00:00","13.7","16.66","ND","919.22","12.38","ND","0.4","293.2","21.3","91.8","0.3","0.25"],
    [8257,"2011-04-15T20:00:00","22.1","26.86","ND","780.65","11.57","ND","0.2","280.9","21.7","88.9","0","0"],
    [8258,"2011-04-15T21:00:00","13","23.14","ND","1019.63","8.46","ND","0.9","63.7","21","94","0","0"],
    [8259,"2011-04-15T22:00:00","20.5","20.71","ND","1265.86","7.45","ND","0.6","134","20.8","93.8","0","7.11"],
    [8260,"2011-04-15T23:00:00","11.7","14.57","ND","576.03","7.33","ND","0.3","61","20.1","95.7","0","5.08"],
    [8261,"2011-04-16T00:00:00","7.4","13.79","ND","664.79","7.37","ND","0.1","231.2","20.4","96.2","0","0"],
    [8262,"2011-04-16T01:00:00","10.3","19.81","ND","530.12","7.17","ND","0.1","259.5","20.2","96.4","0","0.25"],
    [8263,"2011-04-16T02:00:00","6.5","17.53","ND","845.37","7.76","ND","0.3","251.4","20.1","95.1","0","0"],
    [8264,"2011-04-16T03:00:00","4","16.13","ND","721.13","7.26","ND","0.1","238.9","20.1","94.7","0","0"],
    [8265,"2011-04-16T04:00:00","2.7","14.10","ND","529.58","6.79","ND","0.3","70.7","20.1","95.4","0","0"],
    [8266,"2011-04-16T05:00:00","2.4","12.55","ND","608.46","7.08","ND","0.4","56.5","19.9","97","0","0"],
    [8267,"2011-04-16T06:00:00","18.9","10.97","ND","551.74","7.43","ND","0.2","181.5","20.2","94.9","0","0"],
    [8268,"2011-04-16T07:00:00","18.2","12.30","ND","247.97","6.97","ND","0","283.7","20.3","94.3","10.8","0.25"],
    [8269,"2011-04-16T08:00:00","29.6","15.06","ND","360.81","7.57","ND","0.5","188.2","20.9","91","67.5","0"],
    [8270,"2011-04-16T09:00:00","26.7","15.09","ND","564.92","7.45","ND","0.4","154.1","21.7","87.2","155.5","0"],
    [8271,"2011-04-16T10:00:00","28.3","23.50","ND","804.37","8.75","ND","0.8","130.2","22.8","81.4","255.9","0"],
    [8272,"2011-04-16T11:00:00","16.7","25.90","ND","1159.89","10.32","ND","1.6","158.5","23.3","78","198.4","0"],
    [8273,"2011-04-16T12:00:00","15.9","22.95","ND","1184.63","22.42","ND","0.9","183.9","23.7","74.8","310.1","0"],
    [8274,"2011-04-16T13:00:00","8.4","18.34","ND","958.11","33.29","ND","0.6","177.6","25.5","65.7","571","0"],
    [8275,"2011-04-16T14:00:00","6.2","15.56","ND","631.14","50.56","ND","0.8","235.6","26.8","60","700.8","0"],
    [8276,"2011-04-16T15:00:00","9.9","13.68","ND","691.52","98.63","ND","0.5","220.9","27.9","55.2","680.6","0"],
    [8277,"2011-04-16T16:00:00","11.1","12.30","ND","601.51","140.23","ND","0.9","24.3","27.6","56.4","158.8","0"],
    [8278,"2011-04-16T17:00:00","33.8","10.63","ND","635.58","136.09","ND","1.1","312.4","26.4","64.9","47.5","0"],
    [8279,"2011-04-16T18:00:00","41.3","13.32","ND","563.98","117.57","ND","0.6","288","26","64.4","21.1","0"],
    [8280,"2011-04-16T19:00:00","22.9","27.58","ND","827.61","122.67","ND","0.3","30.5","25.2","67","0.3","0"],
    [8281,"2011-04-16T20:00:00","29.3","14.11","ND","653.43","26.69","ND","0.7","61.6","24.1","74.6","0","0"],
    [8282,"2011-04-16T21:00:00","23.7","11.10","ND","708.13","9.45","ND","0.9","46","23.5","77.1","0","0"],
    [8283,"2011-04-16T22:00:00","35.1","13.97","ND","501.53","11.54","ND","0.9","170.8","22.8","82.3","0","0"],
    [8284,"2011-04-16T23:00:00","38","20.08","ND","716.40","9.25","ND","2.6","184.7","22.5","84.2","0","0"],
    [8285,"2011-04-17T00:00:00","21.6","18.21","ND","772.48","9.22","ND","2.6","184.5","22","85.6","0","0"],
    [8286,"2011-04-17T01:00:00","11.3","12.87","ND","510.33","9.05","ND","1.8","183.5","21.6","87.4","0","0"],
    [8287,"2011-04-17T02:00:00","7.6","10.00","ND","385.06","15.97","ND","1.1","194","21.6","88.1","0","0"],
    [8288,"2011-04-17T03:00:00","15.9","11.48","ND","192.53","23.24","ND","0.4","207.4","21.5","87.6","0","0"],
    [8289,"2011-04-17T04:00:00","10","11.24","ND","147.18","23.78","ND","0.1","299","21.5","87.4","0","0"],
    [8290,"2011-04-17T05:00:00","10.4","10.98","ND","181.14","18.70","ND","0.1","24.3","21.4","87.2","0","0"],
    [8291,"2011-04-17T06:00:00","24.4","10.12","ND","192.40","17.20","ND","0.2","72.6","21.3","89.3","0","0"],
    [8292,"2011-04-17T07:00:00","18.6","9.19","ND","214.96","10.37","ND","0.2","279.9","21.2","91","11.1","0"],
    [8293,"2011-04-17T08:00:00","11.6","8.69","ND","282.75","9.01","ND","1.3","188.5","21.5","87.4","43","0"],
    [8294,"2011-04-17T09:00:00","7.7","11.55","ND","339.65","8.24","ND","1.2","159","21.9","85.2","47.9","0"],
    [8295,"2011-04-17T10:00:00","20.6","14.47","ND","374.12","9.40","ND","0.7","132.2","22.1","86.5","78.9","0"],
    [8296,"2011-04-17T11:00:00","16","15.52","ND","317.65","11.43","ND","1.2","124.4","21.7","91.5","97.3","0.76"],
    [8297,"2011-04-17T12:00:00","21.9","17.39","ND","498.49","14.32","ND","0.5","65.4","21.3","91.9","106.4","1.78"],
    [8298,"2011-04-17T13:00:00","13.1","13.92","ND","554.38","16.36","ND","0.4","304.6","22","88.5","284","0.51"],
    [8299,"2011-04-17T14:00:00","6.6","19.14","ND","430.95","20.79","ND","0.9","227.1","23.8","77.6","545.8","0"],
    [8300,"2011-04-17T15:00:00","4.6","22.76","ND","285.25","31.15","ND","2.2","198.6","26","64.5","610.9","0"],
    [8301,"2011-04-17T16:00:00","4.9","35.89","ND","356.33","48.73","ND","2.8","145.5","26.5","65.7","350.7","0"],
    [8302,"2011-04-17T17:00:00","7.5","17.01","ND","426.01","73.76","ND","2.1","153.9","25.9","67","115.3","0"],
    [8303,"2011-04-17T18:00:00","16.3","11.93","ND","310.25","76.65","ND","1","199.3","25.5","69.9","45.7","0"],
    [8304,"2011-04-17T19:00:00","24.5","12.07","ND","401.64","60.27","ND","0.5","223.7","24.3","77.5","1.2","0"],
    [8305,"2011-04-17T20:00:00","38.9","12.97","ND","868.62","40.96","ND","0.4","265.3","23.3","82.1","0","0"],
    [8306,"2011-04-17T21:00:00","33.6","11.12","ND","1366.89","15.18","ND","0.2","285.6","22.9","84","0","0"],
    [8307,"2011-04-17T22:00:00","35.6","11.71","ND","1842.81","8.87","ND","0.2","315.8","22.3","84.9","0","0"],
    [8308,"2011-04-17T23:00:00","29.6","11.48","ND","1793.66","8.54","ND","0.5","305.8","21.8","85.5","0","0"],
    [8309,"2011-04-18T00:00:00","46.8","10.47","ND","1677.29","7.90","ND","0.2","179.5","21.7","87.4","0","0"],
    [8310,"2011-04-18T01:00:00","31.9","8.86","ND","770.39","8.69","ND","0.3","289.7","21.7","87.4","0","0"],
    [8311,"2011-04-18T02:00:00","41.6","9.90","ND","770.39","8.19","ND","0","267.5","21.6","88","0","0"],
    [8312,"2011-04-18T03:00:00","31.2","11.19","ND","747.47","8.01","ND","0.1","262.9","21.4","89.3","0","0"],
    [8313,"2011-04-18T04:00:00","40","10.22","ND","441.39","7.74","ND","0","234.1","21.3","89.5","0","0"],
    [8314,"2011-04-18T05:00:00","31.2","9.11","ND","531.75","7.60","ND","0.5","23.3","21","91.6","0","0"],
    [8315,"2011-04-18T06:00:00","32.9","9.05","ND","486.00","7.32","ND","0.1","1.1","21","90.6","0","0"],
    [8316,"2011-04-18T07:00:00","59","9.82","ND","486.00","7.92","ND","0.8","32.2","20.7","93.9","11.5","0"],
    [8317,"2011-04-18T08:00:00","60.6","16.79","ND","598.41","7.79","ND","0.4","9.7","21.1","91.8","53.3","0"],
    [8318,"2011-04-18T09:00:00","76.8","22.08","ND","621.84","8.11","ND","0.2","79.3","22.3","85.9","184.1","0"],
    [8319,"2011-04-18T10:00:00","80.1","35.05","ND","1146.58","8.81","ND","0.6","121.7","25","70","587.6","0"],
    [8320,"2011-04-18T11:00:00","40.9","137.27","ND","1546.57","10.44","ND","1.5","96.6","26.5","63.4","642","0"],
    [8321,"2011-04-18T12:00:00","30.2","179.73","ND","529.63","24.63","ND","0.1","215.8","27","59.4","333.5","0"],
    [8322,"2011-04-18T13:00:00","16.5","42.68","ND","311.39","49.51","ND","2.5","249.3","26.5","59.2","245.4","0"],
    [8323,"2011-04-18T14:00:00","10.3","31.89","ND","299.36","59.66","ND","2.1","245.1","28.4","50.8","735","0"],
    [8324,"2011-04-18T15:00:00","5.1","16.75","ND","370.78","26.99","ND","4","254.8","28.9","49.1","714.9","0"],
    [8325,"2011-04-18T16:00:00","2.6","10.86","ND","92.85","38.05","ND","2.2","274.6","28.5","50.5","386","0"],
    [8326,"2011-04-18T17:00:00","4.9","7.69","ND","115.91","31.15","ND","3.7","159.5","22.8","81.5","10.4","6.6"],
    [8327,"2011-04-18T18:00:00","21.3","6.68","ND","181.94","26.02","ND","0.7","79.9","21.3","93.5","0.7","7.62"],
    [8328,"2011-04-18T19:00:00","13","11.28","ND","599.63","17.13","ND","1.6","43.9","20","97.8","0","10.16"],
    [8329,"2011-04-18T20:00:00","9.7","11.36","ND","934.90","7.97","ND","1.4","35.1","19.5","98.1","0","4.83"],
    [8330,"2011-04-18T21:00:00","6.5","9.18","ND","506.01","9.57","ND","0.8","13","19.6","95.4","0","0.51"],
    [8331,"2011-04-18T22:00:00","5.6","7.77","ND","224.97","16.90","ND","0.3","240.2","20","93","0","0.76"],
    [8332,"2011-04-18T23:00:00","4.4","12.21","ND","202.75","13.00","ND","0.3","170.3","20.1","92.7","0","0.25"],
    [8333,"2011-04-19T00:00:00","5.3","22.34","ND","518.31","9.69","ND","0.4","332.5","20.1","93.2","0","0.25"],
    [8334,"2011-04-19T01:00:00","4.7","24.71","ND","495.78","8.36","ND","0.4","27.7","20","94.3","0","0"],
    [8335,"2011-04-19T02:00:00","3.5","19.66","ND","495.61","7.52","ND","0.2","22.1","20","94.6","0","0"],
    [8336,"2011-04-19T03:00:00","7","19.04","ND","382.97","7.49","ND","0.2","38.4","20","95.1","0","0"],
    [8337,"2011-04-19T04:00:00","13.3","20.89","ND","225.28","7.45","ND","0.5","71","19.8","96.9","0","0"],
    [8338,"2011-04-19T05:00:00","8.2","17.20","ND","270.15","7.64","ND","0.5","85.4","19.7","96.5","0","0.51"],
    [8339,"2011-04-19T06:00:00","5.8","17.84","ND","146.28","7.29","ND","0.1","105","19.7","95.4","0","0"],
    [8340,"2011-04-19T07:00:00","4.3","22.91","ND","78.77","8.06","ND","0.1","274.2","19.9","93.9","4.7","0"],
    [8341,"2011-04-19T08:00:00","18.5","17.10","ND","157.64","8.97","ND","0.2","181.9","20.4","91.8","76","0"],
    [8342,"2011-04-19T09:00:00","28.9","16.07","ND","372.21","7.94","ND","0.5","55.8","21.3","88.5","196.8","0"],
    [8343,"2011-04-19T10:00:00","24","24.32","ND","848.54","9.42","ND","0.3","12.6","23.2","77.5","458.6","0"],
    [8344,"2011-04-19T11:00:00","12.6","32.03","ND","1070.37","13.07","ND","1.1","36.1","24.2","74.7","353.3","0"],
    [8345,"2011-04-19T12:00:00","7.5","26.26","ND","731.22","32.72","ND","1.2","43.3","24.8","71.6","536.6","0"],
    [8346,"2011-04-19T13:00:00","6.1","24.09","ND","515.18","53.38","ND","0.3","69.4","26.3","63","640","0"],
    [8347,"2011-04-19T14:00:00","27","18.84","ND","218.61","60.27","ND","1","48.7","27","61.5","619.9","0"],
    [8348,"2011-04-19T15:00:00","17.6","25.43","ND","219.13","82.08","ND","1.1","331.3","28","57.5","612.6","0"],
    [8349,"2011-04-19T16:00:00","15","29.11","ND","208.29","94.77","ND","1.7","18.6","27.5","59.3","181.1","0"],
    [8350,"2011-04-19T17:00:00","14.5","47.64","ND","242.60","77.57","ND","0.9","354.8","27.5","57.5","177.1","0"],
    [8351,"2011-04-19T18:00:00","27.4","45.84","ND","254.15","57.76","ND","1.4","242.5","26.6","59.3","78.5","0"],
    [8352,"2011-04-19T19:00:00","17.6","44.20","ND","322.49","35.79","ND","0.4","207.3","25.7","60.8","1.3","0"],
    [8353,"2011-04-19T20:00:00","40.4","10.64","ND","516.73","17.86","ND","0.5","156.1","25.2","63.1","0","0"],
    [8354,"2011-04-19T21:00:00","21.3","11.30","ND","859.78","10.35","ND","1.5","206.2","22.6","78.9","0","0"],
    [8355,"2011-04-19T22:00:00","20.5","11.67","ND","977.29","9.58","ND","2.3","185.6","21.5","85.6","0","0.25"],
    [8356,"2011-04-19T23:00:00","14.3","9.17","ND","837.79","11.09","ND","1.7","163.9","20.7","91.4","0","1.02"],
    [8357,"2011-04-20T00:00:00","18.4","8.11","ND","632.28","11.35","ND","1.6","155.2","20.2","95.4","0","4.83"],
    [8358,"2011-04-20T01:00:00","10.5","5.96","ND","405.78","12.40","ND","0.5","168.8","19.8","97.2","0","7.87"],
    [8359,"2011-04-20T02:00:00","6.2","5.46","ND","146.33","20.53","ND","0.4","45.6","19.9","97.8","0","7.62"],
    [8360,"2011-04-20T03:00:00","4.6","5.72","ND","90.08","17.40","ND","0.5","45","19.7","98.8","0","6.86"],
    [8361,"2011-04-20T04:00:00","4.5","5.58","ND","168.78","13.94","ND","0.2","62.1","19.6","99.2","0","2.03"],
    [8362,"2011-04-20T05:00:00","2.3","6.53","ND","101.24","13.97","ND","0.5","85.5","19.6","99","0","0.25"],
    [8363,"2011-04-20T06:00:00","1.1","8.13","ND","146.23","12.58","ND","0","97.8","19.6","98.5","0","0.25"],
    [8364,"2011-04-20T07:00:00","2.9","19.09","ND","157.48","7.65","ND","0.1","271.4","19.7","97.3","11.6","0"],
    [8365,"2011-04-20T08:00:00","9.5","29.65","ND","191.29","7.25","ND","0.6","137.5","20.3","95.2","45.5","0.25"],
    [8366,"2011-04-20T09:00:00","32.7","23.52","ND","417.19","7.59","ND","0.3","59.3","20.7","93.5","108.7","0"],
    [8367,"2011-04-20T10:00:00","17.7","23.81","ND","891.97","8.70","ND","1.1","68.9","21.6","88.6","229.2","0"],
    [8368,"2011-04-20T11:00:00","10","20.80","ND","996.63","10.03","ND","0.8","76.6","22.5","83.5","135.7","0"],
    [8369,"2011-04-20T12:00:00","6.5","20.47","ND","590.72","18.64","ND","0.9","45.7","23.4","78.4","418","0"],
    [8370,"2011-04-20T13:00:00","5.3","15.27","ND","432.99","30.37","ND","1.3","49.5","25.1","71.7","565","0"],
    [8371,"2011-04-20T14:00:00","29.4","28.94","ND","240.66","45.21","ND","1.2","98.9","25.7","67.8","341.3","0"],
    [8372,"2011-04-20T15:00:00","15.8","70.28","ND","241.14","58.26","ND","0.4","190.8","26.4","65.4","283.7","0"],
    [8373,"2011-04-20T16:00:00","9.6","52.47","ND","218.69","64.18","ND","1.7","279.4","26.3","61.5","167.6","0"],
    [8374,"2011-04-20T17:00:00","5.3","45.16","ND","379.70","71.23","ND","1.1","254.9","25.4","59.7","76.4","0"],
    [8375,"2011-04-20T18:00:00","4.9","30.25","ND","355.61","47.69","ND","1.6","226.5","24.6","62.2","34.2","0"],
    [8376,"2011-04-20T19:00:00","3.8","9.84","ND","228.81","21.50","ND","1","115.4","23","76.8","1","0"],
    [8377,"2011-04-20T20:00:00","16.9","8.07","ND","477.93","16.06","ND","0.1","318.8","21.8","85.2","0","1.02"],
    [8378,"2011-04-20T21:00:00","33.2","9.41","ND","940.64","10.97","ND","0.3","269.6","21.2","89.4","0","0.25"],
    [8379,"2011-04-20T22:00:00","41.5","10.50","ND","1278.03","9.18","ND","0.6","250.5","21","91.1","0","0"],
    [8380,"2011-04-20T23:00:00","29.4","11.25","ND","1209.35","8.40","ND","0.1","322","21","89.8","0","0"],
    [8381,"2011-04-21T00:00:00","24.9","11.56","ND","1311.07","7.40","ND","0.5","325.3","20.9","89.2","0","0"],
    [8382,"2011-04-21T01:00:00","14.9","11.29","ND","1039.46","7.08","ND","0.1","213.1","21","89.4","0","0"],
    [8383,"2011-04-21T02:00:00","19.3","12.54","ND","587.72","7.45","ND","0","116.5","20.8","90.9","0","0"],
    [8384,"2011-04-21T03:00:00","11.9","27.05","ND","655.09","7.56","ND","0.4","125.7","20.8","90.1","0","0"],
    [8385,"2011-04-21T04:00:00","8","21.60","ND","304.95","8.78","ND","0.1","171.7","20.7","89.9","0","0"],
    [8386,"2011-04-21T05:00:00","6.2","14.07","ND","158.07","8.43","ND","0","302.9","20.6","92","0","0"],
    [8387,"2011-04-21T06:00:00","15.3","12.83","ND","304.75","7.54","ND","0.1","85.3","20.6","92.8","0","0"],
    [8388,"2011-04-21T07:00:00","11.7","12.34","ND","316.03","7.54","ND","0.1","48.8","20.6","94.3","15.1","0"],
    [8389,"2011-04-21T08:00:00","16.9","13.68","ND","282.17","7.48","ND","0.3","52.2","21.1","91.4","134.7","0"],
    [8390,"2011-04-21T09:00:00","9.5","12.41","ND","282.65","7.34","ND","1","128.8","22.5","83","252","0"],
    [8391,"2011-04-21T10:00:00","5.5","15.56","ND","465.76","9.92","ND","0.6","135.1","23.6","76.5","439.8","0"],
    [8392,"2011-04-21T11:00:00","4","20.79","ND","513.10","18.79","ND","0.1","277.2","25.4","68.1","629.7","0"],
    [8393,"2011-04-21T12:00:00","3.8","16.71","ND","355.61","32.30","ND","1.3","196","25.8","66.3","581.1","0"],
    [8394,"2011-04-21T13:00:00","4.4","15.55","ND","264.20","52.44","ND","0.9","163.8","27.2","57.6","627.6","0"],
    [8395,"2011-04-21T14:00:00","6.3","12.88","ND","450.09","73.20","ND","0.4","278.2","28.9","50.2","842.4","0"],
    [8396,"2011-04-21T15:00:00","3.8","9.77","ND","301.76","84.27","ND","2","339.7","28.9","54.5","668.4","0"],
    [8397,"2011-04-21T16:00:00","3.4","7.94","ND","278.54","96.58","ND","2.4","269.3","27.9","54.9","139.3","0"],
    [8398,"2011-04-21T17:00:00","3.2","9.07","ND","347.03","85.04","ND","0.6","291.9","27.5","55.3","77.6","0"],
    [8399,"2011-04-21T18:00:00","7.5","5.71","ND","184.83","32.73","ND","3.6","280.9","26.5","57.1","29.3","0"],
    [8400,"2011-04-21T19:00:00","5.8","7.06","ND","276.33","29.03","ND","0.7","291.3","26.1","59.2","1.4","0"],
    [8401,"2011-04-21T20:00:00","3.5","5.26","ND","68.99","28.97","ND","0.8","56.6","25.8","61.3","0","0"],
    [8402,"2011-04-21T21:00:00","8.6","5.02","ND","91.89","23.69","ND","1","76.5","24.6","68.6","0","0"],
    [8403,"2011-04-21T22:00:00","15.1","6.80","ND","503.39","14.40","ND","0.1","154.6","22.9","82.4","0","0.25"],
    [8404,"2011-04-21T23:00:00","8.8","6.97","ND","534.64","10.62","ND","0.4","271.3","22.7","79.1","0","0"],
    [8405,"2011-04-22T00:00:00","5.7","7.31","ND","738.90","9.00","ND","1.2","193.6","22","83.2","0","0"],
    [8406,"2011-04-22T01:00:00","2.9","7.31","ND","419.61","9.87","ND","1.4","180.3","21.8","86.5","0","0"],
    [8407,"2011-04-22T02:00:00","1.4","6.35","ND","136.00","17.03","ND","1.8","176.4","21.4","87.1","0","0"],
    [8408,"2011-04-22T03:00:00","0.7","5.33","ND","158.45","19.74","ND","1.8","182.9","20.8","91.3","0","0"],
    [8409,"2011-04-22T04:00:00","0.3","5.27","ND","101.65","22.44","ND","0.7","191.9","20.4","94.1","0","0"],
    [8410,"2011-04-22T05:00:00","2.3","4.85","ND","56.40","20.17","ND","0.5","239.9","19.4","97.9","0","43.18"],
    [8411,"2011-04-22T06:00:00","2.2","4.47","ND","44.96","20.83","ND","1.5","184.8","19.1","99.9","0","13.21"],
    [8412,"2011-04-22T07:00:00","3.7","4.47","ND","44.92","21.93","ND","1","202","19.1","100","17.9","9.14"],
    [8413,"2011-04-22T08:00:00","3.2","4.19","ND","33.69","19.41","ND","0.8","180.1","19.8","97.3","94.3","0.51"],
    [8414,"2011-04-22T09:00:00","2.4","3.76","ND","45.02","19.28","ND","1.2","182.5","21.7","81.3","218.4","0"],
    [8415,"2011-04-22T10:00:00","3.5","4.15","ND","192.60","18.92","ND","0.9","160.5","23.6","73.1","657.6","0"],
    [8416,"2011-04-22T11:00:00","3.9","5.16","ND","68.41","28.30","ND","2","131.1","25.4","65.9","716.8","0"],
    [8417,"2011-04-22T12:00:00","3.2","4.88","ND","91.77","36.22","ND","1.2","135.1","26.1","63.9","804","0"],
    [8418,"2011-04-22T13:00:00","3.6","5.39","ND","126.48","54.64","ND","1.6","130.6","27","60.2","584.5","0"],
    [8419,"2011-04-22T14:00:00","2.8","4.72","ND","161.46","54.98","ND","1.1","203","27.1","60.5","446.5","0"],
    [8420,"2011-04-22T15:00:00","3","4.86","ND","115.37","57.35","ND","1.7","247.1","27.8","57.5","649.9","0"],
    [8421,"2011-04-22T16:00:00","1.5","5.10","ND","196.58","58.71","ND","0.9","336.1","28.6","53.3","497.8","0"],
    [8422,"2011-04-22T17:00:00","1.5","4.80","ND","185.51","68.76","ND","1.5","7.4","28.3","53.6","360","0"],
    [8423,"2011-04-22T18:00:00","2","7.97","ND","115.83","63.93","ND","0.5","349.6","27.9","54.4","140.6","0"],
    [8424,"2011-04-22T19:00:00","66","25.37","ND","104.11","48.84","ND","1.1","244.9","26","59.3","3.2","0"],
    [8425,"2011-04-22T20:00:00","33.7","17.82","ND","103.45","35.68","ND","0.1","160.5","24.9","64.3","0","0"],
    [8426,"2011-04-22T21:00:00","17.6","6.97","ND","229.04","21.21","ND","0.6","258.9","23.8","70.1","0","0"],
    [8427,"2011-04-22T22:00:00","15.3","8.69","ND","547.68","11.88","ND","0.2","149.4","23.2","76.7","0","0"],
    [8428,"2011-04-22T23:00:00","14.5","9.56","ND","990.66","8.08","ND","0.2","263","22","82.4","0","0"],
    [8429,"2011-04-23T00:00:00","28.5","8.92","ND","941.28","7.96","ND","0.1","309.8","21.5","84.8","0","0"],
    [8430,"2011-04-23T01:00:00","15.4","8.83","ND","984.97","7.29","ND","0.3","347.4","21.3","83.2","0","0"],
    [8431,"2011-04-23T02:00:00","13.7","7.53","ND","871.17","7.11","ND","0.3","322.6","21.4","81.9","0","0"],
    [8432,"2011-04-23T03:00:00","7.5","5.75","ND","282.94","7.11","ND","0.2","16.8","21.6","81.9","0","0"],
    [8433,"2011-04-23T04:00:00","11.8","7.43","ND","396.39","7.62","ND","0.4","21.2","21.2","87.7","0","0"],
    [8434,"2011-04-23T05:00:00","6.7","9.83","ND","271.44","7.01","ND","0.1","338.2","21","88.4","0","0"],
    [8435,"2011-04-23T06:00:00","15.4","9.64","ND","158.23","7.82","ND","0.3","330.5","21","87.5","0.1","0"],
    [8436,"2011-04-23T07:00:00","20.6","9.56","ND","113.02","7.05","ND","0.3","183.2","21.4","85.7","27.9","0"],
    [8437,"2011-04-23T08:00:00","27.2","14.65","ND","328.21","7.41","ND","0.9","147.5","22.6","78.8","146","0"],
    [8438,"2011-04-23T09:00:00","24.7","23.26","ND","534.10","7.55","ND","0.9","165.4","23.8","74","349.2","0"],
    [8439,"2011-04-23T10:00:00","17.7","56.76","ND","741.65","10.89","ND","1.1","145.3","25.5","65.4","546.2","0"],
    [8440,"2011-04-23T11:00:00","9.5","36.33","ND","745.89","27.15","ND","1.4","97.9","26.7","61.6","762.2","0"],
    [8441,"2011-04-23T12:00:00","21.4","32.25","ND","460.86","52.83","ND","1.1","91.3","28","56.6","784.8","0"],
    [8442,"2011-04-23T13:00:00","12.3","24.93","ND","300.86","70.37","ND","1.6","62.4","28.6","53.3","771.9","0"],
    [8443,"2011-04-23T14:00:00","22.4","17.10","ND","301.46","86.51","ND","0.7","327","29.4","52.3","437.9","0"],
    [8444,"2011-04-23T15:00:00","20.1","10.48","ND","186.00","73.28","ND","0.6","16.8","29.7","51.1","461.6","0"],
    [8445,"2011-04-23T16:00:00","12","13.73","ND","290.92","99.07","ND","2.8","258.7","30.3","47.5","557.8","0"],
    [8446,"2011-04-23T17:00:00","6.5","24.03","ND","209.88","81.35","ND","2.4","263.1","28.9","50.2","160.4","0"],
    [8447,"2011-04-23T18:00:00","5.1","8.52","ND","139.27","35.25","ND","1","203.6","27.4","55.3","28.5","0"],
    [8448,"2011-04-23T19:00:00","11.4","5.76","ND","219.42","26.37","ND","2.1","172.1","21.1","86.2","0.4","26.92"],
    [8449,"2011-04-23T20:00:00","12.6","5.51","ND","293.96","24.11","ND","0.6","297.9","21","88.3","0.3","1.78"],
    [8450,"2011-04-23T21:00:00","7.9","6.15","ND","429.49","26.27","ND","0.7","200.4","21.4","91.2","0","0.76"],
    [8451,"2011-04-23T22:00:00","5.8","6.06","ND","464.02","18.65","ND","0.2","191.7","21.7","89.8","0","0.25"],
    [8452,"2011-04-23T23:00:00","4.1","7.07","ND","974.31","9.63","ND","1.6","167.6","21.2","92.6","0","0.25"],
    [8453,"2011-04-24T00:00:00","3.4","6.75","ND","1063.14","7.94","ND","1.8","181.4","20.8","92","0","0"],
    [8454,"2011-04-24T01:00:00","4","5.35","ND","632.50","10.52","ND","0.5","140.4","21","89.7","0","0"],
    [8455,"2011-04-24T02:00:00","3.6","4.83","ND","316.46","15.04","ND","0.2","332","20.3","93.4","0","0"],
    [8456,"2011-04-24T03:00:00","2.8","4.02","ND","338.26","15.28","ND","0.2","37","20.3","94.4","0","0"],
    [8457,"2011-04-24T04:00:00","14.2","4.18","ND","293.16","12.59","ND","0.4","33.8","20.2","95.2","0","0"],
    [8458,"2011-04-24T05:00:00","9.2","4.20","ND","349.42","10.41","ND","0.3","38.2","20.1","95.8","0","0"],
    [8459,"2011-04-24T06:00:00","13.8","4.23","ND","247.89","8.99","ND","0","42.2","20.2","95.6","0.3","0"],
    [8460,"2011-04-24T07:00:00","8.5","4.38","ND","101.44","13.90","ND","0.1","324.5","20.5","94.3","35.8","0.25"],
    [8461,"2011-04-24T08:00:00","8.1","4.88","ND","169.25","12.16","ND","0.3","174.6","21.4","89","141.4","0"],
    [8462,"2011-04-24T09:00:00","15.3","8.36","ND","362.17","9.09","ND","0.6","70.6","22.8","83.3","283.9","0"],
    [8463,"2011-04-24T10:00:00","27.3","37.82","ND","477.60","13.48","ND","0.6","109.6","24.8","72.4","661.3","0"],
    [8464,"2011-04-24T11:00:00","16.1","98.90","ND","389.25","17.37","ND","0.9","78","26.4","65.2","769.2","0"],
    [8465,"2011-04-24T12:00:00","9.4","97.67","ND","253.22","33.83","ND","1.3","44.1","27.4","57.4","909.6","0"],
    [8466,"2011-04-24T13:00:00","7.1","53.04","ND","288.71","46.76","ND","1.2","70.9","28","55.7","792.7","0"],
    [8467,"2011-04-24T14:00:00","4.4","15.96","ND","185.14","52.07","ND","0.7","74.1","28.9","53.9","608","0"],
    [8468,"2011-04-24T15:00:00","9.3","15.21","ND","208.91","72.11","ND","0.9","66","28.7","55","265.2","0"],
    [8469,"2011-04-24T16:00:00","9.4","16.53","ND","243.56","77.36","ND","1.9","291.6","27.2","59.3","103.5","0"],
    [8470,"2011-04-24T17:00:00","6.5","18.66","ND","219.27","83.94","ND","0.6","344.1","28.5","53.5","274.4","0"],
    [8471,"2011-04-24T18:00:00","4.4","8.27","ND","208.63","37.09","ND","0.6","251.8","28","54.1","100.1","0"],
    [8472,"2011-04-24T19:00:00","13.7","10.06","ND","254.57","37.68","ND","0.3","274.6","26.1","62.2","1","0"],
    [8473,"2011-04-24T20:00:00","15.4","13.81","ND","356.45","32.79","ND","0.3","344.5","25.3","64.5","0","0"],
    [8474,"2011-04-24T21:00:00","8.8","10.02","ND","1043.55","10.45","ND","0.2","248.4","24.6","71.1","0","0"],
    [8475,"2011-04-24T22:00:00","33.7","9.71","ND","961.02","8.70","ND","0.6","189.9","24","74.5","0","0"],
    [8476,"2011-04-24T23:00:00","18","13.53","ND","1815.40","8.45","ND","0.4","89.2","23.9","75.9","0","0"],
    [8477,"2011-04-25T00:00:00","20","14.20","ND","1483.79","7.86","ND","0.2","166.1","23.1","80.6","0","0"],
    [8478,"2011-04-25T01:00:00","11","13.72","ND","876.49","8.03","ND","0.2","265.7","22.3","84.6","0","0"],
    [8479,"2011-04-25T02:00:00","20.1","9.43","ND","465.44","7.49","ND","0.1","289.7","22.1","85.4","0","0"],
    [8480,"2011-04-25T03:00:00","11.6","8.43","ND","544.54","7.40","ND","0.2","269.3","22.1","83.7","0","0"],
    [8481,"2011-04-25T04:00:00","19","7.47","ND","499.16","7.25","ND","0.2","21.6","22.2","84","0","0"],
    [8482,"2011-04-25T05:00:00","13.7","6.83","ND","215.62","7.91","ND","0.5","225.3","21.6","91.3","0","3.56"],
    [8483,"2011-04-25T06:00:00","28.9","10.98","ND","441.69","7.84","ND","0.3","240.8","21.5","93.5","0.1","0.51"],
    [8484,"2011-04-25T07:00:00","26.6","12.92","ND","452.86","8.38","ND","0.2","263","21.4","92.6","33.1","0"],
    [8485,"2011-04-25T08:00:00","17.8","9.94","ND","531.93","7.48","ND","0.2","289.9","22.5","87.1","166.9","0"],
    [8486,"2011-04-25T09:00:00","11","10.08","ND","772.48","7.73","ND","0.6","95.4","23.5","83.1","177","0"],
    [8487,"2011-04-25T10:00:00","9.8","14.96","ND","1447.60","8.92","ND","0.7","181.2","24.9","75.1","456.9","0"],
    [8488,"2011-04-25T11:00:00","5.6","15.32","ND","1225.39","14.18","ND","1.3","159.2","26.4","68.2","527","0"],
    [8489,"2011-04-25T12:00:00","5.2","12.95","ND","736.63","34.23","ND","0.4","47.3","26.5","67.6","184.4","0"],
    [8490,"2011-04-25T13:00:00","10","13.33","ND","575.69","58.34","ND","0.5","10.1","27.4","60.5","527.6","0"],
    [8491,"2011-04-25T14:00:00","13.4","15.56","ND","485.03","78.16","ND","2.2","5.8","28.6","54.3","578.5","0"],
    [8492,"2011-04-25T15:00:00","14.8","17.16","ND","405.81","50.15","ND","1.8","19.6","28.3","55.6","405.7","0"],
    [8493,"2011-04-25T16:00:00","21.3","30.02","ND","312.74","44.84","ND","1.9","250.1","28.8","50.7","300.1","0"],
    [8494,"2011-04-25T17:00:00","10.6","27.92","ND","255.25","42.57","ND","1.3","213","29.3","46.4","270.2","0"],
    [8495,"2011-04-25T18:00:00","5.3","8.29","ND","337.02","27.45","ND","1.2","240.1","28.5","48.8","88.2","0"],
    [8496,"2011-04-25T19:00:00","19.4","6.26","ND","301.36","27.12","ND","2.1","167.3","27.1","61.6","0.6","0"],
    [8497,"2011-04-25T20:00:00","41.8","7.10","ND","761.43","17.15","ND","1.2","127.8","26.1","66.9","0","0"],
    [8498,"2011-04-25T21:00:00","32.5","13.54","ND","954.36","27.93","ND","0.7","113.4","24.4","73.8","0","0"],
    [8499,"2011-04-25T22:00:00","35.6","13.62","ND","1006.10","13.34","ND","0.3","250.4","24","77.1","0","0"],
    [8500,"2011-04-25T23:00:00","18.7","14.49","ND","525.21","19.71","ND","0.1","290","23.3","82.8","0","0"],
    [8501,"2011-04-26T00:00:00","33.4","13.78","ND","751.79","16.16","ND","0","309.8","23.2","80.7","0","0"],
    [8502,"2011-04-26T01:00:00","22","10.47","ND","797.08","8.47","ND","0.5","45","22.5","87.8","0","0"],
    [8503,"2011-04-26T02:00:00","14.2","9.28","ND","488.48","8.60","ND","0.3","356.4","22","90.5","0","0"],
    [8504,"2011-04-26T03:00:00","17.2","12.50","ND","464.97","9.56","ND","0.3","217.3","22.1","89.4","0","0"],
    [8505,"2011-04-26T04:00:00","17.9","16.04","ND","385.72","11.74","ND","0.4","166.4","22.2","87.6","0","0"],
    [8506,"2011-04-26T05:00:00","21.9","17.26","ND","397.20","10.96","ND","0.1","348.7","21.6","90.1","0","0"],
    [8507,"2011-04-26T06:00:00","34.4","16.73","ND","362.41","8.42","ND","0.1","288.5","21.3","90.8","0","0"],
    [8508,"2011-04-26T07:00:00","35","13.07","ND","350.73","7.93","ND","0.5","6.8","21.6","90.1","32.1","0"],
    [8509,"2011-04-26T08:00:00","57.8","15.52","ND","543.62","7.60","ND","0.9","48.7","22.1","89.7","109","0"],
    [8510,"2011-04-26T09:00:00","87.3","23.61","ND","850.84","8.36","ND","0.9","45","23.6","81.1","379.6","0"],
    [8511,"2011-04-26T10:00:00","59.9","35.47","ND","752.55","9.98","ND","0.9","144.5","25.9","68.3","636.1","0"],
    [8512,"2011-04-26T11:00:00","42.8","56.90","ND","609.01","19.53","ND","1.5","112.6","27.3","60.8","671.4","0"],
    [8513,"2011-04-26T12:00:00","26.6","31.13","ND","577.22","45.52","ND","1.1","90.3","28.5","56.6","795","0"],
    [8514,"2011-04-26T13:00:00","16.6","18.88","ND","394.08","73.08","ND","1.3","69.1","29.9","51.7","799","0"],
    [8515,"2011-04-26T14:00:00","19.1","17.10","ND","384.27","92.61","ND","1.2","18.7","30.3","50.1","622.2","0"],
    [8516,"2011-04-26T15:00:00","16.7","15.33","ND","478.05","107.81","ND","2","285.5","31.2","48.5","657.8","0"],
    [8517,"2011-04-26T16:00:00","23.7","16.10","ND","397.61","109.82","ND","2.6","280.7","30.1","49.3","294","0"],
    [8518,"2011-04-26T17:00:00","27.3","9.78","ND","349.56","62.07","ND","1.2","256.4","29.8","49.7","167.7","0"],
    [8519,"2011-04-26T18:00:00","20.7","6.39","ND","314.30","30.29","ND","0.8","121.8","28.7","54.2","40","0"],
    [8520,"2011-04-26T19:00:00","29.5","6.53","ND","603.11","21.48","ND","0.6","233.4","25.7","68.8","2.2","0"],
    [8521,"2011-04-26T20:00:00","27.9","10.30","ND","597.12","19.24","ND","0.6","11.1","23","86.2","0.4","7.11"],
    [8522,"2011-04-26T21:00:00","29.9","13.09","ND","921.71","12.94","ND","1.4","204.8","22.7","91.4","0","1.02"],
    [8523,"2011-04-26T22:00:00","19.9","8.89","ND","545.65","13.98","ND","3.2","176.5","21.9","88.9","0","0.51"],
    [8524,"2011-04-26T23:00:00","11.9","9.05","ND","1099.68","9.03","ND","1.1","162.6","21.2","93.4","0","4.57"],
    [8525,"2011-04-27T00:00:00","7.8","9.42","ND","576.81","14.80","ND","1","143.5","21","94.5","0","1.27"],
    [8526,"2011-04-27T01:00:00","3.9","6.77","ND","463.39","14.35","ND","0.5","151.6","21","94","0","0"],
    [8527,"2011-04-27T02:00:00","1.9","5.89","ND","418.19","14.40","ND","0.4","49.5","21","94.4","0","0.25"],
    [8528,"2011-04-27T03:00:00","2.8","5.61","ND","282.56","18.28","ND","0","166.8","21","95.2","0","1.02"],
    [8529,"2011-04-27T04:00:00","4.7","5.20","ND","293.86","15.89","ND","1.2","140.9","21.1","95.7","0","0.25"],
    [8530,"2011-04-27T05:00:00","4.5","5.56","ND","384.41","13.21","ND","1.2","165.7","20.7","94.9","0","0"],
    [8531,"2011-04-27T06:00:00","3.2","5.63","ND","316.14","13.75","ND","0.6","138.4","21.1","91.4","0","0"],
    [8532,"2011-04-27T07:00:00","16.4","6.23","ND","226.12","17.90","ND","0.2","52.4","20.9","94.2","7.4","0.25"],
    [8533,"2011-04-27T08:00:00","25.5","7.34","ND","327.66","13.37","ND","0.9","159.8","21.7","90.1","146.8","0"],
    [8534,"2011-04-27T09:00:00","14.7","10.03","ND","906.34","8.75","ND","1.9","145.7","22.8","82.8","360.1","0"],
    [8535,"2011-04-27T10:00:00","8.5","17.45","ND","1296.35","10.93","ND","1.7","117.9","24.6","75.6","628.2","0"],
    [8536,"2011-04-27T11:00:00","8","15.81","ND","915.26","23.99","ND","1.1","143.1","26","68.3","644.4","0"],
    [8537,"2011-04-27T12:00:00","12.3","12.49","ND","689.67","40.97","ND","0.8","82.6","26.9","64","560.3","0"],
    [8538,"2011-04-27T13:00:00","8.6","ND","ND","ND","51.68","ND","2","43.3","27.3","62.2","526.7","0"],
    [8539,"2011-04-27T14:00:00","19.1","10.51","ND","ND","ND","ND","2.1","49.6","27.8","61.9","319.8","0"],
    [8540,"2011-04-27T15:00:00","11.1","25.79","ND","566.62","ND","ND","1.8","242.1","28.8","55.1","546.2","0"],
    [8541,"2011-04-27T16:00:00","6.1","30.09","ND","719.33","77.59","ND","2.5","277.7","28.5","53.6","303.1","0"],
    [8542,"2011-04-27T17:00:00","5.3","11.61","ND","672.26","35.46","ND","1.4","274.7","27.6","54.9","127.9","0"],
    [8543,"2011-04-27T18:00:00","4.6","4.57","ND","681.81","25.87","ND","0.3","349.5","27.3","56.2","45.6","0"],
    [8544,"2011-04-27T19:00:00","3.5","4.07","ND","623.40","19.62","ND","3.6","182.2","25.1","64.2","0.2","0"],
    [8545,"2011-04-27T20:00:00","5.1","4.04","ND","687.60","15.37","ND","2.7","171.8","23.5","69.4","0","0"],
    [8546,"2011-04-27T21:00:00","3.4","4.35","ND","1174.04","9.70","ND","1.4","155.1","21.6","83.2","0","0"],
    [8547,"2011-04-27T22:00:00","14.2","5.18","ND","1121.21","11.39","ND","0.4","54.5","21","92.1","0","2.79"],
    [8548,"2011-04-27T23:00:00","31.2","4.50","ND","791.16","21.80","ND","0.4","47.7","20.7","94.5","0","0.25"],
    [8549,"2011-04-28T00:00:00","20.1","4.36","ND","767.77","13.93","ND","0.2","130.9","21","93.4","0","0"],
    [8550,"2011-04-28T01:00:00","16.8","5.17","ND","700.74","10.26","ND","1","130.9","20.9","92.9","0","0"],
    [8551,"2011-04-28T02:00:00","8.9","8.81","ND","813.49","5.28","ND","0.6","150.1","20.6","92.5","0","0"],
    [8552,"2011-04-28T03:00:00","6.8","13.81","ND","846.52","6.24","ND","0.4","141.2","20.4","93","0","0"],
    [8553,"2011-04-28T04:00:00","13.1","11.17","ND","654.20","12.37","ND","0.4","182.2","20.4","93.1","0","0"],
    [8554,"2011-04-28T05:00:00","7.6","8.28","ND","563.96","8.46","ND","0.1","16.7","20.5","92.6","0","0"],
    [8555,"2011-04-28T06:00:00","5.2","7.61","ND","598.00","6.98","ND","0.4","58","20.4","94.2","0","0.25"],
    [8556,"2011-04-28T07:00:00","18.9","6.04","ND","507.57","5.76","ND","1","41.5","20.2","95.6","5.8","0"],
    [8557,"2011-04-28T08:00:00","32.2","14.67","ND","822.82","3.76","ND","0.3","120.3","20.7","91.8","48.6","0"],
    [8558,"2011-04-28T09:00:00","16.7","17.77","ND","880.68","4.33","ND","0.7","138.7","21.9","83.5","235.5","0"],
    [8559,"2011-04-28T10:00:00","33.5","54.97","ND","1099.68","4.62","ND","1","130.3","23.4","77.7","408.3","0"],
    [8560,"2011-04-28T11:00:00","28.8","47.17","ND","1150.85","11.83","ND","0.8","144.2","24.6","71.1","371.5","0"],
    [8561,"2011-04-28T12:00:00","28.4","34.78","ND","1201.27","36.75","ND","0.6","59.2","25.2","67.5","348.5","0"],
    [8562,"2011-04-28T13:00:00","15.8","27.87","ND","894.17","55.38","ND","1.3","37.9","25.9","66","447.2","0"],
    [8563,"2011-04-28T14:00:00","10.1","42.37","ND","735.40","58.36","ND","1.9","44.8","26.9","62","652.2","0"],
    [8564,"2011-04-28T15:00:00","6.5","76.50","ND","634.10","49.61","ND","1.5","46.6","27.4","60.5","546","0"],
    [8565,"2011-04-28T16:00:00","17.9","40.94","ND","600.51","66.13","ND","1.1","31.8","27.6","59.3","230.9","0"],
    [8566,"2011-04-28T17:00:00","37.6","28.62","ND","647.14","70.49","ND","1.1","309.2","26.3","65.8","20.9","0"],
    [8567,"2011-04-28T18:00:00","49.8","21.32","ND","632.83","64.51","ND","0.3","277.7","25.3","72","9.7","0"],
    [8568,"2011-04-28T19:00:00","70.6","34.96","ND","1077.96","38.32","ND","0.7","251.8","25.1","69.5","0.5","0"],
    [8569,"2011-04-28T20:00:00","39","34.05","ND","2303.44","8.83","ND","0.3","234.6","24.7","68","0","0"],
    [8570,"2011-04-28T21:00:00","30.3","32.01","ND","1648.01","7.10","ND","0.3","209.8","24","71.4","0","0"],
    [8571,"2011-04-28T22:00:00","54.4","18.67","ND","1370.12","4.87","ND","0.3","71.7","23.7","75.9","0","0"],
    [8572,"2011-04-28T23:00:00","38.9","18.05","ND","2018.88","3.95","ND","0.7","156.6","23.6","78.5","0","0"],
    [8573,"2011-04-29T00:00:00","41.1","20.26","ND","2405.88","5.16","ND","1","194.3","23.6","75.5","0","0"],
    [8574,"2011-04-29T01:00:00","39.5","21.78","ND","1926.98","6.00","ND","0.8","211.5","22.9","76.7","0","0"],
    [8575,"2011-04-29T02:00:00","21","12.90","ND","716.65","13.91","ND","0.2","181.6","22.4","77.1","0","0"],
    [8576,"2011-04-29T03:00:00","16.3","8.88","ND","488.31","10.37","ND","0.2","311.1","21.8","81","0","0"],
    [8577,"2011-04-29T04:00:00","18.8","6.58","ND","611.98","11.43","ND","0.1","35.2","22","80.5","0","0"],
    [8578,"2011-04-29T05:00:00","18.7","5.29","ND","623.74","11.60","ND","0.4","351","21.7","85.5","0","0"],
    [8579,"2011-04-29T06:00:00","34.7","5.65","ND","623.11","10.93","ND","0","252.8","21.2","87.9","0.4","0"],
    [8580,"2011-04-29T07:00:00","44.1","6.93","ND","735.15","5.56","ND","0.1","271.5","21.2","87","46","0"],
    [8581,"2011-04-29T08:00:00","56","9.03","ND","950.04","3.89","ND","0.5","35.8","22.5","83.7","130.5","0"],
    [8582,"2011-04-29T09:00:00","56.8","13.33","ND","1760.79","3.81","ND","0.6","24","23.1","80.5","221.8","0"],
    [8583,"2011-04-29T10:00:00","77.5","29.24","ND","1468.41","7.57","ND","0.3","85.4","24.8","72.8","338.3","0"],
    [8584,"2011-04-29T11:00:00","42","38.10","ND","847.18","16.83","ND","0.8","78.5","26.7","64.6","683.9","0"],
    [8585,"2011-04-29T12:00:00","56.9","59.98","ND","1025.41","29.05","ND","2","39.3","27.6","60.1","721.2","0"],
    [8586,"2011-04-29T13:00:00","34.6","46.76","ND","970.71","69.32","ND","1.1","25.9","28.2","57","442.2","0"],
    [8587,"2011-04-29T14:00:00","43.2","25.27","ND","694.75","83.34","ND","1.2","300.1","28.6","55.2","481.3","0"],
    [8588,"2011-04-29T15:00:00","38.8","19.92","ND","776.83","95.27","ND","1.7","324.4","29.3","54.2","627.1","0"],
    [8589,"2011-04-29T16:00:00","29.4","32.38","ND","778.63","104.35","ND","0.7","230.4","29.2","54","207.4","0"],
    [8590,"2011-04-29T17:00:00","33.6","37.57","ND","743.52","94.81","ND","1.7","239","28.1","55.6","47.6","0"],
    [8591,"2011-04-29T18:00:00","29.2","17.63","ND","763.97","45.64","ND","0.2","326.7","27.6","58.6","38.8","0"],
    [8592,"2011-04-29T19:00:00","32","7.80","ND","959.15","16.77","ND","0.5","238.5","27.1","58.9","2.1","0"],
    [8593,"2011-04-29T20:00:00","36.4","10.63","ND","957.55","11.05","ND","0.2","307.7","26","63.3","0","0"],
    [8594,"2011-04-29T21:00:00","38.6","12.07","ND","1379.34","7.80","ND","0.3","207.7","25.3","66.6","0","0"],
    [8595,"2011-04-29T22:00:00","71.4","14.82","ND","1605.46","4.14","ND","0","42.1","24.6","71.2","0","0"],
    [8596,"2011-04-29T23:00:00","59.4","15.52","ND","2825.85","4.35","ND","0.2","67.9","24.2","76.2","0","0"],
    [8597,"2011-04-30T00:00:00","52.7","16.31","ND","2593.55","4.93","ND","0.3","246.2","23.9","77.2","0","0"],
    [8598,"2011-04-30T01:00:00","37.6","15.85","ND","1301.17","3.95","ND","0.3","0.2","23.5","80.7","0","0"],
    [8599,"2011-04-30T02:00:00","56.9","16.27","ND","1527.39","4.33","ND","0.5","284.6","22.7","85.4","0","0"],
    [8600,"2011-04-30T03:00:00","39.3","15.05","ND","1648.31","5.39","ND","0.1","259.3","22.6","84.2","0","0"],
    [8601,"2011-04-30T04:00:00","46","15.72","ND","1284.11","4.30","ND","0.3","158.1","22.4","85.2","0","0"],
    [8602,"2011-04-30T05:00:00","34.3","18.00","ND","1249.17","3.64","ND","0.2","270.8","22.3","86.5","0","0"],
    [8603,"2011-04-30T06:00:00","37.9","14.38","ND","874.13","4.10","ND","0.1","273.7","22.2","86.3","0.2","0"],
    [8604,"2011-04-30T07:00:00","38.7","14.15","ND","862.48","3.95","ND","0.1","185.8","22.5","84.9","37.4","0"],
    [8605,"2011-04-30T08:00:00","50","13.48","ND","1272.32","3.83","ND","0.9","145.4","23.3","83.4","107.3","0"],
    [8606,"2011-04-30T09:00:00","59","21.31","ND","1514.97","4.23","ND","0.3","103.6","24.5","76.4","248.4","0"],
    [8607,"2011-04-30T10:00:00","51.8","43.68","ND","1372.42","6.50","ND","1","63.1","26","69","488.7","0"],
    [8608,"2011-04-30T11:00:00","27.6","96.01","ND","1436.81","13.59","ND","0.8","79.3","27.5","61.5","601.1","0"],
    [8609,"2011-04-30T12:00:00","44.8","84.60","ND","947.28","33.24","ND","1.2","51.6","28.9","55.9","776.7","0"],
    [8610,"2011-04-30T13:00:00","51.4","71.99","ND","754.39","58.13","ND","1.2","14.7","29.7","53.3","568.8","0"],
    [8611,"2011-04-30T14:00:00","41.2","58.02","ND","744.75","93.23","ND","1.1","30","29.8","53.8","398.3","0"],
    [8612,"2011-04-30T15:00:00","41.5","63.42","ND","768.28","111.42","ND","1","291.8","30.6","51.1","437.4","0"],
    [8613,"2011-04-30T16:00:00","22.6","52.40","ND","770.31","98.22","ND","4.4","273.5","30.5","48.7","461.3","0"],
    [8614,"2011-04-30T17:00:00","12.6","29.03","ND","618.38","69.73","ND","4.2","284.4","28.9","50.7","74.9","0"],
    [8615,"2011-04-30T18:00:00","7.6","8.34","ND","557.09","29.88","ND","0.4","237.4","29.1","50.9","78.6","0"],
    [8616,"2011-04-30T19:00:00","ND","4.99","ND","511.00","27.81","ND","ND","ND","ND","ND","ND","ND"],
    [8617,"2011-04-30T20:00:00","ND","ND","ND","ND","ND","ND","ND","ND","ND","ND","ND","ND"],
    [8618,"2011-04-30T21:00:00","ND","ND","ND","ND","ND","ND","ND","ND","ND","ND","ND","ND"],
    [8619,"2011-04-30T22:00:00","ND","ND","ND","ND","ND","ND","ND","ND","ND","ND","ND","ND"],
    [8620,"2011-04-30T23:00:00","ND","ND","ND","ND","ND","ND","ND","ND","ND","ND","ND","ND"],
    [8621,"2011-05-01T00:00:00","ND","ND","ND","ND","ND","ND","ND","ND","ND","ND","ND","ND"],
    [8622,"2011-05-01T01:00:00","ND","ND","ND","ND","ND","ND","ND","ND","ND","ND","ND","ND"],
    [8623,"2011-05-01T02:00:00","ND","ND","ND","ND","ND","ND","ND","ND","ND","ND","ND","ND"],
    [8624,"2011-05-01T03:00:00","ND","ND","ND","ND","ND","ND","ND","ND","ND","ND","ND","ND"],
    [8625,"2011-05-01T04:00:00","ND","ND","ND","ND","ND","ND","ND","ND","ND","ND","ND","ND"],
    [8626,"2011-05-01T05:00:00","ND","ND","ND","ND","ND","ND","ND","ND","ND","ND","ND","ND"],
    [8627,"2011-05-01T06:00:00","ND","ND","ND","ND","ND","ND","ND","ND","ND","ND","ND","ND"],
    [8628,"2011-05-01T07:00:00","ND","ND","ND","ND","ND","ND","ND","ND","ND","ND","ND","ND"],
    [8629,"2011-05-01T08:00:00","ND","ND","ND","ND","ND","ND","ND","ND","ND","ND","ND","ND"],
    [8630,"2011-05-01T09:00:00","ND","ND","ND","ND","ND","ND","ND","ND","ND","ND","ND","ND"],
    [8631,"2011-05-01T10:00:00","ND","ND","ND","ND","ND","ND","ND","ND","ND","ND","ND","ND"],
    [8632,"2011-05-01T11:00:00","ND","ND","ND","ND","ND","ND","ND","ND","ND","ND","ND","ND"],
    [8633,"2011-05-01T12:00:00","ND","ND","ND","ND","ND","ND","ND","ND","ND","ND","ND","ND"],
    [8634,"2011-05-01T13:00:00","ND","ND","ND","ND","ND","ND","ND","ND","ND","ND","ND","ND"],
    [8635,"2011-05-01T14:00:00","ND","ND","ND","ND","ND","ND","ND","ND","ND","ND","ND","ND"],
    [8636,"2011-05-01T15:00:00","ND","ND","ND","ND","ND","ND","ND","ND","ND","ND","ND","ND"],
    [8637,"2011-05-01T16:00:00","ND","ND","ND","ND","ND","ND","ND","ND","ND","ND","ND","ND"],
    [8638,"2011-05-01T17:00:00","ND","ND","ND","ND","ND","ND","ND","ND","ND","ND","ND","ND"],
    [8639,"2011-05-01T18:00:00","ND","ND","ND","ND","ND","ND","ND","ND","ND","ND","ND","ND"],
    [8640,"2011-05-01T19:00:00","ND","ND","ND","ND","ND","ND","ND","ND","ND","ND","ND","ND"],
    [8641,"2011-05-01T20:00:00","ND","ND","ND","ND","ND","ND","ND","ND","ND","ND","ND","ND"],
    [8642,"2011-05-01T21:00:00","ND","ND","ND","ND","ND","ND","ND","ND","ND","ND","ND","ND"],
    [8643,"2011-05-01T22:00:00","ND","ND","ND","ND","ND","ND","ND","ND","ND","ND","ND","ND"],
    [8644,"2011-05-01T23:00:00","ND","ND","ND","ND","ND","ND","ND","ND","ND","ND","ND","ND"],
    [8645,"2011-05-02T00:00:00","ND","ND","ND","ND","ND","ND","ND","ND","ND","ND","ND","ND"],
    [8646,"2011-05-02T01:00:00","ND","ND","ND","ND","ND","ND","ND","ND","ND","ND","ND","ND"],
    [8647,"2011-05-02T02:00:00","ND","ND","ND","ND","ND","ND","ND","ND","ND","ND","ND","ND"],
    [8648,"2011-05-02T03:00:00","ND","ND","ND","ND","ND","ND","ND","ND","ND","ND","ND","ND"],
    [8649,"2011-05-02T04:00:00","ND","ND","ND","ND","ND","ND","ND","ND","ND","ND","ND","ND"],
    [8650,"2011-05-02T05:00:00","ND","ND","ND","ND","ND","ND","ND","ND","ND","ND","ND","ND"],
    [8651,"2011-05-02T06:00:00","ND","ND","ND","ND","ND","ND","ND","ND","ND","ND","ND","ND"],
    [8652,"2011-05-02T07:00:00","ND","ND","ND","ND","ND","ND","ND","ND","ND","ND","ND","ND"],
    [8653,"2011-05-02T08:00:00","ND","ND","ND","ND","ND","ND","ND","ND","ND","ND","ND","ND"],
    [8654,"2011-05-02T09:00:00","ND","ND","ND","ND","ND","ND","ND","ND","ND","ND","ND","ND"],
    [8655,"2011-05-02T10:00:00","ND","ND","ND","ND","ND","ND","ND","ND","ND","ND","ND","ND"],
    [8656,"2011-05-02T11:00:00","ND","ND","ND","ND","ND","ND","1.7","128.6","27.9","60.5","686.7","0"],
    [8657,"2011-05-02T12:00:00","ND","ND","ND","ND","ND","ND","1","108","28.5","57.6","524.6","0"],
    [8658,"2011-05-02T13:00:00","0.8","29.03","ND","440.44","61.63","ND","0.8","170.6","30","52.5","689.7","0"],
    [8659,"2011-05-02T14:00:00","5.8","11.35","ND","396.04","95.49","ND","1.1","37.6","30.7","51.6","697.5","0"],
    [8660,"2011-05-02T15:00:00","4","11.24","ND","548.73","118.25","ND","0.7","44.3","31.5","49.2","634.3","0"],
    [8661,"2011-05-02T16:00:00","12.4","12.42","ND","398.00","135.39","ND","1.6","337.8","31","51.3","312.4","0"],
    [8662,"2011-05-02T17:00:00","7.3","11.87","ND","502.53","145.44","ND","0.8","314.2","30.8","51.7","171","0"],
    [8663,"2011-05-02T18:00:00","19","12.96","ND","875.93","110.41","ND","0.8","263.3","30.1","53.7","69.4","0"],
    [8664,"2011-05-02T19:00:00","48.5","35.93","ND","978.78","87.24","ND","1.3","260.5","28.3","58.1","1.1","0"],
    [8665,"2011-05-02T20:00:00","32.8","14.07","ND","1065.63","63.19","ND","0.5","256.2","27.7","60.7","0","0"],
    [8666,"2011-05-02T21:00:00","55.6","11.08","ND","1236.91","41.48","ND","0.3","110.5","27.1","63.7","0","0"],
    [8667,"2011-05-02T22:00:00","51.9","14.14","ND","1868.96","24.86","ND","0","143.3","26.5","67.3","0","0"],
    [8668,"2011-05-02T23:00:00","53.4","16.75","ND","1980.36","20.89","ND","0","265","26.1","70.6","0","0"],
    [8669,"2011-05-03T00:00:00","56.2","26.04","ND","1920.23","19.99","ND","0.2","147.3","25.9","71","0","0"],
    [8670,"2011-05-03T01:00:00","39.7","18.77","ND","2298.13","17.16","ND","0.4","141.3","25.6","72.6","0","0"],
    [8671,"2011-05-03T02:00:00","31.4","23.45","ND","1882.58","14.85","ND","1.3","160.6","25.1","75.4","0","0"],
    [8672,"2011-05-03T03:00:00","31.5","24.40","ND","1776.29","16.08","ND","0.7","135","24.7","79.2","0","0"],
    [8673,"2011-05-03T04:00:00","26.4","18.35","ND","1579.35","21.76","ND","0.4","197.4","24.1","81.7","0","0"],
    [8674,"2011-05-03T05:00:00","14.8","11.62","ND","1644.69","25.30","ND","0.2","258.4","23.9","82.3","0","0"],
    [8675,"2011-05-03T06:00:00","46.3","10.73","ND","1518.03","21.76","ND","0.2","252.3","23.8","82.6","0.2","0"],
    [8676,"2011-05-03T07:00:00","51.7","11.74","ND","1654.44","19.47","ND","0.2","226","23.9","81.3","29.3","0"],
    [8677,"2011-05-03T08:00:00","71.5","12.17","ND","2077.31","16.44","ND","0.3","4.7","24.8","78.3","134.7","0"],
    [8678,"2011-05-03T09:00:00","72.8","11.36","ND","2358.37","15.49","ND","1.1","77.1","25.3","77.4","130.7","0"],
    [8679,"2011-05-03T10:00:00","66.1","18.15","ND","2511.41","18.33","ND","1.2","28.5","25","78.8","230.1","0"],
    [8680,"2011-05-03T11:00:00","80.4","36.24","ND","2531.79","23.96","ND","1.6","43.3","25.6","77.1","298.5","0"],
    [8681,"2011-05-03T12:00:00","59.1","28.70","ND","2123.64","30.87","ND","2.3","36.3","25.4","80.6","210.6","0"],
    [8682,"2011-05-03T13:00:00","31.8","194.18","ND","2030.45","31.07","ND","3.3","15","24.5","82.9","276.8","0"],
    [8683,"2011-05-03T14:00:00","37.2","39.08","ND","1864.21","40.87","ND","2.9","40","24.3","83.1","121.3","0"],
    [8684,"2011-05-03T15:00:00","20.4","36.62","ND","1942.96","31.64","ND","1.7","41.3","23.3","89.5","83.6","2.29"],
    [8685,"2011-05-03T16:00:00","25","22.61","ND","1776.95","31.96","ND","1","40.5","23.1","91.7","102.3","0.25"],
    [8686,"2011-05-03T17:00:00","14.6","10.73","ND","1912.35","28.14","ND","0.7","50.6","23.5","90.6","61.2","0"],
    [8687,"2011-05-03T18:00:00","13.5","58.40","ND","2085.91","21.58","ND","0.3","27.1","23.2","92.3","10.5","0"],
    [8688,"2011-05-03T19:00:00","10.9","78.13","ND","2174.89","11.68","ND","0.9","48.5","23","92.5","0","0"],
    [8689,"2011-05-03T20:00:00","11.3","26.81","ND","2139.29","12.28","ND","0.7","254.9","23.1","91","0","0"],
    [8690,"2011-05-03T21:00:00","25.5","19.55","ND","2128.63","18.97","ND","1.1","161.6","23.5","89","0","0"],
    [8691,"2011-05-03T22:00:00","29.3","18.74","ND","2199.89","18.49","ND","0.2","61.1","23.1","89.9","0","0"],
    [8692,"2011-05-03T23:00:00","30","23.85","ND","2970.97","18.17","ND","0.2","345.3","22.6","92.8","0","0"],
    [8693,"2011-05-04T00:00:00","41.6","14.45","ND","2602.31","18.75","ND","0.1","266.6","22.6","92.3","0","0"],
    [8694,"2011-05-04T01:00:00","35.8","10.99","ND","2284.13","18.26","ND","0.4","35.6","22.5","92.2","0","0"],
    [8695,"2011-05-04T02:00:00","52.2","12.58","ND","2306.07","18.45","ND","0.3","328.5","22.3","91.1","0","0"],
    [8696,"2011-05-04T03:00:00","29.3","11.92","ND","2156.93","17.37","ND","0","183.8","22.3","92.7","0","0"],
    [8697,"2011-05-04T04:00:00","32.2","10.83","ND","2054.76","18.32","ND","0.2","272.7","22","94.2","0","0.25"],
    [8698,"2011-05-04T05:00:00","20.5","13.72","ND","1803.18","17.43","ND","0.2","53.7","21.9","92.8","0","0"],
    [8699,"2011-05-04T06:00:00","42.7","12.81","ND","1927.27","11.69","ND","0","64.5","21.9","92.1","0.4","0"],
    [8700,"2011-05-04T07:00:00","36.5","12.08","ND","1757.22","5.34","ND","0.1","355.6","22.1","92.8","23.5","0"],
    [8701,"2011-05-04T08:00:00","67.4","14.06","ND","2053.37","14.40","ND","0.3","1.2","22.8","88.6","144.3","0"],
    [8702,"2011-05-04T09:00:00","78.8","21.41","ND","2513.10","16.89","ND","0.5","89.4","25.2","76","428.6","0"],
    [8703,"2011-05-04T10:00:00","57.9","37.23","ND","2728.38","17.65","ND","1.4","43.8","25.8","71.8","456","0"],
    [8704,"2011-05-04T11:00:00","43.5","50.29","ND","2320.34","25.26","ND","1.7","44","27","68.3","692.4","0"],
    [8705,"2011-05-04T12:00:00","46.1","95.67","ND","1776.08","36.03","ND","2.6","42.2","28","62.6","769.7","0"],
    [8706,"2011-05-04T13:00:00","23.6","159.38","ND","1712.57","47.93","ND","2.4","57.2","29","59.6","782.3","0"],
    [8707,"2011-05-04T14:00:00","28.5","93.71","ND","1590.55","66.68","ND","2.1","59.3","29.1","59.1","504.9","0"],
    [8708,"2011-05-04T15:00:00","16","38.57","ND","1742.05","85.92","ND","2","26.5","29.4","56.6","550.5","0"],
    [8709,"2011-05-04T16:00:00","19.8","26.96","ND","1639.16","94.61","ND","1.8","32.5","30.6","46.9","497.2","0"],
    [8710,"2011-05-04T17:00:00","16.8","37.32","ND","1680.68","79.29","ND","0.7","354.7","30.3","48.2","191.7","0"],
    [8711,"2011-05-04T18:00:00","21","26.08","ND","1702.33","32.68","ND","0.6","276.2","28.9","51.8","25.9","0"],
    [8712,"2011-05-04T19:00:00","12.5","26.01","ND","1566.81","34.15","ND","0.3","274.6","28.2","53.6","0.4","0"],
    [8713,"2011-05-04T20:00:00","26.5","9.88","ND","1887.39","18.17","ND","0.3","206.4","28","54.7","0","0"],
    [8714,"2011-05-04T21:00:00","22.7","10.80","ND","2233.28","12.25","ND","0.2","217.7","27.2","59.1","0","0"],
    [8715,"2011-05-04T22:00:00","45.3","11.83","ND","2458.16","12.28","ND","1","134.5","26.3","67.3","0","0"],
    [8716,"2011-05-04T23:00:00","58.7","14.37","ND","2565.85","10.98","ND","0.5","109","25.5","71.7","0","0"],
    [8717,"2011-05-05T00:00:00","50.5","30.10","ND","2490.14","15.00","ND","0.2","170.2","25","72.7","0","0"],
    [8718,"2011-05-05T01:00:00","27.4","30.63","ND","2245.39","11.73","ND","0.1","248.4","24.1","76.8","0","0"],
    [8719,"2011-05-05T02:00:00","24","18.44","ND","1884.54","10.60","ND","0.3","51.7","23.3","80.4","0","0"],
    [8720,"2011-05-05T03:00:00","12.7","15.58","ND","1981.99","10.95","ND","0.5","267","22.9","82.1","0","0"],
    [8721,"2011-05-05T04:00:00","17.6","15.12","ND","1729.05","12.41","ND","0.2","217.3","22.8","82.8","0","0"],
    [8722,"2011-05-05T05:00:00","11.1","10.74","ND","1523.78","10.07","ND","0.3","265.8","22.5","82.8","0","0"],
    [8723,"2011-05-05T06:00:00","6.1","12.00","ND","1601.76","10.53","ND","0.4","352.7","22","84.9","0.4","0"],
    [8724,"2011-05-05T07:00:00","5","12.35","ND","1474.30","9.46","ND","0.2","327.8","21.8","86.3","45.8","0"],
    [8725,"2011-05-05T08:00:00","50.9","11.82","ND","1745.29","9.16","ND","0.2","231.9","23.5","79.6","183.8","0"],
    [8726,"2011-05-05T09:00:00","31.7","25.11","ND","2439.26","11.48","ND","0.3","116.1","25.8","68","364.3","0"],
    [8727,"2011-05-05T10:00:00","46.8","39.30","ND","2745.35","12.65","ND","1.7","56.3","26.5","69.9","521.5","0"],
    [8728,"2011-05-05T11:00:00","34.9","36.79","ND","2130.04","23.41","ND","1.3","29.7","27.6","64.9","623.7","0"],
    [8729,"2011-05-05T12:00:00","46","36.26","ND","2380.54","64.73","ND","1.9","46.1","28.8","60.3","702.3","0"],
    [8730,"2011-05-05T13:00:00","25.2","30.73","ND","2134.80","113.44","ND","2","40.2","29.5","56.9","723.5","0"],
    [8731,"2011-05-05T14:00:00","37.4","80.33","ND","1697.84","101.07","ND","1.3","36.3","30","54.9","376.7","0"],
    [8732,"2011-05-05T15:00:00","32.2","64.37","ND","1607.46","104.73","ND","0.4","5.9","30.2","53.7","244.1","0"],
    [8733,"2011-05-05T16:00:00","28.4","57.37","ND","1387.06","96.44","ND","1.4","340.6","30.2","51.6","281.2","0"],
    [8734,"2011-05-05T17:00:00","17.3","31.49","ND","1526.93","58.74","ND","2.4","264.6","30","51.3","248.1","0"],
    [8735,"2011-05-05T18:00:00","27.6","15.37","ND","1525.93","39.15","ND","0.7","243.2","29","53.8","33.7","0"],
    [8736,"2011-05-05T19:00:00","14.8","18.27","ND","1602.16","36.29","ND","1.4","245.2","27.8","57.6","0.5","0"],
    [8737,"2011-05-05T20:00:00","19.2","16.21","ND","1861.76","24.28","ND","0.1","37.1","27.3","60","0","0"],
    [8738,"2011-05-05T21:00:00","52.9","11.09","ND","1881.75","17.05","ND","0.5","111.4","27.3","61.1","0","0"],
    [8739,"2011-05-05T22:00:00","35.7","14.84","ND","2089.55","13.29","ND","0.8","106","25.9","68.9","0","0"],
    [8740,"2011-05-05T23:00:00","25","21.71","ND","3022.05","10.06","ND","0.3","209","25.4","70.9","0","0"],
    [8741,"2011-05-06T00:00:00","52.5","27.29","ND","1984.56","12.07","ND","0.2","346.1","25.3","72.6","0","0"],
    [8742,"2011-05-06T01:00:00","39.7","22.74","ND","2064.17","10.73","ND","0.3","122.4","24.6","75.6","0","0"],
    [8743,"2011-05-06T02:00:00","37.8","20.86","ND","2265.26","11.86","ND","0.3","32.6","24.1","78.5","0","0"],
    [8744,"2011-05-06T03:00:00","36.7","51.78","ND","1667.54","11.05","ND","0.1","221.7","24","79.2","0","0"],
    [8745,"2011-05-06T04:00:00","22.3","30.32","ND","1461.46","11.34","ND","0.8","131.2","24.1","78.1","0","0"],
    [8746,"2011-05-06T05:00:00","12.4","40.49","ND","1244.94","11.39","ND","0","253.7","23.5","81","0","0"],
    [8747,"2011-05-06T06:00:00","24.9","23.31","ND","1253.82","10.60","ND","0.2","285.5","22.8","84.9","0.8","0"],
    [8748,"2011-05-06T07:00:00","24.1","17.56","ND","1353.21","11.41","ND","0.1","117","23","83.7","49.2","0"],
    [8749,"2011-05-06T08:00:00","54.3","12.54","ND","1399.64","10.14","ND","0.5","49.9","24","79.9","89","0"],
    [8750,"2011-05-06T09:00:00","46","14.39","ND","2112.26","10.64","ND","0.6","44.8","24.4","81.2","205.9","0"],
    [8751,"2011-05-06T10:00:00","53.1","28.87","ND","2023.64","13.53","ND","1","160.4","27.2","66","580.5","0"],
    [8752,"2011-05-06T11:00:00","66.1","41.31","ND","1754.18","16.57","ND","1.7","126.6","28.5","59.9","534.7","0"],
    [8753,"2011-05-06T12:00:00","46.1","46.63","ND","1993.59","43.56","ND","0.3","51.7","29.3","56.2","488.5","0"],
    [8754,"2011-05-06T13:00:00","38.2","33.04","ND","1371.32","81.46","ND","0.3","90.1","30.5","53.8","590.5","0"],
    [8755,"2011-05-06T14:00:00","54","22.71","ND","1295.09","111.12","ND","1.4","326.5","30.9","52.2","375.3","0"],
    [8756,"2011-05-06T15:00:00","27.6","26.21","ND","1448.68","166.86","ND","2.4","272.7","31.2","49.9","614.4","0"],
    [8757,"2011-05-06T16:00:00","14.8","65.85","ND","1263.00","131.33","ND","1.6","272.7","31.6","48.2","461.8","0"],
    [8758,"2011-05-06T17:00:00","8.8","15.37","ND","1018.75","44.89","ND","0.7","312.5","30.6","51.1","82.3","0"],
    [8759,"2011-05-06T18:00:00","35","14.15","ND","887.02","56.08","ND","0.4","315.3","29","55.5","26.4","0"],
    [8760,"2011-05-06T19:00:00","19.4","14.53","ND","940.40","48.52","ND","0.6","243.1","28.5","55.9","1.5","0"],
    [8761,"2011-05-06T20:00:00","32.5","13.31","ND","1437.24","30.93","ND","0.3","53.3","27.8","58.5","0","0"],
    [8762,"2011-05-06T21:00:00","35.3","13.17","ND","1792.38","14.86","ND","0.3","283.6","27.3","60.7","0","0"],
    [8763,"2011-05-06T22:00:00","47.8","16.40","ND","1708.58","10.60","ND","0.5","101.9","26.8","64.5","0","0"],
    [8764,"2011-05-06T23:00:00","30.2","18.08","ND","2051.50","10.38","ND","0.6","143.7","25.2","73.9","0","0"],
    [8765,"2011-05-07T00:00:00","40.6","26.61","ND","2201.04","12.96","ND","0.5","171.9","25.3","73","0","0"],
    [8766,"2011-05-07T01:00:00","33.3","21.61","ND","1708.67","11.73","ND","0.3","132.8","24.7","75.7","0","0"],
    [8767,"2011-05-07T02:00:00","25.8","24.37","ND","1762.46","9.72","ND","0.3","131.6","24.4","78.4","0","0"],
    [8768,"2011-05-07T03:00:00","17.1","25.21","ND","1211.90","10.20","ND","0.3","131.4","24.2","80.3","0","0"],
    [8769,"2011-05-07T04:00:00","22.9","19.13","ND","1142.53","11.78","ND","0.2","283.9","23.9","82","0","0"],
    [8770,"2011-05-07T05:00:00","30.2","17.18","ND","935.93","11.50","ND","0.2","340.8","23.7","82.5","0","0"],
    [8771,"2011-05-07T06:00:00","43.1","15.31","ND","1106.39","11.06","ND","0.4","19.1","23.2","85.6","0.3","0"],
    [8772,"2011-05-07T07:00:00","42.7","19.90","ND","1093.14","11.55","ND","0.4","37.7","23.3","85.9","18.4","0"],
    [8773,"2011-05-07T08:00:00","61.8","30.90","ND","1082.12","11.45","ND","0.1","233.7","24","83","95.1","0"],
    [8774,"2011-05-07T09:00:00","54.6","38.21","ND","1438.62","12.16","ND","0.6","42.1","25.1","77.2","221.1","0"],
    [8775,"2011-05-07T10:00:00","51.6","75.44","ND","1604.39","12.90","ND","0.5","84.1","26.7","69.8","509.4","0"],
    [8776,"2011-05-07T11:00:00","46.9","62.98","ND","ND","16.22","ND","0.5","112.3","27.8","64.1","299","0"],
    [8777,"2011-05-07T12:00:00","53.2","56.44","ND","1537.97","37.75","ND","1.2","110.1","28.6","60.6","429.2","0"],
    [8778,"2011-05-07T13:00:00","28.9","39.62","ND","1391.34","74.40","ND","1.1","104.3","29.1","59.6","357.1","0"],
    [8779,"2011-05-07T14:00:00","35.3","24.84","ND","1254.28","77.96","ND","0.9","54.3","29.5","59","562.4","0"],
    [8780,"2011-05-07T15:00:00","41.8","20.13","ND","1395.49","117.23","ND","1.3","22.5","29.2","59.9","147.9","0"],
    [8781,"2011-05-07T16:00:00","42.1","21.63","ND","1254.69","135.44","ND","2.7","274.6","23.7","77.5","15","3.3"],
    [8782,"2011-05-07T17:00:00","23.6","44.66","ND","1060.77","113.89","ND","0.1","250","24.9","73.8","82.6","0"],
    [8783,"2011-05-07T18:00:00","14.3","17.39","ND","1019.25","31.00","ND","0.5","287.9","25.3","76.3","55.9","0"],
    [8784,"2011-05-07T19:00:00","26.8","13.17","ND","1754.54","16.13","ND","0.4","249.8","24.4","80.6","1","0"],
    [8785,"2011-05-07T20:00:00","37.6","14.88","ND","2069.37","14.28","ND","0.5","271.4","23.9","80.2","0","0"],
    [8786,"2011-05-07T21:00:00","40.4","15.87","ND","3561.10","13.10","ND","0.2","243.9","24.1","80","0","0"],
    [8787,"2011-05-07T22:00:00","50.8","14.94","ND","2615.52","10.37","ND","0.5","313.5","23.8","81.3","0","0"],
    [8788,"2011-05-07T23:00:00","34","14.48","ND","2795.44","11.02","ND","0.2","293.2","23.3","83.9","0","0"],
    [8789,"2011-05-08T00:00:00","27.4","13.86","ND","2426.22","10.48","ND","0.2","309.1","23.2","83.4","0","0"],
    [8790,"2011-05-08T01:00:00","30.5","12.03","ND","2425.40","10.10","ND","0","320","22.9","86","0","0"],
    [8791,"2011-05-08T02:00:00","55.1","11.01","ND","2013.44","9.47","ND","0.3","326.1","22.5","87.7","0","0"],
    [8792,"2011-05-08T03:00:00","28.4","9.35","ND","1817.59","9.71","ND","0.1","263.5","22.1","89.6","0","0"],
    [8793,"2011-05-08T04:00:00","30","9.32","ND","1588.24","9.29","ND","0.1","220.4","22","90.1","0","0"],
    [8794,"2011-05-08T05:00:00","22.2","8.07","ND","1599.04","9.31","ND","0.1","310.5","22","88.5","0","0"],
    [8795,"2011-05-08T06:00:00","34.9","8.38","ND","1633.07","9.36","ND","0.4","223.9","21.6","90.5","0.3","0"],
    [8796,"2011-05-08T07:00:00","18.8","7.75","ND","1359.04","8.01","ND","1","157.3","22.2","88.6","28.8","0"],
    [8797,"2011-05-08T08:00:00","44","7.79","ND","1384.51","8.63","ND","2","182.8","23.2","83.2","184.8","0"],
    [8798,"2011-05-08T09:00:00","24.3","10.73","ND","1457.52","10.26","ND","2.2","161.3","24.9","75.6","346.7","0"],
    [8799,"2011-05-08T10:00:00","20.2","18.10","ND","1145.22","13.58","ND","1","140.3","26.4","68.1","444.4","0"],
    [8800,"2011-05-08T11:00:00","26.6","24.14","ND","1277.60","36.18","ND","0.6","63.7","27.7","64.3","397.1","0"],
    [8801,"2011-05-08T12:00:00","49.8","29.56","ND","1283.15","71.17","ND","1.3","22","27.7","65.8","389.2","0"],
    [8802,"2011-05-08T13:00:00","49.3","32.02","ND","1190.67","105.07","ND","0.9","37.5","28.3","63.5","440.5","0"],
    [8803,"2011-05-08T14:00:00","53.6","42.73","ND","1100.38","99.88","ND","0.9","58.3","29.4","60.3","485.6","0"],
    [8804,"2011-05-08T15:00:00","44.5","68.41","ND","1116.02","112.03","ND","1.2","62.8","29.9","59","365.9","0"],
    [8805,"2011-05-08T16:00:00","46","89.78","ND","989.78","116.39","ND","1.1","97.7","29.7","59.5","95.6","0"],
    [8806,"2011-05-08T17:00:00","41.8","63.58","ND","930.94","106.80","ND","2","232.2","28.7","57.7","16","0"],
    [8807,"2011-05-08T18:00:00","51.8","27.46","ND","927.87","98.22","ND","3.1","260","21.3","94.1","0.5","27.18"],
    [8808,"2011-05-08T19:00:00","27.4","15.11","ND","916.42","44.34","ND","0.6","247.3","21","100","0","9.65"],
    [8809,"2011-05-08T20:00:00","28.4","9.56","ND","712.04","40.17","ND","0.6","0.6","22","100","0","0.25"],
    [8810,"2011-05-08T21:00:00","16.2","8.22","ND","793.85","16.28","ND","0.1","8.4","22.4","91.7","0","0"],
    [8811,"2011-05-08T22:00:00","27.8","11.04","ND","1237.82","12.66","ND","0.2","267.3","22.3","93.8","0","0"],
    [8812,"2011-05-08T23:00:00","15.8","16.75","ND","1123.88","13.94","ND","0.1","274.6","22.1","94.3","0","0.25"],
    [8813,"2011-05-09T00:00:00","19.2","16.94","ND","1769.76","13.16","ND","0.4","215.3","22.3","94.5","0","0"],
    [8814,"2011-05-09T01:00:00","10.4","15.84","ND","1078.47","12.54","ND","0.3","119.7","22.4","91","0","0"],
    [8815,"2011-05-09T02:00:00","23.3","14.49","ND","1464.94","13.58","ND","0.4","295.5","22.1","92.9","0","0"],
    [8816,"2011-05-09T03:00:00","13.2","12.22","ND","794.12","12.40","ND","0.1","1.5","22.1","93.6","0","0"],
    [8817,"2011-05-09T04:00:00","16.2","11.16","ND","771.43","12.34","ND","0.2","336","22.1","92.9","0","0"],
    [8818,"2011-05-09T05:00:00","10.1","10.02","ND","907.57","12.03","ND","0.3","0.3","22","92.4","0","0"],
    [8819,"2011-05-09T06:00:00","35.1","10.04","ND","1043.35","11.54","ND","0.1","288.8","21.8","94.4","0.2","0"],
    [8820,"2011-05-09T07:00:00","24","10.52","ND","725.32","11.20","ND","0.1","87.4","21.9","94.6","23.3","0"],
    [8821,"2011-05-09T08:00:00","58.8","20.80","ND","1235.72","11.94","ND","0.4","136","22.7","91.8","85.8","0"],
    [8822,"2011-05-09T09:00:00","50.6","33.38","ND","1455.06","11.99","ND","0.6","91.3","23.2","88.8","166.5","0"],
    [8823,"2011-05-09T10:00:00","72.6","71.62","ND","2209.05","13.28","ND","0.7","163.3","24.6","81.5","374.3","0"],
    [8824,"2011-05-09T11:00:00","60.8","54.38","ND","1590.26","14.46","ND","1.4","135.4","26.2","72","503.4","0"],
    [8825,"2011-05-09T12:00:00","36.3","35.07","ND","1564.30","29.87","ND","1","101.7","27.6","66.1","669.3","0"],
    [8826,"2011-05-09T13:00:00","19.8","26.77","ND","901.37","47.19","ND","1.3","59","28.4","63.6","679.2","0"],
    [8827,"2011-05-09T14:00:00","45.9","19.40","ND","799.49","68.41","ND","1.4","56.6","29.3","59.5","655.6","0"],
    [8828,"2011-05-09T15:00:00","35.4","16.24","ND","499.72","83.45","ND","1.4","44.3","29.8","59.4","530.5","0"],
    [8829,"2011-05-09T16:00:00","36.9","25.24","ND","675.15","116.15","ND","1.1","356.8","29.7","56.1","298.9","0"],
    [8830,"2011-05-09T17:00:00","20","42.48","ND","768.03","90.92","ND","1","293","30.7","51.2","305","0"],
    [8831,"2011-05-09T18:00:00","11.5","37.12","ND","537.06","50.60","ND","0.7","295.7","29.3","55.4","93.2","0"],
    [8832,"2011-05-09T19:00:00","11.5","14.91","ND","918.09","35.27","ND","0.6","249.2","27.3","63","0.6","0"],
    [8833,"2011-05-09T20:00:00","39.4","12.09","ND","1177.54","23.95","ND","0.7","259.7","26.1","66.6","0","0"],
    [8834,"2011-05-09T21:00:00","21.3","12.78","ND","1517.78","12.27","ND","0.2","263.6","25.1","73","0","0"],
    [8835,"2011-05-09T22:00:00","76.6","12.61","ND","1570.01","11.33","ND","0","99.9","24.6","76.6","0","0"],
    [8836,"2011-05-09T23:00:00","64.3","14.65","ND","1967.80","11.39","ND","0.1","259.9","23.8","80.5","0","0"],
    [8837,"2011-05-10T00:00:00","56.8","17.72","ND","2179.30","11.00","ND","0.2","254.8","23.3","83.3","0","0"],
    [8838,"2011-05-10T01:00:00","30.2","16.80","ND","1765.56","10.58","ND","0","263.9","23.2","84.1","0","0"],
    [8839,"2011-05-10T02:00:00","20.4","14.69","ND","1252.56","10.30","ND","0","210","23.1","83.7","0","0"],
    [8840,"2011-05-10T03:00:00","12.7","12.73","ND","865.11","9.38","ND","0","49.6","22.9","84","0","0"],
    [8841,"2011-05-10T04:00:00","10","10.51","ND","796.27","9.33","ND","0.1","354.9","22.3","88.1","0","0"],
    [8842,"2011-05-10T05:00:00","12.5","11.22","ND","828.72","9.45","ND","0.1","288","22.1","88.8","0","0"],
    [8843,"2011-05-10T06:00:00","30.9","10.90","ND","805.47","10.51","ND","0.5","329","22.1","89","0.9","0"],
    [8844,"2011-05-10T07:00:00","36.4","11.21","ND","816.81","9.79","ND","0.8","357","22.7","85.8","48","0"],
    [8845,"2011-05-10T08:00:00","67.7","11.93","ND","1125.40","10.38","ND","0.3","71.6","23.5","82.9","99.6","0"],
    [8846,"2011-05-10T09:00:00","57","21.01","ND","1231.03","10.78","ND","0.5","45.8","24.5","79.4","174.2","0"],
    [8847,"2011-05-10T10:00:00","90.3","62.28","ND","1326.67","11.42","ND","0.7","50.2","25.2","77.1","305.3","0"],
    [8848,"2011-05-10T11:00:00","100.6","69.75","ND","1753.96","14.49","ND","0.6","106.5","27.3","68.4","505.4","0"],
    [8849,"2011-05-10T12:00:00","85.5","44.04","ND","1362.25","21.38","ND","0.5","106.8","29.1","58.9","699.6","0"],
    [8850,"2011-05-10T13:00:00","67.8","37.64","ND","1637.53","61.59","ND","1.7","29.3","29.8","57.1","666.8","0"],
    [8851,"2011-05-10T14:00:00","70.7","28.86","ND","1513.28","157.19","ND","1","359.3","30.4","54.8","621.2","0"],
    [8852,"2011-05-10T15:00:00","47.4","23.74","ND","1049.73","169.66","ND","0.7","357.5","31.2","53.2","587.5","0"],
    [8853,"2011-05-10T16:00:00","39.6","25.62","ND","1064.19","181.17","ND","0.9","24.5","31.3","53.9","398.2","0"],
    [8854,"2011-05-10T17:00:00","55.6","52.50","ND","807.18","135.90","ND","1.3","338.2","31.2","53.3","239.5","0"],
    [8855,"2011-05-10T18:00:00","41.5","41.97","ND","760.14","122.52","ND","1.7","260.2","30.1","54.9","50.8","0"],
    [8856,"2011-05-10T19:00:00","24","24.36","ND","815.65","60.94","ND","1.3","255","28.8","58.1","1.1","0"],
    [8857,"2011-05-10T20:00:00","48.8","9.29","ND","1067.40","37.94","ND","0.3","226.8","28.2","61.5","0","0"],
    [8858,"2011-05-10T21:00:00","57.1","8.05","ND","1111.59","32.95","ND","0.8","153.6","27.3","67.2","0","0"],
    [8859,"2011-05-10T22:00:00","71.2","8.03","ND","1754.76","18.33","ND","0.2","99.9","26.6","71.7","0","0"],
    [8860,"2011-05-10T23:00:00","66.6","10.72","ND","1934.95","9.92","ND","0.1","182.6","26.1","74.6","0","0"],
    [8861,"2011-05-11T00:00:00","65.7","16.46","ND","1598.27","10.38","ND","0.3","177.1","25.6","77.4","0","0"],
    [8862,"2011-05-11T01:00:00","45.5","17.43","ND","2100.68","10.22","ND","0.7","145.6","25","77.1","0","0"],
    [8863,"2011-05-11T02:00:00","37.9","14.83","ND","1810.06","10.07","ND","0.6","156.1","24.9","78.8","0","0"],
    [8864,"2011-05-11T03:00:00","21.4","12.89","ND","721.49","9.26","ND","0.5","151","24.7","79.6","0","0"],
    [8865,"2011-05-11T04:00:00","40.7","10.37","ND","629.45","9.92","ND","0.3","155.4","24.3","81.5","0","3.05"],
    [8866,"2011-05-11T05:00:00","26.8","8.68","ND","651.46","14.33","ND","0.4","240.8","23.1","92.1","0","2.54"],
    [8867,"2011-05-11T06:00:00","45.8","7.34","ND","523.62","14.88","ND","0.2","308.1","23.3","92.9","0.2","0.25"],
    [8868,"2011-05-11T07:00:00","40.5","6.51","ND","603.71","13.17","ND","1","2.2","23","93.2","18.5","0"],
    [8869,"2011-05-11T08:00:00","81.8","7.31","ND","796.54","10.72","ND","0.8","17.2","23.2","91.5","72","0"],
    [8870,"2011-05-11T09:00:00","42.6","8.18","ND","1104.53","10.73","ND","0.8","23.8","23.6","88.6","170.5","0"],
    [8871,"2011-05-11T10:00:00","57.1","11.94","ND","1527.90","10.94","ND","0.3","69.9","25.1","81.9","349.6","0"],
    [8872,"2011-05-11T11:00:00","37.7","20.65","ND","1123.07","14.13","ND","0.6","54.1","26.7","74.1","533.3","0"],
    [8873,"2011-05-11T12:00:00","34.4","21.56","ND","1094.54","19.72","ND","0.4","34","28.1","64.1","584.6","0"],
    [8874,"2011-05-11T13:00:00","26.3","16.81","ND","937.60","31.86","ND","1.9","253.9","29.3","55.7","493.3","0"],
    [8875,"2011-05-11T14:00:00","14.8","15.84","ND","708.90","37.90","ND","3.1","283.8","29.6","53.5","622.9","0"],
    [8876,"2011-05-11T15:00:00","9.5","20.06","ND","825.94","31.23","ND","2.8","290.8","30","51.8","572.7","0"],
    [8877,"2011-05-11T16:00:00","5.6","7.86","ND","617.36","28.77","ND","1.8","309.3","29.4","53.2","291.1","0"],
    [8878,"2011-05-11T17:00:00","4.5","5.11","ND","627.76","27.24","ND","1.5","327.2","28.7","54.8","120.7","0"],
    [8879,"2011-05-11T18:00:00","16","4.27","ND","730.69","23.84","ND","0.2","276.2","28.3","54.3","41.2","0"],
    [8880,"2011-05-11T19:00:00","20.6","3.68","ND","880.30","18.15","ND","1.3","47.7","27","62.6","0.6","0"],
    [8881,"2011-05-11T20:00:00","39.5","3.61","ND","1026.43","15.17","ND","0.4","62.8","26.1","68.9","0","0"],
    [8882,"2011-05-11T21:00:00","33.3","6.57","ND","1195.83","11.33","ND","0.5","243","25.6","68.5","0","0"],
    [8883,"2011-05-11T22:00:00","26","27.54","ND","1205.31","9.24","ND","2.2","177.5","25.3","71.4","0","0"],
    [8884,"2011-05-11T23:00:00","13.7","33.94","ND","2052.70","6.84","ND","0.4","311.6","24.1","73.4","0","0"],
    [8885,"2011-05-12T00:00:00","25.4","29.21","ND","1176.41","9.96","ND","0.8","347.7","23.3","78.7","0","0"],
    [8886,"2011-05-12T01:00:00","26.9","15.61","ND","1047.95","5.85","ND","0.6","356.7","23.2","78.8","0","0"],
    [8887,"2011-05-12T02:00:00","14.6","13.86","ND","910.95","9.25","ND","0.2","264.7","23.3","79.5","0","0"],
    [8888,"2011-05-12T03:00:00","29.7","20.53","ND","740.40","8.39","ND","0.2","225.7","23.3","81.9","0","0"],
    [8889,"2011-05-12T04:00:00","17.4","20.95","ND","934.04","8.98","ND","0.1","288.9","23","84.3","0","0"],
    [8890,"2011-05-12T05:00:00","30.3","14.03","ND","898.96","8.81","ND","0.3","127.9","22.8","88","0","0"],
    [8891,"2011-05-12T06:00:00","40.5","11.31","ND","841.49","8.67","ND","0.6","335.2","22.3","89.4","0.2","0"],
    [8892,"2011-05-12T07:00:00","38.8","13.14","ND","840.07","10.81","ND","0.2","286","22.6","85.6","26.9","0"],
    [8893,"2011-05-12T08:00:00","62.2","16.89","ND","897.74","8.41","ND","0.3","44","24.5","77.7","248.6","0"],
    [8894,"2011-05-12T09:00:00","56.3","23.54","ND","1246.62","8.42","ND","0.7","76.6","25","78","198.8","0"],
    [8895,"2011-05-12T10:00:00","84","34.72","ND","1340.36","12.01","ND","0.8","69.9","25.8","73.7","359.5","0"],
    [8896,"2011-05-12T11:00:00","44.4","48.00","ND","1355.45","17.18","ND","1.2","81","26.8","68.2","406.3","0"],
    [8897,"2011-05-12T12:00:00","41.6","45.29","ND","1198.63","31.71","ND","1","79.2","27.9","64.6","636.6","0"],
    [8898,"2011-05-12T13:00:00","34.3","30.85","ND","994.81","51.30","ND","1.3","230.9","28.5","60.5","252","0"],
    [8899,"2011-05-12T14:00:00","47.1","22.88","ND","869.30","66.23","ND","3.3","259.7","25","77.6","60","9.65"],
    [8900,"2011-05-12T15:00:00","40.8","21.51","ND","962.31","84.26","ND","1.5","357.8","22.8","85.5","79","0.51"],
    [8901,"2011-05-12T16:00:00","43.5","12.72","ND","852.86","31.09","ND","0.1","41.6","23.5","82.7","191.5","0"],
    [8902,"2011-05-12T17:00:00","26.8","19.37","ND","957.47","15.72","ND","0.5","104.8","25.7","75.7","160.6","0"],
    [8903,"2011-05-12T18:00:00","41.7","46.33","ND","1067.92","17.92","ND","0.4","299.1","26","67.2","46.6","0"],
    [8904,"2011-05-12T19:00:00","22.4","53.13","ND","1574.75","15.73","ND","0.8","211","25.5","67.6","1","0"],
    [8905,"2011-05-12T20:00:00","23.8","33.23","ND","1377.04","10.01","ND","0.6","47.9","24.4","74.6","0","0"],
    [8906,"2011-05-12T21:00:00","16.4","23.48","ND","2115.11","7.99","ND","0.1","204","24.8","69.2","0","0"],
    [8907,"2011-05-12T22:00:00","15.3","23.46","ND","1385.25","9.28","ND","0.9","151","24.7","68.2","0","0"],
    [8908,"2011-05-12T23:00:00","20.5","18.66","ND","1304.68","7.18","ND","1","20.6","23.8","75","0","0"],
    [8909,"2011-05-13T00:00:00","17.3","13.41","ND","1323.55","6.45","ND","0.7","53.5","23.3","74.7","0","0"],
    [8910,"2011-05-13T01:00:00","10.8","18.37","ND","1070.73","7.86","ND","0.7","117.4","22.6","83","0","0"],
    [8911,"2011-05-13T02:00:00","6.3","15.00","ND","556.83","12.15","ND","0.8","86.4","21.7","88.9","0","0.25"],
    [8912,"2011-05-13T03:00:00","4.2","8.99","ND","634.44","14.15","ND","0.7","51.8","21.2","90.6","0","0.25"],
    [8913,"2011-05-13T04:00:00","5.7","9.26","ND","531.57","14.28","ND","0.6","35.2","21","89.3","0","0.25"],
    [8914,"2011-05-13T05:00:00","6.8","21.71","ND","1028.51","7.34","ND","0.5","167.7","21","89.4","0","0"],
    [8915,"2011-05-13T06:00:00","5.2","45.96","ND","960.70","7.94","ND","1.1","163.6","21.2","89","0","0"],
    [8916,"2011-05-13T07:00:00","3.9","73.47","ND","825.63","6.65","ND","1.2","177.9","21.3","86.5","11.3","0"],
    [8917,"2011-05-13T08:00:00","3.1","51.06","ND","859.85","7.56","ND","0.4","224.3","21.9","82.5","91.1","0"],
    [8918,"2011-05-13T09:00:00","3","33.03","ND","963.64","5.92","ND","0.5","218.8","22.9","77.5","185.5","0"],
    [8919,"2011-05-13T10:00:00","2.9","28.15","ND","1365.04","7.77","ND","0.5","80.4","24","74.3","279.1","0"],
    [8920,"2011-05-13T11:00:00","3.1","25.25","ND","1187.43","13.38","ND","1.2","69.6","24","75.3","262","0"],
    [8921,"2011-05-13T12:00:00","7.7","27.32","ND","1335.86","24.27","ND","0.4","56.7","25.1","70.3","489.6","0"],
    [8922,"2011-05-13T13:00:00","8.9","20.44","ND","962.63","33.61","ND","0.6","125","26.5","65.4","536.4","0"],
    [8923,"2011-05-13T14:00:00","15.1","21.54","ND","875.04","45.72","ND","0.7","131.6","27.9","59.2","456.8","0"],
    [8924,"2011-05-13T15:00:00","20.8","18.84","ND","798.16","75.79","ND","3","246.2","26.1","67.8","78","0"],
    [8925,"2011-05-13T16:00:00","11.5","17.07","ND","1103.84","113.17","ND","0.7","288.3","23.9","77.8","82.2","0"],
    [8926,"2011-05-13T17:00:00","35.5","10.36","ND","1244.10","74.10","ND","0.3","33.3","24.2","75.5","40.1","0.51"],
    [8927,"2011-05-13T18:00:00","30","9.85","ND","1188.23","19.92","ND","0.6","158.6","22.9","87.3","12","4.32"],
    [8928,"2011-05-13T19:00:00","16.2","22.38","ND","1353.67","13.39","ND","0.1","277.1","22","90.2","0.3","0.51"],
    [8929,"2011-05-13T20:00:00","16.5","19.12","ND","2392.90","11.15","ND","0.5","260.9","22.1","92.1","0","1.78"],
    [8930,"2011-05-13T21:00:00","12.6","15.00","ND","2609.26","9.33","ND","0.2","89","22.1","92.8","0","0.51"],
    [8931,"2011-05-13T22:00:00","34.1","14.43","ND","2994.97","9.54","ND","0.3","155.4","22","94.2","0","3.81"],
    [8932,"2011-05-13T23:00:00","18.8","13.10","ND","2256.81","9.71","ND","0.7","163.5","21.1","94.5","0","1.78"],
    [8933,"2011-05-14T00:00:00","10","13.60","ND","2713.47","10.26","ND","0.7","112.1","21","94.1","0","0"],
    [8934,"2011-05-14T01:00:00","6.1","10.42","ND","1582.32","7.09","ND","0.8","129.6","20.7","94.4","0","1.02"],
    [8935,"2011-05-14T02:00:00","5.3","8.47","ND","1106.50","8.92","ND","0.2","269.8","20.5","94.9","0","1.78"],
    [8936,"2011-05-14T03:00:00","3.4","8.62","ND","755.97","11.31","ND","0.3","355.2","20.5","94.7","0","3.81"],
    [8937,"2011-05-14T04:00:00","3.3","8.72","ND","688.27","15.13","ND","0.5","185","20.3","96.8","0","26.67"],
    [8938,"2011-05-14T05:00:00","4.5","9.00","ND","687.80","14.47","ND","1.6","357.8","19.7","99.7","0","16.26"],
    [8939,"2011-05-14T06:00:00","3.9","9.55","ND","708.90","12.16","ND","0.8","9.3","19.8","99","0.1","0.25"],
    [8940,"2011-05-14T07:00:00","2.7","10.12","ND","754.16","10.05","ND","0.3","56.6","20.2","97.2","7.7","0"],
    [8941,"2011-05-14T08:00:00","2.6","15.93","ND","653.75","8.75","ND","0.4","181.1","20.5","95.8","62.2","0"],
    [8942,"2011-05-14T09:00:00","2.7","37.52","ND","913.93","8.25","ND","0.4","161.2","21.9","89.4","204.9","0.25"],
    [8943,"2011-05-14T10:00:00","18.8","44.81","ND","1122.35","9.42","ND","0.8","44","22.8","85.2","181.6","0"],
    [8944,"2011-05-14T11:00:00","11.4","126.61","ND","1853.55","11.24","ND","1","33.8","22.9","83.4","216.4","0"],
    [8945,"2011-05-14T12:00:00","12.3","62.08","ND","1524.30","16.80","ND","0.6","93.6","23.3","81.6","117.6","0"],
    [8946,"2011-05-14T13:00:00","7.5","54.74","ND","797.35","18.89","ND","0.5","62.9","23.6","82.2","219.3","0"],
    [8947,"2011-05-14T14:00:00","4.6","54.09","ND","900.78","22.64","ND","1.1","51.3","24.3","78.5","217.7","0"],
    [8948,"2011-05-14T15:00:00","9","31.89","ND","914.33","28.13","ND","1.1","322.9","24","80.1","72.2","0"],
    [8949,"2011-05-14T16:00:00","9.1","37.45","ND","833.49","39.27","ND","0.3","324","23.3","84.8","63.9","0.25"],
    [8950,"2011-05-14T17:00:00","7","106.19","ND","1036.56","23.28","ND","0.3","15.3","23.7","80.9","60.5","0"],
    [8951,"2011-05-14T18:00:00","19.9","78.66","ND","1163.42","23.23","ND","0.1","122","23.2","85.2","19.6","0.25"],
    [8952,"2011-05-14T19:00:00","17","47.56","ND","1138.69","21.44","ND","1","174.7","22.3","89.8","0.3","1.27"],
    [8953,"2011-05-14T20:00:00","21.6","35.13","ND","1748.25","15.93","ND","1.6","194.4","21.7","86.9","0","0"],
    [8954,"2011-05-14T21:00:00","29","37.68","ND","2685.02","9.37","ND","0.6","230","21.5","87.8","0","0.25"],
    [8955,"2011-05-14T22:00:00","16.2","22.14","ND","1958.62","5.08","ND","0.3","240.2","21.4","87","0","0"],
    [8956,"2011-05-14T23:00:00","9.5","16.98","ND","2761.51","7.95","ND","0.1","278.5","21","91.9","0","0"],
    [8957,"2011-05-15T00:00:00","27.6","12.69","ND","1898.79","7.45","ND","0.1","246.8","20.8","93.8","0","0"],
    [8958,"2011-05-15T01:00:00","15.8","13.85","ND","2744.59","7.78","ND","0.2","291.3","20.5","94.1","0","0"],
    [8959,"2011-05-15T02:00:00","16.2","14.84","ND","2820.77","7.34","ND","0.1","26.8","20.3","93.2","0","0"],
    [8960,"2011-05-15T03:00:00","10.1","12.59","ND","2288.90","5.85","ND","0.7","5.6","20.1","94.4","0","0"],
    [8961,"2011-05-15T04:00:00","26.1","9.23","ND","1408.46","5.40","ND","0.8","4.8","19.8","97.7","0","0"],
    [8962,"2011-05-15T05:00:00","23.3","10.71","ND","1328.23","7.31","ND","0.2","286.8","19.2","99.1","0","0"],
    [8963,"2011-05-15T06:00:00","44","26.15","ND","1437.84","6.93","ND","0.2","179.5","19.3","99","0.9","0"],
    [8964,"2011-05-15T07:00:00","27.4","78.98","ND","1528.22","4.62","ND","0.2","36.8","19.7","97.4","32.1","0"],
    [8965,"2011-05-15T08:00:00","56.2","75.95","ND","1451.55","6.65","ND","0.1","240.8","20.7","93.6","117","0"],
    [8966,"2011-05-15T09:00:00","44.6","37.52","ND","1479.09","9.88","ND","0.4","138.2","22.2","84.5","222.2","0"],
    [8967,"2011-05-15T10:00:00","55.8","77.82","ND","1770.36","7.27","ND","0.9","83.6","23","83.3","225.1","0"],
    [8968,"2011-05-15T11:00:00","28.9","78.03","ND","1661.36","11.46","ND","0.5","79.5","23.6","79.6","319.8","0"],
    [8969,"2011-05-15T12:00:00","30.2","91.85","ND","1436.68","19.45","ND","0.4","212.9","25.5","71","640.9","0"],
    [8970,"2011-05-15T13:00:00","16.1","66.46","ND","906.55","33.79","ND","0.4","191.4","26.9","62.3","558.5","0"],
    [8971,"2011-05-15T14:00:00","35.5","67.37","ND","899.27","58.36","ND","0.6","85.7","27.9","59.7","535.8","0"],
    [8972,"2011-05-15T15:00:00","18.8","50.43","ND","948.54","88.20","ND","1.1","3.3","27.8","59.7","345.4","0"],
    [8973,"2011-05-15T16:00:00","21.8","26.24","ND","994.48","107.18","ND","1.4","340.7","27","64.1","200","0"],
    [8974,"2011-05-15T17:00:00","12.6","26.80","ND","841.91","75.09","ND","0.9","59.5","26.3","68.7","78.7","0"],
    [8975,"2011-05-15T18:00:00","20","82.50","ND","874.46","60.51","ND","0.4","177.1","25.5","76.1","20.8","0.25"],
    [8976,"2011-05-15T19:00:00","10.9","112.78","ND","826.22","38.43","ND","0.1","273.6","24.4","83.7","0.5","0"],
    [8977,"2011-05-15T20:00:00","31.2","45.71","ND","1646.35","16.90","ND","0.3","307.2","23.6","83.6","0","0"],
    [8978,"2011-05-15T21:00:00","28.8","26.81","ND","2371.67","11.23","ND","0.2","245.5","22.8","86.7","0","0.25"],
    [8979,"2011-05-15T22:00:00","17.8","19.74","ND","2240.19","10.01","ND","0.3","205.4","22.4","85.3","0","0"],
    [8980,"2011-05-15T23:00:00","13.1","18.60","ND","3043.44","9.30","ND","0.3","300.2","21.7","87.1","0","0"],
    [8981,"2011-05-16T00:00:00","24.5","16.51","ND","2322.49","6.27","ND","0.2","293.9","21.6","87.7","0","0"],
    [8982,"2011-05-16T01:00:00","13","13.63","ND","1619.53","4.83","ND","0.1","287.2","21","88.8","0","0"],
    [8983,"2011-05-16T02:00:00","20","12.12","ND","1458.00","6.08","ND","0.1","231.6","20.6","91.3","0","0"],
    [8984,"2011-05-16T03:00:00","10.7","10.40","ND","959.39","4.50","ND","0.1","198.3","20.6","91.2","0","0"],
    [8985,"2011-05-16T04:00:00","16.9","9.16","ND","993.25","5.90","ND","0","229.9","20.9","89.9","0","0"],
    [8986,"2011-05-16T05:00:00","10","8.76","ND","982.97","5.92","ND","0.3","266.6","20.9","89.8","0","0"],
    [8987,"2011-05-16T06:00:00","25","9.38","ND","937.77","5.84","ND","0.1","288.1","20.8","89.9","0.1","0"],
    [8988,"2011-05-16T07:00:00","51.2","10.51","ND","914.86","5.65","ND","0.2","251.6","20.9","89.6","32.9","0"],
    [8989,"2011-05-16T08:00:00","76.9","14.96","ND","1118.55","4.94","ND","0.8","218.7","22","84.6","90.3","0"],
    [8990,"2011-05-16T09:00:00","51.8","26.07","ND","2540.33","7.40","ND","1.8","191.3","22.9","80.4","205.4","0"],
    [8991,"2011-05-16T10:00:00","38","40.38","ND","3526.36","7.35","ND","1","187.1","24.2","74.8","389","0"],
    [8992,"2011-05-16T11:00:00","20.6","22.84","ND","1770.92","10.26","ND","0.5","145.8","26.2","66.7","579.8","0"],
    [8993,"2011-05-16T12:00:00","18.8","15.65","ND","1207.73","21.08","ND","0.4","194.3","27.3","61.8","706.6","0"],
    [8994,"2011-05-16T13:00:00","11.2","15.42","ND","1108.27","54.76","ND","0.9","115.4","28.7","57.3","644.8","0"],
    [8995,"2011-05-16T14:00:00","28","16.05","ND","1194.63","105.00","ND","1.4","359.5","27.5","63.7","195.6","0.25"],
    [8996,"2011-05-16T15:00:00","14","24.23","ND","1039.70","138.30","ND","0.9","249.7","23.2","83.8","86.8","13.97"],
    [8997,"2011-05-16T16:00:00","12.8","26.54","ND","1013.43","108.25","ND","0.8","73.9","25.6","73.3","171.8","0"],
    [8998,"2011-05-16T17:00:00","8.8","12.42","ND","1170.87","33.94","ND","0.8","262.9","26.7","60.3","116.3","0"],
    [8999,"2011-05-16T18:00:00","5.8","16.52","ND","1693.65","15.12","ND","1.2","259.4","26.3","59.4","52.9","0"],
    [9000,"2011-05-16T19:00:00","4.7","14.95","ND","1093.07","9.80","ND","3.7","264.4","25.4","62.2","0.6","0"],
    [9001,"2011-05-16T20:00:00","15.7","10.99","ND","940.66","12.01","ND","1.4","204.7","24.9","66.8","0","0"],
    [9002,"2011-05-16T21:00:00","10.3","6.05","ND","790.20","15.73","ND","1","209.2","23.8","74.3","0","0"],
    [9003,"2011-05-16T22:00:00","10.3","6.52","ND","1140.99","13.39","ND","0.7","243.9","23.5","74.5","0","0"],
    [9004,"2011-05-16T23:00:00","6.1","8.99","ND","1561.58","6.54","ND","0.2","341.7","23.6","72.8","0","0"],
    [9005,"2011-05-17T00:00:00","18.3","8.53","ND","1436.68","4.84","ND","0.8","348.6","22.1","84.2","0","0"],
    [9006,"2011-05-17T01:00:00","10.2","7.91","ND","1179.84","6.26","ND","0.2","104","21.9","85","0","0"],
    [9007,"2011-05-17T02:00:00","21.4","10.66","ND","895.62","7.46","ND","1","180.4","21.7","85.3","0","0"],
    [9008,"2011-05-17T03:00:00","12.2","16.48","ND","815.70","6.73","ND","0.7","186.2","21.7","85.5","0","0"],
    [9009,"2011-05-17T04:00:00","7.7","14.72","ND","691.08","8.85","ND","0.6","3.5","21.3","87","0","0"],
    [9010,"2011-05-17T05:00:00","4.8","10.22","ND","531.75","11.16","ND","0.2","12.2","20.9","91.3","0","0"],
    [9011,"2011-05-17T06:00:00","7.7","12.48","ND","790.89","6.52","ND","0.4","268.6","20.7","92","0.2","0"],
    [9012,"2011-05-17T07:00:00","11.2","13.97","ND","654.86","7.14","ND","0.1","275.6","21","90.8","40.9","0"],
    [9013,"2011-05-17T08:00:00","48.7","13.36","ND","904.18","5.61","ND","0.8","29.1","22.2","86.4","185.5","0"],
    [9014,"2011-05-17T09:00:00","33.4","16.64","ND","1815.75","6.90","ND","1.6","28.9","22.6","84.9","289.2","0"],
    [9015,"2011-05-17T10:00:00","31.1","25.71","ND","1931.85","9.69","ND","1.3","40","24.2","74.5","424.4","0"],
    [9016,"2011-05-17T11:00:00","18.1","28.33","ND","959.73","15.09","ND","1.1","32.3","25.7","67.3","682.2","0"],
    [9017,"2011-05-17T12:00:00","29.7","21.80","ND","792.33","25.53","ND","1.3","62","26.9","62.4","746.1","0"],
    [9018,"2011-05-17T13:00:00","25.6","21.23","ND","910.80","46.37","ND","0.6","357.7","28","57.9","455.1","0"],
    [9019,"2011-05-17T14:00:00","31.2","43.56","ND","786.86","77.28","ND","1.3","354","26.2","54.5","131.1","0"],
    [9020,"2011-05-17T15:00:00","28.2","56.88","ND","943.18","103.75","ND","0.8","211.3","27.2","56.6","196.7","0"],
    [9021,"2011-05-17T16:00:00","24.6","44.95","ND","842.47","36.91","ND","0.3","301.5","28","55.9","201.9","0"],
    [9022,"2011-05-17T17:00:00","28.9","26.81","ND","1018.28","34.98","ND","2.7","296.4","28.9","49.2","347.6","0"],
    [9023,"2011-05-17T18:00:00","22.6","12.93","ND","1090.96","21.53","ND","2.6","302.3","27.5","50","57.8","0"],
    [9024,"2011-05-17T19:00:00","13.7","10.38","ND","854.86","25.33","ND","2","292.5","26.5","53.4","2.9","0"],
    [9025,"2011-05-17T20:00:00","14.3","5.77","ND","759.91","19.96","ND","1.1","95","26","57.1","0","0"],
    [9026,"2011-05-17T21:00:00","22.9","5.21","ND","747.14","19.22","ND","1.6","85.3","25.2","59.9","0","0"],
    [9027,"2011-05-17T22:00:00","29","7.63","ND","1157.84","6.56","ND","0.4","90.6","24.5","63.1","0","0"],
    [9028,"2011-05-17T23:00:00","31","9.68","ND","1418.17","5.33","ND","0.3","133.3","23.5","68.5","0","0"],
    [9029,"2011-05-18T00:00:00","41.7","12.96","ND","2006.12","4.59","ND","0.2","308.9","22.2","73.9","0","0"],
    [9030,"2011-05-18T01:00:00","36.2","16.48","ND","2462.61","5.15","ND","0.8","346.1","21.4","80.2","0","0"],
    [9031,"2011-05-18T02:00:00","19.4","12.58","ND","1369.44","3.57","ND","0.5","317.8","21.1","82","0","0"],
    [9032,"2011-05-18T03:00:00","19.6","11.71","ND","972.33","5.04","ND","0.1","61.5","21.1","83.1","0","0"],
    [9033,"2011-05-18T04:00:00","34.8","18.15","ND","1017.55","5.35","ND","0","307.6","20.7","84.9","0","0"],
    [9034,"2011-05-18T05:00:00","18.7","20.35","ND","812.94","4.97","ND","0.2","287.4","20.3","84.8","0","0"],
    [9035,"2011-05-18T06:00:00","10.2","21.59","ND","642.70","4.27","ND","0.1","251.3","20.2","86","0.4","0"],
    [9036,"2011-05-18T07:00:00","29.5","25.01","ND","653.75","3.40","ND","0.1","308.2","20.3","86","30.6","0"],
    [9037,"2011-05-18T08:00:00","46.8","23.44","ND","890.76","4.29","ND","0.2","109.1","21.8","80.6","170.9","0"],
    [9038,"2011-05-18T09:00:00","107.2","27.17","ND","1541.30","4.80","ND","0.6","46.5","23","77.8","256","0"],
    [9039,"2011-05-18T10:00:00","108.6","54.08","ND","2423.77","7.39","ND","1.1","81.8","24.8","69.3","495.8","0"],
    [9040,"2011-05-18T11:00:00","ND","80.23","ND","2026.36","11.59","ND","1.3","74","26.5","62","726.1","0"],
    [9041,"2011-05-18T12:00:00","4.7","ND","ND","ND","19.70","ND","1.9","71.7","27.1","61.3","793.6","0"],
    [9042,"2011-05-18T13:00:00","8.3","ND","ND","ND","35.95","ND","1.1","130.7","27.8","57.8","602.1","0"],
    [9043,"2011-05-18T14:00:00","6.5","38.40","ND","890.41","ND","ND","3.2","253.8","28.5","51.5","601.9","0"],
    [9044,"2011-05-18T15:00:00","4.3","19.86","ND","788.16","98.08","ND","1.1","270.7","28.4","53.3","332.1","0"],
    [9045,"2011-05-18T16:00:00","3.4","6.55","ND","869.01","63.06","ND","0.4","58","28.6","51.4","191.8","0"],
    [9046,"2011-05-18T17:00:00","3.6","0.69","ND","626.10","12.97","ND","0.4","285.6","30","46.4","329.9","0"],
    [9047,"2011-05-18T18:00:00","2.3","3.25","ND","675.60","7.56","ND","1.5","298.9","27.6","50.7","59.7","0"],
    [9048,"2011-05-18T19:00:00","20.2","1.61","ND","947.59","6.59","ND","0.4","98.3","27","51.3","1.1","0"],
    [9049,"2011-05-18T20:00:00","19.4","0.11","ND","853.44","3.56","ND","0.3","55.4","26.6","53.2","0","0"],
    [9050,"2011-05-18T21:00:00","55","5.87","ND","1600.94","0.24","ND","0.9","119.6","25.8","58.3","0","0"],
    [9051,"2011-05-18T22:00:00","34.4","7.91","ND","1355.45","ND","ND","0.6","107.9","24.7","65.4","0","0"],
    [9052,"2011-05-18T23:00:00","43.2","14.11","ND","1567.90","ND","ND","0.3","358.3","23.7","70.1","0","0"],
    [9053,"2011-05-19T00:00:00","44.9","14.95","ND","1562.64","ND","ND","0.2","147.6","23.6","71.2","0","0"],
    [9054,"2011-05-19T01:00:00","31.9","16.14","ND","1619.12","ND","ND","0.4","50.5","23.4","71.3","0","0"],
    [9055,"2011-05-19T02:00:00","18.2","13.84","ND","1515.48","ND","ND","0.4","85.9","22.4","78.4","0","0"],
    [9056,"2011-05-19T03:00:00","11.1","15.40","ND","1056.12","ND","ND","1","138.4","22.5","78.7","0","0"],
    [9057,"2011-05-19T04:00:00","7.3","8.42","ND","727.04","ND","ND","0.2","165.7","22.1","80.4","0","0"],
    [9058,"2011-05-19T05:00:00","9.2","9.89","ND","714.71","ND","ND","0.3","319.3","21.8","81.6","0","0"],
    [9059,"2011-05-19T06:00:00","12.4","9.67","ND","691.32","ND","ND","0.2","17.4","21.6","82.9","0.2","0"],
    [9060,"2011-05-19T07:00:00","39.4","7.72","ND","702.17","ND","ND","0.1","12.9","21.8","82.4","29.4","0"],
    [9061,"2011-05-19T08:00:00","54.5","11.33","ND","861.31","ND","ND","0.2","72.9","22.5","80.1","141.5","0"],
    [9062,"2011-05-19T09:00:00","61.7","17.04","ND","1033.76","ND","ND","0.5","127.2","24","73.2","297.7","0"],
    [9063,"2011-05-19T10:00:00","32.4","35.15","ND","1335.86","0.08","ND","1.5","147.2","24.8","65.2","243.6","0"],
    [9064,"2011-05-19T11:00:00","25.4","122.31","ND","1705.81","3.04","ND","1.6","174","25.7","61.8","529.5","0"],
    [9065,"2011-05-19T12:00:00","17.3","21.67","ND","964.57","19.16","ND","0.7","149.3","26.6","58.4","389.3","0"],
    [9066,"2011-05-19T13:00:00","21","16.31","ND","863.82","29.12","ND","1.1","244.8","27.4","54.8","427.8","0"],
    [9067,"2011-05-19T14:00:00","11.4","14.24","ND","866.13","52.68","ND","2.7","258.3","25.2","66","123.8","0"],
    [9068,"2011-05-19T15:00:00","7.5","8.68","ND","985.88","71.58","ND","0.9","235","24.5","69.5","178.9","0"],
    [9069,"2011-05-19T16:00:00","5.2","5.94","ND","949.26","50.00","ND","0.6","4.3","25.8","63.7","130.5","0"],
    [9070,"2011-05-19T17:00:00","24.1","4.07","ND","1160.17","18.59","ND","0.3","275.5","26.1","62.5","111.4","0"],
    [9071,"2011-05-19T18:00:00","13.5","7.23","ND","1253.32","34.31","ND","0.4","284.5","25.8","64.9","43.8","0"],
    [9072,"2011-05-19T19:00:00","55","17.31","ND","1217.60","42.21","ND","0.1","281.3","25","67.3","0.6","0"],
    [9073,"2011-05-19T20:00:00","30","9.30","ND","1454.92","17.82","ND","0.2","45.1","24.6","66.7","0","0"],
    [9074,"2011-05-19T21:00:00","41.7","15.78","ND","2528.39","0.08","ND","1.6","13.5","22.3","83.4","0","7.87"],
    [9075,"2011-05-19T22:00:00","22.6","22.43","ND","1998.00","ND","ND","0.3","72.1","21.7","89.7","0","0"],
    [9076,"2011-05-19T23:00:00","12","22.21","ND","1155.58","0.06","ND","0.3","81.1","21.2","91.5","0","0.25"],
    [9077,"2011-05-20T00:00:00","6.9","64.59","ND","1357.20","ND","ND","0.2","126.6","20.8","92.5","0","0"],
    [9078,"2011-05-20T01:00:00","18.4","37.30","ND","1027.81","ND","ND","0","270.7","20.6","94.5","0","0"],
    [9079,"2011-05-20T02:00:00","13.9","13.11","ND","801.37","ND","ND","0.2","350.7","20.3","93.2","0","0"],
    [9080,"2011-05-20T03:00:00","20.1","7.89","ND","1014.79","ND","ND","0","23.2","20.1","93","0","0"],
    [9081,"2011-05-20T04:00:00","11.5","5.52","ND","1059.16","ND","ND","0","0","19.7","93.4","0","0"],
    [9082,"2011-05-20T05:00:00","7.6","3.89","ND","945.20","ND","ND","0.1","278.2","19.7","92.5","0","0"],
    [9083,"2011-05-20T06:00:00","5.2","2.14","ND","776.41","ND","ND","0","0","19.4","94.2","0.5","0"],
    [9084,"2011-05-20T07:00:00","47.1","1.59","ND","685.69","ND","ND","0.5","34","19.6","93.4","58.6","0"],
    [9085,"2011-05-20T08:00:00","30.5","2.78","ND","911.13","ND","ND","0.4","353","21.1","88.5","209.1","0"],
    [9086,"2011-05-20T09:00:00","49.4","7.60","ND","2001.19","ND","ND","0.6","106.2","22.8","80.1","318.9","0"],
    [9087,"2011-05-20T10:00:00","50.2","32.75","ND","1546.52","0.04","ND","0.5","110.9","24.4","72.2","571.1","0"],
    [9088,"2011-05-20T11:00:00","43.4","43.04","ND","1566.32","8.24","ND","1.3","141.7","26.2","61.9","713","0"],
    [9089,"2011-05-20T12:00:00","38.1","31.83","ND","977.69","28.92","ND","1.3","87.1","27.5","57.9","747.3","0"],
    [9090,"2011-05-20T13:00:00","27.1","19.26","ND","970.38","70.47","ND","0.5","69","28.1","55.1","512.6","0"],
    [9091,"2011-05-20T14:00:00","22.2","15.75","ND","914.44","96.15","ND","0.7","296.5","29.2","53.4","583.2","0"],
    [9092,"2011-05-20T15:00:00","41.9","13.63","ND","813.23","101.11","ND","0.9","351.4","29","53.3","219.6","0"],
    [9093,"2011-05-20T16:00:00","23.3","22.23","ND","963.62","135.97","ND","1.3","202.6","29.2","51.6","330.7","0"],
    [9094,"2011-05-20T17:00:00","12.4","24.15","ND","882.93","57.75","ND","0.1","61.1","27","61.9","86.5","9.65"],
    [9095,"2011-05-20T18:00:00","6.9","8.23","ND","991.83","27.40","ND","1.3","237.8","23.9","80.6","46.3","1.02"],
    [9096,"2011-05-20T19:00:00","4.2","4.10","ND","1129.96","21.84","ND","0.4","284.3","24.1","78.8","0.4","0"],
    [9097,"2011-05-20T20:00:00","30.4","4.34","ND","1736.06","2.64","ND","0.7","139.4","24.7","73","0","0.25"],
    [9098,"2011-05-20T21:00:00","48.6","8.19","ND","3410.47","ND","ND","0.5","48.5","24.1","78.2","0","0"],
    [9099,"2011-05-20T22:00:00","32.3","11.00","ND","2878.21","ND","ND","0.4","37.4","23.3","81.7","0","0"],
    [9100,"2011-05-20T23:00:00","42.8","12.51","ND","2016.16","ND","ND","0.4","10.5","22.9","83.4","0","0"],
    [9101,"2011-05-21T00:00:00","52.4","12.75","ND","1035.16","2.69","ND","0.8","39","22.2","86.6","0","0"],
    [9102,"2011-05-21T01:00:00","27.4","7.79","ND","987.31","4.90","ND","0.2","239.7","21.8","88.2","0","0.25"],
    [9103,"2011-05-21T02:00:00","23.7","9.54","ND","974.64","1.26","ND","0.1","157.7","21.8","89.9","0","0"],
    [9104,"2011-05-21T03:00:00","23.6","104.88","ND","963.31","ND","ND","0","46.1","21.4","91.8","0","0"],
    [9105,"2011-05-21T04:00:00","12.4","72.51","ND","1188.36","ND","ND","0.5","24.3","21","93.7","0","0"],
    [9106,"2011-05-21T05:00:00","8.3","31.46","ND","1118.93","ND","ND","0.3","44.7","20.8","94.9","0","0"],
    [9107,"2011-05-21T06:00:00","5.6","16.79","ND","734.15","ND","ND","0.1","43.3","20.9","95.2","0.2","0"],
    [9108,"2011-05-21T07:00:00","29.8","10.39","ND","723.10","ND","ND","0.3","187.7","21.2","92.3","11.2","0"],
    [9109,"2011-05-21T08:00:00","17","11.98","ND","825.63","ND","ND","0.6","120.2","21.7","89.2","29.6","0"],
    [9110,"2011-05-21T09:00:00","39.4","19.33","ND","974.31","ND","ND","0.7","129.7","22","87","83.3","0"],
    [9111,"2011-05-21T10:00:00","22.1","22.72","ND","1326.87","ND","ND","0.7","124.8","23","81.5","157.2","0"],
    [9112,"2011-05-21T11:00:00","37.9","18.22","ND","1399.64","0.06","ND","0.3","144.6","24","75.9","215.4","0"],
    [9113,"2011-05-21T12:00:00","42.6","15.96","ND","1678.39","3.29","ND","1.2","42.5","24.4","76.4","353.4","0"],
    [9114,"2011-05-21T13:00:00","38.4","15.40","ND","1646.35","17.39","ND","0.8","350.1","26.4","64.4","674.1","0"],
    [9115,"2011-05-21T14:00:00","34.3","18.14","ND","1277.60","29.87","ND","0.8","35","27.8","58.2","620.6","0"],
    [9116,"2011-05-21T15:00:00","45","36.92","ND","1167.94","66.38","ND","0.9","21.8","28.4","56.6","481.9","0"],
    [9117,"2011-05-21T16:00:00","25.6","119.44","ND","996.46","69.86","ND","1.7","286.3","27.9","55.6","277.4","0"],
    [9118,"2011-05-21T17:00:00","24.6","112.44","ND","936.97","81.26","ND","0.7","13.7","28.1","53.7","210.2","0"],
    [9119,"2011-05-21T18:00:00","13.4","37.91","ND","821.84","36.23","ND","1.8","263.9","27.1","53.3","33.9","0"],
    [9120,"2011-05-21T19:00:00","7.1","16.36","ND","796.04","20.55","ND","2.8","221.2","25.2","63","0.3","1.52"],
    [9121,"2011-05-21T20:00:00","5.2","13.79","ND","917.10","10.98","ND","0.7","197.6","22.5","81.9","0","2.29"],
    [9122,"2011-05-21T21:00:00","9.1","2.36","ND","1022.40","11.79","ND","0.5","5.7","21.6","89.4","0","0"],
    [9123,"2011-05-21T22:00:00","6.8","2.98","ND","1460.97","1.05","ND","0.2","45.9","21.3","89.3","0","0.25"],
    [9124,"2011-05-21T23:00:00","9.2","4.06","ND","1889.41","0.02","ND","0.6","179.2","21.5","90.1","0","0.51"],
    [9125,"2011-05-22T00:00:00","6.9","7.90","ND","1369.90","ND","ND","0","277.8","20.9","89.7","0","0"],
    [9126,"2011-05-22T01:00:00","5.4","14.70","ND","2033.72","ND","ND","0.4","0.1","20.9","90.6","0","0"],
    [9127,"2011-05-22T02:00:00","3.9","8.66","ND","1288.02","ND","ND","0.3","285.4","20.9","91.1","0","0"],
    [9128,"2011-05-22T03:00:00","20.2","7.13","ND","1276.73","ND","ND","0.1","255.8","21","91.4","0","0"],
    [9129,"2011-05-22T04:00:00","11.8","8.50","ND","1175.44","ND","ND","0","217.7","21","91.8","0","0.25"],
    [9130,"2011-05-22T05:00:00","21.6","9.87","ND","1446.69","ND","ND","0.1","275","20.8","92","0","0"],
    [9131,"2011-05-22T06:00:00","36.5","11.86","ND","1569.95","ND","ND","0.2","222.2","20.7","90.6","0.2","0"],
    [9132,"2011-05-22T07:00:00","23.3","10.20","ND","1524.25","ND","ND","0","113.8","21","88.1","30.8","0"],
    [9133,"2011-05-22T08:00:00","14.6","8.53","ND","1333.67","ND","ND","0.3","153.4","21.8","83.7","133.9","0"],
    [9134,"2011-05-22T09:00:00","12.5","8.50","ND","1325.97","ND","ND","0.8","127.4","22.8","80.6","223.5","0"],
    [9135,"2011-05-22T10:00:00","28","7.75","ND","921.09","1.71","ND","0.9","148.4","23.2","80.7","253.4","0"],
    [9136,"2011-05-22T11:00:00","26","7.68","ND","1172.85","13.03","ND","0.4","254.5","24","76.2","263.4","0"],
    [9137,"2011-05-22T12:00:00","23.7","9.66","ND","1039.00","19.83","ND","0.5","89.1","25.4","71.2","373.8","0"],
    [9138,"2011-05-22T13:00:00","30.5","15.95","ND","952.13","33.80","ND","0.6","180.8","26.3","67.1","467.9","0"],
    [9139,"2011-05-22T14:00:00","31.1","17.76","ND","1024.04","60.31","ND","0.2","46.3","26.9","64.2","420.3","0"],
    [9140,"2011-05-22T15:00:00","19.2","11.81","ND","979.97","87.84","ND","0.6","174","27.9","58.5","431.5","0"],
    [9141,"2011-05-22T16:00:00","11.9","8.60","ND","1017.95","97.73","ND","1.7","265","28.9","50.1","503.5","0"],
    [9142,"2011-05-22T17:00:00","6.5","7.96","ND","882.06","78.09","ND","1.6","322.1","28.3","50.8","326.5","0"],
    [9143,"2011-05-22T18:00:00","4.8","1.19","ND","706.56","28.83","ND","1","306.3","27.2","52.4","98.5","0"],
    [9144,"2011-05-22T19:00:00","2.4","0.37","ND","657.82","24.00","ND","0.2","170","26.2","53.7","2.3","0"],
    [9145,"2011-05-22T20:00:00","2","0.03","ND","747.64","21.67","ND","0.2","333","25.4","58.7","0","0"],
    [9146,"2011-05-22T21:00:00","7.9","3.25","ND","871.83","13.91","ND","1.7","135.3","24.7","64.1","0","0"],
    [9147,"2011-05-22T22:00:00","5.8","3.27","ND","1464.90","0.59","ND","2.5","152.9","22.4","81.3","0","0"],
    [9148,"2011-05-22T23:00:00","7","2.91","ND","1033.41","7.39","ND","1.9","147.9","20.9","89.7","0","9.14"],
    [9149,"2011-05-23T00:00:00","5.5","0.59","ND","847.38","3.79","ND","1.4","164.2","20","97.1","0","3.3"],
    [9150,"2011-05-23T01:00:00","4.8","0.05","ND","811.00","6.71","ND","0.9","153.9","20.2","95.5","0","0"],
    [9151,"2011-05-23T02:00:00","2.4","ND","ND","743.92","2.34","ND","0.6","43.9","20.2","95.5","0","0"],
    [9152,"2011-05-23T03:00:00","1.2","ND","ND","755.19","2.37","ND","1","14.9","19.9","95.9","0","0.25"],
    [9153,"2011-05-23T04:00:00","1.9","ND","ND","720.64","1.10","ND","0.4","28.7","19.6","96.9","0","0"],
    [9154,"2011-05-23T05:00:00","7.4","0.82","ND","753.65","0.75","ND","0.4","56.1","19.6","96.1","0","0"],
    [9155,"2011-05-23T06:00:00","4.4","3.29","ND","697.41","0.92","ND","0.1","178.8","19.8","93.7","0.5","0"],
    [9156,"2011-05-23T07:00:00","6.8","27.86","ND","731.65","ND","ND","0.3","314.2","19.8","93","46","0"],
    [9157,"2011-05-23T08:00:00","5.2","47.01","ND","765.42","ND","ND","0.2","110.3","22.1","82.7","342.9","0"],
    [9158,"2011-05-23T09:00:00","20.7","44.27","ND","1021.01","ND","ND","1","58.3","23.4","77.1","477.5","0"],
    [9159,"2011-05-23T10:00:00","13.1","59.97","ND","1458.50","0.27","ND","1.1","70.1","24.6","70.2","578","0"],
    [9160,"2011-05-23T11:00:00","23.8","286.56","ND","1029.66","1.51","ND","1.7","91.9","24.8","72.3","426.8","0"],
    [9161,"2011-05-23T12:00:00","19","190.44","ND","812.84","15.88","ND","0.5","161","26","66.7","520.8","0"],
    [9162,"2011-05-23T13:00:00","28.8","33.13","ND","965.54","32.51","ND","0.5","133.3","27.9","59.5","705.4","0"],
    [9163,"2011-05-23T14:00:00","16.3","24.76","ND","1029.51","64.73","ND","1.3","73.9","28.3","56.4","614","0"],
    [9164,"2011-05-23T15:00:00","15.8","24.27","ND","926.63","100.32","ND","1.1","75","28.5","56.1","363.7","0"],
    [9165,"2011-05-23T16:00:00","9","41.17","ND","869.30","91.83","ND","0.5","165.7","28.8","54.7","258.5","0"],
    [9166,"2011-05-23T17:00:00","18","48.96","ND","858.56","79.50","ND","1.8","288.4","28.4","56.8","224.5","0"],
    [9167,"2011-05-23T18:00:00","16.6","23.00","ND","961.70","70.58","ND","1.3","219.8","27.6","59","48.1","0"],
    [9168,"2011-05-23T19:00:00","44.2","23.13","ND","936.04","67.34","ND","0.1","58","26.2","64.5","1.2","0"],
    [9169,"2011-05-23T20:00:00","35","6.81","ND","1069.71","16.87","ND","0.2","345.7","25.6","67.2","0","0"],
    [9170,"2011-05-23T21:00:00","46","8.87","ND","2112.16","0.28","ND","0.5","126.4","24.8","69.7","0","0"],
    [9171,"2011-05-23T22:00:00","34.6","11.70","ND","2552.99","ND","ND","0.3","235.6","24","74.2","0","0"],
    [9172,"2011-05-23T23:00:00","35.3","10.76","ND","1781.15","ND","ND","0.1","269.2","22.9","79.1","0","0"],
    [9173,"2011-05-24T00:00:00","28.5","12.64","ND","1956.56","ND","ND","0","231.2","23","79.3","0","0"],
    [9174,"2011-05-24T01:00:00","29","8.43","ND","1752.39","ND","ND","0.1","296.8","23.1","79.7","0","0"],
    [9175,"2011-05-24T02:00:00","38.7","8.04","ND","1616.39","ND","ND","0.5","353.3","22.4","84.8","0","0"],
    [9176,"2011-05-24T03:00:00","34.1","8.94","ND","1430.87","ND","ND","0.2","314.1","21.9","87.3","0","0"],
    [9177,"2011-05-24T04:00:00","39.3","9.70","ND","1179.04","ND","ND","0.2","203.2","22.2","86","0","0"],
    [9178,"2011-05-24T05:00:00","31.2","14.38","ND","1021.36","ND","ND","0.1","280.9","22","87.1","0","0"],
    [9179,"2011-05-24T06:00:00","25.8","17.04","ND","975.30","ND","ND","0.1","317.4","21.7","87.3","0.4","0"],
    [9180,"2011-05-24T07:00:00","44.9","9.41","ND","985.64","ND","ND","0.2","303.5","21.6","88.9","25.9","0"],
    [9181,"2011-05-24T08:00:00","45.6","6.76","ND","1075.91","ND","ND","0.4","154.7","22.7","83.5","110.4","0"],
    [9182,"2011-05-24T09:00:00","69.8","9.67","ND","1716.52","ND","ND","1.1","119.8","24.5","75.5","346.8","0"],
    [9183,"2011-05-24T10:00:00","50.6","23.94","ND","1978.58","ND","ND","0.9","83.6","26.1","68.3","506.6","0"],
    [9184,"2011-05-24T11:00:00","44.7","27.51","ND","2311.17","3.25","ND","1","48","26.8","63.5","585","0"],
    [9185,"2011-05-24T12:00:00","26.7","24.25","ND","1797.94","32.44","ND","1.2","30.3","28","57.5","686.9","0"],
    [9186,"2011-05-24T13:00:00","20.4","58.17","ND","867.86","39.17","ND","1.1","244.4","28.8","55.2","585.9","0"],
    [9187,"2011-05-24T14:00:00","15.3","40.12","ND","777.34","54.77","ND","0.9","46.6","29.8","51.7","519.8","0"],
    [9188,"2011-05-24T15:00:00","11.2","35.49","ND","826.48","67.10","ND","2.2","258.3","30","49.7","451.9","0"],
    [9189,"2011-05-24T16:00:00","8.1","26.43","ND","827.03","70.27","ND","3.4","258.4","30.2","47.9","513.8","0"],
    [9190,"2011-05-24T17:00:00","5","6.77","ND","722.67","27.99","ND","2.9","272.5","28.9","51.3","234.3","0"],
    [9191,"2011-05-24T18:00:00","12.9","1.19","ND","777.60","24.69","ND","2.6","270.8","27.4","54.6","67","0"],
    [9192,"2011-05-24T19:00:00","20.7","0.21","ND","843.03","18.58","ND","0.6","103.3","27.4","49.9","2.4","0"],
    [9193,"2011-05-24T20:00:00","25.1","0.58","ND","970.06","15.71","ND","0.9","114","26.7","55.4","0","0"],
    [9194,"2011-05-24T21:00:00","24.9","3.03","ND","1474.74","5.11","ND","2.3","171.4","25.1","65","0","0"],
    [9195,"2011-05-24T22:00:00","14.9","15.28","ND","2085.71","ND","ND","0.7","233.8","24.1","71.4","0","0"],
    [9196,"2011-05-24T23:00:00","8.1","2.95","ND","1027.93","0.25","ND","0.3","14.3","23.9","71.2","0","0"],
    [9197,"2011-05-25T00:00:00","5.8","2.71","ND","1540.86","ND","ND","0.7","354.3","23.2","73","0","0"],
    [9198,"2011-05-25T01:00:00","3.7","2.24","ND","1241.17","ND","ND","0.5","230.2","23","76.6","0","0"],
    [9199,"2011-05-25T02:00:00","4.3","8.33","ND","955.85","ND","ND","0.1","230.7","23","76.5","0","0"],
    [9200,"2011-05-25T03:00:00","3.3","9.94","ND","910.33","ND","ND","0.4","186.4","22.7","78.1","0","0"],
    [9201,"2011-05-25T04:00:00","4.3","11.65","ND","863.94","ND","ND","0.1","245","22.3","79.9","0","0"],
    [9202,"2011-05-25T05:00:00","3.1","13.06","ND","885.48","ND","ND","0.3","275.1","21.5","82.3","0","0"],
    [9203,"2011-05-25T06:00:00","3.7","6.55","ND","679.29","ND","ND","0.4","356.5","21.4","83","0","0"],
    [9204,"2011-05-25T07:00:00","3.2","3.68","ND","758.28","ND","ND","0.1","307.4","21.7","82.8","5.4","0"],
    [9205,"2011-05-25T08:00:00","4.2","7.83","ND","1064.95","ND","ND","0.7","143.5","22.5","79","57.3","0"],
    [9206,"2011-05-25T09:00:00","5.5","28.30","ND","1079.20","ND","ND","1.2","95.4","23.6","74.9","250.6","0"],
    [9207,"2011-05-25T10:00:00","8.2","54.56","ND","2018.20","ND","ND","0.7","103.6","24.2","71.7","316.5","0"],
    [9208,"2011-05-25T11:00:00","5","57.88","ND","1668.10","0.37","ND","1.3","157.6","24.8","69.5","449.2","0"],
    [9209,"2011-05-25T12:00:00","9.7","25.98","ND","1041.80","10.02","ND","1","165.7","26.5","63","771.4","0"],
    [9210,"2011-05-25T13:00:00","6.4","24.15","ND","967.15","27.67","ND","0.9","63.6","27.6","58.7","503.2","0"],
    [9211,"2011-05-25T14:00:00","7.7","18.98","ND","1444.50","75.54","ND","1.3","27","28.2","57","554.5","0"],
    [9212,"2011-05-25T15:00:00","5","42.56","ND","914.75","87.49","ND","1.5","2.7","28.9","54.9","585.4","0"],
    [9213,"2011-05-25T16:00:00","4.3","56.70","ND","742.78","52.09","ND","2.1","4.1","29.1","52.1","331.5","0"],
    [9214,"2011-05-25T17:00:00","3.4","38.76","ND","743.28","43.61","ND","1.7","4.7","28.7","52.4","214.5","0"],
    [9215,"2011-05-25T18:00:00","3","4.19","ND","846.68","16.69","ND","1.3","336.7","28","55.3","81.2","0"],
    [9216,"2011-05-25T19:00:00","1.5","7.30","ND","867.86","15.56","ND","0.8","240.5","26.6","60.2","1.6","0"],
    [9217,"2011-05-25T20:00:00","1.6","10.80","ND","1071.14","6.92","ND","0.9","225.1","26","58.8","0","0"],
    [9218,"2011-05-25T21:00:00","1.8","7.23","ND","1712.68","ND","ND","0.1","227","25.1","63.2","0","0"],
    [9219,"2011-05-25T22:00:00","2.7","4.30","ND","1317.89","ND","ND","0.3","199.2","24.4","66.7","0","0"],
    [9220,"2011-05-25T23:00:00","2.5","9.60","ND","1726.38","ND","ND","0.3","138.6","24","72.8","0","0"],
    [9221,"2011-05-26T00:00:00","2.6","10.50","ND","2043.76","ND","ND","0.2","223.7","23.1","76.8","0","0"],
    [9222,"2011-05-26T01:00:00","2.7","17.73","ND","1696.07","ND","ND","0","176.3","22.6","78.1","0","0"],
    [9223,"2011-05-26T02:00:00","3.6","17.00","ND","1852.30","ND","ND","0.2","227.5","22.3","80.1","0","0"],
    [9224,"2011-05-26T03:00:00","2.8","11.68","ND","1226.05","ND","ND","0","23.5","22","81.2","0","0"],
    [9225,"2011-05-26T04:00:00","3.8","8.97","ND","1054.69","ND","ND","0.4","45.3","22.1","81.8","0","0"],
    [9226,"2011-05-26T05:00:00","2.6","7.19","ND","941.60","ND","ND","0.2","270.5","21.8","85","0","0"],
    [9227,"2011-05-26T06:00:00","3.8","15.01","ND","1008.64","ND","ND","0.2","293.8","21.7","84.7","0.2","0"],
    [9228,"2011-05-26T07:00:00","2.5","20.52","ND","940.32","ND","ND","0.3","264.9","22.1","82.7","28.7","0"],
    [9229,"2011-05-26T08:00:00","5","17.13","ND","1247.90","ND","ND","0.7","25.2","22.7","80.9","106.7","0"],
    [9230,"2011-05-26T09:00:00","5.2","30.00","ND","1625.57","ND","ND","0.7","9.7","23.8","76.7","243.2","0"],
    [9231,"2011-05-26T10:00:00","9","72.84","ND","1791.36","ND","ND","0.9","156","25.6","68.2","497.4","0"],
    [9232,"2011-05-26T11:00:00","5.9","334.60","ND","1549.68","0.10","ND","2.1","163.4","26.7","63.2","489.1","0"],
    [9233,"2011-05-26T12:00:00","10.7","316.41","ND","1290.40","9.18","ND","0.9","184","27.8","59.1","601.8","0"],
    [9234,"2011-05-26T13:00:00","7.7","116.53","ND","1260.44","45.06","ND","0.1","1.5","29","55.2","541.3","0"],
    [9235,"2011-05-26T14:00:00","7.4","25.70","ND","1044.89","80.11","ND","1.3","27.3","29.6","54.1","601.1","0"],
    [9236,"2011-05-26T15:00:00","5.2","20.97","ND","1058.60","112.71","ND","1.8","351.4","30.1","52","503.6","0"],
    [9237,"2011-05-26T16:00:00","7.3","30.86","ND","1048.69","145.98","ND","1.6","332.3","30.6","48","506.3","0"],
    [9238,"2011-05-26T17:00:00","3.9","50.59","ND","898.69","78.85","ND","1","354.8","29.8","49.5","173.8","0"],
    [9239,"2011-05-26T18:00:00","3.4","9.93","ND","838.12","23.33","ND","1.6","256.2","28.5","53.3","70.9","0"],
    [9240,"2011-05-26T19:00:00","1.7","17.71","ND","811.34","19.85","ND","1.8","234.4","27.4","56.8","6","0"],
    [9241,"2011-05-26T20:00:00","1.5","5.39","ND","900.77","11.32","ND","2.1","208.6","26.7","58.4","0","0"],
    [9242,"2011-05-26T21:00:00","1.3","3.93","ND","1163.66","2.41","ND","0.4","271.5","25.6","64.4","0","0"],
    [9243,"2011-05-26T22:00:00","ND","2.55","ND","1251.23","2.26","ND","0.8","354.6","24.3","72.4","0","0"],
    [9244,"2011-05-26T23:00:00","ND","10.85","ND","1531.51","ND","ND","0.3","291.8","24","76","0","0"],
    [9245,"2011-05-27T00:00:00","ND","19.35","ND","1210.27","ND","ND","0.1","281.3","23.9","76.2","0","0"],
    [9246,"2011-05-27T01:00:00","ND","21.15","ND","1084.31","ND","ND","0.1","229.9","24.1","76.4","0","0"],
    [9247,"2011-05-27T02:00:00","ND","24.50","ND","1187.83","ND","ND","0.1","91.2","23.6","78.2","0","0"],
    [9248,"2011-05-27T03:00:00","ND","29.16","ND","1356.87","ND","ND","0.4","175.2","23.3","79.7","0","0"],
    [9249,"2011-05-27T04:00:00","ND","29.18","ND","1047.95","ND","ND","0.3","32.7","22.8","83","0","0"],
    [9250,"2011-05-27T05:00:00","ND","23.98","ND","932.46","ND","ND","0.1","343.3","22.4","86.3","0","0"],
    [9251,"2011-05-27T06:00:00","ND","13.48","ND","931.20","ND","ND","0.4","11.6","22.4","86.6","0.3","0"],
    [9252,"2011-05-27T07:00:00","ND","13.32","ND","953.91","ND","ND","0.2","283.7","22.4","86.6","22.9","0"],
    [9253,"2011-05-27T08:00:00","ND","17.69","ND","1124.26","ND","ND","0.1","192.5","23.3","81.6","107","0"],
    [9254,"2011-05-27T09:00:00","ND","22.20","ND","1264.37","ND","ND","0.3","6.2","24.5","75.6","233.1","0"],
    [9255,"2011-05-27T10:00:00","ND","28.83","ND","1509.66","ND","ND","0.9","95.6","25.5","72.7","257.1","0"],
    [9256,"2011-05-27T11:00:00","ND","42.81","ND","1698.34","0.86","ND","1.1","70.9","26.4","69.5","494.1","0"],
    [9257,"2011-05-27T12:00:00","ND","50.60","ND","1749.50","17.35","ND","0.5","101.6","27.6","63.2","403.3","0"],
    [9258,"2011-05-27T13:00:00","ND","29.50","ND","1005.37","49.82","ND","0.5","5.4","28.5","58.6","470.6","0"],
    [9259,"2011-05-27T14:00:00","ND","20.28","ND","1135.88","81.76","ND","0.8","349","29.6","54.3","527.9","0"],
    [9260,"2011-05-27T15:00:00","ND","26.50","ND","1058.60","117.29","ND","0.6","293.9","29.1","53.5","234.7","0"],
    [9261,"2011-05-27T16:00:00","ND","60.19","ND","952.32","119.88","ND","ND","ND","ND","ND","ND","ND"],
    [9262,"2011-05-27T17:00:00","ND","ND","ND","ND","ND","ND","ND","ND","ND","ND","ND","ND"],
    [9263,"2011-05-27T18:00:00","ND","ND","ND","ND","ND","ND","ND","ND","ND","ND","ND","ND"],
    [9264,"2011-05-27T19:00:00","ND","ND","ND","ND","ND","ND","ND","ND","ND","ND","ND","ND"],
    [9265,"2011-05-27T20:00:00","ND","ND","ND","ND","ND","ND","ND","ND","ND","ND","ND","ND"],
    [9266,"2011-05-27T21:00:00","ND","ND","ND","ND","ND","ND","ND","ND","ND","ND","ND","ND"],
    [9267,"2011-05-27T22:00:00","ND","ND","ND","ND","ND","ND","ND","ND","ND","ND","ND","ND"],
    [9268,"2011-05-27T23:00:00","ND","ND","ND","ND","ND","ND","ND","ND","ND","ND","ND","ND"],
    [9269,"2011-05-28T00:00:00","ND","ND","ND","ND","ND","ND","ND","ND","ND","ND","ND","ND"],
    [9270,"2011-05-28T01:00:00","ND","ND","ND","ND","ND","ND","ND","ND","ND","ND","ND","ND"],
    [9271,"2011-05-28T02:00:00","ND","ND","ND","ND","ND","ND","ND","ND","ND","ND","ND","ND"],
    [9272,"2011-05-28T03:00:00","ND","ND","ND","ND","ND","ND","ND","ND","ND","ND","ND","ND"],
    [9273,"2011-05-28T04:00:00","ND","ND","ND","ND","ND","ND","ND","ND","ND","ND","ND","ND"],
    [9274,"2011-05-28T05:00:00","ND","ND","ND","ND","ND","ND","ND","ND","ND","ND","ND","ND"],
    [9275,"2011-05-28T06:00:00","ND","ND","ND","ND","ND","ND","ND","ND","ND","ND","ND","ND"],
    [9276,"2011-05-28T07:00:00","ND","ND","ND","ND","ND","ND","ND","ND","ND","ND","ND","ND"],
    [9277,"2011-05-28T08:00:00","ND","ND","ND","ND","ND","ND","ND","ND","ND","ND","ND","ND"],
    [9278,"2011-05-28T09:00:00","ND","ND","ND","ND","ND","ND","ND","ND","ND","ND","ND","ND"],
    [9279,"2011-05-28T10:00:00","ND","ND","ND","ND","ND","ND","ND","ND","ND","ND","ND","ND"],
    [9280,"2011-05-28T11:00:00","ND","ND","ND","ND","ND","ND","ND","ND","ND","ND","ND","ND"],
    [9281,"2011-05-28T12:00:00","ND","ND","ND","ND","ND","ND","ND","ND","ND","ND","ND","ND"],
    [9282,"2011-05-28T13:00:00","ND","ND","ND","ND","ND","ND","ND","ND","ND","ND","ND","ND"],
    [9283,"2011-05-28T14:00:00","ND","ND","ND","ND","ND","ND","ND","ND","ND","ND","ND","ND"],
    [9284,"2011-05-28T15:00:00","ND","ND","ND","ND","ND","ND","ND","ND","ND","ND","ND","ND"],
    [9285,"2011-05-28T16:00:00","ND","ND","ND","ND","ND","ND","ND","ND","ND","ND","ND","ND"],
    [9286,"2011-05-28T17:00:00","ND","ND","ND","ND","ND","ND","ND","ND","ND","ND","ND","ND"],
    [9287,"2011-05-28T18:00:00","ND","ND","ND","ND","ND","ND","ND","ND","ND","ND","ND","ND"],
    [9288,"2011-05-28T19:00:00","ND","ND","ND","ND","ND","ND","ND","ND","ND","ND","ND","ND"],
    [9289,"2011-05-28T20:00:00","ND","ND","ND","ND","ND","ND","ND","ND","ND","ND","ND","ND"],
    [9290,"2011-05-28T21:00:00","ND","ND","ND","ND","ND","ND","ND","ND","ND","ND","ND","ND"],
    [9291,"2011-05-28T22:00:00","ND","ND","ND","ND","ND","ND","ND","ND","ND","ND","ND","ND"],
    [9292,"2011-05-28T23:00:00","ND","ND","ND","ND","ND","ND","ND","ND","ND","ND","ND","ND"],
    [9293,"2011-05-29T00:00:00","ND","ND","ND","ND","ND","ND","ND","ND","ND","ND","ND","ND"],
    [9294,"2011-05-29T01:00:00","ND","ND","ND","ND","ND","ND","ND","ND","ND","ND","ND","ND"],
    [9295,"2011-05-29T02:00:00","ND","ND","ND","ND","ND","ND","ND","ND","ND","ND","ND","ND"],
    [9296,"2011-05-29T03:00:00","ND","ND","ND","ND","ND","ND","ND","ND","ND","ND","ND","ND"],
    [9297,"2011-05-29T04:00:00","ND","ND","ND","ND","ND","ND","ND","ND","ND","ND","ND","ND"],
    [9298,"2011-05-29T05:00:00","ND","ND","ND","ND","ND","ND","ND","ND","ND","ND","ND","ND"],
    [9299,"2011-05-29T06:00:00","ND","ND","ND","ND","ND","ND","ND","ND","ND","ND","ND","ND"],
    [9300,"2011-05-29T07:00:00","ND","ND","ND","ND","ND","ND","ND","ND","ND","ND","ND","ND"],
    [9301,"2011-05-29T08:00:00","ND","ND","ND","ND","ND","ND","ND","ND","ND","ND","ND","ND"],
    [9302,"2011-05-29T09:00:00","ND","ND","ND","ND","ND","ND","ND","ND","ND","ND","ND","ND"],
    [9303,"2011-05-29T10:00:00","ND","ND","ND","ND","ND","ND","ND","ND","ND","ND","ND","ND"],
    [9304,"2011-05-29T11:00:00","ND","ND","ND","ND","ND","ND","ND","ND","ND","ND","ND","ND"],
    [9305,"2011-05-29T12:00:00","ND","ND","ND","ND","ND","ND","ND","ND","ND","ND","ND","ND"],
    [9306,"2011-05-29T13:00:00","ND","ND","ND","ND","ND","ND","ND","ND","ND","ND","ND","ND"],
    [9307,"2011-05-29T14:00:00","ND","ND","ND","ND","ND","ND","ND","ND","ND","ND","ND","ND"],
    [9308,"2011-05-29T15:00:00","ND","ND","ND","ND","ND","ND","ND","ND","ND","ND","ND","ND"],
    [9309,"2011-05-29T16:00:00","ND","ND","ND","ND","ND","ND","ND","ND","ND","ND","ND","ND"],
    [9310,"2011-05-29T17:00:00","ND","ND","ND","ND","ND","ND","ND","ND","ND","ND","ND","ND"],
    [9311,"2011-05-29T18:00:00","ND","ND","ND","ND","ND","ND","ND","ND","ND","ND","ND","ND"],
    [9312,"2011-05-29T19:00:00","ND","ND","ND","ND","ND","ND","ND","ND","ND","ND","ND","ND"],
    [9313,"2011-05-29T20:00:00","ND","ND","ND","ND","ND","ND","ND","ND","ND","ND","ND","ND"],
    [9314,"2011-05-29T21:00:00","ND","ND","ND","ND","ND","ND","ND","ND","ND","ND","ND","ND"],
    [9315,"2011-05-29T22:00:00","ND","ND","ND","ND","ND","ND","ND","ND","ND","ND","ND","ND"],
    [9316,"2011-05-29T23:00:00","ND","ND","ND","ND","ND","ND","ND","ND","ND","ND","ND","ND"],
    [9317,"2011-05-30T00:00:00","ND","ND","ND","ND","ND","ND","ND","ND","ND","ND","ND","ND"],
    [9318,"2011-05-30T01:00:00","ND","ND","ND","ND","ND","ND","ND","ND","ND","ND","ND","ND"],
    [9319,"2011-05-30T02:00:00","ND","ND","ND","ND","ND","ND","ND","ND","ND","ND","ND","ND"],
    [9320,"2011-05-30T03:00:00","ND","ND","ND","ND","ND","ND","ND","ND","ND","ND","ND","ND"],
    [9321,"2011-05-30T04:00:00","ND","ND","ND","ND","ND","ND","ND","ND","ND","ND","ND","ND"],
    [9322,"2011-05-30T05:00:00","ND","ND","ND","ND","ND","ND","ND","ND","ND","ND","ND","ND"],
    [9323,"2011-05-30T06:00:00","ND","ND","ND","ND","ND","ND","ND","ND","ND","ND","ND","ND"],
    [9324,"2011-05-30T07:00:00","ND","ND","ND","ND","ND","ND","ND","ND","ND","ND","ND","ND"],
    [9325,"2011-05-30T08:00:00","ND","ND","ND","ND","ND","ND","ND","ND","ND","ND","ND","ND"],
    [9326,"2011-05-30T09:00:00","ND","ND","ND","ND","ND","ND","ND","ND","ND","ND","ND","ND"],
    [9327,"2011-05-30T10:00:00","ND","ND","ND","ND","ND","ND","ND","ND","ND","ND","ND","ND"],
    [9328,"2011-05-30T11:00:00","ND","ND","ND","ND","ND","ND","ND","ND","ND","ND","ND","ND"],
    [9329,"2011-05-30T12:00:00","ND","ND","ND","ND","ND","ND","ND","ND","ND","ND","ND","ND"],
    [9330,"2011-05-30T13:00:00","ND","ND","ND","ND","ND","ND","ND","ND","ND","ND","ND","ND"],
    [9331,"2011-05-30T14:00:00","ND","ND","ND","ND","ND","ND","ND","ND","ND","ND","ND","ND"],
    [9332,"2011-05-30T15:00:00","ND","ND","ND","ND","ND","ND","ND","ND","ND","ND","ND","ND"],
    [9333,"2011-05-30T16:00:00","ND","ND","ND","ND","ND","ND","ND","ND","ND","ND","ND","ND"],
    [9334,"2011-05-30T17:00:00","ND","ND","ND","ND","ND","ND","1.5","137.2","27.4","61.2","98.9","0"],
    [9335,"2011-05-30T18:00:00","ND","ND","ND","ND","ND","ND","1.9","179.4","27.2","61.4","74","0"],
    [9336,"2011-05-30T19:00:00","ND","19.14","ND","ND","ND","ND","1.4","251.6","26.1","71.1","1.7","0"],
    [9337,"2011-05-30T20:00:00","ND","6.65","ND","1264.82","24.72","ND","0.6","0.5","25.9","69.8","0","0"],
    [9338,"2011-05-30T21:00:00","ND","5.36","ND","1597.20","18.50","ND","0.5","4.2","24.8","75.4","0","0"],
    [9339,"2011-05-30T22:00:00","ND","5.13","ND","1144.84","6.18","ND","0.5","282.9","23.8","78.6","0","0"],
    [9340,"2011-05-30T23:00:00","ND","9.97","ND","912.80","6.84","ND","0.3","235.4","23.6","79.1","0","0"],
    [9341,"2011-05-31T00:00:00","ND","9.39","ND","1026.20","1.39","ND","0.4","228.3","23.4","79.9","0","0"],
    [9342,"2011-05-31T01:00:00","ND","8.16","ND","1242.01","0.57","ND","0.1","349.7","22.8","83","0","0"],
    [9343,"2011-05-31T02:00:00","ND","10.17","ND","1171.26","0.16","ND","0","255.4","22.4","85","0","0"],
    [9344,"2011-05-31T03:00:00","ND","8.10","ND","931.20","0.37","ND","0","323.2","22.2","86.6","0","0"],
    [9345,"2011-05-31T04:00:00","ND","7.09","ND","975.97","0.27","ND","0.1","271.7","22.1","86.9","0","0"],
    [9346,"2011-05-31T05:00:00","ND","5.47","ND","986.98","0.08","ND","0.1","334.1","22.2","86.3","0","0"],
    [9347,"2011-05-31T06:00:00","ND","4.96","ND","998.66","0.25","ND","0.1","75","22.1","85.9","1.4","0"],
    [9348,"2011-05-31T07:00:00","ND","6.90","ND","1100.43","0.31","ND","0.7","17.1","21.9","89.7","47.6","0"],
    [9349,"2011-05-31T08:00:00","ND","17.97","ND","1224.39","0.08","ND","0.1","85.2","23","84.2","224.5","0"],
    [9350,"2011-05-31T09:00:00","ND","20.09","ND","1308.61","0.94","ND","0.1","88.5","25.3","74.3","391","0"],
    [9351,"2011-05-31T10:00:00","ND","39.89","ND","1548.13","1.28","ND","1.1","63.5","26.8","66.7","523.2","0"],
    [9352,"2011-05-31T11:00:00","ND","190.96","ND","1671.16","4.76","ND","1","55.9","27.8","62.5","582","0"],
    [9353,"2011-05-31T12:00:00","ND","77.55","ND","1110.12","31.06","ND","1","12.9","28.9","58.3","539.1","0"],
    [9354,"2011-05-31T13:00:00","ND","28.30","ND","1032.93","54.83","ND","1","299.5","28.2","57.8","123.9","0"],
    [9355,"2011-05-31T14:00:00","ND","39.09","ND","1100.01","66.88","ND","2.9","258.2","25.8","67.2","233.8","0"],
    [9356,"2011-05-31T15:00:00","ND","40.22","ND","1079.76","46.06","ND","2.1","258.4","28.2","59","284.2","0"],
    [9357,"2011-05-31T16:00:00","ND","11.97","ND","1262.12","17.22","ND","1.2","247.3","28.7","55.6","279.6","0"],
    [9358,"2011-05-31T17:00:00","ND","4.24","ND","1299.01","14.34","ND","1.7","263.1","28.8","53.9","230.4","0"],
    [9359,"2011-05-31T18:00:00","ND","4.06","ND","1287.84","14.83","ND","1.5","277.2","27.8","54.9","61.2","0"],
    [9360,"2011-05-31T19:00:00","12.8","4.71","ND","1156.37","19.17","ND","0.3","111.9","27.3","57.6","1.1","0"],
    [9361,"2011-05-31T20:00:00","21.7","1.95","ND","1108.27","8.29","ND","1.2","266.6","26.8","58.3","0","0"],
    [9362,"2011-05-31T21:00:00","13.8","7.83","ND","1797.94","4.11","ND","1.5","212.9","26.1","64.3","0","0.25"],
    [9363,"2011-05-31T22:00:00","8.8","3.02","ND","1218.83","4.79","ND","0.7","5.5","23.8","78.9","0","1.27"],
    [9364,"2011-05-31T23:00:00","7","1.04","ND","1175.22","9.13","ND","0.9","121.5","24","78.9","0","0"],
    [9365,"2011-06-01T00:00:00","12.7","2.40","ND","1301.61","4.64","ND","0.3","353.4","23.5","82.9","0","0"],
    [9366,"2011-06-01T01:00:00","7.9","5.53","ND","1345.01","1.09","ND","0.1","95.9","23.2","86.1","0","0"],
    [9367,"2011-06-01T02:00:00","25.2","5.13","ND","1400.59","1.74","ND","0.3","310.7","23","86.4","0","0"],
    [9368,"2011-06-01T03:00:00","55.9","8.74","ND","1274.47","2.49","ND","0","253.7","23","86.4","0","0"],
    [9369,"2011-06-01T04:00:00","38.4","10.78","ND","1809.29","1.36","ND","0.3","21","22.8","86.6","0","0.25"],
    [9370,"2011-06-01T05:00:00","34.8","13.47","ND","1489.67","1.44","ND","0.5","21.9","22.2","92","0","0.25"],
    [9371,"2011-06-01T06:00:00","45.3","18.25","ND","1134.84","0.80","ND","0.7","354.8","22.1","93","0.3","0"],
    [9372,"2011-06-01T07:00:00","23.8","20.45","ND","1168.49","1.88","ND","0.1","87.2","22.1","92.3","11","0.25"],
    [9373,"2011-06-01T08:00:00","16.2","18.60","ND","1236.56","1.59","ND","0.1","198.8","22.7","89.3","43","0"],
    [9374,"2011-06-01T09:00:00","38.5","31.51","ND","1716.52","1.01","ND","0.3","79.7","23.4","85.4","114.5","0"],
    [9375,"2011-06-01T10:00:00","36.6","54.42","ND","2427.04","1.07","ND","0.9","34.5","23.4","85.7","120","0"],
    [9376,"2011-06-01T11:00:00","40.7","70.24","ND","2347.28","2.62","ND","0.7","38.1","24.8","78.5","376.1","0"],
    [9377,"2011-06-01T12:00:00","42.6","ND","ND","ND","1.02","ND","1.4","44.6","25.4","74.5","367.8","0"],
    [9378,"2011-06-01T13:00:00","31.1","ND","ND","ND","2.97","ND","0.6","37.3","26.5","69.2","306.2","0"],
    [9379,"2011-06-01T14:00:00","30.3","80.11","ND","736.88","ND","ND","0.3","325.1","27.1","64.2","372.9","0"],
    [9380,"2011-06-01T15:00:00","17.2","59.90","ND","796.04","35.28","ND","0.4","213.6","28","57.6","274.8","0"],
    [9381,"2011-06-01T16:00:00","24","39.20","ND","810.00","27.63","ND","0.6","70.1","27.6","59","186.5","0"],
    [9382,"2011-06-01T17:00:00","15.1","14.62","ND","728.03","17.18","ND","1.2","67.8","27","61.9","99.6","0"],
    [9383,"2011-06-01T18:00:00","8.6","13.69","ND","1037.97","10.35","ND","1.8","193.3","26.1","66.7","43.8","0"],
    [9384,"2011-06-01T19:00:00","9.2","12.12","ND","839.38","8.25","ND","0.6","332.1","25.4","68.5","0.7","0"],
    [9385,"2011-06-01T20:00:00","45.1","14.43","ND","1215.97","9.47","ND","0.6","121.8","25.4","71.3","0","0"],
    [9386,"2011-06-01T21:00:00","37.6","9.03","ND","1193.03","3.60","ND","0.4","25.5","24.5","77.1","0","0"],
    [9387,"2011-06-01T22:00:00","64.1","12.90","ND","1075.06","5.00","ND","0.2","323.8","23.6","83.8","0","0"],
    [9388,"2011-06-01T23:00:00","74.2","12.94","ND","1459.49","2.89","ND","0.6","320.6","23.1","85.4","0","0"],
    [9389,"2011-06-02T00:00:00","55.3","12.65","ND","1718.84","3.02","ND","0.3","357.9","23.1","84.9","0","0"],
    [9390,"2011-06-02T01:00:00","48.5","11.69","ND","1240.75","2.01","ND","0.1","50.9","23.1","84.9","0","0"],
    [9391,"2011-06-02T02:00:00","48.4","13.93","ND","1149.69","2.13","ND","0.2","175","22.9","84.8","0","0"],
    [9392,"2011-06-02T03:00:00","31.6","14.99","ND","1228.54","2.05","ND","0.6","35.3","22.4","89.6","0","0"],
    [9393,"2011-06-02T04:00:00","35.7","14.36","ND","976.63","1.95","ND","0.7","36","22","89.9","0","0"],
    [9394,"2011-06-02T05:00:00","35.5","11.46","ND","680.44","2.33","ND","0.7","107.3","21.9","88.7","0","1.02"],
    [9395,"2011-06-02T06:00:00","18.8","12.39","ND","544.17","3.17","ND","0.5","91.7","21.5","91.4","0","0.76"],
    [9396,"2011-06-02T07:00:00","11.1","11.57","ND","509.47","9.35","ND","1.1","118.8","21.1","93.3","7.8","1.78"],
    [9397,"2011-06-02T08:00:00","7.2","6.90","ND","565.31","6.62","ND","1.3","178.2","21.1","93.8","32.3","1.78"],
    [9398,"2011-06-02T09:00:00","4.1","6.65","ND","915.80","1.82","ND","1","161.6","21.2","92.3","86.3","1.02"],
    [9399,"2011-06-02T10:00:00","3.7","8.48","ND","1311.96","2.21","ND","1.3","192","21.9","88.6","121","0"],
    [9400,"2011-06-02T11:00:00","4.1","11.69","ND","1564.49","3.03","ND","1.9","183.9","23","80.8","240.8","0"],
    [9401,"2011-06-02T12:00:00","3","13.66","ND","1570.33","3.78","ND","2.2","158.1","24.2","75.2","344.9","0"],
    [9402,"2011-06-02T13:00:00","2.9","10.66","ND","856.90","10.06","ND","1.2","161.5","25.2","70.8","308.1","0"],
    [9403,"2011-06-02T14:00:00","1.5","9.65","ND","951.49","26.10","ND","0.9","70.1","24.9","73.2","88.5","0"],
    [9404,"2011-06-02T15:00:00","4.9","8.54","ND","836.01","35.94","ND","1","44.7","24.3","77.5","78.4","0"],
    [9405,"2011-06-02T16:00:00","22.4","8.44","ND","994.34","36.53","ND","1.9","35.1","22.7","85.7","96.3","0"],
    [9406,"2011-06-02T17:00:00","12.5","32.55","ND","954.88","30.53","ND","0.8","21.2","23.2","81.8","142.5","0"],
    [9407,"2011-06-02T18:00:00","14.8","12.92","ND","626.28","11.06","ND","0.4","61.5","23.6","79.5","32.7","0"],
    [9408,"2011-06-02T19:00:00","37.8","103.51","ND","353.47","6.76","ND","0.9","66","22.9","80","0.6","0"],
    [9409,"2011-06-02T20:00:00","19.6","186.96","ND","637.02","2.88","ND","0.3","66.7","22.5","82.9","0","0"],
    [9410,"2011-06-02T21:00:00","11.9","47.50","ND","533.92","3.42","ND","0.5","157.1","22.6","83.5","0","0"],
    [9411,"2011-06-02T22:00:00","30.6","15.93","ND","500.01","2.20","ND","0.1","272.6","22.4","85.3","0","0"],
    [9412,"2011-06-02T23:00:00","18.3","16.34","ND","1271.89","2.08","ND","0.4","155.8","22.3","86.3","0","0"],
    [9413,"2011-06-03T00:00:00","22.4","12.20","ND","1294.16","1.96","ND","0","298.6","22","87.6","0","0"],
    [9414,"2011-06-03T01:00:00","12.7","10.63","ND","1349.55","1.53","ND","0.3","309.5","21.9","87","0","0"],
    [9415,"2011-06-03T02:00:00","16.3","9.83","ND","940.96","1.20","ND","0.1","58.8","21.7","86.2","0","0"],
    [9416,"2011-06-03T03:00:00","15.8","9.02","ND","645.77","0.70","ND","0.5","42.7","21.3","91.7","0","0"],
    [9417,"2011-06-03T04:00:00","23.9","9.78","ND","497.81","0.93","ND","0.1","355.2","20.9","93","0","0"],
    [9418,"2011-06-03T05:00:00","12.7","9.20","ND","418.04","2.67","ND","0","28.1","21.1","90.6","0","0"],
    [9419,"2011-06-03T06:00:00","13.5","10.21","ND","316.57","1.01","ND","0.1","11","21","93","0","0"],
    [9420,"2011-06-03T07:00:00","11","28.41","ND","497.30","1.28","ND","0","107.2","21.1","90.7","18.3","0"],
    [9421,"2011-06-03T08:00:00","21.2","22.65","ND","339.18","1.53","ND","0","203.8","21.6","88.5","41.5","0"],
    [9422,"2011-06-03T09:00:00","23.2","22.74","ND","770.12","1.78","ND","0.5","137.4","22.2","84.6","133.7","0"],
    [9423,"2011-06-03T10:00:00","57.2","33.64","ND","1248.33","2.41","ND","1.1","152.6","23.2","79.7","273.4","0"],
    [9424,"2011-06-03T11:00:00","38.9","41.62","ND","1184.24","2.50","ND","1.2","160.9","24.5","71.4","446.5","0"],
    [9425,"2011-06-03T12:00:00","38.4","30.66","ND","1063.63","8.62","ND","1.6","151.4","25.7","65.3","394.1","0"],
    [9426,"2011-06-03T13:00:00","20.1","23.95","ND","597.12","33.08","ND","0.8","166.6","26.1","61.9","249.2","0"],
    [9427,"2011-06-03T14:00:00","30.1","20.51","ND","436.94","45.06","ND","0.9","167.4","26.5","60.7","337.8","0"],
    [9428,"2011-06-03T15:00:00","16.7","15.12","ND","460.55","50.31","ND","0.6","172.1","27.8","57.6","514.4","0"],
    [9429,"2011-06-03T16:00:00","27.5","15.23","ND","427.86","56.24","ND","1.3","156.4","27.6","57.1","204.4","0"],
    [9430,"2011-06-03T17:00:00","15.8","12.40","ND","577.80","75.76","ND","2","172.4","26.7","61.3","38.5","0"],
    [9431,"2011-06-03T18:00:00","32","11.81","ND","645.20","75.94","ND","1.8","241.6","25.5","68","23.6","0"],
    [9432,"2011-06-03T19:00:00","18.7","10.05","ND","791.80","38.35","ND","0.7","233.7","25.2","70.4","0.3","0"],
    [9433,"2011-06-03T20:00:00","10.9","8.26","ND","699.29","25.21","ND","2.2","300.3","22.5","84","0","8.13"],
    [9434,"2011-06-03T21:00:00","7","7.66","ND","1170.08","14.79","ND","0.5","321.4","21.9","88.4","0","1.78"],
    [9435,"2011-06-03T22:00:00","5.8","4.90","ND","487.49","16.37","ND","0.5","11.7","21.9","90.3","0","3.81"],
    [9436,"2011-06-03T23:00:00","13.8","4.38","ND","702.89","4.41","ND","1.6","280.4","20.9","92.8","0","11.68"],
    [9437,"2011-06-04T00:00:00","8.9","5.19","ND","1039.46","2.03","ND","0.9","246","21.2","90.1","0","4.57"],
    [9438,"2011-06-04T01:00:00","5","2.66","ND","395.85","2.71","ND","0.5","25.6","20.8","94.6","0","0.76"],
    [9439,"2011-06-04T02:00:00","4.6","2.17","ND","316.25","4.35","ND","0.4","347.3","20.7","95.7","0","0.76"],
    [9440,"2011-06-04T03:00:00","4.6","2.76","ND","350.01","1.62","ND","0.1","202.2","20.8","95.6","0","0.25"],
    [9441,"2011-06-04T04:00:00","4.7","4.62","ND","203.30","1.66","ND","0","264.6","20.7","95.5","0","0"],
    [9442,"2011-06-04T05:00:00","3.3","8.75","ND","350.01","1.59","ND","0","167.3","20.8","95.1","0","0"],
    [9443,"2011-06-04T06:00:00","26.1","10.07","ND","417.90","1.03","ND","0.1","49.6","20.7","95.9","0","0.25"],
    [9444,"2011-06-04T07:00:00","15.8","14.90","ND","406.47","1.12","ND","0.3","36.2","20.6","95.6","12.4","0"],
    [9445,"2011-06-04T08:00:00","20","16.96","ND","462.76","1.35","ND","0.2","53.6","20.9","95","71.7","0"],
    [9446,"2011-06-04T09:00:00","11.1","22.48","ND","836.09","1.53","ND","1.8","191.1","21.7","89.3","141.4","0"],
    [9447,"2011-06-04T10:00:00","ND","45.68","ND","804.37","5.45","ND","ND","ND","ND","ND","ND","ND"],
    [9448,"2011-06-04T11:00:00","ND","ND","ND","ND","ND","ND","ND","ND","ND","ND","ND","ND"],
    [9449,"2011-06-04T12:00:00","ND","ND","ND","ND","ND","ND","ND","ND","ND","ND","ND","ND"],
    [9450,"2011-06-04T13:00:00","ND","ND","ND","ND","ND","ND","ND","ND","ND","ND","ND","ND"],
    [9451,"2011-06-04T14:00:00","ND","ND","ND","ND","ND","ND","ND","ND","ND","ND","ND","ND"],
    [9452,"2011-06-04T15:00:00","ND","ND","ND","ND","ND","ND","ND","ND","ND","ND","ND","ND"],
    [9453,"2011-06-04T16:00:00","ND","ND","ND","ND","ND","ND","ND","ND","ND","ND","ND","ND"],
    [9454,"2011-06-04T17:00:00","ND","ND","ND","ND","ND","ND","ND","ND","ND","ND","ND","ND"],
    [9455,"2011-06-04T18:00:00","ND","ND","ND","ND","ND","ND","ND","ND","ND","ND","ND","ND"],
    [9456,"2011-06-04T19:00:00","ND","ND","ND","ND","ND","ND","ND","ND","ND","ND","ND","ND"],
    [9457,"2011-06-04T20:00:00","ND","ND","ND","ND","ND","ND","ND","ND","ND","ND","ND","ND"],
    [9458,"2011-06-04T21:00:00","ND","ND","ND","ND","ND","ND","ND","ND","ND","ND","ND","ND"],
    [9459,"2011-06-04T22:00:00","ND","ND","ND","ND","ND","ND","ND","ND","ND","ND","ND","ND"],
    [9460,"2011-06-04T23:00:00","ND","ND","ND","ND","ND","ND","ND","ND","ND","ND","ND","ND"],
    [9461,"2011-06-05T00:00:00","ND","ND","ND","ND","ND","ND","ND","ND","ND","ND","ND","ND"],
    [9462,"2011-06-05T01:00:00","ND","ND","ND","ND","ND","ND","ND","ND","ND","ND","ND","ND"],
    [9463,"2011-06-05T02:00:00","ND","ND","ND","ND","ND","ND","ND","ND","ND","ND","ND","ND"],
    [9464,"2011-06-05T03:00:00","ND","ND","ND","ND","ND","ND","ND","ND","ND","ND","ND","ND"],
    [9465,"2011-06-05T04:00:00","ND","ND","ND","ND","ND","ND","ND","ND","ND","ND","ND","ND"],
    [9466,"2011-06-05T05:00:00","ND","ND","ND","ND","ND","ND","ND","ND","ND","ND","ND","ND"],
    [9467,"2011-06-05T06:00:00","ND","ND","ND","ND","ND","ND","ND","ND","ND","ND","ND","ND"],
    [9468,"2011-06-05T07:00:00","ND","ND","ND","ND","ND","ND","ND","ND","ND","ND","ND","ND"],
    [9469,"2011-06-05T08:00:00","ND","ND","ND","ND","ND","ND","ND","ND","ND","ND","ND","ND"],
    [9470,"2011-06-05T09:00:00","ND","ND","ND","ND","ND","ND","ND","ND","ND","ND","ND","ND"],
    [9471,"2011-06-05T10:00:00","ND","ND","ND","ND","ND","ND","ND","ND","ND","ND","ND","ND"],
    [9472,"2011-06-05T11:00:00","ND","ND","ND","ND","ND","ND","ND","ND","ND","ND","ND","ND"],
    [9473,"2011-06-05T12:00:00","ND","ND","ND","ND","ND","ND","ND","ND","ND","ND","ND","ND"],
    [9474,"2011-06-05T13:00:00","ND","ND","ND","ND","ND","ND","ND","ND","ND","ND","ND","ND"],
    [9475,"2011-06-05T14:00:00","ND","ND","ND","ND","ND","ND","ND","ND","ND","ND","ND","ND"],
    [9476,"2011-06-05T15:00:00","ND","ND","ND","ND","ND","ND","ND","ND","ND","ND","ND","ND"],
    [9477,"2011-06-05T16:00:00","ND","ND","ND","ND","ND","ND","ND","ND","ND","ND","ND","ND"],
    [9478,"2011-06-05T17:00:00","ND","ND","ND","ND","ND","ND","ND","ND","ND","ND","ND","ND"],
    [9479,"2011-06-05T18:00:00","ND","ND","ND","ND","ND","ND","ND","ND","ND","ND","ND","ND"],
    [9480,"2011-06-05T19:00:00","ND","ND","ND","ND","ND","ND","ND","ND","ND","ND","ND","ND"],
    [9481,"2011-06-05T20:00:00","ND","ND","ND","ND","ND","ND","ND","ND","ND","ND","ND","ND"],
    [9482,"2011-06-05T21:00:00","ND","ND","ND","ND","ND","ND","ND","ND","ND","ND","ND","ND"],
    [9483,"2011-06-05T22:00:00","ND","ND","ND","ND","ND","ND","ND","ND","ND","ND","ND","ND"],
    [9484,"2011-06-05T23:00:00","ND","ND","ND","ND","ND","ND","ND","ND","ND","ND","ND","ND"],
    [9485,"2011-06-06T00:00:00","ND","ND","ND","ND","ND","ND","ND","ND","ND","ND","ND","ND"],
    [9486,"2011-06-06T01:00:00","ND","ND","ND","ND","ND","ND","ND","ND","ND","ND","ND","ND"],
    [9487,"2011-06-06T02:00:00","ND","ND","ND","ND","ND","ND","ND","ND","ND","ND","ND","ND"],
    [9488,"2011-06-06T03:00:00","ND","ND","ND","ND","ND","ND","ND","ND","ND","ND","ND","ND"],
    [9489,"2011-06-06T04:00:00","ND","ND","ND","ND","ND","ND","ND","ND","ND","ND","ND","ND"],
    [9490,"2011-06-06T05:00:00","ND","ND","ND","ND","ND","ND","ND","ND","ND","ND","ND","ND"],
    [9491,"2011-06-06T06:00:00","ND","ND","ND","ND","ND","ND","ND","ND","ND","ND","ND","ND"],
    [9492,"2011-06-06T07:00:00","ND","ND","ND","ND","ND","ND","ND","ND","ND","ND","ND","ND"],
    [9493,"2011-06-06T08:00:00","ND","ND","ND","ND","ND","ND","ND","ND","ND","ND","ND","ND"],
    [9494,"2011-06-06T09:00:00","ND","ND","ND","ND","ND","ND","ND","ND","ND","ND","ND","ND"],
    [9495,"2011-06-06T10:00:00","ND","ND","ND","ND","ND","ND","ND","ND","ND","ND","ND","ND"],
    [9496,"2011-06-06T11:00:00","ND","ND","ND","ND","ND","ND","ND","ND","ND","ND","ND","ND"],
    [9497,"2011-06-06T12:00:00","ND","ND","ND","ND","ND","ND","ND","ND","ND","ND","ND","ND"],
    [9498,"2011-06-06T13:00:00","ND","ND","ND","ND","ND","ND","ND","ND","ND","ND","ND","ND"],
    [9499,"2011-06-06T14:00:00","ND","ND","ND","ND","ND","ND","ND","ND","ND","ND","ND","ND"],
    [9500,"2011-06-06T15:00:00","ND","ND","ND","ND","ND","ND","ND","ND","ND","ND","ND","ND"],
    [9501,"2011-06-06T16:00:00","ND","ND","ND","ND","ND","ND","ND","ND","ND","ND","ND","ND"],
    [9502,"2011-06-06T17:00:00","ND","ND","ND","ND","ND","ND","ND","ND","ND","ND","ND","ND"],
    [9503,"2011-06-06T18:00:00","ND","ND","ND","ND","ND","ND","ND","ND","ND","ND","ND","ND"],
    [9504,"2011-06-06T19:00:00","ND","ND","ND","ND","ND","ND","ND","ND","ND","ND","ND","ND"],
    [9505,"2011-06-06T20:00:00","ND","ND","ND","ND","ND","ND","ND","ND","ND","ND","ND","ND"],
    [9506,"2011-06-06T21:00:00","ND","ND","ND","ND","ND","ND","ND","ND","ND","ND","ND","ND"],
    [9507,"2011-06-06T22:00:00","ND","ND","ND","ND","ND","ND","ND","ND","ND","ND","ND","ND"],
    [9508,"2011-06-06T23:00:00","ND","ND","ND","ND","ND","ND","ND","ND","ND","ND","ND","ND"],
    [9509,"2011-06-07T00:00:00","ND","ND","ND","ND","ND","ND","ND","ND","ND","ND","ND","ND"],
    [9510,"2011-06-07T01:00:00","ND","ND","ND","ND","ND","ND","ND","ND","ND","ND","ND","ND"],
    [9511,"2011-06-07T02:00:00","ND","ND","ND","ND","ND","ND","ND","ND","ND","ND","ND","ND"],
    [9512,"2011-06-07T03:00:00","ND","ND","ND","ND","ND","ND","ND","ND","ND","ND","ND","ND"],
    [9513,"2011-06-07T04:00:00","ND","ND","ND","ND","ND","ND","ND","ND","ND","ND","ND","ND"],
    [9514,"2011-06-07T05:00:00","ND","ND","ND","ND","ND","ND","ND","ND","ND","ND","ND","ND"],
    [9515,"2011-06-07T06:00:00","ND","ND","ND","ND","ND","ND","ND","ND","ND","ND","ND","ND"],
    [9516,"2011-06-07T07:00:00","ND","ND","ND","ND","ND","ND","ND","ND","ND","ND","ND","ND"],
    [9517,"2011-06-07T08:00:00","ND","ND","ND","ND","ND","ND","ND","ND","ND","ND","ND","ND"],
    [9518,"2011-06-07T09:00:00","ND","ND","ND","ND","ND","ND","ND","ND","ND","ND","ND","ND"],
    [9519,"2011-06-07T10:00:00","ND","ND","ND","ND","ND","ND","ND","ND","ND","ND","ND","ND"],
    [9520,"2011-06-07T11:00:00","ND","ND","ND","ND","ND","ND","ND","ND","ND","ND","ND","ND"],
    [9521,"2011-06-07T12:00:00","ND","ND","ND","ND","ND","ND","ND","ND","ND","ND","ND","ND"],
    [9522,"2011-06-07T13:00:00","ND","ND","ND","ND","ND","ND","ND","ND","ND","ND","ND","ND"],
    [9523,"2011-06-07T14:00:00","ND","ND","ND","ND","ND","ND","ND","ND","ND","ND","ND","ND"],
    [9524,"2011-06-07T15:00:00","ND","ND","ND","ND","ND","ND","ND","ND","ND","ND","ND","ND"],
    [9525,"2011-06-07T16:00:00","ND","ND","ND","ND","ND","ND","1.4","44.5","28.4","59.4","236.1","0"],
    [9526,"2011-06-07T17:00:00","ND","ND","ND","ND","ND","ND","0.9","208.5","29.2","54.6","225.4","0"],
    [9527,"2011-06-07T18:00:00","ND","31.57","ND","929.40","43.54","ND","0.8","274","28.4","56.6","62.1","0"],
    [9528,"2011-06-07T19:00:00","ND","26.08","28.57","926.94","31.00","ND","0.1","312.8","26.7","62.7","1.1","0"],
    [9529,"2011-06-07T20:00:00","ND","10.80","37.20","898.67","21.79","ND","0.1","249.5","25.2","69.9","0","0"],
    [9530,"2011-06-07T21:00:00","ND","11.54","53.86","1272.48","13.92","ND","0.1","255.7","24.4","73.7","0","0"],
    [9531,"2011-06-07T22:00:00","ND","15.06","57.82","2229.44","11.93","ND","0.1","56.9","23.9","76.7","0","0"],
    [9532,"2011-06-07T23:00:00","ND","15.51","55.92","2476.79","10.36","ND","0.2","301.9","23","80.7","0","0"],
    [9533,"2011-06-08T00:00:00","ND","12.08","50.01","1297.23","11.07","ND","0.1","280.8","22.4","82.4","0","0"],
    [9534,"2011-06-08T01:00:00","ND","12.99","44.08","1226.46","8.97","ND","0.1","315.8","22.3","83.2","0","0"],
    [9535,"2011-06-08T02:00:00","ND","9.71","41.02","613.02","7.97","ND","0.3","55.5","22.3","82.3","0","0"],
    [9536,"2011-06-08T03:00:00","ND","8.39","41.83","533.56","8.83","ND","0.2","123.7","22.3","81.7","0","0"],
    [9537,"2011-06-08T04:00:00","ND","7.27","45.33","510.85","6.86","ND","0.3","205.1","22.5","82.1","0","0"],
    [9538,"2011-06-08T05:00:00","ND","17.72","44.75","443.04","8.91","ND","0.4","112.7","22","83.8","0","0"],
    [9539,"2011-06-08T06:00:00","ND","19.48","43.07","498.99","7.05","ND","0.2","251.5","21.3","87.3","0.2","0"],
    [9540,"2011-06-08T07:00:00","ND","21.30","54.22","656.20","7.48","ND","0.3","10.5","21.5","86.6","25.2","0"],
    [9541,"2011-06-08T08:00:00","ND","15.02","31.51","1539.73","6.94","ND","0.4","49.9","22.2","83.6","147.4","0"],
    [9542,"2011-06-08T09:00:00","ND","19.42","37.87","1770.36","7.54","ND","0.3","136.7","23.8","76.1","266","0"],
    [9543,"2011-06-08T10:00:00","ND","37.19","40.84","1551.75","9.11","ND","0.4","113.2","25.8","67.4","576.1","0"],
    [9544,"2011-06-08T11:00:00","ND","69.20","69.21","1481.80","12.42","ND","1","173.2","27.4","61.7","656.8","0"],
    [9545,"2011-06-08T12:00:00","ND","63.89","77.08","1420.45","31.16","ND","1.6","146","28.6","57.3","633.3","0"],
    [9546,"2011-06-08T13:00:00","ND","41.50","61.34","881.18","66.53","ND","1.2","142.2","29","55.9","353","0"],
    [9547,"2011-06-08T14:00:00","ND","24.16","42.49","1184.20","89.81","ND","0.5","204.5","29.6","54","426","0"],
    [9548,"2011-06-08T15:00:00","ND","20.35","33.91","1128.39","104.28","ND","1.9","291","29.9","53.6","560.2","0"],
    [9549,"2011-06-08T16:00:00","ND","15.85","39.00","780.18","115.79","ND","1.7","284","30.4","51","467.4","0"],
    [9550,"2011-06-08T17:00:00","ND","ND","ND","ND","90.63","ND","1.6","264.2","29.8","51.2","188.3","0"],
    [9551,"2011-06-08T18:00:00","ND","ND","ND","ND","ND","ND","1.4","245.4","28.9","53.2","51.4","0"],
    [9552,"2011-06-08T19:00:00","ND","9.05","30.47","986.51","23.18","ND","1.2","241.1","28","55.4","4.3","0"],
    [9553,"2011-06-08T20:00:00","ND","9.77","47.27","1284.43","14.87","ND","0.3","275.2","27.3","58.4","0","0"],
    [9554,"2011-06-08T21:00:00","ND","8.32","49.92","1373.79","9.33","ND","0","143.2","26.7","62.6","0","0"],
    [9555,"2011-06-08T22:00:00","ND","8.12","45.52","1163.66","10.38","ND","0.6","83.8","25.7","68.2","0","0"],
    [9556,"2011-06-08T23:00:00","ND","12.03","68.96","1814.31","2.34","ND","0.2","190.4","24.8","72.9","0","0"],
    [9557,"2011-06-09T00:00:00","ND","18.41","53.15","1522.64","2.35","ND","0.1","160.2","24.3","76.3","0","0"],
    [9558,"2011-06-09T01:00:00","ND","18.38","50.13","1840.10","2.25","ND","0.3","170.3","23.8","78.1","0","0"],
    [9559,"2011-06-09T02:00:00","ND","16.47","40.01","1312.14","1.56","ND","0.1","246.2","23.6","79.6","0","0"],
    [9560,"2011-06-09T03:00:00","ND","14.73","33.01","1140.23","1.52","ND","0","296.7","23.1","81.9","0","0"],
    [9561,"2011-06-09T04:00:00","ND","18.02","31.57","990.32","1.68","ND","0.4","313.5","22.5","84.9","0","0"],
    [9562,"2011-06-09T05:00:00","ND","13.74","31.49","1124.64","1.46","ND","0.2","80.5","23","81.2","0","0"],
    [9563,"2011-06-09T06:00:00","ND","11.22","27.58","1103.78","1.33","ND","0.1","33.3","22.4","84.8","0.1","0"],
    [9564,"2011-06-09T07:00:00","ND","15.56","33.42","1044.76","1.89","ND","0.4","276.1","22.5","84.3","23.6","0"],
    [9565,"2011-06-09T08:00:00","ND","19.64","31.64","1408.64","2.20","ND","0.5","63","23.7","80.7","104.2","0"],
    [9566,"2011-06-09T09:00:00","ND","42.63","35.84","1859.19","1.50","ND","0.7","132.7","24.2","78.6","211.1","0"],
    [9567,"2011-06-09T10:00:00","ND","53.18","59.69","2342.19","3.91","ND","1.1","138.5","24.9","72.7","209","0"],
    [9568,"2011-06-09T11:00:00","ND","65.96","93.61","2198.83","5.67","ND","0.8","159.7","26.3","67.5","548.2","0"],
    [9569,"2011-06-09T12:00:00","ND","45.84","66.81","1277.17","15.41","ND","0.4","130","28","59.7","528.7","0"],
    [9570,"2011-06-09T13:00:00","ND","50.66","69.49","1342.28","38.06","ND","1.2","120.5","29.1","56.4","426.1","0"],
    [9571,"2011-06-09T14:00:00","ND","35.54","59.59","1161.37","95.99","ND","0.8","16.8","29.5","56.9","478.5","0"],
    [9572,"2011-06-09T15:00:00","ND","29.23","46.02","1069.87","116.57","ND","1","41.1","30.2","55.3","331.5","0"],
    [9573,"2011-06-09T16:00:00","ND","34.87","35.39","897.51","117.48","ND","0.8","14.8","30.8","53","386.4","0"],
    [9574,"2011-06-09T17:00:00","ND","63.12","50.94","782.50","94.93","ND","1.3","251.7","31.3","49.1","306","0"],
    [9575,"2011-06-09T18:00:00","ND","44.42","37.54","772.09","53.70","ND","1.3","262","30.1","51.6","84.7","0"],
    [9576,"2011-06-09T19:00:00","ND","16.36","21.61","570.95","27.66","ND","0.4","251.4","28.3","56.1","1.4","0"],
    [9577,"2011-06-09T20:00:00","ND","9.51","33.63","903.47","16.85","ND","0.1","212.3","27.4","60.8","0","0"],
    [9578,"2011-06-09T21:00:00","ND","16.59","56.71","1420.45","5.95","ND","0.6","136.4","26.9","63.4","0","0"],
    [9579,"2011-06-09T22:00:00","ND","20.57","67.80","2617.11","2.59","ND","0.5","158.1","25.8","69.6","0","0"],
    [9580,"2011-06-09T23:00:00","ND","22.31","69.50","2630.48","2.60","ND","0.3","325.5","24.7","75.1","0","0"],
    [9581,"2011-06-10T00:00:00","ND","27.98","49.67","1888.35","3.18","ND","0.4","336.4","23.9","78.6","0","0"],
    [9582,"2011-06-10T01:00:00","ND","26.47","48.62","1791.96","2.15","ND","0.1","298.3","23.8","78.4","0","0"],
    [9583,"2011-06-10T02:00:00","ND","28.16","41.27","878.57","1.93","ND","0.4","165","23.8","78.9","0","0"],
    [9584,"2011-06-10T03:00:00","ND","23.59","41.48","867.16","2.54","ND","0.5","147.7","23.4","81.8","0","0"],
    [9585,"2011-06-10T04:00:00","ND","17.33","44.70","1173.64","2.36","ND","0.2","275.4","23","83.4","0","0"],
    [9586,"2011-06-10T05:00:00","ND","25.30","35.19","842.06","2.24","ND","0.2","40.5","22.6","85.2","0","0"],
    [9587,"2011-06-10T06:00:00","ND","19.42","30.98","681.83","2.08","ND","0.1","271.1","22.7","85.4","0.2","0"],
    [9588,"2011-06-10T07:00:00","ND","16.51","31.66","738.90","1.97","ND","0.5","189.7","23","83.7","30.3","0"],
    [9589,"2011-06-10T08:00:00","ND","16.47","31.47","1035.51","2.11","ND","0.1","157.9","23.9","80","107","0"],
    [9590,"2011-06-10T09:00:00","ND","18.33","39.26","1369.65","2.11","ND","1.1","193","25","72.6","221.9","0"],
    [9591,"2011-06-10T10:00:00","ND","21.30","62.42","1890.25","3.57","ND","0.8","110.2","26.5","66.9","277","0"],
    [9592,"2011-06-10T11:00:00","ND","22.41","61.31","1312.57","10.10","ND","1.4","149.4","27","65.2","353.5","0"],
    [9593,"2011-06-10T12:00:00","ND","22.98","80.36","1187.89","27.78","ND","0.6","168.2","27.7","63","347.7","0"],
    [9594,"2011-06-10T13:00:00","ND","27.76","76.63","1144.43","52.28","ND","0.6","12.1","29.6","56.5","629.3","0"],
    [9595,"2011-06-10T14:00:00","ND","26.02","71.30","1256.35","91.94","ND","0.4","119.7","31.2","51.4","495.4","0"],
    [9596,"2011-06-10T15:00:00","ND","19.79","64.64","1204.53","148.32","ND","1.5","101.9","30.8","52.7","299.6","0"],
    [9597,"2011-06-10T16:00:00","ND","19.55","51.52","1016.08","170.65","ND","0.9","268.2","30.6","53.6","162.9","0"],
    [9598,"2011-06-10T17:00:00","ND","16.55","36.07","746.97","98.14","ND","1.8","253.8","29.4","56","76.1","0"],
    [9599,"2011-06-10T18:00:00","ND","15.13","38.84","790.52","74.16","ND","1.2","254.3","28.9","55.2","47.7","0"],
    [9600,"2011-06-10T19:00:00","ND","11.68","51.88","777.60","41.51","ND","0.3","137.8","28.1","57.8","1.7","0"],
    [9601,"2011-06-10T20:00:00","ND","10.67","52.89","810.27","31.84","ND","0.3","20.8","27.1","61.1","0","0"],
    [9602,"2011-06-10T21:00:00","ND","12.01","77.54","1453.64","6.26","ND","0.2","76.4","26","69.3","0","0"],
    [9603,"2011-06-10T22:00:00","ND","14.59","77.05","2000.05","2.44","ND","0.2","225.9","25.4","72","0","0"],
    [9604,"2011-06-10T23:00:00","ND","20.26","56.13","1732.19","2.93","ND","0.1","39.6","24.8","72.9","0","0"],
    [9605,"2011-06-11T00:00:00","ND","23.07","54.19","2381.26","1.96","ND","0.3","156.2","24.1","77.6","0","0"],
    [9606,"2011-06-11T01:00:00","ND","17.27","47.77","1096.46","1.10","ND","0.3","214.8","23.5","80.7","0","0"],
    [9607,"2011-06-11T02:00:00","ND","16.63","44.68","1504.59","1.91","ND","0.2","256.3","22.8","81.5","0","0"],
    [9608,"2011-06-11T03:00:00","ND","17.09","35.18","1387.32","1.48","ND","0.2","27.2","22.5","82.6","0","0"],
    [9609,"2011-06-11T04:00:00","ND","13.25","34.40","1124.64","0.84","ND","0.1","319.4","22.1","84.7","0","0"],
    [9610,"2011-06-11T05:00:00","ND","11.88","34.32","1032.36","0.91","ND","1.3","351","21.8","86.2","0","0"],
    [9611,"2011-06-11T06:00:00","ND","18.59","31.69","1008.64","1.90","ND","0.4","12.3","21.9","84.2","0.5","0"],
    [9612,"2011-06-11T07:00:00","ND","28.34","32.11","816.26","1.13","ND","0.7","181","21.7","86.1","26.4","0"],
    [9613,"2011-06-11T08:00:00","ND","43.25","34.81","974.31","1.32","ND","0.2","131.2","23.6","76.8","204.9","0"],
    [9614,"2011-06-11T09:00:00","ND","38.44","32.39","1117.42","1.25","ND","0.6","108","25.7","66.5","361.6","0"],
    [9615,"2011-06-11T10:00:00","ND","56.99","42.21","1228.68","2.38","ND","1.3","100.4","26.3","66.6","552.9","0"],
    [9616,"2011-06-11T11:00:00","ND","53.95","49.56","966.51","12.44","ND","1.4","78.1","27.5","62.9","482.7","0"],
    [9617,"2011-06-11T12:00:00","ND","32.10","70.59","1282.29","36.55","ND","0.8","73.7","27.8","61.7","449.2","0"],
    [9618,"2011-06-11T13:00:00","ND","23.96","37.60","855.71","57.52","ND","0.7","50.9","29.3","56.5","567.8","0"],
    [9619,"2011-06-11T14:00:00","ND","23.55","27.23","778.63","71.09","ND","1.2","357.5","30.3","52.7","565.8","0"],
    [9620,"2011-06-11T15:00:00","ND","27.15","31.63","641.29","106.35","ND","1.2","28.5","30.5","52.8","479","0"],
    [9621,"2011-06-11T16:00:00","ND","47.50","33.34","758.39","127.27","ND","2.1","256.2","31.8","48.9","468.9","0"],
    [9622,"2011-06-11T17:00:00","ND","81.26","37.49","703.05","118.30","ND","2.7","254.2","31.4","46.7","291.4","0"],
    [9623,"2011-06-11T18:00:00","ND","44.78","26.93","631.91","72.36","ND","0.3","293.8","29.9","51","25.4","0"],
    [9624,"2011-06-11T19:00:00","ND","13.32","18.67","489.07","33.29","ND","0.5","235.7","29","52.2","0.3","0"],
    [9625,"2011-06-11T20:00:00","ND","14.50","40.75","766.25","23.59","ND","0.4","262.1","27.7","57.8","0","0"],
    [9626,"2011-06-11T21:00:00","ND","13.38","44.70","820.75","16.14","ND","0.9","92.6","27.1","63.4","0","0"],
    [9627,"2011-06-11T22:00:00","ND","16.02","66.71","1580.54","5.49","ND","0.5","155.1","26.3","67.7","0","0"],
    [9628,"2011-06-11T23:00:00","ND","27.95","63.28","1392.23","2.84","ND","0.1","241.9","25.2","73","0","0"],
    [9629,"2011-06-12T00:00:00","ND","34.93","59.27","1650.78","2.49","ND","0.1","347.9","24.7","74.2","0","0"],
    [9630,"2011-06-12T01:00:00","ND","24.79","53.76","2220.24","2.20","ND","0.4","14.9","23.8","79.1","0","0"],
    [9631,"2011-06-12T02:00:00","ND","21.40","56.67","2088.02","1.68","ND","0.2","295.6","23.5","79.9","0","0"],
    [9632,"2011-06-12T03:00:00","ND","37.54","46.51","1367.81","2.11","ND","0.1","267","23.2","81.1","0","0"],
    [9633,"2011-06-12T04:00:00","ND","30.78","48.75","1320.88","1.70","ND","0.3","111.9","22.8","83.8","0","0"],
    [9634,"2011-06-12T05:00:00","ND","20.65","45.67","1489.67","1.44","ND","0.2","181.7","22.4","85.9","0","0"],
    [9635,"2011-06-12T06:00:00","ND","15.71","39.04","1044.76","2.33","ND","0.3","240.6","21.8","88","0.5","0"],
    [9636,"2011-06-12T07:00:00","ND","13.22","31.95","883.98","1.86","ND","0.3","266.6","22.3","85.1","51.7","0"],
    [9637,"2011-06-12T08:00:00","ND","12.62","28.70","1067.11","1.32","ND","0.2","118.9","24.4","74.2","213.3","0"],
    [9638,"2011-06-12T09:00:00","ND","12.00","35.06","1006.10","2.10","ND","0.5","85.1","25.7","68.8","397.5","0"],
    [9639,"2011-06-12T10:00:00","ND","16.34","38.53","907.16","9.62","ND","0.7","85.7","27.3","62.1","540.1","0"],
    [9640,"2011-06-12T11:00:00","ND","20.31","41.62","981.28","35.22","ND","0.8","88.8","28.5","56.6","588","0"],
    [9641,"2011-06-12T12:00:00","ND","21.29","36.57","1008.38","61.83","ND","0.7","113.5","29.1","55.8","507.6","0"],
    [9642,"2011-06-12T13:00:00","ND","23.16","27.32","836.19","82.22","ND","0.4","112.8","30.6","52.9","582.1","0"],
    [9643,"2011-06-12T14:00:00","ND","27.42","22.26","828.67","99.00","ND","0.7","33.6","31.2","51.6","515.4","0"],
    [9644,"2011-06-12T15:00:00","ND","37.23","23.30","760.14","115.16","ND","0.2","277.5","31.2","51","165.8","0"],
    [9645,"2011-06-12T16:00:00","ND","50.29","21.65","701.67","115.24","ND","3","266.1","30.4","50.6","330.2","0"],
    [9646,"2011-06-12T17:00:00","ND","47.99","20.23","758.14","85.91","ND","2.8","265.9","30.7","49.5","260.2","0"],
    [9647,"2011-06-12T18:00:00","ND","15.30","13.76","653.81","39.10","ND","0.6","293.9","29.3","51.9","19.9","0"],
    [9648,"2011-06-12T19:00:00","ND","14.06","15.65","743.77","48.11","ND","0.1","13.6","28.3","54.1","1.2","0"],
    [9649,"2011-06-12T20:00:00","ND","12.85","28.60","799.22","38.69","ND","0.1","221.3","27.9","57.1","0","0"],
    [9650,"2011-06-12T21:00:00","ND","11.38","48.99","1064.22","20.63","ND","0.3","126.6","27.5","59.1","0","0"],
    [9651,"2011-06-12T22:00:00","ND","15.62","76.86","1825.24","3.82","ND","0.7","113.6","26.2","65.4","0","0"],
    [9652,"2011-06-12T23:00:00","ND","28.31","71.12","1633.31","1.77","ND","0.7","186.7","25.2","70.7","0","0"],
    [9653,"2011-06-13T00:00:00","ND","22.94","58.75","1857.13","1.81","ND","0.1","34.9","24.7","71.6","0","0"],
    [9654,"2011-06-13T01:00:00","ND","14.76","40.79","1041.45","1.57","ND","0.2","205.8","24.5","75.1","0","0"],
    [9655,"2011-06-13T02:00:00","ND","14.05","44.84","1006.44","1.80","ND","0.3","76.6","24.2","79.3","0","0"],
    [9656,"2011-06-13T03:00:00","ND","19.13","37.89","1028.28","2.90","ND","0.8","148.6","24","78.1","0","0"],
    [9657,"2011-06-13T04:00:00","ND","14.13","35.48","936.25","2.23","ND","0.3","135.7","23.7","79","0","0"],
    [9658,"2011-06-13T05:00:00","ND","13.44","24.87","729.99","4.49","ND","0.2","237.8","22.9","83.8","0","0"],
    [9659,"2011-06-13T06:00:00","ND","14.54","23.34","682.52","6.98","ND","0.2","238.9","22.8","82.8","0.5","0"],
    [9660,"2011-06-13T07:00:00","ND","11.21","26.02","727.78","2.73","ND","0.3","357.2","22.9","82.6","48.9","0"],
    [9661,"2011-06-13T08:00:00","ND","10.56","28.24","932.78","1.17","ND","0.3","56.7","24.8","75.4","210.7","0"],
    [9662,"2011-06-13T09:00:00","ND","14.14","41.80","1774.50","2.24","ND","0.9","81","26","70.9","308.4","0"],
    [9663,"2011-06-13T10:00:00","ND","28.45","74.31","1965.56","5.47","ND","1","120.4","27.7","62","564.8","0"],
    [9664,"2011-06-13T11:00:00","ND","29.43","124.50","2207.94","18.40","ND","0.9","83.1","28.7","59.2","604.9","0"],
    [9665,"2011-06-13T12:00:00","ND","ND","ND","ND","34.19","ND","1.3","72.4","29","57.6","364.7","0"],
    [9666,"2011-06-13T13:00:00","ND","ND","ND","ND","62.49","ND","0.9","94.9","29.1","56.5","227.7","0"],
    [9667,"2011-06-13T14:00:00","ND","ND","ND","ND","141.66","ND","0.6","262.5","30.3","53.7","514.5","0"],
    [9668,"2011-06-13T15:00:00","ND","17.79","22.43","967.77","79.05","ND","1.1","20.5","30.8","52.1","426.8","0"],
    [9669,"2011-06-13T16:00:00","ND","14.53","22.47","1109.51","74.56","ND","1.8","272.5","31.1","48.8","295.6","0"],
    [9670,"2011-06-13T17:00:00","ND","20.46","18.97","1017.08","75.40","ND","2.3","251.9","30.2","51.2","126.4","0"],
    [9671,"2011-06-13T18:00:00","ND","9.81","12.07","885.85","23.42","ND","1.9","252.6","28.9","54.7","17.7","0"],
    [9672,"2011-06-13T19:00:00","ND","6.50","21.03","1021.33","24.31","ND","2.7","250.9","28.1","57.3","0.9","0"],
    [9673,"2011-06-13T20:00:00","ND","7.81","25.16","1145.95","19.23","ND","0.8","260.1","27.9","57.5","0","0"],
    [9674,"2011-06-13T21:00:00","ND","8.81","24.63","983.24","17.40","ND","0.3","218.6","27.4","60.3","0","0"],
    [9675,"2011-06-13T22:00:00","ND","7.50","27.72","1131.74","17.29","ND","0.5","148","26.4","66.1","0","0"],
    [9676,"2011-06-13T23:00:00","ND","10.21","44.00","1588.37","13.54","ND","0.5","129.7","26","69","0","0"],
    [9677,"2011-06-14T00:00:00","ND","14.25","39.48","1413.83","10.91","ND","0.3","321.7","24.8","72.7","0","0"],
    [9678,"2011-06-14T01:00:00","ND","22.70","37.61","1396.70","8.28","ND","0.1","228.6","24","76.1","0","0"],
    [9679,"2011-06-14T02:00:00","ND","13.61","35.82","1153.18","8.63","ND","0.1","284.4","24.2","75.1","0","0"],
    [9680,"2011-06-14T03:00:00","ND","11.97","29.58","994.00","8.67","ND","0.6","27","23.7","79.3","0","0"],
    [9681,"2011-06-14T04:00:00","ND","12.13","29.65","1129.20","7.82","ND","0.2","304.8","22.9","84.2","0","0"],
    [9682,"2011-06-14T05:00:00","ND","10.46","22.93","875.90","8.79","ND","0.3","289.9","23.3","82.2","0","0"],
    [9683,"2011-06-14T06:00:00","ND","15.32","18.82","934.04","8.62","ND","0.2","272.5","23.3","81.7","0.1","0"],
    [9684,"2011-06-14T07:00:00","ND","17.74","19.72","945.43","8.57","ND","0.3","268.1","23.3","81.5","17.5","0"],
    [9685,"2011-06-14T08:00:00","ND","21.73","22.49","1161.85","8.78","ND","0.5","214.8","24.2","76","91","0"],
    [9686,"2011-06-14T09:00:00","ND","23.39","23.44","1896.60","9.84","ND","0.7","28.3","25.1","73.9","201.3","0"],
    [9687,"2011-06-14T10:00:00","ND","26.53","28.69","1799.21","9.36","ND","0.6","56.2","25.7","72.2","203.9","0"],
    [9688,"2011-06-14T11:00:00","ND","63.51","50.73","2262.15","13.36","ND","1.5","84.9","26.7","67.3","446","0"],
    [9689,"2011-06-14T12:00:00","ND","42.08","73.61","2142.99","19.42","ND","1","163.2","27.9","59.4","510.9","0"],
    [9690,"2011-06-14T13:00:00","ND","36.35","46.52","1469.08","29.25","ND","0.7","10.2","28.7","55.4","503.5","0"],
    [9691,"2011-06-14T14:00:00","ND","23.58","22.48","1032.25","48.28","ND","0.6","326.3","29.5","52.3","457.8","0"],
    [9692,"2011-06-14T15:00:00","ND","23.19","16.60","930.33","48.88","ND","1.1","53.1","29.8","53.3","341.4","0"],
    [9693,"2011-06-14T16:00:00","ND","21.38","15.85","919.61","64.23","ND","0.6","41.1","29.7","54.5","173.2","0"],
    [9694,"2011-06-14T17:00:00","ND","46.18","24.74","1082.22","59.74","ND","0.8","239.8","29.7","54.7","158.7","0"],
    [9695,"2011-06-14T18:00:00","ND","73.67","26.15","965.85","47.76","ND","0.3","207","28.9","56.4","48.4","0"],
    [9696,"2011-06-14T19:00:00","ND","28.14","18.99","1021.33","33.80","ND","1.8","241.1","27.8","58.1","1.8","0"],
    [9697,"2011-06-14T20:00:00","ND","14.39","22.19","1133.24","23.99","ND","1.1","249.8","27.5","59.3","0","0"],
    [9698,"2011-06-14T21:00:00","ND","10.97","31.41","1409.37","14.45","ND","0.4","106.8","27.1","61.5","0","0"],
    [9699,"2011-06-14T22:00:00","ND","7.97","26.38","1096.00","13.64","ND","1","137","26.2","66.4","0","0"],
    [9700,"2011-06-14T23:00:00","ND","9.63","37.05","1380.26","9.38","ND","0.2","92.9","25.6","68.7","0","0"],
    [9701,"2011-06-15T00:00:00","ND","19.14","36.50","1721.87","8.20","ND","0.8","102.6","24.5","73.4","0","0"],
    [9702,"2011-06-15T01:00:00","ND","22.81","34.97","1486.79","7.99","ND","0.3","168.9","24","75.2","0","0"],
    [9703,"2011-06-15T02:00:00","ND","17.08","29.73","1210.27","7.37","ND","0.7","170.3","23.5","77.6","0","0"],
    [9704,"2011-06-15T03:00:00","ND","11.05","25.60","946.07","6.91","ND","0.1","311.8","23.3","79.1","0","0"],
    [9705,"2011-06-15T04:00:00","ND","13.47","23.65","1082.12","7.14","ND","0.3","122.8","23.3","78.7","0","0"],
    [9706,"2011-06-15T05:00:00","ND","11.80","22.85","968.21","6.40","ND","1.1","135.3","23.1","81.3","0","0"],
    [9707,"2011-06-15T06:00:00","ND","14.53","21.00","853.73","6.77","ND","0.4","151.3","21.9","90.4","0.2","0.51"],
    [9708,"2011-06-15T07:00:00","ND","12.81","13.98","748.24","9.55","ND","0.2","329.5","21.9","91.1","26.8","0"],
    [9709,"2011-06-15T08:00:00","ND","7.29","16.48","1008.98","8.12","ND","0.6","44.6","22.4","89.4","137.1","0"],
    [9710,"2011-06-15T09:00:00","ND","7.32","19.32","1430.87","8.56","ND","0.9","68.8","24.4","78.5","350.3","0"],
    [9711,"2011-06-15T10:00:00","ND","24.87","33.18","2378.07","11.63","ND","0.8","68.5","26","68.3","451.3","0"],
    [9712,"2011-06-15T11:00:00","ND","30.23","36.70","1321.87","16.03","ND","0.6","44.3","27.2","64.1","494.4","0"],
    [9713,"2011-06-15T12:00:00","ND","36.82","20.11","1015.58","23.54","ND","0.6","66.5","28.3","58.7","610.3","0"],
    [9714,"2011-06-15T13:00:00","ND","29.59","21.71","1065.63","38.57","ND","1","281.1","29","55.2","298.5","0"],
    [9715,"2011-06-15T14:00:00","ND","24.67","19.32","940.40","55.66","ND","0.5","136.5","28.8","54.8","98.4","0"],
    [9716,"2011-06-15T15:00:00","ND","23.09","18.48","986.18","67.49","ND","3.5","313.5","22.5","84.5","26.3","43.94"],
    [9717,"2011-06-15T16:00:00","ND","23.75","21.87","1022.40","54.43","ND","0.2","279","22.6","82.3","102.2","0.25"],
    [9718,"2011-06-15T17:00:00","ND","10.63","27.13","1136.38","30.85","ND","0","317","24.5","77.7","99.9","0"],
    [9719,"2011-06-15T18:00:00","ND","10.44","39.99","1875.64","11.23","ND","0.3","338.6","24.7","76.2","25.4","0"],
    [9720,"2011-06-15T19:00:00","ND","10.68","53.34","2609.36","10.19","ND","0.2","184.5","24.6","76.7","0.6","0"],
    [9721,"2011-06-15T20:00:00","ND","11.57","48.96","2802.97","8.45","ND","0.2","302.8","24","78.4","0","0"],
    [9722,"2011-06-15T21:00:00","ND","18.12","47.43","4064.68","10.01","ND","0.2","237.4","23.8","81.2","0","0"],
    [9723,"2011-06-15T22:00:00","ND","18.50","41.66","3320.29","7.82","ND","0.1","289.1","23.2","84.4","0","0"],
    [9724,"2011-06-15T23:00:00","ND","18.07","38.96","4133.44","9.95","ND","0.4","338.3","22.6","86.6","0","0"],
    [9725,"2011-06-16T00:00:00","ND","14.22","32.30","3250.05","9.23","ND","0.3","272.6","22.2","86.7","0","0"],
    [9726,"2011-06-16T01:00:00","ND","11.52","26.77","1827.10","8.69","ND","0.2","241","22.1","88.5","0","0"],
    [9727,"2011-06-16T02:00:00","ND","15.13","23.39","1531.52","6.67","ND","0.1","263.1","21.7","89.9","0","0"],
    [9728,"2011-06-16T03:00:00","ND","10.68","21.90","1586.09","7.68","ND","0","207.5","21.7","88.8","0","0"],
    [9729,"2011-06-16T04:00:00","ND","8.24","20.38","1563.43","7.74","ND","0.1","287.2","21.4","90.2","0","0"],
    [9730,"2011-06-16T05:00:00","ND","6.94","19.98","1437.35","7.04","ND","0.1","28.5","21.3","89.1","0","0"],
    [9731,"2011-06-16T06:00:00","ND","6.52","18.23","1380.29","7.05","ND","0.2","7.5","21.3","88.3","0","0"],
    [9732,"2011-06-16T07:00:00","ND","7.30","21.24","1335.03","7.38","ND","0","189.4","21.5","88.4","15.5","0"],
    [9733,"2011-06-16T08:00:00","ND","13.70","23.34","1415.19","7.70","ND","0.1","288.3","22.1","87","47.2","0"],
    [9734,"2011-06-16T09:00:00","ND","18.53","26.24","1849.17","10.30","ND","0.1","352.6","23","83.6","155.3","0"],
    [9735,"2011-06-16T10:00:00","ND","31.23","33.36","2298.60","11.75","ND","0.3","86.2","24.3","78.9","237.3","0"],
    [9736,"2011-06-16T11:00:00","ND","45.56","53.97","2731.57","13.27","ND","1.3","54","25.1","77.6","409.4","0"],
    [9737,"2011-06-16T12:00:00","ND","55.36","102.10","3369.22","21.46","ND","1","33.2","25.8","70.7","288.2","0"],
    [9738,"2011-06-16T13:00:00","67.2","58.14","83.38","2354.80","36.60","ND","0.8","57.9","26.6","65.7","346.7","0"],
    [9739,"2011-06-16T14:00:00","66.7","71.81","73.72","2119.24","59.40","ND","0.8","56","27.2","63.5","394.6","0"],
    [9740,"2011-06-16T15:00:00","70.7","100.12","55.76","1661.85","54.23","ND","1.4","50","27.2","63.7","294.2","0"],
    [9741,"2011-06-16T16:00:00","54.9","100.75","34.93","1096.36","50.49","ND","1.3","67.8","27.5","63.8","210.3","0"],
    [9742,"2011-06-16T17:00:00","29.4","98.13","33.29","1143.67","50.28","ND","1.3","259.2","27.7","56.5","161","0"],
    [9743,"2011-06-16T18:00:00","18.5","57.64","26.17","1167.55","39.76","ND","0.3","327.8","27.2","57.2","44.7","0"],
    [9744,"2011-06-16T19:00:00","40.6","23.39","15.10","969.41","17.20","ND","0.8","248.9","26.2","61.5","1.5","0"],
    [9745,"2011-06-16T20:00:00","22.6","15.57","21.97","1380.26","11.21","ND","0.2","242.9","25.3","64","0","0"],
    [9746,"2011-06-16T21:00:00","24","22.32","28.69","1892.16","7.96","ND","0.1","274.7","24.3","70.2","0","0"],
    [9747,"2011-06-16T22:00:00","64.3","11.66","24.62","1828.67","7.01","ND","0.8","147.7","24.2","73.3","0","0"],
    [9748,"2011-06-16T23:00:00","64.2","17.40","28.50","2467.87","7.03","ND","0.2","81.6","23.2","79","0","0"],
    [9749,"2011-06-17T00:00:00","78","27.35","29.80","3871.54","10.16","ND","0.3","156.8","22.7","80.7","0","0"],
    [9750,"2011-06-17T01:00:00","46.4","26.62","23.47","2944.22","8.47","ND","0.1","260.7","22.3","82.8","0","0"],
    [9751,"2011-06-17T02:00:00","44.6","19.58","20.03","1929.89","6.53","ND","0.1","286.9","22.2","82.8","0","0"],
    [9752,"2011-06-17T03:00:00","23.3","15.76","17.80","1929.23","6.16","ND","0.1","198","22.4","83","0","0"],
    [9753,"2011-06-17T04:00:00","35.2","13.17","17.23","1544.43","5.80","ND","0.3","47.7","22.2","84.2","0","0"],
    [9754,"2011-06-17T05:00:00","51.9","11.37","17.35","1339.12","5.83","ND","0.1","285","21.5","89.9","0","1.52"],
    [9755,"2011-06-17T06:00:00","49","10.62","17.65","1177.44","5.99","ND","0.4","97.7","21.2","93","0.1","0"],
    [9756,"2011-06-17T07:00:00","30.3","42.97","17.52","1345.89","7.44","ND","0.3","284.1","21.3","92.8","25.3","0.25"],
    [9757,"2011-06-17T08:00:00","50.4","33.46","17.35","1368.97","7.17","ND","0.5","357.8","22.2","86.9","90.9","0"],
    [9758,"2011-06-17T09:00:00","62.1","21.62","18.55","1724.96","8.24","ND","0.5","64.2","23.6","80.3","200","0"],
    [9759,"2011-06-17T10:00:00","63","48.04","27.65","1904.18","8.96","ND","0.9","41.1","24.7","74","360.8","0"],
    [9760,"2011-06-17T11:00:00","33.7","201.50","41.90","1773.90","11.41","ND","0.9","82.9","25.8","69.2","319.6","0"],
    [9761,"2011-06-17T12:00:00","50.2","154.25","37.73","1148.68","16.78","ND","0.9","104.6","25.7","69.2","122.9","0"],
    [9762,"2011-06-17T13:00:00","32.9","64.53","27.20","1113.85","27.68","ND","0.3","73.5","26","67.8","242.5","0"],
    [9763,"2011-06-17T14:00:00","46.9","36.54","25.40","1046.00","33.02","ND","0.4","216.9","27.3","63","436.5","0"],
    [9764,"2011-06-17T15:00:00","49.1","30.63","27.33","1292.98","43.07","ND","0.6","102.5","28.2","60","524.7","0"],
    [9765,"2011-06-17T16:00:00","47.2","27.12","31.37","1401.07","57.94","ND","0.5","261","28.8","55.9","291.1","0"],
    [9766,"2011-06-17T17:00:00","46.8","21.97","28.38","1322.65","74.25","ND","1.3","261.3","27.9","55.7","48.2","0"],
    [9767,"2011-06-17T18:00:00","25.4","18.02","26.76","1330.27","60.89","ND","0.3","247.3","27.2","58.4","33","0"],
    [9768,"2011-06-17T19:00:00","14.6","9.98","23.85","1200.23","15.36","ND","0.3","142.4","26.3","60.3","2.5","0"],
    [9769,"2011-06-17T20:00:00","44.6","9.76","28.90","1794.94","9.80","ND","0.3","95.7","25.8","62.1","0","0"],
    [9770,"2011-06-17T21:00:00","82.2","10.72","31.65","1849.38","6.67","ND","1.1","128.6","25.9","61.8","0","0"],
    [9771,"2011-06-17T22:00:00","56","14.93","33.57","2470.49","7.70","ND","0.4","147.4","24.7","69.2","0","0"],
    [9772,"2011-06-17T23:00:00","46.9","18.22","35.17","2597.91","8.31","ND","0.6","128.8","24","74.6","0","0"],
    [9773,"2011-06-18T00:00:00","39","17.68","26.54","2066.59","7.41","ND","0","157.2","23.6","76.1","0","0"],
    [9774,"2011-06-18T01:00:00","31","16.80","21.52","1664.73","7.62","ND","0","4.5","23.3","78.7","0","0"],
    [9775,"2011-06-18T02:00:00","43","16.75","19.76","1663.05","6.65","ND","1.5","348.8","22.1","86.3","0","0"],
    [9776,"2011-06-18T03:00:00","44.6","15.33","19.68","1667.65","7.44","ND","0.2","8","21.9","87.2","0","0"],
    [9777,"2011-06-18T04:00:00","30.4","20.93","19.83","1337.75","8.97","ND","0.2","266.2","21.7","87.7","0","0"],
    [9778,"2011-06-18T05:00:00","56.1","24.10","18.53","985.64","7.26","ND","0.2","230","21.8","86.8","0","0"],
    [9779,"2011-06-18T06:00:00","30","18.46","16.64","1235.30","7.69","ND","0.3","8.4","21.9","86.8","0.1","0"],
    [9780,"2011-06-18T07:00:00","45.4","18.59","17.84","1292.41","7.63","ND","0.4","34.7","21.8","87.3","16.3","0"],
    [9781,"2011-06-18T08:00:00","40","18.38","20.36","1416.63","8.08","ND","0.2","191.6","22.3","86.2","82.3","0"],
    [9782,"2011-06-18T09:00:00","47.7","33.91","22.19","1634.73","8.93","ND","0.1","122.3","23.3","81.3","150.5","0"],
    [9783,"2011-06-18T10:00:00","71.3","47.47","29.59","1833.91","10.32","ND","0.9","49","24.1","77.7","239.8","0"],
    [9784,"2011-06-18T11:00:00","53.1","109.87","47.24","1953.07","12.48","ND","0.7","67","24.4","77.5","188.6","0"],
    [9785,"2011-06-18T12:00:00","45.7","214.14","50.56","1577.76","14.36","ND","0.8","51.3","24.7","75.8","241.3","0"],
    [9786,"2011-06-18T13:00:00","39.9","69.18","32.38","1350.46","22.56","ND","0.8","34.4","26.1","69.6","512.8","0"],
    [9787,"2011-06-18T14:00:00","39.7","33.40","31.85","1368.30","27.89","ND","1.1","36.4","27.1","64.3","488.7","0"],
    [9788,"2011-06-18T15:00:00","20.7","35.04","25.51","1188.29","42.13","ND","0.7","36.7","27.8","60.9","393","0"],
    [9789,"2011-06-18T16:00:00","32","40.73","19.73","959.79","50.31","ND","0.4","240.3","28.4","58.4","289.3","0"],
    [9790,"2011-06-18T17:00:00","18.8","60.45","20.00","1008.05","51.94","ND","1","51.6","28","61.2","125.1","0"],
    [9791,"2011-06-18T18:00:00","36.7","69.26","24.58","1053.00","50.52","ND","0.7","47.7","27.5","63","22.7","0"],
    [9792,"2011-06-18T19:00:00","27.2","58.63","27.46","1109.01","47.02","ND","0.4","47.9","26.9","63.4","0.6","0"],
    [9793,"2011-06-18T20:00:00","67.9","56.46","26.99","968.45","39.12","ND","0.8","253","26.1","67.3","0","0"],
    [9794,"2011-06-18T21:00:00","36.8","28.11","26.37","1333.81","14.77","ND","0.9","257.7","25.9","63.8","0","0"],
    [9795,"2011-06-18T22:00:00","28.8","21.81","40.33","1700.62","10.27","ND","0.7","177.6","25.5","67.7","0","0"],
    [9796,"2011-06-18T23:00:00","18","12.47","23.09","1090.15","12.84","ND","0.3","231.7","24.7","73.4","0","0"],
    [9797,"2011-06-19T00:00:00","43","11.83","37.05","1922.68","8.84","ND","0.1","60.4","24.1","77.4","0","0"],
    [9798,"2011-06-19T01:00:00","29.5","12.70","25.89","1507.63","9.37","ND","0.4","138.7","24.1","76.1","0","0"],
    [9799,"2011-06-19T02:00:00","20","12.59","22.55","1473.37","8.90","ND","0.6","291.5","23.1","80.6","0","0"],
    [9800,"2011-06-19T03:00:00","12.8","12.31","19.29","1616.39","6.94","ND","0.2","199.9","22.9","81.6","0","0"],
    [9801,"2011-06-19T04:00:00","9.2","8.85","17.75","1342.29","6.10","ND","0.6","163.9","23.1","79.7","0","0"],
    [9802,"2011-06-19T05:00:00","5.8","10.65","16.51","1252.13","7.14","ND","0.2","149.1","23","79.2","0","0"],
    [9803,"2011-06-19T06:00:00","17.9","9.76","15.71","989.99","8.50","ND","0.2","79.8","22.5","83.7","0.1","0"],
    [9804,"2011-06-19T07:00:00","13.7","9.56","16.36","920.16","7.84","ND","0","146.5","22","84.5","19.5","0"],
    [9805,"2011-06-19T08:00:00","10","9.29","16.02","1009.33","7.62","ND","0.1","34.9","22.8","78.7","113.5","0"],
    [9806,"2011-06-19T09:00:00","7.1","10.04","19.22","1012.06","8.38","ND","0.4","75.3","23.7","76.8","223.2","0"],
    [9807,"2011-06-19T10:00:00","12.5","12.42","17.21","980.92","11.59","ND","0.8","27.1","25.5","69.4","580.6","0"],
    [9808,"2011-06-19T11:00:00","11.1","12.91","22.47","1009.83","16.30","ND","0.9","44.5","27.4","62.3","662.4","0"],
    [9809,"2011-06-19T12:00:00","19.3","73.93","19.71","993.16","20.93","ND","0.8","43.7","27.8","60.5","299.9","0"],
    [9810,"2011-06-19T13:00:00","11.7","63.90","14.39","867.28","29.22","ND","1.2","236.8","27.9","58.8","205","0"],
    [9811,"2011-06-19T14:00:00","25.9","51.38","12.65","890.70","38.08","ND","1.3","249.3","22.8","89.4","92.9","14.22"],
    [9812,"2011-06-19T15:00:00","19.7","29.39","11.80","955.21","35.24","ND","0.3","353.7","23.8","85.7","53.9","0.25"],
    [9813,"2011-06-19T16:00:00","10.7","8.14","15.03","1163.81","16.10","ND","0.7","32.5","23.8","81.6","97.2","0.25"],
    [9814,"2011-06-19T17:00:00","6.2","6.97","28.33","1757.13","10.61","ND","1.2","55.6","23.9","82.4","268.7","0"],
    [9815,"2011-06-19T18:00:00","29.6","8.69","17.70","1198.45","12.53","ND","0.1","220.2","24.5","79.2","73.9","0"],
    [9816,"2011-06-19T19:00:00","25.4","9.29","8.91","960.70","15.22","ND","0.2","260","23.8","83.2","2.4","0"],
    [9817,"2011-06-19T20:00:00","43.7","18.09","19.51","1198.04","14.52","ND","0.1","282.3","22.9","85.7","0","0"],
    [9818,"2011-06-19T21:00:00","27.8","15.84","32.20","2297.82","8.81","ND","0","253.9","22.7","86.6","0","0"],
    [9819,"2011-06-19T22:00:00","48.4","12.82","28.05","2603.19","8.37","ND","0.2","327.5","22.4","86","0","0"],
    [9820,"2011-06-19T23:00:00","32.8","13.14","25.39","3372.77","8.54","ND","0.1","160.7","22.4","86.6","0","0"],
    [9821,"2011-06-20T00:00:00","28.8","9.51","22.74","1987.32","7.16","ND","0.3","26.5","21.9","87.9","0","0"],
    [9822,"2011-06-20T01:00:00","19.7","9.21","21.23","2414.76","8.20","ND","0.1","242.1","21.6","89.8","0","0"],
    [9823,"2011-06-20T02:00:00","27.8","7.46","19.18","1427.00","7.45","ND","0.1","63.4","21.1","90.9","0","0"],
    [9824,"2011-06-20T03:00:00","14.7","8.25","15.80","1481.11","7.36","ND","0.2","27.5","20.6","92.4","0","0"],
    [9825,"2011-06-20T04:00:00","17.2","8.36","14.66","1027.11","6.75","ND","0.2","279.7","20.5","93","0","0"],
    [9826,"2011-06-20T05:00:00","17.4","7.02","14.06","868.80","5.68","ND","0.1","0.8","20.5","92.6","0","0"],
    [9827,"2011-06-20T06:00:00","22","5.75","12.13","1015.48","6.80","ND","0","169.4","20.7","92.2","0.2","0"],
    [9828,"2011-06-20T07:00:00","13.6","5.53","11.51","1095.20","6.61","ND","0.2","82.6","21","91.2","27.5","0"],
    [9829,"2011-06-20T08:00:00","31.8","6.15","11.30","1231.95","6.80","ND","0.3","77.6","21.5","89.9","130.7","0"],
    [9830,"2011-06-20T09:00:00","41","9.35","16.34","2083.16","8.55","ND","0.3","188.5","22.9","83.5","282.8","0"],
    [9831,"2011-06-20T10:00:00","48.7","16.24","28.86","1945.18","9.86","ND","0.9","147.9","24.4","73.8","457.9","0"],
    [9832,"2011-06-20T11:00:00","29.7","29.86","47.24","1977.91","15.30","ND","0.5","179","25.8","66.4","371.6","0"],
    [9833,"2011-06-20T12:00:00","39.4","26.48","30.06","1412.88","25.62","ND","0.1","302.9","27.3","60.3","523","0"],
    [9834,"2011-06-20T13:00:00","22.2","22.18","23.08","1235.26","41.43","ND","0.8","101.6","28.5","55.1","664.5","0"],
    [9835,"2011-06-20T14:00:00","35.4","18.27","21.55","1205.42","61.59","ND","0.6","76.4","29.6","52","593.6","0"],
    [9836,"2011-06-20T15:00:00","30.3","17.40","22.38","1186.56","83.83","ND","0.7","285.2","30.7","49.1","572.5","0"],
    [9837,"2011-06-20T16:00:00","38","15.86","23.23","1202.55","98.86","ND","1.5","271.2","30.7","47.3","402.3","0"],
    [9838,"2011-06-20T17:00:00","21.6","16.64","19.64","1085.79","82.54","ND","3.1","270.6","30","48.9","271.6","0"],
    [9839,"2011-06-20T18:00:00","20.6","ND","ND","ND","ND","ND","2.2","249.5","28.4","53.1","72","0"],
    [9840,"2011-06-20T19:00:00","11.9","11.24","14.61","834.25","56.39","ND","0.2","274","27.4","56.3","3.2","0"],
    [9841,"2011-06-20T20:00:00","17.7","13.07","27.51","1062.45","33.27","ND","0.2","258.5","26.5","60.7","0","0"],
    [9842,"2011-06-20T21:00:00","59.9","14.35","39.28","1197.43","28.72","ND","0.3","189.3","25.4","66.7","0","0"],
    [9843,"2011-06-20T22:00:00","53.1","17.26","59.60","2489.30","19.49","ND","0.4","108.7","24.6","68.7","0","0"],
    [9844,"2011-06-20T23:00:00","32.1","19.34","61.64","3020.34","19.17","ND","0.4","194.2","23.5","74","0","0"],
    [9845,"2011-06-21T00:00:00","25.2","23.39","38.06","1572.98","18.31","ND","0.2","227.8","23.5","74","0","0"],
    [9846,"2011-06-21T01:00:00","27.8","11.58","27.98","1037.26","16.73","ND","0.6","337.7","22.3","80.8","0","0"],
    [9847,"2011-06-21T02:00:00","36.8","12.98","33.74","1305.51","16.92","ND","0.4","3","21.8","83.5","0","0"],
    [9848,"2011-06-21T03:00:00","34.5","22.94","28.82","1121.97","16.99","ND","0.3","301.1","22","82.1","0","0"],
    [9849,"2011-06-21T04:00:00","24.7","32.32","24.46","839.22","16.63","ND","0.4","234.8","21.9","82.3","0","0"],
    [9850,"2011-06-21T05:00:00","19.5","22.56","24.06","827.59","16.76","ND","0.2","109.3","22.3","81.5","0","0"],
    [9851,"2011-06-21T06:00:00","14.6","32.64","24.49","885.48","16.32","ND","0","215.7","22.2","82.8","0.2","0"],
    [9852,"2011-06-21T07:00:00","10.1","35.87","23.53","839.78","16.68","ND","0.1","222.5","22.2","83.5","53.9","0"],
    [9853,"2011-06-21T08:00:00","35.1","19.57","22.02","953.27","17.42","ND","0.2","354.7","23.4","77.6","109.5","0"],
    [9854,"2011-06-21T09:00:00","64.5","19.89","25.46","1447.11","18.37","ND","0.4","15","24.1","75.7","227","0"],
    [9855,"2011-06-21T10:00:00","69.3","27.66","42.19","1793.17","20.41","ND","1.1","66.1","26","67","583.9","0"],
    [9856,"2011-06-21T11:00:00","58.5","36.15","54.99","1609.23","25.83","ND","0.8","93","27.5","61.3","624.9","0"],
    [9857,"2011-06-21T12:00:00","43.5","40.00","36.31","1016.59","44.82","ND","0.9","64.6","28.2","58.4","588.8","0"],
    [9858,"2011-06-21T13:00:00","22.9","26.88","24.23","1018.96","66.25","ND","0.6","89.6","28.8","56.5","279.1","0"],
    [9859,"2011-06-21T14:00:00","45.1","32.93","19.53","835.36","81.28","ND","0.7","128.5","29.6","54.1","398.8","0"],
    [9860,"2011-06-21T15:00:00","46.3","32.03","18.86","802.67","88.35","ND","1.8","309.3","29.7","53.6","417.9","0"],
    [9861,"2011-06-21T16:00:00","37.9","26.43","22.73","930.94","94.94","ND","1.4","336.1","30.7","49","503.3","0"],
    [9862,"2011-06-21T17:00:00","37","34.74","21.42","782.24","85.80","ND","2.5","280.3","30","49.8","269.1","0"],
    [9863,"2011-06-21T18:00:00","21.1","18.54","14.17","792.08","45.59","ND","1","276.1","29.6","50.2","114.9","0"],
    [9864,"2011-06-21T19:00:00","26.2","8.01","13.25","767.77","41.15","ND","0.7","236.2","28.1","54.3","4.1","0"],
    [9865,"2011-06-21T20:00:00","14.9","9.88","24.61","1053.35","39.04","ND","0.7","248.5","27.3","56.9","0","0"],
    [9866,"2011-06-21T21:00:00","22","9.66","40.71","1523.87","22.07","ND","0.3","156.3","26.6","60.1","0","0"],
    [9867,"2011-06-21T22:00:00","43.2","9.72","40.35","1623.98","19.79","ND","0.4","135.6","25.5","66.2","0","0"],
    [9868,"2011-06-21T23:00:00","87.6","13.94","47.01","2398.34","17.77","ND","0.2","335.2","24.6","71.4","0","0"],
    [9869,"2011-06-22T00:00:00","73.8","15.20","40.35","1716.10","18.44","ND","0.2","79","23.8","74.8","0","0"],
    [9870,"2011-06-22T01:00:00","55.8","29.59","34.57","1597.39","21.30","ND","0.2","340.7","23.5","76.8","0","0"],
    [9871,"2011-06-22T02:00:00","28.6","17.00","33.81","1595.78","18.43","ND","0.6","180.8","23.2","79.1","0","0"],
    [9872,"2011-06-22T03:00:00","48.6","19.48","27.84","1184.24","17.36","ND","0.3","245.4","22.8","81.2","0","0"],
    [9873,"2011-06-22T04:00:00","26.1","15.16","22.15","921.09","16.97","ND","0.2","270","22.8","81.4","0","0"],
    [9874,"2011-06-22T05:00:00","25.7","10.01","20.73","841.49","16.23","ND","0.1","264.2","22.6","82.2","0","0"],
    [9875,"2011-06-22T06:00:00","20.4","8.71","19.93","761.38","16.02","ND","0.3","4.5","22.2","84","0.2","0"],
    [9876,"2011-06-22T07:00:00","12.1","7.97","18.02","817.09","16.39","ND","0.4","44.6","22.1","83.9","42.6","0"],
    [9877,"2011-06-22T08:00:00","37.2","9.16","21.90","1043.70","18.56","ND","0.2","169.4","23.1","79.8","105","0"],
    [9878,"2011-06-22T09:00:00","37","32.47","26.95","1388.73","24.94","ND","0.2","82.8","24.2","74.8","214.3","0"],
    [9879,"2011-06-22T10:00:00","58.8","40.71","36.55","1839.48","26.01","ND","0.8","57.5","25.9","68.5","411.5","0"],
    [9880,"2011-06-22T11:00:00","43.1","30.99","60.60","1918.94","33.95","ND","0.1","152.7","27.4","61.6","572.7","0"],
    [9881,"2011-06-22T12:00:00","61.6","22.03","56.50","1547.48","55.25","ND","0.3","108.3","28.9","56","561.3","0"],
    [9882,"2011-06-22T13:00:00","52.7","25.54","49.99","1439.14","82.54","ND","0.5","45.1","29.5","54.2","494.6","0"],
    [9883,"2011-06-22T14:00:00","73.8","17.21","34.47","1128.02","116.85","ND","0.8","315.9","30.2","51.8","445.2","0"],
    [9884,"2011-06-22T15:00:00","52.6","18.42","31.18","1107.32","135.33","ND","0.9","264.6","31.1","46.7","432.6","0"],
    [9885,"2011-06-22T16:00:00","27.7","31.87","30.00","1075.53","125.76","ND","3.3","274.6","31.2","46.6","483.1","0"],
    [9886,"2011-06-22T17:00:00","15.2","13.61","11.75","748.44","58.19","ND","2.5","264.6","30.3","47.6","225.2","0"],
    [9887,"2011-06-22T18:00:00","11.7","7.60","13.11","816.19","47.93","ND","1.1","276.6","29.2","49.8","69.8","0"],
    [9888,"2011-06-22T19:00:00","11.4","7.17","20.49","964.26","48.86","ND","0.2","107.4","28","53.9","1.8","0"],
    [9889,"2011-06-22T20:00:00","8.1","6.91","25.91","937.28","39.13","ND","1","104.4","27.9","55.2","0","0"],
    [9890,"2011-06-22T21:00:00","26","7.65","34.27","1203.03","29.19","ND","1","99.8","26.7","61.2","0","0"],
    [9891,"2011-06-22T22:00:00","27.7","8.33","46.35","1255.84","20.78","ND","2.1","264.8","25.9","62","0","0"],
    [9892,"2011-06-22T23:00:00","15.9","16.93","43.98","1677.64","17.79","ND","0.5","145.3","25.5","64","0","0"],
    [9893,"2011-06-23T00:00:00","28.7","10.87","22.73","998.35","24.10","ND","1","134","24.9","69.7","0","0"],
    [9894,"2011-06-23T01:00:00","19.3","13.33","31.33","973.44","18.54","ND","0.3","330.1","24.1","73.6","0","0"],
    [9895,"2011-06-23T02:00:00","12.3","9.43","30.48","913.72","29.01","ND","0.5","322.2","23.4","77.4","0","0"],
    [9896,"2011-06-23T03:00:00","20.4","10.66","27.67","820.41","23.95","ND","0.5","25.2","22.8","82.1","0","0"],
    [9897,"2011-06-23T04:00:00","29.8","10.14","28.53","921.09","20.45","ND","0.1","271.4","22.8","81.8","0","0"],
    [9898,"2011-06-23T05:00:00","22.8","17.37","28.16","898.35","21.04","ND","0.7","146.1","23.2","78.8","0","0"],
    [9899,"2011-06-23T06:00:00","15.9","22.89","25.46","842.63","20.60","ND","0.9","154.5","22.5","83.6","0","3.81"],
    [9900,"2011-06-23T07:00:00","10.6","22.32","23.81","795.20","21.23","ND","0.4","297.8","21.6","92.6","6.2","0.51"],
    [9901,"2011-06-23T08:00:00","15.9","18.96","22.25","724.82","21.42","ND","0.5","199.5","22.3","88.9","77.2","0"],
    [9902,"2011-06-23T09:00:00","18.6","9.50","28.57","1180.64","18.73","ND","0.7","189.6","23.7","80","235.4","0"],
    [9903,"2011-06-23T10:00:00","30.7","12.24","33.38","1927.63","19.79","ND","0.9","159.2","24.7","75.7","321.3","0"],
    [9904,"2011-06-23T11:00:00","25.6","22.01","51.37","1979.91","25.78","ND","0.6","168.5","25.4","70.9","204.1","0"],
    [9905,"2011-06-23T12:00:00","19.3","20.99","67.86","2179.58","43.54","ND","0.5","221","25.9","69.1","255.8","0"],
    [9906,"2011-06-23T13:00:00","10.7","15.19","59.24","1666.15","48.97","ND","0.3","102.1","26.9","64","382","0"],
    [9907,"2011-06-23T14:00:00","24.5","14.11","57.94","1648.66","59.72","ND","0.5","145.7","26.6","66.1","253.8","0.25"],
    [9908,"2011-06-23T15:00:00","14.1","14.59","43.21","1451.22","74.77","ND","0.5","289.6","27.7","59.4","501.1","0"],
    [9909,"2011-06-23T16:00:00","9.5","12.69","46.20","1468.10","86.75","ND","2","8.5","27.3","58.4","183.5","0"],
    [9910,"2011-06-23T17:00:00","5.6","8.56","18.28","946.65","63.70","ND","0.4","47.2","27.8","56.1","210.7","0"],
    [9911,"2011-06-23T18:00:00","11.5","14.04","20.08","901.97","40.59","ND","0.4","334.4","26.9","57.7","61.6","0"],
    [9912,"2011-06-23T19:00:00","11.8","13.71","16.30","864.68","33.63","ND","0.6","213","26.2","60.5","2.1","0"],
    [9913,"2011-06-23T20:00:00","16.6","8.66","24.66","1000.69","22.05","ND","0.2","323.9","25.7","60.9","0","0"],
    [9914,"2011-06-23T21:00:00","12.6","16.15","30.81","1423.89","18.63","ND","0.8","128.9","25.6","61.5","0","0"],
    [9915,"2011-06-23T22:00:00","21.4","9.66","31.27","1147.91","18.50","ND","0.5","145.3","24.9","65.7","0","0"],
    [9916,"2011-06-23T23:00:00","47.2","12.39","34.08","1614.76","16.73","ND","0.3","133","23.7","72.6","0","0"],
    [9917,"2011-06-24T00:00:00","49.1","13.46","32.39","1767.95","17.37","ND","0.4","103.1","23.5","73.7","0","0"],
    [9918,"2011-06-24T01:00:00","33.2","20.02","26.48","1413.40","19.25","ND","0.3","240.3","23.3","76.3","0","0"],
    [9919,"2011-06-24T02:00:00","17.7","16.39","25.99","1264.37","17.11","ND","0.8","165.2","23.2","74.9","0","0"],
    [9920,"2011-06-24T03:00:00","12.4","20.00","23.96","1161.46","17.09","ND","0.2","126.5","22.5","78.1","0","0"],
    [9921,"2011-06-24T04:00:00","15.3","12.73","20.94","852.00","18.99","ND","0.2","51.4","22.1","82","0","0"],
    [9922,"2011-06-24T05:00:00","15.4","8.93","17.14","714.71","18.77","ND","0.4","6.8","21.4","85.2","0","0"],
    [9923,"2011-06-24T06:00:00","41.2","10.54","22.16","939.37","16.07","ND","0.2","306.5","21.3","84.5","0.2","0"],
    [9924,"2011-06-24T07:00:00","38.9","13.12","20.11","950.36","16.86","ND","0.2","260.9","21.6","84.3","12.1","0"],
    [9925,"2011-06-24T08:00:00","48.1","25.39","20.26","1041.93","16.22","ND","0.1","10","22.4","79.7","90.3","0"],
    [9926,"2011-06-24T09:00:00","50","52.73","23.37","1521.72","51.59","ND","0.4","78.5","23.8","74","255.3","0"],
    [9927,"2011-06-24T10:00:00","56.8","110.96","31.87","1768.54","89.16","ND","0.1","184.1","24.6","70.1","426.4","0"],
    [9928,"2011-06-24T11:00:00","30","125.26","37.75","1395.76","97.58","ND","1","91.5","26.5","63.3","528.5","0"],
    [9929,"2011-06-24T12:00:00","33.3","91.01","36.55","1013.21","119.32","ND","0.5","151.3","27.4","59","382","0"],
    [9930,"2011-06-24T13:00:00","24.5","47.97","37.00","1085.54","67.95","ND","0.8","34.4","27.6","59.3","370.6","0"],
    [9931,"2011-06-24T14:00:00","31","24.11","27.72","982.26","78.33","ND","1.2","27.2","28","58.4","393.7","0"],
    [9932,"2011-06-24T15:00:00","22.2","21.73","21.93","995.14","114.96","ND","1.1","89.4","28.5","56.5","352.4","0"],
    [9933,"2011-06-24T16:00:00","25.2","37.99","21.42","985.20","162.78","ND","1.5","313.3","28.4","53.8","177","0"],
    [9934,"2011-06-24T17:00:00","15.3","44.87","22.86","903.77","87.17","ND","0.9","260.6","28.1","53.7","130.4","0"],
    [9935,"2011-06-24T18:00:00","12.8","12.36","18.92","914.44","30.81","ND","1.3","218","27.5","55.3","51.8","0"],
    [9936,"2011-06-24T19:00:00","21","7.66","19.90","935.73","26.42","ND","4.3","186.6","22.1","78.5","2.4","13.21"],
    [9937,"2011-06-24T20:00:00","23.9","8.10","21.50","1055.05","40.73","ND","1","314.8","20.2","90.7","0","10.92"],
    [9938,"2011-06-24T21:00:00","26","8.71","26.61","1082.07","50.03","ND","0.3","143.5","20.9","92","0","4.57"],
    [9939,"2011-06-24T22:00:00","26.1","6.90","24.48","1073.35","27.62","ND","0.6","81.6","20.4","91.7","0","0"],
    [9940,"2011-06-24T23:00:00","14.3","8.00","35.49","1951.31","17.41","ND","0.5","256","20.6","91.6","0","0.25"],
    [9941,"2011-06-25T00:00:00","8.7","8.78","35.29","1275.42","65.21","ND","0.3","204.5","21","93","0","0"],
    [9942,"2011-06-25T01:00:00","6.8","11.79","34.91","1175.44","60.87","ND","0.2","224.8","21.1","91.9","0","0"],
    [9943,"2011-06-25T02:00:00","5.2","10.86","32.10","1639.39","16.25","ND","0.9","136.9","21.2","91","0","0"],
    [9944,"2011-06-25T03:00:00","5.9","11.82","28.86","1458.99","15.91","ND","0.4","155.4","20.6","92.5","0","0"],
    [9945,"2011-06-25T04:00:00","10","13.63","27.61","1478.59","15.74","ND","0","315.2","20.7","93.7","0","0"],
    [9946,"2011-06-25T05:00:00","18.6","10.10","21.40","1106.50","15.22","ND","0.2","49.4","20.6","94.5","0","0"],
    [9947,"2011-06-25T06:00:00","28.5","8.57","20.88","1207.70","15.78","ND","0.1","355.3","20.6","95.2","0","2.29"],
    [9948,"2011-06-25T07:00:00","21.7","8.75","22.53","993.25","16.18","ND","0","125.2","20.7","95.7","9.1","0"],
    [9949,"2011-06-25T08:00:00","48.3","9.43","22.26","1287.15","17.60","ND","0.1","50.9","20.8","96.5","66.6","4.83"],
    [9950,"2011-06-25T09:00:00","30.3","10.49","22.45","1739.37","18.69","ND","0.5","56.9","21.2","93.7","69.3","0.25"],
    [9951,"2011-06-25T10:00:00","41.4","13.35","28.04","1707.81","19.49","ND","0.9","38.7","21.4","92.1","189.2","0"],
    [9952,"2011-06-25T11:00:00","22","17.40","37.62","1776.88","19.60","ND","0.2","146.6","23.1","80","302.1","0.25"],
    [9953,"2011-06-25T12:00:00","35.6","21.09","37.99","1388.73","21.47","ND","0.7","45.8","23.7","79.7","309.5","0"],
    [9954,"2011-06-25T13:00:00","55.8","40.98","34.60","1049.36","32.02","ND","1.2","64.9","25.2","72.8","511.7","0"],
    [9955,"2011-06-25T14:00:00","33.1","65.97","41.41","1077.59","32.42","ND","0.5","82.2","26.4","67.5","388.6","0"],
    [9956,"2011-06-25T15:00:00","21","121.52","44.75","989.85","37.16","ND","0.7","297.1","27.1","61","414.1","0"],
    [9957,"2011-06-25T16:00:00","11","65.94","30.18","911.41","56.70","ND","3.2","269","27.5","55","494.8","0"],
    [9958,"2011-06-25T17:00:00","6.9","34.72","19.90","854.86","47.77","ND","3.4","278.6","26.8","55","235.1","0"],
    [9959,"2011-06-25T18:00:00","5.6","10.76","8.32","714.57","29.57","ND","1.3","297.5","25.9","55.7","55.8","0"],
    [9960,"2011-06-25T19:00:00","3.8","7.17","8.54","746.89","31.53","ND","1.1","312.2","25.3","56.4","2.9","0"],
    [9961,"2011-06-25T20:00:00","4.3","5.46","11.97","779.80","30.68","ND","0.2","77","25.2","57.7","0","0"],
    [9962,"2011-06-25T21:00:00","11.9","5.03","11.89","791.00","29.12","ND","0.7","166.6","24.7","60.2","0","0"],
    [9963,"2011-06-25T22:00:00","29.1","7.09","26.91","1155.90","20.98","ND","1.1","153.8","23.9","64.9","0","0"],
    [9964,"2011-06-25T23:00:00","34","12.40","38.64","2168.62","17.83","ND","0.7","143.9","23.5","70.3","0","0"],
    [9965,"2011-06-26T00:00:00","34.9","16.66","35.53","1789.55","15.78","ND","0.4","315.3","22.5","76","0","0"],
    [9966,"2011-06-26T01:00:00","58.2","10.42","29.02","1351.84","14.63","ND","0.1","246.9","22","77.7","0","0"],
    [9967,"2011-06-26T02:00:00","31.6","10.74","27.30","1485.64","15.97","ND","1.4","155.3","21.8","82.2","0","0"],
    [9968,"2011-06-26T03:00:00","17.7","14.88","24.95","1416.63","16.79","ND","0.4","209.5","21.4","81.9","0","0"],
    [9969,"2011-06-26T04:00:00","19.1","11.00","23.24","928.05","29.84","ND","0.2","42.7","20.9","86.6","0","0"],
    [9970,"2011-06-26T05:00:00","11.4","12.30","20.28","847.38","14.71","ND","0.4","8.7","20.5","88.2","0","0"],
    [9971,"2011-06-26T06:00:00","18","9.65","19.09","913.93","14.80","ND","0.5","53.8","20.3","88.7","0.1","0"],
    [9972,"2011-06-26T07:00:00","10.8","8.36","17.72","890.76","15.39","ND","0.1","71.3","20.3","87.9","36.4","0"],
    [9973,"2011-06-26T08:00:00","17.8","10.34","18.11","1026.06","31.98","ND","0.1","108.2","21.2","85","105.3","0"],
    [9974,"2011-06-26T09:00:00","22.7","13.68","24.01","961.35","25.84","ND","0.7","155.1","22.4","78.7","327.5","0"],
    [9975,"2011-06-26T10:00:00","29.7","36.55","32.80","1294.60","20.21","ND","1.2","122.6","24.5","66.3","555.6","0"],
    [9976,"2011-06-26T11:00:00","20.2","36.80","35.97","1292.36","25.90","ND","0.8","172.7","25.2","63.5","369.8","0"],
    [9977,"2011-06-26T12:00:00","27.3","32.20","22.62","951.49","40.26","ND","0.4","7.9","26.5","60.6","626.6","0"],
    [9978,"2011-06-26T13:00:00","15.7","46.30","28.73","932.61","52.97","ND","1.4","48.1","26.8","59.9","501.8","0"],
    [9979,"2011-06-26T14:00:00","16.8","64.48","29.86","841.34","63.67","ND","1.3","30.3","27.4","57.1","475.9","0"],
    [9980,"2011-06-26T15:00:00","10.4","39.36","16.48","669.80","68.78","ND","1.2","72.4","28.1","53.8","458.9","0"],
    [9981,"2011-06-26T16:00:00","12.8","37.54","13.87","694.51","68.92","ND","0.3","9.6","28.7","52.7","340.9","0"],
    [9982,"2011-06-26T17:00:00","8.5","19.37","8.96","637.91","70.27","ND","0.7","33.4","28.5","53.3","195.2","0"],
    [9983,"2011-06-26T18:00:00","14.7","21.58","10.21","649.07","76.64","ND","0.7","289.9","28.2","56.8","78.9","0"],
    [9984,"2011-06-26T19:00:00","28.5","34.16","13.93","683.17","80.41","ND","0.9","259.1","27.1","60.8","1.5","0"],
    [9985,"2011-06-26T20:00:00","31.4","34.88","25.36","922.94","68.04","ND","0.7","254.2","26","66","0","0"],
    [9986,"2011-06-26T21:00:00","18.4","24.58","36.51","1103.47","39.89","ND","1","249","25.6","65.5","0","0"],
    [9987,"2011-06-26T22:00:00","32","13.44","40.03","1274.18","20.73","ND","0.7","140.7","24.8","74.4","0","0"],
    [9988,"2011-06-26T23:00:00","20.6","10.42","24.04","1007.46","28.04","ND","0.4","331.5","23.6","81.3","0","0"],
    [9989,"2011-06-27T00:00:00","24.8","10.56","41.45","1356.87","28.91","ND","0.2","39.9","23.5","79.8","0","0"],
    [9990,"2011-06-27T01:00:00","21.4","9.28","31.69","1174.04","20.36","ND","0.1","199.5","23.7","80.3","0","0.25"],
    [9991,"2011-06-27T02:00:00","15.4","12.52","33.29","992.33","18.40","ND","0.2","191.6","22.6","89.4","0","0.76"],
    [9992,"2011-06-27T03:00:00","11.6","28.23","41.03","1193.20","18.94","ND","0.2","143.1","22.4","88.8","0","0"],
    [9993,"2011-06-27T04:00:00","19.6","14.57","27.89","987.98","19.36","ND","0.1","339.2","22","92.6","0","0"],
    [9994,"2011-06-27T05:00:00","21.7","9.88","20.88","895.92","20.92","ND","0.7","42.1","21.4","94.4","0","0.25"],
    [9995,"2011-06-27T06:00:00","15.2","7.02","25.49","939.37","17.99","ND","0.2","357.7","21.2","94.7","0","0"],
    [9996,"2011-06-27T07:00:00","32.7","6.86","20.84","780.39","17.82","ND","0.1","12.7","21.4","93.1","26.7","0"],
    [9997,"2011-06-27T08:00:00","38.7","6.21","19.91","814.87","17.53","ND","0.6","351.5","22.2","88.7","125.5","0"],
    [9998,"2011-06-27T09:00:00","21.9","7.24","20.17","737.65","18.06","ND","0.2","142.5","24.6","76.2","390.1","0"],
    [9999,"2011-06-27T10:00:00","22.1","27.37","22.42","892.37","22.97","ND","1.6","44.7","25.4","70.8","501.2","0"],
    [10000,"2011-06-27T11:00:00","12.2","57.57","27.10","917.72","29.16","ND","1.8","38.5","25.9","69.2","498.4","0"],
    [10001,"2011-06-27T12:00:00","11.6","67.46","24.86","815.84","42.28","ND","1.2","32","26.6","65","390.2","0"],
    [10002,"2011-06-27T13:00:00","14.6","27.34","11.85","794.71","58.58","ND","1.6","53.5","27.5","59.5","479.8","0"],
    [10003,"2011-06-27T14:00:00","8.5","39.13","15.36","797.10","63.78","ND","1.1","43.8","28.2","56.4","475.5","0"],
    [10004,"2011-06-27T15:00:00","4.8","36.39","13.21","798.96","69.50","ND","0.7","338.6","29.1","52.5","524.5","0"],
    [10005,"2011-06-27T16:00:00","16.8","16.60","7.92","696.82","69.69","ND","1.4","35.4","29","53.6","348.1","0"],
    [10006,"2011-06-27T17:00:00","10.9","14.79","8.21","696.59","81.68","ND","1.5","32.4","28.2","56.1","151.8","0"],
    [10007,"2011-06-27T18:00:00","22","13.22","11.44","752.64","75.45","ND","0.9","319.2","28.2","58.1","89.5","0"],
    [10008,"2011-06-27T19:00:00","13.9","36.94","20.67","752.64","65.47","ND","1.2","306.8","26.4","64","2.1","0"],
    [10009,"2011-06-27T20:00:00","24","67.63","39.70","932.30","49.82","ND","0.1","261.4","25.2","69.5","0","0"],
    [10010,"2011-06-27T21:00:00","21","37.97","32.61","928.56","48.82","ND","0.2","300.8","24.6","70.8","0","0"],
    [10011,"2011-06-27T22:00:00","26.9","16.72","58.99","2150.85","21.05","ND","0.1","342.2","24.1","72.9","0","0"],
    [10012,"2011-06-27T23:00:00","20.5","16.41","48.75","1564.74","18.27","ND","0.4","332.8","23.2","75.5","0","0"],
    [10013,"2011-06-28T00:00:00","20.4","17.53","45.92","1639.71","16.54","ND","0.3","234.2","22.7","78.3","0","0"],
    [10014,"2011-06-28T01:00:00","10.8","15.55","42.14","1330.02","17.41","ND","0.2","302.9","22.1","80.1","0","0"],
    [10015,"2011-06-28T02:00:00","21","12.40","38.48","1225.22","106.04","ND","0","246.2","21.9","82","0","0"],
    [10016,"2011-06-28T03:00:00","25.9","13.25","32.43","974.97","121.49","ND","0.5","8.1","21.9","82.1","0","0"],
    [10017,"2011-06-28T04:00:00","51.6","14.62","28.29","861.60","113.02","ND","0.9","33","20.5","89.7","0","0"],
    [10018,"2011-06-28T05:00:00","49.7","15.38","32.09","1004.19","85.04","ND","0.5","350.7","20","91.3","0","0"],
    [10019,"2011-06-28T06:00:00","59.1","19.27","29.17","811.00","97.57","ND","0.1","142.8","20.1","90.1","0.3","0"],
    [10020,"2011-06-28T07:00:00","49.4","12.81","29.62","890.15","83.69","ND","0.1","5.9","20.2","89.2","45.7","0"],
    [10021,"2011-06-28T08:00:00","88.1","13.20","30.61","1003.17","89.88","ND","0.7","47.5","21.7","82.1","175.3","0"],
    [10022,"2011-06-28T09:00:00","92.7","18.27","34.57","1540.77","146.60","ND","1.2","58.9","23.2","75.3","391.1","0"],
    [10023,"2011-06-28T10:00:00","63.9","50.50","56.57","1594.16","ND","ND","1","56.4","24.7","69.6","515.5","0"],
    [10024,"2011-06-28T11:00:00","40.1","103.71","52.06","1007.12","ND","ND","0.8","62.6","26.6","62.4","634.5","0"],
    [10025,"2011-06-28T12:00:00","88.6","40.25","21.17","794.71","ND","ND","0.9","58","28.3","56.7","688.3","0"],
    [10026,"2011-06-28T13:00:00","49.6","ND","ND","ND","ND","ND","0.6","340.8","29.7","52.6","649.3","0"],
    [10027,"2011-06-28T14:00:00","55.8","ND","ND","ND","ND","ND","0.8","21.5","30.6","50.4","495","0"],
    [10028,"2011-06-28T15:00:00","46.6","28.59","23.99","688.61","ND","ND","1.7","336.2","31.4","46.3","616.4","0"],
    [10029,"2011-06-28T16:00:00","26","32.06","20.12","807.45","102.71","ND","2.9","282.8","31.1","44.8","475.7","0"],
    [10030,"2011-06-28T17:00:00","14.2","16.66","13.78","736.51","49.24","ND","3.7","291.8","29.9","46.8","294","0"],
    [10031,"2011-06-28T18:00:00","8.8","5.22","8.86","721.96","33.71","ND","0.8","300.7","29.8","47.2","115.8","0"],
    [10032,"2011-06-28T19:00:00","8.2","3.22","7.85","779.92","30.93","ND","0.2","26.7","28.4","49.9","4.1","0"],
    [10033,"2011-06-28T20:00:00","7.6","5.67","23.70","950.12","22.43","ND","0.1","212.3","27.1","54.7","0","0"],
    [10034,"2011-06-28T21:00:00","47.2","8.95","42.35","1557.47","8.08","ND","0.5","173.6","26.4","58.8","0","0"],
    [10035,"2011-06-28T22:00:00","88.8","10.90","43.79","2129.33","7.10","ND","0.3","65.6","25.1","67.1","0","0"],
    [10036,"2011-06-28T23:00:00","60.7","21.52","43.47","2693.08","5.81","ND","0.4","60.7","24.3","71.9","0","0"],
    [10037,"2011-06-29T00:00:00","60.6","28.36","37.43","2057.25","6.30","ND","0","278.7","23.3","75.4","0","0"],
    [10038,"2011-06-29T01:00:00","69.5","23.66","33.93","1742.78","6.20","ND","0.4","343","22.5","79.2","0","0"],
    [10039,"2011-06-29T02:00:00","61.4","16.19","26.60","1295.04","4.55","ND","0.1","283.2","22.2","81.9","0","0"],
    [10040,"2011-06-29T03:00:00","46.5","12.56","24.55","1236.98","4.55","ND","0.1","277.1","21.7","83.9","0","0"],
    [10041,"2011-06-29T04:00:00","32.4","16.56","21.89","951.65","5.45","ND","0.2","274.1","21.5","84.9","0","0"],
    [10042,"2011-06-29T05:00:00","37.9","14.42","19.39","928.36","5.26","ND","0.2","326.1","21.3","85","0","0"],
    [10043,"2011-06-29T06:00:00","35.9","10.64","16.96","791.97","4.50","ND","0.2","256.6","21","86","0.3","0"],
    [10044,"2011-06-29T07:00:00","24.1","9.07","17.65","813.77","3.93","ND","0.1","240.2","21.9","83.2","18","0"],
    [10045,"2011-06-29T08:00:00","58.5","10.79","18.15","1031.66","3.94","ND","0.3","57.4","23.5","75.7","149.2","0"],
    [10046,"2011-06-29T09:00:00","74.4","14.55","23.86","1504.59","4.78","ND","0.5","173.6","24.8","70.3","303.8","0"],
    [10047,"2011-06-29T10:00:00","61.4","21.45","39.58","1980.57","6.12","ND","1.1","129.6","26.7","62.3","506.4","0"],
    [10048,"2011-06-29T11:00:00","57","36.08","75.35","2281.24","15.28","ND","1.3","128.2","27.8","58.5","601.9","0"],
    [10049,"2011-06-29T12:00:00","38.2","34.07","67.93","1699.87","47.66","ND","1.1","203.4","28.4","55.3","400.9","0"],
    [10050,"2011-06-29T13:00:00","25.9","30.24","29.09","1019.64","68.69","ND","0.2","251.6","29.6","52.4","619","0"],
    [10051,"2011-06-29T14:00:00","22.4","24.03","28.06","1000.43","89.73","ND","1.1","115.9","30.6","49.2","592.2","0"],
    [10052,"2011-06-29T15:00:00","24.8","19.54","28.34","1027.08","128.21","ND","1.7","353.6","30.5","48.9","355","0"],
    [10053,"2011-06-29T16:00:00","21.2","16.97","24.13","1026.74","150.55","ND","1.9","297.6","30.1","48.4","276.7","0"],
    [10054,"2011-06-29T17:00:00","13.3","11.25","21.46","815.65","73.27","ND","1.2","305.6","29.7","48.3","197","0"],
    [10055,"2011-06-29T18:00:00","17.7","6.12","14.21","744.75","33.89","ND","0.3","274","28.9","51.4","54.5","0"],
    [10056,"2011-06-29T19:00:00","20.2","5.42","13.01","649.94","32.84","ND","0.5","298.7","27.6","54.4","3.8","0"],
    [10057,"2011-06-29T20:00:00","23.2","7.82","26.35","970.71","18.27","ND","0.7","94.3","27.2","56.1","0","0"],
    [10058,"2011-06-29T21:00:00","35.6","5.38","24.55","854.01","15.18","ND","1.6","162","26.3","60.6","0","0"],
    [10059,"2011-06-29T22:00:00","47.6","10.37","33.92","1196.63","6.94","ND","0.8","110.5","24.8","69","0","0"],
    [10060,"2011-06-29T23:00:00","58.7","12.99","30.36","1179.18","7.49","ND","0.4","223.4","24.5","70","0","0"],
    [10061,"2011-06-30T00:00:00","40.1","22.89","30.65","1429.61","5.09","ND","0.8","100.4","23.7","74","0","0"],
    [10062,"2011-06-30T01:00:00","46.2","21.26","30.00","1596.85","4.42","ND","0.8","189.6","22.7","79.2","0","0"],
    [10063,"2011-06-30T02:00:00","23.6","13.47","24.82","898.04","5.30","ND","0.1","265.1","23","78.9","0","0"],
    [10064,"2011-06-30T03:00:00","12.6","8.61","19.66","648.61","5.83","ND","0.2","255.4","22.9","78.9","0","0"],
    [10065,"2011-06-30T04:00:00","8.2","9.89","20.68","682.52","5.14","ND","0.6","9.8","22.4","81.5","0","0"],
    [10066,"2011-06-30T05:00:00","20.6","7.79","19.88","704.08","4.79","ND","0.3","335.1","22.1","82.2","0","0"],
    [10067,"2011-06-30T06:00:00","34.3","8.48","20.26","794.12","4.49","ND","0.1","152.7","22.3","81.9","0.1","0"],
    [10068,"2011-06-30T07:00:00","46.2","15.19","20.66","828.72","4.78","ND","0.6","45.4","22","84","21.3","0"],
    [10069,"2011-06-30T08:00:00","51.5","20.83","22.19","997.99","4.53","ND","0.4","135.6","22.1","83.3","101.9","0"],
    [10070,"2011-06-30T09:00:00","50.2","24.39","24.90","1202.53","5.05","ND","0.1","343.1","23.5","77.5","219.9","0"],
    [10071,"2011-06-30T10:00:00","56.4","36.84","33.94","1470.39","5.96","ND","0.8","144.8","25.1","69.2","334.4","0"],
    [10072,"2011-06-30T11:00:00","34.5","37.22","54.69","1845.05","8.87","ND","0.8","129.9","26.2","63.1","386.3","0"],
    [10073,"2011-06-30T12:00:00","58.7","34.23","73.75","1702.33","29.00","ND","0.9","68.9","26.9","61.8","452.6","0"],
    [10074,"2011-06-30T13:00:00","53.8","19.12","41.51","1245.14","63.39","ND","0.8","38.8","27.9","59.7","478.3","0"],
    [10075,"2011-06-30T14:00:00","62.2","17.57","32.90","994.81","86.37","ND","1","294.2","28.9","54.2","464.2","0"],
    [10076,"2011-06-30T15:00:00","32.6","50.20","39.69","905.27","82.33","ND","2.2","303.6","29.3","49.1","451.8","0"],
    [10077,"2011-06-30T16:00:00","19.2","66.72","34.18","894.85","65.37","ND","3.4","280","28.5","50.9","354.3","0"],
    [10078,"2011-06-30T17:00:00","10.5","9.09","11.85","649.07","28.99","ND","1.6","280.1","28.7","49.1","265.2","0"],
    [10079,"2011-06-30T18:00:00","7.4","5.01","8.31","603.11","28.49","ND","2","276.8","27.3","54.5","56.4","0"],
    [10080,"2011-06-30T19:00:00","20.3","5.73","13.34","750.39","26.14","ND","4.6","172.4","24.4","68.4","2.1","0"],
    [10081,"2011-06-30T20:00:00","30.2","4.65","12.74","697.41","24.30","ND","3.5","174.4","22.8","73.1","0","0"],
    [10082,"2011-06-30T21:00:00","15.6","6.29","34.72","1068.92","17.26","ND","1.3","11.4","20.2","87.1","0","9.65"],
    [10083,"2011-06-30T22:00:00","21.5","6.32","34.06","980.62","25.45","ND","1.2","22.9","19.7","87.5","0","0.25"],
    [10084,"2011-06-30T23:00:00","21.9","6.07","20.50","776.41","27.85","ND","0.4","127.3","19.6","91","0","4.32"],
    [10085,"2011-07-01T00:00:00","20.8","8.08","29.59","832.39","19.02","ND","0.2","171.4","19.2","94.8","0","4.83"],
    [10086,"2011-07-01T01:00:00","11.3","25.77","50.58","876.18","4.50","ND","0.3","154.3","19.5","94.8","0","1.78"],
    [10087,"2011-07-01T02:00:00","18.8","24.38","50.52","955.79","3.81","ND","0","224.5","19.7","94.7","0","0.25"],
    [10088,"2011-07-01T03:00:00","11.5","20.56","51.15","1102.73","3.70","ND","0.2","132.2","20","94","0","0"],
    [10089,"2011-07-01T04:00:00","6.8","18.45","48.65","1182.71","3.86","ND","0.5","42.3","19.6","95.7","0","0"],
    [10090,"2011-07-01T05:00:00","14.1","16.88","46.90","1079.85","3.91","ND","0.4","28.7","19.3","96.9","0","0.25"],
    [10091,"2011-07-01T06:00:00","35.9","13.36","38.35","955.14","4.35","ND","0.8","48.8","18.9","97.6","0","0"],
    [10092,"2011-07-01T07:00:00","39.1","12.22","34.19","864.06","4.02","ND","0.9","18.5","19","97.9","11.3","0"],
    [10093,"2011-07-01T08:00:00","65.4","12.07","32.91","752.10","4.27","ND","0.8","0.3","19.9","94.5","158","0"],
    [10094,"2011-07-01T09:00:00","41.6","31.11","41.13","1396.24","4.36","ND","1.6","50.1","21.9","83.5","411.4","0"],
    [10095,"2011-07-01T10:00:00","31.8","165.48","49.24","1281.07","5.53","ND","0.8","72.9","23.6","73.5","483.1","0"],
    [10096,"2011-07-01T11:00:00","16.8","160.18","49.30","980.59","15.78","ND","1.1","62.1","24.6","67.4","485.7","0"],
    [10097,"2011-07-01T12:00:00","20.5","43.12","19.09","743.65","30.28","ND","0.3","23.7","25.5","64.2","447.9","0"],
    [10098,"2011-07-01T13:00:00","23.2","24.33","24.77","849.17","42.64","ND","0.8","3.9","26.6","61.3","537.8","0"],
    [10099,"2011-07-01T14:00:00","17.8","26.98","21.85","806.23","64.26","ND","1.4","36.9","27.8","57.3","646.8","0"],
    [10100,"2011-07-01T15:00:00","10.2","33.64","24.77","751.64","76.22","ND","1.3","60.1","28.7","54.1","542.7","0"],
    [10101,"2011-07-01T16:00:00","5.1","24.14","13.94","661.10","79.73","ND","0.8","41.4","29.4","51.9","366","0"],
    [10102,"2011-07-01T17:00:00","3.5","24.57","17.24","697.51","70.04","ND","1.6","253","29.9","50.1","278.6","0"],
    [10103,"2011-07-01T18:00:00","2.6","27.73","19.41","733.60","66.68","ND","1.5","252.2","27.8","55.3","37.6","0"],
    [10104,"2011-07-01T19:00:00","27.8","19.89","23.27","948.22","41.50","ND","0.2","176.7","27","57.7","3.5","0"],
    [10105,"2011-07-01T20:00:00","22.6","8.57","25.26","991.83","18.10","ND","0.2","160.6","26.4","60.7","0","0"],
    [10106,"2011-07-01T21:00:00","32.5","10.35","37.81","1346.66","10.94","ND","0.2","110.6","25.3","66.9","0","0"],
    [10107,"2011-07-01T22:00:00","50.5","14.29","44.44","2041.23","5.60","ND","0.5","138.9","24.1","74.5","0","0"],
    [10108,"2011-07-01T23:00:00","46.6","19.20","45.14","2935.32","5.36","ND","0.2","226.5","23.4","77.4","0","0"],
    [10109,"2011-07-02T00:00:00","54.2","19.18","34.08","1675.00","5.84","ND","0.2","217.9","23.2","78.3","0","0"],
    [10110,"2011-07-02T01:00:00","38.9","17.71","32.16","1935.77","5.52","ND","0.1","328.4","22.6","80.3","0","0"],
    [10111,"2011-07-02T02:00:00","45.1","16.79","31.41","2295.49","4.65","ND","0.1","145.2","22.2","82.7","0","0"],
    [10112,"2011-07-02T03:00:00","43.8","13.73","29.89","1997.32","5.11","ND","0.4","14.7","21.9","83.5","0","0"],
    [10113,"2011-07-02T04:00:00","50.2","14.55","28.13","1587.17","4.78","ND","0.6","358.6","21.4","86.8","0","0"],
    [10114,"2011-07-02T05:00:00","43.4","14.26","27.65","1471.30","5.04","ND","0.3","291.2","21.2","89.4","0","1.27"],
    [10115,"2011-07-02T06:00:00","44.5","16.12","27.45","938.73","4.15","ND","0.1","189.6","21.1","92","0.3","0"],
    [10116,"2011-07-02T07:00:00","54.4","18.28","25.61","994.94","4.98","ND","0.2","292.9","21.2","91.7","34.6","0.25"],
    [10117,"2011-07-02T08:00:00","34.2","12.96","23.60","1131.00","4.84","ND","0.3","61.3","22.9","83","168.2","0"],
    [10118,"2011-07-02T09:00:00","43.9","21.80","26.63","2081.69","5.77","ND","0.7","107.5","23.7","82","223.2","0"],
    [10119,"2011-07-02T10:00:00","47","36.89","40.88","1642.48","6.90","ND","1.1","176","24.6","73.8","175.7","0"],
    [10120,"2011-07-02T11:00:00","27.3","26.25","67.15","2059.33","13.87","ND","0.5","192.7","25.3","70.5","258.7","0"],
    [10121,"2011-07-02T12:00:00","34.7","24.52","48.45","1559.59","26.13","ND","0.3","32.6","25.8","67.9","274.3","0"],
    [10122,"2011-07-02T13:00:00","27.3","32.50","33.84","1240.58","45.96","ND","0.6","45.3","27.5","61.4","550.3","0"],
    [10123,"2011-07-02T14:00:00","27.2","30.39","28.51","1074.35","58.53","ND","1.2","227.5","26.5","64.9","101.6","0"],
    [10124,"2011-07-02T15:00:00","16.3","22.54","29.08","1001.70","83.70","ND","2.5","232.5","25.3","70.4","227.3","0"],
    [10125,"2011-07-02T16:00:00","9.4","21.69","33.05","1135.29","71.64","ND","2.5","243","26.7","60.7","342.4","0"],
    [10126,"2011-07-02T17:00:00","6","9.12","19.68","933.24","19.89","ND","2.2","257.2","26.9","56.6","209.3","0"],
    [10127,"2011-07-02T18:00:00","12.8","7.12","14.37","749.39","23.38","ND","1","147.2","26.5","56.8","38.3","0"],
    [10128,"2011-07-02T19:00:00","7.3","5.29","14.67","805.96","24.44","ND","0.7","87.7","25.3","63.6","1.9","0"],
    [10129,"2011-07-02T20:00:00","38.7","5.77","21.25","883.01","21.98","ND","1.1","24.2","23.3","79.6","0","0"],
    [10130,"2011-07-02T21:00:00","21.7","7.84","50.26","1697.22","6.56","ND","0.5","290.1","22.4","82.4","0","0"],
    [10131,"2011-07-02T22:00:00","43","9.38","58.23","1612.57","7.61","ND","0.2","220.9","22.2","82.5","0","0"],
    [10132,"2011-07-02T23:00:00","31.8","9.55","45.99","1532.04","6.30","ND","0.2","297.8","21.6","83","0","0"],
    [10133,"2011-07-03T00:00:00","33.1","10.70","48.75","2163.15","5.22","ND","0.3","236.8","21.4","84.9","0","0"],
    [10134,"2011-07-03T01:00:00","32.9","9.01","39.63","1527.89","3.90","ND","0.2","213.3","20.9","86.6","0","0"],
    [10135,"2011-07-03T02:00:00","25.4","11.01","37.78","2350.08","3.81","ND","0.1","284.3","20.9","86.3","0","0"],
    [10136,"2011-07-03T03:00:00","14.3","10.67","32.86","1796.45","4.01","ND","0.1","62.7","20.8","86","0","0"],
    [10137,"2011-07-03T04:00:00","14.4","12.63","29.64","1457.00","3.85","ND","0","337","20","90.7","0","0"],
    [10138,"2011-07-03T05:00:00","28.5","19.40","29.15","1205.23","4.13","ND","0.4","313.5","19.7","91.1","0","0"],
    [10139,"2011-07-03T06:00:00","31.7","15.57","30.08","1057.72","3.99","ND","0.5","238.7","20","90.5","0","0"],
    [10140,"2011-07-03T07:00:00","28.4","14.30","25.74","1092.59","3.72","ND","0.1","257.1","20.7","89.5","13.2","0"],
    [10141,"2011-07-03T08:00:00","55.7","14.77","25.63","1208.11","5.84","ND","0.1","150.2","21.5","83.6","108.7","0"],
    [10142,"2011-07-03T09:00:00","42.8","15.56","30.02","1403.87","4.62","ND","0.7","44.1","22.9","79.4","301.2","0"],
    [10143,"2011-07-03T10:00:00","49.5","19.46","33.81","1228.54","5.73","ND","0.6","84.9","24","74.5","303.7","0"],
    [10144,"2011-07-03T11:00:00","27.3","24.89","54.27","1495.71","17.60","ND","1","221.7","24.9","69.8","336.9","0"],
    [10145,"2011-07-03T12:00:00","29.7","29.55","48.03","1259.75","42.22","ND","0.8","56.7","27","59.5","700.3","0"],
    [10146,"2011-07-03T13:00:00","17.6","29.75","37.20","1084.10","60.41","ND","1","58.2","28","54.2","510.9","0"],
    [10147,"2011-07-03T14:00:00","11.8","22.63","18.93","833.14","88.44","ND","1","337.9","29.3","51.2","705.1","0"],
    [10148,"2011-07-03T15:00:00","7.1","41.81","12.99","685.66","96.55","ND","1.5","5.5","30","49.8","623.9","0"],
    [10149,"2011-07-03T16:00:00","4.5","67.88","16.16","675.60","100.24","ND","2.5","274.8","30","48","466.3","0"],
    [10150,"2011-07-03T17:00:00","4","46.89","12.43","652.30","74.46","ND","2.7","258.4","29.6","48.1","330.4","0"],
    [10151,"2011-07-03T18:00:00","4.6","7.50","5.66","581.65","34.57","ND","1.1","256.9","28.7","50.4","88","0"],
    [10152,"2011-07-03T19:00:00","17.3","6.13","7.28","603.11","34.81","ND","0.7","234.5","27.1","54.2","1.7","0"],
    [10153,"2011-07-03T20:00:00","11.4","7.89","15.14","772.97","28.18","ND","0.3","105.4","26.5","55.5","0","0"],
    [10154,"2011-07-03T21:00:00","6.9","7.37","28.07","1024.72","15.86","ND","0.1","18.5","25.6","59.9","0","0"],
    [10155,"2011-07-03T22:00:00","20","6.56","28.18","918.33","13.74","ND","0.3","164.8","24.3","67","0","0"],
    [10156,"2011-07-03T23:00:00","22.3","9.52","40.76","1702.95","4.56","ND","0.1","180","23.3","73.8","0","0"],
    [10157,"2011-07-04T00:00:00","30.7","13.68","36.44","1981.99","5.09","ND","0","304.5","22.5","76.7","0","0"],
    [10158,"2011-07-04T01:00:00","18.5","12.37","28.56","1431.36","4.88","ND","0.2","209.4","22.2","78.9","0","0"],
    [10159,"2011-07-04T02:00:00","13.6","10.90","27.67","1395.86","4.92","ND","0.2","37.4","21.7","81.4","0","0"],
    [10160,"2011-07-04T03:00:00","11.9","10.60","24.08","1790.02","4.62","ND","0.1","277.4","21.3","83.1","0","0"],
    [10161,"2011-07-04T04:00:00","15.4","7.37","22.64","1233.21","3.88","ND","0.2","351","21.4","83.4","0","0"],
    [10162,"2011-07-04T05:00:00","23.1","7.48","21.23","1029.91","4.17","ND","0.1","278.4","21.7","82.5","0","0"],
    [10163,"2011-07-04T06:00:00","14","7.93","21.25","1110.26","4.17","ND","0.1","306","21.7","83.5","0","0"],
    [10164,"2011-07-04T07:00:00","18.7","8.99","21.53","1098.93","4.21","ND","0.2","237.4","22","82.6","17.5","0"],
    [10165,"2011-07-04T08:00:00","16.6","8.22","19.07","918.60","3.90","ND","0.9","151.2","23.2","74.9","103.1","0"],
    [10166,"2011-07-04T09:00:00","11.6","8.23","19.10","1047.59","4.54","ND","0.6","105.7","25","68.9","329.9","0"],
    [10167,"2011-07-04T10:00:00","24.6","13.15","25.22","1019.59","5.08","ND","1.8","137.1","25.9","63.9","421.7","0"],
    [10168,"2011-07-04T11:00:00","14.1","17.82","24.94","884.78","15.90","ND","1.9","112.7","26.1","66.8","514.6","0"],
    [10169,"2011-07-04T12:00:00","20.1","25.27","22.16","885.37","38.84","ND","0.7","111.5","27.6","60.2","493.9","0"],
    [10170,"2011-07-04T13:00:00","10.8","27.41","20.54","832.03","44.68","ND","1.2","70.1","28.2","58.3","529.8","0"],
    [10171,"2011-07-04T14:00:00","27.5","22.83","18.62","764.22","67.46","ND","1.2","63.7","28.5","57.2","440.9","0"],
    [10172,"2011-07-04T15:00:00","19.2","18.24","15.59","718.62","75.76","ND","1.1","41.8","28.8","57.2","365","0"],
    [10173,"2011-07-04T16:00:00","33.5","22.64","15.43","800.55","93.03","ND","0.3","69.4","29.2","55.5","229.6","0"],
    [10174,"2011-07-04T17:00:00","22.9","54.45","16.58","697.05","103.58","ND","2.1","264.3","29.3","50.8","205.7","0"],
    [10175,"2011-07-04T18:00:00","12.9","43.25","14.39","697.28","90.42","ND","1","289.3","28.5","51.5","53","0"],
    [10176,"2011-07-04T19:00:00","10.6","9.86","9.93","707.03","32.40","ND","0.6","114.7","27.5","54.9","2","0"],
    [10177,"2011-07-04T20:00:00","9.6","7.08","13.94","774.00","29.31","ND","0.4","244.8","26.5","58.6","0","0"],
    [10178,"2011-07-04T21:00:00","15.1","6.77","22.41","852.02","18.38","ND","0.5","75.6","25.7","63.6","0","0"],
    [10179,"2011-07-04T22:00:00","11.5","7.25","29.58","1148.30","10.05","ND","0.6","250.8","24.5","69.3","0","0"],
    [10180,"2011-07-04T23:00:00","8.2","12.63","31.42","1086.50","6.76","ND","0.1","347.2","23.9","73.2","0","0"],
    [10181,"2011-07-05T00:00:00","25.1","14.31","31.36","1426.72","5.96","ND","0.1","304.4","23.5","75.7","0","0"],
    [10182,"2011-07-05T01:00:00","15.4","13.66","27.32","946.07","5.86","ND","0.3","33.3","22.8","78.9","0","0"],
    [10183,"2011-07-05T02:00:00","20.4","11.65","27.28","1091.66","5.06","ND","0.2","50.2","22.1","81.7","0","0"],
    [10184,"2011-07-05T03:00:00","10.9","9.37","24.30","794.12","6.35","ND","0.2","163.5","21.9","82.3","0","0"],
    [10185,"2011-07-05T04:00:00","22.5","7.49","21.73","612.19","5.92","ND","0.8","144.1","21.9","82.4","0","0"],
    [10186,"2011-07-05T05:00:00","21.2","10.22","21.71","782.25","4.56","ND","0.5","189.2","21.8","83.3","0","0"],
    [10187,"2011-07-05T06:00:00","16.4","9.88","18.71","668.65","5.36","ND","0.2","163.5","21.7","83.8","0.1","0"],
    [10188,"2011-07-05T07:00:00","27.8","8.40","17.82","623.11","5.01","ND","0.4","64.7","21.4","85.4","48.2","0"],
    [10189,"2011-07-05T08:00:00","41.4","8.39","20.50","814.87","ND","ND","0","120.3","22.7","79.1","144.5","0"],
    [10190,"2011-07-05T09:00:00","32.3","12.56","23.66","1148.13","ND","ND","0.8","110.9","24.7","70.9","363.2","0"],
    [10191,"2011-07-05T10:00:00","42","19.74","36.69","1499.23","ND","ND","1","143.6","25.5","66.7","459.3","0"],
    [10192,"2011-07-05T11:00:00","45.9","29.82","54.26","1640.97","ND","ND","1","104.5","27.1","60.7","563.9","0"],
    [10193,"2011-07-05T12:00:00","26.2","23.17","46.94","1349.81","ND","ND","0","62.5","27.8","58","359.2","0"],
    [10194,"2011-07-05T13:00:00","18.5","22.22","38.27","1167.94","ND","ND","0.9","167.7","28.8","54.1","429.2","0"],
    [10195,"2011-07-05T14:00:00","34.9","ND","ND","ND","70.29","ND","0.2","335.6","29.5","53","381.1","0"],
    [10196,"2011-07-05T15:00:00","24.1","3.17","2.52","104.66","103.29","ND","1.8","269.4","29.7","50.5","369.6","0"],
    [10197,"2011-07-05T16:00:00","23.3","7.93","0.42","69.82","96.32","ND","1.7","285.4","29.7","49.9","316.5","0"],
    [10198,"2011-07-05T17:00:00","12.9","7.40","0.13","23.27","42.48","ND","2.4","266.2","29.5","49","259.1","0"],
    [10199,"2011-07-05T18:00:00","12.4","ND","ND","34.89","29.64","ND","1.5","252.2","28.3","51.8","53.1","0"],
    [10200,"2011-07-05T19:00:00","21.7","ND","0.02","46.33","60.30","ND","1","247.7","27.1","55.9","3","0"],
    [10201,"2011-07-05T20:00:00","33.7","ND","2.22","173.05","20.77","ND","0.5","53.4","26.7","57.5","0","0"],
    [10202,"2011-07-05T21:00:00","34.1","ND","5.06","322.60","17.76","ND","1.7","116.5","25.8","64.3","0","0"],
    [10203,"2011-07-05T22:00:00","77.8","ND","16.43","470.96","89.98","ND","1.8","219","24.5","69.1","0","0"],
    [10204,"2011-07-05T23:00:00","57","ND","11.24","480.35","167.05","ND","0.5","36.9","23.7","76.3","0","0"],
    [10205,"2011-07-06T00:00:00","79.2","ND","0.68","102.65","149.72","ND","0.6","314.8","22.4","83.4","0","0"],
    [10206,"2011-07-06T01:00:00","47.5","ND","8.85","420.18","11.98","ND","0.2","104","22.3","84.6","0","0"],
    [10207,"2011-07-06T02:00:00","53.8","ND","8.85","351.92","99.31","ND","0.2","41.3","22.2","83.5","0","0"],
    [10208,"2011-07-06T03:00:00","47.3","ND","9.66","261.01","11.86","ND","0.1","340.5","22.2","83.5","0","0"],
    [10209,"2011-07-06T04:00:00","52.5","ND","7.26","181.57","6.90","ND","0.6","348.6","22.1","84.1","0","0"],
    [10210,"2011-07-06T05:00:00","44.8","ND","6.81","113.45","7.66","ND","0.4","97.9","21.6","90","0","0.25"],
    [10211,"2011-07-06T06:00:00","41.9","ND","7.49","396.39","6.83","ND","0","217.2","21.4","92.1","0","0.25"],
    [10212,"2011-07-06T07:00:00","42.9","ND","7.70","169.77","8.22","ND","0.1","270.7","21.4","91.7","11.5","0"],
    [10213,"2011-07-06T08:00:00","46.9","ND","6.66","169.77","7.50","ND","0.1","137.4","22.3","87","60","0"],
    [10214,"2011-07-06T09:00:00","45.2","0.03","4.85","499.50","7.16","ND","0.8","64.3","22.8","85.8","192.2","0"],
    [10215,"2011-07-06T10:00:00","57.7","12.77","14.02","739.15","7.71","ND","2","45","24.1","77.5","357.1","0"],
    [10216,"2011-07-06T11:00:00","44.9","18.86","26.03","879.45","10.37","ND","1.2","53.3","25.3","68.7","395","0"],
    [10217,"2011-07-06T12:00:00","24.4","164.51","32.16","607.78","15.15","ND","0.8","66.9","26.9","63.5","529.8","0"],
    [10218,"2011-07-06T13:00:00","20.4","66.74","5.53","138.35","38.75","ND","1.2","111.9","28.1","58.5","566.4","0"],
    [10219,"2011-07-06T14:00:00","29.8","6.57","ND","34.73","52.58","ND","0.5","53.7","28.6","56.1","183.8","0"],
    [10220,"2011-07-06T15:00:00","17.2","10.21","ND","23.19","70.90","ND","3.6","246.7","27","60.2","152.2","0"],
    [10221,"2011-07-06T16:00:00","ND","42.36","1.44","92.26","68.45","ND","1","360","22.7","83.2","29.9","3.56"],
    [10222,"2011-07-06T17:00:00","ND","6.01","1.05","125.04","29.05","ND","ND","ND","ND","ND","ND","ND"],
    [10223,"2011-07-06T18:00:00","ND","ND","ND","ND","ND","ND","ND","ND","ND","ND","ND","ND"],
    [10224,"2011-07-06T19:00:00","ND","ND","ND","ND","ND","ND","ND","ND","ND","ND","ND","ND"],
    [10225,"2011-07-06T20:00:00","ND","ND","ND","ND","ND","ND","ND","ND","ND","ND","ND","ND"],
    [10226,"2011-07-06T21:00:00","ND","ND","ND","ND","ND","ND","ND","ND","ND","ND","ND","ND"],
    [10227,"2011-07-06T22:00:00","ND","ND","ND","ND","ND","ND","ND","ND","ND","ND","ND","ND"],
    [10228,"2011-07-06T23:00:00","ND","ND","ND","ND","ND","ND","ND","ND","ND","ND","ND","ND"],
    [10229,"2011-07-07T00:00:00","ND","ND","ND","ND","ND","ND","ND","ND","ND","ND","ND","ND"],
    [10230,"2011-07-07T01:00:00","ND","ND","ND","ND","ND","ND","ND","ND","ND","ND","ND","ND"],
    [10231,"2011-07-07T02:00:00","ND","ND","ND","ND","ND","ND","ND","ND","ND","ND","ND","ND"],
    [10232,"2011-07-07T03:00:00","ND","ND","ND","ND","ND","ND","ND","ND","ND","ND","ND","ND"],
    [10233,"2011-07-07T04:00:00","ND","ND","ND","ND","ND","ND","ND","ND","ND","ND","ND","ND"],
    [10234,"2011-07-07T05:00:00","ND","ND","ND","ND","ND","ND","ND","ND","ND","ND","ND","ND"],
    [10235,"2011-07-07T06:00:00","ND","ND","ND","ND","ND","ND","ND","ND","ND","ND","ND","ND"],
    [10236,"2011-07-07T07:00:00","ND","ND","ND","ND","ND","ND","ND","ND","ND","ND","ND","ND"],
    [10237,"2011-07-07T08:00:00","ND","ND","ND","ND","ND","ND","ND","ND","ND","ND","ND","ND"],
    [10238,"2011-07-07T09:00:00","ND","ND","ND","ND","ND","ND","ND","ND","ND","ND","ND","ND"],
    [10239,"2011-07-07T10:00:00","ND","ND","ND","ND","ND","ND","ND","ND","ND","ND","ND","ND"],
    [10240,"2011-07-07T11:00:00","ND","ND","ND","ND","ND","ND","1.1","39.3","22","85.6","201","0"],
    [10241,"2011-07-07T12:00:00","ND","ND","ND","ND","ND","ND","0.5","42.1","25.1","69.8","472.7","0"],
    [10242,"2011-07-07T13:00:00","ND","16.30","ND","ND","48.68","ND","0.4","127.4","26.2","63.3","404.9","0"],
    [10243,"2011-07-07T14:00:00","ND","2.00","ND","161.03","77.04","ND","0.5","45.9","27.4","59.9","571","0"],
    [10244,"2011-07-07T15:00:00","ND","ND","ND","138.58","114.81","ND","1","104","27.7","58.1","331.5","0"],
    [10245,"2011-07-07T16:00:00","3","ND","ND","150.28","119.80","ND","1","49.1","28.2","56.7","435.4","0"],
    [10246,"2011-07-07T17:00:00","30.9","ND","ND","92.63","117.02","ND","0.5","30.3","28.6","55.8","243.2","0"],
    [10247,"2011-07-07T18:00:00","36.3","ND","ND","92.76","114.08","ND","0.7","329.1","27.7","60.9","66.5","0"],
    [10248,"2011-07-07T19:00:00","74.2","ND","ND","427.72","126.35","ND","0.9","268.2","26.1","67.1","1","0"],
    [10249,"2011-07-07T20:00:00","90.3","2.52","ND","643.91","124.03","ND","0.3","260","24.7","72.9","0","0"],
    [10250,"2011-07-07T21:00:00","94.3","11.81","ND","961.34","51.40","ND","0.3","298","23.7","76.7","0","0"],
    [10251,"2011-07-07T22:00:00","86.1","ND","ND","1596.85","26.22","ND","0.1","113.5","23.6","77.3","0","0"],
    [10252,"2011-07-07T23:00:00","143.4","ND","ND","1402.48","15.53","ND","0.4","187.7","22.9","82.1","0","0"],
    [10253,"2011-07-08T00:00:00","132.9","ND","ND","1683.55","17.46","ND","0.3","282.2","22.1","85.2","0","0"],
    [10254,"2011-07-08T01:00:00","80.3","ND","ND","1304.63","16.28","ND","0.3","328.7","21.6","85.1","0","0"],
    [10255,"2011-07-08T02:00:00","62","ND","ND","1562.90","14.94","ND","0.4","354.7","21.5","85.7","0","0"],
    [10256,"2011-07-08T03:00:00","70.4","ND","ND","984.97","11.40","ND","0.4","313.8","21.2","87.2","0","0"],
    [10257,"2011-07-08T04:00:00","64.9","ND","ND","1051.83","12.98","ND","0.1","6.8","20.9","88.5","0","0"],
    [10258,"2011-07-08T05:00:00","63.3","ND","ND","1050.76","13.01","ND","0.2","281.7","20.4","90.2","0","0"],
    [10259,"2011-07-08T06:00:00","84.3","ND","ND","1037.69","11.53","ND","0.2","322.6","20.2","90","0.1","0"],
    [10260,"2011-07-08T07:00:00","68","ND","ND","766.47","10.81","ND","0.1","216.4","20.6","88.8","20","0"],
    [10261,"2011-07-08T08:00:00","86.4","ND","ND","1060.97","9.94","ND","0.6","60.6","22.3","81.9","154.7","0"],
    [10262,"2011-07-08T09:00:00","89.6","0.08","ND","2009.35","12.33","ND","1.3","49.6","23.3","78.6","338.7","0"],
    [10263,"2011-07-08T10:00:00","47.3","33.22","ND","2152.85","15.00","ND","0.9","55.6","25","68.1","516","0"],
    [10264,"2011-07-08T11:00:00","61.5","29.29","ND","847.75","22.69","ND","1.1","50","25.9","65.5","496.7","0"],
    [10265,"2011-07-08T12:00:00","60.1","13.35","ND","746.89","39.07","ND","0.8","29.2","27.6","59.4","685.1","0"],
    [10266,"2011-07-08T13:00:00","31.5","0.87","ND","543.13","59.58","ND","0.9","25.5","28.9","53.6","652","0"],
    [10267,"2011-07-08T14:00:00","26.4","0.21","ND","522.27","78.89","ND","0.8","15.6","30","52.7","687.8","0"],
    [10268,"2011-07-08T15:00:00","26.9","4.90","ND","535.82","98.61","ND","1.5","47.1","30","52.8","467.6","0"],
    [10269,"2011-07-08T16:00:00","29.5","13.67","ND","594.06","115.61","ND","1.4","36.6","29.6","54.5","198.5","0"],
    [10270,"2011-07-08T17:00:00","25","17.08","ND","697.97","115.67","ND","0.4","219.4","29.5","52.7","145","0"],
    [10271,"2011-07-08T18:00:00","15.9","4.76","ND","1197.79","93.05","ND","1.4","255.3","29.1","53.3","90.2","0"],
    [10272,"2011-07-08T19:00:00","27.2","3.59","ND","1196.21","42.63","ND","0.1","295.9","27.5","58.3","1.6","0"],
    [10273,"2011-07-08T20:00:00","52","ND","ND","1374.71","28.26","ND","0.1","288.7","26.2","63.7","0","0"],
    [10274,"2011-07-08T21:00:00","72.9","ND","ND","2081.90","15.94","ND","0.8","95.8","26.4","61.5","0","0"],
    [10275,"2011-07-08T22:00:00","73.4","ND","ND","3027.10","14.27","ND","0.6","127.3","25.2","69.1","0","0"],
    [10276,"2011-07-08T23:00:00","75.9","0.58","ND","2751.30","12.21","ND","0.3","226.4","24.4","74","0","0"],
    [10277,"2011-07-09T00:00:00","49.8","3.35","ND","2080.81","16.22","ND","0.5","102.7","24.3","74.3","0","0"],
    [10278,"2011-07-09T01:00:00","49","ND","ND","2754.43","15.21","ND","0.1","176.3","23.3","79.7","0","0"],
    [10279,"2011-07-09T02:00:00","27.6","ND","ND","2187.02","14.22","ND","0.5","211.3","22.8","81.5","0","0"],
    [10280,"2011-07-09T03:00:00","28.4","ND","ND","1023.43","14.22","ND","0.1","254.5","22.5","82.3","0","0"],
    [10281,"2011-07-09T04:00:00","27","ND","ND","1669.91","12.90","ND","0.3","247.6","22.4","81.2","0","0"],
    [10282,"2011-07-09T05:00:00","27.9","ND","ND","1317.31","12.78","ND","0.6","28.7","21.8","84.2","0","0"],
    [10283,"2011-07-09T06:00:00","44.8","ND","ND","1110.64","10.52","ND","0.4","319.7","21","89","0.2","0"],
    [10284,"2011-07-09T07:00:00","62.3","ND","ND","1288.46","12.37","ND","0.1","252.5","21.2","86.4","18.4","0"],
    [10285,"2011-07-09T08:00:00","40.2","ND","ND","1131.00","11.68","ND","0.2","3.3","22.5","81","64.5","0"],
    [10286,"2011-07-09T09:00:00","87.1","0.62","ND","1681.27","11.68","ND","1","54.6","23.1","80.7","109.7","0"],
    [10287,"2011-07-09T10:00:00","74","26.06","ND","1764.37","12.87","ND","0.9","62.2","24.2","74.6","258.4","0"],
    [10288,"2011-07-09T11:00:00","67.9","112.79","ND","1542.42","16.56","ND","1.1","52.5","25.4","71.1","407.3","0"],
    [10289,"2011-07-09T12:00:00","36.3","52.27","ND","1261.86","23.72","ND","0.9","66.1","26.2","70","309.4","0"],
    [10290,"2011-07-09T13:00:00","37.8","136.80","ND","1184.73","31.21","ND","0.3","111","27.6","64.2","410.6","0"],
    [10291,"2011-07-09T14:00:00","20","48.05","ND","739.59","49.21","ND","0.4","152","28.1","61","330.8","0"],
    [10292,"2011-07-09T15:00:00","32.6","20.49","ND","1157.52","64.36","ND","0.6","230.4","29.4","55.6","455.8","0"],
    [10293,"2011-07-09T16:00:00","48.9","3.08","ND","1011.39","81.41","ND","0.9","183","29.4","55","203.1","0"],
    [10294,"2011-07-09T17:00:00","27.8","0.37","ND","1092.77","99.79","ND","1.2","269.2","29.3","53.9","180.5","0"],
    [10295,"2011-07-09T18:00:00","18.6","ND","ND","1336.46","114.54","ND","0.9","265.2","28.2","55.3","23.2","0"],
    [10296,"2011-07-09T19:00:00","11","ND","ND","1169.49","76.24","ND","0.3","251.5","27.2","58.6","3","0"],
    [10297,"2011-07-09T20:00:00","10.2","ND","ND","1130.98","23.52","ND","0.1","149.3","26.4","62.5","0","0"],
    [10298,"2011-07-09T21:00:00","52.6","ND","ND","1680.44","15.69","ND","0.5","144.9","26.2","62.2","0","0"],
    [10299,"2011-07-09T22:00:00","54.2","ND","ND","2599.50","14.48","ND","0.3","171.7","25.4","66.5","0","0"],
    [10300,"2011-07-09T23:00:00","57.8","ND","ND","2913.75","9.77","ND","0.4","117.4","24.8","70.9","0","0"],
    [10301,"2011-07-10T00:00:00","62.8","ND","ND","2804.85","12.90","ND","0.3","320","23.6","75.6","0","0"],
    [10302,"2011-07-10T01:00:00","53","0.39","ND","2189.23","12.95","ND","0.5","169.2","23.6","76.7","0","0"],
    [10303,"2011-07-10T02:00:00","28.6","ND","ND","1824.36","10.55","ND","0","279.7","23.4","78.6","0","0"],
    [10304,"2011-07-10T03:00:00","27.3","ND","ND","1891.50","12.65","ND","0.4","10.5","22.7","82.7","0","0"],
    [10305,"2011-07-10T04:00:00","36","ND","ND","1648.31","12.09","ND","0.2","318.3","21.9","86.3","0","0"],
    [10306,"2011-07-10T05:00:00","42.6","ND","ND","1315.08","13.57","ND","0.8","6.5","21.9","85.3","0","0"],
    [10307,"2011-07-10T06:00:00","39.1","ND","ND","1315.08","12.78","ND","0.8","30","21.7","86.5","0","0"],
    [10308,"2011-07-10T07:00:00","62.1","0.70","ND","1359.51","11.80","ND","0.4","357","21.7","86","6.9","0"],
    [10309,"2011-07-10T08:00:00","34.4","9.79","ND","1314.19","12.21","ND","0.5","122.1","22.5","82.9","56.6","0"],
    [10310,"2011-07-10T09:00:00","55.3","11.77","ND","1408.64","11.93","ND","0.7","51.2","23.1","80.6","156.6","0"],
    [10311,"2011-07-10T10:00:00","38.4","47.96","ND","1696.07","14.90","ND","0.8","39.7","24.1","76.1","251.9","0"],
    [10312,"2011-07-10T11:00:00","42.9","29.75","ND","1633.27","17.74","ND","0.4","85.3","25.7","69.1","444.6","0"],
    [10313,"2011-07-10T12:00:00","52.1","33.88","ND","1320.54","27.28","ND","0.6","85.6","27.4","61.1","569.9","0"],
    [10314,"2011-07-10T13:00:00","28.2","21.29","ND","1258.77","47.14","ND","1","48","27.9","60.2","387.4","0"],
    [10315,"2011-07-10T14:00:00","24.6","5.16","ND","1110.49","71.08","ND","1.2","31.4","28","60","442","0"],
    [10316,"2011-07-10T15:00:00","34.6","ND","ND","995.14","75.62","ND","0.5","355.5","28.9","58.2","377.6","0"],
    [10317,"2011-07-10T16:00:00","30.7","3.77","ND","1021.33","80.50","ND","0.9","329.3","29.2","53.5","290.7","0"],
    [10318,"2011-07-10T17:00:00","23.1","23.73","ND","1150.14","92.08","ND","1.3","284.5","29.2","50.1","149.8","0"],
    [10319,"2011-07-10T18:00:00","13.2","23.65","ND","917.79","52.58","ND","0.3","318.3","28.6","52.1","81.2","0"],
    [10320,"2011-07-10T19:00:00","24.4","ND","ND","1008.72","40.00","ND","0.1","212.8","26.8","58.8","2.3","0"],
    [10321,"2011-07-10T20:00:00","14.4","ND","ND","1244.73","30.78","ND","0.4","7.2","25.7","62.3","0","0"],
    [10322,"2011-07-10T21:00:00","36.8","ND","ND","1917.66","16.05","ND","0.2","317.2","25.3","63.4","0","0"],
    [10323,"2011-07-10T22:00:00","48","ND","ND","2144.44","9.94","ND","0.5","83.1","24.5","69.1","0","0"],
    [10324,"2011-07-10T23:00:00","44.2","ND","ND","2424.61","12.03","ND","0.3","124.9","23.8","74.8","0","0"],
    [10325,"2011-07-11T00:00:00","23.9","ND","ND","1951.10","11.61","ND","0.2","196.7","23.3","77","0","0"],
    [10326,"2011-07-11T01:00:00","24.9","ND","ND","2016.16","11.90","ND","0.1","274.2","22.9","78.7","0","0"],
    [10327,"2011-07-11T02:00:00","24.2","ND","ND","1956.56","11.69","ND","0.2","283.9","22.5","81","0","0"],
    [10328,"2011-07-11T03:00:00","20.6","ND","ND","1965.27","11.33","ND","0.3","3.5","22.5","81","0","0"],
    [10329,"2011-07-11T04:00:00","12.8","ND","ND","1738.07","11.01","ND","0.2","269.5","22.6","80.6","0","0"],
    [10330,"2011-07-11T05:00:00","16.9","ND","ND","1306.84","11.25","ND","0.4","281.5","22.5","81.3","0","0"],
    [10331,"2011-07-11T06:00:00","9.2","ND","ND","1329.12","11.99","ND","0.1","9.2","22.4","83.2","0","0"],
    [10332,"2011-07-11T07:00:00","35.3","ND","ND","1283.24","11.65","ND","0.3","9.6","22.2","84.7","18.8","0"],
    [10333,"2011-07-11T08:00:00","63.8","ND","ND","1339.12","12.38","ND","0.2","23.7","22.8","81.9","107.2","0"],
    [10334,"2011-07-11T09:00:00","94.7","ND","ND","1944.53","13.09","ND","0.7","156.2","24.6","73.4","293.5","0"],
    [10335,"2011-07-11T10:00:00","72.6","12.85","ND","2047.88","15.40","ND","0.5","99","26.3","66","473.4","0"],
    [10336,"2011-07-11T11:00:00","65.2","35.13","ND","2496.81","22.92","ND","0.5","73.7","27.7","61.3","472.9","0"],
    [10337,"2011-07-11T12:00:00","70.3","44.52","ND","1988.30","49.27","ND","0.7","34.8","28.1","59.7","544.8","0"],
    [10338,"2011-07-11T13:00:00","70.5","17.31","ND","1400.60","79.49","ND","0.7","89","29.5","53.4","636.3","0"],
    [10339,"2011-07-11T14:00:00","48.5","6.14","ND","1290.83","107.75","ND","1.4","18.7","30.2","51.4","433.6","0"],
    [10340,"2011-07-11T15:00:00","63.1","1.12","ND","1363.75","130.32","ND","2","30.4","29.8","53.1","382.9","0"],
    [10341,"2011-07-11T16:00:00","63.5","9.27","ND","1233.90","130.73","ND","1.9","262.3","29.2","51.8","196.4","0"],
    [10342,"2011-07-11T17:00:00","32.9","52.45","ND","999.11","117.99","ND","1.6","274.8","29.5","49.1","191.6","0"],
    [10343,"2011-07-11T18:00:00","19.2","4.79","ND","1139.65","57.01","ND","0.7","273","27.9","51.7","32.8","0"],
    [10344,"2011-07-11T19:00:00","30.6","0.19","ND","1110.49","52.25","ND","0.5","58.9","27","54","2","0"],
    [10345,"2011-07-11T20:00:00","16.2","ND","ND","1245.56","35.72","ND","0.8","89.3","26.2","56.3","0","0"],
    [10346,"2011-07-11T21:00:00","51","1.58","ND","1748.34","13.30","ND","0.8","143.9","25.7","58.2","0","0"],
    [10347,"2011-07-11T22:00:00","50.7","1.21","ND","1998.04","11.25","ND","1","96.6","24.6","64.6","0","0"],
    [10348,"2011-07-11T23:00:00","63.4","59.40","ND","2265.26","5.51","ND","0.2","121.1","23.9","69.2","0","0"],
    [10349,"2011-07-12T00:00:00","33.1","14.12","ND","1917.52","5.83","ND","0","108.8","23.8","69.9","0","0"],
    [10350,"2011-07-12T01:00:00","17.5","1.20","ND","1334.96","5.24","ND","0.8","131.2","23.4","72.6","0","0"],
    [10351,"2011-07-12T02:00:00","11.4","ND","ND","1264.80","5.02","ND","0.6","131.6","22.8","77","0","0"],
    [10352,"2011-07-12T03:00:00","23.6","ND","ND","1091.66","6.93","ND","0.4","192.3","22.5","78.1","0","0"],
    [10353,"2011-07-12T04:00:00","27.4","ND","ND","965.60","6.56","ND","0.3","295.6","22.5","79.2","0","0"],
    [10354,"2011-07-12T05:00:00","18.5","ND","ND","1147.36","7.08","ND","0.2","266.3","22.5","79.4","0","0"],
    [10355,"2011-07-12T06:00:00","20.2","ND","ND","1045.12","5.99","ND","0.3","83.6","22.3","80","0","0"],
    [10356,"2011-07-12T07:00:00","22.2","ND","ND","1021.70","6.03","ND","0.1","262.5","22.2","81.2","9.4","0"],
    [10357,"2011-07-12T08:00:00","35.8","ND","ND","1123.49","5.60","ND","0.3","159.5","23","78.1","79.2","0"],
    [10358,"2011-07-12T09:00:00","58.8","ND","ND","1422.40","6.35","ND","1.2","123.2","23.7","75.1","156.4","0"],
    [10359,"2011-07-12T10:00:00","39.1","ND","ND","1916.22","7.95","ND","0.6","156.9","24.9","69","380.6","0"],
    [10360,"2011-07-12T11:00:00","43.3","ND","ND","1717.83","12.89","ND","0.3","23.7","26.2","63.7","440.2","0"],
    [10361,"2011-07-12T12:00:00","23.2","ND","ND","1322.75","33.51","ND","0.9","118.3","27.5","59.2","569.2","0"],
    [10362,"2011-07-12T13:00:00","53","ND","ND","1293.84","56.50","ND","0.9","333.5","27.8","57.2","248.8","0"],
    [10363,"2011-07-12T14:00:00","28.3","ND","ND","1341.39","81.57","ND","1.2","270.3","29.4","49.2","670.2","0"],
    [10364,"2011-07-12T15:00:00","16","ND","ND","1360.15","83.14","ND","3.1","269.6","28.6","50.2","237.2","0"],
    [10365,"2011-07-12T16:00:00","10.6","ND","ND","915.96","41.03","ND","1","242.2","28.1","49.9","163.8","0"],
    [10366,"2011-07-12T17:00:00","7.2","ND","ND","902.87","34.70","ND","1.9","275.5","27.9","49.4","188.6","0"],
    [10367,"2011-07-12T18:00:00","7.1","ND","ND","1145.19","31.11","ND","2.3","277.5","27.1","50.1","81.8","0"],
    [10368,"2011-07-12T19:00:00","22.1","ND","ND","876.80","29.43","ND","0.3","24.2","26.1","54.1","2","0"],
    [10369,"2011-07-12T20:00:00","16.9","ND","ND","931.37","23.71","ND","0.9","107.4","25.8","57.2","0","0"],
    [10370,"2011-07-12T21:00:00","34.3","ND","ND","1332.47","15.01","ND","1.6","216.2","25","59.3","0","0"],
    [10371,"2011-07-12T22:00:00","18.5","ND","ND","1443.47","5.48","ND","1.9","209.9","24.1","62.3","0","0"],
    [10372,"2011-07-12T23:00:00","29.5","ND","ND","1233.52","8.26","ND","0.6","65","23.4","64.5","0","0"],
    [10373,"2011-07-13T00:00:00","15.6","ND","ND","934.35","12.86","ND","0.6","113.1","22.5","75.6","0","0"],
    [10374,"2011-07-13T01:00:00","16.5","ND","ND","772.48","11.17","ND","1.6","5.8","20.2","91.7","0","9.4"],
    [10375,"2011-07-13T02:00:00","9.3","ND","ND","856.64","9.60","ND","0.7","1.9","19.4","96.6","0","7.87"],
    [10376,"2011-07-13T03:00:00","11","ND","ND","663.21","10.74","ND","0.8","42.4","19.5","95","0","0.51"],
    [10377,"2011-07-13T04:00:00","6.3","ND","ND","562.23","8.55","ND","0.4","156.4","19.7","94.5","0","0"],
    [10378,"2011-07-13T05:00:00","7.2","ND","ND","506.35","10.10","ND","0.4","169.1","19.9","93.9","0","0.25"],
    [10379,"2011-07-13T06:00:00","9.8","ND","ND","608.04","8.18","ND","0.3","163.6","20.1","93.9","0","0"],
    [10380,"2011-07-13T07:00:00","7.1","ND","ND","597.19","6.76","ND","1.1","172.5","20.2","91.8","5.9","0.25"],
    [10381,"2011-07-13T08:00:00","5.3","ND","ND","586.12","5.85","ND","0.6","159.5","20.6","88","55.2","0"],
    [10382,"2011-07-13T09:00:00","8.6","ND","ND","902.95","5.22","ND","0.3","250.6","21.3","86.2","107.3","0"],
    [10383,"2011-07-13T10:00:00","5.3","ND","ND","1199.27","5.83","ND","0.6","101.6","22.1","82.4","132.9","0"],
    [10384,"2011-07-13T11:00:00","22.8","ND","ND","1588.24","9.70","ND","0.2","208.5","22.6","79.3","114.2","0"],
    [10385,"2011-07-13T12:00:00","13.6","ND","ND","1090.93","17.40","ND","0.2","68.4","23.9","74.8","402.3","0"],
    [10386,"2011-07-13T13:00:00","20.7","ND","ND","935.93","19.98","ND","0.7","49.9","25.1","69","405.5","0"],
    [10387,"2011-07-13T14:00:00","16.7","ND","ND","ND","25.62","ND","0.5","48.1","26.1","63","353.6","0"],
    [10388,"2011-07-13T15:00:00","22.3","ND","ND","ND","ND","ND","1.6","280.6","26","61.7","250.7","0"],
    [10389,"2011-07-13T16:00:00","13.5","ND","ND","68.97","67.85","ND","0.6","76.3","26.9","57","279.6","0"],
    [10390,"2011-07-13T17:00:00","7.3","ND","ND","115.29","57.11","ND","1.4","263.8","27","53.4","214.5","0"],
    [10391,"2011-07-13T18:00:00","4.9","ND","ND","69.20","45.42","ND","2.2","284","26","53.5","80.1","0"],
    [10392,"2011-07-13T19:00:00","5.7","ND","ND","11.49","25.95","ND","1.8","297.7","25.3","56.1","3.2","0"],
    [10393,"2011-07-13T20:00:00","4.9","ND","ND","22.94","22.90","ND","0.5","47.9","24.9","58.4","0","0"],
    [10394,"2011-07-13T21:00:00","3.4","ND","ND","11.45","16.69","ND","1.1","115.4","24","64.4","0","0"],
    [10395,"2011-07-13T22:00:00","14.1","ND","ND","ND","9.82","ND","1.1","116","23.4","67.4","0","0"],
    [10396,"2011-07-13T23:00:00","19.7","ND","ND","45.58","8.06","ND","1.1","149.8","22.7","74.6","0","0"],
    [10397,"2011-07-14T00:00:00","11.8","ND","ND","11.37","6.11","ND","2.2","158.9","22.1","80.9","0","0"],
    [10398,"2011-07-14T01:00:00","9.6","ND","ND","ND","6.80","ND","1.5","162","21.7","81.9","0","0"],
    [10399,"2011-07-14T02:00:00","5.4","ND","ND","11.33","11.72","ND","0.4","139.5","21.5","82.9","0","0"],
    [10400,"2011-07-14T03:00:00","11.2","ND","ND","33.96","9.70","ND","0.1","155.7","21","86.1","0","0"],
    [10401,"2011-07-14T04:00:00","6.7","ND","ND","33.91","10.40","ND","0.3","32.3","20.6","86.7","0","0"],
    [10402,"2011-07-14T05:00:00","31.9","ND","ND","22.57","9.59","ND","0.1","0.1","20.8","85.8","0","0"],
    [10403,"2011-07-14T06:00:00","18","ND","ND","33.88","5.59","ND","0.7","52.6","20.4","86.7","0","0"],
    [10404,"2011-07-14T07:00:00","54.4","ND","ND","ND","5.89","ND","0.2","52.4","20.3","88.1","7.1","0"],
    [10405,"2011-07-14T08:00:00","67.8","3.04","ND","ND","4.79","ND","0.5","40","20.7","86.4","46","0"],
    [10406,"2011-07-14T09:00:00","64.6","8.91","ND","11.29","5.55","ND","0.5","27.9","21.6","82","193.1","0"],
    [10407,"2011-07-14T10:00:00","52.8","25.62","ND","135.90","6.65","ND","0.9","92.5","24","72.1","460.2","0"],
    [10408,"2011-07-14T11:00:00","66.5","49.46","ND","91.34","11.28","ND","0.3","27.7","24.6","68.5","315.2","0"],
    [10409,"2011-07-14T12:00:00","35","32.55","ND","11.44","25.71","ND","0.2","39.9","26.4","60.4","607.8","0"],
    [10410,"2011-07-14T13:00:00","50.9","9.92","ND","149.63","41.38","ND","0.8","56.1","27.5","56.7","550.8","0"],
    [10411,"2011-07-14T14:00:00","26.7","15.91","ND","11.55","70.49","ND","1.4","50.5","27.6","57","390.4","0"],
    [10412,"2011-07-14T15:00:00","32.6","25.64","ND","46.22","86.09","ND","1","283.7","27.9","54.1","370.5","0"],
    [10413,"2011-07-14T16:00:00","17.3","45.64","ND","34.70","72.48","ND","3.6","271.6","27.4","52.8","330.5","0"],
    [10414,"2011-07-14T17:00:00","16","36.21","ND","11.55","47.36","ND","3.2","260.9","24.9","62.6","88","0.76"],
    [10415,"2011-07-14T18:00:00","4.9","ND","ND","68.71","21.87","ND","6","274.4","25.1","55","113.4","0"],
    [10416,"2011-07-14T19:00:00","15.1","ND","ND","45.84","19.26","ND","7.4","270.1","24.5","53.9","7.2","0"],
    [10417,"2011-07-14T20:00:00","16","ND","ND","22.87","27.41","ND","3.5","198.2","21.7","81.6","0","2.29"],
    [10418,"2011-07-14T21:00:00","22.5","ND","ND","56.65","25.87","ND","2","184.5","19.7","88.4","0","4.57"],
    [10419,"2011-07-14T22:00:00","12.1","ND","ND","382.58","16.73","ND","1.6","175","19.6","90.5","0","0"],
    [10420,"2011-07-14T23:00:00","7.9","ND","ND","472.44","7.96","ND","0.1","206.9","19.9","90.3","0","0"],
    [10421,"2011-07-15T00:00:00","4.8","ND","ND","844.50","5.27","ND","0.1","278.4","20.3","87.7","0","0.25"],
    [10422,"2011-07-15T01:00:00","3.1","ND","ND","800.55","5.52","ND","0.2","158.8","20.3","88.7","0","0"],
    [10423,"2011-07-15T02:00:00","2.6","ND","ND","620.15","8.11","ND","0.3","125.7","20.1","93.1","0","0"],
    [10424,"2011-07-15T03:00:00","3.9","ND","ND","743.67","6.83","ND","0.5","130.2","20","90.8","0","0"],
    [10425,"2011-07-15T04:00:00","3.3","ND","ND","1464.30","5.87","ND","0.7","101.2","19.9","92.6","0","0"],
    [10426,"2011-07-15T05:00:00","3","ND","ND","1565.14","4.90","ND","0.2","108","19.7","93.9","0","0.51"],
    [10427,"2011-07-15T06:00:00","3","ND","ND","1384.04","5.72","ND","0.8","59","19.4","95.9","0","0.51"],
    [10428,"2011-07-15T07:00:00","3","ND","ND","1562.47","7.01","ND","0.8","55.1","19.2","97.3","5.6","2.29"],
    [10429,"2011-07-15T08:00:00","2.3","ND","ND","1763.60","6.37","ND","1.2","44.4","19.2","96.5","30.6","1.52"],
    [10430,"2011-07-15T09:00:00","6","ND","ND","2167.99","5.23","ND","0.9","33.2","19.7","94.6","95.8","0"],
    [10431,"2011-07-15T10:00:00","24.9","0.28","ND","2194.20","6.03","ND","0.3","44.7","21","86.5","259.3","0"],
    [10432,"2011-07-15T11:00:00","22.6","4.91","ND","2543.02","8.52","ND","0","335.2","22.7","77.6","421.7","0"],
    [10433,"2011-07-15T12:00:00","14.2","33.51","ND","2785.08","12.09","ND","0.6","136.3","24.2","69","465.7","0"],
    [10434,"2011-07-15T13:00:00","23.9","38.99","ND","2639.25","18.79","ND","1","188.3","25","66.5","435.3","0"],
    [10435,"2011-07-15T14:00:00","15.7","26.57","ND","2726.55","46.45","ND","0.7","235.1","25.7","63.1","355.1","0"],
    [10436,"2011-07-15T15:00:00","19.3","4.75","ND","3134.85","83.01","ND","1.2","291","26","61.9","333.8","0"],
    [10437,"2011-07-15T16:00:00","11.7","0.05","ND","3310.42","100.77","ND","2.1","6","27","56.4","429.7","0"],
    [10438,"2011-07-15T17:00:00","26.6","0.34","ND","3459.89","104.47","ND","1.6","37.8","26.4","59.4","227.5","0"],
    [10439,"2011-07-15T18:00:00","27.1","4.21","ND","3487.50","85.11","ND","1","35.2","23.1","79.4","27.1","0.25"],
    [10440,"2011-07-15T19:00:00","18.5","5.31","ND","ND","24.51","ND","0.3","312.6","22.5","84","0.9","0.25"],
    [10441,"2011-07-15T20:00:00","10.8","0.99","ND","ND","14.13","ND","0.4","353.7","22.4","83.7","0","0"],
    [10442,"2011-07-15T21:00:00","54.7","1.64","ND","ND","7.76","ND","0.9","296.7","22.2","86.7","0","0"],
    [10443,"2011-07-15T22:00:00","41.5","4.26","ND","ND","6.20","ND","0.8","181.5","21.9","84.8","0","0"],
    [10444,"2011-07-15T23:00:00","37.5","6.02","ND","ND","7.61","ND","0.5","140.1","21.5","85.1","0","0"],
    [10445,"2011-07-16T00:00:00","20.9","10.62","ND","ND","5.97","ND","0.6","151.3","20.5","91.3","0","0.25"],
    [10446,"2011-07-16T01:00:00","11.8","2.06","ND","ND","5.60","ND","0.8","353.9","20","94.9","0","0.51"],
    [10447,"2011-07-16T02:00:00","6.8","ND","ND","ND","5.85","ND","0.9","354","19.8","96.2","0","0"],
    [10448,"2011-07-16T03:00:00","4.4","ND","ND","ND","6.63","ND","0.1","56.3","19.9","96.3","0","1.02"],
    [10449,"2011-07-16T04:00:00","4.7","1.08","ND","ND","7.87","ND","0.8","158.9","20","95.5","0","0.25"],
    [10450,"2011-07-16T05:00:00","3.8","1.37","ND","ND","8.80","ND","0.9","166.4","20","94.9","0","0"],
    [10451,"2011-07-16T06:00:00","5.3","ND","ND","ND","6.10","ND","0.5","358.2","19.7","95.7","0","0"],
    [10452,"2011-07-16T07:00:00","29.2","ND","ND","ND","5.17","ND","0.6","55.2","19.5","96.2","7.7","0"],
    [10453,"2011-07-16T08:00:00","16.6","ND","ND","ND","5.01","ND","0.1","1.2","20.1","93.1","63.3","0"],
    [10454,"2011-07-16T09:00:00","15.2","0.15","ND","ND","5.37","ND","0.7","50.8","21.2","85.7","226.3","0"],
    [10455,"2011-07-16T10:00:00","14.2","4.40","ND","ND","6.70","ND","0.5","30.7","22.6","77.9","284.3","0"],
    [10456,"2011-07-16T11:00:00","33.3","20.17","ND","ND","12.85","ND","0.5","68.7","24.7","69.3","639.4","0"],
    [10457,"2011-07-16T12:00:00","19.1","11.54","ND","ND","24.58","ND","0.9","116.2","25.7","63","579.6","0"],
    [10458,"2011-07-16T13:00:00","31.5","6.46","ND","ND","42.88","ND","1.7","72.3","26.7","60.7","563.7","0"],
    [10459,"2011-07-16T14:00:00","16.8","3.21","ND","ND","83.07","ND","1.9","57.2","27.7","58.7","664.5","0"],
    [10460,"2011-07-16T15:00:00","33.4","2.56","ND","ND","89.54","ND","1.7","21.5","28.7","53","560.9","0"],
    [10461,"2011-07-16T16:00:00","19","28.86","ND","ND","77.62","ND","1.3","21","29.3","51","427.2","0"],
    [10462,"2011-07-16T17:00:00","13.5","20.17","ND","ND","67.27","ND","2.4","267.7","28.7","54","297.5","0"],
    [10463,"2011-07-16T18:00:00","17","14.96","ND","ND","50.07","ND","1.7","268.6","27.9","54.9","74.1","0"],
    [10464,"2011-07-16T19:00:00","16.3","ND","ND","ND","36.89","ND","0.7","230.3","26.6","58.9","1.8","0"],
    [10465,"2011-07-16T20:00:00","9.2","ND","ND","ND","30.11","ND","0.6","157.1","26.2","61.2","0","0"],
    [10466,"2011-07-16T21:00:00","33.8","0.03","ND","ND","18.38","ND","0.2","333","25","66","0","0"],
    [10467,"2011-07-16T22:00:00","36.3","5.00","ND","ND","8.77","ND","0.6","132.8","24.9","67.8","0","0"],
    [10468,"2011-07-16T23:00:00","93.4","1.70","ND","ND","5.89","ND","0.2","65.2","23.8","74.3","0","0"],
    [10469,"2011-07-17T00:00:00","58.2","24.90","ND","ND","7.27","ND","0.1","64","23.1","78.4","0","0"],
    [10470,"2011-07-17T01:00:00","45.9","11.22","ND","ND","7.08","ND","0","20.4","22.6","81.5","0","0"],
    [10471,"2011-07-17T02:00:00","30.6","3.30","ND","ND","7.05","ND","0.5","139.7","22.2","83.4","0","0"],
    [10472,"2011-07-17T03:00:00","42.5","1.77","ND","ND","7.60","ND","0.2","33.6","21.7","86","0","0"],
    [10473,"2011-07-17T04:00:00","22","ND","ND","ND","6.71","ND","0.1","322.9","21.8","85.4","0","0"],
    [10474,"2011-07-17T05:00:00","38.3","ND","ND","ND","6.17","ND","0.2","333","21.3","86.3","0","0"],
    [10475,"2011-07-17T06:00:00","27.2","ND","ND","ND","6.05","ND","0","188.1","21.7","85.2","0","0"],
    [10476,"2011-07-17T07:00:00","50.4","ND","ND","ND","5.72","ND","0.1","31.5","22","84.5","11.3","0"],
    [10477,"2011-07-17T08:00:00","47.9","ND","ND","ND","5.87","ND","0.5","85.1","22","84.6","63.8","0"],
    [10478,"2011-07-17T09:00:00","51.5","0.18","ND","ND","6.14","ND","0.5","40.8","22.9","80.7","159.2","0"],
    [10479,"2011-07-17T10:00:00","43.8","3.85","ND","ND","7.23","ND","0.6","36.8","24.7","71.6","471","0"],
    [10480,"2011-07-17T11:00:00","25.6","13.66","ND","ND","10.39","ND","1","58.1","26.3","64.7","632.9","0"],
    [10481,"2011-07-17T12:00:00","19.6","94.16","ND","ND","20.06","ND","0.6","122.5","27","61.6","329.5","0"],
    [10482,"2011-07-17T13:00:00","35.1","100.16","ND","ND","34.14","ND","1.4","55.7","27.4","60.9","444.5","0"],
    [10483,"2011-07-17T14:00:00","24.6","22.56","ND","ND","64.15","ND","0.9","42.3","27.6","59.6","219.8","0"],
    [10484,"2011-07-17T15:00:00","24.5","13.40","ND","ND","71.50","ND","1.9","255.6","27.6","56.7","169.9","0"],
    [10485,"2011-07-17T16:00:00","14.6","11.50","ND","ND","78.61","ND","1","302.4","28.3","53.1","408.5","0"],
    [10486,"2011-07-17T17:00:00","9.4","7.02","ND","ND","49.11","ND","2.5","262.9","28.2","51.7","242.7","0"],
    [10487,"2011-07-17T18:00:00","7.3","0.40","ND","ND","36.87","ND","1.1","282.9","27","53.7","27.3","0"],
    [10488,"2011-07-17T19:00:00","10.5","1.21","ND","ND","35.68","ND","0.3","354.9","25.9","59.4","0.7","0"],
    [10489,"2011-07-17T20:00:00","12.6","ND","ND","ND","28.54","ND","0.6","164.2","25","66.9","0","0"],
    [10490,"2011-07-17T21:00:00","8.4","ND","ND","ND","19.70","ND","0.7","180.5","24.5","66.8","0","0"],
    [10491,"2011-07-17T22:00:00","17.6","0.16","ND","ND","7.99","ND","0.2","215.7","23.5","72.8","0","0"],
    [10492,"2011-07-17T23:00:00","32.2","ND","ND","ND","6.03","ND","0.4","181","23.1","73.9","0","0"],
    [10493,"2011-07-18T00:00:00","18.7","2.34","ND","ND","6.45","ND","0.6","332","22.1","80.3","0","0"],
    [10494,"2011-07-18T01:00:00","30.5","1.09","ND","ND","5.77","ND","0.2","247.4","22.3","80.4","0","0"],
    [10495,"2011-07-18T02:00:00","31.1","0.03","ND","ND","5.81","ND","0.4","101.9","22.1","81.1","0","0"],
    [10496,"2011-07-18T03:00:00","35","6.77","ND","ND","5.93","ND","0.6","35.8","21.5","83.7","0","0"],
    [10497,"2011-07-18T04:00:00","18.9","4.40","ND","ND","5.53","ND","0.1","120.9","21.2","83.8","0","0"],
    [10498,"2011-07-18T05:00:00","11.3","0.10","ND","ND","5.37","ND","0.3","215.8","21.5","84.3","0","0"],
    [10499,"2011-07-18T06:00:00","6.8","3.86","ND","ND","5.76","ND","0.3","176.9","21.4","84.6","0","0"],
    [10500,"2011-07-18T07:00:00","13.4","7.84","ND","ND","6.28","ND","0.3","148.7","21.7","83.6","13.3","0"],
    [10501,"2011-07-18T08:00:00","35.9","6.14","ND","ND","5.76","ND","1","57.1","22","83.6","69","0"],
    [10502,"2011-07-18T09:00:00","54.3","5.52","ND","ND","6.33","ND","0.7","97.1","22.4","82.1","72.3","0"],
    [10503,"2011-07-18T10:00:00","52.7","12.81","ND","ND","7.61","ND","0.6","127.7","23.1","76.8","161.3","0"],
    [10504,"2011-07-18T11:00:00","67.8","14.87","ND","ND","10.88","ND","0.5","45.1","23.6","76.1","195","0"],
    [10505,"2011-07-18T12:00:00","55.8","15.65","ND","ND","12.77","ND","0.8","145.8","25.2","67.7","418","0"],
    [10506,"2011-07-18T13:00:00","54.7","ND","ND","ND","ND","ND","0.3","151.2","27.1","58.2","578.1","0"],
    [10507,"2011-07-18T14:00:00","36.4","ND","ND","ND","ND","ND","1","115","27.8","56.2","327.4","0"],
    [10508,"2011-07-18T15:00:00","32.6","20.34","34.30","ND","106.75","ND","0.2","175.5","28.1","55.4","402.4","0"],
    [10509,"2011-07-18T16:00:00","49.1","15.33","31.23","ND","116.83","ND","0.9","329.1","28","56.6","220.3","0"],
    [10510,"2011-07-18T17:00:00","43.9","14.69","32.80","ND","126.44","ND","1.5","253.8","28.2","53.8","150","0"],
    [10511,"2011-07-18T18:00:00","24","21.69","35.10","ND","130.07","ND","2.2","247.2","27.8","53.2","68.2","0"],
    [10512,"2011-07-18T19:00:00","29","10.82","23.56","ND","43.82","ND","1.7","256.3","26.3","57.9","2.9","0"],
    [10513,"2011-07-18T20:00:00","20.2","6.61","22.74","ND","28.11","ND","1.9","262.8","25.8","60.3","0","0"],
    [10514,"2011-07-18T21:00:00","28.9","5.96","27.10","ND","15.86","ND","0.1","194","25.8","60.8","0","0"],
    [10515,"2011-07-18T22:00:00","56.9","5.33","21.81","ND","19.85","ND","0.6","103.8","24.2","71.2","0","0"],
    [10516,"2011-07-18T23:00:00","47.4","8.00","38.56","ND","34.82","ND","0.1","231.8","23.7","73.4","0","0"],
    [10517,"2011-07-19T00:00:00","39.4","13.72","34.88","ND","70.71","ND","0.1","274.9","23.6","74.9","0","0"],
    [10518,"2011-07-19T01:00:00","49.7","14.94","34.17","ND","5.25","ND","0.6","52.3","22.3","85.9","0.1","40.89"],
    [10519,"2011-07-19T02:00:00","33.9","15.86","32.85","ND","5.39","ND","1","259.1","20","100","0","38.35"],
    [10520,"2011-07-19T03:00:00","22.7","10.12","28.44","ND","7.68","ND","0.5","23.7","20.1","99.8","0","2.79"],
    [10521,"2011-07-19T04:00:00","13.4","4.87","22.41","ND","8.36","ND","1.2","314.8","19.8","94.9","0","6.86"],
    [10522,"2011-07-19T05:00:00","7.5","4.53","15.27","ND","13.48","ND","0.2","101.7","20.1","92","0","0"],
    [10523,"2011-07-19T06:00:00","ND","4.43","13.91","ND","17.80","ND","0.3","296.8","20.2","92.7","0.1","0.25"],
    [10524,"2011-07-19T07:00:00","ND","4.28","15.03","ND","19.37","ND","0.2","247.6","20.5","93","19.1","0"],
    [10525,"2011-07-19T08:00:00","ND","4.75","22.82","ND","9.26","ND","0.4","206.8","22.2","83.7","175.8","0"],
    [10526,"2011-07-19T09:00:00","66.6","7.40","30.45","ND","5.48","ND","0.4","143.6","23.9","73.6","198.5","0"],
    [10527,"2011-07-19T10:00:00","41.8","20.86","37.08","ND","7.55","ND","0.5","87.5","24.7","73.5","405.9","0"],
    [10528,"2011-07-19T11:00:00","55","29.55","58.33","ND","19.86","ND","1.3","122.7","26.2","66.6","483.5","0"],
    [10529,"2011-07-19T12:00:00","29.6","20.89","78.93","ND","52.69","ND","1.1","142","27.4","60.3","655.2","0"],
    [10530,"2011-07-19T13:00:00","18.4","16.75","47.92","ND","86.53","ND","0.2","216.4","28.3","56.4","407.3","0"],
    [10531,"2011-07-19T14:00:00","30.6","13.06","24.72","ND","100.51","ND","1.3","104.6","29","55","627.2","0"],
    [10532,"2011-07-19T15:00:00","36.4","11.26","23.48","ND","119.32","ND","1.2","90.7","29.5","54.7","546.4","0"],
    [10533,"2011-07-19T16:00:00","28","11.04","21.36","ND","114.42","ND","0.6","7.6","30.3","52","456.9","0"],
    [10534,"2011-07-19T17:00:00","46.7","11.60","19.34","ND","101.52","ND","0.9","107.2","30.4","51.8","197","0"],
    [10535,"2011-07-19T18:00:00","29.4","12.75","22.55","ND","111.44","ND","1","240.4","29.2","54.2","69.8","0"],
    [10536,"2011-07-19T19:00:00","30.4","12.20","29.57","ND","111.84","ND","0.2","221.9","27.5","59.3","2.3","0"],
    [10537,"2011-07-19T20:00:00","32.6","7.58","30.50","ND","43.30","ND","0.3","287.3","26.1","66.5","0","0"],
    [10538,"2011-07-19T21:00:00","80.7","6.76","52.50","ND","18.36","ND","0.4","109.2","26.4","63.6","0","0"],
    [10539,"2011-07-19T22:00:00","75.8","15.56","73.33","ND","7.97","ND","0.7","117.6","25.5","68.3","0","0"],
    [10540,"2011-07-19T23:00:00","77.8","14.12","69.54","ND","7.51","ND","0.1","10.3","24.7","72.1","0","0"],
    [10541,"2011-07-20T00:00:00","54.2","25.73","53.79","ND","6.41","ND","0.3","287.5","24.1","75.4","0","0"],
    [10542,"2011-07-20T01:00:00","55.5","19.91","44.69","ND","6.10","ND","0.3","266.8","24","76.7","0","0"],
    [10543,"2011-07-20T02:00:00","37","15.96","39.44","ND","7.14","ND","0.6","253.1","24.3","73","0","0"],
    [10544,"2011-07-20T03:00:00","54.4","14.95","35.16","ND","6.79","ND","1.2","7.8","22.8","85.5","0","0"],
    [10545,"2011-07-20T04:00:00","50.5","10.20","22.04","ND","9.16","ND","0.3","338.5","22.7","84.8","0","0"],
    [10546,"2011-07-20T05:00:00","48.8","10.43","27.85","ND","12.79","ND","0.2","358.1","22.3","86.5","0","0"],
    [10547,"2011-07-20T06:00:00","43.2","12.02","28.63","ND","7.27","ND","0.2","52.3","21.6","87.7","0.1","0"],
    [10548,"2011-07-20T07:00:00","77.8","13.24","28.36","ND","6.17","ND","0","39.8","21.2","90.3","25.5","0"],
    [10549,"2011-07-20T08:00:00","45.8","19.17","26.07","ND","5.52","ND","0.3","40.3","23","81.6","172.7","0"],
    [10550,"2011-07-20T09:00:00","105","18.48","25.14","ND","6.16","ND","1.3","40.8","24.1","77.3","355.7","0"],
    [10551,"2011-07-20T10:00:00","56.4","38.77","35.77","ND","9.57","ND","0.9","84.5","25.9","67.1","542.6","0"],
    [10552,"2011-07-20T11:00:00","47.4","125.70","41.15","ND","19.58","ND","0.2","121.8","27.7","55.8","674.5","0"],
    [10553,"2011-07-20T12:00:00","25","52.51","21.63","ND","46.51","ND","0.8","81.7","29.2","50.8","740.1","0"],
    [10554,"2011-07-20T13:00:00","46.5","54.29","23.26","ND","70.13","ND","1.3","88","30.2","49.1","647.6","0"],
    [10555,"2011-07-20T14:00:00","45.1","44.36","23.84","ND","105.24","ND","1.2","49.2","30.7","48.8","669.6","0"],
    [10556,"2011-07-20T15:00:00","ND","45.98","17.58","ND","111.03","ND","ND","ND","ND","ND","ND","ND"],
    [10557,"2011-07-20T16:00:00","ND","ND","ND","ND","ND","ND","ND","ND","ND","ND","ND","ND"],
    [10558,"2011-07-20T17:00:00","ND","ND","ND","ND","ND","ND","ND","ND","ND","ND","ND","ND"],
    [10559,"2011-07-20T18:00:00","ND","ND","ND","ND","ND","ND","ND","ND","ND","ND","ND","ND"],
    [10560,"2011-07-20T19:00:00","ND","ND","ND","ND","ND","ND","ND","ND","ND","ND","ND","ND"],
    [10561,"2011-07-20T20:00:00","ND","ND","ND","ND","ND","ND","ND","ND","ND","ND","ND","ND"],
    [10562,"2011-07-20T21:00:00","ND","ND","ND","ND","ND","ND","ND","ND","ND","ND","ND","ND"],
    [10563,"2011-07-20T22:00:00","ND","ND","ND","ND","ND","ND","ND","ND","ND","ND","ND","ND"],
    [10564,"2011-07-20T23:00:00","ND","ND","ND","ND","ND","ND","ND","ND","ND","ND","ND","ND"],
    [10565,"2011-07-21T00:00:00","ND","ND","ND","ND","ND","ND","ND","ND","ND","ND","ND","ND"],
    [10566,"2011-07-21T01:00:00","ND","ND","ND","ND","ND","ND","ND","ND","ND","ND","ND","ND"],
    [10567,"2011-07-21T02:00:00","ND","ND","ND","ND","ND","ND","ND","ND","ND","ND","ND","ND"],
    [10568,"2011-07-21T03:00:00","ND","ND","ND","ND","ND","ND","ND","ND","ND","ND","ND","ND"],
    [10569,"2011-07-21T04:00:00","ND","ND","ND","ND","ND","ND","ND","ND","ND","ND","ND","ND"],
    [10570,"2011-07-21T05:00:00","ND","ND","ND","ND","ND","ND","ND","ND","ND","ND","ND","ND"],
    [10571,"2011-07-21T06:00:00","ND","ND","ND","ND","ND","ND","ND","ND","ND","ND","ND","ND"],
    [10572,"2011-07-21T07:00:00","ND","ND","ND","ND","ND","ND","ND","ND","ND","ND","ND","ND"],
    [10573,"2011-07-21T08:00:00","ND","ND","ND","ND","ND","ND","ND","ND","ND","ND","ND","ND"],
    [10574,"2011-07-21T09:00:00","ND","ND","ND","ND","ND","ND","ND","ND","ND","ND","ND","ND"],
    [10575,"2011-07-21T10:00:00","ND","ND","ND","ND","ND","ND","ND","ND","ND","ND","ND","ND"],
    [10576,"2011-07-21T11:00:00","ND","ND","ND","ND","ND","ND","ND","ND","ND","ND","ND","ND"],
    [10577,"2011-07-21T12:00:00","ND","ND","ND","ND","ND","ND","ND","ND","ND","ND","ND","ND"],
    [10578,"2011-07-21T13:00:00","ND","ND","ND","ND","ND","ND","ND","ND","ND","ND","ND","ND"],
    [10579,"2011-07-21T14:00:00","ND","ND","ND","ND","ND","ND","ND","ND","ND","ND","ND","ND"],
    [10580,"2011-07-21T15:00:00","ND","ND","ND","ND","ND","ND","ND","ND","ND","ND","ND","ND"],
    [10581,"2011-07-21T16:00:00","ND","ND","ND","ND","ND","ND","ND","ND","ND","ND","ND","ND"],
    [10582,"2011-07-21T17:00:00","ND","ND","ND","ND","ND","ND","ND","ND","ND","ND","ND","ND"],
    [10583,"2011-07-21T18:00:00","ND","ND","ND","ND","ND","ND","ND","ND","ND","ND","ND","ND"],
    [10584,"2011-07-21T19:00:00","ND","ND","ND","ND","ND","ND","ND","ND","ND","ND","ND","ND"],
    [10585,"2011-07-21T20:00:00","ND","ND","ND","ND","ND","ND","ND","ND","ND","ND","ND","ND"],
    [10586,"2011-07-21T21:00:00","ND","ND","ND","ND","ND","ND","ND","ND","ND","ND","ND","ND"],
    [10587,"2011-07-21T22:00:00","ND","ND","ND","ND","ND","ND","ND","ND","ND","ND","ND","ND"],
    [10588,"2011-07-21T23:00:00","ND","ND","ND","ND","ND","ND","ND","ND","ND","ND","ND","ND"],
    [10589,"2011-07-22T00:00:00","ND","ND","ND","ND","ND","ND","ND","ND","ND","ND","ND","ND"],
    [10590,"2011-07-22T01:00:00","ND","ND","ND","ND","ND","ND","ND","ND","ND","ND","ND","ND"],
    [10591,"2011-07-22T02:00:00","ND","ND","ND","ND","ND","ND","ND","ND","ND","ND","ND","ND"],
    [10592,"2011-07-22T03:00:00","ND","ND","ND","ND","ND","ND","ND","ND","ND","ND","ND","ND"],
    [10593,"2011-07-22T04:00:00","ND","ND","ND","ND","ND","ND","ND","ND","ND","ND","ND","ND"],
    [10594,"2011-07-22T05:00:00","ND","ND","ND","ND","ND","ND","ND","ND","ND","ND","ND","ND"],
    [10595,"2011-07-22T06:00:00","ND","ND","ND","ND","ND","ND","ND","ND","ND","ND","ND","ND"],
    [10596,"2011-07-22T07:00:00","ND","ND","ND","ND","ND","ND","ND","ND","ND","ND","ND","ND"],
    [10597,"2011-07-22T08:00:00","ND","ND","ND","ND","ND","ND","ND","ND","ND","ND","ND","ND"],
    [10598,"2011-07-22T09:00:00","ND","ND","ND","ND","ND","ND","ND","ND","ND","ND","ND","ND"],
    [10599,"2011-07-22T10:00:00","ND","ND","ND","ND","ND","ND","ND","ND","ND","ND","ND","ND"],
    [10600,"2011-07-22T11:00:00","ND","ND","ND","ND","ND","ND","ND","ND","ND","ND","ND","ND"],
    [10601,"2011-07-22T12:00:00","ND","ND","ND","ND","ND","ND","ND","ND","ND","ND","ND","ND"],
    [10602,"2011-07-22T13:00:00","ND","ND","ND","ND","ND","ND","ND","ND","ND","ND","ND","ND"],
    [10603,"2011-07-22T14:00:00","ND","ND","ND","ND","ND","ND","ND","ND","ND","ND","ND","ND"],
    [10604,"2011-07-22T15:00:00","ND","ND","ND","ND","ND","ND","ND","ND","ND","ND","ND","ND"],
    [10605,"2011-07-22T16:00:00","ND","ND","ND","ND","ND","ND","ND","ND","ND","ND","ND","ND"],
    [10606,"2011-07-22T17:00:00","ND","ND","ND","ND","ND","ND","ND","ND","ND","ND","ND","ND"],
    [10607,"2011-07-22T18:00:00","ND","ND","ND","ND","ND","ND","ND","ND","ND","ND","ND","ND"],
    [10608,"2011-07-22T19:00:00","ND","ND","ND","ND","ND","ND","ND","ND","ND","ND","ND","ND"],
    [10609,"2011-07-22T20:00:00","ND","ND","ND","ND","ND","ND","ND","ND","ND","ND","ND","ND"],
    [10610,"2011-07-22T21:00:00","ND","ND","ND","ND","ND","ND","ND","ND","ND","ND","ND","ND"],
    [10611,"2011-07-22T22:00:00","ND","ND","ND","ND","ND","ND","ND","ND","ND","ND","ND","ND"],
    [10612,"2011-07-22T23:00:00","ND","ND","ND","ND","ND","ND","ND","ND","ND","ND","ND","ND"],
    [10613,"2011-07-23T00:00:00","ND","ND","ND","ND","ND","ND","ND","ND","ND","ND","ND","ND"],
    [10614,"2011-07-23T01:00:00","ND","ND","ND","ND","ND","ND","ND","ND","ND","ND","ND","ND"],
    [10615,"2011-07-23T02:00:00","ND","ND","ND","ND","ND","ND","ND","ND","ND","ND","ND","ND"],
    [10616,"2011-07-23T03:00:00","ND","ND","ND","ND","ND","ND","ND","ND","ND","ND","ND","ND"],
    [10617,"2011-07-23T04:00:00","ND","ND","ND","ND","ND","ND","ND","ND","ND","ND","ND","ND"],
    [10618,"2011-07-23T05:00:00","ND","ND","ND","ND","ND","ND","ND","ND","ND","ND","ND","ND"],
    [10619,"2011-07-23T06:00:00","ND","ND","ND","ND","ND","ND","ND","ND","ND","ND","ND","ND"],
    [10620,"2011-07-23T07:00:00","ND","ND","ND","ND","ND","ND","ND","ND","ND","ND","ND","ND"],
    [10621,"2011-07-23T08:00:00","ND","ND","ND","ND","ND","ND","ND","ND","ND","ND","ND","ND"],
    [10622,"2011-07-23T09:00:00","ND","ND","ND","ND","ND","ND","ND","ND","ND","ND","ND","ND"],
    [10623,"2011-07-23T10:00:00","ND","ND","ND","ND","ND","ND","ND","ND","ND","ND","ND","ND"],
    [10624,"2011-07-23T11:00:00","ND","ND","ND","ND","ND","ND","ND","ND","ND","ND","ND","ND"],
    [10625,"2011-07-23T12:00:00","ND","ND","ND","ND","ND","ND","ND","ND","ND","ND","ND","ND"],
    [10626,"2011-07-23T13:00:00","ND","ND","ND","ND","ND","ND","ND","ND","ND","ND","ND","ND"],
    [10627,"2011-07-23T14:00:00","ND","ND","ND","ND","ND","ND","ND","ND","ND","ND","ND","ND"],
    [10628,"2011-07-23T15:00:00","ND","ND","ND","ND","ND","ND","ND","ND","ND","ND","ND","ND"],
    [10629,"2011-07-23T16:00:00","ND","ND","ND","ND","ND","ND","ND","ND","ND","ND","ND","ND"],
    [10630,"2011-07-23T17:00:00","ND","ND","ND","ND","ND","ND","ND","ND","ND","ND","ND","ND"],
    [10631,"2011-07-23T18:00:00","ND","ND","ND","ND","ND","ND","ND","ND","ND","ND","ND","ND"],
    [10632,"2011-07-23T19:00:00","ND","ND","ND","ND","ND","ND","ND","ND","ND","ND","ND","ND"],
    [10633,"2011-07-23T20:00:00","ND","ND","ND","ND","ND","ND","ND","ND","ND","ND","ND","ND"],
    [10634,"2011-07-23T21:00:00","ND","ND","ND","ND","ND","ND","ND","ND","ND","ND","ND","ND"],
    [10635,"2011-07-23T22:00:00","ND","ND","ND","ND","ND","ND","ND","ND","ND","ND","ND","ND"],
    [10636,"2011-07-23T23:00:00","ND","ND","ND","ND","ND","ND","ND","ND","ND","ND","ND","ND"],
    [10637,"2011-07-24T00:00:00","ND","ND","ND","ND","ND","ND","ND","ND","ND","ND","ND","ND"],
    [10638,"2011-07-24T01:00:00","ND","ND","ND","ND","ND","ND","ND","ND","ND","ND","ND","ND"],
    [10639,"2011-07-24T02:00:00","ND","ND","ND","ND","ND","ND","ND","ND","ND","ND","ND","ND"],
    [10640,"2011-07-24T03:00:00","ND","ND","ND","ND","ND","ND","ND","ND","ND","ND","ND","ND"],
    [10641,"2011-07-24T04:00:00","ND","ND","ND","ND","ND","ND","ND","ND","ND","ND","ND","ND"],
    [10642,"2011-07-24T05:00:00","ND","ND","ND","ND","ND","ND","ND","ND","ND","ND","ND","ND"],
    [10643,"2011-07-24T06:00:00","ND","ND","ND","ND","ND","ND","ND","ND","ND","ND","ND","ND"],
    [10644,"2011-07-24T07:00:00","ND","ND","ND","ND","ND","ND","ND","ND","ND","ND","ND","ND"],
    [10645,"2011-07-24T08:00:00","ND","ND","ND","ND","ND","ND","ND","ND","ND","ND","ND","ND"],
    [10646,"2011-07-24T09:00:00","ND","ND","ND","ND","ND","ND","ND","ND","ND","ND","ND","ND"],
    [10647,"2011-07-24T10:00:00","ND","ND","ND","ND","ND","ND","ND","ND","ND","ND","ND","ND"],
    [10648,"2011-07-24T11:00:00","ND","ND","ND","ND","ND","ND","ND","ND","ND","ND","ND","ND"],
    [10649,"2011-07-24T12:00:00","ND","ND","ND","ND","ND","ND","ND","ND","ND","ND","ND","ND"],
    [10650,"2011-07-24T13:00:00","ND","ND","ND","ND","ND","ND","ND","ND","ND","ND","ND","ND"],
    [10651,"2011-07-24T14:00:00","ND","ND","ND","ND","ND","ND","ND","ND","ND","ND","ND","ND"],
    [10652,"2011-07-24T15:00:00","ND","ND","ND","ND","ND","ND","ND","ND","ND","ND","ND","ND"],
    [10653,"2011-07-24T16:00:00","ND","ND","ND","ND","ND","ND","ND","ND","ND","ND","ND","ND"],
    [10654,"2011-07-24T17:00:00","ND","ND","ND","ND","ND","ND","ND","ND","ND","ND","ND","ND"],
    [10655,"2011-07-24T18:00:00","ND","ND","ND","ND","ND","ND","ND","ND","ND","ND","ND","ND"],
    [10656,"2011-07-24T19:00:00","ND","ND","ND","ND","ND","ND","ND","ND","ND","ND","ND","ND"],
    [10657,"2011-07-24T20:00:00","ND","ND","ND","ND","ND","ND","ND","ND","ND","ND","ND","ND"],
    [10658,"2011-07-24T21:00:00","ND","ND","ND","ND","ND","ND","ND","ND","ND","ND","ND","ND"],
    [10659,"2011-07-24T22:00:00","ND","ND","ND","ND","ND","ND","ND","ND","ND","ND","ND","ND"],
    [10660,"2011-07-24T23:00:00","ND","ND","ND","ND","ND","ND","ND","ND","ND","ND","ND","ND"],
    [10661,"2011-07-25T00:00:00","ND","ND","ND","ND","ND","ND","ND","ND","ND","ND","ND","ND"],
    [10662,"2011-07-25T01:00:00","ND","ND","ND","ND","ND","ND","ND","ND","ND","ND","ND","ND"],
    [10663,"2011-07-25T02:00:00","ND","ND","ND","ND","ND","ND","ND","ND","ND","ND","ND","ND"],
    [10664,"2011-07-25T03:00:00","ND","ND","ND","ND","ND","ND","ND","ND","ND","ND","ND","ND"],
    [10665,"2011-07-25T04:00:00","ND","ND","ND","ND","ND","ND","ND","ND","ND","ND","ND","ND"],
    [10666,"2011-07-25T05:00:00","ND","ND","ND","ND","ND","ND","ND","ND","ND","ND","ND","ND"],
    [10667,"2011-07-25T06:00:00","ND","ND","ND","ND","ND","ND","ND","ND","ND","ND","ND","ND"],
    [10668,"2011-07-25T07:00:00","ND","ND","ND","ND","ND","ND","ND","ND","ND","ND","ND","ND"],
    [10669,"2011-07-25T08:00:00","ND","ND","ND","ND","ND","ND","ND","ND","ND","ND","ND","ND"],
    [10670,"2011-07-25T09:00:00","ND","ND","ND","ND","ND","ND","ND","ND","ND","ND","ND","ND"],
    [10671,"2011-07-25T10:00:00","ND","ND","ND","ND","ND","ND","ND","ND","ND","ND","ND","ND"],
    [10672,"2011-07-25T11:00:00","ND","ND","ND","ND","ND","ND","ND","ND","ND","ND","ND","ND"],
    [10673,"2011-07-25T12:00:00","ND","ND","ND","ND","ND","ND","ND","ND","ND","ND","ND","ND"],
    [10674,"2011-07-25T13:00:00","ND","ND","ND","ND","ND","ND","ND","ND","ND","ND","ND","ND"],
    [10675,"2011-07-25T14:00:00","ND","ND","ND","ND","ND","ND","ND","ND","ND","ND","ND","ND"],
    [10676,"2011-07-25T15:00:00","ND","ND","ND","ND","ND","ND","1.4","70.4","31.8","40.4","376.5","0"],
    [10677,"2011-07-25T16:00:00","ND","ND","ND","ND","ND","ND","1.6","315","31.5","44","314.1","0"],
    [10678,"2011-07-25T17:00:00","ND","29.42","6.08","ND","ND","ND","2","277","31.3","45.6","241.8","0"],
    [10679,"2011-07-25T18:00:00","9.7","17.50","17.02","ND","ND","ND","1.2","260.1","29.9","47.5","61.6","0"],
    [10680,"2011-07-25T19:00:00","16.7","13.10","24.45","ND","ND","ND","0.3","140.2","28.8","49.8","1.9","0"],
    [10681,"2011-07-25T20:00:00","21","9.50","30.37","ND","ND","ND","0.5","85.7","28.1","52.1","0","0"],
    [10682,"2011-07-25T21:00:00","33.9","9.61","48.07","ND","ND","ND","0.3","86.5","27.4","54.7","0","0"],
    [10683,"2011-07-25T22:00:00","47.8","11.15","50.46","ND","ND","ND","0.2","221.1","26.2","61.3","0","0"],
    [10684,"2011-07-25T23:00:00","68.6","12.39","63.46","ND","ND","ND","0.2","25.1","25.4","65.6","0","0"],
    [10685,"2011-07-26T00:00:00","35.7","14.17","48.19","ND","ND","ND","0.4","103.1","25.4","65.9","0","0"],
    [10686,"2011-07-26T01:00:00","43.6","16.11","45.87","ND","ND","ND","0.7","21.9","24.5","72.2","0","0"],
    [10687,"2011-07-26T02:00:00","73.3","28.88","40.18","ND","ND","ND","0.8","319.8","23.4","77.8","0","0"],
    [10688,"2011-07-26T03:00:00","49","14.67","28.89","ND","ND","ND","0.5","250.7","23.6","75.6","0","0"],
    [10689,"2011-07-26T04:00:00","37.7","24.46","27.73","ND","ND","ND","0.2","325.1","23.3","77","0","0"],
    [10690,"2011-07-26T05:00:00","36.9","22.17","24.05","ND","ND","ND","0.2","323.6","22.9","77.1","0","0"],
    [10691,"2011-07-26T06:00:00","20.1","20.42","26.11","ND","ND","ND","0.6","3.4","22","84.1","0","0"],
    [10692,"2011-07-26T07:00:00","49.8","18.00","18.72","ND","ND","ND","0.3","55.4","22.3","82.4","37.3","0"],
    [10693,"2011-07-26T08:00:00","47.3","23.03","25.42","ND","ND","ND","0","123.1","23.4","76.9","115.7","0"],
    [10694,"2011-07-26T09:00:00","78.1","30.54","29.69","ND","ND","ND","0.6","33.8","24.7","72.8","282.5","0"],
    [10695,"2011-07-26T10:00:00","94.7","72.25","41.62","ND","ND","ND","0.8","75.6","26","67.4","340.7","0"],
    [10696,"2011-07-26T11:00:00","89.6","163.92","53.14","ND","ND","ND","1.6","68","26.3","67.3","282","0"],
    [10697,"2011-07-26T12:00:00","ND","ND","ND","ND","ND","ND","0.8","60.9","26.3","65.2","391.5","20.83"],
    [10698,"2011-07-26T13:00:00","ND","ND","ND","ND","ND","ND","0.9","128.4","28.5","57","692.5","0"],
    [10699,"2011-07-26T14:00:00","ND","35.47","25.21","ND","ND","ND","1.1","125.9","29.9","50.3","484.9","0"],
    [10700,"2011-07-26T15:00:00","ND","26.50","28.83","ND","ND","ND","1.5","166.9","29.3","52.1","277.9","0"],
    [10701,"2011-07-26T16:00:00","ND","24.35","23.16","ND","ND","ND","0.7","123.4","29.6","51.2","308.5","0"],
    [10702,"2011-07-26T17:00:00","145.5","14.77","24.98","ND","ND","ND","1.3","253.3","29.7","51.4","215","0"],
    [10703,"2011-07-26T18:00:00","86.7","14.64","21.81","ND","ND","ND","1.5","246.4","28.8","52.4","75.2","0"],
    [10704,"2011-07-26T19:00:00","73.9","10.14","21.40","ND","ND","ND","1.6","251.4","27.9","54.3","3.1","0"],
    [10705,"2011-07-26T20:00:00","39.1","4.84","30.28","ND","ND","ND","0.7","259.1","27.1","56.3","0","0"],
    [10706,"2011-07-26T21:00:00","44.3","4.93","39.53","ND","ND","ND","0.1","242.1","26.1","62.2","0","0"],
    [10707,"2011-07-26T22:00:00","44.1","3.58","34.14","ND","ND","ND","0.8","125","25.3","66.5","0","0"],
    [10708,"2011-07-26T23:00:00","71.4","9.21","62.40","ND","ND","ND","0.2","198.5","24.7","70.6","0","0"],
    [10709,"2011-07-27T00:00:00","66.5","13.98","44.87","ND","ND","ND","0.1","174.6","24.4","73","0","0"],
    [10710,"2011-07-27T01:00:00","68.5","19.04","39.47","ND","ND","ND","0.2","128.1","24.3","72.1","0","0"],
    [10711,"2011-07-27T02:00:00","69","28.10","38.91","ND","ND","ND","0.1","93.9","24.1","73.2","0","0"],
    [10712,"2011-07-27T03:00:00","49","26.33","36.47","ND","ND","ND","0.3","122.8","23.7","75.3","0","0"],
    [10713,"2011-07-27T04:00:00","33.8","23.22","35.33","ND","ND","ND","1.1","162.4","23.5","75.8","0","0"],
    [10714,"2011-07-27T05:00:00","37.9","22.58","27.38","ND","ND","ND","0.4","221.1","23.2","78.5","0","0"],
    [10715,"2011-07-27T06:00:00","46.1","14.53","21.45","ND","ND","ND","0.2","238.6","23.1","79.9","0","0"],
    [10716,"2011-07-27T07:00:00","33.2","8.59","21.91","ND","ND","ND","0.2","289.4","23.1","80.1","12.1","0"],
    [10717,"2011-07-27T08:00:00","62.1","7.08","24.57","ND","ND","ND","0.7","49.7","23.4","79.6","55.7","0"],
    [10718,"2011-07-27T09:00:00","85.2","7.61","26.71","ND","ND","ND","0.3","51.1","24.3","76.1","232.4","0"],
    [10719,"2011-07-27T10:00:00","94.3","17.46","40.44","ND","ND","ND","0.7","96.3","25.9","68.3","359.4","0"],
    [10720,"2011-07-27T11:00:00","82.3","34.24","53.25","ND","ND","ND","0.7","135.1","27.8","57.9","664.1","0"],
    [10721,"2011-07-27T12:00:00","63.7","31.61","60.30","ND","ND","ND","0.9","97.3","29.3","51.8","621.2","0"],
    [10722,"2011-07-27T13:00:00","80.7","25.49","38.19","ND","ND","ND","0.7","45.4","29.6","51.3","497.5","0"],
    [10723,"2011-07-27T14:00:00","51.3","18.89","25.19","ND","ND","ND","1.1","158.7","30.8","46.3","544.5","0"],
    [10724,"2011-07-27T15:00:00","46.6","14.50","23.71","ND","ND","ND","1.1","49.1","30.7","47.6","338.2","0"],
    [10725,"2011-07-27T16:00:00","42.5","11.83","21.29","ND","ND","ND","1.5","320.9","30","51","238.5","0"],
    [10726,"2011-07-27T17:00:00","39.9","16.28","21.03","ND","ND","ND","3","260.1","28.8","52","53","0"],
    [10727,"2011-07-27T18:00:00","22.6","25.45","20.92","ND","ND","ND","1.1","254","28.6","50.2","34.9","0"],
    [10728,"2011-07-27T19:00:00","50.6","8.17","26.36","ND","ND","ND","0.5","124.3","28.5","51","1.6","0"],
    [10729,"2011-07-27T20:00:00","49.7","5.67","34.24","ND","ND","ND","0.7","92.5","27.8","53.6","0","0"],
    [10730,"2011-07-27T21:00:00","56.1","7.67","69.87","ND","ND","ND","1.5","97","27","58.9","0","0"],
    [10731,"2011-07-27T22:00:00","58.1","12.85","58.82","ND","ND","ND","0.9","127","26.3","60.4","0","0"],
    [10732,"2011-07-27T23:00:00","74.2","13.03","49.39","ND","ND","ND","0.7","88.7","25.9","63.4","0","0"],
    [10733,"2011-07-28T00:00:00","50.4","16.87","41.35","ND","ND","ND","0.9","93.1","25","67.6","0","0"],
    [10734,"2011-07-28T01:00:00","38.8","19.21","36.95","ND","ND","ND","0.4","58.4","24.2","71.7","0","0"],
    [10735,"2011-07-28T02:00:00","24","15.42","34.45","ND","ND","ND","0.2","63.3","23.8","74.7","0","0"],
    [10736,"2011-07-28T03:00:00","38.5","12.21","29.81","ND","ND","ND","0.3","72.5","23.4","76.9","0","0"],
    [10737,"2011-07-28T04:00:00","32.2","13.55","27.88","ND","ND","ND","0.6","119.7","23.6","76","0","0"],
    [10738,"2011-07-28T05:00:00","44.2","15.88","26.90","ND","ND","ND","0.9","124.7","22.9","80.4","0","0"],
    [10739,"2011-07-28T06:00:00","40.8","15.45","23.00","ND","ND","ND","0.5","120.8","22.7","79.8","0","0"],
    [10740,"2011-07-28T07:00:00","44.8","9.33","20.15","ND","ND","ND","0.1","139.7","22.5","82.1","9.9","0"],
    [10741,"2011-07-28T08:00:00","46","8.81","23.63","ND","ND","ND","0.4","25.9","22.8","82.1","73.7","0"],
    [10742,"2011-07-28T09:00:00","73.9","10.69","30.53","ND","ND","ND","0.6","46.6","23.8","77.7","214.4","0"],
    [10743,"2011-07-28T10:00:00","68.6","17.46","32.45","ND","ND","ND","0.9","69","25","72.8","323.3","0"],
    [10744,"2011-07-28T11:00:00","77.1","31.08","40.93","ND","ND","ND","1.2","40.5","26","67","411.9","0"],
    [10745,"2011-07-28T12:00:00","42.7","48.40","58.73","ND","ND","ND","0.3","273.2","27.1","61.4","473.7","0"],
    [10746,"2011-07-28T13:00:00","31.6","123.68","42.90","ND","ND","ND","1.9","254.9","27.6","56.3","307.8","0"],
    [10747,"2011-07-28T14:00:00","18","76.78","28.97","ND","ND","ND","3","255.4","28.3","50.9","460.4","0"],
    [10748,"2011-07-28T15:00:00","11.5","39.10","22.53","ND","ND","ND","3.1","279.3","28.1","49.4","380.3","0"],
    [10749,"2011-07-28T16:00:00","6.3","8.10","16.63","ND","ND","ND","5.2","281.3","27.5","49.6","377.1","0"],
    [10750,"2011-07-28T17:00:00","9.8","4.97","11.02","ND","ND","ND","5.2","281.4","26.8","50.9","208.5","0"],
    [10751,"2011-07-28T18:00:00","6.3","2.35","6.75","ND","ND","ND","2.4","227.6","25.7","55.1","18.6","0"],
    [10752,"2011-07-28T19:00:00","29.2","1.55","5.27","ND","ND","ND","2.2","89.7","23.9","68.8","1.6","0"],
    [10753,"2011-07-28T20:00:00","19.6","2.85","12.53","ND","ND","ND","1.7","136.9","22.6","74.6","0","0"],
    [10754,"2011-07-28T21:00:00","28.2","6.26","28.42","ND","ND","ND","1.1","149.9","22","75.6","0","0"],
    [10755,"2011-07-28T22:00:00","29.5","5.91","33.49","ND","ND","ND","0.9","352.1","21.7","79.9","0","0"],
    [10756,"2011-07-28T23:00:00","28","7.49","28.29","ND","ND","ND","0.9","46.8","21.6","81.8","0","0"],
    [10757,"2011-07-29T00:00:00","39.9","19.04","32.01","ND","ND","ND","0.3","30.8","21.1","87.1","0","0"],
    [10758,"2011-07-29T01:00:00","30.7","18.83","35.50","ND","ND","ND","0.1","24","21.2","85.7","0","0"],
    [10759,"2011-07-29T02:00:00","16","12.16","33.67","ND","ND","ND","0.6","152.7","20.8","89","0","3.81"],
    [10760,"2011-07-29T03:00:00","17.4","13.92","30.49","ND","ND","ND","0.5","117.7","20","95","0","3.05"],
    [10761,"2011-07-29T04:00:00","36.4","11.41","21.46","ND","ND","ND","0.7","105.6","19.5","97.4","0","49.28"],
    [10762,"2011-07-29T05:00:00","19.1","4.48","20.41","ND","ND","ND","0.2","130.2","18.6","99.5","0","19.05"],
    [10763,"2011-07-29T06:00:00","12","3.36","12.61","ND","ND","ND","0","157.5","18.7","99","0","11.68"],
    [10764,"2011-07-29T07:00:00","6","2.69","9.42","ND","ND","ND","0.7","49.2","18.8","98.5","6.1","5.84"],
    [10765,"2011-07-29T08:00:00","5.6","2.16","17.63","ND","ND","ND","0.2","97.4","19.1","97.5","11.8","0.51"],
    [10766,"2011-07-29T09:00:00","4.8","2.72","32.53","ND","ND","ND","0.9","205.5","19.1","94.7","71.3","5.84"],
    [10767,"2011-07-29T10:00:00","5.2","5.65","33.71","ND","ND","ND","1.6","208.6","20.5","86.6","199.3","0"],
    [10768,"2011-07-29T11:00:00","4.3","9.24","31.74","ND","ND","ND","1.5","169.3","23","71.9","421.9","0"],
    [10769,"2011-07-29T12:00:00","4","12.78","27.18","ND","ND","ND","1.7","198","24.3","67.7","419","0"],
    [10770,"2011-07-29T13:00:00","3.5","8.86","13.72","ND","ND","ND","1.4","192.5","25.6","60.8","550.5","0"],
    [10771,"2011-07-29T14:00:00","3.7","6.12","21.16","ND","ND","ND","2.2","272.5","23.1","75.5","103.1","3.3"],
    [10772,"2011-07-29T15:00:00","2.8","4.95","28.11","ND","ND","ND","1.5","302.7","21.5","86.5","61.5","3.81"],
    [10773,"2011-07-29T16:00:00","12.9","4.76","25.97","ND","ND","ND","0.5","326.1","20.2","93.4","84.6","9.65"],
    [10774,"2011-07-29T17:00:00","28.3","6.24","40.30","ND","ND","ND","0.7","352.8","21.4","86.8","96.6","0"],
    [10775,"2011-07-29T18:00:00","26.7","16.96","45.38","ND","ND","ND","0.3","80.5","21.5","87.5","18.4","0"],
    [10776,"2011-07-29T19:00:00","25","95.71","48.00","ND","ND","ND","0.2","114.2","21.4","88.1","1.4","0"],
    [10777,"2011-07-29T20:00:00","27.4","30.93","42.76","ND","ND","ND","1","249.7","21","90.1","0","0"],
    [10778,"2011-07-29T21:00:00","38.9","17.19","52.55","ND","ND","ND","0.1","126.6","21.1","89.5","0","0"],
    [10779,"2011-07-29T22:00:00","37.4","17.35","54.65","ND","ND","ND","0.4","253","20.7","91.4","0","0"],
    [10780,"2011-07-29T23:00:00","37.7","18.05","52.31","ND","ND","ND","0","285.7","20.8","88.4","0","0"],
    [10781,"2011-07-30T00:00:00","22.2","15.03","46.63","ND","ND","ND","0.1","346.5","20.7","88.9","0","0"],
    [10782,"2011-07-30T01:00:00","27.6","11.03","41.25","ND","ND","ND","0.2","338.2","20.6","89.7","0","0"],
    [10783,"2011-07-30T02:00:00","16.4","10.40","34.81","ND","ND","ND","0.4","317.9","20.3","90.1","0","0"],
    [10784,"2011-07-30T03:00:00","10","8.72","31.92","ND","ND","ND","0.1","243.4","20.2","89.5","0","0"],
    [10785,"2011-07-30T04:00:00","25","8.07","29.20","ND","ND","ND","0.5","44.3","20.1","91.2","0","0"],
    [10786,"2011-07-30T05:00:00","25.7","8.43","26.40","ND","ND","ND","0.7","309.4","19.8","91.2","0","0.51"],
    [10787,"2011-07-30T06:00:00","14.2","11.97","31.57","ND","ND","ND","0.6","288.5","19.9","91.1","0","0"],
    [10788,"2011-07-30T07:00:00","10","16.95","27.69","ND","ND","ND","0.4","132.9","20.2","91.4","9.4","0"],
    [10789,"2011-07-30T08:00:00","38.8","13.87","27.72","ND","ND","ND","0.9","68.7","20.1","91.5","61.3","0"],
    [10790,"2011-07-30T09:00:00","21.3","15.59","32.44","ND","ND","ND","0.6","55.8","20.5","89.9","131.5","0"],
    [10791,"2011-07-30T10:00:00","12.8","22.17","27.49","ND","ND","ND","0.8","76.9","21.6","84.1","214.4","0"],
    [10792,"2011-07-30T11:00:00","12.2","18.75","17.45","ND","ND","ND","0.7","67.9","22.8","76.1","372.7","0"],
    [10793,"2011-07-30T12:00:00","6.6","21.77","19.24","ND","ND","ND","0.8","58.5","23.6","69.7","294","0"],
    [10794,"2011-07-30T13:00:00","5.8","28.74","22.94","ND","ND","ND","2","34.4","23.5","70.1","304","0"],
    [10795,"2011-07-30T14:00:00","11.2","31.91","19.56","ND","ND","ND","1.3","28.3","23.6","71.3","314.5","0"],
    [10796,"2011-07-30T15:00:00","13.3","33.41","17.38","ND","ND","ND","1.1","51.4","23.8","71.5","234.8","0"],
    [10797,"2011-07-30T16:00:00","9","57.26","23.92","ND","ND","ND","0.1","232.6","24.4","68","251.1","0"],
    [10798,"2011-07-30T17:00:00","6.3","93.64","30.00","ND","ND","ND","0.5","190.7","25.2","63.1","232.6","0"],
    [10799,"2011-07-30T18:00:00","13.7","141.17","33.89","ND","ND","ND","0.2","93.7","25.1","65.2","89.5","0"],
    [10800,"2011-07-30T19:00:00","40.3","87.31","34.14","ND","ND","ND","1","182.7","24.1","71.6","3.5","0"],
    [10801,"2011-07-30T20:00:00","40.6","63.19","51.15","ND","ND","ND","0.4","260.3","23.1","77.7","0","0"],
    [10802,"2011-07-30T21:00:00","48.6","17.89","68.31","ND","ND","ND","0.1","271.6","22.7","82","0","0"],
    [10803,"2011-07-30T22:00:00","25.8","11.86","70.68","ND","ND","ND","0.5","154.3","22.3","84.4","0","0"],
    [10804,"2011-07-30T23:00:00","38.9","10.83","67.94","ND","ND","ND","0.5","205","21.6","87.2","0","0.25"],
    [10805,"2011-07-31T00:00:00","20.3","9.64","71.13","ND","ND","ND","0.1","345.9","21.2","89.3","0","0"],
    [10806,"2011-07-31T01:00:00","31.8","8.02","53.35","ND","ND","ND","0.1","22.3","20.8","89.7","0","0"],
    [10807,"2011-07-31T02:00:00","17.6","5.76","45.92","ND","ND","ND","0","59.4","20.7","90.7","0","0.25"],
    [10808,"2011-07-31T03:00:00","34.5","4.36","35.36","ND","ND","ND","0","0","20.5","91.1","0","0"],
    [10809,"2011-07-31T04:00:00","32","4.18","34.22","ND","ND","ND","0","0","20.3","91.5","0","0"],
    [10810,"2011-07-31T05:00:00","34.8","3.82","32.61","ND","ND","ND","0.2","37.3","20.3","90.3","0","0"],
    [10811,"2011-07-31T06:00:00","38.5","3.25","29.99","ND","ND","ND","0","344.4","20.1","92.9","0","0"],
    [10812,"2011-07-31T07:00:00","22.2","4.23","32.33","ND","ND","ND","0.1","244.5","20.2","92.3","12","0"],
    [10813,"2011-07-31T08:00:00","25.8","4.64","30.50","ND","ND","ND","0.2","112.7","20.9","88.5","64","0"],
    [10814,"2011-07-31T09:00:00","45.3","5.94","29.13","ND","ND","ND","1.1","95","21.5","87.5","130.1","0"],
    [10815,"2011-07-31T10:00:00","35.4","14.68","34.45","ND","ND","ND","0.9","129.1","22.3","80.5","89.2","0"],
    [10816,"2011-07-31T11:00:00","55.3","22.56","38.04","ND","ND","ND","0.4","4.6","23","76.8","197","0"],
    [10817,"2011-07-31T12:00:00","49.2","33.26","31.75","ND","ND","ND","0.9","267","24.3","71.1","588.3","0"],
    [10818,"2011-07-31T13:00:00","41.2","27.66","21.93","ND","ND","ND","1.2","75.3","25.7","65.7","364.4","0"],
    [10819,"2011-07-31T14:00:00","22.9","30.26","23.33","ND","ND","ND","0.2","218.9","27.2","59.1","614.3","0"],
    [10820,"2011-07-31T15:00:00","15.4","27.79","18.42","ND","ND","ND","1.6","133","27.3","57.4","165.7","0"],
    [10821,"2011-07-31T16:00:00","22.9","19.86","16.85","ND","ND","ND","1.2","208.9","27","59.1","152.7","0"],
    [10822,"2011-07-31T17:00:00","33.5","14.19","21.10","ND","ND","ND","1","228.4","25.8","65.8","47.9","0"],
    [10823,"2011-07-31T18:00:00","19.8","9.93","19.28","ND","ND","ND","0.8","296.8","24.1","74.8","17.6","0"],
    [10824,"2011-07-31T19:00:00","21.8","8.67","32.45","ND","ND","ND","0.2","217.2","24.2","70.1","0.4","0"],
    [10825,"2011-07-31T20:00:00","37","5.44","30.22","ND","ND","ND","0.3","170.2","24.2","70.1","0","0"],
    [10826,"2011-07-31T21:00:00","38.2","9.30","38.02","ND","ND","ND","0.9","37.9","23.1","74.6","0","0"],
    [10827,"2011-07-31T22:00:00","19.6","21.58","45.92","ND","ND","ND","0.3","39.8","22.1","79.6","0","0"],
    [10828,"2011-07-31T23:00:00","37.5","14.61","31.18","ND","ND","ND","0.5","149","22.2","80.4","0","0"],
    [10829,"2011-08-01T00:00:00","19.8","38.73","34.87","ND","ND","ND","0.6","338","21.9","83.2","0","0"],
    [10830,"2011-08-01T01:00:00","34.4","70.76","42.51","ND","ND","ND","0.5","44.8","21.5","85","0","0"],
    [10831,"2011-08-01T02:00:00","45","44.98","36.63","ND","ND","ND","0.5","30.8","20.5","92.5","0","0"],
    [10832,"2011-08-01T03:00:00","24.2","67.05","36.69","ND","ND","ND","0.2","10.9","20.3","93","0","0"],
    [10833,"2011-08-01T04:00:00","14.6","27.54","21.17","ND","ND","ND","0.4","237.6","20.8","89.8","0","0"],
    [10834,"2011-08-01T05:00:00","25.6","13.82","17.86","ND","ND","ND","0.3","193.7","21.2","86.7","0","0"],
    [10835,"2011-08-01T06:00:00","31.9","29.05","28.71","ND","ND","ND","0.8","1.1","20.7","90.5","0.1","0"],
    [10836,"2011-08-01T07:00:00","55.3","37.96","29.09","ND","ND","ND","0.2","65.5","20.4","91.8","7.5","0"],
    [10837,"2011-08-01T08:00:00","65.6","28.17","30.23","ND","ND","ND","1.3","158","20.7","90.2","12.1","2.03"],
    [10838,"2011-08-01T09:00:00","79.2","48.14","35.97","ND","ND","ND","0.7","146.6","20.7","92.8","59.3","0.76"],
    [10839,"2011-08-01T10:00:00","84.3","68.49","37.31","ND","ND","ND","0.3","133.1","22.1","85.2","246.5","0"],
    [10840,"2011-08-01T11:00:00","ND","27.24","30.46","ND","ND","ND","ND","ND","ND","ND","ND","ND"],
    [10841,"2011-08-01T12:00:00","0.8","ND","ND","ND","ND","ND","0.4","145.4","25.3","68.4","594.5","0"],
    [10842,"2011-08-01T13:00:00","11.7","ND","ND","ND","ND","ND","0.5","112.6","27.3","58.3","224.9","0"],
    [10843,"2011-08-01T14:00:00","28.9","36.65","42.65","ND","ND","ND","0.9","271.3","27","59.4","176.6","0"],
    [10844,"2011-08-01T15:00:00","33.8","15.22","33.60","ND","105.24","ND","0.5","218.6","27.6","55.6","242.7","0"],
    [10845,"2011-08-01T16:00:00","35","15.22","37.96","ND","99.53","ND","0.6","135.9","29","49.9","410.1","0"],
    [10846,"2011-08-01T17:00:00","42.3","10.94","32.60","ND","95.92","ND","1.3","123.2","28.4","54.1","137.4","0"],
    [10847,"2011-08-01T18:00:00","25.9","6.78","24.61","ND","105.47","ND","0.6","298.5","27.7","58.3","40.5","0"],
    [10848,"2011-08-01T19:00:00","63.9","9.17","28.62","ND","98.10","ND","0.7","265","25.8","67.2","1.6","0"],
    [10849,"2011-08-01T20:00:00","62.5","9.51","52.71","ND","75.75","ND","0.2","254.5","25.3","67.3","0","0"],
    [10850,"2011-08-01T21:00:00","44.5","10.54","93.06","ND","20.47","ND","0.1","260.1","24","73.1","0","0"],
    [10851,"2011-08-01T22:00:00","92","10.00","56.69","ND","9.31","ND","0.3","256.7","23.5","76.2","0","0"],
    [10852,"2011-08-01T23:00:00","95.3","10.04","54.31","ND","7.99","ND","0.3","310.6","23.2","77.7","0","0"],
    [10853,"2011-08-02T00:00:00","106.6","14.51","58.54","ND","9.34","ND","0.2","251","22.2","83","0","0"],
    [10854,"2011-08-02T01:00:00","78.2","10.77","58.47","ND","7.15","ND","0.4","261.1","21.8","84.6","0","0"],
    [10855,"2011-08-02T02:00:00","72","8.92","46.39","ND","7.16","ND","1.1","160.5","21.9","82.3","0","0"],
    [10856,"2011-08-02T03:00:00","56","8.22","41.82","ND","7.07","ND","0.6","177.9","21.2","85","0","0"],
    [10857,"2011-08-02T04:00:00","33","8.12","37.67","ND","8.21","ND","0.6","238.8","21","85.2","0","0"],
    [10858,"2011-08-02T05:00:00","28.4","6.57","26.66","ND","9.58","ND","0.2","16.6","21.5","83.2","0","0"],
    [10859,"2011-08-02T06:00:00","40.2","5.26","17.96","ND","11.95","ND","0.4","31.2","21.2","87.1","0","0"],
    [10860,"2011-08-02T07:00:00","90.8","5.25","18.17","ND","10.29","ND","0.1","14.2","20.8","89.1","24.7","0"],
    [10861,"2011-08-02T08:00:00","106","9.45","32.51","ND","6.83","ND","0.7","140.8","22.2","82.4","159.6","0"],
    [10862,"2011-08-02T09:00:00","100.2","14.80","34.39","ND","6.82","ND","1.5","160.7","23.9","72.6","358.4","0"],
    [10863,"2011-08-02T10:00:00","72.2","55.76","55.69","ND","8.78","ND","1.8","184.2","25.7","64.6","518.4","0"],
    [10864,"2011-08-02T11:00:00","63.9","40.92","62.20","ND","28.95","ND","1.7","169.9","27.4","57.8","624.1","0"],
    [10865,"2011-08-02T12:00:00","36.2","23.24","43.53","ND","47.69","ND","0.8","91.5","28.5","55.4","458.6","0"],
    [10866,"2011-08-02T13:00:00","42.3","19.06","27.97","ND","82.49","ND","0.7","82.7","28.9","55.4","426.4","0"],
    [10867,"2011-08-02T14:00:00","42.5","16.91","23.74","ND","95.86","ND","0.7","321.5","30.2","51.7","663.2","0"],
    [10868,"2011-08-02T15:00:00","42.2","21.75","21.56","ND","105.86","ND","1.9","309","30.8","46.6","541.3","0"],
    [10869,"2011-08-02T16:00:00","23.5","24.07","25.21","ND","118.85","ND","2.3","288.5","30.7","45.3","410.5","0"],
    [10870,"2011-08-02T17:00:00","23.2","40.96","20.75","ND","71.22","ND","2.5","271.8","30","45.7","240.1","0"],
    [10871,"2011-08-02T18:00:00","13.3","5.06","12.51","ND","29.83","ND","2.3","254.6","28.8","49.3","77.7","0"],
    [10872,"2011-08-02T19:00:00","35.5","4.72","13.77","ND","29.14","ND","0.4","83.9","27.8","53.3","3.6","0"],
    [10873,"2011-08-02T20:00:00","53.1","4.07","20.76","ND","21.91","ND","0.4","105.6","26.7","57.6","0","0"],
    [10874,"2011-08-02T21:00:00","64.8","7.80","35.82","ND","11.45","ND","0.4","175.9","25.6","62.2","0","0"],
    [10875,"2011-08-02T22:00:00","73.8","12.94","49.26","ND","6.61","ND","0.5","109.5","25","66.3","0","0"],
    [10876,"2011-08-02T23:00:00","93.7","15.70","48.20","ND","7.01","ND","0.3","183.2","24.1","71.1","0","0"],
    [10877,"2011-08-03T00:00:00","87.9","33.80","42.23","ND","7.36","ND","0.1","324.7","23.2","74.5","0","0"],
    [10878,"2011-08-03T01:00:00","75.2","32.97","38.04","ND","7.33","ND","0.2","96.4","23.2","76.2","0","0"],
    [10879,"2011-08-03T02:00:00","44.2","20.73","33.08","ND","5.72","ND","0.2","226.1","22.5","80.5","0","0"],
    [10880,"2011-08-03T03:00:00","44.5","14.89","29.02","ND","6.50","ND","0.1","320.7","22.2","81","0","0"],
    [10881,"2011-08-03T04:00:00","33.5","10.07","24.63","ND","6.41","ND","0.2","245.7","21.9","83.1","0","0"],
    [10882,"2011-08-03T05:00:00","30.2","7.73","24.57","ND","6.06","ND","0.2","2.6","22","82.6","0","0"],
    [10883,"2011-08-03T06:00:00","18.3","7.76","22.26","ND","6.41","ND","0","157.2","22.2","82.7","0","0"],
    [10884,"2011-08-03T07:00:00","69.2","7.66","23.23","ND","6.18","ND","0.4","304.4","21.7","85.4","9.7","0"],
    [10885,"2011-08-03T08:00:00","72.6","10.21","26.73","ND","6.73","ND","0.8","174.6","22.7","80.9","70.5","0"],
    [10886,"2011-08-03T09:00:00","65.3","20.59","26.84","ND","7.42","ND","1.3","164.7","23.9","75.3","148.3","0"],
    [10887,"2011-08-03T10:00:00","62.5","41.82","39.27","ND","8.04","ND","1","140.1","24.9","72","282.8","0"],
    [10888,"2011-08-03T11:00:00","58.5","36.93","57.61","ND","11.26","ND","1","133.8","26.3","65.6","577.9","0"],
    [10889,"2011-08-03T12:00:00","31","31.61","50.49","ND","25.94","ND","0.7","48.9","28","58.7","640.3","0"],
    [10890,"2011-08-03T13:00:00","65.4","30.44","46.10","ND","67.83","ND","0.7","308.9","29","56","498.6","0"],
    [10891,"2011-08-03T14:00:00","58.8","27.64","29.07","ND","101.76","ND","0.9","304.7","29.7","54.1","456.5","0"],
    [10892,"2011-08-03T15:00:00","42.3","25.36","30.71","ND","131.42","ND","2.1","285","28.9","53.7","166.4","0"],
    [10893,"2011-08-03T16:00:00","22.9","32.15","25.42","ND","112.33","ND","3.4","271.6","29.2","51.6","440.9","0"],
    [10894,"2011-08-03T17:00:00","13.5","12.78","16.02","ND","37.45","ND","2.2","273.8","29.2","50.5","185.8","0"],
    [10895,"2011-08-03T18:00:00","8.9","4.36","11.40","ND","35.00","ND","0.8","285.1","28.9","48.8","68.5","0.25"],
    [10896,"2011-08-03T19:00:00","32.1","3.77","18.30","ND","31.97","ND","0.3","300.8","25.7","68.7","0.9","0.76"],
    [10897,"2011-08-03T20:00:00","25.1","4.60","25.15","ND","29.72","ND","0.6","40.2","25.1","67","0","0"],
    [10898,"2011-08-03T21:00:00","32.6","11.30","45.07","ND","16.86","ND","0.8","45.3","24.6","68.4","0","0"],
    [10899,"2011-08-03T22:00:00","20.9","15.83","43.90","ND","7.80","ND","0.3","200.3","24.2","73.4","0","0"],
    [10900,"2011-08-03T23:00:00","61.8","22.42","40.87","ND","8.63","ND","0.4","35.7","23.4","76.1","0","0"],
    [10901,"2011-08-04T00:00:00","32.1","27.73","41.49","ND","10.01","ND","0.2","75.2","22.4","79.5","0","0"],
    [10902,"2011-08-04T01:00:00","31.4","26.36","34.89","ND","9.34","ND","0.5","57.9","21.3","86","0","0"],
    [10903,"2011-08-04T02:00:00","49.4","9.26","19.08","ND","13.78","ND","0.3","33.1","20.7","90.2","0","0"],
    [10904,"2011-08-04T03:00:00","27.4","6.82","28.85","ND","7.74","ND","0.4","250.3","20.7","87.2","0","0"],
    [10905,"2011-08-04T04:00:00","14.6","10.17","32.71","ND","6.85","ND","0.2","267.9","20.4","86.9","0","0"],
    [10906,"2011-08-04T05:00:00","13.2","11.82","19.95","ND","5.97","ND","0.2","66.9","20","89","0","0"],
    [10907,"2011-08-04T06:00:00","7.2","8.14","14.00","ND","5.71","ND","0.1","265.5","20","90.8","0","0"],
    [10908,"2011-08-04T07:00:00","34.1","5.95","18.43","ND","5.23","ND","0.6","56.5","19.9","92.4","26.6","0"],
    [10909,"2011-08-04T08:00:00","30.8","6.62","21.55","ND","5.09","ND","0.2","144.3","21.3","86.9","152.8","0"],
    [10910,"2011-08-04T09:00:00","46.2","9.37","24.42","ND","6.26","ND","1.3","155.2","22.9","77.9","246.9","0"],
    [10911,"2011-08-04T10:00:00","44.1","31.79","40.41","ND","8.11","ND","1","133.1","24.5","71.6","426.3","0"],
    [10912,"2011-08-04T11:00:00","46.5","23.99","52.22","ND","21.22","ND","0.8","91.6","25.9","67.1","464.7","0"],
    [10913,"2011-08-04T12:00:00","58.8","20.32","41.56","ND","43.48","ND","0.4","125.4","27.1","61.7","540.4","0"],
    [10914,"2011-08-04T13:00:00","53.4","15.75","34.37","ND","74.07","ND","0.9","79.6","28","57.4","510.4","0"],
    [10915,"2011-08-04T14:00:00","55.1","12.54","33.84","ND","110.66","ND","1.7","58.6","29.2","54.7","681.3","0"],
    [10916,"2011-08-04T15:00:00","61.2","14.91","25.78","ND","140.22","ND","1.3","53.5","30.6","50.6","562.7","0"],
    [10917,"2011-08-04T16:00:00","42.3","50.16","28.97","ND","146.56","ND","1.5","298","30.8","49.7","442.4","0"],
    [10918,"2011-08-04T17:00:00","31.5","53.08","26.90","ND","117.31","ND","2.6","268.3","30.5","48.9","314.4","0"],
    [10919,"2011-08-04T18:00:00","16.8","33.65","19.80","ND","75.67","ND","1.4","288.3","29.2","51.1","66","0"],
    [10920,"2011-08-04T19:00:00","36.7","10.20","17.80","ND","51.28","ND","1.6","274.3","28.5","52.7","2.2","0"],
    [10921,"2011-08-04T20:00:00","33.9","6.34","28.07","ND","43.72","ND","1.1","113.6","28.6","53.5","0","0"],
    [10922,"2011-08-04T21:00:00","35.9","6.74","27.51","ND","40.46","ND","2.1","151.1","27.8","55.7","0","0"],
    [10923,"2011-08-04T22:00:00","27.1","7.93","51.35","ND","14.88","ND","0.8","213.5","26.8","60.5","0","0"],
    [10924,"2011-08-04T23:00:00","37.1","22.64","52.03","ND","10.34","ND","0.1","211.5","26.1","64.8","0","0"],
    [10925,"2011-08-05T00:00:00","40.6","14.49","38.03","ND","13.67","ND","0.9","182.3","25.6","65.8","0","0"],
    [10926,"2011-08-05T01:00:00","51.9","10.50","42.35","ND","8.00","ND","0.1","137.1","25.1","68.1","0","0"],
    [10927,"2011-08-05T02:00:00","57","7.71","37.81","ND","9.07","ND","0.3","49.6","24.5","69.3","0","0"],
    [10928,"2011-08-05T03:00:00","36.2","6.54","37.77","ND","10.93","ND","0.6","177.2","24.1","70.3","0","0"],
    [10929,"2011-08-05T04:00:00","21.6","16.27","32.07","ND","12.38","ND","0","119.9","23.4","72.3","0","0"],
    [10930,"2011-08-05T05:00:00","33.2","12.04","20.19","ND","16.90","ND","0.2","344.6","22.6","78.2","0","0"],
    [10931,"2011-08-05T06:00:00","37.7","6.42","18.94","ND","16.14","ND","0.4","37","22","80.4","0.1","0"],
    [10932,"2011-08-05T07:00:00","75.6","7.91","27.93","ND","8.64","ND","0.2","149.6","22.1","81.3","19.2","0"],
    [10933,"2011-08-05T08:00:00","80.8","9.32","32.90","ND","6.47","ND","1.2","139.8","23.7","75","176","0"],
    [10934,"2011-08-05T09:00:00","64.7","15.42","39.10","ND","6.98","ND","1","70","25.2","69.7","372.5","0"],
    [10935,"2011-08-05T10:00:00","52.3","36.79","53.19","ND","11.72","ND","0.5","135.1","26.8","61.5","553.7","0"],
    [10936,"2011-08-05T11:00:00","39.4","25.89","30.09","ND","24.22","ND","0.8","121","28.5","52.8","688.2","0"],
    [10937,"2011-08-05T12:00:00","22.2","30.14","29.42","ND","43.12","ND","0.5","189.4","30","48.2","754.3","0"],
    [10938,"2011-08-05T13:00:00","57.5","17.61","22.65","ND","77.80","ND","0.8","283.7","31.5","42.3","755.8","0"],
    [10939,"2011-08-05T14:00:00","33.9","16.44","26.48","ND","132.30","ND","0.5","191.4","33","36","725","0"],
    [10940,"2011-08-05T15:00:00","48.4","13.94","30.38","ND","151.81","ND","1.4","49.8","33.3","33.5","470.8","0"],
    [10941,"2011-08-05T16:00:00","68","12.31","33.37","ND","178.75","ND","1.7","337.3","32.4","39.7","376.7","0"],
    [10942,"2011-08-05T17:00:00","49.6","11.04","26.71","ND","138.99","ND","0.6","308","32.8","38.5","277.5","0"],
    [10943,"2011-08-05T18:00:00","52.1","9.92","24.70","ND","91.56","ND","0.7","251.6","31.4","43.1","80.9","0"],
    [10944,"2011-08-05T19:00:00","61.7","14.67","26.84","ND","89.16","ND","0.4","243.8","29.1","48.8","1.9","0"],
    [10945,"2011-08-05T20:00:00","69.4","6.64","45.58","ND","58.43","ND","0.2","266.8","27.7","52.9","0","0"],
    [10946,"2011-08-05T21:00:00","113","8.30","81.95","ND","20.77","ND","0.6","155.9","27.4","55.1","0","0"],
    [10947,"2011-08-05T22:00:00","87.3","11.94","92.94","ND","7.81","ND","0.3","91.4","25.9","63.4","0","0"],
    [10948,"2011-08-05T23:00:00","94.9","16.66","92.36","ND","6.89","ND","0.3","350","24.5","69.3","0","0"],
    [10949,"2011-08-06T00:00:00","68.9","24.48","64.57","ND","7.54","ND","0.2","332","23.6","73.6","0","0"],
    [10950,"2011-08-06T01:00:00","80.4","17.86","60.23","ND","6.35","ND","0.1","274","23","76.2","0","0"],
    [10951,"2011-08-06T02:00:00","88.2","19.86","50.06","ND","6.26","ND","0.3","333.5","22.4","78","0","0"],
    [10952,"2011-08-06T03:00:00","65.8","15.01","42.19","ND","5.91","ND","0.1","293.6","22.2","80.2","0","0"],
    [10953,"2011-08-06T04:00:00","60.4","10.17","39.76","ND","5.79","ND","0.1","295.7","21.7","80.9","0","0"],
    [10954,"2011-08-06T05:00:00","83","11.19","37.64","ND","5.51","ND","0.2","233.5","21.6","81.2","0","0"],
    [10955,"2011-08-06T06:00:00","83.4","27.43","36.44","ND","4.85","ND","0.3","345.1","21.1","83.3","0.2","0"],
    [10956,"2011-08-06T07:00:00","83.6","39.75","34.18","ND","4.73","ND","0.1","125.3","21.2","83.4","39.6","0"],
    [10957,"2011-08-06T08:00:00","74.7","31.48","34.92","ND","5.21","ND","0.3","54.2","23.8","71.4","190.6","0"],
    [10958,"2011-08-06T09:00:00","88.2","40.95","37.84","ND","6.33","ND","0.6","89.5","25.2","65.4","328.6","0"],
    [10959,"2011-08-06T10:00:00","70.4","43.50","56.09","ND","9.50","ND","0.3","161.9","27.2","57.4","536.7","0"],
    [10960,"2011-08-06T11:00:00","68.9","33.76","81.70","ND","23.68","ND","1","112.5","28.7","53.6","672.9","0"],
    [10961,"2011-08-06T12:00:00","50.6","24.56","63.90","ND","85.81","ND","1.2","85","29.8","49.6","706.4","0"],
    [10962,"2011-08-06T13:00:00","53.3","24.68","48.63","ND","137.15","ND","1.2","110.7","31.1","44.2","695","0"],
    [10963,"2011-08-06T14:00:00","33.6","23.53","31.39","ND","143.32","ND","1.2","105.5","32.6","38","697.6","0"],
    [10964,"2011-08-06T15:00:00","46.6","19.99","24.57","ND","140.00","ND","1.1","89.8","33.6","33.2","530.2","0"],
    [10965,"2011-08-06T16:00:00","41.7","15.02","26.08","ND","158.07","ND","0.9","327","32.5","39.9","300.1","0"],
    [10966,"2011-08-06T17:00:00","38","9.62","20.89","ND","121.13","ND","1.5","9.9","32.4","40.4","223","0"],
    [10967,"2011-08-06T18:00:00","27.6","10.15","20.60","ND","93.62","ND","1.2","251","30.5","46.6","29.3","0"],
    [10968,"2011-08-06T19:00:00","39.6","10.99","19.91","ND","87.90","ND","1","248.1","28.9","50.8","1.6","0"],
    [10969,"2011-08-06T20:00:00","27.9","7.17","28.96","ND","55.37","ND","0.5","238.3","28.1","54.3","0","0"],
    [10970,"2011-08-06T21:00:00","64.1","6.70","44.65","ND","32.50","ND","0.2","244.4","27.5","56.4","0","0"],
    [10971,"2011-08-06T22:00:00","59.5","11.23","67.61","ND","13.69","ND","1.1","116.3","26.8","61","0","0"],
    [10972,"2011-08-06T23:00:00","88.5","16.50","55.75","ND","17.39","ND","0.2","254","25.4","67.4","0","0"],
    [10973,"2011-08-07T00:00:00","63.8","24.11","56.01","ND","9.18","ND","0","345.4","24.6","70.6","0","0"],
    [10974,"2011-08-07T01:00:00","71.4","30.67","48.41","ND","8.27","ND","0.2","218","23.9","73.7","0","0"],
    [10975,"2011-08-07T02:00:00","74.9","25.35","45.56","ND","6.24","ND","0.2","279.2","22.9","77.2","0","0"],
    [10976,"2011-08-07T03:00:00","57.1","20.24","39.24","ND","6.27","ND","0.2","10.9","22.5","79.2","0","0"],
    [10977,"2011-08-07T04:00:00","37.6","12.00","36.08","ND","5.20","ND","0.1","280.8","21.8","82.2","0","0"],
    [10978,"2011-08-07T05:00:00","34.7","9.10","34.28","ND","6.02","ND","0.2","264.9","21.5","82.8","0","0"],
    [10979,"2011-08-07T06:00:00","19.5","8.36","27.58","ND","5.24","ND","0.2","307.5","21.2","82.2","0.4","0"],
    [10980,"2011-08-07T07:00:00","35.4","6.73","26.78","ND","4.77","ND","0.2","310.6","21.3","81.2","46.6","0"],
    [10981,"2011-08-07T08:00:00","20.2","5.90","25.69","ND","4.17","ND","0.9","47.1","22.4","76.6","145.7","0"],
    [10982,"2011-08-07T09:00:00","51.6","8.26","28.34","ND","5.19","ND","1.2","25.1","22.8","72.6","320.6","0"],
    [10983,"2011-08-07T10:00:00","35.4","21.77","32.14","ND","8.43","ND","0.9","61.1","25.2","63.1","475.9","0"],
    [10984,"2011-08-07T11:00:00","30","44.15","33.38","ND","17.52","ND","0.8","84.4","26.5","56.6","400.5","0"],
    [10985,"2011-08-07T12:00:00","34.2","66.70","27.56","ND","34.91","ND","1","62.6","28.1","52.3","717.9","0"],
    [10986,"2011-08-07T13:00:00","25.3","37.57","22.21","ND","54.61","ND","0.5","51.4","30","42.2","706.4","0"],
    [10987,"2011-08-07T14:00:00","14.3","78.46","22.06","ND","72.51","ND","0.4","30.7","31.3","36","689.2","0"],
    [10988,"2011-08-07T15:00:00","19.9","39.92","15.75","ND","98.41","ND","0.5","123.3","32.6","31.4","633","0"],
    [10989,"2011-08-07T16:00:00","11.2","15.05","12.65","ND","102.94","ND","1.2","28.8","32.7","33","394.9","0"],
    [10990,"2011-08-07T17:00:00","17.7","9.70","13.83","ND","112.29","ND","1.5","321.6","31.4","42.1","218.7","0"],
    [10991,"2011-08-07T18:00:00","34.5","7.23","14.06","ND","96.26","ND","1.5","273.1","29.6","47.4","50.1","0"],
    [10992,"2011-08-07T19:00:00","25.8","10.32","11.69","ND","ND","ND","0.3","255.4","28.5","49.6","2.1","0"],
    [10993,"2011-08-07T20:00:00","13.9","7.48","17.23","ND","ND","ND","0.4","222.8","27.9","49.9","0","0"],
    [10994,"2011-08-07T21:00:00","37.1","9.79","45.30","ND","ND","ND","1.6","128.5","27.6","52.4","0","0"],
    [10995,"2011-08-07T22:00:00","24.6","7.19","47.34","ND","ND","ND","0.3","7","26.2","60.9","0","0"],
    [10996,"2011-08-07T23:00:00","52.7","7.39","48.09","ND","ND","ND","0.4","109.3","25.5","64.9","0","0"],
    [10997,"2011-08-08T00:00:00","53.1","11.97","44.69","ND","11.36","ND","0.7","156.9","25.3","64.8","0","0"],
    [10998,"2011-08-08T01:00:00","28.1","12.54","34.28","ND","12.53","ND","0.2","261","24","69.9","0","0"],
    [10999,"2011-08-08T02:00:00","15","14.39","36.60","ND","9.60","ND","0.1","259.7","23.4","72.6","0","0"],
    [11000,"2011-08-08T03:00:00","13.7","11.78","32.24","ND","8.35","ND","0.5","199.6","23.2","73.9","0","0"],
    [11001,"2011-08-08T04:00:00","9.1","8.91","30.95","ND","7.02","ND","0.1","329.6","22.2","76.3","0","0"],
    [11002,"2011-08-08T05:00:00","20.9","8.31","23.10","ND","11.02","ND","0.2","259.2","21.6","78.9","0","0"],
    [11003,"2011-08-08T06:00:00","12.3","5.60","18.58","ND","10.53","ND","0.1","312.1","21.2","79.4","0.1","0"],
    [11004,"2011-08-08T07:00:00","36.9","3.70","19.02","ND","ND","ND","0.2","37.6","21","80.9","16.8","0"],
    [11005,"2011-08-08T08:00:00","59.8","3.00","25.35","ND","ND","ND","0.8","41","21.9","79.3","124.5","0"],
    [11006,"2011-08-08T09:00:00","121.7","16.36","38.90","ND","ND","ND","0.7","34.3","23","74.8","290.2","0"],
    [11007,"2011-08-08T10:00:00","105","43.05","53.47","ND","ND","ND","0.5","48.3","26.2","60.4","554.8","0"],
    [11008,"2011-08-08T11:00:00","98.7","64.72","52.34","ND","ND","ND","0.7","30.4","27.9","54.6","640.6","0"],
    [11009,"2011-08-08T12:00:00","72","230.81","55.09","ND","ND","ND","1.5","52.8","28.4","52.6","507.4","0"],
    [11010,"2011-08-08T13:00:00","60.4","154.21","44.61","ND","ND","ND","0.9","33.4","29.6","47.4","628.6","0"],
    [11011,"2011-08-08T14:00:00","31.7","63.86","25.88","ND","88.81","ND","0.5","151.1","31.5","36.2","615.1","0"],
    [11012,"2011-08-08T15:00:00","41.9","42.30","25.02","ND","111.23","ND","1","128.8","32.8","30.4","598.1","0"],
    [11013,"2011-08-08T16:00:00","25.2","17.83","16.18","ND","ND","ND","1.5","30.7","32.2","32.6","366","0"],
    [11014,"2011-08-08T17:00:00","42.1","10.36","16.88","ND","ND","ND","0.7","357.8","31.8","39.2","216.2","0"],
    [11015,"2011-08-08T18:00:00","65.5","9.97","19.77","ND","ND","ND","1.4","112.6","30.8","44.6","41.6","0"],
    [11016,"2011-08-08T19:00:00","64.2","9.62","22.04","ND","ND","ND","1.5","246.8","28.7","50.3","2.2","0"],
    [11017,"2011-08-08T20:00:00","64.8","21.81","44.70","ND","ND","ND","0.2","123.7","28","50.7","0","0"],
    [11018,"2011-08-08T21:00:00","88.3","13.89","50.51","ND","ND","ND","0.1","193.5","26.7","56","0","0"],
    [11019,"2011-08-08T22:00:00","85.8","12.33","64.89","ND","ND","ND","0.6","135.2","26.1","60","0","0"],
    [11020,"2011-08-08T23:00:00","72.4","15.20","82.87","ND","ND","ND","0.2","12.6","24.7","66","0","0"],
    [11021,"2011-08-09T00:00:00","75.9","20.23","66.87","ND","ND","ND","0.1","176.1","24.1","69.6","0","0"],
    [11022,"2011-08-09T01:00:00","78.8","18.00","57.93","ND","6.40","ND","0.4","9.1","23.4","72.9","0","0"],
    [11023,"2011-08-09T02:00:00","40","13.60","54.51","ND","9.41","ND","0.2","9.7","23.2","74.6","0","0"],
    [11024,"2011-08-09T03:00:00","67.9","11.04","47.16","ND","5.66","ND","0.3","338.6","22.8","76.7","0","0"],
    [11025,"2011-08-09T04:00:00","52.4","10.87","39.75","ND","5.77","ND","0.4","0.9","22.5","77.9","0","0"],
    [11026,"2011-08-09T05:00:00","81.4","15.88","36.06","ND","5.99","ND","0.5","346.9","22","80","0","0"],
    [11027,"2011-08-09T06:00:00","78.2","33.56","36.73","ND","7.36","ND","0.2","197.1","22.2","78.9","0","0"],
    [11028,"2011-08-09T07:00:00","94","76.39","37.09","ND","6.51","ND","0.3","349.5","22","79.1","21.7","0"],
    [11029,"2011-08-09T08:00:00","117.1","71.12","37.59","ND","6.14","ND","0.6","53.9","22.7","75.1","67.6","0"],
    [11030,"2011-08-09T09:00:00","122.8","59.10","41.66","ND","6.58","ND","0.7","42.9","23.4","71.8","184.5","0"],
    [11031,"2011-08-09T10:00:00","125.2","101.98","56.44","ND","7.73","ND","0.4","29.1","24.8","66.7","251.6","0"],
    [11032,"2011-08-09T11:00:00","121.9","106.13","59.21","ND","10.28","ND","0.5","87.1","26","60.6","294.1","0"],
    [11033,"2011-08-09T12:00:00","104","116.05","63.95","ND","21.15","ND","0.6","101.5","27","57.2","297.9","0"],
    [11034,"2011-08-09T13:00:00","107.5","204.54","61.30","ND","34.41","ND","0.9","124.6","27.7","55.1","387.5","0"],
    [11035,"2011-08-09T14:00:00","85.6","78.87","45.75","ND","66.30","ND","1.4","118.1","28.6","52.4","558.1","0"],
    [11036,"2011-08-09T15:00:00","76.6","66.93","50.06","ND","108.40","ND","0.7","290.3","29.7","49.1","539","0"],
    [11037,"2011-08-09T16:00:00","61.5","34.49","29.71","ND","119.10","ND","0.6","57.3","29.6","49.4","221.2","0"],
    [11038,"2011-08-09T17:00:00","77.4","29.53","29.74","ND","149.75","ND","0.5","257.9","29.3","51.3","109.5","0"],
    [11039,"2011-08-09T18:00:00","48.9","29.64","32.61","ND","137.72","ND","2","251.7","28.3","53.5","35.7","0"],
    [11040,"2011-08-09T19:00:00","65","50.34","32.77","ND","113.53","ND","1.1","235.5","27.4","55.1","1","0"],
    [11041,"2011-08-09T20:00:00","53.2","20.84","36.47","ND","60.29","ND","0.2","248.7","26.9","56.8","0","0"],
    [11042,"2011-08-09T21:00:00","69.9","14.85","44.96","ND","39.16","ND","0.2","262.8","26.1","60.7","0","0"],
    [11043,"2011-08-09T22:00:00","65.7","15.39","63.78","ND","23.85","ND","1","131.1","25.3","63.6","0","0"],
    [11044,"2011-08-09T23:00:00","68.3","14.40","74.23","ND","15.54","ND","0.3","137.3","24.3","68.5","0","0"],
    [11045,"2011-08-10T00:00:00","44.4","21.38","63.77","ND","10.24","ND","0.3","161.9","24.2","69.4","0","0"],
    [11046,"2011-08-10T01:00:00","52.5","28.93","46.08","ND","5.52","ND","0.3","42.7","23.6","72.8","0","0"],
    [11047,"2011-08-10T02:00:00","41.1","23.94","47.67","ND","5.51","ND","0.1","260.1","23.3","74.4","0","0"],
    [11048,"2011-08-10T03:00:00","27.2","29.70","39.89","ND","5.44","ND","0.1","128.4","22.9","75.6","0","0"],
    [11049,"2011-08-10T04:00:00","19.4","49.10","35.23","ND","5.01","ND","0.3","194.2","22.4","78.4","0","0"],
    [11050,"2011-08-10T05:00:00","46.4","37.17","31.23","ND","ND","ND","0.3","305.9","21.8","80.1","0","0"],
    [11051,"2011-08-10T06:00:00","39.6","17.24","26.83","ND","7.20","ND","0.6","16.4","21.4","80.9","0.1","0"],
    [11052,"2011-08-10T07:00:00","78.4","11.21","22.87","ND","7.52","ND","0.1","271.2","21.3","81.5","13.3","0"],
    [11053,"2011-08-10T08:00:00","85.6","12.89","37.05","ND","4.90","ND","0.8","190","22.7","75.9","169","0"],
    [11054,"2011-08-10T09:00:00","73.7","20.44","35.32","ND","5.43","ND","1.3","165.4","24.9","65.8","358.1","0"],
    [11055,"2011-08-10T10:00:00","46.7","44.11","50.06","ND","7.63","ND","1.5","139","26.4","60.3","535.3","0"],
    [11056,"2011-08-10T11:00:00","54.3","28.17","65.93","ND","27.19","ND","1.6","143","27.8","55.8","672.2","0"],
    [11057,"2011-08-10T12:00:00","53.2","23.78","36.22","ND","58.67","ND","1.6","139.2","28.8","51.9","743.7","0"],
    [11058,"2011-08-10T13:00:00","52.8","21.04","32.14","ND","93.98","ND","0.6","140","30.6","45.6","735","0"],
    [11059,"2011-08-10T14:00:00","39.8","18.85","19.99","ND","121.75","ND","1.4","169.7","32.1","38.3","700.9","0"],
    [11060,"2011-08-10T15:00:00","36.7","19.61","24.10","ND","136.02","ND","1.5","138.2","32.9","35.2","524.1","0"],
    [11061,"2011-08-10T16:00:00","37.9","14.09","21.42","ND","132.47","ND","1.9","132","32.6","36.6","353.6","0"],
    [11062,"2011-08-10T17:00:00","58.3","10.40","19.70","ND","123.76","ND","0.5","325.1","32.1","42.9","293.4","0"],
    [11063,"2011-08-10T18:00:00","52.2","9.95","21.21","ND","92.14","ND","3.1","253.1","29.9","47.7","80.2","0"],
    [11064,"2011-08-10T19:00:00","62.1","16.49","27.18","ND","75.74","ND","0.9","256.2","28.5","51","1.4","0"],
    [11065,"2011-08-10T20:00:00","55.6","6.34","29.10","ND","56.68","ND","0.7","93.6","27.9","54.1","0","0"],
    [11066,"2011-08-10T21:00:00","68.8","6.85","35.70","ND","46.41","ND","0.6","68.2","27","57.3","0","0"],
    [11067,"2011-08-10T22:00:00","137.1","11.16","59.63","ND","24.58","ND","0.4","96.3","25.9","61.9","0","0"],
    [11068,"2011-08-10T23:00:00","98.8","14.32","69.41","ND","11.99","ND","0.4","162.5","25","66.5","0","0"],
    [11069,"2011-08-11T00:00:00","83.8","29.35","62.27","ND","6.91","ND","0.3","109.8","24.6","68.9","0","0"],
    [11070,"2011-08-11T01:00:00","75.4","20.20","55.28","ND","6.88","ND","0.1","207.2","24","70.9","0","0"],
    [11071,"2011-08-11T02:00:00","44.3","21.31","51.49","ND","7.82","ND","0.1","269.4","22.9","74.7","0","0"],
    [11072,"2011-08-11T03:00:00","52.2","12.64","30.26","ND","13.17","ND","0.3","309.3","22.2","76.8","0","0"],
    [11073,"2011-08-11T04:00:00","49.8","8.67","40.02","ND","7.10","ND","0.2","251.2","21.7","79.2","0","0"],
    [11074,"2011-08-11T05:00:00","55.8","7.57","34.10","ND","8.48","ND","0.1","200.2","21.4","80","0","0"],
    [11075,"2011-08-11T06:00:00","33.5","10.07","31.04","ND","9.40","ND","0.1","344.5","21.1","79","0.1","0"],
    [11076,"2011-08-11T07:00:00","62.7","7.96","28.77","ND","6.39","ND","0.4","6.5","20.9","79.9","27.1","0"],
    [11077,"2011-08-11T08:00:00","97.7","8.50","29.94","ND","5.15","ND","1","1","21.6","77.6","107.6","0"],
    [11078,"2011-08-11T09:00:00","97.8","13.34","38.24","ND","5.65","ND","0.7","79.1","23.3","69.4","239.8","0"],
    [11079,"2011-08-11T10:00:00","59","80.84","45.81","ND","7.57","ND","0.8","142.6","25.8","56.3","538.3","0"],
    [11080,"2011-08-11T11:00:00","66.8","65.03","43.89","ND","15.84","ND","0.5","56.2","27.5","50.8","643.9","0"],
    [11081,"2011-08-11T12:00:00","75.4","45.02","42.31","ND","40.53","ND","1","74.8","28.9","47.5","725.6","0"],
    [11082,"2011-08-11T13:00:00","56.1","30.69","43.92","ND","89.30","ND","0.9","65.7","30.4","41.2","727.2","0"],
    [11083,"2011-08-11T14:00:00","31.1","24.92","43.39","ND","149.55","ND","1.2","84.1","31.5","35.9","720.3","0"],
    [11084,"2011-08-11T15:00:00","41.1","18.34","28.02","ND","134.03","ND","2","108.7","31.6","36","296.7","0"],
    [11085,"2011-08-11T16:00:00","25.1","9.70","17.88","ND","110.14","ND","2.1","74.7","30.4","43.2","183.6","0"],
    [11086,"2011-08-11T17:00:00","59.8","8.32","20.44","ND","88.07","ND","1.6","244.5","29.7","47.8","136.1","0"],
    [11087,"2011-08-11T18:00:00","49.9","10.14","26.25","ND","82.92","ND","2.1","255.1","28.9","48.4","68.3","0"],
    [11088,"2011-08-11T19:00:00","54.3","11.57","32.59","ND","61.49","ND","0.7","254","27.8","51","1.8","0"],
    [11089,"2011-08-11T20:00:00","71.5","7.14","36.41","ND","47.20","ND","0.4","142.3","27.4","52.6","0","0"],
    [11090,"2011-08-11T21:00:00","40.4","7.26","45.89","ND","35.59","ND","0.6","125.6","27","53.9","0","0"],
    [11091,"2011-08-11T22:00:00","52.2","7.17","45.51","ND","24.42","ND","1.2","122.7","25.3","63.3","0","0"],
    [11092,"2011-08-11T23:00:00","73.6","6.40","45.78","ND","22.53","ND","0.2","140.7","24.5","67.5","0","0"],
    [11093,"2011-08-12T00:00:00","62","15.25","50.75","ND","8.48","ND","0.5","131.1","23.6","72.1","0","0"],
    [11094,"2011-08-12T01:00:00","57.3","14.94","49.47","ND","6.31","ND","0.2","78.6","22.6","76","0","0"],
    [11095,"2011-08-12T02:00:00","30.9","11.83","38.60","ND","5.00","ND","0.1","260.3","22","78.5","0","0"],
    [11096,"2011-08-12T03:00:00","28","6.41","29.40","ND","6.37","ND","0.2","282.4","21.9","78.7","0","0"],
    [11097,"2011-08-12T04:00:00","35.2","4.85","32.02","ND","4.23","ND","0.3","2.4","21.7","79.2","0","0"],
    [11098,"2011-08-12T05:00:00","45.2","4.56","29.43","ND","4.52","ND","0.7","355.4","20.8","82.1","0","0"],
    [11099,"2011-08-12T06:00:00","57","6.56","30.51","ND","4.39","ND","0.5","26.3","20.7","82.4","0","0"],
    [11100,"2011-08-12T07:00:00","81.8","12.91","30.85","ND","4.16","ND","0.2","166.6","21.1","80.7","41","0"],
    [11101,"2011-08-12T08:00:00","84.9","23.95","30.28","ND","4.47","ND","0.5","142.4","22.9","70.7","142.5","0"],
    [11102,"2011-08-12T09:00:00","126.2","32.05","34.41","ND","ND","ND","0.8","46.3","23.6","67.7","187.9","0"],
    [11103,"2011-08-12T10:00:00","130.8","132.07","61.04","ND","ND","ND","0.9","53.3","24.5","65.2","257.6","0"],
    [11104,"2011-08-12T11:00:00","115.2","89.10","100.41","ND","ND","ND","0.8","114.9","26.3","57","420.2","0"],
    [11105,"2011-08-12T12:00:00","101.2","142.90","93.79","ND","ND","ND","0.9","118","27","52.8","519.5","0"],
    [11106,"2011-08-12T13:00:00","68.7","96.49","61.09","ND","ND","ND","0.2","190.9","28.8","45.9","659.6","0"],
    [11107,"2011-08-12T14:00:00","49.1","39.94","30.33","ND","68.27","ND","0.6","153","30.6","38.1","762.6","0"],
    [11108,"2011-08-12T15:00:00","43","52.35","31.64","ND","106.72","ND","0.7","70.4","31.5","36.6","656.4","0"],
    [11109,"2011-08-12T16:00:00","33.2","21.87","28.33","ND","147.14","ND","0.9","357.3","30.7","39.5","272.2","0"],
    [11110,"2011-08-12T17:00:00","59.2","14.42","23.42","ND","ND","ND","2","259","29.6","45.1","126.2","0"],
    [11111,"2011-08-12T18:00:00","44.4","12.16","23.62","ND","ND","ND","2.2","270.7","27.8","49.8","13.7","0"],
    [11112,"2011-08-12T19:00:00","58.4","8.44","30.80","ND","ND","ND","0.2","56.5","27.4","50.8","0.8","0"],
    [11113,"2011-08-12T20:00:00","41.7","14.40","32.20","ND","ND","ND","1.1","137","27.3","52.2","0","0"],
    [11114,"2011-08-12T21:00:00","42.2","9.64","39.67","ND","ND","ND","0.6","135.6","26.4","57.6","0","0"],
    [11115,"2011-08-12T22:00:00","56","7.27","49.31","ND","ND","ND","0.6","75.8","25.3","61.9","0","0"],
    [11116,"2011-08-12T23:00:00","92.4","9.94","57.79","ND","ND","ND","0.7","147","24.4","66.5","0","0"],
    [11117,"2011-08-13T00:00:00","70.7","19.90","54.83","ND","ND","ND","0","147.5","23.6","70.5","0","0"],
    [11118,"2011-08-13T01:00:00","85","27.49","49.79","ND","ND","ND","0.4","189.9","23.5","70.7","0","0"],
    [11119,"2011-08-13T02:00:00","44.4","18.72","44.43","ND","ND","ND","1.1","154.7","23.4","71","0","0"],
    [11120,"2011-08-13T03:00:00","47.7","17.02","44.60","ND","ND","ND","0.7","132.2","23","72.6","0","0"],
    [11121,"2011-08-13T04:00:00","31.5","12.00","30.92","ND","ND","ND","1","152","22.8","73.6","0","0"],
    [11122,"2011-08-13T05:00:00","42.3","11.13","26.47","ND","ND","ND","0.3","119.9","22.6","75.4","0","0"],
    [11123,"2011-08-13T06:00:00","45.8","8.08","21.97","ND","ND","ND","0.2","348.4","21.9","79.8","0.1","0"],
    [11124,"2011-08-13T07:00:00","60.3","7.21","20.80","ND","11.38","ND","0.2","284.9","21.9","79","10.7","0"],
    [11125,"2011-08-13T08:00:00","53.3","9.33","31.18","ND","4.23","ND","0.1","200.2","22.7","74.4","72.8","0"],
    [11126,"2011-08-13T09:00:00","48.6","9.39","30.59","ND","4.32","ND","0.7","147.5","24.3","67.4","298.7","0"],
    [11127,"2011-08-13T10:00:00","35.3","12.52","37.49","ND","6.48","ND","1","130.2","25.8","61.2","540.2","0"],
    [11128,"2011-08-13T11:00:00","45.1","26.69","51.90","ND","25.23","ND","1.1","67.2","27.4","56.4","630.2","0"],
    [11129,"2011-08-13T12:00:00","44.3","31.27","36.09","ND","57.86","ND","1.4","61.9","28.2","53.8","551","0"],
    [11130,"2011-08-13T13:00:00","48.7","23.62","22.73","ND","67.40","ND","1.6","43","28.8","51.7","512.5","0"],
    [11131,"2011-08-13T14:00:00","65.6","17.75","17.99","ND","83.87","ND","1.2","5.1","29.5","50.2","466.4","0"],
    [11132,"2011-08-13T15:00:00","49","17.66","20.65","ND","101.73","ND","1.4","345.3","29.9","47.9","335.9","0"],
    [11133,"2011-08-13T16:00:00","33","39.71","20.25","ND","108.19","ND","2","273.1","29.7","47.5","238.3","0"],
    [11134,"2011-08-13T17:00:00","37","27.31","20.11","ND","68.89","ND","2","265","29","49.3","90.3","0"],
    [11135,"2011-08-13T18:00:00","21.1","9.48","15.23","ND","54.49","ND","1.3","272.6","28.1","51.9","42.4","0"],
    [11136,"2011-08-13T19:00:00","22","4.13","19.05","ND","47.88","ND","0.1","272.6","27.7","53.5","0.8","0"],
    [11137,"2011-08-13T20:00:00","22.7","2.86","19.77","ND","39.46","ND","0.5","93.6","27.5","53.5","0","0"],
    [11138,"2011-08-13T21:00:00","28.7","3.43","44.35","ND","17.69","ND","0.4","84","26.7","56.5","0","0"],
    [11139,"2011-08-13T22:00:00","46.9","5.27","44.61","ND","18.51","ND","0.2","91.9","25.5","63","0","0"],
    [11140,"2011-08-13T23:00:00","85.3","8.24","48.94","ND","11.09","ND","0.5","115.5","24.9","66.7","0","0"],
    [11141,"2011-08-14T00:00:00","90.9","15.22","49.59","ND","4.96","ND","0.3","94","23.9","71.3","0","0"],
    [11142,"2011-08-14T01:00:00","73.4","16.84","41.11","ND","5.16","ND","0.3","190.3","23.1","75.4","0","0"],
    [11143,"2011-08-14T02:00:00","50.5","15.67","39.30","ND","ND","ND","0.2","181.8","23.4","74.1","0","0"],
    [11144,"2011-08-14T03:00:00","75.5","18.43","32.33","ND","5.15","ND","1.4","161.2","23.4","74.1","0","0"],
    [11145,"2011-08-14T04:00:00","67.1","14.33","35.95","ND","4.33","ND","1.9","184","23.1","76","0","0"],
    [11146,"2011-08-14T05:00:00","38.1","10.70","31.72","ND","6.75","ND","0.4","175.2","22.8","77.8","0","0"],
    [11147,"2011-08-14T06:00:00","28.8","9.03","21.11","ND","14.88","ND","0.9","32.2","22","81.3","0.2","0"],
    [11148,"2011-08-14T07:00:00","48.6","6.17","23.90","ND","12.94","ND","0.1","142.5","22","80.9","17.8","0"],
    [11149,"2011-08-14T08:00:00","34.3","7.42","31.04","ND","6.39","ND","0.7","78","22.9","76.6","162.8","0"],
    [11150,"2011-08-14T09:00:00","51.3","9.89","33.79","ND","ND","ND","0.9","90.1","24","72","246.9","0"],
    [11151,"2011-08-14T10:00:00","28.1","17.55","34.46","ND","ND","ND","0.3","47.4","24.7","68.1","218.9","0"],
    [11152,"2011-08-14T11:00:00","47.5","23.69","35.71","ND","ND","ND","1","80.4","26.2","61.2","462.4","0"],
    [11153,"2011-08-14T12:00:00","41.1","14.47","27.78","ND","42.16","ND","1.3","97.9","27.4","55.6","428.2","0"],
    [11154,"2011-08-14T13:00:00","50.9","12.97","29.37","ND","63.36","ND","1.3","47.2","28.5","51.9","556.4","0"],
    [11155,"2011-08-14T14:00:00","28.1","9.57","16.08","ND","ND","ND","1.6","282.7","29","49.5","486.1","0"],
    [11156,"2011-08-14T15:00:00","16.6","17.15","14.96","ND","ND","ND","3.8","267","29.3","44.2","575.4","0"],
    [11157,"2011-08-14T16:00:00","10.6","14.03","10.97","ND","47.24","ND","1.4","285.9","29.3","44.5","301.7","0"],
    [11158,"2011-08-14T17:00:00","10.6","2.02","6.74","ND","47.32","ND","2.5","269.9","28.8","45.5","271.3","0"],
    [11159,"2011-08-14T18:00:00","10.9","9.18","8.49","ND","ND","ND","1.9","266.6","27.9","46.9","61.8","0"],
    [11160,"2011-08-14T19:00:00","14.4","2.67","8.65","ND","ND","ND","0.7","256.3","27.2","49.1","1.3","0"],
    [11161,"2011-08-14T20:00:00","9","2.38","11.69","ND","ND","ND","0.3","31.8","26.5","53.7","0","0"],
    [11162,"2011-08-14T21:00:00","11.4","2.48","18.29","ND","ND","ND","0.7","141.5","26.5","53.8","0","0"],
    [11163,"2011-08-14T22:00:00","7.7","3.29","23.38","ND","ND","ND","0.4","99.8","25.7","57.3","0","0"],
    [11164,"2011-08-14T23:00:00","23.4","5.59","36.23","ND","ND","ND","0.7","142.4","24.8","61.9","0","0"],
    [11165,"2011-08-15T00:00:00","44.4","5.16","39.68","ND","ND","ND","0.6","144.4","24.6","62.8","0","0"],
    [11166,"2011-08-15T01:00:00","40","8.66","40.21","ND","ND","ND","0.7","150.7","23.8","65.6","0","0"],
    [11167,"2011-08-15T02:00:00","28.6","11.74","38.62","ND","ND","ND","0.4","139.4","23.7","68","0","0"],
    [11168,"2011-08-15T03:00:00","31","5.45","25.84","ND","ND","ND","0.7","84.7","22.3","79.1","0","0.25"],
    [11169,"2011-08-15T04:00:00","47.3","3.09","27.16","ND","ND","ND","0.4","358.5","21.2","87.3","0","0"],
    [11170,"2011-08-15T05:00:00","43.1","2.95","21.22","ND","ND","ND","0.7","224.7","21.3","86.2","0","0"],
    [11171,"2011-08-15T06:00:00","30.7","1.86","23.34","ND","ND","ND","0.2","269.7","21.5","81.5","0","0"],
    [11172,"2011-08-15T07:00:00","36.2","4.82","24.36","ND","ND","ND","0.4","34.8","20.7","84.4","13","0"],
    [11173,"2011-08-15T08:00:00","32.9","6.04","21.89","ND","ND","ND","0","12.5","21.1","85.3","63.3","0"],
    [11174,"2011-08-15T09:00:00","38.3","8.04","24.20","ND","ND","ND","0.1","15.5","22.4","78.1","96.4","0"],
    [11175,"2011-08-15T10:00:00","52.6","19.77","27.18","ND","8.01","ND","0.4","32.4","23.7","69.6","241.4","0"],
    [11176,"2011-08-15T11:00:00","38.9","40.78","37.73","ND","11.90","ND","0.9","72.5","25.3","63.7","355","0"],
    [11177,"2011-08-15T12:00:00","21.4","114.88","31.22","ND","20.47","ND","1.2","74.6","26.4","59.4","508.7","0"],
    [11178,"2011-08-15T13:00:00","32.8","57.55","21.87","ND","39.98","ND","0.9","57","27.3","56.7","452.7","0"],
    [11179,"2011-08-15T14:00:00","17.7","30.68","19.97","ND","79.34","ND","1.2","71.6","27.9","56","270.6","0"],
    [11180,"2011-08-15T15:00:00","27.5","79.69","22.04","ND","ND","ND","0.7","23.8","28.3","54.8","340.9","0"],
    [11181,"2011-08-15T16:00:00","32","88.27","22.11","ND","ND","ND","0.6","45.3","28.8","53.5","277.3","0"],
    [11182,"2011-08-15T17:00:00","27","70.69","18.81","ND","ND","ND","0.6","276.4","29.2","50","138.3","0"],
    [11183,"2011-08-15T18:00:00","14.6","55.64","14.92","ND","ND","ND","1.9","254.2","28.1","52.2","28.4","0"],
    [11184,"2011-08-15T19:00:00","15","28.99","12.18","ND","ND","ND","1.9","245.9","26.9","57.9","0.5","0.51"],
    [11185,"2011-08-15T20:00:00","24.9","6.22","15.62","ND","ND","ND","1.1","222.9","24.9","70.6","0","0"],
    [11186,"2011-08-15T21:00:00","22.9","5.97","21.41","ND","ND","ND","0.2","295.9","25","70.2","0","0"],
    [11187,"2011-08-15T22:00:00","14.2","6.76","23.39","ND","ND","ND","1.8","259","24.2","67.2","0","0"],
    [11188,"2011-08-15T23:00:00","19.1","5.83","36.35","ND","ND","ND","0.8","17.9","24.1","66.1","0","0"],
    [11189,"2011-08-16T00:00:00","10.3","3.55","16.45","ND","ND","ND","1","108.8","23.3","72.1","0","0"],
    [11190,"2011-08-16T01:00:00","10.6","15.19","20.37","ND","ND","ND","0.4","97","22.1","81.7","0","0.25"],
    [11191,"2011-08-16T02:00:00","7.3","12.53","22.66","ND","ND","ND","0.7","77.4","21.2","87.2","0","0"],
    [11192,"2011-08-16T03:00:00","17.2","22.48","34.18","ND","ND","ND","0.1","176.1","21.2","85.7","0","0"],
    [11193,"2011-08-16T04:00:00","9.2","14.72","18.20","ND","ND","ND","0.4","104.1","21.2","85.9","0","0"],
    [11194,"2011-08-16T05:00:00","15.5","16.35","22.68","ND","ND","ND","0.1","51.9","20.6","90.5","0","0"],
    [11195,"2011-08-16T06:00:00","8.9","14.69","15.57","ND","ND","ND","0.1","345.3","20.6","91.6","0","0.25"],
    [11196,"2011-08-16T07:00:00","7.8","6.69","14.79","ND","ND","ND","0.3","41.7","20.8","91.8","16.1","0"],
    [11197,"2011-08-16T08:00:00","29.5","4.70","23.77","ND","ND","ND","0.3","184.6","21.6","87.3","40","0"],
    [11198,"2011-08-16T09:00:00","31.6","5.52","27.35","ND","ND","ND","0.4","124.7","22.4","83.1","91.3","0"],
    [11199,"2011-08-16T10:00:00","39","9.38","36.57","ND","ND","ND","1","69.4","22.8","83.2","175","0"],
    [11200,"2011-08-16T11:00:00","61.8","8.43","37.33","ND","ND","ND","0.6","55.9","23.9","77.6","424.3","0"],
    [11201,"2011-08-16T12:00:00","49.5","15.38","37.59","ND","ND","ND","0.8","61.5","25.9","68.2","572.8","0"],
    [11202,"2011-08-16T13:00:00","62.8","20.87","40.69","ND","ND","ND","0.9","37.9","27.6","58.6","496.8","0"],
    [11203,"2011-08-16T14:00:00","42.6","17.18","45.31","ND","ND","ND","2.1","44.3","27.7","54.5","443.3","0"],
    [11204,"2011-08-16T15:00:00","49.3","31.46","36.03","ND","ND","ND","1.4","13.7","28.1","56.5","252.6","0"],
    [11205,"2011-08-16T16:00:00","26.1","29.04","18.38","ND","ND","ND","1.7","284","28.2","52.9","252.5","0"],
    [11206,"2011-08-16T17:00:00","35.9","118.04","40.00","ND","ND","ND","2.6","276.1","28.6","49.8","264.3","0"],
    [11207,"2011-08-16T18:00:00","33.2","29.83","21.71","ND","ND","ND","2.2","269.6","27.6","52.1","97.5","0"],
    [11208,"2011-08-16T19:00:00","34.9","6.45","16.76","ND","ND","ND","0.1","271.4","26.8","54.5","3.1","0"],
    [11209,"2011-08-16T20:00:00","45.3","2.53","22.95","ND","ND","ND","1","117.5","25.9","58.5","0","0"],
    [11210,"2011-08-16T21:00:00","52.9","7.83","45.00","ND","ND","ND","0.2","240.5","24.8","63.2","0","0"],
    [11211,"2011-08-16T22:00:00","68.3","8.48","51.03","ND","ND","ND","0.1","243.5","24.3","66","0","0"],
    [11212,"2011-08-16T23:00:00","59","15.50","44.55","ND","ND","ND","0.7","99.8","24.1","67.7","0","0"],
    [11213,"2011-08-17T00:00:00","42.6","14.79","45.99","ND","ND","ND","0.5","127.1","22.8","73.3","0","0"],
    [11214,"2011-08-17T01:00:00","22","33.84","40.10","ND","ND","ND","1","160.6","22.8","73.6","0","0"],
    [11215,"2011-08-17T02:00:00","18.2","24.89","32.75","ND","ND","ND","0.1","200.3","22.7","75.4","0","0"],
    [11216,"2011-08-17T03:00:00","14.2","21.14","31.88","ND","ND","ND","0.3","119.2","22.5","76.5","0","0"],
    [11217,"2011-08-17T04:00:00","22.5","14.21","29.86","ND","ND","ND","0.2","55.1","21.4","81.4","0","0"],
    [11218,"2011-08-17T05:00:00","34.6","11.29","26.38","ND","ND","ND","0.2","345.8","21.1","83","0","0"],
    [11219,"2011-08-17T06:00:00","31.5","14.61","22.14","ND","ND","ND","0.3","268.8","20.9","84.2","0.1","0"],
    [11220,"2011-08-17T07:00:00","37.2","14.57","22.51","ND","ND","ND","0.2","325.3","21.2","82.8","20.9","0"],
    [11221,"2011-08-17T08:00:00","59.3","15.52","21.42","ND","ND","ND","0.2","13.7","22.6","76.9","149.6","0"],
    [11222,"2011-08-17T09:00:00","96.3","17.10","25.84","ND","ND","ND","1","117.6","24.3","70.5","329.3","0"],
    [11223,"2011-08-17T10:00:00","74.3","65.22","43.67","ND","ND","ND","0.1","307.8","25.9","62.8","508","0"],
    [11224,"2011-08-17T11:00:00","77.4","69.94","71.26","ND","ND","ND","0.9","46","27.6","56","602.9","0"],
    [11225,"2011-08-17T12:00:00","57.6","42.16","54.51","ND","ND","ND","1.3","54.7","28.7","52.6","581.9","0"],
    [11226,"2011-08-17T13:00:00","63.6","28.86","35.91","ND","ND","ND","1.7","80.4","29.6","50.9","556","0"],
    [11227,"2011-08-17T14:00:00","59.8","25.20","23.70","ND","ND","ND","1.1","69.4","29.8","50.7","390.9","0"],
    [11228,"2011-08-17T15:00:00","46.1","38.66","23.73","ND","ND","ND","1","60.4","29.7","51.3","195","0"],
    [11229,"2011-08-17T16:00:00","39.4","49.32","19.13","ND","ND","ND","0.8","335.2","29.7","51.1","271.5","0"],
    [11230,"2011-08-17T17:00:00","43.5","29.46","21.22","ND","ND","ND","2.5","279.3","29.1","50.8","208.2","0"],
    [11231,"2011-08-17T18:00:00","29.7","19.58","19.61","ND","ND","ND","2.1","256.5","29.2","49.9","113.4","0"],
    [11232,"2011-08-17T19:00:00","50.2","9.94","15.95","ND","ND","ND","2.1","244.7","27.7","52","1.8","0"],
    [11233,"2011-08-17T20:00:00","42.3","8.88","28.34","ND","ND","ND","0.5","240.5","27.2","53.1","0","0"],
    [11234,"2011-08-17T21:00:00","48.2","7.21","39.96","ND","ND","ND","0.5","113","27.2","54.1","0","0"],
    [11235,"2011-08-17T22:00:00","78.8","4.72","35.25","ND","ND","ND","0.9","149.9","25.9","61.6","0","0"],
    [11236,"2011-08-17T23:00:00","79.6","9.99","62.00","ND","ND","ND","3.4","256.4","25.1","62.6","0","0"],
    [11237,"2011-08-18T00:00:00","45.3","23.01","49.32","ND","ND","ND","3.4","253","24.8","53.7","0","0"],
    [11238,"2011-08-18T01:00:00","35.5","14.30","19.59","ND","ND","ND","0.6","42.5","24.1","62.3","0","0"],
    [11239,"2011-08-18T02:00:00","19.8","4.78","6.80","ND","ND","ND","0.2","308.2","23.4","67.1","0","0"],
    [11240,"2011-08-18T03:00:00","29.6","13.19","25.25","ND","ND","ND","0","8.7","23.1","69.8","0","0"],
    [11241,"2011-08-18T04:00:00","17.2","13.82","24.67","ND","ND","ND","0.6","219.3","22.9","70.5","0","0"],
    [11242,"2011-08-18T05:00:00","37.6","18.42","27.44","ND","ND","ND","0.9","19.9","22.4","76.4","0","0"],
    [11243,"2011-08-18T06:00:00","39.7","17.74","24.85","ND","ND","ND","0.3","237.9","21.8","83.4","0","0"],
    [11244,"2011-08-18T07:00:00","61.8","18.22","30.15","ND","ND","ND","0.6","228","21.9","81.1","9.2","0"],
    [11245,"2011-08-18T08:00:00","63.5","10.61","25.35","ND","ND","ND","0.3","183.5","23.2","75.1","131.7","0"],
    [11246,"2011-08-18T09:00:00","70.1","19.04","32.54","ND","ND","ND","1.3","96.2","24","74.2","220.9","0"],
    [11247,"2011-08-18T10:00:00","39.3","29.04","41.75","ND","ND","ND","1.4","141.6","25.5","65.7","383.4","0"],
    [11248,"2011-08-18T11:00:00","69.2","29.26","60.22","ND","ND","ND","1.7","158.4","26.5","61.4","386.3","0"],
    [11249,"2011-08-18T12:00:00","47","22.67","59.36","ND","ND","ND","1.6","154.6","27.6","57.7","614","0"],
    [11250,"2011-08-18T13:00:00","38.2","23.15","35.68","ND","ND","ND","0.9","159.7","28.8","53.2","380.3","0"],
    [11251,"2011-08-18T14:00:00","42.3","17.65","23.16","ND","ND","ND","0.8","161.9","30.2","49.3","522.3","0"],
    [11252,"2011-08-18T15:00:00","42.6","12.88","25.43","ND","ND","ND","0.9","98.7","29.7","50.8","108.7","0"],
    [11253,"2011-08-18T16:00:00","46.3","9.58","25.98","ND","ND","ND","1.7","253.5","29","50.2","214.8","0"],
    [11254,"2011-08-18T17:00:00","33.4","10.99","23.29","ND","ND","ND","1.6","316.5","29.5","48.7","281","0"],
    [11255,"2011-08-18T18:00:00","22","9.44","23.52","ND","ND","ND","0.8","289","28.4","50.8","46.6","0"],
    [11256,"2011-08-18T19:00:00","16.6","4.82","14.06","ND","ND","ND","1.4","258.2","27.1","53","1.2","0"],
    [11257,"2011-08-18T20:00:00","28.9","2.69","25.95","ND","ND","ND","0.6","54.8","26.5","56.3","0","0"],
    [11258,"2011-08-18T21:00:00","57.9","2.87","33.64","ND","ND","ND","1.2","179.7","25.8","61.1","0","0"],
    [11259,"2011-08-18T22:00:00","42.8","9.33","49.27","ND","ND","ND","0.3","312.3","24.5","66.3","0","0"],
    [11260,"2011-08-18T23:00:00","58.2","17.00","45.11","ND","ND","ND","0.2","17.4","23.2","74.5","0","0"],
    [11261,"2011-08-19T00:00:00","58.2","9.01","41.69","ND","ND","ND","0.5","291.7","23","73.5","0","0"],
    [11262,"2011-08-19T01:00:00","48","31.18","39.23","ND","ND","ND","0.8","197.3","23.6","70.8","0","0"],
    [11263,"2011-08-19T02:00:00","29","31.95","38.11","ND","ND","ND","0.3","166.7","22.5","78.1","0","0"],
    [11264,"2011-08-19T03:00:00","56.9","25.98","36.70","ND","ND","ND","0.2","7.2","22","80.4","0","0"],
    [11265,"2011-08-19T04:00:00","29.4","16.68","28.21","ND","ND","ND","0.1","273.2","22","80.7","0","0"],
    [11266,"2011-08-19T05:00:00","34.6","22.75","28.49","ND","ND","ND","0.7","9.5","21.4","82.6","0","0"],
    [11267,"2011-08-19T06:00:00","42.3","22.75","28.30","ND","ND","ND","0.4","31.7","20.8","85.6","0","0"],
    [11268,"2011-08-19T07:00:00","69","16.20","28.54","ND","ND","ND","0.4","118","21.6","82","1.9","0"],
    [11269,"2011-08-19T08:00:00","86.7","15.75","27.63","ND","ND","ND","0.8","226.7","22.2","78.7","43.2","0"],
    [11270,"2011-08-19T09:00:00","64.9","24.17","32.87","ND","ND","ND","0.5","125.5","24.6","68.8","327.3","0"],
    [11271,"2011-08-19T10:00:00","41.9","48.91","35.47","ND","ND","ND","1.2","89.4","26.3","62.5","516.7","0"],
    [11272,"2011-08-19T11:00:00","46.2","132.64","40.52","ND","ND","ND","1.5","130.7","27.2","59.9","425.2","0"],
    [11273,"2011-08-19T12:00:00","44.9","152.49","45.10","ND","ND","ND","2.2","157.6","27.9","56.9","504.2","0"],
    [11274,"2011-08-19T13:00:00","39.4","58.34","32.60","ND","ND","ND","0.9","176.7","28.9","50.8","495.5","0"],
    [11275,"2011-08-19T14:00:00","27.1","28.22","26.43","ND","ND","ND","1.4","34.9","29.6","46.4","417","0"],
    [11276,"2011-08-19T15:00:00","27.6","18.04","23.41","ND","ND","ND","2.1","355.7","30.1","44.8","377.4","0"],
    [11277,"2011-08-19T16:00:00","42.5","19.48","18.93","ND","ND","ND","1.8","7","28.3","53.4","144.5","0"],
    [11278,"2011-08-19T17:00:00","42.1","19.87","19.79","ND","ND","ND","3.8","253","27.4","54.3","95.2","0"],
    [11279,"2011-08-19T18:00:00","32.9","22.93","26.90","ND","ND","ND","0.7","270.4","27.1","52.5","20.1","0"],
    [11280,"2011-08-19T19:00:00","45.6","6.62","17.87","ND","ND","ND","0.4","73.5","26.8","54.2","0.5","0"],
    [11281,"2011-08-19T20:00:00","34.2","3.69","22.43","ND","ND","ND","2.2","213.2","25.9","50.8","0","0"],
    [11282,"2011-08-19T21:00:00","37.6","7.15","47.19","ND","ND","ND","0.8","172.6","25.4","52.4","0","0"],
    [11283,"2011-08-19T22:00:00","41.5","5.38","43.00","ND","ND","ND","2.9","164.6","22.6","72.6","0","0"],
    [11284,"2011-08-19T23:00:00","45.4","4.08","41.92","ND","ND","ND","1.5","172.9","21.8","78.3","0","0"],
    [11285,"2011-08-20T00:00:00","24.6","4.38","37.26","ND","ND","ND","0.5","115.6","22.1","77.3","0","0"],
    [11286,"2011-08-20T01:00:00","50.2","3.43","50.84","ND","ND","ND","0.2","17.8","21.9","78.2","0","0"],
    [11287,"2011-08-20T02:00:00","73.8","3.76","55.28","ND","ND","ND","1","48.8","20.7","85.3","0","0"],
    [11288,"2011-08-20T03:00:00","37.4","8.78","52.77","ND","ND","ND","0.3","80","20.2","88","0","0"],
    [11289,"2011-08-20T04:00:00","46.5","14.51","38.27","ND","ND","ND","0.7","313.1","20.4","87.3","0","0"],
    [11290,"2011-08-20T05:00:00","58.3","9.13","22.12","ND","ND","ND","0.2","268.3","20.3","86.9","0","0"],
    [11291,"2011-08-20T06:00:00","56.5","23.88","32.13","ND","ND","ND","0.5","349.2","20.1","86.8","0","0"],
    [11292,"2011-08-20T07:00:00","70.4","34.17","31.53","ND","ND","ND","0.9","359","20.1","86.8","10","0"],
    [11293,"2011-08-20T08:00:00","74.5","47.91","33.99","ND","ND","ND","0.4","160.1","21.3","81.6","93.2","0"],
    [11294,"2011-08-20T09:00:00","89.7","135.18","37.16","ND","ND","ND","0.3","153.6","23.6","71","276.4","0"],
    [11295,"2011-08-20T10:00:00","86.3","159.11","56.61","ND","ND","ND","0.7","144.1","25.2","64.1","392.6","0"],
    [11296,"2011-08-20T11:00:00","75.7","169.12","67.45","ND","ND","ND","1.1","110.2","26.9","58.2","519.9","0"],
    [11297,"2011-08-20T12:00:00","47.5","199.38","68.86","ND","ND","ND","1.2","62.6","27.7","55.1","455.9","0"],
    [11298,"2011-08-20T13:00:00","59.3","163.48","54.34","ND","ND","ND","1","64.8","28.3","53.3","271.9","0"],
    [11299,"2011-08-20T14:00:00","38.3","35.53","16.95","ND","ND","ND","1.1","11","28.3","53.1","238.3","0"],
    [11300,"2011-08-20T15:00:00","63.6","31.29","18.64","ND","ND","ND","2.8","278.4","27.1","55.5","232.4","0"],
    [11301,"2011-08-20T16:00:00","34","28.71","19.23","ND","ND","ND","1.1","272.9","28.1","50.2","370.1","0"],
    [11302,"2011-08-20T17:00:00","31.8","17.71","16.90","ND","ND","ND","2.2","290.7","28.2","50","265.5","0"],
    [11303,"2011-08-20T18:00:00","21.3","8.71","13.65","ND","ND","ND","1.8","295.6","26.5","56.4","31.4","0"],
    [11304,"2011-08-20T19:00:00","22.6","9.32","12.53","ND","ND","ND","0.2","298.7","26.2","54.1","0.7","0"],
    [11305,"2011-08-20T20:00:00","26.2","3.92","10.40","ND","ND","ND","3.1","172","24.5","67.8","0","0"],
    [11306,"2011-08-20T21:00:00","36.2","6.41","29.14","ND","ND","ND","1.5","179.5","23.7","73.6","0","0"],
    [11307,"2011-08-20T22:00:00","21","9.94","39.55","ND","ND","ND","1.2","209.2","23.7","71.3","0","0"],
    [11308,"2011-08-20T23:00:00","23","11.24","54.14","ND","ND","ND","0.1","91.3","23.8","71.2","0","0"],
    [11309,"2011-08-21T00:00:00","16.3","8.82","34.95","ND","ND","ND","1.5","35.6","21.4","85.9","0","0"],
    [11310,"2011-08-21T01:00:00","43.4","6.50","30.83","ND","ND","ND","1.2","351.2","21.1","85.6","0","0"],
    [11311,"2011-08-21T02:00:00","31.3","7.55","26.04","ND","ND","ND","0.4","44.3","21.1","85.5","0","0"],
    [11312,"2011-08-21T03:00:00","45.7","7.40","22.27","ND","ND","ND","0.1","259.7","21","85.7","0","0"],
    [11313,"2011-08-21T04:00:00","36.5","10.08","29.79","ND","ND","ND","0.1","199.9","21","85.1","0","0"],
    [11314,"2011-08-21T05:00:00","49.2","15.48","32.37","ND","ND","ND","0.1","290.1","20.6","86","0","0"],
    [11315,"2011-08-21T06:00:00","51.6","32.86","33.38","ND","ND","ND","0.3","76.6","20.8","84.3","0","0"],
    [11316,"2011-08-21T07:00:00","45.1","37.61","30.53","ND","ND","ND","0.3","82.1","20.5","88.4","4.4","0"],
    [11317,"2011-08-21T08:00:00","46.3","36.96","31.22","ND","ND","ND","0.1","50.1","20.8","87.7","63.4","0"],
    [11318,"2011-08-21T09:00:00","76.5","23.64","31.38","ND","ND","ND","0.7","59.6","23","77.6","351.4","0"],
    [11319,"2011-08-21T10:00:00","68.4","33.11","26.92","ND","ND","ND","1.4","59.5","24.5","71.6","513.8","0"],
    [11320,"2011-08-21T11:00:00","70.8","132.36","35.24","ND","ND","ND","1.1","57.3","26.3","63.2","531.6","0"],
    [11321,"2011-08-21T12:00:00","48.8","260.09","45.06","ND","ND","ND","1.1","45.2","27.5","58.2","610.2","0"],
    [11322,"2011-08-21T13:00:00","38.2","43.78","12.50","ND","ND","ND","1","59.2","28.4","53.9","382.6","0"],
    [11323,"2011-08-21T14:00:00","21.6","26.66","12.65","ND","ND","ND","0.6","14.1","29.3","49.5","389.2","0"],
    [11324,"2011-08-21T15:00:00","12.9","39.07","14.48","ND","ND","ND","1.6","297.7","30.2","46.4","611.4","0"],
    [11325,"2011-08-21T16:00:00","13.5","27.19","12.09","ND","ND","ND","1.4","302","30.4","45.3","327.3","0"],
    [11326,"2011-08-21T17:00:00","20.2","27.02","8.78","ND","ND","ND","3.2","264.7","29.4","47.8","210.9","0"],
    [11327,"2011-08-21T18:00:00","12.1","7.23","6.12","ND","ND","ND","2.6","254.9","28.8","48.8","99.2","0"],
    [11328,"2011-08-21T19:00:00","28.2","3.64","8.81","ND","ND","ND","0.3","207.7","27.8","51.5","1.8","0"],
    [11329,"2011-08-21T20:00:00","37.1","3.28","12.93","ND","ND","ND","1.1","123.6","27.1","56.2","0","0"],
    [11330,"2011-08-21T21:00:00","22.1","7.05","29.30","ND","ND","ND","1.3","150.9","26.1","62.6","0","0"],
    [11331,"2011-08-21T22:00:00","13.5","10.52","33.42","ND","ND","ND","1","174.3","25.5","64.6","0","0"],
    [11332,"2011-08-21T23:00:00","8.1","14.04","37.58","ND","ND","ND","0.7","196","25.2","65.9","0","0"],
    [11333,"2011-08-22T00:00:00","13.9","13.16","41.46","ND","ND","ND","1.5","131.2","25.1","68","0","0"],
    [11334,"2011-08-22T01:00:00","17.8","7.34","32.56","ND","ND","ND","0.5","141.4","24.5","71.8","0","0"],
    [11335,"2011-08-22T02:00:00","10","8.63","35.89","ND","ND","ND","0.4","170.3","23.6","74.3","0","0"],
    [11336,"2011-08-22T03:00:00","6.2","7.28","29.41","ND","ND","ND","0.1","107.3","23.5","74.8","0","0"],
    [11337,"2011-08-22T04:00:00","5.7","9.52","15.48","ND","ND","ND","0.2","213.8","23.3","76.6","0","0"],
    [11338,"2011-08-22T05:00:00","4.9","7.29","13.65","ND","ND","ND","0.7","152.4","23","78","0","0"],
    [11339,"2011-08-22T06:00:00","29.4","11.56","17.45","ND","ND","ND","0.5","355.3","21.9","84.7","0","0"],
    [11340,"2011-08-22T07:00:00","42.7","10.73","19.81","ND","ND","ND","0.4","319.5","21.9","83.8","23.9","0"],
    [11341,"2011-08-22T08:00:00","57.6","10.79","30.01","ND","ND","ND","0.3","76.7","22.9","79.1","125.4","0"],
    [11342,"2011-08-22T09:00:00","72.3","17.51","35.65","ND","ND","ND","1","67.8","23.4","77.6","196.7","0"],
    [11343,"2011-08-22T10:00:00","55","34.01","40.56","ND","ND","ND","1.4","156.5","25.3","67.6","470","0"],
    [11344,"2011-08-22T11:00:00","52.2","34.10","30.52","ND","ND","ND","1.3","118.1","27.2","59.7","629.6","0"],
    [11345,"2011-08-22T12:00:00","32.5","33.47","27.19","ND","ND","ND","0.9","79","28.9","52.1","677.2","0"],
    [11346,"2011-08-22T13:00:00","41.2","24.53","27.06","ND","ND","ND","0.7","64.1","29.5","50.1","513.1","0"],
    [11347,"2011-08-22T14:00:00","23.3","17.95","18.79","ND","ND","ND","0.2","29.1","30.8","45.7","685.9","0"],
    [11348,"2011-08-22T15:00:00","50.3","16.16","18.74","ND","ND","ND","1.5","330.3","31.2","45","518.8","0"],
    [11349,"2011-08-22T16:00:00","41.1","10.97","16.96","ND","ND","ND","1.7","4.8","31","45.7","272.5","0"],
    [11350,"2011-08-22T17:00:00","34.7","40.50","21.13","ND","ND","ND","1.4","254.4","30.5","46.1","228.6","0"],
    [11351,"2011-08-22T18:00:00","19.4","48.30","22.96","ND","ND","ND","1","306.6","28.7","51.5","19.5","0"],
    [11352,"2011-08-22T19:00:00","36.2","20.43","15.92","ND","ND","ND","1.4","276","27.7","53.2","0.6","0"],
    [11353,"2011-08-22T20:00:00","19.6","7.19","25.52","ND","ND","ND","1.6","272.3","27.3","51.4","0","0"],
    [11354,"2011-08-22T21:00:00","34.9","4.67","24.09","ND","ND","ND","2.6","142.9","25.1","62.9","0","0"],
    [11355,"2011-08-22T22:00:00","23.5","2.67","17.94","ND","ND","ND","0.8","116.4","23.2","69.2","0","0"],
    [11356,"2011-08-22T23:00:00","20.2","5.34","32.57","ND","ND","ND","1.2","161.1","22.6","72.5","0","0"],
    [11357,"2011-08-23T00:00:00","13","3.82","36.39","ND","ND","ND","0.5","211.2","22.7","72.6","0","0"],
    [11358,"2011-08-23T01:00:00","24.6","3.15","26.73","ND","ND","ND","0.2","264.6","22.7","71.9","0","0"],
    [11359,"2011-08-23T02:00:00","22.9","3.43","33.21","ND","ND","ND","0.6","64.6","22","77.8","0","0"],
    [11360,"2011-08-23T03:00:00","52.5","3.53","34.94","ND","ND","ND","0.2","250.6","21.3","83.6","0","0"],
    [11361,"2011-08-23T04:00:00","41","5.25","34.47","ND","ND","ND","0.4","268.3","21.4","82.5","0","0"],
    [11362,"2011-08-23T05:00:00","54.3","8.08","20.43","ND","ND","ND","0.2","240.2","21.8","79.8","0","0"],
    [11363,"2011-08-23T06:00:00","56.2","11.56","23.01","ND","ND","ND","0","68.1","22","77.8","0.1","0"],
    [11364,"2011-08-23T07:00:00","52.3","13.25","29.53","ND","ND","ND","0.7","44.8","21.5","80.7","36","0"],
    [11365,"2011-08-23T08:00:00","64","19.11","37.86","ND","ND","ND","0.5","75.4","22.7","78.2","178.2","0"],
    [11366,"2011-08-23T09:00:00","82","28.29","48.22","ND","ND","ND","0.5","104.8","24.8","69","352.9","0"],
    [11367,"2011-08-23T10:00:00","68.9","68.45","53.72","ND","ND","ND","1","112.7","26.5","60.3","514.5","0"],
    [11368,"2011-08-23T11:00:00","60.2","90.88","67.43","ND","ND","ND","1.2","112.6","27.5","55.6","541.2","0"],
    [11369,"2011-08-23T12:00:00","55.6","43.99","47.33","ND","ND","ND","0.9","54.7","28.8","52.1","546.8","0"],
    [11370,"2011-08-23T13:00:00","57.1","25.50","30.25","ND","ND","ND","1.2","211.4","29.2","50.9","371.7","0"],
    [11371,"2011-08-23T14:00:00","40.7","30.53","21.45","ND","ND","ND","1.8","291.8","29.2","50.2","259.4","0"],
    [11372,"2011-08-23T15:00:00","23.7","37.89","20.82","ND","ND","ND","2.6","256.3","29.9","46.6","314.2","0"],
    [11373,"2011-08-23T16:00:00","14.2","27.54","18.45","ND","ND","ND","1.7","291.5","28.5","50.1","72.8","0"],
    [11374,"2011-08-23T17:00:00","41.9","8.64","12.92","ND","ND","ND","2.4","302.7","27.3","51.4","42.9","0"],
    [11375,"2011-08-23T18:00:00","44.1","3.86","17.04","ND","ND","ND","0.7","99.1","27.1","52","14.7","0"],
    [11376,"2011-08-23T19:00:00","51.5","3.83","13.58","ND","ND","ND","2.9","132.4","26","60.2","0.4","0"],
    [11377,"2011-08-23T20:00:00","38.5","9.78","32.50","ND","ND","ND","2.2","145.5","23.1","76.1","0.1","0"],
    [11378,"2011-08-23T21:00:00","43.4","5.47","47.14","ND","ND","ND","2.1","155.1","21.3","87.2","2","7.37"],
    [11379,"2011-08-23T22:00:00","22.5","4.79","34.89","ND","ND","ND","2.7","186.8","20","93.3","0","4.06"],
    [11380,"2011-08-23T23:00:00","22.6","3.12","31.94","ND","ND","ND","1.9","175.3","20","93.3","0","1.02"],
    [11381,"2011-08-24T00:00:00","13.2","1.78","32.50","ND","ND","ND","1.6","190.5","20","92.6","0","2.54"],
    [11382,"2011-08-24T01:00:00","7.2","1.29","25.39","ND","ND","ND","1.1","202.2","19.9","91.2","0","0.25"],
    [11383,"2011-08-24T02:00:00","5.8","1.31","18.77","ND","ND","ND","0.4","138.3","20.3","90.4","0","0"],
    [11384,"2011-08-24T03:00:00","5.6","1.19","10.94","ND","ND","ND","1","100.9","19.8","93.4","0","0.25"],
    [11385,"2011-08-24T04:00:00","16.6","1.06","14.71","ND","ND","ND","0.7","3.9","19.4","94","0","0"],
    [11386,"2011-08-24T05:00:00","10.9","1.29","11.25","ND","ND","ND","0.7","14.1","19.6","92.1","0","0"],
    [11387,"2011-08-24T06:00:00","8.1","1.26","10.00","ND","ND","ND","0.3","235.5","19.9","91.3","0.3","0"],
    [11388,"2011-08-24T07:00:00","34.3","2.21","15.24","ND","ND","ND","0.6","97.7","20.3","90.5","13.3","0"],
    [11389,"2011-08-24T08:00:00","47","3.48","28.75","ND","ND","ND","0.4","92","20.1","89.8","50.8","0"],
    [11390,"2011-08-24T09:00:00","48","7.42","38.33","ND","ND","ND","0.1","359","20.8","86.5","91.2","0"],
    [11391,"2011-08-24T10:00:00","59.4","18.32","41.93","ND","ND","ND","0.3","185.6","22.1","80.4","233.9","0"],
    [11392,"2011-08-24T11:00:00","ND","36.90","44.82","ND","ND","ND","1.1","44.9","23.6","72.6","464.9","0"],
    [11393,"2011-08-24T12:00:00","ND","70.99","58.41","ND","ND","ND","1.5","0.3","24.9","67.2","537.4","0"],
    [11394,"2011-08-24T13:00:00","81","151.48","54.96","ND","ND","ND","1.9","45","25.8","61.7","373.3","0"],
    [11395,"2011-08-24T14:00:00","41.6","ND","ND","ND","ND","ND","1.9","54.7","26.3","61","407.6","0"],
    [11396,"2011-08-24T15:00:00","22.1","37.16","23.27","ND","ND","ND","1.8","45.2","26.5","60.5","304.8","0"],
    [11397,"2011-08-24T16:00:00","18.7","28.07","19.57","ND","ND","ND","1.1","63.2","26.9","60.5","245.6","0"],
    [11398,"2011-08-24T17:00:00","29.7","23.31","19.92","ND","ND","ND","0.9","34.2","27.2","59.4","189.5","0"],
    [11399,"2011-08-24T18:00:00","37.2","31.86","23.15","ND","ND","ND","0.3","32.7","26.9","59.3","43.6","0"],
    [11400,"2011-08-24T19:00:00","32.6","46.67","30.78","ND","ND","ND","0.4","250.6","25.9","61.8","0.9","0"],
    [11401,"2011-08-24T20:00:00","35.7","27.39","34.19","ND","ND","ND","0.2","158.1","25.3","63.8","0","0"],
    [11402,"2011-08-24T21:00:00","46.6","18.20","42.12","ND","ND","ND","0.1","345.1","24.7","66.8","0","0"],
    [11403,"2011-08-24T22:00:00","58.5","25.70","46.64","ND","ND","ND","0.3","40.5","24.3","67.1","0","0"],
    [11404,"2011-08-24T23:00:00","41.3","17.15","43.71","ND","ND","ND","0.6","160.6","23.6","70.7","0","0"],
    [11405,"2011-08-25T00:00:00","34.5","21.05","40.47","ND","ND","ND","0.1","204.1","22.8","76.2","0","0"],
    [11406,"2011-08-25T01:00:00","39","30.53","42.76","ND","ND","ND","0.3","30.8","21.7","79.9","0","0"],
    [11407,"2011-08-25T02:00:00","28.1","14.12","41.00","ND","ND","ND","0.2","31.1","21.2","82.6","0","0"],
    [11408,"2011-08-25T03:00:00","15.4","21.57","35.05","ND","ND","ND","0","305.2","21","84.9","0","0"],
    [11409,"2011-08-25T04:00:00","26.4","19.34","30.46","ND","ND","ND","0.1","227.1","21.2","84.5","0","0"],
    [11410,"2011-08-25T05:00:00","21.8","10.32","26.42","ND","ND","ND","0","215.2","21.5","83.1","0","0"],
    [11411,"2011-08-25T06:00:00","34.5","9.32","25.54","ND","ND","ND","0.7","37.3","20.5","87.3","0.1","0"],
    [11412,"2011-08-25T07:00:00","48.1","13.01","27.36","ND","ND","ND","0.9","55.3","19.8","89.7","26.3","0"],
    [11413,"2011-08-25T08:00:00","54.9","15.42","29.68","ND","ND","ND","0.2","103.9","21.3","83.1","140.9","0"],
    [11414,"2011-08-25T09:00:00","60.5","11.18","30.90","ND","ND","ND","0.4","139.7","22.9","76.9","179.2","0"],
    [11415,"2011-08-25T10:00:00","64.3","25.84","39.97","ND","ND","ND","0.6","130.3","24.8","68.3","423.3","0"],
    [11416,"2011-08-25T11:00:00","57.6","28.62","73.22","ND","ND","ND","1","97.5","26.7","59.8","515.3","0"],
    [11417,"2011-08-25T12:00:00","43.1","28.64","98.36","ND","ND","ND","1.5","46.2","27.6","56.8","555.3","0"],
    [11418,"2011-08-25T13:00:00","49","21.67","63.99","ND","ND","ND","0.6","40.3","28.2","55.3","460.5","0"],
    [11419,"2011-08-25T14:00:00","25.8","32.07","28.80","ND","ND","ND","1.1","82.3","29.5","51.9","694.6","0"],
    [11420,"2011-08-25T15:00:00","49.1","32.96","27.51","ND","ND","ND","1.1","56.3","30.8","48.3","550","0"],
    [11421,"2011-08-25T16:00:00","26.1","46.32","22.12","ND","ND","ND","1.6","290.1","30.2","48.8","124.4","0"],
    [11422,"2011-08-25T17:00:00","21.9","50.49","24.95","ND","ND","ND","3","257.2","29.7","50","207.6","0"],
    [11423,"2011-08-25T18:00:00","14.9","21.35","20.53","ND","ND","ND","1.7","252.9","28.7","52.3","37.5","0"],
    [11424,"2011-08-25T19:00:00","37.1","7.27","19.98","ND","ND","ND","0.8","241.3","27.5","54.4","0.7","0"],
    [11425,"2011-08-25T20:00:00","51.3","9.86","33.07","ND","ND","ND","0.3","284.5","26.5","58.9","0","0"],
    [11426,"2011-08-25T21:00:00","65.2","7.85","42.63","ND","ND","ND","0.4","126","26.1","61.1","0","0"],
    [11427,"2011-08-25T22:00:00","67.8","13.33","70.93","ND","ND","ND","0.4","208.6","25.4","65.3","0","0"],
    [11428,"2011-08-25T23:00:00","67.2","15.74","68.54","ND","ND","ND","0.1","126.2","25","68.2","0","0"],
    [11429,"2011-08-26T00:00:00","42.1","14.25","50.97","ND","ND","ND","0.4","116.9","24","72.8","0","0"],
    [11430,"2011-08-26T01:00:00","42.2","13.87","49.91","ND","ND","ND","0.3","191.5","23.2","75","0","0"],
    [11431,"2011-08-26T02:00:00","40.5","14.64","39.20","ND","ND","ND","0.3","245.3","22.9","78","0","0"],
    [11432,"2011-08-26T03:00:00","40","8.85","33.66","ND","ND","ND","0.2","269.3","22.7","79.9","0","0"],
    [11433,"2011-08-26T04:00:00","22.3","7.25","33.25","ND","ND","ND","0.2","37.7","22.4","80.5","0","0"],
    [11434,"2011-08-26T05:00:00","34.6","4.73","31.05","ND","ND","ND","0.2","20.7","22.2","81.1","0","0"],
    [11435,"2011-08-26T06:00:00","41.4","4.41","30.32","ND","ND","ND","0.1","22.6","21.6","83.7","0.1","0"],
    [11436,"2011-08-26T07:00:00","57","18.96","31.58","ND","ND","ND","0","259.4","21.2","84.4","27.2","0"],
    [11437,"2011-08-26T08:00:00","75","13.63","30.92","ND","ND","ND","0.4","53.8","23.2","76.7","175","0"],
    [11438,"2011-08-26T09:00:00","117.2","17.29","32.76","ND","ND","ND","1.2","40.5","24.4","73.4","353.5","0"],
    [11439,"2011-08-26T10:00:00","95.6","50.52","54.53","ND","ND","ND","1.1","92.3","26.3","63.9","522.1","0"],
    [11440,"2011-08-26T11:00:00","72","185.77","54.50","ND","ND","ND","0.7","64.4","27.7","57.8","586.9","0"],
    [11441,"2011-08-26T12:00:00","46.8","212.63","51.96","ND","ND","ND","0.7","113.6","29.4","52","674.6","0"],
    [11442,"2011-08-26T13:00:00","86.4","37.23","25.13","ND","ND","ND","1.1","69.3","30.4","48.3","747","0"],
    [11443,"2011-08-26T14:00:00","68","23.66","27.19","ND","ND","ND","1.9","45.9","31.3","45.3","618.7","0"],
    [11444,"2011-08-26T15:00:00","47.7","32.27","20.91","ND","ND","ND","0.8","340.7","32.1","42.7","619","0"],
    [11445,"2011-08-26T16:00:00","26.6","67.55","23.24","ND","ND","ND","1","288.3","31.8","43.9","317.5","0"],
    [11446,"2011-08-26T17:00:00","14.6","26.91","14.68","ND","ND","ND","1.3","273.9","31.6","45.1","208.2","0"],
    [11447,"2011-08-26T18:00:00","38.6","16.20","15.63","ND","ND","ND","1.6","259.1","29.9","49.7","25.8","0"],
    [11448,"2011-08-26T19:00:00","35.6","10.65","17.90","ND","ND","ND","1.5","252","28.9","52.1","0.2","0"],
    [11449,"2011-08-26T20:00:00","47.8","7.46","34.86","ND","ND","ND","0.8","234","28.2","54.3","0","0"],
    [11450,"2011-08-26T21:00:00","47.5","5.77","36.09","ND","ND","ND","1.4","265.2","27.1","56.4","0","0"],
    [11451,"2011-08-26T22:00:00","40.4","7.26","42.87","ND","ND","ND","1","99.1","26.8","59.1","0","0"],
    [11452,"2011-08-26T23:00:00","55.1","2.66","16.56","ND","ND","ND","0.9","78.6","26","62.9","0","0"],
    [11453,"2011-08-27T00:00:00","47.6","14.38","44.35","ND","ND","ND","0.5","78.1","24.5","69","0","0"],
    [11454,"2011-08-27T01:00:00","37.7","23.96","47.12","ND","ND","ND","0.2","235.4","23.6","71.6","0","0"],
    [11455,"2011-08-27T02:00:00","26.3","15.60","37.15","ND","ND","ND","0.1","187.3","23","74.2","0","0"],
    [11456,"2011-08-27T03:00:00","32.2","10.83","37.60","ND","ND","ND","0.1","271.3","22.3","76.2","0","0"],
    [11457,"2011-08-27T04:00:00","17.7","7.09","32.92","ND","ND","ND","0.2","310.6","21.8","77.9","0","0"],
    [11458,"2011-08-27T05:00:00","32.9","6.01","30.30","ND","ND","ND","0.2","296.5","21.7","78.6","0","0"],
    [11459,"2011-08-27T06:00:00","35.6","3.47","28.46","ND","ND","ND","0.7","26.8","20.9","82.3","0.3","0"],
    [11460,"2011-08-27T07:00:00","64","3.23","26.15","ND","ND","ND","0.1","175.1","21.1","83.1","31.6","0"],
    [11461,"2011-08-27T08:00:00","53.4","14.56","31.43","ND","ND","ND","0.4","270.5","22.2","77.3","86.7","0"],
    [11462,"2011-08-27T09:00:00","84.1","21.93","29.25","ND","ND","ND","1.2","50.1","23.7","71.4","219","0"],
    [11463,"2011-08-27T10:00:00","67.3","81.58","37.43","ND","ND","ND","0.8","70.4","25","67.6","347.4","0"],
    [11464,"2011-08-27T11:00:00","57.4","230.90","45.60","ND","ND","ND","1.4","122.9","27","57.9","556.8","0"],
    [11465,"2011-08-27T12:00:00","29.4","75.97","35.65","ND","ND","ND","0.8","117.7","28.8","51","707.6","0"],
    [11466,"2011-08-27T13:00:00","28.1","53.98","31.72","ND","ND","ND","0.8","117.6","30","47.3","696.1","0"],
    [11467,"2011-08-27T14:00:00","16.2","27.20","21.91","ND","ND","ND","1","145.7","31.3","43","657.4","0"],
    [11468,"2011-08-27T15:00:00","29.5","23.79","21.98","ND","ND","ND","1.8","303.2","31.8","43","525.5","0"],
    [11469,"2011-08-27T16:00:00","33.6","25.38","21.42","ND","ND","ND","3.8","275.5","30.8","43.3","313.4","0"],
    [11470,"2011-08-27T17:00:00","69.9","25.06","17.13","ND","ND","ND","3.4","268.7","30.2","44.5","169.2","0"],
    [11471,"2011-08-27T18:00:00","50.3","15.54","23.38","ND","ND","ND","3","266.8","29.2","46.2","57.8","0"],
    [11472,"2011-08-27T19:00:00","53.6","18.52","29.89","ND","ND","ND","2.1","274.9","28.4","48.8","0.7","0"],
    [11473,"2011-08-27T20:00:00","39.3","3.02","15.07","ND","ND","ND","0.3","181.9","27.9","52.6","0","0"],
    [11474,"2011-08-27T21:00:00","44.4","2.17","22.08","ND","ND","ND","1","130.6","27.2","55.8","0","0"],
    [11475,"2011-08-27T22:00:00","96","4.17","26.49","ND","ND","ND","0.8","116.8","26.5","58","0","0"],
    [11476,"2011-08-27T23:00:00","62.8","5.27","43.80","ND","ND","ND","0.7","100.2","25.9","60.3","0","0"],
    [11477,"2011-08-28T00:00:00","58.4","23.55","50.25","ND","ND","ND","1.5","94.4","25.5","62.7","0","0"],
    [11478,"2011-08-28T01:00:00","64.5","10.50","36.79","ND","ND","ND","0.8","6.3","22.6","83.7","0","2.03"],
    [11479,"2011-08-28T02:00:00","35","17.73","32.60","ND","ND","ND","0.3","326.2","22.5","83.7","0","0"],
    [11480,"2011-08-28T03:00:00","20.1","7.25","27.58","ND","ND","ND","0.3","28.7","22.6","81.9","0","0"],
    [11481,"2011-08-28T04:00:00","11.9","6.45","25.89","ND","ND","ND","0.2","104.8","22.7","81.6","0","0"],
    [11482,"2011-08-28T05:00:00","34","9.80","19.89","ND","ND","ND","0.1","105.9","22.6","81.1","0","0"],
    [11483,"2011-08-28T06:00:00","31.4","11.80","21.97","ND","ND","ND","0.5","328.9","22.4","82.7","0","0"],
    [11484,"2011-08-28T07:00:00","43.6","11.35","19.79","ND","ND","ND","0.5","76","22","85.6","11.5","0"],
    [11485,"2011-08-28T08:00:00","37.2","11.08","21.96","ND","ND","ND","0.5","125.8","22.6","80.9","62","0"],
    [11486,"2011-08-28T09:00:00","19.4","42.18","27.26","ND","ND","ND","1.3","40.6","23.7","77.8","369.1","0"],
    [11487,"2011-08-28T10:00:00","10.7","34.05","22.50","ND","ND","ND","1.4","63.6","24.7","72","443.2","0"],
    [11488,"2011-08-28T11:00:00","6.9","21.83","18.31","ND","ND","ND","1.3","74.2","26.1","63.5","618.2","0"],
    [11489,"2011-08-28T12:00:00","5.5","75.29","16.58","ND","ND","ND","0.9","89.4","27.3","58.3","447","0"],
    [11490,"2011-08-28T13:00:00","14.7","25.14","11.44","ND","ND","ND","1.3","81.8","28.6","53.1","764.5","0"],
    [11491,"2011-08-28T14:00:00","8.3","15.38","11.46","ND","ND","ND","1","81.7","30","46.8","622.2","0"],
    [11492,"2011-08-28T15:00:00","5.6","13.64","11.85","ND","ND","ND","0.7","259","30.7","44.5","495.3","0"],
    [11493,"2011-08-28T16:00:00","27.7","14.21","11.06","ND","ND","ND","1.6","320.7","29.9","48.9","163.6","0"],
    [11494,"2011-08-28T17:00:00","48.3","24.69","12.21","ND","ND","ND","2.5","262.9","29.2","50.1","158","0"],
    [11495,"2011-08-28T18:00:00","25.1","38.32","11.94","ND","ND","ND","1.1","261.4","28.1","52.7","27","0"],
    [11496,"2011-08-28T19:00:00","29","16.10","13.40","ND","ND","ND","0.3","168.8","27.7","53.5","0.6","0"],
    [11497,"2011-08-28T20:00:00","26.5","7.91","16.63","ND","ND","ND","0.4","179.2","27.3","55.1","0","0"],
    [11498,"2011-08-28T21:00:00","25.6","5.91","28.85","ND","ND","ND","0.3","47.6","26.8","58.2","0","0"],
    [11499,"2011-08-28T22:00:00","21.7","8.12","42.58","ND","ND","ND","1.8","187.3","25.9","63.2","0","0"],
    [11500,"2011-08-28T23:00:00","13.7","7.10","49.17","ND","ND","ND","0.1","243.6","25.9","59.9","0","0"],
    [11501,"2011-08-29T00:00:00","8.7","5.52","25.18","ND","ND","ND","1","41.3","24.7","68.3","0","0"],
    [11502,"2011-08-29T01:00:00","21","1.60","13.62","ND","ND","ND","1.8","145.6","23.9","71.8","0","0"],
    [11503,"2011-08-29T02:00:00","31.2","12.35","23.12","ND","ND","ND","1.5","186.1","21.7","89.1","0.1","4.83"],
    [11504,"2011-08-29T03:00:00","18","8.14","16.45","ND","ND","ND","1.4","162.6","21.3","92.3","0","0.51"],
    [11505,"2011-08-29T04:00:00","10.2","4.68","16.54","ND","ND","ND","0.8","157","21.5","90.9","0","0"],
    [11506,"2011-08-29T05:00:00","14.6","2.64","17.68","ND","ND","ND","0.4","70","21.2","84.5","0","0"],
    [11507,"2011-08-29T06:00:00","9.1","1.94","14.76","ND","ND","ND","0.1","2.8","20.9","86.4","0.1","0"],
    [11508,"2011-08-29T07:00:00","5.7","3.23","12.93","ND","ND","ND","0.1","233.1","20.8","89.3","31.1","0.25"],
    [11509,"2011-08-29T08:00:00","16.5","2.20","37.30","ND","ND","ND","0.1","130.8","22.5","83.1","168.6","0"],
    [11510,"2011-08-29T09:00:00","37.9","3.51","28.00","ND","ND","ND","0.9","48.2","24","77","384.1","0"],
    [11511,"2011-08-29T10:00:00","56.9","12.40","50.93","ND","ND","ND","1.1","104.1","25.1","71.1","470.2","0"],
    [11512,"2011-08-29T11:00:00","44.4","17.04","62.25","ND","ND","ND","1.9","121.8","26.3","65.2","570.9","0"],
    [11513,"2011-08-29T12:00:00","30.6","18.45","52.19","ND","ND","ND","1.3","160.3","27.8","56.8","706.7","0"],
    [11514,"2011-08-29T13:00:00","25","15.21","34.39","ND","ND","ND","0.6","176.5","29","50.9","590.3","0"],
    [11515,"2011-08-29T14:00:00","13.5","7.65","22.47","ND","ND","ND","1.5","127.2","29.9","50","674.4","0"],
    [11516,"2011-08-29T15:00:00","17.7","4.21","16.81","ND","ND","ND","0.7","142.5","30.4","48.4","448.2","0"],
    [11517,"2011-08-29T16:00:00","9.6","7.04","18.60","ND","ND","ND","0.6","164.2","31","47","358.1","0"],
    [11518,"2011-08-29T17:00:00","41.5","9.70","20.96","ND","ND","ND","1.4","140.3","31","46.7","174.6","0"],
    [11519,"2011-08-29T18:00:00","37.8","8.66","21.52","ND","ND","ND","0.1","339.8","30","49.7","53.9","0"],
    [11520,"2011-08-29T19:00:00","62.4","10.10","27.39","ND","ND","ND","0.1","244.6","28.2","57.7","0.8","0"],
    [11521,"2011-08-29T20:00:00","41","10.65","40.59","ND","ND","ND","0","336.2","27.1","61.1","0","0"],
    [11522,"2011-08-29T21:00:00","52.9","6.60","92.75","ND","ND","ND","0","117","26.6","62","0","0"],
    [11523,"2011-08-29T22:00:00","46.3","9.25","86.31","ND","ND","ND","0.7","161.8","26","65.1","0","0"],
    [11524,"2011-08-29T23:00:00","68.1","8.31","79.86","ND","ND","ND","0.3","158.9","25","70","0","0"],
    [11525,"2011-08-30T00:00:00","44.4","13.57","65.09","ND","ND","ND","0.1","298.8","24","73.7","0","0"],
    [11526,"2011-08-30T01:00:00","40.8","15.72","51.28","ND","ND","ND","0","89.4","23.5","76.1","0","0"],
    [11527,"2011-08-30T02:00:00","31.3","9.36","46.85","ND","ND","ND","0","314.2","23.1","78.2","0","0"],
    [11528,"2011-08-30T03:00:00","44.6","7.81","37.88","ND","ND","ND","0.7","15.3","22.4","82.4","0","0"],
    [11529,"2011-08-30T04:00:00","44.7","8.26","37.86","ND","ND","ND","0.1","133.4","22.3","82.4","0","0"],
    [11530,"2011-08-30T05:00:00","50.5","15.24","29.08","ND","ND","ND","0.2","266.4","21.9","84","0","0"],
    [11531,"2011-08-30T06:00:00","52.9","15.30","26.90","ND","ND","ND","0.1","342.2","21.5","85.7","0.2","0"],
    [11532,"2011-08-30T07:00:00","59.1","12.33","25.93","ND","ND","ND","0.2","358.4","21.4","86.2","29.1","0"],
    [11533,"2011-08-30T08:00:00","95.8","8.41","28.60","ND","ND","ND","0.8","46.3","23.2","78.7","186.8","0"],
    [11534,"2011-08-30T09:00:00","94.6","47.50","38.92","ND","ND","ND","1.7","56.9","24.3","74.4","386.1","0"],
    [11535,"2011-08-30T10:00:00","74.9","81.95","52.39","ND","ND","ND","0.9","111.1","26.7","61.1","560.9","0"],
    [11536,"2011-08-30T11:00:00","56.8","158.48","44.32","ND","ND","ND","0.8","139.8","28.3","53.1","699.3","0"],
    [11537,"2011-08-30T12:00:00","29.1","80.27","37.48","ND","ND","ND","1.1","107.1","29.9","48.1","783.3","0"],
    [11538,"2011-08-30T13:00:00","51.7","38.80","27.30","ND","ND","ND","1.3","111.6","30.9","45.4","792.6","0"],
    [11539,"2011-08-30T14:00:00","52.9","25.65","23.55","ND","ND","ND","1.2","76","31.8","42.7","729","0"],
    [11540,"2011-08-30T15:00:00","58.5","20.74","22.00","ND","ND","ND","0.5","1.8","33.1","39.1","638","0"],
    [11541,"2011-08-30T16:00:00","37.8","34.48","23.20","ND","ND","ND","1","311.3","32.9","40.3","318.3","0"],
    [11542,"2011-08-30T17:00:00","51.8","68.67","25.17","ND","ND","ND","2.8","254","32","43.8","205.7","0"],
    [11543,"2011-08-30T18:00:00","28.2","36.50","17.85","ND","ND","ND","1.9","250.1","30.7","46.1","63.7","0"],
    [11544,"2011-08-30T19:00:00","68.7","11.72","24.07","ND","ND","ND","0.2","296.2","29.2","50.3","0.9","0"],
    [11545,"2011-08-30T20:00:00","40.8","8.53","39.12","ND","ND","ND","0.6","138.3","28.5","51.8","0","0"],
    [11546,"2011-08-30T21:00:00","65.8","10.60","67.48","ND","ND","ND","0.8","126.1","27.8","54.6","0","0"],
    [11547,"2011-08-30T22:00:00","85.6","11.72","47.38","ND","ND","ND","0.6","25.5","26","62.6","0","0"],
    [11548,"2011-08-30T23:00:00","82.8","14.99","84.53","ND","ND","ND","0.4","339.7","24.3","69.8","0","0"],
    [11549,"2011-08-31T00:00:00","78.8","26.85","68.94","ND","ND","ND","0.3","347.4","23.8","72.2","0","0"],
    [11550,"2011-08-31T01:00:00","81.6","28.47","39.28","ND","ND","ND","0.7","284.8","23.4","75.8","0","0"],
    [11551,"2011-08-31T02:00:00","64.9","23.79","42.24","ND","ND","ND","0.7","198.2","24","71.9","0","0"],
    [11552,"2011-08-31T03:00:00","46.6","26.40","36.57","ND","ND","ND","0.3","264","24.2","70.7","0","0"],
    [11553,"2011-08-31T04:00:00","29.8","22.42","34.90","ND","ND","ND","0.7","339","23.4","76.1","0","0"],
    [11554,"2011-08-31T05:00:00","48.2","22.99","33.44","ND","ND","ND","0.5","188.1","23.4","76.5","0","0"],
    [11555,"2011-08-31T06:00:00","46.7","16.13","31.23","ND","ND","ND","0.5","181.6","23.2","75.1","0","0"],
    [11556,"2011-08-31T07:00:00","55.7","26.88","29.24","ND","ND","ND","0.2","252.8","23.2","75.5","17.2","0"],
    [11557,"2011-08-31T08:00:00","31","13.05","26.51","ND","ND","ND","0.3","164.8","25","66.3","196.5","0"],
    [11558,"2011-08-31T09:00:00","74.2","12.18","35.50","ND","ND","ND","0.7","116.4","26.6","57.9","378.7","0"],
    [11559,"2011-08-31T10:00:00","60.1","18.81","50.03","ND","ND","ND","0.9","91.5","27.8","53.2","576.6","0"],
    [11560,"2011-08-31T11:00:00","68.9","25.42","61.46","ND","ND","ND","1.9","94.2","29.1","50.9","708.9","0"],
    [11561,"2011-08-31T12:00:00","63","20.53","40.36","ND","ND","ND","1.9","101.2","29.4","52.3","432","0"],
    [11562,"2011-08-31T13:00:00","48.9","26.48","27.35","ND","ND","ND","1.7","108.2","29.3","54","370.2","0"],
    [11563,"2011-08-31T14:00:00","36.6","24.03","19.24","ND","ND","ND","0.7","219.3","31.2","42.2","734.2","0"],
    [11564,"2011-08-31T15:00:00","20.8","23.75","22.53","ND","ND","ND","1","155","33.2","29.1","579.4","0"],
    [11565,"2011-08-31T16:00:00","11.5","24.74","22.45","ND","ND","ND","2.4","106.4","33.4","28","377.2","0"],
    [11566,"2011-08-31T17:00:00","19.8","6.36","21.90","ND","ND","ND","2.2","87.6","32","35.2","197","0"],
    [11567,"2011-08-31T18:00:00","12.3","2.79","22.11","ND","ND","ND","1.4","56.7","30.8","37.1","38.2","0"],
    [11568,"2011-08-31T19:00:00","22.1","4.83","25.71","ND","ND","ND","0.2","298.4","29","44.7","1.1","0"],
    [11569,"2011-08-31T20:00:00","46.8","10.70","33.90","ND","ND","ND","0.3","264.1","27.5","49.7","0","0"],
    [11570,"2011-08-31T21:00:00","51.9","15.85","70.21","ND","ND","ND","0.2","262","27","50.7","0","0"],
    [11571,"2011-08-31T22:00:00","58.7","11.11","77.27","ND","ND","ND","0.4","128.2","26.7","55.8","0","0"],
    [11572,"2011-08-31T23:00:00","70.2","10.73","78.00","ND","ND","ND","0.3","103.5","25.8","60","0","0"],
    [11573,"2011-09-01T00:00:00","44.2","20.41","66.21","ND","ND","ND","0.5","191","24.9","67.2","0","0"],
    [11574,"2011-09-01T01:00:00","44.7","19.25","62.15","ND","ND","ND","0.1","302.3","24.2","67.6","0","0"],
    [11575,"2011-09-01T02:00:00","39.1","14.32","40.93","ND","ND","ND","0","24.3","23","71.1","0","0"],
    [11576,"2011-09-01T03:00:00","29.6","9.45","39.40","ND","ND","ND","0.1","281.1","22.2","75.1","0","0"],
    [11577,"2011-09-01T04:00:00","30.8","4.46","30.02","ND","ND","ND","0.1","37.6","21.8","78.4","0","0"],
    [11578,"2011-09-01T05:00:00","106.8","5.55","34.38","ND","ND","ND","0.8","214.9","21.7","79.4","0","0"],
    [11579,"2011-09-01T06:00:00","68","5.67","32.48","ND","ND","ND","1.1","194.9","22.1","70","0.5","0"],
    [11580,"2011-09-01T07:00:00","56.7","14.06","30.05","ND","ND","ND","0.3","29","22.1","71.6","57.4","0"],
    [11581,"2011-09-01T08:00:00","99.2","7.50","27.40","ND","ND","ND","0.1","239.2","23.5","68.1","149.1","0"],
    [11582,"2011-09-01T09:00:00","110.5","17.81","46.38","ND","ND","ND","1.6","123.2","25.2","56.9","336.8","0"],
    [11583,"2011-09-01T10:00:00","56.8","46.49","62.50","ND","ND","ND","0.7","164","26.9","52.4","624","0"],
    [11584,"2011-09-01T11:00:00","48.9","18.49","71.17","ND","ND","ND","1","172.7","28.8","47.9","743.8","0"],
    [11585,"2011-09-01T12:00:00","56.2","16.29","29.93","ND","ND","ND","0.8","160.6","30.4","41.8","745.1","0"],
    [11586,"2011-09-01T13:00:00","32","18.75","25.27","ND","ND","ND","1.4","148.2","32.3","31","737.5","0"],
    [11587,"2011-09-01T14:00:00","17.2","13.15","20.40","ND","ND","ND","1.2","153.5","33.4","24.4","629.8","0"],
    [11588,"2011-09-01T15:00:00","9.6","8.16","21.42","ND","ND","ND","2.1","144.5","33.5","23.4","395.6","0"],
    [11589,"2011-09-01T16:00:00","5.6","3.85","15.50","ND","ND","ND","0.6","113","32.3","28.4","163.9","0"],
    [11590,"2011-09-01T17:00:00","18.2","2.50","15.86","ND","ND","ND","1.6","250.2","30.9","37.7","121","0"],
    [11591,"2011-09-01T18:00:00","10.2","4.01","21.32","ND","ND","ND","2.2","231.4","29.7","43","37.9","0"],
    [11592,"2011-09-01T19:00:00","38","2.79","29.94","ND","ND","ND","2.7","247.8","28","48.9","0.5","0"],
    [11593,"2011-09-01T20:00:00","47.7","3.44","38.52","ND","ND","ND","0.5","268.5","27.3","51","0","0"],
    [11594,"2011-09-01T21:00:00","56.2","2.98","36.14","ND","ND","ND","0.4","140.2","26.8","53.9","0","0"],
    [11595,"2011-09-01T22:00:00","82.1","4.24","40.40","ND","ND","ND","0.5","87.3","25.8","59.8","0","0"],
    [11596,"2011-09-01T23:00:00","51.3","16.47","55.11","ND","ND","ND","0.5","152.5","24.6","66.3","0","0"],
    [11597,"2011-09-02T00:00:00","77.8","24.02","53.38","ND","ND","ND","0.1","191.8","23.6","69.3","0","0"],
    [11598,"2011-09-02T01:00:00","43.4","16.82","40.87","ND","ND","ND","0.3","244.9","22.9","69.9","0","0"],
    [11599,"2011-09-02T02:00:00","45.2","23.44","37.53","ND","ND","ND","0.5","337.3","22.5","69.7","0","0"],
    [11600,"2011-09-02T03:00:00","45.6","8.78","37.20","ND","ND","ND","0.4","350.5","21.2","79.6","0","0"],
    [11601,"2011-09-02T04:00:00","37.1","5.95","32.00","ND","ND","ND","0.3","342.6","20.7","80.9","0","0"],
    [11602,"2011-09-02T05:00:00","50.9","24.30","28.23","ND","ND","ND","0.3","29.8","20.2","80.8","0","0"],
    [11603,"2011-09-02T06:00:00","69.8","24.96","26.63","ND","ND","ND","0","330.9","20","79.2","0.3","0"],
    [11604,"2011-09-02T07:00:00","54.5","21.33","27.41","ND","ND","ND","0.1","170.2","20.4","77.2","41.3","0"],
    [11605,"2011-09-02T08:00:00","71.6","37.64","30.34","ND","ND","ND","0.8","42.1","21.6","68","180.7","0"],
    [11606,"2011-09-02T09:00:00","101.2","37.92","34.50","ND","ND","ND","0.9","49.8","23.2","59.5","351.8","0"],
    [11607,"2011-09-02T10:00:00","70.8","71.86","58.39","ND","ND","ND","1.4","56.5","25.1","53.6","547.1","0"],
    [11608,"2011-09-02T11:00:00","50.4","67.89","55.00","ND","ND","ND","1.2","59.9","27.3","47.4","672.7","0"],
    [11609,"2011-09-02T12:00:00","36.1","26.40","24.16","ND","ND","ND","1.2","115.4","28.8","43.7","728.5","0"],
    [11610,"2011-09-02T13:00:00","53.6","35.82","16.98","ND","ND","ND","1.5","117.6","30.6","37.5","796.5","0"],
    [11611,"2011-09-02T14:00:00","44.3","64.71","25.29","ND","ND","ND","1.5","86","31.5","34.2","587.1","0"],
    [11612,"2011-09-02T15:00:00","50","54.40","29.00","ND","ND","ND","2.1","290.1","31.1","41.4","452","0"],
    [11613,"2011-09-02T16:00:00","68.9","30.86","24.22","ND","ND","ND","4.3","271.9","30.1","42.9","470","0"],
    [11614,"2011-09-02T17:00:00","48.4","27.40","22.03","ND","ND","ND","3.5","265","29.3","43.5","180.7","0"],
    [11615,"2011-09-02T18:00:00","36.5","7.66","18.23","ND","ND","ND","3.9","269.2","28","46.2","70.2","0"],
    [11616,"2011-09-02T19:00:00","46.9","4.55","18.22","ND","ND","ND","3.2","263.1","27.5","47.6","0.3","0"],
    [11617,"2011-09-02T20:00:00","47.3","3.99","19.28","ND","ND","ND","1.6","106.2","27.1","51.7","0","0"],
    [11618,"2011-09-02T21:00:00","57.3","2.37","24.45","ND","ND","ND","1.4","157.7","25.9","56.4","0","0"],
    [11619,"2011-09-02T22:00:00","51.6","5.76","49.17","ND","ND","ND","1.4","258.5","25.1","59.4","0","0"],
    [11620,"2011-09-02T23:00:00","33","10.27","42.84","ND","ND","ND","0.9","74.9","24.8","62.8","0","0"],
    [11621,"2011-09-03T00:00:00","30","5.24","31.62","ND","ND","ND","0.7","26.9","23.3","71.4","0","0"],
    [11622,"2011-09-03T01:00:00","53.3","4.14","30.54","ND","ND","ND","0.6","167.8","23.2","71.1","0","0"],
    [11623,"2011-09-03T02:00:00","42.9","11.09","33.90","ND","ND","ND","0.7","155.7","22.6","73.9","0","0"],
    [11624,"2011-09-03T03:00:00","46.6","9.77","35.80","ND","ND","ND","0.4","149.1","22.2","75.8","0","0"],
    [11625,"2011-09-03T04:00:00","50.2","7.06","30.60","ND","ND","ND","0.3","10.9","21.8","78.1","0","0"],
    [11626,"2011-09-03T05:00:00","41.8","5.65","29.72","ND","ND","ND","1.1","162.2","21.9","76.2","0","0"],
    [11627,"2011-09-03T06:00:00","44.2","6.30","31.65","ND","ND","ND","0.2","244.6","21.6","77.4","0.2","0"],
    [11628,"2011-09-03T07:00:00","45.8","9.20","23.03","ND","ND","ND","0.2","353.8","21.1","79.7","12.4","0"],
    [11629,"2011-09-03T08:00:00","61.3","4.86","30.28","ND","ND","ND","0.2","263.4","22.2","74.7","175.2","0"],
    [11630,"2011-09-03T09:00:00","63.2","9.94","38.62","ND","ND","ND","1.1","72.6","24.4","66.1","373.8","0"],
    [11631,"2011-09-03T10:00:00","63.1","26.70","44.47","ND","ND","ND","1.4","75.9","25.4","61.4","480.6","0"],
    [11632,"2011-09-03T11:00:00","36.7","31.64","53.90","ND","ND","ND","1.4","74","27.3","55.8","633.8","0"],
    [11633,"2011-09-03T12:00:00","44.6","37.47","27.77","ND","ND","ND","1.3","51.7","27.8","53.5","491.7","0"],
    [11634,"2011-09-03T13:00:00","32.2","80.59","26.67","ND","ND","ND","0.9","21","28.3","50.9","388.9","0"],
    [11635,"2011-09-03T14:00:00","25","45.67","19.90","ND","ND","ND","1.3","81.5","29.5","47.6","552.8","0"],
    [11636,"2011-09-03T15:00:00","24.3","25.96","15.10","ND","ND","ND","1.5","71.7","30","45.7","375.6","0"],
    [11637,"2011-09-03T16:00:00","19.3","36.26","16.43","ND","ND","ND","2.2","294.6","29.4","47.6","170.6","0"],
    [11638,"2011-09-03T17:00:00","44.3","22.84","14.93","ND","ND","ND","2","266.4","28.6","49.5","89.6","0"],
    [11639,"2011-09-03T18:00:00","23.9","24.34","14.30","ND","ND","ND","1.7","255.1","28","50.9","54.2","0"],
    [11640,"2011-09-03T19:00:00","32.8","18.66","22.22","ND","ND","ND","0.1","135.1","27.2","52.5","0.7","0"],
    [11641,"2011-09-03T20:00:00","38.5","15.68","29.45","ND","ND","ND","0.4","65.3","26.8","54.1","0","0"],
    [11642,"2011-09-03T21:00:00","47.7","9.65","38.18","ND","ND","ND","0.5","59.9","26.3","56","0","0"],
    [11643,"2011-09-03T22:00:00","36.6","6.87","53.89","ND","ND","ND","1.1","111.1","26","57.1","0","0"],
    [11644,"2011-09-03T23:00:00","45.5","3.79","49.66","ND","ND","ND","0.9","140.7","25.1","61.1","0","0"],
    [11645,"2011-09-04T00:00:00","28.2","15.31","51.77","ND","ND","ND","0.6","284.1","24","66.3","0","0"],
    [11646,"2011-09-04T01:00:00","31.1","19.93","48.39","ND","ND","ND","0.8","340.5","23.1","70.9","0","0"],
    [11647,"2011-09-04T02:00:00","49.4","14.16","44.61","ND","ND","ND","0.4","23","22.4","74.2","0","0"],
    [11648,"2011-09-04T03:00:00","46","17.66","37.34","ND","ND","ND","0","257.2","22.4","74.2","0","0"],
    [11649,"2011-09-04T04:00:00","25","16.00","24.76","ND","ND","ND","0.1","274.4","22.5","74.1","0","0"],
    [11650,"2011-09-04T05:00:00","36.9","28.09","26.95","ND","ND","ND","0.1","357.4","21.6","77.6","0","0"],
    [11651,"2011-09-04T06:00:00","22.6","16.45","31.49","ND","ND","ND","0","276.8","21","80.1","0.1","0"],
    [11652,"2011-09-04T07:00:00","39.6","11.40","28.52","ND","ND","ND","0.2","33.7","21.2","79.4","11.5","0"],
    [11653,"2011-09-04T08:00:00","55.5","7.01","26.44","ND","ND","ND","0.3","29.4","21.8","77.4","99","0"],
    [11654,"2011-09-04T09:00:00","45.8","13.45","29.70","ND","ND","ND","0.9","75.9","24.6","67.4","444.8","0"],
    [11655,"2011-09-04T10:00:00","32.4","37.58","34.97","ND","ND","ND","1.3","62.9","26.2","60.5","588.2","0"],
    [11656,"2011-09-04T11:00:00","31.8","36.86","23.85","ND","ND","ND","0.9","50","27.5","56.5","724.9","0"],
    [11657,"2011-09-04T12:00:00","30.8","56.25","23.00","ND","ND","ND","1.2","102.9","28.8","52.7","658.9","0"],
    [11658,"2011-09-04T13:00:00","48.6","130.45","28.54","ND","ND","ND","0.9","19.6","29.3","50.7","441.6","0"],
    [11659,"2011-09-04T14:00:00","27.4","77.32","20.63","ND","ND","ND","1","67.8","29.5","49.3","542.3","0"],
    [11660,"2011-09-04T15:00:00","26.9","58.06","16.96","ND","ND","ND","1.4","145.8","30.6","45.9","462","0"],
    [11661,"2011-09-04T16:00:00","14.4","33.85","11.65","ND","ND","ND","1.3","5.2","29.9","47.5","239.5","0"],
    [11662,"2011-09-04T17:00:00","18.8","27.49","12.75","ND","ND","ND","1.8","244.2","29.6","48.4","174.3","0"],
    [11663,"2011-09-04T18:00:00","40.5","23.12","12.22","ND","ND","ND","2.3","260.8","28.7","50.5","34.9","0"],
    [11664,"2011-09-04T19:00:00","41.6","17.56","14.70","ND","ND","ND","0.6","253.5","27.3","53.9","0.5","0"],
    [11665,"2011-09-04T20:00:00","25","7.37","20.93","ND","ND","ND","0.3","222.4","26.8","55.7","0","0"],
    [11666,"2011-09-04T21:00:00","27.9","5.61","27.89","ND","ND","ND","0.3","91","26.3","58.3","0","0"],
    [11667,"2011-09-04T22:00:00","21.9","8.21","51.87","ND","ND","ND","0.7","109.6","25.1","64","0","0"],
    [11668,"2011-09-04T23:00:00","36","11.24","53.04","ND","ND","ND","0.3","129.6","24.1","69.1","0","0"],
    [11669,"2011-09-05T00:00:00","34.4","15.62","53.59","ND","ND","ND","0.2","154.3","23.6","70.7","0","0"],
    [11670,"2011-09-05T01:00:00","40.7","11.37","46.43","ND","ND","ND","0.4","47.5","22.4","75.9","0","0"],
    [11671,"2011-09-05T02:00:00","46.6","12.83","41.78","ND","ND","ND","0.6","177.9","22.5","75.5","0","0"],
    [11672,"2011-09-05T03:00:00","49.3","10.78","30.85","ND","ND","ND","0.1","70.1","22.3","76.3","0","0"],
    [11673,"2011-09-05T04:00:00","53.9","10.44","26.75","ND","ND","ND","0.5","146.6","22","77.6","0","0"],
    [11674,"2011-09-05T05:00:00","37.3","8.20","26.53","ND","ND","ND","0.2","172.4","21.5","79.8","0","0"],
    [11675,"2011-09-05T06:00:00","32.2","13.39","21.35","ND","ND","ND","0","341.7","21.1","81.7","0.2","0"],
    [11676,"2011-09-05T07:00:00","55.2","10.21","24.15","ND","ND","ND","0.1","36.4","21","81.9","25.4","0"],
    [11677,"2011-09-05T08:00:00","81.2","6.46","24.75","ND","ND","ND","0.7","39.3","22.5","75.9","194.2","0"],
    [11678,"2011-09-05T09:00:00","103.6","19.28","35.49","ND","ND","ND","0.2","98.7","24.5","67.3","376.9","0"],
    [11679,"2011-09-05T10:00:00","68.2","21.95","54.38","ND","ND","ND","1.3","110.9","26.3","58.6","576.1","0"],
    [11680,"2011-09-05T11:00:00","66.9","32.32","83.14","ND","ND","ND","1.1","116.6","27.9","52.4","694.3","0"],
    [11681,"2011-09-05T12:00:00","45.8","27.65","47.01","ND","ND","ND","0.9","101.8","29.2","47.7","759.3","0"],
    [11682,"2011-09-05T13:00:00","55.9","18.52","24.79","ND","ND","ND","1.1","96.4","30.7","42.2","803.6","0"],
    [11683,"2011-09-05T14:00:00","50","17.46","22.65","ND","ND","ND","1.1","74.3","32.1","37.2","766.1","0"],
    [11684,"2011-09-05T15:00:00","51.3","15.80","23.45","ND","ND","ND","2","327.8","32","40.2","516.2","0"],
    [11685,"2011-09-05T16:00:00","60.9","14.37","22.75","ND","ND","ND","2.9","281.2","31.6","41","366","0"],
    [11686,"2011-09-05T17:00:00","40.7","45.18","21.64","ND","ND","ND","3","273.6","31.2","40.1","241.7","0"],
    [11687,"2011-09-05T18:00:00","36.7","5.48","23.28","ND","ND","ND","1.7","279.8","29.5","44.1","62.8","0"],
    [11688,"2011-09-05T19:00:00","38.5","4.73","23.48","ND","ND","ND","0.9","297.7","28.3","47","0.9","0"],
    [11689,"2011-09-05T20:00:00","20.9","3.13","24.11","ND","ND","ND","0.2","49.5","27.9","47.5","0","0"],
    [11690,"2011-09-05T21:00:00","41.6","5.64","26.07","ND","ND","ND","0.5","30.7","26.9","53","0","0"],
    [11691,"2011-09-05T22:00:00","55.1","8.10","38.80","ND","ND","ND","0.5","83.1","25.8","59.4","0","0"],
    [11692,"2011-09-05T23:00:00","67","9.80","68.17","ND","ND","ND","0.4","107.9","25.2","62.5","0","0"],
    [11693,"2011-09-06T00:00:00","35.6","20.92","56.15","ND","ND","ND","0.4","181.7","24.7","65.3","0","0"],
    [11694,"2011-09-06T01:00:00","43.3","12.51","46.27","ND","ND","ND","0.6","150.2","24.1","68.7","0","0"],
    [11695,"2011-09-06T02:00:00","38.2","17.19","38.16","ND","ND","ND","0.6","189.7","23.9","69.8","0","0"],
    [11696,"2011-09-06T03:00:00","41.3","20.00","35.71","ND","ND","ND","0.5","147.4","23.5","72.3","0","0"],
    [11697,"2011-09-06T04:00:00","22","15.12","30.41","ND","ND","ND","0.9","189.5","23.2","73","0","0"],
    [11698,"2011-09-06T05:00:00","32","11.30","24.22","ND","ND","ND","0.1","6.5","22.6","75.4","0","0"],
    [11699,"2011-09-06T06:00:00","45.7","9.95","18.27","ND","ND","ND","0.4","336.2","21.8","79.9","0.1","0"],
    [11700,"2011-09-06T07:00:00","55","6.25","21.91","ND","ND","ND","0.3","25.5","21.7","79.9","20","0"],
    [11701,"2011-09-06T08:00:00","66.2","29.10","30.38","ND","ND","ND","0.2","81.8","23.6","72.2","185.1","0"],
    [11702,"2011-09-06T09:00:00","101.8","33.54","35.90","ND","ND","ND","1.4","75.1","25.5","65.4","391.8","0"],
    [11703,"2011-09-06T10:00:00","52.4","37.30","54.33","ND","ND","ND","1.2","107.2","26.1","61.2","311","0"],
    [11704,"2011-09-06T11:00:00","67","73.82","62.74","ND","ND","ND","1.1","120.1","27.2","56.8","442.5","0"],
    [11705,"2011-09-06T12:00:00","55","73.75","30.85","ND","ND","ND","0.8","93.7","28.3","54.4","498.3","0"],
    [11706,"2011-09-06T13:00:00","68.8","48.35","25.46","ND","ND","ND","1.3","47.5","29.1","52.6","407.9","0"],
    [11707,"2011-09-06T14:00:00","65.8","55.14","25.55","ND","ND","ND","1.3","88","29.7","51.3","359.9","0"],
    [11708,"2011-09-06T15:00:00","52.1","58.58","26.08","ND","ND","ND","1.7","47.6","29.9","50.5","312.2","0"],
    [11709,"2011-09-06T16:00:00","45.4","49.54","24.77","ND","ND","ND","1.9","269.1","29.2","51.3","145.8","0"],
    [11710,"2011-09-06T17:00:00","40.4","22.69","18.01","ND","ND","ND","2.4","251.6","28.7","51.5","82.6","0"],
    [11711,"2011-09-06T18:00:00","41.9","17.61","19.30","ND","ND","ND","1.1","265.4","28","51.8","3.9","0"],
    [11712,"2011-09-06T19:00:00","44.2","6.62","26.14","ND","ND","ND","0.4","191.8","27.8","52.2","0","0"],
    [11713,"2011-09-06T20:00:00","34.7","5.21","39.14","ND","ND","ND","0.3","116","27.6","53.9","0","0"],
    [11714,"2011-09-06T21:00:00","50.2","7.14","50.48","ND","ND","ND","0.1","257.9","26.2","58.7","0","0"],
    [11715,"2011-09-06T22:00:00","34.8","10.21","60.32","ND","ND","ND","0.3","62.6","26","58.8","0","0"],
    [11716,"2011-09-06T23:00:00","44.6","12.12","62.99","ND","ND","ND","0.4","118.5","24.9","65.2","0","0"],
    [11717,"2011-09-07T00:00:00","33.9","10.87","51.46","ND","ND","ND","0.4","99.1","23.9","69.1","0","0"],
    [11718,"2011-09-07T01:00:00","79.1","15.74","47.08","ND","ND","ND","0.1","309.5","23.1","73.4","0","0"],
    [11719,"2011-09-07T02:00:00","64.9","12.00","40.39","ND","ND","ND","0.2","295","22.4","75","0","0"],
    [11720,"2011-09-07T03:00:00","67.8","17.14","30.99","ND","ND","ND","0.2","7.9","22.5","75.4","0","0"],
    [11721,"2011-09-07T04:00:00","43.2","10.94","28.15","ND","ND","ND","0.5","121.2","22.7","76.2","0","0"],
    [11722,"2011-09-07T05:00:00","37.8","10.45","27.49","ND","ND","ND","0.6","45.7","22","80.1","0","0"],
    [11723,"2011-09-07T06:00:00","33.4","18.75","25.92","ND","ND","ND","0.1","271.4","22","80.1","0.2","0"],
    [11724,"2011-09-07T07:00:00","56.8","19.79","25.71","ND","ND","ND","0.2","256.8","22.1","79.7","18.6","0"],
    [11725,"2011-09-07T08:00:00","50.6","25.32","31.69","ND","ND","ND","0.1","287.3","23.2","74.9","94.4","0"],
    [11726,"2011-09-07T09:00:00","78.4","19.64","31.99","ND","ND","ND","0.5","76.8","24.1","71.7","193.3","0"],
    [11727,"2011-09-07T10:00:00","81.4","27.14","43.60","ND","ND","ND","0.8","105.8","26.2","63.7","509.2","0"],
    [11728,"2011-09-07T11:00:00","85.5","71.24","65.86","ND","ND","ND","1","87.3","27.8","56.2","567.1","0"],
    [11729,"2011-09-07T12:00:00","70.6","158.90","67.62","ND","ND","ND","0.9","350.7","28.8","52.2","612.8","0"],
    [11730,"2011-09-07T13:00:00","50.3","101.16","43.72","ND","ND","ND","0.7","352","30.2","46.8","560.1","0"],
    [11731,"2011-09-07T14:00:00","27.7","43.06","25.99","ND","ND","ND","1.4","8","30.9","44.5","550.5","0"],
    [11732,"2011-09-07T15:00:00","35","23.78","16.40","ND","ND","ND","2.8","281.9","30.7","44.2","431.6","0"],
    [11733,"2011-09-07T16:00:00","20.1","43.10","18.50","ND","ND","ND","3.2","279","30","45.5","387.7","0"],
    [11734,"2011-09-07T17:00:00","17.8","10.15","16.85","ND","ND","ND","2.4","291.7","29.6","45.6","211","0"],
    [11735,"2011-09-07T18:00:00","9.6","1.70","12.01","ND","ND","ND","2","278.1","28.1","48.9","44.4","0"],
    [11736,"2011-09-07T19:00:00","22.9","1.69","13.59","ND","ND","ND","2.2","68.8","26.5","58.1","0.3","0"],
    [11737,"2011-09-07T20:00:00","25.5","0.74","13.88","ND","ND","ND","2.1","119.1","25.2","63.1","0","0"],
    [11738,"2011-09-07T21:00:00","47.9","5.90","36.02","ND","ND","ND","0.9","44","23.6","71.1","0","0"],
    [11739,"2011-09-07T22:00:00","34","6.60","30.44","ND","ND","ND","1.1","75.4","22.7","75.3","0","0"],
    [11740,"2011-09-07T23:00:00","40.4","14.92","37.79","ND","ND","ND","0.9","166.1","22.5","76.8","0","0"],
    [11741,"2011-09-08T00:00:00","37.2","21.25","34.35","ND","ND","ND","0.6","153.2","22.5","76.5","0","0"],
    [11742,"2011-09-08T01:00:00","29.2","12.45","35.86","ND","ND","ND","0.8","131.6","22.3","78.7","0","0"],
    [11743,"2011-09-08T02:00:00","15.2","8.10","30.83","ND","ND","ND","0.9","149","21.8","82.6","0","0"],
    [11744,"2011-09-08T03:00:00","24.6","11.87","25.97","ND","ND","ND","0.8","35.3","21.2","87.4","0","2.54"],
    [11745,"2011-09-08T04:00:00","32.7","4.76","17.83","ND","ND","ND","0.4","229.6","20.3","95.6","0","9.91"],
    [11746,"2011-09-08T05:00:00","18.6","13.36","23.69","ND","ND","ND","0","94.1","20.6","94.8","0","0.25"],
    [11747,"2011-09-08T06:00:00","10.8","6.32","17.33","ND","ND","ND","0.7","53.4","20.3","95.6","0","0"],
    [11748,"2011-09-08T07:00:00","30.2","1.50","16.57","ND","ND","ND","0.3","45.9","20.3","95.2","10.7","0.25"],
    [11749,"2011-09-08T08:00:00","41.4","3.07","30.99","ND","ND","ND","0.1","86.1","21","92.1","65.3","0"],
    [11750,"2011-09-08T09:00:00","51.5","6.36","36.16","ND","ND","ND","1.1","91.2","21.9","88.4","69.6","0"],
    [11751,"2011-09-08T10:00:00","39.4","16.00","43.93","ND","ND","ND","0.5","152.6","22.2","84.7","53.4","0"],
    [11752,"2011-09-08T11:00:00","35.2","19.96","49.65","ND","ND","ND","0.9","274.5","22.9","78","365.2","0"],
    [11753,"2011-09-08T12:00:00","20.2","11.50","38.86","ND","ND","ND","1","90.7","25.6","65.5","532.2","0"],
    [11754,"2011-09-08T13:00:00","24.5","7.80","26.57","ND","ND","ND","0.8","123","26.5","60.7","562.2","0"],
    [11755,"2011-09-08T14:00:00","13.1","4.63","24.25","ND","ND","ND","3.8","254.7","27.8","51.2","625","0"],
    [11756,"2011-09-08T15:00:00","9.2","6.88","26.96","ND","ND","ND","1.1","246","26.1","63","278.3","1.02"],
    [11757,"2011-09-08T16:00:00","13.5","0.87","10.36","ND","ND","ND","1.1","116.3","23.5","82.9","91.2","0"],
    [11758,"2011-09-08T17:00:00","22.5","2.09","22.79","ND","ND","ND","1.8","100.6","24.6","69.3","113.6","0"],
    [11759,"2011-09-08T18:00:00","32.3","5.65","43.90","ND","ND","ND","1.4","141.7","24","74.3","16.9","0.25"],
    [11760,"2011-09-08T19:00:00","26.2","11.31","41.88","ND","ND","ND","1.4","180.3","23.3","76.8","0.4","0"],
    [11761,"2011-09-08T20:00:00","21.2","16.41","48.56","ND","ND","ND","2.6","182.8","22.5","81.4","0","0"],
    [11762,"2011-09-08T21:00:00","20","7.72","48.32","ND","ND","ND","1.1","165.8","22.4","79.2","0","0"],
    [11763,"2011-09-08T22:00:00","19.4","6.78","45.48","ND","ND","ND","1.1","75.5","21.2","89.9","0","7.62"],
    [11764,"2011-09-08T23:00:00","28.9","6.18","44.76","ND","ND","ND","0.9","50.5","19.8","95.9","0","3.81"],
    [11765,"2011-09-09T00:00:00","15.5","4.45","40.93","ND","ND","ND","0.2","137.5","20","93.7","0","0.76"],
    [11766,"2011-09-09T01:00:00","10","2.37","27.89","ND","ND","ND","0.3","16.8","20.2","93.1","0","0.51"],
    [11767,"2011-09-09T02:00:00","7.5","1.19","22.64","ND","ND","ND","1.1","113.9","20.2","93.1","0","0"],
    [11768,"2011-09-09T03:00:00","13.8","1.34","21.26","ND","ND","ND","0.6","77.5","19.7","95.5","0","0"],
    [11769,"2011-09-09T04:00:00","8.9","2.42","27.53","ND","ND","ND","0.4","172.4","19.7","94.6","0","0.25"],
    [11770,"2011-09-09T05:00:00","10.6","5.66","14.84","ND","ND","ND","0.3","2.2","19.9","91","0","0"],
    [11771,"2011-09-09T06:00:00","12.1","3.79","13.77","ND","ND","ND","0.3","40.1","19.7","94.3","0","0"],
    [11772,"2011-09-09T07:00:00","38.8","3.17","18.68","ND","ND","ND","0.9","125.3","19.8","93.5","13.6","0"],
    [11773,"2011-09-09T08:00:00","31.8","5.97","27.43","ND","ND","ND","1.1","144","20.2","90","44.1","0"],
    [11774,"2011-09-09T09:00:00","43","11.88","31.74","ND","ND","ND","0.8","123.3","20.6","87.5","56.3","0"],
    [11775,"2011-09-09T10:00:00","46.3","12.99","38.63","ND","ND","ND","0.9","72.5","20.8","87.3","141.5","0"],
    [11776,"2011-09-09T11:00:00","56.4","13.48","48.00","ND","ND","ND","0.7","70.3","22.1","81.5","283.4","0"],
    [11777,"2011-09-09T12:00:00","43.2","12.87","48.36","ND","ND","ND","0.4","83.9","23.3","74.4","368.1","0"],
    [11778,"2011-09-09T13:00:00","42.4","16.60","48.69","ND","ND","ND","1.1","53.5","25","67.7","527.1","0"],
    [11779,"2011-09-09T14:00:00","21.7","22.80","47.93","ND","ND","ND","1.2","70.4","25.7","62.1","472.8","0"],
    [11780,"2011-09-09T15:00:00","44.5","163.78","44.91","ND","ND","ND","2.1","127.4","25.9","62.7","410.1","0"],
    [11781,"2011-09-09T16:00:00","46.3","105.94","30.75","ND","ND","ND","1.4","149.3","26.1","61.1","281.6","0"],
    [11782,"2011-09-09T17:00:00","47.6","29.51","25.18","ND","ND","ND","1.4","189.8","26.3","61.6","159","0"],
    [11783,"2011-09-09T18:00:00","68.2","27.24","28.79","ND","ND","ND","0.4","259","25.9","64.3","25.3","0"],
    [11784,"2011-09-09T19:00:00","76.4","24.65","50.65","ND","ND","ND","0.6","123.4","25.1","69.4","0.2","0"],
    [11785,"2011-09-09T20:00:00","78.6","18.58","63.89","ND","ND","ND","0.4","325.4","24.1","73.8","0","0"],
    [11786,"2011-09-09T21:00:00","86.9","13.27","89.31","ND","ND","ND","0.4","314.6","23.4","76.2","0","0"],
    [11787,"2011-09-09T22:00:00","71.2","14.33","84.19","ND","ND","ND","0.4","286.5","22.9","76.4","0","0"],
    [11788,"2011-09-09T23:00:00","84.3","19.67","71.85","ND","ND","ND","0.7","204.6","22.9","77","0","0"],
    [11789,"2011-09-10T00:00:00","65.5","20.35","51.84","ND","ND","ND","0.5","28.5","22.3","79.9","0","0"],
    [11790,"2011-09-10T01:00:00","91.6","16.57","69.32","ND","ND","ND","0.4","333.6","21.1","86.8","0","0"],
    [11791,"2011-09-10T02:00:00","67","13.50","56.47","ND","ND","ND","0.3","249.6","21.6","83.1","0","0"],
    [11792,"2011-09-10T03:00:00","66.9","19.27","43.12","ND","ND","ND","0.6","168.8","21.6","83.9","0","0"],
    [11793,"2011-09-10T04:00:00","34.5","16.40","37.89","ND","ND","ND","0.6","144.9","21.5","84.9","0","0"],
    [11794,"2011-09-10T05:00:00","34.2","12.30","36.71","ND","ND","ND","0.5","350.3","20.9","88.3","0","0"],
    [11795,"2011-09-10T06:00:00","57.6","10.29","27.53","ND","ND","ND","0","259.9","20.8","88.7","0.1","0"],
    [11796,"2011-09-10T07:00:00","76.4","14.83","33.72","ND","ND","ND","0.4","23.3","20.6","90.8","56.7","0"],
    [11797,"2011-09-10T08:00:00","67.4","24.55","34.37","ND","ND","ND","0.8","91.8","22.3","81","197.6","0"],
    [11798,"2011-09-10T09:00:00","76.7","28.77","36.19","ND","ND","ND","0.9","38.1","23.4","76.6","333.5","0"],
    [11799,"2011-09-10T10:00:00","62.5","44.96","43.84","ND","ND","ND","0.9","111","25","69.5","492.3","0"],
    [11800,"2011-09-10T11:00:00","50.6","45.54","36.52","ND","ND","ND","0.4","149.8","26.7","62.1","662","0"],
    [11801,"2011-09-10T12:00:00","59.3","41.74","32.20","ND","ND","ND","1.1","88.1","28","57.2","752.4","0"],
    [11802,"2011-09-10T13:00:00","63.9","30.30","27.24","ND","ND","ND","1.1","110.5","29.3","53.6","759.8","0"],
    [11803,"2011-09-10T14:00:00","55.1","25.38","28.66","ND","ND","ND","1","100.3","30.4","51.1","505.4","0"],
    [11804,"2011-09-10T15:00:00","ND","19.90","24.97","ND","ND","ND","ND","ND","ND","ND","ND","ND"],
    [11805,"2011-09-10T16:00:00","ND","ND","ND","ND","ND","ND","ND","ND","ND","ND","ND","ND"],
    [11806,"2011-09-10T17:00:00","ND","ND","ND","ND","ND","ND","ND","ND","ND","ND","ND","ND"],
    [11807,"2011-09-10T18:00:00","ND","ND","ND","ND","ND","ND","ND","ND","ND","ND","ND","ND"],
    [11808,"2011-09-10T19:00:00","ND","ND","ND","ND","ND","ND","ND","ND","ND","ND","ND","ND"],
    [11809,"2011-09-10T20:00:00","ND","ND","ND","ND","ND","ND","ND","ND","ND","ND","ND","ND"],
    [11810,"2011-09-10T21:00:00","ND","ND","ND","ND","ND","ND","ND","ND","ND","ND","ND","ND"],
    [11811,"2011-09-10T22:00:00","ND","ND","ND","ND","ND","ND","ND","ND","ND","ND","ND","ND"],
    [11812,"2011-09-10T23:00:00","ND","ND","ND","ND","ND","ND","ND","ND","ND","ND","ND","ND"],
    [11813,"2011-09-11T00:00:00","ND","ND","ND","ND","ND","ND","ND","ND","ND","ND","ND","ND"],
    [11814,"2011-09-11T01:00:00","ND","ND","ND","ND","ND","ND","ND","ND","ND","ND","ND","ND"],
    [11815,"2011-09-11T02:00:00","ND","ND","ND","ND","ND","ND","ND","ND","ND","ND","ND","ND"],
    [11816,"2011-09-11T03:00:00","ND","ND","ND","ND","ND","ND","ND","ND","ND","ND","ND","ND"],
    [11817,"2011-09-11T04:00:00","ND","ND","ND","ND","ND","ND","ND","ND","ND","ND","ND","ND"],
    [11818,"2011-09-11T05:00:00","ND","ND","ND","ND","ND","ND","ND","ND","ND","ND","ND","ND"],
    [11819,"2011-09-11T06:00:00","ND","ND","ND","ND","ND","ND","ND","ND","ND","ND","ND","ND"],
    [11820,"2011-09-11T07:00:00","ND","ND","ND","ND","ND","ND","ND","ND","ND","ND","ND","ND"],
    [11821,"2011-09-11T08:00:00","ND","ND","ND","ND","ND","ND","ND","ND","ND","ND","ND","ND"],
    [11822,"2011-09-11T09:00:00","ND","ND","ND","ND","ND","ND","ND","ND","ND","ND","ND","ND"],
    [11823,"2011-09-11T10:00:00","ND","ND","ND","ND","ND","ND","ND","ND","ND","ND","ND","ND"],
    [11824,"2011-09-11T11:00:00","ND","ND","ND","ND","ND","ND","ND","ND","ND","ND","ND","ND"],
    [11825,"2011-09-11T12:00:00","ND","ND","ND","ND","ND","ND","ND","ND","ND","ND","ND","ND"],
    [11826,"2011-09-11T13:00:00","ND","ND","ND","ND","ND","ND","ND","ND","ND","ND","ND","ND"],
    [11827,"2011-09-11T14:00:00","ND","ND","ND","ND","ND","ND","ND","ND","ND","ND","ND","ND"],
    [11828,"2011-09-11T15:00:00","ND","ND","ND","ND","ND","ND","ND","ND","ND","ND","ND","ND"],
    [11829,"2011-09-11T16:00:00","ND","ND","ND","ND","ND","ND","ND","ND","ND","ND","ND","ND"],
    [11830,"2011-09-11T17:00:00","ND","ND","ND","ND","ND","ND","ND","ND","ND","ND","ND","ND"],
    [11831,"2011-09-11T18:00:00","ND","ND","ND","ND","ND","ND","ND","ND","ND","ND","ND","ND"],
    [11832,"2011-09-11T19:00:00","ND","ND","ND","ND","ND","ND","ND","ND","ND","ND","ND","ND"],
    [11833,"2011-09-11T20:00:00","ND","ND","ND","ND","ND","ND","ND","ND","ND","ND","ND","ND"],
    [11834,"2011-09-11T21:00:00","ND","ND","ND","ND","ND","ND","ND","ND","ND","ND","ND","ND"],
    [11835,"2011-09-11T22:00:00","ND","ND","ND","ND","ND","ND","ND","ND","ND","ND","ND","ND"],
    [11836,"2011-09-11T23:00:00","ND","ND","ND","ND","ND","ND","ND","ND","ND","ND","ND","ND"],
    [11837,"2011-09-12T00:00:00","ND","ND","ND","ND","ND","ND","ND","ND","ND","ND","ND","ND"],
    [11838,"2011-09-12T01:00:00","ND","ND","ND","ND","ND","ND","ND","ND","ND","ND","ND","ND"],
    [11839,"2011-09-12T02:00:00","ND","ND","ND","ND","ND","ND","ND","ND","ND","ND","ND","ND"],
    [11840,"2011-09-12T03:00:00","ND","ND","ND","ND","ND","ND","ND","ND","ND","ND","ND","ND"],
    [11841,"2011-09-12T04:00:00","ND","ND","ND","ND","ND","ND","ND","ND","ND","ND","ND","ND"],
    [11842,"2011-09-12T05:00:00","ND","ND","ND","ND","ND","ND","ND","ND","ND","ND","ND","ND"],
    [11843,"2011-09-12T06:00:00","ND","ND","ND","ND","ND","ND","ND","ND","ND","ND","ND","ND"],
    [11844,"2011-09-12T07:00:00","ND","ND","ND","ND","ND","ND","ND","ND","ND","ND","ND","ND"],
    [11845,"2011-09-12T08:00:00","ND","ND","ND","ND","ND","ND","ND","ND","ND","ND","ND","ND"],
    [11846,"2011-09-12T09:00:00","ND","ND","ND","ND","ND","ND","ND","ND","ND","ND","ND","ND"],
    [11847,"2011-09-12T10:00:00","ND","ND","ND","ND","ND","ND","ND","ND","ND","ND","ND","ND"],
    [11848,"2011-09-12T11:00:00","ND","ND","ND","ND","ND","ND","ND","ND","ND","ND","ND","ND"],
    [11849,"2011-09-12T12:00:00","ND","ND","ND","ND","ND","ND","ND","ND","ND","ND","ND","ND"],
    [11850,"2011-09-12T13:00:00","ND","ND","ND","ND","ND","ND","ND","ND","ND","ND","ND","ND"],
    [11851,"2011-09-12T14:00:00","ND","ND","ND","ND","ND","ND","ND","ND","ND","ND","ND","ND"],
    [11852,"2011-09-12T15:00:00","227.4","ND","ND","ND","ND","ND","1","70","32","39.1","621","0"],
    [11853,"2011-09-12T16:00:00","113.7","ND","ND","ND","ND","ND","2","94.3","32.1","36.5","321.7","0"],
    [11854,"2011-09-12T17:00:00","56.9","49.12","73.58","ND","ND","ND","1.3","66.4","31.3","40.7","155.2","0"],
    [11855,"2011-09-12T18:00:00","47.3","52.60","ND","ND","ND","ND","1.1","4","30.2","44.8","87.9","0"],
    [11856,"2011-09-12T19:00:00","37.2","41.48","99.55","ND","ND","ND","1","244.7","28.9","49.3","0.9","0"],
    [11857,"2011-09-12T20:00:00","39.4","27.13","40.45","ND","ND","ND","0.6","263.2","27.8","53.5","0","0"],
    [11858,"2011-09-12T21:00:00","52.4","12.40","52.13","ND","ND","ND","0.3","103.8","27.5","53.2","0","0"],
    [11859,"2011-09-12T22:00:00","35","9.70","69.47","ND","ND","ND","0.8","98.7","26.8","57.2","0","0"],
    [11860,"2011-09-12T23:00:00","185.9","7.59","52.90","ND","ND","ND","0.2","148","25.7","64.4","0","0"],
    [11861,"2011-09-13T00:00:00","151","22.80","52.10","ND","ND","ND","0.2","102.3","24.9","68.4","0","0"],
    [11862,"2011-09-13T01:00:00","96.6","38.19","50.48","ND","ND","ND","0.2","15.6","24.4","70.4","0","0"],
    [11863,"2011-09-13T02:00:00","86.5","41.87","41.48","ND","ND","ND","0.4","32.2","23.9","74.3","0","0"],
    [11864,"2011-09-13T03:00:00","56.4","14.67","35.24","ND","ND","ND","0.2","5.5","23.3","77","0","0"],
    [11865,"2011-09-13T04:00:00","42.6","11.25","33.60","ND","ND","ND","0.2","328.5","22.4","79.8","0","0"],
    [11866,"2011-09-13T05:00:00","45.2","8.29","26.29","ND","ND","ND","0.1","276.3","21.8","80.9","0","0"],
    [11867,"2011-09-13T06:00:00","23.2","11.02","25.94","ND","ND","ND","0.2","267.6","22","80.8","0.1","0"],
    [11868,"2011-09-13T07:00:00","42.1","17.56","25.39","ND","ND","ND","0","344.9","22.3","79.1","16.9","0"],
    [11869,"2011-09-13T08:00:00","69.6","19.73","28.13","ND","ND","ND","0.3","109.3","23.1","73.7","87.3","0"],
    [11870,"2011-09-13T09:00:00","96.7","21.17","35.61","ND","ND","ND","0.3","134.2","24.7","64.6","274.3","0"],
    [11871,"2011-09-13T10:00:00","69","37.17","56.35","ND","ND","ND","1.5","110.9","26.3","59.6","409.7","0"],
    [11872,"2011-09-13T11:00:00","68.5","19.18","80.15","ND","ND","ND","1.9","114.2","26.7","58.5","555.5","0"],
    [11873,"2011-09-13T12:00:00","37.7","20.08","60.31","ND","ND","ND","1.6","111.4","27.7","56.3","483.8","0"],
    [11874,"2011-09-13T13:00:00","62.6","21.73","27.35","ND","ND","ND","1.1","78.3","29","51","805.8","0"],
    [11875,"2011-09-13T14:00:00","40.3","23.87","23.53","ND","ND","ND","1.5","106.6","30.9","46","797.9","0"],
    [11876,"2011-09-13T15:00:00","52.9","22.61","23.28","ND","ND","ND","1.1","88.8","31.4","43","478.7","0"],
    [11877,"2011-09-13T16:00:00","28.3","16.19","21.36","ND","ND","ND","1.6","0.4","31.8","42.2","393.7","0"],
    [11878,"2011-09-13T17:00:00","43.6","12.09","17.43","ND","ND","ND","1.4","317.1","31.6","43.2","247.3","0"],
    [11879,"2011-09-13T18:00:00","46","10.45","22.83","ND","ND","ND","2.6","255.6","29.7","47.2","59.7","0"],
    [11880,"2011-09-13T19:00:00","38.2","12.40","24.79","ND","ND","ND","0.7","98.2","28.6","50.2","0.4","0"],
    [11881,"2011-09-13T20:00:00","44.6","4.19","28.42","ND","ND","ND","0.2","243.6","27.9","51.3","0","0"],
    [11882,"2011-09-13T21:00:00","56","6.80","53.67","ND","ND","ND","0.8","91.2","26.9","56.8","0","0"],
    [11883,"2011-09-13T22:00:00","68.2","6.22","60.01","ND","ND","ND","1.2","150.4","25.6","63.5","0","0"],
    [11884,"2011-09-13T23:00:00","93.9","21.48","57.94","ND","ND","ND","0.1","149","24.6","68.2","0","0"],
    [11885,"2011-09-14T00:00:00","99","39.64","50.13","ND","ND","ND","0.3","145.5","23.8","72.2","0","0"],
    [11886,"2011-09-14T01:00:00","89","31.47","46.35","ND","ND","ND","0.4","140.8","23.4","74.1","0","0"],
    [11887,"2011-09-14T02:00:00","50.8","16.76","38.18","ND","ND","ND","0.1","59.2","22.7","77.6","0","0"],
    [11888,"2011-09-14T03:00:00","56.2","16.43","32.78","ND","ND","ND","0.1","279.4","22","80.5","0","0"],
    [11889,"2011-09-14T04:00:00","30.5","11.85","28.47","ND","ND","ND","0.2","272.7","22","80","0","0"],
    [11890,"2011-09-14T05:00:00","34.4","7.29","27.37","ND","ND","ND","0.5","43.7","21.9","80.4","0","0"],
    [11891,"2011-09-14T06:00:00","23","5.50","24.57","ND","ND","ND","0","71.9","21.3","83.5","0.3","0"],
    [11892,"2011-09-14T07:00:00","82.1","11.02","31.60","ND","ND","ND","0.1","333.1","21.5","82.5","43.7","0"],
    [11893,"2011-09-14T08:00:00","102.5","54.77","33.60","ND","ND","ND","0.5","82.5","23.7","71.8","204.7","0"],
    [11894,"2011-09-14T09:00:00","87","30.39","35.69","ND","ND","ND","1.9","152.9","25.3","63.1","413.6","0"],
    [11895,"2011-09-14T10:00:00","51.8","27.57","65.10","ND","ND","ND","1.9","146.9","27.1","57.2","575.2","0"],
    [11896,"2011-09-14T11:00:00","40.6","24.75","52.10","ND","ND","ND","1.5","140","28.6","52.5","681.4","0"],
    [11897,"2011-09-14T12:00:00","23.1","22.49","31.15","ND","ND","ND","1.6","111.5","29.6","49.6","761.4","0"],
    [11898,"2011-09-14T13:00:00","39.7","18.47","19.43","ND","ND","ND","0.9","95.5","31.1","43.8","818.3","0"],
    [11899,"2011-09-14T14:00:00","21.3","17.97","20.03","ND","ND","ND","1.2","84.5","32.6","37.6","768.2","0"],
    [11900,"2011-09-14T15:00:00","35.2","14.73","19.51","ND","ND","ND","1.6","89.1","33.3","35.1","573.5","0"],
    [11901,"2011-09-14T16:00:00","48","11.53","21.12","ND","ND","ND","2.2","296.6","32.4","41.5","403.3","0"],
    [11902,"2011-09-14T17:00:00","41.2","11.71","19.44","ND","ND","ND","4.3","267.1","30.7","46.1","198.9","0"],
    [11903,"2011-09-14T18:00:00","34.4","11.06","19.08","ND","ND","ND","5.6","279.6","28.5","49","12.1","0"],
    [11904,"2011-09-14T19:00:00","55.1","4.88","18.43","ND","ND","ND","5.2","277.1","27.9","49.5","0.2","0"],
    [11905,"2011-09-14T20:00:00","49.7","3.70","10.19","ND","ND","ND","1.6","273.4","27.6","49.2","0","0"],
    [11906,"2011-09-14T21:00:00","47.6","1.59","9.99","ND","ND","ND","0.5","179.4","27.2","50","0","0"],
    [11907,"2011-09-14T22:00:00","24.7","1.90","18.94","ND","ND","ND","0.9","128.8","25.9","56.3","0","0"],
    [11908,"2011-09-14T23:00:00","20.4","8.20","30.15","ND","ND","ND","0.8","280.9","25","62.2","0","0"],
    [11909,"2011-09-15T00:00:00","22.2","11.01","41.00","ND","ND","ND","0.8","48.3","24.3","65.4","0","0"],
    [11910,"2011-09-15T01:00:00","24.2","8.57","30.78","ND","ND","ND","0","86.8","23.5","70.2","0","0"],
    [11911,"2011-09-15T02:00:00","24.9","16.79","32.81","ND","ND","ND","0.3","81.7","23.4","71.3","0","0"],
    [11912,"2011-09-15T03:00:00","39.3","9.96","25.95","ND","ND","ND","0.2","288.7","22.8","73.7","0","0"],
    [11913,"2011-09-15T04:00:00","27","31.39","30.17","ND","ND","ND","0.3","128.7","23.2","71","0","0"],
    [11914,"2011-09-15T05:00:00","66.1","39.30","29.17","ND","ND","ND","0.4","27.5","22.3","75.4","0","0"],
    [11915,"2011-09-15T06:00:00","49.4","31.31","25.57","ND","ND","ND","0.2","37","21.9","77.9","0.3","0"],
    [11916,"2011-09-15T07:00:00","72","43.56","27.75","ND","ND","ND","0.1","252.1","21.9","77.6","44.5","0"],
    [11917,"2011-09-15T08:00:00","57.7","38.40","36.72","ND","ND","ND","1.2","165.6","23.8","69.3","230.7","0"],
    [11918,"2011-09-15T09:00:00","51","73.72","35.23","ND","ND","ND","1.6","122.7","24.9","66.1","355.9","0"],
    [11919,"2011-09-15T10:00:00","52.1","38.77","47.39","ND","ND","ND","1.1","122.3","26.1","61.7","490.3","0"],
    [11920,"2011-09-15T11:00:00","45.2","22.85","33.76","ND","ND","ND","0.8","54.9","27.5","56.1","653.4","0"],
    [11921,"2011-09-15T12:00:00","23.8","17.65","20.85","ND","ND","ND","0.5","92.6","29.3","50.2","773.9","0"],
    [11922,"2011-09-15T13:00:00","24","15.02","20.02","ND","ND","ND","1.6","128.5","30.7","44.7","795.7","0"],
    [11923,"2011-09-15T14:00:00","15","14.55","19.37","ND","ND","ND","1.9","81.3","31.5","41.9","641.9","0"],
    [11924,"2011-09-15T15:00:00","12.6","12.18","19.23","ND","ND","ND","1.7","53","31.4","42.6","370.3","0"],
    [11925,"2011-09-15T16:00:00","15.3","9.23","19.72","ND","ND","ND","2.3","274.8","30.1","47.2","116.9","0"],
    [11926,"2011-09-15T17:00:00","26.2","11.06","20.23","ND","ND","ND","2.4","262.6","29.5","48.1","101.4","0"],
    [11927,"2011-09-15T18:00:00","26.3","15.61","26.96","ND","ND","ND","2.1","276.9","28.5","50.1","20.6","0"],
    [11928,"2011-09-15T19:00:00","40.8","13.33","34.15","ND","ND","ND","0.3","116.5","27.8","51.4","0.2","0"],
    [11929,"2011-09-15T20:00:00","33.9","11.03","30.36","ND","ND","ND","0.4","122.1","27.3","53.1","0","0"],
    [11930,"2011-09-15T21:00:00","45.9","10.77","46.96","ND","ND","ND","1.2","103.2","26.8","54.3","0","0"],
    [11931,"2011-09-15T22:00:00","24.9","9.57","49.70","ND","ND","ND","1.4","187","26.2","55.6","0","0"],
    [11932,"2011-09-15T23:00:00","29.7","7.68","45.06","ND","ND","ND","0.9","53.1","25.4","60","0","0"],
    [11933,"2011-09-16T00:00:00","29.2","9.24","33.82","ND","ND","ND","0.7","264.6","24.1","65.3","0","0"],
    [11934,"2011-09-16T01:00:00","39.8","12.43","39.66","ND","ND","ND","0.2","19.7","23.9","66.6","0","0"],
    [11935,"2011-09-16T02:00:00","57.6","43.86","40.04","ND","ND","ND","0.3","335.9","23.4","70.5","0","0"],
    [11936,"2011-09-16T03:00:00","55.3","38.23","39.10","ND","ND","ND","0.6","51","23","74.4","0","0"],
    [11937,"2011-09-16T04:00:00","45.3","41.62","41.91","ND","ND","ND","0.9","16.6","22.6","75.4","0","0"],
    [11938,"2011-09-16T05:00:00","33","25.00","26.23","ND","ND","ND","0.1","14.8","22.5","76.7","0","0"],
    [11939,"2011-09-16T06:00:00","39.4","32.14","24.48","ND","ND","ND","1","86.2","21.4","87.2","0","28.96"],
    [11940,"2011-09-16T07:00:00","39","21.90","23.52","ND","ND","ND","1.7","234.9","18.5","99.7","4.4","84.07"],
    [11941,"2011-09-16T08:00:00","21.6","18.22","32.09","ND","ND","ND","0.4","357.1","19.6","100","52.9","1.52"],
    [11942,"2011-09-16T09:00:00","26.3","9.49","33.07","ND","ND","ND","0.4","246.2","21.2","96.7","165.4","0"],
    [11943,"2011-09-16T10:00:00","13.2","7.24","47.36","ND","ND","ND","0.1","281.5","24.7","70.8","582.6","0"],
    [11944,"2011-09-16T11:00:00","12.2","11.52","50.33","ND","ND","ND","0.7","139.6","26.5","61.9","632.5","0"],
    [11945,"2011-09-16T12:00:00","17.9","27.44","32.33","ND","ND","ND","0.9","110.4","27.5","56.7","569.8","0"],
    [11946,"2011-09-16T13:00:00","10.3","25.63","30.39","ND","ND","ND","1","119.3","28.6","53.2","557.8","0"],
    [11947,"2011-09-16T14:00:00","6.2","15.67","34.25","ND","ND","ND","1","62","29.1","52.5","541.8","0"],
    [11948,"2011-09-16T15:00:00","38.1","11.10","24.75","ND","ND","ND","1.1","353.6","29","51.9","190.9","0"],
    [11949,"2011-09-16T16:00:00","20.4","14.53","22.22","ND","ND","ND","3","250.6","26.2","65.7","61.6","0"],
    [11950,"2011-09-16T17:00:00","18.8","21.31","23.73","ND","ND","ND","0.5","239.2","26.3","63.4","66.1","0"],
    [11951,"2011-09-16T18:00:00","13.9","7.40","30.42","ND","ND","ND","0.3","218.7","26.2","60.6","23.1","0"],
    [11952,"2011-09-16T19:00:00","32.6","5.52","41.04","ND","ND","ND","0.2","190.1","25.8","60.2","0.4","0"],
    [11953,"2011-09-16T20:00:00","28","5.73","49.59","ND","ND","ND","0.1","113.9","25.3","61.7","0","0"],
    [11954,"2011-09-16T21:00:00","65.4","6.06","58.52","ND","ND","ND","0.6","97.2","25","63.3","0","0"],
    [11955,"2011-09-16T22:00:00","66.9","8.02","63.49","ND","ND","ND","0.8","157","24","68.3","0","0"],
    [11956,"2011-09-16T23:00:00","53.5","11.41","66.04","ND","ND","ND","0.4","258.6","23","72.2","0","0"],
    [11957,"2011-09-17T00:00:00","52.7","16.19","55.06","ND","ND","ND","0.5","209.3","23.1","72.5","0","0"],
    [11958,"2011-09-17T01:00:00","63.4","16.90","49.76","ND","ND","ND","1.5","151.9","23.2","71.7","0","0"],
    [11959,"2011-09-17T02:00:00","33.8","18.18","50.62","ND","ND","ND","0.8","157.2","22.4","76.7","0","0"],
    [11960,"2011-09-17T03:00:00","28.4","28.60","48.19","ND","ND","ND","0.6","145.1","22.4","76.1","0","0"],
    [11961,"2011-09-17T04:00:00","22.4","11.77","34.41","ND","ND","ND","0.6","39.2","21.7","83.2","0","0.25"],
    [11962,"2011-09-17T05:00:00","40.1","9.10","26.56","ND","ND","ND","0.7","343.1","20.5","93.7","0","2.54"],
    [11963,"2011-09-17T06:00:00","21.2","10.68","25.52","ND","ND","ND","0.1","151.9","20.6","93","0","1.78"],
    [11964,"2011-09-17T07:00:00","30.4","5.16","30.51","ND","ND","ND","0.3","245","20.7","93.2","29.5","0.25"],
    [11965,"2011-09-17T08:00:00","18.4","4.39","32.71","ND","ND","ND","0.1","268.5","21.6","87.4","81.4","0"],
    [11966,"2011-09-17T09:00:00","25.7","5.54","32.44","ND","ND","ND","0.1","171.1","22.7","83.6","162.9","0"],
    [11967,"2011-09-17T10:00:00","14.4","7.51","33.68","ND","ND","ND","0.4","110.2","23.7","78.7","221.1","0"],
    [11968,"2011-09-17T11:00:00","47","9.60","60.01","ND","ND","ND","0.8","103","24.4","74.1","262.5","0"],
    [11969,"2011-09-17T12:00:00","45.4","15.30","67.95","ND","ND","ND","0.2","193.7","26.1","66.3","710.7","0"],
    [11970,"2011-09-17T13:00:00","53.9","13.70","48.43","ND","ND","ND","1.2","83.6","28","57.1","761.5","0"],
    [11971,"2011-09-17T14:00:00","28.2","13.13","41.40","ND","ND","ND","0.6","76.7","29.3","51.9","630.6","0"],
    [11972,"2011-09-17T15:00:00","14.9","11.85","28.89","ND","ND","ND","3.4","261.3","28.9","49.7","518.4","0"],
    [11973,"2011-09-17T16:00:00","9.8","11.04","23.93","ND","ND","ND","3.2","264.1","28.7","49.6","256.7","0"],
    [11974,"2011-09-17T17:00:00","6.7","5.25","11.35","ND","ND","ND","2.8","267.8","27.8","51.4","105.6","0"],
    [11975,"2011-09-17T18:00:00","5.2","3.33","13.00","ND","ND","ND","2.8","278.8","27.2","53.1","13.8","0"],
    [11976,"2011-09-17T19:00:00","14.2","5.20","18.78","ND","ND","ND","2.6","249.8","26.4","57.2","0.2","0"],
    [11977,"2011-09-17T20:00:00","19.8","10.77","16.25","ND","ND","ND","1.9","17.7","23.4","76.1","0","0"],
    [11978,"2011-09-17T21:00:00","52.9","5.94","20.49","ND","ND","ND","0.1","340.6","23","78.3","0","0"],
    [11979,"2011-09-17T22:00:00","53.7","16.89","26.25","ND","ND","ND","0.5","138.3","23.7","72.9","0","0"],
    [11980,"2011-09-17T23:00:00","43.8","78.37","44.65","ND","ND","ND","0.8","0.7","23","75.7","0","0"],
    [11981,"2011-09-18T00:00:00","23.7","61.01","51.82","ND","ND","ND","1.5","197.1","22.8","74.9","0","0"],
    [11982,"2011-09-18T01:00:00","24.2","62.58","46.70","ND","ND","ND","0.4","301","22.8","75.6","0","0"],
    [11983,"2011-09-18T02:00:00","24.8","23.90","29.37","ND","ND","ND","0.9","0.7","22.4","81.6","0","0"],
    [11984,"2011-09-18T03:00:00","51.5","9.35","26.29","ND","ND","ND","0.6","358.2","21.8","85.4","0","0"],
    [11985,"2011-09-18T04:00:00","28.3","89.58","47.74","ND","ND","ND","0.3","40.7","21.6","87.3","0","0"],
    [11986,"2011-09-18T05:00:00","35.9","133.07","44.37","ND","ND","ND","0.4","334.1","21.5","87","0","0"],
    [11987,"2011-09-18T06:00:00","35.2","35.53","35.22","ND","ND","ND","1.4","18.4","21.4","87.8","0","0"],
    [11988,"2011-09-18T07:00:00","45.8","20.68","33.64","ND","ND","ND","0.7","45.2","21","92.2","6","0"],
    [11989,"2011-09-18T08:00:00","34","72.95","36.66","ND","ND","ND","1","51.1","21.2","87.2","124.2","0"],
    [11990,"2011-09-18T09:00:00","21.9","20.36","27.02","ND","ND","ND","1.7","42.9","22","82.8","197.5","0"],
    [11991,"2011-09-18T10:00:00","13.2","27.73","21.05","ND","ND","ND","0.9","55","23","76.4","298.8","0"],
    [11992,"2011-09-18T11:00:00","15.8","39.14","13.28","ND","ND","ND","0.9","145.3","25.2","65.9","626","0"],
    [11993,"2011-09-18T12:00:00","10.4","29.73","12.83","ND","ND","ND","1.3","107.9","26.7","59","532.2","0"],
    [11994,"2011-09-18T13:00:00","8.9","26.27","14.26","ND","ND","ND","0.7","59.6","27.3","57.4","549","0"],
    [11995,"2011-09-18T14:00:00","5.6","19.38","13.30","ND","ND","ND","1.3","115.6","28.1","53.1","376.5","0"],
    [11996,"2011-09-18T15:00:00","17.9","16.34","13.36","ND","ND","ND","2.1","42","26.7","61.1","131.2","0"],
    [11997,"2011-09-18T16:00:00","10.4","18.08","13.54","ND","ND","ND","0.6","187.2","27.2","59.3","227.8","0"],
    [11998,"2011-09-18T17:00:00","6.9","28.72","13.68","ND","ND","ND","1.2","212.7","27.8","54.3","255.1","0"],
    [11999,"2011-09-18T18:00:00","5.2","18.09","12.07","ND","ND","ND","0.7","267.4","27.6","49.2","83.4","0"],
    [12000,"2011-09-18T19:00:00","2.6","17.95","18.94","ND","ND","ND","1.8","44.2","25.6","63.2","0.7","0"],
    [12001,"2011-09-18T20:00:00","6.5","7.14","12.36","ND","ND","ND","0.3","63.1","24.7","69.9","0","0"],
    [12002,"2011-09-18T21:00:00","15.9","13.98","20.62","ND","ND","ND","0.5","15.4","24.7","65.5","0","0"],
    [12003,"2011-09-18T22:00:00","10.8","10.94","33.77","ND","ND","ND","0.5","63.1","24","68.9","0","0"],
    [12004,"2011-09-18T23:00:00","6","12.74","42.39","ND","ND","ND","0.9","51.7","23","78.9","0","0.25"],
    [12005,"2011-09-19T00:00:00","4.4","8.12","22.82","ND","ND","ND","0.5","8.7","21.4","87.6","0","1.02"],
    [12006,"2011-09-19T01:00:00","4.2","23.09","26.44","ND","ND","ND","0.4","10.4","20.9","90.3","0","0.51"],
    [12007,"2011-09-19T02:00:00","18.8","138.20","35.74","ND","ND","ND","0","85","21.1","91","0","0.51"],
    [12008,"2011-09-19T03:00:00","11.6","44.19","25.22","ND","ND","ND","0.6","61.7","20.6","92.4","0","0.25"],
    [12009,"2011-09-19T04:00:00","8","21.69","24.87","ND","ND","ND","0","54","20.4","94.2","0","0.25"],
    [12010,"2011-09-19T05:00:00","6.1","26.42","23.14","ND","ND","ND","0","69.8","20.6","94","0","0"],
    [12011,"2011-09-19T06:00:00","20.8","13.73","15.07","ND","ND","ND","0.3","36.4","20.2","95.8","0.2","0"],
    [12012,"2011-09-19T07:00:00","26.2","9.33","15.97","ND","ND","ND","0.4","55.1","20.1","96.2","15.9","0"],
    [12013,"2011-09-19T08:00:00","20.3","14.05","27.51","ND","ND","ND","0.2","48.6","20.9","92.7","106.9","0"],
    [12014,"2011-09-19T09:00:00","54.4","22.82","29.92","ND","ND","ND","1","47.3","21.9","88.2","197.2","0"],
    [12015,"2011-09-19T10:00:00","28.8","33.22","39.63","ND","ND","ND","0.1","292.6","23.1","78.5","142.4","0"],
    [12016,"2011-09-19T11:00:00","49.8","26.24","40.35","ND","ND","ND","0.9","40.4","24.6","72.5","609.6","0"],
    [12017,"2011-09-19T12:00:00","27.1","75.41","41.38","ND","ND","ND","1.7","42.2","26","66.7","756.7","0"],
    [12018,"2011-09-19T13:00:00","54.5","95.28","38.21","ND","ND","ND","2","63.8","27.3","60.7","796","0"],
    [12019,"2011-09-19T14:00:00","41.5","75.04","31.37","ND","ND","ND","1.6","56.4","28.2","58.1","626.4","0"],
    [12020,"2011-09-19T15:00:00","23.4","56.46","21.44","ND","ND","ND","0.7","3.1","28.7","56","384.6","0"],
    [12021,"2011-09-19T16:00:00","13.9","46.58","17.75","ND","ND","ND","1","25.6","28.6","55.2","184.6","0"],
    [12022,"2011-09-19T17:00:00","35.4","34.77","20.24","ND","ND","ND","1.4","272.3","27.9","55.9","71.7","0"],
    [12023,"2011-09-19T18:00:00","20","29.16","17.27","ND","ND","ND","1.3","245.2","27.2","55.9","8.3","0"],
    [12024,"2011-09-19T19:00:00","12","9.24","23.19","ND","ND","ND","2.3","243.5","25.6","63.6","0.1","1.52"],
    [12025,"2011-09-19T20:00:00","9.8","7.64","35.46","ND","ND","ND","2.7","263.3","24.7","64.7","0","0.25"],
    [12026,"2011-09-19T21:00:00","14","5.58","26.83","ND","ND","ND","0.3","310.8","24.2","70.4","0","0.25"],
    [12027,"2011-09-19T22:00:00","9.5","4.39","15.59","ND","ND","ND","0.6","121.9","24.1","70.1","0","0"],
    [12028,"2011-09-19T23:00:00","24.4","6.87","36.43","ND","ND","ND","0.2","169","23.8","73.3","0","0"],
    [12029,"2011-09-20T00:00:00","25.7","13.21","41.19","ND","ND","ND","0.4","182.4","23.4","76.2","0","0"],
    [12030,"2011-09-20T01:00:00","14.8","17.72","41.08","ND","ND","ND","0.3","9.5","23","79.7","0","0"],
    [12031,"2011-09-20T02:00:00","17.1","9.16","36.05","ND","ND","ND","0.4","38.2","22.5","83.8","0","0"],
    [12032,"2011-09-20T03:00:00","46.3","7.12","35.22","ND","ND","ND","0.3","16.3","22.1","86.7","0","0"],
    [12033,"2011-09-20T04:00:00","32.5","15.44","42.56","ND","ND","ND","0.5","1.6","20.7","95.5","0","18.8"],
    [12034,"2011-09-20T05:00:00","35.9","46.87","35.29","ND","ND","ND","0.3","266.6","20.5","96.2","0","18.29"],
    [12035,"2011-09-20T06:00:00","31.6","19.51","25.77","ND","ND","ND","0.3","177.4","20.5","98","0","0.25"],
    [12036,"2011-09-20T07:00:00","31.1","11.64","25.71","ND","ND","ND","0.1","296.5","20.8","93.5","20.9","0.25"],
    [12037,"2011-09-20T08:00:00","18","9.07","31.42","ND","ND","ND","0.1","163.2","21.8","88.5","91.7","0"],
    [12038,"2011-09-20T09:00:00","41.2","10.99","36.50","ND","ND","ND","0.2","158.3","22.7","84.9","187.3","0"],
    [12039,"2011-09-20T10:00:00","ND","16.17","46.24","ND","ND","ND","1.2","133.5","24.4","75.3","420.6","0"],
    [12040,"2011-09-20T11:00:00","16.6","17.52","67.74","ND","ND","ND","1.1","172.9","25.2","71.2","431.4","0"],
    [12041,"2011-09-20T12:00:00","30.9","304.39","41.65","ND","ND","ND","0.3","181.6","26.8","63.2","640.2","0"],
    [12042,"2011-09-20T13:00:00","27.1","15.76","26.93","ND","ND","ND","0.8","94.1","28.4","56.3","782.5","0"],
    [12043,"2011-09-20T14:00:00","16.2","12.85","23.05","ND","ND","ND","1.2","124.8","29.3","52.3","697.3","0"],
    [12044,"2011-09-20T15:00:00","27.4","9.99","23.31","ND","ND","ND","1.3","81","29.5","52.7","479.6","0"],
    [12045,"2011-09-20T16:00:00","33.2","8.43","19.81","ND","ND","ND","1.1","52.5","29.5","52.8","361.8","0"],
    [12046,"2011-09-20T17:00:00","17.8","7.10","16.79","ND","ND","ND","1.7","345.1","28.5","55.1","90.9","0"],
    [12047,"2011-09-20T18:00:00","22.5","12.88","16.41","ND","ND","ND","0.6","317.1","28.1","55.9","46.9","0"],
    [12048,"2011-09-20T19:00:00","17","29.52","27.56","ND","ND","ND","0.2","52.8","27","58.2","0.3","0"],
    [12049,"2011-09-20T20:00:00","40.9","8.44","30.68","ND","ND","ND","0.3","250.2","25.7","63.9","0","0"],
    [12050,"2011-09-20T21:00:00","21.6","6.09","42.97","ND","ND","ND","0.2","47","25.3","65.5","0","0"],
    [12051,"2011-09-20T22:00:00","73.2","10.49","58.65","ND","ND","ND","0.8","183.6","24.4","70.4","0","0"],
    [12052,"2011-09-20T23:00:00","63.6","9.34","58.87","ND","ND","ND","0.1","126.4","23.5","74.8","0","0"],
    [12053,"2011-09-21T00:00:00","54","17.00","49.27","ND","ND","ND","0.1","221.3","22.6","79.4","0","0"],
    [12054,"2011-09-21T01:00:00","31.5","32.67","38.90","ND","ND","ND","0","290.7","22.1","80.3","0","0"],
    [12055,"2011-09-21T02:00:00","30.9","18.32","35.49","ND","ND","ND","0.2","256","21.8","82.5","0","0"],
    [12056,"2011-09-21T03:00:00","16.2","10.86","29.27","ND","ND","ND","0.3","17.9","21.6","84.3","0","0"],
    [12057,"2011-09-21T04:00:00","37.2","7.80","26.72","ND","ND","ND","0.1","337.1","21.3","85.4","0","0"],
    [12058,"2011-09-21T05:00:00","24.3","10.79","27.94","ND","ND","ND","0.3","271.9","21","86.1","0","0"],
    [12059,"2011-09-21T06:00:00","27.9","12.62","24.86","ND","ND","ND","0","313.8","21.4","85.4","0.2","0"],
    [12060,"2011-09-21T07:00:00","61.3","9.19","20.80","ND","ND","ND","0.1","38.2","21.6","84.4","28.9","0"],
    [12061,"2011-09-21T08:00:00","104.6","14.45","25.36","ND","ND","ND","0.3","137.4","23","79.4","170.5","0"],
    [12062,"2011-09-21T09:00:00","112.4","29.36","32.85","ND","ND","ND","1","56.1","24.7","73.1","407.8","0"],
    [12063,"2011-09-21T10:00:00","95.9","42.46","50.75","ND","ND","ND","0.7","35.2","26.1","65.4","571.4","0"],
    [12064,"2011-09-21T11:00:00","48.6","74.14","71.25","ND","ND","ND","1.4","107.1","27.8","59.1","757.3","0"],
    [12065,"2011-09-21T12:00:00","36.6","74.90","29.49","ND","ND","ND","0.4","75.5","28.1","58.4","235.7","0"],
    [12066,"2011-09-21T13:00:00","19.2","37.57","22.97","ND","ND","ND","0.6","325.1","28.3","56.7","263.6","0"],
    [12067,"2011-09-21T14:00:00","32.2","27.76","18.78","ND","ND","ND","1.4","278.8","29.2","51","631.3","0"],
    [12068,"2011-09-21T15:00:00","17.4","25.69","21.30","ND","ND","ND","1.9","323","29.8","48","421.6","0"],
    [12069,"2011-09-21T16:00:00","9.4","9.90","9.21","ND","ND","ND","2.4","264","29.7","46.7","290","0"],
    [12070,"2011-09-21T17:00:00","8.6","5.56","12.86","ND","ND","ND","0.8","307.7","29.2","48","106.6","0"],
    [12071,"2011-09-21T18:00:00","5.7","4.22","14.10","ND","ND","ND","0.4","299.2","28.5","49.7","33.6","0"],
    [12072,"2011-09-21T19:00:00","10.3","3.98","20.75","ND","ND","ND","0.2","294.4","27.5","53.4","0.1","0"],
    [12073,"2011-09-21T20:00:00","29.2","5.02","24.84","ND","ND","ND","0.9","115.6","26.4","60.9","0","0"],
    [12074,"2011-09-21T21:00:00","40.4","6.50","41.06","ND","ND","ND","2.2","205.1","25.7","64.6","0","0"],
    [12075,"2011-09-21T22:00:00","41.4","11.40","43.99","ND","ND","ND","1.9","197.1","25.1","66.1","0","0"],
    [12076,"2011-09-21T23:00:00","21.8","12.48","33.65","ND","ND","ND","0.2","313.9","23.9","72.1","0","0"],
    [12077,"2011-09-22T00:00:00","20","6.19","33.87","ND","ND","ND","0.3","18.5","22.9","78.7","0","0"],
    [12078,"2011-09-22T01:00:00","24.5","5.67","35.31","ND","ND","ND","0.3","285.1","23","78.6","0","0"],
    [12079,"2011-09-22T02:00:00","42.6","11.97","34.87","ND","ND","ND","0.6","44.7","22.6","81","0","0"],
    [12080,"2011-09-22T03:00:00","39.4","17.02","35.70","ND","ND","ND","0.1","313.4","22","84.2","0","0"],
    [12081,"2011-09-22T04:00:00","49.8","24.69","34.94","ND","ND","ND","0.4","123.1","22.2","81.9","0","0"],
    [12082,"2011-09-22T05:00:00","27.6","26.73","27.95","ND","ND","ND","0.3","107.6","21.8","83.1","0","0"],
    [12083,"2011-09-22T06:00:00","32","26.78","26.46","ND","ND","ND","0.2","39.7","21","88.1","0.2","0"],
    [12084,"2011-09-22T07:00:00","38.9","16.13","20.33","ND","ND","ND","0.1","38.1","21.4","86.3","37.6","0"],
    [12085,"2011-09-22T08:00:00","54.9","19.21","26.72","ND","ND","ND","0.4","137.2","23.1","77.5","164","0"],
    [12086,"2011-09-22T09:00:00","38.8","26.56","28.45","ND","ND","ND","1","44.7","24.5","72.9","415.2","0"],
    [12087,"2011-09-22T10:00:00","69","38.95","43.98","ND","ND","ND","1.5","126.7","26.1","66.1","575.7","0"],
    [12088,"2011-09-22T11:00:00","36.8","43.87","38.87","ND","ND","ND","1.2","119.2","27.7","59.6","705.4","0"],
    [12089,"2011-09-22T12:00:00","35.9","36.96","30.14","ND","ND","ND","0.8","107.1","29.3","53.4","776.9","0"],
    [12090,"2011-09-22T13:00:00","30.6","26.23","21.17","ND","ND","ND","0.6","39.4","30.5","49.7","784.4","0"],
    [12091,"2011-09-22T14:00:00","52.5","19.32","17.82","ND","ND","ND","1.8","27.3","31.2","49.2","519.7","0"],
    [12092,"2011-09-22T15:00:00","28","16.90","19.34","ND","ND","ND","1.9","284.4","30.7","48.2","250.4","0"],
    [12093,"2011-09-22T16:00:00","35.2","65.34","24.43","ND","ND","ND","2.9","270.5","30.3","48.2","258.1","0"],
    [12094,"2011-09-22T17:00:00","18.2","17.68","20.76","ND","ND","ND","2.4","292.1","29.1","49.3","50.5","0"],
    [12095,"2011-09-22T18:00:00","25","13.60","17.87","ND","ND","ND","2.6","282.1","28.1","51.8","7.1","0"],
    [12096,"2011-09-22T19:00:00","21.4","8.13","14.86","ND","ND","ND","5.9","282.9","27.1","49.4","0","0"],
    [12097,"2011-09-22T20:00:00","16","5.59","14.36","ND","ND","ND","0.3","29.6","27.6","45.2","0","0"],
    [12098,"2011-09-22T21:00:00","22.4","3.09","6.82","ND","ND","ND","2.5","135.3","26.6","53.3","0","0"],
    [12099,"2011-09-22T22:00:00","28.1","3.27","18.61","ND","ND","ND","1.6","203.2","25.4","62.9","0","0"],
    [12100,"2011-09-22T23:00:00","15.6","20.23","39.04","ND","ND","ND","1.4","231.8","24.9","63.6","0","0"],
    [12101,"2011-09-23T00:00:00","8.5","6.50","29.71","ND","ND","ND","0.7","199.6","24.7","64.5","0","0"],
    [12102,"2011-09-23T01:00:00","6","4.76","21.88","ND","ND","ND","0.2","185.4","23.8","65.9","0","0"],
    [12103,"2011-09-23T02:00:00","7.4","5.58","27.46","ND","ND","ND","0.3","355.8","22.6","72.5","0","0"],
    [12104,"2011-09-23T03:00:00","20","4.31","19.65","ND","ND","ND","1.2","353.8","21.7","80","0","0"],
    [12105,"2011-09-23T04:00:00","32.5","5.62","19.58","ND","ND","ND","0.3","47.3","21.5","81","0","0"],
    [12106,"2011-09-23T05:00:00","17.2","25.27","27.01","ND","ND","ND","0.2","257.6","21.4","81.9","0","0"],
    [12107,"2011-09-23T06:00:00","12.1","40.36","25.25","ND","ND","ND","0","298.9","21.6","79.9","0.6","0"],
    [12108,"2011-09-23T07:00:00","20.2","17.72","19.48","ND","ND","ND","0.8","22.1","21.8","79.6","69","0"],
    [12109,"2011-09-23T08:00:00","50.9","32.51","28.51","ND","ND","ND","0.9","62.4","23.1","76.5","292.4","0"],
    [12110,"2011-09-23T09:00:00","34.5","64.15","36.06","ND","ND","ND","0.6","127.7","25.7","64.2","509.7","0"],
    [12111,"2011-09-23T10:00:00","57.2","108.71","38.55","ND","ND","ND","1.5","106.2","27.4","58","650","0"],
    [12112,"2011-09-23T11:00:00","29.6","75.36","35.85","ND","ND","ND","1.1","71.2","27.9","57.1","441.3","0"],
    [12113,"2011-09-23T12:00:00","30.9","33.26","34.25","ND","ND","ND","0.9","145.7","29.6","51.1","631.4","0"],
    [12114,"2011-09-23T13:00:00","25.4","16.71","22.82","ND","ND","ND","0.3","338.2","30.2","48.9","559","0"],
    [12115,"2011-09-23T14:00:00","42.6","15.52","16.86","ND","ND","ND","0.2","3.8","31.4","44.9","752","0"],
    [12116,"2011-09-23T15:00:00","29.4","14.37","19.93","ND","ND","ND","3.3","282.3","31.7","41.7","584.5","0"],
    [12117,"2011-09-23T16:00:00","16.8","8.57","17.33","ND","ND","ND","4.6","281.2","30.8","43.3","419.6","0"],
    [12118,"2011-09-23T17:00:00","10.7","3.77","8.54","ND","ND","ND","3.7","278.9","30","44.4","161.7","0"],
    [12119,"2011-09-23T18:00:00","6.5","3.25","8.83","ND","ND","ND","1.9","266.8","29.5","45.4","37.2","0"],
    [12120,"2011-09-23T19:00:00","17","2.47","11.55","ND","ND","ND","2.8","143.1","26.6","58.7","0.5","0"],
    [12121,"2011-09-23T20:00:00","30.9","2.19","14.30","ND","ND","ND","0.4","290.8","24.6","73","0","0"],
    [12122,"2011-09-23T21:00:00","23.2","7.61","37.15","ND","ND","ND","0.5","310.5","24.6","72.4","0","0"],
    [12123,"2011-09-23T22:00:00","40.9","8.58","54.64","ND","ND","ND","0.3","57.1","24.7","72.8","0","0"],
    [12124,"2011-09-23T23:00:00","41.9","8.93","55.56","ND","ND","ND","0.7","0.6","22.7","87.1","0","0"],
    [12125,"2011-09-24T00:00:00","54.6","10.43","50.80","ND","ND","ND","0.4","219.4","23.3","83.3","0","0"],
    [12126,"2011-09-24T01:00:00","50.3","9.95","34.64","ND","ND","ND","0.4","343.6","23.3","80.2","0","0"],
    [12127,"2011-09-24T02:00:00","76.4","17.38","40.62","ND","ND","ND","0.5","131.6","23.2","80.4","0","0"],
    [12128,"2011-09-24T03:00:00","40","25.18","44.56","ND","ND","ND","0.8","119.7","22.5","85.8","0","0"],
    [12129,"2011-09-24T04:00:00","57.5","36.84","43.55","ND","ND","ND","0.4","304.4","22","87.9","0","0"],
    [12130,"2011-09-24T05:00:00","49.5","25.73","31.34","ND","ND","ND","0.2","308.6","22.2","86.3","0","0"],
    [12131,"2011-09-24T06:00:00","45.1","15.18","28.17","ND","ND","ND","0.3","27.9","22","87.3","0","0"],
    [12132,"2011-09-24T07:00:00","64","15.62","30.88","ND","ND","ND","0.7","47.3","21.7","90","22.3","0"],
    [12133,"2011-09-24T08:00:00","77","27.03","31.89","ND","ND","ND","0.8","27.8","22.2","87.9","79.2","0"],
    [12134,"2011-09-24T09:00:00","82.9","44.88","31.14","ND","ND","ND","1.4","41.4","23.5","81.4","219","0"],
    [12135,"2011-09-24T10:00:00","66.7","66.35","40.31","ND","ND","ND","1.6","48.6","24.3","76.7","263.2","0"],
    [12136,"2011-09-24T11:00:00","54","182.88","44.46","ND","ND","ND","1.4","67.5","25.2","72.2","383.5","0"],
    [12137,"2011-09-24T12:00:00","35.1","135.64","30.00","ND","ND","ND","0.6","95.1","27.3","61.2","492.5","0"],
    [12138,"2011-09-24T13:00:00","18.1","146.92","29.91","ND","ND","ND","0.3","98.2","28.4","56.8","511.3","0"],
    [12139,"2011-09-24T14:00:00","25.2","48.02","17.53","ND","ND","ND","0.4","305.1","29.5","53","574.9","0"],
    [12140,"2011-09-24T15:00:00","15","54.18","19.27","ND","ND","ND","1.7","13.3","29.9","48.4","318.3","0"],
    [12141,"2011-09-24T16:00:00","8.3","45.68","15.51","ND","ND","ND","0.8","274.4","30.6","46.4","446.5","0"],
    [12142,"2011-09-24T17:00:00","5.5","27.44","12.86","ND","ND","ND","1.5","265.6","30","48.6","201.6","0"],
    [12143,"2011-09-24T18:00:00","6.1","13.03","7.70","ND","ND","ND","1.1","228.6","28.2","52.7","24.4","0"],
    [12144,"2011-09-24T19:00:00","5.1","7.18","11.21","ND","ND","ND","0.3","285.9","27.1","55.7","0.1","0"],
    [12145,"2011-09-24T20:00:00","25.4","5.94","18.59","ND","ND","ND","0.3","243.8","26.8","57.5","0","0"],
    [12146,"2011-09-24T21:00:00","14.3","5.90","32.42","ND","ND","ND","0.5","69.5","26.5","59.7","0","0"],
    [12147,"2011-09-24T22:00:00","33.5","7.27","41.42","ND","ND","ND","1","105.9","25.2","66.4","0","0"],
    [12148,"2011-09-24T23:00:00","26.5","8.78","48.93","ND","ND","ND","0.8","177.6","24.9","70.1","0","0"],
    [12149,"2011-09-25T00:00:00","34.2","14.72","41.42","ND","ND","ND","1.2","166","24.3","73.4","0","0"],
    [12150,"2011-09-25T01:00:00","19.9","11.82","37.19","ND","ND","ND","0.2","313.5","23.6","77.2","0","0"],
    [12151,"2011-09-25T02:00:00","30.6","10.82","30.84","ND","ND","ND","0","258.2","23.1","78.9","0","0"],
    [12152,"2011-09-25T03:00:00","20.1","8.57","31.01","ND","ND","ND","0","293.9","23.1","79.4","0","0"],
    [12153,"2011-09-25T04:00:00","18.9","7.50","30.30","ND","ND","ND","0.1","44.9","22.8","80.4","0","0"],
    [12154,"2011-09-25T05:00:00","35.5","10.09","30.19","ND","ND","ND","0.3","62.1","22.4","82.2","0","0"],
    [12155,"2011-09-25T06:00:00","43.4","9.51","27.69","ND","ND","ND","0","286.4","22.2","83.7","0.2","0"],
    [12156,"2011-09-25T07:00:00","44.4","11.84","25.34","ND","ND","ND","0","222","22.1","87.4","22.4","0"],
    [12157,"2011-09-25T08:00:00","34","12.35","26.20","ND","ND","ND","0.4","259.7","22.8","83.6","34.5","0"],
    [12158,"2011-09-25T09:00:00","23.6","9.91","24.53","ND","ND","ND","0.4","168.6","24.2","74.7","214.6","0"],
    [12159,"2011-09-25T10:00:00","27.8","13.95","30.50","ND","ND","ND","1.7","161.2","26","66.3","416.9","0"],
    [12160,"2011-09-25T11:00:00","15.9","12.83","28.67","ND","ND","ND","1.5","117.3","26.6","63.9","256","0"],
    [12161,"2011-09-25T12:00:00","14.3","20.44","21.55","ND","ND","ND","0.6","70.5","26.9","62.1","222.4","0"],
    [12162,"2011-09-25T13:00:00","13.9","26.95","16.05","ND","ND","ND","0.5","206.1","27.6","58.6","272.7","0"],
    [12163,"2011-09-25T14:00:00","24.7","22.39","15.77","ND","ND","ND","1.1","135.8","27.6","60.2","207.9","0"],
    [12164,"2011-09-25T15:00:00","21.2","18.05","14.91","ND","ND","ND","0.1","288.7","28.3","57.2","483.8","0"],
    [12165,"2011-09-25T16:00:00","15.6","14.57","21.14","ND","ND","ND","0.7","60","29","53.4","294.9","0"],
    [12166,"2011-09-25T17:00:00","14","12.37","17.37","ND","ND","ND","0.8","284.9","28.1","53.4","43.7","0"],
    [12167,"2011-09-25T18:00:00","10.7","9.69","10.54","ND","ND","ND","1.1","252.7","27.7","54.6","15.9","0"],
    [12168,"2011-09-25T19:00:00","6.1","12.59","12.51","ND","ND","ND","0.7","235.1","27","57.3","0","0"],
    [12169,"2011-09-25T20:00:00","12","5.70","18.58","ND","ND","ND","0.8","51.8","23.6","82.4","0.3","4.32"],
    [12170,"2011-09-25T21:00:00","14.5","3.70","20.92","ND","ND","ND","0.4","180.2","23","88","0","0"],
    [12171,"2011-09-25T22:00:00","55.5","4.22","32.23","ND","ND","ND","0.1","280.9","23.2","87","0","0"],
    [12172,"2011-09-25T23:00:00","29.2","4.66","34.71","ND","ND","ND","0.1","51.1","23","87.1","0","0"],
    [12173,"2011-09-26T00:00:00","16.1","5.21","34.97","ND","ND","ND","0.2","102.3","22.9","85.3","0","0"],
    [12174,"2011-09-26T01:00:00","9","4.81","30.03","ND","ND","ND","0.1","87.4","22.8","86","0","0"],
    [12175,"2011-09-26T02:00:00","6.8","4.94","30.40","ND","ND","ND","0.3","65.8","22.3","86.9","0","0.25"],
    [12176,"2011-09-26T03:00:00","4.9","4.18","25.33","ND","ND","ND","0.5","155.4","22.5","86.2","0","0"],
    [12177,"2011-09-26T04:00:00","3.3","4.37","20.95","ND","ND","ND","0.4","160.7","22.4","87.2","0","0"],
    [12178,"2011-09-26T05:00:00","2.8","2.29","16.32","ND","ND","ND","0.6","352.3","21.5","91.6","0","0"],
    [12179,"2011-09-26T06:00:00","3.5","0.98","14.33","ND","ND","ND","0.2","63.6","21.6","90.7","0.4","0"],
    [12180,"2011-09-26T07:00:00","22.6","2.90","16.12","ND","ND","ND","0.2","48.8","21.7","91","32.1","0"],
    [12181,"2011-09-26T08:00:00","47.1","5.13","23.23","ND","ND","ND","0.3","73.7","22.6","87.2","123.6","0"],
    [12182,"2011-09-26T09:00:00","24.3","9.17","28.21","ND","ND","ND","0.6","115.9","23.8","81.8","268.8","0"],
    [12183,"2011-09-26T10:00:00","42","16.91","41.46","ND","ND","ND","0.5","129.7","25","76","284.8","0"],
    [12184,"2011-09-26T11:00:00","58.6","24.05","47.86","ND","ND","ND","0.3","53.6","26","70.3","343.9","0"],
    [12185,"2011-09-26T12:00:00","46","43.72","43.50","ND","ND","ND","0.3","86.1","27","65.5","360.8","0"],
    [12186,"2011-09-26T13:00:00","29.7","19.68","33.33","ND","ND","ND","0.2","90.9","28","60.9","521.5","0"],
    [12187,"2011-09-26T14:00:00","51.9","13.50","27.70","ND","ND","ND","0.7","21.8","28.9","57.2","508.8","0"],
    [12188,"2011-09-26T15:00:00","58.6","11.47","26.68","ND","ND","ND","0.9","355.1","30.1","52.1","598.7","0"],
    [12189,"2011-09-26T16:00:00","33","17.06","26.86","ND","ND","ND","2.2","252.2","31","46","503.9","0"],
    [12190,"2011-09-26T17:00:00","19.1","54.64","20.25","ND","ND","ND","2","255","30.5","46.2","193.1","0"],
    [12191,"2011-09-26T18:00:00","10.9","21.24","12.53","ND","ND","ND","0.8","256.5","29","49.9","21.7","0"],
    [12192,"2011-09-26T19:00:00","6.8","10.33","18.13","ND","ND","ND","0.7","243.2","27.7","53","0.1","0"],
    [12193,"2011-09-26T20:00:00","19.6","9.81","34.49","ND","ND","ND","0.2","263.8","26.5","57.8","0","0"],
    [12194,"2011-09-26T21:00:00","32.7","8.30","44.82","ND","ND","ND","0.2","50","25.9","61.5","0","0"],
    [12195,"2011-09-26T22:00:00","77.2","10.83","56.79","ND","ND","ND","0.4","123.9","24.9","67.7","0","0"],
    [12196,"2011-09-26T23:00:00","82.3","16.61","57.71","ND","ND","ND","0.5","179","24.1","71.8","0","0"],
    [12197,"2011-09-27T00:00:00","76.5","25.31","41.46","ND","ND","ND","0.4","170.2","23.8","73.3","0","0"],
    [12198,"2011-09-27T01:00:00","44.3","24.04","35.96","ND","ND","ND","0.1","99.7","23.1","76.9","0","0"],
    [12199,"2011-09-27T02:00:00","37.5","30.75","31.74","ND","ND","ND","0.1","334.1","22.4","79.7","0","0"],
    [12200,"2011-09-27T03:00:00","42.6","24.65","28.17","ND","ND","ND","0.2","25.9","21.9","82.7","0","0"],
    [12201,"2011-09-27T04:00:00","29.8","13.41","25.29","ND","ND","ND","0.4","314","21.7","83.3","0","0"],
    [12202,"2011-09-27T05:00:00","16.1","12.39","24.08","ND","ND","ND","0.1","269.8","21.5","83.9","0","0"],
    [12203,"2011-09-27T06:00:00","35.9","12.69","23.36","ND","ND","ND","0.2","288.6","21.8","82.8","0.1","0"],
    [12204,"2011-09-27T07:00:00","43.1","12.73","22.82","ND","ND","ND","0.6","11.4","21.8","84.4","35.6","0"],
    [12205,"2011-09-27T08:00:00","87.5","14.83","24.61","ND","ND","ND","0.5","93","22.5","82.2","94.2","0"],
    [12206,"2011-09-27T09:00:00","104.6","28.74","30.31","ND","ND","ND","0.5","58.5","24.5","73.2","356.8","0"],
    [12207,"2011-09-27T10:00:00","89.2","38.30","39.34","ND","ND","ND","0.6","107.7","26.3","65.1","451.6","0"],
    [12208,"2011-09-27T11:00:00","54.5","72.16","53.95","ND","ND","ND","0.9","99.8","27.2","61.9","562.8","0"],
    [12209,"2011-09-27T12:00:00","35.8","94.29","37.57","ND","ND","ND","0.7","43.2","28.5","56.1","757.7","0"],
    [12210,"2011-09-27T13:00:00","33.9","35.60","22.70","ND","ND","ND","1.2","38.5","29.5","51.6","706.2","0"],
    [12211,"2011-09-27T14:00:00","33.7","22.64","15.56","ND","ND","ND","0.9","48.6","30.7","48","667.1","0"],
    [12212,"2011-09-27T15:00:00","17.9","20.05","16.35","ND","ND","ND","0.7","338.5","31.4","44.9","390.2","0"],
    [12213,"2011-09-27T16:00:00","40.2","25.37","15.41","ND","ND","ND","1.7","11.1","30.5","47.4","188.3","0"],
    [12214,"2011-09-27T17:00:00","43.6","29.70","19.01","ND","ND","ND","0.8","294.6","30.5","48.3","202.3","0"],
    [12215,"2011-09-27T18:00:00","23.2","21.51","18.86","ND","ND","ND","1.1","251.9","29.6","49.3","35.6","0"],
    [12216,"2011-09-27T19:00:00","13.9","17.83","17.63","ND","ND","ND","0.4","252","28.1","52.1","0.1","0"],
    [12217,"2011-09-27T20:00:00","36.9","10.25","31.04","ND","ND","ND","0.4","141.7","27.5","53.5","0","0"],
    [12218,"2011-09-27T21:00:00","45.2","8.24","45.41","ND","ND","ND","0.2","289.7","26.1","58.5","0","0"],
    [12219,"2011-09-27T22:00:00","67.5","12.10","67.07","ND","ND","ND","0.9","149.7","25.3","65.6","0","0"],
    [12220,"2011-09-27T23:00:00","64.9","12.90","63.97","ND","ND","ND","0","213.2","24.4","70.2","0","0"],
    [12221,"2011-09-28T00:00:00","61.8","24.50","50.86","ND","ND","ND","0.1","149.3","23.9","72.6","0","0"],
    [12222,"2011-09-28T01:00:00","41.6","22.84","43.31","ND","ND","ND","0.1","166.6","23.3","75.8","0","0"],
    [12223,"2011-09-28T02:00:00","44.3","15.03","39.51","ND","ND","ND","0.5","13.7","22.5","80.5","0","0"],
    [12224,"2011-09-28T03:00:00","23.7","13.95","33.80","ND","ND","ND","0.2","242.1","22.8","79.2","0","0"],
    [12225,"2011-09-28T04:00:00","46.6","13.37","26.17","ND","ND","ND","0.4","273.7","23","77.7","0","0"],
    [12226,"2011-09-28T05:00:00","27.5","20.77","25.74","ND","ND","ND","0","341.3","22.7","79.5","0","0"],
    [12227,"2011-09-28T06:00:00","38.1","15.47","27.02","ND","ND","ND","1.1","166","22.9","79.7","0.1","0"],
    [12228,"2011-09-28T07:00:00","59.1","9.05","22.67","ND","ND","ND","0.8","168.7","23.3","76.4","48.6","0"],
    [12229,"2011-09-28T08:00:00","38.8","12.22","27.21","ND","ND","ND","1.4","155.2","24.4","70.4","187.5","0"],
    [12230,"2011-09-28T09:00:00","62.7","10.80","30.54","ND","ND","ND","1.6","135.7","26.1","63.7","395.4","0"],
    [12231,"2011-09-28T10:00:00","63.8","21.88","34.99","ND","ND","ND","1.8","146.7","27.4","58.7","579.7","0"],
    [12232,"2011-09-28T11:00:00","51.4","25.86","38.52","ND","ND","ND","1.5","128.7","28.6","55.5","574.1","0"],
    [12233,"2011-09-28T12:00:00","51.9","24.40","26.44","ND","ND","ND","1.7","60.9","28.5","57.7","435.2","0"],
    [12234,"2011-09-28T13:00:00","27.5","22.11","19.02","ND","ND","ND","0.9","96.5","29.8","52.5","656","0"],
    [12235,"2011-09-28T14:00:00","22.4","18.18","18.07","ND","ND","ND","0.7","72.6","31","47.6","685.9","0"],
    [12236,"2011-09-28T15:00:00","29.1","14.70","17.20","ND","ND","ND","1.4","107.6","31.8","45.2","410.7","0"],
    [12237,"2011-09-28T16:00:00","39.5","12.27","17.07","ND","ND","ND","1.6","330","30.9","48.6","198.3","0"],
    [12238,"2011-09-28T17:00:00","29.3","13.41","19.42","ND","ND","ND","1.7","283.2","30.1","51.2","78.5","0"],
    [12239,"2011-09-28T18:00:00","43.5","23.43","22.05","ND","ND","ND","1","253.6","29.2","52.5","14.6","0"],
    [12240,"2011-09-28T19:00:00","27.1","15.84","24.28","ND","ND","ND","2.2","250.1","28","56.4","0","0"],
    [12241,"2011-09-28T20:00:00","45.6","10.59","37.27","ND","ND","ND","0.2","31","27.5","59.1","0","0"],
    [12242,"2011-09-28T21:00:00","64.4","8.48","34.74","ND","ND","ND","0.2","7.2","26.2","65.5","0","0"],
    [12243,"2011-09-28T22:00:00","68.9","14.50","47.77","ND","ND","ND","0.3","252","25.4","68.5","0","0"],
    [12244,"2011-09-28T23:00:00","53.7","21.04","48.90","ND","ND","ND","0.1","294.8","24.8","71.1","0","0"],
    [12245,"2011-09-29T00:00:00","51.8","14.04","57.56","ND","ND","ND","0.4","86.4","24.5","73.2","0","0"],
    [12246,"2011-09-29T01:00:00","43.7","10.41","48.81","ND","ND","ND","0.7","177.7","23.6","77.8","0","0"],
    [12247,"2011-09-29T02:00:00","68.2","13.51","41.62","ND","ND","ND","1","203.9","23.4","76.8","0","0"],
    [12248,"2011-09-29T03:00:00","36.4","11.86","28.17","ND","ND","ND","0.3","272.5","22.6","77.5","0","0"],
    [12249,"2011-09-29T04:00:00","19.8","9.43","21.32","ND","ND","ND","0.7","347.3","21.8","81","0","0"],
    [12250,"2011-09-29T05:00:00","25.2","4.95","14.53","ND","ND","ND","0.2","359.1","21.2","84.5","0","0"],
    [12251,"2011-09-29T06:00:00","35.9","4.24","15.23","ND","ND","ND","0.1","232.1","21.2","83.4","0.7","0"],
    [12252,"2011-09-29T07:00:00","41.5","11.33","25.81","ND","ND","ND","0.3","100","21.6","82.7","46.5","0"],
    [12253,"2011-09-29T08:00:00","77","12.36","25.43","ND","ND","ND","0.2","134.9","22.7","78.1","155.5","0"],
    [12254,"2011-09-29T09:00:00","93.8","18.17","32.26","ND","ND","ND","0.9","71.7","24.4","69.7","360.7","0"],
    [12255,"2011-09-29T10:00:00","88.4","26.67","49.40","ND","ND","ND","0.6","102.7","26.3","59.9","519.1","0"],
    [12256,"2011-09-29T11:00:00","46","26.66","63.81","ND","ND","ND","0.3","263.2","27.6","54.1","465.4","0"],
    [12257,"2011-09-29T12:00:00","36.3","31.11","34.77","ND","ND","ND","0.9","50.9","28.4","51.7","521.9","0"],
    [12258,"2011-09-29T13:00:00","38.5","15.87","20.95","ND","ND","ND","1.4","55.6","29","51.5","474.6","0"],
    [12259,"2011-09-29T14:00:00","59.2","15.03","25.54","ND","ND","ND","1.1","359.3","29","52.3","273.5","0"],
    [12260,"2011-09-29T15:00:00","31.9","17.39","24.53","ND","ND","ND","1.9","270","29","50","181.6","0"],
    [12261,"2011-09-29T16:00:00","17.3","49.95","24.07","ND","ND","ND","0.6","244.6","29.5","49.4","242.6","0"],
    [12262,"2011-09-29T17:00:00","9.2","7.18","15.66","ND","ND","ND","2.7","274","28.4","52.3","123.8","0"],
    [12263,"2011-09-29T18:00:00","11.4","5.27","16.17","ND","ND","ND","1.1","272.2","27.6","52.5","24.8","0"],
    [12264,"2011-09-29T19:00:00","12.4","3.59","15.35","ND","ND","ND","0.3","79.3","27.1","53","0","0"],
    [12265,"2011-09-29T20:00:00","34.2","3.46","22.08","ND","ND","ND","1.2","118.2","26.6","55.5","0","0"],
    [12266,"2011-09-29T21:00:00","26.3","6.48","40.45","ND","ND","ND","0.8","75.1","25.3","62.4","0","0"],
    [12267,"2011-09-29T22:00:00","59.7","8.18","44.95","ND","ND","ND","0.1","301.9","24.5","66.3","0","0"],
    [12268,"2011-09-29T23:00:00","45.5","28.02","33.32","ND","ND","ND","0.7","61.6","23.4","72.4","0","0"],
    [12269,"2011-09-30T00:00:00","37.2","30.78","41.61","ND","ND","ND","0.2","26","22.5","77.1","0","0"],
    [12270,"2011-09-30T01:00:00","19.8","22.58","30.78","ND","ND","ND","0.2","34.2","22.2","78.6","0","0"],
    [12271,"2011-09-30T02:00:00","48.1","9.73","23.06","ND","ND","ND","0.6","18.7","21","85.2","0","0"],
    [12272,"2011-09-30T03:00:00","29.8","11.37","32.57","ND","ND","ND","0.1","250.3","21.3","82.1","0","0"],
    [12273,"2011-09-30T04:00:00","63.2","13.40","26.21","ND","ND","ND","0.4","41.3","21.2","84.1","0","0"],
    [12274,"2011-09-30T05:00:00","36","38.75","30.31","ND","ND","ND","0.6","45.6","20.2","90.8","0","0"],
    [12275,"2011-09-30T06:00:00","33.5","36.79","30.06","ND","ND","ND","0.1","65.6","20","91.9","0.4","0"],
    [12276,"2011-09-30T07:00:00","36","24.99","22.56","ND","ND","ND","0.1","46.2","20.7","88.2","24.9","0"],
    [12277,"2011-09-30T08:00:00","63.2","14.98","26.88","ND","ND","ND","0.2","76","21.5","85","82.3","0"],
    [12278,"2011-09-30T09:00:00","44.8","23.62","31.10","ND","ND","ND","0.3","207.6","23.6","72.9","265.4","0"],
    [12279,"2011-09-30T10:00:00","64.1","35.75","42.74","ND","ND","ND","1.2","116.2","25.6","64","523","0"],
    [12280,"2011-09-30T11:00:00","43.6","22.05","38.14","ND","ND","ND","1.1","89","26.8","61.3","387","0"],
    [12281,"2011-09-30T12:00:00","54.7","19.51","40.13","ND","ND","ND","0.2","88.2","27.7","58.1","306.9","0"],
    [12282,"2011-09-30T13:00:00","57.5","17.45","31.76","ND","ND","ND","1.4","35.7","28.8","54.5","662","0"],
    [12283,"2011-09-30T14:00:00","62.4","16.88","23.19","ND","ND","ND","1","15.8","30.7","49.1","671.5","0"],
    [12284,"2011-09-30T15:00:00","33.7","29.13","21.40","ND","ND","ND","1.6","330.3","31.3","43.8","621.2","0"],
    [12285,"2011-09-30T16:00:00","23.4","53.86","21.79","ND","ND","ND","3.3","264","30.8","44.8","349.5","0"],
    [12286,"2011-09-30T17:00:00","14.3","16.53","12.29","ND","ND","ND","1.6","274.1","29.5","46.1","36.8","0"],
    [12287,"2011-09-30T18:00:00","12.4","4.89","12.81","ND","ND","ND","0.3","292.2","28.7","46.4","9.9","0"],
    [12288,"2011-09-30T19:00:00","12.8","6.92","23.21","ND","ND","ND","0.1","277.2","28.1","48.9","0","0"],
    [12289,"2011-09-30T20:00:00","35.7","6.12","35.09","ND","ND","ND","0.8","111.3","27.4","53.8","0","0"],
    [12290,"2011-09-30T21:00:00","42.1","6.18","39.47","ND","ND","ND","0.8","112.8","26.7","59.6","0","0"],
    [12291,"2011-09-30T22:00:00","78.5","9.54","48.32","ND","ND","ND","0.6","115.1","26.3","60.9","0","0"],
    [12292,"2011-09-30T23:00:00","85","23.79","43.81","ND","ND","ND","0.2","90.8","25.8","63.1","0","0"],
    [12293,"2011-10-01T00:00:00","82.2","23.20","44.57","ND","ND","ND","0.6","132.1","25.2","66.4","0","0"],
    [12294,"2011-10-01T01:00:00","55.8","24.73","43.78","ND","ND","ND","0.5","90.4","24.4","71.2","0","0"],
    [12295,"2011-10-01T02:00:00","37.8","23.38","39.21","ND","ND","ND","0.6","104.9","24.2","72.5","0","0"],
    [12296,"2011-10-01T03:00:00","20.3","13.85","29.87","ND","ND","ND","0.2","93.2","23.6","76.2","0","0"],
    [12297,"2011-10-01T04:00:00","35.8","9.99","28.59","ND","ND","ND","0.3","27.4","22.9","81.5","0","0.51"],
    [12298,"2011-10-01T05:00:00","19.5","8.72","24.74","ND","ND","ND","0.3","46.1","22.2","87.5","0","0.25"],
    [12299,"2011-10-01T06:00:00","16.8","8.23","26.23","ND","ND","ND","0.3","275.8","22.1","88.3","0.2","0"],
    [12300,"2011-10-01T07:00:00","9.1","6.15","25.18","ND","ND","ND","0.2","266.5","22.2","87.5","25","0"],
    [12301,"2011-10-01T08:00:00","40.4","7.09","25.67","ND","ND","ND","0.2","28.1","23.1","83.7","116.7","0"],
    [12302,"2011-10-01T09:00:00","41.9","7.71","26.65","ND","ND","ND","0.2","79.3","24.1","78","141.8","0"],
    [12303,"2011-10-01T10:00:00","55.7","11.49","40.39","ND","ND","ND","1.3","163.6","25","69.6","264.1","0"],
    [12304,"2011-10-01T11:00:00","36.3","15.46","61.38","ND","ND","ND","0.1","127.4","26.2","64.7","350.9","0"],
    [12305,"2011-10-01T12:00:00","34.4","13.36","30.05","ND","ND","ND","1.1","279","26.6","61.9","292","0"],
    [12306,"2011-10-01T13:00:00","19","11.33","29.82","ND","ND","ND","0.7","114.1","28.4","54.8","741.2","0"],
    [12307,"2011-10-01T14:00:00","36.6","8.77","32.00","ND","ND","ND","0.4","315.4","29.1","51.6","282.9","0"],
    [12308,"2011-10-01T15:00:00","20.7","9.93","22.21","ND","ND","ND","2.1","260.4","30.2","45.5","536.6","0"],
    [12309,"2011-10-01T16:00:00","11.6","8.50","22.98","ND","ND","ND","2.3","296.1","29.7","45.8","238.3","0"],
    [12310,"2011-10-01T17:00:00","7.2","3.89","13.93","ND","ND","ND","2.3","177.6","28.4","53.5","271.6","0"],
    [12311,"2011-10-01T18:00:00","22.2","2.76","9.20","ND","ND","ND","2.1","176.8","26.2","64.4","47.3","0"],
    [12312,"2011-10-01T19:00:00","15.5","4.16","34.49","ND","ND","ND","0.5","116","26.1","65.5","0.2","0"],
    [12313,"2011-10-01T20:00:00","44","5.76","55.45","ND","ND","ND","0.3","53","25","69","0","0"],
    [12314,"2011-10-01T21:00:00","24.4","6.03","71.38","ND","ND","ND","0.2","41.3","25","69.6","0","0"],
    [12315,"2011-10-01T22:00:00","42.2","6.45","32.02","ND","ND","ND","0.5","35.7","23.9","75.2","0","0"],
    [12316,"2011-10-01T23:00:00","40.6","6.21","44.32","ND","ND","ND","0.2","101.8","23.4","77.2","0","0"],
    [12317,"2011-10-02T00:00:00","34.3","12.67","34.62","ND","ND","ND","0.3","19.8","22.6","80.5","0","0"],
    [12318,"2011-10-02T01:00:00","31.4","15.57","41.74","ND","ND","ND","0.6","193.4","23.1","78.6","0","0"],
    [12319,"2011-10-02T02:00:00","30.9","14.03","33.85","ND","ND","ND","0.8","163.3","23.2","76.8","0","0"],
    [12320,"2011-10-02T03:00:00","33.9","11.07","41.82","ND","ND","ND","0.8","353.2","22.2","84","0","0"],
    [12321,"2011-10-02T04:00:00","38.3","7.79","37.35","ND","ND","ND","0.2","355.2","21.8","85.1","0","0"],
    [12322,"2011-10-02T05:00:00","37.1","7.83","26.66","ND","ND","ND","0.2","347.8","22","84.4","0","0"],
    [12323,"2011-10-02T06:00:00","40","9.16","24.26","ND","ND","ND","0.1","256.3","22.3","83.5","0.1","0"],
    [12324,"2011-10-02T07:00:00","21.5","11.63","27.83","ND","ND","ND","0.2","79","22.3","84.9","11.7","0"],
    [12325,"2011-10-02T08:00:00","46.2","11.71","30.83","ND","ND","ND","0.3","129.4","22.6","86.2","151.4","0"],
    [12326,"2011-10-02T09:00:00","24.6","9.88","29.87","ND","ND","ND","1.1","130.3","23.6","80.8","229.2","0"],
    [12327,"2011-10-02T10:00:00","46.4","11.74","29.43","ND","ND","ND","1.1","98.8","24.7","75","208.8","0"],
    [12328,"2011-10-02T11:00:00","26","11.91","26.15","ND","ND","ND","0.1","151","25.3","70.4","245.5","0"],
    [12329,"2011-10-02T12:00:00","18.6","11.30","20.83","ND","ND","ND","0.5","148.3","26.6","64.5","357.5","0"],
    [12330,"2011-10-02T13:00:00","11.2","9.56","15.26","ND","ND","ND","0.9","82.6","27.8","59.5","692","0"],
    [12331,"2011-10-02T14:00:00","7.9","9.47","14.75","ND","ND","ND","0.6","283.8","29.4","50.7","520","0"],
    [12332,"2011-10-02T15:00:00","6","7.92","14.33","ND","ND","ND","3.1","278","30.1","45","722.2","0"],
    [12333,"2011-10-02T16:00:00","5.2","6.45","12.49","ND","ND","ND","4.3","278.5","29.5","45.6","480.8","0"],
    [12334,"2011-10-02T17:00:00","4.9","1.06","4.89","ND","ND","ND","1.7","248.5","28.9","47.4","198","0"],
    [12335,"2011-10-02T18:00:00","4.2","1.35","4.16","ND","ND","ND","0.5","119.9","27.8","53.8","66.5","0"],
    [12336,"2011-10-02T19:00:00","4.7","1.96","9.43","ND","ND","ND","2.6","149.4","25.9","63.9","0","0"],
    [12337,"2011-10-02T20:00:00","10.7","4.89","17.49","ND","ND","ND","3.1","172.7","23.2","77.4","0","0"],
    [12338,"2011-10-02T21:00:00","7","7.01","27.97","ND","ND","ND","1.7","184","22.4","82.6","0","0"],
    [12339,"2011-10-02T22:00:00","4.7","2.39","25.06","ND","ND","ND","1.3","138.1","21.8","87.8","0","0"],
    [12340,"2011-10-02T23:00:00","4","2.05","32.92","ND","ND","ND","0.4","170","21.4","90.2","0","0"],
    [12341,"2011-10-03T00:00:00","3.7","2.77","36.79","ND","ND","ND","0.5","359.7","21.4","90.5","0","0"],
    [12342,"2011-10-03T01:00:00","3","1.60","36.77","ND","ND","ND","0.8","41.4","20.9","92.4","0","0"],
    [12343,"2011-10-03T02:00:00","11.8","1.96","38.02","ND","ND","ND","1","44.4","20.5","93.5","0","0"],
    [12344,"2011-10-03T03:00:00","11","4.70","29.57","ND","ND","ND","0.3","6.7","20.5","92.9","0","0"],
    [12345,"2011-10-03T04:00:00","51.8","7.66","16.95","ND","ND","ND","0.7","47.1","20.4","92.6","0","0"],
    [12346,"2011-10-03T05:00:00","52.8","7.74","17.02","ND","ND","ND","0.1","44.4","20.4","92.4","0","0"],
    [12347,"2011-10-03T06:00:00","50.8","10.29","19.27","ND","ND","ND","0","38.5","20.8","90.8","0.4","0"],
    [12348,"2011-10-03T07:00:00","41.5","18.50","22.88","ND","ND","ND","0.3","40.8","20.9","89.9","25.9","0"],
    [12349,"2011-10-03T08:00:00","64","14.63","26.88","ND","ND","ND","0.2","137","21.9","85.5","64.5","0"],
    [12350,"2011-10-03T09:00:00","72.6","17.32","34.52","ND","ND","ND","1.1","150.2","22.6","81.7","130","0"],
    [12351,"2011-10-03T10:00:00","74.8","33.40","51.99","ND","ND","ND","1","51","24.2","74.5","500.2","0"],
    [12352,"2011-10-03T11:00:00","60.9","46.04","70.14","ND","ND","ND","1.5","67.1","26","65.4","682","0"],
    [12353,"2011-10-03T12:00:00","56.9","39.17","58.68","ND","ND","ND","0.7","53.8","27.9","57.5","670.6","0"],
    [12354,"2011-10-03T13:00:00","31","43.18","27.39","ND","ND","ND","0.5","324.1","29.2","52.4","496.1","0"],
    [12355,"2011-10-03T14:00:00","29.9","24.47","20.49","ND","ND","ND","1.3","307.3","27.2","59.8","41.5","0"],
    [12356,"2011-10-03T15:00:00","18.2","17.29","18.27","ND","ND","ND","1.1","264.9","25","71.3","98","1.27"],
    [12357,"2011-10-03T16:00:00","12.3","9.20","20.77","ND","ND","ND","2.5","294.1","26","62.5","170.1","0.25"],
    [12358,"2011-10-03T17:00:00","6.8","6.36","21.66","ND","ND","ND","1.6","279.6","27.2","53.8","161","0"],
    [12359,"2011-10-03T18:00:00","4.8","5.02","17.28","ND","ND","ND","0.5","195.7","26.4","56.6","28.3","0"],
    [12360,"2011-10-03T19:00:00","4.1","3.34","13.72","ND","ND","ND","1.4","228","25.6","60","0","0"],
    [12361,"2011-10-03T20:00:00","12.9","3.15","28.37","ND","ND","ND","1.4","224.3","24.8","62.6","0","0"],
    [12362,"2011-10-03T21:00:00","10.9","4.24","34.20","ND","ND","ND","0.4","141.2","24.5","64.1","0","0"],
    [12363,"2011-10-03T22:00:00","30.6","3.27","28.41","ND","ND","ND","0.8","4.1","23.5","77.3","0","0"],
    [12364,"2011-10-03T23:00:00","24.4","2.84","27.73","ND","ND","ND","0.5","42.8","23.1","78.7","0","0"],
    [12365,"2011-10-04T00:00:00","23.7","8.18","34.34","ND","ND","ND","0","137.2","23.1","75.5","0","0"],
    [12366,"2011-10-04T01:00:00","20.7","15.67","28.56","ND","ND","ND","0.4","145.5","23","76.7","0","0"],
    [12367,"2011-10-04T02:00:00","12.6","12.73","17.04","ND","ND","ND","0.1","140.7","22.7","78.6","0","0"],
    [12368,"2011-10-04T03:00:00","24.1","8.14","21.74","ND","ND","ND","1.2","140.4","22.5","82.8","0","0"],
    [12369,"2011-10-04T04:00:00","14.4","7.61","13.28","ND","ND","ND","2.2","164.9","21.1","90","0","0"],
    [12370,"2011-10-04T05:00:00","11.7","4.81","11.86","ND","ND","ND","2.7","182.9","20.2","93.7","0","3.05"],
    [12371,"2011-10-04T06:00:00","6.9","3.17","6.71","ND","ND","ND","1.5","190","19.1","98.2","0","27.43"],
    [12372,"2011-10-04T07:00:00","5.1","2.57","6.79","ND","ND","ND","0.6","201.7","19.3","99.2","4","12.45"],
    [12373,"2011-10-04T08:00:00","3.2","2.18","10.22","ND","ND","ND","1.2","17.3","19.1","99.5","8.6","27.43"],
    [12374,"2011-10-04T09:00:00","27.9","2.13","34.97","ND","ND","ND","1.2","354.4","19.1","99.7","50.9","8.13"],
    [12375,"2011-10-04T10:00:00","14.9","3.52","32.75","ND","ND","ND","1.1","23.4","20.1","95.4","179.1","1.27"],
    [12376,"2011-10-04T11:00:00","10","35.02","39.70","ND","ND","ND","1.6","52","21.2","89.6","284.3","0.76"],
    [12377,"2011-10-04T12:00:00","13.5","23.85","24.40","ND","ND","ND","1.3","59.1","22.3","84.5","347.9","0.25"],
    [12378,"2011-10-04T13:00:00","9.2","35.29","30.53","ND","ND","ND","1.2","74.4","24.1","74.1","578","0"],
    [12379,"2011-10-04T14:00:00","11.7","134.74","40.07","ND","ND","ND","1.1","42.5","25.3","65.5","520.3","0"],
    [12380,"2011-10-04T15:00:00","7","159.81","39.01","ND","ND","ND","1.5","38.2","25.9","66.6","489.4","0"],
    [12381,"2011-10-04T16:00:00","19","79.34","22.61","ND","ND","ND","1.6","13.5","26.1","65.8","320","0"],
    [12382,"2011-10-04T17:00:00","31.3","48.92","19.26","ND","ND","ND","1.2","276.4","24.9","71.6","44.5","0"],
    [12383,"2011-10-04T18:00:00","23","42.77","22.63","ND","ND","ND","0.8","209.5","24.8","70.8","7.1","0"],
    [12384,"2011-10-04T19:00:00","12.8","22.31","29.40","ND","ND","ND","0.5","269.4","23.9","75.9","0","0"],
    [12385,"2011-10-04T20:00:00","40.9","18.74","45.50","ND","ND","ND","0.1","248.4","23.1","80.4","0","0"],
    [12386,"2011-10-04T21:00:00","42","16.14","55.38","ND","ND","ND","0.3","266.5","22.4","81.1","0","0"],
    [12387,"2011-10-04T22:00:00","42.4","16.31","43.61","ND","ND","ND","0.5","10.1","22.1","78.9","0","0"],
    [12388,"2011-10-04T23:00:00","22.5","12.61","36.76","ND","ND","ND","0.1","245.6","21.5","84.6","0","0"],
    [12389,"2011-10-05T00:00:00","64.9","8.39","32.09","ND","ND","ND","0","268","20.8","87.5","0","0"],
    [12390,"2011-10-05T01:00:00","43.2","14.39","36.95","ND","ND","ND","0","266.3","20.8","88.4","0","0"],
    [12391,"2011-10-05T02:00:00","51.5","10.13","28.30","ND","ND","ND","0.1","42.8","20.9","86.7","0","0"],
    [12392,"2011-10-05T03:00:00","26.4","7.65","25.63","ND","ND","ND","0.3","45.5","20.3","89.5","0","0"],
    [12393,"2011-10-05T04:00:00","67.1","8.61","27.01","ND","ND","ND","0.1","265.8","20.4","90.6","0","0"],
    [12394,"2011-10-05T05:00:00","37.3","17.00","29.54","ND","ND","ND","0.1","46.3","20.4","89.7","0","0"],
    [12395,"2011-10-05T06:00:00","43.6","20.74","28.58","ND","ND","ND","0.1","240.3","20.2","90.4","0.4","0"],
    [12396,"2011-10-05T07:00:00","32.6","19.80","30.32","ND","ND","ND","0.3","38.8","21","85.9","69.7","0"],
    [12397,"2011-10-05T08:00:00","88.3","13.96","26.79","ND","ND","ND","0.7","59.1","21.9","82.7","182.8","0"],
    [12398,"2011-10-05T09:00:00","87.8","21.21","32.28","ND","ND","ND","0.5","110.1","24.3","71","430","0"],
    [12399,"2011-10-05T10:00:00","63.5","51.73","56.41","ND","ND","ND","0.9","99.1","25.8","65","627.8","0"],
    [12400,"2011-10-05T11:00:00","38.3","49.52","57.96","ND","ND","ND","0.6","161.8","27","58.9","740.6","0"],
    [12401,"2011-10-05T12:00:00","32","37.30","32.65","ND","ND","ND","1.2","91","28.3","54.3","820.7","0"],
    [12402,"2011-10-05T13:00:00","16.9","24.13","22.60","ND","ND","ND","1.4","105.1","29.5","50.8","663.8","0"],
    [12403,"2011-10-05T14:00:00","23","16.22","19.50","ND","ND","ND","1.3","265.8","27.2","62","89.1","0.25"],
    [12404,"2011-10-05T15:00:00","41.8","15.55","17.44","ND","ND","ND","1.6","24.9","24.2","77.1","102.6","0"],
    [12405,"2011-10-05T16:00:00","64","11.55","23.16","ND","ND","ND","0.5","178.1","26.2","69.7","108.6","0"],
    [12406,"2011-10-05T17:00:00","51.6","15.10","41.60","ND","ND","ND","0.4","30.3","27.6","61.7","132.1","0"],
    [12407,"2011-10-05T18:00:00","69.6","13.24","49.59","ND","ND","ND","0.3","220.1","27.2","62","41","0"],
    [12408,"2011-10-05T19:00:00","62.6","12.30","56.28","ND","ND","ND","0.3","210.2","26.2","65.7","0.5","0"],
    [12409,"2011-10-05T20:00:00","59.2","12.86","52.21","ND","ND","ND","0.3","352.6","24.9","65.6","0","0"],
    [12410,"2011-10-05T21:00:00","50","17.03","51.78","ND","ND","ND","0.3","156.4","24.2","68.1","0","0"],
    [12411,"2011-10-05T22:00:00","78.3","12.54","47.03","ND","ND","ND","0.7","239.7","23.6","71.1","0","0"],
    [12412,"2011-10-05T23:00:00","53","15.99","42.29","ND","ND","ND","0.2","301.3","23.2","71.6","0","0"],
    [12413,"2011-10-06T00:00:00","48.2","21.02","41.71","ND","ND","ND","0.6","6.6","22.5","80","0","0"],
    [12414,"2011-10-06T01:00:00","51.3","9.15","35.77","ND","ND","ND","0.2","186","22.5","80.3","0","0"],
    [12415,"2011-10-06T02:00:00","54.3","17.04","31.92","ND","ND","ND","0.4","41.3","22.5","81.6","0","0"],
    [12416,"2011-10-06T03:00:00","41.4","31.00","29.14","ND","ND","ND","0.8","358.2","21.2","89.6","0","1.52"],
    [12417,"2011-10-06T04:00:00","51.2","23.28","28.56","ND","ND","ND","0.5","203","21.2","88.8","0","0"],
    [12418,"2011-10-06T05:00:00","45.4","13.66","26.74","ND","ND","ND","0.9","175","21.2","87.1","0","0.25"],
    [12419,"2011-10-06T06:00:00","56.5","26.80","25.85","ND","ND","ND","0.7","139.4","20.8","89.9","0.6","0"],
    [12420,"2011-10-06T07:00:00","40","59.91","24.66","ND","ND","ND","1.5","249.2","20.8","90.2","23.2","0"],
    [12421,"2011-10-06T08:00:00","30.1","21.42","20.72","ND","ND","ND","0.4","135.3","21.9","84.5","63.7","0"],
    [12422,"2011-10-06T09:00:00","23.5","12.55","27.40","ND","ND","ND","0.6","152.1","22.9","78.2","236.4","0"],
    [12423,"2011-10-06T10:00:00","23.8","13.76","36.17","ND","ND","ND","1.3","160.4","25.3","66.7","587.4","0"],
    [12424,"2011-10-06T11:00:00","22.1","16.08","34.90","ND","ND","ND","1.8","130.6","27.8","54.2","763.5","0"],
    [12425,"2011-10-06T12:00:00","12.4","13.89","31.86","ND","ND","ND","1.9","117.5","28.6","52.2","752.1","0"],
    [12426,"2011-10-06T13:00:00","26","11.01","20.26","ND","ND","ND","2","125.2","28","56.1","301.5","0"],
    [12427,"2011-10-06T14:00:00","20.7","10.90","17.20","ND","ND","ND","0.5","137.3","28.2","54.4","171.8","0"],
    [12428,"2011-10-06T15:00:00","12.1","7.79","14.33","ND","ND","ND","1.5","264","27.2","62.5","323.3","0"],
    [12429,"2011-10-06T16:00:00","14.7","9.87","14.86","ND","ND","ND","1.1","279.9","29.1","53.5","430.7","0"],
    [12430,"2011-10-06T17:00:00","17.2","6.88","23.18","ND","ND","ND","0.5","17.3","29.4","52.1","240.6","0"],
    [12431,"2011-10-06T18:00:00","14.2","8.51","18.14","ND","ND","ND","1.1","249.3","28.1","54.1","26.1","0"],
    [12432,"2011-10-06T19:00:00","12.2","38.26","21.35","ND","ND","ND","0.4","240.6","26.8","58.3","0","0"],
    [12433,"2011-10-06T20:00:00","23.6","7.30","29.63","ND","ND","ND","0.1","279.3","25.8","62.8","0","0"],
    [12434,"2011-10-06T21:00:00","38.7","7.46","45.13","ND","ND","ND","1","114.5","25.7","65.7","0","0"],
    [12435,"2011-10-06T22:00:00","52.2","9.01","50.16","ND","ND","ND","0.3","189.8","24.4","72.6","0","0"],
    [12436,"2011-10-06T23:00:00","52.8","15.38","45.98","ND","ND","ND","0.5","27.6","24.1","75.2","0","0"],
    [12437,"2011-10-07T00:00:00","90.1","14.39","31.28","ND","ND","ND","0.6","222.7","23.4","78.1","0","0"],
    [12438,"2011-10-07T01:00:00","86.9","18.87","34.06","ND","ND","ND","0.4","105.3","23.2","78.9","0","0"],
    [12439,"2011-10-07T02:00:00","60.5","18.57","31.04","ND","ND","ND","1","164.4","22.8","80.3","0","0"],
    [12440,"2011-10-07T03:00:00","42.7","17.56","27.63","ND","ND","ND","1","194.4","22.9","79","0","0"],
    [12441,"2011-10-07T04:00:00","30.6","13.24","25.92","ND","ND","ND","0.8","197.7","23","77.1","0","0"],
    [12442,"2011-10-07T05:00:00","17.9","8.43","21.96","ND","ND","ND","1.1","168.8","22.7","80.5","0","0"],
    [12443,"2011-10-07T06:00:00","25.8","6.40","9.46","ND","ND","ND","0.2","293.9","22.5","82.1","0.2","0"],
    [12444,"2011-10-07T07:00:00","44","10.32","12.53","ND","ND","ND","0.7","13.8","22.1","86.8","16.5","0"],
    [12445,"2011-10-07T08:00:00","51.7","9.55","20.52","ND","ND","ND","0.3","349.5","22.6","84.6","49.7","0"],
    [12446,"2011-10-07T09:00:00","58.8","15.98","24.98","ND","ND","ND","0.1","288.7","23.8","76.4","156.8","0"],
    [12447,"2011-10-07T10:00:00","69.4","39.88","31.68","ND","ND","ND","0.1","284.4","25.1","70.4","306","0"],
    [12448,"2011-10-07T11:00:00","59.6","131.06","39.96","ND","ND","ND","0.8","87.1","26.6","64.5","474.1","0"],
    [12449,"2011-10-07T12:00:00","47.6","149.23","43.46","ND","ND","ND","0.8","52.5","28.2","56.7","809.3","0"],
    [12450,"2011-10-07T13:00:00","26.3","110.86","43.21","ND","ND","ND","1.4","272.6","29.1","53.5","604.3","0"],
    [12451,"2011-10-07T14:00:00","21.9","49.51","18.35","ND","ND","ND","1.3","227.5","30.5","49.1","559.3","0"],
    [12452,"2011-10-07T15:00:00","12.6","21.06","13.02","ND","ND","ND","1.6","332.9","30.2","49.1","434.1","0"],
    [12453,"2011-10-07T16:00:00","15.8","12.21","10.67","ND","ND","ND","1.1","281.9","30.8","48.2","336.3","0"],
    [12454,"2011-10-07T17:00:00","11.8","19.55","14.13","ND","ND","ND","2.7","247.6","29.3","51.1","92.3","0"],
    [12455,"2011-10-07T18:00:00","11.9","19.54","13.30","ND","ND","ND","0.4","283.1","28.6","52.1","31.5","0"],
    [12456,"2011-10-07T19:00:00","19.5","5.54","20.22","ND","ND","ND","0.6","16.9","27.5","54.4","0.1","0"],
    [12457,"2011-10-07T20:00:00","17.8","5.10","25.20","ND","ND","ND","0.8","119.9","27","57.8","0","0"],
    [12458,"2011-10-07T21:00:00","23.3","5.67","31.47","ND","ND","ND","0.6","89.9","26.3","61.4","0","0"],
    [12459,"2011-10-07T22:00:00","38.8","7.79","33.52","ND","ND","ND","0.3","166.4","25.8","63.9","0","0"],
    [12460,"2011-10-07T23:00:00","57.1","9.06","32.58","ND","ND","ND","0","279.8","25.3","66.9","0","0"],
    [12461,"2011-10-08T00:00:00","40.7","17.63","35.10","ND","ND","ND","0.1","124.6","24.6","71.2","0","0"],
    [12462,"2011-10-08T01:00:00","34.6","24.57","32.31","ND","ND","ND","0.2","9","24.2","73.7","0","0"],
    [12463,"2011-10-08T02:00:00","34.7","18.45","27.95","ND","ND","ND","1.5","181.2","23.9","74","0","0"],
    [12464,"2011-10-08T03:00:00","20.5","25.43","26.81","ND","ND","ND","2","179.9","23.4","79.8","0","0"],
    [12465,"2011-10-08T04:00:00","14.9","12.30","21.97","ND","ND","ND","1.6","152.9","22.3","87.5","0","0"],
    [12466,"2011-10-08T05:00:00","8.4","4.62","14.17","ND","ND","ND","1.1","160","21.6","92.5","0","0"],
    [12467,"2011-10-08T06:00:00","8.3","4.22","16.40","ND","ND","ND","0.8","96.5","21.5","91.5","0.1","0"],
    [12468,"2011-10-08T07:00:00","4.8","3.37","15.10","ND","ND","ND","0.9","11","21.4","91.3","17.2","0"],
    [12469,"2011-10-08T08:00:00","8.9","3.31","19.07","ND","ND","ND","0.4","53.6","22.2","88","109.4","0"],
    [12470,"2011-10-08T09:00:00","12.6","6.98","24.50","ND","ND","ND","2.3","124.9","23.7","81.7","390.2","0"],
    [12471,"2011-10-08T10:00:00","32.1","37.59","21.13","ND","ND","ND","1.7","137.8","24","77.1","333.4","0"],
    [12472,"2011-10-08T11:00:00","16.9","58.71","29.23","ND","ND","ND","1.5","35.4","25","73.5","355.5","0"],
    [12473,"2011-10-08T12:00:00","14.7","26.49","18.25","ND","ND","ND","2.6","31.9","25.1","70.6","510.3","0"],
    [12474,"2011-10-08T13:00:00","8.9","16.30","20.91","ND","ND","ND","2.1","50.2","26.3","63.1","520.1","0"],
    [12475,"2011-10-08T14:00:00","14.8","35.61","19.71","ND","ND","ND","1.9","40.6","27.1","60.8","551.5","0"],
    [12476,"2011-10-08T15:00:00","9.1","17.86","10.49","ND","ND","ND","2.8","52.1","28","56.7","443.8","0"],
    [12477,"2011-10-08T16:00:00","6.1","30.78","12.67","ND","ND","ND","0.5","327","28.2","54.5","240.9","0"],
    [12478,"2011-10-08T17:00:00","3.8","11.26","10.45","ND","ND","ND","0.8","332","28.1","53.5","169.9","0"],
    [12479,"2011-10-08T18:00:00","2.7","18.93","12.90","ND","ND","ND","0.5","291.7","27","56.9","32","0"],
    [12480,"2011-10-08T19:00:00","1.9","12.71","9.86","ND","ND","ND","0.5","198.8","25.9","59.7","0","0"],
    [12481,"2011-10-08T20:00:00","19.2","5.89","16.85","ND","ND","ND","0.4","356.9","25.3","62.5","0","0"],
    [12482,"2011-10-08T21:00:00","19.2","5.38","28.09","ND","ND","ND","0.8","48","24.9","67.3","0","0"],
    [12483,"2011-10-08T22:00:00","32.6","5.21","26.34","ND","ND","ND","0.5","169","24.3","69.3","0","0"],
    [12484,"2011-10-08T23:00:00","18.1","15.79","31.57","ND","ND","ND","0.8","156.8","24.1","72.3","0","0"],
    [12485,"2011-10-09T00:00:00","47","13.40","25.07","ND","ND","ND","0.2","125.7","23.8","73.3","0","0"],
    [12486,"2011-10-09T01:00:00","29.4","18.76","30.16","ND","ND","ND","0.4","114.3","23.5","73.9","0","0"],
    [12487,"2011-10-09T02:00:00","21.8","11.76","30.53","ND","ND","ND","0.2","73.9","23","76.8","0","0"],
    [12488,"2011-10-09T03:00:00","13.8","12.47","29.48","ND","ND","ND","0.4","160.7","22.9","77.1","0","0"],
    [12489,"2011-10-09T04:00:00","12.8","10.38","26.82","ND","ND","ND","0.4","329.9","21.7","84.1","0","0"],
    [12490,"2011-10-09T05:00:00","8.7","13.34","26.37","ND","ND","ND","0.1","267.5","21.4","85.4","0","0"],
    [12491,"2011-10-09T06:00:00","5","11.83","26.55","ND","ND","ND","0.1","16.6","21.3","86.4","1.9","0"],
    [12492,"2011-10-09T07:00:00","13","13.20","24.26","ND","ND","ND","0.2","330.5","21.4","86.3","37.8","0"],
    [12493,"2011-10-09T08:00:00","15.4","18.02","24.37","ND","ND","ND","0.4","116.4","22.7","79.2","130.4","0"],
    [12494,"2011-10-09T09:00:00","14.8","21.09","25.10","ND","ND","ND","0.1","297.1","23.9","74.8","248.9","0"],
    [12495,"2011-10-09T10:00:00","30.9","32.11","30.66","ND","ND","ND","0.3","160.9","25.4","68.3","522.3","0"],
    [12496,"2011-10-09T11:00:00","16.4","19.47","30.27","ND","ND","ND","0.4","331.5","27.1","60","553.4","0"],
    [12497,"2011-10-09T12:00:00","13.3","17.34","20.92","ND","ND","ND","0.5","95.5","28.3","54.7","555.7","0"],
    [12498,"2011-10-09T13:00:00","8.7","15.76","18.57","ND","ND","ND","1.3","48.5","28.6","53.1","412.6","0"],
    [12499,"2011-10-09T14:00:00","7.2","10.69","16.56","ND","ND","ND","1.1","335.8","29.4","51.2","571.4","0"],
    [12500,"2011-10-09T15:00:00","6.2","10.24","11.10","ND","ND","ND","2.5","285.2","29.5","50.3","630","0"],
    [12501,"2011-10-09T16:00:00","4.7","16.84","10.21","ND","ND","ND","2.6","250.6","28.4","50.6","127.9","0"],
    [12502,"2011-10-09T17:00:00","4","13.49","6.63","ND","ND","ND","1.9","281","27.7","50.8","125","0"],
    [12503,"2011-10-09T18:00:00","3.9","1.61","9.35","ND","ND","ND","0.8","8.2","27","51.8","23.1","0"],
    [12504,"2011-10-09T19:00:00","3.5","3.11","7.68","ND","ND","ND","0.2","122.1","26.9","49.6","0.1","0"],
    [12505,"2011-10-09T20:00:00","3","2.85","9.19","ND","ND","ND","0.1","92.2","26.7","52","0","0"],
    [12506,"2011-10-09T21:00:00","3.9","2.00","16.33","ND","ND","ND","2.8","201.9","25.5","57.9","0","0"],
    [12507,"2011-10-09T22:00:00","3.8","4.83","20.09","ND","ND","ND","3.3","183.7","24.2","67.4","0","0"],
    [12508,"2011-10-09T23:00:00","3.7","2.38","14.88","ND","ND","ND","2.9","173.9","22.9","77","0","0"],
    [12509,"2011-10-10T00:00:00","5.9","1.77","11.45","ND","ND","ND","2.7","169.7","21.7","84.4","0","0.51"],
    [12510,"2011-10-10T01:00:00","4.2","2.77","13.65","ND","ND","ND","1.3","169","20.7","93.2","0","1.02"],
    [12511,"2011-10-10T02:00:00","3.6","4.75","12.99","ND","ND","ND","0.7","187.5","20.9","93.4","0","0.25"],
    [12512,"2011-10-10T03:00:00","15.1","2.87","11.35","ND","ND","ND","0.6","49.3","20.6","93.6","0","0"],
    [12513,"2011-10-10T04:00:00","19.8","2.38","12.12","ND","ND","ND","1.3","46.3","20.4","94","0","0.25"],
    [12514,"2011-10-10T05:00:00","11.2","3.79","10.57","ND","ND","ND","0.5","44.5","20.3","95.9","0","1.52"],
    [12515,"2011-10-10T06:00:00","6.6","6.03","9.88","ND","ND","ND","0.7","54.8","20.2","94.7","0","0"],
    [12516,"2011-10-10T07:00:00","4.9","4.12","11.49","ND","ND","ND","0.2","12.2","20","93.1","4.2","0"],
    [12517,"2011-10-10T08:00:00","4.7","4.61","21.35","ND","ND","ND","0.5","348.8","20.6","91.5","71.6","0.25"],
    [12518,"2011-10-10T09:00:00","4.4","8.31","22.16","ND","ND","ND","0.6","11.7","22.1","84.8","240.4","0"],
    [12519,"2011-10-10T10:00:00","38.9","127.69","29.38","ND","ND","ND","0.8","25.7","23.8","77.4","309","0"],
    [12520,"2011-10-10T11:00:00","21.1","229.81","23.05","ND","ND","ND","1.3","57","24.7","71.9","359.6","0"],
    [12521,"2011-10-10T12:00:00","12.2","259.40","32.10","ND","ND","ND","0.7","106","26.1","65.5","427","0"],
    [12522,"2011-10-10T13:00:00","7.3","88.63","16.84","ND","ND","ND","0.3","145","27","61.4","405.4","0"],
    [12523,"2011-10-10T14:00:00","3.7","28.09","11.19","ND","ND","ND","1","124.3","28","57.6","523.4","0"],
    [12524,"2011-10-10T15:00:00","12.1","14.29","15.24","ND","ND","ND","1.1","136","28.2","56.1","240.2","0"],
    [12525,"2011-10-10T16:00:00","ND","15.44","23.22","ND","ND","ND","ND","ND","ND","ND","ND","ND"],
    [12526,"2011-10-10T17:00:00","ND","ND","ND","ND","ND","ND","ND","ND","ND","ND","ND","ND"],
    [12527,"2011-10-10T18:00:00","ND","ND","ND","ND","ND","ND","ND","ND","ND","ND","ND","ND"],
    [12528,"2011-10-10T19:00:00","ND","ND","ND","ND","ND","ND","ND","ND","ND","ND","ND","ND"],
    [12529,"2011-10-10T20:00:00","ND","ND","ND","ND","ND","ND","ND","ND","ND","ND","ND","ND"],
    [12530,"2011-10-10T21:00:00","ND","ND","ND","ND","ND","ND","ND","ND","ND","ND","ND","ND"],
    [12531,"2011-10-10T22:00:00","ND","ND","ND","ND","ND","ND","ND","ND","ND","ND","ND","ND"],
    [12532,"2011-10-10T23:00:00","ND","ND","ND","ND","ND","ND","ND","ND","ND","ND","ND","ND"],
    [12533,"2011-10-11T00:00:00","ND","ND","ND","ND","ND","ND","ND","ND","ND","ND","ND","ND"],
    [12534,"2011-10-11T01:00:00","ND","ND","ND","ND","ND","ND","ND","ND","ND","ND","ND","ND"],
    [12535,"2011-10-11T02:00:00","ND","ND","ND","ND","ND","ND","ND","ND","ND","ND","ND","ND"],
    [12536,"2011-10-11T03:00:00","ND","ND","ND","ND","ND","ND","ND","ND","ND","ND","ND","ND"],
    [12537,"2011-10-11T04:00:00","ND","ND","ND","ND","ND","ND","ND","ND","ND","ND","ND","ND"],
    [12538,"2011-10-11T05:00:00","ND","ND","ND","ND","ND","ND","ND","ND","ND","ND","ND","ND"],
    [12539,"2011-10-11T06:00:00","ND","ND","ND","ND","ND","ND","ND","ND","ND","ND","ND","ND"],
    [12540,"2011-10-11T07:00:00","ND","ND","ND","ND","ND","ND","ND","ND","ND","ND","ND","ND"],
    [12541,"2011-10-11T08:00:00","ND","ND","ND","ND","ND","ND","ND","ND","ND","ND","ND","ND"],
    [12542,"2011-10-11T09:00:00","ND","ND","ND","ND","ND","ND","ND","ND","ND","ND","ND","ND"],
    [12543,"2011-10-11T10:00:00","ND","ND","ND","ND","ND","ND","ND","ND","ND","ND","ND","ND"],
    [12544,"2011-10-11T11:00:00","ND","ND","ND","ND","ND","ND","ND","ND","ND","ND","ND","ND"],
    [12545,"2011-10-11T12:00:00","ND","ND","ND","ND","ND","ND","ND","ND","ND","ND","ND","ND"],
    [12546,"2011-10-11T13:00:00","ND","ND","ND","ND","ND","ND","ND","ND","ND","ND","ND","ND"],
    [12547,"2011-10-11T14:00:00","ND","ND","ND","ND","ND","ND","ND","ND","ND","ND","ND","ND"],
    [12548,"2011-10-11T15:00:00","ND","ND","ND","ND","ND","ND","ND","ND","ND","ND","ND","ND"],
    [12549,"2011-10-11T16:00:00","ND","ND","ND","ND","ND","ND","ND","ND","ND","ND","ND","ND"],
    [12550,"2011-10-11T17:00:00","ND","ND","ND","ND","ND","ND","ND","ND","ND","ND","ND","ND"],
    [12551,"2011-10-11T18:00:00","ND","ND","ND","ND","ND","ND","ND","ND","ND","ND","ND","ND"],
    [12552,"2011-10-11T19:00:00","ND","ND","ND","ND","ND","ND","ND","ND","ND","ND","ND","ND"],
    [12553,"2011-10-11T20:00:00","ND","ND","ND","ND","ND","ND","ND","ND","ND","ND","ND","ND"],
    [12554,"2011-10-11T21:00:00","ND","ND","ND","ND","ND","ND","ND","ND","ND","ND","ND","ND"],
    [12555,"2011-10-11T22:00:00","ND","ND","ND","ND","ND","ND","ND","ND","ND","ND","ND","ND"],
    [12556,"2011-10-11T23:00:00","ND","ND","ND","ND","ND","ND","ND","ND","ND","ND","ND","ND"],
    [12557,"2011-10-12T00:00:00","ND","ND","ND","ND","ND","ND","ND","ND","ND","ND","ND","ND"],
    [12558,"2011-10-12T01:00:00","ND","ND","ND","ND","ND","ND","ND","ND","ND","ND","ND","ND"],
    [12559,"2011-10-12T02:00:00","ND","ND","ND","ND","ND","ND","ND","ND","ND","ND","ND","ND"],
    [12560,"2011-10-12T03:00:00","ND","ND","ND","ND","ND","ND","ND","ND","ND","ND","ND","ND"],
    [12561,"2011-10-12T04:00:00","ND","ND","ND","ND","ND","ND","ND","ND","ND","ND","ND","ND"],
    [12562,"2011-10-12T05:00:00","ND","ND","ND","ND","ND","ND","ND","ND","ND","ND","ND","ND"],
    [12563,"2011-10-12T06:00:00","ND","ND","ND","ND","ND","ND","ND","ND","ND","ND","ND","ND"],
    [12564,"2011-10-12T07:00:00","ND","ND","ND","ND","ND","ND","ND","ND","ND","ND","ND","ND"],
    [12565,"2011-10-12T08:00:00","ND","ND","ND","ND","ND","ND","ND","ND","ND","ND","ND","ND"],
    [12566,"2011-10-12T09:00:00","ND","ND","ND","ND","ND","ND","ND","ND","ND","ND","ND","ND"],
    [12567,"2011-10-12T10:00:00","ND","ND","ND","ND","ND","ND","ND","ND","ND","ND","ND","ND"],
    [12568,"2011-10-12T11:00:00","3.8","ND","ND","ND","ND","ND","0.5","198.4","25.8","61","316.9","0"],
    [12569,"2011-10-12T12:00:00","3.6","ND","ND","ND","ND","ND","1.3","119.1","25.6","60.9","594","0"],
    [12570,"2011-10-12T13:00:00","1.5","11.11","18.95","ND","ND","ND","1.3","94","26.7","60.6","742.9","0"],
    [12571,"2011-10-12T14:00:00","7.4","6.14","15.63","ND","ND","ND","0.8","120","27.6","56.7","536","0"],
    [12572,"2011-10-12T15:00:00","14","7.22","23.96","ND","ND","ND","1.3","122","27.6","58.7","385.8","0"],
    [12573,"2011-10-12T16:00:00","12.9","7.96","18.79","ND","ND","ND","1","101.1","27.5","60","188","0"],
    [12574,"2011-10-12T17:00:00","8.3","7.29","16.83","ND","ND","ND","0.5","45.1","27.6","58","167.4","0"],
    [12575,"2011-10-12T18:00:00","6.3","11.00","20.10","ND","ND","ND","0.6","272","26.4","54.7","27.9","0"],
    [12576,"2011-10-12T19:00:00","4.8","9.27","27.55","ND","ND","ND","0.7","165.9","26.1","54.6","0","0"],
    [12577,"2011-10-12T20:00:00","15.7","3.45","22.65","ND","ND","ND","0.2","231.4","24.9","60.6","0","0"],
    [12578,"2011-10-12T21:00:00","20.3","5.26","37.92","ND","ND","ND","0.7","143.1","24.8","62.7","0","0"],
    [12579,"2011-10-12T22:00:00","50.8","6.62","40.15","ND","ND","ND","0.3","261.9","24.2","67","0","0"],
    [12580,"2011-10-12T23:00:00","38.8","14.01","39.73","ND","ND","ND","0.3","121.7","24.1","67","0","0"],
    [12581,"2011-10-13T00:00:00","49.8","23.75","33.46","ND","ND","ND","0.2","208.9","23.8","68.7","0","0"],
    [12582,"2011-10-13T01:00:00","45.8","20.93","32.68","ND","ND","ND","0.4","136.1","23.5","71","0","0"],
    [12583,"2011-10-13T02:00:00","32.5","16.53","31.93","ND","ND","ND","1.7","154.3","22.7","76.6","0","0"],
    [12584,"2011-10-13T03:00:00","30.5","20.38","29.44","ND","ND","ND","0.6","170.4","22.3","79.1","0","0"],
    [12585,"2011-10-13T04:00:00","16","12.52","17.49","ND","ND","ND","0.8","207.1","21.7","86.6","0","0.25"],
    [12586,"2011-10-13T05:00:00","11.2","8.14","13.84","ND","ND","ND","0.1","95.4","21.5","87.9","0","0"],
    [12587,"2011-10-13T06:00:00","13.9","4.66","14.74","ND","ND","ND","0.4","26.4","21.1","88.9","0.4","0"],
    [12588,"2011-10-13T07:00:00","12.6","4.09","15.20","ND","ND","ND","0.4","37.1","21.3","87.9","53.6","0"],
    [12589,"2011-10-13T08:00:00","58","9.60","19.77","ND","ND","ND","0.3","353.8","22.5","83.1","176.1","0"],
    [12590,"2011-10-13T09:00:00","35.4","36.51","23.79","ND","ND","ND","0.7","60.1","24.1","72.9","354","0"],
    [12591,"2011-10-13T10:00:00","35.4","42.27","29.37","ND","ND","ND","0.7","118.7","25.6","63.2","554.5","0"],
    [12592,"2011-10-13T11:00:00","20.3","53.30","20.63","ND","ND","ND","1.2","62.5","26.8","57.3","623.5","0"],
    [12593,"2011-10-13T12:00:00","24.9","42.02","21.45","ND","ND","ND","0.9","66.9","28.1","53.6","607.6","0"],
    [12594,"2011-10-13T13:00:00","16.1","47.10","17.85","ND","ND","ND","0.4","344.3","27.9","54.5","258.9","0"],
    [12595,"2011-10-13T14:00:00","16","40.88","14.43","ND","ND","ND","0.2","353.8","28.7","52.5","468.7","0"],
    [12596,"2011-10-13T15:00:00","10.5","29.42","16.44","ND","ND","ND","1","318.8","28.5","53.7","305.5","0"],
    [12597,"2011-10-13T16:00:00","23.1","46.63","19.28","ND","ND","ND","2.3","276.4","29.7","48.7","483.4","0"],
    [12598,"2011-10-13T17:00:00","13.6","63.21","26.25","ND","ND","ND","3.5","278.7","28.2","49.2","191.2","0"],
    [12599,"2011-10-13T18:00:00","8.4","30.22","11.75","ND","ND","ND","3.2","280.9","26.8","53.2","14.7","0"],
    [12600,"2011-10-13T19:00:00","6.1","3.74","7.73","ND","ND","ND","5.5","296.4","25.2","58.9","0","0"],
    [12601,"2011-10-13T20:00:00","14","2.44","9.10","ND","ND","ND","1.5","94","25.1","62","0","0"],
    [12602,"2011-10-13T21:00:00","8.9","2.41","6.41","ND","ND","ND","1","105.7","23.7","70.9","0","0"],
    [12603,"2011-10-13T22:00:00","24.8","3.55","20.91","ND","ND","ND","0.5","207.7","23.7","70.7","0","0"],
    [12604,"2011-10-13T23:00:00","28.1","24.37","29.31","ND","ND","ND","1.1","212.6","23.6","71.7","0","0"],
    [12605,"2011-10-14T00:00:00","19.5","29.97","32.66","ND","ND","ND","1.2","162.6","23","74.6","0","0"],
    [12606,"2011-10-14T01:00:00","11.9","20.59","31.09","ND","ND","ND","0.5","350.1","22.5","78","0","0"],
    [12607,"2011-10-14T02:00:00","14.6","9.61","24.88","ND","ND","ND","1.1","24.8","21.6","81.7","0","0"],
    [12608,"2011-10-14T03:00:00","8.7","8.00","24.28","ND","ND","ND","0.2","267.9","21.4","81.9","0","0"],
    [12609,"2011-10-14T04:00:00","14.2","23.87","22.03","ND","ND","ND","0","264.8","20.8","84.4","0","0"],
    [12610,"2011-10-14T05:00:00","9.3","18.16","18.72","ND","ND","ND","0.1","321.9","20.6","83.2","0","0"],
    [12611,"2011-10-14T06:00:00","7.3","12.91","16.46","ND","ND","ND","0.2","219.1","20.7","84.1","0.7","0"],
    [12612,"2011-10-14T07:00:00","8.8","17.17","17.26","ND","ND","ND","0.4","248.6","21.5","80.4","44.6","0"],
    [12613,"2011-10-14T08:00:00","53.4","17.45","17.57","ND","ND","ND","1.2","71.4","21.7","82.1","116.5","0"],
    [12614,"2011-10-14T09:00:00","49.6","34.23","22.44","ND","ND","ND","1.4","31.7","22.5","78.9","238","0"],
    [12615,"2011-10-14T10:00:00","50.4","50.72","35.50","ND","ND","ND","1.5","21.6","23.6","73","360.5","0"],
    [12616,"2011-10-14T11:00:00","37.4","35.62","24.56","ND","ND","ND","0.9","56.9","24.9","68.3","347.1","0"],
    [12617,"2011-10-14T12:00:00","32.2","274.67","28.69","ND","ND","ND","0.8","3.7","24","76.2","186.3","1.02"],
    [12618,"2011-10-14T13:00:00","22.8","163.35","30.43","ND","ND","ND","0.4","48.8","23.9","76.4","301.5","0"],
    [12619,"2011-10-14T14:00:00","35.1","110.04","31.43","ND","ND","ND","0.2","0.1","24.2","76","147.2","0.25"],
    [12620,"2011-10-14T15:00:00","18.6","93.45","30.54","ND","ND","ND","0.7","157.1","23.1","84.3","76.6","0.51"],
    [12621,"2011-10-14T16:00:00","26.7","63.45","41.34","ND","ND","ND","1.1","132.3","23","85.1","65.3","0"],
    [12622,"2011-10-14T17:00:00","29.6","29.12","59.88","ND","ND","ND","1.6","174.7","22","91.4","12.5","3.05"],
    [12623,"2011-10-14T18:00:00","20.3","25.94","56.53","ND","ND","ND","0.5","117","21.3","94.6","2.3","6.86"],
    [12624,"2011-10-14T19:00:00","12.4","11.41","43.25","ND","ND","ND","0.1","73.6","20.8","91.9","0","1.52"],
    [12625,"2011-10-14T20:00:00","11.7","10.54","48.02","ND","ND","ND","0.2","16.6","20.7","93.6","0","0"],
    [12626,"2011-10-14T21:00:00","6.7","13.51","37.70","ND","ND","ND","0.6","202","20.9","93.4","0","0.25"],
    [12627,"2011-10-14T22:00:00","21.1","12.84","33.92","ND","ND","ND","0.9","210.2","20.8","91.2","0","0"],
    [12628,"2011-10-14T23:00:00","20.8","21.18","35.50","ND","ND","ND","0.6","321.6","20.3","92.3","0","0"],
    [12629,"2011-10-15T00:00:00","21.6","20.35","31.37","ND","ND","ND","0.1","242.3","20.3","92.8","0","0"],
    [12630,"2011-10-15T01:00:00","12.6","16.04","27.12","ND","ND","ND","0.2","175","20.5","92.1","0","0"],
    [12631,"2011-10-15T02:00:00","23.2","15.54","23.47","ND","ND","ND","0.3","194.1","20.4","92.3","0","0"],
    [12632,"2011-10-15T03:00:00","13.1","13.93","22.36","ND","ND","ND","0.5","28.6","20.2","92.6","0","0.51"],
    [12633,"2011-10-15T04:00:00","17.1","8.48","21.00","ND","ND","ND","0.6","41.7","19.9","95.3","0","0.76"],
    [12634,"2011-10-15T05:00:00","11.4","6.93","20.75","ND","ND","ND","0.1","159.1","19.7","97","0","0.76"],
    [12635,"2011-10-15T06:00:00","12.4","5.20","17.61","ND","ND","ND","0.3","40.5","19.8","96.3","0.1","0"],
    [12636,"2011-10-15T07:00:00","7.8","5.82","16.64","ND","ND","ND","0.2","82.7","19.8","95.7","14.3","0.25"],
    [12637,"2011-10-15T08:00:00","23.8","9.40","17.58","ND","ND","ND","0","214.2","20.5","91.8","95.2","0"],
    [12638,"2011-10-15T09:00:00","12.7","38.66","24.65","ND","ND","ND","0.6","164.2","21.7","84.5","191.6","0"],
    [12639,"2011-10-15T10:00:00","19","58.77","32.86","ND","ND","ND","0.7","136.5","23.2","76.6","372","0"],
    [12640,"2011-10-15T11:00:00","30.3","52.69","40.44","ND","ND","ND","0.6","97.9","24.3","71","471.4","0"],
    [12641,"2011-10-15T12:00:00","24","38.69","40.70","ND","ND","ND","0.5","349.4","25.3","66.5","312.3","0"],
    [12642,"2011-10-15T13:00:00","14.4","48.55","39.78","ND","ND","ND","1.2","305.5","25.6","65","330.1","0"],
    [12643,"2011-10-15T14:00:00","45.4","88.45","34.99","ND","ND","ND","1.6","313.7","24.6","71.8","190.8","9.14"],
    [12644,"2011-10-15T15:00:00","24.3","185.32","35.79","ND","ND","ND","0.2","192","23.2","80.6","261","2.03"],
    [12645,"2011-10-15T16:00:00","14.3","85.82","23.96","ND","ND","ND","0.8","217","25.4","67.4","201.8","0"],
    [12646,"2011-10-15T17:00:00","9.4","12.38","16.50","ND","ND","ND","0.9","155.5","25.6","64.2","91.3","0"],
    [12647,"2011-10-15T18:00:00","6.1","7.17","19.33","ND","ND","ND","1.4","165.8","24.9","63.8","11.8","0"],
    [12648,"2011-10-15T19:00:00","9.6","5.13","19.09","ND","ND","ND","1.9","317.5","23.2","70.5","0","0"],
    [12649,"2011-10-15T20:00:00","18.9","4.87","23.49","ND","ND","ND","0.9","355.3","21.5","80.3","0","1.27"],
    [12650,"2011-10-15T21:00:00","10.9","5.02","15.91","ND","ND","ND","0.7","342.5","20.1","90.5","0","3.81"],
    [12651,"2011-10-15T22:00:00","17.8","4.38","15.26","ND","ND","ND","0.3","356.7","19.9","92.1","0","0.76"],
    [12652,"2011-10-15T23:00:00","10.6","4.46","17.72","ND","ND","ND","0.3","7.6","19.6","94.9","0","2.54"],
    [12653,"2011-10-16T00:00:00","7.5","46.88","22.54","ND","ND","ND","1","49.2","19.5","97.1","0","4.32"],
    [12654,"2011-10-16T01:00:00","5.2","56.71","22.07","ND","ND","ND","1.2","56.6","19.4","97.6","0","3.05"],
    [12655,"2011-10-16T02:00:00","3.1","18.02","9.83","ND","ND","ND","1","49.2","19.1","98.3","0","5.84"],
    [12656,"2011-10-16T03:00:00","2.5","9.40","11.22","ND","ND","ND","0.8","65.3","19.2","98.5","0","1.27"],
    [12657,"2011-10-16T04:00:00","3.7","6.45","8.38","ND","ND","ND","1.6","43.8","19.1","98.6","0","9.14"],
    [12658,"2011-10-16T05:00:00","3.8","6.14","9.23","ND","ND","ND","1.3","43","18.8","99.5","0","18.03"],
    [12659,"2011-10-16T06:00:00","2.6","6.82","8.50","ND","ND","ND","0.7","36.8","18.6","99.8","0.1","1.27"],
    [12660,"2011-10-16T07:00:00","1.3","15.61","9.18","ND","ND","ND","0.4","91.8","18.9","99.5","6.9","0.51"],
    [12661,"2011-10-16T08:00:00","0.7","13.35","9.35","ND","ND","ND","0.5","120.9","19.2","98","61.9","0.76"],
    [12662,"2011-10-16T09:00:00","1.8","27.54","19.65","ND","ND","ND","0.6","145.6","20.1","92.4","148.4","0"],
    [12663,"2011-10-16T10:00:00","2.5","22.01","17.78","ND","ND","ND","0.8","182.6","21.4","84.7","301.9","0"],
    [12664,"2011-10-16T11:00:00","3.1","38.96","17.45","ND","ND","ND","2","179.8","22.7","78.2","395.4","0"],
    [12665,"2011-10-16T12:00:00","10.5","32.84","21.25","ND","ND","ND","2.5","153.3","23.8","71.9","332.3","0"],
    [12666,"2011-10-16T13:00:00","7.2","18.50","21.76","ND","ND","ND","1.9","241.5","21.7","86.4","95.9","6.86"],
    [12667,"2011-10-16T14:00:00","5.6","8.37","13.91","ND","ND","ND","0.9","227.9","21.7","87.4","133.3","0.51"],
    [12668,"2011-10-16T15:00:00","10.6","4.92","18.25","ND","ND","ND","0.1","315.4","22.2","84.1","58.7","1.27"],
    [12669,"2011-10-16T16:00:00","5.3","4.36","22.89","ND","ND","ND","1.1","27.2","22","86.8","120.9","0.25"],
    [12670,"2011-10-16T17:00:00","3.2","3.50","27.13","ND","ND","ND","1.1","48.6","22","88.7","76.2","0"],
    [12671,"2011-10-16T18:00:00","7.4","4.41","21.05","ND","ND","ND","1.2","50.5","21.5","89.7","7.5","0"],
    [12672,"2011-10-16T19:00:00","6.3","8.29","13.53","ND","ND","ND","0.8","59","20.8","87.5","0","0"],
    [12673,"2011-10-16T20:00:00","9.6","6.48","18.48","ND","ND","ND","0","50","20.5","88.7","0","0"],
    [12674,"2011-10-16T21:00:00","7.1","4.36","17.23","ND","ND","ND","0.1","240.6","20.6","90.4","0","0"],
    [12675,"2011-10-16T22:00:00","11.8","6.27","25.42","ND","ND","ND","0.2","264.7","20.5","91.1","0","0"],
    [12676,"2011-10-16T23:00:00","7.2","7.46","26.56","ND","ND","ND","0.1","250.8","20.2","93","0","0"],
    [12677,"2011-10-17T00:00:00","30.8","6.70","20.90","ND","ND","ND","0.3","344.7","20.1","91.8","0","0"],
    [12678,"2011-10-17T01:00:00","16","6.39","15.23","ND","ND","ND","0.2","277","20","93.6","0","0"],
    [12679,"2011-10-17T02:00:00","9.2","5.64","16.54","ND","ND","ND","0.1","294.4","20","92.6","0","0"],
    [12680,"2011-10-17T03:00:00","6.9","10.51","18.07","ND","ND","ND","0.1","278.7","20","92.3","0","0"],
    [12681,"2011-10-17T04:00:00","10.6","9.27","18.33","ND","ND","ND","0.7","48.4","19.8","93.6","0","0"],
    [12682,"2011-10-17T05:00:00","6.5","9.09","16.69","ND","ND","ND","0.1","144.8","19.2","94.9","0","0.25"],
    [12683,"2011-10-17T06:00:00","5.2","9.04","16.01","ND","ND","ND","0.1","52.3","19.2","94.3","0.1","0.51"],
    [12684,"2011-10-17T07:00:00","4.3","9.71","14.46","ND","ND","ND","1.1","44.5","18.9","95.8","18.5","0.76"],
    [12685,"2011-10-17T08:00:00","12.1","9.45","12.29","ND","ND","ND","1.4","45.8","19.1","94.5","89.9","0"],
    [12686,"2011-10-17T09:00:00","6.8","5.83","12.42","ND","ND","ND","0.3","44.4","20","89.7","99.4","0"],
    [12687,"2011-10-17T10:00:00","4.5","18.55","9.85","ND","ND","ND","0.2","273.4","20.8","86.3","122","0"],
    [12688,"2011-10-17T11:00:00","3","9.40","7.13","ND","ND","ND","1.1","164.5","20.4","89","81.2","0"],
    [12689,"2011-10-17T12:00:00","2.5","10.47","11.87","ND","ND","ND","2","190.4","20.4","86.9","170.2","0"],
    [12690,"2011-10-17T13:00:00","2.7","10.24","14.59","ND","ND","ND","1.7","179.9","21.5","81.3","308.2","0"],
    [12691,"2011-10-17T14:00:00","1.4","10.15","13.44","ND","ND","ND","1.3","184.3","23.2","71.9","382.6","0"],
    [12692,"2011-10-17T15:00:00","3.2","13.13","15.37","ND","ND","ND","0.6","43.2","23.6","69.9","182.9","0"],
    [12693,"2011-10-17T16:00:00","3.6","8.87","15.03","ND","ND","ND","1.5","102.8","23.1","76.8","86.6","0"],
    [12694,"2011-10-17T17:00:00","2.8","4.53","12.37","ND","ND","ND","0.7","93.2","22.2","81.1","20.3","0"],
    [12695,"2011-10-17T18:00:00","18.6","5.45","21.31","ND","ND","ND","0.6","117.1","20.9","88.4","2","1.27"],
    [12696,"2011-10-17T19:00:00","11.1","4.60","21.10","ND","ND","ND","1.1","195.4","20.3","90.5","0","0"],
    [12697,"2011-10-17T20:00:00","6.4","4.85","24.75","ND","ND","ND","1.6","166.5","19.9","90.2","0","0.25"],
    [12698,"2011-10-17T21:00:00","4.3","7.80","37.25","ND","ND","ND","2.3","169.2","19","93.1","0","0.25"],
    [12699,"2011-10-17T22:00:00","2.7","9.99","32.33","ND","ND","ND","1.2","167.1","18.2","90.4","0","0.51"],
    [12700,"2011-10-17T23:00:00","4.2","4.30","29.06","ND","ND","ND","0.3","216","17.9","88.7","0","1.02"],
    [12701,"2011-10-18T00:00:00","3","2.38","27.21","ND","ND","ND","0.5","42.8","17.7","92.7","0","0.25"],
    [12702,"2011-10-18T01:00:00","3.4","1.23","20.63","ND","ND","ND","1.1","352","17.5","95.6","0","0.51"],
    [12703,"2011-10-18T02:00:00","24.1","1.86","16.08","ND","ND","ND","1.1","353.9","17.3","94.9","0","1.52"],
    [12704,"2011-10-18T03:00:00","13.2","2.91","12.57","ND","ND","ND","0.5","9.5","17.1","95.2","0","1.02"],
    [12705,"2011-10-18T04:00:00","7.6","19.31","19.97","ND","ND","ND","0.5","22.2","16.8","93.3","0","0.25"],
    [12706,"2011-10-18T05:00:00","6.3","49.97","24.21","ND","ND","ND","0.7","52.9","16.2","94.2","0","0.51"],
    [12707,"2011-10-18T06:00:00","9.9","73.13","23.25","ND","ND","ND","0.3","52.4","16.3","93.7","0.1","0"],
    [12708,"2011-10-18T07:00:00","20.8","29.71","17.41","ND","ND","ND","0.5","60.8","16.5","88.2","15.1","0.25"],
    [12709,"2011-10-18T08:00:00","21.5","40.55","36.19","ND","ND","ND","0.3","86.2","16.9","84.5","75.2","0"],
    [12710,"2011-10-18T09:00:00","18.9","49.02","38.04","ND","ND","ND","0.4","133.7","18.7","77.9","281.6","0"],
    [12711,"2011-10-18T10:00:00","36.7","109.24","43.80","ND","ND","ND","1.2","62.8","19.6","76.2","338.4","0"],
    [12712,"2011-10-18T11:00:00","44.6","100.26","68.39","ND","ND","ND","1.2","54.8","20","73.1","354.6","0"],
    [12713,"2011-10-18T12:00:00","48.8","74.69","62.76","ND","ND","ND","0.2","70","22.5","65.7","601.7","0"],
    [12714,"2011-10-18T13:00:00","28.5","76.57","40.23","ND","ND","ND","0.4","121.6","23.9","58.9","533.2","0"],
    [12715,"2011-10-18T14:00:00","25.4","123.51","38.81","ND","ND","ND","1.5","48.8","24.6","58.4","611.4","0"],
    [12716,"2011-10-18T15:00:00","25.6","75.34","40.01","ND","ND","ND","1.2","56.9","24.5","60.6","258.8","0"],
    [12717,"2011-10-18T16:00:00","32.6","28.54","20.38","ND","ND","ND","0.7","95.2","24.7","59.7","144.2","0.25"],
    [12718,"2011-10-18T17:00:00","34.3","23.48","19.98","ND","ND","ND","0.1","63","24.6","60","70.9","0"],
    [12719,"2011-10-18T18:00:00","32.6","32.55","26.61","ND","ND","ND","0.9","54.6","23.9","63.4","7.9","0"],
    [12720,"2011-10-18T19:00:00","17.4","45.11","35.62","ND","ND","ND","0.5","236.7","23.3","65.4","0.1","0"],
    [12721,"2011-10-18T20:00:00","33.7","22.82","28.99","ND","ND","ND","0","264.7","22.2","74.2","0","0"],
    [12722,"2011-10-18T21:00:00","23.3","10.49","30.90","ND","ND","ND","0.2","30.1","21.8","77.5","0","0"],
    [12723,"2011-10-18T22:00:00","59.6","13.79","35.03","ND","ND","ND","0.7","341.7","21.4","79.8","0","0"],
    [12724,"2011-10-18T23:00:00","38.8","14.16","42.91","ND","ND","ND","0.1","283.7","21.2","80.5","0","0"],
    [12725,"2011-10-19T00:00:00","62.6","20.20","37.62","ND","ND","ND","0","247.2","20.6","84.6","0","0"],
    [12726,"2011-10-19T01:00:00","42.2","19.75","34.83","ND","ND","ND","0.1","46.4","20.4","85.1","0","0"],
    [12727,"2011-10-19T02:00:00","53.8","11.25","31.73","ND","ND","ND","0","59.3","20.2","85.3","0","0"],
    [12728,"2011-10-19T03:00:00","29","9.82","29.80","ND","ND","ND","0","263.8","20","87.8","0","0"],
    [12729,"2011-10-19T04:00:00","45.3","16.20","26.18","ND","ND","ND","0","0","20.2","85.3","0","0"],
    [12730,"2011-10-19T05:00:00","31.8","11.96","22.89","ND","ND","ND","0.1","163.8","19.9","87.5","0","0"],
    [12731,"2011-10-19T06:00:00","41.7","14.45","23.16","ND","ND","ND","0.2","333.3","19.1","90.8","0.6","0"],
    [12732,"2011-10-19T07:00:00","63.5","9.68","19.40","ND","ND","ND","0.1","29.4","19.6","88.8","65","0"],
    [12733,"2011-10-19T08:00:00","63","8.23","19.62","ND","ND","ND","0.2","171","20.8","81.6","123.8","0"],
    [12734,"2011-10-19T09:00:00","45.9","21.31","26.15","ND","ND","ND","0.8","163.6","21.8","71.9","227.1","0"],
    [12735,"2011-10-19T10:00:00","54.7","29.94","32.70","ND","ND","ND","0.3","123.8","23","70.6","369.9","0"],
    [12736,"2011-10-19T11:00:00","35","15.67","44.96","ND","ND","ND","1","155.7","24.6","63.7","595.3","0"],
    [12737,"2011-10-19T12:00:00","51.8","13.08","72.62","ND","ND","ND","1.1","119.4","26","58.2","768.4","0"],
    [12738,"2011-10-19T13:00:00","26.5","15.22","38.91","ND","ND","ND","0.9","69.3","26.6","56.7","586","0"],
    [12739,"2011-10-19T14:00:00","41.7","16.44","24.77","ND","ND","ND","1.1","344","27.7","50.9","743.2","0"],
    [12740,"2011-10-19T15:00:00","21.8","21.60","20.94","ND","ND","ND","2.7","285.6","29.1","40.5","671.9","0"],
    [12741,"2011-10-19T16:00:00","20.8","23.88","17.36","ND","ND","ND","4.5","282.1","28","40.8","427.4","0"],
    [12742,"2011-10-19T17:00:00","11.7","3.71","7.10","ND","ND","ND","2.1","276.8","27.5","41.9","139.5","0"],
    [12743,"2011-10-19T18:00:00","7","1.74","6.31","ND","ND","ND","1.8","281.2","26.3","44.7","22.8","0"],
    [12744,"2011-10-19T19:00:00","5.2","2.45","13.24","ND","ND","ND","1.3","274.6","25.5","47","0.1","0"],
    [12745,"2011-10-19T20:00:00","14.2","1.97","14.56","ND","ND","ND","0.9","104.7","25.3","48.7","0","0"],
    [12746,"2011-10-19T21:00:00","42.7","1.73","16.16","ND","ND","ND","1.1","128.2","24.7","53.5","0","0"],
    [12747,"2011-10-19T22:00:00","61.3","6.70","34.62","ND","ND","ND","0.6","209.9","23","61","0","0"],
    [12748,"2011-10-19T23:00:00","63.4","17.98","44.08","ND","ND","ND","0","175.6","21.9","67.5","0","0"],
    [12749,"2011-10-20T00:00:00","63.2","31.74","39.42","ND","ND","ND","0.1","292.8","21.2","70.5","0","0"],
    [12750,"2011-10-20T01:00:00","37.3","17.07","34.14","ND","ND","ND","0.1","336.6","20.8","73.6","0","0"],
    [12751,"2011-10-20T02:00:00","43.5","10.07","29.19","ND","ND","ND","0","279.5","20.1","77.2","0","0"],
    [12752,"2011-10-20T03:00:00","28.7","15.51","26.23","ND","ND","ND","0.1","267.2","19.6","79.3","0","0"],
    [12753,"2011-10-20T04:00:00","55.1","16.03","23.99","ND","ND","ND","0.2","223.3","19.6","80.3","0","0"],
    [12754,"2011-10-20T05:00:00","29.7","11.63","22.88","ND","ND","ND","0.1","246.3","19.4","81.1","0","0"],
    [12755,"2011-10-20T06:00:00","25.8","9.56","19.79","ND","ND","ND","0","288.4","19","82","0.4","0"],
    [12756,"2011-10-20T07:00:00","23.3","7.70","17.35","ND","ND","ND","0.1","297.5","19.1","81.2","59.8","0"],
    [12757,"2011-10-20T08:00:00","46.7","7.63","20.71","ND","ND","ND","0.2","117.3","22","67","263.1","0"],
    [12758,"2011-10-20T09:00:00","53.6","13.85","26.01","ND","ND","ND","1.1","156.2","22.8","64","255.6","0"],
    [12759,"2011-10-20T10:00:00","51.2","33.08","44.16","ND","ND","ND","0.9","146.5","23.9","60","475.8","0"],
    [12760,"2011-10-20T11:00:00","27.5","27.75","45.67","ND","ND","ND","1.1","132.5","25.5","54.6","605.8","0"],
    [12761,"2011-10-20T12:00:00","29.2","27.66","32.41","ND","ND","ND","1.4","103.6","26.5","51.6","630.4","0"],
    [12762,"2011-10-20T13:00:00","34.5","27.18","28.66","ND","ND","ND","1.4","25.6","27.3","49.1","530.8","0"],
    [12763,"2011-10-20T14:00:00","44.2","24.03","22.89","ND","ND","ND","2","353.8","27.6","45.8","465.6","0"],
    [12764,"2011-10-20T15:00:00","27.1","32.96","24.20","ND","ND","ND","3.3","287.9","27.1","43.8","284.9","0"],
    [12765,"2011-10-20T16:00:00","15.3","44.91","19.54","ND","ND","ND","1.7","305.8","27.6","40.7","237.1","0"],
    [12766,"2011-10-20T17:00:00","9.2","3.96","8.38","ND","ND","ND","2","285.7","26.8","43.5","120.7","0"],
    [12767,"2011-10-20T18:00:00","5.4","4.45","11.90","ND","ND","ND","0.3","313.6","25.9","42.7","10.2","0"],
    [12768,"2011-10-20T19:00:00","3.7","1.89","11.24","ND","ND","ND","0.2","155.4","25.2","45","0","0"],
    [12769,"2011-10-20T20:00:00","23.2","3.83","17.36","ND","ND","ND","0.8","119.7","25.1","46.6","0","0"],
    [12770,"2011-10-20T21:00:00","13","2.78","26.02","ND","ND","ND","1","98.6","24.4","50.1","0","0"],
    [12771,"2011-10-20T22:00:00","51.4","7.03","39.19","ND","ND","ND","0.3","116.8","23","57.6","0","0"],
    [12772,"2011-10-20T23:00:00","33.6","19.26","42.21","ND","ND","ND","0.2","198.5","21.9","64.7","0","0"],
    [12773,"2011-10-21T00:00:00","47.5","32.83","38.73","ND","ND","ND","0.2","262.5","21.4","67.9","0","0"],
    [12774,"2011-10-21T01:00:00","39.9","21.95","31.15","ND","ND","ND","0.2","57","20.9","70.7","0","0"],
    [12775,"2011-10-21T02:00:00","24.6","15.74","30.70","ND","ND","ND","0.3","244.4","20.7","71.3","0","0"],
    [12776,"2011-10-21T03:00:00","14.8","13.43","28.64","ND","ND","ND","0.3","259.3","20.5","69.7","0","0"],
    [12777,"2011-10-21T04:00:00","9.4","10.99","26.06","ND","ND","ND","0.3","344","20.4","71.6","0","0"],
    [12778,"2011-10-21T05:00:00","6.9","8.87","24.76","ND","ND","ND","0.1","320.9","19.9","75.5","0","0"],
    [12779,"2011-10-21T06:00:00","28.4","10.56","24.64","ND","ND","ND","0.2","344.8","19.8","77.1","0.4","0"],
    [12780,"2011-10-21T07:00:00","32.5","37.07","23.56","ND","ND","ND","0","74.9","20.3","72.6","60.7","0"],
    [12781,"2011-10-21T08:00:00","79.3","16.09","25.04","ND","ND","ND","0.4","119.9","22.3","64.3","283.2","0"],
    [12782,"2011-10-21T09:00:00","64.5","24.33","30.27","ND","ND","ND","1.2","41.1","23","66.1","318.2","0"],
    [12783,"2011-10-21T10:00:00","63.7","43.52","47.37","ND","ND","ND","0.9","50.8","23.6","63.1","321.6","0"],
    [12784,"2011-10-21T11:00:00","40.1","38.73","36.89","ND","ND","ND","1","49.3","24.9","57.5","437.8","0"],
    [12785,"2011-10-21T12:00:00","35.9","36.02","40.16","ND","ND","ND","1","93","25.7","55.5","530.2","0"],
    [12786,"2011-10-21T13:00:00","21.1","27.81","22.67","ND","ND","ND","1","142.9","27.1","49.1","683.1","0"],
    [12787,"2011-10-21T14:00:00","38.7","22.85","19.10","ND","ND","ND","0.8","214.4","27.6","46.6","332.9","0"],
    [12788,"2011-10-21T15:00:00","22.8","25.66","21.54","ND","ND","ND","1.2","174","28.1","41.9","431.1","0"],
    [12789,"2011-10-21T16:00:00","ND","26.26","24.23","ND","ND","ND","ND","ND","ND","ND","ND","ND"],
    [12790,"2011-10-21T17:00:00","ND","ND","ND","ND","ND","ND","ND","ND","ND","ND","ND","ND"],
    [12791,"2011-10-21T18:00:00","ND","ND","ND","ND","ND","ND","ND","ND","ND","ND","ND","ND"],
    [12792,"2011-10-21T19:00:00","ND","ND","ND","ND","ND","ND","ND","ND","ND","ND","ND","ND"],
    [12793,"2011-10-21T20:00:00","ND","ND","ND","ND","ND","ND","ND","ND","ND","ND","ND","ND"],
    [12794,"2011-10-21T21:00:00","ND","ND","ND","ND","ND","ND","ND","ND","ND","ND","ND","ND"],
    [12795,"2011-10-21T22:00:00","ND","ND","ND","ND","ND","ND","ND","ND","ND","ND","ND","ND"],
    [12796,"2011-10-21T23:00:00","ND","ND","ND","ND","ND","ND","ND","ND","ND","ND","ND","ND"],
    [12797,"2011-10-22T00:00:00","ND","ND","ND","ND","ND","ND","ND","ND","ND","ND","ND","ND"],
    [12798,"2011-10-22T01:00:00","ND","ND","ND","ND","ND","ND","ND","ND","ND","ND","ND","ND"],
    [12799,"2011-10-22T02:00:00","ND","ND","ND","ND","ND","ND","ND","ND","ND","ND","ND","ND"],
    [12800,"2011-10-22T03:00:00","ND","ND","ND","ND","ND","ND","ND","ND","ND","ND","ND","ND"],
    [12801,"2011-10-22T04:00:00","ND","ND","ND","ND","ND","ND","ND","ND","ND","ND","ND","ND"],
    [12802,"2011-10-22T05:00:00","ND","ND","ND","ND","ND","ND","ND","ND","ND","ND","ND","ND"],
    [12803,"2011-10-22T06:00:00","ND","ND","ND","ND","ND","ND","ND","ND","ND","ND","ND","ND"],
    [12804,"2011-10-22T07:00:00","ND","ND","ND","ND","ND","ND","ND","ND","ND","ND","ND","ND"],
    [12805,"2011-10-22T08:00:00","ND","ND","ND","ND","ND","ND","ND","ND","ND","ND","ND","ND"],
    [12806,"2011-10-22T09:00:00","ND","ND","ND","ND","ND","ND","ND","ND","ND","ND","ND","ND"],
    [12807,"2011-10-22T10:00:00","ND","ND","ND","ND","ND","ND","ND","ND","ND","ND","ND","ND"],
    [12808,"2011-10-22T11:00:00","ND","ND","ND","ND","ND","ND","ND","ND","ND","ND","ND","ND"],
    [12809,"2011-10-22T12:00:00","ND","ND","ND","ND","ND","ND","ND","ND","ND","ND","ND","ND"],
    [12810,"2011-10-22T13:00:00","ND","ND","ND","ND","ND","ND","ND","ND","ND","ND","ND","ND"],
    [12811,"2011-10-22T14:00:00","ND","ND","ND","ND","ND","ND","ND","ND","ND","ND","ND","ND"],
    [12812,"2011-10-22T15:00:00","ND","ND","ND","ND","ND","ND","ND","ND","ND","ND","ND","ND"],
    [12813,"2011-10-22T16:00:00","ND","ND","ND","ND","ND","ND","ND","ND","ND","ND","ND","ND"],
    [12814,"2011-10-22T17:00:00","ND","ND","ND","ND","ND","ND","ND","ND","ND","ND","ND","ND"],
    [12815,"2011-10-22T18:00:00","ND","ND","ND","ND","ND","ND","ND","ND","ND","ND","ND","ND"],
    [12816,"2011-10-22T19:00:00","ND","ND","ND","ND","ND","ND","ND","ND","ND","ND","ND","ND"],
    [12817,"2011-10-22T20:00:00","ND","ND","ND","ND","ND","ND","ND","ND","ND","ND","ND","ND"],
    [12818,"2011-10-22T21:00:00","ND","ND","ND","ND","ND","ND","ND","ND","ND","ND","ND","ND"],
    [12819,"2011-10-22T22:00:00","ND","ND","ND","ND","ND","ND","ND","ND","ND","ND","ND","ND"],
    [12820,"2011-10-22T23:00:00","ND","ND","ND","ND","ND","ND","ND","ND","ND","ND","ND","ND"],
    [12821,"2011-10-23T00:00:00","ND","ND","ND","ND","ND","ND","ND","ND","ND","ND","ND","ND"],
    [12822,"2011-10-23T01:00:00","ND","ND","ND","ND","ND","ND","ND","ND","ND","ND","ND","ND"],
    [12823,"2011-10-23T02:00:00","ND","ND","ND","ND","ND","ND","ND","ND","ND","ND","ND","ND"],
    [12824,"2011-10-23T03:00:00","ND","ND","ND","ND","ND","ND","ND","ND","ND","ND","ND","ND"],
    [12825,"2011-10-23T04:00:00","ND","ND","ND","ND","ND","ND","ND","ND","ND","ND","ND","ND"],
    [12826,"2011-10-23T05:00:00","ND","ND","ND","ND","ND","ND","ND","ND","ND","ND","ND","ND"],
    [12827,"2011-10-23T06:00:00","ND","ND","ND","ND","ND","ND","ND","ND","ND","ND","ND","ND"],
    [12828,"2011-10-23T07:00:00","ND","ND","ND","ND","ND","ND","ND","ND","ND","ND","ND","ND"],
    [12829,"2011-10-23T08:00:00","ND","ND","ND","ND","ND","ND","ND","ND","ND","ND","ND","ND"],
    [12830,"2011-10-23T09:00:00","ND","ND","ND","ND","ND","ND","ND","ND","ND","ND","ND","ND"],
    [12831,"2011-10-23T10:00:00","ND","ND","ND","ND","ND","ND","ND","ND","ND","ND","ND","ND"],
    [12832,"2011-10-23T11:00:00","ND","ND","ND","ND","ND","ND","ND","ND","ND","ND","ND","ND"],
    [12833,"2011-10-23T12:00:00","ND","ND","ND","ND","ND","ND","ND","ND","ND","ND","ND","ND"],
    [12834,"2011-10-23T13:00:00","ND","ND","ND","ND","ND","ND","ND","ND","ND","ND","ND","ND"],
    [12835,"2011-10-23T14:00:00","ND","ND","ND","ND","ND","ND","ND","ND","ND","ND","ND","ND"],
    [12836,"2011-10-23T15:00:00","ND","ND","ND","ND","ND","ND","ND","ND","ND","ND","ND","ND"],
    [12837,"2011-10-23T16:00:00","ND","ND","ND","ND","ND","ND","ND","ND","ND","ND","ND","ND"],
    [12838,"2011-10-23T17:00:00","ND","ND","ND","ND","ND","ND","ND","ND","ND","ND","ND","ND"],
    [12839,"2011-10-23T18:00:00","ND","ND","ND","ND","ND","ND","ND","ND","ND","ND","ND","ND"],
    [12840,"2011-10-23T19:00:00","ND","ND","ND","ND","ND","ND","ND","ND","ND","ND","ND","ND"],
    [12841,"2011-10-23T20:00:00","ND","ND","ND","ND","ND","ND","ND","ND","ND","ND","ND","ND"],
    [12842,"2011-10-23T21:00:00","ND","ND","ND","ND","ND","ND","ND","ND","ND","ND","ND","ND"],
    [12843,"2011-10-23T22:00:00","ND","ND","ND","ND","ND","ND","ND","ND","ND","ND","ND","ND"],
    [12844,"2011-10-23T23:00:00","ND","ND","ND","ND","ND","ND","ND","ND","ND","ND","ND","ND"],
    [12845,"2011-10-24T00:00:00","ND","ND","ND","ND","ND","ND","ND","ND","ND","ND","ND","ND"],
    [12846,"2011-10-24T01:00:00","ND","ND","ND","ND","ND","ND","ND","ND","ND","ND","ND","ND"],
    [12847,"2011-10-24T02:00:00","ND","ND","ND","ND","ND","ND","ND","ND","ND","ND","ND","ND"],
    [12848,"2011-10-24T03:00:00","ND","ND","ND","ND","ND","ND","ND","ND","ND","ND","ND","ND"],
    [12849,"2011-10-24T04:00:00","ND","ND","ND","ND","ND","ND","ND","ND","ND","ND","ND","ND"],
    [12850,"2011-10-24T05:00:00","ND","ND","ND","ND","ND","ND","ND","ND","ND","ND","ND","ND"],
    [12851,"2011-10-24T06:00:00","ND","ND","ND","ND","ND","ND","ND","ND","ND","ND","ND","ND"],
    [12852,"2011-10-24T07:00:00","ND","ND","ND","ND","ND","ND","ND","ND","ND","ND","ND","ND"],
    [12853,"2011-10-24T08:00:00","ND","ND","ND","ND","ND","ND","ND","ND","ND","ND","ND","ND"],
    [12854,"2011-10-24T09:00:00","ND","ND","ND","ND","ND","ND","ND","ND","ND","ND","ND","ND"],
    [12855,"2011-10-24T10:00:00","ND","ND","ND","ND","ND","ND","ND","ND","ND","ND","ND","ND"],
    [12856,"2011-10-24T11:00:00","ND","ND","ND","ND","ND","ND","ND","ND","ND","ND","ND","ND"],
    [12857,"2011-10-24T12:00:00","ND","ND","ND","ND","ND","ND","ND","ND","ND","ND","ND","ND"],
    [12858,"2011-10-24T13:00:00","ND","ND","ND","ND","ND","ND","ND","ND","ND","ND","ND","ND"],
    [12859,"2011-10-24T14:00:00","ND","ND","ND","ND","ND","ND","ND","ND","ND","ND","ND","ND"],
    [12860,"2011-10-24T15:00:00","ND","ND","ND","ND","ND","ND","ND","ND","ND","ND","ND","ND"],
    [12861,"2011-10-24T16:00:00","ND","ND","ND","ND","ND","ND","ND","ND","ND","ND","ND","ND"],
    [12862,"2011-10-24T17:00:00","ND","ND","ND","ND","ND","ND","ND","ND","ND","ND","ND","ND"],
    [12863,"2011-10-24T18:00:00","ND","ND","ND","ND","ND","ND","ND","ND","ND","ND","ND","ND"],
    [12864,"2011-10-24T19:00:00","ND","ND","ND","ND","ND","ND","ND","ND","ND","ND","ND","ND"],
    [12865,"2011-10-24T20:00:00","ND","ND","ND","ND","ND","ND","ND","ND","ND","ND","ND","ND"],
    [12866,"2011-10-24T21:00:00","ND","ND","ND","ND","ND","ND","ND","ND","ND","ND","ND","ND"],
    [12867,"2011-10-24T22:00:00","ND","ND","ND","ND","ND","ND","ND","ND","ND","ND","ND","ND"],
    [12868,"2011-10-24T23:00:00","ND","ND","ND","ND","ND","ND","ND","ND","ND","ND","ND","ND"],
    [12869,"2011-10-25T00:00:00","ND","ND","ND","ND","ND","ND","ND","ND","ND","ND","ND","ND"],
    [12870,"2011-10-25T01:00:00","ND","ND","ND","ND","ND","ND","ND","ND","ND","ND","ND","ND"],
    [12871,"2011-10-25T02:00:00","ND","ND","ND","ND","ND","ND","ND","ND","ND","ND","ND","ND"],
    [12872,"2011-10-25T03:00:00","ND","ND","ND","ND","ND","ND","ND","ND","ND","ND","ND","ND"],
    [12873,"2011-10-25T04:00:00","ND","ND","ND","ND","ND","ND","ND","ND","ND","ND","ND","ND"],
    [12874,"2011-10-25T05:00:00","ND","ND","ND","ND","ND","ND","ND","ND","ND","ND","ND","ND"],
    [12875,"2011-10-25T06:00:00","ND","ND","ND","ND","ND","ND","ND","ND","ND","ND","ND","ND"],
    [12876,"2011-10-25T07:00:00","ND","ND","ND","ND","ND","ND","ND","ND","ND","ND","ND","ND"],
    [12877,"2011-10-25T08:00:00","ND","ND","ND","ND","ND","ND","ND","ND","ND","ND","ND","ND"],
    [12878,"2011-10-25T09:00:00","164.8","ND","ND","ND","ND","ND","ND","ND","ND","ND","ND","ND"],
    [12879,"2011-10-25T10:00:00","127.3","ND","ND","ND","ND","ND","0.8","81.8","23.1","76.5","521.9","0"],
    [12880,"2011-10-25T11:00:00","68","ND","ND","ND","ND","ND","1.3","62.6","25.2","66.4","661.8","0"],
    [12881,"2011-10-25T12:00:00","46.4","104.78","37.09","ND","ND","ND","0.9","27.7","26.5","59.8","598.5","0"],
    [12882,"2011-10-25T13:00:00","24.2","86.98","26.24","ND","ND","ND","1.2","0.9","26.9","58.5","358.6","0"],
    [12883,"2011-10-25T14:00:00","52.1","45.49","15.30","ND","ND","ND","0.7","343.2","27.4","56.2","318.9","0"],
    [12884,"2011-10-25T15:00:00","42.8","117.28","27.83","ND","ND","ND","0.5","37.1","28.1","52.2","332.6","0"],
    [12885,"2011-10-25T16:00:00","23.5","94.54","21.87","ND","ND","ND","2.4","264.2","27.6","53.4","131","0"],
    [12886,"2011-10-25T17:00:00","13","39.44","14.44","ND","ND","ND","2.1","272.9","27.1","53.4","121","0"],
    [12887,"2011-10-25T18:00:00","8.4","16.57","15.52","ND","ND","ND","2.2","267.5","26.3","54","24.7","0"],
    [12888,"2011-10-25T19:00:00","6","9.13","15.89","ND","ND","ND","0.7","94.9","25.8","58.5","0","0"],
    [12889,"2011-10-25T20:00:00","54","7.33","18.38","ND","ND","ND","1.4","21.4","24.4","65.4","0","0"],
    [12890,"2011-10-25T21:00:00","43.8","12.39","32.12","ND","ND","ND","1.6","153","23","77","0","0"],
    [12891,"2011-10-25T22:00:00","47.9","29.23","30.25","ND","ND","ND","1.8","162.5","21.4","86.7","0","0"],
    [12892,"2011-10-25T23:00:00","34.1","15.43","35.52","ND","ND","ND","0.9","147.3","21","91","0","0"],
    [12893,"2011-10-26T00:00:00","19.3","10.37","27.80","ND","ND","ND","0.3","257.4","21.1","91.4","0","0"],
    [12894,"2011-10-26T01:00:00","13.6","6.44","33.68","ND","ND","ND","0.1","222.6","21.5","88.5","0","0"],
    [12895,"2011-10-26T02:00:00","22.3","6.42","41.06","ND","ND","ND","0.3","195.1","21.5","87.1","0","0"],
    [12896,"2011-10-26T03:00:00","13.8","6.58","33.17","ND","ND","ND","0.8","127.9","21.1","91.5","0","0"],
    [12897,"2011-10-26T04:00:00","25.1","14.15","28.83","ND","ND","ND","0.2","107.6","20.9","92.1","0","0"],
    [12898,"2011-10-26T05:00:00","28.6","16.36","23.03","ND","ND","ND","0.2","262.4","20.9","91.9","0","0"],
    [12899,"2011-10-26T06:00:00","16.1","9.15","18.76","ND","ND","ND","0.5","162.6","20.9","90.7","0.4","0"],
    [12900,"2011-10-26T07:00:00","10","7.52","21.51","ND","ND","ND","0","83","21","91.1","39.6","0"],
    [12901,"2011-10-26T08:00:00","39.1","10.55","21.76","ND","ND","ND","0.7","24","21.4","89.8","143.3","0"],
    [12902,"2011-10-26T09:00:00","45.2","12.40","25.31","ND","ND","ND","0.9","104.9","24.1","75","524","0"],
    [12903,"2011-10-26T10:00:00","49.1","29.78","32.37","ND","ND","ND","1.1","115","25.6","66","470.1","0"],
    [12904,"2011-10-26T11:00:00","25.2","44.11","37.35","ND","ND","ND","0.9","294.6","25.2","68.7","210.4","0"],
    [12905,"2011-10-26T12:00:00","36.8","23.97","30.34","ND","ND","ND","0.6","64.1","27","59.9","552.3","0"],
    [12906,"2011-10-26T13:00:00","30.1","72.12","32.78","ND","ND","ND","0.5","20.7","28.1","56","599","0"],
    [12907,"2011-10-26T14:00:00","26.1","25.65","16.29","ND","ND","ND","1.1","43.6","28.5","54.5","409","0"],
    [12908,"2011-10-26T15:00:00","18.7","34.97","17.49","ND","ND","ND","0.6","325.2","28.8","51.1","300.8","0"],
    [12909,"2011-10-26T16:00:00","9.9","90.60","21.63","ND","ND","ND","1.6","269.9","29.5","48.2","313.7","0"],
    [12910,"2011-10-26T17:00:00","6.4","36.49","16.42","ND","ND","ND","2.3","284.6","28.8","49.1","198.4","0"],
    [12911,"2011-10-26T18:00:00","4.1","11.76","10.64","ND","ND","ND","1.5","286.3","27.4","52.5","27.8","0"],
    [12912,"2011-10-26T19:00:00","9.2","5.71","9.74","ND","ND","ND","1","256.6","26.4","56.7","0","0"],
    [12913,"2011-10-26T20:00:00","6","14.01","15.76","ND","ND","ND","1.6","131.4","25.7","60","0","0"],
    [12914,"2011-10-26T21:00:00","8","14.13","20.37","ND","ND","ND","1.2","73.5","24.2","66.1","0","0"],
    [12915,"2011-10-26T22:00:00","19","9.04","24.01","ND","ND","ND","0.6","20.9","23.3","70.5","0","0"],
    [12916,"2011-10-26T23:00:00","10.3","10.89","33.56","ND","ND","ND","1","165.2","23.1","70.2","0","0"],
    [12917,"2011-10-27T00:00:00","6.9","17.08","26.72","ND","ND","ND","0.6","230.6","22.3","74.9","0","0"],
    [12918,"2011-10-27T01:00:00","4.1","15.11","31.36","ND","ND","ND","0.3","250.6","22.4","75.2","0","0"],
    [12919,"2011-10-27T02:00:00","22.1","14.21","30.77","ND","ND","ND","0.1","35.9","22.3","76.5","0","0"],
    [12920,"2011-10-27T03:00:00","24.4","12.02","23.96","ND","ND","ND","0.3","119.9","22","78.2","0","0"],
    [12921,"2011-10-27T04:00:00","36","15.77","25.66","ND","ND","ND","0.4","322.6","21.6","81.1","0","0"],
    [12922,"2011-10-27T05:00:00","32.8","26.08","25.53","ND","ND","ND","0.5","48.5","21.4","82.5","0","0"],
    [12923,"2011-10-27T06:00:00","46.3","30.62","25.10","ND","ND","ND","0.3","30.9","20.9","86.4","0.3","0"],
    [12924,"2011-10-27T07:00:00","59.4","36.72","26.49","ND","ND","ND","0.2","313.5","21.1","85.8","40","0"],
    [12925,"2011-10-27T08:00:00","70.3","32.82","23.66","ND","ND","ND","0.8","82.4","22.9","76.3","164.9","0"],
    [12926,"2011-10-27T09:00:00","67","37.02","25.81","ND","ND","ND","0.6","63.4","23.9","72.6","307.5","0"],
    [12927,"2011-10-27T10:00:00","93.3","84.53","37.32","ND","ND","ND","1.4","102.8","25.8","65.5","534.3","0"],
    [12928,"2011-10-27T11:00:00","68.5","141.87","45.40","ND","ND","ND","1.1","112.9","27.5","57.1","696.4","0"],
    [12929,"2011-10-27T12:00:00","37.8","74.30","58.00","ND","ND","ND","1","134.3","28.8","52","689.5","0"],
    [12930,"2011-10-27T13:00:00","27.9","21.10","23.10","ND","ND","ND","0.3","51.2","29.2","50.5","587.1","0"],
    [12931,"2011-10-27T14:00:00","53.6","16.37","18.41","ND","ND","ND","1.3","301.4","30.3","48.7","575.1","0"],
    [12932,"2011-10-27T15:00:00","28.3","15.47","19.00","ND","ND","ND","1.8","288","30.4","47.2","467.6","0.25"],
    [12933,"2011-10-27T16:00:00","28","13.34","18.95","ND","ND","ND","3","278.6","29.9","47.7","331.5","0"],
    [12934,"2011-10-27T17:00:00","15","9.03","13.17","ND","ND","ND","2","268","29.9","47","212.1","0"],
    [12935,"2011-10-27T18:00:00","13.2","4.66","9.92","ND","ND","ND","0.7","266.1","28.6","50.3","35.5","0"],
    [12936,"2011-10-27T19:00:00","8.4","4.22","16.47","ND","ND","ND","0.3","232.3","27.6","53.3","0","0"],
    [12937,"2011-10-27T20:00:00","23.6","5.58","28.40","ND","ND","ND","0.6","141.5","27","57.5","0","0"],
    [12938,"2011-10-27T21:00:00","32.5","6.28","29.84","ND","ND","ND","0.4","71","26.6","58.6","0","0"],
    [12939,"2011-10-27T22:00:00","68","11.62","45.92","ND","ND","ND","0.6","69.1","25.5","65.3","0","0"],
    [12940,"2011-10-27T23:00:00","53.3","17.95","47.77","ND","ND","ND","0.7","95.5","25.3","65.1","0","0"],
    [12941,"2011-10-28T00:00:00","52.6","28.01","32.94","ND","ND","ND","1.3","155.5","25.2","63.6","0","0"],
    [12942,"2011-10-28T01:00:00","33.8","38.02","32.06","ND","ND","ND","0.6","208.4","24.7","66.2","0","0"],
    [12943,"2011-10-28T02:00:00","54.5","22.62","24.99","ND","ND","ND","2.5","179.4","23.9","73.7","0","0"],
    [12944,"2011-10-28T03:00:00","38.5","20.49","25.11","ND","ND","ND","1","139.9","22.3","87.2","0.1","17.02"],
    [12945,"2011-10-28T04:00:00","40.6","21.14","17.25","ND","ND","ND","0.4","233.8","20.6","98.5","0","21.59"],
    [12946,"2011-10-28T05:00:00","23.4","11.62","14.86","ND","ND","ND","0.2","348.1","20.6","99.2","0","0.51"],
    [12947,"2011-10-28T06:00:00","15.4","5.99","11.32","ND","ND","ND","0.6","62","21","96.7","0.5","0"],
    [12948,"2011-10-28T07:00:00","20.4","4.63","10.72","ND","ND","ND","0.6","179.2","21.3","94","22.9","0"],
    [12949,"2011-10-28T08:00:00","19.5","6.57","23.34","ND","ND","ND","0.4","108.7","22","90.4","70.4","0"],
    [12950,"2011-10-28T09:00:00","10.7","25.78","25.17","ND","ND","ND","0.2","296.8","22.8","86.4","160.9","0"],
    [12951,"2011-10-28T10:00:00","43.9","42.39","34.08","ND","ND","ND","0.3","81.3","23.9","80.7","212.5","0"],
    [12952,"2011-10-28T11:00:00","45.2","49.10","45.96","ND","ND","ND","0.4","30.9","25.3","75","473.6","0"],
    [12953,"2011-10-28T12:00:00","42.2","25.84","52.17","ND","ND","ND","0.8","26.4","26","68.5","177.3","0"],
    [12954,"2011-10-28T13:00:00","29.1","35.07","44.14","ND","ND","ND","1.3","258.9","26.3","64.8","279","0"],
    [12955,"2011-10-28T14:00:00","16.7","31.37","29.77","ND","ND","ND","3","258.3","26","61.1","194.7","0"],
    [12956,"2011-10-28T15:00:00","21.8","40.59","22.62","ND","ND","ND","0.6","99.1","23.1","82.1","28.7","4.83"],
    [12957,"2011-10-28T16:00:00","11.6","10.52","11.47","ND","ND","ND","0.2","162.4","21.3","92.5","12.5","9.65"],
    [12958,"2011-10-28T17:00:00","15","7.61","29.07","ND","ND","ND","0.8","121.4","21.1","93.6","10","6.35"],
    [12959,"2011-10-28T18:00:00","21.3","8.35","40.87","ND","ND","ND","0.9","88.9","21.1","90.5","8.4","0.76"],
    [12960,"2011-10-28T19:00:00","11.3","9.00","40.00","ND","ND","ND","1","183.5","21.1","88.7","0","0"],
    [12961,"2011-10-28T20:00:00","29.2","10.45","35.56","ND","ND","ND","1.6","203","20.9","92.1","0","0.76"],
    [12962,"2011-10-28T21:00:00","30.2","16.87","39.64","ND","ND","ND","0.7","185.2","21","90.8","0","0.25"],
    [12963,"2011-10-28T22:00:00","15.8","11.53","36.57","ND","ND","ND","1.2","189.3","20.8","90.5","0","0.25"],
    [12964,"2011-10-28T23:00:00","10","9.17","35.10","ND","ND","ND","1.6","169.9","20.7","90.5","0","0"],
    [12965,"2011-10-29T00:00:00","21.9","8.94","30.33","ND","ND","ND","1.7","179.1","19.9","95","0","11.68"],
    [12966,"2011-10-29T01:00:00","11.5","7.21","25.88","ND","ND","ND","1","160.2","19.8","97.2","0","3.81"],
    [12967,"2011-10-29T02:00:00","7","12.59","26.70","ND","ND","ND","0.1","297","19.8","94.5","0","0.25"],
    [12968,"2011-10-29T03:00:00","4.6","8.99","27.06","ND","ND","ND","0.2","129.5","19.8","94.5","0","0"],
    [12969,"2011-10-29T04:00:00","9.9","6.57","24.48","ND","ND","ND","0.4","138.2","19.9","94.5","0","0"],
    [12970,"2011-10-29T05:00:00","5.6","6.59","20.79","ND","ND","ND","0.3","125.8","19.9","94.8","0","0"],
    [12971,"2011-10-29T06:00:00","4.4","5.41","22.51","ND","ND","ND","0.2","107.8","19.9","95.4","0.5","0"],
    [12972,"2011-10-29T07:00:00","11.4","4.40","21.34","ND","ND","ND","0.5","69.1","19.7","96.3","24.8","0"],
    [12973,"2011-10-29T08:00:00","12.3","5.30","20.65","ND","ND","ND","0.6","68","20.2","93.1","137.8","0"],
    [12974,"2011-10-29T09:00:00","22.9","10.83","23.00","ND","ND","ND","0.4","356.7","21.4","86.9","187.5","0"],
    [12975,"2011-10-29T10:00:00","40.3","23.76","23.91","ND","ND","ND","0.3","88.7","23.1","77.6","450","0"],
    [12976,"2011-10-29T11:00:00","24","19.87","25.19","ND","ND","ND","1","70.6","25.2","67.4","682.7","0"],
    [12977,"2011-10-29T12:00:00","16.2","13.45","23.65","ND","ND","ND","0.9","106.2","26.1","62.5","496.6","0"],
    [12978,"2011-10-29T13:00:00","10.8","15.44","22.29","ND","ND","ND","1.5","114.2","26.2","64","321.6","0"],
    [12979,"2011-10-29T14:00:00","24","11.84","16.11","ND","ND","ND","1","97.8","26.5","63.1","351.8","0"],
    [12980,"2011-10-29T15:00:00","21","9.85","15.50","ND","ND","ND","1.1","107.1","26.7","61.6","238.8","0"],
    [12981,"2011-10-29T16:00:00","12","10.17","19.11","ND","ND","ND","0.7","55.7","26.1","63.9","110.7","0"],
    [12982,"2011-10-29T17:00:00","38.1","9.84","25.65","ND","ND","ND","0.4","28.9","26.1","63.7","70.1","0"],
    [12983,"2011-10-29T18:00:00","33.8","14.02","25.18","ND","ND","ND","0.5","48.1","25.8","65.7","6.3","0"],
    [12984,"2011-10-29T19:00:00","31.6","16.84","25.99","ND","ND","ND","0.9","226.3","25.1","63.7","0","0"],
    [12985,"2011-10-29T20:00:00","44.1","17.25","36.81","ND","ND","ND","0.3","283.5","24","70.5","0","0"],
    [12986,"2011-10-29T21:00:00","29.5","9.90","35.83","ND","ND","ND","0.5","135.1","23.9","72.5","0","0"],
    [12987,"2011-10-29T22:00:00","58.6","10.49","35.50","ND","ND","ND","0.8","171.3","23.4","77.6","0","0"],
    [12988,"2011-10-29T23:00:00","35.5","18.56","34.11","ND","ND","ND","0.2","156.6","23.1","79.8","0","0"],
    [12989,"2011-10-30T00:00:00","57.6","17.91","38.78","ND","ND","ND","0.3","119.4","22.7","81.4","0","0"],
    [12990,"2011-10-30T01:00:00","54.6","9.83","47.45","ND","ND","ND","1.2","326.1","21.9","84.6","0","0"],
    [12991,"2011-10-30T02:00:00","37.1","12.60","49.13","ND","ND","ND","1","2.5","20.2","93.7","0","6.6"],
    [12992,"2011-10-30T03:00:00","19.9","10.26","34.63","ND","ND","ND","0.9","25.8","19.6","96.4","0","0.76"],
    [12993,"2011-10-30T04:00:00","12.2","6.92","20.55","ND","ND","ND","0.3","6.5","19.6","96.4","0","0.25"],
    [12994,"2011-10-30T05:00:00","9.5","7.10","16.35","ND","ND","ND","0.2","34.9","19.8","96.1","0","0.51"],
    [12995,"2011-10-30T06:00:00","17.9","9.60","16.32","ND","ND","ND","0.2","31.5","19.8","96.2","0.1","0.25"],
    [12996,"2011-10-30T07:00:00","10.2","14.24","18.38","ND","ND","ND","0.4","28.7","19.9","96.1","13.6","0"],
    [12997,"2011-10-30T08:00:00","6.6","17.74","20.57","ND","ND","ND","0.6","55.3","20.2","96.3","47.8","0"],
    [12998,"2011-10-30T09:00:00","4.2","23.61","26.74","ND","ND","ND","0.4","48.8","21","90.7","102.8","0"],
    [12999,"2011-10-30T10:00:00","3","22.02","22.52","ND","ND","ND","1.4","49.9","21.2","90.1","200.1","0.51"],
    [13000,"2011-10-30T11:00:00","9.7","36.63","21.61","ND","ND","ND","1.3","42","22.1","86.8","314","0"],
    [13001,"2011-10-30T12:00:00","23.5","27.71","10.63","ND","ND","ND","1.5","41.8","23.4","79.8","426.2","0"],
    [13002,"2011-10-30T13:00:00","17.6","87.91","21.41","ND","ND","ND","2.2","39.2","24.3","75.8","260.2","0"],
    [13003,"2011-10-30T14:00:00","9.3","146.65","25.31","ND","ND","ND","1.8","46.6","25","70.7","265.7","0"],
    [13004,"2011-10-30T15:00:00","7","75.10","16.76","ND","ND","ND","0.7","180.6","24.8","66.1","119.8","0"],
    [13005,"2011-10-30T16:00:00","3.5","24.17","9.73","ND","ND","ND","0.6","218.7","23","78.8","71.9","0.51"],
    [13006,"2011-10-30T17:00:00","10.9","18.06","10.89","ND","ND","ND","0.9","178.9","22.3","84.6","24.7","3.3"],
    [13007,"2011-10-30T18:00:00","23.2","8.10","19.82","ND","ND","ND","0.3","175.5","20.8","93","1.9","10.16"],
    [13008,"2011-10-30T19:00:00","13.1","9.22","29.36","ND","ND","ND","0.4","205.7","20.5","94.3","0","1.78"],
    [13009,"2011-10-30T20:00:00","8.7","6.97","28.99","ND","ND","ND","0.1","218.3","20.6","93.5","0","0"],
    [13010,"2011-10-30T21:00:00","6.4","6.12","29.37","ND","ND","ND","0.4","220.3","20.6","93.2","0","0.25"],
    [13011,"2011-10-30T22:00:00","6.9","6.27","25.87","ND","ND","ND","0.2","275","20.3","92.1","0","0"],
    [13012,"2011-10-30T23:00:00","4.2","7.53","23.64","ND","ND","ND","0.3","334","19.8","93","0","0"],
    [13013,"2011-10-31T00:00:00","3.4","5.87","20.82","ND","ND","ND","0.3","31.7","19.8","94.1","0","0"],
    [13014,"2011-10-31T01:00:00","14.8","4.48","17.56","ND","ND","ND","0.8","358.6","19.5","97.1","0","0"],
    [13015,"2011-10-31T02:00:00","24","5.07","19.08","ND","ND","ND","0.7","62.1","19.4","97.6","0","0"],
    [13016,"2011-10-31T03:00:00","13.5","6.27","19.31","ND","ND","ND","0","53","19.6","97.1","0","0"],
    [13017,"2011-10-31T04:00:00","18.7","10.88","19.42","ND","ND","ND","0","299.7","19.7","95.5","0","0"],
    [13018,"2011-10-31T05:00:00","10.6","23.01","20.20","ND","ND","ND","0.2","73.3","19.8","94.9","0","0"],
    [13019,"2011-10-31T06:00:00","44.8","27.57","20.71","ND","ND","ND","0.1","118.1","19.9","93.6","0.2","0.25"],
    [13020,"2011-10-31T07:00:00","24.4","23.90","19.20","ND","ND","ND","0.1","130.7","20.1","87.2","9.1","0"],
    [13021,"2011-10-31T08:00:00","42.1","34.20","21.25","ND","ND","ND","0.3","63.6","20.1","92.4","18.2","0.25"],
    [13022,"2011-10-31T09:00:00","21.7","31.05","18.82","ND","ND","ND","0.4","139.7","20.1","95.3","32","0.25"],
    [13023,"2011-10-31T10:00:00","41.2","19.84","22.45","ND","ND","ND","0.2","267.1","20.5","92.4","87.2","0"],
    [13024,"2011-10-31T11:00:00","21.6","15.17","29.72","ND","ND","ND","0.5","221.8","22.3","81","307.1","0"],
    [13025,"2011-10-31T12:00:00","11.6","16.98","36.94","ND","ND","ND","0.4","275.5","24.3","68.1","563.3","0"],
    [13026,"2011-10-31T13:00:00","7.6","12.70","36.60","ND","ND","ND","0.8","80.6","25.9","58.8","701.7","0"],
    [13027,"2011-10-31T14:00:00","11.8","8.46","22.41","ND","ND","ND","1.5","65.6","26.7","54.6","615.7","0"],
    [13028,"2011-10-31T15:00:00","8.4","11.12","19.66","ND","ND","ND","1","51.1","27.3","54.7","483.6","0"],
    [13029,"2011-10-31T16:00:00","20.8","17.85","13.44","ND","ND","ND","0.9","40.1","27.6","55.6","260.3","0"],
    [13030,"2011-10-31T17:00:00","11.5","35.81","17.02","ND","ND","ND","0.3","212.9","27.7","55.1","186.5","0"],
    [13031,"2011-10-31T18:00:00","11.9","59.01","24.55","ND","ND","ND","0.4","284.2","26.1","59","25.6","0"],
    [13032,"2011-10-31T19:00:00","9.8","49.57","25.88","ND","ND","ND","0.1","285.6","24.4","67.5","0","0"],
    [13033,"2011-10-31T20:00:00","73.6","9.10","26.62","ND","ND","ND","0.2","322.9","23.5","70.8","0","0"],
    [13034,"2011-10-31T21:00:00","61.2","18.07","39.65","ND","ND","ND","0.2","156.1","22.9","74.4","0","0"],
    [13035,"2011-10-31T22:00:00","84.9","18.29","39.18","ND","ND","ND","0.1","222.6","22.2","78.5","0","0"],
    [13036,"2011-10-31T23:00:00","88.8","18.27","37.46","ND","ND","ND","0","266.9","21.2","84.2","0","0"],
    [13037,"2011-11-01T00:00:00","76.4","20.20","33.13","ND","ND","ND","0.1","229.5","20.5","86.1","0","0"],
    [13038,"2011-11-01T01:00:00","41.6","16.83","26.29","ND","ND","ND","0.1","338.7","20.3","85.9","0","0"],
    [13039,"2011-11-01T02:00:00","48.6","11.99","21.80","ND","ND","ND","0.2","354.1","19.9","87.7","0","0"],
    [13040,"2011-11-01T03:00:00","28.1","8.89","20.29","ND","ND","ND","0.3","218.5","19.8","88.1","0","0"],
    [13041,"2011-11-01T04:00:00","42","8.57","21.84","ND","ND","ND","0.3","338.9","19.5","88.7","0","0"],
    [13042,"2011-11-01T05:00:00","31.1","8.69","19.34","ND","ND","ND","0.1","351.6","19.9","87","0","0"],
    [13043,"2011-11-01T06:00:00","67.8","6.85","17.35","ND","ND","ND","0.1","75","19.9","87.7","1.4","0"],
    [13044,"2011-11-01T07:00:00","56.6","9.74","21.53","ND","ND","ND","0.4","273.8","20.2","86.6","63","0"],
    [13045,"2011-11-01T08:00:00","97.5","17.07","24.76","ND","ND","ND","0.1","198.6","22.1","79.6","187.6","0"],
    [13046,"2011-11-01T09:00:00","103","30.10","27.86","ND","ND","ND","0.5","59.3","23.9","69.9","305.2","0"],
    [13047,"2011-11-01T10:00:00","96.7","56.10","56.41","ND","ND","ND","0.9","33.8","25.2","68.7","503.9","0"],
    [13048,"2011-11-01T11:00:00","54.9","49.50","58.95","ND","ND","ND","0.7","57.5","26.6","62.8","484.3","0"],
    [13049,"2011-11-01T12:00:00","62.7","42.60","59.53","ND","ND","ND","1.2","128.6","28.1","55.4","683.2","0"],
    [13050,"2011-11-01T13:00:00","48.6","26.77","35.62","ND","ND","ND","0.8","312.3","29.1","53.1","725.2","0"],
    [13051,"2011-11-01T14:00:00","47.1","24.17","21.82","ND","ND","ND","1.2","36.3","29.8","51.3","606.9","0"],
    [13052,"2011-11-01T15:00:00","58.6","24.71","20.44","ND","ND","ND","1.2","27.5","30","51.2","335.1","0"],
    [13053,"2011-11-01T16:00:00","47.2","33.68","19.53","ND","ND","ND","1.9","279.6","29.4","51.6","196.2","0"],
    [13054,"2011-11-01T17:00:00","25.7","88.01","28.17","ND","ND","ND","0.5","275.6","28.6","51.9","77.2","0"],
    [13055,"2011-11-01T18:00:00","36.2","37.63","19.98","ND","ND","ND","0.5","215.3","27.9","53.8","10.2","0"],
    [13056,"2011-11-01T19:00:00","27.2","19.18","26.47","ND","ND","ND","0.3","27.9","26.6","57.8","0","0"],
    [13057,"2011-11-01T20:00:00","80.3","10.70","34.25","ND","ND","ND","0.6","132.8","26.3","60.1","0","0"],
    [13058,"2011-11-01T21:00:00","76.3","12.40","46.00","ND","ND","ND","0.7","64.8","25.2","65.1","0","0"],
    [13059,"2011-11-01T22:00:00","91.8","15.29","44.59","ND","ND","ND","0.3","165.8","23.6","74.8","0","0"],
    [13060,"2011-11-01T23:00:00","46.5","19.98","40.15","ND","ND","ND","0","152.7","22.8","79.1","0","0"],
    [13061,"2011-11-02T00:00:00","59.4","18.36","27.80","ND","ND","ND","0.3","226.6","22.1","81.9","0","0"],
    [13062,"2011-11-02T01:00:00","39.9","15.15","24.32","ND","ND","ND","0.2","252.7","21.4","84.5","0","0"],
    [13063,"2011-11-02T02:00:00","30.6","12.19","22.98","ND","ND","ND","0.4","223.3","21.2","85.2","0","0"],
    [13064,"2011-11-02T03:00:00","30","8.23","18.48","ND","ND","ND","0.5","354.9","20.9","87","0","0"],
    [13065,"2011-11-02T04:00:00","60.4","6.87","17.57","ND","ND","ND","0.4","242.5","20.6","88.5","0","0"],
    [13066,"2011-11-02T05:00:00","34.5","8.36","16.61","ND","ND","ND","0.1","339.1","20.6","88.5","0","0"],
    [13067,"2011-11-02T06:00:00","37.4","19.10","16.46","ND","ND","ND","0.1","212.1","20.4","88.6","1.1","0"],
    [13068,"2011-11-02T07:00:00","55.3","12.10","14.85","ND","ND","ND","0.4","253.3","20.8","87.8","42.6","0"],
    [13069,"2011-11-02T08:00:00","65.3","10.36","17.83","ND","ND","ND","0.7","132.3","22.9","78.1","223.4","0"],
    [13070,"2011-11-02T09:00:00","64.1","15.43","23.08","ND","ND","ND","1.1","110.4","25.1","67.8","358.8","0"],
    [13071,"2011-11-02T10:00:00","79.2","31.98","35.57","ND","ND","ND","1.4","55.1","25.8","67.9","491.5","0"],
    [13072,"2011-11-02T11:00:00","60.4","35.84","53.10","ND","ND","ND","1.1","66.1","27.4","59.2","687.2","0"],
    [13073,"2011-11-02T12:00:00","60","47.20","57.91","ND","ND","ND","1.2","54.8","28.7","55.7","740.8","0"],
    [13074,"2011-11-02T13:00:00","31.8","54.44","21.97","ND","ND","ND","0.8","31.8","29.9","52.3","541.6","0"],
    [13075,"2011-11-02T14:00:00","28.5","55.40","21.12","ND","ND","ND","1.6","43.5","30.9","48.1","610.2","0"],
    [13076,"2011-11-02T15:00:00","26.2","86.95","23.43","ND","ND","ND","0.9","12.9","30.8","48.3","453.7","0"],
    [13077,"2011-11-02T16:00:00","30.2","78.99","17.32","ND","ND","ND","2.3","276.8","30.6","47.7","336.6","0"],
    [13078,"2011-11-02T17:00:00","15.1","42.20","14.18","ND","ND","ND","1.9","274.1","30.3","47","201.4","0"],
    [13079,"2011-11-02T18:00:00","7.6","13.17","11.65","ND","ND","ND","0.1","227","28.9","50.8","22.5","0"],
    [13080,"2011-11-02T19:00:00","5.4","10.88","13.81","ND","ND","ND","0.3","104.5","27.8","53.8","0","0"],
    [13081,"2011-11-02T20:00:00","43.5","7.11","26.24","ND","ND","ND","0.6","115.1","27.4","55.6","0","0"],
    [13082,"2011-11-02T21:00:00","44.9","7.61","33.05","ND","ND","ND","0.6","97.5","26.8","58.5","0","0"],
    [13083,"2011-11-02T22:00:00","59","8.88","36.19","ND","ND","ND","1","127.9","25.8","64.3","0","0"],
    [13084,"2011-11-02T23:00:00","31.4","9.64","33.46","ND","ND","ND","0.3","218.2","24.5","71.1","0","0"],
    [13085,"2011-11-03T00:00:00","30.8","14.65","25.65","ND","ND","ND","0.1","213.6","23.7","74","0","0"],
    [13086,"2011-11-03T01:00:00","17.2","13.41","20.48","ND","ND","ND","0.1","247.9","23.8","74.8","0","0"],
    [13087,"2011-11-03T02:00:00","12.7","11.98","20.63","ND","ND","ND","0.1","128.6","23.5","76.5","0","0"],
    [13088,"2011-11-03T03:00:00","12.2","9.80","18.66","ND","ND","ND","0.1","309.6","22.9","79.6","0","0"],
    [13089,"2011-11-03T04:00:00","22.2","8.87","18.14","ND","ND","ND","0.1","241.3","22.7","80.9","0","0"],
    [13090,"2011-11-03T05:00:00","20.3","9.18","16.28","ND","ND","ND","0.1","353.1","22.4","82.3","0","0"],
    [13091,"2011-11-03T06:00:00","48.6","9.25","14.99","ND","ND","ND","0.3","251.9","21.8","84.9","0.7","0"],
    [13092,"2011-11-03T07:00:00","34.3","7.49","14.31","ND","ND","ND","0.2","266.5","21.9","84.2","53.9","0"],
    [13093,"2011-11-03T08:00:00","51.2","8.69","16.07","ND","ND","ND","0.2","213.9","23.7","74.6","125.7","0"],
    [13094,"2011-11-03T09:00:00","57.4","13.36","20.93","ND","ND","ND","0.1","210.9","25.2","67.7","291.3","0"],
    [13095,"2011-11-03T10:00:00","76.5","15.78","34.36","ND","ND","ND","1.1","59","26.4","65.6","486.1","0"],
    [13096,"2011-11-03T11:00:00","39.2","14.45","40.23","ND","ND","ND","1","68.1","27.9","60.5","532","0"],
    [13097,"2011-11-03T12:00:00","54.6","21.51","54.43","ND","ND","ND","1.3","49.7","28.3","58.5","514.4","0"],
    [13098,"2011-11-03T13:00:00","46.7","22.47","31.84","ND","ND","ND","1.3","353.5","29.3","54.7","528","0"],
    [13099,"2011-11-03T14:00:00","23.9","55.37","20.62","ND","ND","ND","2.8","292.5","29.6","50.8","483","0"],
    [13100,"2011-11-03T15:00:00","15.8","96.21","21.96","ND","ND","ND","1.6","272.1","29.9","49.3","415.6","0"],
    [13101,"2011-11-03T16:00:00","10.3","13.42","8.12","ND","ND","ND","2.2","271.2","29","51.1","234.8","0"],
    [13102,"2011-11-03T17:00:00","7.7","7.17","9.43","ND","ND","ND","1","233.9","27.9","53.4","83.9","0"],
    [13103,"2011-11-03T18:00:00","6.1","5.11","10.44","ND","ND","ND","0.4","237.4","27.2","55.2","10.4","0"],
    [13104,"2011-11-03T19:00:00","21.4","6.70","14.19","ND","ND","ND","0.6","347.3","26","59.9","0","0"],
    [13105,"2011-11-03T20:00:00","36.6","4.08","17.69","ND","ND","ND","1","199","25.8","60.6","0","0"],
    [13106,"2011-11-03T21:00:00","31.7","10.19","25.89","ND","ND","ND","1","207.8","25.2","64.9","0","0"],
    [13107,"2011-11-03T22:00:00","34.1","12.59","30.80","ND","ND","ND","0.3","325.4","24.1","70.1","0","0"],
    [13108,"2011-11-03T23:00:00","44.1","7.34","26.66","ND","ND","ND","0.4","166.7","24","71.8","0","0"],
    [13109,"2011-11-04T00:00:00","48.2","7.89","24.52","ND","ND","ND","0.2","108.3","24.2","70.1","0","0"],
    [13110,"2011-11-04T01:00:00","25.3","15.42","25.02","ND","ND","ND","0.4","90.8","23.5","73.8","0","0"],
    [13111,"2011-11-04T02:00:00","32.6","17.78","25.92","ND","ND","ND","0.4","176.1","23.5","74.3","0","0"],
    [13112,"2011-11-04T03:00:00","22.2","22.58","20.31","ND","ND","ND","0.9","154.9","23.2","76.7","0","0"],
    [13113,"2011-11-04T04:00:00","14","20.26","20.46","ND","ND","ND","0.5","255.3","22.2","81.5","0","0"],
    [13114,"2011-11-04T05:00:00","7.7","17.60","18.36","ND","ND","ND","0.4","268","22.3","81.1","0","0"],
    [13115,"2011-11-04T06:00:00","28.3","9.40","15.92","ND","ND","ND","0.4","43","22.2","82.4","0.2","0"],
    [13116,"2011-11-04T07:00:00","27.1","6.85","15.47","ND","ND","ND","0.6","331.7","21.9","84.4","23.4","0"],
    [13117,"2011-11-04T08:00:00","44.7","8.06","17.39","ND","ND","ND","0.1","359.1","22.8","80.7","96","0"],
    [13118,"2011-11-04T09:00:00","64.6","26.48","19.84","ND","ND","ND","1","138.9","25","71","413.2","0"],
    [13119,"2011-11-04T10:00:00","47.7","47.32","29.25","ND","ND","ND","0.4","97.2","27","62.5","592.1","0"],
    [13120,"2011-11-04T11:00:00","27.5","42.71","36.46","ND","ND","ND","1.5","112.5","27.9","59","394.9","0"],
    [13121,"2011-11-04T12:00:00","48.3","21.30","29.93","ND","ND","ND","0.4","168.3","27.7","59.7","249.8","0"],
    [13122,"2011-11-04T13:00:00","26","15.60","25.83","ND","ND","ND","0.6","279.8","29.3","53.6","614.9","0"],
    [13123,"2011-11-04T14:00:00","14.8","13.61","18.28","ND","ND","ND","1.1","332.5","30.8","47.5","801.4","0"],
    [13124,"2011-11-04T15:00:00","8.5","20.25","15.03","ND","ND","ND","3","49.4","29.5","55.3","372.4","0"],
    [13125,"2011-11-04T16:00:00","27.6","10.24","8.28","ND","ND","ND","1.2","55.3","27.6","62.6","87.2","0"],
    [13126,"2011-11-04T17:00:00","14.3","25.32","16.49","ND","ND","ND","1.8","251","27.4","57.6","54.5","0"],
    [13127,"2011-11-04T18:00:00","8.6","6.50","19.86","ND","ND","ND","0.8","124.8","27.5","56.8","14.8","0"],
    [13128,"2011-11-04T19:00:00","46.1","5.55","15.63","ND","ND","ND","1.4","166.1","26.3","63.3","0","0"],
    [13129,"2011-11-04T20:00:00","66.8","7.34","28.36","ND","ND","ND","0.2","310.1","25.2","67.7","0","0"],
    [13130,"2011-11-04T21:00:00","70","16.73","42.61","ND","ND","ND","0.5","84.7","24.7","71.9","0","0"],
    [13131,"2011-11-04T22:00:00","73.5","16.18","37.93","ND","ND","ND","0.2","27.6","23.4","81.1","0","0"],
    [13132,"2011-11-04T23:00:00","67.8","18.95","43.22","ND","ND","ND","0.5","298.4","23","80.7","0","0"],
    [13133,"2011-11-05T00:00:00","77.7","12.44","48.98","ND","ND","ND","0.4","281.8","22.8","81.5","0","0"],
    [13134,"2011-11-05T01:00:00","50.1","19.66","39.69","ND","ND","ND","0.2","358.9","22.3","82.3","0","0"],
    [13135,"2011-11-05T02:00:00","66.8","14.93","37.25","ND","ND","ND","0.2","206.8","22","82.8","0","0"],
    [13136,"2011-11-05T03:00:00","46.5","14.06","29.74","ND","ND","ND","0.9","183.7","22.5","80.2","0","0"],
    [13137,"2011-11-05T04:00:00","39.3","15.04","23.05","ND","ND","ND","0.6","29.9","21.1","85.9","0","0"],
    [13138,"2011-11-05T05:00:00","21.5","13.08","26.88","ND","ND","ND","1.3","218.3","21.1","85.7","0","0"],
    [13139,"2011-11-05T06:00:00","23.6","11.17","19.63","ND","ND","ND","0.8","185.6","21.5","85.1","0.9","0"],
    [13140,"2011-11-05T07:00:00","33.4","14.40","17.78","ND","ND","ND","1","13.5","20.7","86.8","42.7","0"],
    [13141,"2011-11-05T08:00:00","56.8","10.48","21.66","ND","ND","ND","1.4","52.6","21.4","84.4","131.6","0"],
    [13142,"2011-11-05T09:00:00","64.5","18.46","22.44","ND","ND","ND","1.3","69.2","24","73.8","442.5","0"],
    [13143,"2011-11-05T10:00:00","58.6","41.76","28.08","ND","ND","ND","1","75.6","25.7","66.3","554","0"],
    [13144,"2011-11-05T11:00:00","30.3","ND","43.63","ND","ND","ND","0.9","80.5","27.2","61","611.7","0"],
    [13145,"2011-11-05T12:00:00","35.8","92.94","20.00","ND","ND","ND","0.8","94.2","28.3","56.5","560.6","0"],
    [13146,"2011-11-05T13:00:00","19.4","48.11","19.65","ND","ND","ND","1","353.3","29","53.8","624.3","0"],
    [13147,"2011-11-05T14:00:00","34.2","51.75","19.39","ND","ND","ND","0.8","345.1","30.5","49.7","705.1","0"],
    [13148,"2011-11-05T15:00:00","18.6","46.46","16.23","ND","ND","ND","0.2","283.6","31.4","46.5","429","0"],
    [13149,"2011-11-05T16:00:00","28.6","47.64","15.06","ND","ND","ND","3.9","279.4","28.4","55","33.8","0"],
    [13150,"2011-11-05T17:00:00","14.9","89.57","19.26","ND","ND","ND","3","282.6","27.9","53.3","30.4","0"],
    [13151,"2011-11-05T18:00:00","16.4","20.66","10.08","ND","ND","ND","0.5","107.7","27.9","52.9","12.2","0"],
    [13152,"2011-11-05T19:00:00","9.7","10.64","9.36","ND","ND","ND","0.7","319.3","26.8","56.3","0","0"],
    [13153,"2011-11-05T20:00:00","46.1","12.60","24.99","ND","ND","ND","1","153.6","26","61.9","0","0"],
    [13154,"2011-11-05T21:00:00","47.9","9.07","28.48","ND","ND","ND","0.3","279.7","25.4","65.2","0","0"],
    [13155,"2011-11-05T22:00:00","79.5","26.89","30.63","ND","ND","ND","0.2","101.2","24.6","68.5","0","0"],
    [13156,"2011-11-05T23:00:00","68.3","27.66","31.75","ND","ND","ND","0.1","352.3","23.8","72","0","0"],
    [13157,"2011-11-06T00:00:00","62","30.87","30.71","ND","ND","ND","0.4","94.4","23.6","72.9","0","0"],
    [13158,"2011-11-06T01:00:00","43.4","24.85","29.88","ND","ND","ND","0.1","270.5","22.9","75.4","0","0"],
    [13159,"2011-11-06T02:00:00","30.7","20.55","30.45","ND","ND","ND","0.4","209.6","23.1","75","0","0"],
    [13160,"2011-11-06T03:00:00","24","14.92","27.64","ND","ND","ND","0.2","46.8","23.1","74.9","0","0"],
    [13161,"2011-11-06T04:00:00","26.5","12.86","25.79","ND","ND","ND","0.8","159.5","22.6","78","0","0"],
    [13162,"2011-11-06T05:00:00","15","15.72","25.17","ND","ND","ND","0.3","46.8","22.2","81.3","0","0"],
    [13163,"2011-11-06T06:00:00","9.7","10.02","16.49","ND","ND","ND","0.7","199.5","22.2","82.3","0.2","0"],
    [13164,"2011-11-06T07:00:00","6.2","11.45","20.56","ND","ND","ND","0.7","202","22.3","82.2","7.5","0"],
    [13165,"2011-11-06T08:00:00","23.6","12.49","21.44","ND","ND","ND","0.4","168","22.9","79.7","89.4","0"],
    [13166,"2011-11-06T09:00:00","22.9","10.67","16.85","ND","ND","ND","0.6","41.7","24.3","76.2","313.4","0"],
    [13167,"2011-11-06T10:00:00","45.8","14.56","19.77","ND","ND","ND","1","80.8","25.9","69.3","474.3","0"],
    [13168,"2011-11-06T11:00:00","34.1","19.82","25.48","ND","ND","ND","1.2","54.4","26.2","67.6","332.9","0"],
    [13169,"2011-11-06T12:00:00","37.8","108.28","32.85","ND","ND","ND","2.4","274.5","24.2","73.7","82.6","7.87"],
    [13170,"2011-11-06T13:00:00","20","35.10","17.36","ND","ND","ND","1.6","359.5","22.4","88.4","205.4","6.86"],
    [13171,"2011-11-06T14:00:00","43.4","16.99","10.38","ND","ND","ND","0.6","45.5","25.3","74.8","483.6","0"],
    [13172,"2011-11-06T15:00:00","23.8","26.20","15.44","ND","ND","ND","1","250.2","28.5","55.3","586.8","0"],
    [13173,"2011-11-06T16:00:00","14.2","54.35","18.26","ND","ND","ND","1.1","266.8","27.9","55.4","178.6","0"],
    [13174,"2011-11-06T17:00:00","8.3","21.85","6.60","ND","ND","ND","0.9","27.4","28.1","51.8","117.2","0"],
    [13175,"2011-11-06T18:00:00","16.4","7.73","6.62","ND","ND","ND","0.6","15.5","26.2","60.1","11.2","0"],
    [13176,"2011-11-06T19:00:00","10.1","24.57","12.37","ND","ND","ND","1.4","185.7","25.8","62.5","0","0"],
    [13177,"2011-11-06T20:00:00","28.7","39.38","26.14","ND","ND","ND","0.2","242.5","25.2","60.3","0","0"],
    [13178,"2011-11-06T21:00:00","16.4","35.79","31.44","ND","ND","ND","0.9","350.5","24.3","68.6","0","0"],
    [13179,"2011-11-06T22:00:00","30.2","11.50","25.25","ND","ND","ND","0.6","182.5","23.5","71.7","0","0"],
    [13180,"2011-11-06T23:00:00","27.9","13.58","31.07","ND","ND","ND","0.2","355.5","22.9","75","0","0"],
    [13181,"2011-11-07T00:00:00","38.6","16.03","32.13","ND","ND","ND","0.2","282.1","22.3","78.7","0","0"],
    [13182,"2011-11-07T01:00:00","20","13.16","30.87","ND","ND","ND","0.2","237.9","21.7","83","0","0"],
    [13183,"2011-11-07T02:00:00","35.1","13.94","27.60","ND","ND","ND","0.3","173.7","22.3","80","0","0"],
    [13184,"2011-11-07T03:00:00","31.9","10.85","25.42","ND","ND","ND","0.7","165.3","22.3","79.7","0","0"],
    [13185,"2011-11-07T04:00:00","28.7","10.07","26.73","ND","ND","ND","0.2","288","21.2","84","0","0"],
    [13186,"2011-11-07T05:00:00","16.1","9.70","24.51","ND","ND","ND","0.3","32.2","21.3","83.3","0","0"],
    [13187,"2011-11-07T06:00:00","29.3","6.99","19.98","ND","ND","ND","0.5","346.7","21.3","83.1","0.9","0"],
    [13188,"2011-11-07T07:00:00","26.2","5.98","18.67","ND","ND","ND","0.4","41.7","21.2","86.5","42.5","0"],
    [13189,"2011-11-07T08:00:00","39.3","8.72","20.47","ND","ND","ND","0.7","185.3","22.7","81.6","201.2","0"],
    [13190,"2011-11-07T09:00:00","22.3","13.23","21.21","ND","ND","ND","1.2","127.7","24.9","69.7","434.2","0"],
    [13191,"2011-11-07T10:00:00","29.1","14.09","24.14","ND","ND","ND","1","151.7","26.4","62.7","520.4","0"],
    [13192,"2011-11-07T11:00:00","17.2","20.90","18.94","ND","ND","ND","1.3","135.5","27.7","58.7","600.7","0"],
    [13193,"2011-11-07T12:00:00","21.8","30.38","16.31","ND","ND","ND","0.2","155","28.4","56.3","432.4","0"],
    [13194,"2011-11-07T13:00:00","18.1","27.40","14.74","ND","ND","ND","1.1","164.9","29.6","52.1","544.6","0"],
    [13195,"2011-11-07T14:00:00","21.6","20.78","13.64","ND","ND","ND","0.9","248.8","29.8","50.7","316.7","0"],
    [13196,"2011-11-07T15:00:00","11.4","19.36","14.26","ND","ND","ND","3","211.8","27.3","61.9","126.5","0"],
    [13197,"2011-11-07T16:00:00","24.4","19.06","12.77","ND","ND","ND","1","208.1","26.4","61.4","92.2","0"],
    [13198,"2011-11-07T17:00:00","22.4","8.13","11.33","ND","ND","ND","1.1","276.9","27.1","55","70.3","0"],
    [13199,"2011-11-07T18:00:00","22.9","4.49","13.26","ND","ND","ND","1.4","125.1","25.1","65.5","9.5","0"],
    [13200,"2011-11-07T19:00:00","20.2","5.43","11.83","ND","ND","ND","0.4","136.3","24.1","70.6","0","0"],
    [13201,"2011-11-07T20:00:00","32","5.85","21.82","ND","ND","ND","1.5","123.4","24.8","67.6","0","0"],
    [13202,"2011-11-07T21:00:00","34.9","8.04","41.63","ND","ND","ND","0.8","98.6","24.2","72.2","0","0"],
    [13203,"2011-11-07T22:00:00","38.2","42.10","37.06","ND","ND","ND","0.1","336.7","23.9","73.7","0","0"],
    [13204,"2011-11-07T23:00:00","19.7","29.71","33.35","ND","ND","ND","0.3","193.3","23.3","75.6","0","0"],
    [13205,"2011-11-08T00:00:00","22.5","17.04","33.46","ND","ND","ND","1.2","184.3","22.6","78.4","0","0"],
    [13206,"2011-11-08T01:00:00","13","13.31","27.61","ND","ND","ND","0.8","167.9","22.4","80.5","0","0"],
    [13207,"2011-11-08T02:00:00","8.8","6.08","15.78","ND","ND","ND","0.7","143","22.2","84.1","0","0"],
    [13208,"2011-11-08T03:00:00","6.6","4.15","8.02","ND","ND","ND","1.2","163.2","21.5","90","0","0"],
    [13209,"2011-11-08T04:00:00","4.2","3.91","12.43","ND","ND","ND","1.6","164.7","21","92","0","0.76"],
    [13210,"2011-11-08T05:00:00","2.9","3.00","8.21","ND","ND","ND","1.2","155.4","20.7","93.1","0","0.51"],
    [13211,"2011-11-08T06:00:00","2.9","3.02","7.09","ND","ND","ND","0.6","145.5","20.5","95.1","0","15.24"],
    [13212,"2011-11-08T07:00:00","2.9","2.76","8.98","ND","ND","ND","0.7","164.2","20","98.9","3.4","47.75"],
    [13213,"2011-11-08T08:00:00","1.4","2.96","18.43","ND","ND","ND","1.6","191.5","19.6","99.9","9.5","23.62"],
    [13214,"2011-11-08T09:00:00","1.8","3.65","25.74","ND","ND","ND","1.1","210.9","19.5","100","15.3","18.54"],
    [13215,"2011-11-08T10:00:00","1.8","4.81","26.58","ND","ND","ND","0.7","258.7","19.9","100","69.6","5.84"],
    [13216,"2011-11-08T11:00:00","0.9","4.15","27.95","ND","ND","ND","0.3","265","20.9","96","203.3","0.25"],
    [13217,"2011-11-08T12:00:00","0.4","3.51","22.79","ND","ND","ND","0.1","102.2","22.5","84.1","250.1","0"],
    [13218,"2011-11-08T13:00:00","2.8","4.86","20.69","ND","ND","ND","0.9","294.3","23.5","77.7","365.3","0"],
    [13219,"2011-11-08T14:00:00","3","5.81","28.33","ND","ND","ND","0.7","324.7","24","73.3","368.5","0"],
    [13220,"2011-11-08T15:00:00","3.8","5.43","23.07","ND","ND","ND","0.4","325.3","25.1","68.1","281.5","0"],
    [13221,"2011-11-08T16:00:00","4","4.32","17.90","ND","ND","ND","0.9","21.1","24.8","69.3","130.6","0"],
    [13222,"2011-11-08T17:00:00","4","5.26","29.14","ND","ND","ND","1.7","34.9","23.9","77.4","76.4","0"],
    [13223,"2011-11-08T18:00:00","25.3","50.91","32.43","ND","ND","ND","1.1","3.7","23","79.6","13","0"],
    [13224,"2011-11-08T19:00:00","19.7","43.41","28.47","ND","ND","ND","0.4","103.2","23","81.9","0","0"],
    [13225,"2011-11-08T20:00:00","41.1","31.57","36.72","ND","ND","ND","1.2","150.4","22.2","85.7","0","0"],
    [13226,"2011-11-08T21:00:00","31.8","150.96","48.32","ND","ND","ND","0.4","113.8","22.1","85.4","0","0.51"],
    [13227,"2011-11-08T22:00:00","55.4","43.49","51.53","ND","ND","ND","0.1","165.2","21.5","89.8","0","0.51"],
    [13228,"2011-11-08T23:00:00","29.1","21.54","47.46","ND","ND","ND","0","168.3","21.5","91.8","0","0"],
    [13229,"2011-11-09T00:00:00","29.2","12.33","44.47","ND","ND","ND","0.4","26.6","21.2","94.6","0","0"],
    [13230,"2011-11-09T01:00:00","23.1","9.91","42.58","ND","ND","ND","0.2","66.3","21.1","95.1","0","0"],
    [13231,"2011-11-09T02:00:00","27.3","8.82","35.08","ND","ND","ND","0.8","105.5","20.7","94.9","0","1.52"],
    [13232,"2011-11-09T03:00:00","16","8.88","33.12","ND","ND","ND","0.2","277.3","20.5","95.7","0","6.86"],
    [13233,"2011-11-09T04:00:00","8","7.38","14.67","ND","ND","ND","0.2","342.8","20.1","96.7","0","7.11"],
    [13234,"2011-11-09T05:00:00","20.7","5.72","13.00","ND","ND","ND","0.1","23.9","20.3","96.6","0","0.51"],
    [13235,"2011-11-09T06:00:00","11.2","5.21","11.72","ND","ND","ND","0","142.2","20.4","96.2","0.3","0"],
    [13236,"2011-11-09T07:00:00","7","6.06","19.92","ND","ND","ND","0.1","20.3","20.5","95.9","6","0.25"],
    [13237,"2011-11-09T08:00:00","27.7","6.32","24.02","ND","ND","ND","0.3","1.4","20.7","95.7","50.8","1.52"],
    [13238,"2011-11-09T09:00:00","17.7","9.37","23.98","ND","ND","ND","0.9","298.6","21.5","90.8","145.7","0"],
    [13239,"2011-11-09T10:00:00","34","15.41","27.81","ND","ND","ND","0.1","65","23.3","80.1","415.3","0"],
    [13240,"2011-11-09T11:00:00","17.7","19.20","28.99","ND","ND","ND","0.5","217.1","25.4","70","498.3","0"],
    [13241,"2011-11-09T12:00:00","33.3","19.99","28.82","ND","ND","ND","0.7","97.8","26.3","64.8","462.5","0"],
    [13242,"2011-11-09T13:00:00","18.6","22.00","30.19","ND","ND","ND","0.5","178.1","26.8","59.4","318.5","0"],
    [13243,"2011-11-09T14:00:00","29.9","14.52","24.39","ND","ND","ND","1.5","309.4","27.5","58.4","487.1","0"],
    [13244,"2011-11-09T15:00:00","28.6","10.99","14.95","ND","ND","ND","1.6","308.3","27.4","56.9","309","0"],
    [13245,"2011-11-09T16:00:00","35.5","13.15","21.11","ND","ND","ND","1.1","324.9","27.6","55.5","284.4","0"],
    [13246,"2011-11-09T17:00:00","31.1","18.32","22.72","ND","ND","ND","0.2","348.6","27.4","57.4","109.1","0"],
    [13247,"2011-11-09T18:00:00","44.5","12.52","19.67","ND","ND","ND","0.8","257.3","26.3","59.9","11","0"],
    [13248,"2011-11-09T19:00:00","24","18.40","30.06","ND","ND","ND","0.4","67.7","25.7","62.6","0","0"],
    [13249,"2011-11-09T20:00:00","40.6","7.35","23.99","ND","ND","ND","1.4","128.4","24.5","73.8","0","0"],
    [13250,"2011-11-09T21:00:00","26.7","7.59","35.42","ND","ND","ND","3.4","190.3","23.7","76.8","0","0"],
    [13251,"2011-11-09T22:00:00","44.9","13.70","36.38","ND","ND","ND","2.3","185.1","23","80.6","0","0"],
    [13252,"2011-11-09T23:00:00","29","10.72","27.56","ND","ND","ND","1.4","177.3","22.3","82.3","0","0"],
    [13253,"2011-11-10T00:00:00","26.7","7.32","31.95","ND","ND","ND","1.4","145.1","22","84.7","0","0"],
    [13254,"2011-11-10T01:00:00","15.3","5.19","25.56","ND","ND","ND","0.5","102.8","21.3","87.7","0","0"],
    [13255,"2011-11-10T02:00:00","10.1","4.45","25.43","ND","ND","ND","0.5","45.9","20.9","88.9","0","0"],
    [13256,"2011-11-10T03:00:00","25.8","4.21","23.20","ND","ND","ND","0.2","78.7","20.6","90.9","0","0"],
    [13257,"2011-11-10T04:00:00","17.9","10.69","20.00","ND","ND","ND","0.7","37.1","20","93.6","0","0"],
    [13258,"2011-11-10T05:00:00","13.6","17.21","18.93","ND","ND","ND","0.2","5.4","20.2","92.8","0","0"],
    [13259,"2011-11-10T06:00:00","38.3","12.12","18.09","ND","ND","ND","0.3","96.4","20.5","92.5","0.7","0.25"],
    [13260,"2011-11-10T07:00:00","52.4","24.16","25.36","ND","ND","ND","0","321.4","20.8","90.6","36.6","0"],
    [13261,"2011-11-10T08:00:00","54.3","37.02","31.49","ND","ND","ND","0.3","117.4","21.9","85.1","147.3","0"],
    [13262,"2011-11-10T09:00:00","63.2","67.34","41.08","ND","ND","ND","0.7","79.8","23.7","75.7","376.4","0"],
    [13263,"2011-11-10T10:00:00","40.2","92.33","57.46","ND","ND","ND","0.9","55.2","25.4","67.3","587.1","0"],
    [13264,"2011-11-10T11:00:00","24.3","160.78","63.67","ND","ND","ND","0.7","60","26.6","62.4","625.1","0"],
    [13265,"2011-11-10T12:00:00","19","87.80","19.41","ND","ND","ND","0.4","351.5","27.9","56.9","700.5","0"],
    [13266,"2011-11-10T13:00:00","10.1","29.71","12.74","ND","ND","ND","1","190.2","29","52.7","597","0"],
    [13267,"2011-11-10T14:00:00","26.3","30.01","13.40","ND","ND","ND","1","286.4","29.3","52.1","481.2","0"],
    [13268,"2011-11-10T15:00:00","20.3","28.28","16.95","ND","ND","ND","2.6","243.9","29.4","51.7","510.2","0"],
    [13269,"2011-11-10T16:00:00","ND","26.46","16.53","ND","ND","ND","ND","ND","ND","ND","ND","ND"],
    [13270,"2011-11-10T17:00:00","ND","ND","ND","ND","ND","ND","ND","ND","ND","ND","ND","ND"],
    [13271,"2011-11-10T18:00:00","ND","ND","ND","ND","ND","ND","ND","ND","ND","ND","ND","ND"],
    [13272,"2011-11-10T19:00:00","ND","ND","ND","ND","ND","ND","ND","ND","ND","ND","ND","ND"],
    [13273,"2011-11-10T20:00:00","ND","ND","ND","ND","ND","ND","ND","ND","ND","ND","ND","ND"],
    [13274,"2011-11-10T21:00:00","ND","ND","ND","ND","ND","ND","ND","ND","ND","ND","ND","ND"],
    [13275,"2011-11-10T22:00:00","ND","ND","ND","ND","ND","ND","ND","ND","ND","ND","ND","ND"],
    [13276,"2011-11-10T23:00:00","ND","ND","ND","ND","ND","ND","ND","ND","ND","ND","ND","ND"],
    [13277,"2011-11-11T00:00:00","ND","ND","ND","ND","ND","ND","ND","ND","ND","ND","ND","ND"],
    [13278,"2011-11-11T01:00:00","ND","ND","ND","ND","ND","ND","ND","ND","ND","ND","ND","ND"],
    [13279,"2011-11-11T02:00:00","ND","ND","ND","ND","ND","ND","ND","ND","ND","ND","ND","ND"],
    [13280,"2011-11-11T03:00:00","ND","ND","ND","ND","ND","ND","ND","ND","ND","ND","ND","ND"],
    [13281,"2011-11-11T04:00:00","ND","ND","ND","ND","ND","ND","ND","ND","ND","ND","ND","ND"],
    [13282,"2011-11-11T05:00:00","ND","ND","ND","ND","ND","ND","ND","ND","ND","ND","ND","ND"],
    [13283,"2011-11-11T06:00:00","ND","ND","ND","ND","ND","ND","ND","ND","ND","ND","ND","ND"],
    [13284,"2011-11-11T07:00:00","ND","ND","ND","ND","ND","ND","ND","ND","ND","ND","ND","ND"],
    [13285,"2011-11-11T08:00:00","ND","ND","ND","ND","ND","ND","ND","ND","ND","ND","ND","ND"],
    [13286,"2011-11-11T09:00:00","ND","ND","ND","ND","ND","ND","ND","ND","ND","ND","ND","ND"],
    [13287,"2011-11-11T10:00:00","ND","ND","ND","ND","ND","ND","ND","ND","ND","ND","ND","ND"],
    [13288,"2011-11-11T11:00:00","ND","ND","ND","ND","ND","ND","ND","ND","ND","ND","ND","ND"],
    [13289,"2011-11-11T12:00:00","ND","ND","ND","ND","ND","ND","ND","ND","ND","ND","ND","ND"],
    [13290,"2011-11-11T13:00:00","ND","ND","ND","ND","ND","ND","ND","ND","ND","ND","ND","ND"],
    [13291,"2011-11-11T14:00:00","ND","ND","ND","ND","ND","ND","ND","ND","ND","ND","ND","ND"],
    [13292,"2011-11-11T15:00:00","ND","ND","ND","ND","ND","ND","ND","ND","ND","ND","ND","ND"],
    [13293,"2011-11-11T16:00:00","ND","ND","ND","ND","ND","ND","ND","ND","ND","ND","ND","ND"],
    [13294,"2011-11-11T17:00:00","ND","ND","ND","ND","ND","ND","ND","ND","ND","ND","ND","ND"],
    [13295,"2011-11-11T18:00:00","ND","ND","ND","ND","ND","ND","ND","ND","ND","ND","ND","ND"],
    [13296,"2011-11-11T19:00:00","ND","ND","ND","ND","ND","ND","ND","ND","ND","ND","ND","ND"],
    [13297,"2011-11-11T20:00:00","ND","ND","ND","ND","ND","ND","ND","ND","ND","ND","ND","ND"],
    [13298,"2011-11-11T21:00:00","ND","ND","ND","ND","ND","ND","ND","ND","ND","ND","ND","ND"],
    [13299,"2011-11-11T22:00:00","ND","ND","ND","ND","ND","ND","ND","ND","ND","ND","ND","ND"],
    [13300,"2011-11-11T23:00:00","ND","ND","ND","ND","ND","ND","ND","ND","ND","ND","ND","ND"],
    [13301,"2011-11-12T00:00:00","ND","ND","ND","ND","ND","ND","ND","ND","ND","ND","ND","ND"],
    [13302,"2011-11-12T01:00:00","ND","ND","ND","ND","ND","ND","ND","ND","ND","ND","ND","ND"],
    [13303,"2011-11-12T02:00:00","ND","ND","ND","ND","ND","ND","ND","ND","ND","ND","ND","ND"],
    [13304,"2011-11-12T03:00:00","ND","ND","ND","ND","ND","ND","ND","ND","ND","ND","ND","ND"],
    [13305,"2011-11-12T04:00:00","ND","ND","ND","ND","ND","ND","ND","ND","ND","ND","ND","ND"],
    [13306,"2011-11-12T05:00:00","ND","ND","ND","ND","ND","ND","ND","ND","ND","ND","ND","ND"],
    [13307,"2011-11-12T06:00:00","ND","ND","ND","ND","ND","ND","ND","ND","ND","ND","ND","ND"],
    [13308,"2011-11-12T07:00:00","ND","ND","ND","ND","ND","ND","ND","ND","ND","ND","ND","ND"],
    [13309,"2011-11-12T08:00:00","ND","ND","ND","ND","ND","ND","ND","ND","ND","ND","ND","ND"],
    [13310,"2011-11-12T09:00:00","ND","ND","ND","ND","ND","ND","ND","ND","ND","ND","ND","ND"],
    [13311,"2011-11-12T10:00:00","ND","ND","ND","ND","ND","ND","ND","ND","ND","ND","ND","ND"],
    [13312,"2011-11-12T11:00:00","ND","ND","ND","ND","ND","ND","ND","ND","ND","ND","ND","ND"],
    [13313,"2011-11-12T12:00:00","ND","ND","ND","ND","ND","ND","ND","ND","ND","ND","ND","ND"],
    [13314,"2011-11-12T13:00:00","ND","ND","ND","ND","ND","ND","ND","ND","ND","ND","ND","ND"],
    [13315,"2011-11-12T14:00:00","ND","ND","ND","ND","ND","ND","ND","ND","ND","ND","ND","ND"],
    [13316,"2011-11-12T15:00:00","ND","ND","ND","ND","ND","ND","ND","ND","ND","ND","ND","ND"],
    [13317,"2011-11-12T16:00:00","ND","ND","ND","ND","ND","ND","ND","ND","ND","ND","ND","ND"],
    [13318,"2011-11-12T17:00:00","ND","ND","ND","ND","ND","ND","ND","ND","ND","ND","ND","ND"],
    [13319,"2011-11-12T18:00:00","ND","ND","ND","ND","ND","ND","ND","ND","ND","ND","ND","ND"],
    [13320,"2011-11-12T19:00:00","ND","ND","ND","ND","ND","ND","ND","ND","ND","ND","ND","ND"],
    [13321,"2011-11-12T20:00:00","ND","ND","ND","ND","ND","ND","ND","ND","ND","ND","ND","ND"],
    [13322,"2011-11-12T21:00:00","ND","ND","ND","ND","ND","ND","ND","ND","ND","ND","ND","ND"],
    [13323,"2011-11-12T22:00:00","ND","ND","ND","ND","ND","ND","ND","ND","ND","ND","ND","ND"],
    [13324,"2011-11-12T23:00:00","ND","ND","ND","ND","ND","ND","ND","ND","ND","ND","ND","ND"],
    [13325,"2011-11-13T00:00:00","ND","ND","ND","ND","ND","ND","ND","ND","ND","ND","ND","ND"],
    [13326,"2011-11-13T01:00:00","ND","ND","ND","ND","ND","ND","ND","ND","ND","ND","ND","ND"],
    [13327,"2011-11-13T02:00:00","ND","ND","ND","ND","ND","ND","ND","ND","ND","ND","ND","ND"],
    [13328,"2011-11-13T03:00:00","ND","ND","ND","ND","ND","ND","ND","ND","ND","ND","ND","ND"],
    [13329,"2011-11-13T04:00:00","ND","ND","ND","ND","ND","ND","ND","ND","ND","ND","ND","ND"],
    [13330,"2011-11-13T05:00:00","ND","ND","ND","ND","ND","ND","ND","ND","ND","ND","ND","ND"],
    [13331,"2011-11-13T06:00:00","ND","ND","ND","ND","ND","ND","ND","ND","ND","ND","ND","ND"],
    [13332,"2011-11-13T07:00:00","ND","ND","ND","ND","ND","ND","ND","ND","ND","ND","ND","ND"],
    [13333,"2011-11-13T08:00:00","ND","ND","ND","ND","ND","ND","ND","ND","ND","ND","ND","ND"],
    [13334,"2011-11-13T09:00:00","ND","ND","ND","ND","ND","ND","ND","ND","ND","ND","ND","ND"],
    [13335,"2011-11-13T10:00:00","ND","ND","ND","ND","ND","ND","ND","ND","ND","ND","ND","ND"],
    [13336,"2011-11-13T11:00:00","ND","ND","ND","ND","ND","ND","ND","ND","ND","ND","ND","ND"],
    [13337,"2011-11-13T12:00:00","ND","ND","ND","ND","ND","ND","ND","ND","ND","ND","ND","ND"],
    [13338,"2011-11-13T13:00:00","ND","ND","ND","ND","ND","ND","ND","ND","ND","ND","ND","ND"],
    [13339,"2011-11-13T14:00:00","ND","ND","ND","ND","ND","ND","ND","ND","ND","ND","ND","ND"],
    [13340,"2011-11-13T15:00:00","ND","ND","ND","ND","ND","ND","ND","ND","ND","ND","ND","ND"],
    [13341,"2011-11-13T16:00:00","ND","ND","ND","ND","ND","ND","ND","ND","ND","ND","ND","ND"],
    [13342,"2011-11-13T17:00:00","ND","ND","ND","ND","ND","ND","ND","ND","ND","ND","ND","ND"],
    [13343,"2011-11-13T18:00:00","ND","ND","ND","ND","ND","ND","ND","ND","ND","ND","ND","ND"],
    [13344,"2011-11-13T19:00:00","ND","ND","ND","ND","ND","ND","ND","ND","ND","ND","ND","ND"],
    [13345,"2011-11-13T20:00:00","ND","ND","ND","ND","ND","ND","ND","ND","ND","ND","ND","ND"],
    [13346,"2011-11-13T21:00:00","ND","ND","ND","ND","ND","ND","ND","ND","ND","ND","ND","ND"],
    [13347,"2011-11-13T22:00:00","ND","ND","ND","ND","ND","ND","ND","ND","ND","ND","ND","ND"],
    [13348,"2011-11-13T23:00:00","ND","ND","ND","ND","ND","ND","ND","ND","ND","ND","ND","ND"],
    [13349,"2011-11-14T00:00:00","ND","ND","ND","ND","ND","ND","ND","ND","ND","ND","ND","ND"],
    [13350,"2011-11-14T01:00:00","ND","ND","ND","ND","ND","ND","ND","ND","ND","ND","ND","ND"],
    [13351,"2011-11-14T02:00:00","ND","ND","ND","ND","ND","ND","ND","ND","ND","ND","ND","ND"],
    [13352,"2011-11-14T03:00:00","ND","ND","ND","ND","ND","ND","ND","ND","ND","ND","ND","ND"],
    [13353,"2011-11-14T04:00:00","ND","ND","ND","ND","ND","ND","ND","ND","ND","ND","ND","ND"],
    [13354,"2011-11-14T05:00:00","ND","ND","ND","ND","ND","ND","ND","ND","ND","ND","ND","ND"],
    [13355,"2011-11-14T06:00:00","ND","ND","ND","ND","ND","ND","ND","ND","ND","ND","ND","ND"],
    [13356,"2011-11-14T07:00:00","ND","ND","ND","ND","ND","ND","ND","ND","ND","ND","ND","ND"],
    [13357,"2011-11-14T08:00:00","ND","ND","ND","ND","ND","ND","ND","ND","ND","ND","ND","ND"],
    [13358,"2011-11-14T09:00:00","ND","ND","ND","ND","ND","ND","ND","ND","ND","ND","ND","ND"],
    [13359,"2011-11-14T10:00:00","ND","ND","ND","ND","ND","ND","ND","ND","ND","ND","ND","ND"],
    [13360,"2011-11-14T11:00:00","ND","ND","ND","ND","ND","ND","ND","ND","ND","ND","ND","ND"],
    [13361,"2011-11-14T12:00:00","ND","ND","ND","ND","ND","ND","ND","ND","ND","ND","ND","ND"],
    [13362,"2011-11-14T13:00:00","ND","ND","ND","ND","ND","ND","ND","ND","ND","ND","ND","ND"],
    [13363,"2011-11-14T14:00:00","ND","ND","ND","ND","ND","ND","ND","ND","ND","ND","ND","ND"],
    [13364,"2011-11-14T15:00:00","ND","ND","ND","ND","ND","ND","ND","ND","ND","ND","ND","ND"],
    [13365,"2011-11-14T16:00:00","ND","ND","ND","ND","ND","ND","ND","ND","ND","ND","ND","ND"],
    [13366,"2011-11-14T17:00:00","ND","ND","ND","ND","ND","ND","ND","ND","ND","ND","ND","ND"],
    [13367,"2011-11-14T18:00:00","ND","ND","ND","ND","ND","ND","ND","ND","ND","ND","ND","ND"],
    [13368,"2011-11-14T19:00:00","ND","ND","ND","ND","ND","ND","ND","ND","ND","ND","ND","ND"],
    [13369,"2011-11-14T20:00:00","ND","ND","ND","ND","ND","ND","ND","ND","ND","ND","ND","ND"],
    [13370,"2011-11-14T21:00:00","ND","ND","ND","ND","ND","ND","ND","ND","ND","ND","ND","ND"],
    [13371,"2011-11-14T22:00:00","ND","ND","ND","ND","ND","ND","ND","ND","ND","ND","ND","ND"],
    [13372,"2011-11-14T23:00:00","ND","ND","ND","ND","ND","ND","ND","ND","ND","ND","ND","ND"],
    [13373,"2011-11-15T00:00:00","ND","ND","ND","ND","ND","ND","ND","ND","ND","ND","ND","ND"],
    [13374,"2011-11-15T01:00:00","ND","ND","ND","ND","ND","ND","ND","ND","ND","ND","ND","ND"],
    [13375,"2011-11-15T02:00:00","ND","ND","ND","ND","ND","ND","ND","ND","ND","ND","ND","ND"],
    [13376,"2011-11-15T03:00:00","ND","ND","ND","ND","ND","ND","ND","ND","ND","ND","ND","ND"],
    [13377,"2011-11-15T04:00:00","ND","ND","ND","ND","ND","ND","ND","ND","ND","ND","ND","ND"],
    [13378,"2011-11-15T05:00:00","ND","ND","ND","ND","ND","ND","ND","ND","ND","ND","ND","ND"],
    [13379,"2011-11-15T06:00:00","ND","ND","ND","ND","ND","ND","ND","ND","ND","ND","ND","ND"],
    [13380,"2011-11-15T07:00:00","ND","ND","ND","ND","ND","ND","ND","ND","ND","ND","ND","ND"],
    [13381,"2011-11-15T08:00:00","ND","ND","ND","ND","ND","ND","ND","ND","ND","ND","ND","ND"],
    [13382,"2011-11-15T09:00:00","ND","ND","ND","ND","ND","ND","ND","ND","ND","ND","ND","ND"],
    [13383,"2011-11-15T10:00:00","ND","ND","ND","ND","ND","ND","ND","ND","ND","ND","ND","ND"],
    [13384,"2011-11-15T11:00:00","ND","ND","ND","ND","ND","ND","ND","ND","ND","ND","ND","ND"],
    [13385,"2011-11-15T12:00:00","ND","ND","ND","ND","ND","ND","ND","ND","ND","ND","ND","ND"],
    [13386,"2011-11-15T13:00:00","ND","ND","ND","ND","ND","ND","ND","ND","ND","ND","ND","ND"],
    [13387,"2011-11-15T14:00:00","37.9","ND","ND","ND","ND","ND","2","147.7","28.8","52","583.4","0"],
    [13388,"2011-11-15T15:00:00","22.4","ND","ND","ND","ND","ND","1.7","154.5","29.3","49.7","358.6","0"],
    [13389,"2011-11-15T16:00:00","19","9.41","17.63","ND","ND","ND","1.5","165.2","29.5","48.4","326.3","0"],
    [13390,"2011-11-15T17:00:00","10.1","7.77","19.21","ND","ND","ND","0.9","240.8","28.7","50.3","64","0"],
    [13391,"2011-11-15T18:00:00","20.3","7.27","17.66","ND","ND","ND","1.8","296.6","26.9","56.9","17.7","0"],
    [13392,"2011-11-15T19:00:00","11","6.75","30.93","ND","ND","ND","0.7","118.9","26","56.7","0","0"],
    [13393,"2011-11-15T20:00:00","24.2","4.84","24.17","ND","ND","ND","0.1","120","25.2","59.2","0","0"],
    [13394,"2011-11-15T21:00:00","49.9","4.80","30.34","ND","ND","ND","0.4","107.2","24.7","61.9","0","0"],
    [13395,"2011-11-15T22:00:00","63","9.06","40.06","ND","ND","ND","1","122.7","22.6","79.5","0.3","9.65"],
    [13396,"2011-11-15T23:00:00","56.3","14.58","40.54","ND","ND","ND","0.8","246","21.1","90.2","0","0.51"],
    [13397,"2011-11-16T00:00:00","46.4","16.11","31.79","ND","ND","ND","0.9","186.9","21.4","88.9","0","0.25"],
    [13398,"2011-11-16T01:00:00","30.1","8.49","32.69","ND","ND","ND","0.8","178.9","21.5","90.6","0","0"],
    [13399,"2011-11-16T02:00:00","19.7","7.07","27.51","ND","ND","ND","1.4","190.9","21","89.7","0","0"],
    [13400,"2011-11-16T03:00:00","12.3","6.15","33.35","ND","ND","ND","0.8","203.7","20.8","89.7","0","0.25"],
    [13401,"2011-11-16T04:00:00","7.9","5.94","17.27","ND","ND","ND","0.4","184.9","20.6","90.2","0","0"],
    [13402,"2011-11-16T05:00:00","5.1","4.98","11.80","ND","ND","ND","0.2","277.7","20.1","91.2","0","0"],
    [13403,"2011-11-16T06:00:00","4","3.69","12.49","ND","ND","ND","0.4","133.7","20.3","90.4","0.2","0"],
    [13404,"2011-11-16T07:00:00","14.6","2.97","11.81","ND","ND","ND","0.8","359","19.9","93.9","22.2","0"],
    [13405,"2011-11-16T08:00:00","42.5","4.35","15.29","ND","ND","ND","0.5","45.5","20.7","91.4","67.5","0"],
    [13406,"2011-11-16T09:00:00","21.9","8.19","22.61","ND","ND","ND","0.1","143.5","21.8","85.6","189.4","0"],
    [13407,"2011-11-16T10:00:00","54.5","25.74","30.13","ND","ND","ND","0.3","32.7","24","74.7","474.4","0"],
    [13408,"2011-11-16T11:00:00","36.2","41.37","30.84","ND","ND","ND","0.7","76.4","25.3","67.4","530.4","0"],
    [13409,"2011-11-16T12:00:00","56.6","98.86","38.40","ND","ND","ND","0.2","134.2","25.6","66.2","226.5","0"],
    [13410,"2011-11-16T13:00:00","59.3","188.25","34.74","ND","ND","ND","1","244.2","26.2","64.3","314.9","0"],
    [13411,"2011-11-16T14:00:00","45.2","70.64","36.50","ND","ND","ND","0.8","257.1","26.6","62.2","342.3","0"],
    [13412,"2011-11-16T15:00:00","32.9","42.99","41.62","ND","ND","ND","0.3","248","27.8","54.1","327.6","0"],
    [13413,"2011-11-16T16:00:00","17.8","44.41","39.70","ND","ND","ND","0.9","262.8","27.3","55.3","168.2","0"],
    [13414,"2011-11-16T17:00:00","9.6","22.39","13.30","ND","ND","ND","1.9","268.9","26.2","57.6","98.7","0"],
    [13415,"2011-11-16T18:00:00","7.1","8.79","12.42","ND","ND","ND","1.4","123.4","25.9","62.2","13.2","0"],
    [13416,"2011-11-16T19:00:00","24.1","9.41","14.75","ND","ND","ND","0.1","38.8","25.1","64.5","0","0"],
    [13417,"2011-11-16T20:00:00","35.8","11.61","34.61","ND","ND","ND","0.5","139.7","24.9","63.2","0","0"],
    [13418,"2011-11-16T21:00:00","21.6","11.58","31.73","ND","ND","ND","1","177.1","25","59.7","0","0"],
    [13419,"2011-11-16T22:00:00","17.8","12.21","28.78","ND","ND","ND","1.2","124.7","23.5","75.4","0","0"],
    [13420,"2011-11-16T23:00:00","46","7.56","22.51","ND","ND","ND","0.9","13.4","22.4","83.5","0","0"],
    [13421,"2011-11-17T00:00:00","29.9","8.99","38.46","ND","ND","ND","0.2","7.6","21.6","88.7","0","0"],
    [13422,"2011-11-17T01:00:00","16.4","13.08","36.74","ND","ND","ND","0.2","199.7","21.7","86.5","0","0"],
    [13423,"2011-11-17T02:00:00","31.3","11.43","27.99","ND","ND","ND","0.4","202.1","21.5","87.4","0","0"],
    [13424,"2011-11-17T03:00:00","25.4","11.60","28.18","ND","ND","ND","0.2","23.5","21","87.3","0","0"],
    [13425,"2011-11-17T04:00:00","18.8","12.12","27.74","ND","ND","ND","0.3","80.9","20.5","89","0","0"],
    [13426,"2011-11-17T05:00:00","11.4","8.72","21.28","ND","ND","ND","0.3","133.4","20.6","88.9","0","0"],
    [13427,"2011-11-17T06:00:00","16.8","9.29","17.63","ND","ND","ND","0.2","10","20.1","89","0.3","0"],
    [13428,"2011-11-17T07:00:00","36.4","12.22","14.21","ND","ND","ND","0","230.3","20","88.3","36.1","0"],
    [13429,"2011-11-17T08:00:00","35.4","12.49","17.41","ND","ND","ND","0.3","194.7","21.5","81.7","140.2","0"],
    [13430,"2011-11-17T09:00:00","52.5","11.73","19.15","ND","ND","ND","0.3","116.6","22.9","76.2","200","0"],
    [13431,"2011-11-17T10:00:00","75.5","32.65","26.29","ND","ND","ND","0.7","88.9","24.5","71.7","449.4","0"],
    [13432,"2011-11-17T11:00:00","51","81.20","45.09","ND","ND","ND","0.9","19.5","25","68.4","318","0"],
    [13433,"2011-11-17T12:00:00","47.7","44.52","45.41","ND","ND","ND","1","47.6","26.5","62.1","603.5","0"],
    [13434,"2011-11-17T13:00:00","32.5","25.31","22.56","ND","ND","ND","1.1","316.9","26.7","61.6","314.5","0"],
    [13435,"2011-11-17T14:00:00","58.8","25.61","16.97","ND","ND","ND","1","233.4","27.2","59.7","353.9","0"],
    [13436,"2011-11-17T15:00:00","56","78.26","21.67","ND","ND","ND","1.5","222.1","28","54.6","291.4","0"],
    [13437,"2011-11-17T16:00:00","36.3","88.05","28.02","ND","ND","ND","2.4","275.2","28.1","50.2","325.3","0"],
    [13438,"2011-11-17T17:00:00","0.7","24.67","21.58","ND","ND","ND","3.4","285.2","26.3","54","41.7","0"],
    [13439,"2011-11-17T18:00:00","ND","8.76","8.17","ND","ND","ND","1.7","307.1","25.5","57.2","5.4","0"],
    [13440,"2011-11-17T19:00:00","ND","5.14","5.07","ND","ND","ND","ND","ND","ND","ND","ND","ND"],
    [13441,"2011-11-17T20:00:00","ND","ND","ND","ND","ND","ND","ND","ND","ND","ND","ND","ND"],
    [13442,"2011-11-17T21:00:00","ND","ND","ND","ND","ND","ND","ND","ND","ND","ND","ND","ND"],
    [13443,"2011-11-17T22:00:00","ND","ND","ND","ND","ND","ND","ND","ND","ND","ND","ND","ND"],
    [13444,"2011-11-17T23:00:00","ND","ND","ND","ND","ND","ND","ND","ND","ND","ND","ND","ND"],
    [13445,"2011-11-18T00:00:00","ND","ND","ND","ND","ND","ND","ND","ND","ND","ND","ND","ND"],
    [13446,"2011-11-18T01:00:00","ND","ND","ND","ND","ND","ND","ND","ND","ND","ND","ND","ND"],
    [13447,"2011-11-18T02:00:00","ND","ND","ND","ND","ND","ND","ND","ND","ND","ND","ND","ND"],
    [13448,"2011-11-18T03:00:00","ND","ND","ND","ND","ND","ND","ND","ND","ND","ND","ND","ND"],
    [13449,"2011-11-18T04:00:00","ND","ND","ND","ND","ND","ND","ND","ND","ND","ND","ND","ND"],
    [13450,"2011-11-18T05:00:00","ND","ND","ND","ND","ND","ND","ND","ND","ND","ND","ND","ND"],
    [13451,"2011-11-18T06:00:00","ND","ND","ND","ND","ND","ND","ND","ND","ND","ND","ND","ND"],
    [13452,"2011-11-18T07:00:00","ND","ND","ND","ND","ND","ND","ND","ND","ND","ND","ND","ND"],
    [13453,"2011-11-18T08:00:00","ND","ND","ND","ND","ND","ND","ND","ND","ND","ND","ND","ND"],
    [13454,"2011-11-18T09:00:00","ND","ND","ND","ND","ND","ND","ND","ND","ND","ND","ND","ND"],
    [13455,"2011-11-18T10:00:00","ND","ND","ND","ND","ND","ND","ND","ND","ND","ND","ND","ND"],
    [13456,"2011-11-18T11:00:00","1.7","ND","ND","ND","ND","ND","0.9","283.5","24.6","67.4","340.5","0"],
    [13457,"2011-11-18T12:00:00","26","ND","ND","ND","ND","ND","0.9","107.5","26","63.4","631.5","0"],
    [13458,"2011-11-18T13:00:00","26.8","28.00","22.45","ND","ND","ND","1.2","94.1","27.1","59.5","798.5","0"],
    [13459,"2011-11-18T14:00:00","37","36.02","25.91","ND","ND","ND","0.5","306.6","27.5","57","418.3","0"],
    [13460,"2011-11-18T15:00:00","27.6","24.68","20.82","ND","ND","ND","1.4","325.7","27.7","56.7","375.9","0"],
    [13461,"2011-11-18T16:00:00","36","21.02","17.85","ND","ND","ND","0.3","1.2","27.8","54.8","248.2","0"],
    [13462,"2011-11-18T17:00:00","20","17.72","24.35","ND","ND","ND","3.2","288","26.5","52.1","57.2","0"],
    [13463,"2011-11-18T18:00:00","15","21.67","17.43","ND","ND","ND","1.9","284.7","26.1","52.6","11.2","0"],
    [13464,"2011-11-18T19:00:00","8.3","6.52","9.62","ND","ND","ND","1.4","302.2","25.5","54","0","0"],
    [13465,"2011-11-18T20:00:00","13.4","5.35","13.02","ND","ND","ND","0.3","119.7","25.3","55.8","0","0"],
    [13466,"2011-11-18T21:00:00","28.4","5.14","16.35","ND","ND","ND","1.6","136.8","24.8","60.2","0","0"],
    [13467,"2011-11-18T22:00:00","18.8","10.63","21.61","ND","ND","ND","1.5","211.7","23.9","63.5","0","0"],
    [13468,"2011-11-18T23:00:00","11.5","18.77","29.01","ND","ND","ND","0.3","283.4","22.8","70.1","0","0"],
    [13469,"2011-11-19T00:00:00","14","6.19","20.02","ND","ND","ND","0","226.9","22.5","70.7","0","0"],
    [13470,"2011-11-19T01:00:00","8","6.03","27.79","ND","ND","ND","0.3","2.3","21.8","79.6","0","0"],
    [13471,"2011-11-19T02:00:00","39","11.46","28.40","ND","ND","ND","0.2","290.2","21","82.4","0","0"],
    [13472,"2011-11-19T03:00:00","22.6","30.01","25.55","ND","ND","ND","0.4","351.7","20.9","83","0","0"],
    [13473,"2011-11-19T04:00:00","35.2","17.68","21.51","ND","ND","ND","0.4","343.4","20.5","86.2","0","0"],
    [13474,"2011-11-19T05:00:00","31.7","20.00","20.72","ND","ND","ND","0.2","228.4","20.1","85.9","0","0"],
    [13475,"2011-11-19T06:00:00","17.1","19.56","18.86","ND","ND","ND","0.4","231","20.1","83.1","0.2","0"],
    [13476,"2011-11-19T07:00:00","11.8","14.84","15.47","ND","ND","ND","0.5","32.7","20.3","83.7","13.4","0"],
    [13477,"2011-11-19T08:00:00","44.8","11.86","14.74","ND","ND","ND","0.2","341.9","21.3","80.4","117.7","0"],
    [13478,"2011-11-19T09:00:00","35.8","18.66","19.87","ND","ND","ND","1.7","135.5","23.9","64.9","398.7","0"],
    [13479,"2011-11-19T10:00:00","32.2","45.29","28.28","ND","ND","ND","1.7","162.9","25","60.7","473.6","0"],
    [13480,"2011-11-19T11:00:00","17.2","36.21","24.60","ND","ND","ND","1.2","126.2","26.3","57.3","600.3","0"],
    [13481,"2011-11-19T12:00:00","15.6","23.87","24.57","ND","ND","ND","1.2","96.8","27.1","53.2","542.7","0"],
    [13482,"2011-11-19T13:00:00","9","24.67","19.37","ND","ND","ND","0.6","29.9","27.4","51.6","415","0"],
    [13483,"2011-11-19T14:00:00","10","19.92","14.58","ND","ND","ND","1.5","288","28","50.7","509.8","0"],
    [13484,"2011-11-19T15:00:00","11.5","15.30","13.24","ND","ND","ND","1.8","12.7","28.1","51","428","0"],
    [13485,"2011-11-19T16:00:00","14.4","15.96","17.07","ND","ND","ND","3","278.3","28.8","47","449.9","0"],
    [13486,"2011-11-19T17:00:00","8.2","23.01","11.71","ND","ND","ND","1.9","273.5","28.4","47.7","171.6","0"],
    [13487,"2011-11-19T18:00:00","6.4","6.12","6.31","ND","ND","ND","0.3","316.7","26.8","50.8","24.3","0"],
    [13488,"2011-11-19T19:00:00","5.2","3.85","9.82","ND","ND","ND","0.4","18.3","25.9","53.3","0","0"],
    [13489,"2011-11-19T20:00:00","4.6","4.81","17.42","ND","ND","ND","0","112.5","25.5","55.8","0","0"],
    [13490,"2011-11-19T21:00:00","15.3","4.36","20.13","ND","ND","ND","0.3","148","24.9","59.5","0","0"],
    [13491,"2011-11-19T22:00:00","16.4","18.10","35.68","ND","ND","ND","0.5","89.6","24.2","65.2","0","0"],
    [13492,"2011-11-19T23:00:00","34.8","23.91","32.38","ND","ND","ND","0.8","141.2","24","68.5","0","0"],
    [13493,"2011-11-20T00:00:00","54.4","25.98","31.76","ND","ND","ND","0.7","133.7","23.7","69.5","0","0"],
    [13494,"2011-11-20T01:00:00","36.7","20.01","30.58","ND","ND","ND","0.9","357.1","21.8","82.7","0","0.76"],
    [13495,"2011-11-20T02:00:00","39.8","23.59","31.82","ND","ND","ND","0.4","144.7","20.8","88.3","0","1.02"],
    [13496,"2011-11-20T03:00:00","30.6","26.07","26.68","ND","ND","ND","0.3","15.2","20.4","91.8","0","0.25"],
    [13497,"2011-11-20T04:00:00","16","11.76","17.84","ND","ND","ND","0.6","1.8","20.2","93.1","0","0"],
    [13498,"2011-11-20T05:00:00","11.2","8.04","19.57","ND","ND","ND","0.7","36.3","19.9","93.9","0","0"],
    [13499,"2011-11-20T06:00:00","23.8","11.98","20.51","ND","ND","ND","0.8","357","19.7","95","0.2","0"],
    [13500,"2011-11-20T07:00:00","13.9","24.58","15.43","ND","ND","ND","0.3","343.4","19.9","93.8","46","0.25"],
    [13501,"2011-11-20T08:00:00","7.4","17.90","13.98","ND","ND","ND","0.7","162.6","21.9","80.3","185.5","0"],
    [13502,"2011-11-20T09:00:00","5.9","14.55","15.21","ND","ND","ND","1.1","148.9","23.6","70.7","308.6","0"],
    [13503,"2011-11-20T10:00:00","4.4","35.68","12.37","ND","ND","ND","0.9","139.1","24.6","65.9","389.4","0"],
    [13504,"2011-11-20T11:00:00","3.1","11.36","12.09","ND","ND","ND","1.3","139.1","25.2","65.6","413.8","0"],
    [13505,"2011-11-20T12:00:00","3.4","10.93","12.25","ND","ND","ND","1.1","134.3","26.3","60.9","602.6","0"],
    [13506,"2011-11-20T13:00:00","4","22.47","12.60","ND","ND","ND","1.1","18.2","26.3","61","284.7","0"],
    [13507,"2011-11-20T14:00:00","1.9","12.13","9.57","ND","ND","ND","0.6","297.9","27.2","57.5","367","0"],
    [13508,"2011-11-20T15:00:00","14.6","14.41","8.92","ND","ND","ND","2.1","304.1","24.5","73.1","148.4","0"],
    [13509,"2011-11-20T16:00:00","20.7","16.48","10.47","ND","ND","ND","1","80.8","26.8","58.9","426.6","0"],
    [13510,"2011-11-20T17:00:00","11.3","11.12","12.09","ND","ND","ND","2","277.8","27.5","53.8","229.1","0"],
    [13511,"2011-11-20T18:00:00","6.2","16.09","10.54","ND","ND","ND","0.6","260.4","26.5","54.3","20","0"],
    [13512,"2011-11-20T19:00:00","4.6","8.74","7.16","ND","ND","ND","0.4","31.5","25.6","58.5","0","0"],
    [13513,"2011-11-20T20:00:00","4.3","4.75","14.21","ND","ND","ND","0.7","72.1","25.1","61.6","0","0"],
    [13514,"2011-11-20T21:00:00","4.5","9.44","19.46","ND","ND","ND","1","91.2","24.7","65.1","0","0"],
    [13515,"2011-11-20T22:00:00","20.4","17.90","27.11","ND","ND","ND","0.2","200.7","23.6","71.1","0","0"],
    [13516,"2011-11-20T23:00:00","11.2","24.57","27.05","ND","ND","ND","0.3","93.4","23","74","0","0"],
    [13517,"2011-11-21T00:00:00","17.6","26.34","22.00","ND","ND","ND","1.3","170.7","22.7","76.6","0","0"],
    [13518,"2011-11-21T01:00:00","9.8","12.35","20.63","ND","ND","ND","1.4","179.4","22","81.1","0","0"],
    [13519,"2011-11-21T02:00:00","6.2","9.34","18.09","ND","ND","ND","0.2","202.6","21.8","82","0","0"],
    [13520,"2011-11-21T03:00:00","4","6.12","9.56","ND","ND","ND","0.5","328.4","21.2","85.3","0","0"],
    [13521,"2011-11-21T04:00:00","35","6.93","7.55","ND","ND","ND","0.4","349.9","20.8","87.6","0","0"],
    [13522,"2011-11-21T05:00:00","21.9","6.74","9.62","ND","ND","ND","0.2","35","20.8","87.8","0","0"],
    [13523,"2011-11-21T06:00:00","30.8","13.51","15.95","ND","ND","ND","0.7","17.3","20.4","92","0.3","0"],
    [13524,"2011-11-21T07:00:00","45.6","21.18","18.91","ND","ND","ND","0.2","257.8","20.7","90.7","35.4","0"],
    [13525,"2011-11-21T08:00:00","34.4","20.92","20.66","ND","ND","ND","0.9","184.1","21.8","82.3","178.2","0"],
    [13526,"2011-11-21T09:00:00","21.7","35.62","30.69","ND","ND","ND","1.1","128.2","24.5","68.7","493.3","0"],
    [13527,"2011-11-21T10:00:00","20","65.50","26.25","ND","ND","ND","1.3","76.2","25.3","65.9","380.8","0"],
    [13528,"2011-11-21T11:00:00","18.3","51.67","30.99","ND","ND","ND","1.1","12.6","25.2","66.3","325.5","0"],
    [13529,"2011-11-21T12:00:00","28.8","35.06","26.18","ND","ND","ND","1.4","26.5","25.5","65.5","311.7","0"],
    [13530,"2011-11-21T13:00:00","16.4","33.73","19.47","ND","ND","ND","1.3","47","27.1","59.1","554.8","0"],
    [13531,"2011-11-21T14:00:00","9.6","130.91","29.59","ND","ND","ND","1","29.8","27.7","56.5","501.8","0"],
    [13532,"2011-11-21T15:00:00","22.4","74.35","18.34","ND","ND","ND","1","326.3","28","55.3","329.2","0"],
    [13533,"2011-11-21T16:00:00","19.9","22.95","11.01","ND","ND","ND","0.5","7.4","28","55.1","202.2","0"],
    [13534,"2011-11-21T17:00:00","11.1","ND","ND","ND","ND","ND","2.2","270","28.5","49.8","207.8","0"],
    [13535,"2011-11-21T18:00:00","5.5","ND","ND","ND","ND","ND","0.5","301.7","26.9","53.5","17.2","0"],
    [13536,"2011-11-21T19:00:00","14.8","15.64","14.03","ND","ND","ND","0.4","15.4","26.3","55.5","0","0"],
    [13537,"2011-11-21T20:00:00","18.4","11.21","23.48","ND","ND","ND","0.7","115.9","24.7","66.6","0","0.76"],
    [13538,"2011-11-21T21:00:00","14","19.58","30.01","ND","ND","ND","0.8","247.3","21.8","89.4","0.1","10.67"],
    [13539,"2011-11-21T22:00:00","33.4","9.33","22.00","ND","ND","ND","1","164.3","21.3","91.9","0","2.54"],
    [13540,"2011-11-21T23:00:00","17.7","9.52","37.81","ND","ND","ND","0.1","162.2","21.1","92.1","0","0.25"],
    [13541,"2011-11-22T00:00:00","10.5","9.80","34.83","ND","ND","ND","1","141.9","21.3","90.8","0","0"],
    [13542,"2011-11-22T01:00:00","7.7","11.88","29.35","ND","ND","ND","1.3","176.3","21","91.7","0","0"],
    [13543,"2011-11-22T02:00:00","4.4","17.16","29.01","ND","ND","ND","1.2","185.6","20.9","90.5","0","0"],
    [13544,"2011-11-22T03:00:00","3.8","22.07","24.31","ND","ND","ND","0.4","148.3","21.2","88","0","0"],
    [13545,"2011-11-22T04:00:00","3.8","12.00","12.51","ND","ND","ND","0.5","132.3","20.6","91.3","0","18.8"],
    [13546,"2011-11-22T05:00:00","14.6","8.47","11.10","ND","ND","ND","1.2","138.3","19.2","96.6","0","14.48"],
    [13547,"2011-11-22T06:00:00","9.8","6.65","10.67","ND","ND","ND","0.9","158.8","18.7","97.3","0","13.21"],
    [13548,"2011-11-22T07:00:00","5.5","5.23","9.99","ND","ND","ND","1.5","186","18.5","97.9","6","10.67"],
    [13549,"2011-11-22T08:00:00","5.2","5.18","15.64","ND","ND","ND","1.6","179","18.5","97.1","54.2","4.06"],
    [13550,"2011-11-22T09:00:00","5","6.15","34.71","ND","ND","ND","1.6","162.7","20.5","86.6","187.7","0.25"],
    [13551,"2011-11-22T10:00:00","4.8","7.64","39.16","ND","ND","ND","1.8","142.6","22.2","79","327.9","0"],
    [13552,"2011-11-22T11:00:00","2.4","8.57","39.78","ND","ND","ND","1.9","143.5","24.3","70","634","0"],
    [13553,"2011-11-22T12:00:00","1.3","8.21","49.10","ND","ND","ND","1.7","131.8","25.2","63.9","678.3","0"],
    [13554,"2011-11-22T13:00:00","1.4","11.22","33.15","ND","ND","ND","0.1","264.9","26","60","446.4","0"],
    [13555,"2011-11-22T14:00:00","7.4","13.25","15.02","ND","ND","ND","0.5","99","26.7","56.2","357.3","0"],
    [13556,"2011-11-22T15:00:00","5.2","12.44","21.82","ND","ND","ND","0.6","332.4","26.6","58.1","271.8","0"],
    [13557,"2011-11-22T16:00:00","13.8","14.86","22.23","ND","ND","ND","1.2","272.3","26.4","59.9","199.1","0"],
    [13558,"2011-11-22T17:00:00","9.2","23.69","26.91","ND","ND","ND","0.8","261.3","26.8","59.2","83.9","0"],
    [13559,"2011-11-22T18:00:00","33","13.07","23.23","ND","ND","ND","0.7","281","25.4","63.8","12","0"],
    [13560,"2011-11-22T19:00:00","26.8","11.91","30.19","ND","ND","ND","0.4","280.6","24","69.3","0","0"],
    [13561,"2011-11-22T20:00:00","43.9","9.06","30.28","ND","ND","ND","0.5","264.5","23.4","70.7","0","0"],
    [13562,"2011-11-22T21:00:00","26.2","9.30","33.89","ND","ND","ND","0.2","315.9","23.2","71.7","0","0"],
    [13563,"2011-11-22T22:00:00","39","12.55","34.73","ND","ND","ND","0.2","178.8","22.7","76.8","0","0"],
    [13564,"2011-11-22T23:00:00","48.6","13.57","31.38","ND","ND","ND","0","166.8","22","81.9","0","0"],
    [13565,"2011-11-23T00:00:00","40.9","20.47","30.91","ND","ND","ND","0.1","336.2","21.4","83.3","0","0"],
    [13566,"2011-11-23T01:00:00","45.3","20.45","25.58","ND","ND","ND","0.4","294.7","21.6","82.5","0","0"],
    [13567,"2011-11-23T02:00:00","56","18.21","25.34","ND","ND","ND","0","254.1","21.9","81.4","0","0"],
    [13568,"2011-11-23T03:00:00","49","16.80","23.75","ND","ND","ND","0.2","273.3","21.6","83.6","0","0"],
    [13569,"2011-11-23T04:00:00","48.6","15.62","25.38","ND","ND","ND","0.1","274.7","21.4","84.8","0","0"],
    [13570,"2011-11-23T05:00:00","33.4","13.51","21.97","ND","ND","ND","0.1","84.1","21.4","84.6","0","0"],
    [13571,"2011-11-23T06:00:00","45.2","13.41","20.00","ND","ND","ND","0","219.9","21.2","86.8","0.2","0"],
    [13572,"2011-11-23T07:00:00","30.4","11.46","19.17","ND","ND","ND","0.2","178.9","21","88.1","14.1","0"],
    [13573,"2011-11-23T08:00:00","46","10.55","19.42","ND","ND","ND","0.4","186.7","22.3","81.2","175.1","0"],
    [13574,"2011-11-23T09:00:00","40.4","12.54","19.11","ND","ND","ND","0.8","142.9","24.6","68.4","398.1","0"],
    [13575,"2011-11-23T10:00:00","35.1","17.58","38.54","ND","ND","ND","1.9","119.9","25.6","63.7","370.6","0"],
    [13576,"2011-11-23T11:00:00","18.2","16.15","59.90","ND","ND","ND","1.3","143.2","25.7","63.9","291.2","0"],
    [13577,"2011-11-23T12:00:00","13","17.68","32.53","ND","ND","ND","0.8","92.7","26.4","64.6","355.3","0"],
    [13578,"2011-11-23T13:00:00","26.1","15.37","19.07","ND","ND","ND","1","315.5","26.8","63.7","493.7","0"],
    [13579,"2011-11-23T14:00:00","37.8","15.42","20.33","ND","ND","ND","1.2","279.8","27.9","57.4","372.2","0"],
    [13580,"2011-11-23T15:00:00","20","16.62","33.74","ND","ND","ND","1.5","295.3","27.9","56.9","346","0"],
    [13581,"2011-11-23T16:00:00","22.5","13.84","31.27","ND","ND","ND","2.4","280.3","28","52.5","252.5","0"],
    [13582,"2011-11-23T17:00:00","14.9","7.33","17.43","ND","ND","ND","2.3","273.3","27.1","53.5","119.6","0"],
    [13583,"2011-11-23T18:00:00","25.3","4.38","9.52","ND","ND","ND","0.7","311","26.6","50.6","33.7","0"],
    [13584,"2011-11-23T19:00:00","4.4","3.61","14.26","ND","ND","ND","1.7","291","25.9","50.4","0","0"],
    [13585,"2011-11-23T20:00:00","38.5","5.05","21.35","ND","ND","ND","0.3","152.7","25.2","55.5","0","0"],
    [13586,"2011-11-23T21:00:00","40.3","6.37","20.47","ND","ND","ND","0.1","79.6","24.1","60.6","0","0"],
    [13587,"2011-11-23T22:00:00","38","10.63","43.26","ND","ND","ND","0.3","89","23.4","65.2","0","0"],
    [13588,"2011-11-23T23:00:00","40.1","6.98","44.14","ND","ND","ND","0.3","146.8","23.1","68.2","0","0"],
    [13589,"2011-11-24T00:00:00","37.2","30.54","38.18","ND","ND","ND","0.2","224.4","22.6","71.8","0","0"],
    [13590,"2011-11-24T01:00:00","38.4","36.34","37.72","ND","ND","ND","0.6","225.3","22.4","70.7","0","0"],
    [13591,"2011-11-24T02:00:00","40.4","19.06","34.26","ND","ND","ND","0.5","293.9","21.7","79.7","0","0"],
    [13592,"2011-11-24T03:00:00","28.6","13.86","28.11","ND","ND","ND","0.1","209.1","21.4","84.3","0","0"],
    [13593,"2011-11-24T04:00:00","19.1","11.23","25.49","ND","ND","ND","0.1","94.5","21.2","84.4","0","0"],
    [13594,"2011-11-24T05:00:00","15.5","12.91","24.30","ND","ND","ND","0.5","77.9","20.8","86.4","0","0"],
    [13595,"2011-11-24T06:00:00","27","14.70","19.74","ND","ND","ND","0.3","251.2","20.7","87.7","0","0"],
    [13596,"2011-11-24T07:00:00","15.9","22.83","22.85","ND","ND","ND","0.2","10.8","20.9","86.8","11.9","0"],
    [13597,"2011-11-24T08:00:00","46.6","23.34","25.69","ND","ND","ND","0.2","75.4","21.5","84.2","103.8","0"],
    [13598,"2011-11-24T09:00:00","61.8","23.31","31.12","ND","ND","ND","0.2","303","22.6","78.9","201.8","0"],
    [13599,"2011-11-24T10:00:00","72.6","30.70","38.11","ND","ND","ND","0.9","58.3","23.6","75.8","270.1","0"],
    [13600,"2011-11-24T11:00:00","72.3","34.19","60.29","ND","ND","ND","1","64.9","24.3","72.1","316.2","0"],
    [13601,"2011-11-24T12:00:00","64.2","35.34","52.22","ND","ND","ND","1.6","50.2","24.9","69.2","351.5","0"],
    [13602,"2011-11-24T13:00:00","34.3","38.40","45.26","ND","ND","ND","1.3","48.9","26","63","547.1","0"],
    [13603,"2011-11-24T14:00:00","41.3","61.89","29.40","ND","ND","ND","1.5","68.4","26.7","55.4","466.3","0"],
    [13604,"2011-11-24T15:00:00","22.1","35.73","18.34","ND","ND","ND","1.3","54.9","26.9","57.6","340","0"],
    [13605,"2011-11-24T16:00:00","30.7","37.15","14.61","ND","ND","ND","1.2","52.6","26.3","58.7","138.1","0"],
    [13606,"2011-11-24T17:00:00","21.9","26.53","17.74","ND","ND","ND","0.5","12.7","26.3","57.6","78.4","0"],
    [13607,"2011-11-24T18:00:00","40.8","16.29","21.87","ND","ND","ND","0.6","295.8","25.5","65.2","8.6","0"],
    [13608,"2011-11-24T19:00:00","37","29.08","35.71","ND","ND","ND","0.2","260","24.4","70.1","0","0"],
    [13609,"2011-11-24T20:00:00","76.6","66.97","72.29","ND","ND","ND","0.5","252.9","23.4","71.9","0","0"],
    [13610,"2011-11-24T21:00:00","66.2","49.13","87.18","ND","ND","ND","0.1","211","23.3","71.8","0","0"],
    [13611,"2011-11-24T22:00:00","91.1","43.64","77.40","ND","ND","ND","0.3","243","22.7","75.8","0","0"],
    [13612,"2011-11-24T23:00:00","88.8","39.31","73.00","ND","ND","ND","0","293","22.5","77","0","0"],
    [13613,"2011-11-25T00:00:00","86.9","30.48","64.23","ND","ND","ND","0.1","138.3","22","80","0","0"],
    [13614,"2011-11-25T01:00:00","72.7","23.76","54.13","ND","ND","ND","0.1","162.1","21.5","82.5","0","0"],
    [13615,"2011-11-25T02:00:00","65.3","20.35","44.09","ND","ND","ND","0.2","346.7","20.7","85.8","0","0"],
    [13616,"2011-11-25T03:00:00","54.1","16.61","36.87","ND","ND","ND","0.2","253.5","20.5","85.6","0","0"],
    [13617,"2011-11-25T04:00:00","37.5","16.26","30.25","ND","ND","ND","0.1","271.5","20.8","83.7","0","0"],
    [13618,"2011-11-25T05:00:00","31","16.79","28.26","ND","ND","ND","0.2","40.2","20.7","85.2","0","0"],
    [13619,"2011-11-25T06:00:00","58.1","11.31","28.03","ND","ND","ND","0","313.2","20.2","87.7","0.3","0"],
    [13620,"2011-11-25T07:00:00","78.2","12.22","30.06","ND","ND","ND","0.1","276.9","20.1","87.7","16","0"],
    [13621,"2011-11-25T08:00:00","80.7","19.74","31.27","ND","ND","ND","0.7","97.3","21.7","79","191.9","0"],
    [13622,"2011-11-25T09:00:00","67.2","26.46","34.51","ND","ND","ND","0.8","56.6","23","74.1","364.4","0"],
    [13623,"2011-11-25T10:00:00","78.8","33.63","47.57","ND","ND","ND","0.7","49.4","25","67","505.6","0"],
    [13624,"2011-11-25T11:00:00","62.5","34.82","58.63","ND","ND","ND","0.7","124","27","58.2","659.6","0"],
    [13625,"2011-11-25T12:00:00","55.1","30.99","67.80","ND","ND","ND","1.4","56.3","27.1","55.8","376.7","0"],
    [13626,"2011-11-25T13:00:00","44.1","26.60","40.57","ND","ND","ND","0.4","355.2","28.1","53.4","406.6","0"],
    [13627,"2011-11-25T14:00:00","43.5","46.04","27.67","ND","ND","ND","1.1","357.8","28.8","50.8","475.5","0"],
    [13628,"2011-11-25T15:00:00","25.1","78.39","33.61","ND","ND","ND","1.4","331.6","29.2","50.3","474.4","0"],
    [13629,"2011-11-25T16:00:00","16.4","60.61","27.24","ND","ND","ND","1.8","339.9","29.6","48.2","429.6","0"],
    [13630,"2011-11-25T17:00:00","9.1","25.62","20.16","ND","ND","ND","1.1","346.8","29.2","49.6","195.5","0"],
    [13631,"2011-11-25T18:00:00","46.1","10.42","14.42","ND","ND","ND","0.6","334.5","27.5","54.4","20.2","0"],
    [13632,"2011-11-25T19:00:00","41.3","14.14","18.12","ND","ND","ND","0.3","193.3","26.9","55.3","0","0"],
    [13633,"2011-11-25T20:00:00","49.3","15.72","31.31","ND","ND","ND","0.2","290","25.8","60.6","0","0"],
    [13634,"2011-11-25T21:00:00","48.6","10.93","40.73","ND","ND","ND","0.9","181","25.5","60.6","0","0"],
    [13635,"2011-11-25T22:00:00","55.8","14.30","45.96","ND","ND","ND","0.6","119.2","24.7","66.8","0","0"],
    [13636,"2011-11-25T23:00:00","93.5","13.64","47.43","ND","ND","ND","0.3","180","23.9","72.5","0","0"],
    [13637,"2011-11-26T00:00:00","56.4","29.00","40.12","ND","ND","ND","0.3","115.6","23.3","74.6","0","0"],
    [13638,"2011-11-26T01:00:00","30.2","25.25","35.28","ND","ND","ND","0.2","206.4","23","76.1","0","0"],
    [13639,"2011-11-26T02:00:00","39.3","20.48","34.37","ND","ND","ND","0.3","123.4","23.1","76","0","0"],
    [13640,"2011-11-26T03:00:00","31.2","14.19","29.23","ND","ND","ND","1.2","169.4","22.6","78.5","0","0"],
    [13641,"2011-11-26T04:00:00","36.9","15.26","29.87","ND","ND","ND","1.1","173.9","22.4","79.9","0","0"],
    [13642,"2011-11-26T05:00:00","42.7","16.78","26.66","ND","ND","ND","0.5","164.7","22.3","79.7","0","0"],
    [13643,"2011-11-26T06:00:00","35.1","19.53","22.73","ND","ND","ND","0.1","274.4","21.5","85.5","0.4","0"],
    [13644,"2011-11-26T07:00:00","31.6","16.39","22.60","ND","ND","ND","0.3","249.7","21.5","84.4","24.2","0"],
    [13645,"2011-11-26T08:00:00","43.2","12.22","21.20","ND","ND","ND","0.4","178.2","22.9","77.8","142.2","0"],
    [13646,"2011-11-26T09:00:00","50.2","12.38","25.10","ND","ND","ND","0.6","108.6","25","68.4","338","0"],
    [13647,"2011-11-26T10:00:00","69.4","15.77","36.11","ND","ND","ND","0.7","99.3","26","64","493.9","0"],
    [13648,"2011-11-26T11:00:00","56.5","17.72","54.60","ND","ND","ND","1.3","88.7","27.5","59.9","562.7","0"],
    [13649,"2011-11-26T12:00:00","65.3","27.85","49.13","ND","ND","ND","1.3","68.8","28.2","57.4","637.8","0"],
    [13650,"2011-11-26T13:00:00","55.2","40.68","34.17","ND","ND","ND","0.4","44.1","28.8","55","437.3","0"],
    [13651,"2011-11-26T14:00:00","46","59.76","26.42","ND","ND","ND","1.1","352.6","29.2","52.3","369.1","0"],
    [13652,"2011-11-26T15:00:00","25.5","62.20","20.34","ND","ND","ND","2.1","296.2","30.2","46.1","519.1","0"],
    [13653,"2011-11-26T16:00:00","14.2","42.55","18.49","ND","ND","ND","3.5","290","29.2","48.4","384.1","0"],
    [13654,"2011-11-26T17:00:00","14.9","11.90","8.67","ND","ND","ND","1","275","28.6","49.5","109.6","0"],
    [13655,"2011-11-26T18:00:00","10.9","5.73","6.27","ND","ND","ND","0.6","194.2","28.2","50.7","21.7","0"],
    [13656,"2011-11-26T19:00:00","6.2","5.22","14.43","ND","ND","ND","0.5","165.4","27.1","55","0.1","0"],
    [13657,"2011-11-26T20:00:00","36.8","5.46","22.89","ND","ND","ND","0.2","223.1","25.9","62.2","0","0"],
    [13658,"2011-11-26T21:00:00","38.2","7.07","32.27","ND","ND","ND","1.1","121.2","25.8","62.5","0","0"],
    [13659,"2011-11-26T22:00:00","37.1","12.87","35.24","ND","ND","ND","0.6","126","25.7","62.2","0","0"],
    [13660,"2011-11-26T23:00:00","24","14.37","38.10","ND","ND","ND","0.8","104.7","25","67.8","0","0"],
    [13661,"2011-11-27T00:00:00","42.5","11.76","35.52","ND","ND","ND","0.9","122.9","23.9","75.9","0","0"],
    [13662,"2011-11-27T01:00:00","21.9","15.79","35.37","ND","ND","ND","0.2","64.4","23.2","79.8","0","0"],
    [13663,"2011-11-27T02:00:00","32.1","12.55","35.38","ND","ND","ND","0.1","183.6","23.2","80","0","0"],
    [13664,"2011-11-27T03:00:00","39.9","8.49","30.12","ND","ND","ND","0.6","182.5","23.2","78.6","0","0"],
    [13665,"2011-11-27T04:00:00","21.2","9.12","37.07","ND","ND","ND","0.8","22.4","22.8","81.9","0","0"],
    [13666,"2011-11-27T05:00:00","23.4","10.38","32.06","ND","ND","ND","0.9","36.2","21.8","87.9","0","0"],
    [13667,"2011-11-27T06:00:00","16.9","9.25","33.76","ND","ND","ND","0.6","35.2","21.2","92.1","0.1","0.25"],
    [13668,"2011-11-27T07:00:00","14.2","16.40","26.12","ND","ND","ND","0.1","44.6","21.3","91.2","6.9","0"],
    [13669,"2011-11-27T08:00:00","23.1","13.82","23.42","ND","ND","ND","0.1","258.3","22.1","87.8","77.9","0"],
    [13670,"2011-11-27T09:00:00","38.7","15.49","31.86","ND","ND","ND","0.5","67.3","24","78.3","302","0"],
    [13671,"2011-11-27T10:00:00","20","47.45","34.03","ND","ND","ND","0.4","10.4","24.4","76.5","155.7","0"],
    [13672,"2011-11-27T11:00:00","12.8","60.12","32.27","ND","ND","ND","0.6","170.3","25.5","70.1","435.2","0"],
    [13673,"2011-11-27T12:00:00","42.8","42.05","24.83","ND","ND","ND","0.7","191.3","27.3","61","510.3","0"],
    [13674,"2011-11-27T13:00:00","40.7","32.29","27.65","ND","ND","ND","1.4","293.1","27.9","59.1","485.9","0"],
    [13675,"2011-11-27T14:00:00","42.6","27.81","22.92","ND","ND","ND","0.8","307.7","28.8","56.2","454.3","0"],
    [13676,"2011-11-27T15:00:00","22.4","28.61","21.52","ND","ND","ND","1.5","296.2","29.2","52.1","340.3","0"],
    [13677,"2011-11-27T16:00:00","13.1","24.63","14.82","ND","ND","ND","1","326.9","28.7","52.2","282.1","0"],
    [13678,"2011-11-27T17:00:00","8.6","26.55","10.91","ND","ND","ND","1.1","302.5","28.3","52.7","167.3","0"],
    [13679,"2011-11-27T18:00:00","5","9.78","8.11","ND","ND","ND","0.6","162.2","27.3","55","20.4","0"],
    [13680,"2011-11-27T19:00:00","13.8","17.64","10.80","ND","ND","ND","3","162.3","25","67.9","0.1","0"],
    [13681,"2011-11-27T20:00:00","33.8","7.02","15.46","ND","ND","ND","1.8","158.8","24.5","71.1","0","0"],
    [13682,"2011-11-27T21:00:00","19.1","8.76","36.29","ND","ND","ND","0.3","31.4","24.3","72.2","0","0"],
    [13683,"2011-11-27T22:00:00","20.6","9.75","45.79","ND","ND","ND","0.9","7.1","23.2","78.4","0","0"],
    [13684,"2011-11-27T23:00:00","18","10.00","49.50","ND","ND","ND","0.6","34.8","22.3","82.7","0","0"],
    [13685,"2011-11-28T00:00:00","19","14.93","41.10","ND","ND","ND","0.3","355.4","21.7","85.9","0","0"],
    [13686,"2011-11-28T01:00:00","38","15.94","31.44","ND","ND","ND","0.3","289.7","21.7","85.1","0","0"],
    [13687,"2011-11-28T02:00:00","40","15.29","24.51","ND","ND","ND","0.4","191.6","21.7","83.9","0","0"],
    [13688,"2011-11-28T03:00:00","39","14.15","24.92","ND","ND","ND","0.3","193.7","22.1","81.8","0","0"],
    [13689,"2011-11-28T04:00:00","26.8","20.42","25.74","ND","ND","ND","0.2","243.9","22.1","82.6","0","0"],
    [13690,"2011-11-28T05:00:00","17.6","39.93","24.28","ND","ND","ND","0.1","12.1","21.3","89.2","0","0.25"],
    [13691,"2011-11-28T06:00:00","35.4","36.59","23.94","ND","ND","ND","0.5","47.6","21.1","90.4","0","0"],
    [13692,"2011-11-28T07:00:00","29.6","21.33","20.24","ND","ND","ND","0.2","325.7","21.1","91.4","10.2","0"],
    [13693,"2011-11-28T08:00:00","58.6","23.84","30.74","ND","ND","ND","0.1","321.1","21.7","88.3","61","0"],
    [13694,"2011-11-28T09:00:00","57.9","27.83","31.37","ND","ND","ND","0.6","56.9","22.9","82.5","160.4","0"],
    [13695,"2011-11-28T10:00:00","56.3","44.67","36.86","ND","ND","ND","0.1","188.4","23.9","76.4","224.7","0"],
    [13696,"2011-11-28T11:00:00","38.6","52.60","44.44","ND","ND","ND","1","83.1","25.5","69.6","427.8","0"],
    [13697,"2011-11-28T12:00:00","58.9","48.63","40.20","ND","ND","ND","1","90.2","26.4","64.7","310.3","0"],
    [13698,"2011-11-28T13:00:00","55","42.86","31.88","ND","ND","ND","0.6","192","26.8","62.4","182.4","0"],
    [13699,"2011-11-28T14:00:00","59.4","69.25","26.24","ND","ND","ND","1.5","259.4","26.8","60.4","347.9","0"],
    [13700,"2011-11-28T15:00:00","32.2","68.14","29.82","ND","ND","ND","1.3","274.9","28.8","51.1","587.5","0"],
    [13701,"2011-11-28T16:00:00","18.6","50.31","27.26","ND","ND","ND","1.2","308.1","28.2","52.8","229.6","0"],
    [13702,"2011-11-28T17:00:00","11.5","12.69","9.27","ND","ND","ND","2.3","288.1","27","55.4","152.6","0"],
    [13703,"2011-11-28T18:00:00","8.7","9.13","14.47","ND","ND","ND","0.4","80.6","26.7","56.2","14.9","0"],
    [13704,"2011-11-28T19:00:00","19.3","6.64","10.89","ND","ND","ND","1.8","101.1","25.4","64.5","0","0"],
    [13705,"2011-11-28T20:00:00","41.8","11.07","27.57","ND","ND","ND","0.5","149.2","23.9","72.1","0","0"],
    [13706,"2011-11-28T21:00:00","33.2","11.93","40.46","ND","ND","ND","0.8","107.3","23.5","77.9","0","0"],
    [13707,"2011-11-28T22:00:00","35.3","14.86","38.23","ND","ND","ND","0.5","275.6","22.1","84.8","0","0.51"],
    [13708,"2011-11-28T23:00:00","18.4","15.88","46.16","ND","ND","ND","0.3","283.8","21.2","89.8","0","3.05"],
    [13709,"2011-11-29T00:00:00","16.6","14.62","34.14","ND","ND","ND","0.4","347.6","21.1","89.1","0","0"],
    [13710,"2011-11-29T01:00:00","11.7","17.69","27.29","ND","ND","ND","1.1","356.3","20.9","92.2","0","0.25"],
    [13711,"2011-11-29T02:00:00","13.1","32.25","26.36","ND","ND","ND","1.5","352.9","20.7","92.6","0","0"],
    [13712,"2011-11-29T03:00:00","17.3","66.03","34.82","ND","ND","ND","0.9","346.6","20.5","92.7","0","0.76"],
    [13713,"2011-11-29T04:00:00","25","86.45","28.96","ND","ND","ND","0.2","305","20.3","94.3","0","1.27"],
    [13714,"2011-11-29T05:00:00","13.2","138.08","28.10","ND","ND","ND","0.1","223.7","20.3","94.8","0","1.02"],
    [13715,"2011-11-29T06:00:00","9.4","112.75","26.38","ND","ND","ND","0.2","81.5","20.3","95.1","0","0.25"],
    [13716,"2011-11-29T07:00:00","6.3","52.25","26.01","ND","ND","ND","1","95.8","20.3","95.7","2.1","3.05"],
    [13717,"2011-11-29T08:00:00","5.2","30.33","23.32","ND","ND","ND","1","101.6","20","96.4","11.6","21.08"],
    [13718,"2011-11-29T09:00:00","3.2","18.65","25.09","ND","ND","ND","0.4","274","19.7","95.9","54.2","13.21"],
    [13719,"2011-11-29T10:00:00","2.6","12.61","29.77","ND","ND","ND","0.2","233.6","20.4","92.1","120.5","3.05"],
    [13720,"2011-11-29T11:00:00","4.1","10.42","31.39","ND","ND","ND","0.2","261.9","21.1","90.2","256.4","1.52"],
    [13721,"2011-11-29T12:00:00","3.9","11.04","23.16","ND","ND","ND","0.2","4.3","22.8","81","309.1","0.25"],
    [13722,"2011-11-29T13:00:00","18.5","10.95","30.32","ND","ND","ND","0","349","23.1","80","265.1","0.51"],
    [13723,"2011-11-29T14:00:00","9.7","12.13","29.53","ND","ND","ND","0.1","317.5","24.3","68.4","306.9","0"],
    [13724,"2011-11-29T15:00:00","6","11.79","26.04","ND","ND","ND","1","74.6","24.9","69","272.2","0"],
    [13725,"2011-11-29T16:00:00","4.6","8.75","19.73","ND","ND","ND","0.4","359.2","25.7","65.1","211.8","0"],
    [13726,"2011-11-29T17:00:00","3.6","42.73","25.73","ND","ND","ND","0.7","259.6","25.4","65","99.3","0"],
    [13727,"2011-11-29T18:00:00","3.8","87.90","25.89","ND","ND","ND","1.7","267.4","24.5","65.4","7.8","0"],
    [13728,"2011-11-29T19:00:00","4.4","21.87","21.44","ND","ND","ND","0","21.4","24.3","64.7","0","0"],
    [13729,"2011-11-29T20:00:00","5.9","12.81","28.15","ND","ND","ND","0.2","172.2","23.8","69.9","0","0"],
    [13730,"2011-11-29T21:00:00","31.7","9.81","34.87","ND","ND","ND","0.4","277.7","23","73.9","0","0"],
    [13731,"2011-11-29T22:00:00","36.1","13.61","40.47","ND","ND","ND","0.2","190.1","22.3","76.3","0","0"],
    [13732,"2011-11-29T23:00:00","42.4","13.32","37.51","ND","ND","ND","0.6","303.9","21.4","81","0","0"],
    [13733,"2011-11-30T00:00:00","55.5","13.15","35.43","ND","ND","ND","0.1","280.9","21.1","83.6","0","0"],
    [13734,"2011-11-30T01:00:00","71.8","12.44","31.28","ND","ND","ND","0.3","352.8","20.6","85.2","0","0"],
    [13735,"2011-11-30T02:00:00","46.2","13.99","32.25","ND","ND","ND","0.4","245.3","20.3","88.6","0","0"],
    [13736,"2011-11-30T03:00:00","25.2","11.58","31.14","ND","ND","ND","0.8","231.5","20.4","88.8","0","0"],
    [13737,"2011-11-30T04:00:00","37.3","13.44","27.39","ND","ND","ND","1.1","180","20.7","89.5","0","0"],
    [13738,"2011-11-30T05:00:00","20.9","12.60","26.99","ND","ND","ND","1.8","183.3","20.5","89.4","0","0"],
    [13739,"2011-11-30T06:00:00","11","10.76","21.09","ND","ND","ND","1.1","184.3","20.6","87.8","0","0"],
    [13740,"2011-11-30T07:00:00","7.7","9.58","9.87","ND","ND","ND","0.7","207.3","21.1","82.3","5.5","0"],
    [13741,"2011-11-30T08:00:00","7","7.89","12.68","ND","ND","ND","0.8","161.9","21.9","78.8","111.6","0"],
    [13742,"2011-11-30T09:00:00","4.6","8.74","27.92","ND","ND","ND","1.2","129.1","23.6","73.5","414.2","0"],
    [13743,"2011-11-30T10:00:00","18","12.15","40.90","ND","ND","ND","0.8","135.4","24.2","71.4","345.1","0"],
    [13744,"2011-11-30T11:00:00","29.6","18.16","50.92","ND","ND","ND","1","151.5","25.3","64.3","443.2","0"],
    [13745,"2011-11-30T12:00:00","19.7","17.26","35.35","ND","ND","ND","0.8","138.5","26.5","60.8","608.7","0"],
    [13746,"2011-11-30T13:00:00","17.1","16.85","23.49","ND","ND","ND","1.4","126.9","26.7","60.3","428.9","0"],
    [13747,"2011-11-30T14:00:00","13.1","19.00","27.33","ND","ND","ND","1.2","285","27.2","58.9","624.2","0"],
    [13748,"2011-11-30T15:00:00","7.4","17.87","21.40","ND","ND","ND","0.5","16.6","27.9","57.1","584.3","0"],
    [13749,"2011-11-30T16:00:00","19.7","16.67","23.30","ND","ND","ND","1.1","306.1","28.3","53.1","373.6","0"],
    [13750,"2011-11-30T17:00:00","11.8","15.02","22.34","ND","ND","ND","2.2","266.6","27.5","52.7","114.2","0"],
    [13751,"2011-11-30T18:00:00","12.6","11.39","17.62","ND","ND","ND","0.4","226.1","26.5","55.2","14.7","0"],
    [13752,"2011-11-30T19:00:00","38","7.22","15.07","ND","ND","ND","0","230.6","26","58.1","0","0"],
    [13753,"2011-11-30T20:00:00","33.1","6.76","24.98","ND","ND","ND","0.7","138.7","25.7","58.7","0","0"],
    [13754,"2011-11-30T21:00:00","36.9","8.61","37.19","ND","ND","ND","0.9","123.4","24.6","64.7","0","0"],
    [13755,"2011-11-30T22:00:00","51.2","15.26","38.77","ND","ND","ND","1.5","168.9","24.3","63.8","0","0"],
    [13756,"2011-11-30T23:00:00","33.1","20.13","38.48","ND","ND","ND","0.1","141.7","23.8","64.9","0","0"],
    [13757,"2011-12-01T00:00:00","24.1","18.82","43.58","ND","ND","ND","0.6","147.7","23.2","68.3","0","0"],
    [13758,"2011-12-01T01:00:00","18.4","32.14","44.12","ND","ND","ND","1.6","185.2","22.4","76.8","0","0"],
    [13759,"2011-12-01T02:00:00","11.2","40.26","41.97","ND","ND","ND","0.6","152.7","22","81.2","0","0"],
    [13760,"2011-12-01T03:00:00","7.1","16.19","25.80","ND","ND","ND","0.7","162.5","21.9","81.1","0","0"],
    [13761,"2011-12-01T04:00:00","5.9","11.12","21.10","ND","ND","ND","0.9","160.4","21.5","82.8","0","0"],
    [13762,"2011-12-01T05:00:00","5.5","11.45","15.30","ND","ND","ND","0.2","120.9","21.3","82.9","0","0"],
    [13763,"2011-12-01T06:00:00","5.1","10.27","16.11","ND","ND","ND","0.1","51.8","21.1","85.3","0","0"],
    [13764,"2011-12-01T07:00:00","25.5","15.98","18.48","ND","ND","ND","0.2","44.9","21.1","87.4","14.6","0"],
    [13765,"2011-12-01T08:00:00","45.6","26.64","26.95","ND","ND","ND","0.2","65.7","21.5","85.5","65","0"],
    [13766,"2011-12-01T09:00:00","34.4","43.63","33.58","ND","ND","ND","0.6","69.8","22.6","80.4","204.8","0"],
    [13767,"2011-12-01T10:00:00","51","43.04","38.34","ND","ND","ND","1.3","62.5","23.8","71","427.9","0"],
    [13768,"2011-12-01T11:00:00","27.3","63.62","37.69","ND","ND","ND","1.3","61.3","25.2","64.5","495.7","0"],
    [13769,"2011-12-01T12:00:00","16.5","71.24","22.45","ND","ND","ND","1.1","38.6","26.1","61.8","532.6","0"],
    [13770,"2011-12-01T13:00:00","10.8","22.83","12.42","ND","ND","ND","1.3","74.3","26.8","59.7","505.9","0"],
    [13771,"2011-12-01T14:00:00","6.5","33.14","15.12","ND","ND","ND","1","59.3","26.8","60.5","293.4","0"],
    [13772,"2011-12-01T15:00:00","20","29.34","15.86","ND","ND","ND","0.7","151.9","27.7","57.4","444.9","0"],
    [13773,"2011-12-01T16:00:00","26.1","27.92","17.90","ND","ND","ND","0.4","34.9","28.1","56.6","263.6","0"],
    [13774,"2011-12-01T17:00:00","55.5","40.72","30.45","ND","ND","ND","0.9","316","27","62.5","29.4","0"],
    [13775,"2011-12-01T18:00:00","57.5","46.82","31.08","ND","ND","ND","0.5","320.2","26.3","62.8","21.5","0"],
    [13776,"2011-12-01T19:00:00","34.7","78.42","57.58","ND","ND","ND","0.8","249.4","25.5","63.7","0","0"],
    [13777,"2011-12-01T20:00:00","37","28.00","38.52","ND","ND","ND","0.1","213","24.6","66.6","0","0"],
    [13778,"2011-12-01T21:00:00","30.1","18.16","36.40","ND","ND","ND","0","259.8","23.6","72.9","0","0"],
    [13779,"2011-12-01T22:00:00","55.6","14.89","41.20","ND","ND","ND","0.1","306.4","23.7","73.6","0","0"],
    [13780,"2011-12-01T23:00:00","60.8","16.44","46.82","ND","ND","ND","0.1","292.9","23.2","74.7","0","0"],
    [13781,"2011-12-02T00:00:00","69.5","21.83","46.93","ND","ND","ND","0.3","344.4","22.4","79.6","0","0"],
    [13782,"2011-12-02T01:00:00","65.3","23.35","40.22","ND","ND","ND","0.3","349.3","21.8","82.4","0","0"],
    [13783,"2011-12-02T02:00:00","68.5","42.93","34.69","ND","ND","ND","0.6","293.1","21.4","82.8","0","0"],
    [13784,"2011-12-02T03:00:00","56.8","46.78","31.13","ND","ND","ND","0","261.7","21.3","84.6","0","0"],
    [13785,"2011-12-02T04:00:00","47.2","59.72","30.24","ND","ND","ND","0.1","238.6","21.1","86.8","0","0"],
    [13786,"2011-12-02T05:00:00","33","51.02","29.28","ND","ND","ND","0","294.5","21.2","86.9","0","0"],
    [13787,"2011-12-02T06:00:00","47.2","25.74","27.56","ND","ND","ND","0.1","46.3","21.3","85.8","0.2","0"],
    [13788,"2011-12-02T07:00:00","36.6","17.05","22.88","ND","ND","ND","0.1","235.5","21.7","84.6","43.1","0"],
    [13789,"2011-12-02T08:00:00","50.4","18.24","31.25","ND","ND","ND","0.1","212.8","22.2","84.9","91.6","0.51"],
    [13790,"2011-12-02T09:00:00","34.5","21.67","32.37","ND","ND","ND","0.5","147.6","22.2","88.4","84.3","0.25"],
    [13791,"2011-12-02T10:00:00","50.9","18.69","34.67","ND","ND","ND","2","155.4","22.7","86.7","201.4","0"],
    [13792,"2011-12-02T11:00:00","46","25.92","50.09","ND","ND","ND","2.8","158.8","23.5","80.5","357.9","0"],
    [13793,"2011-12-02T12:00:00","25.6","20.83","43.74","ND","ND","ND","2.3","162.8","24.5","73.4","406.2","0"],
    [13794,"2011-12-02T13:00:00","14.7","17.87","30.44","ND","ND","ND","0.7","268.6","23.6","80.7","119.3","1.02"],
    [13795,"2011-12-02T14:00:00","25.5","14.42","20.77","ND","ND","ND","0.7","352","22.4","87.9","199.1","2.79"],
    [13796,"2011-12-02T15:00:00","14.6","9.90","32.58","ND","ND","ND","0.4","344.3","23.9","78.7","266.6","0.25"],
    [13797,"2011-12-02T16:00:00","8","9.29","36.65","ND","ND","ND","0.6","23.3","24.3","77.4","230.6","0"],
    [13798,"2011-12-02T17:00:00","18.4","13.85","28.67","ND","ND","ND","0.6","201.7","25.1","71.3","81.4","0"],
    [13799,"2011-12-02T18:00:00","21.4","41.18","36.93","ND","ND","ND","0.5","73.3","24.7","69.2","12","0"],
    [13800,"2011-12-02T19:00:00","12.2","87.17","45.59","ND","ND","ND","1","298.7","24.4","68.6","0","0"],
    [13801,"2011-12-02T20:00:00","20.2","25.55","32.71","ND","ND","ND","2.7","163.2","23.4","78.1","0","0"],
    [13802,"2011-12-02T21:00:00","25.8","18.92","33.55","ND","ND","ND","2.3","165.3","22.4","83.6","0","0"],
    [13803,"2011-12-02T22:00:00","17.4","14.55","37.97","ND","ND","ND","1.8","145.3","22","85.3","0","2.54"],
    [13804,"2011-12-02T23:00:00","9.4","9.29","28.69","ND","ND","ND","1.3","129.7","20.2","96.3","0","52.83"],
    [13805,"2011-12-03T00:00:00","13.5","6.37","26.41","ND","ND","ND","0.2","55.1","19.8","99","0","4.32"],
    [13806,"2011-12-03T01:00:00","7.7","5.28","23.98","ND","ND","ND","1","43.9","19.5","99","0","1.02"],
    [13807,"2011-12-03T02:00:00","10.3","5.61","26.33","ND","ND","ND","0.3","33.5","19.4","98.8","0","1.52"],
    [13808,"2011-12-03T03:00:00","14.1","7.38","18.74","ND","ND","ND","0.3","324.5","19.6","98.6","0","0.76"],
    [13809,"2011-12-03T04:00:00","9.3","8.28","15.20","ND","ND","ND","0.4","72","19.9","97.8","0","0"],
    [13810,"2011-12-03T05:00:00","6.9","8.01","16.96","ND","ND","ND","0.5","92.3","19.8","97.5","0","0.25"],
    [13811,"2011-12-03T06:00:00","6.4","10.45","19.69","ND","ND","ND","0","112.2","19.9","96.8","0","0"],
    [13812,"2011-12-03T07:00:00","4.1","15.76","19.25","ND","ND","ND","0.1","105.9","20.2","95.7","13.5","0"],
    [13813,"2011-12-03T08:00:00","28.6","13.72","24.98","ND","ND","ND","0.5","125.8","20.7","93.2","67.1","0"],
    [13814,"2011-12-03T09:00:00","18.8","18.23","27.08","ND","ND","ND","0.5","35.1","21.7","89.2","283.5","0"],
    [13815,"2011-12-03T10:00:00","38.2","22.23","31.03","ND","ND","ND","0.9","24.8","23.3","80.7","370.8","0"],
    [13816,"2011-12-03T11:00:00","27.4","24.80","35.23","ND","ND","ND","1.3","71.1","24.5","72.2","493.8","0"],
    [13817,"2011-12-03T12:00:00","33.8","196.16","45.01","ND","ND","ND","1.3","73.6","26.2","65.5","646.2","0"],
    [13818,"2011-12-03T13:00:00","29.1","85.05","23.58","ND","ND","ND","1.4","50.5","26.8","64.8","419.8","0"],
    [13819,"2011-12-03T14:00:00","15.5","47.74","19.99","ND","ND","ND","0.7","34.8","27.2","63","407.2","0"],
    [13820,"2011-12-03T15:00:00","26.2","55.48","20.30","ND","ND","ND","1.6","351.6","25.4","74.5","268.4","0"],
    [13821,"2011-12-03T16:00:00","30.4","74.70","21.99","ND","ND","ND","1","63.8","26.5","66.5","187.3","0"],
    [13822,"2011-12-03T17:00:00","16.8","243.46","31.95","ND","ND","ND","0.7","250.7","27.3","58.2","123.5","0"],
    [13823,"2011-12-03T18:00:00","10.1","109.26","28.60","ND","ND","ND","1.8","229.9","25.9","59.5","5.3","0"],
    [13824,"2011-12-03T19:00:00","7.7","33.09","17.30","ND","ND","ND","3.6","194.7","23.2","79.7","0","1.02"],
    [13825,"2011-12-03T20:00:00","22.7","10.91","17.73","ND","ND","ND","0.4","244","21.8","89.4","0","2.29"],
    [13826,"2011-12-03T21:00:00","16.1","8.87","36.57","ND","ND","ND","0.3","118.6","21.9","87.8","0","0"],
    [13827,"2011-12-03T22:00:00","19.4","8.76","41.49","ND","ND","ND","0.3","96","21.2","90.4","0","0"],
    [13828,"2011-12-03T23:00:00","10.5","8.80","37.82","ND","ND","ND","0.3","15.2","20.8","93.1","0","0"],
    [13829,"2011-12-04T00:00:00","17.9","8.03","32.18","ND","ND","ND","0.2","272.4","21","93.2","0","0"],
    [13830,"2011-12-04T01:00:00","10.8","11.04","33.43","ND","ND","ND","0.1","30.7","21","91.8","0","0"],
    [13831,"2011-12-04T02:00:00","35.4","12.77","29.58","ND","ND","ND","0.1","67.7","20.7","92.7","0","0"],
    [13832,"2011-12-04T03:00:00","23.8","12.14","28.96","ND","ND","ND","0","344.9","20.4","93.7","0","0"],
    [13833,"2011-12-04T04:00:00","43.8","12.90","28.09","ND","ND","ND","0.2","45.2","20.3","93.6","0","0"],
    [13834,"2011-12-04T05:00:00","27.9","16.07","22.89","ND","ND","ND","0","177.7","20.5","93.3","0","0"],
    [13835,"2011-12-04T06:00:00","40.3","26.40","24.56","ND","ND","ND","0","355.5","20.4","93","0.2","0"],
    [13836,"2011-12-04T07:00:00","35.3","23.11","25.24","ND","ND","ND","0.2","30.2","20.6","92.7","73.1","0"],
    [13837,"2011-12-04T08:00:00","49.2","16.96","23.66","ND","ND","ND","0.7","50.4","21.8","88.2","226.6","0"],
    [13838,"2011-12-04T09:00:00","56.9","25.95","24.93","ND","ND","ND","1.1","60.6","22.8","84.1","296.1","0"],
    [13839,"2011-12-04T10:00:00","87.7","61.59","28.25","ND","ND","ND","1.1","47.4","24.5","75.5","543.4","0"],
    [13840,"2011-12-04T11:00:00","59.8","ND","49.41","ND","ND","ND","1.3","75.1","26","65.1","741.6","0"],
    [13841,"2011-12-04T12:00:00","40.2","ND","57.77","ND","ND","ND","1.4","254.6","26.4","65.6","416.4","0"],
    [13842,"2011-12-04T13:00:00","21.5","ND","41.84","ND","ND","ND","0","105","28.1","57.5","620.3","0"],
    [13843,"2011-12-04T14:00:00","22.3","170.84","34.05","ND","ND","ND","0.9","311.7","28.8","53.1","684.7","0"],
    [13844,"2011-12-04T15:00:00","11.1","102.11","23.10","ND","ND","ND","3.3","264.9","29.4","48.3","602.5","0"],
    [13845,"2011-12-04T16:00:00","5.6","55.70","13.40","ND","ND","ND","3.8","276.2","28.9","49.4","466.2","0"],
    [13846,"2011-12-04T17:00:00","3.5","12.13","5.72","ND","ND","ND","3.3","288.3","27.6","52","200.2","0"],
    [13847,"2011-12-04T18:00:00","5.1","8.22","4.43","ND","ND","ND","0.3","298.2","26.5","55","10.8","0"],
    [13848,"2011-12-04T19:00:00","4","6.45","4.45","ND","ND","ND","0.3","320.5","25.4","60.3","0","0"],
    [13849,"2011-12-04T20:00:00","5.7","7.06","11.71","ND","ND","ND","1.2","72.5","24.8","64","0","0"],
    [13850,"2011-12-04T21:00:00","13.8","9.74","17.50","ND","ND","ND","0.5","99.8","23.5","72.3","0","0"],
    [13851,"2011-12-04T22:00:00","22.9","22.84","25.50","ND","ND","ND","2.1","124.3","22.9","76.4","0","0"],
    [13852,"2011-12-04T23:00:00","12.1","20.61","33.31","ND","ND","ND","1.4","149","22.2","81.2","0","0"],
    [13853,"2011-12-05T00:00:00","7.6","13.03","26.81","ND","ND","ND","1.3","157.8","21.7","84.6","0","0"],
    [13854,"2011-12-05T01:00:00","5.2","10.24","29.00","ND","ND","ND","0.8","172.5","21.1","88.7","0","0"],
    [13855,"2011-12-05T02:00:00","3.4","9.75","23.50","ND","ND","ND","0.6","167.8","21.4","86.8","0","0"],
    [13856,"2011-12-05T03:00:00","2.7","8.23","16.24","ND","ND","ND","0.8","172.5","21.4","85.6","0","0"],
    [13857,"2011-12-05T04:00:00","2.6","7.35","17.36","ND","ND","ND","0.8","161.7","21.2","87.4","0","0"],
    [13858,"2011-12-05T05:00:00","3","7.06","13.67","ND","ND","ND","0.9","161.7","20.7","92.2","0","0"],
    [13859,"2011-12-05T06:00:00","4.5","12.03","12.85","ND","ND","ND","1.1","159.6","20.8","91.8","0","0"],
    [13860,"2011-12-05T07:00:00","3.5","12.55","15.39","ND","ND","ND","0.6","170.5","21.1","87.9","19.4","0"],
    [13861,"2011-12-05T08:00:00","4.2","14.17","20.82","ND","ND","ND","1","127.8","21.9","84.2","100.9","0"],
    [13862,"2011-12-05T09:00:00","27.1","20.10","30.03","ND","ND","ND","1.9","123.4","23.1","77.9","310.7","0"],
    [13863,"2011-12-05T10:00:00","22.6","22.57","39.13","ND","ND","ND","0.6","124.2","23.7","74.6","331.9","0"],
    [13864,"2011-12-05T11:00:00","23.9","31.33","30.10","ND","ND","ND","0.9","309.6","24.3","72.9","415","0"],
    [13865,"2011-12-05T12:00:00","44.8","24.70","22.94","ND","ND","ND","0.8","96.8","25.9","66.1","516.3","0"],
    [13866,"2011-12-05T13:00:00","25","23.60","36.35","ND","ND","ND","0.9","297","26.4","63.9","248","0"],
    [13867,"2011-12-05T14:00:00","54.7","25.75","36.14","ND","ND","ND","1.8","22.7","25","70.1","147.5","0"],
    [13868,"2011-12-05T15:00:00","29","24.32","36.46","ND","ND","ND","0.2","268.6","26.6","59","173.9","0"],
    [13869,"2011-12-05T16:00:00","20.9","42.73","38.23","ND","ND","ND","1.2","121.2","27","58.1","239.9","0"],
    [13870,"2011-12-05T17:00:00","13.2","20.15","25.63","ND","ND","ND","0.4","325.7","26.8","55.8","176.9","0"],
    [13871,"2011-12-05T18:00:00","31.4","13.65","33.44","ND","ND","ND","2.6","258.2","25.5","58.4","13.8","0"],
    [13872,"2011-12-05T19:00:00","18.3","12.28","23.07","ND","ND","ND","2.2","282.7","24.7","61","0","0"],
    [13873,"2011-12-05T20:00:00","27.2","7.64","22.41","ND","ND","ND","1","78.4","24.2","65.6","0","0"],
    [13874,"2011-12-05T21:00:00","30.3","5.70","14.24","ND","ND","ND","0.6","65.8","24.1","66","0","0"],
    [13875,"2011-12-05T22:00:00","34.8","7.92","32.58","ND","ND","ND","0.7","122.6","23.3","71.9","0","0"],
    [13876,"2011-12-05T23:00:00","19","17.01","31.72","ND","ND","ND","1.2","184.1","22.7","77.4","0","0"],
    [13877,"2011-12-06T00:00:00","22.8","23.40","33.08","ND","ND","ND","1.8","182.4","21.9","84.5","0","0"],
    [13878,"2011-12-06T01:00:00","12.6","19.32","31.65","ND","ND","ND","1.7","186.7","21.7","86.5","0","0"],
    [13879,"2011-12-06T02:00:00","8.5","9.87","25.11","ND","ND","ND","1.5","168.8","21.6","85.3","0","0"],
    [13880,"2011-12-06T03:00:00","5","11.81","23.59","ND","ND","ND","1","162.4","21.1","85","0","0"],
    [13881,"2011-12-06T04:00:00","3.8","11.56","17.81","ND","ND","ND","0.8","172.2","21.3","83.2","0","0"],
    [13882,"2011-12-06T05:00:00","3","8.23","12.91","ND","ND","ND","0.1","157.5","21.2","85.7","0","0.25"],
    [13883,"2011-12-06T06:00:00","3.4","6.83","9.39","ND","ND","ND","0.5","138","20.5","93.5","0","0.25"],
    [13884,"2011-12-06T07:00:00","4.3","7.69","12.13","ND","ND","ND","0.6","353.4","19.7","95.7","1","41.4"],
    [13885,"2011-12-06T08:00:00","4.3","10.65","20.59","ND","ND","ND","0.5","83.8","19","99.2","8.2","34.8"],
    [13886,"2011-12-06T09:00:00","3.3","8.63","24.45","ND","ND","ND","0.2","49.2","19","99.6","92.3","6.35"],
    [13887,"2011-12-06T10:00:00","2.6","7.37","31.37","ND","ND","ND","1.1","57","20.2","96.5","230.1","0"],
    [13888,"2011-12-06T11:00:00","8.9","8.69","35.04","ND","ND","ND","1.4","37.5","22.2","84","437.9","0"],
    [13889,"2011-12-06T12:00:00","5.4","14.35","37.35","ND","ND","ND","1.9","55.1","24.6","70.9","824.1","0"],
    [13890,"2011-12-06T13:00:00","2.7","43.10","23.21","ND","ND","ND","1.1","67.6","26","64.2","602.3","0"],
    [13891,"2011-12-06T14:00:00","1.3","123.70","26.06","ND","ND","ND","1.6","317.8","25.2","68.5","352.9","0"],
    [13892,"2011-12-06T15:00:00","3.2","28.21","13.42","ND","ND","ND","1","299.1","26.7","60.2","417","0"],
    [13893,"2011-12-06T16:00:00","3.1","68.67","25.89","ND","ND","ND","1.9","278.2","26.6","56","246.7","0"],
    [13894,"2011-12-06T17:00:00","2.5","68.47","22.59","ND","ND","ND","0.6","308.8","26.2","57.4","85.6","0"],
    [13895,"2011-12-06T18:00:00","10.2","11.52","10.68","ND","ND","ND","1.5","259.6","24.8","62.5","14.5","0"],
    [13896,"2011-12-06T19:00:00","14.7","25.24","21.14","ND","ND","ND","0.4","104.6","24.4","65.2","0","0"],
    [13897,"2011-12-06T20:00:00","34.9","8.05","18.19","ND","ND","ND","0.1","96.5","24.1","66.3","0","0"],
    [13898,"2011-12-06T21:00:00","21.3","12.88","31.70","ND","ND","ND","0.9","353.6","22.6","76.5","0","1.78"],
    [13899,"2011-12-06T22:00:00","41.4","12.55","30.96","ND","ND","ND","0.8","31","21","88.4","0","0.25"],
    [13900,"2011-12-06T23:00:00","21.4","11.58","31.05","ND","ND","ND","0.7","358.4","20.9","88.1","0","0"],
    [13901,"2011-12-07T00:00:00","13.2","10.62","29.07","ND","ND","ND","0.3","58.9","21.1","88","0","0"],
    [13902,"2011-12-07T01:00:00","8","22.45","29.09","ND","ND","ND","0.1","165.2","20.9","88.8","0","0"],
    [13903,"2011-12-07T02:00:00","5.1","34.27","26.56","ND","ND","ND","0.9","161","21.1","87.3","0","0"],
    [13904,"2011-12-07T03:00:00","4.3","15.67","21.56","ND","ND","ND","0.5","162.6","20.8","89.1","0","0"],
    [13905,"2011-12-07T04:00:00","3","15.45","21.89","ND","ND","ND","0.3","16.4","20.7","90.8","0","0"],
    [13906,"2011-12-07T05:00:00","3.2","11.31","13.96","ND","ND","ND","0.2","63","20.7","91.4","0","0"],
    [13907,"2011-12-07T06:00:00","12.4","9.81","19.60","ND","ND","ND","0.4","140.8","20.8","90.1","0","0"],
    [13908,"2011-12-07T07:00:00","7.8","20.92","22.84","ND","ND","ND","0.5","174.1","20.8","89.9","13.9","0"],
    [13909,"2011-12-07T08:00:00","20.9","16.89","21.95","ND","ND","ND","1.1","160.5","21.6","84.8","64.2","0"],
    [13910,"2011-12-07T09:00:00","11.6","15.59","25.06","ND","ND","ND","1.8","150.5","23.2","75.5","315.7","0"],
    [13911,"2011-12-07T10:00:00","19.7","16.49","31.90","ND","ND","ND","1.6","161.1","24.1","70.3","412.2","0"],
    [13912,"2011-12-07T11:00:00","11.4","33.02","34.63","ND","ND","ND","1.4","126.5","26","63","763","0"],
    [13913,"2011-12-07T12:00:00","19.1","30.65","20.28","ND","ND","ND","1.2","111.5","27","59.6","575.5","0"],
    [13914,"2011-12-07T13:00:00","20.6","36.51","23.49","ND","ND","ND","1","285.5","25.9","63.9","80","2.29"],
    [13915,"2011-12-07T14:00:00","33.6","24.49","22.42","ND","ND","ND","1.6","236.2","23.9","77.4","76.1","0.51"],
    [13916,"2011-12-07T15:00:00","23","19.61","32.26","ND","ND","ND","2.4","269.7","23.7","70.3","91.8","0.25"],
    [13917,"2011-12-07T16:00:00","13.4","12.08","54.10","ND","ND","ND","0.9","276.3","23.3","71.5","56.4","0.25"],
    [13918,"2011-12-07T17:00:00","21.7","7.40","18.26","ND","ND","ND","2.1","195.3","23.6","72","39","0"],
    [13919,"2011-12-07T18:00:00","19.8","7.98","26.69","ND","ND","ND","2.6","175.3","22.3","82.2","6.1","0"],
    [13920,"2011-12-07T19:00:00","12.2","11.06","37.33","ND","ND","ND","1.4","154.7","21.9","83.8","0","0"],
    [13921,"2011-12-07T20:00:00","24.1","8.06","57.48","ND","ND","ND","1.2","158.3","21.3","89.1","0","1.02"],
    [13922,"2011-12-07T21:00:00","35.2","10.40","70.20","ND","ND","ND","0.6","152.7","20.9","92.5","0","1.02"],
    [13923,"2011-12-07T22:00:00","45.7","9.74","68.58","ND","ND","ND","0.1","197.9","21","93.2","0","0"],
    [13924,"2011-12-07T23:00:00","55.7","10.68","67.19","ND","ND","ND","1","154.8","20.9","92.8","0","0.51"],
    [13925,"2011-12-08T00:00:00","58.1","13.13","62.56","ND","ND","ND","0.4","176.5","20.8","93.4","0","0.25"],
    [13926,"2011-12-08T01:00:00","38","12.06","52.51","ND","ND","ND","0.2","157.1","20.8","92.1","0","0.25"],
    [13927,"2011-12-08T02:00:00","38","12.45","39.50","ND","ND","ND","0.1","200","20.8","92.2","0","0"],
    [13928,"2011-12-08T03:00:00","21","13.51","42.28","ND","ND","ND","0.4","148","20.5","94.7","0","4.83"],
    [13929,"2011-12-08T04:00:00","21.8","12.96","40.18","ND","ND","ND","1.1","165.6","19.8","96.6","0","7.37"],
    [13930,"2011-12-08T05:00:00","12.6","9.94","35.36","ND","ND","ND","0.7","187.2","19.6","96.3","0","1.52"],
    [13931,"2011-12-08T06:00:00","12.3","8.49","32.66","ND","ND","ND","0.2","164.6","19.7","96.6","0","0.51"],
    [13932,"2011-12-08T07:00:00","8.8","7.26","20.05","ND","ND","ND","0.5","163.2","19.7","96.4","8","0"],
    [13933,"2011-12-08T08:00:00","15","6.54","27.56","ND","ND","ND","0.4","149.5","20.3","93.1","41.3","0.25"],
    [13934,"2011-12-08T09:00:00","8.6","8.15","33.61","ND","ND","ND","0.1","214.2","21.3","86","134.8","0"],
    [13935,"2011-12-08T10:00:00","6.4","11.46","31.10","ND","ND","ND","0.2","65.9","22.6","78.9","337.6","0"],
    [13936,"2011-12-08T11:00:00","4.7","15.59","26.34","ND","ND","ND","0.5","103.3","24.4","69.6","515.6","0"],
    [13937,"2011-12-08T12:00:00","4.3","12.39","17.27","ND","ND","ND","1","58","24.6","71.4","344.6","0"],
    [13938,"2011-12-08T13:00:00","17.1","13.35","16.08","ND","ND","ND","1.2","38.1","25.1","69.6","485.1","0"],
    [13939,"2011-12-08T14:00:00","10.9","22.65","19.58","ND","ND","ND","1","48.3","25.9","65.1","446","0"],
    [13940,"2011-12-08T15:00:00","7.3","13.69","14.28","ND","ND","ND","0.8","2.1","26.5","63.1","341.5","0"],
    [13941,"2011-12-08T16:00:00","20","36.68","16.24","ND","ND","ND","1.1","309.3","26.1","64.4","140.9","0"],
    [13942,"2011-12-08T17:00:00","11.6","73.82","21.78","ND","ND","ND","0.9","160.3","23.7","80","50.7","2.29"],
    [13943,"2011-12-08T18:00:00","7.5","147.03","33.70","ND","ND","ND","0.5","205.6","23.2","80.9","16.4","0.25"],
    [13944,"2011-12-08T19:00:00","6.4","19.69","25.20","ND","ND","ND","0.5","112","22.9","82.9","0.1","0"],
    [13945,"2011-12-08T20:00:00","4.6","11.94","27.34","ND","ND","ND","0.1","221.5","22.2","88","0","0"],
    [13946,"2011-12-08T21:00:00","5","10.41","32.93","ND","ND","ND","0.4","269","21.8","89.5","0","0"],
    [13947,"2011-12-08T22:00:00","28.1","10.55","42.93","ND","ND","ND","0.1","250.7","21.6","88.1","0","0.25"],
    [13948,"2011-12-08T23:00:00","32.9","10.52","31.91","ND","ND","ND","0.1","153.7","21.5","89.5","0","0"],
    [13949,"2011-12-09T00:00:00","28.5","10.49","25.41","ND","ND","ND","0","195.9","21.4","90.9","0","0"],
    [13950,"2011-12-09T01:00:00","33.3","11.44","35.39","ND","ND","ND","0.3","0.5","21","90.8","0","0"],
    [13951,"2011-12-09T02:00:00","37","11.99","28.28","ND","ND","ND","0.1","145.5","20.9","92.2","0","0"],
    [13952,"2011-12-09T03:00:00","20.3","9.54","23.55","ND","ND","ND","0.1","265.9","20.3","93.7","0","0"],
    [13953,"2011-12-09T04:00:00","22.5","16.66","24.45","ND","ND","ND","0.1","302.8","20.1","91.1","0","0"],
    [13954,"2011-12-09T05:00:00","12.2","13.71","18.52","ND","ND","ND","0.2","194.9","20.2","94.1","0","0"],
    [13955,"2011-12-09T06:00:00","38.2","13.56","19.09","ND","ND","ND","0.7","352.6","20.3","93.9","0","0"],
    [13956,"2011-12-09T07:00:00","49.7","12.38","19.91","ND","ND","ND","0.2","16.8","20.5","94.2","46.3","0"],
    [13957,"2011-12-09T08:00:00","68.4","20.03","26.32","ND","ND","ND","0.5","68.3","22","86.1","181.9","0"],
    [13958,"2011-12-09T09:00:00","54.5","58.93","33.67","ND","ND","ND","0.7","90","23.3","80.3","275.3","0"],
    [13959,"2011-12-09T10:00:00","60.1","82.30","43.32","ND","ND","ND","1","107.5","24.8","73.2","544.1","0"],
    [13960,"2011-12-09T11:00:00","31.1","62.08","48.99","ND","ND","ND","0.9","148.9","26.4","64.1","658.3","0"],
    [13961,"2011-12-09T12:00:00","24.9","41.78","34.70","ND","ND","ND","1","97.5","27.2","60.6","513.5","0"],
    [13962,"2011-12-09T13:00:00","23.8","29.14","24.29","ND","ND","ND","1.1","57.6","27.4","60.3","408.1","0"],
    [13963,"2011-12-09T14:00:00","36.6","26.76","33.04","ND","ND","ND","0.7","11.6","28.1","57","499.3","0"],
    [13964,"2011-12-09T15:00:00","38.5","20.31","20.80","ND","ND","ND","0.6","90.5","28.5","56.2","331.6","0"],
    [13965,"2011-12-09T16:00:00","44.9","72.27","25.00","ND","ND","ND","0.9","240.2","28.6","52.8","197.4","0"],
    [13966,"2011-12-09T17:00:00","23.6","68.55","24.15","ND","ND","ND","1.5","240.4","29","51.9","205.8","0"],
    [13967,"2011-12-09T18:00:00","13.2","18.19","22.35","ND","ND","ND","0.9","247.5","27.2","56.4","19.3","0"],
    [13968,"2011-12-09T19:00:00","22.5","10.69","18.61","ND","ND","ND","0.2","122.1","26.2","59.1","0.1","0"],
    [13969,"2011-12-09T20:00:00","55.3","10.18","36.01","ND","ND","ND","0.1","139.4","25.2","65.4","0","0"],
    [13970,"2011-12-09T21:00:00","83.1","11.38","43.84","ND","ND","ND","0.2","84.4","24.1","71.5","0","0"],
    [13971,"2011-12-09T22:00:00","134.1","22.65","52.97","ND","ND","ND","0.3","236.8","23.1","77.1","0","0"],
    [13972,"2011-12-09T23:00:00","132","26.40","44.28","ND","ND","ND","0.2","258.7","22.4","80.7","0","0"],
    [13973,"2011-12-10T00:00:00","85.3","28.55","37.99","ND","ND","ND","0.1","333.3","21.9","82.2","0","0"],
    [13974,"2011-12-10T01:00:00","65.1","23.03","34.56","ND","ND","ND","0","260.7","22.1","81.7","0","0"],
    [13975,"2011-12-10T02:00:00","61.4","15.75","28.31","ND","ND","ND","0.3","347.8","21.6","85.8","0","0"],
    [13976,"2011-12-10T03:00:00","59.8","16.47","27.46","ND","ND","ND","0.1","339.7","21.5","85.7","0","0"],
    [13977,"2011-12-10T04:00:00","55.1","20.66","24.38","ND","ND","ND","0.5","337.1","21.4","87","0","0.25"],
    [13978,"2011-12-10T05:00:00","32.5","27.70","22.57","ND","ND","ND","0.3","242.7","20.9","92.8","0","0"],
    [13979,"2011-12-10T06:00:00","41.3","29.30","23.59","ND","ND","ND","0.2","182.3","21.1","92.6","0","0.25"],
    [13980,"2011-12-10T07:00:00","22.5","18.93","21.58","ND","ND","ND","0.2","282.8","21.2","90.2","10.4","0"],
    [13981,"2011-12-10T08:00:00","34.6","13.48","19.95","ND","ND","ND","0.4","215.8","21.8","88.7","50.9","0"],
    [13982,"2011-12-10T09:00:00","32","18.12","23.51","ND","ND","ND","0.9","203.4","22.6","83.8","230.5","0"],
    [13983,"2011-12-10T10:00:00","38","23.65","30.53","ND","ND","ND","1.3","169.3","24.9","69.8","513.3","0"],
    [13984,"2011-12-10T11:00:00","20.8","22.92","42.91","ND","ND","ND","1.2","156","27","60.4","642.2","0"],
    [13985,"2011-12-10T12:00:00","26.5","71.72","40.05","ND","ND","ND","0.6","190.1","27.8","58.1","581.2","0"],
    [13986,"2011-12-10T13:00:00","20.6","27.27","33.65","ND","ND","ND","1","19","28.5","55.5","714.5","0"],
    [13987,"2011-12-10T14:00:00","13.5","22.56","28.70","ND","ND","ND","0.7","48.9","29.2","51.4","496.8","0"],
    [13988,"2011-12-10T15:00:00","9.4","22.85","28.46","ND","ND","ND","1.3","322.1","29.6","49.4","419.8","0"],
    [13989,"2011-12-10T16:00:00","6.4","25.73","16.62","ND","ND","ND","3.6","279.8","29.2","49.6","444.3","0"],
    [13990,"2011-12-10T17:00:00","4.3","11.51","12.62","ND","ND","ND","3.1","283.9","28","51.6","184.4","0"],
    [13991,"2011-12-10T18:00:00","3.1","6.11","8.20","ND","ND","ND","1.2","262.9","27.4","53.1","38.9","0"],
    [13992,"2011-12-10T19:00:00","2.7","6.79","7.86","ND","ND","ND","1.2","215.5","26.4","55.6","0.1","0"],
    [13993,"2011-12-10T20:00:00","15.7","11.06","18.22","ND","ND","ND","2.3","161.6","24.6","70.3","0","0"],
    [13994,"2011-12-10T21:00:00","27.5","8.27","21.82","ND","ND","ND","1.8","153.7","23.8","73.5","0","0"],
    [13995,"2011-12-10T22:00:00","34.3","9.19","46.26","ND","ND","ND","0.5","295.6","23.5","75.8","0","0"],
    [13996,"2011-12-10T23:00:00","24.8","12.57","42.11","ND","ND","ND","1","1.5","22.8","79.9","0","0"],
    [13997,"2011-12-11T00:00:00","40.5","13.00","40.76","ND","ND","ND","0.8","17.5","22.1","83.7","0","0"],
    [13998,"2011-12-11T01:00:00","21.6","21.56","40.29","ND","ND","ND","0.7","42.1","21.7","85.3","0","0"],
    [13999,"2011-12-11T02:00:00","20.3","20.26","28.48","ND","ND","ND","0.5","32.2","21.4","85.9","0","0"],
    [14000,"2011-12-11T03:00:00","16.9","14.31","27.43","ND","ND","ND","0.1","17.6","21.6","87.2","0","0"],
    [14001,"2011-12-11T04:00:00","23.2","12.15","22.64","ND","ND","ND","0.1","239.8","21.6","88.5","0","0"],
    [14002,"2011-12-11T05:00:00","12.2","13.68","26.63","ND","ND","ND","0.3","94.5","21.5","87.1","0","0"],
    [14003,"2011-12-11T06:00:00","23.6","17.30","28.98","ND","ND","ND","0.2","27.3","21.2","89.1","0","0"],
    [14004,"2011-12-11T07:00:00","12.6","27.19","26.53","ND","ND","ND","0.3","311.1","21.4","87.9","16.9","0"],
    [14005,"2011-12-11T08:00:00","35","23.50","22.81","ND","ND","ND","0.1","121.9","22.1","84.7","77.4","0"],
    [14006,"2011-12-11T09:00:00","24.7","31.89","25.31","ND","ND","ND","0.5","52.4","23.8","76.8","294.8","0"],
    [14007,"2011-12-11T10:00:00","35.2","52.01","31.66","ND","ND","ND","1.2","52.9","24.8","70.8","472.6","0"],
    [14008,"2011-12-11T11:00:00","22.2","133.67","34.16","ND","ND","ND","0.2","183.7","26.1","64.2","482.5","0"],
    [14009,"2011-12-11T12:00:00","49","263.86","37.28","ND","ND","ND","0.7","160.6","27.6","57.8","721.2","0"],
    [14010,"2011-12-11T13:00:00","25.1","151.95","33.23","ND","ND","ND","0.8","24","28.2","56.7","476.8","0"],
    [14011,"2011-12-11T14:00:00","26.1","77.23","24.90","ND","ND","ND","0.9","330.9","28.5","53.6","520.6","0"],
    [14012,"2011-12-11T15:00:00","14.6","41.36","20.87","ND","ND","ND","1.6","306.8","28.4","53.8","269.8","0"],
    [14013,"2011-12-11T16:00:00","8.7","30.53","12.25","ND","ND","ND","2.6","271.2","29.2","50.1","423.8","0"],
    [14014,"2011-12-11T17:00:00","18.6","41.69","11.54","ND","ND","ND","2","285.3","28.7","49.8","267.7","0"],
    [14015,"2011-12-11T18:00:00","9.3","8.73","7.30","ND","ND","ND","0.7","278","27.4","53.8","36.6","0"],
    [14016,"2011-12-11T19:00:00","7.1","6.66","6.63","ND","ND","ND","0.2","35.2","26.6","55.4","0.1","0"],
    [14017,"2011-12-11T20:00:00","3.5","6.40","11.46","ND","ND","ND","0","281.3","26.3","56.8","0","0"],
    [14018,"2011-12-11T21:00:00","3.9","5.47","16.08","ND","ND","ND","0.8","85.1","25.6","61.4","0","0"],
    [14019,"2011-12-11T22:00:00","15.5","7.98","20.14","ND","ND","ND","0.7","34.8","24.6","67.6","0","0"],
    [14020,"2011-12-11T23:00:00","8.6","8.48","24.41","ND","ND","ND","0.6","84.7","23.6","74.3","0","0"],
    [14021,"2011-12-12T00:00:00","5.7","15.00","27.41","ND","ND","ND","0.5","6.9","23.1","78.3","0","0"],
    [14022,"2011-12-12T01:00:00","13.2","9.69","22.68","ND","ND","ND","0.5","29.9","22.3","84.6","0","0"],
    [14023,"2011-12-12T02:00:00","7.9","11.22","25.46","ND","ND","ND","0.2","186.9","22.4","82","0","0"],
    [14024,"2011-12-12T03:00:00","5.8","21.14","23.37","ND","ND","ND","0.6","175.5","22.3","82.1","0","0"],
    [14025,"2011-12-12T04:00:00","5","16.41","14.78","ND","ND","ND","0.9","148","22.1","85.1","0","0"],
    [14026,"2011-12-12T05:00:00","4","15.88","13.58","ND","ND","ND","1.7","166.6","21.4","88.9","0","0"],
    [14027,"2011-12-12T06:00:00","13.5","13.25","11.46","ND","ND","ND","2.1","165.3","21.2","87.9","0","0"],
    [14028,"2011-12-12T07:00:00","8.4","16.14","13.69","ND","ND","ND","2","169.4","20.7","87.7","13.5","0"],
    [14029,"2011-12-12T08:00:00","4.2","13.40","17.69","ND","ND","ND","1.2","155.8","21.1","85.8","67.3","0"],
    [14030,"2011-12-12T09:00:00","19.2","14.69","26.45","ND","ND","ND","0.6","119.8","21.8","83.2","106.9","0"],
    [14031,"2011-12-12T10:00:00","10.3","12.03","37.45","ND","ND","ND","0.7","81.4","22.2","81.9","165.9","0"],
    [14032,"2011-12-12T11:00:00","7.7","15.76","36.55","ND","ND","ND","1.1","47.3","22.7","81","311.1","0"],
    [14033,"2011-12-12T12:00:00","15.8","15.89","28.30","ND","ND","ND","0.7","89.3","24.4","73.8","454.5","0"],
    [14034,"2011-12-12T13:00:00","9.4","17.21","17.35","ND","ND","ND","0.8","224.1","25.9","63.6","414","0"],
    [14035,"2011-12-12T14:00:00","5.8","16.22","26.94","ND","ND","ND","0.5","123.7","27.6","56.8","485","0"],
    [14036,"2011-12-12T15:00:00","5","14.72","30.06","ND","ND","ND","1.5","6.4","27.2","58.6","290.5","0"],
    [14037,"2011-12-12T16:00:00","4.3","13.33","23.93","ND","ND","ND","0.5","279.1","27.4","54.6","136.3","0"],
    [14038,"2011-12-12T17:00:00","3","19.49","25.59","ND","ND","ND","0.8","285.6","26.9","54.8","90.8","0"],
    [14039,"2011-12-12T18:00:00","22.3","17.25","15.37","ND","ND","ND","1.1","332.7","25.7","58.4","18.7","0"],
    [14040,"2011-12-12T19:00:00","13.4","7.85","21.50","ND","ND","ND","0.3","99.2","25.5","59.4","0.1","0"],
    [14041,"2011-12-12T20:00:00","21.4","6.59","23.71","ND","ND","ND","1.1","132.8","24.2","70.2","0","0"],
    [14042,"2011-12-12T21:00:00","41.7","7.00","28.18","ND","ND","ND","0.8","220.6","23.6","75","0","0"],
    [14043,"2011-12-12T22:00:00","23.3","9.75","49.71","ND","ND","ND","1.9","150.9","23.2","74.3","0","0"],
    [14044,"2011-12-12T23:00:00","14.2","15.63","56.59","ND","ND","ND","1.1","148","22.6","79.5","0","0"],
    [14045,"2011-12-13T00:00:00","14.3","12.14","45.31","ND","ND","ND","0.1","92.9","22.2","83.5","0","0"],
    [14046,"2011-12-13T01:00:00","8.9","9.06","33.99","ND","ND","ND","0.3","352.1","21.8","88.2","0","0"],
    [14047,"2011-12-13T02:00:00","22","7.44","33.33","ND","ND","ND","0.7","34.1","21.4","91.3","0","0"],
    [14048,"2011-12-13T03:00:00","12.7","22.18","35.13","ND","ND","ND","0.4","16.3","21.1","92.7","0","0"],
    [14049,"2011-12-13T04:00:00","10.9","25.78","29.44","ND","ND","ND","0.4","63.7","21.2","90.5","0","0"],
    [14050,"2011-12-13T05:00:00","8","23.18","20.83","ND","ND","ND","0.6","99.5","21.4","88.8","0","0"],
    [14051,"2011-12-13T06:00:00","22.8","27.21","20.84","ND","ND","ND","0.3","59.9","20.9","94","0","0.76"],
    [14052,"2011-12-13T07:00:00","18.1","24.32","18.76","ND","ND","ND","0.5","142.3","20.6","96","5","6.6"],
    [14053,"2011-12-13T08:00:00","19.1","16.26","23.81","ND","ND","ND","0.7","116.1","21.1","93","59.8","0.25"],
    [14054,"2011-12-13T09:00:00","11.9","14.69","28.81","ND","ND","ND","0.8","187.1","21.8","88.3","118.6","0"],
    [14055,"2011-12-13T10:00:00","7.1","14.85","38.70","ND","ND","ND","1.2","155.5","22.7","82.6","114.2","0"],
    [14056,"2011-12-13T11:00:00","4.8","17.76","38.11","ND","ND","ND","1.4","159.4","24.1","73.8","336.5","0"],
    [14057,"2011-12-13T12:00:00","4","16.22","41.14","ND","ND","ND","1.5","197.3","25","70.1","500.7","0"],
    [14058,"2011-12-13T13:00:00","4.1","13.57","25.13","ND","ND","ND","1.4","164.9","26.2","63.9","357.5","0"],
    [14059,"2011-12-13T14:00:00","5.6","10.37","33.21","ND","ND","ND","0.6","275.8","25.2","68.6","124.5","0"],
    [14060,"2011-12-13T15:00:00","9.4","19.74","26.27","ND","ND","ND","1","234.1","25.7","66.7","464.5","0"],
    [14061,"2011-12-13T16:00:00","26.7","16.65","27.30","ND","ND","ND","1.6","127","27.2","60.2","383.5","0"],
    [14062,"2011-12-13T17:00:00","21.9","9.56","21.14","ND","ND","ND","1.1","151.8","23.9","82.5","25.7","1.78"],
    [14063,"2011-12-13T18:00:00","23.4","16.71","31.99","ND","ND","ND","0.8","225.2","23.1","84.8","9.8","0"],
    [14064,"2011-12-13T19:00:00","17.5","14.19","51.00","ND","ND","ND","0.3","220.5","23.2","85.6","0.2","0"],
    [14065,"2011-12-13T20:00:00","47.2","11.93","67.90","ND","ND","ND","0.2","255.4","22.7","84","0","0"],
    [14066,"2011-12-13T21:00:00","30.5","13.73","61.21","ND","ND","ND","0.5","180.7","22.7","84.4","0","0"],
    [14067,"2011-12-13T22:00:00","56.4","12.87","49.17","ND","ND","ND","0.1","304.1","22.8","85","0","0"],
    [14068,"2011-12-13T23:00:00","55","14.44","47.47","ND","ND","ND","0.1","338.2","22.8","86.2","0","0"],
    [14069,"2011-12-14T00:00:00","60.2","13.84","47.67","ND","ND","ND","0.5","45.3","22.3","89.9","0","0"],
    [14070,"2011-12-14T01:00:00","54.7","13.27","48.13","ND","ND","ND","0.2","45.3","22","90.6","0","0"],
    [14071,"2011-12-14T02:00:00","44","15.62","39.75","ND","ND","ND","0","160.2","22","90.4","0","0"],
    [14072,"2011-12-14T03:00:00","23.5","14.16","29.66","ND","ND","ND","0.6","42.7","21.8","91.1","0","0"],
    [14073,"2011-12-14T04:00:00","41.9","12.26","33.74","ND","ND","ND","0.1","61","21.7","90.2","0","0"],
    [14074,"2011-12-14T05:00:00","29.2","13.55","26.91","ND","ND","ND","0.1","283.7","21.6","90.3","0","0"],
    [14075,"2011-12-14T06:00:00","36.2","13.18","20.91","ND","ND","ND","0.7","36.3","20.8","96.5","0","39.12"],
    [14076,"2011-12-14T07:00:00","33.8","15.96","26.66","ND","ND","ND","0.8","14","20.2","99.5","2.7","18.03"],
    [14077,"2011-12-14T08:00:00","31.7","17.45","27.65","ND","ND","ND","0.3","127","19.9","99.7","17.3","10.16"],
    [14078,"2011-12-14T09:00:00","16.8","26.53","28.99","ND","ND","ND","1.2","175","20.1","98.9","49.3","5.84"],
    [14079,"2011-12-14T10:00:00","9.7","72.68","32.88","ND","ND","ND","1.2","190.5","21.3","92.1","272","0.25"],
    [14080,"2011-12-14T11:00:00","4.8","40.89","40.94","ND","ND","ND","0.7","147.5","23.6","77.1","374.7","0"],
    [14081,"2011-12-14T12:00:00","2.4","20.84","29.09","ND","ND","ND","0.3","48.9","24.1","76.1","227","0"],
    [14082,"2011-12-14T13:00:00","5.6","13.32","32.15","ND","ND","ND","0.8","25.7","24.5","74.8","257.6","0"],
    [14083,"2011-12-14T14:00:00","7.6","13.00","38.21","ND","ND","ND","1.4","65.3","23.8","80.6","94.3","0"],
    [14084,"2011-12-14T15:00:00","6.8","13.54","28.66","ND","ND","ND","0.5","222","21.4","93.1","24.3","10.16"],
    [14085,"2011-12-14T16:00:00","10.1","12.97","31.50","ND","ND","ND","0.9","278.1","20.9","91.4","40.6","2.54"],
    [14086,"2011-12-14T17:00:00","7","12.25","42.80","ND","ND","ND","0.9","335.6","21.9","90.4","49.3","0"],
    [14087,"2011-12-14T18:00:00","37.5","10.37","44.45","ND","ND","ND","0.4","327.6","22.4","87.6","27.8","0.25"],
    [14088,"2011-12-14T19:00:00","44.8","59.14","58.47","ND","ND","ND","0.5","238.6","22.2","89.3","0.2","0"],
    [14089,"2011-12-14T20:00:00","23.5","137.10","63.62","ND","ND","ND","0.7","194.4","22.2","87.3","0","0"],
    [14090,"2011-12-14T21:00:00","14","53.73","44.82","ND","ND","ND","0.2","256.5","21.9","88.6","0","0"],
    [14091,"2011-12-14T22:00:00","17","25.98","33.66","ND","ND","ND","0","0","21.8","90.6","0","0"],
    [14092,"2011-12-14T23:00:00","11.8","18.27","27.15","ND","ND","ND","0.2","231.6","21.5","91.9","0","0"],
    [14093,"2011-12-15T00:00:00","11.2","14.55","24.12","ND","ND","ND","0.1","263.9","21.5","90.5","0","0"],
    [14094,"2011-12-15T01:00:00","6.3","13.15","25.43","ND","ND","ND","0","262.5","21.4","91.3","0","0"],
    [14095,"2011-12-15T02:00:00","21.9","10.25","24.67","ND","ND","ND","0.2","34.6","21.3","92.2","0","0"],
    [14096,"2011-12-15T03:00:00","11.6","10.40","24.50","ND","ND","ND","0.1","180.1","21.2","92.6","0","0"],
    [14097,"2011-12-15T04:00:00","10.8","12.80","25.44","ND","ND","ND","0.3","159.8","21.1","93.5","0","0"],
    [14098,"2011-12-15T05:00:00","7.9","10.71","21.67","ND","ND","ND","0.4","61.4","20.9","95.2","0","0"],
    [14099,"2011-12-15T06:00:00","5.5","10.72","18.69","ND","ND","ND","0.5","52","20.6","96.5","0","1.02"],
    [14100,"2011-12-15T07:00:00","3.6","8.88","18.69","ND","ND","ND","0.3","139.9","20.5","96.8","3.7","1.02"],
    [14101,"2011-12-15T08:00:00","17.2","9.37","20.74","ND","ND","ND","2.2","179.1","19.4","99.2","15.8","59.18"],
    [14102,"2011-12-15T09:00:00","10","9.64","24.86","ND","ND","ND","0.7","182.3","19.3","100","19.5","44.2"],
    [14103,"2011-12-15T10:00:00","6.7","10.02","30.19","ND","ND","ND","0.4","202.8","19.2","100","31.1","16.51"],
    [14104,"2011-12-15T11:00:00","5.3","9.76","37.08","ND","ND","ND","0.3","148.4","19.5","100","126.9","7.62"],
    [14105,"2011-12-15T12:00:00","4.3","9.44","45.26","ND","ND","ND","0.4","31.7","20.4","100","221.9","0.76"],
    [14106,"2011-12-15T13:00:00","4.9","9.16","39.54","ND","ND","ND","0.3","33.9","22.8","86.8","547.1","0"],
    [14107,"2011-12-15T14:00:00","7.7","11.34","47.93","ND","ND","ND","0.7","115","25","69.9","561.5","0"],
    [14108,"2011-12-15T15:00:00","3.9","16.22","41.61","ND","ND","ND","0.8","96.2","24.5","73.1","127.1","0"],
    [14109,"2011-12-15T16:00:00","1.9","15.51","22.64","ND","ND","ND","1.4","327.9","23.8","76.6","152.8","0"],
    [14110,"2011-12-15T17:00:00","10.9","11.04","20.43","ND","ND","ND","0.8","351.3","23.9","75.3","100.2","0"],
    [14111,"2011-12-15T18:00:00","35.8","12.92","31.62","ND","ND","ND","0.1","64","23.8","76.1","16.4","0"],
    [14112,"2011-12-15T19:00:00","19","162.40","45.28","ND","ND","ND","1","171.7","23.6","76.9","0.1","0"],
    [14113,"2011-12-15T20:00:00","58.3","184.72","62.27","ND","ND","ND","0.4","169.6","23.3","76.6","0","0"],
    [14114,"2011-12-15T21:00:00","39.4","79.67","47.66","ND","ND","ND","0","6.9","22.6","81.7","0","0"],
    [14115,"2011-12-15T22:00:00","68.9","41.09","32.49","ND","ND","ND","0.1","268.4","22.2","86.5","0","0"],
    [14116,"2011-12-15T23:00:00","57.4","31.38","32.02","ND","ND","ND","0","293.6","22.1","86.2","0","0"],
    [14117,"2011-12-16T00:00:00","48","27.69","30.07","ND","ND","ND","0","324.8","21.5","90.5","0","0"],
    [14118,"2011-12-16T01:00:00","39","22.58","26.19","ND","ND","ND","0.6","201.9","20.8","93.1","0","1.52"],
    [14119,"2011-12-16T02:00:00","25.8","17.08","20.33","ND","ND","ND","0.9","189.7","19.6","98","0","19.56"],
    [14120,"2011-12-16T03:00:00","13.4","20.17","19.45","ND","ND","ND","0.1","275.2","19.6","99","0","4.83"],
    [14121,"2011-12-16T04:00:00","8.6","11.24","19.47","ND","ND","ND","0","165.5","19.9","97.3","0","0.25"],
    [14122,"2011-12-16T05:00:00","5.4","7.06","16.29","ND","ND","ND","0","0","20.1","97.7","0","11.18"],
    [14123,"2011-12-16T06:00:00","3.9","6.78","13.58","ND","ND","ND","0.3","324.4","19.7","99.2","0","30.73"],
    [14124,"2011-12-16T07:00:00","3.6","6.69","18.70","ND","ND","ND","0.2","234.5","19.4","100","3.1","22.61"],
    [14125,"2011-12-16T08:00:00","3.3","10.98","24.12","ND","ND","ND","0.6","186.1","19.3","100","17.7","6.6"],
    [14126,"2011-12-16T09:00:00","6.9","23.34","28.06","ND","ND","ND","0.6","142.8","19.7","100","45.2","8.38"],
    [14127,"2011-12-16T10:00:00","4","20.77","29.69","ND","ND","ND","1.1","140","20.1","96.8","109.1","2.03"],
    [14128,"2011-12-16T11:00:00","2","22.70","39.16","ND","ND","ND","0.4","191.7","21.4","87.8","175.2","0"],
    [14129,"2011-12-16T12:00:00","1","17.03","31.13","ND","ND","ND","0.7","251","21.9","85.4","226.4","0"],
    [14130,"2011-12-16T13:00:00","0.5","14.34","39.53","ND","ND","ND","0.7","151.1","23.5","76.6","428.1","0"],
    [14131,"2011-12-16T14:00:00","0.3","11.86","52.40","ND","ND","ND","0.6","5.2","23.7","76.8","213.3","0"],
    [14132,"2011-12-16T15:00:00","19.2","11.53","43.17","ND","ND","ND","1","9.9","23","83.8","251.5","0"],
    [14133,"2011-12-16T16:00:00","16.2","17.18","42.95","ND","ND","ND","1.4","39.4","23.8","79.3","279.3","0"],
    [14134,"2011-12-16T17:00:00","9.1","19.99","40.86","ND","ND","ND","0.8","59.1","23.8","77.8","124.1","0"],
    [14135,"2011-12-16T18:00:00","22.4","38.65","34.07","ND","ND","ND","0.5","89.3","23.8","77.4","17.2","0"],
    [14136,"2011-12-16T19:00:00","23.9","62.68","38.38","ND","ND","ND","0.6","246.3","23.4","74.2","0.1","0"],
    [14137,"2011-12-16T20:00:00","20.2","54.60","44.34","ND","ND","ND","0.4","244.3","22.8","74.6","0","0"],
    [14138,"2011-12-16T21:00:00","29.2","35.63","38.57","ND","ND","ND","0.4","252.8","22.3","78.4","0","0"],
    [14139,"2011-12-16T22:00:00","40","17.73","31.41","ND","ND","ND","0.1","24.6","22","82.1","0","0"],
    [14140,"2011-12-16T23:00:00","68","17.53","31.49","ND","ND","ND","0.1","269.9","21.5","86.5","0","0.25"],
    [14141,"2011-12-17T00:00:00","57.8","19.29","29.37","ND","ND","ND","0.5","242.9","20.8","92.3","0","0.76"],
    [14142,"2011-12-17T01:00:00","36.5","21.70","26.89","ND","ND","ND","0.7","174.6","20.7","93.2","0","0.25"],
    [14143,"2011-12-17T02:00:00","29","16.37","23.72","ND","ND","ND","0.5","163","20.7","93.6","0","0"],
    [14144,"2011-12-17T03:00:00","17","10.67","27.03","ND","ND","ND","0.2","137.1","20.5","94.3","0","0.25"],
    [14145,"2011-12-17T04:00:00","13.1","8.80","30.79","ND","ND","ND","0","131.9","20.4","95.7","0","0"],
    [14146,"2011-12-17T05:00:00","8.3","8.75","30.08","ND","ND","ND","0","0","20.3","95.9","0","0"],
    [14147,"2011-12-17T06:00:00","12.3","8.10","28.29","ND","ND","ND","0.1","83.5","20.3","95.6","0","0"],
    [14148,"2011-12-17T07:00:00","7.2","8.07","21.21","ND","ND","ND","0.1","353.8","20.2","95.6","2.9","0.51"],
    [14149,"2011-12-17T08:00:00","8.8","7.76","25.07","ND","ND","ND","0.7","43.4","20.2","96.8","24.3","0"],
    [14150,"2011-12-17T09:00:00","5.9","11.42","26.18","ND","ND","ND","0.7","150.9","21.3","90.5","226.5","0"],
    [14151,"2011-12-17T10:00:00","29.7","15.42","23.55","ND","ND","ND","1","175.3","22.7","81.8","372.1","0"],
    [14152,"2011-12-17T11:00:00","25.5","21.42","28.71","ND","ND","ND","0.5","164.5","23.9","75","327.2","0"],
    [14153,"2011-12-17T12:00:00","34.8","18.56","47.87","ND","ND","ND","0.3","328.3","25.2","70","424.8","0"],
    [14154,"2011-12-17T13:00:00","36.7","23.73","45.23","ND","ND","ND","0.6","260.1","25.5","68.3","445.9","0"],
    [14155,"2011-12-17T14:00:00","38.4","21.94","33.98","ND","ND","ND","0.8","51.8","26.7","62","469.9","0"],
    [14156,"2011-12-17T15:00:00","20.8","25.98","36.61","ND","ND","ND","1.5","13.6","26.7","62.9","317.1","0"],
    [14157,"2011-12-17T16:00:00","40.8","45.51","25.38","ND","ND","ND","1.5","52.7","26.4","68","205.9","0"],
    [14158,"2011-12-17T17:00:00","24.2","88.61","30.58","ND","ND","ND","0.4","182.6","26.6","62.9","124.3","0"],
    [14159,"2011-12-17T18:00:00","14.1","46.84","24.12","ND","ND","ND","0.3","206.4","25.8","65","22.3","0"],
    [14160,"2011-12-17T19:00:00","19.6","41.20","26.70","ND","ND","ND","0.1","66.2","24","73.4","0.2","0"],
    [14161,"2011-12-17T20:00:00","48.7","16.35","32.23","ND","ND","ND","0.6","213.7","23.4","72.5","0","0"],
    [14162,"2011-12-17T21:00:00","26.5","17.07","39.64","ND","ND","ND","0.2","319.4","23","75.9","0","0"],
    [14163,"2011-12-17T22:00:00","43.9","17.85","34.10","ND","ND","ND","0.5","194.7","22.8","77.2","0","0"],
    [14164,"2011-12-17T23:00:00","51.7","17.48","34.57","ND","ND","ND","0.4","93.8","22.8","80.9","0","0"],
    [14165,"2011-12-18T00:00:00","55.2","20.18","33.05","ND","ND","ND","0.1","185.8","22.5","81.5","0","0"],
    [14166,"2011-12-18T01:00:00","48.7","25.85","27.85","ND","ND","ND","0.1","58.6","22.4","81","0","0"],
    [14167,"2011-12-18T02:00:00","30.6","32.49","25.07","ND","ND","ND","0.1","209.2","22.1","84.5","0","0"],
    [14168,"2011-12-18T03:00:00","17.9","30.46","23.71","ND","ND","ND","0.2","125.4","21.9","84.8","0","0"],
    [14169,"2011-12-18T04:00:00","11.2","21.65","21.02","ND","ND","ND","0.2","71.1","21.5","86.5","0","0"],
    [14170,"2011-12-18T05:00:00","6.8","16.70","19.00","ND","ND","ND","0.2","95","20.9","89.9","0","0"],
    [14171,"2011-12-18T06:00:00","6.8","15.17","17.44","ND","ND","ND","0.2","259.9","20.9","90.7","0","0"],
    [14172,"2011-12-18T07:00:00","5","14.11","18.06","ND","ND","ND","0.1","176.6","21.1","90.9","9.8","0"],
    [14173,"2011-12-18T08:00:00","25.9","11.90","19.48","ND","ND","ND","0.1","183.8","21.9","85.7","107.4","0"],
    [14174,"2011-12-18T09:00:00","16.8","14.39","18.58","ND","ND","ND","0.8","152.7","23.5","77.4","283.5","0"],
    [14175,"2011-12-18T10:00:00","40.2","23.83","21.23","ND","ND","ND","1.4","135.8","23.8","77.3","318.6","0"],
    [14176,"2011-12-18T11:00:00","29.1","35.88","26.96","ND","ND","ND","0.5","107.7","25.1","70.2","435.5","0"],
    [14177,"2011-12-18T12:00:00","15.6","29.25","24.29","ND","ND","ND","0.8","167.4","26.4","64.7","476.9","0"],
    [14178,"2011-12-18T13:00:00","8.7","27.93","20.34","ND","ND","ND","1.2","264.8","26.2","67.6","217.9","0"],
    [14179,"2011-12-18T14:00:00","17.5","29.02","19.72","ND","ND","ND","0.3","6.3","23.4","82.9","165.8","10.92"],
    [14180,"2011-12-18T15:00:00","9.7","20.43","23.88","ND","ND","ND","1.1","139.7","25.7","73.3","300.3","0"],
    [14181,"2011-12-18T16:00:00","6.5","10.24","20.99","ND","ND","ND","0.4","237","26.7","61.9","223.1","0"],
    [14182,"2011-12-18T17:00:00","7.6","11.41","33.62","ND","ND","ND","0.8","281.1","26.5","59.1","150.1","0"],
    [14183,"2011-12-18T18:00:00","6","16.20","15.81","ND","ND","ND","0.5","141","26.5","59","62.6","0"],
    [14184,"2011-12-18T19:00:00","13.8","10.96","12.82","ND","ND","ND","0.7","242.8","25","64.3","0.9","0"],
    [14185,"2011-12-18T20:00:00","26","9.41","16.84","ND","ND","ND","0.8","110.4","24.7","67","0","0"],
    [14186,"2011-12-18T21:00:00","17.3","11.91","20.51","ND","ND","ND","1.9","203.1","23.5","74.3","0","0"],
    [14187,"2011-12-18T22:00:00","25.7","23.88","24.70","ND","ND","ND","1.2","198.9","23","77.8","0","0"],
    [14188,"2011-12-18T23:00:00","14.9","13.98","24.83","ND","ND","ND","0.8","172.5","22.2","83.8","0","0"],
    [14189,"2011-12-19T00:00:00","21.9","9.37","28.83","ND","ND","ND","0.1","279.1","21.9","87.2","0","0"],
    [14190,"2011-12-19T01:00:00","13.3","7.86","29.24","ND","ND","ND","0.4","0.6","21.8","89.5","0","0"],
    [14191,"2011-12-19T02:00:00","16.7","7.70","29.85","ND","ND","ND","0.5","10.2","21.3","94.1","0","0"],
    [14192,"2011-12-19T03:00:00","17","13.77","32.79","ND","ND","ND","0.8","123","21.2","92.8","0","0"],
    [14193,"2011-12-19T04:00:00","9.9","10.68","26.52","ND","ND","ND","1.3","134.8","21","94","0","0.76"],
    [14194,"2011-12-19T05:00:00","6.9","9.28","12.75","ND","ND","ND","0.8","163.2","20.3","97.5","0","20.32"],
    [14195,"2011-12-19T06:00:00","5","7.74","7.03","ND","ND","ND","1","166.5","19.5","99.4","0","39.88"],
    [14196,"2011-12-19T07:00:00","5.1","6.38","10.04","ND","ND","ND","0.4","161.5","19.4","100","6.3","20.32"],
    [14197,"2011-12-19T08:00:00","3.1","7.76","19.20","ND","ND","ND","0.3","165.6","19.7","100","56.1","6.6"],
    [14198,"2011-12-19T09:00:00","3.3","8.16","22.70","ND","ND","ND","0","128.5","20.1","100","74.1","0.51"],
    [14199,"2011-12-19T10:00:00","3","9.84","27.71","ND","ND","ND","0.2","222.9","20.9","97.3","190.2","1.02"],
    [14200,"2011-12-19T11:00:00","2.3","11.73","29.89","ND","ND","ND","0.2","102.8","22.8","84.6","375.5","0"],
    [14201,"2011-12-19T12:00:00","2.1","12.12","36.34","ND","ND","ND","0.1","222.2","24.8","74.6","598.9","0"],
    [14202,"2011-12-19T13:00:00","3.5","12.36","43.10","ND","ND","ND","0.5","9.9","25.2","72","453.7","0.25"],
    [14203,"2011-12-19T14:00:00","10.4","13.63","40.54","ND","ND","ND","0.5","123","25.8","67.3","207.5","0"],
    [14204,"2011-12-19T15:00:00","ND","59.35","48.67","ND","ND","ND","ND","ND","ND","ND","ND","ND"],
    [14205,"2011-12-19T16:00:00","ND","ND","ND","ND","ND","ND","ND","ND","ND","ND","ND","ND"],
    [14206,"2011-12-19T17:00:00","ND","ND","ND","ND","ND","ND","ND","ND","ND","ND","ND","ND"],
    [14207,"2011-12-19T18:00:00","15.8","ND","ND","ND","ND","ND","0.6","73.2","24.1","78.8","98","0"],
    [14208,"2011-12-19T19:00:00","51.7","ND","ND","ND","ND","ND","0.2","225.8","22.3","90","0.1","0.25"],
    [14209,"2011-12-19T20:00:00","58.6","155.12","25.01","ND","ND","ND","0.3","305","21.8","91.6","0","0"],
    [14210,"2011-12-19T21:00:00","36.7","ND","52.11","ND","ND","ND","0.3","309.7","21.5","91.9","0","0"],
    [14211,"2011-12-19T22:00:00","36.6","ND","37.88","ND","ND","ND","0.8","1.6","21.2","93","0","0"],
    [14212,"2011-12-19T23:00:00","20.7","ND","30.14","ND","ND","ND","0.2","52.1","21","93.1","0","0"],
    [14213,"2011-12-20T00:00:00","12.1","ND","30.40","ND","ND","ND","0","349","21","93.7","0","0"],
    [14214,"2011-12-20T01:00:00","18.8","ND","26.14","ND","ND","ND","0.2","251.2","20.9","94.7","0","0"],
    [14215,"2011-12-20T02:00:00","12.9","ND","27.06","ND","ND","ND","0.1","265.6","20.7","95.5","0","0"],
    [14216,"2011-12-20T03:00:00","18.4","ND","23.91","ND","ND","ND","0.1","48.8","20.6","94.7","0","0"],
    [14217,"2011-12-20T04:00:00","34.4","ND","20.45","ND","ND","ND","0.3","230.5","20.5","95.8","0","0"],
    [14218,"2011-12-20T05:00:00","28.5","ND","22.20","ND","ND","ND","0","296.6","20.6","95.6","0","0"],
    [14219,"2011-12-20T06:00:00","40.9","ND","18.26","ND","ND","ND","0.1","335.4","20.6","95.1","0","0"],
    [14220,"2011-12-20T07:00:00","26.2","ND","20.32","ND","ND","ND","0","292","20.6","96.4","2.3","2.79"],
    [14221,"2011-12-20T08:00:00","38.4","ND","18.15","ND","ND","ND","0.1","340.7","20.8","96.4","25.4","0"],
    [14222,"2011-12-20T09:00:00","30.5","ND","21.87","ND","ND","ND","0.6","171","21.9","89.7","214.1","0"],
    [14223,"2011-12-20T10:00:00","34.4","ND","26.06","ND","ND","ND","0.7","122","24.4","74.8","535.2","0"],
    [14224,"2011-12-20T11:00:00","18.4","ND","36.92","ND","ND","ND","0.9","35.1","24.6","74.7","384.4","0"],
    [14225,"2011-12-20T12:00:00","47.8","ND","39.48","ND","ND","ND","0.6","51","25.3","71","345.8","0"],
    [14226,"2011-12-20T13:00:00","29.2","ND","39.27","ND","ND","ND","0.7","60.8","27","63.9","626.6","0"],
    [14227,"2011-12-20T14:00:00","30","ND","32.67","ND","ND","ND","0.4","24.5","27.6","59.1","391.2","0"],
    [14228,"2011-12-20T15:00:00","23.5","ND","30.30","ND","ND","ND","0.3","354.6","28.1","57.3","347.1","0"],
    [14229,"2011-12-20T16:00:00","35.1","ND","23.52","ND","ND","ND","1.1","292.7","27.9","59.7","167.3","0"],
    [14230,"2011-12-20T17:00:00","38.7","ND","27.16","ND","ND","ND","1","264.9","28.2","56.9","163","0"],
    [14231,"2011-12-20T18:00:00","38.6","ND","37.83","ND","ND","ND","0.3","265.5","27.3","60.3","38.1","0"],
    [14232,"2011-12-20T19:00:00","46.6","ND","26.25","ND","ND","ND","0.6","254.2","24.8","70.4","0.2","0"],
    [14233,"2011-12-20T20:00:00","73.7","ND","43.31","ND","ND","ND","0.2","26.9","23.8","74.4","0","0"],
    [14234,"2011-12-20T21:00:00","96.8","ND","50.69","ND","ND","ND","0.1","265.9","23.9","74.9","0","0"],
    [14235,"2011-12-20T22:00:00","118.3","ND","48.73","ND","ND","ND","0.2","172.1","23.2","80.1","0","0"],
    [14236,"2011-12-20T23:00:00","116.5","ND","53.60","ND","ND","ND","0.1","205.2","22.4","85.5","0","0"],
    [14237,"2011-12-21T00:00:00","121.8","ND","42.42","ND","ND","ND","0.2","188","22","87.5","0","0"],
    [14238,"2011-12-21T01:00:00","72.7","ND","36.06","ND","ND","ND","0.2","205","21.7","88.2","0","0"],
    [14239,"2011-12-21T02:00:00","68.9","ND","29.97","ND","ND","ND","0.2","293.3","21.6","88.3","0","0"],
    [14240,"2011-12-21T03:00:00","36.5","ND","22.31","ND","ND","ND","0","28.3","21.7","88.7","0","0"],
    [14241,"2011-12-21T04:00:00","67.7","ND","21.38","ND","ND","ND","0.2","331.6","21.3","89.9","0","0"],
    [14242,"2011-12-21T05:00:00","46.5","ND","19.57","ND","ND","ND","0.3","284.1","21.4","89.5","0","0"],
    [14243,"2011-12-21T06:00:00","58.2","ND","19.22","ND","ND","ND","0.1","229.1","21.7","88.8","0","0"],
    [14244,"2011-12-21T07:00:00","41.9","ND","19.74","ND","ND","ND","0.2","211.6","21.8","89.4","9.6","0"],
    [14245,"2011-12-21T08:00:00","71.2","ND","19.40","ND","ND","ND","0","33.6","22.2","89.1","63.4","0"],
    [14246,"2011-12-21T09:00:00","88.4","ND","21.27","ND","ND","ND","0.1","329.5","23.3","82.7","140.2","0"],
    [14247,"2011-12-21T10:00:00","100.3","ND","30.41","ND","ND","ND","0.8","52.7","24.3","77.2","318.5","0"],
    [14248,"2011-12-21T11:00:00","76.1","ND","65.99","ND","ND","ND","1","106.5","25.9","71.4","575.1","0"],
    [14249,"2011-12-21T12:00:00","84","ND","54.50","ND","ND","ND","0.7","115.3","26.8","64.3","477.8","0"],
    [14250,"2011-12-21T13:00:00","43.6","ND","65.98","ND","ND","ND","1","106.6","28","60","580.9","0"],
    [14251,"2011-12-21T14:00:00","28.4","ND","28.65","ND","ND","ND","0.8","86.1","28","60.2","352","0"],
    [14252,"2011-12-21T15:00:00","15.6","ND","23.42","ND","ND","ND","1.7","99.1","28.5","59.5","314.7","0"],
    [14253,"2011-12-21T16:00:00","39.2","ND","19.23","ND","ND","ND","1.4","118.3","27.9","61.6","168.2","0"],
    [14254,"2011-12-21T17:00:00","35.1","ND","25.31","ND","ND","ND","0.7","101.6","27.7","62.6","70.3","0"],
    [14255,"2011-12-21T18:00:00","44","ND","23.76","ND","ND","ND","0.3","288.5","27.1","63.4","31.5","0"],
    [14256,"2011-12-21T19:00:00","43.7","ND","40.84","ND","ND","ND","0.4","260.6","25.8","67.6","0.2","0"],
    [14257,"2011-12-21T20:00:00","58.4","ND","48.67","ND","ND","ND","0.4","292.1","24.6","73.3","0","0"],
    [14258,"2011-12-21T21:00:00","72.3","ND","51.18","ND","ND","ND","0.2","296.2","23.6","78","0","0"],
    [14259,"2011-12-21T22:00:00","70.5","ND","51.08","ND","ND","ND","0.4","197.6","23.3","79.7","0","0"],
    [14260,"2011-12-21T23:00:00","100.7","ND","50.21","ND","ND","ND","0.2","250.5","22.6","83.2","0","0"],
    [14261,"2011-12-22T00:00:00","96.4","ND","47.83","ND","ND","ND","0.2","310.5","22.1","85.1","0","0"],
    [14262,"2011-12-22T01:00:00","58.6","ND","44.99","ND","ND","ND","0.2","196","22.1","86.2","0","0"],
    [14263,"2011-12-22T02:00:00","57.2","ND","34.64","ND","ND","ND","0.3","325.8","21.5","87.1","0","0.25"],
    [14264,"2011-12-22T03:00:00","32.8","ND","26.60","ND","ND","ND","0.2","324.8","21.3","88.2","0","0"],
    [14265,"2011-12-22T04:00:00","52.8","ND","24.65","ND","ND","ND","0.4","297.2","21.2","89.5","0","0"],
    [14266,"2011-12-22T05:00:00","60","ND","26.89","ND","ND","ND","0.1","242.6","20.7","91.1","0","0"],
    [14267,"2011-12-22T06:00:00","52.5","ND","20.34","ND","ND","ND","0.1","253.4","20.4","91.3","0","0"],
    [14268,"2011-12-22T07:00:00","58","ND","16.63","ND","ND","ND","0.1","277.6","21.1","88.6","14","0"],
    [14269,"2011-12-22T08:00:00","66.2","ND","17.84","ND","ND","ND","0.3","39.4","22.7","82.1","143.4","0"],
    [14270,"2011-12-22T09:00:00","93.6","ND","24.48","ND","ND","ND","1","46.8","23.7","79","197.9","0"],
    [14271,"2011-12-22T10:00:00","108.4","ND","39.12","ND","ND","ND","0.6","52.4","24.7","74.8","267.9","0"],
    [14272,"2011-12-22T11:00:00","72.7","ND","72.50","ND","ND","ND","0.2","52.8","26.6","66.4","502","0"],
    [14273,"2011-12-22T12:00:00","80.1","ND","47.53","ND","ND","ND","0.8","132.1","28.1","59.6","653.9","0"],
    [14274,"2011-12-22T13:00:00","71.1","ND","32.28","ND","ND","ND","1","84.7","28.9","56.9","561","0"],
    [14275,"2011-12-22T14:00:00","64.4","ND","31.29","ND","ND","ND","1.2","82.7","29.2","55.4","388.7","0"],
    [14276,"2011-12-22T15:00:00","33.7","ND","24.51","ND","ND","ND","1.5","15.1","29.6","54.1","413.1","0"],
    [14277,"2011-12-22T16:00:00","44","ND","19.47","ND","ND","ND","0.9","250.1","30.9","46.9","417.4","0"],
    [14278,"2011-12-22T17:00:00","23.5","ND","24.39","ND","ND","ND","1.9","276.2","30.3","47.8","219.4","0"],
    [14279,"2011-12-22T18:00:00","14.2","ND","14.84","ND","ND","ND","0.5","275.6","28.8","52.1","40.9","0"],
    [14280,"2011-12-22T19:00:00","9","ND","15.07","ND","ND","ND","0.4","248","26.6","60.2","0.3","0"],
    [14281,"2011-12-22T20:00:00","53.6","ND","32.46","ND","ND","ND","0.1","247.6","25.4","65.9","0","0"],
    [14282,"2011-12-22T21:00:00","71.3","ND","41.06","ND","ND","ND","0.3","58.5","24.9","69.3","0","0"],
    [14283,"2011-12-22T22:00:00","74.8","ND","47.62","ND","ND","ND","0.3","200.4","24.3","73.8","0","0"],
    [14284,"2011-12-22T23:00:00","73.9","ND","41.79","ND","ND","ND","0.1","176.8","23.7","77.6","0","0"],
    [14285,"2011-12-23T00:00:00","96.1","ND","37.37","ND","ND","ND","0.1","176.9","23.2","80.2","0","0"],
    [14286,"2011-12-23T01:00:00","62.9","ND","29.82","ND","ND","ND","0.1","198","22.7","82.5","0","0"],
    [14287,"2011-12-23T02:00:00","59.2","ND","27.66","ND","ND","ND","0.3","213.5","22.7","83.3","0","0"],
    [14288,"2011-12-23T03:00:00","48.6","ND","24.31","ND","ND","ND","0.5","201.2","22.4","86.9","0","0.25"],
    [14289,"2011-12-23T04:00:00","34.2","ND","21.32","ND","ND","ND","0.2","310.4","21.5","90.4","0","0"],
    [14290,"2011-12-23T05:00:00","19.6","ND","20.03","ND","ND","ND","0","311.5","20.9","92","0","0"],
    [14291,"2011-12-23T06:00:00","27.1","ND","18.04","ND","ND","ND","0.4","194.6","21.3","90.4","0","0"],
    [14292,"2011-12-23T07:00:00","18.7","ND","15.01","ND","ND","ND","0.4","0.3","21.7","85.6","12.9","0"],
    [14293,"2011-12-23T08:00:00","61.1","ND","17.62","ND","ND","ND","0.4","45.1","21.6","90.2","65.7","0"],
    [14294,"2011-12-23T09:00:00","57.3","ND","23.59","ND","ND","ND","0.6","38.6","23.6","79.8","304.7","0"],
    [14295,"2011-12-23T10:00:00","79.4","ND","26.06","ND","ND","ND","1.3","130.9","25.7","65.6","476.3","0"],
    [14296,"2011-12-23T11:00:00","41.9","ND","50.67","ND","ND","ND","1.6","133.7","26.9","59.9","610.7","0"],
    [14297,"2011-12-23T12:00:00","44","ND","27.45","ND","ND","ND","0.9","128.7","28.2","56.5","706.2","0"],
    [14298,"2011-12-23T13:00:00","35.8","ND","17.55","ND","ND","ND","0.8","221.3","29.2","52.7","552.3","0"],
    [14299,"2011-12-23T14:00:00","54.9","ND","20.88","ND","ND","ND","1","90.5","29.7","51.8","500.3","0"],
    [14300,"2011-12-23T15:00:00","29.2","ND","25.52","ND","ND","ND","0.6","323.6","29.9","49.5","322.6","0"],
    [14301,"2011-12-23T16:00:00","16.8","ND","25.86","ND","ND","ND","1.3","306.5","31","44.9","442.2","0"],
    [14302,"2011-12-23T17:00:00","10.5","ND","16.08","ND","ND","ND","1.9","294.2","30","47.9","196.4","0"],
    [14303,"2011-12-23T18:00:00","16.1","ND","12.79","ND","ND","ND","1","252.2","29.2","50.9","57.2","0"],
    [14304,"2011-12-23T19:00:00","10.5","ND","14.96","ND","ND","ND","0.8","250.2","27.5","55.7","0.2","0"],
    [14305,"2011-12-23T20:00:00","21.3","ND","29.63","ND","ND","ND","0.2","160.9","27","58.1","0","0"],
    [14306,"2011-12-23T21:00:00","40","ND","32.59","ND","ND","ND","0.5","29.1","26","62.6","0","0"],
    [14307,"2011-12-23T22:00:00","73.5","ND","32.64","ND","ND","ND","0.7","165.1","25.8","65.4","0","0"],
    [14308,"2011-12-23T23:00:00","66.1","ND","38.51","ND","ND","ND","0.4","64.7","24.9","71","0","0"],
    [14309,"2011-12-24T00:00:00","62.9","ND","34.15","ND","ND","ND","0.2","60.6","24.2","74.8","0","0"],
    [14310,"2011-12-24T01:00:00","33.7","ND","30.28","ND","ND","ND","0.4","8.1","23.6","77.7","0","0"],
    [14311,"2011-12-24T02:00:00","40","ND","26.21","ND","ND","ND","0.2","290.3","23.3","79.3","0","0"],
    [14312,"2011-12-24T03:00:00","22.5","ND","25.13","ND","ND","ND","0.3","355.2","23.2","79.7","0","0"],
    [14313,"2011-12-24T04:00:00","40.1","ND","21.38","ND","ND","ND","0.5","3.8","22.8","84.4","0","0"],
    [14314,"2011-12-24T05:00:00","20.8","ND","22.42","ND","ND","ND","0.4","357.4","22.5","85.2","0","0"],
    [14315,"2011-12-24T06:00:00","38.5","ND","18.53","ND","ND","ND","0.1","251.5","22.8","82.5","0","0"],
    [14316,"2011-12-24T07:00:00","35.5","ND","17.11","ND","ND","ND","0.1","351.4","22.9","82.9","9.9","0"],
    [14317,"2011-12-24T08:00:00","50","ND","18.76","ND","ND","ND","0.3","24.8","22.9","84.3","21.5","0"],
    [14318,"2011-12-24T09:00:00","49.7","ND","20.89","ND","ND","ND","0.4","154.1","23.6","80.4","118.6","0"],
    [14319,"2011-12-24T10:00:00","60.8","ND","23.41","ND","ND","ND","0.8","70.9","25.2","75.9","369.5","0"],
    [14320,"2011-12-24T11:00:00","33","ND","29.50","ND","ND","ND","1.3","49.7","25.2","74","142","0"],
    [14321,"2011-12-24T12:00:00","40","ND","52.11","ND","ND","ND","0.6","45.8","25.9","69.5","301.2","0"],
    [14322,"2011-12-24T13:00:00","35.8","ND","41.30","ND","ND","ND","0.6","93.8","27.4","62.7","609.5","0"],
    [14323,"2011-12-24T14:00:00","25.2","ND","23.09","ND","ND","ND","0.8","45.7","28.4","60.5","495.5","0"],
    [14324,"2011-12-24T15:00:00","27.1","ND","28.42","ND","ND","ND","0.9","252","29.1","54.5","409.4","0"],
    [14325,"2011-12-24T16:00:00","19.5","ND","26.71","ND","ND","ND","1.6","215.4","29.8","49.7","421.8","0"],
    [14326,"2011-12-24T17:00:00","11.2","ND","20.08","ND","ND","ND","1.9","267.6","28.6","52.2","153","0"],
    [14327,"2011-12-24T18:00:00","6.3","ND","10.88","ND","ND","ND","1","304","27.6","54.8","37.8","0"],
    [14328,"2011-12-24T19:00:00","6.6","ND","14.08","ND","ND","ND","0.4","336.3","26.7","56.2","0.4","0"],
    [14329,"2011-12-24T20:00:00","8.9","ND","18.03","ND","ND","ND","0.9","91.6","26.5","58.7","0","0"],
    [14330,"2011-12-24T21:00:00","7.8","ND","18.74","ND","ND","ND","1.1","88.6","26","62.6","0.1","0"],
    [14331,"2011-12-24T22:00:00","26","ND","34.92","ND","ND","ND","2.8","176.9","24.9","72.7","0","0"],
    [14332,"2011-12-24T23:00:00","14.1","ND","34.79","ND","ND","ND","1.8","169.1","24","76.5","0","0"],
    [14333,"2011-12-25T00:00:00","8.1","ND","25.92","ND","ND","ND","1.3","172.3","23","84.3","0","0"],
    [14334,"2011-12-25T01:00:00","5","ND","25.61","ND","ND","ND","0.4","55.9","22.7","86.7","0","0"],
    [14335,"2011-12-25T02:00:00","16.8","ND","29.38","ND","ND","ND","0.7","12.3","21.8","91.5","0","0"],
    [14336,"2011-12-25T03:00:00","9.1","ND","30.05","ND","ND","ND","0.4","33.5","21.5","92.6","0","0"],
    [14337,"2011-12-25T04:00:00","6.3","ND","20.16","ND","ND","ND","0.3","39.4","21.6","91.2","0","0"],
    [14338,"2011-12-25T05:00:00","17.4","ND","15.90","ND","ND","ND","0.6","25.5","21.4","91.7","0","0"],
    [14339,"2011-12-25T06:00:00","18.2","ND","20.13","ND","ND","ND","0.2","13.6","21.2","91.4","0","0"],
    [14340,"2011-12-25T07:00:00","11","ND","13.09","ND","ND","ND","0.1","9.7","21.2","91","10.7","0"],
    [14341,"2011-12-25T08:00:00","6.9","ND","14.52","ND","ND","ND","0.1","46.2","22.3","85.9","111.2","0"],
    [14342,"2011-12-25T09:00:00","4.6","ND","16.91","ND","ND","ND","0.9","96.5","24.9","73.1","389.5","0"],
    [14343,"2011-12-25T10:00:00","8.4","ND","19.96","ND","ND","ND","1","112.4","26","67.8","445.6","0"],
    [14344,"2011-12-25T11:00:00","5","ND","19.05","ND","ND","ND","0.6","114.1","27.2","62.5","528.5","0"],
    [14345,"2011-12-25T12:00:00","3.4","ND","12.24","ND","ND","ND","0.8","203.7","28.3","57.7","709.1","0"],
    [14346,"2011-12-25T13:00:00","2.5","ND","12.21","ND","ND","ND","0.6","80.3","29.3","54.3","525.3","0"],
    [14347,"2011-12-25T14:00:00","19.6","ND","12.42","ND","ND","ND","1.1","350.2","29.5","52.5","459.2","0"],
    [14348,"2011-12-25T15:00:00","11.6","ND","13.04","ND","ND","ND","1.3","344","29.6","53","345.6","0"],
    [14349,"2011-12-25T16:00:00","20.1","ND","8.13","ND","ND","ND","1.6","248","30.4","49.2","416.6","0"],
    [14350,"2011-12-25T17:00:00","12","ND","10.18","ND","ND","ND","2","276.1","29.8","50.6","249.8","0"],
    [14351,"2011-12-25T18:00:00","6","ND","7.12","ND","ND","ND","1.3","260.7","28.5","53.9","51.8","0"],
    [14352,"2011-12-25T19:00:00","4.2","ND","5.72","ND","ND","ND","0.4","238.5","27.1","57.9","0.5","0"],
    [14353,"2011-12-25T20:00:00","14.9","ND","12.84","ND","ND","ND","0.1","57.7","26.5","60.4","0","0"],
    [14354,"2011-12-25T21:00:00","20.5","ND","31.93","ND","ND","ND","0.4","117.6","25.9","63.8","0","0"],
    [14355,"2011-12-25T22:00:00","24.8","ND","42.05","ND","ND","ND","0.5","119.8","25.1","68.9","0","0"],
    [14356,"2011-12-25T23:00:00","21","ND","40.70","ND","ND","ND","0.3","68.2","24","74","0","0"],
    [14357,"2011-12-26T00:00:00","36","ND","30.39","ND","ND","ND","0","1.8","23","77.8","0","0"],
    [14358,"2011-12-26T01:00:00","29.4","ND","24.51","ND","ND","ND","0.2","275.5","22.4","80.3","0","0"],
    [14359,"2011-12-26T02:00:00","28.8","ND","25.41","ND","ND","ND","0","273.1","22.5","80.9","0","0"],
    [14360,"2011-12-26T03:00:00","15.4","ND","22.22","ND","ND","ND","0.2","280.1","22.5","81.2","0","0"],
    [14361,"2011-12-26T04:00:00","13.8","ND","21.53","ND","ND","ND","0.3","215.6","22.5","81.8","0","0"],
    [14362,"2011-12-26T05:00:00","8.1","ND","21.07","ND","ND","ND","0.4","175.8","22.4","81.7","0","0"],
    [14363,"2011-12-26T06:00:00","4.7","ND","19.19","ND","ND","ND","0.3","42.1","22.1","83.5","0","0"],
    [14364,"2011-12-26T07:00:00","8.2","ND","19.60","ND","ND","ND","0.2","33.4","21.9","85.9","30.6","0"],
    [14365,"2011-12-26T08:00:00","58.7","ND","17.41","ND","ND","ND","0.3","182","23.3","79","124.4","0"],
    [14366,"2011-12-26T09:00:00","40","ND","19.93","ND","ND","ND","1.4","159.6","25.1","67.5","310.7","0"],
    [14367,"2011-12-26T10:00:00","50.6","ND","27.70","ND","ND","ND","1.1","129.2","26.8","61.4","431.7","0"],
    [14368,"2011-12-26T11:00:00","45.3","ND","28.95","ND","ND","ND","1.1","107.3","27.2","61.2","525.1","0"],
    [14369,"2011-12-26T12:00:00","30.2","ND","28.16","ND","ND","ND","0.8","138.8","28.5","56.3","518.7","0"],
    [14370,"2011-12-26T13:00:00","16.2","ND","21.88","ND","ND","ND","0.9","287.7","29.9","51.1","755.5","0"],
    [14371,"2011-12-26T14:00:00","20.5","ND","20.18","ND","ND","ND","1.2","307.8","30.1","50.1","372.6","0"],
    [14372,"2011-12-26T15:00:00","12.2","ND","18.60","ND","ND","ND","1.8","281.9","30.2","48.3","452.8","0"],
    [14373,"2011-12-26T16:00:00","11.9","ND","13.87","ND","ND","ND","1.4","16.1","30.2","48.6","315.1","0"],
    [14374,"2011-12-26T17:00:00","10.6","ND","11.34","ND","ND","ND","0.8","4.4","29.5","49.6","125.6","0"],
    [14375,"2011-12-26T18:00:00","27.4","ND","13.27","ND","ND","ND","0.5","271.7","28.6","51.3","30.8","0"],
    [14376,"2011-12-26T19:00:00","17.4","ND","18.15","ND","ND","ND","0.2","219.6","27.4","55","0.5","0"],
    [14377,"2011-12-26T20:00:00","43.4","ND","25.67","ND","ND","ND","1","100.8","27","57.5","0","0"],
    [14378,"2011-12-26T21:00:00","22.2","ND","29.60","ND","ND","ND","1","140.1","26.8","59.2","0","0"],
    [14379,"2011-12-26T22:00:00","59.8","ND","39.79","ND","ND","ND","0.8","108.9","25.1","69.9","0","0"],
    [14380,"2011-12-26T23:00:00","34.6","ND","44.77","ND","ND","ND","0.4","109.7","24.3","72.5","0","0"],
    [14381,"2011-12-27T00:00:00","29.8","ND","36.73","ND","ND","ND","0.2","190.5","24.3","72.6","0","0"],
    [14382,"2011-12-27T01:00:00","16.3","ND","32.32","ND","ND","ND","0.3","44.8","24","75.5","0","0"],
    [14383,"2011-12-27T02:00:00","24.7","ND","32.46","ND","ND","ND","1.1","159.6","23.6","77.3","0","0"],
    [14384,"2011-12-27T03:00:00","15.2","ND","30.74","ND","ND","ND","0.2","348.3","23","79.9","0","0"],
    [14385,"2011-12-27T04:00:00","46.2","ND","23.72","ND","ND","ND","0.1","40.6","22.9","81.4","0","0"],
    [14386,"2011-12-27T05:00:00","39.7","ND","23.34","ND","ND","ND","0.3","352.7","23","81.3","0","0"],
    [14387,"2011-12-27T06:00:00","60.2","ND","23.96","ND","ND","ND","0.3","29.1","22.5","83.3","0","0"],
    [14388,"2011-12-27T07:00:00","57.6","ND","23.25","ND","ND","ND","0.1","152.2","22.5","84","15.5","0"],
    [14389,"2011-12-27T08:00:00","48.6","ND","24.19","ND","ND","ND","0.2","353.3","22.9","83","67.4","0"],
    [14390,"2011-12-27T09:00:00","63.1","ND","24.05","ND","ND","ND","0.2","208","24","78","146.1","0"],
    [14391,"2011-12-27T10:00:00","93.6","ND","32.51","ND","ND","ND","0.4","110.4","25.8","69.1","450","0"],
    [14392,"2011-12-27T11:00:00","60.7","ND","56.45","ND","ND","ND","1.1","52","27.1","63.7","598.6","0"],
    [14393,"2011-12-27T12:00:00","54.7","ND","73.23","ND","ND","ND","1.1","63.8","28.3","58.6","641.5","0"],
    [14394,"2011-12-27T13:00:00","36.4","ND","57.76","ND","ND","ND","0.5","325.3","29.2","54.6","523.5","0"],
    [14395,"2011-12-27T14:00:00","51.3","ND","70.48","ND","ND","ND","0.4","5","30.1","51.2","424.8","0"],
    [14396,"2011-12-27T15:00:00","36.7","ND","33.51","ND","ND","ND","0.7","288.4","30","50.1","301.1","0"],
    [14397,"2011-12-27T16:00:00","20.2","ND","27.92","ND","ND","ND","3.4","280.1","29.9","50","382","0"],
    [14398,"2011-12-27T17:00:00","16.3","ND","21.14","ND","ND","ND","2.8","275.3","29.6","50.3","221.7","0"],
    [14399,"2011-12-27T18:00:00","9.1","ND","12.47","ND","ND","ND","1.8","254.6","28.3","53.3","37.4","0"],
    [14400,"2011-12-27T19:00:00","7.3","ND","15.06","ND","ND","ND","0.3","103.5","27.9","54.3","0.3","0"],
    [14401,"2011-12-27T20:00:00","47.6","ND","29.12","ND","ND","ND","0.6","95.3","27.2","56.8","0","0"],
    [14402,"2011-12-27T21:00:00","26.2","ND","49.77","ND","ND","ND","0.7","162.9","26.9","60.2","0","0"],
    [14403,"2011-12-27T22:00:00","75.6","ND","57.39","ND","ND","ND","0.9","119.3","25.7","67.5","0","0"],
    [14404,"2011-12-27T23:00:00","60.1","ND","46.46","ND","ND","ND","0.4","331.8","25","71.2","0","0"],
    [14405,"2011-12-28T00:00:00","56.4","ND","34.30","ND","ND","ND","0.5","109.6","24.9","72.3","0","0"],
    [14406,"2011-12-28T01:00:00","32.4","ND","31.03","ND","ND","ND","0.2","282.2","24","75.9","0","0"],
    [14407,"2011-12-28T02:00:00","24.5","ND","29.36","ND","ND","ND","0.2","287.9","23.9","77.3","0","0"],
    [14408,"2011-12-28T03:00:00","13.4","ND","26.91","ND","ND","ND","0.1","355.9","23.6","78.8","0","0"],
    [14409,"2011-12-28T04:00:00","32.6","ND","26.36","ND","ND","ND","0.1","294.8","23.4","80.4","0","0"],
    [14410,"2011-12-28T05:00:00","29.6","ND","24.60","ND","ND","ND","0.2","322.2","23.3","81.3","0","0"],
    [14411,"2011-12-28T06:00:00","32.8","ND","23.37","ND","ND","ND","0.3","47.9","23.2","81.4","0","0"],
    [14412,"2011-12-28T07:00:00","33.6","ND","21.49","ND","ND","ND","0.4","40.3","23.2","81.7","7.5","0"],
    [14413,"2011-12-28T08:00:00","59.5","ND","23.98","ND","ND","ND","0.2","167.5","23.5","80.4","68.9","0"],
    [14414,"2011-12-28T09:00:00","41.5","ND","27.00","ND","ND","ND","0.2","166.7","24.4","76.9","134.8","0"],
    [14415,"2011-12-28T10:00:00","61.3","ND","26.47","ND","ND","ND","0.2","53.1","25.7","70.1","282","0"],
    [14416,"2011-12-28T11:00:00","50.6","ND","46.10","ND","ND","ND","0.6","264.9","26.2","67.1","224.5","0"],
    [14417,"2011-12-28T12:00:00","53.6","ND","60.10","ND","ND","ND","1.1","73.5","28.3","60","710.3","0"],
    [14418,"2011-12-28T13:00:00","40.4","ND","68.88","ND","ND","ND","0.8","8.7","28.9","56.3","330.5","0"],
    [14419,"2011-12-28T14:00:00","40","ND","42.40","ND","ND","ND","0.7","44.5","30","51.8","466.1","0"],
    [14420,"2011-12-28T15:00:00","22.5","ND","32.56","ND","ND","ND","0.4","320.9","29.9","50.8","239.8","0"],
    [14421,"2011-12-28T16:00:00","15.3","ND","19.41","ND","ND","ND","1.3","287.5","30","50.6","213.5","0"],
    [14422,"2011-12-28T17:00:00","9","ND","15.09","ND","ND","ND","2","274.7","28.8","52.8","58.8","0"],
    [14423,"2011-12-28T18:00:00","11","ND","15.60","ND","ND","ND","0.6","248.7","28.4","52.5","16.4","0"],
    [14424,"2011-12-28T19:00:00","22.6","ND","20.90","ND","ND","ND","0.2","160.2","28","54.5","0.3","0"],
    [14425,"2011-12-28T20:00:00","24.6","ND","32.09","ND","ND","ND","1.2","243.7","27.2","56.9","0","0"],
    [14426,"2011-12-28T21:00:00","14","ND","45.18","ND","ND","ND","0.5","240.7","26.8","59.1","0","0"],
    [14427,"2011-12-28T22:00:00","24.4","ND","25.62","ND","ND","ND","1.5","207","26","63.1","0","0"],
    [14428,"2011-12-28T23:00:00","14.7","ND","31.60","ND","ND","ND","0.1","145.6","25.7","64.8","0","0"],
    [14429,"2011-12-29T00:00:00","24.3","ND","27.68","ND","ND","ND","0.3","78.8","24.5","72","0","0"],
    [14430,"2011-12-29T01:00:00","12.8","ND","27.73","ND","ND","ND","0.7","183.6","24.4","72.4","0","0"],
    [14431,"2011-12-29T02:00:00","9","ND","28.44","ND","ND","ND","0.1","170.7","24.1","73.8","0","0"],
    [14432,"2011-12-29T03:00:00","17.7","ND","25.82","ND","ND","ND","0.7","22.3","22.7","82.6","0","0"],
    [14433,"2011-12-29T04:00:00","16.7","ND","26.71","ND","ND","ND","0.1","246.6","23","80.3","0","0"],
    [14434,"2011-12-29T05:00:00","38","ND","20.09","ND","ND","ND","0","214.3","23.1","80.2","0","0"],
    [14435,"2011-12-29T06:00:00","34.3","ND","21.93","ND","ND","ND","0.3","4.5","22.8","81.9","0","0"],
    [14436,"2011-12-29T07:00:00","46.7","ND","21.91","ND","ND","ND","0.4","5.6","22.5","83.3","4.7","0"],
    [14437,"2011-12-29T08:00:00","59.3","ND","21.81","ND","ND","ND","0.2","44.2","22.9","81.8","51.7","0"],
    [14438,"2011-12-29T09:00:00","60.4","ND","24.50","ND","ND","ND","0.1","187.8","24.9","73","326.7","0"],
    [14439,"2011-12-29T10:00:00","48.5","ND","29.64","ND","ND","ND","1.1","110","26.6","63.9","499","0"],
    [14440,"2011-12-29T11:00:00","26.5","ND","45.77","ND","ND","ND","1.2","127.1","27.9","57.9","646.3","0"],
    [14441,"2011-12-29T12:00:00","15.8","ND","32.29","ND","ND","ND","1.2","131.9","29.1","52.7","742.3","0"],
    [14442,"2011-12-29T13:00:00","12.8","ND","19.76","ND","ND","ND","0.2","22.7","29.1","53.7","344.6","0"],
    [14443,"2011-12-29T14:00:00","33.6","ND","15.64","ND","ND","ND","0.3","275.7","30.5","49.3","635.1","0"],
    [14444,"2011-12-29T15:00:00","18.4","ND","18.36","ND","ND","ND","2.3","259.9","31.1","46.7","641.1","0"],
    [14445,"2011-12-29T16:00:00","12.7","ND","15.03","ND","ND","ND","3.6","276.3","30.3","48.4","419.1","0"],
    [14446,"2011-12-29T17:00:00","ND","ND","9.07","ND","ND","ND","ND","ND","ND","ND","ND","ND"],
    [14447,"2011-12-29T18:00:00","ND","ND","ND","ND","ND","ND","ND","ND","ND","ND","ND","ND"],
    [14448,"2011-12-29T19:00:00","ND","ND","ND","ND","ND","ND","ND","ND","ND","ND","ND","ND"],
    [14449,"2011-12-29T20:00:00","ND","ND","ND","ND","ND","ND","ND","ND","ND","ND","ND","ND"],
    [14450,"2011-12-29T21:00:00","ND","ND","ND","ND","ND","ND","ND","ND","ND","ND","ND","ND"],
    [14451,"2011-12-29T22:00:00","ND","ND","ND","ND","ND","ND","ND","ND","ND","ND","ND","ND"],
    [14452,"2011-12-29T23:00:00","ND","ND","ND","ND","ND","ND","ND","ND","ND","ND","ND","ND"],
    [14453,"2011-12-30T00:00:00","ND","ND","ND","ND","ND","ND","ND","ND","ND","ND","ND","ND"],
    [14454,"2011-12-30T01:00:00","ND","ND","ND","ND","ND","ND","ND","ND","ND","ND","ND","ND"],
    [14455,"2011-12-30T02:00:00","ND","ND","ND","ND","ND","ND","ND","ND","ND","ND","ND","ND"],
    [14456,"2011-12-30T03:00:00","ND","ND","ND","ND","ND","ND","ND","ND","ND","ND","ND","ND"],
    [14457,"2011-12-30T04:00:00","ND","ND","ND","ND","ND","ND","ND","ND","ND","ND","ND","ND"],
    [14458,"2011-12-30T05:00:00","ND","ND","ND","ND","ND","ND","ND","ND","ND","ND","ND","ND"],
    [14459,"2011-12-30T06:00:00","ND","ND","ND","ND","ND","ND","ND","ND","ND","ND","ND","ND"],
    [14460,"2011-12-30T07:00:00","ND","ND","ND","ND","ND","ND","ND","ND","ND","ND","ND","ND"],
    [14461,"2011-12-30T08:00:00","ND","ND","ND","ND","ND","ND","ND","ND","ND","ND","ND","ND"],
    [14462,"2011-12-30T09:00:00","ND","ND","ND","ND","ND","ND","ND","ND","ND","ND","ND","ND"],
    [14463,"2011-12-30T10:00:00","ND","ND","ND","ND","ND","ND","ND","ND","ND","ND","ND","ND"],
    [14464,"2011-12-30T11:00:00","ND","ND","ND","ND","ND","ND","ND","ND","ND","ND","ND","ND"],
    [14465,"2011-12-30T12:00:00","ND","ND","ND","ND","ND","ND","ND","ND","ND","ND","ND","ND"],
    [14466,"2011-12-30T13:00:00","ND","ND","ND","ND","ND","ND","ND","ND","ND","ND","ND","ND"],
    [14467,"2011-12-30T14:00:00","ND","ND","ND","ND","ND","ND","ND","ND","ND","ND","ND","ND"],
    [14468,"2011-12-30T15:00:00","ND","ND","ND","ND","ND","ND","ND","ND","ND","ND","ND","ND"],
    [14469,"2011-12-30T16:00:00","ND","ND","ND","ND","ND","ND","ND","ND","ND","ND","ND","ND"],
    [14470,"2011-12-30T17:00:00","ND","ND","ND","ND","ND","ND","ND","ND","ND","ND","ND","ND"],
    [14471,"2011-12-30T18:00:00","ND","ND","ND","ND","ND","ND","ND","ND","ND","ND","ND","ND"],
    [14472,"2011-12-30T19:00:00","ND","ND","ND","ND","ND","ND","ND","ND","ND","ND","ND","ND"],
    [14473,"2011-12-30T20:00:00","ND","ND","ND","ND","ND","ND","ND","ND","ND","ND","ND","ND"],
    [14474,"2011-12-30T21:00:00","ND","ND","ND","ND","ND","ND","ND","ND","ND","ND","ND","ND"],
    [14475,"2011-12-30T22:00:00","ND","ND","ND","ND","ND","ND","ND","ND","ND","ND","ND","ND"],
    [14476,"2011-12-30T23:00:00","ND","ND","ND","ND","ND","ND","ND","ND","ND","ND","ND","ND"],
    [14477,"2011-12-31T00:00:00","ND","ND","ND","ND","ND","ND","ND","ND","ND","ND","ND","ND"],
    [14478,"2011-12-31T01:00:00","ND","ND","ND","ND","ND","ND","ND","ND","ND","ND","ND","ND"],
    [14479,"2011-12-31T02:00:00","ND","ND","ND","ND","ND","ND","ND","ND","ND","ND","ND","ND"],
    [14480,"2011-12-31T03:00:00","ND","ND","ND","ND","ND","ND","ND","ND","ND","ND","ND","ND"],
    [14481,"2011-12-31T04:00:00","ND","ND","ND","ND","ND","ND","ND","ND","ND","ND","ND","ND"],
    [14482,"2011-12-31T05:00:00","ND","ND","ND","ND","ND","ND","ND","ND","ND","ND","ND","ND"],
    [14483,"2011-12-31T06:00:00","ND","ND","ND","ND","ND","ND","ND","ND","ND","ND","ND","ND"],
    [14484,"2011-12-31T07:00:00","ND","ND","ND","ND","ND","ND","ND","ND","ND","ND","ND","ND"],
    [14485,"2011-12-31T08:00:00","ND","ND","ND","ND","ND","ND","ND","ND","ND","ND","ND","ND"],
    [14486,"2011-12-31T09:00:00","ND","ND","ND","ND","ND","ND","ND","ND","ND","ND","ND","ND"],
    [14487,"2011-12-31T10:00:00","ND","ND","ND","ND","ND","ND","ND","ND","ND","ND","ND","ND"],
    [14488,"2011-12-31T11:00:00","ND","ND","ND","ND","ND","ND","ND","ND","ND","ND","ND","ND"],
    [14489,"2011-12-31T12:00:00","ND","ND","ND","ND","ND","ND","ND","ND","ND","ND","ND","ND"],
    [14490,"2011-12-31T13:00:00","ND","ND","ND","ND","ND","ND","ND","ND","ND","ND","ND","ND"],
    [14491,"2011-12-31T14:00:00","ND","ND","ND","ND","ND","ND","ND","ND","ND","ND","ND","ND"],
    [14492,"2011-12-31T15:00:00","ND","ND","ND","ND","ND","ND","ND","ND","ND","ND","ND","ND"],
    [14493,"2011-12-31T16:00:00","ND","ND","ND","ND","ND","ND","ND","ND","ND","ND","ND","ND"],
    [14494,"2011-12-31T17:00:00","ND","ND","ND","ND","ND","ND","ND","ND","ND","ND","ND","ND"],
    [14495,"2011-12-31T18:00:00","ND","ND","ND","ND","ND","ND","ND","ND","ND","ND","ND","ND"],
    [14496,"2011-12-31T19:00:00","ND","ND","ND","ND","ND","ND","ND","ND","ND","ND","ND","ND"],
    [14497,"2011-12-31T20:00:00","ND","ND","ND","ND","ND","ND","ND","ND","ND","ND","ND","ND"],
    [14498,"2011-12-31T21:00:00","ND","ND","ND","ND","ND","ND","ND","ND","ND","ND","ND","ND"],
    [14499,"2011-12-31T22:00:00","ND","ND","ND","ND","ND","ND","ND","ND","ND","ND","ND","ND"],
    [14500,"2011-12-31T23:00:00","ND","ND","ND","ND","ND","ND","ND","ND","ND","ND","ND","ND"],
    [14501,"2012-01-01T00:00:00","ND","ND","ND","ND","ND","ND","ND","ND","ND","ND","ND","ND"],
    [14502,"2012-01-01T01:00:00","ND","ND","ND","ND","ND","ND","ND","ND","ND","ND","ND","ND"],
    [14503,"2012-01-01T02:00:00","ND","ND","ND","ND","ND","ND","ND","ND","ND","ND","ND","ND"],
    [14504,"2012-01-01T03:00:00","ND","ND","ND","ND","ND","ND","ND","ND","ND","ND","ND","ND"],
    [14505,"2012-01-01T04:00:00","ND","ND","ND","ND","ND","ND","ND","ND","ND","ND","ND","ND"],
    [14506,"2012-01-01T05:00:00","ND","ND","ND","ND","ND","ND","ND","ND","ND","ND","ND","ND"],
    [14507,"2012-01-01T06:00:00","ND","ND","ND","ND","ND","ND","ND","ND","ND","ND","ND","ND"],
    [14508,"2012-01-01T07:00:00","ND","ND","ND","ND","ND","ND","ND","ND","ND","ND","ND","ND"],
    [14509,"2012-01-01T08:00:00","ND","ND","ND","ND","ND","ND","ND","ND","ND","ND","ND","ND"],
    [14510,"2012-01-01T09:00:00","ND","ND","ND","ND","ND","ND","ND","ND","ND","ND","ND","ND"],
    [14511,"2012-01-01T10:00:00","ND","ND","ND","ND","ND","ND","ND","ND","ND","ND","ND","ND"],
    [14512,"2012-01-01T11:00:00","ND","ND","ND","ND","ND","ND","ND","ND","ND","ND","ND","ND"],
    [14513,"2012-01-01T12:00:00","ND","ND","ND","ND","ND","ND","ND","ND","ND","ND","ND","ND"],
    [14514,"2012-01-01T13:00:00","ND","ND","ND","ND","ND","ND","ND","ND","ND","ND","ND","ND"],
    [14515,"2012-01-01T14:00:00","ND","ND","ND","ND","ND","ND","ND","ND","ND","ND","ND","ND"],
    [14516,"2012-01-01T15:00:00","ND","ND","ND","ND","ND","ND","ND","ND","ND","ND","ND","ND"],
    [14517,"2012-01-01T16:00:00","ND","ND","ND","ND","ND","ND","ND","ND","ND","ND","ND","ND"],
    [14518,"2012-01-01T17:00:00","ND","ND","ND","ND","ND","ND","ND","ND","ND","ND","ND","ND"],
    [14519,"2012-01-01T18:00:00","ND","ND","ND","ND","ND","ND","ND","ND","ND","ND","ND","ND"],
    [14520,"2012-01-01T19:00:00","ND","ND","ND","ND","ND","ND","ND","ND","ND","ND","ND","ND"],
    [14521,"2012-01-01T20:00:00","ND","ND","ND","ND","ND","ND","ND","ND","ND","ND","ND","ND"],
    [14522,"2012-01-01T21:00:00","ND","ND","ND","ND","ND","ND","ND","ND","ND","ND","ND","ND"],
    [14523,"2012-01-01T22:00:00","ND","ND","ND","ND","ND","ND","ND","ND","ND","ND","ND","ND"],
    [14524,"2012-01-01T23:00:00","ND","ND","ND","ND","ND","ND","ND","ND","ND","ND","ND","ND"],
    [14525,"2012-01-02T00:00:00","ND","ND","ND","ND","ND","ND","ND","ND","ND","ND","ND","ND"],
    [14526,"2012-01-02T01:00:00","ND","ND","ND","ND","ND","ND","ND","ND","ND","ND","ND","ND"],
    [14527,"2012-01-02T02:00:00","ND","ND","ND","ND","ND","ND","ND","ND","ND","ND","ND","ND"],
    [14528,"2012-01-02T03:00:00","ND","ND","ND","ND","ND","ND","ND","ND","ND","ND","ND","ND"],
    [14529,"2012-01-02T04:00:00","ND","ND","ND","ND","ND","ND","ND","ND","ND","ND","ND","ND"],
    [14530,"2012-01-02T05:00:00","ND","ND","ND","ND","ND","ND","ND","ND","ND","ND","ND","ND"],
    [14531,"2012-01-02T06:00:00","ND","ND","ND","ND","ND","ND","ND","ND","ND","ND","ND","ND"],
    [14532,"2012-01-02T07:00:00","ND","ND","ND","ND","ND","ND","ND","ND","ND","ND","ND","ND"],
    [14533,"2012-01-02T08:00:00","ND","ND","ND","ND","ND","ND","ND","ND","ND","ND","ND","ND"],
    [14534,"2012-01-02T09:00:00","ND","ND","ND","ND","ND","ND","ND","ND","ND","ND","ND","ND"],
    [14535,"2012-01-02T10:00:00","ND","ND","ND","ND","ND","ND","ND","ND","ND","ND","ND","ND"],
    [14536,"2012-01-02T11:00:00","ND","ND","ND","ND","ND","ND","ND","ND","ND","ND","ND","ND"],
    [14537,"2012-01-02T12:00:00","ND","ND","ND","ND","ND","ND","ND","ND","ND","ND","ND","ND"],
    [14538,"2012-01-02T13:00:00","ND","ND","ND","ND","ND","ND","ND","ND","ND","ND","ND","ND"],
    [14539,"2012-01-02T14:00:00","ND","ND","ND","ND","ND","ND","ND","ND","ND","ND","ND","ND"],
    [14540,"2012-01-02T15:00:00","ND","ND","ND","ND","ND","ND","ND","ND","ND","ND","ND","ND"],
    [14541,"2012-01-02T16:00:00","ND","ND","ND","ND","ND","ND","ND","ND","ND","ND","ND","ND"],
    [14542,"2012-01-02T17:00:00","ND","ND","ND","ND","ND","ND","ND","ND","ND","ND","ND","ND"],
    [14543,"2012-01-02T18:00:00","ND","ND","ND","ND","ND","ND","ND","ND","ND","ND","ND","ND"],
    [14544,"2012-01-02T19:00:00","ND","ND","ND","ND","ND","ND","ND","ND","ND","ND","ND","ND"],
    [14545,"2012-01-02T20:00:00","ND","ND","ND","ND","ND","ND","ND","ND","ND","ND","ND","ND"],
    [14546,"2012-01-02T21:00:00","ND","ND","ND","ND","ND","ND","ND","ND","ND","ND","ND","ND"],
    [14547,"2012-01-02T22:00:00","ND","ND","ND","ND","ND","ND","ND","ND","ND","ND","ND","ND"],
    [14548,"2012-01-02T23:00:00","ND","ND","ND","ND","ND","ND","ND","ND","ND","ND","ND","ND"],
    [14549,"2012-01-03T00:00:00","ND","ND","ND","ND","ND","ND","ND","ND","ND","ND","ND","ND"],
    [14550,"2012-01-03T01:00:00","ND","ND","ND","ND","ND","ND","ND","ND","ND","ND","ND","ND"],
    [14551,"2012-01-03T02:00:00","ND","ND","ND","ND","ND","ND","ND","ND","ND","ND","ND","ND"],
    [14552,"2012-01-03T03:00:00","ND","ND","ND","ND","ND","ND","ND","ND","ND","ND","ND","ND"],
    [14553,"2012-01-03T04:00:00","ND","ND","ND","ND","ND","ND","ND","ND","ND","ND","ND","ND"],
    [14554,"2012-01-03T05:00:00","ND","ND","ND","ND","ND","ND","ND","ND","ND","ND","ND","ND"],
    [14555,"2012-01-03T06:00:00","ND","ND","ND","ND","ND","ND","ND","ND","ND","ND","ND","ND"],
    [14556,"2012-01-03T07:00:00","ND","ND","ND","ND","ND","ND","ND","ND","ND","ND","ND","ND"],
    [14557,"2012-01-03T08:00:00","ND","ND","ND","ND","ND","ND","ND","ND","ND","ND","ND","ND"],
    [14558,"2012-01-03T09:00:00","ND","ND","ND","ND","ND","ND","ND","ND","ND","ND","ND","ND"],
    [14559,"2012-01-03T10:00:00","ND","ND","ND","ND","ND","ND","ND","ND","ND","ND","ND","ND"],
    [14560,"2012-01-03T11:00:00","ND","ND","ND","ND","ND","ND","ND","ND","ND","ND","ND","ND"],
    [14561,"2012-01-03T12:00:00","ND","ND","ND","ND","ND","ND","ND","ND","ND","ND","ND","ND"],
    [14562,"2012-01-03T13:00:00","ND","ND","ND","ND","ND","ND","ND","ND","ND","ND","ND","ND"],
    [14563,"2012-01-03T14:00:00","ND","ND","ND","ND","ND","ND","ND","ND","ND","ND","ND","ND"],
    [14564,"2012-01-03T15:00:00","ND","ND","ND","ND","ND","ND","ND","ND","ND","ND","ND","ND"],
    [14565,"2012-01-03T16:00:00","ND","ND","ND","ND","ND","ND","ND","ND","ND","ND","ND","ND"],
    [14566,"2012-01-03T17:00:00","ND","ND","ND","ND","ND","ND","ND","ND","ND","ND","ND","ND"],
    [14567,"2012-01-03T18:00:00","ND","ND","ND","ND","ND","ND","ND","ND","ND","ND","ND","ND"],
    [14568,"2012-01-03T19:00:00","ND","ND","ND","ND","ND","ND","ND","ND","ND","ND","ND","ND"],
    [14569,"2012-01-03T20:00:00","ND","ND","ND","ND","ND","ND","ND","ND","ND","ND","ND","ND"],
    [14570,"2012-01-03T21:00:00","ND","ND","ND","ND","ND","ND","ND","ND","ND","ND","ND","ND"],
    [14571,"2012-01-03T22:00:00","ND","ND","ND","ND","ND","ND","ND","ND","ND","ND","ND","ND"],
    [14572,"2012-01-03T23:00:00","ND","ND","ND","ND","ND","ND","ND","ND","ND","ND","ND","ND"],
    [14573,"2012-01-04T00:00:00","ND","ND","ND","ND","ND","ND","ND","ND","ND","ND","ND","ND"],
    [14574,"2012-01-04T01:00:00","ND","ND","ND","ND","ND","ND","ND","ND","ND","ND","ND","ND"],
    [14575,"2012-01-04T02:00:00","ND","ND","ND","ND","ND","ND","ND","ND","ND","ND","ND","ND"],
    [14576,"2012-01-04T03:00:00","ND","ND","ND","ND","ND","ND","ND","ND","ND","ND","ND","ND"],
    [14577,"2012-01-04T04:00:00","ND","ND","ND","ND","ND","ND","ND","ND","ND","ND","ND","ND"],
    [14578,"2012-01-04T05:00:00","ND","ND","ND","ND","ND","ND","ND","ND","ND","ND","ND","ND"],
    [14579,"2012-01-04T06:00:00","ND","ND","ND","ND","ND","ND","ND","ND","ND","ND","ND","ND"],
    [14580,"2012-01-04T07:00:00","ND","ND","ND","ND","ND","ND","ND","ND","ND","ND","ND","ND"],
    [14581,"2012-01-04T08:00:00","ND","ND","ND","ND","ND","ND","ND","ND","ND","ND","ND","ND"],
    [14582,"2012-01-04T09:00:00","ND","ND","ND","ND","ND","ND","ND","ND","ND","ND","ND","ND"],
    [14583,"2012-01-04T10:00:00","ND","ND","ND","ND","ND","ND","ND","ND","ND","ND","ND","ND"],
    [14584,"2012-01-04T11:00:00","ND","ND","ND","ND","ND","ND","ND","ND","ND","ND","ND","ND"],
    [14585,"2012-01-04T12:00:00","ND","ND","ND","ND","ND","ND","ND","ND","ND","ND","ND","ND"],
    [14586,"2012-01-04T13:00:00","ND","ND","ND","ND","ND","ND","ND","ND","ND","ND","ND","ND"],
    [14587,"2012-01-04T14:00:00","ND","ND","ND","ND","ND","ND","ND","ND","ND","ND","ND","ND"],
    [14588,"2012-01-04T15:00:00","ND","ND","ND","ND","ND","ND","ND","ND","ND","ND","ND","ND"],
    [14589,"2012-01-04T16:00:00","ND","ND","ND","ND","ND","ND","ND","ND","ND","ND","ND","ND"],
    [14590,"2012-01-04T17:00:00","ND","ND","ND","ND","ND","ND","ND","ND","ND","ND","ND","ND"],
    [14591,"2012-01-04T18:00:00","ND","ND","ND","ND","ND","ND","ND","ND","ND","ND","ND","ND"],
    [14592,"2012-01-04T19:00:00","ND","ND","ND","ND","ND","ND","ND","ND","ND","ND","ND","ND"],
    [14593,"2012-01-04T20:00:00","ND","ND","ND","ND","ND","ND","ND","ND","ND","ND","ND","ND"],
    [14594,"2012-01-04T21:00:00","ND","ND","ND","ND","ND","ND","ND","ND","ND","ND","ND","ND"],
    [14595,"2012-01-04T22:00:00","ND","ND","ND","ND","ND","ND","ND","ND","ND","ND","ND","ND"],
    [14596,"2012-01-04T23:00:00","ND","ND","ND","ND","ND","ND","ND","ND","ND","ND","ND","ND"],
    [14597,"2012-01-05T00:00:00","ND","ND","ND","ND","ND","ND","ND","ND","ND","ND","ND","ND"],
    [14598,"2012-01-05T01:00:00","ND","ND","ND","ND","ND","ND","ND","ND","ND","ND","ND","ND"],
    [14599,"2012-01-05T02:00:00","ND","ND","ND","ND","ND","ND","ND","ND","ND","ND","ND","ND"],
    [14600,"2012-01-05T03:00:00","ND","ND","ND","ND","ND","ND","ND","ND","ND","ND","ND","ND"],
    [14601,"2012-01-05T04:00:00","ND","ND","ND","ND","ND","ND","ND","ND","ND","ND","ND","ND"],
    [14602,"2012-01-05T05:00:00","ND","ND","ND","ND","ND","ND","ND","ND","ND","ND","ND","ND"],
    [14603,"2012-01-05T06:00:00","ND","ND","ND","ND","ND","ND","ND","ND","ND","ND","ND","ND"],
    [14604,"2012-01-05T07:00:00","ND","ND","ND","ND","ND","ND","ND","ND","ND","ND","ND","ND"],
    [14605,"2012-01-05T08:00:00","ND","ND","ND","ND","ND","ND","ND","ND","ND","ND","ND","ND"],
    [14606,"2012-01-05T09:00:00","ND","ND","ND","ND","ND","ND","ND","ND","ND","ND","ND","ND"],
    [14607,"2012-01-05T10:00:00","ND","ND","ND","ND","ND","ND","ND","ND","ND","ND","ND","ND"],
    [14608,"2012-01-05T11:00:00","ND","ND","ND","ND","ND","ND","ND","ND","ND","ND","ND","ND"],
    [14609,"2012-01-05T12:00:00","ND","ND","ND","ND","ND","ND","ND","ND","ND","ND","ND","ND"],
    [14610,"2012-01-05T13:00:00","ND","ND","ND","ND","ND","ND","ND","ND","ND","ND","ND","ND"],
    [14611,"2012-01-05T14:00:00","ND","ND","ND","ND","ND","ND","ND","ND","ND","ND","ND","ND"],
    [14612,"2012-01-05T15:00:00","ND","ND","ND","ND","ND","ND","ND","ND","ND","ND","ND","ND"],
    [14613,"2012-01-05T16:00:00","ND","ND","ND","ND","ND","ND","ND","ND","ND","ND","ND","ND"],
    [14614,"2012-01-05T17:00:00","ND","ND","ND","ND","ND","ND","ND","ND","ND","ND","ND","ND"],
    [14615,"2012-01-05T18:00:00","ND","ND","ND","ND","ND","ND","ND","ND","ND","ND","ND","ND"],
    [14616,"2012-01-05T19:00:00","ND","ND","ND","ND","ND","ND","ND","ND","ND","ND","ND","ND"],
    [14617,"2012-01-05T20:00:00","ND","ND","ND","ND","ND","ND","ND","ND","ND","ND","ND","ND"],
    [14618,"2012-01-05T21:00:00","ND","ND","ND","ND","ND","ND","ND","ND","ND","ND","ND","ND"],
    [14619,"2012-01-05T22:00:00","ND","ND","ND","ND","ND","ND","ND","ND","ND","ND","ND","ND"],
    [14620,"2012-01-05T23:00:00","ND","ND","ND","ND","ND","ND","ND","ND","ND","ND","ND","ND"],
    [14621,"2012-01-06T00:00:00","ND","ND","ND","ND","ND","ND","ND","ND","ND","ND","ND","ND"],
    [14622,"2012-01-06T01:00:00","ND","ND","ND","ND","ND","ND","ND","ND","ND","ND","ND","ND"],
    [14623,"2012-01-06T02:00:00","ND","ND","ND","ND","ND","ND","ND","ND","ND","ND","ND","ND"],
    [14624,"2012-01-06T03:00:00","ND","ND","ND","ND","ND","ND","ND","ND","ND","ND","ND","ND"],
    [14625,"2012-01-06T04:00:00","ND","ND","ND","ND","ND","ND","ND","ND","ND","ND","ND","ND"],
    [14626,"2012-01-06T05:00:00","ND","ND","ND","ND","ND","ND","ND","ND","ND","ND","ND","ND"],
    [14627,"2012-01-06T06:00:00","ND","ND","ND","ND","ND","ND","ND","ND","ND","ND","ND","ND"],
    [14628,"2012-01-06T07:00:00","ND","ND","ND","ND","ND","ND","ND","ND","ND","ND","ND","ND"],
    [14629,"2012-01-06T08:00:00","ND","ND","ND","ND","ND","ND","ND","ND","ND","ND","ND","ND"],
    [14630,"2012-01-06T09:00:00","ND","ND","ND","ND","ND","ND","ND","ND","ND","ND","ND","ND"],
    [14631,"2012-01-06T10:00:00","ND","ND","ND","ND","ND","ND","ND","ND","ND","ND","ND","ND"],
    [14632,"2012-01-06T11:00:00","ND","ND","ND","ND","ND","ND","ND","ND","ND","ND","ND","ND"],
    [14633,"2012-01-06T12:00:00","ND","ND","ND","ND","ND","ND","ND","ND","ND","ND","ND","ND"],
    [14634,"2012-01-06T13:00:00","ND","ND","ND","ND","ND","ND","ND","ND","ND","ND","ND","ND"],
    [14635,"2012-01-06T14:00:00","ND","ND","ND","ND","ND","ND","ND","ND","ND","ND","ND","ND"],
    [14636,"2012-01-06T15:00:00","ND","ND","ND","ND","ND","ND","ND","ND","ND","ND","ND","ND"],
    [14637,"2012-01-06T16:00:00","ND","ND","ND","ND","ND","ND","ND","ND","ND","ND","ND","ND"],
    [14638,"2012-01-06T17:00:00","ND","ND","ND","ND","ND","ND","ND","ND","ND","ND","ND","ND"],
    [14639,"2012-01-06T18:00:00","ND","ND","ND","ND","ND","ND","ND","ND","ND","ND","ND","ND"],
    [14640,"2012-01-06T19:00:00","ND","ND","ND","ND","ND","ND","ND","ND","ND","ND","ND","ND"],
    [14641,"2012-01-06T20:00:00","ND","ND","ND","ND","ND","ND","ND","ND","ND","ND","ND","ND"],
    [14642,"2012-01-06T21:00:00","ND","ND","ND","ND","ND","ND","ND","ND","ND","ND","ND","ND"],
    [14643,"2012-01-06T22:00:00","ND","ND","ND","ND","ND","ND","ND","ND","ND","ND","ND","ND"],
    [14644,"2012-01-06T23:00:00","ND","ND","ND","ND","ND","ND","ND","ND","ND","ND","ND","ND"],
    [14645,"2012-01-07T00:00:00","ND","ND","ND","ND","ND","ND","ND","ND","ND","ND","ND","ND"],
    [14646,"2012-01-07T01:00:00","ND","ND","ND","ND","ND","ND","ND","ND","ND","ND","ND","ND"],
    [14647,"2012-01-07T02:00:00","ND","ND","ND","ND","ND","ND","ND","ND","ND","ND","ND","ND"],
    [14648,"2012-01-07T03:00:00","ND","ND","ND","ND","ND","ND","ND","ND","ND","ND","ND","ND"],
    [14649,"2012-01-07T04:00:00","ND","ND","ND","ND","ND","ND","ND","ND","ND","ND","ND","ND"],
    [14650,"2012-01-07T05:00:00","ND","ND","ND","ND","ND","ND","ND","ND","ND","ND","ND","ND"],
    [14651,"2012-01-07T06:00:00","ND","ND","ND","ND","ND","ND","ND","ND","ND","ND","ND","ND"],
    [14652,"2012-01-07T07:00:00","ND","ND","ND","ND","ND","ND","ND","ND","ND","ND","ND","ND"],
    [14653,"2012-01-07T08:00:00","ND","ND","ND","ND","ND","ND","ND","ND","ND","ND","ND","ND"],
    [14654,"2012-01-07T09:00:00","ND","ND","ND","ND","ND","ND","ND","ND","ND","ND","ND","ND"],
    [14655,"2012-01-07T10:00:00","ND","ND","ND","ND","ND","ND","ND","ND","ND","ND","ND","ND"],
    [14656,"2012-01-07T11:00:00","ND","ND","ND","ND","ND","ND","ND","ND","ND","ND","ND","ND"],
    [14657,"2012-01-07T12:00:00","ND","ND","ND","ND","ND","ND","ND","ND","ND","ND","ND","ND"],
    [14658,"2012-01-07T13:00:00","ND","ND","ND","ND","ND","ND","ND","ND","ND","ND","ND","ND"],
    [14659,"2012-01-07T14:00:00","ND","ND","ND","ND","ND","ND","ND","ND","ND","ND","ND","ND"],
    [14660,"2012-01-07T15:00:00","ND","ND","ND","ND","ND","ND","ND","ND","ND","ND","ND","ND"],
    [14661,"2012-01-07T16:00:00","ND","ND","ND","ND","ND","ND","ND","ND","ND","ND","ND","ND"],
    [14662,"2012-01-07T17:00:00","ND","ND","ND","ND","ND","ND","ND","ND","ND","ND","ND","ND"],
    [14663,"2012-01-07T18:00:00","ND","ND","ND","ND","ND","ND","ND","ND","ND","ND","ND","ND"],
    [14664,"2012-01-07T19:00:00","ND","ND","ND","ND","ND","ND","ND","ND","ND","ND","ND","ND"],
    [14665,"2012-01-07T20:00:00","ND","ND","ND","ND","ND","ND","ND","ND","ND","ND","ND","ND"],
    [14666,"2012-01-07T21:00:00","ND","ND","ND","ND","ND","ND","ND","ND","ND","ND","ND","ND"],
    [14667,"2012-01-07T22:00:00","ND","ND","ND","ND","ND","ND","ND","ND","ND","ND","ND","ND"],
    [14668,"2012-01-07T23:00:00","ND","ND","ND","ND","ND","ND","ND","ND","ND","ND","ND","ND"],
    [14669,"2012-01-08T00:00:00","ND","ND","ND","ND","ND","ND","ND","ND","ND","ND","ND","ND"],
    [14670,"2012-01-08T01:00:00","ND","ND","ND","ND","ND","ND","ND","ND","ND","ND","ND","ND"],
    [14671,"2012-01-08T02:00:00","ND","ND","ND","ND","ND","ND","ND","ND","ND","ND","ND","ND"],
    [14672,"2012-01-08T03:00:00","ND","ND","ND","ND","ND","ND","ND","ND","ND","ND","ND","ND"],
    [14673,"2012-01-08T04:00:00","ND","ND","ND","ND","ND","ND","ND","ND","ND","ND","ND","ND"],
    [14674,"2012-01-08T05:00:00","ND","ND","ND","ND","ND","ND","ND","ND","ND","ND","ND","ND"],
    [14675,"2012-01-08T06:00:00","ND","ND","ND","ND","ND","ND","ND","ND","ND","ND","ND","ND"],
    [14676,"2012-01-08T07:00:00","ND","ND","ND","ND","ND","ND","ND","ND","ND","ND","ND","ND"],
    [14677,"2012-01-08T08:00:00","ND","ND","ND","ND","ND","ND","ND","ND","ND","ND","ND","ND"],
    [14678,"2012-01-08T09:00:00","ND","ND","ND","ND","ND","ND","ND","ND","ND","ND","ND","ND"],
    [14679,"2012-01-08T10:00:00","ND","ND","ND","ND","ND","ND","ND","ND","ND","ND","ND","ND"],
    [14680,"2012-01-08T11:00:00","ND","ND","ND","ND","ND","ND","ND","ND","ND","ND","ND","ND"],
    [14681,"2012-01-08T12:00:00","ND","ND","ND","ND","ND","ND","ND","ND","ND","ND","ND","ND"],
    [14682,"2012-01-08T13:00:00","ND","ND","ND","ND","ND","ND","ND","ND","ND","ND","ND","ND"],
    [14683,"2012-01-08T14:00:00","ND","ND","ND","ND","ND","ND","ND","ND","ND","ND","ND","ND"],
    [14684,"2012-01-08T15:00:00","ND","ND","ND","ND","ND","ND","ND","ND","ND","ND","ND","ND"],
    [14685,"2012-01-08T16:00:00","ND","ND","ND","ND","ND","ND","ND","ND","ND","ND","ND","ND"],
    [14686,"2012-01-08T17:00:00","ND","ND","ND","ND","ND","ND","ND","ND","ND","ND","ND","ND"],
    [14687,"2012-01-08T18:00:00","ND","ND","ND","ND","ND","ND","ND","ND","ND","ND","ND","ND"],
    [14688,"2012-01-08T19:00:00","ND","ND","ND","ND","ND","ND","ND","ND","ND","ND","ND","ND"],
    [14689,"2012-01-08T20:00:00","ND","ND","ND","ND","ND","ND","ND","ND","ND","ND","ND","ND"],
    [14690,"2012-01-08T21:00:00","ND","ND","ND","ND","ND","ND","ND","ND","ND","ND","ND","ND"],
    [14691,"2012-01-08T22:00:00","ND","ND","ND","ND","ND","ND","ND","ND","ND","ND","ND","ND"],
    [14692,"2012-01-08T23:00:00","ND","ND","ND","ND","ND","ND","ND","ND","ND","ND","ND","ND"],
    [14693,"2012-01-09T00:00:00","ND","ND","ND","ND","ND","ND","ND","ND","ND","ND","ND","ND"],
    [14694,"2012-01-09T01:00:00","ND","ND","ND","ND","ND","ND","ND","ND","ND","ND","ND","ND"],
    [14695,"2012-01-09T02:00:00","ND","ND","ND","ND","ND","ND","ND","ND","ND","ND","ND","ND"],
    [14696,"2012-01-09T03:00:00","ND","ND","ND","ND","ND","ND","ND","ND","ND","ND","ND","ND"],
    [14697,"2012-01-09T04:00:00","ND","ND","ND","ND","ND","ND","ND","ND","ND","ND","ND","ND"],
    [14698,"2012-01-09T05:00:00","ND","ND","ND","ND","ND","ND","ND","ND","ND","ND","ND","ND"],
    [14699,"2012-01-09T06:00:00","ND","ND","ND","ND","ND","ND","ND","ND","ND","ND","ND","ND"],
    [14700,"2012-01-09T07:00:00","ND","ND","ND","ND","ND","ND","ND","ND","ND","ND","ND","ND"],
    [14701,"2012-01-09T08:00:00","ND","ND","ND","ND","ND","ND","ND","ND","ND","ND","ND","ND"],
    [14702,"2012-01-09T09:00:00","ND","ND","ND","ND","ND","ND","ND","ND","ND","ND","ND","ND"],
    [14703,"2012-01-09T10:00:00","ND","ND","ND","ND","ND","ND","ND","ND","ND","ND","ND","ND"],
    [14704,"2012-01-09T11:00:00","ND","ND","ND","ND","ND","ND","ND","ND","ND","ND","ND","ND"],
    [14705,"2012-01-09T12:00:00","ND","ND","ND","ND","ND","ND","ND","ND","ND","ND","ND","ND"],
    [14706,"2012-01-09T13:00:00","ND","ND","ND","ND","ND","ND","ND","ND","ND","ND","ND","ND"],
    [14707,"2012-01-09T14:00:00","ND","ND","ND","ND","ND","ND","ND","ND","ND","ND","ND","ND"],
    [14708,"2012-01-09T15:00:00","ND","ND","ND","ND","ND","ND","ND","ND","ND","ND","ND","ND"],
    [14709,"2012-01-09T16:00:00","ND","ND","ND","ND","ND","ND","ND","ND","ND","ND","ND","ND"],
    [14710,"2012-01-09T17:00:00","ND","ND","ND","ND","ND","ND","ND","ND","ND","ND","ND","ND"],
    [14711,"2012-01-09T18:00:00","ND","ND","ND","ND","ND","ND","ND","ND","ND","ND","ND","ND"],
    [14712,"2012-01-09T19:00:00","ND","ND","ND","ND","ND","ND","ND","ND","ND","ND","ND","ND"],
    [14713,"2012-01-09T20:00:00","ND","ND","ND","ND","ND","ND","ND","ND","ND","ND","ND","ND"],
    [14714,"2012-01-09T21:00:00","ND","ND","ND","ND","ND","ND","ND","ND","ND","ND","ND","ND"],
    [14715,"2012-01-09T22:00:00","ND","ND","ND","ND","ND","ND","ND","ND","ND","ND","ND","ND"],
    [14716,"2012-01-09T23:00:00","ND","ND","ND","ND","ND","ND","ND","ND","ND","ND","ND","ND"],
    [14717,"2012-01-10T00:00:00","ND","ND","ND","ND","ND","ND","ND","ND","ND","ND","ND","ND"],
    [14718,"2012-01-10T01:00:00","ND","ND","ND","ND","ND","ND","ND","ND","ND","ND","ND","ND"],
    [14719,"2012-01-10T02:00:00","ND","ND","ND","ND","ND","ND","ND","ND","ND","ND","ND","ND"],
    [14720,"2012-01-10T03:00:00","ND","ND","ND","ND","ND","ND","ND","ND","ND","ND","ND","ND"],
    [14721,"2012-01-10T04:00:00","ND","ND","ND","ND","ND","ND","ND","ND","ND","ND","ND","ND"],
    [14722,"2012-01-10T05:00:00","ND","ND","ND","ND","ND","ND","ND","ND","ND","ND","ND","ND"],
    [14723,"2012-01-10T06:00:00","ND","ND","ND","ND","ND","ND","ND","ND","ND","ND","ND","ND"],
    [14724,"2012-01-10T07:00:00","ND","ND","ND","ND","ND","ND","ND","ND","ND","ND","ND","ND"],
    [14725,"2012-01-10T08:00:00","ND","ND","ND","ND","ND","ND","ND","ND","ND","ND","ND","ND"],
    [14726,"2012-01-10T09:00:00","ND","ND","ND","ND","ND","ND","ND","ND","ND","ND","ND","ND"],
    [14727,"2012-01-10T10:00:00","ND","ND","ND","ND","ND","ND","ND","ND","ND","ND","ND","ND"],
    [14728,"2012-01-10T11:00:00","ND","ND","ND","ND","ND","ND","ND","ND","ND","ND","ND","ND"],
    [14729,"2012-01-10T12:00:00","ND","ND","ND","ND","ND","ND","ND","ND","ND","ND","ND","ND"],
    [14730,"2012-01-10T13:00:00","ND","ND","ND","ND","ND","ND","ND","ND","ND","ND","ND","ND"],
    [14731,"2012-01-10T14:00:00","ND","ND","ND","ND","ND","ND","ND","ND","ND","ND","ND","ND"],
    [14732,"2012-01-10T15:00:00","ND","ND","ND","ND","ND","ND","ND","ND","ND","ND","ND","ND"],
    [14733,"2012-01-10T16:00:00","ND","ND","ND","ND","ND","ND","ND","ND","ND","ND","ND","ND"],
    [14734,"2012-01-10T17:00:00","ND","ND","ND","ND","ND","ND","ND","ND","ND","ND","ND","ND"],
    [14735,"2012-01-10T18:00:00","ND","ND","ND","ND","ND","ND","ND","ND","ND","ND","ND","ND"],
    [14736,"2012-01-10T19:00:00","ND","ND","ND","ND","ND","ND","ND","ND","ND","ND","ND","ND"],
    [14737,"2012-01-10T20:00:00","ND","ND","ND","ND","ND","ND","ND","ND","ND","ND","ND","ND"],
    [14738,"2012-01-10T21:00:00","ND","ND","ND","ND","ND","ND","ND","ND","ND","ND","ND","ND"],
    [14739,"2012-01-10T22:00:00","ND","ND","ND","ND","ND","ND","ND","ND","ND","ND","ND","ND"],
    [14740,"2012-01-10T23:00:00","ND","ND","ND","ND","ND","ND","ND","ND","ND","ND","ND","ND"],
    [14741,"2012-01-11T00:00:00","ND","ND","ND","ND","ND","ND","ND","ND","ND","ND","ND","ND"],
    [14742,"2012-01-11T01:00:00","ND","ND","ND","ND","ND","ND","ND","ND","ND","ND","ND","ND"],
    [14743,"2012-01-11T02:00:00","ND","ND","ND","ND","ND","ND","ND","ND","ND","ND","ND","ND"],
    [14744,"2012-01-11T03:00:00","ND","ND","ND","ND","ND","ND","ND","ND","ND","ND","ND","ND"],
    [14745,"2012-01-11T04:00:00","ND","ND","ND","ND","ND","ND","ND","ND","ND","ND","ND","ND"],
    [14746,"2012-01-11T05:00:00","ND","ND","ND","ND","ND","ND","ND","ND","ND","ND","ND","ND"],
    [14747,"2012-01-11T06:00:00","ND","ND","ND","ND","ND","ND","ND","ND","ND","ND","ND","ND"],
    [14748,"2012-01-11T07:00:00","ND","ND","ND","ND","ND","ND","ND","ND","ND","ND","ND","ND"],
    [14749,"2012-01-11T08:00:00","ND","ND","ND","ND","ND","ND","ND","ND","ND","ND","ND","ND"],
    [14750,"2012-01-11T09:00:00","ND","ND","ND","ND","ND","ND","ND","ND","ND","ND","ND","ND"],
    [14751,"2012-01-11T10:00:00","ND","ND","ND","ND","ND","ND","ND","ND","ND","ND","ND","ND"],
    [14752,"2012-01-11T11:00:00","ND","ND","ND","ND","ND","ND","ND","ND","ND","ND","ND","ND"],
    [14753,"2012-01-11T12:00:00","ND","ND","ND","ND","ND","ND","ND","ND","ND","ND","ND","ND"],
    [14754,"2012-01-11T13:00:00","ND","ND","ND","ND","ND","ND","ND","ND","ND","ND","ND","ND"],
    [14755,"2012-01-11T14:00:00","ND","ND","ND","ND","ND","ND","ND","ND","ND","ND","ND","ND"],
    [14756,"2012-01-11T15:00:00","ND","ND","ND","ND","ND","ND","ND","ND","ND","ND","ND","ND"],
    [14757,"2012-01-11T16:00:00","ND","ND","ND","ND","ND","ND","ND","ND","ND","ND","ND","ND"],
    [14758,"2012-01-11T17:00:00","ND","ND","ND","ND","ND","ND","ND","ND","ND","ND","ND","ND"],
    [14759,"2012-01-11T18:00:00","ND","ND","ND","ND","ND","ND","ND","ND","ND","ND","ND","ND"],
    [14760,"2012-01-11T19:00:00","ND","ND","ND","ND","ND","ND","ND","ND","ND","ND","ND","ND"],
    [14761,"2012-01-11T20:00:00","ND","ND","ND","ND","ND","ND","ND","ND","ND","ND","ND","ND"],
    [14762,"2012-01-11T21:00:00","ND","ND","ND","ND","ND","ND","ND","ND","ND","ND","ND","ND"],
    [14763,"2012-01-11T22:00:00","ND","ND","ND","ND","ND","ND","ND","ND","ND","ND","ND","ND"],
    [14764,"2012-01-11T23:00:00","ND","ND","ND","ND","ND","ND","ND","ND","ND","ND","ND","ND"],
    [14765,"2012-01-12T00:00:00","ND","ND","ND","ND","ND","ND","ND","ND","ND","ND","ND","ND"],
    [14766,"2012-01-12T01:00:00","ND","ND","ND","ND","ND","ND","ND","ND","ND","ND","ND","ND"],
    [14767,"2012-01-12T02:00:00","ND","ND","ND","ND","ND","ND","ND","ND","ND","ND","ND","ND"],
    [14768,"2012-01-12T03:00:00","ND","ND","ND","ND","ND","ND","ND","ND","ND","ND","ND","ND"],
    [14769,"2012-01-12T04:00:00","ND","ND","ND","ND","ND","ND","ND","ND","ND","ND","ND","ND"],
    [14770,"2012-01-12T05:00:00","ND","ND","ND","ND","ND","ND","ND","ND","ND","ND","ND","ND"],
    [14771,"2012-01-12T06:00:00","ND","ND","ND","ND","ND","ND","ND","ND","ND","ND","ND","ND"],
    [14772,"2012-01-12T07:00:00","ND","ND","ND","ND","ND","ND","ND","ND","ND","ND","ND","ND"],
    [14773,"2012-01-12T08:00:00","ND","ND","ND","ND","ND","ND","ND","ND","ND","ND","ND","ND"],
    [14774,"2012-01-12T09:00:00","ND","ND","ND","ND","ND","ND","ND","ND","ND","ND","ND","ND"],
    [14775,"2012-01-12T10:00:00","ND","ND","ND","ND","ND","ND","ND","ND","ND","ND","ND","ND"],
    [14776,"2012-01-12T11:00:00","ND","ND","ND","ND","ND","ND","ND","ND","ND","ND","ND","ND"],
    [14777,"2012-01-12T12:00:00","ND","ND","ND","ND","ND","ND","ND","ND","ND","ND","ND","ND"],
    [14778,"2012-01-12T13:00:00","ND","ND","ND","ND","ND","ND","ND","ND","ND","ND","ND","ND"],
    [14779,"2012-01-12T14:00:00","ND","ND","ND","ND","ND","ND","ND","ND","ND","ND","ND","ND"],
    [14780,"2012-01-12T15:00:00","ND","ND","ND","ND","ND","ND","ND","ND","ND","ND","ND","ND"],
    [14781,"2012-01-12T16:00:00","ND","ND","ND","ND","ND","ND","0.3","258.4","29.6","51.1","195.3","0"],
    [14782,"2012-01-12T17:00:00","ND","ND","47.21","ND","ND","ND","1.2","271.2","29.3","52.2","128.9","0"],
    [14783,"2012-01-12T18:00:00","ND","ND","ND","ND","ND","ND","0.8","253.2","28.3","54.3","37.7","0"],
    [14784,"2012-01-12T19:00:00","ND","ND","ND","ND","ND","ND","0.6","237.5","27","57.8","0.8","0"],
    [14785,"2012-01-12T20:00:00","ND","ND","ND","ND","ND","ND","0.3","265.3","25.8","64.3","0","0"],
    [14786,"2012-01-12T21:00:00","ND","ND","ND","ND","ND","ND","0.1","167.8","25.3","65","0","0"],
    [14787,"2012-01-12T22:00:00","ND","ND","ND","ND","ND","ND","0.5","156.9","24.8","68.7","0","0"],
    [14788,"2012-01-12T23:00:00","ND","ND","ND","ND","ND","ND","0.1","277.1","24","73.9","0","0"],
    [14789,"2012-01-13T00:00:00","ND","ND","ND","ND","ND","ND","0.1","202.6","24","75","0","0"],
    [14790,"2012-01-13T01:00:00","ND","ND","ND","ND","ND","ND","0.3","108.7","23.9","75.1","0","0"],
    [14791,"2012-01-13T02:00:00","ND","ND","ND","ND","ND","ND","0.1","125.4","23.6","77.8","0","0"],
    [14792,"2012-01-13T03:00:00","ND","ND","ND","ND","ND","ND","0","201.7","23.4","79","0","0"],
    [14793,"2012-01-13T04:00:00","ND","ND","23.09","ND","ND","ND","0.1","291.1","23.3","79.8","0","0"],
    [14794,"2012-01-13T05:00:00","ND","ND","22.42","ND","ND","ND","0.1","280","23.4","79.8","0","0"],
    [14795,"2012-01-13T06:00:00","ND","ND","ND","ND","ND","ND","0.1","353.5","23.4","80.3","0","0"],
    [14796,"2012-01-13T07:00:00","ND","ND","ND","ND","ND","ND","0.2","95.5","23.2","81.8","7.7","0"],
    [14797,"2012-01-13T08:00:00","ND","ND","ND","ND","ND","ND","0.1","85.9","23.9","78.5","79.2","0"],
    [14798,"2012-01-13T09:00:00","ND","ND","ND","ND","ND","ND","0.8","45.1","24.3","77.2","158.9","0"],
    [14799,"2012-01-13T10:00:00","ND","ND","29.22","ND","ND","ND","1.3","35.7","24.9","75.2","246.4","0"],
    [14800,"2012-01-13T11:00:00","ND","ND","26.24","ND","ND","ND","1.3","45","25.2","73.5","192.3","0"],
    [14801,"2012-01-13T12:00:00","ND","ND","22.42","ND","ND","ND","0.9","52.8","25.6","72","259.7","0.25"],
    [14802,"2012-01-13T13:00:00","ND","ND","34.34","ND","ND","ND","1","31","26.4","69.1","331.7","0"],
    [14803,"2012-01-13T14:00:00","ND","ND","35.86","ND","ND","ND","1","52.1","26.9","66.3","219.5","0"],
    [14804,"2012-01-13T15:00:00","ND","ND","22.88","ND","ND","ND","0.8","39.2","27.7","63.5","351.3","0"],
    [14805,"2012-01-13T16:00:00","ND","ND","25.77","ND","ND","ND","0.4","61.7","28.1","61.9","158.2","0"],
    [14806,"2012-01-13T17:00:00","ND","ND","29.13","ND","ND","ND","1.2","258.7","28","58.5","82.9","0"],
    [14807,"2012-01-13T18:00:00","ND","ND","38.12","ND","ND","ND","0.3","236.7","27.5","59.2","16.6","0"],
    [14808,"2012-01-13T19:00:00","ND","ND","36.77","ND","ND","ND","1","259.2","26.1","62.9","0.3","0"],
    [14809,"2012-01-13T20:00:00","ND","ND","41.64","ND","ND","ND","0.3","93.2","26.3","62","0","0"],
    [14810,"2012-01-13T21:00:00","ND","ND","41.68","ND","ND","ND","0.1","305.4","25.4","67.3","0","0"],
    [14811,"2012-01-13T22:00:00","ND","ND","35.09","ND","ND","ND","0.1","111.5","24.4","71.7","0","0"],
    [14812,"2012-01-13T23:00:00","ND","ND","33.09","ND","ND","ND","0.7","195.3","24.3","72.9","0","0"],
    [14813,"2012-01-14T00:00:00","ND","ND","31.19","ND","ND","ND","0.1","345.6","24.1","73.3","0","0"],
    [14814,"2012-01-14T01:00:00","ND","ND","30.23","ND","ND","ND","0.6","185","23.9","76.6","0","0"],
    [14815,"2012-01-14T02:00:00","ND","ND","31.55","ND","ND","ND","0.1","116.3","23.8","79","0","0"],
    [14816,"2012-01-14T03:00:00","ND","ND","23.57","ND","ND","ND","0.4","290","22.8","82.4","0","0"],
    [14817,"2012-01-14T04:00:00","ND","ND","25.16","ND","ND","ND","0.2","176.4","23","83.8","0","0"],
    [14818,"2012-01-14T05:00:00","ND","ND","20.78","ND","ND","ND","0.2","32.3","22.6","86.8","0","0"],
    [14819,"2012-01-14T06:00:00","ND","ND","21.92","ND","ND","ND","0.3","315","22.1","86.9","0","0"],
    [14820,"2012-01-14T07:00:00","ND","ND","24.54","ND","ND","ND","0.2","56.1","22","85.2","12.5","0"],
    [14821,"2012-01-14T08:00:00","ND","ND","26.81","ND","ND","ND","0.5","45.1","22.6","82.4","107.7","0"],
    [14822,"2012-01-14T09:00:00","ND","ND","24.46","ND","ND","ND","1.4","50.8","23.8","78","300.6","0"],
    [14823,"2012-01-14T10:00:00","ND","ND","19.83","ND","ND","ND","0.7","69.6","25.8","67.9","455.9","0"],
    [14824,"2012-01-14T11:00:00","ND","ND","22.95","ND","ND","ND","0.8","127.4","27.6","60.2","440.7","0"],
    [14825,"2012-01-14T12:00:00","ND","ND","24.88","ND","ND","ND","0.3","299.1","28","58.3","386.4","0"],
    [14826,"2012-01-14T13:00:00","ND","ND","19.16","ND","ND","ND","0.4","82","29.2","53.6","468.5","0"],
    [14827,"2012-01-14T14:00:00","ND","ND","16.89","ND","ND","ND","0.9","56.2","30","50.4","515.4","0"],
    [14828,"2012-01-14T15:00:00","ND","ND","19.51","ND","ND","ND","1.2","287.1","30.2","50.4","389","0"],
    [14829,"2012-01-14T16:00:00","ND","ND","11.48","ND","ND","ND","2.7","286.4","29.3","51.5","160.8","0"],
    [14830,"2012-01-14T17:00:00","ND","ND","13.45","ND","ND","ND","3","278.5","28.8","50.2","95.8","0"],
    [14831,"2012-01-14T18:00:00","ND","ND","23.58","ND","ND","ND","1.4","271.8","28.4","49","22.8","0"],
    [14832,"2012-01-14T19:00:00","ND","ND","50.12","ND","ND","ND","1","99","27.6","54.2","2.6","0"],
    [14833,"2012-01-14T20:00:00","ND","ND","23.68","ND","ND","ND","1.7","188.6","25.5","63.9","1.6","0"],
    [14834,"2012-01-14T21:00:00","ND","ND","42.56","ND","ND","ND","0.4","71.5","24.6","70.7","0","0"],
    [14835,"2012-01-14T22:00:00","ND","ND","47.88","ND","ND","ND","0.8","183.4","23.6","77.8","0","0"],
    [14836,"2012-01-14T23:00:00","ND","ND","39.49","ND","ND","ND","0.4","351.9","23.7","74.5","0","0"],
    [14837,"2012-01-15T00:00:00","ND","ND","46.26","ND","ND","ND","0.5","13.7","23.2","78.9","0","0"],
    [14838,"2012-01-15T01:00:00","ND","ND","39.25","ND","ND","ND","0.4","13.7","22.6","81.6","0","0"],
    [14839,"2012-01-15T02:00:00","ND","ND","34.89","ND","ND","ND","0.3","89.7","22.5","80.7","0","0"],
    [14840,"2012-01-15T03:00:00","ND","ND","30.38","ND","ND","ND","0.9","160.6","22.6","82.3","0","0"],
    [14841,"2012-01-15T04:00:00","ND","ND","27.06","ND","ND","ND","0.2","14.4","22.1","86.2","0","0"],
    [14842,"2012-01-15T05:00:00","ND","ND","31.94","ND","ND","ND","0.1","49","22.2","85.1","0","0"],
    [14843,"2012-01-15T06:00:00","ND","ND","27.90","ND","ND","ND","0.1","145.7","21.9","88.6","0","0"],
    [14844,"2012-01-15T07:00:00","ND","ND","29.46","ND","ND","ND","0.3","59.7","22","87.7","13","0"],
    [14845,"2012-01-15T08:00:00","ND","ND","32.24","ND","ND","ND","0.4","27.9","22.5","86.9","43.6","0"],
    [14846,"2012-01-15T09:00:00","ND","ND","29.11","ND","ND","ND","0.6","11.4","23.2","82","184.5","0"],
    [14847,"2012-01-15T10:00:00","ND","ND","34.78","ND","ND","ND","0.1","266.4","25.3","70.9","410.4","0"],
    [14848,"2012-01-15T11:00:00","ND","ND","23.72","ND","ND","ND","0.5","157","26.3","64.6","618.7","0"],
    [14849,"2012-01-15T12:00:00","ND","ND","20.88","ND","ND","ND","0.3","22.1","27.4","59.1","434.5","0"],
    [14850,"2012-01-15T13:00:00","ND","ND","14.05","ND","ND","ND","1.3","256.1","29","52.1","712","0"],
    [14851,"2012-01-15T14:00:00","ND","ND","5.28","ND","ND","ND","3.6","258.8","29.8","47.5","759.9","0"],
    [14852,"2012-01-15T15:00:00","ND","ND","4.63","ND","ND","ND","4.2","280.3","29.5","47.1","633.1","0"],
    [14853,"2012-01-15T16:00:00","ND","ND","4.16","ND","ND","ND","3.9","287.4","28.9","47.1","490.9","0"],
    [14854,"2012-01-15T17:00:00","ND","ND","5.43","ND","ND","ND","3.6","274.4","28.3","47.5","208.9","0"],
    [14855,"2012-01-15T18:00:00","ND","ND","7.23","ND","ND","ND","3.6","273.7","27.3","49.6","82.8","0"],
    [14856,"2012-01-15T19:00:00","ND","ND","19.70","ND","ND","ND","0.7","278.9","26.7","50.6","0.6","0"],
    [14857,"2012-01-15T20:00:00","ND","ND","32.03","ND","ND","ND","0.6","127.3","25.8","53.8","0","0"],
    [14858,"2012-01-15T21:00:00","ND","ND","34.70","ND","ND","ND","0.8","227.1","24.6","57.8","0","0"],
    [14859,"2012-01-15T22:00:00","ND","ND","35.60","ND","ND","ND","0.3","17.5","24.2","60.2","0","0"],
    [14860,"2012-01-15T23:00:00","ND","ND","30.94","ND","ND","ND","0.3","318.7","23.3","65.6","0","0"],
    [14861,"2012-01-16T00:00:00","ND","ND","29.93","ND","ND","ND","0.5","19.1","22.8","69","0","0"],
    [14862,"2012-01-16T01:00:00","ND","ND","19.22","ND","ND","ND","0.2","319","22.2","72.4","0","0"],
    [14863,"2012-01-16T02:00:00","ND","ND","14.74","ND","ND","ND","0","291.9","21.9","75.7","0","0"],
    [14864,"2012-01-16T03:00:00","ND","ND","13.85","ND","ND","ND","0.1","267.6","22","74.9","0","0"],
    [14865,"2012-01-16T04:00:00","ND","ND","14.55","ND","ND","ND","0.2","319.7","21.7","76.3","0","0"],
    [14866,"2012-01-16T05:00:00","ND","ND","20.80","ND","ND","ND","0.2","183","21.6","77.2","0","0"],
    [14867,"2012-01-16T06:00:00","ND","ND","31.47","ND","ND","ND","0.3","14.8","21.3","79.3","0","0"],
    [14868,"2012-01-16T07:00:00","ND","ND","35.31","ND","ND","ND","0.1","37.6","21.2","79.1","6.5","0"],
    [14869,"2012-01-16T08:00:00","ND","ND","40.15","ND","ND","ND","0.2","20.5","21.8","77.2","38.1","0"],
    [14870,"2012-01-16T09:00:00","ND","ND","35.59","ND","ND","ND","0.6","3.5","23.5","70.6","299.5","0"],
    [14871,"2012-01-16T10:00:00","ND","ND","42.04","ND","ND","ND","1","133.8","25.8","62","518.2","0"],
    [14872,"2012-01-16T11:00:00","ND","ND","36.63","ND","ND","ND","1.5","104","27.3","57.5","597.7","0"],
    [14873,"2012-01-16T12:00:00","ND","ND","19.82","ND","ND","ND","1","95.9","27.7","56.1","434.6","0"],
    [14874,"2012-01-16T13:00:00","ND","ND","17.97","ND","ND","ND","0.7","36","28.2","54.9","399.3","0"],
    [14875,"2012-01-16T14:00:00","ND","ND","11.06","ND","ND","ND","1.5","254.3","28.8","49.5","425.6","0"],
    [14876,"2012-01-16T15:00:00","ND","ND","9.85","ND","ND","ND","1.3","318.8","30.2","44.7","590.5","0"],
    [14877,"2012-01-16T16:00:00","ND","ND","9.12","ND","ND","ND","3.7","272","30","44.8","479.2","0"],
    [14878,"2012-01-16T17:00:00","ND","ND","14.33","ND","ND","ND","2.4","266.6","29.7","45.2","272.1","0"],
    [14879,"2012-01-16T18:00:00","ND","ND","28.49","ND","ND","ND","0.6","306","28.3","48.6","39.6","0"],
    [14880,"2012-01-16T19:00:00","ND","ND","37.63","ND","ND","ND","0.4","181.8","27.4","52","1.3","0"],
    [14881,"2012-01-16T20:00:00","ND","ND","50.10","ND","ND","ND","0.4","133.6","26.8","56.3","0","0"],
    [14882,"2012-01-16T21:00:00","ND","ND","21.68","ND","ND","ND","2","214.1","26.1","58.3","0","0"],
    [14883,"2012-01-16T22:00:00","ND","ND","23.01","ND","ND","ND","2.1","199.5","25.6","62.2","0","0"],
    [14884,"2012-01-16T23:00:00","ND","ND","25.11","ND","ND","ND","1.6","145","25","68","0","0"],
    [14885,"2012-01-17T00:00:00","ND","ND","17.58","ND","ND","ND","1.6","156.8","23.6","77.2","0","0"],
    [14886,"2012-01-17T01:00:00","ND","ND","13.18","ND","ND","ND","1.7","179.4","21.5","87.9","0.3","1.78"],
    [14887,"2012-01-17T02:00:00","ND","ND","7.54","ND","ND","ND","0.4","191.6","20.8","90","0","8.38"],
    [14888,"2012-01-17T03:00:00","ND","ND","7.34","ND","ND","ND","0.4","186.5","20.4","93.8","0","8.89"],
    [14889,"2012-01-17T04:00:00","ND","ND","8.41","ND","ND","ND","0.5","221.4","20.2","94","0","2.54"],
    [14890,"2012-01-17T05:00:00","ND","ND","12.11","ND","ND","ND","0.4","130.3","20.4","92.3","0","0.25"],
    [14891,"2012-01-17T06:00:00","ND","ND","21.04","ND","ND","ND","0.7","236","20.5","91","0","0.25"],
    [14892,"2012-01-17T07:00:00","ND","ND","34.67","ND","ND","ND","0.2","11.3","20.8","90.6","5.6","0"],
    [14893,"2012-01-17T08:00:00","ND","ND","38.60","ND","ND","ND","0.9","53.4","21.2","91","103.4","0"],
    [14894,"2012-01-17T09:00:00","ND","ND","42.66","ND","ND","ND","0.9","124","22","87.9","126.6","0"],
    [14895,"2012-01-17T10:00:00","ND","ND","51.42","ND","ND","ND","0.6","160.5","22.5","83.4","159.6","0"],
    [14896,"2012-01-17T11:00:00","ND","ND","66.72","ND","ND","ND","0.8","168.4","24.6","74.4","658","0"],
    [14897,"2012-01-17T12:00:00","ND","ND","37.73","ND","ND","ND","0.8","134.3","26.7","63.8","703.6","0"],
    [14898,"2012-01-17T13:00:00","ND","ND","19.92","ND","ND","ND","1","88.5","28","56.2","676.1","0"],
    [14899,"2012-01-17T14:00:00","ND","ND","15.23","ND","ND","ND","2.2","310.3","27.9","55","670.5","0"],
    [14900,"2012-01-17T15:00:00","ND","ND","11.60","ND","ND","ND","1","345.3","28.8","51.8","511","0"],
    [14901,"2012-01-17T16:00:00","ND","ND","10.04","ND","ND","ND","1.8","273.7","28.9","51.4","410.8","0"],
    [14902,"2012-01-17T17:00:00","ND","ND","11.03","ND","ND","ND","2.5","297.4","27.8","52.1","154","0"],
    [14903,"2012-01-17T18:00:00","ND","ND","21.63","ND","ND","ND","0.9","198.1","27","53.7","39.1","0"],
    [14904,"2012-01-17T19:00:00","ND","ND","29.82","ND","ND","ND","1.4","119.6","26","59.8","0.3","0"],
    [14905,"2012-01-17T20:00:00","ND","ND","35.58","ND","ND","ND","2","160.6","25","67","0","0"],
    [14906,"2012-01-17T21:00:00","ND","ND","31.53","ND","ND","ND","2.3","157.7","22.7","83.4","0","0"],
    [14907,"2012-01-17T22:00:00","ND","ND","35.62","ND","ND","ND","1","179.5","22.2","86.8","0","0.51"],
    [14908,"2012-01-17T23:00:00","ND","ND","35.78","ND","ND","ND","0.3","234.2","22.3","87.7","0","0"],
    [14909,"2012-01-18T00:00:00","ND","ND","24.99","ND","ND","ND","0.2","199.7","22.3","85.1","0","0"],
    [14910,"2012-01-18T01:00:00","ND","ND","31.31","ND","ND","ND","0.3","58.7","21.7","91.2","1.8","11.18"],
    [14911,"2012-01-18T02:00:00","ND","ND","17.26","ND","ND","ND","1.1","129.3","20.3","97.5","0.9","1.52"],
    [14912,"2012-01-18T03:00:00","ND","ND","6.18","ND","ND","ND","1.2","182","19.9","96.5","0.1","2.29"],
    [14913,"2012-01-18T04:00:00","ND","ND","6.16","ND","ND","ND","0.9","143.2","19.9","96.2","0","8.89"],
    [14914,"2012-01-18T05:00:00","ND","ND","5.55","ND","ND","ND","1.1","101.7","18.8","97.7","0","15.24"],
    [14915,"2012-01-18T06:00:00","ND","ND","16.99","ND","ND","ND","1","12.7","18.6","97.9","0","3.81"],
    [14916,"2012-01-18T07:00:00","ND","ND","28.80","ND","ND","ND","0.6","326.7","18.9","96.7","2.4","2.79"],
    [14917,"2012-01-18T08:00:00","ND","ND","40.67","ND","ND","ND","0.6","176.3","19.6","95.5","39","0.76"],
    [14918,"2012-01-18T09:00:00","ND","ND","41.09","ND","ND","ND","0.3","317.7","20.5","90.2","137.2","0.25"],
    [14919,"2012-01-18T10:00:00","ND","ND","54.11","ND","ND","ND","0.5","21.5","21.2","88.8","231.9","0.25"],
    [14920,"2012-01-18T11:00:00","ND","ND","42.36","ND","ND","ND","1.3","27.2","22.5","75.5","398.5","0"],
    [14921,"2012-01-18T12:00:00","ND","ND","46.84","ND","ND","ND","1","358.5","23","73.8","297.4","0"],
    [14922,"2012-01-18T13:00:00","ND","ND","25.09","ND","ND","ND","0.8","90.9","23.9","69.8","376.6","0"],
    [14923,"2012-01-18T14:00:00","ND","ND","31.80","ND","ND","ND","0.6","186.9","24.7","67.5","484.6","0"],
    [14924,"2012-01-18T15:00:00","ND","ND","37.76","ND","ND","ND","0.9","204.4","26.5","61","573.9","0"],
    [14925,"2012-01-18T16:00:00","ND","ND","38.18","ND","ND","ND","0.4","157.9","27.1","58.1","269","0"],
    [14926,"2012-01-18T17:00:00","ND","ND","47.25","ND","ND","ND","0.3","12.3","26.5","61.1","89.4","0"],
    [14927,"2012-01-18T18:00:00","ND","ND","104.44","ND","ND","ND","0.3","286","25.5","68.4","18.8","0"],
    [14928,"2012-01-18T19:00:00","ND","ND","78.07","ND","ND","ND","0.7","273.2","24.5","69","0.4","0"],
    [14929,"2012-01-18T20:00:00","ND","ND","63.72","ND","ND","ND","0.3","307.7","23.6","72.5","0","0"],
    [14930,"2012-01-18T21:00:00","ND","ND","59.77","ND","ND","ND","0.2","112.1","24.1","68.7","0","0"],
    [14931,"2012-01-18T22:00:00","ND","ND","50.70","ND","ND","ND","0.3","333.2","23.9","70.3","0","0"],
    [14932,"2012-01-18T23:00:00","ND","ND","36.61","ND","ND","ND","1.2","238.5","23.3","73.6","0","0"],
    [14933,"2012-01-19T00:00:00","ND","ND","20.21","ND","ND","ND","0.4","253.2","22.5","78","0","0"],
    [14934,"2012-01-19T01:00:00","ND","ND","26.74","ND","ND","ND","0.2","269.2","22","83","0","0"],
    [14935,"2012-01-19T02:00:00","ND","ND","23.67","ND","ND","ND","0.1","218","21.7","84.1","0","0"],
    [14936,"2012-01-19T03:00:00","ND","ND","23.21","ND","ND","ND","0.8","344.9","21.3","86.6","0","0"],
    [14937,"2012-01-19T04:00:00","ND","ND","22.63","ND","ND","ND","0.3","11.3","21.2","88.6","0","0"],
    [14938,"2012-01-19T05:00:00","ND","ND","10.50","ND","ND","ND","1.8","166","21.1","87.9","0","0"],
    [14939,"2012-01-19T06:00:00","ND","ND","16.41","ND","ND","ND","1.7","164.6","20.8","87.2","0","0"],
    [14940,"2012-01-19T07:00:00","ND","ND","32.52","ND","ND","ND","0.5","141.7","20.7","87.4","4.7","0"],
    [14941,"2012-01-19T08:00:00","ND","ND","36.39","ND","ND","ND","0.9","35.3","20.6","90.5","115.4","0"],
    [14942,"2012-01-19T09:00:00","ND","ND","21.75","ND","ND","ND","1.5","56.7","21.7","85.2","300.8","0"],
    [14943,"2012-01-19T10:00:00","ND","ND","26.73","ND","ND","ND","1.4","138.3","24","70","538.4","0"],
    [14944,"2012-01-19T11:00:00","ND","ND","23.85","ND","ND","ND","1.4","103","25.3","64.4","636","0"],
    [14945,"2012-01-19T12:00:00","ND","ND","17.11","ND","ND","ND","1.3","79.2","26.2","63","469","0"],
    [14946,"2012-01-19T13:00:00","ND","ND","17.22","ND","ND","ND","1.2","98.1","27.1","59.7","538.6","0"],
    [14947,"2012-01-19T14:00:00","ND","ND","18.49","ND","ND","ND","0.4","133.1","28.6","54.9","745.5","0"],
    [14948,"2012-01-19T15:00:00","ND","ND","23.11","ND","ND","ND","0.8","78.8","29.2","53","525.6","0"],
    [14949,"2012-01-19T16:00:00","ND","ND","35.00","ND","ND","ND","0.9","359.7","27.5","59.3","64.7","0"],
    [14950,"2012-01-19T17:00:00","ND","ND","29.01","ND","ND","ND","1.3","196.5","26.6","59.5","49","0"],
    [14951,"2012-01-19T18:00:00","ND","ND","55.24","ND","ND","ND","0.1","115.2","26.2","62.5","18.2","0"],
    [14952,"2012-01-19T19:00:00","ND","ND","58.83","ND","ND","ND","0.7","121.7","25.9","65.4","0.5","0"],
    [14953,"2012-01-19T20:00:00","ND","ND","41.42","ND","ND","ND","0.4","165.4","25.3","65.8","0","0"],
    [14954,"2012-01-19T21:00:00","ND","ND","39.90","ND","ND","ND","0.6","113.3","25.1","66.2","0","0"],
    [14955,"2012-01-19T22:00:00","ND","ND","36.59","ND","ND","ND","1.4","156.6","24.5","70.3","0","0"],
    [14956,"2012-01-19T23:00:00","ND","ND","35.82","ND","ND","ND","1.4","149.2","23.7","75.3","0","0"],
    [14957,"2012-01-20T00:00:00","ND","ND","32.69","ND","ND","ND","1","176.1","23.2","77.1","0","0"],
    [14958,"2012-01-20T01:00:00","ND","ND","33.61","ND","ND","ND","0.7","337.3","22.6","80.9","0","0"],
    [14959,"2012-01-20T02:00:00","ND","ND","30.60","ND","ND","ND","0.4","27.9","22","84.1","0","0"],
    [14960,"2012-01-20T03:00:00","ND","ND","26.63","ND","ND","ND","0.5","288.4","21.4","87","0","0"],
    [14961,"2012-01-20T04:00:00","ND","ND","29.18","ND","ND","ND","0.2","91.2","21.6","86.2","0","0"],
    [14962,"2012-01-20T05:00:00","ND","ND","27.03","ND","ND","ND","0.3","138.7","21.5","87.4","0","0"],
    [14963,"2012-01-20T06:00:00","ND","ND","26.68","ND","ND","ND","0","260.4","21.4","87.8","0","0"],
    [14964,"2012-01-20T07:00:00","ND","ND","28.03","ND","ND","ND","0.2","248.1","21.5","88","7.7","0"],
    [14965,"2012-01-20T08:00:00","ND","ND","36.74","ND","ND","ND","0.1","182.8","22.1","85.5","50.3","0"],
    [14966,"2012-01-20T09:00:00","ND","ND","47.00","ND","ND","ND","0.8","147.3","22.8","80.5","105.5","0"],
    [14967,"2012-01-20T10:00:00","ND","ND","40.42","ND","ND","ND","1.2","131.8","23.9","73.9","318.9","0"],
    [14968,"2012-01-20T11:00:00","ND","ND","24.50","ND","ND","ND","0.7","106.7","25.9","64.6","638.6","0"],
    [14969,"2012-01-20T12:00:00","ND","ND","25.07","ND","ND","ND","1.1","37.9","26.8","62.6","696.1","0"],
    [14970,"2012-01-20T13:00:00","ND","ND","22.17","ND","ND","ND","0.7","330.6","27","62","374.2","0"],
    [14971,"2012-01-20T14:00:00","ND","ND","40.05","ND","ND","ND","2.8","256.5","24.2","77.5","67.2","0.25"],
    [14972,"2012-01-20T15:00:00","ND","ND","40.25","ND","ND","ND","1.3","275.3","23.9","74.8","56.2","0"],
    [14973,"2012-01-20T16:00:00","ND","ND","42.51","ND","ND","ND","0.2","317.7","25","67.8","81.4","0"],
    [14974,"2012-01-20T17:00:00","ND","ND","97.64","ND","ND","ND","0.7","186.8","25.7","66.3","83.3","0"],
    [14975,"2012-01-20T18:00:00","ND","ND","ND","ND","ND","ND","0.5","264.4","25.2","70.4","27.7","0"],
    [14976,"2012-01-20T19:00:00","ND","ND","60.77","ND","ND","ND","0.4","317.5","24.7","69.6","1.6","0"],
    [14977,"2012-01-20T20:00:00","ND","ND","68.04","ND","ND","ND","0.6","182.6","24.3","71.1","0","0"],
    [14978,"2012-01-20T21:00:00","ND","ND","52.92","ND","ND","ND","0.4","296.3","23.7","74.5","0","0"],
    [14979,"2012-01-20T22:00:00","ND","ND","49.32","ND","ND","ND","0.3","131.5","23.6","76.7","0","0"],
    [14980,"2012-01-20T23:00:00","ND","ND","28.83","ND","ND","ND","0.1","331.7","23","82.2","0","0"],
    [14981,"2012-01-21T00:00:00","ND","ND","31.27","ND","ND","ND","0.3","242.8","22.6","83.5","0","0"],
    [14982,"2012-01-21T01:00:00","ND","ND","24.83","ND","ND","ND","0.1","305.9","22.4","83.3","0","0"],
    [14983,"2012-01-21T02:00:00","ND","ND","26.89","ND","ND","ND","0.4","45.4","22.3","83.8","0","0"],
    [14984,"2012-01-21T03:00:00","ND","ND","26.17","ND","ND","ND","0.2","36.5","21.1","92.3","0","0"],
    [14985,"2012-01-21T04:00:00","ND","ND","25.41","ND","ND","ND","0.4","164.7","21.5","89.1","0","0"],
    [14986,"2012-01-21T05:00:00","ND","ND","22.04","ND","ND","ND","1","183.2","21.5","86.5","0","0"],
    [14987,"2012-01-21T06:00:00","ND","ND","25.05","ND","ND","ND","0.3","173","21.3","86.9","0","0"],
    [14988,"2012-01-21T07:00:00","ND","ND","25.25","ND","ND","ND","0.1","174.1","21.4","87","4.4","0"],
    [14989,"2012-01-21T08:00:00","ND","ND","33.85","ND","ND","ND","1.1","130.3","21.8","85","49.6","0"],
    [14990,"2012-01-21T09:00:00","ND","ND","30.09","ND","ND","ND","0.6","319.4","22","85.5","239.1","0"],
    [14991,"2012-01-21T10:00:00","ND","ND","27.40","ND","ND","ND","1.1","25","23.5","76.7","384.3","0"],
    [14992,"2012-01-21T11:00:00","ND","ND","17.45","ND","ND","ND","1.2","49.2","25.2","68.5","591.2","0"],
    [14993,"2012-01-21T12:00:00","ND","ND","21.04","ND","ND","ND","1.1","340.9","26.1","64.2","387.7","0"],
    [14994,"2012-01-21T13:00:00","ND","ND","20.07","ND","ND","ND","1","32","27.1","59.5","479","0"],
    [14995,"2012-01-21T14:00:00","ND","ND","8.30","ND","ND","ND","1.3","281.9","28.3","51.3","594.1","0"],
    [14996,"2012-01-21T15:00:00","ND","ND","5.86","ND","ND","ND","0.3","357.7","29.2","47.3","475","0"],
    [14997,"2012-01-21T16:00:00","ND","ND","7.28","ND","ND","ND","3.3","269","28.6","49.5","309.5","0"],
    [14998,"2012-01-21T17:00:00","ND","ND","9.70","ND","ND","ND","1.5","253.6","28.5","49.9","202.2","0"],
    [14999,"2012-01-21T18:00:00","ND","ND","25.31","ND","ND","ND","2.7","153","25.2","69.5","24.6","0"],
    [15000,"2012-01-21T19:00:00","ND","ND","38.39","ND","ND","ND","0.5","125.5","24.6","70.4","0.9","0"],
    [15001,"2012-01-21T20:00:00","ND","ND","40.28","ND","ND","ND","0.2","110.6","24","75.1","0","0"],
    [15002,"2012-01-21T21:00:00","ND","ND","45.23","ND","ND","ND","0.9","145.2","23.7","72","0","0"],
    [15003,"2012-01-21T22:00:00","ND","ND","41.26","ND","ND","ND","0.7","127","23.6","74.5","0","0"],
    [15004,"2012-01-21T23:00:00","ND","ND","33.43","ND","ND","ND","1","198.4","22.7","78.3","0","0"],
    [15005,"2012-01-22T00:00:00","ND","ND","34.25","ND","ND","ND","1.2","160","22.5","81","0","0"],
    [15006,"2012-01-22T01:00:00","ND","ND","31.21","ND","ND","ND","0.4","138","22.2","85.2","0","0"],
    [15007,"2012-01-22T02:00:00","ND","ND","22.06","ND","ND","ND","0.2","56.5","21.6","88.9","0","0"],
    [15008,"2012-01-22T03:00:00","ND","ND","25.84","ND","ND","ND","0.5","45.5","21.1","92.2","0","0"],
    [15009,"2012-01-22T04:00:00","ND","ND","25.56","ND","ND","ND","0.1","8.6","21.1","91.4","0","0"],
    [15010,"2012-01-22T05:00:00","ND","ND","25.15","ND","ND","ND","0.3","301.4","21.1","89.7","0","0"],
    [15011,"2012-01-22T06:00:00","ND","ND","27.24","ND","ND","ND","0","171.2","21.4","88.2","0","0"],
    [15012,"2012-01-22T07:00:00","ND","ND","27.09","ND","ND","ND","0.1","65","21.2","88.5","3.1","0"],
    [15013,"2012-01-22T08:00:00","ND","ND","21.73","ND","ND","ND","1.2","171.6","21.6","87.2","82.2","0"],
    [15014,"2012-01-22T09:00:00","ND","ND","16.07","ND","ND","ND","1.9","170.8","23","78.6","221.7","0"],
    [15015,"2012-01-22T10:00:00","ND","ND","16.58","ND","ND","ND","1.6","160.3","23.5","75.7","222.6","0"],
    [15016,"2012-01-22T11:00:00","ND","ND","20.41","ND","ND","ND","0.4","299.8","24.1","74.1","183.4","0"],
    [15017,"2012-01-22T12:00:00","ND","ND","17.65","ND","ND","ND","0.4","292","25.3","68.8","540.6","0"],
    [15018,"2012-01-22T13:00:00","ND","ND","16.58","ND","ND","ND","1.1","81.3","27.1","59.6","580.9","0"],
    [15019,"2012-01-22T14:00:00","ND","ND","17.08","ND","ND","ND","1.1","336.5","27.2","60.3","316","0"],
    [15020,"2012-01-22T15:00:00","ND","ND","15.16","ND","ND","ND","1.1","304.4","27.6","58.6","221.8","0"],
    [15021,"2012-01-22T16:00:00","ND","ND","13.91","ND","ND","ND","1.3","260.1","27.7","56.1","133.5","0"],
    [15022,"2012-01-22T17:00:00","ND","ND","9.40","ND","ND","ND","1.6","276.5","27.5","54.7","116.9","0"],
    [15023,"2012-01-22T18:00:00","ND","ND","12.62","ND","ND","ND","0.6","263.5","26.8","56.9","49","0"],
    [15024,"2012-01-22T19:00:00","ND","ND","19.83","ND","ND","ND","0.3","143.2","26.1","58.5","0.8","0"],
    [15025,"2012-01-22T20:00:00","ND","ND","31.04","ND","ND","ND","0.4","62","25.6","61.3","0","0"],
    [15026,"2012-01-22T21:00:00","ND","ND","28.81","ND","ND","ND","0.9","163.2","24.9","65.2","0","0"],
    [15027,"2012-01-22T22:00:00","ND","ND","11.72","ND","ND","ND","3.2","197.5","23.8","69.8","0","0"],
    [15028,"2012-01-22T23:00:00","ND","ND","18.48","ND","ND","ND","2.7","183.7","23","78.1","0","0"],
    [15029,"2012-01-23T00:00:00","ND","ND","16.43","ND","ND","ND","1.7","172.1","23","76.2","0","0"],
    [15030,"2012-01-23T01:00:00","ND","ND","11.66","ND","ND","ND","0.8","155.9","22.3","80.6","0","0"],
    [15031,"2012-01-23T02:00:00","ND","ND","15.13","ND","ND","ND","0.3","348.5","21.8","84.2","0","0"],
    [15032,"2012-01-23T03:00:00","ND","ND","13.45","ND","ND","ND","0.6","343.3","21.4","87.9","0","0"],
    [15033,"2012-01-23T04:00:00","ND","ND","4.80","ND","ND","ND","0.7","107.5","21.3","86.8","0","0"],
    [15034,"2012-01-23T05:00:00","ND","ND","10.56","ND","ND","ND","1","78.8","20.6","93","0","2.54"],
    [15035,"2012-01-23T06:00:00","ND","ND","14.58","ND","ND","ND","1.8","117.8","19.8","98.4","0","36.07"],
    [15036,"2012-01-23T07:00:00","ND","ND","27.86","ND","ND","ND","1.4","150.2","19.7","98.4","5.8","1.02"],
    [15037,"2012-01-23T08:00:00","ND","ND","33.43","ND","ND","ND","1.3","163.1","20.2","94.5","49.6","0.25"],
    [15038,"2012-01-23T09:00:00","ND","ND","39.81","ND","ND","ND","0.6","170.4","20.4","92.4","90.8","0.25"],
    [15039,"2012-01-23T10:00:00","ND","ND","35.43","ND","ND","ND","0.4","193.4","21.9","84.6","336","0"],
    [15040,"2012-01-23T11:00:00","ND","ND","47.92","ND","ND","ND","0.4","196.3","24","75","462.3","0"],
    [15041,"2012-01-23T12:00:00","ND","ND","30.71","ND","ND","ND","0.8","144.3","25.1","66.3","479.8","0"],
    [15042,"2012-01-23T13:00:00","ND","ND","24.67","ND","ND","ND","0.5","308.5","26.6","61.4","527.8","0"],
    [15043,"2012-01-23T14:00:00","ND","ND","27.14","ND","ND","ND","0.8","287.3","26.9","59.1","368.4","0"],
    [15044,"2012-01-23T15:00:00","ND","ND","29.95","ND","ND","ND","0.5","334.4","27.5","55.9","395.5","0"],
    [15045,"2012-01-23T16:00:00","ND","ND","22.60","ND","ND","ND","1.4","325.7","27.8","55.4","326.5","0"],
    [15046,"2012-01-23T17:00:00","ND","ND","10.98","ND","ND","ND","0.2","303.2","28.2","52.5","289.9","0"],
    [15047,"2012-01-23T18:00:00","ND","ND","19.79","ND","ND","ND","0.7","320.9","26.7","56.9","41.6","0"],
    [15048,"2012-01-23T19:00:00","ND","ND","23.54","ND","ND","ND","1.3","151.4","25.9","59.6","0.8","0"],
    [15049,"2012-01-23T20:00:00","ND","ND","ND","ND","ND","ND","ND","ND","ND","ND","ND","ND"],
    [15050,"2012-01-23T21:00:00","ND","ND","ND","ND","ND","ND","ND","ND","ND","ND","ND","ND"],
    [15051,"2012-01-23T22:00:00","ND","ND","ND","ND","ND","ND","ND","ND","ND","ND","ND","ND"],
    [15052,"2012-01-23T23:00:00","ND","ND","ND","ND","ND","ND","ND","ND","ND","ND","ND","ND"],
    [15053,"2012-01-24T00:00:00","ND","ND","ND","ND","ND","ND","ND","ND","ND","ND","ND","ND"],
    [15054,"2012-01-24T01:00:00","ND","ND","ND","ND","ND","ND","ND","ND","ND","ND","ND","ND"],
    [15055,"2012-01-24T02:00:00","ND","ND","ND","ND","ND","ND","ND","ND","ND","ND","ND","ND"],
    [15056,"2012-01-24T03:00:00","ND","ND","ND","ND","ND","ND","ND","ND","ND","ND","ND","ND"],
    [15057,"2012-01-24T04:00:00","ND","ND","ND","ND","ND","ND","ND","ND","ND","ND","ND","ND"],
    [15058,"2012-01-24T05:00:00","ND","ND","ND","ND","ND","ND","ND","ND","ND","ND","ND","ND"],
    [15059,"2012-01-24T06:00:00","ND","ND","ND","ND","ND","ND","ND","ND","ND","ND","ND","ND"],
    [15060,"2012-01-24T07:00:00","ND","ND","ND","ND","ND","ND","ND","ND","ND","ND","ND","ND"],
    [15061,"2012-01-24T08:00:00","ND","ND","ND","ND","ND","ND","ND","ND","ND","ND","ND","ND"],
    [15062,"2012-01-24T09:00:00","ND","ND","ND","ND","ND","ND","ND","ND","ND","ND","ND","ND"],
    [15063,"2012-01-24T10:00:00","ND","ND","ND","ND","ND","ND","ND","ND","ND","ND","ND","ND"],
    [15064,"2012-01-24T11:00:00","ND","ND","ND","ND","ND","ND","ND","ND","ND","ND","ND","ND"],
    [15065,"2012-01-24T12:00:00","ND","ND","ND","ND","ND","ND","ND","ND","ND","ND","ND","ND"],
    [15066,"2012-01-24T13:00:00","ND","ND","ND","ND","ND","ND","ND","ND","ND","ND","ND","ND"],
    [15067,"2012-01-24T14:00:00","ND","ND","ND","ND","ND","ND","ND","ND","ND","ND","ND","ND"],
    [15068,"2012-01-24T15:00:00","ND","ND","ND","ND","ND","ND","ND","ND","ND","ND","ND","ND"],
    [15069,"2012-01-24T16:00:00","ND","ND","ND","ND","ND","ND","ND","ND","ND","ND","ND","ND"],
    [15070,"2012-01-24T17:00:00","ND","ND","ND","ND","ND","ND","ND","ND","ND","ND","ND","ND"],
    [15071,"2012-01-24T18:00:00","ND","ND","ND","ND","ND","ND","ND","ND","ND","ND","ND","ND"],
    [15072,"2012-01-24T19:00:00","ND","ND","ND","ND","ND","ND","ND","ND","ND","ND","ND","ND"],
    [15073,"2012-01-24T20:00:00","ND","ND","ND","ND","ND","ND","ND","ND","ND","ND","ND","ND"],
    [15074,"2012-01-24T21:00:00","ND","ND","ND","ND","ND","ND","ND","ND","ND","ND","ND","ND"],
    [15075,"2012-01-24T22:00:00","ND","ND","ND","ND","ND","ND","ND","ND","ND","ND","ND","ND"],
    [15076,"2012-01-24T23:00:00","ND","ND","ND","ND","ND","ND","ND","ND","ND","ND","ND","ND"],
    [15077,"2012-01-25T00:00:00","ND","ND","ND","ND","ND","ND","ND","ND","ND","ND","ND","ND"],
    [15078,"2012-01-25T01:00:00","ND","ND","ND","ND","ND","ND","ND","ND","ND","ND","ND","ND"],
    [15079,"2012-01-25T02:00:00","ND","ND","ND","ND","ND","ND","ND","ND","ND","ND","ND","ND"],
    [15080,"2012-01-25T03:00:00","ND","ND","ND","ND","ND","ND","ND","ND","ND","ND","ND","ND"],
    [15081,"2012-01-25T04:00:00","ND","ND","ND","ND","ND","ND","ND","ND","ND","ND","ND","ND"],
    [15082,"2012-01-25T05:00:00","ND","ND","ND","ND","ND","ND","ND","ND","ND","ND","ND","ND"],
    [15083,"2012-01-25T06:00:00","ND","ND","ND","ND","ND","ND","ND","ND","ND","ND","ND","ND"],
    [15084,"2012-01-25T07:00:00","ND","ND","ND","ND","ND","ND","ND","ND","ND","ND","ND","ND"],
    [15085,"2012-01-25T08:00:00","ND","ND","ND","ND","ND","ND","ND","ND","ND","ND","ND","ND"],
    [15086,"2012-01-25T09:00:00","ND","ND","ND","ND","ND","ND","ND","ND","ND","ND","ND","ND"],
    [15087,"2012-01-25T10:00:00","ND","ND","ND","ND","ND","ND","ND","ND","ND","ND","ND","ND"],
    [15088,"2012-01-25T11:00:00","ND","ND","ND","ND","ND","ND","ND","ND","ND","ND","ND","ND"],
    [15089,"2012-01-25T12:00:00","ND","ND","ND","ND","ND","ND","ND","ND","ND","ND","ND","ND"],
    [15090,"2012-01-25T13:00:00","ND","ND","ND","ND","ND","ND","ND","ND","ND","ND","ND","ND"],
    [15091,"2012-01-25T14:00:00","ND","ND","ND","ND","ND","ND","ND","ND","ND","ND","ND","ND"],
    [15092,"2012-01-25T15:00:00","ND","ND","ND","ND","ND","ND","ND","ND","ND","ND","ND","ND"],
    [15093,"2012-01-25T16:00:00","ND","ND","ND","ND","ND","ND","ND","ND","ND","ND","ND","ND"],
    [15094,"2012-01-25T17:00:00","ND","ND","40.35","ND","ND","ND","1","245.4","26.3","61.9","30.4","0"],
    [15095,"2012-01-25T18:00:00","ND","ND","35.35","ND","ND","ND","1.2","263.1","25.8","61.4","12.5","0"],
    [15096,"2012-01-25T19:00:00","ND","ND","45.68","ND","ND","ND","0.8","269.8","24.7","63.7","1.3","0"],
    [15097,"2012-01-25T20:00:00","ND","ND","49.22","ND","ND","ND","0.6","258.1","24","66","0","0"],
    [15098,"2012-01-25T21:00:00","ND","ND","51.71","ND","ND","ND","0.5","245.6","22.9","73.2","0","0"],
    [15099,"2012-01-25T22:00:00","ND","ND","49.14","ND","ND","ND","0.4","184","23.1","72.9","0","0"],
    [15100,"2012-01-25T23:00:00","ND","ND","41.67","ND","ND","ND","0.1","272.2","22.1","79","0","0"],
    [15101,"2012-01-26T00:00:00","ND","ND","33.84","ND","ND","ND","0.1","285.6","21.2","83","0","0"],
    [15102,"2012-01-26T01:00:00","ND","ND","30.28","ND","ND","ND","0","273","20.7","85","0","0"],
    [15103,"2012-01-26T02:00:00","ND","ND","29.30","ND","ND","ND","0.3","314.5","20.6","84.6","0","0"],
    [15104,"2012-01-26T03:00:00","ND","ND","25.96","ND","ND","ND","0","0","20.6","84.9","0","0"],
    [15105,"2012-01-26T04:00:00","ND","ND","25.22","ND","ND","ND","0.1","333.3","20.6","84.4","0","0"],
    [15106,"2012-01-26T05:00:00","ND","ND","27.01","ND","ND","ND","0.1","57","20.9","86","0","0"],
    [15107,"2012-01-26T06:00:00","ND","ND","24.39","ND","ND","ND","0.2","308.1","20.5","91.2","0","1.27"],
    [15108,"2012-01-26T07:00:00","ND","ND","27.15","ND","ND","ND","0","243","20.4","93.7","15.5","0.25"],
    [15109,"2012-01-26T08:00:00","ND","ND","33.60","ND","ND","ND","0","211.2","21.4","87.7","102.2","0"],
    [15110,"2012-01-26T09:00:00","ND","ND","52.06","ND","ND","ND","0","33","23","78.7","272.4","0"],
    [15111,"2012-01-26T10:00:00","ND","ND","35.33","ND","ND","ND","0.6","106","22.8","81.5","104.3","0"],
    [15112,"2012-01-26T11:00:00","ND","ND","31.77","ND","ND","ND","0.6","259.2","24.3","72.7","545.7","0"],
    [15113,"2012-01-26T12:00:00","ND","ND","18.98","ND","ND","ND","0.3","236.5","26.4","60.9","755.2","0"],
    [15114,"2012-01-26T13:00:00","ND","ND","24.04","ND","ND","ND","0.4","213.7","27.9","54.5","636","0"],
    [15115,"2012-01-26T14:00:00","ND","ND","24.49","ND","ND","ND","0.8","342.6","27.6","54.7","196.9","0"],
    [15116,"2012-01-26T15:00:00","ND","ND","12.89","ND","ND","ND","2.3","263.5","28.7","48.2","613.6","0"],
    [15117,"2012-01-26T16:00:00","ND","ND","14.13","ND","ND","ND","3.3","260.1","28.4","49.5","380.1","0"],
    [15118,"2012-01-26T17:00:00","ND","ND","16.28","ND","ND","ND","2.9","264.4","27.9","49.3","265.6","0"],
    [15119,"2012-01-26T18:00:00","ND","ND","20.28","ND","ND","ND","1.6","278.2","27.2","50.1","94","0"],
    [15120,"2012-01-26T19:00:00","ND","ND","40.23","ND","ND","ND","0.2","226.3","26.1","54.4","2.3","0"],
    [15121,"2012-01-26T20:00:00","ND","ND","55.37","ND","ND","ND","0.8","105.7","25.5","59.5","0","0"],
    [15122,"2012-01-26T21:00:00","ND","ND","52.23","ND","ND","ND","0.8","166.2","24.9","61.5","0","0"],
    [15123,"2012-01-26T22:00:00","ND","ND","37.72","ND","ND","ND","0.3","230.3","23.9","66.9","0","0"],
    [15124,"2012-01-26T23:00:00","ND","ND","25.90","ND","ND","ND","1.4","217.5","23.7","68","0","0"],
    [15125,"2012-01-27T00:00:00","ND","ND","29.89","ND","ND","ND","0.2","332.4","22.9","71.1","0","0"],
    [15126,"2012-01-27T01:00:00","ND","ND","27.97","ND","ND","ND","0.3","13.7","22.2","76.2","0","0"],
    [15127,"2012-01-27T02:00:00","ND","ND","23.41","ND","ND","ND","0.1","183.7","21.9","77.9","0","0"],
    [15128,"2012-01-27T03:00:00","ND","ND","25.09","ND","ND","ND","0.1","5.7","21.7","80.8","0","0"],
    [15129,"2012-01-27T04:00:00","ND","ND","23.84","ND","ND","ND","0.3","302.1","21.5","81.5","0","0"],
    [15130,"2012-01-27T05:00:00","ND","ND","22.50","ND","ND","ND","0","258.4","21.4","82","0","0"],
    [15131,"2012-01-27T06:00:00","ND","ND","23.92","ND","ND","ND","0.2","81.9","21.3","78.4","0","0"],
    [15132,"2012-01-27T07:00:00","ND","ND","25.67","ND","ND","ND","0.2","255.5","21.3","79.3","5.9","0"],
    [15133,"2012-01-27T08:00:00","ND","ND","28.70","ND","ND","ND","0.1","271.9","21.9","77.9","80.7","0"],
    [15134,"2012-01-27T09:00:00","ND","ND","45.47","ND","ND","ND","0.4","46.8","22.8","75.3","166.2","0"],
    [15135,"2012-01-27T10:00:00","ND","ND","33.22","ND","ND","ND","0.4","107.8","24.3","69.9","421.8","0"],
    [15136,"2012-01-27T11:00:00","ND","ND","31.07","ND","ND","ND","1","120.1","25.8","60.6","543.7","0"],
    [15137,"2012-01-27T12:00:00","ND","ND","26.06","ND","ND","ND","0.6","109","26.2","59.1","384.9","0"],
    [15138,"2012-01-27T13:00:00","ND","ND","28.41","ND","ND","ND","1.1","100","27.7","53.7","688.9","0"],
    [15139,"2012-01-27T14:00:00","ND","ND","24.62","ND","ND","ND","0.5","55.6","28.3","52.4","448.6","0"],
    [15140,"2012-01-27T15:00:00","ND","ND","32.11","ND","ND","ND","1.4","230.8","28.9","50.6","307.4","0"],
    [15141,"2012-01-27T16:00:00","ND","ND","12.02","ND","ND","ND","2.2","279.1","28.9","50.1","368.9","0"],
    [15142,"2012-01-27T17:00:00","ND","ND","12.96","ND","ND","ND","2.1","295.1","28.2","50.9","166.8","0"],
    [15143,"2012-01-27T18:00:00","ND","ND","25.18","ND","ND","ND","0.2","328.9","27.5","52","50.4","0"],
    [15144,"2012-01-27T19:00:00","ND","ND","40.31","ND","ND","ND","0.6","249.8","26.7","54.3","1.9","0"],
    [15145,"2012-01-27T20:00:00","ND","ND","29.73","ND","ND","ND","0.3","47.4","25.7","57.6","0","0"],
    [15146,"2012-01-27T21:00:00","ND","ND","41.29","ND","ND","ND","0.2","87.5","25.2","60.7","0","0"],
    [15147,"2012-01-27T22:00:00","ND","ND","37.17","ND","ND","ND","0.5","117","24.8","64.6","0","0"],
    [15148,"2012-01-27T23:00:00","ND","ND","29.21","ND","ND","ND","0.3","130.5","24","69.9","0","0"],
    [15149,"2012-01-28T00:00:00","ND","ND","26.40","ND","ND","ND","0.4","91.6","23.2","72.7","0","0"],
    [15150,"2012-01-28T01:00:00","ND","ND","26.20","ND","ND","ND","0.1","259.1","22.9","75.4","0","0"],
    [15151,"2012-01-28T02:00:00","ND","ND","22.70","ND","ND","ND","0.2","307.6","22.4","78.1","0","0"],
    [15152,"2012-01-28T03:00:00","ND","ND","22.59","ND","ND","ND","0.6","1","21.9","80.6","0","0"],
    [15153,"2012-01-28T04:00:00","ND","ND","20.47","ND","ND","ND","0.4","47.7","21.4","83.2","0","0"],
    [15154,"2012-01-28T05:00:00","ND","ND","19.54","ND","ND","ND","0.2","274.6","21.2","84.7","0","0"],
    [15155,"2012-01-28T06:00:00","ND","ND","19.92","ND","ND","ND","0.3","283.8","21","84.6","0","0"],
    [15156,"2012-01-28T07:00:00","ND","ND","21.25","ND","ND","ND","0.1","277.7","21.4","83.9","10.3","0"],
    [15157,"2012-01-28T08:00:00","ND","ND","28.69","ND","ND","ND","0.1","348","22.7","78.4","174.5","0"],
    [15158,"2012-01-28T09:00:00","ND","ND","36.75","ND","ND","ND","0.9","52.7","23.8","74.3","266","0"],
    [15159,"2012-01-28T10:00:00","ND","ND","49.54","ND","ND","ND","0.7","115.1","24.7","70.5","270.5","0"],
    [15160,"2012-01-28T11:00:00","ND","ND","35.17","ND","ND","ND","0.4","281.5","25.7","65.1","269.8","0"],
    [15161,"2012-01-28T12:00:00","ND","ND","43.79","ND","ND","ND","0.8","292.3","26.4","62.1","308.5","0"],
    [15162,"2012-01-28T13:00:00","ND","ND","26.07","ND","ND","ND","0.7","96.8","28.1","55.6","568.1","0"],
    [15163,"2012-01-28T14:00:00","ND","ND","24.38","ND","ND","ND","0.8","142.9","29.1","51.7","615.1","0"],
    [15164,"2012-01-28T15:00:00","ND","ND","22.16","ND","ND","ND","1.2","41.5","29.3","51.8","325.5","0"],
    [15165,"2012-01-28T16:00:00","ND","ND","14.98","ND","ND","ND","1.9","275.8","29.8","49.8","406.8","0"],
    [15166,"2012-01-28T17:00:00","ND","ND","10.16","ND","ND","ND","2.6","279.6","29.3","49.5","268.8","0"],
    [15167,"2012-01-28T18:00:00","ND","ND","11.99","ND","ND","ND","1.5","291.5","28.2","50.8","82.4","0"],
    [15168,"2012-01-28T19:00:00","ND","ND","18.47","ND","ND","ND","0.6","286","27.1","53.1","2.1","0"],
    [15169,"2012-01-28T20:00:00","ND","ND","31.68","ND","ND","ND","0.8","147.1","27","54.3","0","0"],
    [15170,"2012-01-28T21:00:00","ND","ND","42.51","ND","ND","ND","0.6","144.3","26.3","58.9","0","0"],
    [15171,"2012-01-28T22:00:00","ND","ND","34.51","ND","ND","ND","0.7","99.2","25.4","64.6","0","0"],
    [15172,"2012-01-28T23:00:00","ND","ND","29.03","ND","ND","ND","0.2","76.7","24.5","70","0","0"],
    [15173,"2012-01-29T00:00:00","ND","ND","28.87","ND","ND","ND","0.4","319","24","72.6","0","0"],
    [15174,"2012-01-29T01:00:00","ND","ND","27.48","ND","ND","ND","0.2","323.5","23.2","76.4","0","0"],
    [15175,"2012-01-29T02:00:00","ND","ND","25.23","ND","ND","ND","0.5","41.9","23.3","76.3","0","0"],
    [15176,"2012-01-29T03:00:00","ND","ND","22.12","ND","ND","ND","0.4","37","22.8","79.3","0","0"],
    [15177,"2012-01-29T04:00:00","ND","ND","12.03","ND","ND","ND","0.2","135.2","22.2","82.5","0","0"],
    [15178,"2012-01-29T05:00:00","ND","ND","17.70","ND","ND","ND","0.1","272.2","21.8","84.1","0","0"],
    [15179,"2012-01-29T06:00:00","ND","ND","17.91","ND","ND","ND","0.1","296.7","21.9","82.6","0","0"],
    [15180,"2012-01-29T07:00:00","ND","ND","21.40","ND","ND","ND","0.3","142.7","22.2","81.8","13.8","0"],
    [15181,"2012-01-29T08:00:00","ND","ND","23.84","ND","ND","ND","0","229.3","22.9","81.1","89","0"],
    [15182,"2012-01-29T09:00:00","ND","ND","25.12","ND","ND","ND","0.7","212.6","24.5","71.9","280.5","0"],
    [15183,"2012-01-29T10:00:00","ND","ND","19.99","ND","ND","ND","0.6","164.2","26","64.7","377.9","0"],
    [15184,"2012-01-29T11:00:00","ND","ND","12.54","ND","ND","ND","1","154.6","27.1","60.1","471.6","0"],
    [15185,"2012-01-29T12:00:00","ND","ND","18.42","ND","ND","ND","1.7","273.2","26.5","64.4","194.4","0"],
    [15186,"2012-01-29T13:00:00","ND","ND","12.26","ND","ND","ND","0.7","254.5","28.6","54","631.2","0"],
    [15187,"2012-01-29T14:00:00","ND","ND","6.09","ND","ND","ND","1.1","316","29.8","48.9","683.1","0"],
    [15188,"2012-01-29T15:00:00","ND","ND","5.02","ND","ND","ND","3.5","281.6","30.1","46.7","669.6","0"],
    [15189,"2012-01-29T16:00:00","ND","ND","4.63","ND","ND","ND","4","281.1","29.8","46.5","487","0"],
    [15190,"2012-01-29T17:00:00","ND","ND","4.24","ND","ND","ND","4.8","281.3","29","46.8","276.5","0"],
    [15191,"2012-01-29T18:00:00","ND","ND","5.78","ND","ND","ND","3.3","282","27.8","48.9","56.7","0"],
    [15192,"2012-01-29T19:00:00","ND","ND","16.20","ND","ND","ND","0.9","9.1","27.2","51.1","1.8","0"],
    [15193,"2012-01-29T20:00:00","ND","ND","21.88","ND","ND","ND","2.1","173.8","25.7","61.6","0","0"],
    [15194,"2012-01-29T21:00:00","ND","ND","19.17","ND","ND","ND","2.1","142.7","23.8","72.7","0","0"],
    [15195,"2012-01-29T22:00:00","ND","ND","22.91","ND","ND","ND","1.3","158.4","23.1","78.1","0","0"],
    [15196,"2012-01-29T23:00:00","ND","ND","28.86","ND","ND","ND","0.3","309.1","22.7","79.8","0","0"],
    [15197,"2012-01-30T00:00:00","ND","ND","22.67","ND","ND","ND","0.6","304.6","22.4","80","0","0"],
    [15198,"2012-01-30T01:00:00","ND","ND","24.76","ND","ND","ND","0.4","82.4","22.2","81.5","0","0"],
    [15199,"2012-01-30T02:00:00","ND","ND","19.54","ND","ND","ND","0.2","7.9","21.4","86.2","0","0"],
    [15200,"2012-01-30T03:00:00","ND","ND","20.60","ND","ND","ND","0.4","3.4","21.4","86.7","0","0"],
    [15201,"2012-01-30T04:00:00","ND","ND","19.87","ND","ND","ND","0.2","244","21.4","87","0","0"],
    [15202,"2012-01-30T05:00:00","ND","ND","19.72","ND","ND","ND","0.4","312.6","21.4","86.3","0","0"],
    [15203,"2012-01-30T06:00:00","ND","ND","25.76","ND","ND","ND","0","222.6","21.5","85","0","0"],
    [15204,"2012-01-30T07:00:00","ND","ND","31.79","ND","ND","ND","0.1","73.3","21.5","85.8","5.6","0"],
    [15205,"2012-01-30T08:00:00","ND","ND","35.10","ND","ND","ND","0.1","328.9","21.8","83.2","107.4","0"],
    [15206,"2012-01-30T09:00:00","ND","ND","30.25","ND","ND","ND","0.8","137.1","24.3","70.5","336","0"],
    [15207,"2012-01-30T10:00:00","ND","ND","51.88","ND","ND","ND","1.8","110.7","25.3","68.9","468","0"],
    [15208,"2012-01-30T11:00:00","ND","ND","20.58","ND","ND","ND","1.6","101.7","26.5","62.1","615.6","0"],
    [15209,"2012-01-30T12:00:00","ND","ND","15.07","ND","ND","ND","1.2","73.8","27","58.3","335","0"],
    [15210,"2012-01-30T13:00:00","ND","ND","16.03","ND","ND","ND","0.4","304.7","27.6","56.5","463","0"],
    [15211,"2012-01-30T14:00:00","ND","ND","14.72","ND","ND","ND","1.1","24.7","28","53.5","305.1","0"],
    [15212,"2012-01-30T15:00:00","ND","ND","21.00","ND","ND","ND","1.4","229.8","28.2","51.9","174.1","0"],
    [15213,"2012-01-30T16:00:00","ND","ND","14.79","ND","ND","ND","2.4","252","28.6","50.2","322.2","0"],
    [15214,"2012-01-30T17:00:00","ND","ND","14.38","ND","ND","ND","3","261.8","28.8","49.4","289.9","0"],
    [15215,"2012-01-30T18:00:00","ND","ND","19.37","ND","ND","ND","2.1","260.6","28.1","51.3","102.8","0"],
    [15216,"2012-01-30T19:00:00","ND","ND","34.91","ND","ND","ND","0.4","234.3","26.7","55","1.7","0"],
    [15217,"2012-01-30T20:00:00","ND","ND","44.97","ND","ND","ND","0.9","108.6","26.2","58.1","0","0"],
    [15218,"2012-01-30T21:00:00","ND","ND","43.74","ND","ND","ND","1.2","124.5","25.8","59.7","0","0"],
    [15219,"2012-01-30T22:00:00","ND","ND","26.94","ND","ND","ND","1.6","225","24.7","62.9","0","0"],
    [15220,"2012-01-30T23:00:00","ND","ND","16.27","ND","ND","ND","0.9","231.1","24.2","64.8","0","0"],
    [15221,"2012-01-31T00:00:00","ND","ND","30.79","ND","ND","ND","0.7","350.8","23.3","71.6","0","0"],
    [15222,"2012-01-31T01:00:00","ND","ND","28.16","ND","ND","ND","0.5","350.5","22.5","75.8","0","0"],
    [15223,"2012-01-31T02:00:00","ND","ND","19.78","ND","ND","ND","0.5","7.4","22","83.7","0","0"],
    [15224,"2012-01-31T03:00:00","ND","ND","20.71","ND","ND","ND","0.7","8.6","22","82","0","0"],
    [15225,"2012-01-31T04:00:00","ND","ND","25.06","ND","ND","ND","0.2","13.8","22","80.5","0","0"],
    [15226,"2012-01-31T05:00:00","ND","ND","26.22","ND","ND","ND","0.1","320.5","21.8","82.8","0","0"],
    [15227,"2012-01-31T06:00:00","ND","ND","28.89","ND","ND","ND","0.1","95.6","21.7","83.1","0","0"],
    [15228,"2012-01-31T07:00:00","ND","ND","30.09","ND","ND","ND","0.3","261.8","21.1","85.4","8.2","0"],
    [15229,"2012-01-31T08:00:00","ND","ND","35.17","ND","ND","ND","0.2","135","22.4","80.4","95.8","0"],
    [15230,"2012-01-31T09:00:00","ND","ND","54.27","ND","ND","ND","0.9","155.9","23.7","75.1","200.4","0"],
    [15231,"2012-01-31T10:00:00","ND","ND","37.38","ND","ND","ND","0.7","340.1","23.9","74.9","87.2","0"],
    [15232,"2012-01-31T11:00:00","ND","ND","41.05","ND","ND","ND","1","289.6","24","74.4","131.8","0"],
    [15233,"2012-01-31T12:00:00","ND","ND","25.53","ND","ND","ND","0.3","176.9","26.7","60.9","657.3","0"],
    [15234,"2012-01-31T13:00:00","ND","ND","25.13","ND","ND","ND","1","299.8","27.8","55","348.5","0"],
    [15235,"2012-01-31T14:00:00","ND","ND","10.29","ND","ND","ND","1.9","251.8","28","52","436.2","0"],
    [15236,"2012-01-31T15:00:00","ND","ND","10.13","ND","ND","ND","1.6","263.5","29.3","48.4","538.6","0"],
    [15237,"2012-01-31T16:00:00","ND","ND","10.23","ND","ND","ND","2.7","285.4","29","47.8","398.4","0"],
    [15238,"2012-01-31T17:00:00","ND","ND","14.75","ND","ND","ND","2.3","285.1","28.6","48.8","177.1","0"],
    [15239,"2012-01-31T18:00:00","ND","ND","16.77","ND","ND","ND","2.2","272","28.2","49.6","103","0"],
    [15240,"2012-01-31T19:00:00","ND","ND","31.06","ND","ND","ND","0.7","234.8","27.2","52.7","2.8","0"],
    [15241,"2012-01-31T20:00:00","ND","ND","31.37","ND","ND","ND","0.4","144.8","26.7","55.3","0","0"],
    [15242,"2012-01-31T21:00:00","ND","ND","40.56","ND","ND","ND","0.9","91.8","25.8","60.9","0","0"],
    [15243,"2012-01-31T22:00:00","ND","ND","37.50","ND","ND","ND","0.3","45.3","24.4","68.8","0","0"],
    [15244,"2012-01-31T23:00:00","ND","ND","34.11","ND","ND","ND","0.8","320.4","23.2","72","0","0"],
    [15245,"2012-02-01T00:00:00","ND","ND","29.62","ND","ND","ND","0.1","190.1","22.9","74.8","0","0"],
    [15246,"2012-02-01T01:00:00","ND","ND","ND","ND","ND","ND","0.5","351.2","22","79.3","0","0"],
    [15247,"2012-02-01T02:00:00","ND","ND","ND","ND","ND","ND","0.3","217.9","22.2","78","0","0"],
    [15248,"2012-02-01T03:00:00","ND","ND","26.36","ND","ND","ND","0.2","261.5","22.5","78.1","0","0"],
    [15249,"2012-02-01T04:00:00","ND","ND","25.12","ND","ND","ND","0.3","257.6","21.8","84.3","0","0"],
    [15250,"2012-02-01T05:00:00","ND","ND","25.56","ND","ND","ND","0","84.8","22","83.2","0","0"],
    [15251,"2012-02-01T06:00:00","ND","ND","23.29","ND","ND","ND","0.1","236.2","21.9","83.4","0","0"],
    [15252,"2012-02-01T07:00:00","ND","ND","23.69","ND","ND","ND","0.1","286.5","21.7","83.6","12.1","0"],
    [15253,"2012-02-01T08:00:00","ND","ND","22.63","ND","ND","ND","0.6","54.7","22.6","79","57.2","0"],
    [15254,"2012-02-01T09:00:00","ND","ND","25.71","ND","ND","ND","0.4","310.1","22.9","78.2","122.3","0"],
    [15255,"2012-02-01T10:00:00","ND","ND","32.34","ND","ND","ND","1.1","66.3","24.2","73.6","309.6","0"],
    [15256,"2012-02-01T11:00:00","ND","ND","35.46","ND","ND","ND","1","58.5","25.6","67","537","0"],
    [15257,"2012-02-01T12:00:00","ND","ND","32.61","ND","ND","ND","0.8","53","27.3","58.8","549.4","0"],
    [15258,"2012-02-01T13:00:00","ND","ND","30.10","ND","ND","ND","1.2","134.9","28.6","53.9","564.2","0"],
    [15259,"2012-02-01T14:00:00","ND","ND","26.42","ND","ND","ND","0.4","37.3","29","52.7","287.3","0"],
    [15260,"2012-02-01T15:00:00","ND","ND","23.59","ND","ND","ND","1","34","29.3","49.7","301","0"],
    [15261,"2012-02-01T16:00:00","ND","ND","23.35","ND","ND","ND","2.4","281.4","29.9","46.6","483.6","0"],
    [15262,"2012-02-01T17:00:00","ND","ND","17.06","ND","ND","ND","2.5","268","29.3","47.9","240.5","0"],
    [15263,"2012-02-01T18:00:00","ND","ND","11.10","ND","ND","ND","1.9","271.6","28.5","48.8","90.2","0"],
    [15264,"2012-02-01T19:00:00","ND","ND","15.00","ND","ND","ND","0.2","123.9","27.3","51.7","2","0"],
    [15265,"2012-02-01T20:00:00","ND","ND","22.00","ND","ND","ND","0.5","112.7","26.7","54.3","0","0"],
    [15266,"2012-02-01T21:00:00","ND","ND","41.56","ND","ND","ND","0.4","141.9","26.2","57","0","0"],
    [15267,"2012-02-01T22:00:00","ND","ND","42.43","ND","ND","ND","0.7","81.1","25.6","59.9","0","0"],
    [15268,"2012-02-01T23:00:00","ND","ND","51.26","ND","ND","ND","0.3","19.7","24.3","67.6","0","0"],
    [15269,"2012-02-02T00:00:00","ND","ND","36.92","ND","ND","ND","0.5","310.5","24","68.4","0","0"],
    [15270,"2012-02-02T01:00:00","ND","ND","37.43","ND","ND","ND","0.2","350.2","23.5","69.9","0","0"],
    [15271,"2012-02-02T02:00:00","ND","ND","32.89","ND","ND","ND","0.2","259.8","23.4","70.3","0","0"],
    [15272,"2012-02-02T03:00:00","ND","ND","30.55","ND","ND","ND","0.1","325.7","22.9","72.6","0","0"],
    [15273,"2012-02-02T04:00:00","ND","ND","25.30","ND","ND","ND","1","192.8","22.7","76.7","0","0"],
    [15274,"2012-02-02T05:00:00","ND","ND","28.43","ND","ND","ND","0.4","219.2","22.2","80.6","0","0"],
    [15275,"2012-02-02T06:00:00","ND","ND","22.11","ND","ND","ND","0.4","164.7","21.7","88.1","0","0"],
    [15276,"2012-02-02T07:00:00","ND","ND","14.55","ND","ND","ND","0.4","156.9","21.5","87","5.9","0"],
    [15277,"2012-02-02T08:00:00","ND","ND","18.93","ND","ND","ND","0.2","23.5","21.6","87.1","32.6","0"],
    [15278,"2012-02-02T09:00:00","ND","ND","22.94","ND","ND","ND","0.5","74","22.6","83.1","185","0"],
    [15279,"2012-02-02T10:00:00","ND","ND","31.31","ND","ND","ND","0.9","84.5","24.8","72.6","485.9","0"],
    [15280,"2012-02-02T11:00:00","ND","ND","35.69","ND","ND","ND","1.3","112.1","26.5","61.1","562.1","0"],
    [15281,"2012-02-02T12:00:00","15.5","ND","37.80","ND","ND","ND","1.3","160.6","28.3","53.6","723.5","0"],
    [15282,"2012-02-02T13:00:00","ND","ND","19.23","ND","ND","ND","1.1","320.4","28.8","52.8","504.9","0"],
    [15283,"2012-02-02T14:00:00","28.3","ND","16.79","ND","ND","ND","1.4","290.6","29.3","49.7","663.5","0"],
    [15284,"2012-02-02T15:00:00","31","ND","18.92","ND","ND","ND","2.2","277.7","30.4","46.2","561.1","0"],
    [15285,"2012-02-02T16:00:00","36.1","ND","17.35","ND","ND","ND","2.5","283.3","30.1","46.4","485.6","0"],
    [15286,"2012-02-02T17:00:00","26.4","ND","14.00","ND","ND","ND","1","312.9","29.2","49.1","111.5","0"],
    [15287,"2012-02-02T18:00:00","52.9","ND","11.40","ND","ND","ND","0.7","267.1","28.1","50.8","17.7","0"],
    [15288,"2012-02-02T19:00:00","28.9","ND","17.91","ND","ND","ND","1","247.2","27.5","53","1.4","0"],
    [15289,"2012-02-02T20:00:00","44.2","ND","27.01","ND","ND","ND","1.7","49.6","26.4","61.9","0","0"],
    [15290,"2012-02-02T21:00:00","54.2","ND","37.03","ND","ND","ND","1.2","53.2","24.9","74.6","0","0"],
    [15291,"2012-02-02T22:00:00","76.7","ND","37.66","ND","ND","ND","0.5","20.1","24.4","74.6","0","0"],
    [15292,"2012-02-02T23:00:00","74.1","ND","31.37","ND","ND","ND","0.6","19.1","23.8","76.7","0","0"],
    [15293,"2012-02-03T00:00:00","53.4","ND","31.61","ND","ND","ND","1.1","356","23.1","80.7","0","0"],
    [15294,"2012-02-03T01:00:00","39.9","ND","29.53","ND","ND","ND","0.6","24","22.9","81.8","0","0"],
    [15295,"2012-02-03T02:00:00","41.6","ND","27.96","ND","ND","ND","0.4","6.4","22.6","83.8","0","0"],
    [15296,"2012-02-03T03:00:00","23.4","ND","22.20","ND","ND","ND","0.1","331.8","22.8","82.3","0","0"],
    [15297,"2012-02-03T04:00:00","29.1","ND","19.56","ND","ND","ND","0.2","0.1","22.5","84.2","0","0"],
    [15298,"2012-02-03T05:00:00","17.6","ND","21.22","ND","ND","ND","0.8","185.3","22.7","82.9","0","0"],
    [15299,"2012-02-03T06:00:00","29.9","ND","21.53","ND","ND","ND","0.5","141.7","22.9","80.3","0","0"],
    [15300,"2012-02-03T07:00:00","16.3","ND","20.53","ND","ND","ND","0.3","357.3","22.5","81.7","5.5","0"],
    [15301,"2012-02-03T08:00:00","56.5","ND","23.89","ND","ND","ND","0.6","30.9","22.5","83.1","35.5","0"],
    [15302,"2012-02-03T09:00:00","57.4","ND","26.82","ND","ND","ND","0.2","24.5","23.3","80","98","0"],
    [15303,"2012-02-03T10:00:00","84.2","ND","29.10","ND","ND","ND","0.5","62.4","24.1","75.9","296.5","0"],
    [15304,"2012-02-03T11:00:00","68","ND","34.63","ND","ND","ND","0.9","58.2","25.4","69.5","264.8","0"],
    [15305,"2012-02-03T12:00:00","69.8","ND","38.89","ND","ND","ND","1.1","41.2","26.2","64.9","363.1","0"],
    [15306,"2012-02-03T13:00:00","37.6","ND","25.96","ND","ND","ND","0.7","77.5","28.2","56.9","644.9","0"],
    [15307,"2012-02-03T14:00:00","38.2","ND","15.51","ND","ND","ND","0.5","309.3","28.5","54.3","289.1","0"],
    [15308,"2012-02-03T15:00:00","20.4","ND","18.31","ND","ND","ND","1.1","323.2","28.7","52.9","194.7","0"],
    [15309,"2012-02-03T16:00:00","31.1","ND","18.36","ND","ND","ND","2.2","257.1","28.7","51.6","195.2","0"],
    [15310,"2012-02-03T17:00:00","18","ND","19.49","ND","ND","ND","2.1","254.9","28.4","52.4","104.3","0"],
    [15311,"2012-02-03T18:00:00","19.2","ND","16.99","ND","ND","ND","1.9","245.7","27.6","53.4","30","0"],
    [15312,"2012-02-03T19:00:00","11.9","ND","23.71","ND","ND","ND","0.2","99.9","27.1","55.1","1.1","0"],
    [15313,"2012-02-03T20:00:00","23.4","ND","31.79","ND","ND","ND","0.5","117.2","26.8","55.9","0","0"],
    [15314,"2012-02-03T21:00:00","28","ND","41.12","ND","ND","ND","0.4","32.2","25.9","61.4","0","0"],
    [15315,"2012-02-03T22:00:00","34.8","ND","42.62","ND","ND","ND","0.7","234.5","25","65.7","0","0"],
    [15316,"2012-02-03T23:00:00","32.2","ND","42.11","ND","ND","ND","0.6","244.2","24.8","64.3","0","0"],
    [15317,"2012-02-04T00:00:00","34.7","ND","35.40","ND","ND","ND","0.1","254.6","24.3","70.3","0","0"],
    [15318,"2012-02-04T01:00:00","25","ND","30.67","ND","ND","ND","0.1","318.6","23.4","73.7","0","0"],
    [15319,"2012-02-04T02:00:00","46.1","ND","31.17","ND","ND","ND","0.3","309.3","23.1","75.8","0","0"],
    [15320,"2012-02-04T03:00:00","53.6","ND","30.84","ND","ND","ND","0.2","272.4","23.2","77.7","0","0"],
    [15321,"2012-02-04T04:00:00","56.4","ND","26.62","ND","ND","ND","0.3","356.5","22.8","81.6","0","0.51"],
    [15322,"2012-02-04T05:00:00","60.1","ND","25.00","ND","ND","ND","0.1","36.9","22.1","88.7","0","1.52"],
    [15323,"2012-02-04T06:00:00","51.3","ND","25.68","ND","ND","ND","0","83.2","22.1","91.4","0","0.25"],
    [15324,"2012-02-04T07:00:00","59.9","ND","24.54","ND","ND","ND","0.2","259.6","22","92.1","5.2","0"],
    [15325,"2012-02-04T08:00:00","41.8","ND","21.76","ND","ND","ND","0.2","234.5","22.6","87.4","79.5","0.25"],
    [15326,"2012-02-04T09:00:00","29.4","ND","19.64","ND","ND","ND","0.6","48.2","23.6","84.2","143.1","0"],
    [15327,"2012-02-04T10:00:00","57.4","ND","25.29","ND","ND","ND","0.4","131.8","25.3","74.2","370.9","0"],
    [15328,"2012-02-04T11:00:00","55.4","ND","50.30","ND","ND","ND","0.6","5.8","26.6","66.9","431.8","0"],
    [15329,"2012-02-04T12:00:00","58.4","ND","53.85","ND","ND","ND","1","83.4","28.4","58.7","740.7","0"],
    [15330,"2012-02-04T13:00:00","31.5","ND","36.90","ND","ND","ND","0.6","160.3","30","52","748.7","0"],
    [15331,"2012-02-04T14:00:00","39.8","ND","28.07","ND","ND","ND","1","306.1","30.4","47.7","457.4","0"],
    [15332,"2012-02-04T15:00:00","22.5","ND","22.42","ND","ND","ND","3.3","288.8","30.1","46.6","434.2","0"],
    [15333,"2012-02-04T16:00:00","14.7","ND","12.62","ND","ND","ND","2.9","265.6","29.5","48.8","190.1","0"],
    [15334,"2012-02-04T17:00:00","10.3","ND","9.83","ND","ND","ND","2.8","258.1","29","49.4","169.7","0"],
    [15335,"2012-02-04T18:00:00","16.6","ND","14.87","ND","ND","ND","2.5","257.5","28.4","51.8","65","0.25"],
    [15336,"2012-02-04T19:00:00","2.3","ND","17.03","ND","ND","ND","0.2","220.1","27.6","55.4","1.3","0"],
    [15337,"2012-02-04T20:00:00","14.2","ND","16.78","ND","ND","ND","0.9","101.6","27.1","58.1","0","0"],
    [15338,"2012-02-04T21:00:00","7.9","ND","31.14","ND","ND","ND","0.4","187.8","26.5","59.2","0","0"],
    [15339,"2012-02-04T22:00:00","6.6","ND","37.73","ND","ND","ND","0.2","57.3","25.7","63.1","0","0"],
    [15340,"2012-02-04T23:00:00","21.6","ND","30.70","ND","ND","ND","0.9","124","25.5","66.2","0","0"],
    [15341,"2012-02-05T00:00:00","46.9","ND","33.94","ND","ND","ND","0.7","123.6","24.6","70.7","0","0"],
    [15342,"2012-02-05T01:00:00","32.9","ND","37.11","ND","ND","ND","0.4","315.8","24.2","72.9","0","0"],
    [15343,"2012-02-05T02:00:00","42.6","ND","29.90","ND","ND","ND","0.2","25.6","23.9","74.5","0","0"],
    [15344,"2012-02-05T03:00:00","45.6","ND","28.67","ND","ND","ND","0.1","349.8","23.5","76.1","0","0"],
    [15345,"2012-02-05T04:00:00","43.8","ND","27.43","ND","ND","ND","0.2","87.9","23.4","77.3","0","0"],
    [15346,"2012-02-05T05:00:00","25","ND","24.47","ND","ND","ND","0.3","283.4","22.8","80.5","0","0"],
    [15347,"2012-02-05T06:00:00","30.1","ND","22.77","ND","ND","ND","0.1","241","22.8","80.9","0","0"],
    [15348,"2012-02-05T07:00:00","25.3","ND","21.05","ND","ND","ND","0.3","245.7","22.7","80.8","2.3","0"],
    [15349,"2012-02-05T08:00:00","28.3","ND","20.61","ND","ND","ND","0.9","185.9","23.2","78.3","43.7","0"],
    [15350,"2012-02-05T09:00:00","15.2","ND","19.02","ND","ND","ND","1.1","162.1","23.7","75.7","92.8","0"],
    [15351,"2012-02-05T10:00:00","34.6","ND","21.70","ND","ND","ND","0.2","264.1","24.8","70.9","332.3","0"],
    [15352,"2012-02-05T11:00:00","17.8","ND","18.41","ND","ND","ND","0.9","133.2","26.9","62.4","477.7","0"],
    [15353,"2012-02-05T12:00:00","27.5","ND","20.74","ND","ND","ND","2.1","132.9","26.3","66","117.5","0"],
    [15354,"2012-02-05T13:00:00","42","ND","21.89","ND","ND","ND","1.8","217.4","26.2","64.2","206.2","0"],
    [15355,"2012-02-05T14:00:00","11.6","ND","18.42","ND","ND","ND","0.3","180.1","26.5","59.8","149.6","0"],
    [15356,"2012-02-05T15:00:00","3.9","ND","18.00","ND","ND","ND","0.3","212.3","27","58.7","168.3","0"],
    [15357,"2012-02-05T16:00:00","2.7","ND","10.45","ND","ND","ND","0.6","59.5","27.1","57","144.1","0"],
    [15358,"2012-02-05T17:00:00","3.8","ND","14.49","ND","ND","ND","0.4","23.6","27","55.7","111.5","0"],
    [15359,"2012-02-05T18:00:00","2.8","ND","14.96","ND","ND","ND","0.6","274.1","26.4","57.1","27.8","0"],
    [15360,"2012-02-05T19:00:00","2.6","ND","14.61","ND","ND","ND","0.5","64.2","25.5","63.3","2.1","0"],
    [15361,"2012-02-05T20:00:00","15.7","ND","21.07","ND","ND","ND","0.7","85.5","24.5","69.4","0","0"],
    [15362,"2012-02-05T21:00:00","9.1","ND","25.59","ND","ND","ND","0.3","124","24.4","68.9","0","0"],
    [15363,"2012-02-05T22:00:00","36","ND","29.36","ND","ND","ND","0.3","307.7","24.3","68.7","0","0"],
    [15364,"2012-02-05T23:00:00","18.7","ND","32.69","ND","ND","ND","0.2","307.3","24","71.3","0","0"],
    [15365,"2012-02-06T00:00:00","22.1","ND","34.58","ND","ND","ND","0.3","49.8","23.1","78.7","0","0"],
    [15366,"2012-02-06T01:00:00","27.5","ND","32.45","ND","ND","ND","0.3","195.7","22.9","80.7","0","0"],
    [15367,"2012-02-06T02:00:00","20.4","ND","26.24","ND","ND","ND","0.1","307.2","22.6","81.2","0","0"],
    [15368,"2012-02-06T03:00:00","12.3","ND","22.76","ND","ND","ND","0.3","22.1","22.6","80.9","0","0"],
    [15369,"2012-02-06T04:00:00","12.3","ND","25.60","ND","ND","ND","0.2","298.5","22.3","83.1","0","0"],
    [15370,"2012-02-06T05:00:00","29.3","ND","25.89","ND","ND","ND","0.4","23.5","22.3","82.9","0","0"],
    [15371,"2012-02-06T06:00:00","17.6","ND","22.62","ND","ND","ND","0.4","18.4","21.7","89.9","0","0"],
    [15372,"2012-02-06T07:00:00","16","ND","22.63","ND","ND","ND","0.2","10.4","21.4","91.9","5.5","0"],
    [15373,"2012-02-06T08:00:00","46.3","ND","23.11","ND","ND","ND","1.1","355.7","21.9","88.9","56.4","0"],
    [15374,"2012-02-06T09:00:00","57.6","ND","24.49","ND","ND","ND","0.9","50.6","23","82.3","151.7","0"],
    [15375,"2012-02-06T10:00:00","53.2","ND","23.38","ND","ND","ND","1","76.2","23.8","76.4","196.7","0"],
    [15376,"2012-02-06T11:00:00","55.4","ND","23.05","ND","ND","ND","0.8","120.7","24.4","74.3","144.2","0"],
    [15377,"2012-02-06T12:00:00","76.8","ND","17.16","ND","ND","ND","0.6","125.7","25","70.7","183","0"],
    [15378,"2012-02-06T13:00:00","55.8","ND","26.44","ND","ND","ND","0.4","183.8","25.4","70.1","425","0"],
    [15379,"2012-02-06T14:00:00","53","ND","26.95","ND","ND","ND","1.3","5.9","24.9","71.7","139.7","0"],
    [15380,"2012-02-06T15:00:00","33.9","ND","34.53","ND","ND","ND","0.7","335.3","23.5","81.9","262.8","0"],
    [15381,"2012-02-06T16:00:00","20.2","ND","30.02","ND","ND","ND","1.5","27.4","25","73.9","275.1","0"],
    [15382,"2012-02-06T17:00:00","27.8","ND","35.73","ND","ND","ND","1.6","14.5","25.3","72","164.1","0"],
    [15383,"2012-02-06T18:00:00","69.8","ND","46.78","ND","ND","ND","1.4","35.5","24.3","78.7","34.3","0"],
    [15384,"2012-02-06T19:00:00","50","ND","53.51","ND","ND","ND","0.8","309.4","24.2","80.6","1.6","0"],
    [15385,"2012-02-06T20:00:00","76","ND","39.50","ND","ND","ND","0.5","235.6","24.2","77.6","0","0"],
    [15386,"2012-02-06T21:00:00","59.6","ND","59.39","ND","ND","ND","0.2","319.3","23.6","78.7","0","0"],
    [15387,"2012-02-06T22:00:00","60.4","ND","52.36","ND","ND","ND","0.2","122.2","23.4","80.3","0","0"],
    [15388,"2012-02-06T23:00:00","58.3","ND","43.61","ND","ND","ND","0.1","274.6","22.8","82.5","0","0"],
    [15389,"2012-02-07T00:00:00","55.6","ND","40.72","ND","ND","ND","0.1","293.3","22.9","81.8","0","0"],
    [15390,"2012-02-07T01:00:00","42.9","ND","38.13","ND","ND","ND","0.3","231.1","22.8","83.2","0","0"],
    [15391,"2012-02-07T02:00:00","33","ND","34.72","ND","ND","ND","1","223.3","23.3","77.5","0","0"],
    [15392,"2012-02-07T03:00:00","19.3","ND","33.58","ND","ND","ND","0.5","26.9","22","86","0","0"],
    [15393,"2012-02-07T04:00:00","36.2","ND","20.86","ND","ND","ND","0.6","310.6","21.1","92","0","0"],
    [15394,"2012-02-07T05:00:00","49.9","ND","29.61","ND","ND","ND","0.4","319.8","21.1","91.7","0","0"],
    [15395,"2012-02-07T06:00:00","57.6","ND","27.97","ND","ND","ND","0.2","256.4","20.9","90.5","0","0"],
    [15396,"2012-02-07T07:00:00","37","ND","27.31","ND","ND","ND","0.3","32.9","20.8","89.7","3.5","0"],
    [15397,"2012-02-07T08:00:00","74.8","ND","26.26","ND","ND","ND","0.4","65.5","21.2","90.6","50.5","0"],
    [15398,"2012-02-07T09:00:00","68.4","ND","31.18","ND","ND","ND","0.9","30","22","86.8","207.5","0"],
    [15399,"2012-02-07T10:00:00","58.8","ND","37.20","ND","ND","ND","0.9","68","24.1","76.2","367.4","0"],
    [15400,"2012-02-07T11:00:00","41.9","ND","23.81","ND","ND","ND","0.5","97.7","25.8","67.9","422.2","0"],
    [15401,"2012-02-07T12:00:00","33.2","ND","32.26","ND","ND","ND","0.3","169.8","26.6","63.5","314.5","0"],
    [15402,"2012-02-07T13:00:00","21","ND","19.09","ND","ND","ND","0.3","103.7","27.4","60","422.6","0"],
    [15403,"2012-02-07T14:00:00","35.7","ND","21.83","ND","ND","ND","0.8","79.7","29","54","623.9","0"],
    [15404,"2012-02-07T15:00:00","18.7","ND","21.84","ND","ND","ND","1.6","291.1","28.6","53.9","129.9","0"],
    [15405,"2012-02-07T16:00:00","29.8","ND","21.12","ND","ND","ND","2.6","256.1","29.8","49","458.5","0"],
    [15406,"2012-02-07T17:00:00","17.9","ND","23.62","ND","ND","ND","2.7","279.7","29.7","49.2","311.1","0"],
    [15407,"2012-02-07T18:00:00","9.6","ND","11.96","ND","ND","ND","1","289.9","28.8","51.7","81","0"],
    [15408,"2012-02-07T19:00:00","13.4","ND","13.01","ND","ND","ND","0.3","124.6","27.6","54","1.9","0"],
    [15409,"2012-02-07T20:00:00","31.8","ND","22.53","ND","ND","ND","0","269.6","26.4","59.2","0","0"],
    [15410,"2012-02-07T21:00:00","33.2","ND","41.20","ND","ND","ND","0.1","278.2","25.3","64.7","0","0"],
    [15411,"2012-02-07T22:00:00","67.5","ND","49.94","ND","ND","ND","0.1","329.9","24.8","66.6","0","0"],
    [15412,"2012-02-07T23:00:00","73.8","ND","50.18","ND","ND","ND","0.2","71.1","24.6","72.3","0","0"],
    [15413,"2012-02-08T00:00:00","50.4","ND","49.58","ND","ND","ND","0.5","333.2","22.8","84.2","0","0"],
    [15414,"2012-02-08T01:00:00","51.6","ND","31.60","ND","ND","ND","0.4","274.7","22.4","85.1","0","0"],
    [15415,"2012-02-08T02:00:00","45.2","ND","29.63","ND","ND","ND","0.3","244.4","22.6","84.7","0","0"],
    [15416,"2012-02-08T03:00:00","24.9","ND","24.04","ND","ND","ND","0.7","142.9","22.9","84","0","0"],
    [15417,"2012-02-08T04:00:00","32.8","ND","22.24","ND","ND","ND","0.9","177.1","22.6","85","0","0"],
    [15418,"2012-02-08T05:00:00","19.5","ND","21.35","ND","ND","ND","0.3","156.1","22","88.7","0","4.32"],
    [15419,"2012-02-08T06:00:00","19.5","ND","16.39","ND","ND","ND","0.2","314.2","21.4","93.4","0","1.52"],
    [15420,"2012-02-08T07:00:00","11.6","ND","17.83","ND","ND","ND","0.2","360","21.5","92.5","3.1","1.78"],
    [15421,"2012-02-08T08:00:00","25.5","ND","16.47","ND","ND","ND","0.7","335.6","21","95.5","40.4","15.24"],
    [15422,"2012-02-08T09:00:00","28.2","ND","22.74","ND","ND","ND","0.4","357.3","21.5","92.7","141","1.02"],
    [15423,"2012-02-08T10:00:00","14.9","ND","30.49","ND","ND","ND","1","4.1","21.4","93.3","22.3","39.88"],
    [15424,"2012-02-08T11:00:00","23.4","ND","26.29","ND","ND","ND","0.2","264","21.1","98","197.1","1.78"],
    [15425,"2012-02-08T12:00:00","12.7","ND","30.82","ND","ND","ND","0.7","42.8","23.7","81.2","226.4","0"],
    [15426,"2012-02-08T13:00:00","8.6","ND","32.48","ND","ND","ND","1.5","43.7","22.4","90.9","232.6","2.03"],
    [15427,"2012-02-08T14:00:00","19.9","ND","32.17","ND","ND","ND","1","12.5","24.1","81.6","488.9","0"],
    [15428,"2012-02-08T15:00:00","13","ND","30.89","ND","ND","ND","1","63.4","24.7","77.4","112.3","0"],
    [15429,"2012-02-08T16:00:00","27.9","ND","49.43","ND","ND","ND","0.2","70.1","24","81.5","71.5","0.76"],
    [15430,"2012-02-08T17:00:00","15.6","ND","46.91","ND","ND","ND","1.2","78.7","23","89.2","13.8","2.54"],
    [15431,"2012-02-08T18:00:00","27.6","ND","50.12","ND","ND","ND","1.3","144.9","20.6","98.3","0.6","53.85"],
    [15432,"2012-02-08T19:00:00","4.8","ND","43.11","ND","ND","ND","0.8","172.8","19.9","100","0.1","8.13"],
    [15433,"2012-02-08T20:00:00","13.2","ND","48.00","ND","ND","ND","2.1","155.7","19.9","100","0","1.02"],
    [15434,"2012-02-08T21:00:00","7.3","ND","47.84","ND","ND","ND","1.6","175.3","20","97.3","0","0.25"],
    [15435,"2012-02-08T22:00:00","3.7","ND","49.31","ND","ND","ND","0.8","163","20.3","93.6","0","0"],
    [15436,"2012-02-08T23:00:00","3.2","ND","39.95","ND","ND","ND","0.2","339.7","20.2","95.1","0","0.25"],
    [15437,"2012-02-09T00:00:00","5.9","ND","41.19","ND","ND","ND","0.2","18.3","20.2","95.3","0","0"],
    [15438,"2012-02-09T01:00:00","4.5","ND","38.88","ND","ND","ND","0.3","139.5","20","96.3","0","0"],
    [15439,"2012-02-09T02:00:00","24.8","ND","36.93","ND","ND","ND","0.2","158.2","19.8","96.4","0","0"],
    [15440,"2012-02-09T03:00:00","14.8","ND","36.51","ND","ND","ND","0.5","160.6","19.6","96.2","0","0"],
    [15441,"2012-02-09T04:00:00","9.8","ND","25.89","ND","ND","ND","0","139.2","19.4","96.5","0","0"],
    [15442,"2012-02-09T05:00:00","14.9","ND","22.53","ND","ND","ND","0.6","357.2","19.2","96.3","0","0"],
    [15443,"2012-02-09T06:00:00","24.4","ND","20.26","ND","ND","ND","0.2","140","19.6","95.4","0","0"],
    [15444,"2012-02-09T07:00:00","24.2","ND","20.69","ND","ND","ND","0.6","153.1","19.6","90.8","6.4","0"],
    [15445,"2012-02-09T08:00:00","26.9","ND","23.73","ND","ND","ND","0.2","227.8","19.9","89.6","81.8","0"],
    [15446,"2012-02-09T09:00:00","29.3","ND","23.82","ND","ND","ND","0.4","131.8","22","79.6","276.6","0"],
    [15447,"2012-02-09T10:00:00","39.8","ND","31.66","ND","ND","ND","1.2","54.6","22.6","80.6","300.5","0"],
    [15448,"2012-02-09T11:00:00","46","ND","50.07","ND","ND","ND","0.9","78.6","23.9","73.7","404.5","0"],
    [15449,"2012-02-09T12:00:00","39.6","ND","64.19","ND","ND","ND","0.9","103.9","25.1","67.8","658.4","0"],
    [15450,"2012-02-09T13:00:00","21.5","ND","34.01","ND","ND","ND","1.3","89.1","26.7","63.7","764.5","0"],
    [15451,"2012-02-09T14:00:00","35.8","ND","31.08","ND","ND","ND","1.4","76.6","27.6","60.6","673.3","0"],
    [15452,"2012-02-09T15:00:00","23.6","ND","26.73","ND","ND","ND","0.7","20.9","28","59.1","354.1","0"],
    [15453,"2012-02-09T16:00:00","46.4","ND","20.58","ND","ND","ND","0.7","346.3","28.6","57","367.9","0"],
    [15454,"2012-02-09T17:00:00","25.8","ND","22.40","ND","ND","ND","1","261.9","28.3","56.9","101.7","0"],
    [15455,"2012-02-09T18:00:00","47.2","ND","23.78","ND","ND","ND","1.1","266.5","28.2","56.1","108.8","0"],
    [15456,"2012-02-09T19:00:00","35","ND","24.77","ND","ND","ND","0.3","79.1","26.7","59.1","1.6","0"],
    [15457,"2012-02-09T20:00:00","24.9","ND","30.69","ND","ND","ND","0.2","275.7","25.5","64.1","0","0"],
    [15458,"2012-02-09T21:00:00","14.7","ND","35.13","ND","ND","ND","0.4","89.9","25.4","63.8","0","0"],
    [15459,"2012-02-09T22:00:00","32.3","ND","46.58","ND","ND","ND","0.5","102.5","24.5","70.8","0","0"],
    [15460,"2012-02-09T23:00:00","42.2","ND","38.04","ND","ND","ND","0.2","240.8","23.4","76.7","0","0"],
    [15461,"2012-02-10T00:00:00","46.4","ND","37.30","ND","ND","ND","0","247.4","22.8","79.8","0","0"],
    [15462,"2012-02-10T01:00:00","24","ND","32.12","ND","ND","ND","0.5","351.4","22.4","81.8","0","0"],
    [15463,"2012-02-10T02:00:00","30.7","ND","28.49","ND","ND","ND","0.1","301.1","22.3","84.7","0","0"],
    [15464,"2012-02-10T03:00:00","18.9","ND","25.25","ND","ND","ND","0.8","177.8","22.5","83","0","0"],
    [15465,"2012-02-10T04:00:00","28.9","ND","24.26","ND","ND","ND","0.4","247.5","22.2","83.6","0","0"],
    [15466,"2012-02-10T05:00:00","15.3","ND","21.79","ND","ND","ND","0.2","33.4","22","85.3","0","0"],
    [15467,"2012-02-10T06:00:00","29","ND","17.92","ND","ND","ND","0.1","85.9","21.8","87.7","0","0"],
    [15468,"2012-02-10T07:00:00","17.2","ND","22.84","ND","ND","ND","0.4","358.7","21.8","88","4.3","0"],
    [15469,"2012-02-10T08:00:00","59","ND","23.59","ND","ND","ND","0.5","14.7","21.9","88.3","39.5","0"],
    [15470,"2012-02-10T09:00:00","47.4","ND","26.39","ND","ND","ND","0.5","54.9","22.5","85.4","95.7","0"],
    [15471,"2012-02-10T10:00:00","69.5","ND","30.63","ND","ND","ND","0.5","55.6","23.6","79.9","197.4","0"],
    [15472,"2012-02-10T11:00:00","66.4","ND","32.90","ND","ND","ND","1.5","61.6","24.7","74.1","368.7","0"],
    [15473,"2012-02-10T12:00:00","54.8","ND","41.28","ND","ND","ND","0.9","76.3","25.9","67.1","459.3","0"],
    [15474,"2012-02-10T13:00:00","29","ND","27.81","ND","ND","ND","0.6","29.6","27.3","60.1","641.6","0"],
    [15475,"2012-02-10T14:00:00","20","ND","16.13","ND","ND","ND","1.3","42.6","27.6","58.5","387.2","0"],
    [15476,"2012-02-10T15:00:00","12.3","ND","16.60","ND","ND","ND","0.7","312.2","29.3","52.2","726.3","0"],
    [15477,"2012-02-10T16:00:00","8","ND","15.61","ND","ND","ND","1.2","8.5","29.7","48.9","500.6","0"],
    [15478,"2012-02-10T17:00:00","6.5","ND","14.79","ND","ND","ND","1.9","162.7","27.5","57.3","93.8","0"],
    [15479,"2012-02-10T18:00:00","13.2","ND","11.26","ND","ND","ND","1.5","168.7","26.9","59.3","49.2","0"],
    [15480,"2012-02-10T19:00:00","7.8","ND","23.03","ND","ND","ND","0.1","206.6","26.1","63.2","0.9","0"],
    [15481,"2012-02-10T20:00:00","21.7","ND","33.33","ND","ND","ND","0.5","236.9","25.2","63.9","0","0"],
    [15482,"2012-02-10T21:00:00","13.1","ND","36.43","ND","ND","ND","0.4","266.8","24.5","68.8","0","0"],
    [15483,"2012-02-10T22:00:00","41.9","ND","34.52","ND","ND","ND","0.4","52.7","24.5","71.7","0","0"],
    [15484,"2012-02-10T23:00:00","57.2","ND","37.23","ND","ND","ND","0.9","5","22.5","83.8","0","0"],
    [15485,"2012-02-11T00:00:00","55.1","ND","38.55","ND","ND","ND","0.4","310.7","21.9","84.9","0","0"],
    [15486,"2012-02-11T01:00:00","52.3","ND","30.59","ND","ND","ND","0.4","53.5","21.8","84.9","0","0"],
    [15487,"2012-02-11T02:00:00","49","ND","27.78","ND","ND","ND","0.1","97.1","21.9","83.7","0","0"],
    [15488,"2012-02-11T03:00:00","34.5","ND","27.57","ND","ND","ND","0.2","61","21.8","84.9","0","0"],
    [15489,"2012-02-11T04:00:00","40.3","ND","26.64","ND","ND","ND","0.6","314.6","21.6","85.9","0","0"],
    [15490,"2012-02-11T05:00:00","24.1","ND","24.84","ND","ND","ND","0.2","40.7","22","81.2","0","0"],
    [15491,"2012-02-11T06:00:00","17.3","ND","22.77","ND","ND","ND","0","212.1","22.1","82.1","0","0"],
    [15492,"2012-02-11T07:00:00","11.1","ND","21.00","ND","ND","ND","0","260","21.8","83.9","13","0"],
    [15493,"2012-02-11T08:00:00","23.9","ND","25.47","ND","ND","ND","0.2","97.2","22.3","83.7","27.2","0"],
    [15494,"2012-02-11T09:00:00","32.3","ND","22.73","ND","ND","ND","0.8","159.9","21.8","90.4","98.7","1.78"],
    [15495,"2012-02-11T10:00:00","37.2","ND","29.22","ND","ND","ND","1.1","170.4","23.3","83.7","284.6","0"],
    [15496,"2012-02-11T11:00:00","36.5","ND","35.56","ND","ND","ND","0.1","157.5","22.5","87.5","107.1","10.92"],
    [15497,"2012-02-11T12:00:00","40.8","ND","51.58","ND","ND","ND","0.6","305.4","23.6","84.6","362.3","0"],
    [15498,"2012-02-11T13:00:00","37.8","ND","56.73","ND","ND","ND","1.8","115.2","26.2","67.6","601.6","0"],
    [15499,"2012-02-11T14:00:00","24.5","ND","61.72","ND","ND","ND","2","128.2","26.1","66.6","357.4","0"],
    [15500,"2012-02-11T15:00:00","22.8","ND","27.94","ND","ND","ND","1.2","170.5","26.6","64.2","453.1","0"],
    [15501,"2012-02-11T16:00:00","37.4","ND","18.42","ND","ND","ND","0.6","121.3","27.2","60.8","204.6","0"],
    [15502,"2012-02-11T17:00:00","37.7","ND","21.17","ND","ND","ND","0.5","169.8","27.1","61.2","140.6","0"],
    [15503,"2012-02-11T18:00:00","37.7","ND","25.91","ND","ND","ND","0.8","220.5","26.7","60.6","54.3","0"],
    [15504,"2012-02-11T19:00:00","27","ND","28.07","ND","ND","ND","0.9","139.4","25.4","64.3","1","0"],
    [15505,"2012-02-11T20:00:00","21.9","ND","26.33","ND","ND","ND","0.3","231.6","23.6","71.4","0","0"],
    [15506,"2012-02-11T21:00:00","26.7","ND","30.07","ND","ND","ND","0.5","181.4","23.6","69.9","0","0"],
    [15507,"2012-02-11T22:00:00","40.2","ND","33.99","ND","ND","ND","0.1","344.9","23.1","74.5","0","0"],
    [15508,"2012-02-11T23:00:00","38.4","ND","34.38","ND","ND","ND","0","16.9","23","78.6","0","0"],
    [15509,"2012-02-12T00:00:00","61","ND","29.75","ND","ND","ND","0.3","164.7","22.9","79.5","0","0"],
    [15510,"2012-02-12T01:00:00","41","ND","28.22","ND","ND","ND","0.5","233.9","22.8","82.3","0","0"],
    [15511,"2012-02-12T02:00:00","36.2","ND","26.60","ND","ND","ND","0.3","284.4","22","84","0","0"],
    [15512,"2012-02-12T03:00:00","31.2","ND","29.29","ND","ND","ND","0.2","315.6","21.7","84.5","0","0"],
    [15513,"2012-02-12T04:00:00","46.9","ND","25.09","ND","ND","ND","0.1","245.8","21.8","86.1","0","0"],
    [15514,"2012-02-12T05:00:00","30.8","ND","23.23","ND","ND","ND","0.2","54.2","21.7","86.4","0","0"],
    [15515,"2012-02-12T06:00:00","46.7","ND","25.55","ND","ND","ND","0.4","23.4","21.3","89.1","0","0"],
    [15516,"2012-02-12T07:00:00","49.9","ND","26.88","ND","ND","ND","0.5","332.1","21.2","93","1","0.76"],
    [15517,"2012-02-12T08:00:00","45.5","ND","25.55","ND","ND","ND","0.2","39.4","21.1","94.9","21.9","1.02"],
    [15518,"2012-02-12T09:00:00","57.5","ND","21.84","ND","ND","ND","0.2","225.2","22.1","88.5","113","0"],
    [15519,"2012-02-12T10:00:00","39.6","ND","25.27","ND","ND","ND","0.7","173","23.8","76.8","228.5","0"],
    [15520,"2012-02-12T11:00:00","26.5","ND","29.15","ND","ND","ND","0.3","2.9","24.6","77.4","310.1","0"],
    [15521,"2012-02-12T12:00:00","29.9","ND","34.51","ND","ND","ND","0.8","120.8","27","60.7","688.4","0"],
    [15522,"2012-02-12T13:00:00","16","ND","36.88","ND","ND","ND","0.5","356.1","28.5","54.7","698.1","0"],
    [15523,"2012-02-12T14:00:00","8.7","ND","18.33","ND","ND","ND","0.4","198.2","28.7","53","456.1","0"],
    [15524,"2012-02-12T15:00:00","5.1","ND","14.21","ND","ND","ND","0.3","281.7","28.6","53.7","134.4","0"],
    [15525,"2012-02-12T16:00:00","25.9","ND","11.06","ND","ND","ND","1.8","236.4","26.6","59.4","156.5","0"],
    [15526,"2012-02-12T17:00:00","15.7","ND","16.74","ND","ND","ND","1.4","237.3","28.4","51.9","287.4","0"],
    [15527,"2012-02-12T18:00:00","9.8","ND","10.84","ND","ND","ND","0.8","262.6","26.6","55.8","31.4","0"],
    [15528,"2012-02-12T19:00:00","6.4","ND","8.88","ND","ND","ND","0.8","84.8","25.5","61.6","1.6","0"],
    [15529,"2012-02-12T20:00:00","4.8","ND","13.72","ND","ND","ND","0.7","90.9","24.8","64.5","0","0"],
    [15530,"2012-02-12T21:00:00","5","ND","25.00","ND","ND","ND","0.2","53.6","23.1","73.2","0","0"],
    [15531,"2012-02-12T22:00:00","12.7","ND","34.58","ND","ND","ND","0.3","263.5","22.9","74.3","0","0"],
    [15532,"2012-02-12T23:00:00","10.8","ND","26.44","ND","ND","ND","0.3","317.5","22.3","76.7","0","0"],
    [15533,"2012-02-13T00:00:00","22.9","ND","29.30","ND","ND","ND","0.2","253.6","21.6","79.2","0","0"],
    [15534,"2012-02-13T01:00:00","12.8","ND","26.81","ND","ND","ND","0.1","206","21.6","79.7","0","0"],
    [15535,"2012-02-13T02:00:00","25.3","ND","20.91","ND","ND","ND","0","276.9","22","79.4","0","0"],
    [15536,"2012-02-13T03:00:00","14.9","ND","21.44","ND","ND","ND","0.2","291.7","21.7","83.4","0","0"],
    [15537,"2012-02-13T04:00:00","19.3","ND","23.11","ND","ND","ND","0.3","343","20.9","88.6","0","0"],
    [15538,"2012-02-13T05:00:00","22.4","ND","21.40","ND","ND","ND","0.1","4.7","20.9","87.4","0","0"],
    [15539,"2012-02-13T06:00:00","12.6","ND","20.54","ND","ND","ND","0.1","236","21.2","86","0","0"],
    [15540,"2012-02-13T07:00:00","24.9","ND","20.55","ND","ND","ND","0","196","21.5","84.8","4.5","0"],
    [15541,"2012-02-13T08:00:00","46.7","ND","22.09","ND","ND","ND","0.1","25.4","21.8","83.8","32.8","0"],
    [15542,"2012-02-13T09:00:00","60.7","ND","26.83","ND","ND","ND","0.5","92.2","22.6","82.2","169.4","0"],
    [15543,"2012-02-13T10:00:00","70.1","ND","29.67","ND","ND","ND","1.2","168.5","23.5","74.2","281.4","0"],
    [15544,"2012-02-13T11:00:00","48.1","ND","40.10","ND","ND","ND","0.7","179.5","25.2","66","441.3","0"],
    [15545,"2012-02-13T12:00:00","49.4","ND","51.17","ND","ND","ND","1.6","163.3","26.4","61","596.7","0"],
    [15546,"2012-02-13T13:00:00","26.3","ND","33.08","ND","ND","ND","0.2","196.2","27.6","56.2","492.9","0"],
    [15547,"2012-02-13T14:00:00","21","ND","26.50","ND","ND","ND","0.5","107.6","28.6","52.2","669","0"],
    [15548,"2012-02-13T15:00:00","23.1","ND","25.30","ND","ND","ND","1","349.4","29.5","49.8","621.6","0"],
    [15549,"2012-02-13T16:00:00","13.8","ND","19.29","ND","ND","ND","1.7","283.2","28.9","50.4","217.7","0"],
    [15550,"2012-02-13T17:00:00","8.5","ND","17.12","ND","ND","ND","2.1","279.1","28.9","48.9","201.9","0"],
    [15551,"2012-02-13T18:00:00","25.9","ND","18.05","ND","ND","ND","0.8","299.7","27.8","51.7","45.1","0"],
    [15552,"2012-02-13T19:00:00","15.6","ND","13.99","ND","ND","ND","0.3","279.1","26.6","54.5","1.9","0"],
    [15553,"2012-02-13T20:00:00","40.2","ND","20.73","ND","ND","ND","0.4","179.5","25.8","57.6","0","0"],
    [15554,"2012-02-13T21:00:00","27.4","ND","33.20","ND","ND","ND","0.1","260.9","24.6","61.3","0","0"],
    [15555,"2012-02-13T22:00:00","28.4","ND","40.53","ND","ND","ND","1.1","166.2","24.5","65","0","0"],
    [15556,"2012-02-13T23:00:00","23.3","ND","33.47","ND","ND","ND","0.3","338.2","23.3","70.6","0","0"],
    [15557,"2012-02-14T00:00:00","48","ND","35.97","ND","ND","ND","0.2","110.5","23.5","70.1","0","0"],
    [15558,"2012-02-14T01:00:00","26.3","ND","34.22","ND","ND","ND","0.3","37.3","22.8","76.5","0","0"],
    [15559,"2012-02-14T02:00:00","39.5","ND","33.00","ND","ND","ND","0.1","254.9","22.5","77.4","0","0"],
    [15560,"2012-02-14T03:00:00","22.3","ND","28.29","ND","ND","ND","0","271.5","22.1","80.4","0","0"],
    [15561,"2012-02-14T04:00:00","31.8","ND","25.09","ND","ND","ND","0.2","339","21.8","80.1","0","0"],
    [15562,"2012-02-14T05:00:00","31","ND","22.30","ND","ND","ND","0.1","241.8","21.6","80.6","0","0"],
    [15563,"2012-02-14T06:00:00","32.8","ND","20.16","ND","ND","ND","0","265.1","21.2","82.9","0","0"],
    [15564,"2012-02-14T07:00:00","25.3","ND","20.81","ND","ND","ND","0","184.4","21.5","79.4","9.9","0"],
    [15565,"2012-02-14T08:00:00","58.4","ND","22.76","ND","ND","ND","0.3","35.8","22.7","74.9","92.8","0"],
    [15566,"2012-02-14T09:00:00","65.2","ND","29.27","ND","ND","ND","0.6","63.5","23.4","72.8","183.8","0"],
    [15567,"2012-02-14T10:00:00","84","ND","36.59","ND","ND","ND","1.1","141.3","25.1","65.6","428.7","0"],
    [15568,"2012-02-14T11:00:00","66.6","ND","31.20","ND","ND","ND","0.5","93.5","26.9","59.6","644.1","0"],
    [15569,"2012-02-14T12:00:00","52.4","ND","43.63","ND","ND","ND","0.7","164.5","28.2","54.7","600.7","0"],
    [15570,"2012-02-14T13:00:00","27.4","ND","29.87","ND","ND","ND","0.6","285.8","28.1","54.8","401.3","0"],
    [15571,"2012-02-14T14:00:00","45.1","ND","23.60","ND","ND","ND","0.9","278.9","30.2","47.2","814.2","0"],
    [15572,"2012-02-14T15:00:00","23.9","ND","27.06","ND","ND","ND","2.5","263.1","30.8","43","742.3","0"],
    [15573,"2012-02-14T16:00:00","13.8","ND","17.86","ND","ND","ND","4.7","281.9","29.4","45.9","516.3","0"],
    [15574,"2012-02-14T17:00:00","11.9","ND","10.01","ND","ND","ND","3.4","284","29.2","44.8","251.8","0"],
    [15575,"2012-02-14T18:00:00","18.4","ND","7.47","ND","ND","ND","1.2","286.3","28.1","47.1","40.6","0"],
    [15576,"2012-02-14T19:00:00","28.2","ND","9.29","ND","ND","ND","1","102.7","27.5","50.3","1.7","0"],
    [15577,"2012-02-14T20:00:00","35.9","ND","18.37","ND","ND","ND","0.2","133.5","26.8","52.6","0","0"],
    [15578,"2012-02-14T21:00:00","20.4","ND","36.44","ND","ND","ND","0.8","60.4","26.3","57.5","0","0"],
    [15579,"2012-02-14T22:00:00","55.7","ND","41.45","ND","ND","ND","0.8","60.3","25.2","63.2","0","0"],
    [15580,"2012-02-14T23:00:00","30.1","ND","40.75","ND","ND","ND","0.3","165.1","24.7","65.1","0","0"],
    [15581,"2012-02-15T00:00:00","17.3","ND","29.24","ND","ND","ND","0.4","124.1","24","69","0","0"],
    [15582,"2012-02-15T01:00:00","11.5","ND","29.43","ND","ND","ND","0.6","102.6","23.4","72.8","0","0"],
    [15583,"2012-02-15T02:00:00","34.9","ND","28.94","ND","ND","ND","0.9","155.8","23","75.5","0","0"],
    [15584,"2012-02-15T03:00:00","25.8","ND","23.01","ND","ND","ND","0.7","86.1","22.3","78.4","0","0"],
    [15585,"2012-02-15T04:00:00","18.5","ND","13.74","ND","ND","ND","0.3","288.2","21.8","81.4","0","0"],
    [15586,"2012-02-15T05:00:00","11.5","ND","9.65","ND","ND","ND","0.3","189.6","22","81.1","0","0"],
    [15587,"2012-02-15T06:00:00","7.4","ND","11.00","ND","ND","ND","0.2","190.2","21.9","82.5","0","0"],
    [15588,"2012-02-15T07:00:00","22.4","ND","12.19","ND","ND","ND","0.1","9.4","21.6","85.3","4.8","0"],
    [15589,"2012-02-15T08:00:00","30.4","ND","21.21","ND","ND","ND","0.9","11.6","21.4","86.3","90.6","0"],
    [15590,"2012-02-15T09:00:00","52.9","ND","27.76","ND","ND","ND","1","68.2","23","79.1","294.3","0"],
    [15591,"2012-02-15T10:00:00","78.5","ND","28.75","ND","ND","ND","0.8","96.8","25.1","67.1","426","0"],
    [15592,"2012-02-15T11:00:00","41","ND","42.54","ND","ND","ND","0.9","104.4","26.4","61.1","632.1","0"],
    [15593,"2012-02-15T12:00:00","39.5","ND","23.50","ND","ND","ND","1.2","129.7","27.8","55.6","631.9","0"],
    [15594,"2012-02-15T13:00:00","24","ND","19.45","ND","ND","ND","0.5","311.2","27.8","55.1","268.2","0"],
    [15595,"2012-02-15T14:00:00","35","ND","20.82","ND","ND","ND","0.8","291.4","29.2","48.8","585.1","0"],
    [15596,"2012-02-15T15:00:00","23.7","ND","24.14","ND","ND","ND","3.5","261.3","30","44.3","573.4","0"],
    [15597,"2012-02-15T16:00:00","14.2","ND","15.57","ND","ND","ND","4.3","277.3","29.4","44.8","508.8","0"],
    [15598,"2012-02-15T17:00:00","9.7","ND","10.40","ND","ND","ND","3.2","291.4","28.7","46.2","239.5","0"],
    [15599,"2012-02-15T18:00:00","12.6","ND","8.47","ND","ND","ND","1.2","301.1","28.3","46.6","96.4","0"],
    [15600,"2012-02-15T19:00:00","7.1","ND","10.07","ND","ND","ND","0.3","34.4","27.2","50.1","1.3","0"],
    [15601,"2012-02-15T20:00:00","20.9","ND","14.42","ND","ND","ND","0.9","216.9","26.3","53.3","0","0"],
    [15602,"2012-02-15T21:00:00","12.9","ND","33.58","ND","ND","ND","2.9","236.1","25","59","0","0"],
    [15603,"2012-02-15T22:00:00","14.2","ND","36.80","ND","ND","ND","0.1","148.2","24.7","60.7","0","0"],
    [15604,"2012-02-15T23:00:00","12.9","ND","16.03","ND","ND","ND","0.6","113.5","24.6","62.2","0","0"],
    [15605,"2012-02-16T00:00:00","20.2","ND","31.19","ND","ND","ND","0.3","131.4","23.8","68.9","0","0"],
    [15606,"2012-02-16T01:00:00","12.6","ND","32.19","ND","ND","ND","0.2","228.2","23.6","69.8","0","0"],
    [15607,"2012-02-16T02:00:00","7.8","ND","28.49","ND","ND","ND","0.6","150.7","23.2","72.5","0","0"],
    [15608,"2012-02-16T03:00:00","6","ND","26.25","ND","ND","ND","0.4","249.9","22.3","75.7","0","0"],
    [15609,"2012-02-16T04:00:00","9.7","ND","23.22","ND","ND","ND","0.3","298.8","22","77.6","0","0"],
    [15610,"2012-02-16T05:00:00","6.2","ND","21.11","ND","ND","ND","0.1","289.5","21.9","77.8","0","0"],
    [15611,"2012-02-16T06:00:00","15.9","ND","20.39","ND","ND","ND","0.1","318.7","21.6","81.2","0","0"],
    [15612,"2012-02-16T07:00:00","23.7","ND","18.79","ND","ND","ND","0.2","356.5","21","83.5","8.8","0"],
    [15613,"2012-02-16T08:00:00","60.4","ND","21.80","ND","ND","ND","0.4","149.9","22.2","78.6","116.1","0"],
    [15614,"2012-02-16T09:00:00","46.3","ND","24.93","ND","ND","ND","1","144.6","24.5","65.3","341.6","0"],
    [15615,"2012-02-16T10:00:00","54.3","ND","34.16","ND","ND","ND","1.5","131.4","26","60.8","484.7","0"],
    [15616,"2012-02-16T11:00:00","28.5","ND","45.66","ND","ND","ND","1.1","139.6","26.1","60.1","186.6","0"],
    [15617,"2012-02-16T12:00:00","41.4","ND","34.06","ND","ND","ND","0.4","344.4","26.2","60","412.4","0"],
    [15618,"2012-02-16T13:00:00","50.8","ND","21.65","ND","ND","ND","1.4","105.7","28.6","50.2","747.9","0"],
    [15619,"2012-02-16T14:00:00","39.3","ND","32.60","ND","ND","ND","1","289.2","29.8","46","600.9","0"],
    [15620,"2012-02-16T15:00:00","22","ND","22.62","ND","ND","ND","1.5","358.6","29","47","193.5","0"],
    [15621,"2012-02-16T16:00:00","19.9","ND","19.49","ND","ND","ND","0.2","339.9","29.5","45.5","240.4","0"],
    [15622,"2012-02-16T17:00:00","13.5","ND","13.82","ND","ND","ND","3.3","267.7","29.3","47.2","295.8","0"],
    [15623,"2012-02-16T18:00:00","32.2","ND","15.46","ND","ND","ND","2.7","278","28.2","48","98","0"],
    [15624,"2012-02-16T19:00:00","18.2","ND","12.58","ND","ND","ND","1.4","277.5","26.8","51.4","1.3","0"],
    [15625,"2012-02-16T20:00:00","29.2","ND","16.18","ND","ND","ND","0.6","136.5","26.2","54.2","0","0"],
    [15626,"2012-02-16T21:00:00","16.2","ND","22.67","ND","ND","ND","0.9","91.1","25.7","58.2","0","0"],
    [15627,"2012-02-16T22:00:00","46.3","ND","43.76","ND","ND","ND","0.9","137.1","24.7","64.2","0","0"],
    [15628,"2012-02-16T23:00:00","64.1","ND","44.10","ND","ND","ND","0.4","150.4","24.2","66.8","0","0"],
    [15629,"2012-02-17T00:00:00","70.3","ND","37.81","ND","ND","ND","0.3","256.9","23.6","68","0","0"],
    [15630,"2012-02-17T01:00:00","48.7","ND","36.95","ND","ND","ND","0.7","231.6","23.5","66.8","0","0"],
    [15631,"2012-02-17T02:00:00","52.5","ND","35.08","ND","ND","ND","0.6","26.3","22.4","74.9","0","0"],
    [15632,"2012-02-17T03:00:00","36.7","ND","28.81","ND","ND","ND","0.7","128.3","22.4","77","0","0"],
    [15633,"2012-02-17T04:00:00","47.2","ND","22.87","ND","ND","ND","0.6","100.7","22.1","79.1","0","0"],
    [15634,"2012-02-17T05:00:00","25.8","ND","20.50","ND","ND","ND","0.6","29.6","21.3","80.6","0","0"],
    [15635,"2012-02-17T06:00:00","23.3","ND","17.26","ND","ND","ND","0.2","70.7","21.5","78.4","0","0"],
    [15636,"2012-02-17T07:00:00","13.1","ND","19.80","ND","ND","ND","0.2","352.8","21","81.7","6.7","0"],
    [15637,"2012-02-17T08:00:00","24.2","ND","24.56","ND","ND","ND","0.6","189.3","21.8","77.5","79.8","0"],
    [15638,"2012-02-17T09:00:00","13.9","ND","29.83","ND","ND","ND","1.2","165.1","23.3","70.5","292.8","0"],
    [15639,"2012-02-17T10:00:00","36.9","ND","34.70","ND","ND","ND","0.6","123.5","25","62.9","478.7","0"],
    [15640,"2012-02-17T11:00:00","24.8","ND","35.62","ND","ND","ND","1.2","109.4","26.6","56.2","704.8","0"],
    [15641,"2012-02-17T12:00:00","26.9","ND","25.73","ND","ND","ND","0.3","149.3","27.1","54.7","323.5","0"],
    [15642,"2012-02-17T13:00:00","32.8","ND","24.05","ND","ND","ND","0.1","207.1","27.9","52.3","399.1","0"],
    [15643,"2012-02-17T14:00:00","42.7","ND","23.41","ND","ND","ND","0.7","241.9","29","46.8","629.2","0"],
    [15644,"2012-02-17T15:00:00","22.6","ND","22.37","ND","ND","ND","3.2","260.6","30","44.4","688.5","0"],
    [15645,"2012-02-17T16:00:00","26","ND","10.71","ND","ND","ND","4.1","287.2","29.1","45.4","488.9","0"],
    [15646,"2012-02-17T17:00:00","23.1","ND","11.78","ND","ND","ND","2.8","270.2","29","45","263.9","0"],
    [15647,"2012-02-17T18:00:00","19.7","ND","10.27","ND","ND","ND","2.1","274.9","27.6","47.9","34.1","0"],
    [15648,"2012-02-17T19:00:00","37.1","ND","14.33","ND","ND","ND","0.7","267","26.7","51.5","3.2","0"],
    [15649,"2012-02-17T20:00:00","37.9","ND","18.92","ND","ND","ND","0.3","139.6","26.1","54.5","0","0"],
    [15650,"2012-02-17T21:00:00","ND","ND","29.32","ND","ND","ND","ND","ND","ND","ND","ND","ND"],
    [15651,"2012-02-17T22:00:00","ND","ND","ND","ND","ND","ND","ND","ND","ND","ND","ND","ND"],
    [15652,"2012-02-17T23:00:00","ND","ND","ND","ND","ND","ND","ND","ND","ND","ND","ND","ND"],
    [15653,"2012-02-18T00:00:00","ND","ND","ND","ND","ND","ND","ND","ND","ND","ND","ND","ND"],
    [15654,"2012-02-18T01:00:00","ND","ND","ND","ND","ND","ND","ND","ND","ND","ND","ND","ND"],
    [15655,"2012-02-18T02:00:00","ND","ND","ND","ND","ND","ND","ND","ND","ND","ND","ND","ND"],
    [15656,"2012-02-18T03:00:00","ND","ND","ND","ND","ND","ND","ND","ND","ND","ND","ND","ND"],
    [15657,"2012-02-18T04:00:00","ND","ND","ND","ND","ND","ND","ND","ND","ND","ND","ND","ND"],
    [15658,"2012-02-18T05:00:00","ND","ND","ND","ND","ND","ND","ND","ND","ND","ND","ND","ND"],
    [15659,"2012-02-18T06:00:00","ND","ND","ND","ND","ND","ND","ND","ND","ND","ND","ND","ND"],
    [15660,"2012-02-18T07:00:00","ND","ND","ND","ND","ND","ND","ND","ND","ND","ND","ND","ND"],
    [15661,"2012-02-18T08:00:00","ND","ND","ND","ND","ND","ND","ND","ND","ND","ND","ND","ND"],
    [15662,"2012-02-18T09:00:00","ND","ND","ND","ND","ND","ND","ND","ND","ND","ND","ND","ND"],
    [15663,"2012-02-18T10:00:00","ND","ND","ND","ND","ND","ND","ND","ND","ND","ND","ND","ND"],
    [15664,"2012-02-18T11:00:00","ND","ND","ND","ND","ND","ND","ND","ND","ND","ND","ND","ND"],
    [15665,"2012-02-18T12:00:00","ND","ND","ND","ND","ND","ND","ND","ND","ND","ND","ND","ND"],
    [15666,"2012-02-18T13:00:00","ND","ND","ND","ND","ND","ND","ND","ND","ND","ND","ND","ND"],
    [15667,"2012-02-18T14:00:00","ND","ND","ND","ND","ND","ND","ND","ND","ND","ND","ND","ND"],
    [15668,"2012-02-18T15:00:00","ND","ND","ND","ND","ND","ND","ND","ND","ND","ND","ND","ND"],
    [15669,"2012-02-18T16:00:00","ND","ND","ND","ND","ND","ND","ND","ND","ND","ND","ND","ND"],
    [15670,"2012-02-18T17:00:00","ND","ND","ND","ND","ND","ND","ND","ND","ND","ND","ND","ND"],
    [15671,"2012-02-18T18:00:00","ND","ND","ND","ND","ND","ND","ND","ND","ND","ND","ND","ND"],
    [15672,"2012-02-18T19:00:00","ND","ND","ND","ND","ND","ND","ND","ND","ND","ND","ND","ND"],
    [15673,"2012-02-18T20:00:00","ND","ND","ND","ND","ND","ND","ND","ND","ND","ND","ND","ND"],
    [15674,"2012-02-18T21:00:00","ND","ND","ND","ND","ND","ND","ND","ND","ND","ND","ND","ND"],
    [15675,"2012-02-18T22:00:00","ND","ND","ND","ND","ND","ND","ND","ND","ND","ND","ND","ND"],
    [15676,"2012-02-18T23:00:00","ND","ND","ND","ND","ND","ND","ND","ND","ND","ND","ND","ND"],
    [15677,"2012-02-19T00:00:00","ND","ND","ND","ND","ND","ND","ND","ND","ND","ND","ND","ND"],
    [15678,"2012-02-19T01:00:00","ND","ND","ND","ND","ND","ND","ND","ND","ND","ND","ND","ND"],
    [15679,"2012-02-19T02:00:00","ND","ND","ND","ND","ND","ND","ND","ND","ND","ND","ND","ND"],
    [15680,"2012-02-19T03:00:00","ND","ND","ND","ND","ND","ND","ND","ND","ND","ND","ND","ND"],
    [15681,"2012-02-19T04:00:00","ND","ND","ND","ND","ND","ND","ND","ND","ND","ND","ND","ND"],
    [15682,"2012-02-19T05:00:00","ND","ND","ND","ND","ND","ND","ND","ND","ND","ND","ND","ND"],
    [15683,"2012-02-19T06:00:00","ND","ND","ND","ND","ND","ND","ND","ND","ND","ND","ND","ND"],
    [15684,"2012-02-19T07:00:00","ND","ND","ND","ND","ND","ND","ND","ND","ND","ND","ND","ND"],
    [15685,"2012-02-19T08:00:00","ND","ND","ND","ND","ND","ND","ND","ND","ND","ND","ND","ND"],
    [15686,"2012-02-19T09:00:00","ND","ND","ND","ND","ND","ND","ND","ND","ND","ND","ND","ND"],
    [15687,"2012-02-19T10:00:00","ND","ND","ND","ND","ND","ND","ND","ND","ND","ND","ND","ND"],
    [15688,"2012-02-19T11:00:00","ND","ND","ND","ND","ND","ND","ND","ND","ND","ND","ND","ND"],
    [15689,"2012-02-19T12:00:00","ND","ND","ND","ND","ND","ND","ND","ND","ND","ND","ND","ND"],
    [15690,"2012-02-19T13:00:00","ND","ND","ND","ND","ND","ND","ND","ND","ND","ND","ND","ND"],
    [15691,"2012-02-19T14:00:00","ND","ND","ND","ND","ND","ND","ND","ND","ND","ND","ND","ND"],
    [15692,"2012-02-19T15:00:00","ND","ND","ND","ND","ND","ND","ND","ND","ND","ND","ND","ND"],
    [15693,"2012-02-19T16:00:00","ND","ND","ND","ND","ND","ND","ND","ND","ND","ND","ND","ND"],
    [15694,"2012-02-19T17:00:00","ND","ND","ND","ND","ND","ND","ND","ND","ND","ND","ND","ND"],
    [15695,"2012-02-19T18:00:00","ND","ND","ND","ND","ND","ND","ND","ND","ND","ND","ND","ND"],
    [15696,"2012-02-19T19:00:00","ND","ND","ND","ND","ND","ND","ND","ND","ND","ND","ND","ND"],
    [15697,"2012-02-19T20:00:00","ND","ND","ND","ND","ND","ND","ND","ND","ND","ND","ND","ND"],
    [15698,"2012-02-19T21:00:00","ND","ND","ND","ND","ND","ND","ND","ND","ND","ND","ND","ND"],
    [15699,"2012-02-19T22:00:00","ND","ND","ND","ND","ND","ND","ND","ND","ND","ND","ND","ND"],
    [15700,"2012-02-19T23:00:00","ND","ND","ND","ND","ND","ND","ND","ND","ND","ND","ND","ND"],
    [15701,"2012-02-20T00:00:00","ND","ND","ND","ND","ND","ND","ND","ND","ND","ND","ND","ND"],
    [15702,"2012-02-20T01:00:00","ND","ND","ND","ND","ND","ND","ND","ND","ND","ND","ND","ND"],
    [15703,"2012-02-20T02:00:00","ND","ND","ND","ND","ND","ND","ND","ND","ND","ND","ND","ND"],
    [15704,"2012-02-20T03:00:00","ND","ND","ND","ND","ND","ND","ND","ND","ND","ND","ND","ND"],
    [15705,"2012-02-20T04:00:00","ND","ND","ND","ND","ND","ND","ND","ND","ND","ND","ND","ND"],
    [15706,"2012-02-20T05:00:00","ND","ND","ND","ND","ND","ND","ND","ND","ND","ND","ND","ND"],
    [15707,"2012-02-20T06:00:00","ND","ND","ND","ND","ND","ND","ND","ND","ND","ND","ND","ND"],
    [15708,"2012-02-20T07:00:00","ND","ND","ND","ND","ND","ND","ND","ND","ND","ND","ND","ND"],
    [15709,"2012-02-20T08:00:00","ND","ND","ND","ND","ND","ND","ND","ND","ND","ND","ND","ND"],
    [15710,"2012-02-20T09:00:00","ND","ND","ND","ND","ND","ND","ND","ND","ND","ND","ND","ND"],
    [15711,"2012-02-20T10:00:00","ND","ND","ND","ND","ND","ND","ND","ND","ND","ND","ND","ND"],
    [15712,"2012-02-20T11:00:00","ND","ND","ND","ND","ND","ND","ND","ND","ND","ND","ND","ND"],
    [15713,"2012-02-20T12:00:00","ND","ND","ND","ND","ND","ND","ND","ND","ND","ND","ND","ND"],
    [15714,"2012-02-20T13:00:00","ND","ND","ND","ND","ND","ND","ND","ND","ND","ND","ND","ND"],
    [15715,"2012-02-20T14:00:00","ND","ND","ND","ND","ND","ND","ND","ND","ND","ND","ND","ND"],
    [15716,"2012-02-20T15:00:00","ND","ND","ND","ND","ND","ND","ND","ND","ND","ND","ND","ND"],
    [15717,"2012-02-20T16:00:00","ND","ND","ND","ND","ND","ND","ND","ND","ND","ND","ND","ND"],
    [15718,"2012-02-20T17:00:00","ND","ND","ND","ND","ND","ND","ND","ND","ND","ND","ND","ND"],
    [15719,"2012-02-20T18:00:00","ND","ND","ND","ND","ND","ND","ND","ND","ND","ND","ND","ND"],
    [15720,"2012-02-20T19:00:00","ND","ND","ND","ND","ND","ND","ND","ND","ND","ND","ND","ND"],
    [15721,"2012-02-20T20:00:00","ND","ND","ND","ND","ND","ND","ND","ND","ND","ND","ND","ND"],
    [15722,"2012-02-20T21:00:00","ND","ND","ND","ND","ND","ND","ND","ND","ND","ND","ND","ND"],
    [15723,"2012-02-20T22:00:00","ND","ND","ND","ND","ND","ND","ND","ND","ND","ND","ND","ND"],
    [15724,"2012-02-20T23:00:00","ND","ND","ND","ND","ND","ND","ND","ND","ND","ND","ND","ND"],
    [15725,"2012-02-21T00:00:00","ND","ND","ND","ND","ND","ND","ND","ND","ND","ND","ND","ND"],
    [15726,"2012-02-21T01:00:00","ND","ND","ND","ND","ND","ND","ND","ND","ND","ND","ND","ND"],
    [15727,"2012-02-21T02:00:00","ND","ND","ND","ND","ND","ND","ND","ND","ND","ND","ND","ND"],
    [15728,"2012-02-21T03:00:00","ND","ND","ND","ND","ND","ND","ND","ND","ND","ND","ND","ND"],
    [15729,"2012-02-21T04:00:00","ND","ND","ND","ND","ND","ND","ND","ND","ND","ND","ND","ND"],
    [15730,"2012-02-21T05:00:00","ND","ND","ND","ND","ND","ND","ND","ND","ND","ND","ND","ND"],
    [15731,"2012-02-21T06:00:00","ND","ND","ND","ND","ND","ND","ND","ND","ND","ND","ND","ND"],
    [15732,"2012-02-21T07:00:00","ND","ND","ND","ND","ND","ND","ND","ND","ND","ND","ND","ND"],
    [15733,"2012-02-21T08:00:00","ND","ND","ND","ND","ND","ND","ND","ND","ND","ND","ND","ND"],
    [15734,"2012-02-21T09:00:00","ND","ND","ND","ND","ND","ND","ND","ND","ND","ND","ND","ND"],
    [15735,"2012-02-21T10:00:00","ND","ND","ND","ND","ND","ND","1","138.8","25.3","63.7","472.6","0"],
    [15736,"2012-02-21T11:00:00","ND","ND","ND","ND","ND","ND","0.9","136.2","26.8","57.2","555.7","0"],
    [15737,"2012-02-21T12:00:00","ND","ND","27.23","ND","ND","ND","0.8","80.3","27.3","55.9","293.1","0"],
    [15738,"2012-02-21T13:00:00","ND","ND","25.39","ND","ND","ND","0.2","98.9","28.7","50.6","585.6","0"],
    [15739,"2012-02-21T14:00:00","ND","ND","16.93","ND","ND","ND","1.2","336.6","29","50.3","442","0"],
    [15740,"2012-02-21T15:00:00","ND","ND","16.01","ND","ND","ND","1.9","302.6","28.4","49.7","226.4","0"],
    [15741,"2012-02-21T16:00:00","ND","ND","21.34","ND","ND","ND","2.7","280.3","29","47.5","422.5","0"],
    [15742,"2012-02-21T17:00:00","ND","ND","14.74","ND","ND","ND","2.4","268","28.9","46.7","211.2","0"],
    [15743,"2012-02-21T18:00:00","ND","ND","10.44","ND","ND","ND","1.7","256.4","28","49.3","46.1","0"],
    [15744,"2012-02-21T19:00:00","ND","ND","14.84","ND","ND","ND","0.6","233","27","51.1","1.8","0"],
    [15745,"2012-02-21T20:00:00","ND","ND","30.49","ND","ND","ND","0.1","26.1","26.4","53.8","0","0"],
    [15746,"2012-02-21T21:00:00","ND","ND","39.76","ND","ND","ND","0.6","50.6","25.5","61.3","0","0"],
    [15747,"2012-02-21T22:00:00","ND","ND","53.90","ND","ND","ND","0.2","45.9","24.2","67.2","0","0"],
    [15748,"2012-02-21T23:00:00","102.7","ND","50.62","ND","ND","ND","0.1","291.1","23.6","70.6","0","0"],
    [15749,"2012-02-22T00:00:00","105.6","ND","43.06","ND","ND","ND","0.2","21.5","22.8","74.2","0","0"],
    [15750,"2012-02-22T01:00:00","87.5","ND","43.75","ND","ND","ND","0.5","287.4","21.9","80.4","0","0"],
    [15751,"2012-02-22T02:00:00","90.3","ND","38.97","ND","ND","ND","0.3","294.8","21.6","80.7","0","0"],
    [15752,"2012-02-22T03:00:00","57.6","ND","35.79","ND","ND","ND","0.2","253.3","21.7","79.9","0","0"],
    [15753,"2012-02-22T04:00:00","64.8","ND","28.48","ND","ND","ND","0.1","216","22","78.8","0","0"],
    [15754,"2012-02-22T05:00:00","54.3","ND","25.79","ND","ND","ND","0.5","165.5","22.1","76.8","0","0"],
    [15755,"2012-02-22T06:00:00","50","ND","24.77","ND","ND","ND","0","73.3","21.7","79.6","0","0"],
    [15756,"2012-02-22T07:00:00","54.8","ND","18.51","ND","ND","ND","0.2","269.7","21.7","79.5","6.3","0"],
    [15757,"2012-02-22T08:00:00","42.1","ND","27.53","ND","ND","ND","0.3","59.7","22.6","75.1","73.3","0"],
    [15758,"2012-02-22T09:00:00","59.9","ND","33.80","ND","ND","ND","0.8","22.2","23","74.7","126.7","0"],
    [15759,"2012-02-22T10:00:00","69.1","ND","37.79","ND","ND","ND","0.5","71.3","24.3","70.4","355.7","0"],
    [15760,"2012-02-22T11:00:00","78.2","ND","43.84","ND","ND","ND","1","78.9","26","61.6","546.3","0"],
    [15761,"2012-02-22T12:00:00","77.5","ND","44.35","ND","ND","ND","1.7","36.9","25.6","63.1","198.7","0"],
    [15762,"2012-02-22T13:00:00","70.7","ND","29.72","ND","ND","ND","1.6","42.6","25.3","63","139.7","0"],
    [15763,"2012-02-22T14:00:00","62.1","ND","19.55","ND","ND","ND","0.8","38.9","25.7","63.7","200","0"],
    [15764,"2012-02-22T15:00:00","39.5","ND","24.13","ND","ND","ND","1.2","56","26.4","61.1","288.8","0"],
    [15765,"2012-02-22T16:00:00","65.5","ND","37.41","ND","ND","ND","0.4","186.5","27.2","56.7","289","0"],
    [15766,"2012-02-22T17:00:00","61.3","ND","39.52","ND","ND","ND","1","237.2","27.5","53.7","117.1","0"],
    [15767,"2012-02-22T18:00:00","55.4","ND","31.70","ND","ND","ND","1.4","174.8","27","54","12.3","0"],
    [15768,"2012-02-22T19:00:00","44.6","ND","27.89","ND","ND","ND","0.9","187.8","25.9","58","1.2","0"],
    [15769,"2012-02-22T20:00:00","43","ND","32.72","ND","ND","ND","0.2","303.4","24.6","64.3","0","0"],
    [15770,"2012-02-22T21:00:00","28.2","ND","40.12","ND","ND","ND","0.1","301.8","24","65.1","0","0"],
    [15771,"2012-02-22T22:00:00","52.3","ND","54.55","ND","ND","ND","0.1","288.5","23.4","67.1","0","0"],
    [15772,"2012-02-22T23:00:00","33","ND","48.05","ND","ND","ND","0.3","235.9","23.3","68.2","0","0"],
    [15773,"2012-02-23T00:00:00","45.8","ND","46.11","ND","ND","ND","0.2","273.6","22.6","71.2","0","0"],
    [15774,"2012-02-23T01:00:00","30.7","ND","42.78","ND","ND","ND","0.3","208.9","22.4","72.5","0","0"],
    [15775,"2012-02-23T02:00:00","44.2","ND","41.11","ND","ND","ND","0.4","309.6","21.5","75.9","0","0"],
    [15776,"2012-02-23T03:00:00","28.9","ND","37.80","ND","ND","ND","0.1","357.7","21.1","78.7","0","0"],
    [15777,"2012-02-23T04:00:00","45.6","ND","27.18","ND","ND","ND","0.2","180.9","21","76.2","0","0"],
    [15778,"2012-02-23T05:00:00","24.4","ND","29.04","ND","ND","ND","0","251.4","20.7","80.6","0","0"],
    [15779,"2012-02-23T06:00:00","21.3","ND","21.18","ND","ND","ND","0.1","338.1","20.2","82.1","0","0"],
    [15780,"2012-02-23T07:00:00","32.2","ND","23.89","ND","ND","ND","0.1","44.1","20.4","81.6","6.9","0"],
    [15781,"2012-02-23T08:00:00","61.2","ND","25.48","ND","ND","ND","0.2","82","21.9","74.6","98.1","0"],
    [15782,"2012-02-23T09:00:00","76.4","ND","34.33","ND","ND","ND","1.1","43.2","23","71.3","269.8","0"],
    [15783,"2012-02-23T10:00:00","68.3","ND","44.56","ND","ND","ND","0.9","86","24.8","64.6","498.1","0"],
    [15784,"2012-02-23T11:00:00","61.7","ND","41.88","ND","ND","ND","1.1","112.4","26.3","59.1","601.3","0"],
    [15785,"2012-02-23T12:00:00","54.1","ND","21.49","ND","ND","ND","1.3","111","27.9","52.5","733.7","0"],
    [15786,"2012-02-23T13:00:00","46","ND","21.70","ND","ND","ND","0.7","80.4","29.1","48.3","699.8","0"],
    [15787,"2012-02-23T14:00:00","57.9","ND","18.25","ND","ND","ND","0.9","54.1","29.8","46.7","659.8","0"],
    [15788,"2012-02-23T15:00:00","63.2","ND","16.63","ND","ND","ND","1.8","290.5","30.3","45.3","557.1","0"],
    [15789,"2012-02-23T16:00:00","46","ND","15.49","ND","ND","ND","2.4","295.3","30.2","44.4","429.7","0"],
    [15790,"2012-02-23T17:00:00","25.3","ND","15.39","ND","ND","ND","2.6","277.4","29.5","45.6","238.2","0"],
    [15791,"2012-02-23T18:00:00","13.5","ND","11.41","ND","ND","ND","1.3","262.7","29","46","72.5","0"],
    [15792,"2012-02-23T19:00:00","21.2","ND","14.28","ND","ND","ND","1.9","241.2","27.4","50.8","2.3","0"],
    [15793,"2012-02-23T20:00:00","29.2","ND","26.30","ND","ND","ND","1","246.3","26.5","54.1","0","0"],
    [15794,"2012-02-23T21:00:00","37.3","ND","32.24","ND","ND","ND","0.6","259.9","25.8","56.8","0","0"],
    [15795,"2012-02-23T22:00:00","54.2","ND","43.85","ND","ND","ND","1.1","58.6","25.4","59.4","0","0"],
    [15796,"2012-02-23T23:00:00","53.7","ND","46.28","ND","ND","ND","0.8","79.8","24.6","65.8","0","0"],
    [15797,"2012-02-24T00:00:00","90.2","ND","50.05","ND","ND","ND","0.3","348.9","23.2","71.9","0","0"],
    [15798,"2012-02-24T01:00:00","83.5","ND","47.61","ND","ND","ND","0.2","315.9","22.8","75.3","0","0"],
    [15799,"2012-02-24T02:00:00","66.3","ND","42.21","ND","ND","ND","0.4","349.2","22.5","76.9","0","0"],
    [15800,"2012-02-24T03:00:00","47.2","ND","36.55","ND","ND","ND","0.6","24.2","22.3","78.3","0","0"],
    [15801,"2012-02-24T04:00:00","66.1","ND","33.67","ND","ND","ND","0.2","231.6","22.4","77.4","0","0"],
    [15802,"2012-02-24T05:00:00","51","ND","31.85","ND","ND","ND","0.5","304.5","21.9","78.9","0","0"],
    [15803,"2012-02-24T06:00:00","75.2","ND","32.32","ND","ND","ND","0.3","50.1","21.7","79.6","0","0"],
    [15804,"2012-02-24T07:00:00","99.6","ND","28.37","ND","ND","ND","0.2","358","21.3","82.1","7.1","0"],
    [15805,"2012-02-24T08:00:00","89.4","ND","32.29","ND","ND","ND","0.5","156.4","22.4","77","59.4","0"],
    [15806,"2012-02-24T09:00:00","96.8","ND","32.56","ND","ND","ND","0.7","60.6","23.3","76","178.2","0"],
    [15807,"2012-02-24T10:00:00","ND","ND","46.03","ND","ND","ND","0.9","109.7","25.1","65.6","472.8","0"],
    [15808,"2012-02-24T11:00:00","85.1","ND","54.68","ND","ND","ND","0.7","109","26.7","58.3","565.1","0"],
    [15809,"2012-02-24T12:00:00","65.6","ND","47.75","ND","ND","ND","1.2","120.7","28","53.2","580.9","0"],
    [15810,"2012-02-24T13:00:00","44.2","ND","33.65","ND","ND","ND","0.8","75.7","28.9","50","409","0"],
    [15811,"2012-02-24T14:00:00","58","ND","26.29","ND","ND","ND","0.7","309.7","28.6","51.3","262.6","0"],
    [15812,"2012-02-24T15:00:00","70.7","ND","22.89","ND","ND","ND","0.7","100","29.1","50.2","312.3","0"],
    [15813,"2012-02-24T16:00:00","55.9","ND","23.39","ND","ND","ND","0.4","82.8","29.7","48.8","332.7","0"],
    [15814,"2012-02-24T17:00:00","49.3","ND","19.46","ND","ND","ND","0.9","348.6","28.7","49.9","66.1","0"],
    [15815,"2012-02-24T18:00:00","62.3","ND","23.99","ND","ND","ND","1.4","238.3","27.8","53.2","34.5","0"],
    [15816,"2012-02-24T19:00:00","57.1","ND","25.06","ND","ND","ND","1.4","238.4","25.7","63.4","1.2","0"],
    [15817,"2012-02-24T20:00:00","63.6","ND","39.06","ND","ND","ND","0.2","163.8","26","60.3","0","0"],
    [15818,"2012-02-24T21:00:00","58.1","ND","43.26","ND","ND","ND","0.2","198.3","25.8","61","0","0"],
    [15819,"2012-02-24T22:00:00","63.6","ND","52.44","ND","ND","ND","0.6","122.6","25.3","63.3","0","0"],
    [15820,"2012-02-24T23:00:00","59.2","ND","59.09","ND","ND","ND","0.2","199.3","24.7","66.5","0","0"],
    [15821,"2012-02-25T00:00:00","70.7","ND","54.94","ND","ND","ND","0.1","316.3","24.2","69.3","0","0"],
    [15822,"2012-02-25T01:00:00","64.2","ND","47.18","ND","ND","ND","0.9","120.2","24","70.6","0","0"],
    [15823,"2012-02-25T02:00:00","49.7","ND","44.58","ND","ND","ND","0.4","33.7","23.1","76.1","0","0"],
    [15824,"2012-02-25T03:00:00","34.2","ND","32.71","ND","ND","ND","0.2","139.9","22.5","81.9","0","0"],
    [15825,"2012-02-25T04:00:00","40.3","ND","29.45","ND","ND","ND","0.6","335.9","22.2","82.6","0","0"],
    [15826,"2012-02-25T05:00:00","19.2","ND","26.70","ND","ND","ND","0.6","0.8","20.5","93.8","0","18.03"],
    [15827,"2012-02-25T06:00:00","34","ND","26.64","ND","ND","ND","0.5","166.3","20.1","96.9","0","1.78"],
    [15828,"2012-02-25T07:00:00","19.7","ND","18.78","ND","ND","ND","0.3","201.8","20.5","95.8","3.5","0.51"],
    [15829,"2012-02-25T08:00:00","32.3","ND","30.85","ND","ND","ND","0.2","272.8","20.9","91.5","33.3","0.51"],
    [15830,"2012-02-25T09:00:00","3.3","ND","32.67","ND","ND","ND","0.2","130.7","22.6","82.3","227.1","0"],
    [15831,"2012-02-25T10:00:00","10.5","ND","32.34","ND","ND","ND","0.9","151.4","23.8","75.6","315.5","0"],
    [15832,"2012-02-25T11:00:00","15.6","ND","44.21","ND","ND","ND","0.8","96.8","25.5","66.8","501.2","0"],
    [15833,"2012-02-25T12:00:00","36","ND","60.28","ND","ND","ND","0.6","88.2","26.3","64","371.3","0"],
    [15834,"2012-02-25T13:00:00","38.3","ND","42.09","ND","ND","ND","0.4","133.1","26.7","61.4","194.8","0"],
    [15835,"2012-02-25T14:00:00","49.7","ND","31.06","ND","ND","ND","0.8","236.6","26.6","60.9","210.1","0"],
    [15836,"2012-02-25T15:00:00","32.4","ND","34.33","ND","ND","ND","1.8","243.8","26.9","56.3","277.7","0"],
    [15837,"2012-02-25T16:00:00","18.8","ND","28.58","ND","ND","ND","1.3","297","26.8","55.1","176.4","0"],
    [15838,"2012-02-25T17:00:00","10.8","ND","16.60","ND","ND","ND","0.6","313.9","26.4","55.1","102.7","0"],
    [15839,"2012-02-25T18:00:00","15.6","ND","12.49","ND","ND","ND","1","18.8","25.8","57.5","18.4","0"],
    [15840,"2012-02-25T19:00:00","9.2","ND","14.84","ND","ND","ND","1.6","238.6","24.7","60.9","1.2","0"],
    [15841,"2012-02-25T20:00:00","21","ND","20.02","ND","ND","ND","0.2","187.2","24.1","64.2","0","0"],
    [15842,"2012-02-25T21:00:00","16","ND","21.88","ND","ND","ND","0.5","130.2","23.4","70.5","0","0"],
    [15843,"2012-02-25T22:00:00","33.9","ND","38.85","ND","ND","ND","0.2","126.7","22.8","76.5","0","0"],
    [15844,"2012-02-25T23:00:00","18.3","ND","36.10","ND","ND","ND","0.8","341.3","22.4","79.7","0","0"],
    [15845,"2012-02-26T00:00:00","40.7","ND","34.45","ND","ND","ND","0.8","23.9","21.5","86","0","0"],
    [15846,"2012-02-26T01:00:00","26.7","ND","34.97","ND","ND","ND","0.3","42.3","21.1","87.9","0","0"],
    [15847,"2012-02-26T02:00:00","37.5","ND","24.44","ND","ND","ND","0.2","30","21.1","87.5","0","0.51"],
    [15848,"2012-02-26T03:00:00","2.6","ND","20.93","ND","ND","ND","0.3","129","20.5","92.8","0.7","6.1"],
    [15849,"2012-02-26T04:00:00","32.1","ND","20.15","ND","ND","ND","0.9","189.4","19.6","96.3","0.4","5.33"],
    [15850,"2012-02-26T05:00:00","18","ND","19.79","ND","ND","ND","0.6","166.5","19.8","95.4","0","0.51"],
    [15851,"2012-02-26T06:00:00","11.5","ND","19.78","ND","ND","ND","0","174.4","20.2","92.7","0","0"],
    [15852,"2012-02-26T07:00:00","8.5","ND","21.87","ND","ND","ND","0","269.7","20.4","93.3","2.8","0"],
    [15853,"2012-02-26T08:00:00","10.1","ND","21.53","ND","ND","ND","0.4","138.1","21","91.2","62.2","0"],
    [15854,"2012-02-26T09:00:00","7","ND","23.84","ND","ND","ND","0.4","153.1","21.8","85.4","145.6","0"],
    [15855,"2012-02-26T10:00:00","14","ND","28.99","ND","ND","ND","0.8","129","22.7","81.8","230.6","0"],
    [15856,"2012-02-26T11:00:00","9.6","ND","32.71","ND","ND","ND","0.6","139.1","24.3","71.9","560.2","0"],
    [15857,"2012-02-26T12:00:00","26.8","ND","35.46","ND","ND","ND","1.6","115.4","25.8","66.2","541.6","0"],
    [15858,"2012-02-26T13:00:00","15.1","ND","22.32","ND","ND","ND","0.6","141.7","26.8","59.8","523","0"],
    [15859,"2012-02-26T14:00:00","9.6","ND","14.63","ND","ND","ND","0.9","77.4","27.8","56.4","616.8","0"],
    [15860,"2012-02-26T15:00:00","6.1","ND","11.77","ND","ND","ND","0.9","248.5","28.6","53","621.5","0"],
    [15861,"2012-02-26T16:00:00","4.3","ND","12.89","ND","ND","ND","1.2","155.9","29.3","48.2","238.3","0"],
    [15862,"2012-02-26T17:00:00","4.2","ND","11.79","ND","ND","ND","1.5","223.4","28","53.9","112","0"],
    [15863,"2012-02-26T18:00:00","2.9","ND","5.99","ND","ND","ND","1.3","147","21.6","84.3","11.3","8.64"],
    [15864,"2012-02-26T19:00:00","2.9","ND","10.99","ND","ND","ND","0.6","314.2","22.2","85.3","0.3","0"],
    [15865,"2012-02-26T20:00:00","25","ND","40.15","ND","ND","ND","0.3","218.1","22.6","87.5","0","0.25"],
    [15866,"2012-02-26T21:00:00","43.4","ND","38.75","ND","ND","ND","2","187.7","22.8","83.4","0","0"],
    [15867,"2012-02-26T22:00:00","35.4","ND","39.54","ND","ND","ND","1.5","181.2","22.5","82.5","0","0"],
    [15868,"2012-02-26T23:00:00","18.6","ND","37.82","ND","ND","ND","0.1","302.8","22.5","83.6","0","0.25"],
    [15869,"2012-02-27T00:00:00","25.4","ND","40.94","ND","ND","ND","0.1","249.1","22.1","87.8","0","0"],
    [15870,"2012-02-27T01:00:00","13.4","ND","45.42","ND","ND","ND","0.3","346.1","21.6","90.8","0","0"],
    [15871,"2012-02-27T02:00:00","19.9","ND","27.74","ND","ND","ND","0.5","31.4","21.1","92.1","0","0"],
    [15872,"2012-02-27T03:00:00","17.1","ND","29.41","ND","ND","ND","0.3","357.6","20.9","92","0","0"],
    [15873,"2012-02-27T04:00:00","26","ND","23.27","ND","ND","ND","0.1","221.2","20.6","92.8","0","0"],
    [15874,"2012-02-27T05:00:00","18.8","ND","21.04","ND","ND","ND","0.2","289.7","20.6","91.5","0","0"],
    [15875,"2012-02-27T06:00:00","25","ND","17.91","ND","ND","ND","0.1","213","20.9","90.8","0","0"],
    [15876,"2012-02-27T07:00:00","32.8","ND","19.34","ND","ND","ND","0","204","20.8","91.3","5.1","0"],
    [15877,"2012-02-27T08:00:00","44.7","ND","23.97","ND","ND","ND","0.4","206.8","21.2","88.6","54.1","0"],
    [15878,"2012-02-27T09:00:00","60.3","ND","28.97","ND","ND","ND","1.2","155.1","22.3","84.6","135.8","0"],
    [15879,"2012-02-27T10:00:00","56.5","ND","38.28","ND","ND","ND","0.8","138.3","23.8","73.5","351.4","0"],
    [15880,"2012-02-27T11:00:00","30.2","ND","50.84","ND","ND","ND","0.7","42","25","68.9","535.9","0"],
    [15881,"2012-02-27T12:00:00","48.3","ND","34.79","ND","ND","ND","1.1","93.5","26.9","63","699.1","0"],
    [15882,"2012-02-27T13:00:00","26.5","ND","31.07","ND","ND","ND","0.8","103","28","58.3","723.6","0"],
    [15883,"2012-02-27T14:00:00","55.3","ND","31.54","ND","ND","ND","1","286.9","28.6","53.8","516.6","0"],
    [15884,"2012-02-27T15:00:00","14.4","ND","27.68","ND","ND","ND","1","23.2","29.1","51.9","309.2","0"],
    [15885,"2012-02-27T16:00:00","22.3","ND","19.95","ND","ND","ND","2.5","276.8","29.9","46.5","516.2","0"],
    [15886,"2012-02-27T17:00:00","12.2","ND","22.23","ND","ND","ND","3.1","271","29.3","48.3","352.2","0"],
    [15887,"2012-02-27T18:00:00","7.3","ND","12.97","ND","ND","ND","1.9","274.2","28","50","73.1","0"],
    [15888,"2012-02-27T19:00:00","5.7","ND","10.69","ND","ND","ND","0.2","174.6","26.8","53.5","2.2","0"],
    [15889,"2012-02-27T20:00:00","16.4","ND","17.81","ND","ND","ND","2","220.2","25.7","58.9","0","0"],
    [15890,"2012-02-27T21:00:00","10.6","ND","30.55","ND","ND","ND","1.6","193.1","25.1","63","0","0"],
    [15891,"2012-02-27T22:00:00","21.2","ND","23.08","ND","ND","ND","2","173","24.3","68.6","0","0"],
    [15892,"2012-02-27T23:00:00","20.9","ND","29.71","ND","ND","ND","0.9","159.4","23.6","70.6","0","0"],
    [15893,"2012-02-28T00:00:00","31.4","ND","40.45","ND","ND","ND","0.1","204.8","23.1","75.3","0","0"],
    [15894,"2012-02-28T01:00:00","17.6","ND","39.79","ND","ND","ND","0.3","74.9","22.7","79","0","0"],
    [15895,"2012-02-28T02:00:00","39","ND","33.06","ND","ND","ND","0.3","50.6","21.8","86.6","0","0"],
    [15896,"2012-02-28T03:00:00","20","ND","24.46","ND","ND","ND","0.4","5.1","21.3","89.1","0","0"],
    [15897,"2012-02-28T04:00:00","31.9","ND","28.11","ND","ND","ND","0.1","100","21.5","87.9","0","0"],
    [15898,"2012-02-28T05:00:00","28.2","ND","21.83","ND","ND","ND","0.4","354.3","21.3","89.7","0","0"],
    [15899,"2012-02-28T06:00:00","49.5","ND","25.56","ND","ND","ND","0.1","354.2","21.4","88.7","0","0"],
    [15900,"2012-02-28T07:00:00","30.2","ND","26.31","ND","ND","ND","0","45.6","21.5","86.5","2.1","0"],
    [15901,"2012-02-28T08:00:00","42.2","ND","30.88","ND","ND","ND","0.1","180.9","21.3","88.8","41.2","2.79"],
    [15902,"2012-02-28T09:00:00","23.5","ND","33.00","ND","ND","ND","0.9","134.6","22.4","83.3","157.4","0"],
    [15903,"2012-02-28T10:00:00","28","ND","43.89","ND","ND","ND","1.5","121","23.3","79.7","240.1","9.65"],
    [15904,"2012-02-28T11:00:00","29.8","ND","49.91","ND","ND","ND","1","304.9","23.3","80.3","400.9","0.76"],
    [15905,"2012-02-28T12:00:00","22.7","ND","48.73","ND","ND","ND","0.4","36.4","25.8","65.4","468.4","0"],
    [15906,"2012-02-28T13:00:00","32.8","ND","28.76","ND","ND","ND","1.4","284.2","26.9","58.7","524.8","0"],
    [15907,"2012-02-28T14:00:00","17.2","ND","20.11","ND","ND","ND","1","297.5","28.7","49.1","802.8","0"],
    [15908,"2012-02-28T15:00:00","10.3","ND","19.54","ND","ND","ND","3","274.3","29.4","46.4","719","0"],
    [15909,"2012-02-28T16:00:00","7","ND","8.45","ND","ND","ND","4.1","281.6","29.4","45.1","668.4","0"],
    [15910,"2012-02-28T17:00:00","4.5","ND","12.12","ND","ND","ND","2.7","280.6","28.5","48.3","242.7","0"],
    [15911,"2012-02-28T18:00:00","4.4","ND","8.59","ND","ND","ND","2.1","196.7","26.2","58.7","12.1","0"],
    [15912,"2012-02-28T19:00:00","4.7","ND","9.91","ND","ND","ND","1.8","115.2","25.3","63.3","0.3","0"],
    [15913,"2012-02-28T20:00:00","38.1","ND","26.34","ND","ND","ND","1.6","105.3","23.5","76.1","0","0"],
    [15914,"2012-02-28T21:00:00","27.5","ND","49.87","ND","ND","ND","0.9","155.1","22.3","84.5","0","0.25"],
    [15915,"2012-02-28T22:00:00","22.9","ND","39.62","ND","ND","ND","2.1","165.1","21.5","88.5","0","0.51"],
    [15916,"2012-02-28T23:00:00","14.2","ND","29.13","ND","ND","ND","2.8","183.6","20.2","91.4","0","2.03"],
    [15917,"2012-02-29T00:00:00","8.1","ND","37.01","ND","ND","ND","1.6","175.9","20.3","88.6","0","0.25"],
    [15918,"2012-02-29T01:00:00","5.1","ND","24.10","ND","ND","ND","0.5","166.6","20.2","87.8","0","0"],
    [15919,"2012-02-29T02:00:00","4.5","ND","19.42","ND","ND","ND","0.2","346.8","20.3","88.2","0","0"],
    [15920,"2012-02-29T03:00:00","3","ND","16.22","ND","ND","ND","0.1","281.9","20.3","88.1","0","0"],
    [15921,"2012-02-29T04:00:00","3.4","ND","14.37","ND","ND","ND","0.4","97.4","20","91.3","0","0.25"],
    [15922,"2012-02-29T05:00:00","5.3","ND","12.00","ND","ND","ND","0.5","114","19.7","93.8","0","0"],
    [15923,"2012-02-29T06:00:00","21.9","ND","17.26","ND","ND","ND","0.4","1.5","19.7","93.3","0","0"],
    [15924,"2012-02-29T07:00:00","11.5","ND","12.71","ND","ND","ND","0.5","319.3","19.8","91.8","13.8","0"],
    [15925,"2012-02-29T08:00:00","19.3","ND","25.30","ND","ND","ND","0.2","18.9","21.2","80.1","163.5","0"],
    [15926,"2012-02-29T09:00:00","11.4","ND","29.43","ND","ND","ND","0.8","83.4","22.8","75.3","342.2","0"],
    [15927,"2012-02-29T10:00:00","29.8","ND","27.31","ND","ND","ND","1.3","102.7","23.7","72.2","371","0"],
    [15928,"2012-02-29T11:00:00","20.4","ND","36.38","ND","ND","ND","0.5","107.9","24.7","66.7","516","0"],
    [15929,"2012-02-29T12:00:00","27.6","ND","25.31","ND","ND","ND","1.2","119.8","26.6","60.1","727.8","0"],
    [15930,"2012-02-29T13:00:00","16.5","ND","20.20","ND","ND","ND","0.7","83.5","27.5","55.5","728.7","0"],
    [15931,"2012-02-29T14:00:00","17.1","ND","20.26","ND","ND","ND","0.9","71.4","28.3","52.8","556","0"],
    [15932,"2012-02-29T15:00:00","10.6","ND","20.83","ND","ND","ND","0.7","60.9","28.8","51.6","237.8","0.25"],
    [15933,"2012-02-29T16:00:00","29.6","ND","18.50","ND","ND","ND","1.7","329.7","29.1","50.9","428.9","0"],
    [15934,"2012-02-29T17:00:00","16.6","ND","23.26","ND","ND","ND","0.5","305.3","29.4","48.9","271.8","0"],
    [15935,"2012-02-29T18:00:00","24.2","ND","21.00","ND","ND","ND","1.2","251.7","27.9","53.2","22.7","0"],
    [15936,"2012-02-29T19:00:00","32.8","ND","11.11","ND","ND","ND","0.3","232.5","26.9","56","2.9","0"],
    [15937,"2012-02-29T20:00:00","34.4","ND","29.95","ND","ND","ND","0.2","305.7","25.7","59.5","0","0"],
    [15938,"2012-02-29T21:00:00","21.9","ND","44.42","ND","ND","ND","1","121","24.8","67.6","0","0"],
    [15939,"2012-02-29T22:00:00","81.8","ND","44.36","ND","ND","ND","0.1","58.3","23.5","73.7","0","0"],
    [15940,"2012-02-29T23:00:00","89.7","ND","50.24","ND","ND","ND","1","223.6","23.5","72.4","0","0"],
    [15941,"2012-03-01T00:00:00","54.7","ND","45.46","ND","ND","ND","0.5","200.8","23.6","68.8","0","0"],
    [15942,"2012-03-01T01:00:00","28","ND","43.64","ND","ND","ND","0.4","335.2","22.6","73.5","0","0"],
    [15943,"2012-03-01T02:00:00","19.9","ND","36.52","ND","ND","ND","0.4","338.6","22.1","76.9","0","0"],
    [15944,"2012-03-01T03:00:00","11.9","ND","27.32","ND","ND","ND","0.1","169.1","21.6","79.4","0","0"],
    [15945,"2012-03-01T04:00:00","14.1","ND","27.28","ND","ND","ND","0.1","305.2","21.8","79.7","0","0"],
    [15946,"2012-03-01T05:00:00","8.6","ND","25.69","ND","ND","ND","0.4","71.7","21.7","78.9","0","0"],
    [15947,"2012-03-01T06:00:00","26.2","ND","28.96","ND","ND","ND","0.4","310.8","21.3","81.9","0","0"],
    [15948,"2012-03-01T07:00:00","14.6","ND","27.71","ND","ND","ND","0.2","300.6","21.4","83.1","3.6","0"],
    [15949,"2012-03-01T08:00:00","52.4","ND","27.85","ND","ND","ND","0.3","30.6","21.5","87.2","79.5","0"],
    [15950,"2012-03-01T09:00:00","63.7","ND","30.56","ND","ND","ND","0.3","181.4","22.9","77.7","146.3","0"],
    [15951,"2012-03-01T10:00:00","57.2","ND","33.59","ND","ND","ND","0.8","157.5","24.4","71.9","392.6","0"],
    [15952,"2012-03-01T11:00:00","44.5","ND","53.06","ND","ND","ND","1.6","157.8","25.9","67.5","485.5","0"],
    [15953,"2012-03-01T12:00:00","39.1","ND","70.39","ND","ND","ND","1.2","176.3","27.8","56.7","753.7","0"],
    [15954,"2012-03-01T13:00:00","22.3","ND","49.70","ND","ND","ND","1.1","90.5","28.9","51.7","553","0"],
    [15955,"2012-03-01T14:00:00","29.4","ND","24.73","ND","ND","ND","0.6","61.4","30","49.5","762.1","0"],
    [15956,"2012-03-01T15:00:00","25.4","ND","20.49","ND","ND","ND","1.6","91.6","30.7","47","579.6","0"],
    [15957,"2012-03-01T16:00:00","41.4","ND","19.67","ND","ND","ND","1.6","10.2","30.6","48.2","344.4","0"],
    [15958,"2012-03-01T17:00:00","22.5","ND","19.88","ND","ND","ND","1.4","319","29.3","51.7","47.3","0"],
    [15959,"2012-03-01T18:00:00","57.8","ND","26.44","ND","ND","ND","0.7","246.5","28.2","54.8","18.6","0"],
    [15960,"2012-03-01T19:00:00","41.8","ND","34.15","ND","ND","ND","0.5","186.3","27.8","56.1","1.1","0"],
    [15961,"2012-03-01T20:00:00","41.1","ND","39.77","ND","ND","ND","0.4","140.7","26.8","61.1","0","0"],
    [15962,"2012-03-01T21:00:00","21.1","ND","60.05","ND","ND","ND","0.2","95.1","26.1","65.4","0","0"],
    [15963,"2012-03-01T22:00:00","45.3","ND","43.80","ND","ND","ND","0.4","137.4","25.5","69","0","0"],
    [15964,"2012-03-01T23:00:00","54.9","ND","50.88","ND","ND","ND","1.3","188","25.4","69.2","0","0"],
    [15965,"2012-03-02T00:00:00","63.8","ND","42.55","ND","ND","ND","0.1","175.4","24.8","70.6","0","0"],
    [15966,"2012-03-02T01:00:00","65","ND","51.53","ND","ND","ND","0.2","305.2","23.5","76","0","0"],
    [15967,"2012-03-02T02:00:00","55","ND","48.84","ND","ND","ND","0.1","349.6","23","78.8","0","0"],
    [15968,"2012-03-02T03:00:00","56.4","ND","35.25","ND","ND","ND","0.2","314","22.5","79.2","0","0"],
    [15969,"2012-03-02T04:00:00","50","ND","32.57","ND","ND","ND","0.1","266.1","22","81.1","0","0"],
    [15970,"2012-03-02T05:00:00","33.6","ND","26.70","ND","ND","ND","0.1","57.4","21.6","82","0","0"],
    [15971,"2012-03-02T06:00:00","50.1","ND","25.34","ND","ND","ND","0.4","34","21.2","86.8","0","0"],
    [15972,"2012-03-02T07:00:00","63.5","ND","23.08","ND","ND","ND","0.4","31","20.9","90.6","13","0"],
    [15973,"2012-03-02T08:00:00","72.4","ND","34.07","ND","ND","ND","0.5","63.3","22","83.6","99","0"],
    [15974,"2012-03-02T09:00:00","68.7","ND","31.83","ND","ND","ND","1.1","45.7","23.6","76.5","318.7","0"],
    [15975,"2012-03-02T10:00:00","66.5","ND","35.56","ND","ND","ND","1.1","78.6","26","66.2","526.1","0"],
    [15976,"2012-03-02T11:00:00","46.9","ND","40.12","ND","ND","ND","1.3","124.6","27.5","60","566.9","0"],
    [15977,"2012-03-02T12:00:00","48","ND","40.59","ND","ND","ND","1.3","117.3","28","58.1","466.2","0"],
    [15978,"2012-03-02T13:00:00","44.2","ND","21.36","ND","ND","ND","1","229.1","29.4","53.5","763.7","0"],
    [15979,"2012-03-02T14:00:00","42.5","ND","18.42","ND","ND","ND","1.5","80.5","30.1","52","619.4","0"],
    [15980,"2012-03-02T15:00:00","42.1","ND","21.23","ND","ND","ND","1.7","111.3","31","48.9","515.3","0"],
    [15981,"2012-03-02T16:00:00","70","ND","23.17","ND","ND","ND","1.3","98.6","31.2","49.1","427.6","0"],
    [15982,"2012-03-02T17:00:00","61","ND","22.92","ND","ND","ND","0.6","35.4","30.8","50.1","127.8","0"],
    [15983,"2012-03-02T18:00:00","82.7","ND","22.96","ND","ND","ND","1.6","253.6","29.3","52.9","40.4","0"],
    [15984,"2012-03-02T19:00:00","75.1","ND","28.54","ND","ND","ND","0.5","241.2","28.4","54.6","2","0"],
    [15985,"2012-03-02T20:00:00","63","ND","36.65","ND","ND","ND","0.3","147.2","28","54.5","0","0"],
    [15986,"2012-03-02T21:00:00","51","ND","49.88","ND","ND","ND","1","134.9","27.5","56.5","0","0"],
    [15987,"2012-03-02T22:00:00","58.8","ND","58.95","ND","ND","ND","1.2","144.8","26.2","62.5","0","0"],
    [15988,"2012-03-02T23:00:00","42.1","ND","64.79","ND","ND","ND","2.2","222.8","25.9","62.4","0","0"],
    [15989,"2012-03-03T00:00:00","41","ND","51.76","ND","ND","ND","0.9","193.2","25","66.6","0","0"],
    [15990,"2012-03-03T01:00:00","25.3","ND","24.58","ND","ND","ND","0.4","71","24.4","70.2","0","0"],
    [15991,"2012-03-03T02:00:00","44.2","ND","20.96","ND","ND","ND","0.3","139.3","24.1","73.5","0","0"],
    [15992,"2012-03-03T03:00:00","43.3","ND","36.03","ND","ND","ND","0.3","35","23.6","79.4","0","0"],
    [15993,"2012-03-03T04:00:00","56.8","ND","34.49","ND","ND","ND","0.3","1.9","22.8","85.2","0","0"],
    [15994,"2012-03-03T05:00:00","44.3","ND","29.41","ND","ND","ND","0.5","173.7","22.8","83.3","0","0"],
    [15995,"2012-03-03T06:00:00","33.2","ND","28.77","ND","ND","ND","0.3","133.4","23","80.4","0","0"],
    [15996,"2012-03-03T07:00:00","30.5","ND","24.69","ND","ND","ND","0","42.6","22.9","81.6","11.1","0"],
    [15997,"2012-03-03T08:00:00","45.7","ND","24.11","ND","ND","ND","0.4","41","23.6","78.7","85.7","0"],
    [15998,"2012-03-03T09:00:00","44.1","ND","30.97","ND","ND","ND","0.5","74","24.6","74.5","205.4","0"],
    [15999,"2012-03-03T10:00:00","60.7","ND","43.88","ND","ND","ND","0.9","81.9","25.2","71","208.1","0"],
    [16000,"2012-03-03T11:00:00","38.5","ND","54.83","ND","ND","ND","0.6","136.6","26","66.9","298.6","0"],
    [16001,"2012-03-03T12:00:00","66.4","ND","37.49","ND","ND","ND","1.6","124.3","27.1","62.9","418.6","0"],
    [16002,"2012-03-03T13:00:00","49.4","ND","37.23","ND","ND","ND","1.5","127.9","27.7","59.9","447.3","0"],
    [16003,"2012-03-03T14:00:00","47.7","ND","39.61","ND","ND","ND","1.6","105","28.3","58.3","255.5","0"],
    [16004,"2012-03-03T15:00:00","32.8","ND","25.99","ND","ND","ND","0.7","97.5","28.3","57.6","366.6","0"],
    [16005,"2012-03-03T16:00:00","35.4","ND","23.75","ND","ND","ND","0.8","343.7","29.2","55.2","417.7","0"],
    [16006,"2012-03-03T17:00:00","28.3","ND","18.03","ND","ND","ND","1","38","28.7","57.5","103.7","0"],
    [16007,"2012-03-03T18:00:00","65.8","ND","20.31","ND","ND","ND","0.9","41.9","28.2","59","36.1","0"],
    [16008,"2012-03-03T19:00:00","37.5","ND","22.06","ND","ND","ND","1.6","251.7","27.4","58.2","0.7","0"],
    [16009,"2012-03-03T20:00:00","33.4","ND","24.97","ND","ND","ND","1.3","248.3","26.8","58.8","0","0"],
    [16010,"2012-03-03T21:00:00","17.7","ND","31.83","ND","ND","ND","0.1","320.1","26.6","60.8","0","0"],
    [16011,"2012-03-03T22:00:00","31.4","ND","29.58","ND","ND","ND","0.2","109.6","26.3","63.5","0","0"],
    [16012,"2012-03-03T23:00:00","38.6","ND","49.75","ND","ND","ND","0.8","136.1","25.8","67.6","0","0"],
    [16013,"2012-03-04T00:00:00","70.7","ND","62.34","ND","ND","ND","0.8","94.8","25.1","71.4","0","0"],
    [16014,"2012-03-04T01:00:00","37.4","ND","52.00","ND","ND","ND","0.2","282","23.8","82.3","0","0.76"],
    [16015,"2012-03-04T02:00:00","ND","ND","39.79","ND","ND","ND","0.3","345.8","23.1","85","0","0"],
    [16016,"2012-03-04T03:00:00","ND","ND","32.88","ND","ND","ND","0.3","296","22.9","85.4","0","0"],
    [16017,"2012-03-04T04:00:00","ND","ND","26.16","ND","ND","ND","0.3","5.1","23","83.4","0","0"],
    [16018,"2012-03-04T05:00:00","ND","ND","24.66","ND","ND","ND","0.3","225.4","22.8","85.5","0","0.25"],
    [16019,"2012-03-04T06:00:00","ND","ND","28.40","ND","ND","ND","0","233.2","22.6","86.9","0","0"],
    [16020,"2012-03-04T07:00:00","ND","ND","28.83","ND","ND","ND","0.2","305.4","22.3","85.2","13.4","0"],
    [16021,"2012-03-04T08:00:00","ND","ND","26.73","ND","ND","ND","0.1","184.7","22.8","84.7","57.7","0"],
    [16022,"2012-03-04T09:00:00","ND","ND","25.87","ND","ND","ND","1.4","190.7","23.6","79.7","120.8","0"],
    [16023,"2012-03-04T10:00:00","ND","ND","30.61","ND","ND","ND","1.1","159.9","24.9","72.6","275.7","0"],
    [16024,"2012-03-04T11:00:00","ND","ND","35.30","ND","ND","ND","1.1","144.5","26.9","64.1","616.9","0"],
    [16025,"2012-03-04T12:00:00","ND","ND","39.31","ND","ND","ND","1.6","151.2","27.9","60.2","470.5","0"],
    [16026,"2012-03-04T13:00:00","84.2","ND","25.60","ND","ND","ND","2.3","125.8","29.4","54.2","727.6","0"],
    [16027,"2012-03-04T14:00:00","62.2","ND","22.88","ND","ND","ND","2.4","154.6","30.2","52.8","673.6","0"],
    [16028,"2012-03-04T15:00:00","31.8","ND","26.89","ND","ND","ND","1.3","183.6","31","50.4","508.4","0"],
    [16029,"2012-03-04T16:00:00","27.5","ND","32.18","ND","ND","ND","2.7","270.5","30.4","50.7","315.6","0"],
    [16030,"2012-03-04T17:00:00","14.8","ND","36.66","ND","ND","ND","3.8","276.4","29.3","51","228.6","0"],
    [16031,"2012-03-04T18:00:00","10","ND","38.58","ND","ND","ND","4.4","276.5","28.2","52.6","22.4","0"],
    [16032,"2012-03-04T19:00:00","5.9","ND","41.54","ND","ND","ND","0.2","338.3","28","53.5","0.7","0"],
    [16033,"2012-03-04T20:00:00","4.7","ND","40.08","ND","ND","ND","1.6","109.2","27.4","57.4","0","0"],
    [16034,"2012-03-04T21:00:00","11.1","ND","46.76","ND","ND","ND","2.8","212.7","25.8","62.4","0","0"],
    [16035,"2012-03-04T22:00:00","7.4","ND","53.16","ND","ND","ND","2.8","204.3","24.9","65.7","0","0"],
    [16036,"2012-03-04T23:00:00","17.2","ND","37.71","ND","ND","ND","0.6","137.4","24.6","68.4","0","0"],
    [16037,"2012-03-05T00:00:00","10.2","ND","34.35","ND","ND","ND","0.9","134.6","24.2","71.4","0","0"],
    [16038,"2012-03-05T01:00:00","10.2","ND","34.56","ND","ND","ND","0.6","36.2","23.4","76.1","0","0"],
    [16039,"2012-03-05T02:00:00","9.7","ND","30.39","ND","ND","ND","0.4","91.8","22.8","80.2","0","0"],
    [16040,"2012-03-05T03:00:00","13.2","ND","30.85","ND","ND","ND","0.4","146.7","22.8","81.1","0","0"],
    [16041,"2012-03-05T04:00:00","16.9","ND","29.80","ND","ND","ND","0.5","183.3","21.6","91.1","0","6.6"],
    [16042,"2012-03-05T05:00:00","35.5","ND","32.36","ND","ND","ND","0.2","351.1","21.6","91.8","0","0.25"],
    [16043,"2012-03-05T06:00:00","18.4","ND","27.45","ND","ND","ND","0.5","14.9","21.2","94.1","0","0"],
    [16044,"2012-03-05T07:00:00","12.8","ND","25.49","ND","ND","ND","0.4","48.8","21.2","93.5","5.7","0"],
    [16045,"2012-03-05T08:00:00","43.5","ND","35.91","ND","ND","ND","1.1","53.6","21.6","92","52.1","0"],
    [16046,"2012-03-05T09:00:00","28.8","ND","36.27","ND","ND","ND","1.2","48.5","22.2","88.7","147.9","0"],
    [16047,"2012-03-05T10:00:00","43.3","ND","42.37","ND","ND","ND","0.6","40.8","23.5","82","206.3","0"],
    [16048,"2012-03-05T11:00:00","41.3","ND","35.31","ND","ND","ND","0.9","132.2","25.6","71.3","640.8","0"],
    [16049,"2012-03-05T12:00:00","36.7","ND","37.69","ND","ND","ND","1.2","144.3","26.5","64.5","262.3","0"],
    [16050,"2012-03-05T13:00:00","40.1","ND","41.13","ND","ND","ND","0.5","237.5","27.5","60.9","459","0"],
    [16051,"2012-03-05T14:00:00","22.5","ND","38.65","ND","ND","ND","1.1","119.9","28.7","54.8","740.2","0"],
    [16052,"2012-03-05T15:00:00","12.6","ND","36.02","ND","ND","ND","0.6","344.7","29.4","52","477","0"],
    [16053,"2012-03-05T16:00:00","33.1","ND","37.98","ND","ND","ND","0.7","21.8","29.8","50","328.7","0"],
    [16054,"2012-03-05T17:00:00","28.8","ND","34.77","ND","ND","ND","2.9","273.1","29.9","46.5","318.2","0"],
    [16055,"2012-03-05T18:00:00","ND","ND","28.64","ND","ND","ND","2.4","261.5","28.8","49.2","64.2","0"],
    [16056,"2012-03-05T19:00:00","ND","ND","14.80","ND","ND","ND","2.1","263.8","27.6","53.7","2.3","0"],
    [16057,"2012-03-05T20:00:00","ND","ND","20.77","ND","ND","ND","0.9","251.4","26.8","56.6","0","0"],
    [16058,"2012-03-05T21:00:00","ND","ND","24.10","ND","ND","ND","0.4","222.2","26.1","60.4","0","0"],
    [16059,"2012-03-05T22:00:00","ND","ND","24.44","ND","ND","ND","0.6","137","25.5","64.8","0","0"],
    [16060,"2012-03-05T23:00:00","ND","ND","26.39","ND","ND","ND","0.2","130.3","25.2","67.3","0","0"],
    [16061,"2012-03-06T00:00:00","ND","ND","38.71","ND","ND","ND","2.1","210.9","24.4","72.5","0","0"],
    [16062,"2012-03-06T01:00:00","ND","ND","39.38","ND","ND","ND","0.5","158.6","24","75.8","0","0"],
    [16063,"2012-03-06T02:00:00","ND","ND","23.05","ND","ND","ND","0.7","55.1","23.8","76","0","0"],
    [16064,"2012-03-06T03:00:00","ND","ND","20.03","ND","ND","ND","0.7","5.8","23.1","79.5","0","0"],
    [16065,"2012-03-06T04:00:00","ND","ND","20.49","ND","ND","ND","0.3","358.6","22.5","83.2","0","0"],
    [16066,"2012-03-06T05:00:00","ND","ND","21.27","ND","ND","ND","0.3","66.3","21.8","89.2","0","0"],
    [16067,"2012-03-06T06:00:00","ND","ND","30.89","ND","ND","ND","0.2","355.5","21.5","89.9","0","0"],
    [16068,"2012-03-06T07:00:00","ND","ND","30.25","ND","ND","ND","0.2","212.8","21.9","88.4","3.8","0"],
    [16069,"2012-03-06T08:00:00","ND","ND","28.46","ND","ND","ND","0.8","223.7","22.5","85.7","74","0"],
    [16070,"2012-03-06T09:00:00","103.5","ND","33.43","ND","ND","ND","0.7","97.2","23.7","80.3","200.3","0"],
    [16071,"2012-03-06T10:00:00","63.2","ND","37.79","ND","ND","ND","1.3","110.9","25.4","70.7","562.6","0"],
    [16072,"2012-03-06T11:00:00","35.9","ND","58.96","ND","ND","ND","0.3","276.8","26.5","65.7","555.4","0"],
    [16073,"2012-03-06T12:00:00","50.2","ND","24.29","ND","ND","ND","0.1","218.3","27.9","59.9","600.9","0"],
    [16074,"2012-03-06T13:00:00","30","ND","19.11","ND","ND","ND","0.9","13.1","29","54.9","543.3","0"],
    [16075,"2012-03-06T14:00:00","54.9","ND","21.59","ND","ND","ND","2.4","276.6","29.9","49.1","673.1","0"],
    [16076,"2012-03-06T15:00:00","29.3","ND","21.04","ND","ND","ND","5.1","283","29.5","46.9","713.1","0"],
    [16077,"2012-03-06T16:00:00","16.6","ND","14.22","ND","ND","ND","4.6","285.8","29.1","45.9","545.9","0"],
    [16078,"2012-03-06T17:00:00","11.9","ND","9.74","ND","ND","ND","1.3","291.7","28.7","46","172.6","0"],
    [16079,"2012-03-06T18:00:00","11.8","ND","8.35","ND","ND","ND","1.9","164.3","27.6","53.3","20.1","0"],
    [16080,"2012-03-06T19:00:00","17.6","ND","12.39","ND","ND","ND","2.9","199.8","24.7","70.6","1.7","0"],
    [16081,"2012-03-06T20:00:00","40.9","ND","33.60","ND","ND","ND","2.4","236.8","24.3","71.1","1.1","0"],
    [16082,"2012-03-06T21:00:00","49.3","ND","41.43","ND","ND","ND","0.5","194.1","24.8","68.9","0","0"],
    [16083,"2012-03-06T22:00:00","37","ND","26.84","ND","ND","ND","0.8","34.1","23.6","76.1","0","0"],
    [16084,"2012-03-06T23:00:00","33.6","ND","37.87","ND","ND","ND","0.7","90.5","22.3","83.7","0","0"],
    [16085,"2012-03-07T00:00:00","46.2","ND","30.03","ND","ND","ND","0.8","157.8","21.9","85.6","0","0"],
    [16086,"2012-03-07T01:00:00","24.4","ND","32.56","ND","ND","ND","0.5","273","21.7","85.6","0","0"],
    [16087,"2012-03-07T02:00:00","46.4","ND","27.99","ND","ND","ND","0.1","289.5","21.8","83.7","0","0"],
    [16088,"2012-03-07T03:00:00","24.9","ND","29.08","ND","ND","ND","0.3","274.1","21.7","83.5","0","0"],
    [16089,"2012-03-07T04:00:00","38.9","ND","23.06","ND","ND","ND","0.3","113.3","21.5","83.5","0","0"],
    [16090,"2012-03-07T05:00:00","22.4","ND","22.02","ND","ND","ND","0.6","15.8","20.1","92.2","0","0"],
    [16091,"2012-03-07T06:00:00","51.4","ND","19.28","ND","ND","ND","0.3","274.9","20","91","0","0"],
    [16092,"2012-03-07T07:00:00","71.6","ND","24.18","ND","ND","ND","0.2","284.4","20","90","12.7","0"],
    [16093,"2012-03-07T08:00:00","80","ND","24.48","ND","ND","ND","0.4","74.5","21.5","84.4","150.1","0"],
    [16094,"2012-03-07T09:00:00","88","ND","26.28","ND","ND","ND","0.6","96.3","23.2","76.9","304.8","0"],
    [16095,"2012-03-07T10:00:00","95.9","ND","36.71","ND","ND","ND","0.7","82.2","24.7","70.1","427.7","0"],
    [16096,"2012-03-07T11:00:00","87.4","ND","57.86","ND","ND","ND","1.2","88","26.8","62.6","701","0"],
    [16097,"2012-03-07T12:00:00","88.3","ND","47.83","ND","ND","ND","0.6","103.2","27.7","57.5","482.8","0"],
    [16098,"2012-03-07T13:00:00","73.4","ND","33.09","ND","ND","ND","1.1","96.5","29","53","636.4","0"],
    [16099,"2012-03-07T14:00:00","59.1","ND","19.47","ND","ND","ND","0.9","85.3","30","50.4","616.7","0"],
    [16100,"2012-03-07T15:00:00","40.6","ND","15.40","ND","ND","ND","1.1","292.7","30.5","48.9","403.9","0"],
    [16101,"2012-03-07T16:00:00","68.9","ND","17.63","ND","ND","ND","1.4","320.2","29.9","51.4","144","0"],
    [16102,"2012-03-07T17:00:00","67.9","ND","19.97","ND","ND","ND","2.2","275.9","29.2","51.3","89.1","0"],
    [16103,"2012-03-07T18:00:00","52.8","ND","26.53","ND","ND","ND","0.9","281.6","28.5","52.3","31.8","0"],
    [16104,"2012-03-07T19:00:00","29","ND","21.72","ND","ND","ND","0.5","219.5","27.9","53.6","2.7","0"],
    [16105,"2012-03-07T20:00:00","51.2","ND","28.87","ND","ND","ND","0.6","143.8","27.5","54.9","0","0"],
    [16106,"2012-03-07T21:00:00","43.7","ND","48.64","ND","ND","ND","0.1","50.9","26.6","59.3","0","0"],
    [16107,"2012-03-07T22:00:00","65.7","ND","56.01","ND","ND","ND","0.8","117.3","25.8","65.9","0","0"],
    [16108,"2012-03-07T23:00:00","53.8","ND","57.69","ND","ND","ND","0.3","63.3","25","69.7","0","0"],
    [16109,"2012-03-08T00:00:00","51.3","ND","43.28","ND","ND","ND","0.2","266.8","24.4","72.5","0","0"],
    [16110,"2012-03-08T01:00:00","46.8","ND","41.30","ND","ND","ND","0.8","235.3","24","73.1","0","0"],
    [16111,"2012-03-08T02:00:00","50.7","ND","39.51","ND","ND","ND","0.2","288.2","23.3","75.9","0","0"],
    [16112,"2012-03-08T03:00:00","25.9","ND","37.47","ND","ND","ND","0.6","248.7","22.9","76.9","0","0"],
    [16113,"2012-03-08T04:00:00","22","ND","32.22","ND","ND","ND","0.2","26.5","22.6","78.2","0","0"],
    [16114,"2012-03-08T05:00:00","47.6","ND","21.62","ND","ND","ND","0.3","29.4","22.1","80.9","0","0"],
    [16115,"2012-03-08T06:00:00","54.5","ND","25.85","ND","ND","ND","0.2","322.4","21.7","84.6","0","0"],
    [16116,"2012-03-08T07:00:00","48.7","ND","33.41","ND","ND","ND","0.4","22.7","21.8","84.8","13.5","0"],
    [16117,"2012-03-08T08:00:00","93.2","ND","30.17","ND","ND","ND","0.1","272.7","22.7","80.4","125.5","0"],
    [16118,"2012-03-08T09:00:00","93.6","ND","33.60","ND","ND","ND","0.9","106.4","24.7","72.7","266.7","0"],
    [16119,"2012-03-08T10:00:00","104.4","ND","45.06","ND","ND","ND","1","155.6","26","66.6","537.2","0"],
    [16120,"2012-03-08T11:00:00","97","ND","33.86","ND","ND","ND","1.5","164.2","28","58","684.2","0"],
    [16121,"2012-03-08T12:00:00","66.4","ND","29.05","ND","ND","ND","1.3","141.4","29.3","52.7","578.2","0"],
    [16122,"2012-03-08T13:00:00","57.5","ND","21.49","ND","ND","ND","0.6","14.6","30.5","48.7","670.4","0"],
    [16123,"2012-03-08T14:00:00","58","ND","15.40","ND","ND","ND","1.1","69.8","31.1","48.2","471.8","0"],
    [16124,"2012-03-08T15:00:00","42.1","ND","19.62","ND","ND","ND","0.9","356.4","30.4","49.7","165.4","0"],
    [16125,"2012-03-08T16:00:00","75","ND","18.52","ND","ND","ND","2.7","292.8","29.9","51.2","392.9","0"],
    [16126,"2012-03-08T17:00:00","39.1","ND","21.90","ND","ND","ND","2.1","285.7","30.4","48.6","202.1","0"],
    [16127,"2012-03-08T18:00:00","25.3","ND","13.63","ND","ND","ND","1.1","282.1","29.7","49.5","69.4","0"],
    [16128,"2012-03-08T19:00:00","25.4","ND","16.49","ND","ND","ND","0.3","215","28.5","52.2","1.5","0"],
    [16129,"2012-03-08T20:00:00","42.4","ND","23.95","ND","ND","ND","0.5","199","27.8","54.9","0","0"],
    [16130,"2012-03-08T21:00:00","44.6","ND","45.23","ND","ND","ND","0.1","356.8","27.4","56.8","0","0"],
    [16131,"2012-03-08T22:00:00","53.4","ND","51.91","ND","ND","ND","0.3","10.8","26.4","63.3","0","0"],
    [16132,"2012-03-08T23:00:00","52.2","ND","48.67","ND","ND","ND","0.1","30.8","25.7","67.1","0","0"],
    [16133,"2012-03-09T00:00:00","63.2","ND","43.70","ND","ND","ND","0.6","130.1","25.2","69.3","0","0"],
    [16134,"2012-03-09T01:00:00","32.7","ND","38.45","ND","ND","ND","0.3","66.2","24.4","73.9","0","0"],
    [16135,"2012-03-09T02:00:00","40.7","ND","34.53","ND","ND","ND","0","59.2","23.8","76","0","0"],
    [16136,"2012-03-09T03:00:00","43.8","ND","29.43","ND","ND","ND","0.6","175.6","23.6","76","0","0"],
    [16137,"2012-03-09T04:00:00","42.4","ND","28.62","ND","ND","ND","1.4","151.8","23.7","75.3","0","0"],
    [16138,"2012-03-09T05:00:00","23.1","ND","17.59","ND","ND","ND","0.9","180","23","79.8","0","0"],
    [16139,"2012-03-09T06:00:00","31.9","ND","17.42","ND","ND","ND","0.2","199.8","22.9","78.7","0","0"],
    [16140,"2012-03-09T07:00:00","17","ND","16.12","ND","ND","ND","0.1","344","22.7","81.2","4","0"],
    [16141,"2012-03-09T08:00:00","50.4","ND","20.78","ND","ND","ND","0.5","58.2","23.1","78.9","47.5","0"],
    [16142,"2012-03-09T09:00:00","55.4","ND","26.09","ND","ND","ND","0.8","51","24.3","74.8","210.6","0"],
    [16143,"2012-03-09T10:00:00","81.7","ND","37.58","ND","ND","ND","0.9","86.3","25.5","69.5","328.7","0"],
    [16144,"2012-03-09T11:00:00","53.5","ND","36.15","ND","ND","ND","0.7","199.4","26.9","62.5","412","0"],
    [16145,"2012-03-09T12:00:00","56.4","ND","21.49","ND","ND","ND","1","132.9","28","59.6","459.1","0"],
    [16146,"2012-03-09T13:00:00","41.9","ND","20.18","ND","ND","ND","1.8","148.1","28.7","57.1","499.3","0"],
    [16147,"2012-03-09T14:00:00","47.2","ND","23.49","ND","ND","ND","1.2","159.9","30.3","50.9","638","0"],
    [16148,"2012-03-09T15:00:00","45.4","ND","17.77","ND","ND","ND","0.6","223.6","29.6","53.4","128.8","0"],
    [16149,"2012-03-09T16:00:00","41.6","ND","18.32","ND","ND","ND","2","298.7","28.5","54.3","100.7","0"],
    [16150,"2012-03-09T17:00:00","40.8","ND","19.34","ND","ND","ND","3","33","26.5","61.7","57.6","0.25"],
    [16151,"2012-03-09T18:00:00","77.6","ND","23.43","ND","ND","ND","2.2","25.7","25.8","62.5","25.3","0"],
    [16152,"2012-03-09T19:00:00","57.9","ND","24.46","ND","ND","ND","1.4","34","25.4","62.3","1.1","0"],
    [16153,"2012-03-09T20:00:00","85.1","ND","36.59","ND","ND","ND","0.8","105.1","24.6","69.9","0","0"],
    [16154,"2012-03-09T21:00:00","62","ND","46.53","ND","ND","ND","1.7","196","23.6","77.5","0","0"],
    [16155,"2012-03-09T22:00:00","65.4","ND","39.42","ND","ND","ND","1.8","163.2","22.9","83.2","0","0"],
    [16156,"2012-03-09T23:00:00","36.7","ND","36.17","ND","ND","ND","0.7","207.5","22.9","81.7","0","0"],
    [16157,"2012-03-10T00:00:00","31.9","ND","40.56","ND","ND","ND","0.9","343.1","22.6","84.4","0","0"],
    [16158,"2012-03-10T01:00:00","19.5","ND","35.10","ND","ND","ND","0.6","45.1","22.3","85.7","0","0"],
    [16159,"2012-03-10T02:00:00","34.3","ND","32.08","ND","ND","ND","0.4","343.1","22.1","86.6","0","0"],
    [16160,"2012-03-10T03:00:00","27.2","ND","33.03","ND","ND","ND","0.2","117","22.2","85.9","0","0"],
    [16161,"2012-03-10T04:00:00","42.8","ND","25.99","ND","ND","ND","0","168.5","21.7","90","0","0"],
    [16162,"2012-03-10T05:00:00","36.9","ND","28.50","ND","ND","ND","0.1","48.4","21.5","92.6","0","0.25"],
    [16163,"2012-03-10T06:00:00","48.2","ND","23.64","ND","ND","ND","0.3","136.7","21.3","92.8","0","0"],
    [16164,"2012-03-10T07:00:00","26.1","ND","25.28","ND","ND","ND","0.9","174","21.6","89.4","2.3","0"],
    [16165,"2012-03-10T08:00:00","44.1","ND","28.06","ND","ND","ND","0.3","351.1","21.5","90.5","21","0"],
    [16166,"2012-03-10T09:00:00","23.3","ND","28.70","ND","ND","ND","0","164.9","22.1","87.8","128.6","0"],
    [16167,"2012-03-10T10:00:00","61","ND","25.31","ND","ND","ND","0.7","57.5","23.6","79.5","303.2","0"],
    [16168,"2012-03-10T11:00:00","61.3","ND","36.22","ND","ND","ND","2.1","40.6","25.1","73.2","528.9","0"],
    [16169,"2012-03-10T12:00:00","68.7","ND","45.29","ND","ND","ND","2.2","44.7","26","67.1","455.3","0"],
    [16170,"2012-03-10T13:00:00","36.1","ND","28.99","ND","ND","ND","2","48.8","27.6","58","606.7","0"],
    [16171,"2012-03-10T14:00:00","23.3","ND","14.00","ND","ND","ND","1.7","39.7","28.1","55","393","0"],
    [16172,"2012-03-10T15:00:00","19.7","ND","12.92","ND","ND","ND","3","32.5","27.4","56.3","203.4","0"],
    [16173,"2012-03-10T16:00:00","42","ND","13.39","ND","ND","ND","2.9","36.8","27.2","56.2","204.2","0"],
    [16174,"2012-03-10T17:00:00","21.7","ND","18.63","ND","ND","ND","1.9","18.6","27.1","55.3","139.5","0"],
    [16175,"2012-03-10T18:00:00","45.2","ND","15.57","ND","ND","ND","2","42.5","26.9","53.4","62.5","0"],
    [16176,"2012-03-10T19:00:00","24.9","ND","30.50","ND","ND","ND","1","51.9","25.9","56.8","1.9","0"],
    [16177,"2012-03-10T20:00:00","38.4","ND","18.93","ND","ND","ND","0.2","284.8","24.7","64.3","0","0"],
    [16178,"2012-03-10T21:00:00","26","ND","32.98","ND","ND","ND","0.4","244.9","24.9","64.2","0","0"],
    [16179,"2012-03-10T22:00:00","57.3","ND","51.68","ND","ND","ND","0.2","353.8","24.3","67.8","0","0"],
    [16180,"2012-03-10T23:00:00","57.4","ND","58.59","ND","ND","ND","0.2","256.7","23.7","71.3","0","0"],
    [16181,"2012-03-11T00:00:00","53.3","ND","48.36","ND","ND","ND","0.3","291.5","23.4","71.8","0","0"],
    [16182,"2012-03-11T01:00:00","52.9","ND","48.84","ND","ND","ND","0.2","208.5","23.2","71.6","0","0"],
    [16183,"2012-03-11T02:00:00","58.9","ND","51.03","ND","ND","ND","0.5","17.8","22.6","73.4","0","0"],
    [16184,"2012-03-11T03:00:00","38.9","ND","45.85","ND","ND","ND","0.1","319.4","22.5","73.9","0","0"],
    [16185,"2012-03-11T04:00:00","51.8","ND","39.80","ND","ND","ND","0.2","339.3","21.9","80.5","0","0"],
    [16186,"2012-03-11T05:00:00","31.6","ND","36.44","ND","ND","ND","0.1","295","21.3","86.8","0","0.25"],
    [16187,"2012-03-11T06:00:00","48.2","ND","35.49","ND","ND","ND","0.7","351.6","20.8","88.3","0","0"],
    [16188,"2012-03-11T07:00:00","41.8","ND","31.08","ND","ND","ND","0.1","56.9","21.1","85.9","12.4","0"],
    [16189,"2012-03-11T08:00:00","53.3","ND","25.52","ND","ND","ND","0.1","261.6","21.8","82.9","75","0"],
    [16190,"2012-03-11T09:00:00","72.4","ND","31.04","ND","ND","ND","0.4","67.4","22.8","78.4","137.3","0"],
    [16191,"2012-03-11T10:00:00","81.4","ND","35.60","ND","ND","ND","1.1","57.7","23.8","75.3","374.1","0"],
    [16192,"2012-03-11T11:00:00","68.3","ND","48.34","ND","ND","ND","1.3","65.9","25.6","67.6","604","0"],
    [16193,"2012-03-11T12:00:00","58.7","ND","30.14","ND","ND","ND","0.9","72.1","27.3","58.9","775.4","0"],
    [16194,"2012-03-11T13:00:00","31","ND","29.11","ND","ND","ND","1.1","53.4","29.4","49.5","865.9","0"],
    [16195,"2012-03-11T14:00:00","22.6","ND","12.65","ND","ND","ND","1.1","36.1","30.3","47.6","813.9","0"],
    [16196,"2012-03-11T15:00:00","12.1","ND","9.99","ND","ND","ND","1.8","49.9","31","45.1","612.7","0"],
    [16197,"2012-03-11T16:00:00","22.1","ND","10.16","ND","ND","ND","1.9","48.2","31.7","45.3","533.2","0"],
    [16198,"2012-03-11T17:00:00","12.8","ND","10.19","ND","ND","ND","0.9","347.2","30.5","49.7","141.2","0"],
    [16199,"2012-03-11T18:00:00","9.1","ND","10.38","ND","ND","ND","1.6","255","29.4","51.9","59.1","0"],
    [16200,"2012-03-11T19:00:00","6.3","ND","11.30","ND","ND","ND","0.5","246.1","28.6","53.7","2.7","0"],
    [16201,"2012-03-11T20:00:00","31","ND","13.36","ND","ND","ND","0.7","262","27","59.7","0","0"],
    [16202,"2012-03-11T21:00:00","40.6","ND","25.09","ND","ND","ND","0.2","219.1","26.2","63.5","0","0"],
    [16203,"2012-03-11T22:00:00","33.6","ND","35.17","ND","ND","ND","0.4","74.8","25.6","67.7","0","0"],
    [16204,"2012-03-11T23:00:00","48.7","ND","45.03","ND","ND","ND","0.2","276.1","24.5","71.6","0","0"],
    [16205,"2012-03-12T00:00:00","37","ND","41.27","ND","ND","ND","0.2","288.5","23.9","74.5","0","0"],
    [16206,"2012-03-12T01:00:00","20.5","ND","35.05","ND","ND","ND","0.2","335.8","23.4","75","0","0"],
    [16207,"2012-03-12T02:00:00","45.6","ND","35.44","ND","ND","ND","0.3","17.6","22.7","78.8","0","0"],
    [16208,"2012-03-12T03:00:00","44.6","ND","27.53","ND","ND","ND","0.3","234.5","22.8","78.9","0","0"],
    [16209,"2012-03-12T04:00:00","50.1","ND","22.70","ND","ND","ND","0.8","161.8","23.3","78.1","0","0"],
    [16210,"2012-03-12T05:00:00","40.7","ND","26.99","ND","ND","ND","0.7","156.6","22.8","80.3","0","0"],
    [16211,"2012-03-12T06:00:00","59.4","ND","24.51","ND","ND","ND","0.2","285.1","22.8","80.8","0","0"],
    [16212,"2012-03-12T07:00:00","45.7","ND","21.78","ND","ND","ND","0.2","61.2","23","79.9","2.9","0"],
    [16213,"2012-03-12T08:00:00","66.5","ND","23.07","ND","ND","ND","0.6","35","22.5","84.6","40.9","0"],
    [16214,"2012-03-12T09:00:00","93.6","ND","27.66","ND","ND","ND","0.3","61.5","23.6","78.6","170.3","0"],
    [16215,"2012-03-12T10:00:00","94.8","ND","28.89","ND","ND","ND","0.1","157.5","25","71.7","224.2","0"],
    [16216,"2012-03-12T11:00:00","106.8","ND","37.63","ND","ND","ND","0.6","99.7","26.9","63.9","552.4","0"],
    [16217,"2012-03-12T12:00:00","92.3","ND","48.98","ND","ND","ND","2.1","50.7","28","60.6","659.9","0"],
    [16218,"2012-03-12T13:00:00","62.3","ND","49.65","ND","ND","ND","1.9","68.1","29.2","55.6","661.1","0"],
    [16219,"2012-03-12T14:00:00","68.5","ND","26.19","ND","ND","ND","1.7","58","29.5","53.9","365.5","0"],
    [16220,"2012-03-12T15:00:00","64.1","ND","17.65","ND","ND","ND","0.3","335.5","29.6","53.6","261.8","0"],
    [16221,"2012-03-12T16:00:00","39.3","ND","15.91","ND","ND","ND","1","64.1","30.3","52.1","384.5","0"],
    [16222,"2012-03-12T17:00:00","45","ND","12.42","ND","ND","ND","1.2","42.1","30.6","51.2","267.9","0"],
    [16223,"2012-03-12T18:00:00","22.5","ND","14.33","ND","ND","ND","1.6","41.4","29.3","55.1","37.7","0"],
    [16224,"2012-03-12T19:00:00","22.5","ND","18.34","ND","ND","ND","1.8","248.8","28.2","58","2.4","0"],
    [16225,"2012-03-12T20:00:00","46.6","ND","23.66","ND","ND","ND","2.2","254.2","27.2","59.8","0","0"],
    [16226,"2012-03-12T21:00:00","24","ND","28.18","ND","ND","ND","0.6","114","27.1","61.2","0","0"],
    [16227,"2012-03-12T22:00:00","52.4","ND","21.02","ND","ND","ND","0.2","79.4","25.8","67.3","0","0"],
    [16228,"2012-03-12T23:00:00","47.6","ND","48.72","ND","ND","ND","0.3","121.7","25.1","71.4","0","0"],
    [16229,"2012-03-13T00:00:00","68.4","ND","49.31","ND","ND","ND","0.3","285.7","24.4","74.2","0","0"],
    [16230,"2012-03-13T01:00:00","65.6","ND","39.47","ND","ND","ND","0.5","130.8","24.4","74.3","0","0"],
    [16231,"2012-03-13T02:00:00","57","ND","38.36","ND","ND","ND","0.8","169.2","24","76","0","0"],
    [16232,"2012-03-13T03:00:00","30.6","ND","30.77","ND","ND","ND","0.5","311.3","23.4","80.8","0","0"],
    [16233,"2012-03-13T04:00:00","43.7","ND","20.98","ND","ND","ND","0.3","342.9","23.1","84.6","0","5.84"],
    [16234,"2012-03-13T05:00:00","47.7","ND","21.91","ND","ND","ND","0.7","41.6","22.1","93.1","0","3.56"],
    [16235,"2012-03-13T06:00:00","51.4","ND","21.99","ND","ND","ND","1","72.2","20.3","90.6","0","7.11"],
    [16236,"2012-03-13T07:00:00","27.5","ND","21.08","ND","ND","ND","0.6","143.7","20","92.1","1.9","0.51"],
    [16237,"2012-03-13T08:00:00","17.4","ND","30.44","ND","ND","ND","1.5","168.3","20.2","92.5","9.7","1.78"],
    [16238,"2012-03-13T09:00:00","23.8","ND","37.47","ND","ND","ND","2.4","164.7","19.9","93","53.3","0.25"],
    [16239,"2012-03-13T10:00:00","12.5","ND","40.87","ND","ND","ND","0.6","192.7","20.8","88.1","176.2","0"],
    [16240,"2012-03-13T11:00:00","10.3","ND","31.29","ND","ND","ND","0.1","77.5","23","78.9","451.3","0"],
    [16241,"2012-03-13T12:00:00","11.1","ND","22.69","ND","ND","ND","0.7","115","25","68.1","682.4","0"],
    [16242,"2012-03-13T13:00:00","8","ND","22.36","ND","ND","ND","0.9","42.2","27.2","56.5","798.4","0"],
    [16243,"2012-03-13T14:00:00","6.1","ND","30.00","ND","ND","ND","1.3","74.5","28.2","52.6","696.4","0"],
    [16244,"2012-03-13T15:00:00","4.4","ND","20.37","ND","ND","ND","1.1","89.9","29.1","51.1","664.3","0"],
    [16245,"2012-03-13T16:00:00","3.6","ND","11.40","ND","ND","ND","1.2","94.7","29.2","53.3","432.1","0"],
    [16246,"2012-03-13T17:00:00","3.8","ND","13.71","ND","ND","ND","0.3","60.4","29","54.9","186.3","0"],
    [16247,"2012-03-13T18:00:00","20.2","ND","17.46","ND","ND","ND","1.8","206.9","28.2","57.3","42.5","0"],
    [16248,"2012-03-13T19:00:00","14.5","ND","19.70","ND","ND","ND","0.8","224.5","26.9","62.8","2.9","0"],
    [16249,"2012-03-13T20:00:00","35.3","ND","39.94","ND","ND","ND","0.5","324.7","25.8","66.4","0","0"],
    [16250,"2012-03-13T21:00:00","59.1","ND","50.31","ND","ND","ND","0","27.8","25.4","68.6","0","0"],
    [16251,"2012-03-13T22:00:00","49.2","ND","47.05","ND","ND","ND","0.5","1.7","24.7","72","0","0"],
    [16252,"2012-03-13T23:00:00","47.5","ND","48.54","ND","ND","ND","0.4","10.2","23.6","80.5","0","0"],
    [16253,"2012-03-14T00:00:00","52.4","ND","42.50","ND","ND","ND","0.4","278.7","23.1","80.6","0","0"],
    [16254,"2012-03-14T01:00:00","33.9","ND","35.91","ND","ND","ND","0.1","286.8","22.7","82.6","0","0"],
    [16255,"2012-03-14T02:00:00","24.4","ND","32.48","ND","ND","ND","0.1","158.5","23","81.4","0","0"],
    [16256,"2012-03-14T03:00:00","30.9","ND","25.69","ND","ND","ND","0.2","135.2","22.7","85.1","0","0"],
    [16257,"2012-03-14T04:00:00","62.9","ND","26.87","ND","ND","ND","0.1","274.6","22.4","86","0","0"],
    [16258,"2012-03-14T05:00:00","32.2","ND","28.49","ND","ND","ND","0","276.4","22","86.6","0","0"],
    [16259,"2012-03-14T06:00:00","31.4","ND","23.12","ND","ND","ND","0.2","270","21.5","88.9","0","0"],
    [16260,"2012-03-14T07:00:00","42.2","ND","22.06","ND","ND","ND","0.2","49.6","21.6","87.9","17.7","0"],
    [16261,"2012-03-14T08:00:00","75.4","ND","21.56","ND","ND","ND","0.5","88.1","22.7","82.4","119.3","0"],
    [16262,"2012-03-14T09:00:00","95.6","ND","26.41","ND","ND","ND","0.6","183.3","24.3","75.3","314.1","0"],
    [16263,"2012-03-14T10:00:00","89.6","ND","35.96","ND","ND","ND","1.3","72.6","26.9","64.2","520.1","0"],
    [16264,"2012-03-14T11:00:00","82.1","ND","66.68","ND","ND","ND","1.6","65.2","27.5","62.5","613.9","0"],
    [16265,"2012-03-14T12:00:00","70.1","ND","61.59","ND","ND","ND","1.3","54.2","28.9","55.9","764.2","0"],
    [16266,"2012-03-14T13:00:00","36.4","ND","26.87","ND","ND","ND","1","73","29.9","52.1","573.8","0"],
    [16267,"2012-03-14T14:00:00","48.8","ND","11.49","ND","ND","ND","1.5","340.3","29.9","52.6","369.7","0"],
    [16268,"2012-03-14T15:00:00","33.4","ND","11.01","ND","ND","ND","2.5","301.9","28.8","52.7","132.9","0"],
    [16269,"2012-03-14T16:00:00","19.8","ND","11.98","ND","ND","ND","0.8","303.1","29.1","50.6","173.9","0"],
    [16270,"2012-03-14T17:00:00","9.9","ND","15.71","ND","ND","ND","1.3","314","29.8","46.2","262.5","0"],
    [16271,"2012-03-14T18:00:00","ND","ND","19.00","ND","ND","ND","0.8","238.3","29.7","46.6","99.8","0"],
    [16272,"2012-03-14T19:00:00","ND","ND","12.57","ND","ND","ND","0.8","77.7","27.7","53.9","2.3","0"],
    [16273,"2012-03-14T20:00:00","ND","ND","20.49","ND","ND","ND","0.6","242.6","26.4","57.5","0","0"],
    [16274,"2012-03-14T21:00:00","ND","ND","30.79","ND","ND","ND","0.1","14.3","25.4","63.7","0","0"],
    [16275,"2012-03-14T22:00:00","ND","ND","39.11","ND","ND","ND","0.1","6.9","24.5","69.7","0","0"],
    [16276,"2012-03-14T23:00:00","ND","ND","38.79","ND","ND","ND","0.1","115.7","23.9","72.6","0","0"],
    [16277,"2012-03-15T00:00:00","ND","ND","35.90","ND","ND","ND","0.2","353.4","23.8","73.1","0","0"],
    [16278,"2012-03-15T01:00:00","ND","ND","31.68","ND","ND","ND","0.1","351.4","23.5","74.7","0","0"],
    [16279,"2012-03-15T02:00:00","ND","ND","33.94","ND","ND","ND","0.2","17.7","22.9","79.5","0","0"],
    [16280,"2012-03-15T03:00:00","ND","ND","30.78","ND","ND","ND","0.1","287.6","22.2","80.6","0","0"],
    [16281,"2012-03-15T04:00:00","ND","ND","26.62","ND","ND","ND","0.2","248.6","21.8","82.6","0","0"],
    [16282,"2012-03-15T05:00:00","91.9","ND","24.50","ND","ND","ND","0.1","24.5","21.6","83.3","0","0"],
    [16283,"2012-03-15T06:00:00","ND","ND","22.55","ND","ND","ND","0.2","317.6","21.4","84.6","0","0"],
    [16284,"2012-03-15T07:00:00","ND","ND","22.51","ND","ND","ND","0.7","21","20.9","87","19.9","0"],
    [16285,"2012-03-15T08:00:00","ND","ND","24.91","ND","ND","ND","0.8","43.9","21.9","84.7","153.4","0"],
    [16286,"2012-03-15T09:00:00","ND","ND","29.24","ND","ND","ND","1.1","56.3","23.9","76.9","358.2","0"],
    [16287,"2012-03-15T10:00:00","107.6","ND","31.60","ND","ND","ND","0.5","91.6","25.9","67","559.8","0"],
    [16288,"2012-03-15T11:00:00","67.8","ND","40.64","ND","ND","ND","0.5","86.1","27.7","61.1","576.5","0"],
    [16289,"2012-03-15T12:00:00","85.3","ND","44.62","ND","ND","ND","0.9","81.2","28.8","56.8","634.2","0"],
    [16290,"2012-03-15T13:00:00","ND","ND","31.40","ND","ND","ND","1","47","30.3","52","726.2","0"],
    [16291,"2012-03-15T14:00:00","ND","ND","21.51","ND","ND","ND","1.5","75.2","31.2","49.5","653.3","0"],
    [16292,"2012-03-15T15:00:00","ND","ND","21.49","ND","ND","ND","0.7","68.3","32.2","46","481.2","0"],
    [16293,"2012-03-15T16:00:00","ND","ND","18.75","ND","ND","ND","1.1","12.9","31.4","48.3","183","0"],
    [16294,"2012-03-15T17:00:00","ND","ND","17.78","ND","ND","ND","2.2","262.4","30.8","48.3","213.4","0"],
    [16295,"2012-03-15T18:00:00","ND","ND","17.91","ND","ND","ND","1.5","256.7","30.3","48.6","85.9","0"],
    [16296,"2012-03-15T19:00:00","ND","ND","23.88","ND","ND","ND","0.1","329","28.8","51.6","1.8","0"],
    [16297,"2012-03-15T20:00:00","ND","ND","26.70","ND","ND","ND","0.8","102","28","55","0","0"],
    [16298,"2012-03-15T21:00:00","ND","ND","35.33","ND","ND","ND","1.5","129.9","27.5","57.9","0","0"],
    [16299,"2012-03-15T22:00:00","ND","ND","60.40","ND","ND","ND","0.6","78","26.5","63.2","0","0"],
    [16300,"2012-03-15T23:00:00","ND","ND","60.10","ND","ND","ND","1","110.7","25.7","66.7","0","0"],
    [16301,"2012-03-16T00:00:00","ND","ND","51.80","ND","ND","ND","0.5","151.6","25.3","68.6","0","0"],
    [16302,"2012-03-16T01:00:00","ND","ND","39.27","ND","ND","ND","0.7","80.9","24.6","72.4","0","0"],
    [16303,"2012-03-16T02:00:00","ND","ND","36.53","ND","ND","ND","0.5","349.6","24.5","73.4","0","0"],
    [16304,"2012-03-16T03:00:00","ND","ND","26.42","ND","ND","ND","0.6","196.6","22.7","84.3","0","5.84"],
    [16305,"2012-03-16T04:00:00","ND","ND","23.44","ND","ND","ND","0.3","256.6","22","88.8","0","0.51"],
    [16306,"2012-03-16T05:00:00","ND","ND","14.47","ND","ND","ND","0.4","17","21.8","90.1","0","0.51"],
    [16307,"2012-03-16T06:00:00","ND","ND","7.47","ND","ND","ND","1","226.5","21.6","90.1","0","0.76"],
    [16308,"2012-03-16T07:00:00","ND","ND","17.22","ND","ND","ND","0.3","231","21.9","85","7.9","0"],
    [16309,"2012-03-16T08:00:00","ND","ND","24.92","ND","ND","ND","0.2","310.5","22.4","84.8","48.9","0"],
    [16310,"2012-03-16T09:00:00","ND","ND","27.99","ND","ND","ND","0.1","255.2","24","78.4","189","0"],
    [16311,"2012-03-16T10:00:00","ND","ND","37.15","ND","ND","ND","0.3","82.3","25.6","69.3","369.7","0"],
    [16312,"2012-03-16T11:00:00","ND","ND","51.94","ND","ND","ND","0.9","53.4","26.9","66.2","440.8","0"],
    [16313,"2012-03-16T12:00:00","ND","ND","43.31","ND","ND","ND","1.5","49.5","27.8","61.7","484.9","0"],
    [16314,"2012-03-16T13:00:00","ND","ND","41.10","ND","ND","ND","1.7","45.1","28.5","58.2","580.4","0"],
    [16315,"2012-03-16T14:00:00","ND","ND","20.07","ND","ND","ND","1.4","69.1","29","54.7","347.8","0"],
    [16316,"2012-03-16T15:00:00","64.7","ND","12.52","ND","ND","ND","2.5","250.9","28","55.1","166.8","0"],
    [16317,"2012-03-16T16:00:00","39.9","ND","15.77","ND","ND","ND","1.1","275.8","28.8","50.8","219.6","0"],
    [16318,"2012-03-16T17:00:00","21.2","ND","16.98","ND","ND","ND","0.8","289.2","28.2","49.3","48","0"],
    [16319,"2012-03-16T18:00:00","15.5","ND","17.72","ND","ND","ND","1.8","228.1","27.3","50.5","7.4","0"],
    [16320,"2012-03-16T19:00:00","10.3","ND","22.36","ND","ND","ND","1.7","188.6","25.8","62.8","0.1","0"],
    [16321,"2012-03-16T20:00:00","23.6","ND","30.29","ND","ND","ND","1.1","108","24.5","73.9","0","0"],
    [16322,"2012-03-16T21:00:00","18.8","ND","35.78","ND","ND","ND","1.8","188.8","22","86.6","0","6.86"],
    [16323,"2012-03-16T22:00:00","19.4","ND","43.50","ND","ND","ND","0.6","75.1","21.4","93.1","0","5.08"],
    [16324,"2012-03-16T23:00:00","19.6","ND","27.28","ND","ND","ND","0.7","39.4","21.1","96","0","4.32"],
    [16325,"2012-03-17T00:00:00","19.6","ND","38.83","ND","ND","ND","0.9","188.7","21.1","96.3","0","5.59"],
    [16326,"2012-03-17T01:00:00","11.4","ND","36.04","ND","ND","ND","0.1","242.1","20.8","95.5","0","3.81"],
    [16327,"2012-03-17T02:00:00","10.8","ND","36.73","ND","ND","ND","0.2","110.9","20.7","95.7","0","3.3"],
    [16328,"2012-03-17T03:00:00","10.9","ND","27.42","ND","ND","ND","0.2","236","20.6","93.2","0","0"],
    [16329,"2012-03-17T04:00:00","13.2","ND","27.50","ND","ND","ND","0.3","256.8","20.7","93.5","0","0"],
    [16330,"2012-03-17T05:00:00","8.7","ND","21.76","ND","ND","ND","0.1","280.4","20.7","94.3","0","0"],
    [16331,"2012-03-17T06:00:00","7","ND","21.90","ND","ND","ND","0.3","29.1","20.7","93.6","0","0.51"],
    [16332,"2012-03-17T07:00:00","5.2","ND","19.71","ND","ND","ND","0.5","10.4","20.4","95.5","12.8","0"],
    [16333,"2012-03-17T08:00:00","47","ND","22.22","ND","ND","ND","0.1","307.4","20.7","94.4","59.5","0"],
    [16334,"2012-03-17T09:00:00","41.6","ND","20.53","ND","ND","ND","0.2","148.3","22.5","84","283","0"],
    [16335,"2012-03-17T10:00:00","60.1","ND","23.70","ND","ND","ND","1","109.2","24.8","72.2","649","0"],
    [16336,"2012-03-17T11:00:00","30.7","ND","35.40","ND","ND","ND","1","93.6","25.9","68.3","516.2","0"],
    [16337,"2012-03-17T12:00:00","57.3","ND","45.57","ND","ND","ND","0.6","38.9","26.5","64.6","397.4","0"],
    [16338,"2012-03-17T13:00:00","31","ND","37.82","ND","ND","ND","1.8","21.5","27.5","60.7","691.2","0"],
    [16339,"2012-03-17T14:00:00","41.4","ND","22.28","ND","ND","ND","1.7","36","28","59.1","577.1","0"],
    [16340,"2012-03-17T15:00:00","22.8","ND","15.16","ND","ND","ND","1.7","41.9","28","58.3","311.3","0"],
    [16341,"2012-03-17T16:00:00","19.7","ND","11.91","ND","ND","ND","1","289.2","28.5","54.8","253.5","0"],
    [16342,"2012-03-17T17:00:00","11.1","ND","14.77","ND","ND","ND","2.2","233.8","28.9","52.2","233.4","0"],
    [16343,"2012-03-17T18:00:00","10.3","ND","15.91","ND","ND","ND","0.8","271.4","27.7","54.7","43.1","0"],
    [16344,"2012-03-17T19:00:00","7.9","ND","11.84","ND","ND","ND","0.2","131.5","26.7","56.9","2.2","0"],
    [16345,"2012-03-17T20:00:00","6.4","ND","15.49","ND","ND","ND","1.2","154.2","25.5","66.8","0","0"],
    [16346,"2012-03-17T21:00:00","32","ND","24.90","ND","ND","ND","0.1","103.8","24.5","75","0","0"],
    [16347,"2012-03-17T22:00:00","27.4","ND","36.97","ND","ND","ND","0.5","282.8","23.8","77.4","0","0"],
    [16348,"2012-03-17T23:00:00","14.4","ND","46.54","ND","ND","ND","0.1","254.8","23.4","78.9","0","0"],
    [16349,"2012-03-18T00:00:00","44.8","ND","43.42","ND","ND","ND","0.2","10.7","23","77.3","0","0"],
    [16350,"2012-03-18T01:00:00","27.6","ND","40.09","ND","ND","ND","0.3","347.1","22.8","78.2","0","0"],
    [16351,"2012-03-18T02:00:00","50.4","ND","32.03","ND","ND","ND","0.4","326","22.5","78","0","0"],
    [16352,"2012-03-18T03:00:00","50.6","ND","29.71","ND","ND","ND","0.3","327.8","22.4","80.2","0","0"],
    [16353,"2012-03-18T04:00:00","29.3","ND","30.08","ND","ND","ND","0.4","5.6","22","81.6","0","0"],
    [16354,"2012-03-18T05:00:00","19.6","ND","30.22","ND","ND","ND","0.1","333","22","82.9","0","0"],
    [16355,"2012-03-18T06:00:00","39.6","ND","29.81","ND","ND","ND","0.3","30.8","21.8","84.5","0","0"],
    [16356,"2012-03-18T07:00:00","32.8","ND","29.61","ND","ND","ND","0.3","22.6","21.4","90.2","12.4","0"],
    [16357,"2012-03-18T08:00:00","62.4","ND","28.30","ND","ND","ND","0.1","231.5","22","87.4","67.1","0"],
    [16358,"2012-03-18T09:00:00","46.7","ND","24.16","ND","ND","ND","0.7","46.8","24.2","76.7","403","0"],
    [16359,"2012-03-18T10:00:00","66.3","ND","27.22","ND","ND","ND","1.4","53.9","25.8","67.6","586.9","0"],
    [16360,"2012-03-18T11:00:00","41.2","ND","46.63","ND","ND","ND","0.7","26.8","27.2","60.1","535.5","0"],
    [16361,"2012-03-18T12:00:00","25.5","ND","30.51","ND","ND","ND","1.2","27.4","28","58","456.6","0"],
    [16362,"2012-03-18T13:00:00","13.4","ND","12.75","ND","ND","ND","0.5","345.3","28.4","53.7","415.8","0"],
    [16363,"2012-03-18T14:00:00","10.1","ND","12.93","ND","ND","ND","2.2","256.7","30.3","47","732.5","0"],
    [16364,"2012-03-18T15:00:00","6.7","ND","10.56","ND","ND","ND","1.1","304.2","30.4","46.8","466.2","0"],
    [16365,"2012-03-18T16:00:00","4.9","ND","6.69","ND","ND","ND","2.2","268.7","29.3","49.8","226.3","0"],
    [16366,"2012-03-18T17:00:00","4","ND","6.38","ND","ND","ND","2.3","269.6","27.6","52.7","36.8","0"],
    [16367,"2012-03-18T18:00:00","9.9","ND","8.45","ND","ND","ND","1.3","59.8","26.7","58.6","18","0"],
    [16368,"2012-03-18T19:00:00","6.4","ND","10.19","ND","ND","ND","1.2","83.6","24.7","71.8","0.7","0"],
    [16369,"2012-03-18T20:00:00","30.8","ND","19.61","ND","ND","ND","1.2","55.4","23.7","74.3","0","0"],
    [16370,"2012-03-18T21:00:00","31","ND","37.17","ND","ND","ND","1","106","23.9","72.1","0","0"],
    [16371,"2012-03-18T22:00:00","23.9","ND","30.06","ND","ND","ND","0.7","113.7","23.7","72.9","0","0"],
    [16372,"2012-03-18T23:00:00","12.8","ND","34.52","ND","ND","ND","1.3","104","23.5","75.2","0","0"],
    [16373,"2012-03-19T00:00:00","24","ND","34.14","ND","ND","ND","2.5","178.7","22.7","80.2","0","0"],
    [16374,"2012-03-19T01:00:00","28.2","ND","33.94","ND","ND","ND","1.8","155.9","21.7","87.4","0","0"],
    [16375,"2012-03-19T02:00:00","30.7","ND","21.49","ND","ND","ND","1.1","147.3","21.3","89.5","0","0"],
    [16376,"2012-03-19T03:00:00","18.2","ND","16.89","ND","ND","ND","0.9","164.9","21.2","89.4","0","0"],
    [16377,"2012-03-19T04:00:00","22","ND","14.52","ND","ND","ND","0.3","150.9","21.4","88.8","0","0"],
    [16378,"2012-03-19T05:00:00","16","ND","12.45","ND","ND","ND","0.2","227","21.4","88.4","0","0"],
    [16379,"2012-03-19T06:00:00","31.5","ND","14.22","ND","ND","ND","1","151.6","21.4","87.6","0","0"],
    [16380,"2012-03-19T07:00:00","16.4","ND","16.73","ND","ND","ND","1","118.4","21.4","87.9","2.1","0"],
    [16381,"2012-03-19T08:00:00","19.4","ND","16.84","ND","ND","ND","0.1","227.8","21.3","89","9.1","1.02"],
    [16382,"2012-03-19T09:00:00","11.4","ND","19.72","ND","ND","ND","0.7","49.2","21.1","92.8","44.7","1.52"],
    [16383,"2012-03-19T10:00:00","20.6","ND","17.47","ND","ND","ND","0.8","28.1","21.4","91.5","129","0"],
    [16384,"2012-03-19T11:00:00","16.2","ND","20.10","ND","ND","ND","1.5","53.3","21.7","91.2","149.8","0.25"],
    [16385,"2012-03-19T12:00:00","21.2","ND","14.83","ND","ND","ND","0.8","71.2","22.9","84.4","271.1","0"],
    [16386,"2012-03-19T13:00:00","26.1","ND","16.18","ND","ND","ND","0.6","50.8","23.9","76.3","257.6","0"],
    [16387,"2012-03-19T14:00:00","24","ND","19.27","ND","ND","ND","1.2","76.6","24","77.5","240.4","0"],
    [16388,"2012-03-19T15:00:00","13.1","ND","20.74","ND","ND","ND","0.9","47.1","24.5","74.6","174.8","0"],
    [16389,"2012-03-19T16:00:00","29.3","ND","28.52","ND","ND","ND","1.2","41.7","24.6","73.9","116","0"],
    [16390,"2012-03-19T17:00:00","20","ND","23.40","ND","ND","ND","1.8","44","24.4","74.3","91.5","0"],
    [16391,"2012-03-19T18:00:00","40.3","ND","25.32","ND","ND","ND","1.7","43.6","24.2","74.8","29.3","0"],
    [16392,"2012-03-19T19:00:00","33.4","ND","16.55","ND","ND","ND","1","38.8","23.7","75.6","0.4","0"],
    [16393,"2012-03-19T20:00:00","23.1","ND","13.46","ND","ND","ND","0.4","276","23.2","79.7","0","0"],
    [16394,"2012-03-19T21:00:00","33.9","ND","22.45","ND","ND","ND","0.1","265.8","23","80.9","0","0"],
    [16395,"2012-03-19T22:00:00","35.4","ND","34.93","ND","ND","ND","0.1","239.9","23.1","79.4","0","0"],
    [16396,"2012-03-19T23:00:00","31.6","ND","42.33","ND","ND","ND","0.1","33.3","22.6","82","0","0"],
    [16397,"2012-03-20T00:00:00","30.7","ND","38.69","ND","ND","ND","0.6","127.3","22.7","82.5","0","0"],
    [16398,"2012-03-20T01:00:00","48.8","ND","33.08","ND","ND","ND","0.3","8.5","22","86.6","0","0"],
    [16399,"2012-03-20T02:00:00","56.8","ND","35.31","ND","ND","ND","0.2","342.8","21.9","86.5","0","0"],
    [16400,"2012-03-20T03:00:00","69.5","ND","27.98","ND","ND","ND","0.3","47.1","21.7","87.1","0","0"],
    [16401,"2012-03-20T04:00:00","69.9","ND","26.78","ND","ND","ND","0.5","44.4","21.1","89.7","0","0"],
    [16402,"2012-03-20T05:00:00","42.9","ND","26.28","ND","ND","ND","0.2","95.1","21.4","87.8","0","0"],
    [16403,"2012-03-20T06:00:00","54.5","ND","23.09","ND","ND","ND","0.3","254.5","21.7","87.6","0","0"],
    [16404,"2012-03-20T07:00:00","58.8","ND","24.25","ND","ND","ND","0.5","22.3","20.8","92.3","4.6","5.84"],
    [16405,"2012-03-20T08:00:00","58.2","ND","24.62","ND","ND","ND","1","53.6","20.5","94.5","58.1","0"],
    [16406,"2012-03-20T09:00:00","55.1","ND","24.11","ND","ND","ND","0.4","61.3","21.5","88.5","176.4","0.25"],
    [16407,"2012-03-20T10:00:00","38.5","ND","20.88","ND","ND","ND","0.1","175.2","23.2","79.3","296.1","0"],
    [16408,"2012-03-20T11:00:00","28.1","ND","21.94","ND","ND","ND","0.3","311.2","24.8","71.2","354","0"],
    [16409,"2012-03-20T12:00:00","36.7","ND","24.09","ND","ND","ND","0.2","307.8","25.7","66.1","340.6","0"],
    [16410,"2012-03-20T13:00:00","40.5","ND","26.98","ND","ND","ND","0.4","220.7","26.6","62.8","456.1","0"],
    [16411,"2012-03-20T14:00:00","36.6","ND","26.19","ND","ND","ND","1.8","355.5","27.6","56.6","630.2","0"],
    [16412,"2012-03-20T15:00:00","20.1","ND","24.74","ND","ND","ND","1.4","65.2","28.1","53.8","317.5","0"],
    [16413,"2012-03-20T16:00:00","15.8","ND","15.40","ND","ND","ND","0.8","129.2","27.6","57.5","126.7","0"],
    [16414,"2012-03-20T17:00:00","25.6","ND","14.14","ND","ND","ND","5.1","274.9","21.9","78","16.5","5.59"],
    [16415,"2012-03-20T18:00:00","43.7","ND","18.69","ND","ND","ND","0.5","240.9","22.9","75.8","23.5","0"],
    [16416,"2012-03-20T19:00:00","26","ND","17.82","ND","ND","ND","0.6","296.1","22.7","82.8","1","0"],
    [16417,"2012-03-20T20:00:00","28.6","ND","39.83","ND","ND","ND","0.3","275.9","22.3","84.9","0","0"],
    [16418,"2012-03-20T21:00:00","24.9","ND","40.93","ND","ND","ND","0.2","242.9","22.4","86.6","0","0"],
    [16419,"2012-03-20T22:00:00","50.6","ND","39.47","ND","ND","ND","0.5","354","22.3","84.1","0","0"],
    [16420,"2012-03-20T23:00:00","41.4","ND","44.29","ND","ND","ND","0.3","260.4","22","86.3","0","0"],
    [16421,"2012-03-21T00:00:00","52.2","ND","37.59","ND","ND","ND","0","290.6","21.7","87.3","0","0"],
    [16422,"2012-03-21T01:00:00","28.7","ND","32.76","ND","ND","ND","0.3","271.6","21.5","88.3","0","0"],
    [16423,"2012-03-21T02:00:00","31.5","ND","25.33","ND","ND","ND","0.3","252","21.5","89.1","0","0"],
    [16424,"2012-03-21T03:00:00","22.6","ND","23.53","ND","ND","ND","0.7","178.6","21.8","86.4","0","0"],
    [16425,"2012-03-21T04:00:00","33.8","ND","22.49","ND","ND","ND","1.2","188.4","20.9","93.6","1.5","17.02"],
    [16426,"2012-03-21T05:00:00","55","ND","20.79","ND","ND","ND","0.8","198.6","20.5","97.8","0","3.05"],
    [16427,"2012-03-21T06:00:00","30","ND","17.29","ND","ND","ND","0.2","298.2","20.6","96.5","0","0.51"],
    [16428,"2012-03-21T07:00:00","17.8","ND","21.90","ND","ND","ND","0.2","273.2","20.7","95.4","5.9","1.02"],
    [16429,"2012-03-21T08:00:00","26.4","ND","20.27","ND","ND","ND","0.8","31.8","21.1","94.7","27.3","0.25"],
    [16430,"2012-03-21T09:00:00","41.4","ND","22.19","ND","ND","ND","0.2","23","21.9","92","221.7","0"],
    [16431,"2012-03-21T10:00:00","45.4","ND","26.24","ND","ND","ND","0.5","92.2","24.2","77.9","488.5","0"],
    [16432,"2012-03-21T11:00:00","41.7","ND","35.29","ND","ND","ND","1.3","116.8","25.7","73.2","590.1","0"],
    [16433,"2012-03-21T12:00:00","41.7","ND","36.61","ND","ND","ND","0.1","244","27","66.4","605.3","0"],
    [16434,"2012-03-21T13:00:00","33","ND","25.75","ND","ND","ND","0.5","129.1","27.8","61.4","572.1","0"],
    [16435,"2012-03-21T14:00:00","32.2","ND","18.97","ND","ND","ND","0.4","321.9","29","56.3","544.9","0"],
    [16436,"2012-03-21T15:00:00","21.3","ND","18.71","ND","ND","ND","1.5","327.6","28.8","55.6","413.3","0"],
    [16437,"2012-03-21T16:00:00","37.5","ND","18.79","ND","ND","ND","1.7","293.9","29.6","51","462.2","0"],
    [16438,"2012-03-21T17:00:00","19.7","ND","17.31","ND","ND","ND","1","4.5","27.6","60.7","153.2","0.25"],
    [16439,"2012-03-21T18:00:00","11.5","ND","9.31","ND","ND","ND","3.6","191","25.3","66.8","40.8","0"],
    [16440,"2012-03-21T19:00:00","15.4","ND","15.82","ND","ND","ND","0.8","190.8","23.9","75.3","2.9","0"],
    [16441,"2012-03-21T20:00:00","23.7","ND","28.65","ND","ND","ND","0.7","77.2","24.2","76.8","0","0"],
    [16442,"2012-03-21T21:00:00","48.3","ND","45.08","ND","ND","ND","0.9","124","23.4","82.4","0","0"],
    [16443,"2012-03-21T22:00:00","80.6","ND","44.60","ND","ND","ND","0.5","78.1","22.4","88.3","0","1.52"],
    [16444,"2012-03-21T23:00:00","57.4","ND","44.30","ND","ND","ND","0.6","46.9","21.9","90.2","0","0"],
    [16445,"2012-03-22T00:00:00","36.6","ND","37.97","ND","ND","ND","0.8","191.8","21.8","91","0","0"],
    [16446,"2012-03-22T01:00:00","19.3","ND","26.20","ND","ND","ND","1.8","147.4","21.7","89.5","0","0"],
    [16447,"2012-03-22T02:00:00","11.1","ND","28.98","ND","ND","ND","1.8","186.4","21","92.1","0","0.25"],
    [16448,"2012-03-22T03:00:00","7.7","ND","20.96","ND","ND","ND","1","170.5","21.1","90.8","0","0"],
    [16449,"2012-03-22T04:00:00","13.8","ND","10.69","ND","ND","ND","1.2","152.4","21","91.4","0","0"],
    [16450,"2012-03-22T05:00:00","9.4","ND","7.58","ND","ND","ND","0.5","162.6","20.8","89.2","0","0"],
    [16451,"2012-03-22T06:00:00","5.4","ND","7.33","ND","ND","ND","0.4","233.3","20.9","88.8","0","0"],
    [16452,"2012-03-22T07:00:00","4.9","ND","6.87","ND","ND","ND","0.3","47.1","21.2","89.2","5.7","0"],
    [16453,"2012-03-22T08:00:00","27.1","ND","14.58","ND","ND","ND","1.4","117.9","21.3","90.6","27.1","0"],
    [16454,"2012-03-22T09:00:00","44.1","ND","22.84","ND","ND","ND","0.8","153.8","21.9","87.3","128","0"],
    [16455,"2012-03-22T10:00:00","45.1","ND","24.51","ND","ND","ND","0.5","84.5","22.8","82","113.1","0"],
    [16456,"2012-03-22T11:00:00","31.8","ND","25.72","ND","ND","ND","0.5","32.2","22.8","83","110.3","0"],
    [16457,"2012-03-22T12:00:00","15.9","ND","27.28","ND","ND","ND","1.1","26.7","23.7","80","294.1","0"],
    [16458,"2012-03-22T13:00:00","17.4","ND","30.94","ND","ND","ND","2.1","39.3","25.3","71.9","675.4","0"],
    [16459,"2012-03-22T14:00:00","31.3","ND","27.70","ND","ND","ND","2.3","41.5","27","60.7","803.1","0"],
    [16460,"2012-03-22T15:00:00","16.7","ND","27.91","ND","ND","ND","2.2","27.4","27.6","55.7","690.7","0"],
    [16461,"2012-03-22T16:00:00","ND","ND","13.17","ND","ND","ND","2.6","35","26.5","59.2","287.8","0"],
    [16462,"2012-03-22T17:00:00","ND","ND","10.64","ND","ND","ND","2.1","32.4","24.9","65.2","39.6","0"],
    [16463,"2012-03-22T18:00:00","ND","ND","13.73","ND","ND","ND","1.4","25.5","24.1","69.9","22","0"],
    [16464,"2012-03-22T19:00:00","ND","ND","26.18","ND","ND","ND","0","259.1","24","71.6","4.7","0"],
    [16465,"2012-03-22T20:00:00","ND","ND","35.57","ND","ND","ND","1.1","231.7","23.9","72.9","0","0"],
    [16466,"2012-03-22T21:00:00","ND","ND","46.80","ND","ND","ND","1.9","181.9","24","72.3","0","0"],
    [16467,"2012-03-22T22:00:00","ND","ND","41.03","ND","ND","ND","1.6","152.7","23.7","72.9","0","0"],
    [16468,"2012-03-22T23:00:00","ND","ND","45.08","ND","ND","ND","1.1","174.1","23.1","75.6","0","0"],
    [16469,"2012-03-23T00:00:00","ND","ND","41.06","ND","ND","ND","0.7","192.1","22.7","79","0","0"],
    [16470,"2012-03-23T01:00:00","ND","ND","33.62","ND","ND","ND","0.1","351.5","22.4","81.5","0","0"],
    [16471,"2012-03-23T02:00:00","ND","ND","28.86","ND","ND","ND","0.4","51.6","22","83.6","0","0"],
    [16472,"2012-03-23T03:00:00","ND","ND","32.95","ND","ND","ND","0.1","353.8","21.7","85.4","0","0"],
    [16473,"2012-03-23T04:00:00","ND","ND","32.82","ND","ND","ND","0.5","3.9","21.4","87.7","0","0"],
    [16474,"2012-03-23T05:00:00","ND","ND","29.49","ND","ND","ND","0.3","25.2","21.2","89.4","0","0"],
    [16475,"2012-03-23T06:00:00","ND","ND","25.42","ND","ND","ND","0.5","355.9","20.8","90.2","0","0"],
    [16476,"2012-03-23T07:00:00","ND","ND","24.77","ND","ND","ND","0.1","50.2","20.8","89.9","10.8","0"],
    [16477,"2012-03-23T08:00:00","ND","ND","25.90","ND","ND","ND","0.5","51","21.7","86.8","134.8","0"],
    [16478,"2012-03-23T09:00:00","ND","ND","28.26","ND","ND","ND","1.4","56.2","23.5","79.7","330.5","0"],
    [16479,"2012-03-23T10:00:00","ND","ND","33.96","ND","ND","ND","1.5","68.4","25","71.9","650","0"],
    [16480,"2012-03-23T11:00:00","ND","ND","39.18","ND","ND","ND","1.3","67.6","26.4","64.9","576.4","0"],
    [16481,"2012-03-23T12:00:00","ND","ND","26.57","ND","ND","ND","0.6","281.1","27.2","60.7","358.1","0"],
    [16482,"2012-03-23T13:00:00","ND","ND","12.75","ND","ND","ND","0.9","113.3","28.9","53.6","642.7","0"],
    [16483,"2012-03-23T14:00:00","ND","ND","12.61","ND","ND","ND","0.8","76","29.8","51.1","642.4","0"],
    [16484,"2012-03-23T15:00:00","ND","ND","13.82","ND","ND","ND","1.1","60.1","29.9","50.8","301.9","0"],
    [16485,"2012-03-23T16:00:00","ND","ND","13.15","ND","ND","ND","0.8","324.4","30","50.8","228","0"],
    [16486,"2012-03-23T17:00:00","ND","ND","10.95","ND","ND","ND","1.8","316.2","29.4","52.2","137.8","0"],
    [16487,"2012-03-23T18:00:00","ND","ND","18.77","ND","ND","ND","1.5","260.1","29.1","52","89.7","0"],
    [16488,"2012-03-23T19:00:00","ND","ND","13.82","ND","ND","ND","1","254.1","27.5","56.7","2.5","0"],
    [16489,"2012-03-23T20:00:00","ND","ND","16.98","ND","ND","ND","0.7","142.5","27","58.4","0","0"],
    [16490,"2012-03-23T21:00:00","ND","ND","28.99","ND","ND","ND","1.1","91.8","25.7","68.5","0","0"],
    [16491,"2012-03-23T22:00:00","ND","ND","41.93","ND","ND","ND","0.2","71.3","24.9","71.8","0","0"],
    [16492,"2012-03-23T23:00:00","74.2","ND","31.54","ND","ND","ND","0.4","283.8","24.6","72.6","1.1","0"],
    [16493,"2012-03-24T00:00:00","37.1","ND","30.36","ND","ND","ND","1.1","143.1","24.4","74.6","0","0"],
    [16494,"2012-03-24T01:00:00","18.6","ND","31.80","ND","ND","ND","1.2","160.3","23.7","79","0","0"],
    [16495,"2012-03-24T02:00:00","9.3","ND","35.67","ND","ND","ND","2.4","170.6","22.2","88.2","0.5","7.11"],
    [16496,"2012-03-24T03:00:00","4.6","ND","34.50","ND","ND","ND","0.9","170.8","21","95.6","0","19.81"],
    [16497,"2012-03-24T04:00:00","2.3","ND","16.72","ND","ND","ND","0.9","122.5","20.9","94.6","0","1.02"],
    [16498,"2012-03-24T05:00:00","ND","ND","9.55","ND","ND","ND","0.3","130.3","20.6","93.8","0","0.25"],
    [16499,"2012-03-24T06:00:00","ND","ND","9.43","ND","ND","ND","0.2","15.4","20.7","94.8","0","0"],
    [16500,"2012-03-24T07:00:00","ND","ND","7.09","ND","ND","ND","0.6","24.3","20.7","95.4","5","0"],
    [16501,"2012-03-24T08:00:00","ND","ND","19.64","ND","ND","ND","1.5","354.4","20.7","94.1","32.8","0"],
    [16502,"2012-03-24T09:00:00","ND","ND","33.69","ND","ND","ND","1.2","49.5","21.3","89.8","156.2","0"],
    [16503,"2012-03-24T10:00:00","ND","ND","27.27","ND","ND","ND","0.7","127.5","22.3","84.8","217.1","0"],
    [16504,"2012-03-24T11:00:00","ND","ND","24.45","ND","ND","ND","1.1","117.7","23.7","78.7","309.7","0"],
    [16505,"2012-03-24T12:00:00","ND","ND","22.09","ND","ND","ND","0.3","62.6","24.6","73","240.2","0"],
    [16506,"2012-03-24T13:00:00","ND","ND","27.93","ND","ND","ND","0.6","273.8","24.9","72.2","103.2","0"],
    [16507,"2012-03-24T14:00:00","ND","ND","22.74","ND","ND","ND","0.8","219.3","24.8","74.1","222.7","0"],
    [16508,"2012-03-24T15:00:00","ND","ND","33.22","ND","ND","ND","0.7","100.4","25.7","70.8","236.6","0"],
    [16509,"2012-03-24T16:00:00","ND","ND","30.81","ND","ND","ND","0.1","187.9","26.1","67.1","177.3","0"],
    [16510,"2012-03-24T17:00:00","ND","ND","35.12","ND","ND","ND","0.4","84.5","26.4","64.8","121.5","0"],
    [16511,"2012-03-24T18:00:00","ND","ND","31.37","ND","ND","ND","0.4","270.9","25.7","65.2","39.8","0"],
    [16512,"2012-03-24T19:00:00","ND","ND","23.67","ND","ND","ND","0.5","226.9","24.6","67.8","2.5","0"],
    [16513,"2012-03-24T20:00:00","ND","ND","23.77","ND","ND","ND","0.3","287.9","23.6","72.8","0","0"],
    [16514,"2012-03-24T21:00:00","ND","ND","28.40","ND","ND","ND","0.4","237.5","23.4","73.5","0","0"],
    [16515,"2012-03-24T22:00:00","ND","ND","30.22","ND","ND","ND","0.3","12.5","23.1","78.6","0","0"],
    [16516,"2012-03-24T23:00:00","ND","ND","31.89","ND","ND","ND","0.2","292.4","22.1","87","0","0"],
    [16517,"2012-03-25T00:00:00","ND","ND","31.07","ND","ND","ND","0.1","9.1","21.8","87.1","0","0"],
    [16518,"2012-03-25T01:00:00","ND","ND","23.05","ND","ND","ND","0.2","268.3","21.6","87.5","0","0"],
    [16519,"2012-03-25T02:00:00","ND","ND","22.88","ND","ND","ND","0.1","243.6","21.8","86.5","0","20.83"],
    [16520,"2012-03-25T03:00:00","ND","ND","20.61","ND","ND","ND","0.1","68.2","20.5","97.9","0","12.7"],
    [16521,"2012-03-25T04:00:00","ND","ND","21.48","ND","ND","ND","0.9","233","20.3","98.8","0","17.78"],
    [16522,"2012-03-25T05:00:00","ND","ND","28.94","ND","ND","ND","0.2","308.5","20.3","98.8","0","1.52"],
    [16523,"2012-03-25T06:00:00","ND","ND","21.87","ND","ND","ND","0.2","294.4","20.2","97.5","0","0"],
    [16524,"2012-03-25T07:00:00","ND","ND","17.42","ND","ND","ND","0.1","344.3","20.5","94.8","9","0.25"],
    [16525,"2012-03-25T08:00:00","ND","ND","14.01","ND","ND","ND","0.9","164.7","21.3","92.1","78.3","0.51"],
    [16526,"2012-03-25T09:00:00","ND","ND","18.95","ND","ND","ND","0.9","171.6","21.4","92.7","91.1","1.27"],
    [16527,"2012-03-25T10:00:00","ND","ND","24.49","ND","ND","ND","1.4","159.2","21.8","89.9","134","0"],
    [16528,"2012-03-25T11:00:00","ND","ND","26.23","ND","ND","ND","0.7","168.7","22.7","85.3","291.4","0"],
    [16529,"2012-03-25T12:00:00","ND","ND","18.22","ND","ND","ND","0.6","110.9","24.2","78.9","584.8","0"],
    [16530,"2012-03-25T13:00:00","ND","ND","14.90","ND","ND","ND","0.5","88","26.2","68.4","746.4","0"],
    [16531,"2012-03-25T14:00:00","ND","ND","15.24","ND","ND","ND","1.1","118.7","27.4","62.6","628.7","0"],
    [16532,"2012-03-25T15:00:00","ND","ND","13.44","ND","ND","ND","0.4","213.4","28.6","58.3","626.1","0"],
    [16533,"2012-03-25T16:00:00","ND","ND","13.90","ND","ND","ND","0.9","27.2","28.5","56.3","234","0"],
    [16534,"2012-03-25T17:00:00","ND","ND","12.82","ND","ND","ND","2","244.8","28.3","54.6","151.8","0"],
    [16535,"2012-03-25T18:00:00","ND","ND","9.71","ND","ND","ND","2","262.5","27.8","56.2","112.3","0"],
    [16536,"2012-03-25T19:00:00","ND","ND","9.62","ND","ND","ND","0.3","65.4","26.6","59.7","2.3","0"],
    [16537,"2012-03-25T20:00:00","ND","ND","11.08","ND","ND","ND","0.1","259.1","26","61.8","0","0"],
    [16538,"2012-03-25T21:00:00","ND","ND","17.88","ND","ND","ND","0.8","106.5","25.5","65.7","0","0"],
    [16539,"2012-03-25T22:00:00","ND","ND","24.75","ND","ND","ND","0.6","37.4","24.9","68.5","0","0"],
    [16540,"2012-03-25T23:00:00","ND","ND","26.66","ND","ND","ND","1.5","145.7","24.5","73","0.5","0"],
    [16541,"2012-03-26T00:00:00","ND","ND","29.29","ND","ND","ND","2.9","205.5","21","91","0.6","18.8"],
    [16542,"2012-03-26T01:00:00","ND","ND","25.81","ND","ND","ND","0.4","207.5","20.2","94.6","0.1","1.02"],
    [16543,"2012-03-26T02:00:00","ND","ND","11.12","ND","ND","ND","0.5","52.1","20.6","93.2","0","0.51"],
    [16544,"2012-03-26T03:00:00","ND","ND","9.54","ND","ND","ND","0.6","345.2","20.2","95","0","0.25"],
    [16545,"2012-03-26T04:00:00","ND","ND","19.74","ND","ND","ND","0.6","138.1","20.5","93.6","0","0"],
    [16546,"2012-03-26T05:00:00","ND","ND","18.57","ND","ND","ND","0.4","2.6","20.4","94.6","0","0"],
    [16547,"2012-03-26T06:00:00","ND","ND","13.39","ND","ND","ND","0.2","220.4","20.3","95.7","0","0"],
    [16548,"2012-03-26T07:00:00","ND","ND","21.65","ND","ND","ND","0.3","29.6","20.4","95.6","8.4","0"],
    [16549,"2012-03-26T08:00:00","ND","ND","23.57","ND","ND","ND","0.3","286.7","20.8","95.3","68.1","0"],
    [16550,"2012-03-26T09:00:00","ND","ND","25.64","ND","ND","ND","0.2","128.2","21.8","90","48","0"],
    [16551,"2012-03-26T10:00:00","ND","ND","34.26","ND","ND","ND","1","107","22.1","91.6","105.9","0"],
    [16552,"2012-03-26T11:00:00","ND","ND","42.80","ND","ND","ND","0.5","101.9","22.3","91.1","142.7","0"],
    [16553,"2012-03-26T12:00:00","ND","ND","29.26","ND","ND","ND","0.8","101.8","22.6","90.4","111","0.51"],
    [16554,"2012-03-26T13:00:00","ND","ND","30.85","ND","ND","ND","1.3","59.8","22.4","92.2","184.9","2.79"],
    [16555,"2012-03-26T14:00:00","ND","ND","46.19","ND","ND","ND","0.9","8.7","22.8","92","143","2.03"],
    [16556,"2012-03-26T15:00:00","66.6","ND","30.01","ND","ND","ND","0.7","52.3","23.8","83.4","326.2","0.25"],
    [16557,"2012-03-26T16:00:00","33.3","ND","22.83","ND","ND","ND","0.8","74.1","25.3","72.1","278.6","0.25"],
    [16558,"2012-03-26T17:00:00","17.6","ND","16.74","ND","ND","ND","1.6","56.1","25.1","68.1","149","0"],
    [16559,"2012-03-26T18:00:00","14.4","ND","17.71","ND","ND","ND","1","58","24.7","71.8","61.2","0"],
    [16560,"2012-03-26T19:00:00","25.3","ND","16.29","ND","ND","ND","0.8","52.5","23.6","81","3.5","0"],
    [16561,"2012-03-26T20:00:00","24.8","ND","20.43","ND","ND","ND","0.4","56","23","83.4","0","0"],
    [16562,"2012-03-26T21:00:00","36.6","ND","25.85","ND","ND","ND","0.2","54.2","22.4","85.7","0","0"],
    [16563,"2012-03-26T22:00:00","22.5","ND","31.72","ND","ND","ND","0.2","326.5","21.9","89.4","0","0"],
    [16564,"2012-03-26T23:00:00","12","ND","27.12","ND","ND","ND","0.2","188.5","21.7","90.1","0","0"],
    [16565,"2012-03-27T00:00:00","30.5","ND","24.06","ND","ND","ND","0.8","150.1","21.6","87.5","0","0"],
    [16566,"2012-03-27T01:00:00","16.8","ND","22.21","ND","ND","ND","1.3","170.3","21.2","90.7","0","0"],
    [16567,"2012-03-27T02:00:00","23.2","ND","22.15","ND","ND","ND","0.2","284","20.8","92","0","0"],
    [16568,"2012-03-27T03:00:00","16.9","ND","21.39","ND","ND","ND","0.5","359.4","20.7","89.9","0","0"],
    [16569,"2012-03-27T04:00:00","30.6","ND","16.41","ND","ND","ND","0.1","332","20.8","89.2","0","0"],
    [16570,"2012-03-27T05:00:00","16.8","ND","12.89","ND","ND","ND","0.2","59.9","20.5","92.5","0","0"],
    [16571,"2012-03-27T06:00:00","28.2","ND","14.56","ND","ND","ND","0.2","47.7","20.2","94.1","0","0"],
    [16572,"2012-03-27T07:00:00","47.2","ND","11.86","ND","ND","ND","0.1","147.3","20.3","94","12.5","0"],
    [16573,"2012-03-27T08:00:00","61.6","ND","11.68","ND","ND","ND","0.2","96.5","21.3","89.6","130.7","0"],
    [16574,"2012-03-27T09:00:00","82.7","ND","16.26","ND","ND","ND","0.7","123.4","23.8","76.2","419.2","0"],
    [16575,"2012-03-27T10:00:00","76.9","ND","30.31","ND","ND","ND","1","108.1","25","71.2","517.6","0"],
    [16576,"2012-03-27T11:00:00","40.7","ND","49.74","ND","ND","ND","0.9","63.4","25.5","69.3","253","0"],
    [16577,"2012-03-27T12:00:00","20.3","ND","37.03","ND","ND","ND","0.7","19.7","26.5","65.4","385.7","0"],
    [16578,"2012-03-27T13:00:00","18.5","ND","22.87","ND","ND","ND","0.3","88.7","27.7","60.5","483","0"],
    [16579,"2012-03-27T14:00:00","27.2","ND","16.67","ND","ND","ND","0.2","311.6","28.2","58.1","383.7","0"],
    [16580,"2012-03-27T15:00:00","ND","ND","16.64","ND","ND","ND","0.8","15.7","29","55.6","573.6","0"],
    [16581,"2012-03-27T16:00:00","ND","ND","17.31","ND","ND","ND","0.7","73","28.8","56.9","180.9","0"],
    [16582,"2012-03-27T17:00:00","ND","ND","16.29","ND","ND","ND","0.9","268.1","28.5","57.7","90.2","0"],
    [16583,"2012-03-27T18:00:00","ND","ND","15.28","ND","ND","ND","1.4","261.2","28.2","56.2","94.8","0"],
    [16584,"2012-03-27T19:00:00","ND","ND","28.42","ND","ND","ND","0.8","252.3","26.7","61.6","2.5","0"],
    [16585,"2012-03-27T20:00:00","ND","ND","22.35","ND","ND","ND","0.1","237","25.7","67.3","0","0"],
    [16586,"2012-03-27T21:00:00","ND","ND","39.49","ND","ND","ND","0.1","85.7","24.7","72.6","0","0"],
    [16587,"2012-03-27T22:00:00","ND","ND","51.65","ND","ND","ND","0.3","170.3","24.1","75.2","0","0"],
    [16588,"2012-03-27T23:00:00","ND","ND","50.49","ND","ND","ND","0.2","243.8","23.1","80","0","0"],
    [16589,"2012-03-28T00:00:00","ND","ND","30.64","ND","ND","ND","0.1","239.9","22.5","81.8","0","0"],
    [16590,"2012-03-28T01:00:00","ND","ND","28.39","ND","ND","ND","0.3","243.3","22.5","81.4","0","0"],
    [16591,"2012-03-28T02:00:00","ND","ND","25.10","ND","ND","ND","0.5","70.6","22.5","82","0","0"],
    [16592,"2012-03-28T03:00:00","ND","ND","22.90","ND","ND","ND","0.4","169.3","22.2","85.8","0","0"],
    [16593,"2012-03-28T04:00:00","ND","ND","23.51","ND","ND","ND","0.2","23.5","22","87.9","0","0"],
    [16594,"2012-03-28T05:00:00","ND","ND","19.65","ND","ND","ND","0.1","59.9","21.6","88.3","0","0"],
    [16595,"2012-03-28T06:00:00","ND","ND","19.12","ND","ND","ND","0.1","156.8","21.6","88.6","0","0"],
    [16596,"2012-03-28T07:00:00","ND","ND","19.96","ND","ND","ND","0.1","99.4","21.9","88.8","12.1","0"],
    [16597,"2012-03-28T08:00:00","ND","ND","17.43","ND","ND","ND","0.2","295","22.3","86.4","60.6","0"],
    [16598,"2012-03-28T09:00:00","ND","ND","22.42","ND","ND","ND","0.7","143.4","23.9","77.5","142.3","0"],
    [16599,"2012-03-28T10:00:00","ND","ND","28.79","ND","ND","ND","0.8","168.8","25","69.9","261.7","0"],
    [16600,"2012-03-28T11:00:00","ND","ND","40.02","ND","ND","ND","1.5","166.8","26.4","62.8","395.1","0"],
    [16601,"2012-03-28T12:00:00","ND","ND","41.93","ND","ND","ND","0.7","154.7","27.2","60","345.6","0"],
    [16602,"2012-03-28T13:00:00","ND","ND","34.72","ND","ND","ND","0.5","159.9","27.9","58.1","439.4","0"],
    [16603,"2012-03-28T14:00:00","ND","ND","22.59","ND","ND","ND","0.7","328.4","28.8","54.5","590.2","0"],
    [16604,"2012-03-28T15:00:00","ND","ND","25.12","ND","ND","ND","0.7","40.1","29.8","51.8","618.4","0"],
    [16605,"2012-03-28T16:00:00","ND","ND","18.51","ND","ND","ND","1.4","54.9","29.8","52.6","459.7","0"],
    [16606,"2012-03-28T17:00:00","ND","ND","17.70","ND","ND","ND","1.4","23.9","29.1","54.6","166.8","0"],
    [16607,"2012-03-28T18:00:00","ND","ND","20.53","ND","ND","ND","1","312.3","28.5","56.3","52.9","0"],
    [16608,"2012-03-28T19:00:00","ND","ND","23.06","ND","ND","ND","1.2","242.4","26.9","61.3","1.6","0"],
    [16609,"2012-03-28T20:00:00","ND","ND","23.24","ND","ND","ND","0.7","215.9","26.2","64.5","0","0"],
    [16610,"2012-03-28T21:00:00","ND","ND","25.32","ND","ND","ND","0.1","194.5","25.3","68.5","0","0"],
    [16611,"2012-03-28T22:00:00","ND","ND","41.97","ND","ND","ND","1","179.5","24.6","72.2","0","0"],
    [16612,"2012-03-28T23:00:00","ND","ND","46.38","ND","ND","ND","1","203.8","24.6","70.7","0","0"],
    [16613,"2012-03-29T00:00:00","ND","ND","29.02","ND","ND","ND","0.5","201.6","23.8","76.2","0","0"],
    [16614,"2012-03-29T01:00:00","ND","ND","30.65","ND","ND","ND","0.2","322.9","23","78.8","0","0"],
    [16615,"2012-03-29T02:00:00","ND","ND","27.52","ND","ND","ND","0.1","42.8","22.5","82","0","0"],
    [16616,"2012-03-29T03:00:00","ND","ND","24.50","ND","ND","ND","0.2","293.1","22.8","79.9","0","0"],
    [16617,"2012-03-29T04:00:00","ND","ND","22.81","ND","ND","ND","0.6","39.2","22.1","83.9","0","0"],
    [16618,"2012-03-29T05:00:00","ND","ND","26.24","ND","ND","ND","0.1","242.6","22.1","84.2","0","0"],
    [16619,"2012-03-29T06:00:00","ND","ND","24.00","ND","ND","ND","1","227.3","22.3","83.4","0","0"],
    [16620,"2012-03-29T07:00:00","ND","ND","21.13","ND","ND","ND","0.4","144.5","22","88.6","21.4","1.52"],
    [16621,"2012-03-29T08:00:00","ND","ND","23.81","ND","ND","ND","0.8","10.7","22.8","86.2","160.5","0"],
    [16622,"2012-03-29T09:00:00","ND","ND","25.61","ND","ND","ND","0.9","41.4","24.4","78.1","347.8","0"],
    [16623,"2012-03-29T10:00:00","ND","ND","30.56","ND","ND","ND","0.6","67.3","26.2","70.6","524.8","0"],
    [16624,"2012-03-29T11:00:00","ND","ND","28.52","ND","ND","ND","1.4","138.3","28","60.4","565","0"],
    [16625,"2012-03-29T12:00:00","ND","ND","32.66","ND","ND","ND","1","191","28.9","55.3","631.6","0"],
    [16626,"2012-03-29T13:00:00","ND","ND","21.89","ND","ND","ND","0.5","99.5","30.4","50.2","848.1","0"],
    [16627,"2012-03-29T14:00:00","ND","ND","16.57","ND","ND","ND","0.4","6.7","31.7","47","764.1","0"],
    [16628,"2012-03-29T15:00:00","ND","ND","13.52","ND","ND","ND","1.3","331.7","31.5","48.5","544.3","0"],
    [16629,"2012-03-29T16:00:00","ND","ND","16.74","ND","ND","ND","2.9","272.9","31.6","47.1","468.9","0"],
    [16630,"2012-03-29T17:00:00","ND","ND","15.34","ND","ND","ND","3.8","276.5","30.2","49.9","256.8","0"],
    [16631,"2012-03-29T18:00:00","ND","ND","13.03","ND","ND","ND","2.2","279.4","29.1","51.9","42.5","0"],
    [16632,"2012-03-29T19:00:00","ND","ND","11.78","ND","ND","ND","1","245.6","28.5","53","1.5","0"],
    [16633,"2012-03-29T20:00:00","ND","ND","15.89","ND","ND","ND","2.1","112.3","28.3","56.5","0","0"],
    [16634,"2012-03-29T21:00:00","ND","ND","27.25","ND","ND","ND","1.1","114.8","27.1","62.7","0","0"],
    [16635,"2012-03-29T22:00:00","ND","ND","44.14","ND","ND","ND","0.5","83.6","26.2","67.6","0","0"],
    [16636,"2012-03-29T23:00:00","ND","ND","32.98","ND","ND","ND","0.4","135.5","25.8","69.1","0","0"],
    [16637,"2012-03-30T00:00:00","ND","ND","34.86","ND","ND","ND","0.5","128","25.4","72.5","0","0"],
    [16638,"2012-03-30T01:00:00","ND","ND","29.38","ND","ND","ND","0.4","21","24.8","76.1","0","0"],
    [16639,"2012-03-30T02:00:00","ND","ND","28.08","ND","ND","ND","0.6","128.4","24","79.2","0","0"],
    [16640,"2012-03-30T03:00:00","ND","ND","25.81","ND","ND","ND","0.1","333.3","23.6","80.4","0","0"],
    [16641,"2012-03-30T04:00:00","ND","ND","21.24","ND","ND","ND","0.2","242.4","23.6","80.8","0","0"],
    [16642,"2012-03-30T05:00:00","ND","ND","16.48","ND","ND","ND","0.5","354.2","23","83.8","0","0.25"],
    [16643,"2012-03-30T06:00:00","ND","ND","19.33","ND","ND","ND","0.2","258.9","22.8","84.9","0","0"],
    [16644,"2012-03-30T07:00:00","ND","ND","18.58","ND","ND","ND","0.2","298.7","22.7","85.6","13.3","0"],
    [16645,"2012-03-30T08:00:00","ND","ND","18.86","ND","ND","ND","1.3","42","22.7","86.5","95.1","0"],
    [16646,"2012-03-30T09:00:00","ND","ND","20.99","ND","ND","ND","0.4","157.9","24.9","75.8","348.7","0"],
    [16647,"2012-03-30T10:00:00","ND","ND","27.47","ND","ND","ND","0.9","87.9","26.8","65.6","578.6","0"],
    [16648,"2012-03-30T11:00:00","ND","ND","28.40","ND","ND","ND","1.6","64.3","28.3","58.9","692.4","0"],
    [16649,"2012-03-30T12:00:00","ND","ND","25.84","ND","ND","ND","2.4","38.8","28.9","58","847.1","0"],
    [16650,"2012-03-30T13:00:00","ND","ND","12.86","ND","ND","ND","2.6","46.2","29.7","52.6","849.6","0"],
    [16651,"2012-03-30T14:00:00","ND","ND","8.23","ND","ND","ND","2.4","46.7","30.6","47.9","788","0"],
    [16652,"2012-03-30T15:00:00","ND","ND","8.79","ND","ND","ND","2.1","41.5","31","45.8","625.5","0"],
    [16653,"2012-03-30T16:00:00","ND","ND","10.34","ND","ND","ND","1.9","49.5","31.5","47.6","441.6","0"],
    [16654,"2012-03-30T17:00:00","62.6","ND","9.82","ND","ND","ND","2.3","35.7","31.1","46.5","280.4","0"],
    [16655,"2012-03-30T18:00:00","31.3","ND","12.49","ND","ND","ND","1.8","39.9","30.2","48.3","24.9","0"],
    [16656,"2012-03-30T19:00:00","27.8","ND","12.67","ND","ND","ND","0.6","254","28.8","54.9","1.2","0"],
    [16657,"2012-03-30T20:00:00","72.6","ND","18.94","ND","ND","ND","2.2","249.8","28.2","59.5","0","0"],
    [16658,"2012-03-30T21:00:00","47.8","ND","49.00","ND","ND","ND","1.1","266.2","28","59.2","0","0"],
    [16659,"2012-03-30T22:00:00","52.2","ND","24.69","ND","ND","ND","0.4","304.3","27.3","63.4","0","0"],
    [16660,"2012-03-30T23:00:00","34.5","ND","28.49","ND","ND","ND","0.1","35.4","25.9","72.7","0","0"],
    [16661,"2012-03-31T00:00:00","48.5","ND","33.74","ND","ND","ND","0.3","289.7","25.5","73.2","0","0"],
    [16662,"2012-03-31T01:00:00","37.7","ND","36.64","ND","ND","ND","0","233.7","25.5","73.6","0","0"],
    [16663,"2012-03-31T02:00:00","64.6","ND","33.32","ND","ND","ND","0.2","188.2","25.2","76.8","0","0"],
    [16664,"2012-03-31T03:00:00","61.8","ND","31.00","ND","ND","ND","0.5","155.6","24.7","75.9","0","0"],
    [16665,"2012-03-31T04:00:00","31.7","ND","28.94","ND","ND","ND","1.2","134.4","24.3","76.1","0","0"],
    [16666,"2012-03-31T05:00:00","40.1","ND","23.64","ND","ND","ND","1.7","195.1","24","80.1","0","0"],
    [16667,"2012-03-31T06:00:00","44.8","ND","19.32","ND","ND","ND","0.9","186","24","77.9","0","0"],
    [16668,"2012-03-31T07:00:00","32.8","ND","17.01","ND","ND","ND","0.3","144.4","24.4","75.2","58.2","0"],
    [16669,"2012-03-31T08:00:00","55.7","ND","15.75","ND","ND","ND","1.1","134","25.6","70.7","153.2","0"],
    [16670,"2012-03-31T09:00:00","28.9","ND","24.16","ND","ND","ND","1.5","132.1","25.4","72.2","157.8","0"],
    [16671,"2012-03-31T10:00:00","61.5","ND","25.25","ND","ND","ND","0.4","149.9","26.5","68.7","305.9","0"],
    [16672,"2012-03-31T11:00:00","62.3","ND","25.54","ND","ND","ND","1.1","125.8","28.2","60.9","662.2","0"],
    [16673,"2012-03-31T12:00:00","63.1","ND","35.10","ND","ND","ND","1.2","153.5","29.6","54.7","615.8","0"],
    [16674,"2012-03-31T13:00:00","33.8","ND","25.55","ND","ND","ND","0.1","92.9","30.9","50.8","561.1","0"],
    [16675,"2012-03-31T14:00:00","16.9","ND","15.62","ND","ND","ND","0.8","195.4","31.9","46.8","684.3","0"],
    [16676,"2012-03-31T15:00:00","8.4","ND","17.38","ND","ND","ND","1.5","348.2","31.8","47.9","346","0"],
    [16677,"2012-03-31T16:00:00","ND","ND","18.34","ND","ND","ND","2.7","271.4","30.9","49.7","205.6","0"],
    [16678,"2012-03-31T17:00:00","ND","ND","15.50","ND","ND","ND","2.7","264.5","30.5","50.6","218.1","0"],
    [16679,"2012-03-31T18:00:00","ND","ND","12.68","ND","ND","ND","1.8","252.4","29.8","52","42.9","0"],
    [16680,"2012-03-31T19:00:00","ND","ND","13.82","ND","ND","ND","1.2","247.3","29","54.3","2.4","0"],
    [16681,"2012-03-31T20:00:00","ND","ND","19.35","ND","ND","ND","0.9","107.4","28.8","56.1","0","0"],
    [16682,"2012-03-31T21:00:00","ND","ND","22.58","ND","ND","ND","0.8","128.5","27.9","59.6","0","0"],
    [16683,"2012-03-31T22:00:00","ND","ND","41.06","ND","ND","ND","0.6","105.8","26.9","65.2","0","0"],
    [16684,"2012-03-31T23:00:00","ND","ND","36.96","ND","ND","ND","0.3","63","25.8","71.1","0","0"],
    [16685,"2012-04-01T00:00:00","ND","ND","34.58","ND","ND","ND","0.3","17","24.9","75.2","0","0"],
    [16686,"2012-04-01T01:00:00","ND","ND","29.90","ND","ND","ND","0.3","0.6","24.4","76","0","0"],
    [16687,"2012-04-01T02:00:00","60.9","ND","30.17","ND","ND","ND","0.1","333.2","23.7","79.5","0","0"],
    [16688,"2012-04-01T03:00:00","85.7","ND","27.79","ND","ND","ND","0.4","3","23.4","80.6","0","0"],
    [16689,"2012-04-01T04:00:00","63.3","ND","23.85","ND","ND","ND","0.1","326.6","23","82.3","0","0"],
    [16690,"2012-04-01T05:00:00","52.3","ND","22.97","ND","ND","ND","0.1","328.8","22.7","83.4","0","0"],
    [16691,"2012-04-01T06:00:00","45.7","ND","21.88","ND","ND","ND","0.3","17.2","22.5","84.1","0","0"],
    [16692,"2012-04-01T07:00:00","37","ND","19.63","ND","ND","ND","0.3","324.4","22.5","83.9","16.7","0"],
    [16693,"2012-04-01T08:00:00","50.4","ND","20.67","ND","ND","ND","0.3","67.3","23.2","80.5","49.5","0"],
    [16694,"2012-04-01T09:00:00","41.6","ND","20.85","ND","ND","ND","0.6","134.8","23.9","78.4","177.5","0"],
    [16695,"2012-04-01T10:00:00","49.3","ND","24.69","ND","ND","ND","0.8","128.9","25.9","69.9","540.4","0"],
    [16696,"2012-04-01T11:00:00","27.9","ND","28.75","ND","ND","ND","1.2","84.2","28","60.7","670.5","0"],
    [16697,"2012-04-01T12:00:00","32.2","ND","28.48","ND","ND","ND","1","50.2","28.8","56.5","620.2","0"],
    [16698,"2012-04-01T13:00:00","18.2","ND","22.32","ND","ND","ND","1","62.1","29.6","54.1","525.3","0"],
    [16699,"2012-04-01T14:00:00","28.7","ND","10.48","ND","ND","ND","1.2","21.9","30.1","52.3","417.7","0"],
    [16700,"2012-04-01T15:00:00","37.6","ND","9.50","ND","ND","ND","1.6","346.7","30.2","50.3","334","0"],
    [16701,"2012-04-01T16:00:00","21.3","ND","11.06","ND","ND","ND","2.2","288","29.4","51.7","152.7","0"],
    [16702,"2012-04-01T17:00:00","13.1","ND","7.21","ND","ND","ND","2.1","256.4","29.1","52.3","99.6","0"],
    [16703,"2012-04-01T18:00:00","18.6","ND","7.47","ND","ND","ND","1.1","250.5","28.3","53.8","38.9","0"],
    [16704,"2012-04-01T19:00:00","10.8","ND","12.64","ND","ND","ND","0.1","19.2","27.6","55.2","1.2","0"],
    [16705,"2012-04-01T20:00:00","10.1","ND","14.93","ND","ND","ND","0.5","42.7","27.1","55.2","0","0"],
    [16706,"2012-04-01T21:00:00","7.4","ND","22.48","ND","ND","ND","0.5","155.1","26.8","58.5","0","0"],
    [16707,"2012-04-01T22:00:00","24.2","ND","19.12","ND","ND","ND","0.5","90.5","25.4","65.6","0","0"],
    [16708,"2012-04-01T23:00:00","34.6","ND","30.82","ND","ND","ND","0.9","157.3","25","66.4","0","0"],
    [16709,"2012-04-02T00:00:00","60.8","ND","30.27","ND","ND","ND","0.6","211.8","24.9","66","0","0"],
    [16710,"2012-04-02T01:00:00","32","ND","27.66","ND","ND","ND","0.7","126.9","24.2","69.7","0","0"],
    [16711,"2012-04-02T02:00:00","29.6","ND","24.46","ND","ND","ND","0.6","215.9","23.7","72.5","0","0"],
    [16712,"2012-04-02T03:00:00","26.6","ND","18.60","ND","ND","ND","0","247","23.5","74.7","0","0"],
    [16713,"2012-04-02T04:00:00","15.8","ND","15.91","ND","ND","ND","0.4","27","23","78.8","0","0"],
    [16714,"2012-04-02T05:00:00","11.7","ND","17.70","ND","ND","ND","0.2","104.5","22.2","82.3","0","0"],
    [16715,"2012-04-02T06:00:00","37.1","ND","16.36","ND","ND","ND","0","176.8","22.5","80.8","0","0"],
    [16716,"2012-04-02T07:00:00","25.4","ND","18.64","ND","ND","ND","0.3","45.9","22.7","79","16.2","0"],
    [16717,"2012-04-02T08:00:00","64.9","ND","19.06","ND","ND","ND","0.8","46.4","23.2","77.3","91.9","0"],
    [16718,"2012-04-02T09:00:00","35","ND","24.04","ND","ND","ND","1","51.2","24","74.7","213.9","0"],
    [16719,"2012-04-02T10:00:00","45.5","ND","24.27","ND","ND","ND","1.2","75.4","26.3","65.4","581.1","0"],
    [16720,"2012-04-02T11:00:00","25","ND","22.79","ND","ND","ND","1.5","125","27.8","58","568.8","0"],
    [16721,"2012-04-02T12:00:00","35.8","ND","21.06","ND","ND","ND","1","153.1","28.9","53.7","573","0"],
    [16722,"2012-04-02T13:00:00","31.6","ND","11.18","ND","ND","ND","0.9","75.5","30.3","49.4","775.1","0"],
    [16723,"2012-04-02T14:00:00","21.3","ND","13.27","ND","ND","ND","0.9","127.1","31.8","44.7","666.8","0"],
    [16724,"2012-04-02T15:00:00","13.3","ND","13.93","ND","ND","ND","1.5","121.3","32.1","42.2","581.5","0"],
    [16725,"2012-04-02T16:00:00","21.2","ND","15.74","ND","ND","ND","0.7","32.8","32","43.9","305","0"],
    [16726,"2012-04-02T17:00:00","15.2","ND","13.73","ND","ND","ND","2.7","265.6","30.3","50","94.9","0"],
    [16727,"2012-04-02T18:00:00","27.9","ND","16.68","ND","ND","ND","3.8","277.3","28.8","52.3","33.4","0"],
    [16728,"2012-04-02T19:00:00","16.1","ND","26.53","ND","ND","ND","1.5","280.6","28.6","53","2.1","0"],
    [16729,"2012-04-02T20:00:00","44","ND","20.47","ND","ND","ND","0.3","157.5","28.1","55.2","0","0"],
    [16730,"2012-04-02T21:00:00","29.6","ND","23.05","ND","ND","ND","1.3","124.7","27.1","60.8","0","0"],
    [16731,"2012-04-02T22:00:00","39.4","ND","30.18","ND","ND","ND","0.8","252.5","26.4","61.7","0","0"],
    [16732,"2012-04-02T23:00:00","46.1","ND","32.13","ND","ND","ND","1","133.9","26.4","59.4","0","0"],
    [16733,"2012-04-03T00:00:00","23.9","ND","29.05","ND","ND","ND","1.7","119.1","26.2","61.1","0","0"],
    [16734,"2012-04-03T01:00:00","21","ND","24.38","ND","ND","ND","0.6","87.2","25","66.8","0","0"],
    [16735,"2012-04-03T02:00:00","44.5","ND","26.27","ND","ND","ND","0.8","113.4","24.4","68.3","0","0"],
    [16736,"2012-04-03T03:00:00","23","ND","22.99","ND","ND","ND","0.6","169.5","24","71.6","0","0"],
    [16737,"2012-04-03T04:00:00","22","ND","12.30","ND","ND","ND","0.9","165.9","24","74.5","0","0"],
    [16738,"2012-04-03T05:00:00","24.4","ND","12.73","ND","ND","ND","0.1","335.5","23.4","77.6","0","0"],
    [16739,"2012-04-03T06:00:00","39.3","ND","12.72","ND","ND","ND","0.5","35.7","23","79.6","0","0"],
    [16740,"2012-04-03T07:00:00","25.8","ND","13.13","ND","ND","ND","0.2","319","23","81","15.8","0"],
    [16741,"2012-04-03T08:00:00","58.2","ND","21.03","ND","ND","ND","0.8","51.7","24","77.2","172.4","0"],
    [16742,"2012-04-03T09:00:00","87.2","ND","20.29","ND","ND","ND","0.6","85.9","26.1","67.4","388.3","0"],
    [16743,"2012-04-03T10:00:00","ND","ND","28.09","ND","ND","ND","1.2","56.7","27.4","61.9","559.2","0"],
    [16744,"2012-04-03T11:00:00","ND","ND","36.15","ND","ND","ND","1.1","87.1","28.5","56","446.5","0"],
    [16745,"2012-04-03T12:00:00","ND","ND","26.83","ND","ND","ND","0.7","82.9","28.8","54.9","311.5","0"],
    [16746,"2012-04-03T13:00:00","ND","ND","16.54","ND","ND","ND","0.8","3.4","29.9","51.8","566.9","0"],
    [16747,"2012-04-03T14:00:00","99.2","ND","14.38","ND","ND","ND","0.9","270.4","30.6","48.7","427.3","0"],
    [16748,"2012-04-03T15:00:00","63.4","ND","17.85","ND","ND","ND","0.9","283.8","31.7","44.4","584.1","0"],
    [16749,"2012-04-03T16:00:00","36","ND","14.52","ND","ND","ND","1.7","333.5","30.8","46.9","189","0"],
    [16750,"2012-04-03T17:00:00","31.4","ND","7.09","ND","ND","ND","3.2","276.4","30.5","47.1","256.3","0"],
    [16751,"2012-04-03T18:00:00","17.5","ND","12.33","ND","ND","ND","0.6","300.2","29.5","49.3","40.1","0"],
    [16752,"2012-04-03T19:00:00","1.1","ND","10.55","ND","ND","ND","1.2","90.7","27.5","58.4","2.7","0"],
    [16753,"2012-04-03T20:00:00","33.4","ND","24.01","ND","ND","ND","0.5","81.5","26.1","65.6","0","0"],
    [16754,"2012-04-03T21:00:00","19.2","ND","28.19","ND","ND","ND","1.3","128.3","26","64.4","0","0"],
    [16755,"2012-04-03T22:00:00","33.2","ND","34.19","ND","ND","ND","0.5","83.7","25.5","66.9","0","0"],
    [16756,"2012-04-03T23:00:00","25","ND","29.02","ND","ND","ND","0.8","131.9","25.5","67.2","0","0"],
    [16757,"2012-04-04T00:00:00","33.5","ND","28.92","ND","ND","ND","0.5","124.4","24.7","70.7","0","0"],
    [16758,"2012-04-04T01:00:00","18.2","ND","29.80","ND","ND","ND","0.9","154.8","23.9","74.8","0","0"],
    [16759,"2012-04-04T02:00:00","22.7","ND","24.71","ND","ND","ND","0.4","67.4","23.1","79.5","0","0"],
    [16760,"2012-04-04T03:00:00","30.2","ND","24.27","ND","ND","ND","0.2","326.7","22.4","83.4","0","0"],
    [16761,"2012-04-04T04:00:00","18.8","ND","20.76","ND","ND","ND","0.2","238.3","22.8","81.2","0","0"],
    [16762,"2012-04-04T05:00:00","11.7","ND","19.41","ND","ND","ND","0.2","324.9","22.5","81.5","0","0"],
    [16763,"2012-04-04T06:00:00","20.9","ND","18.15","ND","ND","ND","0.2","23.7","22.8","80","0","0"],
    [16764,"2012-04-04T07:00:00","32.1","ND","15.85","ND","ND","ND","0.4","52.6","22.7","80.8","23.6","0"],
    [16765,"2012-04-04T08:00:00","62.7","ND","20.07","ND","ND","ND","0.3","0.9","23.8","76.1","106.7","0"],
    [16766,"2012-04-04T09:00:00","62.5","ND","23.62","ND","ND","ND","1.4","49.2","24.2","75.6","127.7","0"],
    [16767,"2012-04-04T10:00:00","ND","ND","29.38","ND","ND","ND","1.2","53.1","25","72.9","294.7","0"],
    [16768,"2012-04-04T11:00:00","85.3","ND","33.15","ND","ND","ND","0.7","31.6","26.6","65.8","465.3","0"],
    [16769,"2012-04-04T12:00:00","65.5","ND","18.77","ND","ND","ND","0.6","72.3","28","59.5","575.9","0"],
    [16770,"2012-04-04T13:00:00","58.4","ND","17.08","ND","ND","ND","1.5","29","29.6","53.7","656.4","0"],
    [16771,"2012-04-04T14:00:00","38.6","ND","19.30","ND","ND","ND","1.3","281.9","29.1","50.8","254.7","0"],
    [16772,"2012-04-04T15:00:00","20.9","ND","14.47","ND","ND","ND","2.2","272.1","29.4","49.5","402","0"],
    [16773,"2012-04-04T16:00:00","21.2","ND","6.69","ND","ND","ND","1","348.4","30.1","45.9","332.2","0"],
    [16774,"2012-04-04T17:00:00","12.5","ND","6.19","ND","ND","ND","2.2","283.8","29.2","49.6","211.7","0"],
    [16775,"2012-04-04T18:00:00","11","ND","5.88","ND","ND","ND","1.3","243","28.3","50.7","31.5","0"],
    [16776,"2012-04-04T19:00:00","10.1","ND","6.07","ND","ND","ND","3.4","163.4","26.4","63.1","0.2","0"],
    [16777,"2012-04-04T20:00:00","25.2","ND","12.26","ND","ND","ND","2.4","159.5","25.1","69.7","0","0"],
    [16778,"2012-04-04T21:00:00","26.6","ND","26.92","ND","ND","ND","0.4","98.8","24.5","74.3","0","0"],
    [16779,"2012-04-04T22:00:00","26.3","ND","24.14","ND","ND","ND","2","18.4","22.9","81.1","0","0"],
    [16780,"2012-04-04T23:00:00","35.3","ND","23.88","ND","ND","ND","0.8","52.6","22.5","84.1","0","0"],
    [16781,"2012-04-05T00:00:00","18.3","ND","17.76","ND","ND","ND","1.3","359.5","22.1","87.5","0","0"],
    [16782,"2012-04-05T01:00:00","29","ND","16.28","ND","ND","ND","0.7","335.1","22.3","84.6","0","0"],
    [16783,"2012-04-05T02:00:00","23.1","ND","19.56","ND","ND","ND","0.3","25.8","22.2","85","0","0"],
    [16784,"2012-04-05T03:00:00","14.4","ND","20.73","ND","ND","ND","0.3","273.2","22.5","83.8","0","0"],
    [16785,"2012-04-05T04:00:00","30","ND","19.80","ND","ND","ND","0.9","330.5","21.5","90.6","0","6.6"],
    [16786,"2012-04-05T05:00:00","15.9","ND","19.77","ND","ND","ND","0.2","160.5","21.8","91.4","0","0"],
    [16787,"2012-04-05T06:00:00","11.9","ND","18.05","ND","ND","ND","0.4","4.5","21.7","91.6","0.1","0.25"],
    [16788,"2012-04-05T07:00:00","7.2","ND","19.45","ND","ND","ND","0.2","52.7","21.8","92.2","20.5","0"],
    [16789,"2012-04-05T08:00:00","10","ND","18.41","ND","ND","ND","0.2","8.7","22","91.1","101.4","0"],
    [16790,"2012-04-05T09:00:00","5.6","ND","18.37","ND","ND","ND","0.2","200.2","23.5","81","248.3","0"],
    [16791,"2012-04-05T10:00:00","14.8","ND","21.46","ND","ND","ND","0.4","123.6","25.2","68.8","412.3","0"],
    [16792,"2012-04-05T11:00:00","10","ND","31.98","ND","ND","ND","0.4","75.6","27.1","58.9","566.6","0"],
    [16793,"2012-04-05T12:00:00","16.8","ND","33.70","ND","ND","ND","0.6","42.5","27.9","57","586.3","0"],
    [16794,"2012-04-05T13:00:00","9.3","ND","28.75","ND","ND","ND","1.7","46.9","28.3","58","580.1","0"],
    [16795,"2012-04-05T14:00:00","6.5","ND","29.42","ND","ND","ND","2.1","55.9","28.7","56.6","525.4","0.25"],
    [16796,"2012-04-05T15:00:00","ND","ND","28.39","ND","ND","ND","2","279.4","28.2","53.7","295.6","0"],
    [16797,"2012-04-05T16:00:00","ND","ND","20.77","ND","ND","ND","1.9","276","28.3","51.8","179","0"],
    [16798,"2012-04-05T17:00:00","ND","ND","4.40","ND","ND","ND","2.8","273","27.6","53.4","120.2","0"],
    [16799,"2012-04-05T18:00:00","ND","ND","5.03","ND","ND","ND","0.7","216.1","27.1","55.7","19.7","0"],
    [16800,"2012-04-05T19:00:00","ND","ND","4.04","ND","ND","ND","2.1","91.7","26.1","61.3","0.5","0"],
    [16801,"2012-04-05T20:00:00","ND","ND","6.90","ND","ND","ND","1.1","68.9","23","80.1","0","0"],
    [16802,"2012-04-05T21:00:00","ND","ND","13.68","ND","ND","ND","0.9","195.2","22.6","82.2","0","0.25"],
    [16803,"2012-04-05T22:00:00","ND","ND","14.27","ND","ND","ND","0.6","149.7","22.4","84.1","0","0"],
    [16804,"2012-04-05T23:00:00","ND","ND","20.85","ND","ND","ND","2.7","180.1","21.8","86.8","0","0"],
    [16805,"2012-04-06T00:00:00","ND","ND","23.77","ND","ND","ND","2.1","182.9","21.5","86.8","0","0"],
    [16806,"2012-04-06T01:00:00","ND","ND","14.80","ND","ND","ND","1.7","190.9","21.4","85","0","0"],
    [16807,"2012-04-06T02:00:00","ND","ND","9.68","ND","ND","ND","1.5","166.2","21.1","84.2","0","0"],
    [16808,"2012-04-06T03:00:00","ND","ND","6.28","ND","ND","ND","0.3","260.7","20.9","85.9","0","0"],
    [16809,"2012-04-06T04:00:00","ND","ND","3.66","ND","ND","ND","0.3","20.1","21.1","84.8","0","0"],
    [16810,"2012-04-06T05:00:00","ND","ND","4.20","ND","ND","ND","0.4","25.9","21.1","86.2","0","0"],
    [16811,"2012-04-06T06:00:00","ND","ND","4.05","ND","ND","ND","0.9","347","20.7","90.5","0","0"],
    [16812,"2012-04-06T07:00:00","64.8","ND","6.68","ND","ND","ND","0.6","340","20.7","90.4","8.3","0"],
    [16813,"2012-04-06T08:00:00","36.7","ND","6.65","ND","ND","ND","0.6","8.5","21.5","85.9","86.6","0"],
    [16814,"2012-04-06T09:00:00","38.8","ND","8.45","ND","ND","ND","0.5","44.2","23.1","78.5","369.6","0"],
    [16815,"2012-04-06T10:00:00","21.2","ND","11.28","ND","ND","ND","1.4","118.9","24.5","70.9","409.8","0"],
    [16816,"2012-04-06T11:00:00","14.2","ND","8.72","ND","ND","ND","0.8","100.5","25.7","65.5","468.1","0"],
    [16817,"2012-04-06T12:00:00","20.6","ND","8.82","ND","ND","ND","0.8","118.5","26.3","63.7","265.5","0"],
    [16818,"2012-04-06T13:00:00","11.1","ND","8.57","ND","ND","ND","0.3","65.8","27.8","56.4","631.7","0"],
    [16819,"2012-04-06T14:00:00","6.1","ND","6.25","ND","ND","ND","1","65.8","28.1","55.6","327.6","0"],
    [16820,"2012-04-06T15:00:00","5.6","ND","7.04","ND","ND","ND","0.9","60.9","28.8","54.5","374","0"],
    [16821,"2012-04-06T16:00:00","8.9","ND","6.26","ND","ND","ND","0.3","46.1","29.4","52.1","355.5","0"],
    [16822,"2012-04-06T17:00:00","5.1","ND","5.22","ND","ND","ND","0.9","301.3","28.8","54","92.3","0"],
    [16823,"2012-04-06T18:00:00","4.4","ND","5.21","ND","ND","ND","0.9","324.2","28.5","55.3","43.9","0"],
    [16824,"2012-04-06T19:00:00","3","ND","8.29","ND","ND","ND","1","169.4","27.8","57.5","1.6","0"],
    [16825,"2012-04-06T20:00:00","2.5","ND","15.49","ND","ND","ND","2.6","216.3","25.3","68.6","0","1.78"],
    [16826,"2012-04-06T21:00:00","2.2","ND","15.69","ND","ND","ND","0.4","159.6","21.9","86.1","1.5","8.38"],
    [16827,"2012-04-06T22:00:00","15.5","ND","13.92","ND","ND","ND","0.5","244.1","21","90.6","0.6","6.86"],
    [16828,"2012-04-06T23:00:00","11.2","ND","17.56","ND","ND","ND","1.2","51.8","20.3","94.4","0","3.81"],
    [16829,"2012-04-07T00:00:00","8.2","ND","20.85","ND","ND","ND","0.4","6.4","19.9","94.3","0","0.51"],
    [16830,"2012-04-07T01:00:00","24","ND","15.74","ND","ND","ND","0.4","190.6","20.3","92.8","0","0"],
    [16831,"2012-04-07T02:00:00","12","ND","11.86","ND","ND","ND","0.1","279.6","20.7","93.4","0","1.27"],
    [16832,"2012-04-07T03:00:00","8.3","ND","14.14","ND","ND","ND","0.5","281.9","20.2","95.7","0","13.72"],
    [16833,"2012-04-07T04:00:00","6.4","ND","15.97","ND","ND","ND","0.2","19.1","20.5","92.9","0","3.3"],
    [16834,"2012-04-07T05:00:00","5.7","ND","11.06","ND","ND","ND","0.4","322.1","20.1","94.6","0","9.4"],
    [16835,"2012-04-07T06:00:00","21.6","ND","7.34","ND","ND","ND","0.5","340.5","19.6","97.5","0","26.92"],
    [16836,"2012-04-07T07:00:00","12","ND","9.04","ND","ND","ND","0.7","348.2","19.6","98.5","1.5","7.37"],
    [16837,"2012-04-07T08:00:00","20.5","ND","15.50","ND","ND","ND","1.4","13.6","19.1","98.7","6.9","18.54"],
    [16838,"2012-04-07T09:00:00","11.3","ND","17.98","ND","ND","ND","0.4","39","19.3","97.9","40.6","6.6"],
    [16839,"2012-04-07T10:00:00","7.1","ND","20.01","ND","ND","ND","0.9","193.8","19.9","96.5","71.5","3.3"],
    [16840,"2012-04-07T11:00:00","4.1","ND","14.12","ND","ND","ND","1.6","152.9","20.8","91.5","193.7","1.78"],
    [16841,"2012-04-07T12:00:00","2.8","ND","14.02","ND","ND","ND","1.1","139.7","21.9","84.8","263.6","0.51"],
    [16842,"2012-04-07T13:00:00","2.7","ND","18.49","ND","ND","ND","0.9","201.6","22.9","80.4","375.1","0"],
    [16843,"2012-04-07T14:00:00","2.5","ND","18.16","ND","ND","ND","0.8","318.1","23.6","74.2","285.2","0"],
    [16844,"2012-04-07T15:00:00","2.3","ND","18.09","ND","ND","ND","1.6","0.6","24.2","74.8","218.4","0"],
    [16845,"2012-04-07T16:00:00","2.1","ND","15.95","ND","ND","ND","1.4","67.7","24.5","73.8","170.6","0"],
    [16846,"2012-04-07T17:00:00","13.1","ND","13.48","ND","ND","ND","0.8","100.7","24.6","73.3","117.7","0"],
    [16847,"2012-04-07T18:00:00","7.8","ND","14.43","ND","ND","ND","1.3","123.3","24.2","76.3","26","0"],
    [16848,"2012-04-07T19:00:00","18","ND","10.73","ND","ND","ND","0.2","195.4","22.8","84.3","1","0"],
    [16849,"2012-04-07T20:00:00","28","ND","18.62","ND","ND","ND","0.4","301.4","21.7","89.5","0","0"],
    [16850,"2012-04-07T21:00:00","30","ND","23.13","ND","ND","ND","0.2","354.9","21.3","87.8","0","0"],
    [16851,"2012-04-07T22:00:00","38.5","ND","23.12","ND","ND","ND","0.1","256.6","20.9","89.7","0","0"],
    [16852,"2012-04-07T23:00:00","43.6","ND","20.45","ND","ND","ND","0.2","219","20.7","90.9","0","0"],
    [16853,"2012-04-08T00:00:00","54.8","ND","18.77","ND","ND","ND","0.1","120.3","20.9","90.4","0","0"],
    [16854,"2012-04-08T01:00:00","30.1","ND","17.31","ND","ND","ND","0.3","309","20.9","90","0","0"],
    [16855,"2012-04-08T02:00:00","48.3","ND","19.80","ND","ND","ND","0.7","121.5","21.1","89.4","0","0"],
    [16856,"2012-04-08T03:00:00","29.6","ND","17.99","ND","ND","ND","0.5","227.4","20.9","90.1","0","0"],
    [16857,"2012-04-08T04:00:00","37.2","ND","16.96","ND","ND","ND","0.4","130.6","21.1","89.5","0","0"],
    [16858,"2012-04-08T05:00:00","25.4","ND","16.65","ND","ND","ND","0.7","135.9","20.9","90.7","0","0.76"],
    [16859,"2012-04-08T06:00:00","18","ND","17.35","ND","ND","ND","0.6","101","20.4","95.8","0","2.03"],
    [16860,"2012-04-08T07:00:00","10.9","ND","15.00","ND","ND","ND","0.9","134.5","20.2","96.5","11.2","2.79"],
    [16861,"2012-04-08T08:00:00","6.6","ND","14.42","ND","ND","ND","1.1","133.3","20.4","94.4","19.9","0.25"],
    [16862,"2012-04-08T09:00:00","5.4","ND","15.43","ND","ND","ND","1.6","162.9","20.8","92.1","69.6","0"],
    [16863,"2012-04-08T10:00:00","3.4","ND","14.61","ND","ND","ND","1.4","158.6","21.7","86.4","115.8","0"],
    [16864,"2012-04-08T11:00:00","3.6","ND","9.37","ND","ND","ND","1.4","145","23.3","78.5","428.6","0"],
    [16865,"2012-04-08T12:00:00","3.8","ND","10.02","ND","ND","ND","0.8","94.6","24.7","72","437.7","0"],
    [16866,"2012-04-08T13:00:00","3.7","ND","8.20","ND","ND","ND","1","0.6","25","71.4","358.1","0"],
    [16867,"2012-04-08T14:00:00","3.8","ND","7.35","ND","ND","ND","1.5","282.4","23.6","79.9","221.4","6.1"],
    [16868,"2012-04-08T15:00:00","2.5","ND","8.55","ND","ND","ND","0.3","215.8","25.8","69","335.6","0"],
    [16869,"2012-04-08T16:00:00","2.4","ND","7.25","ND","ND","ND","0.4","302.1","26.6","61.3","240.4","0"],
    [16870,"2012-04-08T17:00:00","2.3","ND","7.56","ND","ND","ND","0.2","222.5","26.1","60.4","113.3","0"],
    [16871,"2012-04-08T18:00:00","3.5","ND","6.12","ND","ND","ND","1.5","268.4","25.1","61.1","25","0"],
    [16872,"2012-04-08T19:00:00","2.5","ND","5.90","ND","ND","ND","2.9","254.1","24.4","62.6","0.6","0"],
    [16873,"2012-04-08T20:00:00","1.3","ND","9.42","ND","ND","ND","0.6","107.2","24.3","63.9","0","0"],
    [16874,"2012-04-08T21:00:00","1.4","ND","6.39","ND","ND","ND","0.4","150.6","24","66","0","0"],
    [16875,"2012-04-08T22:00:00","6.4","ND","10.77","ND","ND","ND","0.1","43.2","23.2","73.5","0","0"],
    [16876,"2012-04-08T23:00:00","ND","ND","22.09","ND","ND","ND","1.5","186.5","22.4","78.8","0","0"],
    [16877,"2012-04-09T00:00:00","ND","ND","26.40","ND","ND","ND","1.2","172.1","21.8","82.2","0","0"],
    [16878,"2012-04-09T01:00:00","ND","ND","19.99","ND","ND","ND","1.5","172.5","21.4","84.6","0","0"],
    [16879,"2012-04-09T02:00:00","ND","ND","11.41","ND","ND","ND","0.6","177.3","21.1","86.8","0","0"],
    [16880,"2012-04-09T03:00:00","ND","ND","7.16","ND","ND","ND","0.2","334.4","20.9","88.3","0","0"],
    [16881,"2012-04-09T04:00:00","ND","ND","7.80","ND","ND","ND","0.1","16.9","20.7","88.9","0","0"],
    [16882,"2012-04-09T05:00:00","ND","ND","8.76","ND","ND","ND","0.7","19.6","20.2","93.6","0","0"],
    [16883,"2012-04-09T06:00:00","ND","ND","11.43","ND","ND","ND","0.5","5.8","20.3","93.7","0","0"],
    [16884,"2012-04-09T07:00:00","ND","ND","16.52","ND","ND","ND","0.3","358.4","20.6","91.6","24.2","0"],
    [16885,"2012-04-09T08:00:00","ND","ND","20.67","ND","ND","ND","1.4","49","21.3","88.7","203.5","0"],
    [16886,"2012-04-09T09:00:00","ND","ND","26.30","ND","ND","ND","0.8","54.8","22.3","83","219.9","0"],
    [16887,"2012-04-09T10:00:00","ND","ND","23.67","ND","ND","ND","1","117.9","23.8","74.4","474.4","0"],
    [16888,"2012-04-09T11:00:00","ND","ND","21.67","ND","ND","ND","0.3","85","24.8","69.5","280.9","0"],
    [16889,"2012-04-09T12:00:00","ND","ND","24.02","ND","ND","ND","0.9","70.3","26.6","61.4","652","0"],
    [16890,"2012-04-09T13:00:00","ND","ND","23.29","ND","ND","ND","0.7","97.5","27.3","56.9","392.3","0"],
    [16891,"2012-04-09T14:00:00","ND","ND","ND","ND","ND","ND","0.7","81.5","27.9","55.1","400","0"],
    [16892,"2012-04-09T15:00:00","ND","ND","14.99","ND","ND","ND","1.5","266.4","28.1","56.4","482","0"],
    [16893,"2012-04-09T16:00:00","ND","ND","14.88","ND","ND","ND","2","354.6","27.5","61","295","0"],
    [16894,"2012-04-09T17:00:00","ND","ND","25.60","ND","ND","ND","0.9","67.1","26.9","63.7","106.7","0"],
    [16895,"2012-04-09T18:00:00","ND","ND","30.57","ND","ND","ND","0.4","176.1","26.9","60.6","44.6","0"],
    [16896,"2012-04-09T19:00:00","ND","ND","51.21","ND","ND","ND","0.3","301.8","25.9","63.5","0.9","0"],
    [16897,"2012-04-09T20:00:00","ND","ND","41.81","ND","ND","ND","0.6","221.6","25.6","63.2","0","0"],
    [16898,"2012-04-09T21:00:00","ND","ND","41.41","ND","ND","ND","0.2","200.9","25.2","65.7","0","0"],
    [16899,"2012-04-09T22:00:00","ND","ND","42.41","ND","ND","ND","0.2","189.8","24.3","72.2","0","0"],
    [16900,"2012-04-09T23:00:00","ND","ND","42.15","ND","ND","ND","1.3","194.4","23.9","73.7","0","0"],
    [16901,"2012-04-10T00:00:00","ND","ND","45.64","ND","ND","ND","0.8","242.5","23.6","72.5","0","0"],
    [16902,"2012-04-10T01:00:00","ND","ND","45.20","ND","ND","ND","0.4","199.6","23.1","77.7","0","0"],
    [16903,"2012-04-10T02:00:00","ND","ND","38.01","ND","ND","ND","0.1","214.7","22.6","82","0","0"],
    [16904,"2012-04-10T03:00:00","ND","ND","41.81","ND","ND","ND","0.6","126.6","22.2","85","0","0"],
    [16905,"2012-04-10T04:00:00","ND","ND","37.74","ND","ND","ND","0.9","180.9","21.8","87.7","0","0"],
    [16906,"2012-04-10T05:00:00","ND","ND","31.23","ND","ND","ND","0.1","263.6","21.3","89","0","0"],
    [16907,"2012-04-10T06:00:00","ND","ND","30.41","ND","ND","ND","0.2","197.8","21.2","89.2","0","0"],
    [16908,"2012-04-10T07:00:00","ND","ND","30.79","ND","ND","ND","0.1","220.1","21.2","89.5","28.2","0"],
    [16909,"2012-04-10T08:00:00","ND","ND","33.47","ND","ND","ND","0.7","143","23","79.5","176.6","0"],
    [16910,"2012-04-10T09:00:00","ND","ND","37.36","ND","ND","ND","0.6","156.4","24.5","71.8","410.1","0"],
    [16911,"2012-04-10T10:00:00","ND","ND","50.69","ND","ND","ND","1.1","258.3","24.7","72.7","182.2","0"],
    [16912,"2012-04-10T11:00:00","ND","ND","52.63","ND","ND","ND","ND","ND","ND","ND","ND","ND"],
    [16913,"2012-04-10T12:00:00","ND","ND","ND","ND","ND","ND","ND","ND","ND","ND","ND","ND"],
    [16914,"2012-04-10T13:00:00","ND","ND","ND","ND","ND","ND","ND","ND","ND","ND","ND","ND"],
    [16915,"2012-04-10T14:00:00","ND","ND","ND","ND","ND","ND","ND","ND","ND","ND","ND","ND"],
    [16916,"2012-04-10T15:00:00","ND","ND","ND","ND","ND","ND","ND","ND","ND","ND","ND","ND"],
    [16917,"2012-04-10T16:00:00","ND","ND","ND","ND","ND","ND","ND","ND","ND","ND","ND","ND"],
    [16918,"2012-04-10T17:00:00","ND","ND","ND","ND","ND","ND","ND","ND","ND","ND","ND","ND"],
    [16919,"2012-04-10T18:00:00","ND","ND","ND","ND","ND","ND","ND","ND","ND","ND","ND","ND"],
    [16920,"2012-04-10T19:00:00","ND","ND","ND","ND","ND","ND","ND","ND","ND","ND","ND","ND"],
    [16921,"2012-04-10T20:00:00","ND","ND","ND","ND","ND","ND","ND","ND","ND","ND","ND","ND"],
    [16922,"2012-04-10T21:00:00","ND","ND","ND","ND","ND","ND","ND","ND","ND","ND","ND","ND"],
    [16923,"2012-04-10T22:00:00","ND","ND","ND","ND","ND","ND","ND","ND","ND","ND","ND","ND"],
    [16924,"2012-04-10T23:00:00","ND","ND","ND","ND","ND","ND","ND","ND","ND","ND","ND","ND"],
    [16925,"2012-04-11T00:00:00","ND","ND","ND","ND","ND","ND","ND","ND","ND","ND","ND","ND"],
    [16926,"2012-04-11T01:00:00","ND","ND","ND","ND","ND","ND","ND","ND","ND","ND","ND","ND"],
    [16927,"2012-04-11T02:00:00","ND","ND","ND","ND","ND","ND","ND","ND","ND","ND","ND","ND"],
    [16928,"2012-04-11T03:00:00","ND","ND","ND","ND","ND","ND","ND","ND","ND","ND","ND","ND"],
    [16929,"2012-04-11T04:00:00","ND","ND","ND","ND","ND","ND","ND","ND","ND","ND","ND","ND"],
    [16930,"2012-04-11T05:00:00","ND","ND","ND","ND","ND","ND","ND","ND","ND","ND","ND","ND"],
    [16931,"2012-04-11T06:00:00","ND","ND","ND","ND","ND","ND","ND","ND","ND","ND","ND","ND"],
    [16932,"2012-04-11T07:00:00","ND","ND","ND","ND","ND","ND","ND","ND","ND","ND","ND","ND"],
    [16933,"2012-04-11T08:00:00","ND","ND","ND","ND","ND","ND","ND","ND","ND","ND","ND","ND"],
    [16934,"2012-04-11T09:00:00","ND","ND","ND","ND","ND","ND","ND","ND","ND","ND","ND","ND"],
    [16935,"2012-04-11T10:00:00","ND","ND","ND","ND","ND","ND","ND","ND","ND","ND","ND","ND"],
    [16936,"2012-04-11T11:00:00","ND","ND","ND","ND","ND","ND","ND","ND","ND","ND","ND","ND"],
    [16937,"2012-04-11T12:00:00","ND","ND","ND","ND","ND","ND","ND","ND","ND","ND","ND","ND"],
    [16938,"2012-04-11T13:00:00","ND","ND","ND","ND","ND","ND","ND","ND","ND","ND","ND","ND"],
    [16939,"2012-04-11T14:00:00","ND","ND","ND","ND","ND","ND","ND","ND","ND","ND","ND","ND"],
    [16940,"2012-04-11T15:00:00","ND","ND","ND","ND","ND","ND","ND","ND","ND","ND","ND","ND"],
    [16941,"2012-04-11T16:00:00","ND","ND","ND","ND","ND","ND","ND","ND","ND","ND","ND","ND"],
    [16942,"2012-04-11T17:00:00","ND","ND","ND","ND","ND","ND","ND","ND","ND","ND","ND","ND"],
    [16943,"2012-04-11T18:00:00","ND","ND","ND","ND","ND","ND","ND","ND","ND","ND","ND","ND"],
    [16944,"2012-04-11T19:00:00","ND","ND","ND","ND","ND","ND","ND","ND","ND","ND","ND","ND"],
    [16945,"2012-04-11T20:00:00","ND","ND","ND","ND","ND","ND","2.3","205.4","22.7","76.6","0","11.94"],
    [16946,"2012-04-11T21:00:00","ND","ND","ND","ND","ND","ND","0.5","218.4","20.4","96.5","0","18.03"],
    [16947,"2012-04-11T22:00:00","ND","ND","ND","ND","ND","ND","0.2","125.2","21.1","93.1","0","0.76"],
    [16948,"2012-04-11T23:00:00","ND","ND","ND","ND","ND","ND","0.7","71.5","21","93.3","0","0"],
    [16949,"2012-04-12T00:00:00","ND","ND","ND","ND","ND","ND","0.2","261","21","92.8","0","0.25"],
    [16950,"2012-04-12T01:00:00","ND","ND","ND","ND","ND","ND","0.1","179.5","21","92.8","0","0.51"],
    [16951,"2012-04-12T02:00:00","ND","ND","ND","ND","ND","ND","0.6","160.4","21","93.5","0","0"],
    [16952,"2012-04-12T03:00:00","ND","ND","ND","ND","ND","ND","0.9","155.2","20.8","92.6","0","0"],
    [16953,"2012-04-12T04:00:00","ND","ND","ND","ND","ND","ND","0.3","33.8","20.8","93.9","0","0.25"],
    [16954,"2012-04-12T05:00:00","ND","ND","ND","ND","ND","ND","0.5","346.4","20.7","94.1","0","0"],
    [16955,"2012-04-12T06:00:00","ND","ND","ND","ND","ND","ND","0.6","47","20.7","93.8","0","0"],
    [16956,"2012-04-12T07:00:00","ND","ND","ND","ND","ND","ND","0.4","156.7","20.5","93.2","5.3","0"],
    [16957,"2012-04-12T08:00:00","ND","ND","ND","ND","ND","ND","0.3","39","20.8","93.1","26.2","0.25"],
    [16958,"2012-04-12T09:00:00","ND","ND","ND","ND","ND","ND","0.9","48.4","20.8","94.2","49.1","0"],
    [16959,"2012-04-12T10:00:00","ND","ND","ND","ND","ND","ND","ND","ND","ND","ND","ND","ND"],
    [16960,"2012-04-12T11:00:00","ND","ND","ND","ND","ND","ND","ND","ND","ND","ND","ND","ND"],
    [16961,"2012-04-12T12:00:00","ND","ND","ND","ND","ND","ND","ND","ND","ND","ND","ND","ND"],
    [16962,"2012-04-12T13:00:00","ND","ND","ND","ND","ND","ND","ND","ND","ND","ND","ND","ND"],
    [16963,"2012-04-12T14:00:00","ND","ND","ND","ND","ND","ND","ND","ND","ND","ND","ND","ND"],
    [16964,"2012-04-12T15:00:00","ND","ND","ND","ND","ND","ND","ND","ND","ND","ND","ND","ND"],
    [16965,"2012-04-12T16:00:00","ND","ND","ND","ND","ND","ND","ND","ND","ND","ND","ND","ND"],
    [16966,"2012-04-12T17:00:00","ND","ND","ND","ND","ND","ND","ND","ND","ND","ND","ND","ND"],
    [16967,"2012-04-12T18:00:00","ND","ND","ND","ND","ND","ND","ND","ND","ND","ND","ND","ND"],
    [16968,"2012-04-12T19:00:00","ND","ND","ND","ND","ND","ND","ND","ND","ND","ND","ND","ND"],
    [16969,"2012-04-12T20:00:00","ND","ND","ND","ND","ND","ND","ND","ND","ND","ND","ND","ND"],
    [16970,"2012-04-12T21:00:00","ND","ND","ND","ND","ND","ND","ND","ND","ND","ND","ND","ND"],
    [16971,"2012-04-12T22:00:00","ND","ND","ND","ND","ND","ND","ND","ND","ND","ND","ND","ND"],
    [16972,"2012-04-12T23:00:00","ND","ND","ND","ND","ND","ND","ND","ND","ND","ND","ND","ND"],
    [16973,"2012-04-13T00:00:00","ND","ND","ND","ND","ND","ND","ND","ND","ND","ND","ND","ND"],
    [16974,"2012-04-13T01:00:00","ND","ND","ND","ND","ND","ND","ND","ND","ND","ND","ND","ND"],
    [16975,"2012-04-13T02:00:00","ND","ND","ND","ND","ND","ND","ND","ND","ND","ND","ND","ND"],
    [16976,"2012-04-13T03:00:00","ND","ND","ND","ND","ND","ND","ND","ND","ND","ND","ND","ND"],
    [16977,"2012-04-13T04:00:00","ND","ND","ND","ND","ND","ND","ND","ND","ND","ND","ND","ND"],
    [16978,"2012-04-13T05:00:00","ND","ND","ND","ND","ND","ND","ND","ND","ND","ND","ND","ND"],
    [16979,"2012-04-13T06:00:00","ND","ND","ND","ND","ND","ND","ND","ND","ND","ND","ND","ND"],
    [16980,"2012-04-13T07:00:00","ND","ND","ND","ND","ND","ND","ND","ND","ND","ND","ND","ND"],
    [16981,"2012-04-13T08:00:00","ND","ND","ND","ND","ND","ND","ND","ND","ND","ND","ND","ND"],
    [16982,"2012-04-13T09:00:00","ND","ND","ND","ND","ND","ND","ND","ND","ND","ND","ND","ND"],
    [16983,"2012-04-13T10:00:00","ND","ND","ND","ND","ND","ND","ND","ND","ND","ND","ND","ND"],
    [16984,"2012-04-13T11:00:00","ND","ND","ND","ND","ND","ND","ND","ND","ND","ND","ND","ND"],
    [16985,"2012-04-13T12:00:00","ND","ND","ND","ND","ND","ND","ND","ND","ND","ND","ND","ND"],
    [16986,"2012-04-13T13:00:00","ND","ND","ND","ND","ND","ND","ND","ND","ND","ND","ND","ND"],
    [16987,"2012-04-13T14:00:00","ND","ND","ND","ND","ND","ND","ND","ND","ND","ND","ND","ND"],
    [16988,"2012-04-13T15:00:00","ND","ND","ND","ND","ND","ND","ND","ND","ND","ND","ND","ND"],
    [16989,"2012-04-13T16:00:00","ND","ND","ND","ND","ND","ND","ND","ND","ND","ND","ND","ND"],
    [16990,"2012-04-13T17:00:00","ND","ND","ND","ND","ND","ND","ND","ND","ND","ND","ND","ND"],
    [16991,"2012-04-13T18:00:00","ND","ND","ND","ND","ND","ND","ND","ND","ND","ND","ND","ND"],
    [16992,"2012-04-13T19:00:00","ND","ND","ND","ND","ND","ND","ND","ND","ND","ND","ND","ND"],
    [16993,"2012-04-13T20:00:00","ND","ND","ND","ND","ND","ND","ND","ND","ND","ND","ND","ND"],
    [16994,"2012-04-13T21:00:00","ND","ND","ND","ND","ND","ND","ND","ND","ND","ND","ND","ND"],
    [16995,"2012-04-13T22:00:00","ND","ND","ND","ND","ND","ND","ND","ND","ND","ND","ND","ND"],
    [16996,"2012-04-13T23:00:00","ND","ND","ND","ND","ND","ND","ND","ND","ND","ND","ND","ND"],
    [16997,"2012-04-14T00:00:00","ND","ND","ND","ND","ND","ND","ND","ND","ND","ND","ND","ND"],
    [16998,"2012-04-14T01:00:00","ND","ND","ND","ND","ND","ND","ND","ND","ND","ND","ND","ND"],
    [16999,"2012-04-14T02:00:00","ND","ND","ND","ND","ND","ND","ND","ND","ND","ND","ND","ND"],
    [17000,"2012-04-14T03:00:00","ND","ND","ND","ND","ND","ND","ND","ND","ND","ND","ND","ND"],
    [17001,"2012-04-14T04:00:00","ND","ND","ND","ND","ND","ND","ND","ND","ND","ND","ND","ND"],
    [17002,"2012-04-14T05:00:00","ND","ND","ND","ND","ND","ND","ND","ND","ND","ND","ND","ND"],
    [17003,"2012-04-14T06:00:00","ND","ND","ND","ND","ND","ND","ND","ND","ND","ND","ND","ND"],
    [17004,"2012-04-14T07:00:00","ND","ND","ND","ND","ND","ND","ND","ND","ND","ND","ND","ND"],
    [17005,"2012-04-14T08:00:00","ND","ND","ND","ND","ND","ND","ND","ND","ND","ND","ND","ND"],
    [17006,"2012-04-14T09:00:00","ND","ND","ND","ND","ND","ND","ND","ND","ND","ND","ND","ND"],
    [17007,"2012-04-14T10:00:00","ND","ND","ND","ND","ND","ND","ND","ND","ND","ND","ND","ND"],
    [17008,"2012-04-14T11:00:00","ND","ND","ND","ND","ND","ND","ND","ND","ND","ND","ND","ND"],
    [17009,"2012-04-14T12:00:00","ND","ND","ND","ND","ND","ND","ND","ND","ND","ND","ND","ND"],
    [17010,"2012-04-14T13:00:00","ND","ND","ND","ND","ND","ND","ND","ND","ND","ND","ND","ND"],
    [17011,"2012-04-14T14:00:00","ND","ND","ND","ND","ND","ND","ND","ND","ND","ND","ND","ND"],
    [17012,"2012-04-14T15:00:00","ND","ND","ND","ND","ND","ND","ND","ND","ND","ND","ND","ND"],
    [17013,"2012-04-14T16:00:00","ND","ND","ND","ND","ND","ND","ND","ND","ND","ND","ND","ND"],
    [17014,"2012-04-14T17:00:00","ND","ND","ND","ND","ND","ND","ND","ND","ND","ND","ND","ND"],
    [17015,"2012-04-14T18:00:00","ND","ND","ND","ND","ND","ND","ND","ND","ND","ND","ND","ND"],
    [17016,"2012-04-14T19:00:00","ND","ND","ND","ND","ND","ND","ND","ND","ND","ND","ND","ND"],
    [17017,"2012-04-14T20:00:00","ND","ND","ND","ND","ND","ND","ND","ND","ND","ND","ND","ND"],
    [17018,"2012-04-14T21:00:00","ND","ND","ND","ND","ND","ND","ND","ND","ND","ND","ND","ND"],
    [17019,"2012-04-14T22:00:00","ND","ND","ND","ND","ND","ND","ND","ND","ND","ND","ND","ND"],
    [17020,"2012-04-14T23:00:00","ND","ND","ND","ND","ND","ND","ND","ND","ND","ND","ND","ND"],
    [17021,"2012-04-15T00:00:00","ND","ND","ND","ND","ND","ND","ND","ND","ND","ND","ND","ND"],
    [17022,"2012-04-15T01:00:00","ND","ND","ND","ND","ND","ND","ND","ND","ND","ND","ND","ND"],
    [17023,"2012-04-15T02:00:00","ND","ND","ND","ND","ND","ND","ND","ND","ND","ND","ND","ND"],
    [17024,"2012-04-15T03:00:00","ND","ND","ND","ND","ND","ND","ND","ND","ND","ND","ND","ND"],
    [17025,"2012-04-15T04:00:00","ND","ND","ND","ND","ND","ND","ND","ND","ND","ND","ND","ND"],
    [17026,"2012-04-15T05:00:00","ND","ND","ND","ND","ND","ND","ND","ND","ND","ND","ND","ND"],
    [17027,"2012-04-15T06:00:00","ND","ND","ND","ND","ND","ND","ND","ND","ND","ND","ND","ND"],
    [17028,"2012-04-15T07:00:00","ND","ND","ND","ND","ND","ND","ND","ND","ND","ND","ND","ND"],
    [17029,"2012-04-15T08:00:00","ND","ND","ND","ND","ND","ND","ND","ND","ND","ND","ND","ND"],
    [17030,"2012-04-15T09:00:00","ND","ND","ND","ND","ND","ND","ND","ND","ND","ND","ND","ND"],
    [17031,"2012-04-15T10:00:00","ND","ND","ND","ND","ND","ND","ND","ND","ND","ND","ND","ND"],
    [17032,"2012-04-15T11:00:00","ND","ND","ND","ND","ND","ND","ND","ND","ND","ND","ND","ND"],
    [17033,"2012-04-15T12:00:00","ND","ND","ND","ND","ND","ND","ND","ND","ND","ND","ND","ND"],
    [17034,"2012-04-15T13:00:00","ND","ND","ND","ND","ND","ND","ND","ND","ND","ND","ND","ND"],
    [17035,"2012-04-15T14:00:00","ND","ND","ND","ND","ND","ND","ND","ND","ND","ND","ND","ND"],
    [17036,"2012-04-15T15:00:00","ND","ND","ND","ND","ND","ND","ND","ND","ND","ND","ND","ND"],
    [17037,"2012-04-15T16:00:00","ND","ND","ND","ND","ND","ND","ND","ND","ND","ND","ND","ND"],
    [17038,"2012-04-15T17:00:00","ND","ND","ND","ND","ND","ND","ND","ND","ND","ND","ND","ND"],
    [17039,"2012-04-15T18:00:00","ND","ND","ND","ND","ND","ND","ND","ND","ND","ND","ND","ND"],
    [17040,"2012-04-15T19:00:00","ND","ND","ND","ND","ND","ND","ND","ND","ND","ND","ND","ND"],
    [17041,"2012-04-15T20:00:00","ND","ND","ND","ND","ND","ND","ND","ND","ND","ND","ND","ND"],
    [17042,"2012-04-15T21:00:00","ND","ND","ND","ND","ND","ND","ND","ND","ND","ND","ND","ND"],
    [17043,"2012-04-15T22:00:00","ND","ND","ND","ND","ND","ND","ND","ND","ND","ND","ND","ND"],
    [17044,"2012-04-15T23:00:00","ND","ND","ND","ND","ND","ND","ND","ND","ND","ND","ND","ND"],
    [17045,"2012-04-16T00:00:00","ND","ND","ND","ND","ND","ND","ND","ND","ND","ND","ND","ND"],
    [17046,"2012-04-16T01:00:00","ND","ND","ND","ND","ND","ND","ND","ND","ND","ND","ND","ND"],
    [17047,"2012-04-16T02:00:00","ND","ND","ND","ND","ND","ND","ND","ND","ND","ND","ND","ND"],
    [17048,"2012-04-16T03:00:00","ND","ND","ND","ND","ND","ND","ND","ND","ND","ND","ND","ND"],
    [17049,"2012-04-16T04:00:00","ND","ND","ND","ND","ND","ND","ND","ND","ND","ND","ND","ND"],
    [17050,"2012-04-16T05:00:00","ND","ND","ND","ND","ND","ND","ND","ND","ND","ND","ND","ND"],
    [17051,"2012-04-16T06:00:00","ND","ND","ND","ND","ND","ND","ND","ND","ND","ND","ND","ND"],
    [17052,"2012-04-16T07:00:00","ND","ND","ND","ND","ND","ND","ND","ND","ND","ND","ND","ND"],
    [17053,"2012-04-16T08:00:00","ND","ND","ND","ND","ND","ND","ND","ND","ND","ND","ND","ND"],
    [17054,"2012-04-16T09:00:00","ND","ND","ND","ND","ND","ND","ND","ND","ND","ND","ND","ND"],
    [17055,"2012-04-16T10:00:00","ND","ND","ND","ND","ND","ND","ND","ND","ND","ND","ND","ND"],
    [17056,"2012-04-16T11:00:00","ND","ND","ND","ND","ND","ND","ND","ND","ND","ND","ND","ND"],
    [17057,"2012-04-16T12:00:00","ND","ND","ND","ND","ND","ND","ND","ND","ND","ND","ND","ND"],
    [17058,"2012-04-16T13:00:00","ND","ND","ND","ND","ND","ND","ND","ND","ND","ND","ND","ND"],
    [17059,"2012-04-16T14:00:00","ND","ND","ND","ND","ND","ND","ND","ND","ND","ND","ND","ND"],
    [17060,"2012-04-16T15:00:00","ND","ND","ND","ND","ND","ND","ND","ND","ND","ND","ND","ND"],
    [17061,"2012-04-16T16:00:00","ND","ND","ND","ND","ND","ND","ND","ND","ND","ND","ND","ND"],
    [17062,"2012-04-16T17:00:00","ND","ND","ND","ND","ND","ND","ND","ND","ND","ND","ND","ND"],
    [17063,"2012-04-16T18:00:00","ND","ND","ND","ND","ND","ND","ND","ND","ND","ND","ND","ND"],
    [17064,"2012-04-16T19:00:00","ND","ND","ND","ND","ND","ND","ND","ND","ND","ND","ND","ND"],
    [17065,"2012-04-16T20:00:00","ND","ND","ND","ND","ND","ND","ND","ND","ND","ND","ND","ND"],
    [17066,"2012-04-16T21:00:00","ND","ND","ND","ND","ND","ND","ND","ND","ND","ND","ND","ND"],
    [17067,"2012-04-16T22:00:00","ND","ND","ND","ND","ND","ND","ND","ND","ND","ND","ND","ND"],
    [17068,"2012-04-16T23:00:00","ND","ND","ND","ND","ND","ND","ND","ND","ND","ND","ND","ND"],
    [17069,"2012-04-17T00:00:00","ND","ND","ND","ND","ND","ND","ND","ND","ND","ND","ND","ND"],
    [17070,"2012-04-17T01:00:00","ND","ND","ND","ND","ND","ND","ND","ND","ND","ND","ND","ND"],
    [17071,"2012-04-17T02:00:00","ND","ND","ND","ND","ND","ND","ND","ND","ND","ND","ND","ND"],
    [17072,"2012-04-17T03:00:00","ND","ND","ND","ND","ND","ND","ND","ND","ND","ND","ND","ND"],
    [17073,"2012-04-17T04:00:00","ND","ND","ND","ND","ND","ND","ND","ND","ND","ND","ND","ND"],
    [17074,"2012-04-17T05:00:00","ND","ND","ND","ND","ND","ND","ND","ND","ND","ND","ND","ND"],
    [17075,"2012-04-17T06:00:00","ND","ND","ND","ND","ND","ND","ND","ND","ND","ND","ND","ND"],
    [17076,"2012-04-17T07:00:00","ND","ND","ND","ND","ND","ND","ND","ND","ND","ND","ND","ND"],
    [17077,"2012-04-17T08:00:00","ND","ND","ND","ND","ND","ND","ND","ND","ND","ND","ND","ND"],
    [17078,"2012-04-17T09:00:00","ND","ND","ND","ND","ND","ND","ND","ND","ND","ND","ND","ND"],
    [17079,"2012-04-17T10:00:00","ND","ND","ND","ND","ND","ND","ND","ND","ND","ND","ND","ND"],
    [17080,"2012-04-17T11:00:00","ND","ND","ND","ND","ND","ND","ND","ND","ND","ND","ND","ND"],
    [17081,"2012-04-17T12:00:00","ND","ND","ND","ND","ND","ND","ND","ND","ND","ND","ND","ND"],
    [17082,"2012-04-17T13:00:00","ND","ND","ND","ND","ND","ND","ND","ND","ND","ND","ND","ND"],
    [17083,"2012-04-17T14:00:00","ND","ND","ND","ND","ND","ND","ND","ND","ND","ND","ND","ND"],
    [17084,"2012-04-17T15:00:00","ND","ND","ND","ND","ND","ND","ND","ND","ND","ND","ND","ND"],
    [17085,"2012-04-17T16:00:00","ND","ND","ND","ND","ND","ND","ND","ND","ND","ND","ND","ND"],
    [17086,"2012-04-17T17:00:00","ND","ND","ND","ND","ND","ND","ND","ND","ND","ND","ND","ND"],
    [17087,"2012-04-17T18:00:00","ND","ND","ND","ND","ND","ND","ND","ND","ND","ND","ND","ND"],
    [17088,"2012-04-17T19:00:00","ND","ND","ND","ND","ND","ND","ND","ND","ND","ND","ND","ND"],
    [17089,"2012-04-17T20:00:00","ND","ND","ND","ND","ND","ND","ND","ND","ND","ND","ND","ND"],
    [17090,"2012-04-17T21:00:00","ND","ND","ND","ND","ND","ND","ND","ND","ND","ND","ND","ND"],
    [17091,"2012-04-17T22:00:00","ND","ND","ND","ND","ND","ND","ND","ND","ND","ND","ND","ND"],
    [17092,"2012-04-17T23:00:00","ND","ND","ND","ND","ND","ND","ND","ND","ND","ND","ND","ND"],
    [17093,"2012-04-18T00:00:00","ND","ND","ND","ND","ND","ND","ND","ND","ND","ND","ND","ND"],
    [17094,"2012-04-18T01:00:00","ND","ND","ND","ND","ND","ND","ND","ND","ND","ND","ND","ND"],
    [17095,"2012-04-18T02:00:00","ND","ND","ND","ND","ND","ND","ND","ND","ND","ND","ND","ND"],
    [17096,"2012-04-18T03:00:00","ND","ND","ND","ND","ND","ND","ND","ND","ND","ND","ND","ND"],
    [17097,"2012-04-18T04:00:00","ND","ND","ND","ND","ND","ND","ND","ND","ND","ND","ND","ND"],
    [17098,"2012-04-18T05:00:00","ND","ND","ND","ND","ND","ND","ND","ND","ND","ND","ND","ND"],
    [17099,"2012-04-18T06:00:00","ND","ND","ND","ND","ND","ND","ND","ND","ND","ND","ND","ND"],
    [17100,"2012-04-18T07:00:00","ND","ND","ND","ND","ND","ND","ND","ND","ND","ND","ND","ND"],
    [17101,"2012-04-18T08:00:00","ND","ND","ND","ND","ND","ND","ND","ND","ND","ND","ND","ND"],
    [17102,"2012-04-18T09:00:00","ND","ND","ND","ND","ND","ND","ND","ND","ND","ND","ND","ND"],
    [17103,"2012-04-18T10:00:00","ND","ND","ND","ND","ND","ND","ND","ND","ND","ND","ND","ND"],
    [17104,"2012-04-18T11:00:00","ND","ND","ND","ND","ND","ND","ND","ND","ND","ND","ND","ND"],
    [17105,"2012-04-18T12:00:00","ND","ND","ND","ND","ND","ND","ND","ND","ND","ND","ND","ND"],
    [17106,"2012-04-18T13:00:00","ND","ND","ND","ND","ND","ND","ND","ND","ND","ND","ND","ND"],
    [17107,"2012-04-18T14:00:00","ND","ND","ND","ND","ND","ND","ND","ND","ND","ND","ND","ND"],
    [17108,"2012-04-18T15:00:00","ND","ND","ND","ND","ND","ND","ND","ND","ND","ND","ND","ND"],
    [17109,"2012-04-18T16:00:00","ND","ND","ND","ND","ND","ND","ND","ND","ND","ND","ND","ND"],
    [17110,"2012-04-18T17:00:00","ND","ND","ND","ND","ND","ND","ND","ND","ND","ND","ND","ND"],
    [17111,"2012-04-18T18:00:00","ND","ND","ND","ND","ND","ND","ND","ND","ND","ND","ND","ND"],
    [17112,"2012-04-18T19:00:00","ND","ND","ND","ND","ND","ND","ND","ND","ND","ND","ND","ND"],
    [17113,"2012-04-18T20:00:00","ND","ND","ND","ND","ND","ND","ND","ND","ND","ND","ND","ND"],
    [17114,"2012-04-18T21:00:00","ND","ND","ND","ND","ND","ND","ND","ND","ND","ND","ND","ND"],
    [17115,"2012-04-18T22:00:00","ND","ND","ND","ND","ND","ND","ND","ND","ND","ND","ND","ND"],
    [17116,"2012-04-18T23:00:00","ND","ND","ND","ND","ND","ND","ND","ND","ND","ND","ND","ND"],
    [17117,"2012-04-19T00:00:00","ND","ND","ND","ND","ND","ND","ND","ND","ND","ND","ND","ND"],
    [17118,"2012-04-19T01:00:00","ND","ND","ND","ND","ND","ND","ND","ND","ND","ND","ND","ND"],
    [17119,"2012-04-19T02:00:00","ND","ND","ND","ND","ND","ND","ND","ND","ND","ND","ND","ND"],
    [17120,"2012-04-19T03:00:00","ND","ND","ND","ND","ND","ND","ND","ND","ND","ND","ND","ND"],
    [17121,"2012-04-19T04:00:00","ND","ND","ND","ND","ND","ND","ND","ND","ND","ND","ND","ND"],
    [17122,"2012-04-19T05:00:00","ND","ND","ND","ND","ND","ND","ND","ND","ND","ND","ND","ND"],
    [17123,"2012-04-19T06:00:00","ND","ND","ND","ND","ND","ND","ND","ND","ND","ND","ND","ND"],
    [17124,"2012-04-19T07:00:00","ND","ND","ND","ND","ND","ND","ND","ND","ND","ND","ND","ND"],
    [17125,"2012-04-19T08:00:00","ND","ND","ND","ND","ND","ND","ND","ND","ND","ND","ND","ND"],
    [17126,"2012-04-19T09:00:00","ND","ND","ND","ND","ND","ND","ND","ND","ND","ND","ND","ND"],
    [17127,"2012-04-19T10:00:00","ND","ND","ND","ND","ND","ND","ND","ND","ND","ND","ND","ND"],
    [17128,"2012-04-19T11:00:00","ND","ND","ND","ND","ND","ND","ND","ND","ND","ND","ND","ND"],
    [17129,"2012-04-19T12:00:00","ND","ND","ND","ND","ND","ND","1.3","147.6","23.6","77.4","327.7","0"],
    [17130,"2012-04-19T13:00:00","ND","ND","ND","ND","ND","ND","2.1","165.3","24.8","72.1","673.8","0"],
    [17131,"2012-04-19T14:00:00","ND","ND","ND","ND","ND","ND","2","157.5","25.8","67.3","465.3","0"],
    [17132,"2012-04-19T15:00:00","ND","ND","ND","ND","ND","ND","0.9","181.8","26.9","62.2","494.4","0"],
    [17133,"2012-04-19T16:00:00","ND","ND","ND","ND","ND","ND","0.3","34.6","27.4","57.8","333.1","0"],
    [17134,"2012-04-19T17:00:00","ND","ND","ND","ND","ND","ND","1.7","359.6","26.6","63.2","114.8","0"],
    [17135,"2012-04-19T18:00:00","ND","ND","ND","ND","ND","ND","0.5","322.5","25.8","66.5","31.7","0"],
    [17136,"2012-04-19T19:00:00","ND","ND","ND","ND","ND","ND","0.3","273.8","24.5","78.2","1.6","0"],
    [17137,"2012-04-19T20:00:00","ND","ND","ND","ND","ND","ND","0","123.4","23.5","80.1","0","0"],
    [17138,"2012-04-19T21:00:00","ND","ND","ND","ND","ND","ND","0.6","176.6","23.3","78.8","0","0"],
    [17139,"2012-04-19T22:00:00","ND","ND","ND","ND","ND","ND","0.3","338.7","22.7","80.5","0","0"],
    [17140,"2012-04-19T23:00:00","ND","ND","ND","ND","ND","ND","0.4","347.6","22.1","81.9","0","0"],
    [17141,"2012-04-20T00:00:00","ND","ND","ND","ND","ND","ND","0","256","21.9","84.9","0","0"],
    [17142,"2012-04-20T01:00:00","ND","ND","ND","ND","ND","ND","0.1","225.3","21.6","86.5","0","0"],
    [17143,"2012-04-20T02:00:00","ND","ND","ND","ND","ND","ND","0.2","230.8","21.5","85.4","0","0"],
    [17144,"2012-04-20T03:00:00","ND","ND","ND","ND","ND","ND","0.2","116.2","22","82.2","0","0"],
    [17145,"2012-04-20T04:00:00","ND","ND","ND","ND","ND","ND","0.6","7.9","21.2","87.8","0","0"],
    [17146,"2012-04-20T05:00:00","ND","ND","ND","ND","ND","ND","0.6","36.4","20.6","91.9","0","0"],
    [17147,"2012-04-20T06:00:00","ND","ND","ND","ND","ND","ND","0.5","11.6","20.3","92.3","0.1","0"],
    [17148,"2012-04-20T07:00:00","ND","ND","ND","ND","ND","ND","0.7","29","20.5","89.9","29.8","0"],
    [17149,"2012-04-20T08:00:00","ND","ND","ND","ND","ND","ND","0.9","29.4","21.3","86.4","97.6","0"],
    [17150,"2012-04-20T09:00:00","ND","ND","ND","ND","ND","ND","0.8","38.8","22.7","80.2","261.6","0"],
    [17151,"2012-04-20T10:00:00","ND","ND","ND","ND","ND","ND","1","61.8","23.8","74.7","306.6","6.6"],
    [17152,"2012-04-20T11:00:00","ND","ND","ND","ND","ND","ND","0.1","56.3","25.4","67.4","386.3","0"],
    [17153,"2012-04-20T12:00:00","ND","ND","ND","ND","ND","ND","0.7","170.5","27.1","59.8","768.9","0"],
    [17154,"2012-04-20T13:00:00","ND","ND","ND","ND","ND","ND","0.6","142.6","28.6","54.9","727.4","0"],
    [17155,"2012-04-20T14:00:00","ND","ND","ND","ND","ND","ND","1.1","142.1","28.9","53.6","344.2","0"],
    [17156,"2012-04-20T15:00:00","ND","ND","ND","ND","ND","ND","ND","ND","ND","ND","ND","ND"],
    [17157,"2012-04-20T16:00:00","ND","ND","ND","ND","ND","ND","3","268.5","24.7","71.6","116.6","14.22"],
    [17158,"2012-04-20T17:00:00","ND","ND","ND","ND","ND","ND","0.3","257.5","25.1","79.2","116.7","0"],
    [17159,"2012-04-20T18:00:00","ND","ND","ND","ND","ND","ND","1.2","254.3","25.3","69.9","30.3","0"],
    [17160,"2012-04-20T19:00:00","ND","ND","ND","ND","ND","ND","0.2","175.8","24.5","75.8","0.8","0"],
    [17161,"2012-04-20T20:00:00","ND","ND","ND","ND","ND","ND","0.4","267.8","23.3","80.3","0","0"],
    [17162,"2012-04-20T21:00:00","ND","ND","ND","ND","ND","ND","0.5","228.1","23.6","77.8","0","0"],
    [17163,"2012-04-20T22:00:00","ND","ND","ND","ND","ND","ND","0.5","298.9","23.3","80.7","0","0"],
    [17164,"2012-04-20T23:00:00","ND","ND","ND","ND","ND","ND","0.4","310.4","23.2","81.8","0","0"],
    [17165,"2012-04-21T00:00:00","ND","ND","ND","ND","ND","ND","0.2","275.4","22.5","85.2","0","0"],
    [17166,"2012-04-21T01:00:00","ND","ND","ND","ND","ND","ND","1.6","175.4","22.7","85.7","0","0"],
    [17167,"2012-04-21T02:00:00","ND","ND","ND","ND","ND","ND","2","178.3","21.8","89.6","0","1.27"],
    [17168,"2012-04-21T03:00:00","ND","ND","ND","ND","ND","ND","1","150.8","21.3","94.3","0","1.52"],
    [17169,"2012-04-21T04:00:00","ND","ND","ND","ND","ND","ND","0.9","179.4","21","96.8","0","8.89"],
    [17170,"2012-04-21T05:00:00","ND","ND","ND","ND","ND","ND","1.7","153.4","20.5","97.8","0","9.4"],
    [17171,"2012-04-21T06:00:00","ND","ND","ND","ND","ND","ND","0.7","161.2","19.9","97.2","0","6.35"],
    [17172,"2012-04-21T07:00:00","ND","ND","ND","ND","ND","ND","1","136.6","20.1","97.4","1.8","4.32"],
    [17173,"2012-04-21T08:00:00","ND","ND","ND","ND","ND","ND","1.1","169.1","20.1","96.5","20","1.78"],
    [17174,"2012-04-21T09:00:00","ND","ND","ND","ND","ND","ND","0.7","141.7","21","93.4","101.9","0.25"],
    [17175,"2012-04-21T10:00:00","ND","ND","ND","ND","ND","ND","0.9","143.4","22","86.5","188.5","0.25"],
    [17176,"2012-04-21T11:00:00","ND","ND","ND","ND","ND","ND","1.7","120.5","22.5","87.7","188.7","0"],
    [17177,"2012-04-21T12:00:00","ND","ND","ND","ND","ND","ND","1.5","137.7","22.3","86.7","219","0"],
    [17178,"2012-04-21T13:00:00","ND","ND","ND","ND","ND","ND","0.5","98.9","22.2","87.5","152.7","0.25"],
    [17179,"2012-04-21T14:00:00","ND","ND","ND","ND","ND","ND","0.9","47.6","22.4","88","233.8","0.25"],
    [17180,"2012-04-21T15:00:00","ND","ND","ND","ND","ND","ND","0.3","330.4","24","77.1","483.3","0"],
    [17181,"2012-04-21T16:00:00","ND","ND","ND","ND","ND","ND","1.2","270","25.5","66.3","493.2","0"],
    [17182,"2012-04-21T17:00:00","ND","ND","ND","ND","ND","ND","0.9","299.2","26.2","61.5","258","0"],
    [17183,"2012-04-21T18:00:00","ND","ND","ND","ND","ND","ND","0.8","338.8","25.1","67.8","57.1","0"],
    [17184,"2012-04-21T19:00:00","ND","ND","ND","ND","ND","ND","0.5","266","23.3","79.6","0.7","0"],
    [17185,"2012-04-21T20:00:00","ND","ND","ND","ND","ND","ND","0.9","255.5","23","78.6","0","0"],
    [17186,"2012-04-21T21:00:00","ND","ND","ND","ND","ND","ND","0.4","254.8","22.1","82.9","0","0"],
    [17187,"2012-04-21T22:00:00","ND","ND","ND","ND","ND","ND","0.1","236.4","21.8","84.6","0","0"],
    [17188,"2012-04-21T23:00:00","ND","ND","ND","ND","ND","ND","0.4","232.9","21.3","88.2","0","0"],
    [17189,"2012-04-22T00:00:00","ND","ND","ND","ND","ND","ND","0.5","270","21.2","88.7","0","0"],
    [17190,"2012-04-22T01:00:00","ND","ND","ND","ND","ND","ND","0.4","229","21.3","88.5","0","0"],
    [17191,"2012-04-22T02:00:00","ND","ND","ND","ND","ND","ND","0","309.6","21.4","88.3","0","0"],
    [17192,"2012-04-22T03:00:00","ND","ND","ND","ND","ND","ND","0.4","229","21.3","88.8","0","0"],
    [17193,"2012-04-22T04:00:00","ND","ND","ND","ND","ND","ND","0.4","281.5","20.9","92.8","0","0.51"],
    [17194,"2012-04-22T05:00:00","ND","ND","ND","ND","ND","ND","0.2","326","20.7","94.1","0","1.27"],
    [17195,"2012-04-22T06:00:00","ND","ND","ND","ND","ND","ND","1","29.1","20.4","96.4","0","0.25"],
    [17196,"2012-04-22T07:00:00","ND","ND","ND","ND","ND","ND","0.2","147.8","20.1","97.1","2.1","14.48"],
    [17197,"2012-04-22T08:00:00","ND","ND","ND","ND","ND","ND","0.5","148.4","19.9","98","78.7","3.3"],
    [17198,"2012-04-22T09:00:00","ND","ND","ND","ND","ND","ND","0.4","57.3","21","94.2","211.7","0.51"],
    [17199,"2012-04-22T10:00:00","ND","ND","ND","ND","ND","ND","0.5","99","22.8","85","335.8","0"],
    [17200,"2012-04-22T11:00:00","ND","ND","ND","ND","ND","ND","1.1","68.8","23.9","79.6","335.8","0"],
    [17201,"2012-04-22T12:00:00","ND","ND","ND","ND","ND","ND","1.1","77.7","25.1","73.1","420.4","0"],
    [17202,"2012-04-22T13:00:00","ND","ND","ND","ND","ND","ND","1","53","25.7","71.6","328.5","0"],
    [17203,"2012-04-22T14:00:00","ND","ND","ND","ND","ND","ND","1.4","356.3","25.5","71.7","147.3","0"],
    [17204,"2012-04-22T15:00:00","ND","ND","ND","ND","ND","ND","1.9","359.9","21.1","88.4","25.8","14.73"],
    [17205,"2012-04-22T16:00:00","ND","ND","ND","ND","ND","ND","0.1","331.9","20.8","91.1","25.8","3.81"],
    [17206,"2012-04-22T17:00:00","ND","ND","ND","ND","ND","ND","0.7","217.4","21.4","90.9","33.7","0.76"],
    [17207,"2012-04-22T18:00:00","ND","ND","ND","ND","ND","ND","1.1","248.5","21.7","87.7","20.1","0"],
    [17208,"2012-04-22T19:00:00","ND","ND","ND","ND","ND","ND","0.2","199","21.1","87.2","1.2","0"],
    [17209,"2012-04-22T20:00:00","ND","ND","ND","ND","ND","ND","0.5","271.3","20.2","92.2","0","0.25"],
    [17210,"2012-04-22T21:00:00","ND","ND","ND","ND","ND","ND","0.1","53.5","20.3","90","0","0"],
    [17211,"2012-04-22T22:00:00","ND","ND","ND","ND","ND","ND","0.2","276.6","19.9","92.6","0","0"],
    [17212,"2012-04-22T23:00:00","ND","ND","ND","ND","ND","ND","0.1","335.1","19.8","92.9","0","0"],
    [17213,"2012-04-23T00:00:00","ND","ND","ND","ND","ND","ND","0.2","280.8","19.8","94","0","0"],
    [17214,"2012-04-23T01:00:00","ND","ND","ND","ND","ND","ND","0.1","340.9","20.1","91.3","0","0"],
    [17215,"2012-04-23T02:00:00","ND","ND","ND","ND","ND","ND","0.1","256.3","20","91.3","0","0"],
    [17216,"2012-04-23T03:00:00","ND","ND","ND","ND","ND","ND","0.1","264.8","19.8","94","0","0"],
    [17217,"2012-04-23T04:00:00","ND","ND","ND","ND","ND","ND","0","0","19.6","94.4","0","0"],
    [17218,"2012-04-23T05:00:00","ND","ND","ND","ND","ND","ND","0","0","19.1","95.4","0","0"],
    [17219,"2012-04-23T06:00:00","ND","ND","ND","ND","ND","ND","0","0","18.5","95.8","0.2","0"],
    [17220,"2012-04-23T07:00:00","ND","ND","ND","ND","ND","ND","0","0","18.8","95.2","49.2","0"],
    [17221,"2012-04-23T08:00:00","ND","ND","ND","ND","ND","ND","0.4","176.4","20.7","90.1","213.6","0"],
    [17222,"2012-04-23T09:00:00","ND","ND","ND","ND","ND","ND","0.4","181.6","22.8","78.7","349.3","0"],
    [17223,"2012-04-23T10:00:00","ND","ND","ND","ND","ND","ND","0.7","78.9","24.6","72.1","567.5","0"],
    [17224,"2012-04-23T11:00:00","ND","ND","ND","ND","ND","ND","0.9","98.4","26.3","65.7","709.7","0"],
    [17225,"2012-04-23T12:00:00","ND","ND","ND","ND","ND","ND","1.3","81.9","27.6","58.1","784.4","0"],
    [17226,"2012-04-23T13:00:00","ND","ND","ND","ND","ND","ND","1.5","61.7","28.5","56.6","788.7","0"],
    [17227,"2012-04-23T14:00:00","ND","ND","ND","ND","ND","ND","1.7","62","29.5","54.8","693.5","0"],
    [17228,"2012-04-23T15:00:00","ND","ND","ND","ND","ND","ND","1.7","242.7","30.2","51.2","401.3","0"],
    [17229,"2012-04-23T16:00:00","ND","ND","ND","ND","ND","ND","ND","ND","ND","ND","ND","ND"],
    [17230,"2012-04-23T17:00:00","ND","ND","ND","ND","ND","ND","ND","ND","ND","ND","ND","ND"],
    [17231,"2012-04-23T18:00:00","ND","ND","ND","ND","ND","ND","ND","ND","ND","ND","ND","ND"],
    [17232,"2012-04-23T19:00:00","ND","ND","ND","ND","ND","ND","ND","ND","ND","ND","ND","ND"],
    [17233,"2012-04-23T20:00:00","ND","ND","ND","ND","ND","ND","ND","ND","ND","ND","ND","ND"],
    [17234,"2012-04-23T21:00:00","ND","ND","ND","ND","ND","ND","ND","ND","ND","ND","ND","ND"],
    [17235,"2012-04-23T22:00:00","ND","ND","ND","ND","ND","ND","ND","ND","ND","ND","ND","ND"],
    [17236,"2012-04-23T23:00:00","ND","ND","ND","ND","ND","ND","ND","ND","ND","ND","ND","ND"],
    [17237,"2012-04-24T00:00:00","ND","ND","ND","ND","ND","ND","ND","ND","ND","ND","ND","ND"],
    [17238,"2012-04-24T01:00:00","ND","ND","ND","ND","ND","ND","ND","ND","ND","ND","ND","ND"],
    [17239,"2012-04-24T02:00:00","ND","ND","ND","ND","ND","ND","ND","ND","ND","ND","ND","ND"],
    [17240,"2012-04-24T03:00:00","ND","ND","ND","ND","ND","ND","ND","ND","ND","ND","ND","ND"],
    [17241,"2012-04-24T04:00:00","ND","ND","ND","ND","ND","ND","ND","ND","ND","ND","ND","ND"],
    [17242,"2012-04-24T05:00:00","ND","ND","ND","ND","ND","ND","ND","ND","ND","ND","ND","ND"],
    [17243,"2012-04-24T06:00:00","ND","ND","ND","ND","ND","ND","ND","ND","ND","ND","ND","ND"],
    [17244,"2012-04-24T07:00:00","ND","ND","ND","ND","ND","ND","ND","ND","ND","ND","ND","ND"],
    [17245,"2012-04-24T08:00:00","ND","ND","ND","ND","ND","ND","ND","ND","ND","ND","ND","ND"],
    [17246,"2012-04-24T09:00:00","ND","ND","ND","ND","ND","ND","ND","ND","ND","ND","ND","ND"],
    [17247,"2012-04-24T10:00:00","ND","ND","ND","ND","ND","ND","ND","ND","ND","ND","ND","ND"],
    [17248,"2012-04-24T11:00:00","ND","ND","ND","ND","ND","ND","2.6","271.7","30","49.6","389.2","0"],
    [17249,"2012-04-24T12:00:00","ND","ND","ND","ND","ND","ND","0.3","169","28.2","56.7","693.2","0"],
    [17250,"2012-04-24T13:00:00","ND","ND","ND","ND","ND","ND","0.4","167.3","29.1","53.2","679.8","0"],
    [17251,"2012-04-24T14:00:00","ND","ND","ND","ND","ND","ND","0.8","74.2","29.9","51.5","480","0"],
    [17252,"2012-04-24T15:00:00","ND","ND","ND","ND","ND","ND","1.6","61.6","29.4","54.2","287","0"],
    [17253,"2012-04-24T16:00:00","ND","ND","22.55","ND","ND","ND","1.6","299.3","29.3","52.8","213.4","0"],
    [17254,"2012-04-24T17:00:00","ND","ND","19.09","ND","ND","ND","2.2","271.5","28.6","54.1","97.1","0"],
    [17255,"2012-04-24T18:00:00","ND","ND","19.92","ND","ND","ND","0.5","281.1","27.8","55","14.7","0"],
    [17256,"2012-04-24T19:00:00","ND","ND","24.01","ND","ND","ND","0.1","191.2","27.3","56.1","0.2","0"],
    [17257,"2012-04-24T20:00:00","ND","ND","28.93","ND","ND","ND","1","120.4","26.4","59.4","0","0"],
    [17258,"2012-04-24T21:00:00","ND","ND","34.89","ND","ND","ND","0.7","80.5","25.5","65.4","0","0"],
    [17259,"2012-04-24T22:00:00","ND","ND","21.02","ND","ND","ND","1","7.1","24.1","71.7","0","0"],
    [17260,"2012-04-24T23:00:00","ND","ND","34.04","ND","ND","ND","0.4","330.3","23.3","76.7","0","0"],
    [17261,"2012-04-25T00:00:00","ND","ND","30.26","ND","ND","ND","0.2","219.8","23","77.5","0","0"],
    [17262,"2012-04-25T01:00:00","ND","ND","27.99","ND","ND","ND","0.3","358.5","22.4","80.2","0","0"],
    [17263,"2012-04-25T02:00:00","ND","ND","23.39","ND","ND","ND","0.7","325.1","21.6","83.1","0","0"],
    [17264,"2012-04-25T03:00:00","ND","ND","20.13","ND","ND","ND","0.7","38.5","21.3","83.5","0","0"],
    [17265,"2012-04-25T04:00:00","ND","ND","17.34","ND","ND","ND","0.1","279.3","20.9","87.6","0","0"],
    [17266,"2012-04-25T05:00:00","ND","ND","17.59","ND","ND","ND","0.1","252.4","20.4","88","0","0"],
    [17267,"2012-04-25T06:00:00","ND","ND","17.19","ND","ND","ND","0.3","9.4","20.2","89.3","0.2","0"],
    [17268,"2012-04-25T07:00:00","ND","ND","13.75","ND","ND","ND","0","22.3","20.5","88.3","52.4","0"],
    [17269,"2012-04-25T08:00:00","ND","ND","13.89","ND","ND","ND","0.3","74.4","22.8","78.7","232.3","0"],
    [17270,"2012-04-25T09:00:00","ND","ND","17.55","ND","ND","ND","1","111.2","24.6","72.2","423.6","0"],
    [17271,"2012-04-25T10:00:00","ND","ND","31.35","ND","ND","ND","1.3","153","25.6","66.2","337","0"],
    [17272,"2012-04-25T11:00:00","ND","ND","56.60","ND","ND","ND","1.1","131.7","26.2","66.1","349.1","0"],
    [17273,"2012-04-25T12:00:00","ND","ND","39.81","ND","ND","ND","0.5","145.9","27.7","60.6","480.1","0"],
    [17274,"2012-04-25T13:00:00","ND","ND","28.62","ND","ND","ND","0.3","109.5","28.4","58.8","406.2","0"],
    [17275,"2012-04-25T14:00:00","ND","ND","22.19","ND","ND","ND","1.1","128.9","29.6","54.8","532.8","0"],
    [17276,"2012-04-25T15:00:00","ND","ND","25.47","ND","ND","ND","1.1","103.1","29.9","54.1","436.1","0"],
    [17277,"2012-04-25T16:00:00","ND","ND","22.05","ND","ND","ND","0.9","305.7","30.6","52.3","386","0"],
    [17278,"2012-04-25T17:00:00","ND","ND","21.53","ND","ND","ND","3.2","278.8","29.3","51.7","227.7","0"],
    [17279,"2012-04-25T18:00:00","ND","ND","24.82","ND","ND","ND","2.5","273.3","28.4","53.4","49.3","0"],
    [17280,"2012-04-25T19:00:00","ND","ND","15.03","ND","ND","ND","0.6","241.4","27.8","54.8","0.5","0"],
    [17281,"2012-04-25T20:00:00","ND","ND","21.96","ND","ND","ND","0.5","163.1","27.2","57.5","0","0"],
    [17282,"2012-04-25T21:00:00","ND","ND","34.34","ND","ND","ND","0.6","281","26.2","60.8","0","0"],
    [17283,"2012-04-25T22:00:00","ND","ND","35.12","ND","ND","ND","1.2","85.3","25.9","63.5","0","0"],
    [17284,"2012-04-25T23:00:00","ND","ND","35.82","ND","ND","ND","0.9","42.5","25.1","67.5","0","0"],
    [17285,"2012-04-26T00:00:00","ND","ND","34.80","ND","ND","ND","0.4","358.3","24.4","69.9","0","0"],
    [17286,"2012-04-26T01:00:00","ND","ND","31.58","ND","ND","ND","0.5","356.5","23.8","74.5","0","0"],
    [17287,"2012-04-26T02:00:00","ND","ND","27.01","ND","ND","ND","0.1","43.3","23.3","77.9","0","0"],
    [17288,"2012-04-26T03:00:00","ND","ND","24.51","ND","ND","ND","0.2","49.7","22.6","80.4","0","0"],
    [17289,"2012-04-26T04:00:00","ND","ND","24.06","ND","ND","ND","0.6","222.6","22.8","80.2","0","0"],
    [17290,"2012-04-26T05:00:00","ND","ND","20.70","ND","ND","ND","0.7","201.5","22.8","80.9","0","0"],
    [17291,"2012-04-26T06:00:00","ND","ND","18.21","ND","ND","ND","0.1","230.1","22.2","84.3","0.3","0"],
    [17292,"2012-04-26T07:00:00","ND","ND","12.15","ND","ND","ND","0.3","268.7","22.3","84.1","42","0"],
    [17293,"2012-04-26T08:00:00","ND","ND","14.45","ND","ND","ND","0.5","153.3","23.9","76.6","137.6","0"],
    [17294,"2012-04-26T09:00:00","ND","ND","17.56","ND","ND","ND","0.5","109.3","25.2","71.3","271.2","0"],
    [17295,"2012-04-26T10:00:00","ND","ND","24.63","ND","ND","ND","1.1","40.1","26.1","68.1","356","0"],
    [17296,"2012-04-26T11:00:00","ND","ND","36.69","ND","ND","ND","0.9","85.8","26.1","67.9","192.6","0"],
    [17297,"2012-04-26T12:00:00","ND","ND","42.02","ND","ND","ND","0.6","156.6","26.7","65","210.8","0"],
    [17298,"2012-04-26T13:00:00","ND","ND","37.24","ND","ND","ND","1.2","149.6","27.4","62.4","389.2","0"],
    [17299,"2012-04-26T14:00:00","ND","ND","30.61","ND","ND","ND","1.5","127.4","28.2","59.3","488.6","0"],
    [17300,"2012-04-26T15:00:00","ND","ND","25.81","ND","ND","ND","1.8","123.9","28.5","56.4","222.2","0"],
    [17301,"2012-04-26T16:00:00","ND","ND","21.72","ND","ND","ND","1","302.4","28.5","55.8","304.4","0"],
    [17302,"2012-04-26T17:00:00","ND","ND","18.79","ND","ND","ND","1.3","302.5","28.4","54.3","159.9","0"],
    [17303,"2012-04-26T18:00:00","ND","ND","18.80","ND","ND","ND","0.7","250.7","27.9","55.1","41.9","0"],
    [17304,"2012-04-26T19:00:00","ND","ND","19.99","ND","ND","ND","0.4","288.3","26.7","59.9","1","0"],
    [17305,"2012-04-26T20:00:00","ND","ND","24.55","ND","ND","ND","0.1","75.5","26.2","61","0","0"],
    [17306,"2012-04-26T21:00:00","ND","ND","35.76","ND","ND","ND","0.9","114.1","25.6","66.3","0","0"],
    [17307,"2012-04-26T22:00:00","ND","ND","32.84","ND","ND","ND","0.5","80.9","25","69.7","0","0"],
    [17308,"2012-04-26T23:00:00","ND","ND","30.85","ND","ND","ND","0.4","216.9","24.1","74.1","0","0"],
    [17309,"2012-04-27T00:00:00","ND","ND","26.19","ND","ND","ND","0.4","257.7","23.7","73.7","0","0"],
    [17310,"2012-04-27T01:00:00","ND","ND","23.29","ND","ND","ND","0.2","323.3","23.6","74.9","0","0"],
    [17311,"2012-04-27T02:00:00","ND","ND","22.81","ND","ND","ND","0.1","203.8","23.4","76.4","0","0"],
    [17312,"2012-04-27T03:00:00","ND","ND","19.80","ND","ND","ND","0.6","353.4","22.9","79.2","0","0"],
    [17313,"2012-04-27T04:00:00","ND","ND","22.52","ND","ND","ND","0.9","7.8","22.1","86.3","0","0"],
    [17314,"2012-04-27T05:00:00","ND","ND","20.53","ND","ND","ND","0.2","344.8","22.1","86.3","0","0"],
    [17315,"2012-04-27T06:00:00","ND","ND","18.28","ND","ND","ND","0.1","284.8","22.4","84.4","0","0"],
    [17316,"2012-04-27T07:00:00","ND","ND","18.88","ND","ND","ND","0.1","257.8","22.8","81.4","17.2","0"],
    [17317,"2012-04-27T08:00:00","ND","ND","18.12","ND","ND","ND","0.6","122","23.5","79.5","90.9","0"],
    [17318,"2012-04-27T09:00:00","ND","ND","17.93","ND","ND","ND","0.9","132.8","24","79.6","204.1","0"],
    [17319,"2012-04-27T10:00:00","ND","ND","26.94","ND","ND","ND","1.3","142.3","26","68.8","526.3","0"],
    [17320,"2012-04-27T11:00:00","ND","ND","38.87","ND","ND","ND","0.9","162.1","27.3","62.1","507.1","0"],
    [17321,"2012-04-27T12:00:00","ND","ND","47.87","ND","ND","ND","0.6","122.4","28.9","55.9","631.4","0"],
    [17322,"2012-04-27T13:00:00","ND","ND","29.48","ND","ND","ND","1","114","29.5","53.9","438.9","0"],
    [17323,"2012-04-27T14:00:00","ND","ND","16.94","ND","ND","ND","0.7","207.3","29.6","53","210.1","0"],
    [17324,"2012-04-27T15:00:00","ND","ND","16.64","ND","ND","ND","2.6","273.6","29.2","54.2","363.4","0"],
    [17325,"2012-04-27T16:00:00","ND","ND","16.71","ND","ND","ND","2.5","285.5","29.3","52.2","271.5","0"],
    [17326,"2012-04-27T17:00:00","ND","ND","19.01","ND","ND","ND","3.3","281.1","28.5","51.7","177","0"],
    [17327,"2012-04-27T18:00:00","ND","ND","18.10","ND","ND","ND","2.7","286","27.8","51.5","41.8","0"],
    [17328,"2012-04-27T19:00:00","ND","ND","12.26","ND","ND","ND","0.2","69.6","27.4","52.9","0.6","0"],
    [17329,"2012-04-27T20:00:00","ND","ND","11.05","ND","ND","ND","0.8","118.4","26.8","57.4","0","0"],
    [17330,"2012-04-27T21:00:00","ND","ND","21.89","ND","ND","ND","1.4","201.6","23.8","78.6","0","1.78"],
    [17331,"2012-04-27T22:00:00","ND","ND","28.98","ND","ND","ND","2.1","215.8","22.8","84.6","0","0.51"],
    [17332,"2012-04-27T23:00:00","ND","ND","24.86","ND","ND","ND","0.4","280.7","22.8","81.1","0","0"],
    [17333,"2012-04-28T00:00:00","ND","ND","25.43","ND","ND","ND","0.5","331.6","22.7","84.9","0","0"],
    [17334,"2012-04-28T01:00:00","ND","ND","16.91","ND","ND","ND","0.2","305.5","22.4","87.1","0","0"],
    [17335,"2012-04-28T02:00:00","ND","ND","28.12","ND","ND","ND","0.2","353.4","22.2","89.6","0","0"],
    [17336,"2012-04-28T03:00:00","ND","ND","27.52","ND","ND","ND","0.3","351.8","22.1","90.3","0","0"],
    [17337,"2012-04-28T04:00:00","ND","ND","24.49","ND","ND","ND","0.3","61.2","21.8","90.2","0","0"],
    [17338,"2012-04-28T05:00:00","ND","ND","21.22","ND","ND","ND","0.3","338.9","21.8","90.1","0","0"],
    [17339,"2012-04-28T06:00:00","ND","ND","19.94","ND","ND","ND","0.8","105.3","21.7","91.6","0","1.02"],
    [17340,"2012-04-28T07:00:00","ND","ND","18.74","ND","ND","ND","0.2","292.9","20.8","97","2.2","24.13"],
    [17341,"2012-04-28T08:00:00","ND","ND","17.34","ND","ND","ND","0.4","15.6","20.7","98.3","8.3","8.13"],
    [17342,"2012-04-28T09:00:00","ND","ND","15.98","ND","ND","ND","0.1","132.4","21.1","97.5","127.1","1.78"],
    [17343,"2012-04-28T10:00:00","ND","ND","17.06","ND","ND","ND","0.4","168.1","22.4","89.2","186.6","0.25"],
    [17344,"2012-04-28T11:00:00","ND","ND","19.16","ND","ND","ND","0.5","159.1","24.2","78.6","491.9","0"],
    [17345,"2012-04-28T12:00:00","ND","ND","24.91","ND","ND","ND","0.5","115.9","26","71.3","566.5","0"],
    [17346,"2012-04-28T13:00:00","ND","ND","26.19","ND","ND","ND","1.4","81.5","26.1","70.1","282.8","0"],
    [17347,"2012-04-28T14:00:00","ND","ND","29.98","ND","ND","ND","1.5","258.6","24.6","71.9","68.8","0"],
    [17348,"2012-04-28T15:00:00","ND","ND","23.27","ND","ND","ND","2.5","250.6","21.7","84.3","66.4","5.08"],
    [17349,"2012-04-28T16:00:00","ND","ND","15.70","ND","ND","ND","0.9","173.7","24.1","76.7","222.2","0"],
    [17350,"2012-04-28T17:00:00","ND","ND","13.35","ND","ND","ND","1","177.3","24.8","66.8","129.4","0"],
    [17351,"2012-04-28T18:00:00","ND","ND","29.31","ND","ND","ND","1.7","252.6","24","66.4","11.9","0"],
    [17352,"2012-04-28T19:00:00","ND","ND","24.20","ND","ND","ND","0.2","181.6","22.4","84.5","0.2","0"],
    [17353,"2012-04-28T20:00:00","ND","ND","19.75","ND","ND","ND","0.9","197.9","22.2","87.3","0","0"],
    [17354,"2012-04-28T21:00:00","ND","ND","25.39","ND","ND","ND","1.5","181.7","21.9","88.4","0","0"],
    [17355,"2012-04-28T22:00:00","ND","ND","26.90","ND","ND","ND","0.5","222.6","21.4","90.1","0","0"],
    [17356,"2012-04-28T23:00:00","ND","ND","27.71","ND","ND","ND","0.5","337.1","21.1","90.6","0","0"],
    [17357,"2012-04-29T00:00:00","ND","ND","23.20","ND","ND","ND","0.6","38.9","20.9","88.5","0","0"],
    [17358,"2012-04-29T01:00:00","ND","ND","19.75","ND","ND","ND","0.3","7.5","20.5","93.9","0","0"],
    [17359,"2012-04-29T02:00:00","ND","ND","17.31","ND","ND","ND","0.5","352.3","20.3","94.5","0","0"],
    [17360,"2012-04-29T03:00:00","ND","ND","15.87","ND","ND","ND","0.2","359","20.3","94.9","0","0"],
    [17361,"2012-04-29T04:00:00","ND","ND","15.98","ND","ND","ND","0.1","200.7","20.4","94.8","0","0"],
    [17362,"2012-04-29T05:00:00","ND","ND","14.39","ND","ND","ND","0.1","49","20.4","95.2","0","0.25"],
    [17363,"2012-04-29T06:00:00","ND","ND","15.21","ND","ND","ND","0.6","22.7","20","96.2","0","0"],
    [17364,"2012-04-29T07:00:00","ND","ND","16.30","ND","ND","ND","0","90.9","20.2","95.6","18.8","0"],
    [17365,"2012-04-29T08:00:00","ND","ND","14.71","ND","ND","ND","0.5","84.7","20.9","92.3","104.1","0"],
    [17366,"2012-04-29T09:00:00","ND","ND","16.74","ND","ND","ND","1.1","53.8","21.6","89.8","150.6","0"],
    [17367,"2012-04-29T10:00:00","ND","ND","22.21","ND","ND","ND","0.8","53.8","22.2","87.2","144.3","0"],
    [17368,"2012-04-29T11:00:00","ND","ND","25.60","ND","ND","ND","0.4","150.1","23.8","77.9","387.6","0"],
    [17369,"2012-04-29T12:00:00","ND","ND","22.30","ND","ND","ND","0.5","177.1","25.6","68.7","613.7","0"],
    [17370,"2012-04-29T13:00:00","ND","ND","23.35","ND","ND","ND","1.2","69.4","26.9","63.7","521.1","0"],
    [17371,"2012-04-29T14:00:00","ND","ND","23.84","ND","ND","ND","1.3","334.6","26.8","63.7","356.5","0"],
    [17372,"2012-04-29T15:00:00","ND","ND","17.00","ND","ND","ND","1.1","28.5","27.8","58.5","517.3","0"],
    [17373,"2012-04-29T16:00:00","ND","ND","17.98","ND","ND","ND","0.9","28.5","27.4","59.4","273.6","0"],
    [17374,"2012-04-29T17:00:00","ND","ND","24.40","ND","ND","ND","1","296.5","28.2","57.6","256.3","0"],
    [17375,"2012-04-29T18:00:00","ND","ND","19.65","ND","ND","ND","1.5","357.3","27","63.4","38","0"],
    [17376,"2012-04-29T19:00:00","ND","ND","20.80","ND","ND","ND","0.7","288.5","25.5","70.8","0.8","0"],
    [17377,"2012-04-29T20:00:00","ND","ND","25.36","ND","ND","ND","0.1","283.7","24.7","74.1","0","0"],
    [17378,"2012-04-29T21:00:00","ND","ND","38.21","ND","ND","ND","0.7","254.8","24.2","76","0","0"],
    [17379,"2012-04-29T22:00:00","ND","ND","43.03","ND","ND","ND","0.5","256.8","24.3","72.6","0","0"],
    [17380,"2012-04-29T23:00:00","ND","ND","37.51","ND","ND","ND","0.5","113.9","23.6","80.2","0","0"],
    [17381,"2012-04-30T00:00:00","ND","ND","24.95","ND","ND","ND","0.8","222.2","22.8","83.2","0","0"],
    [17382,"2012-04-30T01:00:00","ND","ND","23.59","ND","ND","ND","0.5","210.5","22.4","83.2","0","0"],
    [17383,"2012-04-30T02:00:00","ND","ND","20.76","ND","ND","ND","0.5","333.2","22.3","83.3","0","0"],
    [17384,"2012-04-30T03:00:00","ND","ND","18.29","ND","ND","ND","0.2","267.9","22.1","84.6","0","0"],
    [17385,"2012-04-30T04:00:00","ND","ND","17.42","ND","ND","ND","0.1","247.3","22","85.9","0","0"],
    [17386,"2012-04-30T05:00:00","ND","ND","17.32","ND","ND","ND","0.2","8.2","21.7","87.6","0","0"],
    [17387,"2012-04-30T06:00:00","ND","ND","16.87","ND","ND","ND","0.3","316.3","21.5","89.3","0.2","0"],
    [17388,"2012-04-30T07:00:00","ND","ND","15.82","ND","ND","ND","0.2","289.5","21.4","89.4","30.1","0"],
    [17389,"2012-04-30T08:00:00","ND","ND","16.97","ND","ND","ND","0.2","261","22.4","85.2","76.7","0"],
    [17390,"2012-04-30T09:00:00","ND","ND","20.20","ND","ND","ND","0.8","58.4","24.8","75.3","392.2","0"],
    [17391,"2012-04-30T10:00:00","ND","ND","28.38","ND","ND","ND","1.6","33.8","25.8","70.8","429.3","0"],
    [17392,"2012-04-30T11:00:00","ND","ND","50.82","ND","ND","ND","0.6","72.9","26.8","66","445.2","0"],
    [17393,"2012-04-30T12:00:00","ND","ND","40.04","ND","ND","ND","0.2","311.9","27.8","60.3","409.5","0"],
    [17394,"2012-04-30T13:00:00","ND","ND","19.32","ND","ND","ND","0.8","337.7","28.8","57.7","475.5","0"],
    [17395,"2012-04-30T14:00:00","ND","ND","17.49","ND","ND","ND","1.3","239.5","29.5","51.6","552.8","0"],
    [17396,"2012-04-30T15:00:00","ND","ND","22.90","ND","ND","ND","3.1","252","30.7","46.8","656.2","0"],
    [17397,"2012-04-30T16:00:00","ND","ND","13.90","ND","ND","ND","4.5","277.2","29.5","48.6","426.7","0"],
    [17398,"2012-04-30T17:00:00","ND","ND","15.66","ND","ND","ND","4.7","278.2","28.8","49.8","225.1","0"],
    [17399,"2012-04-30T18:00:00","ND","ND","14.57","ND","ND","ND","3.1","272","27.7","54.7","34.9","0"],
    [17400,"2012-04-30T19:00:00","ND","ND","14.12","ND","ND","ND","2.7","139.6","25.1","65.3","0.3","0"],
    [17401,"2012-04-30T20:00:00","ND","ND","17.65","ND","ND","ND","1.2","119.9","21.4","95","0.2","15.75"],
    [17402,"2012-04-30T21:00:00","ND","ND","42.31","ND","ND","ND","0.8","51","20.5","94.6","0","10.16"],
    [17403,"2012-04-30T22:00:00","ND","ND","32.02","ND","ND","ND","1.1","23.5","20.3","96.8","0","8.89"],
    [17404,"2012-04-30T23:00:00","ND","ND","31.37","ND","ND","ND","0.8","354.8","20.1","97","0","3.81"],
    [17405,"2012-05-01T00:00:00","ND","ND","29.05","ND","ND","ND","0.2","65.7","20.3","95.8","0","0.76"],
    [17406,"2012-05-01T01:00:00","ND","ND","39.89","ND","ND","ND","0.1","130.4","20.5","95.5","0","1.52"],
    [17407,"2012-05-01T02:00:00","ND","ND","39.03","ND","ND","ND","0.6","69.6","20.2","94.2","0","0.51"],
    [17408,"2012-05-01T03:00:00","ND","ND","39.19","ND","ND","ND","0.3","311.2","20","93.5","0","1.27"],
    [17409,"2012-05-01T04:00:00","ND","ND","25.54","ND","ND","ND","0.2","166.5","20","94","0","0.51"],
    [17410,"2012-05-01T05:00:00","ND","ND","14.59","ND","ND","ND","0.1","234.8","20.2","94.3","0","0"],
    [17411,"2012-05-01T06:00:00","ND","ND","18.36","ND","ND","ND","0.2","92.3","20.5","95.3","0","0"],
    [17412,"2012-05-01T07:00:00","ND","ND","25.95","ND","ND","ND","0.7","28.2","20.3","95.8","5.1","0.25"],
    [17413,"2012-05-01T08:00:00","ND","ND","26.73","ND","ND","ND","0.9","31.5","20.4","95.1","57.1","0"],
    [17414,"2012-05-01T09:00:00","ND","ND","24.96","ND","ND","ND","1.9","49.3","20.9","92.4","114","0"],
    [17415,"2012-05-01T10:00:00","ND","ND","19.17","ND","ND","ND","1.2","45.1","22.7","83.6","337.1","0"],
    [17416,"2012-05-01T11:00:00","ND","ND","20.46","ND","ND","ND","0.7","31.1","23.8","77.2","245.5","0"],
    [17417,"2012-05-01T12:00:00","ND","ND","13.15","ND","ND","ND","1.2","38.6","25.2","70.6","395.1","0"],
    [17418,"2012-05-01T13:00:00","ND","ND","12.31","ND","ND","ND","1.4","24","26.3","66.6","522.5","0"],
    [17419,"2012-05-01T14:00:00","ND","ND","8.34","ND","ND","ND","1.9","35.3","27","63.3","527.8","0"],
    [17420,"2012-05-01T15:00:00","ND","ND","11.34","ND","ND","ND","1.6","345.7","26.9","61.3","238.9","0"],
    [17421,"2012-05-01T16:00:00","ND","ND","14.22","ND","ND","ND","1.1","12.6","26.9","58.7","186.1","0"],
    [17422,"2012-05-01T17:00:00","ND","ND","13.31","ND","ND","ND","3.2","176.6","21.8","82.5","5.6","8.89"],
    [17423,"2012-05-01T18:00:00","ND","ND","9.61","ND","ND","ND","1.3","17.4","20","93.5","0.7","6.6"],
    [17424,"2012-05-01T19:00:00","ND","ND","15.89","ND","ND","ND","1.1","48.9","19.9","95.9","0","0.25"],
    [17425,"2012-05-01T20:00:00","ND","ND","31.90","ND","ND","ND","0.7","40","19.6","95.5","0","0"],
    [17426,"2012-05-01T21:00:00","ND","ND","31.79","ND","ND","ND","0.5","347.2","19.7","95.4","0","0.25"],
    [17427,"2012-05-01T22:00:00","ND","ND","25.55","ND","ND","ND","0.4","203.4","20.1","95.6","0","0.25"],
    [17428,"2012-05-01T23:00:00","ND","ND","28.44","ND","ND","ND","0.1","200.8","20.4","95.9","0","0"],
    [17429,"2012-05-02T00:00:00","ND","ND","26.29","ND","ND","ND","0.4","237.5","19.9","96","0","0"],
    [17430,"2012-05-02T01:00:00","ND","ND","23.84","ND","ND","ND","0.2","329.3","19.7","95.2","0","0"],
    [17431,"2012-05-02T02:00:00","ND","ND","15.19","ND","ND","ND","0.1","58.8","19.6","96","0","0"],
    [17432,"2012-05-02T03:00:00","ND","ND","13.83","ND","ND","ND","0.5","322","19.4","95.9","0","0.25"],
    [17433,"2012-05-02T04:00:00","ND","ND","14.14","ND","ND","ND","0.1","43.5","19.7","95.1","0","0"],
    [17434,"2012-05-02T05:00:00","ND","ND","12.62","ND","ND","ND","0.5","28.7","19.4","96.6","0","0"],
    [17435,"2012-05-02T06:00:00","ND","ND","12.70","ND","ND","ND","0.1","12","19.3","97.9","0.3","0"],
    [17436,"2012-05-02T07:00:00","ND","ND","13.84","ND","ND","ND","0.1","102.2","19.5","97.8","14.3","0"],
    [17437,"2012-05-02T08:00:00","ND","ND","13.92","ND","ND","ND","0.2","224.3","20.1","94.7","67.1","0"],
    [17438,"2012-05-02T09:00:00","ND","ND","17.04","ND","ND","ND","0.4","105.9","22.3","83.3","395","0"],
    [17439,"2012-05-02T10:00:00","ND","ND","24.75","ND","ND","ND","0.7","113","23.5","75.5","329.7","0"],
    [17440,"2012-05-02T11:00:00","ND","ND","41.06","ND","ND","ND","0.4","131","24.8","71.8","631.5","0"],
    [17441,"2012-05-02T12:00:00","ND","ND","39.19","ND","ND","ND","0.6","106.9","26.4","63.7","752.6","0"],
    [17442,"2012-05-02T13:00:00","ND","ND","26.38","ND","ND","ND","1.1","92.1","27.7","56.6","652.2","0"],
    [17443,"2012-05-02T14:00:00","ND","ND","18.74","ND","ND","ND","1.6","47.2","28.1","56.4","612.2","0"],
    [17444,"2012-05-02T15:00:00","ND","ND","19.09","ND","ND","ND","1.4","50.9","28.2","57.5","398.4","0"],
    [17445,"2012-05-02T16:00:00","ND","ND","14.51","ND","ND","ND","1.4","18.7","27.7","59.4","190.2","0"],
    [17446,"2012-05-02T17:00:00","ND","ND","14.22","ND","ND","ND","1.7","50.4","27.5","61.3","63.6","0"],
    [17447,"2012-05-02T18:00:00","ND","ND","26.53","ND","ND","ND","0.5","334.8","27.1","61.7","16.4","0"],
    [17448,"2012-05-02T19:00:00","ND","ND","24.81","ND","ND","ND","0","106.4","26.4","67.1","0.7","0"],
    [17449,"2012-05-02T20:00:00","ND","ND","28.76","ND","ND","ND","0.1","43.6","26","65.5","0","0"],
    [17450,"2012-05-02T21:00:00","ND","ND","36.08","ND","ND","ND","0.5","237.5","25.1","70.8","0","0"],
    [17451,"2012-05-02T22:00:00","ND","ND","33.61","ND","ND","ND","0.1","210.5","24.8","71.1","0","0"],
    [17452,"2012-05-02T23:00:00","ND","ND","28.76","ND","ND","ND","1.5","171.9","24.3","75.8","0","0"],
    [17453,"2012-05-03T00:00:00","ND","ND","26.36","ND","ND","ND","0.6","214.1","23.5","78.2","0","0"],
    [17454,"2012-05-03T01:00:00","ND","ND","19.11","ND","ND","ND","0.6","312","22.6","81.7","0","0"],
    [17455,"2012-05-03T02:00:00","ND","ND","15.15","ND","ND","ND","0.2","72.7","22.6","80.4","0","0"],
    [17456,"2012-05-03T03:00:00","ND","ND","13.36","ND","ND","ND","0.7","21.3","21.6","86.4","0","0"],
    [17457,"2012-05-03T04:00:00","ND","ND","14.06","ND","ND","ND","0.4","347.9","21.5","88.6","0","0"],
    [17458,"2012-05-03T05:00:00","ND","ND","13.87","ND","ND","ND","0.2","27.1","21.6","87.5","0","0"],
    [17459,"2012-05-03T06:00:00","ND","ND","13.33","ND","ND","ND","0.7","142.2","21.5","88.8","0.3","0"],
    [17460,"2012-05-03T07:00:00","ND","ND","14.48","ND","ND","ND","0.8","123.4","21.4","88.3","37.1","0"],
    [17461,"2012-05-03T08:00:00","ND","ND","15.43","ND","ND","ND","0.2","85.3","22.5","84.1","229.5","0"],
    [17462,"2012-05-03T09:00:00","ND","ND","18.55","ND","ND","ND","1.9","138.2","24.5","74.6","381.7","0"],
    [17463,"2012-05-03T10:00:00","ND","ND","26.83","ND","ND","ND","1.1","133.2","25.9","67","608.5","0"],
    [17464,"2012-05-03T11:00:00","ND","ND","33.53","ND","ND","ND","0.5","147.9","27.2","60.8","673.8","0"],
    [17465,"2012-05-03T12:00:00","ND","ND","21.40","ND","ND","ND","0.9","106.9","27.8","59.4","457.5","0"],
    [17466,"2012-05-03T13:00:00","ND","ND","16.48","ND","ND","ND","0.7","99.6","28.9","55.4","684.3","0"],
    [17467,"2012-05-03T14:00:00","ND","ND","15.88","ND","ND","ND","0.2","40.8","30.1","51.9","813.4","0"],
    [17468,"2012-05-03T15:00:00","ND","ND","15.59","ND","ND","ND","1.4","87.3","30.4","52.2","540.8","0"],
    [17469,"2012-05-03T16:00:00","ND","ND","14.65","ND","ND","ND","0.9","23.1","29","57","90.6","0"],
    [17470,"2012-05-03T17:00:00","ND","ND","15.46","ND","ND","ND","0.9","307","28.6","58","95.9","0"],
    [17471,"2012-05-03T18:00:00","ND","ND","20.95","ND","ND","ND","0.4","301.7","28.1","57.7","42.7","0"],
    [17472,"2012-05-03T19:00:00","ND","ND","23.24","ND","ND","ND","0.1","49.3","27.6","58.5","1.6","0"],
    [17473,"2012-05-03T20:00:00","ND","ND","20.80","ND","ND","ND","0.5","265.9","27.1","60.5","0","1.52"],
    [17474,"2012-05-03T21:00:00","ND","ND","24.98","ND","ND","ND","1.6","249","24","80.4","0","3.3"],
    [17475,"2012-05-03T22:00:00","ND","ND","25.21","ND","ND","ND","1.7","282.9","22.2","90","0.1","33.27"],
    [17476,"2012-05-03T23:00:00","ND","ND","19.53","ND","ND","ND","0.4","153.5","22.8","88.5","0","0.25"],
    [17477,"2012-05-04T00:00:00","ND","ND","11.29","ND","ND","ND","0.6","223.4","22.7","89.7","0","0"],
    [17478,"2012-05-04T01:00:00","ND","ND","26.63","ND","ND","ND","1.2","174.6","22.8","89.4","0","0"],
    [17479,"2012-05-04T02:00:00","ND","ND","23.46","ND","ND","ND","0.4","296.9","22.6","89.3","0","0"],
    [17480,"2012-05-04T03:00:00","ND","ND","22.85","ND","ND","ND","0.2","263.9","22.3","92.1","0","0"],
    [17481,"2012-05-04T04:00:00","ND","ND","18.12","ND","ND","ND","0.1","326.9","22.2","91.7","0","0.25"],
    [17482,"2012-05-04T05:00:00","ND","ND","12.13","ND","ND","ND","0.2","33.1","22.1","90.3","0","0"],
    [17483,"2012-05-04T06:00:00","ND","ND","9.81","ND","ND","ND","0.6","1.5","21.9","91.8","0.2","0"],
    [17484,"2012-05-04T07:00:00","ND","ND","10.72","ND","ND","ND","0.2","311.1","21.9","91.7","37.3","0"],
    [17485,"2012-05-04T08:00:00","ND","ND","11.05","ND","ND","ND","0.2","63","23","86.7","114.5","0"],
    [17486,"2012-05-04T09:00:00","ND","ND","11.19","ND","ND","ND","0.8","46.8","24","83.4","193.6","0"],
    [17487,"2012-05-04T10:00:00","ND","ND","18.87","ND","ND","ND","1.2","51.7","24.8","77.5","358.2","0"],
    [17488,"2012-05-04T11:00:00","ND","ND","38.28","ND","ND","ND","ND","ND","ND","ND","ND","ND"],
    [17489,"2012-05-04T12:00:00","ND","ND","ND","ND","ND","ND","1.5","50.8","26.2","72.4","431.9","0"],
    [17490,"2012-05-04T13:00:00","ND","ND","ND","ND","ND","ND","1.2","57.6","27.1","68","467.7","0"],
    [17491,"2012-05-04T14:00:00","ND","ND","8.04","ND","ND","ND","1.6","280","28","58.8","425.2","0"],
    [17492,"2012-05-04T15:00:00","ND","ND","10.35","ND","ND","ND","3.1","251.7","25","69.9","126.4","3.05"],
    [17493,"2012-05-04T16:00:00","ND","ND","2.64","ND","ND","ND","2.3","293.1","25.9","61.9","175.8","0.25"],
    [17494,"2012-05-04T17:00:00","ND","ND","2.64","ND","ND","ND","1.7","287.8","26.7","56","103.9","0"],
    [17495,"2012-05-04T18:00:00","ND","ND","1.00","ND","ND","ND","0.1","63.7","26.6","56.5","53.5","0"],
    [17496,"2012-05-04T19:00:00","ND","ND","5.60","ND","ND","ND","3.3","180","24.7","65.2","0.2","0"],
    [17497,"2012-05-04T20:00:00","ND","ND","18.83","ND","ND","ND","1.4","172.7","22.9","78.4","0","0"],
    [17498,"2012-05-04T21:00:00","ND","ND","19.34","ND","ND","ND","1.1","156.7","22.1","84.9","0","0"],
    [17499,"2012-05-04T22:00:00","ND","ND","18.99","ND","ND","ND","0.3","180.3","21.8","87.1","0","0"],
    [17500,"2012-05-04T23:00:00","ND","ND","18.82","ND","ND","ND","0.1","179.2","21.9","87.4","0","0"],
    [17501,"2012-05-05T00:00:00","ND","ND","21.99","ND","ND","ND","0.4","86.4","21.7","88.7","0","0"],
    [17502,"2012-05-05T01:00:00","ND","ND","21.35","ND","ND","ND","0.2","141.2","21.7","88.8","0","0"],
    [17503,"2012-05-05T02:00:00","ND","ND","20.73","ND","ND","ND","0.7","52.8","21.3","90.7","0","0"],
    [17504,"2012-05-05T03:00:00","ND","ND","20.09","ND","ND","ND","0.3","24.3","21","93","0","0"],
    [17505,"2012-05-05T04:00:00","ND","ND","17.71","ND","ND","ND","0.4","173.9","21","91.8","0","0"],
    [17506,"2012-05-05T05:00:00","ND","ND","15.65","ND","ND","ND","0.2","131.7","21.1","89.1","0","0"],
    [17507,"2012-05-05T06:00:00","ND","ND","15.76","ND","ND","ND","0.4","18.6","20.9","91","0","0"],
    [17508,"2012-05-05T07:00:00","ND","ND","12.71","ND","ND","ND","0.2","3.9","20.9","92.2","17.4","0"],
    [17509,"2012-05-05T08:00:00","ND","ND","15.27","ND","ND","ND","0.3","57","21.6","89.5","118.3","0"],
    [17510,"2012-05-05T09:00:00","ND","ND","15.19","ND","ND","ND","0.7","134.4","22.9","80.7","211.4","0"],
    [17511,"2012-05-05T10:00:00","ND","ND","18.35","ND","ND","ND","0.3","67.5","25.1","72","561","0"],
    [17512,"2012-05-05T11:00:00","ND","ND","23.61","ND","ND","ND","0.8","173.4","26.1","64.9","534.7","0"],
    [17513,"2012-05-05T12:00:00","ND","ND","21.70","ND","ND","ND","1.3","50.9","27.4","60.9","578.9","0"],
    [17514,"2012-05-05T13:00:00","ND","ND","15.44","ND","ND","ND","2","45.1","27.5","62.1","525","0"],
    [17515,"2012-05-05T14:00:00","ND","ND","13.47","ND","ND","ND","1.2","60","27.9","60.9","360","0"],
    [17516,"2012-05-05T15:00:00","ND","ND","14.40","ND","ND","ND","2.5","266.1","29.1","52","508.9","0"],
    [17517,"2012-05-05T16:00:00","ND","ND","15.10","ND","ND","ND","2.3","261.9","29.4","48.2","381.4","0"],
    [17518,"2012-05-05T17:00:00","ND","ND","8.01","ND","ND","ND","0.5","282","28.1","54.1","162","0"],
    [17519,"2012-05-05T18:00:00","ND","ND","5.99","ND","ND","ND","3","194.3","21.1","90.4","8.4","15.24"],
    [17520,"2012-05-05T19:00:00","ND","ND","7.62","ND","ND","ND","0.3","327.1","20.7","93.4","0.1","2.29"],
    [17521,"2012-05-05T20:00:00","ND","ND","23.54","ND","ND","ND","0.4","40.7","21.5","90.9","0","0"],
    [17522,"2012-05-05T21:00:00","ND","ND","27.45","ND","ND","ND","0.4","16","21.6","90.1","0","0"],
    [17523,"2012-05-05T22:00:00","ND","ND","30.33","ND","ND","ND","0.5","52.1","21.2","94.3","0","1.02"],
    [17524,"2012-05-05T23:00:00","ND","ND","27.31","ND","ND","ND","0.2","233.5","21.2","95.8","0","0.25"],
    [17525,"2012-05-06T00:00:00","ND","ND","27.22","ND","ND","ND","0","198.6","21.4","95.2","0","0"],
    [17526,"2012-05-06T01:00:00","ND","ND","23.33","ND","ND","ND","0.1","5.1","21.4","94.1","0","0"],
    [17527,"2012-05-06T02:00:00","ND","ND","27.39","ND","ND","ND","0","181.5","21.2","94.3","0","0"],
    [17528,"2012-05-06T03:00:00","ND","ND","23.78","ND","ND","ND","0.1","347.9","21.2","94.8","0","0"],
    [17529,"2012-05-06T04:00:00","ND","ND","19.49","ND","ND","ND","0.3","10.7","21","94.4","0","0"],
    [17530,"2012-05-06T05:00:00","ND","ND","18.27","ND","ND","ND","0.3","331.2","20.6","95.6","0","0"],
    [17531,"2012-05-06T06:00:00","ND","ND","15.14","ND","ND","ND","0.6","358.6","20.4","96.6","0.1","0"],
    [17532,"2012-05-06T07:00:00","ND","ND","13.15","ND","ND","ND","0.2","194.8","20.6","96.3","17.1","0.25"],
    [17533,"2012-05-06T08:00:00","ND","ND","14.18","ND","ND","ND","0.6","358.5","21.1","94.7","63.7","0"],
    [17534,"2012-05-06T09:00:00","ND","ND","14.83","ND","ND","ND","0.4","71.4","22.5","86.6","282.9","0"],
    [17535,"2012-05-06T10:00:00","ND","ND","17.18","ND","ND","ND","0.7","49.6","24.2","77.4","407.6","0"],
    [17536,"2012-05-06T11:00:00","ND","ND","19.52","ND","ND","ND","0.3","12.8","25.3","71.2","343.1","0"],
    [17537,"2012-05-06T12:00:00","ND","ND","22.51","ND","ND","ND","0.5","94.8","26.9","64.4","769.1","0"],
    [17538,"2012-05-06T13:00:00","ND","ND","14.20","ND","ND","ND","1.3","66.3","27.9","60.9","661.2","0"],
    [17539,"2012-05-06T14:00:00","ND","ND","12.70","ND","ND","ND","0.6","21.4","28.2","59.4","508.7","0"],
    [17540,"2012-05-06T15:00:00","ND","ND","10.77","ND","ND","ND","0.7","28.5","29.2","57.2","473.5","0"],
    [17541,"2012-05-06T16:00:00","ND","ND","10.41","ND","ND","ND","1.2","246.6","29.2","53.8","290.5","0"],
    [17542,"2012-05-06T17:00:00","ND","ND","15.85","ND","ND","ND","2.9","265.8","28.3","53.3","143.5","0"],
    [17543,"2012-05-06T18:00:00","ND","ND","8.65","ND","ND","ND","2.8","243.8","27","58.5","49.8","0"],
    [17544,"2012-05-06T19:00:00","ND","ND","5.54","ND","ND","ND","1.3","193.6","25.8","65.2","1.8","1.78"],
    [17545,"2012-05-06T20:00:00","ND","ND","7.57","ND","ND","ND","1.3","179.9","22.4","89","0","8.64"],
    [17546,"2012-05-06T21:00:00","ND","ND","15.18","ND","ND","ND","1.1","138.8","22.7","89.9","0","0"],
    [17547,"2012-05-06T22:00:00","ND","ND","20.02","ND","ND","ND","1.5","205.8","22","91","0","0.51"],
    [17548,"2012-05-06T23:00:00","ND","ND","34.06","ND","ND","ND","0.3","322.9","22.1","90.2","0","0"],
    [17549,"2012-05-07T00:00:00","ND","ND","29.39","ND","ND","ND","0.3","308.2","22.1","92","0","0"],
    [17550,"2012-05-07T01:00:00","ND","ND","19.53","ND","ND","ND","0.2","38.5","22","92.4","0","0.51"],
    [17551,"2012-05-07T02:00:00","ND","ND","25.62","ND","ND","ND","0.1","265.6","21.7","94.4","0","0"],
    [17552,"2012-05-07T03:00:00","ND","ND","25.78","ND","ND","ND","0.4","120.8","21.6","94.7","0","0"],
    [17553,"2012-05-07T04:00:00","ND","ND","20.07","ND","ND","ND","0.6","119","21.6","92.5","0","0.25"],
    [17554,"2012-05-07T05:00:00","ND","ND","10.45","ND","ND","ND","0.7","74.4","21.4","92.7","0","0"],
    [17555,"2012-05-07T06:00:00","ND","ND","8.17","ND","ND","ND","0.6","58.1","20.9","95","0","7.87"],
    [17556,"2012-05-07T07:00:00","ND","ND","8.93","ND","ND","ND","0.9","51","20.3","97.6","7.2","14.48"],
    [17557,"2012-05-07T08:00:00","ND","ND","10.96","ND","ND","ND","0.7","53","20.6","97.4","34.4","0.51"],
    [17558,"2012-05-07T09:00:00","ND","ND","11.69","ND","ND","ND","0.8","53.9","21","95.7","83.8","0"],
    [17559,"2012-05-07T10:00:00","ND","ND","10.68","ND","ND","ND","0.8","54.6","22.1","90.9","262.7","0.25"],
    [17560,"2012-05-07T11:00:00","ND","ND","14.51","ND","ND","ND","0.9","93.6","23.7","80.4","376.7","0"],
    [17561,"2012-05-07T12:00:00","ND","ND","13.90","ND","ND","ND","0.1","217.9","24.5","76.2","336.6","0"],
    [17562,"2012-05-07T13:00:00","ND","ND","13.24","ND","ND","ND","1.3","182.5","25.9","69.3","585.6","0"],
    [17563,"2012-05-07T14:00:00","ND","ND","19.04","ND","ND","ND","0.6","71.6","26.8","63.7","420","0"],
    [17564,"2012-05-07T15:00:00","ND","ND","24.31","ND","ND","ND","1","304.5","27","63.3","325","0"],
    [17565,"2012-05-07T16:00:00","ND","ND","15.23","ND","ND","ND","0.4","359.8","27.1","63.6","220.1","0"],
    [17566,"2012-05-07T17:00:00","ND","ND","17.17","ND","ND","ND","1.6","60","26.1","70","131.3","0"],
    [17567,"2012-05-07T18:00:00","ND","ND","14.10","ND","ND","ND","0.9","360","22","94","3.7","34.04"],
    [17568,"2012-05-07T19:00:00","ND","ND","25.02","ND","ND","ND","0.1","318.8","21.5","97.2","0","5.08"],
    [17569,"2012-05-07T20:00:00","ND","ND","16.86","ND","ND","ND","0.3","267.6","21.8","95.8","0","1.27"],
    [17570,"2012-05-07T21:00:00","ND","ND","27.35","ND","ND","ND","0.2","214.4","22.2","93.9","0","0"],
    [17571,"2012-05-07T22:00:00","ND","ND","27.56","ND","ND","ND","0.3","354.8","21.9","92.2","0","0"],
    [17572,"2012-05-07T23:00:00","ND","ND","27.16","ND","ND","ND","0.3","257.7","21.8","93.6","0","0.25"],
    [17573,"2012-05-08T00:00:00","ND","ND","17.81","ND","ND","ND","0.3","174.1","21.5","93.2","0","0"],
    [17574,"2012-05-08T01:00:00","ND","ND","17.14","ND","ND","ND","0.2","214.9","21.4","92.1","0","0"],
    [17575,"2012-05-08T02:00:00","ND","ND","15.83","ND","ND","ND","0.1","290.5","21.3","92.2","0","0"],
    [17576,"2012-05-08T03:00:00","ND","ND","14.68","ND","ND","ND","0.1","244","21.2","93.3","0","0"],
    [17577,"2012-05-08T04:00:00","ND","ND","13.41","ND","ND","ND","0","316","21.2","94","0","0"],
    [17578,"2012-05-08T05:00:00","ND","ND","11.23","ND","ND","ND","0","41.7","21.3","93","0","0"],
    [17579,"2012-05-08T06:00:00","ND","ND","11.51","ND","ND","ND","0.3","351.9","21.1","94.8","0.4","0"],
    [17580,"2012-05-08T07:00:00","ND","ND","11.77","ND","ND","ND","0.1","40","21.3","95","35.7","0"],
    [17581,"2012-05-08T08:00:00","ND","ND","12.93","ND","ND","ND","0.1","188.4","22","91","65.4","0"],
    [17582,"2012-05-08T09:00:00","ND","ND","14.19","ND","ND","ND","0.3","16.3","22.4","87.7","122.8","0"],
    [17583,"2012-05-08T10:00:00","ND","ND","20.67","ND","ND","ND","0.3","119.2","24.1","78.1","397.8","0"],
    [17584,"2012-05-08T11:00:00","ND","ND","25.74","ND","ND","ND","0.3","124.8","25.8","67.3","402.2","0"],
    [17585,"2012-05-08T12:00:00","ND","ND","26.87","ND","ND","ND","0.3","30.2","27.1","61.8","706.3","0"],
    [17586,"2012-05-08T13:00:00","ND","ND","11.76","ND","ND","ND","1.1","54.2","28.1","59.5","767.3","0"],
    [17587,"2012-05-08T14:00:00","ND","ND","10.70","ND","ND","ND","1.3","78.5","29","56.1","738.5","0"],
    [17588,"2012-05-08T15:00:00","ND","ND","11.09","ND","ND","ND","1.2","48.3","30","53.2","659.6","0"],
    [17589,"2012-05-08T16:00:00","ND","ND","5.67","ND","ND","ND","1.2","10.9","29.6","54.6","261","0.25"],
    [17590,"2012-05-08T17:00:00","ND","ND","3.60","ND","ND","ND","1.9","283.6","28.8","56.8","149.8","0"],
    [17591,"2012-05-08T18:00:00","ND","ND","6.49","ND","ND","ND","0.5","262.1","27.9","58.1","20.1","0"],
    [17592,"2012-05-08T19:00:00","ND","ND","7.89","ND","ND","ND","0.3","83.5","27.4","60.5","0.4","0"],
    [17593,"2012-05-08T20:00:00","ND","ND","22.94","ND","ND","ND","0.5","106.4","26.9","63","0","0"],
    [17594,"2012-05-08T21:00:00","ND","ND","38.42","ND","ND","ND","0.7","146","26","68","0","0"],
    [17595,"2012-05-08T22:00:00","ND","ND","37.93","ND","ND","ND","0.4","82.3","24.7","75.8","0","0"],
    [17596,"2012-05-08T23:00:00","ND","ND","26.53","ND","ND","ND","0.7","166.4","24.3","77.1","0","0"],
    [17597,"2012-05-09T00:00:00","ND","ND","19.82","ND","ND","ND","0.1","110.8","24.1","77.2","0","0"],
    [17598,"2012-05-09T01:00:00","ND","ND","18.18","ND","ND","ND","0.3","43","23.3","80.1","0","0"],
    [17599,"2012-05-09T02:00:00","ND","ND","16.87","ND","ND","ND","0.6","182.9","23.3","81.2","0","0"],
    [17600,"2012-05-09T03:00:00","ND","ND","13.15","ND","ND","ND","1.5","147","23.4","81.4","0","0"],
    [17601,"2012-05-09T04:00:00","ND","ND","15.44","ND","ND","ND","0.7","181","22.4","88","0","0"],
    [17602,"2012-05-09T05:00:00","ND","ND","11.69","ND","ND","ND","0.6","56.5","22","90.3","0","0.76"],
    [17603,"2012-05-09T06:00:00","ND","ND","5.37","ND","ND","ND","0.1","126.4","21.6","93.4","0.3","1.27"],
    [17604,"2012-05-09T07:00:00","ND","ND","6.72","ND","ND","ND","0","334.4","21.7","94.1","9.4","0.25"],
    [17605,"2012-05-09T08:00:00","ND","ND","13.32","ND","ND","ND","0.2","172.2","22.4","91.9","44.9","0"],
    [17606,"2012-05-09T09:00:00","ND","ND","14.88","ND","ND","ND","0.5","174","23.7","81.5","232.9","0"],
    [17607,"2012-05-09T10:00:00","ND","ND","6.79","ND","ND","ND","0.8","97.8","25.2","76.7","297","0"],
    [17608,"2012-05-09T11:00:00","ND","ND","8.54","ND","ND","ND","0.8","84.9","25.8","74.4","387.9","0"],
    [17609,"2012-05-09T12:00:00","ND","ND","0.66","ND","ND","ND","1","68","26.7","68.2","442.6","0"],
    [17610,"2012-05-09T13:00:00","ND","ND","ND","ND","ND","ND","0.6","61.4","27.9","62.8","614.4","0"],
    [17611,"2012-05-09T14:00:00","ND","ND","5.29","ND","ND","ND","0.3","124.7","28.2","60.7","154.4","0"],
    [17612,"2012-05-09T15:00:00","ND","ND","10.77","ND","ND","ND","1","267.7","28.2","59.2","357.9","0"],
    [17613,"2012-05-09T16:00:00","ND","ND","8.15","ND","ND","ND","2.2","271.9","28.9","53.7","444.9","0"],
    [17614,"2012-05-09T17:00:00","ND","ND","7.90","ND","ND","ND","1.9","268.8","28.5","51.9","249.7","0"],
    [17615,"2012-05-09T18:00:00","ND","ND","2.63","ND","ND","ND","1","248.2","27.6","53.1","48.3","0"],
    [17616,"2012-05-09T19:00:00","ND","ND","4.75","ND","ND","ND","0.5","230.2","26.1","59.1","0.8","0"],
    [17617,"2012-05-09T20:00:00","ND","ND","15.16","ND","ND","ND","0.5","123.2","25.5","61.9","0","0"],
    [17618,"2012-05-09T21:00:00","ND","ND","22.54","ND","ND","ND","0.3","289.4","23.9","71.6","0","0"],
    [17619,"2012-05-09T22:00:00","ND","ND","25.52","ND","ND","ND","0.6","330.1","23.1","73.3","0","0"],
    [17620,"2012-05-09T23:00:00","ND","ND","23.09","ND","ND","ND","0.4","323.3","22.3","76.3","0","0"],
    [17621,"2012-05-10T00:00:00","ND","ND","20.04","ND","ND","ND","0.2","315.4","21.7","79.9","0","0"],
    [17622,"2012-05-10T01:00:00","ND","ND","19.89","ND","ND","ND","0.2","10.4","21.3","80.5","0","0"],
    [17623,"2012-05-10T02:00:00","ND","ND","18.45","ND","ND","ND","0.2","314.3","20.8","82.4","0","0"],
    [17624,"2012-05-10T03:00:00","ND","ND","19.11","ND","ND","ND","0.1","260.9","20.2","84.5","0","0"],
    [17625,"2012-05-10T04:00:00","ND","ND","15.96","ND","ND","ND","0.1","5.9","19.9","86.3","0","0"],
    [17626,"2012-05-10T05:00:00","ND","ND","12.33","ND","ND","ND","0.3","13.3","19.7","87.6","0","0"],
    [17627,"2012-05-10T06:00:00","ND","ND","11.65","ND","ND","ND","0.2","217.4","19.9","87.4","0.5","0"],
    [17628,"2012-05-10T07:00:00","ND","ND","14.11","ND","ND","ND","0.1","283.6","20.4","85.9","51.2","0"],
    [17629,"2012-05-10T08:00:00","ND","ND","13.74","ND","ND","ND","0.3","248.6","22.8","75.1","258.6","0"],
    [17630,"2012-05-10T09:00:00","ND","ND","17.09","ND","ND","ND","0.6","179.3","24.2","69.4","354.9","0"],
    [17631,"2012-05-10T10:00:00","ND","ND","28.72","ND","ND","ND","0.9","88.2","26.1","63.7","569.5","0"],
    [17632,"2012-05-10T11:00:00","ND","ND","32.16","ND","ND","ND","1.8","88.6","26.5","61.9","469.4","0"],
    [17633,"2012-05-10T12:00:00","ND","ND","34.79","ND","ND","ND","1.3","120","27","59","440.6","0"],
    [17634,"2012-05-10T13:00:00","ND","ND","12.36","ND","ND","ND","0.9","101.4","28.1","56.7","612.6","0"],
    [17635,"2012-05-10T14:00:00","ND","ND","11.59","ND","ND","ND","0.7","37.1","28.9","55.8","495","0"],
    [17636,"2012-05-10T15:00:00","ND","ND","12.27","ND","ND","ND","1.1","90.9","30","52.8","534.5","0"],
    [17637,"2012-05-10T16:00:00","ND","ND","4.00","ND","ND","ND","0.1","236.7","29.4","52.7","143.6","0"],
    [17638,"2012-05-10T17:00:00","ND","ND","2.39","ND","ND","ND","1.5","258.7","28.6","53.2","38","0"],
    [17639,"2012-05-10T18:00:00","ND","ND","ND","ND","ND","ND","0.7","253.5","28","55.4","19.4","0"],
    [17640,"2012-05-10T19:00:00","ND","ND","6.73","ND","ND","ND","0.4","257.1","27.2","56.5","0.5","0"],
    [17641,"2012-05-10T20:00:00","ND","ND","11.86","ND","ND","ND","0.2","143.3","26.7","60.3","0","0"],
    [17642,"2012-05-10T21:00:00","ND","ND","11.88","ND","ND","ND","0.7","126.8","26.1","65.1","0","0"],
    [17643,"2012-05-10T22:00:00","ND","ND","21.12","ND","ND","ND","0.7","129.4","25.2","68.9","0","0"],
    [17644,"2012-05-10T23:00:00","ND","ND","26.20","ND","ND","ND","0.6","186","24","74.6","0","0"],
    [17645,"2012-05-11T00:00:00","ND","ND","25.53","ND","ND","ND","0.2","134.7","23.8","75.2","0","0"],
    [17646,"2012-05-11T01:00:00","ND","ND","21.83","ND","ND","ND","0.3","118.8","23.3","78.4","0","0"],
    [17647,"2012-05-11T02:00:00","ND","ND","21.93","ND","ND","ND","0.6","358.7","22.5","83.5","0","0"],
    [17648,"2012-05-11T03:00:00","ND","ND","19.95","ND","ND","ND","0.2","13.9","22.1","85.3","0","0"],
    [17649,"2012-05-11T04:00:00","ND","ND","16.64","ND","ND","ND","0.3","266","22.2","85","0","0"],
    [17650,"2012-05-11T05:00:00","ND","ND","15.67","ND","ND","ND","0.4","68.8","22.4","83.7","0","0"],
    [17651,"2012-05-11T06:00:00","ND","ND","15.25","ND","ND","ND","0.4","272.6","22.3","85.1","0.1","0"],
    [17652,"2012-05-11T07:00:00","ND","ND","16.14","ND","ND","ND","0.1","294.9","22.5","84","9.7","0"],
    [17653,"2012-05-11T08:00:00","ND","ND","16.88","ND","ND","ND","0.4","64.1","22.6","84.7","74","0"],
    [17654,"2012-05-11T09:00:00","ND","ND","17.49","ND","ND","ND","0.7","13.6","23.2","82.9","99.7","0"],
    [17655,"2012-05-11T10:00:00","ND","ND","23.42","ND","ND","ND","0.2","58.2","24.4","77.3","290.5","0"],
    [17656,"2012-05-11T11:00:00","ND","ND","28.44","ND","ND","ND","0.3","132.3","26.4","66.1","455","0"],
    [17657,"2012-05-11T12:00:00","ND","ND","33.21","ND","ND","ND","0.6","138.3","27.4","61.2","396.5","0"],
    [17658,"2012-05-11T13:00:00","ND","ND","30.78","ND","ND","ND","0.9","48.6","27.8","61.8","374.7","0"],
    [17659,"2012-05-11T14:00:00","ND","ND","26.43","ND","ND","ND","1.1","300.8","28.7","56.4","535.4","0"],
    [17660,"2012-05-11T15:00:00","ND","ND","21.76","ND","ND","ND","1.8","244.4","29.3","51","389","0"],
    [17661,"2012-05-11T16:00:00","ND","ND","14.14","ND","ND","ND","2.7","260.5","28.3","53.9","200","0"],
    [17662,"2012-05-11T17:00:00","ND","ND","6.59","ND","ND","ND","1.4","295","27.6","55","90.7","0"],
    [17663,"2012-05-11T18:00:00","ND","ND","8.82","ND","ND","ND","1","344.9","25.1","69.5","22.1","0.25"],
    [17664,"2012-05-11T19:00:00","ND","ND","11.27","ND","ND","ND","0.6","94.6","25.2","70.4","0.4","0"],
    [17665,"2012-05-11T20:00:00","ND","ND","19.04","ND","ND","ND","0.3","165.2","24.8","70.9","0","0"],
    [17666,"2012-05-11T21:00:00","ND","ND","24.62","ND","ND","ND","1.8","168.3","24.3","75.9","0","0"],
    [17667,"2012-05-11T22:00:00","ND","ND","23.13","ND","ND","ND","1.8","200.5","23.8","79.1","0","0"],
    [17668,"2012-05-11T23:00:00","ND","ND","24.35","ND","ND","ND","0.3","219.1","23.4","80.9","0","0"],
    [17669,"2012-05-12T00:00:00","ND","ND","24.13","ND","ND","ND","0.3","17.3","23.1","81.8","0","0"],
    [17670,"2012-05-12T01:00:00","ND","ND","23.28","ND","ND","ND","0.5","5.1","22.8","83.1","0","0"],
    [17671,"2012-05-12T02:00:00","ND","ND","23.97","ND","ND","ND","0.1","5","22.2","87.3","0","0"],
    [17672,"2012-05-12T03:00:00","ND","ND","21.74","ND","ND","ND","0.1","85.1","21.9","88.9","0","0"],
    [17673,"2012-05-12T04:00:00","ND","ND","16.61","ND","ND","ND","0.2","341.6","21.8","88.7","0","0"],
    [17674,"2012-05-12T05:00:00","ND","ND","14.66","ND","ND","ND","0.5","6.9","21.6","88.7","0","0"],
    [17675,"2012-05-12T06:00:00","ND","ND","14.50","ND","ND","ND","0.4","328.8","21.2","92.8","0.4","0"],
    [17676,"2012-05-12T07:00:00","ND","ND","13.93","ND","ND","ND","0.3","52.3","21.6","90.4","28.7","0"],
    [17677,"2012-05-12T08:00:00","ND","ND","13.26","ND","ND","ND","0.6","48.9","22.1","88.1","178","0"],
    [17678,"2012-05-12T09:00:00","ND","ND","15.69","ND","ND","ND","0.7","75.1","24.1","78","257.7","0"],
    [17679,"2012-05-12T10:00:00","ND","ND","14.76","ND","ND","ND","0.3","68.1","24.7","76","352.5","0"],
    [17680,"2012-05-12T11:00:00","ND","ND","16.99","ND","ND","ND","1.2","119","26.3","68.1","615.9","0"],
    [17681,"2012-05-12T12:00:00","ND","ND","14.58","ND","ND","ND","0.5","302.2","27.4","62.6","473.6","0"],
    [17682,"2012-05-12T13:00:00","ND","ND","13.06","ND","ND","ND","0.2","12.2","28.3","58.4","520.7","0"],
    [17683,"2012-05-12T14:00:00","ND","ND","12.36","ND","ND","ND","1.5","47","29","56.8","469.9","0"],
    [17684,"2012-05-12T15:00:00","ND","ND","14.56","ND","ND","ND","2.1","41.1","28.8","57.1","396.9","0"],
    [17685,"2012-05-12T16:00:00","ND","ND","12.11","ND","ND","ND","0.8","296.1","29.4","54","339.8","0"],
    [17686,"2012-05-12T17:00:00","ND","ND","12.67","ND","ND","ND","2.6","262.5","29.3","51.4","231","0"],
    [17687,"2012-05-12T18:00:00","ND","ND","9.67","ND","ND","ND","1.7","248.7","28.4","54.2","76.9","0"],
    [17688,"2012-05-12T19:00:00","ND","ND","9.24","ND","ND","ND","1.2","251.7","26.8","59.1","0.9","0"],
    [17689,"2012-05-12T20:00:00","ND","ND","14.29","ND","ND","ND","0.1","214.4","26.2","61.8","0","0"],
    [17690,"2012-05-12T21:00:00","ND","ND","23.92","ND","ND","ND","0.2","280.2","25.1","67.7","0","0"],
    [17691,"2012-05-12T22:00:00","ND","ND","31.09","ND","ND","ND","1","142.8","24.6","70.4","0","0"],
    [17692,"2012-05-12T23:00:00","ND","ND","35.29","ND","ND","ND","0.2","346","23.9","74.4","0","0"],
    [17693,"2012-05-13T00:00:00","ND","ND","27.60","ND","ND","ND","0.3","295.7","23.7","75.4","0","0"],
    [17694,"2012-05-13T01:00:00","ND","ND","24.23","ND","ND","ND","0.5","14","23.5","76.7","0","0"],
    [17695,"2012-05-13T02:00:00","ND","ND","24.70","ND","ND","ND","0.2","312.9","23.1","81.1","0","0"],
    [17696,"2012-05-13T03:00:00","ND","ND","23.84","ND","ND","ND","1","358.1","22.1","89.7","0","0"],
    [17697,"2012-05-13T04:00:00","ND","ND","20.09","ND","ND","ND","0.2","128.2","21.9","90.6","0","0"],
    [17698,"2012-05-13T05:00:00","ND","ND","19.16","ND","ND","ND","0.3","165","22.2","89.3","0","0"],
    [17699,"2012-05-13T06:00:00","ND","ND","13.77","ND","ND","ND","0.2","315.5","22.1","89.3","0.1","0"],
    [17700,"2012-05-13T07:00:00","ND","ND","12.94","ND","ND","ND","0.1","10.9","22.2","88.7","19.4","0"],
    [17701,"2012-05-13T08:00:00","ND","ND","14.50","ND","ND","ND","0.5","32.9","22.7","85.4","75.4","0"],
    [17702,"2012-05-13T09:00:00","ND","ND","16.07","ND","ND","ND","0.6","40.9","23.3","80.3","125","0"],
    [17703,"2012-05-13T10:00:00","ND","ND","19.85","ND","ND","ND","0.4","252.5","23.5","81.8","168.5","2.03"],
    [17704,"2012-05-13T11:00:00","ND","ND","15.50","ND","ND","ND","0.4","56.1","25.5","72.4","434.6","0"],
    [17705,"2012-05-13T12:00:00","ND","ND","20.73","ND","ND","ND","0.7","161.3","26.9","61.6","423.7","0"],
    [17706,"2012-05-13T13:00:00","ND","ND","15.88","ND","ND","ND","1","57.6","27.4","60.3","466.3","0"],
    [17707,"2012-05-13T14:00:00","ND","ND","7.75","ND","ND","ND","1.5","50.7","28.1","58.8","517.6","0"],
    [17708,"2012-05-13T15:00:00","ND","ND","8.62","ND","ND","ND","1.2","64","28.6","57.5","516.6","0"],
    [17709,"2012-05-13T16:00:00","ND","ND","4.59","ND","ND","ND","1.8","275.6","29.3","52.8","365","0"],
    [17710,"2012-05-13T17:00:00","ND","ND","4.41","ND","ND","ND","2.3","280.1","28.2","52.6","176.9","0"],
    [17711,"2012-05-13T18:00:00","ND","ND","4.76","ND","ND","ND","0.4","268.9","27.6","54.6","44.5","0"],
    [17712,"2012-05-13T19:00:00","ND","ND","5.57","ND","ND","ND","0.4","144.3","26.7","56.4","0.8","0"],
    [17713,"2012-05-13T20:00:00","ND","ND","12.14","ND","ND","ND","0.4","93.8","26","59.8","0","0"],
    [17714,"2012-05-13T21:00:00","ND","ND","19.54","ND","ND","ND","1.9","170.1","25.5","62.5","0","0"],
    [17715,"2012-05-13T22:00:00","ND","ND","25.15","ND","ND","ND","2.5","171.3","24.3","71.8","0","0"],
    [17716,"2012-05-13T23:00:00","ND","ND","22.45","ND","ND","ND","1.4","142.3","23.8","76.6","0","0"],
    [17717,"2012-05-14T00:00:00","ND","ND","15.76","ND","ND","ND","1.1","183.9","22.5","81.4","0","0"],
    [17718,"2012-05-14T01:00:00","ND","ND","24.86","ND","ND","ND","0.4","310.7","22.4","82.7","0","0"],
    [17719,"2012-05-14T02:00:00","ND","ND","17.51","ND","ND","ND","0.1","206.9","22.8","80.6","0","0"],
    [17720,"2012-05-14T03:00:00","ND","ND","19.57","ND","ND","ND","0.4","93.8","22.7","81.9","0","0"],
    [17721,"2012-05-14T04:00:00","ND","ND","18.91","ND","ND","ND","0.4","24.9","21.8","86.2","0","0"],
    [17722,"2012-05-14T05:00:00","ND","ND","20.35","ND","ND","ND","0.1","4.7","21.7","86.8","0","0"],
    [17723,"2012-05-14T06:00:00","ND","ND","18.31","ND","ND","ND","0.2","230.4","21.7","86.1","0.1","0"],
    [17724,"2012-05-14T07:00:00","ND","ND","14.81","ND","ND","ND","0.1","159.3","22.2","84.7","24","0"],
    [17725,"2012-05-14T08:00:00","ND","ND","16.72","ND","ND","ND","0.7","185.4","23.1","77.2","108","0"],
    [17726,"2012-05-14T09:00:00","ND","ND","18.06","ND","ND","ND","0.9","152.4","24.3","71.7","292.3","0"],
    [17727,"2012-05-14T10:00:00","ND","ND","17.32","ND","ND","ND","1.2","120.4","25.4","67.8","344.5","0"],
    [17728,"2012-05-14T11:00:00","ND","ND","21.16","ND","ND","ND","0.5","229.8","25.7","66.3","379.9","0"],
    [17729,"2012-05-14T12:00:00","ND","ND","18.09","ND","ND","ND","0.6","30.5","27.3","60.8","566.9","0"],
    [17730,"2012-05-14T13:00:00","ND","ND","12.91","ND","ND","ND","0.6","31.4","28.3","58.1","562.7","0"],
    [17731,"2012-05-14T14:00:00","ND","ND","19.14","ND","ND","ND","0.4","24.5","28.8","56","359.5","0"],
    [17732,"2012-05-14T15:00:00","ND","ND","15.35","ND","ND","ND","1.2","300.2","28.5","54.3","235.9","0"],
    [17733,"2012-05-14T16:00:00","ND","ND","12.56","ND","ND","ND","2.1","274.3","28.5","53.5","242.2","0"],
    [17734,"2012-05-14T17:00:00","ND","ND","10.29","ND","ND","ND","1.2","307.6","28.1","53.4","193.8","0"],
    [17735,"2012-05-14T18:00:00","ND","ND","9.57","ND","ND","ND","0.3","19.1","27.4","54.9","52","0"],
    [17736,"2012-05-14T19:00:00","ND","ND","9.32","ND","ND","ND","0.1","266.7","26.5","56.8","0.6","0"],
    [17737,"2012-05-14T20:00:00","ND","ND","15.35","ND","ND","ND","0.3","338.1","25.8","59.2","0","0"],
    [17738,"2012-05-14T21:00:00","ND","ND","24.89","ND","ND","ND","1.3","72.2","24.7","67","0","0"],
    [17739,"2012-05-14T22:00:00","ND","ND","21.92","ND","ND","ND","1.2","159.5","23.8","76","0","0"],
    [17740,"2012-05-14T23:00:00","ND","ND","22.83","ND","ND","ND","0.6","321.6","22.9","76.7","0","0"],
    [17741,"2012-05-15T00:00:00","ND","ND","31.51","ND","ND","ND","0.5","17.9","22.2","79.3","0","0"],
    [17742,"2012-05-15T01:00:00","ND","ND","25.17","ND","ND","ND","0.1","23","21.6","80.7","0","0"],
    [17743,"2012-05-15T02:00:00","ND","ND","23.63","ND","ND","ND","0.2","182.9","21.7","79.6","0","0"],
    [17744,"2012-05-15T03:00:00","ND","ND","18.12","ND","ND","ND","0.5","352","21.3","82.3","0","0"],
    [17745,"2012-05-15T04:00:00","ND","ND","18.56","ND","ND","ND","0.2","283.5","21.5","82.8","0","0"],
    [17746,"2012-05-15T05:00:00","ND","ND","17.27","ND","ND","ND","0.2","214.3","21.7","82.7","0","0"],
    [17747,"2012-05-15T06:00:00","ND","ND","19.05","ND","ND","ND","0.2","298.9","21.8","82.3","0.3","0"],
    [17748,"2012-05-15T07:00:00","ND","ND","17.76","ND","ND","ND","0.5","73.2","22.1","82.8","39.8","0"],
    [17749,"2012-05-15T08:00:00","ND","ND","17.59","ND","ND","ND","0.3","18","22.6","82.1","149.3","0"],
    [17750,"2012-05-15T09:00:00","ND","ND","22.92","ND","ND","ND","0.4","119.4","25.1","69.9","370.7","0"],
    [17751,"2012-05-15T10:00:00","ND","ND","28.83","ND","ND","ND","1.1","113.3","26.6","62.7","485.4","0"],
    [17752,"2012-05-15T11:00:00","ND","ND","36.15","ND","ND","ND","0.8","122.7","27.9","57.7","626.5","0"],
    [17753,"2012-05-15T12:00:00","ND","ND","33.47","ND","ND","ND","0.9","271.4","27.9","57.6","265.3","0"],
    [17754,"2012-05-15T13:00:00","ND","ND","19.46","ND","ND","ND","0.7","319.5","29.2","53.3","698.5","0"],
    [17755,"2012-05-15T14:00:00","ND","ND","22.98","ND","ND","ND","1.4","30.2","30.1","51.7","625.5","0"],
    [17756,"2012-05-15T15:00:00","ND","ND","14.04","ND","ND","ND","1.9","28.1","30.1","52.1","365.3","0"],
    [17757,"2012-05-15T16:00:00","ND","ND","13.03","ND","ND","ND","0.6","332.5","30","51.5","273.1","0"],
    [17758,"2012-05-15T17:00:00","ND","ND","14.59","ND","ND","ND","2.7","258.4","29.2","52.5","117.3","0"],
    [17759,"2012-05-15T18:00:00","ND","ND","10.58","ND","ND","ND","1.8","247.5","28.5","53.6","32.4","0"],
    [17760,"2012-05-15T19:00:00","ND","ND","13.34","ND","ND","ND","1.4","252","27.3","56.9","0.8","0"],
    [17761,"2012-05-15T20:00:00","ND","ND","23.00","ND","ND","ND","0.3","263.1","26.7","60.3","0","0"],
    [17762,"2012-05-15T21:00:00","ND","ND","26.46","ND","ND","ND","0.5","137.3","26.1","64.1","0","0"],
    [17763,"2012-05-15T22:00:00","ND","ND","38.79","ND","ND","ND","0.2","102.3","25","69.5","0","0"],
    [17764,"2012-05-15T23:00:00","ND","ND","42.40","ND","ND","ND","0.2","174.2","24.6","72","0","0"],
    [17765,"2012-05-16T00:00:00","ND","ND","29.46","ND","ND","ND","0.3","91.6","23.7","75","0","0"],
    [17766,"2012-05-16T01:00:00","ND","ND","29.57","ND","ND","ND","0.2","170.3","23.3","77.3","0","0"],
    [17767,"2012-05-16T02:00:00","ND","ND","27.42","ND","ND","ND","0","0","23","79.2","0","0"],
    [17768,"2012-05-16T03:00:00","ND","ND","25.16","ND","ND","ND","0","60.8","22.7","81.2","0","0"],
    [17769,"2012-05-16T04:00:00","ND","ND","22.67","ND","ND","ND","0.2","168.4","22.5","84","0","0"],
    [17770,"2012-05-16T05:00:00","ND","ND","19.35","ND","ND","ND","0.3","312.8","22.4","84.8","0","0"],
    [17771,"2012-05-16T06:00:00","ND","ND","17.46","ND","ND","ND","0.5","356.2","22.3","84.4","0.5","0"],
    [17772,"2012-05-16T07:00:00","ND","ND","17.99","ND","ND","ND","0.3","181","22.4","83.8","11.3","0"],
    [17773,"2012-05-16T08:00:00","ND","ND","19.19","ND","ND","ND","0.4","200.4","23.3","80.5","112.2","0"],
    [17774,"2012-05-16T09:00:00","ND","ND","21.01","ND","ND","ND","0.5","194.4","25.2","70.5","343.6","0"],
    [17775,"2012-05-16T10:00:00","ND","ND","29.23","ND","ND","ND","1.8","132.1","26.9","64","477.5","0"],
    [17776,"2012-05-16T11:00:00","ND","ND","39.63","ND","ND","ND","1.2","113.3","27.8","60.4","562.9","0"],
    [17777,"2012-05-16T12:00:00","ND","ND","22.36","ND","ND","ND","1","104.1","28.3","58","472.1","0"],
    [17778,"2012-05-16T13:00:00","ND","ND","9.60","ND","ND","ND","0.4","34.8","29.2","55.7","589.4","0"],
    [17779,"2012-05-16T14:00:00","ND","ND","9.89","ND","ND","ND","1.3","11.4","30.3","52.6","698.9","0"],
    [17780,"2012-05-16T15:00:00","ND","ND","12.06","ND","ND","ND","1.9","279.7","31.1","47.9","604.7","0"],
    [17781,"2012-05-16T16:00:00","ND","ND","13.67","ND","ND","ND","3","264.6","30.9","46.9","452.7","0"],
    [17782,"2012-05-16T17:00:00","ND","ND","7.99","ND","ND","ND","2.5","287.9","30.5","46.9","298.3","0"],
    [17783,"2012-05-16T18:00:00","ND","ND","8.27","ND","ND","ND","0.7","297.5","29","50.3","23.8","0"],
    [17784,"2012-05-16T19:00:00","ND","ND","10.57","ND","ND","ND","0.4","171.9","28.3","52","1.4","0"],
    [17785,"2012-05-16T20:00:00","ND","ND","18.38","ND","ND","ND","0.1","162.3","27.4","55.3","0","0"],
    [17786,"2012-05-16T21:00:00","ND","ND","31.59","ND","ND","ND","0.1","101","26.5","60.8","0","0"],
    [17787,"2012-05-16T22:00:00","ND","ND","38.12","ND","ND","ND","0.5","203","24.9","70","0","0"],
    [17788,"2012-05-16T23:00:00","ND","ND","24.85","ND","ND","ND","0.3","186.4","24.7","70.9","0","0"],
    [17789,"2012-05-17T00:00:00","ND","ND","22.62","ND","ND","ND","0.1","327.3","24.1","73.8","0","0"],
    [17790,"2012-05-17T01:00:00","ND","ND","26.34","ND","ND","ND","0.1","273.4","24","75.5","0","0"],
    [17791,"2012-05-17T02:00:00","ND","ND","21.89","ND","ND","ND","0.4","49.9","23.4","77.3","0","0"],
    [17792,"2012-05-17T03:00:00","ND","ND","21.67","ND","ND","ND","0.5","158.3","23.2","79.3","0","0"],
    [17793,"2012-05-17T04:00:00","ND","ND","22.07","ND","ND","ND","0.6","184","23.1","80.7","0","0"],
    [17794,"2012-05-17T05:00:00","ND","ND","16.39","ND","ND","ND","0.3","23.7","22.9","81.8","0","0"],
    [17795,"2012-05-17T06:00:00","ND","ND","15.30","ND","ND","ND","0.3","39.6","22.3","82.3","0.3","0"],
    [17796,"2012-05-17T07:00:00","ND","ND","14.39","ND","ND","ND","0.2","150","22.9","80.8","31.3","0"],
    [17797,"2012-05-17T08:00:00","ND","ND","14.48","ND","ND","ND","0.4","164.2","23.8","77.8","95.3","0"],
    [17798,"2012-05-17T09:00:00","ND","ND","17.65","ND","ND","ND","0.5","131.1","24.9","73","214.2","0"],
    [17799,"2012-05-17T10:00:00","ND","ND","22.74","ND","ND","ND","0.4","103.7","25.5","70.8","196.4","0"],
    [17800,"2012-05-17T11:00:00","ND","ND","32.94","ND","ND","ND","1.3","140.6","26.2","68.1","326.2","0"],
    [17801,"2012-05-17T12:00:00","ND","ND","34.44","ND","ND","ND","1.5","174.1","27.4","61.8","465.1","0"],
    [17802,"2012-05-17T13:00:00","ND","ND","25.76","ND","ND","ND","1.8","141.8","28.3","57.5","540.5","0"],
    [17803,"2012-05-17T14:00:00","ND","ND","18.53","ND","ND","ND","1.4","138.6","29.2","55.1","491.4","0"],
    [17804,"2012-05-17T15:00:00","ND","ND","11.38","ND","ND","ND","0.5","146.1","29.1","55.5","220.2","0"],
    [17805,"2012-05-17T16:00:00","ND","ND","10.37","ND","ND","ND","0.8","57.2","28.8","57.9","122.8","0"],
    [17806,"2012-05-17T17:00:00","ND","ND","13.56","ND","ND","ND","0.6","220.3","28.5","56.8","58.5","0"],
    [17807,"2012-05-17T18:00:00","ND","ND","13.38","ND","ND","ND","1.1","268.7","27.8","56.7","26.1","0"],
    [17808,"2012-05-17T19:00:00","ND","ND","13.84","ND","ND","ND","0.2","353.3","26.9","58.9","0.4","0"],
    [17809,"2012-05-17T20:00:00","ND","ND","20.24","ND","ND","ND","0.4","84","26.6","60.1","0","0"],
    [17810,"2012-05-17T21:00:00","ND","ND","30.28","ND","ND","ND","1.4","149.8","25.7","66","0","0"],
    [17811,"2012-05-17T22:00:00","ND","ND","36.27","ND","ND","ND","0.1","355.2","24.6","73.1","0","0"],
    [17812,"2012-05-17T23:00:00","ND","ND","27.24","ND","ND","ND","0.2","338.5","24.1","75.2","0","0"],
    [17813,"2012-05-18T00:00:00","ND","ND","21.73","ND","ND","ND","0.1","2","23.8","77.6","0","0"],
    [17814,"2012-05-18T01:00:00","ND","ND","23.37","ND","ND","ND","0.2","252.2","23.1","79.2","0","0"],
    [17815,"2012-05-18T02:00:00","ND","ND","21.67","ND","ND","ND","0.6","172.4","23.1","79.3","0","0"],
    [17816,"2012-05-18T03:00:00","ND","ND","19.41","ND","ND","ND","1.4","160.6","23","81.8","0","0"],
    [17817,"2012-05-18T04:00:00","ND","ND","18.26","ND","ND","ND","0.5","164.4","22.7","85.3","0","0"],
    [17818,"2012-05-18T05:00:00","ND","ND","16.00","ND","ND","ND","0.3","290.5","22.2","87.4","0","0"],
    [17819,"2012-05-18T06:00:00","ND","ND","11.42","ND","ND","ND","0.2","113.1","22.4","86.6","0.3","0"],
    [17820,"2012-05-18T07:00:00","ND","ND","13.52","ND","ND","ND","0.4","354.4","22.4","86.8","24.3","0"],
    [17821,"2012-05-18T08:00:00","ND","ND","16.37","ND","ND","ND","0.4","71.8","23.3","82.4","158.6","0"],
    [17822,"2012-05-18T09:00:00","ND","ND","20.06","ND","ND","ND","0.6","129.4","24.5","75.5","192.9","0"],
    [17823,"2012-05-18T10:00:00","ND","ND","23.73","ND","ND","ND","0.6","229.1","25.2","72.8","263.1","0"],
    [17824,"2012-05-18T11:00:00","ND","ND","29.91","ND","ND","ND","0.4","177.6","26.8","64.5","478","0"],
    [17825,"2012-05-18T12:00:00","ND","ND","37.63","ND","ND","ND","0","163.9","28.1","58.3","715.6","0"],
    [17826,"2012-05-18T13:00:00","ND","ND","26.45","ND","ND","ND","0.5","90.7","29.4","53.4","472","0"],
    [17827,"2012-05-18T14:00:00","ND","ND","16.97","ND","ND","ND","1.1","335.4","28.8","54.7","171.7","0"],
    [17828,"2012-05-18T15:00:00","ND","ND","17.66","ND","ND","ND","0.7","248.9","29.6","50.5","331.3","0"],
    [17829,"2012-05-18T16:00:00","ND","ND","15.13","ND","ND","ND","1.3","242.2","29.9","49.3","210.2","0"],
    [17830,"2012-05-18T17:00:00","ND","ND","7.68","ND","ND","ND","1.6","280.1","28.3","52.3","94.6","0"],
    [17831,"2012-05-18T18:00:00","ND","ND","11.73","ND","ND","ND","0.4","316.2","27.8","53.4","35.3","0"],
    [17832,"2012-05-18T19:00:00","ND","ND","13.56","ND","ND","ND","0.4","199.3","27.1","55.9","0.3","0"],
    [17833,"2012-05-18T20:00:00","ND","ND","18.51","ND","ND","ND","0.6","108.6","26.7","57.2","0","0"],
    [17834,"2012-05-18T21:00:00","ND","ND","26.84","ND","ND","ND","1.6","129.6","26.1","60.1","0","0"],
    [17835,"2012-05-18T22:00:00","ND","ND","35.03","ND","ND","ND","0.2","280.5","24.9","66.5","0","0"],
    [17836,"2012-05-18T23:00:00","ND","ND","33.59","ND","ND","ND","1.8","178.1","25.2","65.7","0","0"],
    [17837,"2012-05-19T00:00:00","ND","ND","29.44","ND","ND","ND","0.2","236.7","24.5","68.1","0","0"],
    [17838,"2012-05-19T01:00:00","ND","ND","24.22","ND","ND","ND","0.2","335.8","23.6","72.5","0","0"],
    [17839,"2012-05-19T02:00:00","ND","ND","24.33","ND","ND","ND","0","356.8","22.9","75.5","0","0"],
    [17840,"2012-05-19T03:00:00","ND","ND","23.71","ND","ND","ND","0.6","6","22.5","80","0","0"],
    [17841,"2012-05-19T04:00:00","ND","ND","21.29","ND","ND","ND","0.4","2.8","22.1","83.4","0","0.76"],
    [17842,"2012-05-19T05:00:00","ND","ND","19.32","ND","ND","ND","0.3","328.7","21.6","88.1","0","0.25"],
    [17843,"2012-05-19T06:00:00","ND","ND","20.56","ND","ND","ND","0.1","336.3","21.7","87.6","0.1","0"],
    [17844,"2012-05-19T07:00:00","ND","ND","19.43","ND","ND","ND","0.2","208.8","22","85.3","18.9","0"],
    [17845,"2012-05-19T08:00:00","ND","ND","19.63","ND","ND","ND","0.2","66.6","22.5","83.9","93.3","0"],
    [17846,"2012-05-19T09:00:00","ND","ND","20.26","ND","ND","ND","1.1","41","23.3","81.1","209.2","0"],
    [17847,"2012-05-19T10:00:00","ND","ND","25.92","ND","ND","ND","0.5","101.7","24.6","73","320.1","0"],
    [17848,"2012-05-19T11:00:00","ND","ND","21.72","ND","ND","ND","1","58.5","25.6","68","297.4","0"],
    [17849,"2012-05-19T12:00:00","ND","ND","17.06","ND","ND","ND","1.7","10.6","24.8","73.7","92.4","0"],
    [17850,"2012-05-19T13:00:00","ND","ND","15.13","ND","ND","ND","1.7","12.7","25.2","72","181.6","0"],
    [17851,"2012-05-19T14:00:00","ND","ND","19.49","ND","ND","ND","2.7","42.3","24.4","76.2","305.7","0.25"],
    [17852,"2012-05-19T15:00:00","ND","ND","21.35","ND","ND","ND","2.4","48.2","26.6","63.9","514.9","0"],
    [17853,"2012-05-19T16:00:00","ND","ND","14.20","ND","ND","ND","1.4","234.2","27.2","54.6","196.3","0"],
    [17854,"2012-05-19T17:00:00","ND","ND","10.11","ND","ND","ND","1.7","239.4","26.8","54.9","141.5","0"],
    [17855,"2012-05-19T18:00:00","ND","ND","8.11","ND","ND","ND","2.9","174.7","25.3","66.3","26.2","0"],
    [17856,"2012-05-19T19:00:00","ND","ND","7.90","ND","ND","ND","3.3","153","22.8","78.9","0.6","0"],
    [17857,"2012-05-19T20:00:00","ND","ND","17.26","ND","ND","ND","2.8","179.3","21.9","81.5","0","0"],
    [17858,"2012-05-19T21:00:00","ND","ND","18.21","ND","ND","ND","2","177.8","21.8","81.6","0","0"],
    [17859,"2012-05-19T22:00:00","ND","ND","19.19","ND","ND","ND","0.7","162.7","21.4","84.7","0","0"],
    [17860,"2012-05-19T23:00:00","ND","ND","19.65","ND","ND","ND","0.9","69","21.3","85.9","0","0"],
    [17861,"2012-05-20T00:00:00","ND","ND","24.57","ND","ND","ND","0.4","26","20.6","89.8","0","0"],
    [17862,"2012-05-20T01:00:00","ND","ND","26.52","ND","ND","ND","0.3","328.6","20.6","89.8","0","0"],
    [17863,"2012-05-20T02:00:00","ND","ND","19.08","ND","ND","ND","0","32.8","20.6","90.3","0","0"],
    [17864,"2012-05-20T03:00:00","ND","ND","21.86","ND","ND","ND","0.6","155.6","20.8","90","0","0"],
    [17865,"2012-05-20T04:00:00","ND","ND","20.31","ND","ND","ND","1","142","20.6","91.1","0","0"],
    [17866,"2012-05-20T05:00:00","ND","ND","19.52","ND","ND","ND","0.4","57","20.4","91.7","0","0"],
    [17867,"2012-05-20T06:00:00","ND","ND","17.56","ND","ND","ND","0.4","290.7","20.4","92.2","0.2","0"],
    [17868,"2012-05-20T07:00:00","ND","ND","14.63","ND","ND","ND","0.1","167.3","20.8","88.3","11.6","0"],
    [17869,"2012-05-20T08:00:00","ND","ND","13.59","ND","ND","ND","0.7","176","21.6","83.2","75","0"],
    [17870,"2012-05-20T09:00:00","ND","ND","14.91","ND","ND","ND","0.8","129.6","23.2","75.6","333","0"],
    [17871,"2012-05-20T10:00:00","ND","ND","14.70","ND","ND","ND","0.9","80.6","24.1","73.1","236.3","0"],
    [17872,"2012-05-20T11:00:00","ND","ND","17.44","ND","ND","ND","0.4","281.1","24.9","69.3","401.1","0"],
    [17873,"2012-05-20T12:00:00","ND","ND","15.48","ND","ND","ND","0.7","130.4","26","64.4","476.2","0"],
    [17874,"2012-05-20T13:00:00","ND","ND","12.60","ND","ND","ND","0.2","127.8","27.2","59.5","409.4","0"],
    [17875,"2012-05-20T14:00:00","ND","ND","10.02","ND","ND","ND","0.5","334.1","28.2","55.8","512.7","0"],
    [17876,"2012-05-20T15:00:00","ND","ND","10.53","ND","ND","ND","1.8","10.4","28.6","54.3","452","0"],
    [17877,"2012-05-20T16:00:00","ND","ND","11.23","ND","ND","ND","1.5","304.1","28.5","53.6","267.1","0"],
    [17878,"2012-05-20T17:00:00","ND","ND","8.94","ND","ND","ND","1.6","265.2","28","54.2","94.2","0"],
    [17879,"2012-05-20T18:00:00","ND","ND","8.58","ND","ND","ND","0.5","253.1","27.1","56.8","14.5","0"],
    [17880,"2012-05-20T19:00:00","ND","ND","8.23","ND","ND","ND","0.6","262.3","25.9","60.5","0.4","0"],
    [17881,"2012-05-20T20:00:00","ND","ND","14.11","ND","ND","ND","0.4","135.5","25.4","62.6","0","0"],
    [17882,"2012-05-20T21:00:00","ND","ND","20.20","ND","ND","ND","0.4","208","24.6","67","0","0"],
    [17883,"2012-05-20T22:00:00","ND","ND","25.86","ND","ND","ND","0.4","129.9","23.8","70.2","0","0"],
    [17884,"2012-05-20T23:00:00","ND","ND","26.62","ND","ND","ND","0.4","203.8","23.1","74.3","0","0"],
    [17885,"2012-05-21T00:00:00","ND","ND","23.04","ND","ND","ND","0.5","21.2","22.8","76.7","0","0"],
    [17886,"2012-05-21T01:00:00","ND","ND","20.23","ND","ND","ND","0.5","334.7","22.1","79.7","0","0"],
    [17887,"2012-05-21T02:00:00","ND","ND","18.41","ND","ND","ND","0.4","256.4","22.1","79.8","0","0"],
    [17888,"2012-05-21T03:00:00","ND","ND","17.68","ND","ND","ND","0.4","229.6","21.8","80.6","0","0"],
    [17889,"2012-05-21T04:00:00","ND","ND","16.32","ND","ND","ND","0.2","249.9","21.6","82.6","0","0"],
    [17890,"2012-05-21T05:00:00","ND","ND","15.21","ND","ND","ND","0.3","308.5","21.4","83.8","0","0"],
    [17891,"2012-05-21T06:00:00","ND","ND","14.03","ND","ND","ND","0.3","268.5","21.3","83.7","0.2","0"],
    [17892,"2012-05-21T07:00:00","ND","ND","12.61","ND","ND","ND","0.4","244.2","21","85.5","24.8","0"],
    [17893,"2012-05-21T08:00:00","ND","ND","13.66","ND","ND","ND","0.6","80.6","22.6","79.2","151.8","0"],
    [17894,"2012-05-21T09:00:00","ND","ND","13.32","ND","ND","ND","0.6","88.3","24.3","72.4","385.2","0"],
    [17895,"2012-05-21T10:00:00","ND","ND","22.74","ND","ND","ND","0.9","113.8","25.6","65.8","453.1","0"],
    [17896,"2012-05-21T11:00:00","ND","ND","26.35","ND","ND","ND","0.8","135","26.5","62.6","245.8","0"],
    [17897,"2012-05-21T12:00:00","ND","ND","17.93","ND","ND","ND","0.7","113","26.8","62.1","331.8","0"],
    [17898,"2012-05-21T13:00:00","ND","ND","10.84","ND","ND","ND","0.5","125","28","57.9","624","0"],
    [17899,"2012-05-21T14:00:00","ND","ND","11.09","ND","ND","ND","0.6","34","28.5","55.9","373.2","0"],
    [17900,"2012-05-21T15:00:00","ND","ND","10.84","ND","ND","ND","1","3.7","28.2","56.1","128.4","0"],
    [17901,"2012-05-21T16:00:00","ND","ND","10.74","ND","ND","ND","1.2","205.5","28.5","53.2","147.9","0"],
    [17902,"2012-05-21T17:00:00","ND","ND","11.43","ND","ND","ND","0.9","250","28.4","53.1","142","0"],
    [17903,"2012-05-21T18:00:00","ND","ND","7.92","ND","ND","ND","1.2","255.6","28.2","52.8","95.7","0"],
    [17904,"2012-05-21T19:00:00","ND","ND","8.17","ND","ND","ND","0.7","238.1","27","56.4","1.1","0"],
    [17905,"2012-05-21T20:00:00","ND","ND","8.57","ND","ND","ND","0.7","258.2","26","59.9","0","0"],
    [17906,"2012-05-21T21:00:00","ND","ND","17.56","ND","ND","ND","0.6","308.3","25","65","0","0"],
    [17907,"2012-05-21T22:00:00","ND","ND","20.12","ND","ND","ND","0.8","157","24.8","67.6","0","0"],
    [17908,"2012-05-21T23:00:00","ND","ND","19.61","ND","ND","ND","0.2","316.9","23.9","72.4","0","0"],
    [17909,"2012-05-22T00:00:00","ND","ND","19.63","ND","ND","ND","0.5","303.2","24","72.1","0","0"],
    [17910,"2012-05-22T01:00:00","ND","ND","17.78","ND","ND","ND","0.9","166.8","24.1","72.4","0","0"],
    [17911,"2012-05-22T02:00:00","ND","ND","18.48","ND","ND","ND","0.5","219","23.2","80.2","0","0"],
    [17912,"2012-05-22T03:00:00","ND","ND","17.11","ND","ND","ND","0.5","122.7","22.6","83.6","0","0"],
    [17913,"2012-05-22T04:00:00","ND","ND","16.16","ND","ND","ND","0.3","260.8","22.4","84.1","0","0"],
    [17914,"2012-05-22T05:00:00","ND","ND","13.55","ND","ND","ND","0.3","205.6","22.2","85.8","0","0"],
    [17915,"2012-05-22T06:00:00","ND","ND","13.25","ND","ND","ND","0.3","157.6","22.2","84.9","0.1","0"],
    [17916,"2012-05-22T07:00:00","ND","ND","12.02","ND","ND","ND","0.2","63.6","22.3","83.9","12.5","0"],
    [17917,"2012-05-22T08:00:00","ND","ND","12.50","ND","ND","ND","0.6","35.5","22.4","83.3","26","0"],
    [17918,"2012-05-22T09:00:00","ND","ND","14.82","ND","ND","ND","0.4","264.7","22.7","84.4","95.6","0"],
    [17919,"2012-05-22T10:00:00","ND","ND","16.63","ND","ND","ND","0.2","340.7","23.7","79.6","215.6","0"],
    [17920,"2012-05-22T11:00:00","ND","ND","20.12","ND","ND","ND","0.5","52.8","25.4","72","305.6","0"],
    [17921,"2012-05-22T12:00:00","ND","ND","25.20","ND","ND","ND","0.3","39.8","25.9","69.8","182.7","0"],
    [17922,"2012-05-22T13:00:00","ND","ND","19.78","ND","ND","ND","0.5","290.9","27.3","62.5","573","0"],
    [17923,"2012-05-22T14:00:00","ND","ND","20.00","ND","ND","ND","0.8","11.8","28.7","57.2","564.2","0"],
    [17924,"2012-05-22T15:00:00","ND","ND","17.73","ND","ND","ND","1.1","53.5","29.4","54.5","416.3","0"],
    [17925,"2012-05-22T16:00:00","ND","ND","14.75","ND","ND","ND","2.2","46.1","28.7","55.6","195","0"],
    [17926,"2012-05-22T17:00:00","ND","ND","19.43","ND","ND","ND","1.8","68.6","28.4","59.9","188.5","0"],
    [17927,"2012-05-22T18:00:00","ND","ND","13.89","ND","ND","ND","1.9","62.8","27.9","62.4","96.3","0"],
    [17928,"2012-05-22T19:00:00","ND","ND","13.90","ND","ND","ND","0.6","85.3","27","62.8","1","0"],
    [17929,"2012-05-22T20:00:00","ND","ND","14.64","ND","ND","ND","0.7","220.8","26.2","61.8","0","0"],
    [17930,"2012-05-22T21:00:00","ND","ND","24.58","ND","ND","ND","0.2","217.8","24.9","67.4","0","0"],
    [17931,"2012-05-22T22:00:00","ND","ND","24.57","ND","ND","ND","0.4","140.9","24.4","72.3","0","0"],
    [17932,"2012-05-22T23:00:00","ND","ND","24.27","ND","ND","ND","0.3","325","24","74.5","0","0"],
    [17933,"2012-05-23T00:00:00","ND","ND","22.90","ND","ND","ND","0.4","356.8","23.2","77.3","0","0"],
    [17934,"2012-05-23T01:00:00","ND","ND","22.26","ND","ND","ND","0","183.7","23.3","77.3","0","0"],
    [17935,"2012-05-23T02:00:00","ND","ND","18.54","ND","ND","ND","0.7","158.7","23.3","77.1","0","0"],
    [17936,"2012-05-23T03:00:00","ND","ND","18.26","ND","ND","ND","0.3","265.7","22.9","80.3","0","0"],
    [17937,"2012-05-23T04:00:00","ND","ND","16.42","ND","ND","ND","0.4","107.6","22.9","79.2","0","0"],
    [17938,"2012-05-23T05:00:00","ND","ND","15.75","ND","ND","ND","0.2","288.1","22.7","81.7","0","0"],
    [17939,"2012-05-23T06:00:00","ND","ND","13.04","ND","ND","ND","0.5","72.1","22.4","83.6","0.4","0"],
    [17940,"2012-05-23T07:00:00","ND","ND","16.00","ND","ND","ND","1","177.3","22.1","83.8","19.4","0"],
    [17941,"2012-05-23T08:00:00","ND","ND","16.30","ND","ND","ND","0.5","167.1","23","78.4","152.5","0"],
    [17942,"2012-05-23T09:00:00","ND","ND","15.32","ND","ND","ND","0.5","119.1","24.8","71.6","296.3","0"],
    [17943,"2012-05-23T10:00:00","ND","ND","18.65","ND","ND","ND","1.5","68.8","26.3","66.2","573.4","0"],
    [17944,"2012-05-23T11:00:00","ND","ND","38.17","ND","ND","ND","0.7","46.7","27.8","58.5","701.8","0"],
    [17945,"2012-05-23T12:00:00","ND","ND","28.61","ND","ND","ND","1.1","70.7","28.7","54.5","739.3","0"],
    [17946,"2012-05-23T13:00:00","ND","ND","9.13","ND","ND","ND","0.8","111.7","29.4","52.5","452.8","0"],
    [17947,"2012-05-23T14:00:00","ND","ND","9.77","ND","ND","ND","0.1","47.1","30.7","48.5","698.6","0"],
    [17948,"2012-05-23T15:00:00","ND","ND","10.37","ND","ND","ND","0.9","82.5","31.3","47.6","552.2","0"],
    [17949,"2012-05-23T16:00:00","ND","ND","11.25","ND","ND","ND","0.7","263.7","31.4","47","388.5","0"],
    [17950,"2012-05-23T17:00:00","ND","ND","13.70","ND","ND","ND","1.5","295.7","31.4","48.1","293.2","0"],
    [17951,"2012-05-23T18:00:00","ND","ND","11.75","ND","ND","ND","1.6","259.6","29.7","52.2","35.8","0"],
    [17952,"2012-05-23T19:00:00","ND","ND","11.92","ND","ND","ND","0.1","4","28.3","55.5","0.9","0"],
    [17953,"2012-05-23T20:00:00","ND","ND","22.20","ND","ND","ND","0.1","250.2","27.5","59.4","0","0"],
    [17954,"2012-05-23T21:00:00","ND","ND","36.43","ND","ND","ND","0.9","111.5","27.6","59.7","0","0"],
    [17955,"2012-05-23T22:00:00","ND","ND","58.57","ND","ND","ND","0.6","112.1","26","67.2","0","0"],
    [17956,"2012-05-23T23:00:00","ND","ND","38.78","ND","ND","ND","0.4","128.1","25.5","69.3","0","0"],
    [17957,"2012-05-24T00:00:00","ND","ND","32.60","ND","ND","ND","0.3","120.9","24.6","72.8","0","0"],
    [17958,"2012-05-24T01:00:00","ND","ND","31.19","ND","ND","ND","0.4","118.7","24.5","73.6","0","0"],
    [17959,"2012-05-24T02:00:00","ND","ND","24.09","ND","ND","ND","0.3","156.7","24.2","75.1","0","0"],
    [17960,"2012-05-24T03:00:00","ND","ND","24.16","ND","ND","ND","0.2","187","23.7","77.9","0","0"],
    [17961,"2012-05-24T04:00:00","ND","ND","23.63","ND","ND","ND","0.1","158.5","23.3","79.3","0","0"],
    [17962,"2012-05-24T05:00:00","ND","ND","19.40","ND","ND","ND","0.3","28.4","23.1","80.3","0","0"],
    [17963,"2012-05-24T06:00:00","ND","ND","16.34","ND","ND","ND","0.3","347.8","22.5","83.6","0.3","0"],
    [17964,"2012-05-24T07:00:00","ND","ND","17.22","ND","ND","ND","0.4","254.5","22.6","82.7","47.5","0"],
    [17965,"2012-05-24T08:00:00","ND","ND","20.79","ND","ND","ND","0.5","160.8","23.9","77.3","71.9","0"],
    [17966,"2012-05-24T09:00:00","ND","ND","21.86","ND","ND","ND","1.5","145.9","24.9","72.5","258","0"],
    [17967,"2012-05-24T10:00:00","ND","ND","30.63","ND","ND","ND","1.7","117.6","26.8","64.8","576.3","0"],
    [17968,"2012-05-24T11:00:00","ND","ND","51.01","ND","ND","ND","1.2","77","27.3","64","323.3","0"],
    [17969,"2012-05-24T12:00:00","ND","ND","23.10","ND","ND","ND","0.8","193.3","27.8","61.3","529.7","0"],
    [17970,"2012-05-24T13:00:00","ND","ND","12.74","ND","ND","ND","1.1","133.9","29.5","54.5","565.5","0"],
    [17971,"2012-05-24T14:00:00","ND","ND","12.39","ND","ND","ND","1.3","138.8","29.9","51.4","357.7","0"],
    [17972,"2012-05-24T15:00:00","ND","ND","17.04","ND","ND","ND","2","277.8","29.3","53.4","225.5","0"],
    [17973,"2012-05-24T16:00:00","ND","ND","14.73","ND","ND","ND","2.3","273.8","28.6","54.7","93.6","0"],
    [17974,"2012-05-24T17:00:00","ND","ND","16.07","ND","ND","ND","1.6","283.7","27.9","55.4","37.2","0"],
    [17975,"2012-05-24T18:00:00","ND","ND","17.33","ND","ND","ND","0.7","240.4","27.9","54.5","11.2","0"],
    [17976,"2012-05-24T19:00:00","ND","ND","18.05","ND","ND","ND","0.3","150.8","27.5","56.8","0.4","0"],
    [17977,"2012-05-24T20:00:00","ND","ND","28.43","ND","ND","ND","1.2","66","25.3","67.9","0","0"],
    [17978,"2012-05-24T21:00:00","ND","ND","34.97","ND","ND","ND","0.7","169.1","24.3","72.7","0","0"],
    [17979,"2012-05-24T22:00:00","ND","ND","24.33","ND","ND","ND","0.2","255.1","24.7","69.5","0","0"],
    [17980,"2012-05-24T23:00:00","ND","ND","21.17","ND","ND","ND","0.3","343.3","24.1","72.9","0","0"],
    [17981,"2012-05-25T00:00:00","ND","ND","25.54","ND","ND","ND","0.4","27.8","23.2","78.8","0","0"],
    [17982,"2012-05-25T01:00:00","ND","ND","27.41","ND","ND","ND","0.4","284.1","22.7","81.1","0","0"],
    [17983,"2012-05-25T02:00:00","ND","ND","22.82","ND","ND","ND","0.3","241.9","22.7","81.3","0","0"],
    [17984,"2012-05-25T03:00:00","ND","ND","20.43","ND","ND","ND","0.3","189.8","22.8","81.1","0","0"],
    [17985,"2012-05-25T04:00:00","ND","ND","19.85","ND","ND","ND","0.4","345.7","22.2","83.6","0","0"],
    [17986,"2012-05-25T05:00:00","ND","ND","20.04","ND","ND","ND","0.1","282.3","21.8","85.1","0","0"],
    [17987,"2012-05-25T06:00:00","ND","ND","18.37","ND","ND","ND","0.2","18.6","21.8","85.2","0.3","0"],
    [17988,"2012-05-25T07:00:00","ND","ND","16.73","ND","ND","ND","0.2","290","21.9","85.1","21.5","0"],
    [17989,"2012-05-25T08:00:00","ND","ND","18.04","ND","ND","ND","0.6","32.8","22.9","81.4","102.3","0"],
    [17990,"2012-05-25T09:00:00","ND","ND","22.29","ND","ND","ND","1","46.8","24","77","287.2","0"],
    [17991,"2012-05-25T10:00:00","ND","ND","27.80","ND","ND","ND","1","131.5","26.3","66.7","530","0"],
    [17992,"2012-05-25T11:00:00","ND","ND","42.77","ND","ND","ND","1.8","112","27.6","60.9","507.5","0"],
    [17993,"2012-05-25T12:00:00","ND","ND","46.01","ND","ND","ND","2.1","101.6","27.7","61.7","387.6","0"],
    [17994,"2012-05-25T13:00:00","ND","ND","20.91","ND","ND","ND","1.6","78.1","27.7","61.7","301.9","0"],
    [17995,"2012-05-25T14:00:00","ND","ND","13.25","ND","ND","ND","1.2","64.7","28.2","61.1","301.4","0"],
    [17996,"2012-05-25T15:00:00","ND","ND","12.94","ND","ND","ND","1","28.8","28.4","60.2","228.5","0"],
    [17997,"2012-05-25T16:00:00","ND","ND","13.56","ND","ND","ND","1.5","265.3","28.7","54.7","166.5","0"],
    [17998,"2012-05-25T17:00:00","ND","ND","21.01","ND","ND","ND","2","262.6","28.3","53.9","83.6","0"],
    [17999,"2012-05-25T18:00:00","ND","ND","17.29","ND","ND","ND","0.4","258","27.5","55.1","30.7","0"],
    [18000,"2012-05-25T19:00:00","ND","ND","15.10","ND","ND","ND","0.4","283.5","27","56.2","0.5","0"],
    [18001,"2012-05-25T20:00:00","ND","ND","15.32","ND","ND","ND","1.3","163.4","26.3","58.4","0","0"],
    [18002,"2012-05-25T21:00:00","ND","ND","20.43","ND","ND","ND","0.2","192.1","25.5","62.3","0","0"],
    [18003,"2012-05-25T22:00:00","ND","ND","24.62","ND","ND","ND","0.5","294.8","23.9","71.6","0","0"],
    [18004,"2012-05-25T23:00:00","ND","ND","23.64","ND","ND","ND","0.7","281.5","23.1","75.5","0","0"],
    [18005,"2012-05-26T00:00:00","ND","ND","23.54","ND","ND","ND","0.4","307.2","22.9","74.8","0","0"],
    [18006,"2012-05-26T01:00:00","ND","ND","21.99","ND","ND","ND","0.3","207.1","22.6","75.9","0","0"],
    [18007,"2012-05-26T02:00:00","ND","ND","21.37","ND","ND","ND","0.4","345.7","22","78.5","0","0"],
    [18008,"2012-05-26T03:00:00","ND","ND","22.02","ND","ND","ND","0.8","3","20.9","86.2","0","0"],
    [18009,"2012-05-26T04:00:00","ND","ND","21.18","ND","ND","ND","0.4","353.3","20.9","85.2","0","0"],
    [18010,"2012-05-26T05:00:00","ND","ND","21.60","ND","ND","ND","0.3","208.8","21","84.6","0","0"],
    [18011,"2012-05-26T06:00:00","ND","ND","21.18","ND","ND","ND","0.3","217.1","21","83.8","0.3","0"],
    [18012,"2012-05-26T07:00:00","ND","ND","17.41","ND","ND","ND","0.2","29.9","21.4","82.1","30.5","0"],
    [18013,"2012-05-26T08:00:00","ND","ND","18.36","ND","ND","ND","0.5","65.9","22.1","81.4","128.8","0"],
    [18014,"2012-05-26T09:00:00","ND","ND","21.50","ND","ND","ND","0.6","91.3","23.8","75.4","281.1","0"],
    [18015,"2012-05-26T10:00:00","ND","ND","28.12","ND","ND","ND","1","158.1","25.9","63.3","551.9","0"],
    [18016,"2012-05-26T11:00:00","ND","ND","44.21","ND","ND","ND","1","75.6","27.4","57.6","578.1","0"],
    [18017,"2012-05-26T12:00:00","ND","ND","48.70","ND","ND","ND","1.1","131.5","28.1","55.5","373.3","0"],
    [18018,"2012-05-26T13:00:00","ND","ND","29.57","ND","ND","ND","1","58.6","29","53.7","450.3","0"],
    [18019,"2012-05-26T14:00:00","ND","ND","24.20","ND","ND","ND","1.3","347.2","29.4","53.4","384.5","0"],
    [18020,"2012-05-26T15:00:00","ND","ND","19.99","ND","ND","ND","0.8","322.2","29.4","51.8","402.8","0"],
    [18021,"2012-05-26T16:00:00","ND","ND","17.39","ND","ND","ND","2.7","277.3","28.9","51.8","229.2","0"],
    [18022,"2012-05-26T17:00:00","ND","ND","8.62","ND","ND","ND","2.3","274.9","29","51.2","156.4","0"],
    [18023,"2012-05-26T18:00:00","ND","ND","9.05","ND","ND","ND","1.7","272.2","27.8","53.7","41.7","0"],
    [18024,"2012-05-26T19:00:00","ND","ND","8.97","ND","ND","ND","0.3","155.9","27.7","55","1.1","0"],
    [18025,"2012-05-26T20:00:00","ND","ND","11.31","ND","ND","ND","0.2","280.2","26.7","58","0","0"],
    [18026,"2012-05-26T21:00:00","ND","ND","27.50","ND","ND","ND","1.2","127.3","26.6","60.2","0","0"],
    [18027,"2012-05-26T22:00:00","ND","ND","37.21","ND","ND","ND","0.3","314.6","25.2","66.4","0","0"],
    [18028,"2012-05-26T23:00:00","ND","ND","38.17","ND","ND","ND","0.3","359.9","24.7","69.5","0","0"],
    [18029,"2012-05-27T00:00:00","ND","ND","33.17","ND","ND","ND","0.3","337.5","24.2","72","0","0"],
    [18030,"2012-05-27T01:00:00","ND","ND","31.09","ND","ND","ND","0.5","42.4","24.1","72.8","0","0"],
    [18031,"2012-05-27T02:00:00","ND","ND","29.44","ND","ND","ND","0.1","99.8","23.8","74.4","0","0"],
    [18032,"2012-05-27T03:00:00","ND","ND","29.11","ND","ND","ND","0.2","228.7","23","78.1","0","0"],
    [18033,"2012-05-27T04:00:00","ND","ND","27.26","ND","ND","ND","0.2","278.5","22.4","80.8","0","0"],
    [18034,"2012-05-27T05:00:00","ND","ND","24.76","ND","ND","ND","0.3","235","22.2","81.4","0","0"],
    [18035,"2012-05-27T06:00:00","ND","ND","22.91","ND","ND","ND","0.4","340.9","21.6","83.6","0.4","0"],
    [18036,"2012-05-27T07:00:00","ND","ND","21.84","ND","ND","ND","0.3","57.1","21.6","83.2","48.4","0"],
    [18037,"2012-05-27T08:00:00","ND","ND","20.37","ND","ND","ND","0.3","57.1","23.3","78.8","200.1","0"],
    [18038,"2012-05-27T09:00:00","ND","ND","22.96","ND","ND","ND","0.9","162.8","25","70.5","395.2","0"],
    [18039,"2012-05-27T10:00:00","ND","ND","26.56","ND","ND","ND","0.3","163.2","26.8","62.2","502.8","0"],
    [18040,"2012-05-27T11:00:00","ND","ND","24.58","ND","ND","ND","1.5","40.3","27.3","61.8","512.4","0"],
    [18041,"2012-05-27T12:00:00","ND","ND","18.28","ND","ND","ND","1.3","83.6","28.6","57.9","676.3","0"],
    [18042,"2012-05-27T13:00:00","ND","ND","16.01","ND","ND","ND","1.6","34.8","29.8","53.5","605.5","0"],
    [18043,"2012-05-27T14:00:00","ND","ND","18.33","ND","ND","ND","1.4","32","30.9","50.8","657.5","0"],
    [18044,"2012-05-27T15:00:00","ND","ND","18.52","ND","ND","ND","1.2","359.8","30.7","48.5","258.1","0"],
    [18045,"2012-05-27T16:00:00","ND","ND","12.69","ND","ND","ND","2.3","274.3","30","49.9","152.2","0"],
    [18046,"2012-05-27T17:00:00","ND","ND","8.62","ND","ND","ND","1.7","266.2","29.1","50.8","41.2","0"],
    [18047,"2012-05-27T18:00:00","ND","ND","7.08","ND","ND","ND","1.5","252.2","28.3","53.3","23.4","0"],
    [18048,"2012-05-27T19:00:00","ND","ND","9.60","ND","ND","ND","0.6","126.7","28.1","54.4","1","0"],
    [18049,"2012-05-27T20:00:00","ND","ND","14.23","ND","ND","ND","0.4","336.2","27.4","56.5","0","0"],
    [18050,"2012-05-27T21:00:00","ND","ND","28.37","ND","ND","ND","0.6","146","26.5","61.4","0","0"],
    [18051,"2012-05-27T22:00:00","ND","ND","39.85","ND","ND","ND","0.1","132.5","25.2","67.6","0","0"],
    [18052,"2012-05-27T23:00:00","ND","ND","36.05","ND","ND","ND","0.1","309.3","24.4","70.9","0","0"],
    [18053,"2012-05-28T00:00:00","ND","ND","34.21","ND","ND","ND","0.2","178.2","24.4","72","0","0"],
    [18054,"2012-05-28T01:00:00","ND","ND","31.45","ND","ND","ND","0.2","139.9","23.8","75","0","0"],
    [18055,"2012-05-28T02:00:00","ND","ND","29.71","ND","ND","ND","0.8","191.8","23.2","77.9","0","0"],
    [18056,"2012-05-28T03:00:00","ND","ND","26.08","ND","ND","ND","0.5","190.8","22.9","80.5","0","0"],
    [18057,"2012-05-28T04:00:00","ND","ND","20.76","ND","ND","ND","0.6","272.7","22","83.9","0","0"],
    [18058,"2012-05-28T05:00:00","ND","ND","15.25","ND","ND","ND","0.2","266.9","22.5","81.5","0","0"],
    [18059,"2012-05-28T06:00:00","ND","ND","15.03","ND","ND","ND","0.3","217.3","22.5","81.7","0.4","0"],
    [18060,"2012-05-28T07:00:00","ND","ND","14.03","ND","ND","ND","0.5","30.7","22.5","80.5","41.2","0"],
    [18061,"2012-05-28T08:00:00","ND","ND","16.85","ND","ND","ND","0.3","50.4","23.1","81","129.8","0"],
    [18062,"2012-05-28T09:00:00","ND","ND","23.39","ND","ND","ND","0.7","68.8","25.2","71","353.5","0"],
    [18063,"2012-05-28T10:00:00","ND","ND","28.14","ND","ND","ND","1.4","64.3","26.5","65.2","544.3","0"],
    [18064,"2012-05-28T11:00:00","ND","ND","34.66","ND","ND","ND","0.9","120.3","28","59.1","617.4","0"],
    [18065,"2012-05-28T12:00:00","ND","ND","29.49","ND","ND","ND","0.4","334.5","28.8","56","483.4","0"],
    [18066,"2012-05-28T13:00:00","ND","ND","15.35","ND","ND","ND","1.1","98.4","30.2","51.5","547.3","0"],
    [18067,"2012-05-28T14:00:00","ND","ND","16.33","ND","ND","ND","1","20.7","30.6","49.8","292.1","0"],
    [18068,"2012-05-28T15:00:00","ND","ND","12.13","ND","ND","ND","1.4","289.2","29.4","52.3","106.6","0"],
    [18069,"2012-05-28T16:00:00","ND","ND","11.79","ND","ND","ND","1.1","264.9","30","50.4","281.9","0"],
    [18070,"2012-05-28T17:00:00","ND","ND","15.74","ND","ND","ND","1.1","359","29.6","51.7","151.4","0"],
    [18071,"2012-05-28T18:00:00","ND","ND","17.79","ND","ND","ND","1.2","248.7","29","52.9","26.2","0"],
    [18072,"2012-05-28T19:00:00","ND","ND","20.16","ND","ND","ND","1.1","247.7","28.1","55.9","0.6","0"],
    [18073,"2012-05-28T20:00:00","ND","ND","25.44","ND","ND","ND","0.8","210.3","27.3","59","0","0"],
    [18074,"2012-05-28T21:00:00","ND","ND","33.67","ND","ND","ND","0.4","172.1","26.3","65.6","0","0"],
    [18075,"2012-05-28T22:00:00","ND","ND","25.18","ND","ND","ND","0.7","207.1","25.3","67.1","0","0"],
    [18076,"2012-05-28T23:00:00","ND","ND","34.58","ND","ND","ND","0.3","338.7","24.4","71.6","0","0"],
    [18077,"2012-05-29T00:00:00","ND","ND","30.62","ND","ND","ND","0.3","257.2","24.4","71.5","0","0"],
    [18078,"2012-05-29T01:00:00","ND","ND","32.91","ND","ND","ND","0.2","198.1","24.9","68","0","0"],
    [18079,"2012-05-29T02:00:00","ND","ND","32.33","ND","ND","ND","0.7","7","23.8","74.2","0","0"],
    [18080,"2012-05-29T03:00:00","ND","ND","27.54","ND","ND","ND","0.5","33.6","22.7","81.3","0","0"],
    [18081,"2012-05-29T04:00:00","ND","ND","31.21","ND","ND","ND","0.4","316","22","82.7","0","0"],
    [18082,"2012-05-29T05:00:00","ND","ND","24.14","ND","ND","ND","0.2","214.9","21.8","82.4","0","0"],
    [18083,"2012-05-29T06:00:00","ND","ND","20.07","ND","ND","ND","0.3","56.4","21.7","82.9","0.6","0"],
    [18084,"2012-05-29T07:00:00","ND","ND","19.82","ND","ND","ND","0.4","178.1","21.9","82.9","28.5","0"],
    [18085,"2012-05-29T08:00:00","ND","ND","24.19","ND","ND","ND","0.7","134.3","23.1","77.5","143.5","0"],
    [18086,"2012-05-29T09:00:00","ND","ND","27.55","ND","ND","ND","1.8","132.5","24.8","71.2","316.9","0"],
    [18087,"2012-05-29T10:00:00","ND","ND","27.14","ND","ND","ND","1.7","152.7","26.2","64.5","427.2","0"],
    [18088,"2012-05-29T11:00:00","ND","ND","33.75","ND","ND","ND","0.9","168.9","27.6","59.3","614.4","0"],
    [18089,"2012-05-29T12:00:00","ND","ND","18.37","ND","ND","ND","1.2","105.9","29.4","53.5","700.6","0"],
    [18090,"2012-05-29T13:00:00","ND","ND","20.13","ND","ND","ND","1.1","117.5","30.3","51.5","618.7","0"],
    [18091,"2012-05-29T14:00:00","ND","ND","16.06","ND","ND","ND","1","4.2","30.9","50.6","423.3","0"],
    [18092,"2012-05-29T15:00:00","ND","ND","12.45","ND","ND","ND","1.4","304.9","30.6","49.2","220.3","0"],
    [18093,"2012-05-29T16:00:00","ND","ND","12.84","ND","ND","ND","2.8","262.2","30.4","49.3","270.7","0"],
    [18094,"2012-05-29T17:00:00","ND","ND","11.37","ND","ND","ND","2.6","258.8","30.3","48.8","222.4","0"],
    [18095,"2012-05-29T18:00:00","ND","ND","14.55","ND","ND","ND","1.8","251.7","29.6","51.1","72.3","0"],
    [18096,"2012-05-29T19:00:00","ND","ND","15.40","ND","ND","ND","2","249.1","28.1","55","1","0"],
    [18097,"2012-05-29T20:00:00","ND","ND","28.74","ND","ND","ND","0.3","250.9","27.7","57.2","0","0"],
    [18098,"2012-05-29T21:00:00","ND","ND","27.86","ND","ND","ND","0.1","255.5","26.9","61.4","0","0"],
    [18099,"2012-05-29T22:00:00","ND","ND","40.98","ND","ND","ND","0.7","137.4","25.8","66.4","0","0"],
    [18100,"2012-05-29T23:00:00","ND","ND","52.46","ND","ND","ND","0.2","149.1","25.4","69.1","0","0"],
    [18101,"2012-05-30T00:00:00","ND","ND","35.21","ND","ND","ND","0.3","345.3","24.7","71.6","0","0"],
    [18102,"2012-05-30T01:00:00","ND","ND","30.41","ND","ND","ND","0.1","300","24","74.3","0","0"],
    [18103,"2012-05-30T02:00:00","ND","ND","31.61","ND","ND","ND","0.5","132.4","24","74.8","0","0"],
    [18104,"2012-05-30T03:00:00","ND","ND","29.45","ND","ND","ND","0.2","238.8","22.8","79.2","0","0"],
    [18105,"2012-05-30T04:00:00","ND","ND","26.79","ND","ND","ND","0.1","299.1","22","83","0","0"],
    [18106,"2012-05-30T05:00:00","ND","ND","15.79","ND","ND","ND","0.3","276.9","21.5","84.6","0","0"],
    [18107,"2012-05-30T06:00:00","ND","ND","17.78","ND","ND","ND","0.1","343.7","21.4","84","0.4","0"],
    [18108,"2012-05-30T07:00:00","ND","ND","16.28","ND","ND","ND","0.4","33.5","21.9","81","46.2","0"],
    [18109,"2012-05-30T08:00:00","ND","ND","18.45","ND","ND","ND","0.8","31.7","23.5","75.8","203.2","0"],
    [18110,"2012-05-30T09:00:00","ND","ND","25.34","ND","ND","ND","1.5","52.6","24.9","68.5","396.4","0"],
    [18111,"2012-05-30T10:00:00","ND","ND","33.66","ND","ND","ND","1.1","66.8","26.5","61.1","558","0"],
    [18112,"2012-05-30T11:00:00","ND","ND","24.89","ND","ND","ND","0.6","75.5","28.7","53.2","672.7","0"],
    [18113,"2012-05-30T12:00:00","ND","ND","16.65","ND","ND","ND","1.1","129.5","30.2","48.4","746.5","0"],
    [18114,"2012-05-30T13:00:00","ND","ND","11.00","ND","ND","ND","1.2","66.6","31.3","44.1","616.1","0"],
    [18115,"2012-05-30T14:00:00","ND","ND","14.50","ND","ND","ND","1.7","48.8","31.2","46.4","409.5","0"],
    [18116,"2012-05-30T15:00:00","ND","ND","14.59","ND","ND","ND","0.6","8.2","31.2","48.2","312.7","0"],
    [18117,"2012-05-30T16:00:00","ND","ND","14.50","ND","ND","ND","2.9","268.5","29.8","50.4","195.1","0"],
    [18118,"2012-05-30T17:00:00","ND","ND","12.63","ND","ND","ND","1.9","268.3","29.3","50.2","90.6","0"],
    [18119,"2012-05-30T18:00:00","ND","ND","18.19","ND","ND","ND","1.2","252.5","28.6","51.3","22.2","0"],
    [18120,"2012-05-30T19:00:00","ND","ND","21.96","ND","ND","ND","0.1","37.8","28","53.7","0.3","0"],
    [18121,"2012-05-30T20:00:00","ND","ND","26.50","ND","ND","ND","0.3","124.7","27","59.2","0","0"],
    [18122,"2012-05-30T21:00:00","ND","ND","49.01","ND","ND","ND","0.2","84.7","25.9","64.9","0","0"],
    [18123,"2012-05-30T22:00:00","ND","ND","43.34","ND","ND","ND","0.2","313.8","25.2","66.4","0","0"],
    [18124,"2012-05-30T23:00:00","ND","ND","38.52","ND","ND","ND","0.7","73","24.5","70.5","0","0"],
    [18125,"2012-05-31T00:00:00","ND","ND","42.38","ND","ND","ND","0.6","138.6","24","73.1","0","0"],
    [18126,"2012-05-31T01:00:00","ND","ND","32.83","ND","ND","ND","0.2","263.4","23.8","74.8","0","0"],
    [18127,"2012-05-31T02:00:00","ND","ND","23.52","ND","ND","ND","0.2","263.7","23.3","76.7","0","0"],
    [18128,"2012-05-31T03:00:00","ND","ND","23.35","ND","ND","ND","0.1","18.6","23.2","75.4","0","0"],
    [18129,"2012-05-31T04:00:00","ND","ND","22.05","ND","ND","ND","0.5","49.9","22","82.1","0","0"],
    [18130,"2012-05-31T05:00:00","ND","ND","18.81","ND","ND","ND","0.6","346.8","21.4","84.3","0","0"],
    [18131,"2012-05-31T06:00:00","ND","ND","20.91","ND","ND","ND","0.2","325.4","21.2","83.3","0.3","0"],
    [18132,"2012-05-31T07:00:00","ND","ND","18.11","ND","ND","ND","0.1","250.9","21.7","82.1","33.4","0"],
    [18133,"2012-05-31T08:00:00","ND","ND","18.20","ND","ND","ND","0.5","52","22.6","78.4","87.8","0"],
    [18134,"2012-05-31T09:00:00","ND","ND","21.34","ND","ND","ND","0.8","50.6","23.9","73.8","271.6","0"],
    [18135,"2012-05-31T10:00:00","ND","ND","27.30","ND","ND","ND","0.6","115.5","26.2","63.4","537.9","0"],
    [18136,"2012-05-31T11:00:00","ND","ND","47.80","ND","ND","ND","0.9","132.2","28.2","55.6","634.6","0"],
    [18137,"2012-05-31T12:00:00","ND","ND","47.46","ND","ND","ND","1.2","96.6","29.3","50.6","732.5","0"],
    [18138,"2012-05-31T13:00:00","ND","ND","29.40","ND","ND","ND","0.1","235","30.7","43.9","643.9","0"],
    [18139,"2012-05-31T14:00:00","ND","ND","14.84","ND","ND","ND","1.3","87.5","32.1","40.6","708.2","0"],
    [18140,"2012-05-31T15:00:00","ND","ND","12.19","ND","ND","ND","1.2","36.2","32.3","39.7","550.4","0"],
    [18141,"2012-05-31T16:00:00","ND","ND","11.83","ND","ND","ND","1.5","31.9","31.4","42.9","133.7","0"],
    [18142,"2012-05-31T17:00:00","ND","ND","10.74","ND","ND","ND","0.9","324","30.8","46.7","150.9","0"],
    [18143,"2012-05-31T18:00:00","ND","ND","16.26","ND","ND","ND","1.1","256.7","29.7","49.5","12.9","0"],
    [18144,"2012-05-31T19:00:00","ND","ND","19.97","ND","ND","ND","0.5","259.4","28.7","51.8","1.2","0"],
    [18145,"2012-05-31T20:00:00","ND","ND","29.29","ND","ND","ND","0.3","94.6","28.3","53.5","0","0"],
    [18146,"2012-05-31T21:00:00","ND","ND","41.84","ND","ND","ND","1","100.4","27.9","57.3","0","0"],
    [18147,"2012-05-31T22:00:00","ND","ND","51.14","ND","ND","ND","0.6","73.7","26.4","65.3","0","0"],
    [18148,"2012-05-31T23:00:00","ND","ND","44.07","ND","ND","ND","ND","ND","ND","ND","ND","ND"],
    [18149,"2012-06-01T00:00:00","ND","ND","ND","ND","ND","ND","ND","ND","ND","ND","ND","ND"],
    [18150,"2012-06-01T01:00:00","ND","ND","ND","ND","ND","ND","ND","ND","ND","ND","ND","ND"],
    [18151,"2012-06-01T02:00:00","ND","ND","ND","ND","ND","ND","ND","ND","ND","ND","ND","ND"],
    [18152,"2012-06-01T03:00:00","ND","ND","ND","ND","ND","ND","ND","ND","ND","ND","ND","ND"],
    [18153,"2012-06-01T04:00:00","ND","ND","ND","ND","ND","ND","ND","ND","ND","ND","ND","ND"],
    [18154,"2012-06-01T05:00:00","ND","ND","ND","ND","ND","ND","ND","ND","ND","ND","ND","ND"],
    [18155,"2012-06-01T06:00:00","ND","ND","ND","ND","ND","ND","ND","ND","ND","ND","ND","ND"],
    [18156,"2012-06-01T07:00:00","ND","ND","ND","ND","ND","ND","0.3","18.8","22.5","80.7","47.3","0"],
    [18157,"2012-06-01T08:00:00","ND","ND","ND","ND","ND","ND","ND","ND","ND","ND","ND","ND"],
    [18158,"2012-06-01T09:00:00","ND","ND","ND","ND","ND","ND","ND","ND","ND","ND","ND","ND"],
    [18159,"2012-06-01T10:00:00","ND","ND","ND","ND","ND","ND","ND","ND","ND","ND","ND","ND"],
    [18160,"2012-06-01T11:00:00","ND","ND","ND","ND","ND","ND","0.7","130","28.5","54.7","487.4","0"],
    [18161,"2012-06-01T12:00:00","ND","ND","ND","ND","ND","ND","0.9","71.3","29.1","53.7","564.7","0"],
    [18162,"2012-06-01T13:00:00","ND","ND","18.88","ND","ND","ND","1.2","42.1","29.3","54.3","314.9","0"],
    [18163,"2012-06-01T14:00:00","ND","ND","17.33","ND","ND","ND","0.6","260.6","29.7","52.7","309.8","0"],
    [18164,"2012-06-01T15:00:00","ND","ND","24.14","ND","ND","ND","1.2","272.6","29.7","51.1","179.9","0"],
    [18165,"2012-06-01T16:00:00","ND","ND","25.52","ND","ND","ND","2.4","261.3","29.5","50.6","188.9","0"],
    [18166,"2012-06-01T17:00:00","ND","ND","20.02","ND","ND","ND","2","263.9","29.5","50.1","174.2","0"],
    [18167,"2012-06-01T18:00:00","ND","ND","20.09","ND","ND","ND","1","262.2","28.8","52","30.4","0"],
    [18168,"2012-06-01T19:00:00","ND","ND","21.48","ND","ND","ND","0.4","227.3","27.8","55","0.4","0"],
    [18169,"2012-06-01T20:00:00","ND","ND","34.01","ND","ND","ND","0.4","257.6","26.7","60.1","0","0"],
    [18170,"2012-06-01T21:00:00","ND","ND","45.21","ND","ND","ND","0.5","103.6","26.4","63.2","0","0"],
    [18171,"2012-06-01T22:00:00","ND","ND","55.25","ND","ND","ND","0.8","206.9","26.1","65","0","0"],
    [18172,"2012-06-01T23:00:00","ND","ND","47.77","ND","ND","ND","0.1","265.8","25.7","66.5","0","0"],
    [18173,"2012-06-02T00:00:00","ND","ND","41.04","ND","ND","ND","0.1","344.3","24.6","71.9","0","0"],
    [18174,"2012-06-02T01:00:00","ND","ND","44.26","ND","ND","ND","0.6","155.8","24.8","70.8","0","0"],
    [18175,"2012-06-02T02:00:00","ND","ND","33.03","ND","ND","ND","0.2","37.4","23.9","75.1","0","0"],
    [18176,"2012-06-02T03:00:00","ND","ND","32.54","ND","ND","ND","0.4","278","23.1","79","0","0"],
    [18177,"2012-06-02T04:00:00","ND","ND","26.89","ND","ND","ND","0.2","269.5","22.8","80.4","0","0"],
    [18178,"2012-06-02T05:00:00","ND","ND","25.80","ND","ND","ND","0.4","238.4","22.3","81.8","0","0"],
    [18179,"2012-06-02T06:00:00","ND","ND","26.07","ND","ND","ND","0.3","311","22.1","83.1","0.4","0"],
    [18180,"2012-06-02T07:00:00","ND","ND","26.00","ND","ND","ND","0.2","39.9","21.9","84.7","13.8","0"],
    [18181,"2012-06-02T08:00:00","ND","ND","26.95","ND","ND","ND","0.1","341.4","23.1","79.2","104.7","0"],
    [18182,"2012-06-02T09:00:00","ND","ND","25.99","ND","ND","ND","0.4","48.3","24.9","72.4","266.5","0"],
    [18183,"2012-06-02T10:00:00","ND","ND","37.92","ND","ND","ND","0.9","62.7","26.9","64.5","549.8","0"],
    [18184,"2012-06-02T11:00:00","ND","ND","67.59","ND","ND","ND","ND","ND","ND","ND","ND","ND"],
    [18185,"2012-06-02T12:00:00","ND","ND","ND","ND","ND","ND","ND","ND","ND","ND","ND","ND"],
    [18186,"2012-06-02T13:00:00","ND","ND","ND","ND","ND","ND","ND","ND","ND","ND","ND","ND"],
    [18187,"2012-06-02T14:00:00","ND","ND","ND","ND","ND","ND","0.8","155","30.9","48","367.9","0"],
    [18188,"2012-06-02T15:00:00","ND","ND","ND","ND","ND","ND","2.8","268.3","31","47","383.8","0"],
    [18189,"2012-06-02T16:00:00","ND","ND","17.33","ND","ND","ND","2.7","264.8","30.5","47.3","236.8","0"],
    [18190,"2012-06-02T17:00:00","ND","ND","16.61","ND","ND","ND","2.7","275.4","30.2","47.8","204.1","0"],
    [18191,"2012-06-02T18:00:00","ND","ND","16.90","ND","ND","ND","1.7","273.1","28.8","50.5","14.1","0.25"],
    [18192,"2012-06-02T19:00:00","ND","ND","16.00","ND","ND","ND","0.2","13.7","28.6","51.4","0.4","0"],
    [18193,"2012-06-02T20:00:00","ND","ND","17.56","ND","ND","ND","0.8","273.9","27.9","53.4","0","0"],
    [18194,"2012-06-02T21:00:00","ND","ND","22.61","ND","ND","ND","1.7","191.1","26.8","58.4","0","0"],
    [18195,"2012-06-02T22:00:00","ND","ND","26.94","ND","ND","ND","1.2","130.7","25.3","67.5","0","0"],
    [18196,"2012-06-02T23:00:00","ND","ND","30.94","ND","ND","ND","0.1","72.7","24.9","67.8","0","0"],
    [18197,"2012-06-03T00:00:00","ND","ND","39.50","ND","ND","ND","0.3","192.5","24.7","69.2","0","0"],
    [18198,"2012-06-03T01:00:00","ND","ND","38.74","ND","ND","ND","0.3","263.9","24","72.8","0","0"],
    [18199,"2012-06-03T02:00:00","ND","ND","46.16","ND","ND","ND","0.2","21.4","23.2","77.2","0","0"],
    [18200,"2012-06-03T03:00:00","ND","ND","38.70","ND","ND","ND","0.2","252.6","22.9","78.2","0","0"],
    [18201,"2012-06-03T04:00:00","ND","ND","34.37","ND","ND","ND","0.9","199.8","22.9","77.1","0","0"],
    [18202,"2012-06-03T05:00:00","ND","ND","33.63","ND","ND","ND","0.2","231.4","22.8","77.5","0","0"],
    [18203,"2012-06-03T06:00:00","ND","ND","31.95","ND","ND","ND","0.4","351.5","22.2","80.9","0.1","0"],
    [18204,"2012-06-03T07:00:00","ND","ND","28.86","ND","ND","ND","0.4","342.9","22","81.2","28.1","0"],
    [18205,"2012-06-03T08:00:00","ND","ND","30.26","ND","ND","ND","0.1","295.4","23.6","73.8","150.8","0"],
    [18206,"2012-06-03T09:00:00","ND","ND","28.81","ND","ND","ND","0.9","111.5","25.1","68.5","338","0"],
    [18207,"2012-06-03T10:00:00","ND","ND","30.56","ND","ND","ND","0.5","90.7","26.4","63.5","433","0"],
    [18208,"2012-06-03T11:00:00","ND","ND","27.25","ND","ND","ND","1","61","27.4","60","478.5","0"],
    [18209,"2012-06-03T12:00:00","ND","ND","24.45","ND","ND","ND","0.4","115.3","28.1","57.5","396.8","0"],
    [18210,"2012-06-03T13:00:00","ND","ND","20.48","ND","ND","ND","0.4","294.6","28.8","54.2","437.3","0"],
    [18211,"2012-06-03T14:00:00","ND","ND","17.74","ND","ND","ND","0.7","219.9","30","50.8","432.1","0"],
    [18212,"2012-06-03T15:00:00","ND","ND","15.76","ND","ND","ND","1.3","264.4","30.2","49.5","330.9","0"],
    [18213,"2012-06-03T16:00:00","ND","ND","17.02","ND","ND","ND","1.1","334.1","30.5","46.9","345.5","0"],
    [18214,"2012-06-03T17:00:00","ND","ND","11.72","ND","ND","ND","1.3","319.7","30.1","47.7","155.1","0"],
    [18215,"2012-06-03T18:00:00","ND","ND","9.79","ND","ND","ND","2","275.8","29.4","49.7","89.6","0"],
    [18216,"2012-06-03T19:00:00","ND","ND","9.14","ND","ND","ND","0.4","281.9","28.3","53","2.7","0"],
    [18217,"2012-06-03T20:00:00","ND","ND","9.92","ND","ND","ND","0.7","246.8","27.3","56.3","0","0"],
    [18218,"2012-06-03T21:00:00","ND","ND","18.28","ND","ND","ND","0.4","128.9","26.8","59.9","0","0"],
    [18219,"2012-06-03T22:00:00","ND","ND","25.26","ND","ND","ND","0.4","68.8","26","66.1","0","0"],
    [18220,"2012-06-03T23:00:00","ND","ND","34.41","ND","ND","ND","0.1","47.9","25.3","68.3","0","0"],
    [18221,"2012-06-04T00:00:00","ND","ND","29.62","ND","ND","ND","0.2","41.3","24.4","71.6","0","0"],
    [18222,"2012-06-04T01:00:00","ND","ND","28.44","ND","ND","ND","0.1","347.5","24.2","73.3","0","0"],
    [18223,"2012-06-04T02:00:00","ND","ND","24.21","ND","ND","ND","0.6","334.7","23.7","75.5","0","0"],
    [18224,"2012-06-04T03:00:00","ND","ND","24.81","ND","ND","ND","0.2","341","23.5","75.8","0","0"],
    [18225,"2012-06-04T04:00:00","ND","ND","24.36","ND","ND","ND","0.2","353.9","23.1","79.9","0","0"],
    [18226,"2012-06-04T05:00:00","ND","ND","24.31","ND","ND","ND","0.2","321.6","22.9","80.3","0","0"],
    [18227,"2012-06-04T06:00:00","ND","ND","21.69","ND","ND","ND","0","31.2","22.7","80.9","0.2","0"],
    [18228,"2012-06-04T07:00:00","ND","ND","21.01","ND","ND","ND","0.6","3.4","22.9","79.2","45","0"],
    [18229,"2012-06-04T08:00:00","ND","ND","21.88","ND","ND","ND","0.7","69.9","24.5","74.3","171.6","0"],
    [18230,"2012-06-04T09:00:00","ND","ND","27.40","ND","ND","ND","1","95.7","25.7","68.2","371.1","0"],
    [18231,"2012-06-04T10:00:00","ND","ND","41.68","ND","ND","ND","0.6","115.2","26.9","63.4","542.9","0"],
    [18232,"2012-06-04T11:00:00","ND","ND","32.09","ND","ND","ND","1.5","148.2","28.5","56.5","635.6","0"],
    [18233,"2012-06-04T12:00:00","ND","ND","31.17","ND","ND","ND","0.8","120.8","29.7","52.6","554.9","0"],
    [18234,"2012-06-04T13:00:00","ND","ND","32.12","ND","ND","ND","1.5","355","30.1","51.1","410.9","0"],
    [18235,"2012-06-04T14:00:00","ND","ND","20.13","ND","ND","ND","1.4","293.9","30.9","47.2","686","0"],
    [18236,"2012-06-04T15:00:00","ND","ND","20.99","ND","ND","ND","2.9","285.3","31.5","43.7","574.8","0"],
    [18237,"2012-06-04T16:00:00","ND","ND","15.88","ND","ND","ND","1.9","317.2","31.6","41.9","434.9","0"],
    [18238,"2012-06-04T17:00:00","ND","ND","12.59","ND","ND","ND","2.3","297.5","31","43.6","257.7","0"],
    [18239,"2012-06-04T18:00:00","ND","ND","12.35","ND","ND","ND","1","306.6","29.6","46.7","46.1","0"],
    [18240,"2012-06-04T19:00:00","ND","ND","11.72","ND","ND","ND","0.3","167.5","28.6","48.6","1","0"],
    [18241,"2012-06-04T20:00:00","ND","ND","23.60","ND","ND","ND","0.6","102.9","28","51.3","0","0"],
    [18242,"2012-06-04T21:00:00","ND","ND","42.59","ND","ND","ND","0.8","130.5","27.6","54.1","0","0"],
    [18243,"2012-06-04T22:00:00","ND","ND","47.65","ND","ND","ND","0.4","93.5","26.4","61.3","0","0"],
    [18244,"2012-06-04T23:00:00","ND","ND","43.35","ND","ND","ND","0.3","62.5","25.7","64.8","0","0"],
    [18245,"2012-06-05T00:00:00","ND","ND","37.47","ND","ND","ND","0","106.7","25.2","66.9","0","0"],
    [18246,"2012-06-05T01:00:00","ND","ND","35.75","ND","ND","ND","0.3","321","24.4","70.9","0","0"],
    [18247,"2012-06-05T02:00:00","ND","ND","33.40","ND","ND","ND","1","166","24.5","67.9","0","0"],
    [18248,"2012-06-05T03:00:00","ND","ND","30.91","ND","ND","ND","0.5","153.3","24.4","66.6","0","0"],
    [18249,"2012-06-05T04:00:00","ND","ND","28.76","ND","ND","ND","0.3","17.5","23.5","73.2","0","0"],
    [18250,"2012-06-05T05:00:00","ND","ND","15.61","ND","ND","ND","0.3","252.4","23.6","72.4","0","0"],
    [18251,"2012-06-05T06:00:00","ND","ND","20.70","ND","ND","ND","0.6","48.9","23.3","76.2","0.3","0"],
    [18252,"2012-06-05T07:00:00","ND","ND","23.41","ND","ND","ND","0.9","11.5","22.6","78.8","8.5","0"],
    [18253,"2012-06-05T08:00:00","ND","ND","29.99","ND","ND","ND","0.1","142.4","23.4","75.7","38.7","0"],
    [18254,"2012-06-05T09:00:00","ND","ND","26.98","ND","ND","ND","0.1","325","24.4","72.5","120.5","0"],
    [18255,"2012-06-05T10:00:00","ND","ND","33.23","ND","ND","ND","0.6","74.8","25.1","69.6","209.4","0"],
    [18256,"2012-06-05T11:00:00","ND","ND","47.37","ND","ND","ND","0.8","118.7","26.5","63.3","495.8","0"],
    [18257,"2012-06-05T12:00:00","ND","ND","56.12","ND","ND","ND","ND","ND","ND","ND","ND","ND"],
    [18258,"2012-06-05T13:00:00","ND","ND","ND","ND","ND","ND","ND","ND","ND","ND","ND","ND"],
    [18259,"2012-06-05T14:00:00","ND","ND","ND","ND","ND","ND","ND","ND","ND","ND","ND","ND"],
    [18260,"2012-06-05T15:00:00","ND","ND","ND","ND","ND","ND","ND","ND","ND","ND","ND","ND"],
    [18261,"2012-06-05T16:00:00","ND","ND","ND","ND","ND","ND","2.3","282.3","30","49.6","219.5","0"],
    [18262,"2012-06-05T17:00:00","ND","ND","ND","ND","ND","ND","2.7","276","29.1","51","123.2","0"],
    [18263,"2012-06-05T18:00:00","ND","ND","17.03","ND","ND","ND","1.6","278.2","28.5","52.5","44.3","0"],
    [18264,"2012-06-05T19:00:00","ND","ND","17.70","ND","ND","ND","0.5","235.7","27.7","55.1","0.9","0"],
    [18265,"2012-06-05T20:00:00","ND","ND","26.19","ND","ND","ND","0.7","127.2","27.4","56.8","0","0"],
    [18266,"2012-06-05T21:00:00","ND","ND","31.35","ND","ND","ND","0.4","101.6","26.5","61","0","0"],
    [18267,"2012-06-05T22:00:00","ND","ND","47.82","ND","ND","ND","0.3","117.7","25.4","66.8","0","0"],
    [18268,"2012-06-05T23:00:00","ND","ND","42.57","ND","ND","ND","0.3","67.1","24.2","71.6","0","0"],
    [18269,"2012-06-06T00:00:00","ND","ND","34.52","ND","ND","ND","0.1","80.2","23.7","74.1","0","0"],
    [18270,"2012-06-06T01:00:00","ND","ND","30.25","ND","ND","ND","0.4","106.5","23.2","76.3","0","0"],
    [18271,"2012-06-06T02:00:00","ND","ND","29.77","ND","ND","ND","0.2","158.6","23.1","76.7","0","0"],
    [18272,"2012-06-06T03:00:00","ND","ND","27.58","ND","ND","ND","0.4","35.8","22.5","80","0","0"],
    [18273,"2012-06-06T04:00:00","ND","ND","29.28","ND","ND","ND","ND","ND","ND","ND","ND","ND"],
    [18274,"2012-06-06T05:00:00","ND","ND","ND","ND","ND","ND","ND","ND","ND","ND","ND","ND"],
    [18275,"2012-06-06T06:00:00","ND","ND","ND","ND","ND","ND","ND","ND","ND","ND","ND","ND"],
    [18276,"2012-06-06T07:00:00","ND","ND","ND","ND","ND","ND","ND","ND","ND","ND","ND","ND"],
    [18277,"2012-06-06T08:00:00","ND","ND","ND","ND","ND","ND","0.2","180.5","22.4","80.9","111.6","0"],
    [18278,"2012-06-06T09:00:00","ND","ND","ND","ND","ND","ND","0.9","123.5","24.6","71.3","331.4","0"],
    [18279,"2012-06-06T10:00:00","ND","ND","41.85","ND","ND","ND","1.2","130.1","26.2","66.3","501.1","0"],
    [18280,"2012-06-06T11:00:00","ND","ND","59.70","ND","ND","ND","0.9","118","27.9","59.5","605.6","0"],
    [18281,"2012-06-06T12:00:00","ND","ND","49.22","ND","ND","ND","1.1","37.5","28.9","55.7","645.9","0"],
    [18282,"2012-06-06T13:00:00","ND","ND","37.11","ND","ND","ND","1.3","9.7","30.1","52.6","557.2","0"],
    [18283,"2012-06-06T14:00:00","ND","ND","26.70","ND","ND","ND","0.3","41.3","31.1","49.9","452.6","0"],
    [18284,"2012-06-06T15:00:00","ND","ND","25.49","ND","ND","ND","3.9","280.1","31.5","45.1","597.1","0"],
    [18285,"2012-06-06T16:00:00","ND","ND","20.86","ND","ND","ND","3.6","276.9","31.3","44.8","432.8","0"],
    [18286,"2012-06-06T17:00:00","ND","ND","9.94","ND","ND","ND","2.7","277","30.7","45.5","210.8","0"],
    [18287,"2012-06-06T18:00:00","ND","ND","10.69","ND","ND","ND","2","278.1","30","45.6","73.2","0"],
    [18288,"2012-06-06T19:00:00","ND","ND","14.44","ND","ND","ND","0.5","145.8","29.2","48.8","1.8","0"],
    [18289,"2012-06-06T20:00:00","ND","ND","18.72","ND","ND","ND","0.1","124.3","28.1","53.2","0","0"],
    [18290,"2012-06-06T21:00:00","ND","ND","34.44","ND","ND","ND","0.1","76.1","27.4","55.8","0","0"],
    [18291,"2012-06-06T22:00:00","ND","ND","44.35","ND","ND","ND","0.6","115.4","26.6","61.1","0","0"],
    [18292,"2012-06-06T23:00:00","ND","ND","44.65","ND","ND","ND","0.5","358.2","25","68","0","0"],
    [18293,"2012-06-07T00:00:00","ND","ND","37.65","ND","ND","ND","0.4","230.4","24.7","70.1","0","0"],
    [18294,"2012-06-07T01:00:00","ND","ND","34.07","ND","ND","ND","0.1","296.7","24.1","73","0","0"],
    [18295,"2012-06-07T02:00:00","ND","ND","33.10","ND","ND","ND","0.4","332.7","23.2","78.3","0","0"],
    [18296,"2012-06-07T03:00:00","ND","ND","29.50","ND","ND","ND","0.7","235.6","22.9","79.3","0","0"],
    [18297,"2012-06-07T04:00:00","ND","ND","26.46","ND","ND","ND","0.4","251.6","22.8","79.6","0","0"],
    [18298,"2012-06-07T05:00:00","ND","ND","25.20","ND","ND","ND","0.4","272.6","22.3","82","0","0"],
    [18299,"2012-06-07T06:00:00","ND","ND","23.67","ND","ND","ND","0.3","268.2","21.9","83.6","0.3","0"],
    [18300,"2012-06-07T07:00:00","ND","ND","20.71","ND","ND","ND","0.4","294.7","22.1","82.8","29.9","0"],
    [18301,"2012-06-07T08:00:00","ND","ND","20.65","ND","ND","ND","0.5","84.3","24.3","73.1","186.4","0"],
    [18302,"2012-06-07T09:00:00","ND","ND","28.03","ND","ND","ND","0.3","109.9","25.6","68.9","342.7","0"],
    [18303,"2012-06-07T10:00:00","ND","ND","36.95","ND","ND","ND","1.2","145.7","27.1","61.9","502.8","0"],
    [18304,"2012-06-07T11:00:00","ND","ND","66.63","ND","ND","ND","1.4","138.2","28.6","56.3","630.7","0"],
    [18305,"2012-06-07T12:00:00","ND","ND","45.94","ND","ND","ND","1.1","126","29.7","53.9","690.6","0"],
    [18306,"2012-06-07T13:00:00","ND","ND","24.91","ND","ND","ND","0.9","110.6","30.9","50.2","618.5","0"],
    [18307,"2012-06-07T14:00:00","ND","ND","19.86","ND","ND","ND","1.3","87.3","32.3","46.5","655.9","0"],
    [18308,"2012-06-07T15:00:00","ND","ND","19.35","ND","ND","ND","1.1","348.3","31.6","48.5","388.7","0"],
    [18309,"2012-06-07T16:00:00","ND","ND","20.89","ND","ND","ND","2.6","270.1","31.4","46.7","304.8","0"],
    [18310,"2012-06-07T17:00:00","ND","ND","19.16","ND","ND","ND","2.1","295.4","30.6","46.5","97.7","0"],
    [18311,"2012-06-07T18:00:00","ND","ND","18.84","ND","ND","ND","1.5","266.3","29.8","47.9","29.2","0"],
    [18312,"2012-06-07T19:00:00","ND","ND","19.54","ND","ND","ND","0.4","108.2","29.1","50.8","1.1","0"],
    [18313,"2012-06-07T20:00:00","ND","ND","25.07","ND","ND","ND","0.4","38.5","28.1","53.9","0","0"],
    [18314,"2012-06-07T21:00:00","ND","ND","47.96","ND","ND","ND","1.3","118.5","27.2","60","0","0"],
    [18315,"2012-06-07T22:00:00","ND","ND","48.61","ND","ND","ND","0.3","84.4","25.6","68.4","0","0"],
    [18316,"2012-06-07T23:00:00","ND","ND","39.88","ND","ND","ND","0.4","205.6","25.7","68","0","0"],
    [18317,"2012-06-08T00:00:00","ND","ND","32.43","ND","ND","ND","0.3","68","25.6","68.8","0","0"],
    [18318,"2012-06-08T01:00:00","ND","ND","33.22","ND","ND","ND","0.3","254.1","24.6","73","0","0"],
    [18319,"2012-06-08T02:00:00","ND","ND","30.49","ND","ND","ND","1.2","156.9","24.8","73.2","0","0"],
    [18320,"2012-06-08T03:00:00","ND","ND","31.36","ND","ND","ND","0.7","226.9","24","77","0","0"],
    [18321,"2012-06-08T04:00:00","ND","ND","26.84","ND","ND","ND","0.5","195.7","23.7","77.9","0","0"],
    [18322,"2012-06-08T05:00:00","ND","ND","24.53","ND","ND","ND","0.2","305.2","23","80.5","0","0"],
    [18323,"2012-06-08T06:00:00","ND","ND","18.43","ND","ND","ND","0.2","329.3","22.7","82.5","0.3","0"],
    [18324,"2012-06-08T07:00:00","ND","ND","20.15","ND","ND","ND","0.1","346.8","23.1","80.1","42.5","0"],
    [18325,"2012-06-08T08:00:00","ND","ND","21.63","ND","ND","ND","0.3","166.5","24.2","76.4","117.7","0"],
    [18326,"2012-06-08T09:00:00","ND","ND","25.96","ND","ND","ND","ND","ND","ND","ND","ND","ND"],
    [18327,"2012-06-08T10:00:00","ND","ND","ND","ND","ND","ND","ND","ND","ND","ND","ND","ND"],
    [18328,"2012-06-08T11:00:00","ND","ND","ND","ND","ND","ND","ND","ND","ND","ND","ND","ND"],
    [18329,"2012-06-08T12:00:00","ND","ND","ND","ND","ND","ND","1.3","50.1","29.1","56.9","572.1","0"],
    [18330,"2012-06-08T13:00:00","ND","ND","ND","ND","ND","ND","1.5","51","29.9","54.5","498.5","0"],
    [18331,"2012-06-08T14:00:00","ND","ND","14.66","ND","ND","ND","1.5","63.2","31.3","49.2","604.9","0"],
    [18332,"2012-06-08T15:00:00","ND","ND","17.37","ND","ND","ND","2.3","278.5","31.3","46","283.2","0"],
    [18333,"2012-06-08T16:00:00","ND","ND","13.56","ND","ND","ND","3","267.2","30.5","46.8","227.8","0"],
    [18334,"2012-06-08T17:00:00","ND","ND","12.07","ND","ND","ND","1.1","291.8","29.7","48.2","66.6","0"],
    [18335,"2012-06-08T18:00:00","ND","ND","14.31","ND","ND","ND","0.5","314.6","28.9","49.7","12","0"],
    [18336,"2012-06-08T19:00:00","ND","ND","20.17","ND","ND","ND","0.7","299.5","27.7","53.8","0.4","0"],
    [18337,"2012-06-08T20:00:00","ND","ND","25.11","ND","ND","ND","1.2","101.6","27.2","57.6","0","0"],
    [18338,"2012-06-08T21:00:00","ND","ND","29.52","ND","ND","ND","1.5","157.4","25.5","67.8","0","0"],
    [18339,"2012-06-08T22:00:00","ND","ND","34.26","ND","ND","ND","1.6","212.6","23.9","75.3","0","0.51"],
    [18340,"2012-06-08T23:00:00","ND","ND","28.60","ND","ND","ND","0.6","238.3","23.3","81.4","0","0.25"],
    [18341,"2012-06-09T00:00:00","ND","ND","18.84","ND","ND","ND","0.4","245.5","23.2","81.1","0","0"],
    [18342,"2012-06-09T01:00:00","ND","ND","28.77","ND","ND","ND","0.2","259.7","22.6","84.3","0","0"],
    [18343,"2012-06-09T02:00:00","ND","ND","25.82","ND","ND","ND","0.1","303.8","22.1","84.2","0","0"],
    [18344,"2012-06-09T03:00:00","ND","ND","21.97","ND","ND","ND","0.1","286.4","21.8","82","0","0"],
    [18345,"2012-06-09T04:00:00","ND","ND","19.58","ND","ND","ND","0.1","69.7","21.5","83.8","0","0"],
    [18346,"2012-06-09T05:00:00","ND","ND","25.31","ND","ND","ND","0.7","342.6","20.9","84.6","0","0"],
    [18347,"2012-06-09T06:00:00","ND","ND","21.94","ND","ND","ND","0.2","28.1","20.6","87.1","0.4","0"],
    [18348,"2012-06-09T07:00:00","ND","ND","22.45","ND","ND","ND","0.1","272.5","21.1","84.5","43.9","0"],
    [18349,"2012-06-09T08:00:00","ND","ND","25.24","ND","ND","ND","0.3","66.3","23.5","74","196.6","0"],
    [18350,"2012-06-09T09:00:00","ND","ND","24.47","ND","ND","ND","1.2","68","25.4","66.2","393.8","0"],
    [18351,"2012-06-09T10:00:00","ND","ND","40.64","ND","ND","ND","1.1","78.3","26.4","61.7","552.4","0"],
    [18352,"2012-06-09T11:00:00","ND","ND","39.30","ND","ND","ND","1","89.4","27.7","57","605.1","0"],
    [18353,"2012-06-09T12:00:00","ND","ND","19.96","ND","ND","ND","0.7","71.5","28.5","54.6","446.7","0"],
    [18354,"2012-06-09T13:00:00","ND","ND","14.73","ND","ND","ND","1.3","115.1","29.3","52.6","436.7","0"],
    [18355,"2012-06-09T14:00:00","ND","ND","14.16","ND","ND","ND","1.1","111.9","30","51.3","372.4","0"],
    [18356,"2012-06-09T15:00:00","ND","ND","20.09","ND","ND","ND","0.4","101.9","30.8","49.7","399.2","0"],
    [18357,"2012-06-09T16:00:00","ND","ND","16.70","ND","ND","ND","1.4","281.6","31.4","47.3","453","0"],
    [18358,"2012-06-09T17:00:00","ND","ND","22.12","ND","ND","ND","2.5","266.6","30.5","47.2","230.7","0"],
    [18359,"2012-06-09T18:00:00","ND","ND","15.42","ND","ND","ND","2.2","265.4","29.4","49.2","68.3","0"],
    [18360,"2012-06-09T19:00:00","ND","ND","13.15","ND","ND","ND","1.9","252.3","28.2","52.4","1.5","0"],
    [18361,"2012-06-09T20:00:00","ND","ND","17.53","ND","ND","ND","0.2","183.8","28.1","52.8","0","0"],
    [18362,"2012-06-09T21:00:00","ND","ND","25.52","ND","ND","ND","0.7","132.5","27.8","55.7","0","0"],
    [18363,"2012-06-09T22:00:00","ND","ND","30.67","ND","ND","ND","0.4","33.4","26.5","61.8","0","0"],
    [18364,"2012-06-09T23:00:00","ND","ND","38.29","ND","ND","ND","0.2","167.7","26.2","64.2","0","0"],
    [18365,"2012-06-10T00:00:00","ND","ND","37.27","ND","ND","ND","0.5","347.1","25.3","67.2","0","0"],
    [18366,"2012-06-10T01:00:00","ND","ND","39.59","ND","ND","ND","0.3","159.6","24.9","68.9","0","0"],
    [18367,"2012-06-10T02:00:00","ND","ND","36.43","ND","ND","ND","0.2","343.8","24.3","72.3","0","0"],
    [18368,"2012-06-10T03:00:00","ND","ND","34.74","ND","ND","ND","0.1","238","23.9","73.9","0","0"],
    [18369,"2012-06-10T04:00:00","ND","ND","31.28","ND","ND","ND","0.3","344.6","23.4","76","0","0"],
    [18370,"2012-06-10T05:00:00","ND","ND","30.20","ND","ND","ND","0.3","330.9","22.8","78.5","0","0"],
    [18371,"2012-06-10T06:00:00","ND","ND","29.63","ND","ND","ND","0.3","317.7","22.4","80.2","0.2","0"],
    [18372,"2012-06-10T07:00:00","ND","ND","26.94","ND","ND","ND","0.3","346.1","22.2","80.6","24.7","0"],
    [18373,"2012-06-10T08:00:00","ND","ND","25.84","ND","ND","ND","ND","ND","ND","ND","ND","ND"],
    [18374,"2012-06-10T09:00:00","ND","ND","ND","ND","ND","ND","ND","ND","ND","ND","ND","ND"],
    [18375,"2012-06-10T10:00:00","ND","ND","ND","ND","ND","ND","ND","ND","ND","ND","ND","ND"],
    [18376,"2012-06-10T11:00:00","ND","ND","ND","ND","ND","ND","ND","ND","ND","ND","ND","ND"],
    [18377,"2012-06-10T12:00:00","ND","ND","ND","ND","ND","ND","ND","ND","ND","ND","ND","ND"],
    [18378,"2012-06-10T13:00:00","ND","ND","ND","ND","ND","ND","ND","ND","ND","ND","ND","ND"],
    [18379,"2012-06-10T14:00:00","ND","ND","ND","ND","ND","ND","1.2","171.9","31.5","47.5","589.5","0"],
    [18380,"2012-06-10T15:00:00","ND","ND","ND","ND","ND","ND","1.3","76.7","31.5","48.1","303.9","0"],
    [18381,"2012-06-10T16:00:00","ND","ND","14.26","ND","ND","ND","1.3","345.3","31.4","48.4","226.3","0"],
    [18382,"2012-06-10T17:00:00","ND","ND","14.72","ND","ND","ND","1.8","264.5","30.9","50.1","143.1","0"],
    [18383,"2012-06-10T18:00:00","ND","ND","10.64","ND","ND","ND","2","260.5","29.7","52.6","45.3","0"],
    [18384,"2012-06-10T19:00:00","ND","ND","11.38","ND","ND","ND","0.7","262.3","28.9","54.2","1.7","0"],
    [18385,"2012-06-10T20:00:00","ND","ND","13.30","ND","ND","ND","0.2","190.4","28.2","57.2","0","0"],
    [18386,"2012-06-10T21:00:00","ND","ND","19.30","ND","ND","ND","0.7","112","28.2","58","0","0"],
    [18387,"2012-06-10T22:00:00","ND","ND","38.38","ND","ND","ND","1","104.2","27.3","62.5","0","0"],
    [18388,"2012-06-10T23:00:00","ND","ND","41.45","ND","ND","ND","0.2","50.3","26.3","67","0","0"],
    [18389,"2012-06-11T00:00:00","ND","ND","40.16","ND","ND","ND","1.1","177.4","26.4","66.2","0","0"],
    [18390,"2012-06-11T01:00:00","ND","ND","33.30","ND","ND","ND","0.4","86.6","25.7","69.6","0","0"],
    [18391,"2012-06-11T02:00:00","ND","ND","33.53","ND","ND","ND","0.3","81.7","25.1","72.4","0","0"],
    [18392,"2012-06-11T03:00:00","ND","ND","24.30","ND","ND","ND","0.4","111","24.9","73.3","0","0"],
    [18393,"2012-06-11T04:00:00","ND","ND","18.11","ND","ND","ND","0","125.7","24.3","75.9","0","0"],
    [18394,"2012-06-11T05:00:00","ND","ND","18.53","ND","ND","ND","0.3","292.2","23.7","79.7","0","0"],
    [18395,"2012-06-11T06:00:00","ND","ND","15.38","ND","ND","ND","0.4","24","23.6","79.1","0.4","0"],
    [18396,"2012-06-11T07:00:00","ND","ND","16.74","ND","ND","ND","0.7","47.4","23.5","81","41.1","0"],
    [18397,"2012-06-11T08:00:00","ND","ND","18.25","ND","ND","ND","0.5","177.1","24.2","75.9","155.7","0"],
    [18398,"2012-06-11T09:00:00","ND","ND","20.98","ND","ND","ND","0.9","156","25.6","69.6","227.2","0"],
    [18399,"2012-06-11T10:00:00","ND","ND","18.76","ND","ND","ND","0.7","42.7","26.6","65.6","248.1","0"],
    [18400,"2012-06-11T11:00:00","ND","ND","26.15","ND","ND","ND","1.2","36","27.6","61.8","504.7","0"],
    [18401,"2012-06-11T12:00:00","ND","ND","28.65","ND","ND","ND","1.1","105.8","28.8","53.4","473.5","0"],
    [18402,"2012-06-11T13:00:00","ND","ND","25.45","ND","ND","ND","0.9","142.2","29.7","51","553.5","0"],
    [18403,"2012-06-11T14:00:00","ND","ND","13.28","ND","ND","ND","0.7","17.4","30.2","50.2","408.8","0"],
    [18404,"2012-06-11T15:00:00","ND","ND","11.36","ND","ND","ND","0.8","350.9","30.2","49.4","181.5","0"],
    [18405,"2012-06-11T16:00:00","ND","ND","11.73","ND","ND","ND","2.8","258.1","28.8","52.5","128.7","0"],
    [18406,"2012-06-11T17:00:00","ND","ND","9.23","ND","ND","ND","2.7","262.9","28.9","52","141.1","0"],
    [18407,"2012-06-11T18:00:00","ND","ND","9.54","ND","ND","ND","1.1","260.7","28.8","52","29.9","0"],
    [18408,"2012-06-11T19:00:00","ND","ND","10.20","ND","ND","ND","0.6","235.5","28","53.7","1","0"],
    [18409,"2012-06-11T20:00:00","ND","ND","21.19","ND","ND","ND","0.3","90.5","27.6","55.3","0","0"],
    [18410,"2012-06-11T21:00:00","ND","ND","27.97","ND","ND","ND","0.9","76.7","27.1","58.3","0","0"],
    [18411,"2012-06-11T22:00:00","ND","ND","39.20","ND","ND","ND","0.6","121.7","26.5","60.2","0","0"],
    [18412,"2012-06-11T23:00:00","ND","ND","33.05","ND","ND","ND","0.6","144.9","25.7","64.8","0","0"],
    [18413,"2012-06-12T00:00:00","ND","ND","26.05","ND","ND","ND","0.4","132.3","25","68.7","0","0"],
    [18414,"2012-06-12T01:00:00","ND","ND","24.71","ND","ND","ND","0.9","162","24.4","71.9","0","0"],
    [18415,"2012-06-12T02:00:00","ND","ND","21.33","ND","ND","ND","1.3","170.2","24.2","74.3","0","0"],
    [18416,"2012-06-12T03:00:00","ND","ND","18.16","ND","ND","ND","0.9","134.2","23.2","81.7","0","1.78"],
    [18417,"2012-06-12T04:00:00","ND","ND","15.20","ND","ND","ND","0.3","64.3","21.9","91.5","0","4.57"],
    [18418,"2012-06-12T05:00:00","ND","ND","13.55","ND","ND","ND","0.2","293.4","21.4","94.8","0","7.11"],
    [18419,"2012-06-12T06:00:00","ND","ND","13.90","ND","ND","ND","0.2","316.4","21.6","92.8","0.1","0.25"],
    [18420,"2012-06-12T07:00:00","ND","ND","12.53","ND","ND","ND","0.3","252.4","21.8","92.7","17.1","0"],
    [18421,"2012-06-12T08:00:00","ND","ND","12.63","ND","ND","ND","0.5","165","22.6","89.2","62.6","0.25"],
    [18422,"2012-06-12T09:00:00","ND","ND","13.25","ND","ND","ND","0.6","121.8","23.7","84.3","161.3","0"],
    [18423,"2012-06-12T10:00:00","ND","ND","22.95","ND","ND","ND","0.8","108.7","25","75.9","325.2","0"],
    [18424,"2012-06-12T11:00:00","ND","ND","40.81","ND","ND","ND","1.3","97.7","25.4","73.6","286.5","0"],
    [18425,"2012-06-12T12:00:00","ND","ND","49.11","ND","ND","ND","0.7","53.6","25.6","72.4","237.3","0"],
    [18426,"2012-06-12T13:00:00","ND","ND","24.50","ND","ND","ND","0.7","56.5","26.8","68.1","342.4","0"],
    [18427,"2012-06-12T14:00:00","ND","ND","19.50","ND","ND","ND","0.9","56.7","27.4","64.4","293.3","0"],
    [18428,"2012-06-12T15:00:00","ND","ND","22.67","ND","ND","ND","1.4","50.7","27.6","61.2","312.8","0"],
    [18429,"2012-06-12T16:00:00","ND","ND","19.53","ND","ND","ND","0.6","22.1","27.7","60","144.7","0"],
    [18430,"2012-06-12T17:00:00","ND","ND","17.54","ND","ND","ND","1.8","278.5","27.3","55.8","125.9","0"],
    [18431,"2012-06-12T18:00:00","ND","ND","17.71","ND","ND","ND","1.2","262.6","26.8","57.5","26.1","0"],
    [18432,"2012-06-12T19:00:00","ND","ND","15.08","ND","ND","ND","0.1","327.4","26.3","56.8","0.7","0"],
    [18433,"2012-06-12T20:00:00","ND","ND","23.93","ND","ND","ND","0.5","75.1","26.1","59.2","0","0"],
    [18434,"2012-06-12T21:00:00","ND","ND","31.34","ND","ND","ND","0.2","57.2","25.5","63","0","0"],
    [18435,"2012-06-12T22:00:00","ND","ND","40.66","ND","ND","ND","0.9","131.7","24.6","68.1","0","0"],
    [18436,"2012-06-12T23:00:00","ND","ND","44.20","ND","ND","ND","0.1","108.7","24.1","70.4","0","0"],
    [18437,"2012-06-13T00:00:00","ND","ND","30.27","ND","ND","ND","0.9","106.3","23.8","71.7","0","0"],
    [18438,"2012-06-13T01:00:00","ND","ND","26.60","ND","ND","ND","0.4","350.4","23.2","75.9","0","0"],
    [18439,"2012-06-13T02:00:00","ND","ND","25.50","ND","ND","ND","0.2","52.7","22.9","76.5","0","0"],
    [18440,"2012-06-13T03:00:00","ND","ND","22.74","ND","ND","ND","0.5","60","22.5","77.9","0","0"],
    [18441,"2012-06-13T04:00:00","ND","ND","22.11","ND","ND","ND","0","133.6","22.3","80.5","0","0"],
    [18442,"2012-06-13T05:00:00","ND","ND","16.63","ND","ND","ND","0.4","31.8","21.8","84.1","0","0"],
    [18443,"2012-06-13T06:00:00","ND","ND","17.55","ND","ND","ND","0.7","62.3","21.4","86","0.1","0"],
    [18444,"2012-06-13T07:00:00","ND","ND","17.83","ND","ND","ND","0.1","328.7","21.5","85.5","9.2","0"],
    [18445,"2012-06-13T08:00:00","ND","ND","18.61","ND","ND","ND","0.5","157.5","22.5","80.3","66.3","0"],
    [18446,"2012-06-13T09:00:00","ND","ND","21.16","ND","ND","ND","0.4","88.7","23.9","74.7","265.5","0"],
    [18447,"2012-06-13T10:00:00","ND","ND","26.38","ND","ND","ND","0.6","117.8","25.1","67.6","295.8","0"],
    [18448,"2012-06-13T11:00:00","ND","ND","39.83","ND","ND","ND","0.8","133.2","26.8","61.3","513.9","0"],
    [18449,"2012-06-13T12:00:00","ND","ND","38.37","ND","ND","ND","0.8","111.3","27.3","59.6","521.8","0"],
    [18450,"2012-06-13T13:00:00","ND","ND","37.45","ND","ND","ND","0.9","56.6","28.5","55","631.8","0"],
    [18451,"2012-06-13T14:00:00","ND","ND","31.29","ND","ND","ND","1.7","51.1","28.9","55.9","467.5","0"],
    [18452,"2012-06-13T15:00:00","ND","ND","21.92","ND","ND","ND","2","39.8","28.5","57.7","402.2","0"],
    [18453,"2012-06-13T16:00:00","ND","ND","19.95","ND","ND","ND","1.7","276.5","29.2","52.7","421.1","0"],
    [18454,"2012-06-13T17:00:00","ND","ND","15.09","ND","ND","ND","1.5","285.4","29.5","50.1","283.6","0"],
    [18455,"2012-06-13T18:00:00","ND","ND","12.45","ND","ND","ND","1.2","301.8","28","54.1","53.1","0"],
    [18456,"2012-06-13T19:00:00","ND","ND","12.56","ND","ND","ND","0.8","266.9","27","55.8","1.8","0"],
    [18457,"2012-06-13T20:00:00","ND","ND","17.90","ND","ND","ND","0.6","93.4","26.6","57.2","0","0"],
    [18458,"2012-06-13T21:00:00","ND","ND","24.33","ND","ND","ND","0.6","137.1","25.9","59.4","0","0"],
    [18459,"2012-06-13T22:00:00","ND","ND","31.78","ND","ND","ND","0.5","237.4","25.3","61.2","0","0"],
    [18460,"2012-06-13T23:00:00","ND","ND","34.43","ND","ND","ND","0.2","170.1","24.9","64.4","0","0"],
    [18461,"2012-06-14T00:00:00","ND","ND","31.14","ND","ND","ND","0.8","154.9","24.2","66.8","0","0"],
    [18462,"2012-06-14T01:00:00","ND","ND","32.98","ND","ND","ND","1.4","172.1","23.8","70.3","0","0"],
    [18463,"2012-06-14T02:00:00","ND","ND","28.44","ND","ND","ND","0.7","175","23.3","73.8","0","0"],
    [18464,"2012-06-14T03:00:00","ND","ND","25.60","ND","ND","ND","0","228","22.8","76","0","0"],
    [18465,"2012-06-14T04:00:00","ND","ND","23.39","ND","ND","ND","0.3","315.5","22.1","79.3","0","0"],
    [18466,"2012-06-14T05:00:00","ND","ND","19.23","ND","ND","ND","0.3","355.9","21.9","81.3","0","0"],
    [18467,"2012-06-14T06:00:00","ND","ND","17.87","ND","ND","ND","0.4","44.9","21.8","80.8","0.3","0"],
    [18468,"2012-06-14T07:00:00","ND","ND","18.61","ND","ND","ND","0.1","13.8","22","80.2","26.4","0"],
    [18469,"2012-06-14T08:00:00","ND","ND","22.15","ND","ND","ND","0.4","95.4","23.1","74.8","130.4","0"],
    [18470,"2012-06-14T09:00:00","ND","ND","24.67","ND","ND","ND","1.3","58","24.7","71.7","380.4","0"],
    [18471,"2012-06-14T10:00:00","ND","ND","38.21","ND","ND","ND","1.3","67.1","25.6","65.3","446.4","0"],
    [18472,"2012-06-14T11:00:00","ND","ND","52.97","ND","ND","ND","1.4","69","26.9","59.9","517.2","0"],
    [18473,"2012-06-14T12:00:00","ND","ND","32.43","ND","ND","ND","1.5","58.3","28","55.7","684.7","0"],
    [18474,"2012-06-14T13:00:00","ND","ND","18.55","ND","ND","ND","1.3","42.4","28.9","52.4","391.9","0"],
    [18475,"2012-06-14T14:00:00","ND","ND","12.86","ND","ND","ND","1.1","107.6","29.3","50.7","492.6","0"],
    [18476,"2012-06-14T15:00:00","ND","ND","10.16","ND","ND","ND","0.6","82.8","29.8","49.4","186.1","0"],
    [18477,"2012-06-14T16:00:00","ND","ND","11.64","ND","ND","ND","1.5","290","28.9","52.9","210.1","0"],
    [18478,"2012-06-14T17:00:00","ND","ND","14.14","ND","ND","ND","0.8","269.6","29.4","51.1","167.5","0"],
    [18479,"2012-06-14T18:00:00","ND","ND","23.97","ND","ND","ND","0.7","80.5","29","52.5","56.5","0"],
    [18480,"2012-06-14T19:00:00","ND","ND","22.79","ND","ND","ND","0.5","268","27.5","57.6","0.6","0"],
    [18481,"2012-06-14T20:00:00","ND","ND","20.25","ND","ND","ND","0.5","258.9","26.8","59.4","0","0"],
    [18482,"2012-06-14T21:00:00","ND","ND","45.95","ND","ND","ND","0.2","233.2","26.1","62.2","0","0"],
    [18483,"2012-06-14T22:00:00","ND","ND","47.43","ND","ND","ND","0.8","184.2","25.7","63.8","0","0"],
    [18484,"2012-06-14T23:00:00","ND","ND","57.11","ND","ND","ND","0.7","80.7","24.8","70.1","0","0"],
    [18485,"2012-06-15T00:00:00","ND","ND","49.37","ND","ND","ND","0.5","358.9","23.9","73.8","0","0"],
    [18486,"2012-06-15T01:00:00","ND","ND","35.39","ND","ND","ND","0.1","150.9","24.4","70.3","0","0"],
    [18487,"2012-06-15T02:00:00","ND","ND","29.57","ND","ND","ND","0.6","238.8","24.3","70.9","0","0"],
    [18488,"2012-06-15T03:00:00","ND","ND","31.49","ND","ND","ND","1.1","182.2","24.3","72.1","0","0"],
    [18489,"2012-06-15T04:00:00","ND","ND","31.34","ND","ND","ND","0.4","136.9","23.3","76.4","0","0"],
    [18490,"2012-06-15T05:00:00","ND","ND","32.23","ND","ND","ND","0.6","244.8","22.6","79.8","0","0"],
    [18491,"2012-06-15T06:00:00","ND","ND","20.12","ND","ND","ND","0.5","239.7","22.3","81.3","0.2","0"],
    [18492,"2012-06-15T07:00:00","ND","ND","20.98","ND","ND","ND","0.8","240.2","22.6","79","31.8","0"],
    [18493,"2012-06-15T08:00:00","ND","ND","21.06","ND","ND","ND","0.6","184.3","24.1","72.1","165.3","0"],
    [18494,"2012-06-15T09:00:00","ND","ND","25.14","ND","ND","ND","1.3","47.6","25","72.4","390.7","0"],
    [18495,"2012-06-15T10:00:00","ND","ND","26.88","ND","ND","ND","0.9","33.2","26.4","64.7","566","0"],
    [18496,"2012-06-15T11:00:00","ND","ND","36.73","ND","ND","ND","1.4","80.3","27.7","58.3","538.4","0"],
    [18497,"2012-06-15T12:00:00","ND","ND","31.15","ND","ND","ND","0.7","324.8","28.6","54.5","508.5","0"],
    [18498,"2012-06-15T13:00:00","ND","ND","18.22","ND","ND","ND","0.9","28.4","30.1","48.7","618.9","0"],
    [18499,"2012-06-15T14:00:00","ND","ND","17.38","ND","ND","ND","2.1","64.7","30.3","48.7","380.1","0"],
    [18500,"2012-06-15T15:00:00","ND","ND","16.37","ND","ND","ND","0.7","356.9","30.6","47.3","377.9","0"],
    [18501,"2012-06-15T16:00:00","ND","ND","18.69","ND","ND","ND","3.9","287.7","30","48.8","455.9","0"],
    [18502,"2012-06-15T17:00:00","ND","ND","12.98","ND","ND","ND","3.7","284.3","28.7","50.8","243.4","0"],
    [18503,"2012-06-15T18:00:00","ND","ND","8.79","ND","ND","ND","4.6","289.6","27.6","50","38.5","0"],
    [18504,"2012-06-15T19:00:00","ND","ND","10.37","ND","ND","ND","3.2","285.8","27.3","49.7","1.4","0"],
    [18505,"2012-06-15T20:00:00","ND","ND","9.38","ND","ND","ND","2.2","182.1","26","56.9","0","0"],
    [18506,"2012-06-15T21:00:00","ND","ND","12.17","ND","ND","ND","2.7","184.6","23.5","73.8","0","0"],
    [18507,"2012-06-15T22:00:00","ND","ND","16.90","ND","ND","ND","1.6","219.2","23.3","74.3","0","0"],
    [18508,"2012-06-15T23:00:00","ND","ND","34.42","ND","ND","ND","0.3","206.4","22.9","75.2","0","0"],
    [18509,"2012-06-16T00:00:00","ND","ND","29.59","ND","ND","ND","0.1","325.8","22.7","76.1","0","0"],
    [18510,"2012-06-16T01:00:00","ND","ND","36.05","ND","ND","ND","0.1","352.4","22.4","78.5","0","0"],
    [18511,"2012-06-16T02:00:00","ND","ND","36.22","ND","ND","ND","0.8","126.7","21.3","86","0","0"],
    [18512,"2012-06-16T03:00:00","ND","ND","36.23","ND","ND","ND","0.3","267.9","21.2","86.6","0","0"],
    [18513,"2012-06-16T04:00:00","ND","ND","21.59","ND","ND","ND","0.4","63.2","21.3","86","0","0"],
    [18514,"2012-06-16T05:00:00","ND","ND","22.84","ND","ND","ND","0.5","337.7","21.1","87.7","0","0"],
    [18515,"2012-06-16T06:00:00","ND","ND","26.65","ND","ND","ND","0.6","41.4","21.2","86.9","0","0"],
    [18516,"2012-06-16T07:00:00","ND","ND","24.32","ND","ND","ND","0.2","90.4","21.4","87.4","8.2","0"],
    [18517,"2012-06-16T08:00:00","ND","ND","27.48","ND","ND","ND","1","75.4","20.5","92.4","22.1","4.06"],
    [18518,"2012-06-16T09:00:00","ND","ND","28.98","ND","ND","ND","0.2","17.1","20.5","95.2","119.2","8.64"],
    [18519,"2012-06-16T10:00:00","ND","ND","24.39","ND","ND","ND","1.5","33.6","21.8","90.5","285.3","0"],
    [18520,"2012-06-16T11:00:00","ND","ND","28.13","ND","ND","ND","1.9","45.7","22.8","83.5","254","0"],
    [18521,"2012-06-16T12:00:00","ND","ND","32.04","ND","ND","ND","2.3","41.2","23.3","78.9","329.3","0"],
    [18522,"2012-06-16T13:00:00","ND","ND","21.78","ND","ND","ND","1","58.2","24.7","71.1","428.3","0"],
    [18523,"2012-06-16T14:00:00","ND","ND","14.15","ND","ND","ND","1.1","60.1","26.2","60.6","527.4","0"],
    [18524,"2012-06-16T15:00:00","ND","ND","19.46","ND","ND","ND","1.2","120.1","27.5","52.9","512.2","0"],
    [18525,"2012-06-16T16:00:00","ND","ND","12.61","ND","ND","ND","1.3","44.7","27.7","52","201.9","0"],
    [18526,"2012-06-16T17:00:00","ND","ND","10.60","ND","ND","ND","1.8","25.3","26.8","56.1","124.4","0"],
    [18527,"2012-06-16T18:00:00","ND","ND","13.55","ND","ND","ND","1.4","24.2","26.2","57.7","18.4","0"],
    [18528,"2012-06-16T19:00:00","ND","ND","20.67","ND","ND","ND","0.8","15.4","25","64.5","0.5","0.25"],
    [18529,"2012-06-16T20:00:00","ND","ND","34.60","ND","ND","ND","0.4","198.8","24.7","67.1","0","0"],
    [18530,"2012-06-16T21:00:00","ND","ND","28.64","ND","ND","ND","0.4","25.2","23.8","72","0","0"],
    [18531,"2012-06-16T22:00:00","ND","ND","38.64","ND","ND","ND","0.4","51.7","23.4","74.4","0","0"],
    [18532,"2012-06-16T23:00:00","ND","ND","37.11","ND","ND","ND","0.1","3.8","23.3","75.1","0","0"],
    [18533,"2012-06-17T00:00:00","ND","ND","33.32","ND","ND","ND","0.3","162.6","23.4","76.1","0","0"],
    [18534,"2012-06-17T01:00:00","ND","ND","28.94","ND","ND","ND","0.8","155.5","22.8","79.7","0","0"],
    [18535,"2012-06-17T02:00:00","ND","ND","30.49","ND","ND","ND","0.4","239.8","21.9","83.2","0","0"],
    [18536,"2012-06-17T03:00:00","ND","ND","30.14","ND","ND","ND","0.4","218.4","21.8","82.5","0","0"],
    [18537,"2012-06-17T04:00:00","ND","ND","26.83","ND","ND","ND","0.1","280.5","21.7","81.8","0","0"],
    [18538,"2012-06-17T05:00:00","ND","ND","25.93","ND","ND","ND","0.4","79.1","22.1","79.4","0","0"],
    [18539,"2012-06-17T06:00:00","ND","ND","22.96","ND","ND","ND","0.8","21.5","21.7","82.4","0.1","0"],
    [18540,"2012-06-17T07:00:00","ND","ND","22.28","ND","ND","ND","0.5","349","21.2","88.1","14.4","0"],
    [18541,"2012-06-17T08:00:00","ND","ND","24.97","ND","ND","ND","0.3","103.2","22.1","84.9","71.6","0"],
    [18542,"2012-06-17T09:00:00","ND","ND","22.23","ND","ND","ND","0.7","150.4","23.7","76.3","313.8","0"],
    [18543,"2012-06-17T10:00:00","ND","ND","26.44","ND","ND","ND","1.5","115.8","25.5","64.9","559.4","0"],
    [18544,"2012-06-17T11:00:00","ND","ND","33.54","ND","ND","ND","1","135.4","26.9","57.1","681.7","0"],
    [18545,"2012-06-17T12:00:00","ND","ND","16.34","ND","ND","ND","0.5","59","28.1","51.4","751.1","0"],
    [18546,"2012-06-17T13:00:00","ND","ND","11.84","ND","ND","ND","0.4","162.4","29.4","45.3","698.2","0"],
    [18547,"2012-06-17T14:00:00","ND","ND","10.99","ND","ND","ND","0.6","105.4","31.3","38.4","705","0"],
    [18548,"2012-06-17T15:00:00","ND","ND","12.08","ND","ND","ND","1.2","16","31.6","38.5","631.4","0"],
    [18549,"2012-06-17T16:00:00","ND","ND","12.36","ND","ND","ND","1.7","358.8","31.7","39.4","488.6","0"],
    [18550,"2012-06-17T17:00:00","ND","ND","11.05","ND","ND","ND","2","6","31","42.4","215.3","0"],
    [18551,"2012-06-17T18:00:00","ND","ND","7.69","ND","ND","ND","1.4","327","30.1","46.9","50.2","0"],
    [18552,"2012-06-17T19:00:00","ND","ND","12.93","ND","ND","ND","1","321.3","28.1","53.1","1.7","0"],
    [18553,"2012-06-17T20:00:00","ND","ND","11.70","ND","ND","ND","0.9","258.2","27.3","55.4","0","0"],
    [18554,"2012-06-17T21:00:00","ND","ND","17.40","ND","ND","ND","0.5","136.9","27","56.4","0","0"],
    [18555,"2012-06-17T22:00:00","ND","ND","24.61","ND","ND","ND","0.2","233.8","26.4","57.8","0","0"],
    [18556,"2012-06-17T23:00:00","ND","ND","34.70","ND","ND","ND","0.5","133.2","25.9","60.3","0","0"],
    [18557,"2012-06-18T00:00:00","ND","ND","33.87","ND","ND","ND","1.1","132.1","25","66.8","0","0"],
    [18558,"2012-06-18T01:00:00","ND","ND","37.84","ND","ND","ND","1","165.8","24.3","72","0","0"],
    [18559,"2012-06-18T02:00:00","ND","ND","30.23","ND","ND","ND","0.3","281.6","23.5","74.7","0","0"],
    [18560,"2012-06-18T03:00:00","ND","ND","25.45","ND","ND","ND","0.1","350.5","23.2","76.6","0","0"],
    [18561,"2012-06-18T04:00:00","ND","ND","26.49","ND","ND","ND","0.4","345.9","22.9","77.8","0","0"],
    [18562,"2012-06-18T05:00:00","ND","ND","24.39","ND","ND","ND","0.1","117.7","22.9","78.8","0","0"],
    [18563,"2012-06-18T06:00:00","ND","ND","23.94","ND","ND","ND","0.5","133.2","22.5","79.6","0.1","0"],
    [18564,"2012-06-18T07:00:00","ND","ND","22.62","ND","ND","ND","0.6","149.2","22.4","77.7","18.7","0"],
    [18565,"2012-06-18T08:00:00","ND","ND","20.54","ND","ND","ND","1.1","179.5","22.8","78.1","72.4","0"],
    [18566,"2012-06-18T09:00:00","ND","ND","20.53","ND","ND","ND","1.1","174.7","24.3","71","317.7","0"],
    [18567,"2012-06-18T10:00:00","ND","ND","19.17","ND","ND","ND","2.1","147.9","26.3","62.3","587.7","0"],
    [18568,"2012-06-18T11:00:00","ND","ND","19.26","ND","ND","ND","0.9","132.4","27.6","58","624","0"],
    [18569,"2012-06-18T12:00:00","ND","ND","15.84","ND","ND","ND","0.5","278","28","57.1","370.9","0"],
    [18570,"2012-06-18T13:00:00","ND","ND","11.43","ND","ND","ND","1","24.7","29.9","50.4","582","0"],
    [18571,"2012-06-18T14:00:00","ND","ND","13.69","ND","ND","ND","1.1","353.4","30.5","47.3","544.5","0"],
    [18572,"2012-06-18T15:00:00","ND","ND","17.26","ND","ND","ND","1.2","339.2","30.2","47.8","125.7","0"],
    [18573,"2012-06-18T16:00:00","ND","ND","12.40","ND","ND","ND","2.7","278.8","29.9","48.4","343.2","0"],
    [18574,"2012-06-18T17:00:00","ND","ND","11.49","ND","ND","ND","1.7","302.8","29.7","48","184.8","0"],
    [18575,"2012-06-18T18:00:00","ND","ND","5.51","ND","ND","ND","0.8","303.3","28.4","52","29.7","0"],
    [18576,"2012-06-18T19:00:00","ND","ND","6.93","ND","ND","ND","0.5","307","27.3","53.8","0.8","0"],
    [18577,"2012-06-18T20:00:00","ND","ND","13.40","ND","ND","ND","0.7","302.3","27.4","51","0","0"],
    [18578,"2012-06-18T21:00:00","ND","ND","13.73","ND","ND","ND","1.8","136.5","27.1","54.9","0","0"],
    [18579,"2012-06-18T22:00:00","ND","ND","13.77","ND","ND","ND","0.5","157.9","25.1","64.9","0","0"],
    [18580,"2012-06-18T23:00:00","ND","ND","33.67","ND","ND","ND","0.1","235.2","24.4","68.8","0","0"],
    [18581,"2012-06-19T00:00:00","ND","ND","31.82","ND","ND","ND","0.1","318.6","24.3","69.9","0","0"],
    [18582,"2012-06-19T01:00:00","ND","ND","30.06","ND","ND","ND","0.5","64.6","23.8","72.4","0","0"],
    [18583,"2012-06-19T02:00:00","ND","ND","29.77","ND","ND","ND","0.6","258.5","23.2","77.4","0","0"],
    [18584,"2012-06-19T03:00:00","ND","ND","26.88","ND","ND","ND","1","356.5","22.4","83.3","0","0.51"],
    [18585,"2012-06-19T04:00:00","ND","ND","21.12","ND","ND","ND","1.6","8.8","22.5","72.2","0","0.25"],
    [18586,"2012-06-19T05:00:00","ND","ND","20.73","ND","ND","ND","0.2","82.3","21.2","78.8","0","1.27"],
    [18587,"2012-06-19T06:00:00","ND","ND","15.41","ND","ND","ND","0.1","332.2","20","89.1","0","1.52"],
    [18588,"2012-06-19T07:00:00","ND","ND","16.50","ND","ND","ND","1.5","187.1","20.3","89.4","11","0"],
    [18589,"2012-06-19T08:00:00","ND","ND","22.41","ND","ND","ND","0.6","192.1","20.6","87.8","57.7","0.25"],
    [18590,"2012-06-19T09:00:00","ND","ND","31.10","ND","ND","ND","0.4","80.4","22.2","80.1","313.1","0"],
    [18591,"2012-06-19T10:00:00","ND","ND","33.21","ND","ND","ND","1.1","71.3","23.3","78.4","508","0"],
    [18592,"2012-06-19T11:00:00","ND","ND","36.20","ND","ND","ND","0.7","84.2","25.3","67.5","709.6","0"],
    [18593,"2012-06-19T12:00:00","ND","ND","39.06","ND","ND","ND","1","59.4","27.1","60.2","790.1","0"],
    [18594,"2012-06-19T13:00:00","ND","ND","20.16","ND","ND","ND","1.5","16.9","29.1","52.8","700.1","0"],
    [18595,"2012-06-19T14:00:00","ND","ND","18.92","ND","ND","ND","2.1","343.2","29.9","46.1","753.3","0"],
    [18596,"2012-06-19T15:00:00","ND","ND","17.67","ND","ND","ND","2.7","309.4","30.2","43.4","624.7","0"],
    [18597,"2012-06-19T16:00:00","ND","ND","9.96","ND","ND","ND","3.4","289.6","30","43.9","469","0"],
    [18598,"2012-06-19T17:00:00","ND","ND","8.62","ND","ND","ND","2.8","271","29.7","43.8","284.6","0"],
    [18599,"2012-06-19T18:00:00","ND","ND","7.96","ND","ND","ND","1.8","281.9","28.8","43.4","83.7","0"],
    [18600,"2012-06-19T19:00:00","ND","ND","11.31","ND","ND","ND","0.3","353.8","27.7","45.3","2.6","0"],
    [18601,"2012-06-19T20:00:00","ND","ND","18.49","ND","ND","ND","0.1","246.1","26.8","47.8","0","0"],
    [18602,"2012-06-19T21:00:00","ND","ND","28.65","ND","ND","ND","0.6","167.8","26.1","53.8","0","0"],
    [18603,"2012-06-19T22:00:00","ND","ND","44.93","ND","ND","ND","0.1","50.4","24.8","61.1","0","0"],
    [18604,"2012-06-19T23:00:00","ND","ND","48.84","ND","ND","ND","0.2","317.7","23.6","66.5","0","0"],
    [18605,"2012-06-20T00:00:00","ND","ND","42.18","ND","ND","ND","0.4","356.7","22.7","70.9","0","0"],
    [18606,"2012-06-20T01:00:00","ND","ND","36.54","ND","ND","ND","0.4","280.7","22.1","74.2","0","0"],
    [18607,"2012-06-20T02:00:00","ND","ND","33.68","ND","ND","ND","0.2","278.6","21.8","75.4","0","0"],
    [18608,"2012-06-20T03:00:00","ND","ND","29.96","ND","ND","ND","0.2","312.4","21.8","76","0","0"],
    [18609,"2012-06-20T04:00:00","ND","ND","28.15","ND","ND","ND","0.5","349.7","22","76.6","0","0"],
    [18610,"2012-06-20T05:00:00","ND","ND","27.11","ND","ND","ND","0.1","48.7","21.9","76.8","0","0"],
    [18611,"2012-06-20T06:00:00","ND","ND","27.96","ND","ND","ND","0","13.2","21.8","78.1","0.3","0"],
    [18612,"2012-06-20T07:00:00","ND","ND","28.45","ND","ND","ND","0.4","327.5","21.5","81.5","43.6","0"],
    [18613,"2012-06-20T08:00:00","ND","ND","26.80","ND","ND","ND","0.3","133.3","23.2","71.8","140.3","0"],
    [18614,"2012-06-20T09:00:00","ND","ND","29.19","ND","ND","ND","0.5","180.9","25.1","63.8","329.4","0"],
    [18615,"2012-06-20T10:00:00","ND","ND","41.62","ND","ND","ND","1","67.4","26.6","60","481.3","0"],
    [18616,"2012-06-20T11:00:00","ND","ND","45.29","ND","ND","ND","1.3","80.2","27.7","57.3","630.1","0"],
    [18617,"2012-06-20T12:00:00","ND","ND","45.54","ND","ND","ND","0.9","85.7","28.7","52.8","651.1","0"],
    [18618,"2012-06-20T13:00:00","ND","ND","25.74","ND","ND","ND","1.5","55.7","29.9","50.6","628.2","0"],
    [18619,"2012-06-20T14:00:00","ND","ND","18.11","ND","ND","ND","1.3","72.3","30.4","49.3","394.3","0"],
    [18620,"2012-06-20T15:00:00","ND","ND","17.14","ND","ND","ND","3.5","284","30.1","47.8","470.5","0"],
    [18621,"2012-06-20T16:00:00","ND","ND","18.87","ND","ND","ND","3.3","291.9","30.1","46.9","380.4","0"],
    [18622,"2012-06-20T17:00:00","ND","ND","11.86","ND","ND","ND","1.7","275.9","29.1","48.4","90.6","0"],
    [18623,"2012-06-20T18:00:00","ND","ND","10.62","ND","ND","ND","2.3","284.1","28.6","48.4","47.6","0"],
    [18624,"2012-06-20T19:00:00","ND","ND","16.79","ND","ND","ND","0.5","72.3","27.7","52.6","1.2","0"],
    [18625,"2012-06-20T20:00:00","ND","ND","16.17","ND","ND","ND","0.6","336.3","26.8","56.1","0","0"],
    [18626,"2012-06-20T21:00:00","ND","ND","32.42","ND","ND","ND","0.7","64.5","26.3","59.3","0","0"],
    [18627,"2012-06-20T22:00:00","ND","ND","31.14","ND","ND","ND","0.8","120.3","25.6","63.1","0","0"],
    [18628,"2012-06-20T23:00:00","ND","ND","40.31","ND","ND","ND","0.6","55.2","24.7","67.2","0","0"],
    [18629,"2012-06-21T00:00:00","ND","ND","36.71","ND","ND","ND","0.2","63.3","24.1","70.5","0","0"],
    [18630,"2012-06-21T01:00:00","ND","ND","35.86","ND","ND","ND","0.2","23.6","23.6","73.9","0","0"],
    [18631,"2012-06-21T02:00:00","ND","ND","33.05","ND","ND","ND","0.4","120.9","23.7","73.8","0","0.51"],
    [18632,"2012-06-21T03:00:00","ND","ND","29.52","ND","ND","ND","0.2","176.1","22.1","87","0","6.35"],
    [18633,"2012-06-21T04:00:00","ND","ND","26.34","ND","ND","ND","1.5","202","21.4","89.7","0","2.54"],
    [18634,"2012-06-21T05:00:00","ND","ND","22.22","ND","ND","ND","0.7","4.4","21.2","91.7","0","0.25"],
    [18635,"2012-06-21T06:00:00","ND","ND","13.20","ND","ND","ND","0.4","111.7","21.1","90.8","0","0"],
    [18636,"2012-06-21T07:00:00","ND","ND","15.02","ND","ND","ND","0.8","50.3","20.7","90.2","15.1","0.25"],
    [18637,"2012-06-21T08:00:00","ND","ND","22.55","ND","ND","ND","0.4","36.8","21.3","86.2","90.1","0"],
    [18638,"2012-06-21T09:00:00","ND","ND","29.56","ND","ND","ND","0.8","54.3","22.5","79.8","261.1","0"],
    [18639,"2012-06-21T10:00:00","ND","ND","29.68","ND","ND","ND","0.5","38.4","23.8","74.1","423.7","0"],
    [18640,"2012-06-21T11:00:00","ND","ND","29.21","ND","ND","ND","0.9","137.6","25.5","67.3","656.3","0"],
    [18641,"2012-06-21T12:00:00","ND","ND","18.47","ND","ND","ND","1.1","155.3","26.7","61.2","549.7","0"],
    [18642,"2012-06-21T13:00:00","ND","ND","21.52","ND","ND","ND","0.7","66.5","27.9","57","545.3","0"],
    [18643,"2012-06-21T14:00:00","ND","ND","25.46","ND","ND","ND","0.9","357","28.7","53.6","604.7","0"],
    [18644,"2012-06-21T15:00:00","ND","ND","21.36","ND","ND","ND","1.2","327.5","29","51.1","327.7","0"],
    [18645,"2012-06-21T16:00:00","ND","ND","17.92","ND","ND","ND","2.3","260.4","29.4","48.2","419.2","0"],
    [18646,"2012-06-21T17:00:00","ND","ND","18.25","ND","ND","ND","2.6","268.3","28.8","48.9","193.7","0"],
    [18647,"2012-06-21T18:00:00","ND","ND","11.35","ND","ND","ND","1.5","262","28","50.7","90.2","0"],
    [18648,"2012-06-21T19:00:00","ND","ND","16.04","ND","ND","ND","0.5","248.7","27","53.3","1","0"],
    [18649,"2012-06-21T20:00:00","ND","ND","25.29","ND","ND","ND","1.4","241.3","26.1","56.6","0","0"],
    [18650,"2012-06-21T21:00:00","ND","ND","31.82","ND","ND","ND","0.6","73.8","25.4","60.8","0","0"],
    [18651,"2012-06-21T22:00:00","ND","ND","20.24","ND","ND","ND","0.9","351.3","23.6","70.1","0","0"],
    [18652,"2012-06-21T23:00:00","ND","ND","35.28","ND","ND","ND","0.6","211.3","23.2","71.5","0","0"],
    [18653,"2012-06-22T00:00:00","ND","ND","33.68","ND","ND","ND","0.8","233.5","22.8","72.2","0","0"],
    [18654,"2012-06-22T01:00:00","ND","ND","33.05","ND","ND","ND","0.2","351","21.9","76.4","0","0"],
    [18655,"2012-06-22T02:00:00","ND","ND","27.92","ND","ND","ND","0.2","41.5","21.3","79.8","0","0"],
    [18656,"2012-06-22T03:00:00","ND","ND","24.33","ND","ND","ND","0.2","329.8","20.9","81.3","0","0"],
    [18657,"2012-06-22T04:00:00","ND","ND","24.30","ND","ND","ND","0","305.4","21.1","81.4","0","0"],
    [18658,"2012-06-22T05:00:00","ND","ND","23.70","ND","ND","ND","0.8","44.7","20.6","84.2","0","0"],
    [18659,"2012-06-22T06:00:00","ND","ND","22.51","ND","ND","ND","0.4","328.7","19.8","87.9","0.4","0"],
    [18660,"2012-06-22T07:00:00","ND","ND","24.96","ND","ND","ND","0.2","11.4","20","85.8","41.2","0"],
    [18661,"2012-06-22T08:00:00","ND","ND","21.18","ND","ND","ND","0.9","25.1","20.9","83.7","133.9","0"],
    [18662,"2012-06-22T09:00:00","ND","ND","24.41","ND","ND","ND","0.8","55.1","22.9","75.8","342.8","0"],
    [18663,"2012-06-22T10:00:00","ND","ND","32.90","ND","ND","ND","0.4","100.6","25.4","62.5","557","0"],
    [18664,"2012-06-22T11:00:00","ND","ND","50.51","ND","ND","ND","1","106.5","27.1","55.8","634.2","0"],
    [18665,"2012-06-22T12:00:00","ND","ND","43.70","ND","ND","ND","0.7","70.2","28.1","53.5","767.3","0"],
    [18666,"2012-06-22T13:00:00","ND","ND","37.13","ND","ND","ND","1.2","79.5","29.7","49.7","708.3","0"],
    [18667,"2012-06-22T14:00:00","ND","ND","29.90","ND","ND","ND","1.5","37.1","30.5","45","703.8","0"],
    [18668,"2012-06-22T15:00:00","ND","ND","21.52","ND","ND","ND","0.4","82.9","31.8","40.5","612.2","0"],
    [18669,"2012-06-22T16:00:00","ND","ND","16.76","ND","ND","ND","1.9","317.4","31.3","44.1","451.4","0"],
    [18670,"2012-06-22T17:00:00","ND","ND","18.62","ND","ND","ND","2","272.8","31","44.4","259.3","0"],
    [18671,"2012-06-22T18:00:00","ND","ND","20.17","ND","ND","ND","1.1","302","29.4","47.8","70.3","0"],
    [18672,"2012-06-22T19:00:00","ND","ND","23.57","ND","ND","ND","0.5","359.9","27.5","51.1","1.6","0"],
    [18673,"2012-06-22T20:00:00","ND","ND","32.40","ND","ND","ND","0.5","107.9","27.5","51.5","0","0"],
    [18674,"2012-06-22T21:00:00","ND","ND","37.57","ND","ND","ND","0.4","116.5","26.7","55.3","0","0"],
    [18675,"2012-06-22T22:00:00","ND","ND","55.94","ND","ND","ND","0.6","93.3","24.9","64.1","0","0"],
    [18676,"2012-06-22T23:00:00","ND","ND","64.05","ND","ND","ND","0.3","351","23.6","69.4","0","0"],
    [18677,"2012-06-23T00:00:00","ND","ND","47.82","ND","ND","ND","0.2","329.9","22.9","71.4","0","0"],
    [18678,"2012-06-23T01:00:00","ND","ND","44.10","ND","ND","ND","0.3","178.6","22.7","74.3","0","0"],
    [18679,"2012-06-23T02:00:00","ND","ND","39.02","ND","ND","ND","0.2","178.3","22.1","77.4","0","0"],
    [18680,"2012-06-23T03:00:00","ND","ND","34.84","ND","ND","ND","0.1","239.6","21.6","79.3","0","0"],
    [18681,"2012-06-23T04:00:00","ND","ND","29.51","ND","ND","ND","1","204","21.4","79.7","0","0"],
    [18682,"2012-06-23T05:00:00","ND","ND","31.37","ND","ND","ND","0.4","213.2","21","81.2","0","0"],
    [18683,"2012-06-23T06:00:00","ND","ND","27.09","ND","ND","ND","0.4","25.5","20.2","84.1","0.1","0"],
    [18684,"2012-06-23T07:00:00","ND","ND","25.87","ND","ND","ND","0.2","89.7","20.6","82.3","9.5","0"],
    [18685,"2012-06-23T08:00:00","ND","ND","25.55","ND","ND","ND","1","41.9","21","81.2","138.4","0"],
    [18686,"2012-06-23T09:00:00","ND","ND","30.72","ND","ND","ND","0.8","61.6","22.7","74.7","322","0"],
    [18687,"2012-06-23T10:00:00","ND","ND","41.15","ND","ND","ND","1.4","50.9","23.9","70","385.3","0"],
    [18688,"2012-06-23T11:00:00","ND","ND","48.26","ND","ND","ND","0.6","101.3","24.9","63.6","443","0"],
    [18689,"2012-06-23T12:00:00","ND","ND","38.41","ND","ND","ND","1.1","129.1","26","59.3","373.5","0"],
    [18690,"2012-06-23T13:00:00","ND","ND","29.14","ND","ND","ND","1.6","147","26.3","58.2","251","0.25"],
    [18691,"2012-06-23T14:00:00","ND","ND","24.63","ND","ND","ND","1.5","119.5","26.6","57.5","255.4","0"],
    [18692,"2012-06-23T15:00:00","ND","ND","28.69","ND","ND","ND","0.5","133","26.8","56.5","225.7","0"],
    [18693,"2012-06-23T16:00:00","ND","ND","24.44","ND","ND","ND","0.9","145.7","27.3","55.4","222.5","0"],
    [18694,"2012-06-23T17:00:00","ND","ND","29.82","ND","ND","ND","1","103.6","27.1","56.4","122.6","0"],
    [18695,"2012-06-23T18:00:00","ND","ND","32.09","ND","ND","ND","1.2","190.1","26.7","57.6","39.4","0"],
    [18696,"2012-06-23T19:00:00","ND","ND","28.00","ND","ND","ND","0.6","264.6","25.8","63","1.4","0"],
    [18697,"2012-06-23T20:00:00","ND","ND","40.15","ND","ND","ND","0.2","287.5","24.5","68.6","0","0"],
    [18698,"2012-06-23T21:00:00","ND","ND","71.19","ND","ND","ND","0.4","327.7","23.7","69.9","0","0"],
    [18699,"2012-06-23T22:00:00","ND","ND","ND","ND","ND","ND","0.7","131.7","24.1","67.4","0","0"],
    [18700,"2012-06-23T23:00:00","ND","ND","67.88","ND","ND","ND","0.6","94","23.4","74.6","0","0"],
    [18701,"2012-06-24T00:00:00","ND","ND","67.48","ND","ND","ND","0.5","324.4","22.8","75.8","0","0"],
    [18702,"2012-06-24T01:00:00","ND","ND","46.20","ND","ND","ND","0.2","255.7","22.8","76.5","0","0"],
    [18703,"2012-06-24T02:00:00","ND","ND","47.32","ND","ND","ND","0.3","264.2","22.7","76.6","0","0"],
    [18704,"2012-06-24T03:00:00","ND","ND","41.06","ND","ND","ND","0.1","282.5","22.4","78.2","0","0"],
    [18705,"2012-06-24T04:00:00","ND","ND","39.04","ND","ND","ND","0.1","293","22.3","79","0","0"],
    [18706,"2012-06-24T05:00:00","ND","ND","35.46","ND","ND","ND","0.2","16.3","22.3","78.3","0","0"],
    [18707,"2012-06-24T06:00:00","ND","ND","35.24","ND","ND","ND","0.3","355.8","21.3","84.3","0.1","0"],
    [18708,"2012-06-24T07:00:00","ND","ND","37.15","ND","ND","ND","0.2","263.1","21.5","82.6","19","0"],
    [18709,"2012-06-24T08:00:00","ND","ND","27.85","ND","ND","ND","0.2","91.7","23","75.8","171.5","0"],
    [18710,"2012-06-24T09:00:00","ND","ND","28.98","ND","ND","ND","1.2","58.8","23.1","77.3","131.8","0"],
    [18711,"2012-06-24T10:00:00","ND","ND","33.46","ND","ND","ND","0.5","72.7","24.5","69.2","391.2","0"],
    [18712,"2012-06-24T11:00:00","ND","ND","36.10","ND","ND","ND","0.9","124.7","26.4","60.9","636.3","0"],
    [18713,"2012-06-24T12:00:00","ND","ND","27.06","ND","ND","ND","0.4","146","28","54.4","628.7","0"],
    [18714,"2012-06-24T13:00:00","ND","ND","24.18","ND","ND","ND","1","109.4","28.9","50.5","519.9","0"],
    [18715,"2012-06-24T14:00:00","ND","ND","19.48","ND","ND","ND","1.4","135.4","29.5","49.6","398.1","0"],
    [18716,"2012-06-24T15:00:00","ND","ND","16.54","ND","ND","ND","0.9","86.4","30","48.6","582.7","0"],
    [18717,"2012-06-24T16:00:00","ND","ND","16.62","ND","ND","ND","1.2","301.1","30","48.1","299.2","0"],
    [18718,"2012-06-24T17:00:00","ND","ND","13.31","ND","ND","ND","3.2","272.2","29.3","48","286.5","0"],
    [18719,"2012-06-24T18:00:00","ND","ND","13.03","ND","ND","ND","2.6","280.1","28","50.2","61.5","0"],
    [18720,"2012-06-24T19:00:00","ND","ND","9.38","ND","ND","ND","1.5","283.1","27.2","51.4","0.8","0"],
    [18721,"2012-06-24T20:00:00","ND","ND","12.33","ND","ND","ND","0.5","87.4","26.8","53.6","0","0"],
    [18722,"2012-06-24T21:00:00","ND","ND","15.82","ND","ND","ND","1.6","95.7","26.3","56.4","0","0"],
    [18723,"2012-06-24T22:00:00","ND","ND","24.29","ND","ND","ND","0.8","94.8","24.9","63.4","0","0"],
    [18724,"2012-06-24T23:00:00","ND","ND","36.21","ND","ND","ND","0.2","103.1","23.7","69.8","0","0"],
    [18725,"2012-06-25T00:00:00","ND","ND","33.85","ND","ND","ND","0.4","145.7","23.4","71.1","0","0"],
    [18726,"2012-06-25T01:00:00","ND","ND","29.02","ND","ND","ND","0.1","86.4","22.9","73.7","0","0"],
    [18727,"2012-06-25T02:00:00","ND","ND","30.03","ND","ND","ND","0.6","193.6","22.6","75.9","0","0"],
    [18728,"2012-06-25T03:00:00","ND","ND","27.03","ND","ND","ND","1.3","193.4","22.5","76.5","0","0"],
    [18729,"2012-06-25T04:00:00","ND","ND","20.30","ND","ND","ND","0.7","224.7","22.6","75.3","0","0"],
    [18730,"2012-06-25T05:00:00","ND","ND","12.87","ND","ND","ND","0.5","46.6","21.7","80.8","0","0"],
    [18731,"2012-06-25T06:00:00","ND","ND","11.31","ND","ND","ND","0.3","26.4","21.4","82.3","0","0"],
    [18732,"2012-06-25T07:00:00","ND","ND","17.10","ND","ND","ND","0.4","37.3","21.5","81.5","11.3","0"],
    [18733,"2012-06-25T08:00:00","ND","ND","22.22","ND","ND","ND","0.8","135","22.1","78.4","46.6","0"],
    [18734,"2012-06-25T09:00:00","ND","ND","23.99","ND","ND","ND","1","173.5","22.8","74.3","243.7","0"],
    [18735,"2012-06-25T10:00:00","ND","ND","31.20","ND","ND","ND","0.8","140.1","25.1","63.5","531.9","0"],
    [18736,"2012-06-25T11:00:00","ND","ND","42.62","ND","ND","ND","0.9","91.9","27.1","55.8","574.7","0"],
    [18737,"2012-06-25T12:00:00","ND","ND","33.44","ND","ND","ND","0.9","114","27.7","54","396.4","0"],
    [18738,"2012-06-25T13:00:00","ND","ND","22.60","ND","ND","ND","0.9","244.5","28.4","51.6","415.5","0"],
    [18739,"2012-06-25T14:00:00","ND","ND","22.76","ND","ND","ND","1.5","108.4","28.8","51.9","325.1","0"],
    [18740,"2012-06-25T15:00:00","ND","ND","23.25","ND","ND","ND","1.3","44.7","28.9","51.8","366.7","0"],
    [18741,"2012-06-25T16:00:00","ND","ND","22.59","ND","ND","ND","0.8","248.3","28.2","52.2","108.4","0"],
    [18742,"2012-06-25T17:00:00","ND","ND","18.05","ND","ND","ND","3.1","249.9","26.6","56.1","15.4","3.3"],
    [18743,"2012-06-25T18:00:00","ND","ND","18.35","ND","ND","ND","1.4","262.1","18.9","97.4","0.4","80.01"],
    [18744,"2012-06-25T19:00:00","ND","ND","18.71","ND","ND","ND","0.6","286.4","19.1","100","0","14.73"],
    [18745,"2012-06-25T20:00:00","ND","ND","27.12","ND","ND","ND","0.4","145","20.4","99.7","0","0"],
    [18746,"2012-06-25T21:00:00","ND","ND","41.91","ND","ND","ND","0.5","167.8","20.7","89.6","0","0.25"],
    [18747,"2012-06-25T22:00:00","ND","ND","54.15","ND","ND","ND","0.1","274.4","20.8","92.2","0","0.25"],
    [18748,"2012-06-25T23:00:00","ND","ND","47.09","ND","ND","ND","0.1","247","20.8","92.4","0","0"],
    [18749,"2012-06-26T00:00:00","ND","ND","43.60","ND","ND","ND","0.1","145.3","20.9","91.7","0","0"],
    [18750,"2012-06-26T01:00:00","ND","ND","39.25","ND","ND","ND","0.1","132.8","20.6","93.9","0","0"],
    [18751,"2012-06-26T02:00:00","ND","ND","37.72","ND","ND","ND","0.4","259.1","20.3","93.9","0","0"],
    [18752,"2012-06-26T03:00:00","ND","ND","28.96","ND","ND","ND","0.2","283.6","19.9","92.9","0","0"],
    [18753,"2012-06-26T04:00:00","ND","ND","23.45","ND","ND","ND","0.2","277.6","19.7","91.6","0","0"],
    [18754,"2012-06-26T05:00:00","ND","ND","18.33","ND","ND","ND","0","0","19.8","94","0","0.25"],
    [18755,"2012-06-26T06:00:00","ND","ND","12.88","ND","ND","ND","0","315","19.9","92.5","0","0"],
    [18756,"2012-06-26T07:00:00","ND","ND","15.59","ND","ND","ND","0.4","46.2","20.1","92.7","23.3","0"],
    [18757,"2012-06-26T08:00:00","ND","ND","19.91","ND","ND","ND","0.4","29.7","21","89.5","121.4","0"],
    [18758,"2012-06-26T09:00:00","ND","ND","25.05","ND","ND","ND","0.5","49.5","22.6","80.7","314","0"],
    [18759,"2012-06-26T10:00:00","ND","ND","40.39","ND","ND","ND","1.1","49.3","24.2","74.5","437","0"],
    [18760,"2012-06-26T11:00:00","ND","ND","48.52","ND","ND","ND","0.9","52","25.5","67.8","664.2","0"],
    [18761,"2012-06-26T12:00:00","ND","ND","57.65","ND","ND","ND","1.4","56.9","26.8","61.2","662.7","0"],
    [18762,"2012-06-26T13:00:00","ND","ND","31.78","ND","ND","ND","1.4","68.2","27.7","57.3","594.3","0"],
    [18763,"2012-06-26T14:00:00","ND","ND","26.84","ND","ND","ND","1.4","68.8","28.3","55.6","527.8","0"],
    [18764,"2012-06-26T15:00:00","ND","ND","24.01","ND","ND","ND","1.3","13.4","28.7","54.1","439.8","0"],
    [18765,"2012-06-26T16:00:00","ND","ND","19.68","ND","ND","ND","0.9","274.9","29.7","48.9","417.3","0"],
    [18766,"2012-06-26T17:00:00","ND","ND","22.48","ND","ND","ND","2.4","261.3","28.6","50.1","157.1","0"],
    [18767,"2012-06-26T18:00:00","ND","ND","17.65","ND","ND","ND","0.9","256.2","27.2","52.8","12.7","0"],
    [18768,"2012-06-26T19:00:00","ND","ND","19.14","ND","ND","ND","0.3","105.7","26.3","55.1","0.9","0"],
    [18769,"2012-06-26T20:00:00","ND","ND","39.23","ND","ND","ND","0.4","83.2","25.5","59.9","0","0"],
    [18770,"2012-06-26T21:00:00","ND","ND","53.15","ND","ND","ND","0.4","169.3","24.8","63.7","0","0"],
    [18771,"2012-06-26T22:00:00","ND","ND","56.20","ND","ND","ND","0.7","156.9","23.4","70.9","0","0"],
    [18772,"2012-06-26T23:00:00","ND","ND","54.38","ND","ND","ND","0.1","8.5","22.5","75.4","0","0"],
    [18773,"2012-06-27T00:00:00","ND","ND","39.61","ND","ND","ND","0.3","256.8","21.9","77.8","0","0"],
    [18774,"2012-06-27T01:00:00","ND","ND","36.49","ND","ND","ND","0.1","17.7","21.4","78.7","0","0"],
    [18775,"2012-06-27T02:00:00","ND","ND","33.27","ND","ND","ND","ND","ND","ND","ND","ND","ND"],
    [18776,"2012-06-27T03:00:00","ND","ND","ND","ND","ND","ND","0.1","272.3","20.3","84.1","0","0"],
    [18777,"2012-06-27T04:00:00","ND","ND","ND","ND","ND","ND","0.3","299.7","19.9","84.2","0","0"],
    [18778,"2012-06-27T05:00:00","ND","ND","24.51","ND","ND","ND","0.1","280.6","19.6","86.4","0","0"],
    [18779,"2012-06-27T06:00:00","ND","ND","23.01","ND","ND","ND","0.1","213.8","20","85.5","0.4","0"],
    [18780,"2012-06-27T07:00:00","ND","ND","20.43","ND","ND","ND","0.1","129.6","20.6","83.1","32.9","0"],
    [18781,"2012-06-27T08:00:00","ND","ND","20.39","ND","ND","ND","0.5","36.7","21.6","79.1","134.6","0"],
    [18782,"2012-06-27T09:00:00","ND","ND","27.13","ND","ND","ND","0.6","70.1","22.2","77.9","285.6","0"],
    [18783,"2012-06-27T10:00:00","ND","ND","33.79","ND","ND","ND","0.8","83.9","24","70.3","523.8","0"],
    [18784,"2012-06-27T11:00:00","ND","ND","51.79","ND","ND","ND","0.9","97.9","25.9","61.1","674.4","0"],
    [18785,"2012-06-27T12:00:00","ND","ND","54.50","ND","ND","ND","0.9","57.4","27.3","55.7","754.6","0"],
    [18786,"2012-06-27T13:00:00","ND","ND","42.25","ND","ND","ND","1","58.7","28.4","51.8","658.8","0"],
    [18787,"2012-06-27T14:00:00","ND","ND","27.79","ND","ND","ND","0.9","115.2","29.4","48.2","696.5","0"],
    [18788,"2012-06-27T15:00:00","ND","ND","17.70","ND","ND","ND","1.3","81.2","30.1","45.5","501.2","0"],
    [18789,"2012-06-27T16:00:00","ND","ND","18.45","ND","ND","ND","0.6","46.9","30.7","43.8","426.1","0"],
    [18790,"2012-06-27T17:00:00","ND","ND","20.37","ND","ND","ND","2","280.3","30.2","47.1","295","0"],
    [18791,"2012-06-27T18:00:00","ND","ND","21.27","ND","ND","ND","2.5","252.5","28.8","50.7","103.3","0"],
    [18792,"2012-06-27T19:00:00","ND","ND","21.84","ND","ND","ND","0.3","22.3","28.1","52.3","1.7","0"],
    [18793,"2012-06-27T20:00:00","ND","ND","30.89","ND","ND","ND","0.5","225.7","27.7","53.1","0","0"],
    [18794,"2012-06-27T21:00:00","ND","ND","43.27","ND","ND","ND","0.8","120.9","27.3","54.8","0","0"],
    [18795,"2012-06-27T22:00:00","ND","ND","37.16","ND","ND","ND","0.8","103.4","26","62.3","0","0"],
    [18796,"2012-06-27T23:00:00","ND","ND","43.56","ND","ND","ND","1","153.6","25.5","63","0","0"],
    [18797,"2012-06-28T00:00:00","ND","ND","47.15","ND","ND","ND","0.7","76.2","24.4","69.3","0","0"],
    [18798,"2012-06-28T01:00:00","ND","ND","47.52","ND","ND","ND","0.4","178.1","23.6","77.3","0","0.25"],
    [18799,"2012-06-28T02:00:00","ND","ND","35.62","ND","ND","ND","0.6","36.8","22.9","78.6","0.3","0"],
    [18800,"2012-06-28T03:00:00","ND","ND","31.66","ND","ND","ND","0.3","302.1","21.9","86.3","0.4","1.27"],
    [18801,"2012-06-28T04:00:00","ND","ND","23.00","ND","ND","ND","0.2","216.8","21.6","90.8","0","0"],
    [18802,"2012-06-28T05:00:00","ND","ND","20.91","ND","ND","ND","0.2","251.4","21.2","91.5","0","0"],
    [18803,"2012-06-28T06:00:00","ND","ND","20.42","ND","ND","ND","0","255.9","20.8","92.6","0.6","0"],
    [18804,"2012-06-28T07:00:00","ND","ND","15.00","ND","ND","ND","0.2","349.2","20.9","88.8","29.3","0"],
    [18805,"2012-06-28T08:00:00","ND","ND","14.40","ND","ND","ND","0.3","77.9","22.4","81.7","102","0"],
    [18806,"2012-06-28T09:00:00","ND","ND","19.06","ND","ND","ND","0.8","83.9","23.3","79","192.2","0"],
    [18807,"2012-06-28T10:00:00","ND","ND","36.89","ND","ND","ND","0.5","93.1","24.6","70.3","526.5","0"],
    [18808,"2012-06-28T11:00:00","ND","ND","48.13","ND","ND","ND","1.1","138.7","26.7","59.2","727.9","0"],
    [18809,"2012-06-28T12:00:00","ND","ND","31.78","ND","ND","ND","0.4","156.7","28.4","49.8","752.9","0"],
    [18810,"2012-06-28T13:00:00","ND","ND","26.86","ND","ND","ND","0.9","108.1","29.7","46.2","719.1","0"],
    [18811,"2012-06-28T14:00:00","ND","ND","22.19","ND","ND","ND","1.3","78","30.4","43.7","570.4","0"],
    [18812,"2012-06-28T15:00:00","ND","ND","25.68","ND","ND","ND","1","16.7","30.2","44.3","332.8","0"],
    [18813,"2012-06-28T16:00:00","ND","ND","22.69","ND","ND","ND","1.8","315.3","30.1","47.7","346.7","0"],
    [18814,"2012-06-28T17:00:00","ND","ND","19.35","ND","ND","ND","3","269.8","29.4","48","266.8","0"],
    [18815,"2012-06-28T18:00:00","ND","ND","18.92","ND","ND","ND","2.1","257.6","28.3","49.3","73.2","0"],
    [18816,"2012-06-28T19:00:00","ND","ND","18.99","ND","ND","ND","0.1","149.6","27.1","53.6","2.7","0"],
    [18817,"2012-06-28T20:00:00","ND","ND","29.40","ND","ND","ND","0.3","104.4","26.4","55.7","0","0"],
    [18818,"2012-06-28T21:00:00","ND","ND","53.12","ND","ND","ND","0.8","103.5","26.2","57.2","0","0"],
    [18819,"2012-06-28T22:00:00","ND","ND","65.32","ND","ND","ND","0.4","99.3","25.5","59.1","0","0"],
    [18820,"2012-06-28T23:00:00","ND","ND","62.20","ND","ND","ND","0.8","177.3","24.4","64.8","0","0"],
    [18821,"2012-06-29T00:00:00","ND","ND","53.78","ND","ND","ND","0.6","107.7","23.5","69.7","0","0"],
    [18822,"2012-06-29T01:00:00","ND","ND","38.90","ND","ND","ND","0.9","155.5","22.4","74.7","0","0"],
    [18823,"2012-06-29T02:00:00","ND","ND","33.46","ND","ND","ND","0.1","339.9","22","76.7","0","0"],
    [18824,"2012-06-29T03:00:00","ND","ND","25.47","ND","ND","ND","0.5","268.3","21.7","79.4","0","0"],
    [18825,"2012-06-29T04:00:00","ND","ND","24.33","ND","ND","ND","0.1","304.4","21.7","79.4","0","0"],
    [18826,"2012-06-29T05:00:00","ND","ND","23.02","ND","ND","ND","0.1","96.1","22","77.5","0","0"],
    [18827,"2012-06-29T06:00:00","ND","ND","21.87","ND","ND","ND","0.3","34","21.8","78.6","0.4","0"],
    [18828,"2012-06-29T07:00:00","ND","ND","26.03","ND","ND","ND","0.4","340.4","21.5","79.8","34.8","0"],
    [18829,"2012-06-29T08:00:00","ND","ND","26.47","ND","ND","ND","0.2","105","22.4","75","122.6","0"],
    [18830,"2012-06-29T09:00:00","ND","ND","29.46","ND","ND","ND","1.2","156.4","24.2","68","334.9","0"],
    [18831,"2012-06-29T10:00:00","ND","ND","38.32","ND","ND","ND","1.8","139","26","60.1","532.3","0"],
    [18832,"2012-06-29T11:00:00","ND","ND","62.15","ND","ND","ND","1.1","89.8","26.9","58.3","548.4","0"],
    [18833,"2012-06-29T12:00:00","ND","ND","42.53","ND","ND","ND","0.5","122.4","27.7","55.9","437.4","0"],
    [18834,"2012-06-29T13:00:00","ND","ND","25.64","ND","ND","ND","0.7","306.1","28.9","50.9","724","0"],
    [18835,"2012-06-29T14:00:00","ND","ND","23.83","ND","ND","ND","0.9","326.5","29.6","48.6","591.9","0"],
    [18836,"2012-06-29T15:00:00","ND","ND","60.07","ND","ND","ND","3.4","256.3","29.8","45.4","627.6","0"],
    [18837,"2012-06-29T16:00:00","ND","ND","24.99","ND","ND","ND","3.2","274.1","28.7","47.3","174.1","0"],
    [18838,"2012-06-29T17:00:00","ND","ND","12.85","ND","ND","ND","3","282.1","27.4","50.8","93.4","0"],
    [18839,"2012-06-29T18:00:00","ND","ND","14.30","ND","ND","ND","0.6","297.4","27.7","49.8","42.1","0"],
    [18840,"2012-06-29T19:00:00","ND","ND","16.71","ND","ND","ND","0.4","307.3","26.9","52.3","4.9","0"],
    [18841,"2012-06-29T20:00:00","ND","ND","31.26","ND","ND","ND","0.5","40","25.3","62","0","0"],
    [18842,"2012-06-29T21:00:00","ND","ND","32.84","ND","ND","ND","0.3","24.6","25.2","60","0","0"],
    [18843,"2012-06-29T22:00:00","ND","ND","40.05","ND","ND","ND","2","219.7","24.9","60.7","0","0"],
    [18844,"2012-06-29T23:00:00","ND","ND","27.21","ND","ND","ND","1.3","225.7","24.3","63","0","0"],
    [18845,"2012-06-30T00:00:00","ND","ND","21.55","ND","ND","ND","0.8","95.7","24.2","64.7","0","0"],
    [18846,"2012-06-30T01:00:00","ND","ND","17.41","ND","ND","ND","1.7","164.8","23.4","72.3","0","0"],
    [18847,"2012-06-30T02:00:00","ND","ND","24.05","ND","ND","ND","0.8","151.6","23","75.2","0","0"],
    [18848,"2012-06-30T03:00:00","ND","ND","25.67","ND","ND","ND","0.7","38.6","21.8","82.7","0","0"],
    [18849,"2012-06-30T04:00:00","ND","ND","20.83","ND","ND","ND","1.3","42.9","20.5","91.5","0","0"],
    [18850,"2012-06-30T05:00:00","ND","ND","18.94","ND","ND","ND","0.8","47.9","20.1","93.5","0","0.25"],
    [18851,"2012-06-30T06:00:00","ND","ND","13.69","ND","ND","ND","0.6","13","19.8","94.9","0","0"],
    [18852,"2012-06-30T07:00:00","ND","ND","15.08","ND","ND","ND","0.6","68","20.1","95","13.3","0"],
    [18853,"2012-06-30T08:00:00","ND","ND","16.95","ND","ND","ND","0.4","61.8","20.4","92.4","97","0.25"],
    [18854,"2012-06-30T09:00:00","ND","ND","25.05","ND","ND","ND","0.6","67.1","22.3","84.1","276.3","0"],
    [18855,"2012-06-30T10:00:00","ND","ND","28.46","ND","ND","ND","0.8","120.3","23.5","74.1","127.4","0"],
    [18856,"2012-06-30T11:00:00","ND","ND","34.72","ND","ND","ND","0.4","340.1","24.4","70","425.2","0"],
    [18857,"2012-06-30T12:00:00","ND","ND","28.55","ND","ND","ND","0.8","91","26","64.6","433.1","0"],
    [18858,"2012-06-30T13:00:00","ND","ND","32.62","ND","ND","ND","0.9","44.7","26.9","60.6","380.3","0"],
    [18859,"2012-06-30T14:00:00","ND","ND","26.04","ND","ND","ND","1.1","323","27.1","58.7","368.4","0"],
    [18860,"2012-06-30T15:00:00","ND","ND","25.85","ND","ND","ND","3.5","252.3","26.6","54.4","320","0"],
    [18861,"2012-06-30T16:00:00","ND","ND","21.36","ND","ND","ND","1.1","274.2","29.1","47","542.8","0"],
    [18862,"2012-06-30T17:00:00","ND","ND","12.03","ND","ND","ND","1.5","289.6","28.2","48.7","188.2","0"],
    [18863,"2012-06-30T18:00:00","ND","ND","9.71","ND","ND","ND","2.2","260.3","27","50.5","69.5","0"],
    [18864,"2012-06-30T19:00:00","ND","ND","12.40","ND","ND","ND","0.3","359.1","26.1","52.4","1.7","0"],
    [18865,"2012-06-30T20:00:00","ND","ND","18.36","ND","ND","ND","0.3","339.2","25.8","55.3","0","0"],
    [18866,"2012-06-30T21:00:00","ND","ND","22.78","ND","ND","ND","0.3","224.4","25","59.7","0","0"],
    [18867,"2012-06-30T22:00:00","ND","ND","40.40","ND","ND","ND","0.5","54.9","24","67.8","0","0"],
    [18868,"2012-06-30T23:00:00","ND","ND","39.98","ND","ND","ND","0.3","95.8","23.7","69.2","0","0"],
    [18869,"2012-07-01T00:00:00","ND","ND","34.99","ND","ND","ND","0.2","207.9","23.4","70.4","0","0"],
    [18870,"2012-07-01T01:00:00","ND","ND","32.54","ND","ND","ND","0.2","29.8","23","73.3","0","0"],
    [18871,"2012-07-01T02:00:00","ND","ND","31.28","ND","ND","ND","0.2","335.9","22.6","76","0","0"],
    [18872,"2012-07-01T03:00:00","ND","ND","31.35","ND","ND","ND","0.7","29.8","22.2","79.5","0","0"],
    [18873,"2012-07-01T04:00:00","ND","ND","27.84","ND","ND","ND","0.3","319.3","21","88.8","0","0"],
    [18874,"2012-07-01T05:00:00","ND","ND","24.96","ND","ND","ND","0.1","287","21.1","88.7","0","0"],
    [18875,"2012-07-01T06:00:00","ND","ND","17.25","ND","ND","ND","0.1","239.4","21","90.5","0","0"],
    [18876,"2012-07-01T07:00:00","ND","ND","18.17","ND","ND","ND","0.2","202.1","21.4","87.8","16.4","0"],
    [18877,"2012-07-01T08:00:00","ND","ND","17.19","ND","ND","ND","0.4","40.2","21.1","90.2","43.4","0"],
    [18878,"2012-07-01T09:00:00","ND","ND","17.64","ND","ND","ND","1.1","172.5","22.9","79.7","294.2","0"],
    [18879,"2012-07-01T10:00:00","ND","ND","20.81","ND","ND","ND","0.9","129.2","25.4","65.4","580.1","0"],
    [18880,"2012-07-01T11:00:00","ND","ND","28.72","ND","ND","ND","0.9","116.4","26.4","61.7","624.9","0"],
    [18881,"2012-07-01T12:00:00","ND","ND","19.19","ND","ND","ND","1.1","79.6","27.2","59.2","506","0"],
    [18882,"2012-07-01T13:00:00","ND","ND","17.04","ND","ND","ND","0.4","105.5","27.9","55.7","507.9","0"],
    [18883,"2012-07-01T14:00:00","ND","ND","16.11","ND","ND","ND","0.6","58.4","29","52.2","678.3","0"],
    [18884,"2012-07-01T15:00:00","ND","ND","13.09","ND","ND","ND","1.1","80.8","29.9","49.7","514.1","0"],
    [18885,"2012-07-01T16:00:00","ND","ND","12.10","ND","ND","ND","1.6","112.1","29.8","51.3","444.9","0"],
    [18886,"2012-07-01T17:00:00","ND","ND","10.83","ND","ND","ND","0.2","156.2","30","50.2","232.2","0"],
    [18887,"2012-07-01T18:00:00","ND","ND","10.86","ND","ND","ND","1","326.1","29.1","53.2","56.2","0"],
    [18888,"2012-07-01T19:00:00","ND","ND","14.03","ND","ND","ND","0.8","260.3","27.8","57.2","2.5","0"],
    [18889,"2012-07-01T20:00:00","ND","ND","16.56","ND","ND","ND","0.1","328.7","26.8","60.5","0","0"],
    [18890,"2012-07-01T21:00:00","ND","ND","27.19","ND","ND","ND","0.2","158.6","26.4","62","0","0"],
    [18891,"2012-07-01T22:00:00","ND","ND","41.33","ND","ND","ND","0.4","54.7","25.4","67.3","0","0"],
    [18892,"2012-07-01T23:00:00","ND","ND","57.71","ND","ND","ND","0.4","131.9","24.5","71.8","0","0"],
    [18893,"2012-07-02T00:00:00","ND","ND","49.73","ND","ND","ND","0","228.5","24.5","72.3","0","0"],
    [18894,"2012-07-02T01:00:00","ND","ND","36.06","ND","ND","ND","0.3","91","24.4","72.5","0","0"],
    [18895,"2012-07-02T02:00:00","ND","ND","34.98","ND","ND","ND","0.2","354","23.2","77.7","0","0"],
    [18896,"2012-07-02T03:00:00","ND","ND","34.69","ND","ND","ND","0.1","116.8","23.1","78.1","0","0"],
    [18897,"2012-07-02T04:00:00","ND","ND","21.28","ND","ND","ND","0.1","332.3","22.6","81.4","0","0"],
    [18898,"2012-07-02T05:00:00","ND","ND","20.31","ND","ND","ND","0.6","8.2","22","83","0","0"],
    [18899,"2012-07-02T06:00:00","ND","ND","22.58","ND","ND","ND","0.2","348.2","21.4","84.5","0.4","0"],
    [18900,"2012-07-02T07:00:00","ND","ND","19.65","ND","ND","ND","0.1","98.3","21.4","84.4","18.6","0"],
    [18901,"2012-07-02T08:00:00","ND","ND","18.07","ND","ND","ND","0.6","42.5","22.6","80.3","175","0"],
    [18902,"2012-07-02T09:00:00","ND","ND","22.70","ND","ND","ND","1.1","48.4","23.9","72.5","344.7","0"],
    [18903,"2012-07-02T10:00:00","ND","ND","26.98","ND","ND","ND","0.7","59.4","25.8","62.3","556.4","0"],
    [18904,"2012-07-02T11:00:00","ND","ND","27.08","ND","ND","ND","0.6","168.6","27.2","56.8","628.9","0"],
    [18905,"2012-07-02T12:00:00","ND","ND","16.66","ND","ND","ND","1.1","86","28.3","54","741.8","0"],
    [18906,"2012-07-02T13:00:00","ND","ND","14.89","ND","ND","ND","0.7","57.8","29.7","49.5","699.9","0"],
    [18907,"2012-07-02T14:00:00","ND","ND","16.61","ND","ND","ND","1.6","108.1","31.2","43.5","733.2","0"],
    [18908,"2012-07-02T15:00:00","ND","ND","12.69","ND","ND","ND","1","56.9","32.3","38.3","631.7","0"],
    [18909,"2012-07-02T16:00:00","ND","ND","12.66","ND","ND","ND","1.5","334.3","32.3","38.8","470","0"],
    [18910,"2012-07-02T17:00:00","ND","ND","10.84","ND","ND","ND","2","281.7","31.4","43.8","282.6","0"],
    [18911,"2012-07-02T18:00:00","ND","ND","9.56","ND","ND","ND","1.5","251.2","30.1","46","94.9","0"],
    [18912,"2012-07-02T19:00:00","ND","ND","14.31","ND","ND","ND","0.5","254.2","28.4","50.4","2.1","0"],
    [18913,"2012-07-02T20:00:00","ND","ND","20.19","ND","ND","ND","0.4","117.9","28.1","51.8","0","0"],
    [18914,"2012-07-02T21:00:00","ND","ND","25.39","ND","ND","ND","0.3","98","27.1","56","0","0"],
    [18915,"2012-07-02T22:00:00","ND","ND","41.25","ND","ND","ND","1.1","91.9","25.7","63.1","0","0"],
    [18916,"2012-07-02T23:00:00","ND","ND","63.26","ND","ND","ND","0.2","154.8","25","66.4","0","0"],
    [18917,"2012-07-03T00:00:00","ND","ND","42.75","ND","ND","ND","0.4","111.6","24.3","69.6","0","0"],
    [18918,"2012-07-03T01:00:00","ND","ND","40.72","ND","ND","ND","0.3","183.4","23.6","73.5","0","0"],
    [18919,"2012-07-03T02:00:00","ND","ND","37.77","ND","ND","ND","0.3","173.6","23.4","74.5","0","0"],
    [18920,"2012-07-03T03:00:00","ND","ND","27.39","ND","ND","ND","0.3","331.4","22.6","77.7","0","0"],
    [18921,"2012-07-03T04:00:00","ND","ND","25.80","ND","ND","ND","0.2","312.3","22.2","79.9","0","0"],
    [18922,"2012-07-03T05:00:00","ND","ND","23.49","ND","ND","ND","0.3","263.4","22.3","79.7","0","0"],
    [18923,"2012-07-03T06:00:00","ND","ND","24.52","ND","ND","ND","0.3","246.4","22.2","79.5","0.1","0"],
    [18924,"2012-07-03T07:00:00","ND","ND","21.94","ND","ND","ND","0.4","16.9","22.1","79.5","21","0"],
    [18925,"2012-07-03T08:00:00","ND","ND","22.31","ND","ND","ND","0.6","15.1","22.2","81.5","98.7","0"],
    [18926,"2012-07-03T09:00:00","ND","ND","26.21","ND","ND","ND","0.2","357.8","23.6","74.8","204.7","0"],
    [18927,"2012-07-03T10:00:00","ND","ND","29.73","ND","ND","ND","0.5","104.2","25.4","66.9","354","0"],
    [18928,"2012-07-03T11:00:00","ND","ND","41.08","ND","ND","ND","0.8","96.3","27.3","60.4","541.9","0"],
    [18929,"2012-07-03T12:00:00","ND","ND","49.04","ND","ND","ND","1.2","112.9","28.2","56.2","521","0"],
    [18930,"2012-07-03T13:00:00","ND","ND","60.65","ND","ND","ND","0.6","13.9","28.8","53.4","432.1","0"],
    [18931,"2012-07-03T14:00:00","ND","ND","41.93","ND","ND","ND","1.6","30.6","29.8","49.5","624.6","0"],
    [18932,"2012-07-03T15:00:00","ND","ND","30.20","ND","ND","ND","3.1","276.6","30","46.4","511.6","0"],
    [18933,"2012-07-03T16:00:00","ND","ND","20.62","ND","ND","ND","2.8","277.6","29.6","45.9","320.6","0"],
    [18934,"2012-07-03T17:00:00","ND","ND","12.51","ND","ND","ND","2.5","262.7","28.8","48","169.1","0"],
    [18935,"2012-07-03T18:00:00","ND","ND","13.22","ND","ND","ND","2.5","272.7","27.9","50","67","0"],
    [18936,"2012-07-03T19:00:00","ND","ND","21.98","ND","ND","ND","0.3","216","27.1","52.9","2","0"],
    [18937,"2012-07-03T20:00:00","ND","ND","25.06","ND","ND","ND","1","111.7","27","54.6","0","0"],
    [18938,"2012-07-03T21:00:00","ND","ND","29.81","ND","ND","ND","1.1","113","26.2","59","0","0"],
    [18939,"2012-07-03T22:00:00","ND","ND","42.57","ND","ND","ND","0.4","99.8","24.9","64.9","0","0"],
    [18940,"2012-07-03T23:00:00","ND","ND","43.76","ND","ND","ND","0.2","87.9","24.3","67.8","0","0"],
    [18941,"2012-07-04T00:00:00","ND","ND","35.34","ND","ND","ND","0.2","254.5","23.8","70.6","0","0"],
    [18942,"2012-07-04T01:00:00","ND","ND","33.20","ND","ND","ND","0.6","223.1","23.5","71.3","0","0"],
    [18943,"2012-07-04T02:00:00","ND","ND","31.74","ND","ND","ND","0.3","336","23.1","73.7","0","0"],
    [18944,"2012-07-04T03:00:00","ND","ND","25.71","ND","ND","ND","0.1","145.4","22.5","77.9","0","0"],
    [18945,"2012-07-04T04:00:00","ND","ND","25.62","ND","ND","ND","0.5","335.8","22","80.3","0","0"],
    [18946,"2012-07-04T05:00:00","ND","ND","21.74","ND","ND","ND","0.3","14.8","22.3","79.2","0","0"],
    [18947,"2012-07-04T06:00:00","ND","ND","23.05","ND","ND","ND","0.5","63.3","21.8","81.6","0","0"],
    [18948,"2012-07-04T07:00:00","ND","ND","23.03","ND","ND","ND","0.6","269.1","22.1","80.3","18.9","0"],
    [18949,"2012-07-04T08:00:00","ND","ND","24.84","ND","ND","ND","0.2","125.1","23.1","75.3","111","0"],
    [18950,"2012-07-04T09:00:00","ND","ND","27.49","ND","ND","ND","0.7","57.3","25.3","64.2","382.6","0"],
    [18951,"2012-07-04T10:00:00","ND","ND","36.56","ND","ND","ND","0.9","50.6","26.1","62.9","525.3","0"],
    [18952,"2012-07-04T11:00:00","ND","ND","39.53","ND","ND","ND","0.9","140.9","27.6","58.1","516.9","0"],
    [18953,"2012-07-04T12:00:00","ND","ND","37.41","ND","ND","ND","0.1","264.7","27.6","57.2","236.3","0"],
    [18954,"2012-07-04T13:00:00","ND","ND","30.95","ND","ND","ND","1.6","22.8","28.6","53.3","587.2","0"],
    [18955,"2012-07-04T14:00:00","ND","ND","28.31","ND","ND","ND","0.9","30.9","29.6","50.7","613.4","0"],
    [18956,"2012-07-04T15:00:00","ND","ND","18.80","ND","ND","ND","1.2","301.6","29.8","47.4","460.6","0"],
    [18957,"2012-07-04T16:00:00","ND","ND","21.86","ND","ND","ND","3.4","262.9","30.3","45.4","527.7","0"],
    [18958,"2012-07-04T17:00:00","ND","ND","13.02","ND","ND","ND","3.1","266.1","29.8","47.3","298.4","0"],
    [18959,"2012-07-04T18:00:00","ND","ND","10.79","ND","ND","ND","2.2","270.4","28.8","49.1","87.6","0"],
    [18960,"2012-07-04T19:00:00","ND","ND","14.25","ND","ND","ND","0.3","228","27.6","51.9","2.3","0"],
    [18961,"2012-07-04T20:00:00","ND","ND","24.17","ND","ND","ND","0.3","280.5","27.1","54.1","0","0"],
    [18962,"2012-07-04T21:00:00","ND","ND","32.17","ND","ND","ND","0.6","82.9","26.4","57.5","0","0"],
    [18963,"2012-07-04T22:00:00","ND","ND","42.60","ND","ND","ND","1","110.2","25.4","63.2","0","0"],
    [18964,"2012-07-04T23:00:00","ND","ND","43.45","ND","ND","ND","0.3","134.7","25","65.2","0","0"],
    [18965,"2012-07-05T00:00:00","ND","ND","35.11","ND","ND","ND","0.2","42.3","24.7","67","0","0"],
    [18966,"2012-07-05T01:00:00","ND","ND","31.97","ND","ND","ND","0.2","104.7","24.3","70.3","0","0"],
    [18967,"2012-07-05T02:00:00","ND","ND","33.28","ND","ND","ND","0.6","163.7","23.9","71.5","0","0"],
    [18968,"2012-07-05T03:00:00","ND","ND","28.45","ND","ND","ND","1.3","154.9","23.7","74.8","0","0"],
    [18969,"2012-07-05T04:00:00","ND","ND","22.18","ND","ND","ND","0.4","92.1","23.3","75.2","0","0"],
    [18970,"2012-07-05T05:00:00","ND","ND","18.63","ND","ND","ND","0.5","197.9","22.7","78.2","0","0"],
    [18971,"2012-07-05T06:00:00","ND","ND","17.85","ND","ND","ND","0.8","193.6","22.6","78.5","0.2","0"],
    [18972,"2012-07-05T07:00:00","ND","ND","19.11","ND","ND","ND","0.9","52.4","22.4","80.9","10.1","0"],
    [18973,"2012-07-05T08:00:00","ND","ND","12.86","ND","ND","ND","0.4","26.5","22.3","82.9","36","0"],
    [18974,"2012-07-05T09:00:00","ND","ND","23.25","ND","ND","ND","0.6","164.3","23.1","78.9","111.1","0"],
    [18975,"2012-07-05T10:00:00","ND","ND","26.29","ND","ND","ND","0.8","143.8","24.3","73","351.1","0"],
    [18976,"2012-07-05T11:00:00","ND","ND","36.87","ND","ND","ND","0.8","55.2","26.1","65.6","515.3","0"],
    [18977,"2012-07-05T12:00:00","ND","ND","59.04","ND","ND","ND","0.9","59.3","27.6","57.8","583.9","0"],
    [18978,"2012-07-05T13:00:00","ND","ND","46.76","ND","ND","ND","0.7","19.9","28.7","53.6","485","0"],
    [18979,"2012-07-05T14:00:00","ND","ND","26.49","ND","ND","ND","0.7","18.2","29.1","52.4","356.8","0"],
    [18980,"2012-07-05T15:00:00","ND","ND","24.63","ND","ND","ND","1.3","304.4","29.2","50.6","240.6","0"],
    [18981,"2012-07-05T16:00:00","ND","ND","26.13","ND","ND","ND","2.6","262.7","29.3","48.9","337.6","0"],
    [18982,"2012-07-05T17:00:00","ND","ND","22.26","ND","ND","ND","2.6","267.4","29","48.4","200.8","0"],
    [18983,"2012-07-05T18:00:00","ND","ND","14.56","ND","ND","ND","2.6","269.2","28","50.9","69.2","0"],
    [18984,"2012-07-05T19:00:00","ND","ND","15.22","ND","ND","ND","0.1","215.6","27.4","53.1","2.1","0"],
    [18985,"2012-07-05T20:00:00","ND","ND","19.50","ND","ND","ND","0.9","339","26.7","54.2","0","0"],
    [18986,"2012-07-05T21:00:00","ND","ND","36.07","ND","ND","ND","1.4","186.4","26.2","57.8","0","0"],
    [18987,"2012-07-05T22:00:00","ND","ND","23.92","ND","ND","ND","1","295.8","24.7","64.5","0","0"],
    [18988,"2012-07-05T23:00:00","ND","ND","23.97","ND","ND","ND","0.4","202.4","24","66.9","0","0"],
    [18989,"2012-07-06T00:00:00","ND","ND","32.74","ND","ND","ND","0.6","302","23.3","70.3","0","0"],
    [18990,"2012-07-06T01:00:00","ND","ND","40.88","ND","ND","ND","0.2","57.5","22.7","73.5","0","0"],
    [18991,"2012-07-06T02:00:00","ND","ND","34.03","ND","ND","ND","0.4","303.1","22.3","77.2","0","0"],
    [18992,"2012-07-06T03:00:00","ND","ND","34.58","ND","ND","ND","0.2","255.4","22.5","77.2","0","0"],
    [18993,"2012-07-06T04:00:00","ND","ND","31.30","ND","ND","ND","0.6","247.3","22.1","78.4","0","0"],
    [18994,"2012-07-06T05:00:00","ND","ND","32.75","ND","ND","ND","0.2","179.5","22.3","77.6","0","0"],
    [18995,"2012-07-06T06:00:00","ND","ND","32.94","ND","ND","ND","1.1","0.7","21.1","83.4","0","0"],
    [18996,"2012-07-06T07:00:00","ND","ND","26.23","ND","ND","ND","0.3","8.1","21.3","85.3","6.6","0"],
    [18997,"2012-07-06T08:00:00","ND","ND","26.41","ND","ND","ND","0","62.3","22.5","78.5","178.3","0"],
    [18998,"2012-07-06T09:00:00","ND","ND","25.81","ND","ND","ND","0.8","113.7","25.3","67.2","416.4","0"],
    [18999,"2012-07-06T10:00:00","ND","ND","31.28","ND","ND","ND","1.1","121.3","26.4","63.1","395.3","0"],
    [19000,"2012-07-06T11:00:00","ND","ND","37.01","ND","ND","ND","0.6","129.4","26.4","62.1","227.1","0"],
    [19001,"2012-07-06T12:00:00","ND","ND","32.87","ND","ND","ND","0.7","99.1","27.3","59.7","315.6","0"],
    [19002,"2012-07-06T13:00:00","ND","ND","28.93","ND","ND","ND","0.9","46.1","28.3","56.6","534","0"],
    [19003,"2012-07-06T14:00:00","ND","ND","21.73","ND","ND","ND","1.9","41.8","28.6","55.3","567.7","0"],
    [19004,"2012-07-06T15:00:00","ND","ND","21.14","ND","ND","ND","1.7","58.6","29.2","52.9","360.9","0"],
    [19005,"2012-07-06T16:00:00","ND","ND","20.47","ND","ND","ND","0.8","7.2","29.5","52.1","270.8","0"],
    [19006,"2012-07-06T17:00:00","ND","ND","18.05","ND","ND","ND","0.9","272.1","29.7","51.2","184.1","0"],
    [19007,"2012-07-06T18:00:00","ND","ND","16.15","ND","ND","ND","1.2","284.9","29.3","53.6","76.3","0"],
    [19008,"2012-07-06T19:00:00","ND","ND","25.07","ND","ND","ND","0.9","263","27.7","58.5","1.2","0"],
    [19009,"2012-07-06T20:00:00","ND","ND","34.38","ND","ND","ND","0.4","247.1","27","60.5","0","0"],
    [19010,"2012-07-06T21:00:00","ND","ND","54.66","ND","ND","ND","0.1","118.5","26.7","61.3","0","0"],
    [19011,"2012-07-06T22:00:00","ND","ND","66.03","ND","ND","ND","0.4","134","25.6","66.2","0","0"],
    [19012,"2012-07-06T23:00:00","ND","ND","62.28","ND","ND","ND","0.5","169.6","24.6","70.6","0","0"],
    [19013,"2012-07-07T00:00:00","ND","ND","60.62","ND","ND","ND","0.3","122.5","24.1","73","0","0"],
    [19014,"2012-07-07T01:00:00","ND","ND","37.29","ND","ND","ND","0.3","224.7","23.7","75.1","0","0"],
    [19015,"2012-07-07T02:00:00","ND","ND","35.69","ND","ND","ND","0.1","241.2","23.1","77.1","0","0"],
    [19016,"2012-07-07T03:00:00","ND","ND","33.09","ND","ND","ND","0.1","66.3","22.6","79.7","0","0"],
    [19017,"2012-07-07T04:00:00","ND","ND","32.41","ND","ND","ND","0.3","294.4","22.2","81.3","0","0"],
    [19018,"2012-07-07T05:00:00","ND","ND","29.67","ND","ND","ND","0.2","271.5","22.3","81.4","0","0"],
    [19019,"2012-07-07T06:00:00","ND","ND","29.02","ND","ND","ND","0","290","21.7","83.4","0.2","0"],
    [19020,"2012-07-07T07:00:00","ND","ND","28.67","ND","ND","ND","0.5","51.1","21.7","83.2","46.2","0"],
    [19021,"2012-07-07T08:00:00","ND","ND","27.92","ND","ND","ND","1","27","21.8","83.3","135.6","0"],
    [19022,"2012-07-07T09:00:00","ND","ND","30.52","ND","ND","ND","0.4","37.5","23.8","74.3","256.6","0"],
    [19023,"2012-07-07T10:00:00","ND","ND","27.84","ND","ND","ND","0.8","32.4","25.9","65.5","503","0"],
    [19024,"2012-07-07T11:00:00","ND","ND","40.82","ND","ND","ND","1.1","106.8","27.9","58.4","653.6","0"],
    [19025,"2012-07-07T12:00:00","ND","ND","36.36","ND","ND","ND","0.9","120.8","29","53","491.2","0"],
    [19026,"2012-07-07T13:00:00","ND","ND","24.70","ND","ND","ND","0.9","145.6","29.9","49.9","395","0"],
    [19027,"2012-07-07T14:00:00","ND","ND","17.23","ND","ND","ND","0.6","35.9","31.1","45.9","649","0"],
    [19028,"2012-07-07T15:00:00","ND","ND","17.37","ND","ND","ND","1.4","31.1","31.8","44.1","528.5","0"],
    [19029,"2012-07-07T16:00:00","ND","ND","17.03","ND","ND","ND","1","341.7","31.9","44.2","354.5","0"],
    [19030,"2012-07-07T17:00:00","ND","ND","21.68","ND","ND","ND","2.7","270.3","31.1","47.1","275.2","0"],
    [19031,"2012-07-07T18:00:00","ND","ND","21.85","ND","ND","ND","1.9","251.2","29.6","50.7","48.9","0"],
    [19032,"2012-07-07T19:00:00","ND","ND","14.31","ND","ND","ND","0.7","210.3","28.4","52.7","1.5","0"],
    [19033,"2012-07-07T20:00:00","ND","ND","26.38","ND","ND","ND","0.7","249.6","27.3","57.4","0","0"],
    [19034,"2012-07-07T21:00:00","ND","ND","39.82","ND","ND","ND","0.4","109.8","26.9","59.3","0","0"],
    [19035,"2012-07-07T22:00:00","ND","ND","52.58","ND","ND","ND","0.5","98.8","26.1","63.6","0","0"],
    [19036,"2012-07-07T23:00:00","ND","ND","54.42","ND","ND","ND","0.4","344.3","25.3","66.4","0","0"],
    [19037,"2012-07-08T00:00:00","ND","ND","45.64","ND","ND","ND","0.5","146.5","24.8","69.2","0","0"],
    [19038,"2012-07-08T01:00:00","ND","ND","46.64","ND","ND","ND","0.6","155.7","24.1","72.7","0","0"],
    [19039,"2012-07-08T02:00:00","ND","ND","36.67","ND","ND","ND","0.1","258.9","23.8","75.1","0","0"],
    [19040,"2012-07-08T03:00:00","ND","ND","29.51","ND","ND","ND","0.3","155.8","23.6","76.2","0","0"],
    [19041,"2012-07-08T04:00:00","ND","ND","29.32","ND","ND","ND","0.3","42.3","23.1","78.8","0","0"],
    [19042,"2012-07-08T05:00:00","ND","ND","27.15","ND","ND","ND","0.3","37.9","22.4","83.2","0","0"],
    [19043,"2012-07-08T06:00:00","ND","ND","26.87","ND","ND","ND","0.2","303.1","22.3","82.8","0.1","0"],
    [19044,"2012-07-08T07:00:00","ND","ND","24.99","ND","ND","ND","0.2","263.9","22.3","83","32.5","0"],
    [19045,"2012-07-08T08:00:00","ND","ND","22.25","ND","ND","ND","0.8","120.9","24","75.9","132.1","0"],
    [19046,"2012-07-08T09:00:00","ND","ND","22.79","ND","ND","ND","0.4","181.9","25.1","69.5","368.8","0"],
    [19047,"2012-07-08T10:00:00","ND","ND","33.42","ND","ND","ND","1.1","130.3","26.9","62.1","547.1","0"],
    [19048,"2012-07-08T11:00:00","ND","ND","37.83","ND","ND","ND","1.2","108.4","28.2","57.2","713.5","0"],
    [19049,"2012-07-08T12:00:00","ND","ND","24.44","ND","ND","ND","0.6","200","29.3","52.7","669","0"],
    [19050,"2012-07-08T13:00:00","ND","ND","18.95","ND","ND","ND","1","112.4","30.3","49.7","634.8","0"],
    [19051,"2012-07-08T14:00:00","ND","ND","14.01","ND","ND","ND","0.9","76.6","31.7","44.9","731.7","0"],
    [19052,"2012-07-08T15:00:00","ND","ND","14.31","ND","ND","ND","1","60.2","32.8","40.6","649.7","0"],
    [19053,"2012-07-08T16:00:00","ND","ND","12.95","ND","ND","ND","2.1","330.5","32.8","43.4","432.9","0"],
    [19054,"2012-07-08T17:00:00","ND","ND","12.04","ND","ND","ND","3.1","255.9","31.9","45.1","291.3","0"],
    [19055,"2012-07-08T18:00:00","ND","ND","16.65","ND","ND","ND","2.1","261.7","30.3","48","42.7","0"],
    [19056,"2012-07-08T19:00:00","ND","ND","13.07","ND","ND","ND","0.5","122.1","29.2","50.4","1.5","0"],
    [19057,"2012-07-08T20:00:00","ND","ND","17.80","ND","ND","ND","1.1","111.8","28.7","52.1","0","0"],
    [19058,"2012-07-08T21:00:00","ND","ND","25.25","ND","ND","ND","1.2","112.9","28.4","53.5","0","0"],
    [19059,"2012-07-08T22:00:00","ND","ND","35.03","ND","ND","ND","1.3","96.6","27.7","57.3","0","0"],
    [19060,"2012-07-08T23:00:00","ND","ND","39.11","ND","ND","ND","0.4","23.7","26.8","61.8","0","0"],
    [19061,"2012-07-09T00:00:00","ND","ND","32.46","ND","ND","ND","0.2","50.9","26","65.5","0","0"],
    [19062,"2012-07-09T01:00:00","ND","ND","29.14","ND","ND","ND","0.3","314.7","25.1","69.9","0","0"],
    [19063,"2012-07-09T02:00:00","ND","ND","25.19","ND","ND","ND","0.5","283.3","24.4","72.7","0","0"],
    [19064,"2012-07-09T03:00:00","ND","ND","24.59","ND","ND","ND","0.8","28.1","23.9","75.2","0","0"],
    [19065,"2012-07-09T04:00:00","ND","ND","18.86","ND","ND","ND","0.7","11.9","23.5","78.1","0","0"],
    [19066,"2012-07-09T05:00:00","ND","ND","23.89","ND","ND","ND","0.4","329.3","23.1","79.6","0","0"],
    [19067,"2012-07-09T06:00:00","ND","ND","23.13","ND","ND","ND","0.3","17.1","22.7","81","0.5","0"],
    [19068,"2012-07-09T07:00:00","ND","ND","21.27","ND","ND","ND","0.2","334.4","22.7","81.8","18.6","0"],
    [19069,"2012-07-09T08:00:00","ND","ND","21.10","ND","ND","ND","0.6","23.8","23.1","80.3","103.7","0"],
    [19070,"2012-07-09T09:00:00","ND","ND","24.20","ND","ND","ND","0.5","10.2","24.6","74.1","208.3","0"],
    [19071,"2012-07-09T10:00:00","ND","ND","31.71","ND","ND","ND","0.4","59.5","26.3","66.5","434.2","0"],
    [19072,"2012-07-09T11:00:00","ND","ND","41.67","ND","ND","ND","0.7","87.6","28.1","59.3","607.4","0"],
    [19073,"2012-07-09T12:00:00","ND","ND","44.49","ND","ND","ND","1.1","57.8","28.9","54.8","647.4","0"],
    [19074,"2012-07-09T13:00:00","ND","ND","48.71","ND","ND","ND","0.4","69.4","30.1","50.7","588.4","0"],
    [19075,"2012-07-09T14:00:00","ND","ND","23.12","ND","ND","ND","1.5","51.4","30.9","48.4","605","0"],
    [19076,"2012-07-09T15:00:00","ND","ND","21.82","ND","ND","ND","1.7","306.9","31.1","46.5","447","0"],
    [19077,"2012-07-09T16:00:00","ND","ND","24.01","ND","ND","ND","2.6","266.4","31","45.2","398.8","0"],
    [19078,"2012-07-09T17:00:00","ND","ND","18.33","ND","ND","ND","2.7","262.5","30.2","46.7","228.1","0"],
    [19079,"2012-07-09T18:00:00","ND","ND","16.79","ND","ND","ND","2.4","262.1","29","48.3","61.8","0"],
    [19080,"2012-07-09T19:00:00","ND","ND","17.73","ND","ND","ND","0.3","195.8","28.4","50.3","1.4","0"],
    [19081,"2012-07-09T20:00:00","ND","ND","22.10","ND","ND","ND","0.6","116.8","27.7","53.1","0","0"],
    [19082,"2012-07-09T21:00:00","ND","ND","34.36","ND","ND","ND","0.1","281.6","26.8","56.4","0","0"],
    [19083,"2012-07-09T22:00:00","ND","ND","45.21","ND","ND","ND","1","144.6","26.2","59.4","0","0"],
    [19084,"2012-07-09T23:00:00","ND","ND","49.03","ND","ND","ND","0.2","95.4","24.8","66.7","0","0"],
    [19085,"2012-07-10T00:00:00","ND","ND","37.89","ND","ND","ND","0.3","251.1","24.2","70.1","0","0"],
    [19086,"2012-07-10T01:00:00","ND","ND","33.10","ND","ND","ND","0.4","146.2","23.8","71.7","0","0"],
    [19087,"2012-07-10T02:00:00","ND","ND","31.23","ND","ND","ND","0.2","106.7","23.1","75.5","0","0"],
    [19088,"2012-07-10T03:00:00","ND","ND","29.25","ND","ND","ND","1.4","166.6","22.9","76.4","0","0"],
    [19089,"2012-07-10T04:00:00","ND","ND","25.30","ND","ND","ND","0.2","162.1","22.5","78.5","0","0"],
    [19090,"2012-07-10T05:00:00","ND","ND","21.80","ND","ND","ND","0.2","278.6","21.9","79.9","0","0"],
    [19091,"2012-07-10T06:00:00","ND","ND","19.85","ND","ND","ND","0.2","308.2","21.5","81.7","0","0"],
    [19092,"2012-07-10T07:00:00","ND","ND","15.75","ND","ND","ND","0.3","8.2","21.6","79.9","24.7","0"],
    [19093,"2012-07-10T08:00:00","ND","ND","18.95","ND","ND","ND","0.7","27.8","22.2","80.3","125","0"],
    [19094,"2012-07-10T09:00:00","ND","ND","23.86","ND","ND","ND","0.9","52.1","23.8","74.7","298","0"],
    [19095,"2012-07-10T10:00:00","ND","ND","29.73","ND","ND","ND","0.1","316.9","26.2","63","545.9","0"],
    [19096,"2012-07-10T11:00:00","ND","ND","39.22","ND","ND","ND","0.9","103.8","27.7","57.5","475.2","0"],
    [19097,"2012-07-10T12:00:00","ND","ND","45.12","ND","ND","ND","1.2","145.4","29.2","52.6","585.8","0"],
    [19098,"2012-07-10T13:00:00","ND","ND","52.85","ND","ND","ND","0.7","82.5","30.2","49.9","701.6","0"],
    [19099,"2012-07-10T14:00:00","ND","ND","33.40","ND","ND","ND","0.9","37.1","31.4","47.6","633.8","0"],
    [19100,"2012-07-10T15:00:00","ND","ND","26.51","ND","ND","ND","2.7","269.4","30.6","47.8","409.4","0"],
    [19101,"2012-07-10T16:00:00","ND","ND","22.30","ND","ND","ND","3.1","264.8","30.7","45.7","326","0"],
    [19102,"2012-07-10T17:00:00","ND","ND","20.69","ND","ND","ND","2.3","271.9","29.9","47.1","121","0"],
    [19103,"2012-07-10T18:00:00","ND","ND","14.68","ND","ND","ND","2.4","273.6","29.1","48","52.5","0"],
    [19104,"2012-07-10T19:00:00","ND","ND","19.49","ND","ND","ND","0.1","356.1","28.3","51.1","1.6","0"],
    [19105,"2012-07-10T20:00:00","ND","ND","23.48","ND","ND","ND","0.5","149.7","28.2","52","0","0"],
    [19106,"2012-07-10T21:00:00","ND","ND","41.94","ND","ND","ND","1.1","87","27.7","54.6","0","0"],
    [19107,"2012-07-10T22:00:00","ND","ND","48.29","ND","ND","ND","1","88.1","26.8","58.8","0","0"],
    [19108,"2012-07-10T23:00:00","ND","ND","45.85","ND","ND","ND","1","120.8","26.4","60","0","0"],
    [19109,"2012-07-11T00:00:00","ND","ND","42.16","ND","ND","ND","0.7","116.4","25.7","63.8","0","0"],
    [19110,"2012-07-11T01:00:00","ND","ND","31.40","ND","ND","ND","0.9","94.9","24.8","68.9","0","0"],
    [19111,"2012-07-11T02:00:00","ND","ND","29.93","ND","ND","ND","0.2","63.7","24.3","71.6","0","0"],
    [19112,"2012-07-11T03:00:00","ND","ND","17.87","ND","ND","ND","0.8","175.3","24.4","71.3","0","0"],
    [19113,"2012-07-11T04:00:00","ND","ND","20.60","ND","ND","ND","0.6","295.3","23.8","74.1","0","0"],
    [19114,"2012-07-11T05:00:00","ND","ND","17.26","ND","ND","ND","0.5","26.4","23.2","77.5","0","0"],
    [19115,"2012-07-11T06:00:00","ND","ND","12.99","ND","ND","ND","0.2","79","23","77.8","0.1","0"],
    [19116,"2012-07-11T07:00:00","ND","ND","23.18","ND","ND","ND","0.5","70","22.7","79.3","44.4","0"],
    [19117,"2012-07-11T08:00:00","ND","ND","23.40","ND","ND","ND","0.5","86.9","23.5","77.3","150.6","0"],
    [19118,"2012-07-11T09:00:00","ND","ND","27.68","ND","ND","ND","1.7","157.6","24.5","72.2","208.5","0"],
    [19119,"2012-07-11T10:00:00","ND","ND","33.56","ND","ND","ND","0.6","116.5","25.5","68.1","249.2","0"],
    [19120,"2012-07-11T11:00:00","ND","ND","36.98","ND","ND","ND","1.1","68.5","26.1","65.6","274.8","0"],
    [19121,"2012-07-11T12:00:00","ND","ND","38.87","ND","ND","ND","1.1","64.4","26.5","64.1","210.4","0"],
    [19122,"2012-07-11T13:00:00","ND","ND","33.28","ND","ND","ND","0.4","315.9","26.9","61.3","242.1","0"],
    [19123,"2012-07-11T14:00:00","ND","ND","26.56","ND","ND","ND","1.2","99.8","27.6","60.4","324.2","0"],
    [19124,"2012-07-11T15:00:00","ND","ND","25.25","ND","ND","ND","1","120.2","28.4","56.4","493.3","0"],
    [19125,"2012-07-11T16:00:00","ND","ND","23.66","ND","ND","ND","0.7","226","28.4","54.1","167.9","0.51"],
    [19126,"2012-07-11T17:00:00","ND","ND","19.93","ND","ND","ND","3.6","296.5","20.2","95.1","10.5","74.93"],
    [19127,"2012-07-11T18:00:00","ND","ND","20.96","ND","ND","ND","1.2","290.2","22","82.4","8.3","1.02"],
    [19128,"2012-07-11T19:00:00","ND","ND","14.97","ND","ND","ND","0.1","8.8","22.3","85.3","1.1","0.25"],
    [19129,"2012-07-11T20:00:00","ND","ND","32.01","ND","ND","ND","0.8","19.7","22.4","86.2","0","0"],
    [19130,"2012-07-11T21:00:00","ND","ND","44.25","ND","ND","ND","0.9","359","21.5","91.6","0","0.25"],
    [19131,"2012-07-11T22:00:00","ND","ND","37.45","ND","ND","ND","0.9","47","21.3","94.4","0","0.25"],
    [19132,"2012-07-11T23:00:00","ND","ND","29.28","ND","ND","ND","0.8","4.8","21.2","93.7","0","0"],
    [19133,"2012-07-12T00:00:00","ND","ND","32.32","ND","ND","ND","0.3","34.8","21.2","92.4","0","0.25"],
    [19134,"2012-07-12T01:00:00","ND","ND","31.07","ND","ND","ND","0.8","142","21.3","92.4","0","0"],
    [19135,"2012-07-12T02:00:00","ND","ND","30.34","ND","ND","ND","0.4","136.6","21.1","91.1","0","0"],
    [19136,"2012-07-12T03:00:00","ND","ND","29.26","ND","ND","ND","0.6","158.7","21.2","90.4","0","0"],
    [19137,"2012-07-12T04:00:00","ND","ND","20.86","ND","ND","ND","0.4","47","20.9","92.5","0","0"],
    [19138,"2012-07-12T05:00:00","ND","ND","17.61","ND","ND","ND","0.3","276.7","20.6","93.6","0","0"],
    [19139,"2012-07-12T06:00:00","ND","ND","18.82","ND","ND","ND","0.7","158.7","21","91.2","0.1","0"],
    [19140,"2012-07-12T07:00:00","ND","ND","18.41","ND","ND","ND","0.4","21.7","21","92.7","4.5","0"],
    [19141,"2012-07-12T08:00:00","ND","ND","21.87","ND","ND","ND","0.8","39.7","20.9","93.8","10.7","0"],
    [19142,"2012-07-12T09:00:00","ND","ND","21.12","ND","ND","ND","0.1","91.3","21.3","90.7","36.1","0"],
    [19143,"2012-07-12T10:00:00","ND","ND","25.00","ND","ND","ND","0.8","27.7","21.9","88.5","142.5","0"],
    [19144,"2012-07-12T11:00:00","ND","ND","29.26","ND","ND","ND","0.6","349.7","24.1","75.9","559.4","0"],
    [19145,"2012-07-12T12:00:00","ND","ND","32.39","ND","ND","ND","1.6","49.5","26.3","65.8","803.8","0"],
    [19146,"2012-07-12T13:00:00","ND","ND","33.05","ND","ND","ND","1.6","62.5","27.3","58.9","678.8","0"],
    [19147,"2012-07-12T14:00:00","ND","ND","32.44","ND","ND","ND","1.8","57","28.5","53.7","709.1","0"],
    [19148,"2012-07-12T15:00:00","ND","ND","16.20","ND","ND","ND","2","58","29.2","50.1","642","0"],
    [19149,"2012-07-12T16:00:00","ND","ND","13.50","ND","ND","ND","2.5","42","28","54.8","167.9","0"],
    [19150,"2012-07-12T17:00:00","ND","ND","12.99","ND","ND","ND","2.3","18.1","26.9","59.9","63.4","0"],
    [19151,"2012-07-12T18:00:00","ND","ND","18.75","ND","ND","ND","1.1","343.3","26.3","64.6","27.2","0"],
    [19152,"2012-07-12T19:00:00","ND","ND","31.17","ND","ND","ND","0.1","240","26","65.9","0.9","0"],
    [19153,"2012-07-12T20:00:00","ND","ND","48.68","ND","ND","ND","0.1","326","25.4","67.6","0","0"],
    [19154,"2012-07-12T21:00:00","ND","ND","56.86","ND","ND","ND","0.2","278.6","24.7","71.8","0","0"],
    [19155,"2012-07-12T22:00:00","ND","ND","49.69","ND","ND","ND","0.2","245.5","24.1","73.1","0","0"],
    [19156,"2012-07-12T23:00:00","ND","ND","47.24","ND","ND","ND","0.1","90","24","72.8","0","0"],
    [19157,"2012-07-13T00:00:00","ND","ND","45.41","ND","ND","ND","0.4","177.7","23.9","74.5","0","0"],
    [19158,"2012-07-13T01:00:00","ND","ND","41.17","ND","ND","ND","1","161","23.9","72","0","0"],
    [19159,"2012-07-13T02:00:00","ND","ND","36.61","ND","ND","ND","0.5","330.6","22.9","79.2","0","0"],
    [19160,"2012-07-13T03:00:00","ND","ND","30.58","ND","ND","ND","0.4","347.5","22.6","80.9","0","0"],
    [19161,"2012-07-13T04:00:00","ND","ND","30.23","ND","ND","ND","0.1","89.3","22.6","82.2","0","0"],
    [19162,"2012-07-13T05:00:00","ND","ND","26.83","ND","ND","ND","0.5","103.1","22.5","81","0","0"],
    [19163,"2012-07-13T06:00:00","ND","ND","25.29","ND","ND","ND","0.5","111.3","22.3","77.9","0","0"],
    [19164,"2012-07-13T07:00:00","ND","ND","24.08","ND","ND","ND","1","204.4","21.3","87.7","3","0.25"],
    [19165,"2012-07-13T08:00:00","ND","ND","25.07","ND","ND","ND","0.1","274.6","21.1","90.1","32.5","1.02"],
    [19166,"2012-07-13T09:00:00","ND","ND","27.49","ND","ND","ND","0.1","336.2","21.7","88.7","94.7","0.25"],
    [19167,"2012-07-13T10:00:00","ND","ND","29.43","ND","ND","ND","0.6","59.2","22.5","86.6","267.3","0"],
    [19168,"2012-07-13T11:00:00","ND","ND","30.93","ND","ND","ND","1.3","141.1","24.5","76.2","474.8","0"],
    [19169,"2012-07-13T12:00:00","ND","ND","46.95","ND","ND","ND","1","130.5","25.2","72.4","216.8","0"],
    [19170,"2012-07-13T13:00:00","ND","ND","61.87","ND","ND","ND","1","26.5","26.2","69.4","585.4","0"],
    [19171,"2012-07-13T14:00:00","ND","ND","57.87","ND","ND","ND","2.2","27.8","26","68.9","507.8","0"],
    [19172,"2012-07-13T15:00:00","ND","ND","43.11","ND","ND","ND","1.6","26.5","26.8","62.8","601.7","0"],
    [19173,"2012-07-13T16:00:00","ND","ND","34.90","ND","ND","ND","2","37.9","27.1","58.1","448.9","0"],
    [19174,"2012-07-13T17:00:00","ND","ND","19.95","ND","ND","ND","1.2","27.8","27.7","53.6","292.6","0"],
    [19175,"2012-07-13T18:00:00","ND","ND","18.57","ND","ND","ND","1.7","30.3","27","59.5","87.6","0"],
    [19176,"2012-07-13T19:00:00","ND","ND","30.66","ND","ND","ND","0.9","23","25.3","68.4","2.2","0"],
    [19177,"2012-07-13T20:00:00","ND","ND","41.63","ND","ND","ND","0.1","241.3","24.7","70.5","0","0"],
    [19178,"2012-07-13T21:00:00","ND","ND","40.75","ND","ND","ND","0.3","352.3","24.4","69.6","0","0"],
    [19179,"2012-07-13T22:00:00","ND","ND","60.45","ND","ND","ND","0.4","254.5","23.7","74.3","0","0"],
    [19180,"2012-07-13T23:00:00","ND","ND","56.05","ND","ND","ND","0.1","306.9","23.8","74.6","0","0"],
    [19181,"2012-07-14T00:00:00","ND","ND","49.37","ND","ND","ND","0.2","168.1","23.5","76.9","0","0"],
    [19182,"2012-07-14T01:00:00","ND","ND","51.59","ND","ND","ND","1.1","147.3","23.1","77.7","0","0"],
    [19183,"2012-07-14T02:00:00","ND","ND","41.92","ND","ND","ND","1","203.9","22.4","80.2","0","0"],
    [19184,"2012-07-14T03:00:00","ND","ND","36.20","ND","ND","ND","0.6","199.8","22.4","79.3","0","0"],
    [19185,"2012-07-14T04:00:00","ND","ND","29.72","ND","ND","ND","0.4","344.6","22.2","79.5","0","0"],
    [19186,"2012-07-14T05:00:00","ND","ND","27.95","ND","ND","ND","0.3","16.3","21.6","83.3","0","0"],
    [19187,"2012-07-14T06:00:00","ND","ND","27.02","ND","ND","ND","0","19.7","21.4","84.3","0","0"],
    [19188,"2012-07-14T07:00:00","ND","ND","30.96","ND","ND","ND","0.1","322.5","21.7","83.6","18.8","0"],
    [19189,"2012-07-14T08:00:00","ND","ND","28.01","ND","ND","ND","0.2","106.1","22.2","81.7","59.6","0"],
    [19190,"2012-07-14T09:00:00","ND","ND","31.94","ND","ND","ND","0.4","43.3","22.2","82.3","125.4","0"],
    [19191,"2012-07-14T10:00:00","ND","ND","46.27","ND","ND","ND","0.6","151","23.6","74.3","252.4","0"],
    [19192,"2012-07-14T11:00:00","ND","ND","47.09","ND","ND","ND","0.7","108.1","24.7","70.5","201","0"],
    [19193,"2012-07-14T12:00:00","ND","ND","56.80","ND","ND","ND","0.8","45.2","24.2","76.1","278.1","0"],
    [19194,"2012-07-14T13:00:00","ND","ND","62.08","ND","ND","ND","0.5","97.7","25.8","68.7","399.1","0"],
    [19195,"2012-07-14T14:00:00","ND","ND","52.50","ND","ND","ND","0.3","152.2","27.9","57.9","612.1","0"],
    [19196,"2012-07-14T15:00:00","ND","ND","50.80","ND","ND","ND","0.9","121.9","28.6","53.1","476.1","0"],
    [19197,"2012-07-14T16:00:00","ND","ND","35.86","ND","ND","ND","1.2","124.9","29.3","50.9","301.9","0"],
    [19198,"2012-07-14T17:00:00","ND","ND","26.71","ND","ND","ND","1.1","95.9","28.3","54.9","72.3","0"],
    [19199,"2012-07-14T18:00:00","ND","ND","27.92","ND","ND","ND","1.5","43.4","27.7","57.3","36.4","0"],
    [19200,"2012-07-14T19:00:00","ND","ND","22.62","ND","ND","ND","0.6","321.6","26.6","60.5","0.7","0"],
    [19201,"2012-07-14T20:00:00","ND","ND","34.27","ND","ND","ND","0.3","299.9","26","62.2","0","0"],
    [19202,"2012-07-14T21:00:00","ND","ND","35.72","ND","ND","ND","0.6","227.9","25.6","62.9","0","0"],
    [19203,"2012-07-14T22:00:00","ND","ND","44.14","ND","ND","ND","0.4","55.8","24.2","69.6","0","0"],
    [19204,"2012-07-14T23:00:00","ND","ND","44.74","ND","ND","ND","0.2","191.8","23.7","72.2","0","0"],
    [19205,"2012-07-15T00:00:00","ND","ND","29.74","ND","ND","ND","0.4","242.9","23.9","70.1","0","0"],
    [19206,"2012-07-15T01:00:00","ND","ND","32.67","ND","ND","ND","0.7","359.5","22.7","77.8","0","0"],
    [19207,"2012-07-15T02:00:00","ND","ND","34.13","ND","ND","ND","0.3","331.4","22.2","80.7","0","0"],
    [19208,"2012-07-15T03:00:00","ND","ND","27.50","ND","ND","ND","1","352.6","21.4","84.4","0","0"],
    [19209,"2012-07-15T04:00:00","ND","ND","27.54","ND","ND","ND","0.3","18.7","21","87","0","0"],
    [19210,"2012-07-15T05:00:00","ND","ND","25.83","ND","ND","ND","0.3","354.2","20.5","88.7","0","0"],
    [19211,"2012-07-15T06:00:00","ND","ND","23.76","ND","ND","ND","0.2","262.6","20.4","88.5","0","0"],
    [19212,"2012-07-15T07:00:00","ND","ND","22.14","ND","ND","ND","0.1","43.1","21","86.4","17.3","0"],
    [19213,"2012-07-15T08:00:00","ND","ND","20.01","ND","ND","ND","0.6","70.4","21.3","85.6","93.5","0"],
    [19214,"2012-07-15T09:00:00","ND","ND","23.94","ND","ND","ND","0.7","121.8","23.3","76.9","377.8","0"],
    [19215,"2012-07-15T10:00:00","ND","ND","28.35","ND","ND","ND","1","80.4","24.8","70.7","364.2","0"],
    [19216,"2012-07-15T11:00:00","ND","ND","29.29","ND","ND","ND","1.1","40.9","25.3","69.2","541.8","0"],
    [19217,"2012-07-15T12:00:00","ND","ND","31.62","ND","ND","ND","1.5","42.8","25.8","66.8","362.4","0"],
    [19218,"2012-07-15T13:00:00","ND","ND","20.57","ND","ND","ND","1.1","16.3","25.8","64.1","291.8","0"],
    [19219,"2012-07-15T14:00:00","ND","ND","20.28","ND","ND","ND","1.4","42.2","26.6","61.8","335","0"],
    [19220,"2012-07-15T15:00:00","ND","ND","27.25","ND","ND","ND","1.6","41.9","27.1","59.4","305.6","0"],
    [19221,"2012-07-15T16:00:00","ND","ND","19.99","ND","ND","ND","1.6","61.9","28.1","56.3","435","0"],
    [19222,"2012-07-15T17:00:00","ND","ND","27.46","ND","ND","ND","0.7","276","28.6","54.2","147.4","0"],
    [19223,"2012-07-15T18:00:00","ND","ND","32.21","ND","ND","ND","0.7","253.6","28","55.3","47.1","0"],
    [19224,"2012-07-15T19:00:00","ND","ND","18.11","ND","ND","ND","0.5","251.3","27","58","1.2","0"],
    [19225,"2012-07-15T20:00:00","ND","ND","24.90","ND","ND","ND","0","92.7","26.5","61.2","0","0"],
    [19226,"2012-07-15T21:00:00","ND","ND","37.16","ND","ND","ND","0.6","137","25.8","67.1","0","0"],
    [19227,"2012-07-15T22:00:00","ND","ND","44.57","ND","ND","ND","0.3","163.1","24.7","72.2","0","0"],
    [19228,"2012-07-15T23:00:00","ND","ND","41.17","ND","ND","ND","0.4","322.5","24.1","71.5","0","0"],
    [19229,"2012-07-16T00:00:00","ND","ND","37.25","ND","ND","ND","0.3","317.2","23.3","77.3","0","0"],
    [19230,"2012-07-16T01:00:00","ND","ND","28.39","ND","ND","ND","0.2","158","22.9","78","0","0"],
    [19231,"2012-07-16T02:00:00","ND","ND","31.34","ND","ND","ND","0","103.4","22.4","80.2","0","0"],
    [19232,"2012-07-16T03:00:00","ND","ND","29.01","ND","ND","ND","0.1","267.2","22","82.6","0","0"],
    [19233,"2012-07-16T04:00:00","ND","ND","25.88","ND","ND","ND","0.2","56.9","21.9","82.6","0","0"],
    [19234,"2012-07-16T05:00:00","ND","ND","22.22","ND","ND","ND","0.3","283.4","21.5","83.5","0","0"],
    [19235,"2012-07-16T06:00:00","ND","ND","22.19","ND","ND","ND","0.3","247.6","21","85.5","0.1","0"],
    [19236,"2012-07-16T07:00:00","ND","ND","19.86","ND","ND","ND","0.3","34.3","21.3","82.8","37.7","0"],
    [19237,"2012-07-16T08:00:00","ND","ND","19.72","ND","ND","ND","0.7","12.7","22.7","77.3","176.6","0"],
    [19238,"2012-07-16T09:00:00","ND","ND","27.57","ND","ND","ND","1.4","49.9","23.9","73.7","367.3","0"],
    [19239,"2012-07-16T10:00:00","ND","ND","39.86","ND","ND","ND","0.7","89.4","26.2","63.6","559","0"],
    [19240,"2012-07-16T11:00:00","ND","ND","47.69","ND","ND","ND","1.5","14.4","27.5","58.6","704.8","0"],
    [19241,"2012-07-16T12:00:00","ND","ND","41.40","ND","ND","ND","0.9","34.2","28.8","53.1","747.5","0"],
    [19242,"2012-07-16T13:00:00","ND","ND","15.34","ND","ND","ND","0.8","352","30.1","49.1","678.6","0"],
    [19243,"2012-07-16T14:00:00","ND","ND","14.23","ND","ND","ND","1.2","31","31.2","46","714.5","0"],
    [19244,"2012-07-16T15:00:00","ND","ND","18.30","ND","ND","ND","1.4","48","32","43.9","604.3","0"],
    [19245,"2012-07-16T16:00:00","ND","ND","16.54","ND","ND","ND","1.9","20.2","31.8","45.7","367.6","0"],
    [19246,"2012-07-16T17:00:00","ND","ND","16.34","ND","ND","ND","0.5","281.4","30.6","51","114.2","0"],
    [19247,"2012-07-16T18:00:00","ND","ND","20.32","ND","ND","ND","0.3","9.4","29.7","51.5","49.9","0"],
    [19248,"2012-07-16T19:00:00","ND","ND","25.08","ND","ND","ND","0.1","24.3","28.6","52.7","2.9","0"],
    [19249,"2012-07-16T20:00:00","ND","ND","32.37","ND","ND","ND","0.3","78.6","27.9","55.3","0","0"],
    [19250,"2012-07-16T21:00:00","ND","ND","46.84","ND","ND","ND","0.5","68.4","27.3","58.1","0","0"],
    [19251,"2012-07-16T22:00:00","ND","ND","65.57","ND","ND","ND","0.7","119.3","26.1","64.7","0","0"],
    [19252,"2012-07-16T23:00:00","ND","ND","60.00","ND","ND","ND","0.3","132.1","25.2","69.2","0","0"],
    [19253,"2012-07-17T00:00:00","ND","ND","42.63","ND","ND","ND","0.1","166.7","24.5","72.7","0","0"],
    [19254,"2012-07-17T01:00:00","ND","ND","36.29","ND","ND","ND","0.4","232.2","23.8","76.5","0","0"],
    [19255,"2012-07-17T02:00:00","ND","ND","33.30","ND","ND","ND","0.3","193.8","23.5","78.7","0","0"],
    [19256,"2012-07-17T03:00:00","ND","ND","29.23","ND","ND","ND","0.2","281.1","22.7","82.5","0","0"],
    [19257,"2012-07-17T04:00:00","ND","ND","26.15","ND","ND","ND","0.2","322.7","22.1","83.7","0","0"],
    [19258,"2012-07-17T05:00:00","ND","ND","24.15","ND","ND","ND","0.1","337.1","21.6","85.6","0","0"],
    [19259,"2012-07-17T06:00:00","ND","ND","24.00","ND","ND","ND","0","237.7","21.4","85.9","0.6","0"],
    [19260,"2012-07-17T07:00:00","ND","ND","20.84","ND","ND","ND","0.2","346.7","21.9","83.9","33.4","0"],
    [19261,"2012-07-17T08:00:00","ND","ND","19.14","ND","ND","ND","0.5","16.6","22.7","81.5","148.3","0"],
    [19262,"2012-07-17T09:00:00","ND","ND","27.88","ND","ND","ND","1.1","42.5","24.2","76.5","311.1","0"],
    [19263,"2012-07-17T10:00:00","ND","ND","46.68","ND","ND","ND","0.6","12.3","25.3","72.2","332.6","0"],
    [19264,"2012-07-17T11:00:00","ND","ND","54.84","ND","ND","ND","0.9","54.5","26.6","67.7","531.4","0"],
    [19265,"2012-07-17T12:00:00","ND","ND","36.02","ND","ND","ND","1.5","79","28.1","61.3","647.2","0"],
    [19266,"2012-07-17T13:00:00","ND","ND","40.17","ND","ND","ND","1.3","62","29.5","54.6","629.6","0"],
    [19267,"2012-07-17T14:00:00","ND","ND","23.42","ND","ND","ND","0.8","45.4","30.7","49.2","656.1","0"],
    [19268,"2012-07-17T15:00:00","ND","ND","17.74","ND","ND","ND","0.1","36.6","31.7","45.8","551.6","0"],
    [19269,"2012-07-17T16:00:00","ND","ND","15.81","ND","ND","ND","0.7","17.1","31.7","45.2","288","0"],
    [19270,"2012-07-17T17:00:00","ND","ND","20.39","ND","ND","ND","0.9","230.6","31.9","46.4","212.9","0"],
    [19271,"2012-07-17T18:00:00","ND","ND","24.07","ND","ND","ND","0.8","251.3","30.1","50.5","29.5","0"],
    [19272,"2012-07-17T19:00:00","ND","ND","28.29","ND","ND","ND","2.2","266.5","29","52.6","0.8","0"],
    [19273,"2012-07-17T20:00:00","ND","ND","44.45","ND","ND","ND","0.4","119","28.7","53.5","0","0"],
    [19274,"2012-07-17T21:00:00","ND","ND","34.42","ND","ND","ND","1","106.4","28","56.8","0","0"],
    [19275,"2012-07-17T22:00:00","ND","ND","36.20","ND","ND","ND","0.7","57.1","27.2","60.2","0","0"],
    [19276,"2012-07-17T23:00:00","ND","ND","45.21","ND","ND","ND","1.3","168.3","25.9","67.7","0","0"],
    [19277,"2012-07-18T00:00:00","ND","ND","40.48","ND","ND","ND","0.3","16.6","25.5","69.5","0","0"],
    [19278,"2012-07-18T01:00:00","ND","ND","31.32","ND","ND","ND","0.3","269.2","25.2","71.3","0","0"],
    [19279,"2012-07-18T02:00:00","ND","ND","33.00","ND","ND","ND","0.3","318.3","24.9","70.3","0","0"],
    [19280,"2012-07-18T03:00:00","ND","ND","31.67","ND","ND","ND","1","137","25.1","65.6","0","0"],
    [19281,"2012-07-18T04:00:00","ND","ND","27.39","ND","ND","ND","0.7","136.3","24.3","70.2","0","0"],
    [19282,"2012-07-18T05:00:00","ND","ND","22.44","ND","ND","ND","0.1","358.9","23.6","74.2","0","0"],
    [19283,"2012-07-18T06:00:00","ND","ND","19.18","ND","ND","ND","0.2","305.8","23.4","73.2","0.2","0"],
    [19284,"2012-07-18T07:00:00","ND","ND","18.41","ND","ND","ND","0.4","208.7","23.1","73.9","14.6","0"],
    [19285,"2012-07-18T08:00:00","ND","ND","26.63","ND","ND","ND","0.6","200.1","24.1","72","155.2","0"],
    [19286,"2012-07-18T09:00:00","ND","ND","29.14","ND","ND","ND","1.8","160.4","25.8","62","434.9","0"],
    [19287,"2012-07-18T10:00:00","ND","ND","37.35","ND","ND","ND","1.4","143.2","27.4","55.5","577.1","0"],
    [19288,"2012-07-18T11:00:00","ND","ND","43.48","ND","ND","ND","1.7","128.2","28.6","53.1","677.3","0"],
    [19289,"2012-07-18T12:00:00","ND","ND","29.20","ND","ND","ND","1","77.9","29.3","50.6","640","0"],
    [19290,"2012-07-18T13:00:00","ND","ND","23.27","ND","ND","ND","0.8","27.8","30.4","46.7","689.8","0"],
    [19291,"2012-07-18T14:00:00","ND","ND","16.07","ND","ND","ND","1.8","46.6","31.1","43.9","689.9","0"],
    [19292,"2012-07-18T15:00:00","ND","ND","15.93","ND","ND","ND","1.1","49.2","31.9","41","607.2","0"],
    [19293,"2012-07-18T16:00:00","ND","ND","15.72","ND","ND","ND","1.3","44.8","32.3","39.5","318","0"],
    [19294,"2012-07-18T17:00:00","ND","ND","14.11","ND","ND","ND","ND","ND","ND","ND","ND","ND"],
    [19295,"2012-07-18T18:00:00","ND","ND","ND","ND","ND","ND","1.8","264.5","30.6","48.8","78.5","0"],
    [19296,"2012-07-18T19:00:00","ND","ND","28.03","ND","ND","ND","1","256.8","29.1","51.9","3.9","0"],
    [19297,"2012-07-18T20:00:00","ND","ND","22.51","ND","ND","ND","1.7","269.3","28.5","53.4","0","0"],
    [19298,"2012-07-18T21:00:00","ND","ND","39.86","ND","ND","ND","0.6","317.7","28.2","54.8","0","0"],
    [19299,"2012-07-18T22:00:00","ND","ND","28.17","ND","ND","ND","0.8","161.9","26.9","61.7","0","0"],
    [19300,"2012-07-18T23:00:00","ND","ND","32.53","ND","ND","ND","0.7","144","25.6","67.1","0","0"],
    [19301,"2012-07-19T00:00:00","ND","ND","47.35","ND","ND","ND","0.5","189.9","24.7","70.8","0","0"],
    [19302,"2012-07-19T01:00:00","ND","ND","39.81","ND","ND","ND","0.3","260.9","24","72.6","0","0"],
    [19303,"2012-07-19T02:00:00","ND","ND","39.27","ND","ND","ND","0.6","303","23.1","76.1","0","0"],
    [19304,"2012-07-19T03:00:00","ND","ND","34.47","ND","ND","ND","0.2","324","22.7","77.9","0","0"],
    [19305,"2012-07-19T04:00:00","ND","ND","29.85","ND","ND","ND","0.5","336.3","22","80.6","0","0"],
    [19306,"2012-07-19T05:00:00","ND","ND","28.86","ND","ND","ND","0.5","335.1","21.6","80.5","0","0"],
    [19307,"2012-07-19T06:00:00","ND","ND","26.25","ND","ND","ND","0","280.1","21.5","80.9","0.1","0"],
    [19308,"2012-07-19T07:00:00","ND","ND","25.35","ND","ND","ND","0.8","39.2","20.8","84.8","10","0"],
    [19309,"2012-07-19T08:00:00","ND","ND","23.82","ND","ND","ND","0.1","134.4","22","79.9","155.9","0"],
    [19310,"2012-07-19T09:00:00","ND","ND","28.77","ND","ND","ND","0.7","118.6","24.8","67.1","379.3","0"],
    [19311,"2012-07-19T10:00:00","ND","ND","31.70","ND","ND","ND","0.9","95.6","26.5","59.3","571.3","0"],
    [19312,"2012-07-19T11:00:00","ND","ND","46.57","ND","ND","ND","0.6","75.5","27.9","54.4","694","0"],
    [19313,"2012-07-19T12:00:00","ND","ND","31.06","ND","ND","ND","1.2","88.5","29.4","48.2","745.2","0"],
    [19314,"2012-07-19T13:00:00","ND","ND","18.02","ND","ND","ND","1","104.3","30.7","43","570.2","0"],
    [19315,"2012-07-19T14:00:00","ND","ND","17.85","ND","ND","ND","1","76.1","31.5","40.5","558.1","0"],
    [19316,"2012-07-19T15:00:00","ND","ND","18.71","ND","ND","ND","1.8","40.5","31.7","41.4","524","0"],
    [19317,"2012-07-19T16:00:00","ND","ND","18.85","ND","ND","ND","1.6","329","31.2","44.2","372.7","0"],
    [19318,"2012-07-19T17:00:00","ND","ND","20.53","ND","ND","ND","2.3","273","30.6","47.4","177.5","0"],
    [19319,"2012-07-19T18:00:00","ND","ND","18.38","ND","ND","ND","2.5","259.5","29.6","49.3","65.5","0"],
    [19320,"2012-07-19T19:00:00","ND","ND","23.50","ND","ND","ND","2.5","261.7","28.2","52.1","0.9","0"],
    [19321,"2012-07-19T20:00:00","ND","ND","33.96","ND","ND","ND","1.7","250","28","51.8","0","0"],
    [19322,"2012-07-19T21:00:00","ND","ND","34.60","ND","ND","ND","0.8","266.1","27.4","50.7","0","0"],
    [19323,"2012-07-19T22:00:00","ND","ND","ND","ND","ND","ND","0.7","94.1","26.5","59.2","0","0"],
    [19324,"2012-07-19T23:00:00","ND","ND","ND","ND","ND","ND","0.3","98.9","25.2","66.8","0","0"],
    [19325,"2012-07-20T00:00:00","ND","ND","ND","ND","ND","ND","0.3","159.3","24.5","69.4","0","0"],
    [19326,"2012-07-20T01:00:00","ND","ND","ND","ND","ND","ND","0.7","225.8","24.2","66.1","0","0"],
    [19327,"2012-07-20T02:00:00","ND","ND","ND","ND","ND","ND","0.1","125.9","23.5","70.2","0","0"],
    [19328,"2012-07-20T03:00:00","ND","ND","ND","ND","ND","ND","0.2","356.2","22.6","75.6","0","0"],
    [19329,"2012-07-20T04:00:00","ND","ND","ND","ND","ND","ND","0.3","250.6","22.4","74.3","0","0"],
    [19330,"2012-07-20T05:00:00","ND","ND","ND","ND","ND","ND","0.6","143.5","22.3","75.7","0","0"],
    [19331,"2012-07-20T06:00:00","ND","ND","ND","ND","ND","ND","1","189.7","22.1","68.2","0.1","0"],
    [19332,"2012-07-20T07:00:00","ND","ND","ND","ND","ND","ND","0.2","302.3","21.7","68.7","10.2","0"],
    [19333,"2012-07-20T08:00:00","ND","ND","ND","ND","ND","ND","0.2","292.1","22.4","67.8","54.7","0"],
    [19334,"2012-07-20T09:00:00","ND","ND","ND","ND","ND","ND","0.7","124.1","23.4","61.8","116.9","0"],
    [19335,"2012-07-20T10:00:00","ND","ND","ND","ND","ND","ND","0.9","80.2","23.7","60.8","272.2","0"],
    [19336,"2012-07-20T11:00:00","ND","ND","ND","ND","ND","ND","0.3","40.8","25.2","58.1","458","0"],
    [19337,"2012-07-20T12:00:00","ND","ND","ND","ND","ND","ND","0.7","61.6","26.6","52.2","550.4","0"],
    [19338,"2012-07-20T13:00:00","ND","ND","ND","ND","ND","ND","1.1","50.9","27.8","49.1","577.8","0"],
    [19339,"2012-07-20T14:00:00","ND","ND","ND","ND","ND","ND","1.9","74.8","28.3","49.6","468.8","0"],
    [19340,"2012-07-20T15:00:00","ND","ND","ND","ND","ND","ND","1.2","85.8","29.1","48.3","476.5","0"],
    [19341,"2012-07-20T16:00:00","ND","ND","ND","ND","ND","ND","1.3","89.8","29.3","47.2","280.1","0"],
    [19342,"2012-07-20T17:00:00","ND","ND","ND","ND","ND","ND","1","38.9","29.2","47.5","182.9","0"],
    [19343,"2012-07-20T18:00:00","ND","ND","ND","ND","ND","ND","0.5","318.6","28.1","51","24.5","0"],
    [19344,"2012-07-20T19:00:00","ND","ND","ND","ND","ND","ND","1.1","250.3","27","52.9","1","0"],
    [19345,"2012-07-20T20:00:00","ND","ND","ND","ND","ND","ND","0.3","228.2","26.7","53","0","0"],
    [19346,"2012-07-20T21:00:00","ND","ND","ND","ND","ND","ND","0.2","290","25.4","59.3","0","0"],
    [19347,"2012-07-20T22:00:00","ND","ND","ND","ND","ND","ND","0.1","95.8","24.3","64.3","0","0"],
    [19348,"2012-07-20T23:00:00","ND","ND","ND","ND","ND","ND","0.4","86.1","23.4","68.7","0","0"],
    [19349,"2012-07-21T00:00:00","ND","ND","ND","ND","ND","ND","0.2","298.9","22.5","71.7","0","0"],
    [19350,"2012-07-21T01:00:00","ND","ND","ND","ND","ND","ND","0.2","340.7","22","73.9","0","0"],
    [19351,"2012-07-21T02:00:00","ND","ND","ND","ND","ND","ND","0.1","243.3","21.5","75.2","0","0"],
    [19352,"2012-07-21T03:00:00","ND","ND","ND","ND","ND","ND","0.1","341","21.1","77.1","0","0"],
    [19353,"2012-07-21T04:00:00","ND","ND","ND","ND","ND","ND","0.6","348.8","20.8","79.3","0","0"],
    [19354,"2012-07-21T05:00:00","ND","ND","ND","ND","ND","ND","0.1","338.9","20.4","80.9","0","0"],
    [19355,"2012-07-21T06:00:00","ND","ND","ND","ND","ND","ND","0.3","293.8","19.8","82.8","0","0"],
    [19356,"2012-07-21T07:00:00","ND","ND","ND","ND","ND","ND","0.1","294.5","19.8","82.3","16.7","0"],
    [19357,"2012-07-21T08:00:00","ND","ND","ND","ND","ND","ND","0.1","50.8","21.8","74.6","164.7","0"],
    [19358,"2012-07-21T09:00:00","ND","ND","ND","ND","ND","ND","1","56","23.9","66.2","371.1","0"],
    [19359,"2012-07-21T10:00:00","ND","ND","ND","ND","ND","ND","0.8","59.2","25.2","60.3","552.7","0"],
    [19360,"2012-07-21T11:00:00","ND","ND","ND","ND","ND","ND","0.7","73.9","27.1","53.5","686.9","0"],
    [19361,"2012-07-21T12:00:00","ND","ND","ND","ND","ND","ND","1","31.2","28.5","49","747","0"],
    [19362,"2012-07-21T13:00:00","ND","ND","ND","ND","ND","ND","0.9","22.2","29.7","45.8","676","0"],
    [19363,"2012-07-21T14:00:00","ND","ND","ND","ND","ND","ND","1.2","93.4","30.8","43","687.2","0"],
    [19364,"2012-07-21T15:00:00","ND","ND","ND","ND","ND","ND","1.2","324.3","31.1","44.4","449.7","0"],
    [19365,"2012-07-21T16:00:00","ND","ND","ND","ND","ND","ND","3.3","283.3","30.6","46","397.4","0"],
    [19366,"2012-07-21T17:00:00","ND","ND","ND","ND","ND","ND","2.6","270.1","30","46.3","244","0"],
    [19367,"2012-07-21T18:00:00","ND","ND","ND","ND","ND","ND","0.9","286.4","29","47.8","46.1","0"],
    [19368,"2012-07-21T19:00:00","ND","ND","ND","ND","ND","ND","0.2","167.8","28.3","49.1","2.4","0"],
    [19369,"2012-07-21T20:00:00","ND","ND","ND","ND","ND","ND","0.4","74.7","27.4","53.1","0","0"],
    [19370,"2012-07-21T21:00:00","ND","ND","ND","ND","ND","ND","1.1","152","26.9","54.8","0","0"],
    [19371,"2012-07-21T22:00:00","ND","ND","ND","ND","ND","ND","0.7","77.4","25.2","64.5","0","0"],
    [19372,"2012-07-21T23:00:00","ND","ND","ND","ND","ND","ND","0.2","62.4","24.4","67.9","0","0"],
    [19373,"2012-07-22T00:00:00","ND","ND","ND","ND","ND","ND","0.4","103.4","24.1","68.8","0","0"],
    [19374,"2012-07-22T01:00:00","ND","ND","ND","ND","ND","ND","0.2","167.7","23.4","71.5","0","0"],
    [19375,"2012-07-22T02:00:00","ND","ND","ND","ND","ND","ND","0.2","148.8","23","73.8","0","0"],
    [19376,"2012-07-22T03:00:00","ND","ND","ND","ND","ND","ND","0.1","228","22.6","75.7","0","0"],
    [19377,"2012-07-22T04:00:00","ND","ND","ND","ND","ND","ND","0.1","279","22.4","77.2","0","0"],
    [19378,"2012-07-22T05:00:00","ND","ND","ND","ND","ND","ND","0.3","164.2","22.7","75.3","0","0"],
    [19379,"2012-07-22T06:00:00","ND","ND","ND","ND","ND","ND","0.3","348.7","22.1","78.9","0","0"],
    [19380,"2012-07-22T07:00:00","ND","ND","ND","ND","ND","ND","0.3","353","21.9","80","21.4","0"],
    [19381,"2012-07-22T08:00:00","ND","ND","ND","ND","ND","ND","0.2","16.7","23","75.1","100.9","0"],
    [19382,"2012-07-22T09:00:00","ND","ND","ND","ND","ND","ND","0.4","133.1","24.1","69.5","210.4","0"],
    [19383,"2012-07-22T10:00:00","ND","ND","ND","ND","ND","ND","0.3","56.3","26.1","61.7","543.8","0"],
    [19384,"2012-07-22T11:00:00","ND","ND","ND","ND","ND","ND","1.1","111.2","27.6","55.2","512.7","0"],
    [19385,"2012-07-22T12:00:00","ND","ND","ND","ND","ND","ND","1","99.2","28.5","53.5","723","0"],
    [19386,"2012-07-22T13:00:00","ND","ND","ND","ND","ND","ND","1.5","75.4","29.8","51.2","639.1","0"],
    [19387,"2012-07-22T14:00:00","ND","ND","ND","ND","ND","ND","1.3","41.7","30.3","50.2","480","0"],
    [19388,"2012-07-22T15:00:00","ND","ND","ND","ND","ND","ND","0.8","241.8","30.9","47.8","443.4","0"],
    [19389,"2012-07-22T16:00:00","ND","ND","ND","ND","ND","ND","2.7","254.2","30.2","47.5","180.4","0"],
    [19390,"2012-07-22T17:00:00","ND","ND","ND","ND","ND","ND","2.3","257.7","29.3","49.4","100.1","0"],
    [19391,"2012-07-22T18:00:00","ND","ND","ND","ND","ND","ND","2.2","245.4","28.9","50.3","44","0"],
    [19392,"2012-07-22T19:00:00","ND","ND","ND","ND","ND","ND","0.7","259.3","28","52.3","4.3","0"],
    [19393,"2012-07-22T20:00:00","ND","ND","ND","ND","ND","ND","0.2","262.8","26.9","56.3","0","0"],
    [19394,"2012-07-22T21:00:00","ND","ND","ND","ND","ND","ND","0.3","121.7","26.5","57.9","0","0"],
    [19395,"2012-07-22T22:00:00","ND","ND","ND","ND","ND","ND","0.5","112.2","25.6","62.5","0","0"],
    [19396,"2012-07-22T23:00:00","ND","ND","ND","ND","ND","ND","0.2","320","24.9","65.9","0","0"],
    [19397,"2012-07-23T00:00:00","ND","ND","ND","ND","ND","ND","0.6","167","24.4","67.9","0","0"],
    [19398,"2012-07-23T01:00:00","ND","ND","ND","ND","ND","ND","0.6","152.2","23.5","71.9","0","0"],
    [19399,"2012-07-23T02:00:00","ND","ND","ND","ND","ND","ND","0.3","172.4","22.9","75.3","0","0"],
    [19400,"2012-07-23T03:00:00","ND","ND","ND","ND","ND","ND","0.3","186.8","22.7","75.7","0","0"],
    [19401,"2012-07-23T04:00:00","ND","ND","ND","ND","ND","ND","0.1","273.4","22","77.7","0","0"],
    [19402,"2012-07-23T05:00:00","ND","ND","ND","ND","ND","ND","0.7","23.2","21","83.5","0","0"],
    [19403,"2012-07-23T06:00:00","ND","ND","ND","ND","ND","ND","0.2","305.1","21.2","83.3","0","0"],
    [19404,"2012-07-23T07:00:00","ND","ND","ND","ND","ND","ND","0.2","223.3","21.4","81.6","20.1","0"],
    [19405,"2012-07-23T08:00:00","ND","ND","ND","ND","ND","ND","0.2","61.1","22.5","75.8","86.1","0"],
    [19406,"2012-07-23T09:00:00","ND","ND","ND","ND","ND","ND","0.7","40.1","23.2","74.2","193.5","0"],
    [19407,"2012-07-23T10:00:00","ND","ND","ND","ND","ND","ND","0.2","135.1","25.1","66.2","392.4","0"],
    [19408,"2012-07-23T11:00:00","ND","ND","ND","ND","ND","ND","1.2","89","26","62.4","187.8","0"],
    [19409,"2012-07-23T12:00:00","ND","ND","ND","ND","ND","ND","1","68.4","26.5","59.1","324.7","0"],
    [19410,"2012-07-23T13:00:00","ND","ND","ND","ND","ND","ND","0.6","69.5","28","54","657.7","0"],
    [19411,"2012-07-23T14:00:00","ND","ND","ND","ND","ND","ND","1.3","168","29.5","49.1","721.5","0"],
    [19412,"2012-07-23T15:00:00","ND","ND","ND","ND","ND","ND","1.6","116.3","30.5","45","575.6","0"],
    [19413,"2012-07-23T16:00:00","ND","ND","ND","ND","ND","ND","1","48.8","30.6","43.2","275.3","0"],
    [19414,"2012-07-23T17:00:00","ND","ND","ND","ND","ND","ND","1.1","18","29.7","46.8","102.2","0"],
    [19415,"2012-07-23T18:00:00","ND","ND","ND","ND","ND","ND","1.1","286.2","28.7","50.4","28","0"],
    [19416,"2012-07-23T19:00:00","ND","ND","ND","ND","ND","ND","0.4","297.7","27.7","51.3","0.5","0"],
    [19417,"2012-07-23T20:00:00","ND","ND","ND","ND","ND","ND","0.2","79.7","27.6","51.2","0","0"],
    [19418,"2012-07-23T21:00:00","ND","ND","ND","ND","ND","ND","1","141","27.4","52.4","0","0"],
    [19419,"2012-07-23T22:00:00","ND","ND","ND","ND","ND","ND","0.7","89.2","26.6","56.8","0","0"],
    [19420,"2012-07-23T23:00:00","ND","ND","ND","ND","ND","ND","0.7","127.4","26","60.8","0","0"],
    [19421,"2012-07-24T00:00:00","ND","ND","ND","ND","ND","ND","0.2","106","25.1","65.1","0","0"],
    [19422,"2012-07-24T01:00:00","ND","ND","ND","ND","ND","ND","0.5","2.2","24","70.4","0","0"],
    [19423,"2012-07-24T02:00:00","ND","ND","ND","ND","ND","ND","0.2","7.8","23.5","72.9","0","0"],
    [19424,"2012-07-24T03:00:00","ND","ND","ND","ND","ND","ND","0.5","345.5","23.3","73.9","0","0"],
    [19425,"2012-07-24T04:00:00","ND","ND","ND","ND","ND","ND","0.4","263.5","22.8","76","0","0"],
    [19426,"2012-07-24T05:00:00","ND","ND","ND","ND","ND","ND","0.3","29.2","22.6","76.9","0","0"],
    [19427,"2012-07-24T06:00:00","ND","ND","ND","ND","ND","ND","0.1","47.7","22.1","78.9","0.1","0"],
    [19428,"2012-07-24T07:00:00","ND","ND","ND","ND","ND","ND","0.7","233","22.2","78.7","18.8","0"],
    [19429,"2012-07-24T08:00:00","ND","ND","ND","ND","ND","ND","1.1","151.6","23.2","73.8","87.8","0"],
    [19430,"2012-07-24T09:00:00","ND","ND","ND","ND","ND","ND","0.8","136.3","24.9","65.1","384","0"],
    [19431,"2012-07-24T10:00:00","ND","ND","ND","ND","ND","ND","0.7","106.4","26.4","59.1","573.2","0"],
    [19432,"2012-07-24T11:00:00","ND","ND","ND","ND","ND","ND","0.8","94.2","27.9","54.7","671.3","0"],
    [19433,"2012-07-24T12:00:00","ND","ND","ND","ND","ND","ND","1","114.8","29.2","51.6","634.9","0"],
    [19434,"2012-07-24T13:00:00","ND","ND","ND","ND","ND","ND","1.2","52.6","29.2","52.1","398.7","0"],
    [19435,"2012-07-24T14:00:00","ND","ND","ND","ND","ND","ND","0.6","63.9","29.7","50.8","247.9","0"],
    [19436,"2012-07-24T15:00:00","ND","ND","ND","ND","ND","ND","1.6","282.4","29.1","50.6","242.6","0"],
    [19437,"2012-07-24T16:00:00","ND","ND","ND","ND","ND","ND","2.8","255.1","29.8","46.4","427.2","0"],
    [19438,"2012-07-24T17:00:00","ND","ND","ND","ND","ND","ND","2.2","266.3","30.1","44.6","255","0"],
    [19439,"2012-07-24T18:00:00","ND","ND","ND","ND","ND","ND","1.4","277.2","29.2","47.6","102.8","0"],
    [19440,"2012-07-24T19:00:00","ND","ND","ND","ND","ND","ND","1.4","251.2","27.7","51.9","3.2","0"],
    [19441,"2012-07-24T20:00:00","ND","ND","ND","ND","ND","ND","0.5","245.1","26.8","54.9","0","0"],
    [19442,"2012-07-24T21:00:00","ND","ND","ND","ND","ND","ND","0.3","132.4","26.5","56","0","0"],
    [19443,"2012-07-24T22:00:00","ND","ND","ND","ND","ND","ND","0.5","143.3","26","58.4","0","0"],
    [19444,"2012-07-24T23:00:00","ND","ND","ND","ND","ND","ND","0.9","119.8","24.7","65.1","0","0"],
    [19445,"2012-07-25T00:00:00","ND","ND","ND","ND","ND","ND","0.1","260.4","23.5","70.8","0","0"],
    [19446,"2012-07-25T01:00:00","ND","ND","ND","ND","ND","ND","0.7","166.7","23.3","71.8","0","0"],
    [19447,"2012-07-25T02:00:00","ND","ND","ND","ND","ND","ND","0.7","135.9","22.8","74","0","0"],
    [19448,"2012-07-25T03:00:00","ND","ND","ND","ND","ND","ND","0.1","354","21.8","78","0","0"],
    [19449,"2012-07-25T04:00:00","ND","ND","ND","ND","ND","ND","0.2","285.3","21.4","80","0","0"],
    [19450,"2012-07-25T05:00:00","ND","ND","ND","ND","ND","ND","0.1","294.5","21","81.7","0","0"],
    [19451,"2012-07-25T06:00:00","ND","ND","ND","ND","ND","ND","0.1","271.5","20.7","83.8","0.1","0"],
    [19452,"2012-07-25T07:00:00","ND","ND","ND","ND","ND","ND","0.2","305.9","21.1","82","9.6","0"],
    [19453,"2012-07-25T08:00:00","ND","ND","ND","ND","ND","ND","0.7","45.8","21.5","80.7","62.3","0"],
    [19454,"2012-07-25T09:00:00","ND","ND","ND","ND","ND","ND","1","37.1","22.4","77.7","176.8","0"],
    [19455,"2012-07-25T10:00:00","ND","ND","ND","ND","ND","ND","0.8","86","25.3","65.5","539.5","0"],
    [19456,"2012-07-25T11:00:00","ND","ND","ND","ND","ND","ND","1.2","81.3","26.9","57.4","666.6","0"],
    [19457,"2012-07-25T12:00:00","ND","ND","ND","ND","ND","ND","1","83.7","28.7","51.3","725.3","0"],
    [19458,"2012-07-25T13:00:00","ND","ND","ND","ND","ND","ND","1","52.4","30.3","46.3","720.7","0"],
    [19459,"2012-07-25T14:00:00","ND","ND","ND","ND","ND","ND","1.3","43","31.5","41.7","703.1","0"],
    [19460,"2012-07-25T15:00:00","ND","ND","ND","ND","ND","ND","1","61.6","32.8","33.6","613.7","0"],
    [19461,"2012-07-25T16:00:00","ND","ND","ND","ND","ND","ND","1.3","60.1","33.6","29","454.4","0"],
    [19462,"2012-07-25T17:00:00","ND","ND","ND","ND","ND","ND","2.1","285.5","32.6","36.7","282","0"],
    [19463,"2012-07-25T18:00:00","ND","ND","ND","ND","ND","ND","1","262","31.3","40.8","86.6","0"],
    [19464,"2012-07-25T19:00:00","ND","ND","ND","ND","ND","ND","0.6","235.1","29.2","45.8","3","0"],
    [19465,"2012-07-25T20:00:00","ND","ND","ND","ND","ND","ND","0","173.2","27.8","50.6","0","0"],
    [19466,"2012-07-25T21:00:00","ND","ND","ND","ND","ND","ND","0.2","265","27.2","52.3","0","0"],
    [19467,"2012-07-25T22:00:00","ND","ND","ND","ND","ND","ND","0.7","325.5","26.2","58.2","0","0"],
    [19468,"2012-07-25T23:00:00","ND","ND","ND","ND","ND","ND","0.5","164.3","25.4","62.5","0","0"],
    [19469,"2012-07-26T00:00:00","ND","ND","ND","ND","ND","ND","0.9","167.7","24.7","65.2","0","0"],
    [19470,"2012-07-26T01:00:00","ND","ND","ND","ND","ND","ND","0.2","250.3","23.7","69.6","0","0"],
    [19471,"2012-07-26T02:00:00","ND","ND","ND","ND","ND","ND","0.1","278.6","22.8","72.9","0","0"],
    [19472,"2012-07-26T03:00:00","ND","ND","ND","ND","ND","ND","0.5","243.5","22.6","74.7","0","0"],
    [19473,"2012-07-26T04:00:00","ND","ND","ND","ND","ND","ND","0.3","248.1","23.2","72.8","0","0"],
    [19474,"2012-07-26T05:00:00","ND","ND","ND","ND","ND","ND","0.3","187.7","22.6","73.1","0","0"],
    [19475,"2012-07-26T06:00:00","ND","ND","ND","ND","ND","ND","0.1","5.2","21.7","77.7","0","0"],
    [19476,"2012-07-26T07:00:00","ND","ND","ND","ND","ND","ND","0","271.7","21.5","78.6","29.3","0"],
    [19477,"2012-07-26T08:00:00","ND","ND","ND","ND","ND","ND","0.2","150.5","23.6","70","168.7","0"],
    [19478,"2012-07-26T09:00:00","ND","ND","ND","ND","ND","ND","0.4","102.6","25.5","62.6","348.6","0"],
    [19479,"2012-07-26T10:00:00","ND","ND","ND","ND","ND","ND","ND","ND","ND","ND","ND","ND"],
    [19480,"2012-07-26T11:00:00","ND","ND","ND","ND","ND","ND","ND","ND","ND","ND","ND","ND"],
    [19481,"2012-07-26T12:00:00","ND","ND","ND","ND","ND","ND","ND","ND","ND","ND","ND","ND"],
    [19482,"2012-07-26T13:00:00","ND","ND","ND","ND","ND","ND","ND","ND","ND","ND","ND","ND"],
    [19483,"2012-07-26T14:00:00","ND","ND","ND","ND","ND","ND","ND","ND","ND","ND","ND","ND"],
    [19484,"2012-07-26T15:00:00","ND","ND","ND","ND","ND","ND","ND","ND","ND","ND","ND","ND"],
    [19485,"2012-07-26T16:00:00","ND","ND","ND","ND","ND","ND","ND","ND","ND","ND","ND","ND"],
    [19486,"2012-07-26T17:00:00","ND","ND","ND","ND","ND","ND","ND","ND","ND","ND","ND","ND"],
    [19487,"2012-07-26T18:00:00","ND","ND","ND","ND","ND","ND","ND","ND","ND","ND","ND","ND"],
    [19488,"2012-07-26T19:00:00","ND","ND","ND","ND","ND","ND","ND","ND","ND","ND","ND","ND"],
    [19489,"2012-07-26T20:00:00","ND","ND","ND","ND","ND","ND","ND","ND","ND","ND","ND","ND"],
    [19490,"2012-07-26T21:00:00","ND","ND","ND","ND","ND","ND","ND","ND","ND","ND","ND","ND"],
    [19491,"2012-07-26T22:00:00","ND","ND","ND","ND","ND","ND","ND","ND","ND","ND","ND","ND"],
    [19492,"2012-07-26T23:00:00","ND","ND","ND","ND","ND","ND","ND","ND","ND","ND","ND","ND"],
    [19493,"2012-07-27T00:00:00","ND","ND","ND","ND","ND","ND","ND","ND","ND","ND","ND","ND"],
    [19494,"2012-07-27T01:00:00","ND","ND","ND","ND","ND","ND","ND","ND","ND","ND","ND","ND"],
    [19495,"2012-07-27T02:00:00","ND","ND","ND","ND","ND","ND","ND","ND","ND","ND","ND","ND"],
    [19496,"2012-07-27T03:00:00","ND","ND","ND","ND","ND","ND","ND","ND","ND","ND","ND","ND"],
    [19497,"2012-07-27T04:00:00","ND","ND","ND","ND","ND","ND","ND","ND","ND","ND","ND","ND"],
    [19498,"2012-07-27T05:00:00","ND","ND","ND","ND","ND","ND","ND","ND","ND","ND","ND","ND"],
    [19499,"2012-07-27T06:00:00","ND","ND","ND","ND","ND","ND","ND","ND","ND","ND","ND","ND"],
    [19500,"2012-07-27T07:00:00","ND","ND","ND","ND","ND","ND","ND","ND","ND","ND","ND","ND"],
    [19501,"2012-07-27T08:00:00","ND","ND","ND","ND","ND","ND","ND","ND","ND","ND","ND","ND"],
    [19502,"2012-07-27T09:00:00","ND","ND","ND","ND","ND","ND","ND","ND","ND","ND","ND","ND"],
    [19503,"2012-07-27T10:00:00","ND","ND","ND","ND","ND","ND","ND","ND","ND","ND","ND","ND"],
    [19504,"2012-07-27T11:00:00","ND","ND","ND","ND","ND","ND","ND","ND","ND","ND","ND","ND"],
    [19505,"2012-07-27T12:00:00","ND","ND","ND","ND","ND","ND","ND","ND","ND","ND","ND","ND"],
    [19506,"2012-07-27T13:00:00","ND","ND","ND","ND","ND","ND","ND","ND","ND","ND","ND","ND"],
    [19507,"2012-07-27T14:00:00","ND","ND","ND","ND","ND","ND","ND","ND","ND","ND","ND","ND"],
    [19508,"2012-07-27T15:00:00","ND","ND","ND","ND","ND","ND","ND","ND","ND","ND","ND","ND"],
    [19509,"2012-07-27T16:00:00","ND","ND","ND","ND","ND","ND","ND","ND","ND","ND","ND","ND"],
    [19510,"2012-07-27T17:00:00","ND","ND","ND","ND","ND","ND","ND","ND","ND","ND","ND","ND"],
    [19511,"2012-07-27T18:00:00","ND","ND","ND","ND","ND","ND","ND","ND","ND","ND","ND","ND"],
    [19512,"2012-07-27T19:00:00","ND","ND","ND","ND","ND","ND","ND","ND","ND","ND","ND","ND"],
    [19513,"2012-07-27T20:00:00","ND","ND","ND","ND","ND","ND","ND","ND","ND","ND","ND","ND"],
    [19514,"2012-07-27T21:00:00","ND","ND","ND","ND","ND","ND","ND","ND","ND","ND","ND","ND"],
    [19515,"2012-07-27T22:00:00","ND","ND","ND","ND","ND","ND","ND","ND","ND","ND","ND","ND"],
    [19516,"2012-07-27T23:00:00","ND","ND","ND","ND","ND","ND","ND","ND","ND","ND","ND","ND"],
    [19517,"2012-07-28T00:00:00","ND","ND","ND","ND","ND","ND","ND","ND","ND","ND","ND","ND"],
    [19518,"2012-07-28T01:00:00","ND","ND","ND","ND","ND","ND","ND","ND","ND","ND","ND","ND"],
    [19519,"2012-07-28T02:00:00","ND","ND","ND","ND","ND","ND","ND","ND","ND","ND","ND","ND"],
    [19520,"2012-07-28T03:00:00","ND","ND","ND","ND","ND","ND","ND","ND","ND","ND","ND","ND"],
    [19521,"2012-07-28T04:00:00","ND","ND","ND","ND","ND","ND","ND","ND","ND","ND","ND","ND"],
    [19522,"2012-07-28T05:00:00","ND","ND","ND","ND","ND","ND","ND","ND","ND","ND","ND","ND"],
    [19523,"2012-07-28T06:00:00","ND","ND","ND","ND","ND","ND","ND","ND","ND","ND","ND","ND"],
    [19524,"2012-07-28T07:00:00","ND","ND","ND","ND","ND","ND","ND","ND","ND","ND","ND","ND"],
    [19525,"2012-07-28T08:00:00","ND","ND","ND","ND","ND","ND","ND","ND","ND","ND","ND","ND"],
    [19526,"2012-07-28T09:00:00","ND","ND","ND","ND","ND","ND","ND","ND","ND","ND","ND","ND"],
    [19527,"2012-07-28T10:00:00","ND","ND","ND","ND","ND","ND","ND","ND","ND","ND","ND","ND"],
    [19528,"2012-07-28T11:00:00","ND","ND","ND","ND","ND","ND","ND","ND","ND","ND","ND","ND"],
    [19529,"2012-07-28T12:00:00","ND","ND","ND","ND","ND","ND","ND","ND","ND","ND","ND","ND"],
    [19530,"2012-07-28T13:00:00","ND","ND","ND","ND","ND","ND","ND","ND","ND","ND","ND","ND"],
    [19531,"2012-07-28T14:00:00","ND","ND","ND","ND","ND","ND","ND","ND","ND","ND","ND","ND"],
    [19532,"2012-07-28T15:00:00","ND","ND","ND","ND","ND","ND","ND","ND","ND","ND","ND","ND"],
    [19533,"2012-07-28T16:00:00","ND","ND","ND","ND","ND","ND","ND","ND","ND","ND","ND","ND"],
    [19534,"2012-07-28T17:00:00","ND","ND","ND","ND","ND","ND","ND","ND","ND","ND","ND","ND"],
    [19535,"2012-07-28T18:00:00","ND","ND","ND","ND","ND","ND","ND","ND","ND","ND","ND","ND"],
    [19536,"2012-07-28T19:00:00","ND","ND","ND","ND","ND","ND","ND","ND","ND","ND","ND","ND"],
    [19537,"2012-07-28T20:00:00","ND","ND","ND","ND","ND","ND","ND","ND","ND","ND","ND","ND"],
    [19538,"2012-07-28T21:00:00","ND","ND","ND","ND","ND","ND","ND","ND","ND","ND","ND","ND"],
    [19539,"2012-07-28T22:00:00","ND","ND","ND","ND","ND","ND","ND","ND","ND","ND","ND","ND"],
    [19540,"2012-07-28T23:00:00","ND","ND","ND","ND","ND","ND","ND","ND","ND","ND","ND","ND"],
    [19541,"2012-07-29T00:00:00","ND","ND","ND","ND","ND","ND","ND","ND","ND","ND","ND","ND"],
    [19542,"2012-07-29T01:00:00","ND","ND","ND","ND","ND","ND","ND","ND","ND","ND","ND","ND"],
    [19543,"2012-07-29T02:00:00","ND","ND","ND","ND","ND","ND","ND","ND","ND","ND","ND","ND"],
    [19544,"2012-07-29T03:00:00","ND","ND","ND","ND","ND","ND","ND","ND","ND","ND","ND","ND"],
    [19545,"2012-07-29T04:00:00","ND","ND","ND","ND","ND","ND","ND","ND","ND","ND","ND","ND"],
    [19546,"2012-07-29T05:00:00","ND","ND","ND","ND","ND","ND","ND","ND","ND","ND","ND","ND"],
    [19547,"2012-07-29T06:00:00","ND","ND","ND","ND","ND","ND","ND","ND","ND","ND","ND","ND"],
    [19548,"2012-07-29T07:00:00","ND","ND","ND","ND","ND","ND","ND","ND","ND","ND","ND","ND"],
    [19549,"2012-07-29T08:00:00","ND","ND","ND","ND","ND","ND","ND","ND","ND","ND","ND","ND"],
    [19550,"2012-07-29T09:00:00","ND","ND","ND","ND","ND","ND","ND","ND","ND","ND","ND","ND"],
    [19551,"2012-07-29T10:00:00","ND","ND","ND","ND","ND","ND","ND","ND","ND","ND","ND","ND"],
    [19552,"2012-07-29T11:00:00","ND","ND","ND","ND","ND","ND","ND","ND","ND","ND","ND","ND"],
    [19553,"2012-07-29T12:00:00","ND","ND","ND","ND","ND","ND","ND","ND","ND","ND","ND","ND"],
    [19554,"2012-07-29T13:00:00","ND","ND","ND","ND","ND","ND","ND","ND","ND","ND","ND","ND"],
    [19555,"2012-07-29T14:00:00","ND","ND","ND","ND","ND","ND","ND","ND","ND","ND","ND","ND"],
    [19556,"2012-07-29T15:00:00","ND","ND","ND","ND","ND","ND","ND","ND","ND","ND","ND","ND"],
    [19557,"2012-07-29T16:00:00","ND","ND","ND","ND","ND","ND","ND","ND","ND","ND","ND","ND"],
    [19558,"2012-07-29T17:00:00","ND","ND","ND","ND","ND","ND","ND","ND","ND","ND","ND","ND"],
    [19559,"2012-07-29T18:00:00","ND","ND","ND","ND","ND","ND","ND","ND","ND","ND","ND","ND"],
    [19560,"2012-07-29T19:00:00","ND","ND","ND","ND","ND","ND","ND","ND","ND","ND","ND","ND"],
    [19561,"2012-07-29T20:00:00","ND","ND","ND","ND","ND","ND","ND","ND","ND","ND","ND","ND"],
    [19562,"2012-07-29T21:00:00","ND","ND","ND","ND","ND","ND","ND","ND","ND","ND","ND","ND"],
    [19563,"2012-07-29T22:00:00","ND","ND","ND","ND","ND","ND","ND","ND","ND","ND","ND","ND"],
    [19564,"2012-07-29T23:00:00","ND","ND","ND","ND","ND","ND","ND","ND","ND","ND","ND","ND"],
    [19565,"2012-07-30T00:00:00","ND","ND","ND","ND","ND","ND","ND","ND","ND","ND","ND","ND"],
    [19566,"2012-07-30T01:00:00","ND","ND","ND","ND","ND","ND","ND","ND","ND","ND","ND","ND"],
    [19567,"2012-07-30T02:00:00","ND","ND","ND","ND","ND","ND","ND","ND","ND","ND","ND","ND"],
    [19568,"2012-07-30T03:00:00","ND","ND","ND","ND","ND","ND","ND","ND","ND","ND","ND","ND"],
    [19569,"2012-07-30T04:00:00","ND","ND","ND","ND","ND","ND","ND","ND","ND","ND","ND","ND"],
    [19570,"2012-07-30T05:00:00","ND","ND","ND","ND","ND","ND","ND","ND","ND","ND","ND","ND"],
    [19571,"2012-07-30T06:00:00","ND","ND","ND","ND","ND","ND","ND","ND","ND","ND","ND","ND"],
    [19572,"2012-07-30T07:00:00","ND","ND","ND","ND","ND","ND","ND","ND","ND","ND","ND","ND"],
    [19573,"2012-07-30T08:00:00","ND","ND","ND","ND","ND","ND","ND","ND","ND","ND","ND","ND"],
    [19574,"2012-07-30T09:00:00","ND","ND","ND","ND","ND","ND","ND","ND","ND","ND","ND","ND"],
    [19575,"2012-07-30T10:00:00","ND","ND","ND","ND","ND","ND","ND","ND","ND","ND","ND","ND"],
    [19576,"2012-07-30T11:00:00","ND","ND","ND","ND","ND","ND","ND","ND","ND","ND","ND","ND"],
    [19577,"2012-07-30T12:00:00","ND","ND","ND","ND","ND","ND","ND","ND","ND","ND","ND","ND"],
    [19578,"2012-07-30T13:00:00","ND","ND","ND","ND","ND","ND","ND","ND","ND","ND","ND","ND"],
    [19579,"2012-07-30T14:00:00","ND","ND","ND","ND","ND","ND","ND","ND","ND","ND","ND","ND"],
    [19580,"2012-07-30T15:00:00","ND","ND","ND","ND","ND","ND","ND","ND","ND","ND","ND","ND"],
    [19581,"2012-07-30T16:00:00","ND","ND","ND","ND","ND","ND","ND","ND","ND","ND","ND","ND"],
    [19582,"2012-07-30T17:00:00","ND","ND","ND","ND","ND","ND","ND","ND","ND","ND","ND","ND"],
    [19583,"2012-07-30T18:00:00","ND","ND","ND","ND","ND","ND","ND","ND","ND","ND","ND","ND"],
    [19584,"2012-07-30T19:00:00","ND","ND","ND","ND","ND","ND","ND","ND","ND","ND","ND","ND"],
    [19585,"2012-07-30T20:00:00","ND","ND","ND","ND","ND","ND","ND","ND","ND","ND","ND","ND"],
    [19586,"2012-07-30T21:00:00","ND","ND","ND","ND","ND","ND","ND","ND","ND","ND","ND","ND"],
    [19587,"2012-07-30T22:00:00","ND","ND","ND","ND","ND","ND","ND","ND","ND","ND","ND","ND"],
    [19588,"2012-07-30T23:00:00","ND","ND","ND","ND","ND","ND","ND","ND","ND","ND","ND","ND"],
    [19589,"2012-07-31T00:00:00","ND","ND","ND","ND","ND","ND","ND","ND","ND","ND","ND","ND"],
    [19590,"2012-07-31T01:00:00","ND","ND","ND","ND","ND","ND","ND","ND","ND","ND","ND","ND"],
    [19591,"2012-07-31T02:00:00","ND","ND","ND","ND","ND","ND","ND","ND","ND","ND","ND","ND"],
    [19592,"2012-07-31T03:00:00","ND","ND","ND","ND","ND","ND","ND","ND","ND","ND","ND","ND"],
    [19593,"2012-07-31T04:00:00","ND","ND","ND","ND","ND","ND","ND","ND","ND","ND","ND","ND"],
    [19594,"2012-07-31T05:00:00","ND","ND","ND","ND","ND","ND","ND","ND","ND","ND","ND","ND"],
    [19595,"2012-07-31T06:00:00","ND","ND","ND","ND","ND","ND","ND","ND","ND","ND","ND","ND"],
    [19596,"2012-07-31T07:00:00","ND","ND","ND","ND","ND","ND","ND","ND","ND","ND","ND","ND"],
    [19597,"2012-07-31T08:00:00","ND","ND","ND","ND","ND","ND","ND","ND","ND","ND","ND","ND"],
    [19598,"2012-07-31T09:00:00","ND","ND","ND","ND","ND","ND","ND","ND","ND","ND","ND","ND"],
    [19599,"2012-07-31T10:00:00","ND","ND","ND","ND","ND","ND","ND","ND","ND","ND","ND","ND"],
    [19600,"2012-07-31T11:00:00","ND","ND","ND","ND","ND","ND","ND","ND","ND","ND","ND","ND"],
    [19601,"2012-07-31T12:00:00","ND","ND","ND","ND","ND","ND","ND","ND","ND","ND","ND","ND"],
    [19602,"2012-07-31T13:00:00","ND","ND","ND","ND","ND","ND","ND","ND","ND","ND","ND","ND"],
    [19603,"2012-07-31T14:00:00","ND","ND","ND","ND","ND","ND","ND","ND","ND","ND","ND","ND"],
    [19604,"2012-07-31T15:00:00","ND","ND","ND","ND","ND","ND","ND","ND","ND","ND","ND","ND"],
    [19605,"2012-07-31T16:00:00","ND","ND","ND","ND","ND","ND","ND","ND","ND","ND","ND","ND"],
    [19606,"2012-07-31T17:00:00","ND","ND","ND","ND","ND","ND","ND","ND","ND","ND","ND","ND"],
    [19607,"2012-07-31T18:00:00","ND","ND","ND","ND","ND","ND","ND","ND","ND","ND","ND","ND"],
    [19608,"2012-07-31T19:00:00","ND","ND","ND","ND","ND","ND","ND","ND","ND","ND","ND","ND"],
    [19609,"2012-07-31T20:00:00","ND","ND","ND","ND","ND","ND","ND","ND","ND","ND","ND","ND"],
    [19610,"2012-07-31T21:00:00","ND","ND","ND","ND","ND","ND","ND","ND","ND","ND","ND","ND"],
    [19611,"2012-07-31T22:00:00","ND","ND","ND","ND","ND","ND","ND","ND","ND","ND","ND","ND"],
    [19612,"2012-07-31T23:00:00","ND","ND","ND","ND","ND","ND","ND","ND","ND","ND","ND","ND"],
    [19613,"2012-08-01T00:00:00","ND","ND","ND","ND","ND","ND","ND","ND","ND","ND","ND","ND"],
    [19614,"2012-08-01T01:00:00","ND","ND","ND","ND","ND","ND","ND","ND","ND","ND","ND","ND"],
    [19615,"2012-08-01T02:00:00","ND","ND","ND","ND","ND","ND","ND","ND","ND","ND","ND","ND"],
    [19616,"2012-08-01T03:00:00","ND","ND","ND","ND","ND","ND","ND","ND","ND","ND","ND","ND"],
    [19617,"2012-08-01T04:00:00","ND","ND","ND","ND","ND","ND","ND","ND","ND","ND","ND","ND"],
    [19618,"2012-08-01T05:00:00","ND","ND","ND","ND","ND","ND","ND","ND","ND","ND","ND","ND"],
    [19619,"2012-08-01T06:00:00","ND","ND","ND","ND","ND","ND","ND","ND","ND","ND","ND","ND"],
    [19620,"2012-08-01T07:00:00","ND","ND","ND","ND","ND","ND","ND","ND","ND","ND","ND","ND"],
    [19621,"2012-08-01T08:00:00","ND","ND","ND","ND","ND","ND","ND","ND","ND","ND","ND","ND"],
    [19622,"2012-08-01T09:00:00","ND","ND","ND","ND","ND","ND","ND","ND","ND","ND","ND","ND"],
    [19623,"2012-08-01T10:00:00","ND","ND","ND","ND","ND","ND","ND","ND","ND","ND","ND","ND"],
    [19624,"2012-08-01T11:00:00","ND","ND","ND","ND","ND","ND","ND","ND","ND","ND","ND","ND"],
    [19625,"2012-08-01T12:00:00","ND","ND","ND","ND","ND","ND","ND","ND","ND","ND","ND","ND"],
    [19626,"2012-08-01T13:00:00","ND","ND","ND","ND","ND","ND","ND","ND","ND","ND","ND","ND"],
    [19627,"2012-08-01T14:00:00","ND","ND","ND","ND","ND","ND","ND","ND","ND","ND","ND","ND"],
    [19628,"2012-08-01T15:00:00","ND","ND","ND","ND","ND","ND","ND","ND","ND","ND","ND","ND"],
    [19629,"2012-08-01T16:00:00","ND","ND","ND","ND","ND","ND","ND","ND","ND","ND","ND","ND"],
    [19630,"2012-08-01T17:00:00","ND","ND","ND","ND","ND","ND","ND","ND","ND","ND","ND","ND"],
    [19631,"2012-08-01T18:00:00","ND","ND","ND","ND","ND","ND","ND","ND","ND","ND","ND","ND"],
    [19632,"2012-08-01T19:00:00","ND","ND","ND","ND","ND","ND","ND","ND","ND","ND","ND","ND"],
    [19633,"2012-08-01T20:00:00","ND","ND","ND","ND","ND","ND","ND","ND","ND","ND","ND","ND"],
    [19634,"2012-08-01T21:00:00","ND","ND","ND","ND","ND","ND","ND","ND","ND","ND","ND","ND"],
    [19635,"2012-08-01T22:00:00","ND","ND","ND","ND","ND","ND","ND","ND","ND","ND","ND","ND"],
    [19636,"2012-08-01T23:00:00","ND","ND","ND","ND","ND","ND","ND","ND","ND","ND","ND","ND"],
    [19637,"2012-08-02T00:00:00","ND","ND","ND","ND","ND","ND","ND","ND","ND","ND","ND","ND"],
    [19638,"2012-08-02T01:00:00","ND","ND","ND","ND","ND","ND","ND","ND","ND","ND","ND","ND"],
    [19639,"2012-08-02T02:00:00","ND","ND","ND","ND","ND","ND","ND","ND","ND","ND","ND","ND"],
    [19640,"2012-08-02T03:00:00","ND","ND","ND","ND","ND","ND","ND","ND","ND","ND","ND","ND"],
    [19641,"2012-08-02T04:00:00","ND","ND","ND","ND","ND","ND","ND","ND","ND","ND","ND","ND"],
    [19642,"2012-08-02T05:00:00","ND","ND","ND","ND","ND","ND","ND","ND","ND","ND","ND","ND"],
    [19643,"2012-08-02T06:00:00","ND","ND","ND","ND","ND","ND","ND","ND","ND","ND","ND","ND"],
    [19644,"2012-08-02T07:00:00","ND","ND","ND","ND","ND","ND","ND","ND","ND","ND","ND","ND"],
    [19645,"2012-08-02T08:00:00","ND","ND","ND","ND","ND","ND","ND","ND","ND","ND","ND","ND"],
    [19646,"2012-08-02T09:00:00","ND","ND","ND","ND","ND","ND","ND","ND","ND","ND","ND","ND"],
    [19647,"2012-08-02T10:00:00","ND","ND","ND","ND","ND","ND","ND","ND","ND","ND","ND","ND"],
    [19648,"2012-08-02T11:00:00","ND","ND","ND","ND","ND","ND","ND","ND","ND","ND","ND","ND"],
    [19649,"2012-08-02T12:00:00","ND","ND","ND","ND","ND","ND","ND","ND","ND","ND","ND","ND"],
    [19650,"2012-08-02T13:00:00","ND","ND","ND","ND","ND","ND","ND","ND","ND","ND","ND","ND"],
    [19651,"2012-08-02T14:00:00","ND","ND","ND","ND","ND","ND","ND","ND","ND","ND","ND","ND"],
    [19652,"2012-08-02T15:00:00","ND","ND","ND","ND","ND","ND","ND","ND","ND","ND","ND","ND"],
    [19653,"2012-08-02T16:00:00","ND","ND","ND","ND","ND","ND","ND","ND","ND","ND","ND","ND"],
    [19654,"2012-08-02T17:00:00","ND","ND","ND","ND","ND","ND","ND","ND","ND","ND","ND","ND"],
    [19655,"2012-08-02T18:00:00","ND","ND","ND","ND","ND","ND","ND","ND","ND","ND","ND","ND"],
    [19656,"2012-08-02T19:00:00","ND","ND","ND","ND","ND","ND","ND","ND","ND","ND","ND","ND"],
    [19657,"2012-08-02T20:00:00","ND","ND","ND","ND","ND","ND","ND","ND","ND","ND","ND","ND"],
    [19658,"2012-08-02T21:00:00","ND","ND","ND","ND","ND","ND","ND","ND","ND","ND","ND","ND"],
    [19659,"2012-08-02T22:00:00","ND","ND","ND","ND","ND","ND","ND","ND","ND","ND","ND","ND"],
    [19660,"2012-08-02T23:00:00","ND","ND","ND","ND","ND","ND","ND","ND","ND","ND","ND","ND"],
    [19661,"2012-08-03T00:00:00","ND","ND","ND","ND","ND","ND","ND","ND","ND","ND","ND","ND"],
    [19662,"2012-08-03T01:00:00","ND","ND","ND","ND","ND","ND","ND","ND","ND","ND","ND","ND"],
    [19663,"2012-08-03T02:00:00","ND","ND","ND","ND","ND","ND","ND","ND","ND","ND","ND","ND"],
    [19664,"2012-08-03T03:00:00","ND","ND","ND","ND","ND","ND","ND","ND","ND","ND","ND","ND"],
    [19665,"2012-08-03T04:00:00","ND","ND","ND","ND","ND","ND","ND","ND","ND","ND","ND","ND"],
    [19666,"2012-08-03T05:00:00","ND","ND","ND","ND","ND","ND","ND","ND","ND","ND","ND","ND"],
    [19667,"2012-08-03T06:00:00","ND","ND","ND","ND","ND","ND","ND","ND","ND","ND","ND","ND"],
    [19668,"2012-08-03T07:00:00","ND","ND","ND","ND","ND","ND","ND","ND","ND","ND","ND","ND"],
    [19669,"2012-08-03T08:00:00","ND","ND","ND","ND","ND","ND","ND","ND","ND","ND","ND","ND"],
    [19670,"2012-08-03T09:00:00","ND","ND","ND","ND","ND","ND","ND","ND","ND","ND","ND","ND"],
    [19671,"2012-08-03T10:00:00","ND","ND","ND","ND","ND","ND","ND","ND","ND","ND","ND","ND"],
    [19672,"2012-08-03T11:00:00","ND","ND","ND","ND","ND","ND","ND","ND","ND","ND","ND","ND"],
    [19673,"2012-08-03T12:00:00","ND","ND","ND","ND","ND","ND","ND","ND","ND","ND","ND","ND"],
    [19674,"2012-08-03T13:00:00","ND","ND","ND","ND","ND","ND","ND","ND","ND","ND","ND","ND"],
    [19675,"2012-08-03T14:00:00","87.2","ND","ND","ND","ND","ND","1.5","51.8","30.5","44.3","781.8","0"],
    [19676,"2012-08-03T15:00:00","101.7","ND","ND","ND","ND","ND","1.4","53.9","31.7","41","601.4","0"],
    [19677,"2012-08-03T16:00:00","99.4","ND","18.49","ND","ND","ND","2.5","297.1","30.8","44.6","353.7","0"],
    [19678,"2012-08-03T17:00:00","84.7","ND","17.76","ND","ND","ND","2.3","277.3","30.8","42.2","294","0"],
    [19679,"2012-08-03T18:00:00","55","ND","17.72","ND","ND","ND","2.1","254","30","43.3","92.9","0"],
    [19680,"2012-08-03T19:00:00","76.3","ND","21.91","ND","ND","ND","0.5","134.6","29.2","44.4","2.7","0"],
    [19681,"2012-08-03T20:00:00","42.7","ND","33.35","ND","ND","ND","0","97.7","28.1","48.6","0","0"],
    [19682,"2012-08-03T21:00:00","63.4","ND","51.67","ND","ND","ND","1","135.2","27.3","52.4","0","0"],
    [19683,"2012-08-03T22:00:00","38.9","ND","62.25","ND","ND","ND","1.3","145.1","26.7","56.2","0","0"],
    [19684,"2012-08-03T23:00:00","76.5","ND","53.07","ND","ND","ND","0.3","83.1","25.7","61.3","0","0"],
    [19685,"2012-08-04T00:00:00","63.2","ND","42.82","ND","ND","ND","0.6","140.3","25","64.5","0","0"],
    [19686,"2012-08-04T01:00:00","67.1","ND","43.79","ND","ND","ND","0.7","0.2","23.7","71.4","0","0"],
    [19687,"2012-08-04T02:00:00","49","ND","40.11","ND","ND","ND","0.5","323.7","22.8","75.7","0","0"],
    [19688,"2012-08-04T03:00:00","56.2","ND","34.32","ND","ND","ND","0.3","331.2","22.6","76.6","0","0"],
    [19689,"2012-08-04T04:00:00","ND","ND","28.10","ND","ND","ND","0.3","6.8","22.2","78.9","0","0"],
    [19690,"2012-08-04T05:00:00","ND","ND","28.12","ND","ND","ND","0.1","313.2","22.3","78.1","0","0"],
    [19691,"2012-08-04T06:00:00","ND","ND","28.82","ND","ND","ND","0.2","270.1","22.2","77.6","0","0"],
    [19692,"2012-08-04T07:00:00","101.7","ND","26.57","ND","ND","ND","0.3","24.9","22.3","76.4","10.5","0"],
    [19693,"2012-08-04T08:00:00","97.4","ND","27.19","ND","ND","ND","0.2","28.5","22.7","76.2","71","0"],
    [19694,"2012-08-04T09:00:00","90.1","ND","31.86","ND","ND","ND","0.7","52.8","23.9","73.2","278.9","0"],
    [19695,"2012-08-04T10:00:00","61.6","ND","40.94","ND","ND","ND","0.4","103.9","26.1","64.2","516.8","0"],
    [19696,"2012-08-04T11:00:00","84","ND","49.45","ND","ND","ND","0.3","61.4","27.8","56.8","689.5","0"],
    [19697,"2012-08-04T12:00:00","49.3","ND","54.94","ND","ND","ND","1.8","75.2","29","53.4","579","0"],
    [19698,"2012-08-04T13:00:00","68.4","ND","50.50","ND","ND","ND","2.4","26.7","28.9","54.2","615.1","0"],
    [19699,"2012-08-04T14:00:00","36.3","ND","38.39","ND","ND","ND","2","5","31.2","46.7","773.4","0"],
    [19700,"2012-08-04T15:00:00","25.6","ND","22.07","ND","ND","ND","1.7","314.6","31.9","41.9","519.3","0"],
    [19701,"2012-08-04T16:00:00","13.5","ND","18.48","ND","ND","ND","2.9","276.8","31.6","42.2","534.7","0"],
    [19702,"2012-08-04T17:00:00","7.6","ND","11.44","ND","ND","ND","3.5","277.3","30.7","42.4","372.6","0"],
    [19703,"2012-08-04T18:00:00","5.7","ND","9.81","ND","ND","ND","2.7","272.6","29.4","45","88.4","0"],
    [19704,"2012-08-04T19:00:00","22.1","ND","8.91","ND","ND","ND","0.2","175","29","46.1","2.8","0"],
    [19705,"2012-08-04T20:00:00","11.9","ND","11.57","ND","ND","ND","0.4","162.5","28.2","50.1","0","0"],
    [19706,"2012-08-04T21:00:00","28.8","ND","23.02","ND","ND","ND","2.1","200","27.2","54.8","0","0"],
    [19707,"2012-08-04T22:00:00","33.6","ND","37.59","ND","ND","ND","0.7","109.1","26.2","60.6","0","0"],
    [19708,"2012-08-04T23:00:00","45.1","ND","20.67","ND","ND","ND","0.4","56.9","24.5","69.6","0","0"],
    [19709,"2012-08-05T00:00:00","28.6","ND","44.81","ND","ND","ND","0.4","36.5","24.2","70.1","0","0"],
    [19710,"2012-08-05T01:00:00","46","ND","32.68","ND","ND","ND","0.3","18.1","23.9","70.2","0","0"],
    [19711,"2012-08-05T02:00:00","27.3","ND","28.20","ND","ND","ND","0.3","155.1","23.9","72","0","0"],
    [19712,"2012-08-05T03:00:00","46.6","ND","24.26","ND","ND","ND","0.5","4.4","22.8","76.9","0","0"],
    [19713,"2012-08-05T04:00:00","26","ND","33.30","ND","ND","ND","0.6","340.7","22.2","79.4","0","0"],
    [19714,"2012-08-05T05:00:00","47","ND","27.07","ND","ND","ND","0.7","40.7","21.8","81.8","0","0"],
    [19715,"2012-08-05T06:00:00","39","ND","22.73","ND","ND","ND","0.8","21.9","21.8","81.4","0","0"],
    [19716,"2012-08-05T07:00:00","40.9","ND","24.74","ND","ND","ND","0.6","65.9","21.6","84.7","11.3","0"],
    [19717,"2012-08-05T08:00:00","22.3","ND","24.60","ND","ND","ND","0.2","34.5","22.1","83.1","72","0"],
    [19718,"2012-08-05T09:00:00","21.4","ND","14.68","ND","ND","ND","1.1","137.9","23.7","75.8","298.7","0"],
    [19719,"2012-08-05T10:00:00","10.7","ND","17.29","ND","ND","ND","1.8","152.2","25.1","68.1","490.8","0"],
    [19720,"2012-08-05T11:00:00","6.7","ND","23.48","ND","ND","ND","1.4","127.1","26.7","60","600.4","0"],
    [19721,"2012-08-05T12:00:00","6.1","ND","20.72","ND","ND","ND","1.4","110.4","27.7","55.9","641.7","0"],
    [19722,"2012-08-05T13:00:00","5.3","ND","13.89","ND","ND","ND","0.9","81.5","28.8","51.6","511.9","0"],
    [19723,"2012-08-05T14:00:00","3.2","ND","11.10","ND","ND","ND","0.9","347.5","29.1","50.8","399.7","0"],
    [19724,"2012-08-05T15:00:00","4.4","ND","11.80","ND","ND","ND","1.1","30.6","29.9","47.4","410","0"],
    [19725,"2012-08-05T16:00:00","3.7","ND","10.82","ND","ND","ND","1.8","49.2","30.2","45.9","369","0"],
    [19726,"2012-08-05T17:00:00","1.9","ND","10.60","ND","ND","ND","1.4","53.4","29.6","48.3","174.4","0"],
    [19727,"2012-08-05T18:00:00","19.3","ND","7.19","ND","ND","ND","0.8","135.8","29.4","48","23.1","0"],
    [19728,"2012-08-05T19:00:00","14","ND","8.87","ND","ND","ND","1","70.9","28.5","51.9","1.5","0"],
    [19729,"2012-08-05T20:00:00","7.7","ND","15.03","ND","ND","ND","0.8","294.7","27.2","59.5","0","0"],
    [19730,"2012-08-05T21:00:00","5.4","ND","21.35","ND","ND","ND","0.3","232.4","27.1","59.4","0","0"],
    [19731,"2012-08-05T22:00:00","3.5","ND","29.10","ND","ND","ND","0.3","334.1","26.3","61.9","0","0"],
    [19732,"2012-08-05T23:00:00","18","ND","52.53","ND","ND","ND","0.3","11.8","25.1","68.8","0","0"],
    [19733,"2012-08-06T00:00:00","19.3","ND","53.56","ND","ND","ND","0.3","280","24.7","69.7","0","0"],
    [19734,"2012-08-06T01:00:00","14.8","ND","39.40","ND","ND","ND","0.8","128.3","24.3","70.9","0","0"],
    [19735,"2012-08-06T02:00:00","8.9","ND","35.18","ND","ND","ND","0.3","242.4","23.6","74.2","0","0"],
    [19736,"2012-08-06T03:00:00","14.4","ND","29.56","ND","ND","ND","0.1","330.8","22.9","75.5","0","0"],
    [19737,"2012-08-06T04:00:00","13.8","ND","21.60","ND","ND","ND","0","272.4","22.1","78","0","0"],
    [19738,"2012-08-06T05:00:00","23.7","ND","22.88","ND","ND","ND","0","98.1","21.8","80.3","0","0"],
    [19739,"2012-08-06T06:00:00","14.3","ND","20.38","ND","ND","ND","0.1","191.3","21.2","81.6","0.1","0"],
    [19740,"2012-08-06T07:00:00","39.7","ND","20.97","ND","ND","ND","0","274.1","20.8","81.3","29.2","0"],
    [19741,"2012-08-06T08:00:00","20.6","ND","22.10","ND","ND","ND","0.4","116.6","23.7","64.2","198.5","0"],
    [19742,"2012-08-06T09:00:00","28.8","ND","23.83","ND","ND","ND","1.1","121","25.3","52","401.1","0"],
    [19743,"2012-08-06T10:00:00","17.7","ND","47.91","ND","ND","ND","0.8","151.9","26.5","49.4","599.3","0"],
    [19744,"2012-08-06T11:00:00","37.3","ND","55.86","ND","ND","ND","0.9","117.7","28.5","46.2","737.8","0"],
    [19745,"2012-08-06T12:00:00","35.1","ND","32.62","ND","ND","ND","1.6","85.3","29.8","40","809.4","0"],
    [19746,"2012-08-06T13:00:00","20.6","ND","24.15","ND","ND","ND","1.5","44.3","31.1","35.8","792.5","0"],
    [19747,"2012-08-06T14:00:00","11.1","ND","20.45","ND","ND","ND","1.9","324.4","31.4","39.3","619.7","0"],
    [19748,"2012-08-06T15:00:00","14.2","ND","17.78","ND","ND","ND","4.6","287.2","30.7","41.3","595.4","0"],
    [19749,"2012-08-06T16:00:00","8.1","ND","14.86","ND","ND","ND","3.4","276.5","30.8","40.4","458.2","0"],
    [19750,"2012-08-06T17:00:00","5.7","ND","11.10","ND","ND","ND","2.7","272.6","30.7","39.3","311","0"],
    [19751,"2012-08-06T18:00:00","12.3","ND","12.51","ND","ND","ND","2.4","278.3","29.4","42.2","90.3","0"],
    [19752,"2012-08-06T19:00:00","30.4","ND","16.46","ND","ND","ND","0.4","77.8","28.2","45.3","1.4","0"],
    [19753,"2012-08-06T20:00:00","26.4","ND","19.42","ND","ND","ND","0.7","99.9","27.5","48.6","0","0"],
    [19754,"2012-08-06T21:00:00","37.5","ND","31.09","ND","ND","ND","0.3","43.6","27.1","49.7","0","0"],
    [19755,"2012-08-06T22:00:00","31.5","ND","47.51","ND","ND","ND","0.3","68.2","26.5","53.1","0","0"],
    [19756,"2012-08-06T23:00:00","47","ND","40.94","ND","ND","ND","0.9","72.4","25","63","0","0"],
    [19757,"2012-08-07T00:00:00","24.7","ND","49.97","ND","ND","ND","0.2","100.7","23.8","70.3","0","0"],
    [19758,"2012-08-07T01:00:00","15.3","ND","38.57","ND","ND","ND","0","266.5","23.4","71.2","0","0"],
    [19759,"2012-08-07T02:00:00","8.6","ND","28.44","ND","ND","ND","0.2","271.1","23.5","70.5","0","0"],
    [19760,"2012-08-07T03:00:00","5.2","ND","30.32","ND","ND","ND","0.7","84.1","22.8","74.6","0","0"],
    [19761,"2012-08-07T04:00:00","32.3","ND","30.77","ND","ND","ND","0.6","315.7","22.2","77.6","0","0"],
    [19762,"2012-08-07T05:00:00","50.4","ND","22.80","ND","ND","ND","0.4","268.1","22.4","76.6","0","0"],
    [19763,"2012-08-07T06:00:00","26.3","ND","22.59","ND","ND","ND","0.1","312.6","22.5","75.9","0","0"],
    [19764,"2012-08-07T07:00:00","38.1","ND","25.18","ND","ND","ND","0.2","161.7","22.7","72.6","24.8","0"],
    [19765,"2012-08-07T08:00:00","20.6","ND","25.64","ND","ND","ND","0.5","134.2","23.6","68.7","112.8","0"],
    [19766,"2012-08-07T09:00:00","39.9","ND","28.83","ND","ND","ND","1","144.5","25","63.2","363.9","0"],
    [19767,"2012-08-07T10:00:00","25.6","ND","34.82","ND","ND","ND","1.7","122.6","26.3","58.9","609","0"],
    [19768,"2012-08-07T11:00:00","23.3","ND","28.94","ND","ND","ND","1.1","103.1","27.5","54.6","687.2","0"],
    [19769,"2012-08-07T12:00:00","13.3","ND","16.43","ND","ND","ND","0.4","79.8","28.7","50","825.4","0"],
    [19770,"2012-08-07T13:00:00","18.4","ND","12.62","ND","ND","ND","1","344.3","30.3","45.8","730.8","0"],
    [19771,"2012-08-07T14:00:00","20.7","ND","11.29","ND","ND","ND","1.6","352.9","30.8","44.5","451.1","0"],
    [19772,"2012-08-07T15:00:00","24.6","ND","12.35","ND","ND","ND","1.6","307.7","30.9","45.2","470.4","0"],
    [19773,"2012-08-07T16:00:00","12.3","ND","16.35","ND","ND","ND","2.5","288.4","31.1","43.6","482.7","0"],
    [19774,"2012-08-07T17:00:00","6.2","ND","7.23","ND","ND","ND","2.9","271.8","30.6","43.3","323.9","0"],
    [19775,"2012-08-07T18:00:00","3.7","ND","6.79","ND","ND","ND","2.5","281.8","29.1","45.5","59.7","0"],
    [19776,"2012-08-07T19:00:00","6","ND","6.89","ND","ND","ND","0.3","60.7","28","50","0.8","0"],
    [19777,"2012-08-07T20:00:00","3.9","ND","9.85","ND","ND","ND","1.1","129.2","27.5","52.3","0","0"],
    [19778,"2012-08-07T21:00:00","28.5","ND","21.52","ND","ND","ND","0.3","3.9","27","53.7","0","0"],
    [19779,"2012-08-07T22:00:00","34.1","ND","35.48","ND","ND","ND","1.2","144.9","26.4","59.1","0","0"],
    [19780,"2012-08-07T23:00:00","34.4","ND","29.25","ND","ND","ND","0.5","151.2","25.3","64.8","0","0"],
    [19781,"2012-08-08T00:00:00","19.3","ND","31.16","ND","ND","ND","0.5","64.8","24.4","68.2","0","0"],
    [19782,"2012-08-08T01:00:00","27.6","ND","30.58","ND","ND","ND","0.5","154.8","23.4","72.8","0","0"],
    [19783,"2012-08-08T02:00:00","15.8","ND","27.35","ND","ND","ND","0.2","331.5","22.9","74.9","0","0"],
    [19784,"2012-08-08T03:00:00","43.3","ND","19.15","ND","ND","ND","0.4","0.3","22.5","76.2","0","0"],
    [19785,"2012-08-08T04:00:00","38.8","ND","21.35","ND","ND","ND","0.1","31.1","22","78.4","0","0"],
    [19786,"2012-08-08T05:00:00","28.7","ND","21.78","ND","ND","ND","0.1","336.3","21.6","80","0","0"],
    [19787,"2012-08-08T06:00:00","18","ND","22.18","ND","ND","ND","0","252.6","21.8","77.9","0","0"],
    [19788,"2012-08-08T07:00:00","54.5","ND","19.32","ND","ND","ND","0.2","52.8","22.5","76.1","36.2","0"],
    [19789,"2012-08-08T08:00:00","83.7","ND","20.94","ND","ND","ND","0.4","52.3","23.2","74.3","116.4","0"],
    [19790,"2012-08-08T09:00:00","84.6","ND","27.00","ND","ND","ND","0.6","136","25","66.1","362.7","0"],
    [19791,"2012-08-08T10:00:00","61","ND","41.23","ND","ND","ND","1.2","164.5","26.2","61.2","434.4","0"],
    [19792,"2012-08-08T11:00:00","45.3","ND","52.38","ND","ND","ND","1.4","144.1","27.9","55.2","739.9","0"],
    [19793,"2012-08-08T12:00:00","23.4","ND","38.19","ND","ND","ND","1.1","71.6","29.6","49.8","752.8","0"],
    [19794,"2012-08-08T13:00:00","31.5","ND","22.51","ND","ND","ND","0.9","64.9","30.5","47.5","780.8","0"],
    [19795,"2012-08-08T14:00:00","28","ND","16.80","ND","ND","ND","0.7","320","31.5","44.2","674.4","0"],
    [19796,"2012-08-08T15:00:00","59","ND","18.67","ND","ND","ND","1.6","342.8","31.8","43.1","533.2","0"],
    [19797,"2012-08-08T16:00:00","31.5","ND","18.74","ND","ND","ND","1.9","313.6","31.7","43.7","372.1","0"],
    [19798,"2012-08-08T17:00:00","49.3","ND","19.59","ND","ND","ND","3.2","266","31.1","45.2","272.7","0"],
    [19799,"2012-08-08T18:00:00","34.9","ND","12.78","ND","ND","ND","1.7","263.3","30.1","47.3","60.3","0"],
    [19800,"2012-08-08T19:00:00","44.1","ND","17.72","ND","ND","ND","0.5","245.8","29.1","50.1","2.1","0"],
    [19801,"2012-08-08T20:00:00","23.4","ND","32.71","ND","ND","ND","1.1","234.7","28.1","53.5","0","0"],
    [19802,"2012-08-08T21:00:00","41.7","ND","50.58","ND","ND","ND","0.8","137.3","27.8","55.3","0","0"],
    [19803,"2012-08-08T22:00:00","33.9","ND","31.79","ND","ND","ND","0.6","358.1","26.8","58.4","0","0"],
    [19804,"2012-08-08T23:00:00","46.9","ND","48.34","ND","ND","ND","0.6","89.8","25.8","63.5","0","0"],
    [19805,"2012-08-09T00:00:00","32.7","ND","42.17","ND","ND","ND","0.4","158.9","25.4","65.4","0","0"],
    [19806,"2012-08-09T01:00:00","33.9","ND","36.12","ND","ND","ND","0.6","55.9","24.6","69.7","0","0"],
    [19807,"2012-08-09T02:00:00","38.2","ND","30.41","ND","ND","ND","0.1","18.8","24.1","72.1","0","0"],
    [19808,"2012-08-09T03:00:00","51.8","ND","28.22","ND","ND","ND","0.4","43","23.4","75.5","0","0"],
    [19809,"2012-08-09T04:00:00","27.8","ND","26.34","ND","ND","ND","0","86.5","23.3","75.9","0","0"],
    [19810,"2012-08-09T05:00:00","28.2","ND","22.29","ND","ND","ND","0","70.4","22.9","77.4","0","0"],
    [19811,"2012-08-09T06:00:00","30.3","ND","21.34","ND","ND","ND","0.2","0.6","22.3","79.7","0","0"],
    [19812,"2012-08-09T07:00:00","56.1","ND","21.11","ND","ND","ND","0.3","4.7","22.1","80.2","34.3","0"],
    [19813,"2012-08-09T08:00:00","82.9","ND","22.16","ND","ND","ND","0.3","268.6","23","76.2","134.5","0"],
    [19814,"2012-08-09T09:00:00","79.1","ND","26.75","ND","ND","ND","1","112.6","25.5","65.3","422","0"],
    [19815,"2012-08-09T10:00:00","81.1","ND","40.81","ND","ND","ND","1.7","119.6","26.9","58.7","552.5","0"],
    [19816,"2012-08-09T11:00:00","64.6","ND","57.79","ND","ND","ND","1.1","107.8","27.6","54.4","472.5","0"],
    [19817,"2012-08-09T12:00:00","40.1","ND","32.85","ND","ND","ND","0.7","39.7","27.9","53.3","426.6","0"],
    [19818,"2012-08-09T13:00:00","56.2","ND","20.88","ND","ND","ND","0.7","109.5","29.6","47","473.8","0"],
    [19819,"2012-08-09T14:00:00","36.3","ND","18.40","ND","ND","ND","1.4","65.6","30.5","43.7","566.5","0"],
    [19820,"2012-08-09T15:00:00","26.7","ND","23.96","ND","ND","ND","1.2","47.6","30.7","42.5","469.1","0"],
    [19821,"2012-08-09T16:00:00","24.7","ND","17.52","ND","ND","ND","0.7","67.9","30.8","41.4","249.1","0"],
    [19822,"2012-08-09T17:00:00","42.2","ND","12.60","ND","ND","ND","1.4","39.5","30.3","45.6","124.3","0"],
    [19823,"2012-08-09T18:00:00","22.6","ND","14.34","ND","ND","ND","0.7","325.1","29.5","48.1","56","0"],
    [19824,"2012-08-09T19:00:00","41.9","ND","24.57","ND","ND","ND","1.4","242.2","28.1","51.2","2.6","0"],
    [19825,"2012-08-09T20:00:00","30","ND","25.81","ND","ND","ND","0.7","255.5","27.3","52.3","0","0"],
    [19826,"2012-08-09T21:00:00","83.4","ND","36.21","ND","ND","ND","0.3","49.7","26.9","54.1","0","0"],
    [19827,"2012-08-09T22:00:00","83.6","ND","40.85","ND","ND","ND","0.5","172.5","25.9","58.6","0","0"],
    [19828,"2012-08-09T23:00:00","86.7","ND","52.61","ND","ND","ND","0.5","71.3","24.6","66","0","0"],
    [19829,"2012-08-10T00:00:00","59.9","ND","60.09","ND","ND","ND","0.4","352","23.5","70.8","0","0"],
    [19830,"2012-08-10T01:00:00","61.9","ND","42.28","ND","ND","ND","0.3","350.3","23.6","69.3","0","0"],
    [19831,"2012-08-10T02:00:00","48.8","ND","33.99","ND","ND","ND","0.7","14.1","23","73.4","0","0"],
    [19832,"2012-08-10T03:00:00","58","ND","32.46","ND","ND","ND","0.5","36","22.7","75","0","0"],
    [19833,"2012-08-10T04:00:00","57.5","ND","32.09","ND","ND","ND","0.4","277","22.6","75","0","0"],
    [19834,"2012-08-10T05:00:00","52.3","ND","31.72","ND","ND","ND","0.1","344.8","22.2","75.8","0","0"],
    [19835,"2012-08-10T06:00:00","35.3","ND","29.35","ND","ND","ND","0.1","181","22.3","75.6","0.1","0"],
    [19836,"2012-08-10T07:00:00","77.6","ND","28.09","ND","ND","ND","0.2","38.8","22.5","75.2","13.1","0"],
    [19837,"2012-08-10T08:00:00","100.7","ND","30.14","ND","ND","ND","0.2","65.6","22.8","73.5","66.7","0"],
    [19838,"2012-08-10T09:00:00","108.1","ND","33.91","ND","ND","ND","1.1","160.6","24.5","64.8","292","0"],
    [19839,"2012-08-10T10:00:00","68.5","ND","46.57","ND","ND","ND","1.4","125.3","26.7","56.6","552.8","0"],
    [19840,"2012-08-10T11:00:00","59","ND","62.85","ND","ND","ND","1.4","97.2","27.9","54.2","559.6","0"],
    [19841,"2012-08-10T12:00:00","38","ND","35.64","ND","ND","ND","1.3","87.8","29.3","49.6","728.9","0"],
    [19842,"2012-08-10T13:00:00","40.6","ND","23.54","ND","ND","ND","0.9","103.1","29.5","48","389.8","0"],
    [19843,"2012-08-10T14:00:00","21.3","ND","17.13","ND","ND","ND","1.4","61.7","29.8","48.2","310.6","0"],
    [19844,"2012-08-10T15:00:00","44.7","ND","15.69","ND","ND","ND","1.3","35.5","29.8","49","340.6","0"],
    [19845,"2012-08-10T16:00:00","39.1","ND","14.09","ND","ND","ND","0.2","187.9","30.1","49","214.9","0"],
    [19846,"2012-08-10T17:00:00","32.5","ND","16.61","ND","ND","ND","1.9","243.6","28.9","52","38","0"],
    [19847,"2012-08-10T18:00:00","17.2","ND","20.28","ND","ND","ND","1.8","246.5","27.9","53","23.5","0"],
    [19848,"2012-08-10T19:00:00","12.6","ND","25.24","ND","ND","ND","1.2","257","27.5","51.8","0.5","0"],
    [19849,"2012-08-10T20:00:00","8.4","ND","31.45","ND","ND","ND","1.1","259.6","27","53.4","0","0"],
    [19850,"2012-08-10T21:00:00","26.2","ND","28.76","ND","ND","ND","0.6","109.4","26.8","56.2","0","0"],
    [19851,"2012-08-10T22:00:00","45.8","ND","34.07","ND","ND","ND","0.8","104.3","26","61.8","0","0"],
    [19852,"2012-08-10T23:00:00","70","ND","32.30","ND","ND","ND","0.7","146.3","24.9","68","0","0"],
    [19853,"2012-08-11T00:00:00","67.1","ND","38.69","ND","ND","ND","0.2","144","24.1","71.8","0","0"],
    [19854,"2012-08-11T01:00:00","63.9","ND","31.98","ND","ND","ND","0.1","95.3","24","72.4","0","0"],
    [19855,"2012-08-11T02:00:00","72.6","ND","28.68","ND","ND","ND","0.3","31.4","23.4","74.8","0","0"],
    [19856,"2012-08-11T03:00:00","67.6","ND","28.44","ND","ND","ND","0.1","281.8","22.8","77.7","0","0"],
    [19857,"2012-08-11T04:00:00","52.3","ND","26.96","ND","ND","ND","0.2","35.4","22.6","78.2","0","0"],
    [19858,"2012-08-11T05:00:00","71.8","ND","24.47","ND","ND","ND","0.2","352","22.1","79.7","0","0"],
    [19859,"2012-08-11T06:00:00","79","ND","24.92","ND","ND","ND","0.7","165.1","21.8","78.7","0.2","0"],
    [19860,"2012-08-11T07:00:00","90.1","ND","24.20","ND","ND","ND","0.3","82.2","21.5","79.5","27.3","0"],
    [19861,"2012-08-11T08:00:00","85.8","ND","25.22","ND","ND","ND","0.3","81.9","23.1","73.8","220.7","0"],
    [19862,"2012-08-11T09:00:00","82.7","ND","24.98","ND","ND","ND","0.5","164.4","25.2","64.9","342.7","0"],
    [19863,"2012-08-11T10:00:00","48.4","ND","41.20","ND","ND","ND","0.7","141.5","26.6","58.1","478.8","0"],
    [19864,"2012-08-11T11:00:00","72.9","ND","54.52","ND","ND","ND","1.2","119.7","28.3","51.6","651.4","0"],
    [19865,"2012-08-11T12:00:00","55.8","ND","41.17","ND","ND","ND","1.3","117.7","29.3","48.7","614","0"],
    [19866,"2012-08-11T13:00:00","60.7","ND","30.30","ND","ND","ND","0.6","75.3","30.3","46.1","715.3","0"],
    [19867,"2012-08-11T14:00:00","44.1","ND","17.67","ND","ND","ND","1.4","58.8","30.6","46.3","525.3","0"],
    [19868,"2012-08-11T15:00:00","41.5","ND","17.14","ND","ND","ND","1.2","27.5","30.8","46.2","310.1","0"],
    [19869,"2012-08-11T16:00:00","21.4","ND","16.97","ND","ND","ND","3","269.2","30.6","46.5","357.4","0"],
    [19870,"2012-08-11T17:00:00","24.1","ND","16.10","ND","ND","ND","3.3","285.4","30","46.8","245","0"],
    [19871,"2012-08-11T18:00:00","31.8","ND","11.39","ND","ND","ND","2.7","271.2","29","47","51.2","0"],
    [19872,"2012-08-11T19:00:00","16.9","ND","11.15","ND","ND","ND","0.4","294.1","28.4","48.6","1.3","0"],
    [19873,"2012-08-11T20:00:00","30.9","ND","14.99","ND","ND","ND","0.6","97.6","28","51.5","0","0"],
    [19874,"2012-08-11T21:00:00","20.5","ND","21.76","ND","ND","ND","0.6","121.1","27.5","53.7","0","0"],
    [19875,"2012-08-11T22:00:00","12.3","ND","34.38","ND","ND","ND","1.1","151.5","27","55.6","0","0"],
    [19876,"2012-08-11T23:00:00","23.5","ND","38.95","ND","ND","ND","1.4","119.9","26.4","58.2","0","0"],
    [19877,"2012-08-12T00:00:00","13.5","ND","39.17","ND","ND","ND","1","119.5","25.9","60.2","0","0"],
    [19878,"2012-08-12T01:00:00","8.5","ND","36.33","ND","ND","ND","0.7","119.5","25.2","62.6","0","0"],
    [19879,"2012-08-12T02:00:00","5.8","ND","22.07","ND","ND","ND","0.6","80.5","24.1","67.9","0","0"],
    [19880,"2012-08-12T03:00:00","4.7","ND","21.12","ND","ND","ND","0.7","124.4","23.8","69.5","0","0"],
    [19881,"2012-08-12T04:00:00","4.4","ND","17.99","ND","ND","ND","0.2","73.9","23.5","70.2","0","0"],
    [19882,"2012-08-12T05:00:00","5.6","ND","14.88","ND","ND","ND","0.5","182.4","23.5","70.7","0","0"],
    [19883,"2012-08-12T06:00:00","21.4","ND","14.02","ND","ND","ND","0.1","308.4","23.2","72.5","0","0"],
    [19884,"2012-08-12T07:00:00","18.8","ND","15.82","ND","ND","ND","0.2","94.5","23.2","73.1","5","0.76"],
    [19885,"2012-08-12T08:00:00","10","ND","18.08","ND","ND","ND","0.7","269.7","21.5","88.5","100.7","10.16"],
    [19886,"2012-08-12T09:00:00","20.5","ND","21.57","ND","ND","ND","1","153.1","23.1","81.2","105.4","0"],
    [19887,"2012-08-12T10:00:00","16.1","ND","20.81","ND","ND","ND","0.5","145.6","24.8","72.2","508.4","0"],
    [19888,"2012-08-12T11:00:00","19.9","ND","27.63","ND","ND","ND","1.3","90.2","26.3","64","637","0"],
    [19889,"2012-08-12T12:00:00","10.5","ND","25.69","ND","ND","ND","0.9","98.5","27.6","58.4","642.9","0"],
    [19890,"2012-08-12T13:00:00","6","ND","19.59","ND","ND","ND","1.2","96","28.7","54.2","536.2","0"],
    [19891,"2012-08-12T14:00:00","3.6","ND","11.92","ND","ND","ND","1.6","67.6","29.6","51.7","540.1","0"],
    [19892,"2012-08-12T15:00:00","5","ND","10.35","ND","ND","ND","0.7","317","31","46.1","675.7","0"],
    [19893,"2012-08-12T16:00:00","3.6","ND","8.68","ND","ND","ND","3.7","286.2","30.7","46.1","560.7","0"],
    [19894,"2012-08-12T17:00:00","3.6","ND","6.49","ND","ND","ND","2.9","284.6","30.2","46.8","307.3","0"],
    [19895,"2012-08-12T18:00:00","3.1","ND","4.54","ND","ND","ND","1.9","273.5","29.3","47.7","75.3","0"],
    [19896,"2012-08-12T19:00:00","9.3","ND","6.55","ND","ND","ND","0.4","292.4","28.3","48.8","1","0"],
    [19897,"2012-08-12T20:00:00","11.1","ND","11.46","ND","ND","ND","0.6","113.5","27.7","52","0","0"],
    [19898,"2012-08-12T21:00:00","11.6","ND","15.58","ND","ND","ND","0.3","138.2","26.8","56.5","0","0"],
    [19899,"2012-08-12T22:00:00","7.6","ND","32.29","ND","ND","ND","0.2","205.5","26.3","58.3","0","0"],
    [19900,"2012-08-12T23:00:00","24.1","ND","37.89","ND","ND","ND","0.5","84.5","25.6","62.8","0","0"],
    [19901,"2012-08-13T00:00:00","14.1","ND","32.05","ND","ND","ND","1.2","135.6","25.4","64.5","0","0"],
    [19902,"2012-08-13T01:00:00","8.8","ND","34.08","ND","ND","ND","0.9","80.1","24.6","69.4","0","0"],
    [19903,"2012-08-13T02:00:00","6.4","ND","21.71","ND","ND","ND","1","160.9","23.4","77.4","0","0"],
    [19904,"2012-08-13T03:00:00","28.3","ND","15.40","ND","ND","ND","1.2","76","22","87.2","0","0.51"],
    [19905,"2012-08-13T04:00:00","21.4","ND","13.46","ND","ND","ND","1.5","7.7","21.2","94.1","0","0.25"],
    [19906,"2012-08-13T05:00:00","46.3","ND","9.84","ND","ND","ND","1.6","50.5","20.7","94.1","0","14.99"],
    [19907,"2012-08-13T06:00:00","25","ND","14.13","ND","ND","ND","0.8","65","19.4","98.1","0","22.86"],
    [19908,"2012-08-13T07:00:00","14.2","ND","16.71","ND","ND","ND","0.2","24.9","19.5","96.5","7.6","5.33"],
    [19909,"2012-08-13T08:00:00","9.7","ND","21.35","ND","ND","ND","0.3","143.9","19.9","94.9","76.7","4.32"],
    [19910,"2012-08-13T09:00:00","18.8","ND","24.90","ND","ND","ND","0.3","70.9","21.7","86.6","252.1","0"],
    [19911,"2012-08-13T10:00:00","14.2","ND","30.77","ND","ND","ND","0.5","84","23.9","78.4","487.7","0"],
    [19912,"2012-08-13T11:00:00","8.8","ND","41.34","ND","ND","ND","1.3","144","25","68.7","468.2","0"],
    [19913,"2012-08-13T12:00:00","6.3","ND","57.03","ND","ND","ND","1.1","139.7","26.7","61.3","745.3","0"],
    [19914,"2012-08-13T13:00:00","3.2","ND","21.69","ND","ND","ND","1.6","143.9","27.8","56.4","690.1","0"],
    [19915,"2012-08-13T14:00:00","2.3","ND","21.43","ND","ND","ND","1.2","53.6","28.1","56","651.9","0"],
    [19916,"2012-08-13T15:00:00","1.1","ND","15.78","ND","ND","ND","1.5","133.8","28.7","53.6","324","0"],
    [19917,"2012-08-13T16:00:00","1.3","ND","13.10","ND","ND","ND","2.3","133.5","28.8","53.5","185.6","0"],
    [19918,"2012-08-13T17:00:00","13.3","ND","14.74","ND","ND","ND","3.3","178.5","27.1","54.4","21.5","0.25"],
    [19919,"2012-08-13T18:00:00","7.3","ND","19.16","ND","ND","ND","0.8","33.7","24.3","69.7","3.5","0.25"],
    [19920,"2012-08-13T19:00:00","29.9","ND","29.73","ND","ND","ND","0.4","71.3","23.4","76.7","0.2","0"],
    [19921,"2012-08-13T20:00:00","48.3","ND","37.32","ND","ND","ND","0.2","63.9","22.8","77.2","0","0.25"],
    [19922,"2012-08-13T21:00:00","40.1","ND","50.94","ND","ND","ND","0.1","311.6","22.3","80","0","0"],
    [19923,"2012-08-13T22:00:00","21.8","ND","45.09","ND","ND","ND","0.1","297.6","22.4","80.9","0","0"],
    [19924,"2012-08-13T23:00:00","47.9","ND","35.70","ND","ND","ND","0.1","265","22.5","81.5","0","0"],
    [19925,"2012-08-14T00:00:00","40.8","ND","33.82","ND","ND","ND","1.1","143.5","22.5","80.4","0","0"],
    [19926,"2012-08-14T01:00:00","37.1","ND","31.94","ND","ND","ND","0.3","188.4","22","82.8","0","0"],
    [19927,"2012-08-14T02:00:00","25.1","ND","32.33","ND","ND","ND","0.4","288.5","21.6","84.3","0","0"],
    [19928,"2012-08-14T03:00:00","24.5","ND","29.01","ND","ND","ND","0.1","309.3","21.5","83.1","0","0"],
    [19929,"2012-08-14T04:00:00","14","ND","24.46","ND","ND","ND","0.4","250.8","21.7","81.5","0","0"],
    [19930,"2012-08-14T05:00:00","19","ND","23.54","ND","ND","ND","0.2","336.9","21.7","81.7","0","0"],
    [19931,"2012-08-14T06:00:00","33.9","ND","19.13","ND","ND","ND","1","8","21.1","88.3","0","0"],
    [19932,"2012-08-14T07:00:00","50.8","ND","20.06","ND","ND","ND","0.3","27","21","90.3","18.8","0"],
    [19933,"2012-08-14T08:00:00","38.8","ND","21.96","ND","ND","ND","0.1","141.6","21.9","83.5","69","0"],
    [19934,"2012-08-14T09:00:00","52.8","ND","21.40","ND","ND","ND","0.4","174.3","22.8","78","136.5","0"],
    [19935,"2012-08-14T10:00:00","60.5","ND","29.97","ND","ND","ND","0.9","83.4","23.5","78.4","206.9","0"],
    [19936,"2012-08-14T11:00:00","65","ND","44.45","ND","ND","ND","0.2","123.7","24.4","72.6","310.2","0"],
    [19937,"2012-08-14T12:00:00","46.4","ND","51.65","ND","ND","ND","0.7","83.8","25.9","64.7","446.8","0"],
    [19938,"2012-08-14T13:00:00","48","ND","55.29","ND","ND","ND","0.7","85.1","27.1","60.3","584.4","0"],
    [19939,"2012-08-14T14:00:00","49.3","ND","37.69","ND","ND","ND","1","53.5","28.2","55.2","693.3","0"],
    [19940,"2012-08-14T15:00:00","35.9","ND","33.56","ND","ND","ND","0.6","44","29.2","51.5","602.7","0"],
    [19941,"2012-08-14T16:00:00","42.6","ND","25.88","ND","ND","ND","0.4","23.4","29.3","51.3","293.8","0"],
    [19942,"2012-08-14T17:00:00","52","ND","22.14","ND","ND","ND","0.8","61.3","29.4","50.8","192.5","0"],
    [19943,"2012-08-14T18:00:00","42.5","ND","23.72","ND","ND","ND","0.8","289.8","28.1","54.1","19.6","0"],
    [19944,"2012-08-14T19:00:00","49.8","ND","25.69","ND","ND","ND","0.8","299.1","27.1","58","1.2","0"],
    [19945,"2012-08-14T20:00:00","34.1","ND","31.28","ND","ND","ND","0.6","272.2","26.3","60.9","0","0"],
    [19946,"2012-08-14T21:00:00","52.1","ND","43.04","ND","ND","ND","0.1","236.4","25.7","64","0","0"],
    [19947,"2012-08-14T22:00:00","52.8","ND","53.31","ND","ND","ND","0.3","16.5","25.2","66.8","0","0"],
    [19948,"2012-08-14T23:00:00","68","ND","59.31","ND","ND","ND","0.3","240","24.7","70.4","0","0"],
    [19949,"2012-08-15T00:00:00","47.7","ND","45.01","ND","ND","ND","0.1","160.2","23.9","74.1","0","0"],
    [19950,"2012-08-15T01:00:00","50.5","ND","48.51","ND","ND","ND","0.3","228","23.4","76.7","0","0"],
    [19951,"2012-08-15T02:00:00","26.2","ND","34.43","ND","ND","ND","0.1","159.1","22.9","78.9","0","0"],
    [19952,"2012-08-15T03:00:00","35.3","ND","32.00","ND","ND","ND","0.5","204.5","22.9","78","0","0"],
    [19953,"2012-08-15T04:00:00","18.4","ND","30.18","ND","ND","ND","0.5","201.3","22.9","78.9","0","0"],
    [19954,"2012-08-15T05:00:00","15.6","ND","23.30","ND","ND","ND","0.1","88.1","22.5","81.2","0","0"],
    [19955,"2012-08-15T06:00:00","9.5","ND","21.44","ND","ND","ND","0.6","281.7","22.2","82.7","0","0"],
    [19956,"2012-08-15T07:00:00","28.8","ND","21.21","ND","ND","ND","0.4","181.7","22.5","80.8","8.1","0"],
    [19957,"2012-08-15T08:00:00","15.4","ND","21.89","ND","ND","ND","0.6","140.2","22.6","82.3","83.2","0"],
    [19958,"2012-08-15T09:00:00","38.9","ND","27.78","ND","ND","ND","1.1","145.9","23.2","80.2","107.1","0"],
    [19959,"2012-08-15T10:00:00","37.1","ND","38.38","ND","ND","ND","0.9","151.9","24.2","74.9","372.5","0"],
    [19960,"2012-08-15T11:00:00","38.5","ND","47.49","ND","ND","ND","1.1","79.4","26.3","64.2","637.6","0"],
    [19961,"2012-08-15T12:00:00","23.1","ND","39.67","ND","ND","ND","1","115.4","27.7","58.6","561.5","0"],
    [19962,"2012-08-15T13:00:00","38.2","ND","31.34","ND","ND","ND","0.8","44.6","28.9","53.8","636.7","0"],
    [19963,"2012-08-15T14:00:00","27.8","ND","21.47","ND","ND","ND","0.7","11.8","30.4","47","774.1","0"],
    [19964,"2012-08-15T15:00:00","13.9","ND","18.47","ND","ND","ND","1","297","30.6","45","278.8","0"],
    [19965,"2012-08-15T16:00:00","8.1","ND","12.15","ND","ND","ND","1.5","319.9","30.7","45.1","314.1","0"],
    [19966,"2012-08-15T17:00:00","15","ND","11.57","ND","ND","ND","3.2","268.9","30.3","45.6","300","0"],
    [19967,"2012-08-15T18:00:00","8.6","ND","13.55","ND","ND","ND","2.2","260.8","28.9","48.1","71.8","0"],
    [19968,"2012-08-15T19:00:00","24.3","ND","17.52","ND","ND","ND","0.6","128","28.2","50.8","2.2","0"],
    [19969,"2012-08-15T20:00:00","39.1","ND","29.53","ND","ND","ND","0.5","151.8","27.3","54.5","0","0"],
    [19970,"2012-08-15T21:00:00","36.2","ND","39.25","ND","ND","ND","0.6","113.4","26.7","56.8","0","0"],
    [19971,"2012-08-15T22:00:00","19.6","ND","46.10","ND","ND","ND","0.9","126.4","25.4","62.3","0","0"],
    [19972,"2012-08-15T23:00:00","14.9","ND","46.62","ND","ND","ND","0.3","156","24.2","67.3","0","0"],
    [19973,"2012-08-16T00:00:00","16.8","ND","40.48","ND","ND","ND","0.4","110","24.2","66.8","0","0"],
    [19974,"2012-08-16T01:00:00","28.6","ND","32.42","ND","ND","ND","0.4","96.2","23.6","70.6","0","0"],
    [19975,"2012-08-16T02:00:00","16.4","ND","32.54","ND","ND","ND","0.7","178.7","23.2","74.4","0","0"],
    [19976,"2012-08-16T03:00:00","29.8","ND","28.81","ND","ND","ND","0.5","350.1","22.8","76.6","0","0"],
    [19977,"2012-08-16T04:00:00","25.1","ND","24.04","ND","ND","ND","0.6","4.5","22.2","77.9","0","0"],
    [19978,"2012-08-16T05:00:00","34.1","ND","24.12","ND","ND","ND","0.5","56.3","21.8","78.9","0","0"],
    [19979,"2012-08-16T06:00:00","19.3","ND","24.56","ND","ND","ND","0.7","248.5","21.5","80.8","0","0"],
    [19980,"2012-08-16T07:00:00","32.8","ND","24.27","ND","ND","ND","0.3","12.6","21.6","79.9","19.8","0"],
    [19981,"2012-08-16T08:00:00","52.8","ND","22.88","ND","ND","ND","0.7","137.3","23.3","73.1","191.4","0"],
    [19982,"2012-08-16T09:00:00","46","ND","26.27","ND","ND","ND","0.5","73.4","24.4","69.8","344","0"],
    [19983,"2012-08-16T10:00:00","41.1","ND","42.22","ND","ND","ND","2","117.1","26","62.6","613","0"],
    [19984,"2012-08-16T11:00:00","37.8","ND","47.22","ND","ND","ND","2","149.6","26.9","57.5","684.6","0"],
    [19985,"2012-08-16T12:00:00","22.4","ND","33.17","ND","ND","ND","1.4","132","28.6","52.7","800.5","0"],
    [19986,"2012-08-16T13:00:00","40","ND","17.29","ND","ND","ND","0.7","209.8","29.8","49.1","567.2","0"],
    [19987,"2012-08-16T14:00:00","29","ND","19.58","ND","ND","ND","2.7","276.8","29","49.1","239.8","0"],
    [19988,"2012-08-16T15:00:00","18.6","ND","22.48","ND","ND","ND","2.8","278.8","28.7","47.8","252.6","0"],
    [19989,"2012-08-16T16:00:00","9.3","ND","13.02","ND","ND","ND","1.4","251.5","29.3","44.9","203.2","0"],
    [19990,"2012-08-16T17:00:00","9.1","ND","12.59","ND","ND","ND","1","289.7","26.9","57.7","40.4","0.51"],
    [19991,"2012-08-16T18:00:00","5.1","ND","11.75","ND","ND","ND","0.5","52.3","24.6","74","28.8","0.51"],
    [19992,"2012-08-16T19:00:00","14.9","ND","24.19","ND","ND","ND","0.4","82.9","23.8","79.6","1.1","0"],
    [19993,"2012-08-16T20:00:00","30","ND","31.14","ND","ND","ND","0.2","162","24","75.1","0","0"],
    [19994,"2012-08-16T21:00:00","39.9","ND","25.25","ND","ND","ND","0.5","147.6","23.8","76","0","0"],
    [19995,"2012-08-16T22:00:00","33.7","ND","29.06","ND","ND","ND","1.5","152.9","24.1","75.3","0","0"],
    [19996,"2012-08-16T23:00:00","30.6","ND","27.43","ND","ND","ND","0.5","182.5","23.6","78.8","0","0"],
    [19997,"2012-08-17T00:00:00","32.8","ND","31.01","ND","ND","ND","0.3","293.1","23.2","81.5","0","0"],
    [19998,"2012-08-17T01:00:00","29.9","ND","29.39","ND","ND","ND","0.6","7.9","22.9","81.5","0","0"],
    [19999,"2012-08-17T02:00:00","23.8","ND","25.71","ND","ND","ND","0.3","3.3","22.4","82","0","0"],
    [20000,"2012-08-17T03:00:00","19.3","ND","25.62","ND","ND","ND","0.4","173.6","22.3","83","0","0"],
    [20001,"2012-08-17T04:00:00","10.4","ND","24.71","ND","ND","ND","0.2","306.4","22.3","82.7","0","0"],
    [20002,"2012-08-17T05:00:00","23.6","ND","22.19","ND","ND","ND","0.4","49.1","22.3","82.5","0","0"],
    [20003,"2012-08-17T06:00:00","40.6","ND","20.18","ND","ND","ND","0.5","5","22","84.9","0","0"],
    [20004,"2012-08-17T07:00:00","47.1","ND","22.21","ND","ND","ND","0.5","19.2","21.8","84.6","8.5","0"],
    [20005,"2012-08-17T08:00:00","25.6","ND","22.32","ND","ND","ND","0.6","35.4","22.7","78.3","126.8","0"],
    [20006,"2012-08-17T09:00:00","31.5","ND","24.89","ND","ND","ND","1.6","50.3","24.4","69","430.7","0"],
    [20007,"2012-08-17T10:00:00","16.9","ND","28.01","ND","ND","ND","0.8","67.3","25.7","62.4","526.6","0"],
    [20008,"2012-08-17T11:00:00","10.4","ND","16.27","ND","ND","ND","0.6","70.4","26.8","59.2","435.9","0"],
    [20009,"2012-08-17T12:00:00","9.8","ND","10.82","ND","ND","ND","0.8","312.2","27","57.4","343.1","0"],
    [20010,"2012-08-17T13:00:00","5.7","ND","14.52","ND","ND","ND","0.6","28.6","27.5","54.1","337.1","0"],
    [20011,"2012-08-17T14:00:00","4.2","ND","13.64","ND","ND","ND","2.3","269.7","28.1","51.4","442.3","0"],
    [20012,"2012-08-17T15:00:00","3","ND","12.94","ND","ND","ND","1.6","254.6","28.8","48.1","510.3","0"],
    [20013,"2012-08-17T16:00:00","3.6","ND","12.57","ND","ND","ND","1.2","306.3","29.2","46.3","427.9","0"],
    [20014,"2012-08-17T17:00:00","13.2","ND","11.99","ND","ND","ND","1.8","283.1","28.3","49.2","120","0"],
    [20015,"2012-08-17T18:00:00","7.4","ND","11.27","ND","ND","ND","2.4","173.3","27.2","51.4","37","0"],
    [20016,"2012-08-17T19:00:00","19.3","ND","20.42","ND","ND","ND","1.2","159.6","26.2","56.8","0.6","0"],
    [20017,"2012-08-17T20:00:00","21.1","ND","27.89","ND","ND","ND","1.2","18.4","24.7","67.5","0","0"],
    [20018,"2012-08-17T21:00:00","41.2","ND","40.83","ND","ND","ND","0.7","4.1","23","78.5","0","0"],
    [20019,"2012-08-17T22:00:00","31.1","ND","46.12","ND","ND","ND","0.2","263.7","22.6","80.8","0","0"],
    [20020,"2012-08-17T23:00:00","43.3","ND","41.08","ND","ND","ND","0.7","301.9","22.3","79.1","0","0"],
    [20021,"2012-08-18T00:00:00","42.3","ND","39.46","ND","ND","ND","0.1","42.3","22.6","74.9","0","0"],
    [20022,"2012-08-18T01:00:00","51.1","ND","35.76","ND","ND","ND","0.7","42.6","22.6","75.7","0","0"],
    [20023,"2012-08-18T02:00:00","35.8","ND","32.90","ND","ND","ND","0.2","139.3","22.1","81.2","0","0"],
    [20024,"2012-08-18T03:00:00","34.6","ND","33.27","ND","ND","ND","0.9","181.2","21.7","83.8","0","0"],
    [20025,"2012-08-18T04:00:00","31.2","ND","36.45","ND","ND","ND","0.3","231.9","21.6","82.9","0","0"],
    [20026,"2012-08-18T05:00:00","39.5","ND","33.76","ND","ND","ND","0.5","354.2","21.4","81.6","0","0"],
    [20027,"2012-08-18T06:00:00","49.9","ND","29.38","ND","ND","ND","0.3","27.2","21.1","83.7","0","0"],
    [20028,"2012-08-18T07:00:00","72.8","ND","28.48","ND","ND","ND","0.4","1.6","20.9","85.6","15.5","0"],
    [20029,"2012-08-18T08:00:00","51.9","ND","30.72","ND","ND","ND","0.5","75.8","21.9","82.5","98.3","0"],
    [20030,"2012-08-18T09:00:00","55.7","ND","28.54","ND","ND","ND","0.2","147.7","23.3","75.5","354.9","0"],
    [20031,"2012-08-18T10:00:00","29.4","ND","33.03","ND","ND","ND","1.3","151","25.3","65.3","605.4","0"],
    [20032,"2012-08-18T11:00:00","40.5","ND","36.05","ND","ND","ND","1.3","134.8","26.3","61.3","470.1","0"],
    [20033,"2012-08-18T12:00:00","21.5","ND","38.29","ND","ND","ND","1","99.1","27.4","56.6","605.8","0"],
    [20034,"2012-08-18T13:00:00","25.8","ND","23.71","ND","ND","ND","1.2","63.7","28.4","52.9","600.3","0"],
    [20035,"2012-08-18T14:00:00","14.9","ND","17.62","ND","ND","ND","0.8","42.4","29.4","49.7","703.7","0"],
    [20036,"2012-08-18T15:00:00","9","ND","13.21","ND","ND","ND","1.4","114.4","30.6","44.6","635.5","0"],
    [20037,"2012-08-18T16:00:00","23","ND","12.34","ND","ND","ND","1.5","98.6","30.9","44.1","312.1","0"],
    [20038,"2012-08-18T17:00:00","25.1","ND","14.19","ND","ND","ND","1.2","128.1","30.7","43.9","139.8","0"],
    [20039,"2012-08-18T18:00:00","29.7","ND","15.01","ND","ND","ND","0.6","272.6","29.1","50.9","29.1","0"],
    [20040,"2012-08-18T19:00:00","32.9","ND","15.22","ND","ND","ND","1.3","263","27.9","54.1","1","0"],
    [20041,"2012-08-18T20:00:00","18.5","ND","21.45","ND","ND","ND","1.8","270.8","27.4","54.4","0","0"],
    [20042,"2012-08-18T21:00:00","13.7","ND","22.56","ND","ND","ND","0.9","110.3","27.4","54.1","0","0"],
    [20043,"2012-08-18T22:00:00","17.9","ND","17.85","ND","ND","ND","2.9","140.4","26.2","60.3","0","0"],
    [20044,"2012-08-18T23:00:00","28.4","ND","36.27","ND","ND","ND","0.3","30.2","25.3","66","0","0"],
    [20045,"2012-08-19T00:00:00","34.1","ND","29.73","ND","ND","ND","0.2","1.8","24.7","68","0","0"],
    [20046,"2012-08-19T01:00:00","37","ND","32.31","ND","ND","ND","0.3","340","24.2","68.7","0","0"],
    [20047,"2012-08-19T02:00:00","30.9","ND","33.53","ND","ND","ND","0.8","36.8","23","74.5","0","0"],
    [20048,"2012-08-19T03:00:00","19.6","ND","32.89","ND","ND","ND","0.2","334.8","22.7","74.2","0","0"],
    [20049,"2012-08-19T04:00:00","11.7","ND","30.39","ND","ND","ND","0.2","279.4","22.5","75.4","0","0"],
    [20050,"2012-08-19T05:00:00","24.4","ND","18.47","ND","ND","ND","0","288.2","21.9","78.3","0","0"],
    [20051,"2012-08-19T06:00:00","13.1","ND","22.33","ND","ND","ND","0.6","357.3","21.4","79.7","0.2","0"],
    [20052,"2012-08-19T07:00:00","23.5","ND","25.88","ND","ND","ND","0.1","45","21.3","79.2","17.1","0"],
    [20053,"2012-08-19T08:00:00","13.7","ND","25.32","ND","ND","ND","0.1","286.8","22","77.7","74","0"],
    [20054,"2012-08-19T09:00:00","34","ND","27.69","ND","ND","ND","0.1","177.8","24","69.3","268.6","0"],
    [20055,"2012-08-19T10:00:00","18.5","ND","31.54","ND","ND","ND","0.6","138","24.9","63.3","264.1","0"],
    [20056,"2012-08-19T11:00:00","27.2","ND","39.73","ND","ND","ND","1.1","147.1","26","60.5","445.7","0"],
    [20057,"2012-08-19T12:00:00","15","ND","36.83","ND","ND","ND","1.8","145.1","26.7","58.4","632.5","0"],
    [20058,"2012-08-19T13:00:00","18.7","ND","24.74","ND","ND","ND","0.8","159.7","27.7","55.5","686.7","0"],
    [20059,"2012-08-19T14:00:00","18.1","ND","16.71","ND","ND","ND","0.2","346.2","29.7","49.1","830.5","0"],
    [20060,"2012-08-19T15:00:00","27.4","ND","15.97","ND","ND","ND","1.4","130.8","30.8","44.5","612.4","0"],
    [20061,"2012-08-19T16:00:00","15.3","ND","14.78","ND","ND","ND","0.2","340","31.7","39","422.4","0"],
    [20062,"2012-08-19T17:00:00","22.4","ND","13.90","ND","ND","ND","1.7","28.6","31.3","40.4","278.6","0"],
    [20063,"2012-08-19T18:00:00","1.9","ND","12.29","ND","ND","ND","1.3","282.6","29.9","46.7","83.7","0"],
    [20064,"2012-08-19T19:00:00","33.4","ND","12.27","ND","ND","ND","0.5","291.3","28.2","50.3","0.7","0"],
    [20065,"2012-08-19T20:00:00","23.1","ND","14.77","ND","ND","ND","0.7","107.8","27.6","52.7","0","0"],
    [20066,"2012-08-19T21:00:00","34.7","ND","26.60","ND","ND","ND","0.2","154.7","26.9","52.6","0","0"],
    [20067,"2012-08-19T22:00:00","20.8","ND","27.65","ND","ND","ND","1.4","97","25.5","61.2","0","0"],
    [20068,"2012-08-19T23:00:00","27.3","ND","33.66","ND","ND","ND","0.1","156","24.5","65.1","0","0"],
    [20069,"2012-08-20T00:00:00","25.6","ND","35.37","ND","ND","ND","0.4","59.3","23.6","70.9","0","0"],
    [20070,"2012-08-20T01:00:00","17.9","ND","36.35","ND","ND","ND","0.1","119.4","22.8","74.4","0","0"],
    [20071,"2012-08-20T02:00:00","11.2","ND","31.99","ND","ND","ND","0.1","314.4","22","77.3","0","0"],
    [20072,"2012-08-20T03:00:00","7","ND","27.87","ND","ND","ND","0.2","302.4","21.4","79.4","0","0"],
    [20073,"2012-08-20T04:00:00","17.9","ND","24.51","ND","ND","ND","0.1","280","21.3","80.9","0","0"],
    [20074,"2012-08-20T05:00:00","9.9","ND","23.12","ND","ND","ND","0.2","46.8","21","81.4","0","0"],
    [20075,"2012-08-20T06:00:00","23.6","ND","22.04","ND","ND","ND","0.2","333","20.6","83.2","0.1","0"],
    [20076,"2012-08-20T07:00:00","33","ND","21.79","ND","ND","ND","0.2","23","20.4","83.1","28.6","0"],
    [20077,"2012-08-20T08:00:00","50.9","ND","23.36","ND","ND","ND","0.3","87.2","22.7","73.1","213","0"],
    [20078,"2012-08-20T09:00:00","51.8","ND","24.22","ND","ND","ND","1.1","46","24.3","65.8","421.8","0"],
    [20079,"2012-08-20T10:00:00","28","ND","26.68","ND","ND","ND","0.6","108.4","26.2","58.4","617.7","0"],
    [20080,"2012-08-20T11:00:00","29.1","ND","27.29","ND","ND","ND","0.9","96.8","27.6","51.2","761.6","0"],
    [20081,"2012-08-20T12:00:00","16.1","ND","23.46","ND","ND","ND","1.4","127.4","29.2","45.5","869.1","0"],
    [20082,"2012-08-20T13:00:00","9.5","ND","14.25","ND","ND","ND","1.4","120.3","30.4","39.7","836.4","0"],
    [20083,"2012-08-20T14:00:00","5.3","ND","10.99","ND","ND","ND","0.6","141.2","31.7","34.7","788","0"],
    [20084,"2012-08-20T15:00:00","7.6","ND","10.25","ND","ND","ND","1.1","324.4","31.4","39.7","502.4","0"],
    [20085,"2012-08-20T16:00:00","18.3","ND","8.45","ND","ND","ND","2","278.2","31","42.1","322.4","0"],
    [20086,"2012-08-20T17:00:00","25.2","ND","13.62","ND","ND","ND","3.2","281.5","28.8","47.7","80.6","0"],
    [20087,"2012-08-20T18:00:00","14.2","ND","9.14","ND","ND","ND","2.3","281.8","28.2","48.6","40.8","0"],
    [20088,"2012-08-20T19:00:00","9.1","ND","8.68","ND","ND","ND","0.4","277","27.8","49.3","1.1","0"],
    [20089,"2012-08-20T20:00:00","10.7","ND","11.22","ND","ND","ND","0.5","127.3","27.6","49.8","0","0"],
    [20090,"2012-08-20T21:00:00","6.1","ND","19.61","ND","ND","ND","0.5","97.8","27","52","0","0"],
    [20091,"2012-08-20T22:00:00","4.9","ND","24.25","ND","ND","ND","0.2","340.7","26.4","55.1","0","0"],
    [20092,"2012-08-20T23:00:00","3.5","ND","28.21","ND","ND","ND","1","133.4","26","58","0","0"],
    [20093,"2012-08-21T00:00:00","5.9","ND","17.99","ND","ND","ND","0.8","117.7","24.9","63.7","0","0"],
    [20094,"2012-08-21T01:00:00","31.5","ND","25.96","ND","ND","ND","0.5","49.1","23.6","69.8","0","0"],
    [20095,"2012-08-21T02:00:00","20.9","ND","27.99","ND","ND","ND","0.1","300.2","23.7","69.5","0","0"],
    [20096,"2012-08-21T03:00:00","20.9","ND","20.48","ND","ND","ND","0.4","59.7","23.2","72","0","0"],
    [20097,"2012-08-21T04:00:00","19.7","ND","19.81","ND","ND","ND","0.2","350.3","23","72.4","0","0"],
    [20098,"2012-08-21T05:00:00","26.3","ND","20.11","ND","ND","ND","0.1","40.9","22.5","73.9","0","0"],
    [20099,"2012-08-21T06:00:00","14.3","ND","17.01","ND","ND","ND","0.1","165.5","22.5","73.7","0","0"],
    [20100,"2012-08-21T07:00:00","30.9","ND","19.68","ND","ND","ND","0.2","298.8","22.5","73.2","11.2","0"],
    [20101,"2012-08-21T08:00:00","32.7","ND","23.91","ND","ND","ND","0.7","241.1","23.1","71.6","97.4","0"],
    [20102,"2012-08-21T09:00:00","33","ND","33.29","ND","ND","ND","0.5","153.7","24.5","66.4","193.3","0"],
    [20103,"2012-08-21T10:00:00","17","ND","29.97","ND","ND","ND","1","112.3","25.7","61.1","521.5","0"],
    [20104,"2012-08-21T11:00:00","10","ND","42.40","ND","ND","ND","0.6","27.3","27.2","55.2","621","0"],
    [20105,"2012-08-21T12:00:00","16.8","ND","25.08","ND","ND","ND","1.5","107.8","28.6","51","844.2","0"],
    [20106,"2012-08-21T13:00:00","15.7","ND","16.34","ND","ND","ND","1.5","57.1","30.2","43.6","780.5","0"],
    [20107,"2012-08-21T14:00:00","10.1","ND","12.11","ND","ND","ND","1.9","67.7","31","40.4","625.2","0"],
    [20108,"2012-08-21T15:00:00","21.4","ND","14.26","ND","ND","ND","1.5","31.9","31.6","39","604.7","0"],
    [20109,"2012-08-21T16:00:00","36.8","ND","12.05","ND","ND","ND","1.9","25.8","31.2","43.1","361.5","0"],
    [20110,"2012-08-21T17:00:00","59.4","ND","13.46","ND","ND","ND","0.7","320.6","31.1","44.4","331","0"],
    [20111,"2012-08-21T18:00:00","30.6","ND","21.45","ND","ND","ND","0.8","314.2","29.5","46.6","74.2","0"],
    [20112,"2012-08-21T19:00:00","50.8","ND","20.17","ND","ND","ND","0.2","297.5","28.3","49","1.8","0"],
    [20113,"2012-08-21T20:00:00","39.4","ND","23.71","ND","ND","ND","0.7","101","27.6","52.7","0","0"],
    [20114,"2012-08-21T21:00:00","57.2","ND","39.35","ND","ND","ND","0.3","112.7","26.9","54.8","0","0"],
    [20115,"2012-08-21T22:00:00","51.7","ND","54.06","ND","ND","ND","0.7","121.1","25.7","60.3","0","0"],
    [20116,"2012-08-21T23:00:00","60.7","ND","58.54","ND","ND","ND","0.3","105.7","24.8","64.7","0","0"],
    [20117,"2012-08-22T00:00:00","53.9","ND","49.58","ND","ND","ND","0.7","131.8","24.5","67.8","0","0"],
    [20118,"2012-08-22T01:00:00","46.9","ND","41.72","ND","ND","ND","0.6","17","23.6","71.3","0","0"],
    [20119,"2012-08-22T02:00:00","56.9","ND","37.64","ND","ND","ND","0.1","164.7","23.5","71.7","0","0"],
    [20120,"2012-08-22T03:00:00","40.4","ND","28.22","ND","ND","ND","0.5","148.8","23.4","73.6","0","0"],
    [20121,"2012-08-22T04:00:00","35.6","ND","28.79","ND","ND","ND","0.2","143","22.8","75.9","0","0"],
    [20122,"2012-08-22T05:00:00","41.3","ND","24.17","ND","ND","ND","0.2","140.2","22.5","76.7","0","0"],
    [20123,"2012-08-22T06:00:00","57.4","ND","21.55","ND","ND","ND","0.3","339.7","21.9","79.1","0.2","0"],
    [20124,"2012-08-22T07:00:00","56.5","ND","22.89","ND","ND","ND","0.1","126.8","22.2","78","24.7","0"],
    [20125,"2012-08-22T08:00:00","79","ND","27.74","ND","ND","ND","0.9","41.6","22.6","76.8","114","0"],
    [20126,"2012-08-22T09:00:00","110.8","ND","29.01","ND","ND","ND","0.2","99.2","24","71.5","291.9","0"],
    [20127,"2012-08-22T10:00:00","78.3","ND","42.87","ND","ND","ND","1.1","62.7","26.5","59.9","534.1","0"],
    [20128,"2012-08-22T11:00:00","72.1","ND","55.16","ND","ND","ND","0.9","64.2","27.8","54.7","683.8","0"],
    [20129,"2012-08-22T12:00:00","38.2","ND","39.52","ND","ND","ND","1.4","48.6","29.3","49.3","532.6","0"],
    [20130,"2012-08-22T13:00:00","36.5","ND","20.42","ND","ND","ND","1.5","41.3","29.8","48","469.1","0"],
    [20131,"2012-08-22T14:00:00","20.9","ND","18.37","ND","ND","ND","1.5","269.9","30.3","45","445.8","0"],
    [20132,"2012-08-22T15:00:00","12.2","ND","17.75","ND","ND","ND","0.8","314.3","30.5","44.5","329.1","0"],
    [20133,"2012-08-22T16:00:00","16.8","ND","13.31","ND","ND","ND","0.7","67.6","29.9","47.5","180.5","0"],
    [20134,"2012-08-22T17:00:00","26.2","ND","12.48","ND","ND","ND","3.2","269.8","29.4","48.8","323.2","0"],
    [20135,"2012-08-22T18:00:00","17.5","ND","19.06","ND","ND","ND","2.2","277.2","28.6","49.8","63.8","0"],
    [20136,"2012-08-22T19:00:00","37","ND","18.11","ND","ND","ND","1","286.8","27.5","51.7","0.5","0"],
    [20137,"2012-08-22T20:00:00","38.7","ND","22.28","ND","ND","ND","0.6","260.1","27.2","52.3","0","0"],
    [20138,"2012-08-22T21:00:00","20","ND","28.61","ND","ND","ND","1.1","117.3","26.9","54.9","0","0"],
    [20139,"2012-08-22T22:00:00","11.9","ND","23.05","ND","ND","ND","0.7","89.3","26.2","57.4","0","0"],
    [20140,"2012-08-22T23:00:00","64","ND","40.05","ND","ND","ND","0.8","146.4","25.2","62.7","0","0"],
    [20141,"2012-08-23T00:00:00","56.3","ND","39.69","ND","ND","ND","1","189.9","24.5","65.2","0","0"],
    [20142,"2012-08-23T01:00:00","42.3","ND","36.65","ND","ND","ND","1.1","150.9","23.9","68.6","0","0"],
    [20143,"2012-08-23T02:00:00","22","ND","35.75","ND","ND","ND","1.1","161.4","23.1","73.5","0","0"],
    [20144,"2012-08-23T03:00:00","31","ND","25.53","ND","ND","ND","0.7","171.4","23.1","73.6","0","0"],
    [20145,"2012-08-23T04:00:00","19.5","ND","20.19","ND","ND","ND","0.8","6.5","22.5","77.4","0","0"],
    [20146,"2012-08-23T05:00:00","44.8","ND","18.12","ND","ND","ND","0.2","53.7","22.4","78.2","0","0"],
    [20147,"2012-08-23T06:00:00","24.4","ND","21.66","ND","ND","ND","0.5","53","22.1","81","0","0"],
    [20148,"2012-08-23T07:00:00","27","ND","26.89","ND","ND","ND","0.6","44.1","21.4","87","5.4","7.62"],
    [20149,"2012-08-23T08:00:00","15.5","ND","24.02","ND","ND","ND","1.1","16.4","20.8","93.9","122.7","1.52"],
    [20150,"2012-08-23T09:00:00","14.6","ND","25.48","ND","ND","ND","1.1","34.4","21.6","90.5","189.9","0"],
    [20151,"2012-08-23T10:00:00","26.7","ND","24.99","ND","ND","ND","0.3","28.1","23","80.8","259.8","0"],
    [20152,"2012-08-23T11:00:00","39.9","ND","22.86","ND","ND","ND","0.1","60.9","25.1","68.5","495.8","0"],
    [20153,"2012-08-23T12:00:00","24.6","ND","40.32","ND","ND","ND","0.8","86.5","26.5","63.6","678.4","0"],
    [20154,"2012-08-23T13:00:00","24.8","ND","31.35","ND","ND","ND","0.3","175.5","28.2","54.4","858.2","0"],
    [20155,"2012-08-23T14:00:00","14","ND","28.44","ND","ND","ND","1","59.5","29.9","47.5","770.7","0"],
    [20156,"2012-08-23T15:00:00","20.2","ND","23.68","ND","ND","ND","0.8","47.8","30.9","42.7","602.1","0"],
    [20157,"2012-08-23T16:00:00","25.4","ND","21.11","ND","ND","ND","2.5","272.3","30.5","47","418.6","0"],
    [20158,"2012-08-23T17:00:00","23.6","ND","20.37","ND","ND","ND","3.6","274.5","29.6","47.8","333.5","0"],
    [20159,"2012-08-23T18:00:00","13.7","ND","18.51","ND","ND","ND","2.3","283.1","28.8","47.7","70.1","0"],
    [20160,"2012-08-23T19:00:00","7.4","ND","17.95","ND","ND","ND","0.2","301","27.5","50.2","0.6","0"],
    [20161,"2012-08-23T20:00:00","11.4","ND","23.30","ND","ND","ND","1.3","99.5","27.3","51.8","0","0"],
    [20162,"2012-08-23T21:00:00","17.2","ND","33.12","ND","ND","ND","1.3","113.4","26.7","55.9","0","0"],
    [20163,"2012-08-23T22:00:00","9.7","ND","41.52","ND","ND","ND","0.6","172","26.2","58.6","0","0"],
    [20164,"2012-08-23T23:00:00","37.3","ND","40.03","ND","ND","ND","1.2","139.4","25.2","64","0","0"],
    [20165,"2012-08-24T00:00:00","28.5","ND","33.02","ND","ND","ND","0.8","136.8","24.3","69.1","0","0"],
    [20166,"2012-08-24T01:00:00","20.1","ND","36.25","ND","ND","ND","0.9","158.7","24.1","69.8","0","0"],
    [20167,"2012-08-24T02:00:00","22.3","ND","25.03","ND","ND","ND","0.5","128","23.6","73.6","0","0"],
    [20168,"2012-08-24T03:00:00","28.8","ND","21.73","ND","ND","ND","0.7","175.9","23.2","74.9","0","0"],
    [20169,"2012-08-24T04:00:00","15.4","ND","20.31","ND","ND","ND","0.2","245.1","23.2","74.5","0","0"],
    [20170,"2012-08-24T05:00:00","102.2","ND","18.18","ND","ND","ND","0.3","43.8","23.1","75.9","0","0"],
    [20171,"2012-08-24T06:00:00","105.6","ND","15.76","ND","ND","ND","0.3","47.3","22.7","78.8","0","0"],
    [20172,"2012-08-24T07:00:00","83.9","ND","20.30","ND","ND","ND","0.2","257.9","22.9","77.7","21.7","0"],
    [20173,"2012-08-24T08:00:00","53.4","ND","28.82","ND","ND","ND","1.3","165.7","23.1","77","68.7","0"],
    [20174,"2012-08-24T09:00:00","41.5","ND","28.86","ND","ND","ND","1.9","159.8","22.6","81.5","112.7","0"],
    [20175,"2012-08-24T10:00:00","22.4","ND","32.26","ND","ND","ND","1.2","155.4","22.3","87.3","226.1","1.27"],
    [20176,"2012-08-24T11:00:00","12.1","ND","37.40","ND","ND","ND","0.7","159.3","25.8","66.7","785.8","0"],
    [20177,"2012-08-24T12:00:00","6.1","ND","47.91","ND","ND","ND","1.2","283","28.7","46.2","865.4","0"],
    [20178,"2012-08-24T13:00:00","3","ND","38.25","ND","ND","ND","0.9","7.7","30.2","40.5","789.9","0"],
    [20179,"2012-08-24T14:00:00","1.5","ND","14.05","ND","ND","ND","3.1","272.8","30.7","38.5","722.4","0"],
    [20180,"2012-08-24T15:00:00","ND","ND","12.25","ND","ND","ND","4.7","286.5","30.7","38.9","683.9","0"],
    [20181,"2012-08-24T16:00:00","1.3","ND","10.42","ND","ND","ND","5.2","285","29.8","42.4","510.7","0"],
    [20182,"2012-08-24T17:00:00","1.8","ND","10.79","ND","ND","ND","4.8","279.8","28.7","44.5","200.5","0"],
    [20183,"2012-08-24T18:00:00","2.4","ND","7.59","ND","ND","ND","1.8","300.1","28","47.3","72.8","0"],
    [20184,"2012-08-24T19:00:00","18.1","ND","9.57","ND","ND","ND","0.4","85.3","27.2","50.1","0.8","0"],
    [20185,"2012-08-24T20:00:00","15.3","ND","14.32","ND","ND","ND","0.9","90.9","26.9","52.7","0","0"],
    [20186,"2012-08-24T21:00:00","31.3","ND","30.31","ND","ND","ND","1.3","177.9","26.6","53.8","0","0"],
    [20187,"2012-08-24T22:00:00","27","ND","33.67","ND","ND","ND","1.3","149.6","26","57.5","0","0"],
    [20188,"2012-08-24T23:00:00","22.1","ND","35.26","ND","ND","ND","0.7","89.6","24.8","63","0","0"],
    [20189,"2012-08-25T00:00:00","12.3","ND","39.53","ND","ND","ND","0.5","305.7","24.1","66.2","0","0"],
    [20190,"2012-08-25T01:00:00","52","ND","40.00","ND","ND","ND","0.8","37.7","23.4","71.1","0","0"],
    [20191,"2012-08-25T02:00:00","27","ND","37.26","ND","ND","ND","0.3","178.9","23.1","72","0","0"],
    [20192,"2012-08-25T03:00:00","33.5","ND","35.05","ND","ND","ND","1","163.7","22.8","73.7","0","0"],
    [20193,"2012-08-25T04:00:00","17.3","ND","24.75","ND","ND","ND","0","72.4","22.3","76","0","0"],
    [20194,"2012-08-25T05:00:00","32.3","ND","20.29","ND","ND","ND","0.1","230.7","22.3","76.4","0","0"],
    [20195,"2012-08-25T06:00:00","61.5","ND","22.28","ND","ND","ND","0.5","39.7","21.8","79.1","0.1","0"],
    [20196,"2012-08-25T07:00:00","74.5","ND","26.18","ND","ND","ND","0.1","330.8","22","78.2","33.2","0"],
    [20197,"2012-08-25T08:00:00","40.2","ND","27.39","ND","ND","ND","0.1","133.4","23.4","71.5","107.6","0"],
    [20198,"2012-08-25T09:00:00","84.3","ND","26.99","ND","ND","ND","0.8","51.5","23.6","73.7","138.6","0"],
    [20199,"2012-08-25T10:00:00","68.7","ND","33.03","ND","ND","ND","1.1","40.9","25.3","65.5","493.6","0"],
    [20200,"2012-08-25T11:00:00","39.6","ND","59.01","ND","ND","ND","0.8","59.1","27.4","56.3","779","0"],
    [20201,"2012-08-25T12:00:00","21.5","ND","52.63","ND","ND","ND","1.7","64.3","28.7","51.4","870.1","0"],
    [20202,"2012-08-25T13:00:00","12.8","ND","18.53","ND","ND","ND","1.9","54.5","29.8","47.6","735.8","0"],
    [20203,"2012-08-25T14:00:00","7.5","ND","15.14","ND","ND","ND","1.5","56.6","29.9","47.8","463.3","0"],
    [20204,"2012-08-25T15:00:00","5.1","ND","11.41","ND","ND","ND","1.6","39.5","29.9","47.6","374.1","0"],
    [20205,"2012-08-25T16:00:00","3.5","ND","11.24","ND","ND","ND","1","45.7","30.1","47.5","280.8","0"],
    [20206,"2012-08-25T17:00:00","3","ND","11.38","ND","ND","ND","1.7","286.9","29.9","47","142.6","0"],
    [20207,"2012-08-25T18:00:00","3.6","ND","12.50","ND","ND","ND","1.6","279.1","29.2","48.9","55.9","0"],
    [20208,"2012-08-25T19:00:00","15.4","ND","10.79","ND","ND","ND","0.8","176","28.7","50.2","1","0"],
    [20209,"2012-08-25T20:00:00","9.3","ND","16.34","ND","ND","ND","1.6","247.8","27.4","52.1","0","0"],
    [20210,"2012-08-25T21:00:00","30.8","ND","30.15","ND","ND","ND","0.9","64.1","26.7","56","0","0"],
    [20211,"2012-08-25T22:00:00","29.9","ND","21.35","ND","ND","ND","0.6","73.6","25.2","57.8","0","0"],
    [20212,"2012-08-25T23:00:00","38.9","ND","24.35","ND","ND","ND","0.9","208.7","25.3","57.1","0","0"],
    [20213,"2012-08-26T00:00:00","20.8","ND","32.30","ND","ND","ND","0.3","149.6","25.5","57.3","0","0"],
    [20214,"2012-08-26T01:00:00","39.1","ND","40.24","ND","ND","ND","0","103","25","61.1","0","0"],
    [20215,"2012-08-26T02:00:00","21.1","ND","43.62","ND","ND","ND","0.6","154.1","24.8","64.7","0","0"],
    [20216,"2012-08-26T03:00:00","39","ND","42.39","ND","ND","ND","1.7","140.1","23.9","67.1","0","0"],
    [20217,"2012-08-26T04:00:00","24.4","ND","36.46","ND","ND","ND","1.2","159.9","23.4","70.7","0","0"],
    [20218,"2012-08-26T05:00:00","35.7","ND","19.58","ND","ND","ND","1","171.1","23.1","72.3","0.1","0.76"],
    [20219,"2012-08-26T06:00:00","18.5","ND","17.67","ND","ND","ND","0.1","109.1","21.3","87.5","0.2","1.78"],
    [20220,"2012-08-26T07:00:00","22","ND","17.30","ND","ND","ND","0.2","31.3","21.2","89.3","14.2","0"],
    [20221,"2012-08-26T08:00:00","12.7","ND","ND","ND","ND","ND","0.5","94.2","22.5","84.5","221.6","0"],
    [20222,"2012-08-26T09:00:00","24.7","ND","20.43","ND","ND","ND","0.8","137.9","24.5","71.3","425.6","0"],
    [20223,"2012-08-26T10:00:00","13.4","ND","25.97","ND","ND","ND","1.1","147","26.4","60.3","622","0"],
    [20224,"2012-08-26T11:00:00","11","ND","24.94","ND","ND","ND","1","96.7","27.8","54.5","751.7","0"],
    [20225,"2012-08-26T12:00:00","10.7","ND","15.00","ND","ND","ND","1.2","92.8","28.9","50.7","848.8","0"],
    [20226,"2012-08-26T13:00:00","19","ND","ND","ND","ND","ND","1.6","73.1","30.3","47.3","860.5","0"],
    [20227,"2012-08-26T14:00:00","15.1","ND","ND","ND","ND","ND","1.7","84.2","31.5","43.5","812","0"],
    [20228,"2012-08-26T15:00:00","9.4","ND","ND","ND","ND","ND","1.3","81.5","32.4","39.6","732.4","0"],
    [20229,"2012-08-26T16:00:00","6.6","ND","ND","ND","ND","ND","1","40.5","33","34.7","526","0"],
    [20230,"2012-08-26T17:00:00","9.6","ND","ND","ND","ND","ND","0.8","23.4","33","34.8","304.4","0"],
    [20231,"2012-08-26T18:00:00","15.8","ND","ND","ND","ND","ND","1.4","269.1","31.3","43.5","84.2","0"],
    [20232,"2012-08-26T19:00:00","25.2","ND","ND","ND","ND","ND","2","252.2","29.4","47.6","1.9","0"],
    [20233,"2012-08-26T20:00:00","25.3","ND","ND","ND","ND","ND","0.3","115.4","29.2","48.9","0","0"],
    [20234,"2012-08-26T21:00:00","49.5","ND","ND","ND","ND","ND","1.5","155.5","27.8","56","0","0"],
    [20235,"2012-08-26T22:00:00","35.4","ND","ND","ND","ND","ND","0.5","320.6","26.6","60.4","0","0"],
    [20236,"2012-08-26T23:00:00","40.5","ND","ND","ND","ND","ND","0.4","92.3","26.2","64.7","0","0"],
    [20237,"2012-08-27T00:00:00","21.1","ND","ND","ND","ND","ND","0.3","116.9","26.1","64.8","0","0"],
    [20238,"2012-08-27T01:00:00","34.7","ND","ND","ND","ND","ND","0.8","84.8","25.4","68.3","0","0"],
    [20239,"2012-08-27T02:00:00","18.8","ND","ND","ND","ND","ND","0.3","118.3","24.6","72.1","0","0"],
    [20240,"2012-08-27T03:00:00","15.1","ND","ND","ND","ND","ND","0.1","270.5","24.4","72.1","0","0"],
    [20241,"2012-08-27T04:00:00","8.7","ND","ND","ND","ND","ND","0.1","243.7","24.5","70.5","0","0"],
    [20242,"2012-08-27T05:00:00","11.5","ND","ND","ND","ND","ND","0.2","65.9","24","75.3","0","0"],
    [20243,"2012-08-27T06:00:00","6.4","ND","ND","ND","ND","ND","0.5","146.8","24.2","74","3.5","0"],
    [20244,"2012-08-27T07:00:00","18.9","ND","ND","ND","ND","ND","0.6","145.5","24","74.8","44.7","0"],
    [20245,"2012-08-27T08:00:00","13.3","ND","ND","ND","ND","ND","0.6","142.6","24.8","68","87.3","0"],
    [20246,"2012-08-27T09:00:00","38","ND","ND","ND","ND","ND","0.5","147.7","25.6","66.8","255.6","0"],
    [20247,"2012-08-27T10:00:00","21.6","ND","ND","ND","ND","ND","1.1","105.4","27.1","57.9","442.3","0"],
    [20248,"2012-08-27T11:00:00","17.3","ND","48.97","ND","ND","ND","0.8","36.4","28.3","52.3","564.1","0"],
    [20249,"2012-08-27T12:00:00","9.6","ND","28.53","ND","ND","ND","0.9","83.5","29.7","45.5","663.4","0"],
    [20250,"2012-08-27T13:00:00","6.3","ND","14.92","ND","ND","ND","1","101.5","31.2","38.3","730.1","0"],
    [20251,"2012-08-27T14:00:00","6.3","ND","11.84","ND","ND","ND","1.2","158.8","32","31.6","528.8","0"],
    [20252,"2012-08-27T15:00:00","8.5","ND","14.03","ND","ND","ND","2","115.9","32.7","29.1","497.8","0"],
    [20253,"2012-08-27T16:00:00","6.5","ND","13.06","ND","ND","ND","2.7","115","33","28.8","360.6","0"],
    [20254,"2012-08-27T17:00:00","23.5","ND","12.78","ND","ND","ND","1.6","117.3","32.6","31.1","250.1","0"],
    [20255,"2012-08-27T18:00:00","24.9","ND","15.16","ND","ND","ND","1.9","250.2","30.9","40","88","0"],
    [20256,"2012-08-27T19:00:00","33.3","ND","17.25","ND","ND","ND","2.5","253.4","29.1","44","1","0"],
    [20257,"2012-08-27T20:00:00","18.8","ND","24.61","ND","ND","ND","1.8","255.5","28.7","44.8","0","0"],
    [20258,"2012-08-27T21:00:00","48.8","ND","28.74","ND","ND","ND","0.2","27.8","27.8","48.2","0","0"],
    [20259,"2012-08-27T22:00:00","39.5","ND","23.80","ND","ND","ND","0.9","139.6","27","53.1","0","0"],
    [20260,"2012-08-27T23:00:00","81.7","ND","42.72","ND","ND","ND","0.8","150.5","25.5","63.2","0","0"],
    [20261,"2012-08-28T00:00:00","67.2","ND","42.75","ND","ND","ND","0.4","149.1","24.1","69.6","0","0"],
    [20262,"2012-08-28T01:00:00","55.4","ND","39.38","ND","ND","ND","0","125.7","23.6","71.5","0","0"],
    [20263,"2012-08-28T02:00:00","29.4","ND","31.49","ND","ND","ND","0.1","275.8","22.7","72.7","0","0"],
    [20264,"2012-08-28T03:00:00","33.4","ND","30.18","ND","ND","ND","0.6","198.8","22.6","74.3","0","0"],
    [20265,"2012-08-28T04:00:00","18.9","ND","28.27","ND","ND","ND","0.1","309.9","22.1","75.3","0","0"],
    [20266,"2012-08-28T05:00:00","19.2","ND","27.01","ND","ND","ND","0.3","317.5","21.5","73.4","0","0"],
    [20267,"2012-08-28T06:00:00","29.9","ND","22.89","ND","ND","ND","0.4","339.2","21","76.9","0.4","0"],
    [20268,"2012-08-28T07:00:00","72.6","ND","20.92","ND","ND","ND","0.5","318.9","20.7","81.2","25.1","0"],
    [20269,"2012-08-28T08:00:00","51.2","ND","24.50","ND","ND","ND","0.3","196.2","22.3","72.5","131.8","0"],
    [20270,"2012-08-28T09:00:00","100.8","ND","30.05","ND","ND","ND","0.5","48.4","23.6","67","191.8","0"],
    [20271,"2012-08-28T10:00:00","75.9","ND","44.45","ND","ND","ND","0.1","92.4","25.2","58.7","380.8","0"],
    [20272,"2012-08-28T11:00:00","104.6","ND","76.71","ND","ND","ND","0.4","161.5","27.8","50.2","784.3","0"],
    [20273,"2012-08-28T12:00:00","60.6","ND","74.47","ND","ND","ND","1.4","119","29.7","43.2","836.9","0"],
    [20274,"2012-08-28T13:00:00","51.9","ND","51.50","ND","ND","ND","1.1","113.7","31.9","35.9","871","0"],
    [20275,"2012-08-28T14:00:00","26.5","ND","27.71","ND","ND","ND","0.6","99.6","33.6","28.2","820.8","0"],
    [20276,"2012-08-28T15:00:00","20.3","ND","23.72","ND","ND","ND","1.5","76.4","34.1","28.1","673.2","0"],
    [20277,"2012-08-28T16:00:00","42.2","ND","15.20","ND","ND","ND","2.8","300.5","32.4","37.6","255.1","0"],
    [20278,"2012-08-28T17:00:00","52.4","ND","16.33","ND","ND","ND","2.3","266.8","31.8","39.2","172.4","0"],
    [20279,"2012-08-28T18:00:00","38.3","ND","23.95","ND","ND","ND","0.7","238.5","30.5","41.7","32.7","0"],
    [20280,"2012-08-28T19:00:00","42.1","ND","25.40","ND","ND","ND","0.3","21.7","29.3","44.7","0.8","0"],
    [20281,"2012-08-28T20:00:00","48.3","ND","35.23","ND","ND","ND","0.5","105.8","28.8","47.5","0","0"],
    [20282,"2012-08-28T21:00:00","54.2","ND","41.58","ND","ND","ND","0.3","7.8","27.9","52.1","0","0"],
    [20283,"2012-08-28T22:00:00","28.5","ND","35.51","ND","ND","ND","0.9","117.5","26.8","58","0","0"],
    [20284,"2012-08-28T23:00:00","68","ND","46.76","ND","ND","ND","0.5","153.9","26.2","61.3","0","0"],
    [20285,"2012-08-29T00:00:00","36.2","ND","36.65","ND","ND","ND","0.9","150.7","25.5","64.9","0","0"],
    [20286,"2012-08-29T01:00:00","44.5","ND","39.28","ND","ND","ND","0.5","325.1","25","66.9","0","0"],
    [20287,"2012-08-29T02:00:00","24.5","ND","32.36","ND","ND","ND","0.2","337.7","24.8","67.7","0","0"],
    [20288,"2012-08-29T03:00:00","53.7","ND","34.78","ND","ND","ND","0.8","350","24","72.2","0","0"],
    [20289,"2012-08-29T04:00:00","31.9","ND","30.80","ND","ND","ND","0.4","100.9","23.7","74.1","0","0"],
    [20290,"2012-08-29T05:00:00","36.9","ND","30.60","ND","ND","ND","0.1","181.4","23.5","74.7","0","0"],
    [20291,"2012-08-29T06:00:00","26.7","ND","24.62","ND","ND","ND","0.2","278.9","23.3","75.7","0.2","0"],
    [20292,"2012-08-29T07:00:00","67.7","ND","24.46","ND","ND","ND","0.2","326.3","23.3","75.9","15","0"],
    [20293,"2012-08-29T08:00:00","85.5","ND","26.55","ND","ND","ND","0.3","352.9","24","72.5","102.6","0"],
    [20294,"2012-08-29T09:00:00","88.4","ND","32.62","ND","ND","ND","0.7","91.1","25.5","67.2","287.2","0"],
    [20295,"2012-08-29T10:00:00","68.7","ND","40.64","ND","ND","ND","1.2","100","26.9","61.6","488.3","0"],
    [20296,"2012-08-29T11:00:00","63.5","ND","55.92","ND","ND","ND","0.8","89.5","28","57","483.6","0"],
    [20297,"2012-08-29T12:00:00","43.5","ND","44.46","ND","ND","ND","1.1","100.1","28.7","55.9","484.2","0"],
    [20298,"2012-08-29T13:00:00","69.2","ND","30.85","ND","ND","ND","1","108","29.7","51.9","578.3","0"],
    [20299,"2012-08-29T14:00:00","43.4","ND","23.55","ND","ND","ND","1.4","79.9","30.6","46.9","626.9","0"],
    [20300,"2012-08-29T15:00:00","35.8","ND","21.53","ND","ND","ND","1.6","42.5","30.7","46.9","443.1","0"],
    [20301,"2012-08-29T16:00:00","29.4","ND","15.22","ND","ND","ND","1.3","62.3","31.2","46.1","404.4","0"],
    [20302,"2012-08-29T17:00:00","29.8","ND","10.42","ND","ND","ND","1.1","43","30.6","46.6","183.9","0"],
    [20303,"2012-08-29T18:00:00","26.9","ND","12.82","ND","ND","ND","1.4","234.5","29.6","49.2","44.5","0"],
    [20304,"2012-08-29T19:00:00","37.8","ND","15.07","ND","ND","ND","1.7","244.5","28.3","51.8","0.9","0"],
    [20305,"2012-08-29T20:00:00","37.7","ND","25.37","ND","ND","ND","0.3","230.4","27.6","53.4","0","0"],
    [20306,"2012-08-29T21:00:00","40.8","ND","35.17","ND","ND","ND","0.3","82.8","27.1","55.6","0","0"],
    [20307,"2012-08-29T22:00:00","42.7","ND","33.10","ND","ND","ND","1.2","102","26.4","58.8","0","0"],
    [20308,"2012-08-29T23:00:00","48.1","ND","50.39","ND","ND","ND","0.5","135.8","25.5","63.4","0","0"],
    [20309,"2012-08-30T00:00:00","25.3","ND","42.83","ND","ND","ND","0.5","202","24.6","72.5","0","0"],
    [20310,"2012-08-30T01:00:00","23.4","ND","35.21","ND","ND","ND","0.4","149.2","24","74.8","0","0"],
    [20311,"2012-08-30T02:00:00","12.4","ND","31.10","ND","ND","ND","0.2","341.8","22.9","79","0","0"],
    [20312,"2012-08-30T03:00:00","22.1","ND","17.69","ND","ND","ND","0.9","205.9","22.6","80.6","0","0"],
    [20313,"2012-08-30T04:00:00","15.5","ND","20.72","ND","ND","ND","0.3","197.4","22.4","78.2","0","0"],
    [20314,"2012-08-30T05:00:00","38.6","ND","21.58","ND","ND","ND","0.2","338.7","22.3","78.8","0","0"],
    [20315,"2012-08-30T06:00:00","32.3","ND","15.29","ND","ND","ND","0.5","268.7","22.2","79.5","0.3","0"],
    [20316,"2012-08-30T07:00:00","46.6","ND","19.93","ND","ND","ND","0.2","9.7","22.3","78.8","36.5","0"],
    [20317,"2012-08-30T08:00:00","58.3","ND","22.81","ND","ND","ND","0.3","53.9","23.2","76.4","164.6","0"],
    [20318,"2012-08-30T09:00:00","108.2","ND","29.30","ND","ND","ND","0.4","50.6","25.1","68","316.5","0"],
    [20319,"2012-08-30T10:00:00","67.8","ND","45.91","ND","ND","ND","1.4","46.7","25.7","64.7","374.7","0"],
    [20320,"2012-08-30T11:00:00","65.8","ND","68.45","ND","ND","ND","0.7","131.1","27","59.5","466.5","0"],
    [20321,"2012-08-30T12:00:00","37","ND","40.25","ND","ND","ND","1.2","115.9","28.4","55.2","545.9","0"],
    [20322,"2012-08-30T13:00:00","62.7","ND","34.97","ND","ND","ND","1.1","87.4","29.4","49.9","480.8","0"],
    [20323,"2012-08-30T14:00:00","38.6","ND","33.10","ND","ND","ND","1.5","47.8","30.1","45.6","440.8","0"],
    [20324,"2012-08-30T15:00:00","40.8","ND","24.16","ND","ND","ND","1.4","65","30.2","42.5","226.7","0"],
    [20325,"2012-08-30T16:00:00","21.5","ND","18.59","ND","ND","ND","1.3","57.3","30.2","43.4","176.6","0"],
    [20326,"2012-08-30T17:00:00","50.8","ND","17.74","ND","ND","ND","1","82.8","30","46.6","135.1","0"],
    [20327,"2012-08-30T18:00:00","34.2","ND","20.61","ND","ND","ND","0.9","233.2","28.9","49.6","28.2","0"],
    [20328,"2012-08-30T19:00:00","65","ND","26.12","ND","ND","ND","1.4","246.1","27.6","51","0.4","0"],
    [20329,"2012-08-30T20:00:00","55.9","ND","39.48","ND","ND","ND","0.7","233.8","27.1","51.2","0","0"],
    [20330,"2012-08-30T21:00:00","55.8","ND","50.96","ND","ND","ND","0.7","125.6","27.1","51","0","0"],
    [20331,"2012-08-30T22:00:00","39","ND","53.92","ND","ND","ND","0.5","179.3","25.8","59.1","0","0"],
    [20332,"2012-08-30T23:00:00","56.3","ND","48.74","ND","ND","ND","0.7","119.2","25.6","60.3","0","0"],
    [20333,"2012-08-31T00:00:00","37.9","ND","42.84","ND","ND","ND","0.7","153.1","25","63.7","0","0"],
    [20334,"2012-08-31T01:00:00","45.3","ND","42.96","ND","ND","ND","0.5","103.1","24.5","66.4","0","0"],
    [20335,"2012-08-31T02:00:00","24.9","ND","38.13","ND","ND","ND","0.3","353.2","23.5","70.4","0","0"],
    [20336,"2012-08-31T03:00:00","ND","ND","31.74","ND","ND","ND","ND","ND","ND","ND","ND","ND"],
    [20337,"2012-08-31T04:00:00","40.6","ND","ND","ND","ND","ND","0.2","302.5","23","73","0","0"],
    [20338,"2012-08-31T05:00:00","35.5","ND","ND","ND","ND","ND","0.1","296.6","22","74.9","0","0"],
    [20339,"2012-08-31T06:00:00","42.9","ND","25.69","ND","ND","ND","0.1","236.2","22","74.4","0.2","0"],
    [20340,"2012-08-31T07:00:00","67.8","ND","24.52","ND","ND","ND","0.1","345","21.5","75.1","23.1","0"],
    [20341,"2012-08-31T08:00:00","56.7","ND","26.52","ND","ND","ND","0.9","122","23.6","66.2","183.4","0"],
    [20342,"2012-08-31T09:00:00","89.9","ND","33.29","ND","ND","ND","0.6","88.4","25","61.1","290.8","0"],
    [20343,"2012-08-31T10:00:00","77.8","ND","57.33","ND","ND","ND","1.1","66.3","26.1","56.4","411.2","0"],
    [20344,"2012-08-31T11:00:00","66.4","ND","91.36","ND","ND","ND","1.9","125.8","27.2","49","455.7","0"],
    [20345,"2012-08-31T12:00:00","44.8","ND","61.68","ND","ND","ND","1.3","144.1","27.5","46.5","380.4","0"],
    [20346,"2012-08-31T13:00:00","70.4","ND","32.27","ND","ND","ND","1.6","131.1","28.6","44.4","479.3","0"],
    [20347,"2012-08-31T14:00:00","41.9","ND","22.74","ND","ND","ND","1.7","137.6","28.5","42","202.4","0"],
    [20348,"2012-08-31T15:00:00","63.8","ND","25.44","ND","ND","ND","0.7","152.5","28.9","41.3","309.2","0"],
    [20349,"2012-08-31T16:00:00","55.3","ND","24.02","ND","ND","ND","1.4","50.6","28.9","42.9","288.6","0"],
    [20350,"2012-08-31T17:00:00","44.6","ND","25.30","ND","ND","ND","1","105.6","29.1","39.8","205.4","0"],
    [20351,"2012-08-31T18:00:00","2.6","ND","27.42","ND","ND","ND","0.3","82.4","28.8","39.7","55.9","0"],
    [20352,"2012-08-31T19:00:00","40.8","ND","20.77","ND","ND","ND","0.6","296.8","27.1","46.7","0.3","0"],
    [20353,"2012-08-31T20:00:00","40.3","ND","31.69","ND","ND","ND","0.2","245.2","26.4","50.2","0","0"],
    [20354,"2012-08-31T21:00:00","50.7","ND","66.34","ND","ND","ND","1.4","246.4","26","51.6","0","0"],
    [20355,"2012-08-31T22:00:00","29","ND","73.97","ND","ND","ND","0.6","271.5","25.7","54.5","0","0"],
    [20356,"2012-08-31T23:00:00","76.5","ND","50.59","ND","ND","ND","0.2","349.8","24.2","67.3","0","0"],
    [20357,"2012-09-01T00:00:00","66.6","ND","33.17","ND","ND","ND","0.1","334.1","23.3","69.4","0","0"],
    [20358,"2012-09-01T01:00:00","81.9","ND","46.82","ND","ND","ND","0.8","165.3","22.8","70.8","0","0"],
    [20359,"2012-09-01T02:00:00","67.9","ND","42.57","ND","ND","ND","0.7","186","22.1","70.5","0","0"],
    [20360,"2012-09-01T03:00:00","80.6","ND","40.34","ND","ND","ND","0","266.3","21.2","73.9","0","0"],
    [20361,"2012-09-01T04:00:00","53.9","ND","38.49","ND","ND","ND","0.1","346.1","20.7","74.9","0","0"],
    [20362,"2012-09-01T05:00:00","81","ND","38.15","ND","ND","ND","0.2","51.6","20.8","75.7","0","0"],
    [20363,"2012-09-01T06:00:00","85.6","ND","36.73","ND","ND","ND","0.2","357.5","20.7","76.7","0.1","0"],
    [20364,"2012-09-01T07:00:00","116.3","ND","40.36","ND","ND","ND","0.2","19.3","20.9","75.8","20.7","0"],
    [20365,"2012-09-01T08:00:00","133.7","ND","41.09","ND","ND","ND","0.5","74","21.6","72.4","81.4","0"],
    [20366,"2012-09-01T09:00:00","121.4","ND","41.97","ND","ND","ND","0.4","47.4","23","62.5","137.8","0"],
    [20367,"2012-09-01T10:00:00","72.3","ND","56.93","ND","ND","ND","1.2","49.3","23.9","60.8","243.8","0"],
    [20368,"2012-09-01T11:00:00","85.9","ND","47.34","ND","ND","ND","1.4","64.5","24.6","58.3","344.4","0"],
    [20369,"2012-09-01T12:00:00","48.2","ND","31.94","ND","ND","ND","1.7","56.6","25.8","55","399.8","0"],
    [20370,"2012-09-01T13:00:00","51.2","ND","26.31","ND","ND","ND","1.3","48.3","27.3","51","496.7","0"],
    [20371,"2012-09-01T14:00:00","44","ND","23.90","ND","ND","ND","1.5","61.4","27.7","49.9","277.8","0"],
    [20372,"2012-09-01T15:00:00","81.6","ND","21.82","ND","ND","ND","1.4","48","28.9","47.2","575","0"],
    [20373,"2012-09-01T16:00:00","65.7","ND","20.05","ND","ND","ND","1.6","42.9","29.9","43.1","420.5","0"],
    [20374,"2012-09-01T17:00:00","71.1","ND","20.45","ND","ND","ND","1.2","62","30.2","40.9","225.5","0"],
    [20375,"2012-09-01T18:00:00","54.8","ND","26.29","ND","ND","ND","1","52.9","29.5","41.4","42.8","0"],
    [20376,"2012-09-01T19:00:00","70.2","ND","24.53","ND","ND","ND","0.6","285.9","28.3","47.4","0.8","0"],
    [20377,"2012-09-01T20:00:00","59.8","ND","30.54","ND","ND","ND","0.2","252.6","27.4","53.7","0","0"],
    [20378,"2012-09-01T21:00:00","59.8","ND","43.21","ND","ND","ND","0.8","244.2","26.2","52.5","0","0"],
    [20379,"2012-09-01T22:00:00","43.1","ND","72.24","ND","ND","ND","0.4","290","25.5","55.2","0","0"],
    [20380,"2012-09-01T23:00:00","90.9","ND","61.33","ND","ND","ND","0.4","44.7","24.6","63.7","0","0"],
    [20381,"2012-09-02T00:00:00","78.7","ND","53.34","ND","ND","ND","0.2","25.8","23.2","71.5","0","0"],
    [20382,"2012-09-02T01:00:00","83.5","ND","58.86","ND","ND","ND","0.1","13.9","22.5","73.3","0","0"],
    [20383,"2012-09-02T02:00:00","63","ND","43.96","ND","ND","ND","0.2","164.5","22.1","76","0","0"],
    [20384,"2012-09-02T03:00:00","38.1","ND","40.34","ND","ND","ND","0.1","248.3","21.4","77.6","0","0"],
    [20385,"2012-09-02T04:00:00","47.5","ND","38.55","ND","ND","ND","0.1","330.4","20.9","78.6","0","0"],
    [20386,"2012-09-02T05:00:00","47","ND","34.35","ND","ND","ND","0.4","347.5","20.5","79.6","0","0"],
    [20387,"2012-09-02T06:00:00","72.7","ND","32.48","ND","ND","ND","0.2","22.5","20.2","81.5","0.1","0"],
    [20388,"2012-09-02T07:00:00","79","ND","33.78","ND","ND","ND","0.3","33.4","20","82.9","19.8","0"],
    [20389,"2012-09-02T08:00:00","87.7","ND","36.00","ND","ND","ND","0.6","16.8","21.8","75.8","162.4","0"],
    [20390,"2012-09-02T09:00:00","98.9","ND","33.65","ND","ND","ND","0.7","46.1","23.9","67.1","369.3","0"],
    [20391,"2012-09-02T10:00:00","54","ND","42.63","ND","ND","ND","1.1","48.4","25","62.8","401.8","0"],
    [20392,"2012-09-02T11:00:00","50.9","ND","53.41","ND","ND","ND","1.4","33.2","26.3","57.1","485","0"],
    [20393,"2012-09-02T12:00:00","26.9","ND","20.28","ND","ND","ND","0.7","61.8","27.8","51.8","682","0"],
    [20394,"2012-09-02T13:00:00","27.7","ND","13.95","ND","ND","ND","1.6","104.3","29.2","46","586","0"],
    [20395,"2012-09-02T14:00:00","23.7","ND","13.94","ND","ND","ND","1.2","87.4","30","43","601.4","0"],
    [20396,"2012-09-02T15:00:00","31.2","ND","14.90","ND","ND","ND","1.3","79.1","30.5","40.1","452.7","0"],
    [20397,"2012-09-02T16:00:00","16.3","ND","15.06","ND","ND","ND","1.3","92.7","30.8","38.3","247.5","0"],
    [20398,"2012-09-02T17:00:00","42.4","ND","12.81","ND","ND","ND","0.8","36.8","30","41.5","87.2","0"],
    [20399,"2012-09-02T18:00:00","33.7","ND","12.24","ND","ND","ND","1.4","244.5","28.8","46.5","25.7","0"],
    [20400,"2012-09-02T19:00:00","36.5","ND","13.77","ND","ND","ND","1.3","251.5","27.6","49.7","0.4","0"],
    [20401,"2012-09-02T20:00:00","34.9","ND","21.24","ND","ND","ND","1.1","249.9","27.3","51.1","0","0"],
    [20402,"2012-09-02T21:00:00","34.1","ND","27.82","ND","ND","ND","0.2","250.5","27.3","51.5","0","0"],
    [20403,"2012-09-02T22:00:00","19.4","ND","30.97","ND","ND","ND","0.8","99.3","27.2","52.6","0","0"],
    [20404,"2012-09-02T23:00:00","44.2","ND","32.14","ND","ND","ND","1.2","121.2","26.2","59.1","0","0"],
    [20405,"2012-09-03T00:00:00","47.2","ND","43.95","ND","ND","ND","0.4","140.9","25.1","65.3","0","0"],
    [20406,"2012-09-03T01:00:00","42","ND","42.49","ND","ND","ND","0.4","134.3","24.8","66.9","0","0"],
    [20407,"2012-09-03T02:00:00","22.4","ND","34.67","ND","ND","ND","0.2","156.2","24.6","67.6","0","0"],
    [20408,"2012-09-03T03:00:00","40.9","ND","27.09","ND","ND","ND","0.2","5.2","23.9","71.1","0","0"],
    [20409,"2012-09-03T04:00:00","33.2","ND","20.75","ND","ND","ND","1.4","162.7","23.8","67.9","0","0"],
    [20410,"2012-09-03T05:00:00","47.7","ND","20.62","ND","ND","ND","0.7","4.8","22.6","74","0","0"],
    [20411,"2012-09-03T06:00:00","43","ND","19.95","ND","ND","ND","0.2","293.4","22.5","73.6","0.1","0"],
    [20412,"2012-09-03T07:00:00","73.3","ND","26.22","ND","ND","ND","0.3","19.4","22.8","70.8","14.3","0"],
    [20413,"2012-09-03T08:00:00","98.6","ND","30.92","ND","ND","ND","0.7","28.2","23.4","67.8","110.9","0"],
    [20414,"2012-09-03T09:00:00","104.2","ND","34.51","ND","ND","ND","0.5","107.2","24.7","61","186.9","0"],
    [20415,"2012-09-03T10:00:00","56.9","ND","39.17","ND","ND","ND","0.8","77.1","26","56.7","357.6","0"],
    [20416,"2012-09-03T11:00:00","70.5","ND","35.75","ND","ND","ND","1.1","118.3","27.5","55.1","592.9","0"],
    [20417,"2012-09-03T12:00:00","42.9","ND","39.30","ND","ND","ND","1.5","139.1","29.1","48.2","617.4","0"],
    [20418,"2012-09-03T13:00:00","57.4","ND","22.26","ND","ND","ND","1.6","94.8","30","45.7","626","0"],
    [20419,"2012-09-03T14:00:00","44.4","ND","20.64","ND","ND","ND","1.4","79.8","30.6","43.4","467.5","0"],
    [20420,"2012-09-03T15:00:00","50.2","ND","18.84","ND","ND","ND","1.8","53.3","30.6","43.4","381.6","0"],
    [20421,"2012-09-03T16:00:00","26.5","ND","19.98","ND","ND","ND","1.4","20.7","30.2","46.9","208.6","0"],
    [20422,"2012-09-03T17:00:00","37.4","ND","16.00","ND","ND","ND","1.7","247.8","30.4","45.5","202.3","0"],
    [20423,"2012-09-03T18:00:00","45","ND","18.93","ND","ND","ND","0.9","281.5","28.8","50.4","24.7","0"],
    [20424,"2012-09-03T19:00:00","54.5","ND","22.93","ND","ND","ND","0.9","264","27.7","52.3","0.6","0"],
    [20425,"2012-09-03T20:00:00","42.2","ND","35.86","ND","ND","ND","0.5","259.6","27.3","53.7","0","0"],
    [20426,"2012-09-03T21:00:00","62.1","ND","41.22","ND","ND","ND","0.8","106.5","27.3","54.7","0","0"],
    [20427,"2012-09-03T22:00:00","41.6","ND","48.44","ND","ND","ND","1.2","159.9","26.6","56.4","0","0"],
    [20428,"2012-09-03T23:00:00","57.3","ND","52.55","ND","ND","ND","0.4","71","25.5","62","0","0"],
    [20429,"2012-09-04T00:00:00","65.5","ND","43.18","ND","ND","ND","0.3","63.4","24","69.4","0","0"],
    [20430,"2012-09-04T01:00:00","60.1","ND","46.35","ND","ND","ND","0.1","213.5","23.5","69.7","0","0"],
    [20431,"2012-09-04T02:00:00","49.6","ND","35.55","ND","ND","ND","0.3","95.2","23.6","70.8","0","0"],
    [20432,"2012-09-04T03:00:00","42.3","ND","37.40","ND","ND","ND","0.1","101.7","22.7","74.8","0","0"],
    [20433,"2012-09-04T04:00:00","33.7","ND","34.63","ND","ND","ND","0.1","247.3","22.1","76","0","0"],
    [20434,"2012-09-04T05:00:00","40.2","ND","28.54","ND","ND","ND","0","47","22.3","75.2","0","0"],
    [20435,"2012-09-04T06:00:00","25.7","ND","28.48","ND","ND","ND","0.2","91.1","22.4","75.4","0.3","0"],
    [20436,"2012-09-04T07:00:00","68.2","ND","25.20","ND","ND","ND","0.6","166.5","22.4","71.5","30.6","0"],
    [20437,"2012-09-04T08:00:00","64.7","ND","29.89","ND","ND","ND","1","146.5","23.2","66.9","165.4","0"],
    [20438,"2012-09-04T09:00:00","83.8","ND","37.72","ND","ND","ND","0.3","106.2","25.2","59.9","401.5","0"],
    [20439,"2012-09-04T10:00:00","64.7","ND","46.74","ND","ND","ND","1.1","106.5","26.6","56.5","480.6","0"],
    [20440,"2012-09-04T11:00:00","71.4","ND","57.47","ND","ND","ND","0.9","113.7","27.2","55.3","375.6","0"],
    [20441,"2012-09-04T12:00:00","47.6","ND","42.20","ND","ND","ND","1.2","111.6","28.4","51.6","546.1","0"],
    [20442,"2012-09-04T13:00:00","45.6","ND","24.34","ND","ND","ND","1.6","69","28.8","51","329.2","0"],
    [20443,"2012-09-04T14:00:00","51.3","ND","24.97","ND","ND","ND","1.7","95.2","28.4","52.9","186.2","0"],
    [20444,"2012-09-04T15:00:00","48.8","ND","19.33","ND","ND","ND","1.9","121.9","28.3","53.1","202.1","0"],
    [20445,"2012-09-04T16:00:00","45.8","ND","19.82","ND","ND","ND","0.8","107.2","29","51.1","438","0"],
    [20446,"2012-09-04T17:00:00","72.2","ND","21.21","ND","ND","ND","0.4","255.5","29.4","48.7","204.5","0"],
    [20447,"2012-09-04T18:00:00","38.9","ND","22.36","ND","ND","ND","0.6","208.4","28.5","50.2","31.4","0"],
    [20448,"2012-09-04T19:00:00","56.8","ND","23.51","ND","ND","ND","0.9","257.2","27","54.1","0.5","0"],
    [20449,"2012-09-04T20:00:00","44.6","ND","29.84","ND","ND","ND","0.6","121.8","26.4","56","0","0"],
    [20450,"2012-09-04T21:00:00","66.8","ND","47.55","ND","ND","ND","0.3","161.4","25.7","57.9","0","0"],
    [20451,"2012-09-04T22:00:00","35.1","ND","55.58","ND","ND","ND","1","112.9","24.9","61.7","0","0"],
    [20452,"2012-09-04T23:00:00","42.3","ND","69.51","ND","ND","ND","0.2","85.7","23.7","67.8","0","0"],
    [20453,"2012-09-05T00:00:00","55.3","ND","56.14","ND","ND","ND","0.2","252.5","23.1","70.1","0","0"],
    [20454,"2012-09-05T01:00:00","50.3","ND","43.12","ND","ND","ND","0.1","191.5","22.6","71.1","0","0"],
    [20455,"2012-09-05T02:00:00","37.3","ND","44.18","ND","ND","ND","0.5","50.7","22","75","0","0"],
    [20456,"2012-09-05T03:00:00","55","ND","42.12","ND","ND","ND","0.2","148.4","21.7","77","0","0"],
    [20457,"2012-09-05T04:00:00","48.3","ND","31.94","ND","ND","ND","0.3","178","21.8","76","0","0"],
    [20458,"2012-09-05T05:00:00","51.1","ND","27.46","ND","ND","ND","1.1","186.4","22","73.9","0","0"],
    [20459,"2012-09-05T06:00:00","73.9","ND","23.08","ND","ND","ND","0.5","155.3","21.5","76.3","0.1","0"],
    [20460,"2012-09-05T07:00:00","67.8","ND","17.01","ND","ND","ND","0.3","159.9","21.3","77","7","0"],
    [20461,"2012-09-05T08:00:00","79.7","ND","26.99","ND","ND","ND","0.4","178.3","22.3","72.8","120.1","0"],
    [20462,"2012-09-05T09:00:00","90","ND","37.50","ND","ND","ND","0.5","86","24.6","63.6","369.4","0"],
    [20463,"2012-09-05T10:00:00","68.6","ND","54.15","ND","ND","ND","1.4","92","25.6","60.3","439.9","0"],
    [20464,"2012-09-05T11:00:00","68.9","ND","66.54","ND","ND","ND","1.3","99.8","27","55.5","657.2","0"],
    [20465,"2012-09-05T12:00:00","52.2","ND","36.08","ND","ND","ND","1.4","95","28.1","51.1","587.1","0"],
    [20466,"2012-09-05T13:00:00","60","ND","22.44","ND","ND","ND","1.4","107.2","29","47.8","422.9","0"],
    [20467,"2012-09-05T14:00:00","56.4","ND","19.91","ND","ND","ND","1.1","100.5","29.1","47.3","263.2","0"],
    [20468,"2012-09-05T15:00:00","71.5","ND","21.25","ND","ND","ND","0.8","99.9","29.6","44.9","241.7","0"],
    [20469,"2012-09-05T16:00:00","59.7","ND","22.40","ND","ND","ND","1.5","53.4","29.8","46.3","289.6","0"],
    [20470,"2012-09-05T17:00:00","48.1","ND","25.95","ND","ND","ND","1.4","52.5","29.5","48.1","177.9","0"],
    [20471,"2012-09-05T18:00:00","25.6","ND","17.95","ND","ND","ND","0.5","225","29.4","48.3","90.5","0"],
    [20472,"2012-09-05T19:00:00","56.5","ND","18.60","ND","ND","ND","0.6","236.1","28.1","48.9","0.6","0"],
    [20473,"2012-09-05T20:00:00","32","ND","29.65","ND","ND","ND","0.4","233.7","27.5","50.1","0","0"],
    [20474,"2012-09-05T21:00:00","50.5","ND","45.75","ND","ND","ND","0.3","131.5","27","52.5","0","0"],
    [20475,"2012-09-05T22:00:00","39.2","ND","45.18","ND","ND","ND","0.7","115.2","26.3","56.3","0","0"],
    [20476,"2012-09-05T23:00:00","76","ND","62.88","ND","ND","ND","0.4","134.9","24.7","64.2","0","0"],
    [20477,"2012-09-06T00:00:00","66.3","ND","61.73","ND","ND","ND","0.2","45.9","23.5","69.7","0","0"],
    [20478,"2012-09-06T01:00:00","90.1","ND","49.96","ND","ND","ND","0.3","352.8","22.6","74","0","0"],
    [20479,"2012-09-06T02:00:00","70.4","ND","43.34","ND","ND","ND","0.2","238.4","22.3","75.1","0","0"],
    [20480,"2012-09-06T03:00:00","71.2","ND","37.92","ND","ND","ND","0","259.9","21.7","76.7","0","0"],
    [20481,"2012-09-06T04:00:00","46.1","ND","32.71","ND","ND","ND","0.1","291.7","21.2","78.4","0","0"],
    [20482,"2012-09-06T05:00:00","56.2","ND","27.84","ND","ND","ND","0.1","177.7","21","78.8","0","0"],
    [20483,"2012-09-06T06:00:00","51.7","ND","23.88","ND","ND","ND","0.3","299.1","20.6","80.5","0.1","0"],
    [20484,"2012-09-06T07:00:00","87.7","ND","26.55","ND","ND","ND","0.3","37.7","20.5","80.4","22.1","0"],
    [20485,"2012-09-06T08:00:00","94.2","ND","31.72","ND","ND","ND","0.5","9","21.8","75.6","135.7","0"],
    [20486,"2012-09-06T09:00:00","114.3","ND","38.72","ND","ND","ND","0.7","99.4","24.3","64.9","390.5","0"],
    [20487,"2012-09-06T10:00:00","86.9","ND","50.40","ND","ND","ND","0.7","96.9","25.9","59","587.6","0"],
    [20488,"2012-09-06T11:00:00","97.9","ND","56.24","ND","ND","ND","1.2","70.8","27.6","53.4","746.4","0"],
    [20489,"2012-09-06T12:00:00","61.7","ND","50.08","ND","ND","ND","0.8","51","29.4","46.6","832.6","0"],
    [20490,"2012-09-06T13:00:00","64","ND","19.86","ND","ND","ND","1.2","97.3","31.4","38.4","861.5","0"],
    [20491,"2012-09-06T14:00:00","44.9","ND","14.33","ND","ND","ND","1.2","103.2","32.7","33.6","832","0"],
    [20492,"2012-09-06T15:00:00","38.6","ND","17.00","ND","ND","ND","1.7","94.3","33.7","31.5","657.3","0"],
    [20493,"2012-09-06T16:00:00","53.3","ND","14.56","ND","ND","ND","2.4","35.5","33.3","32.8","475.7","0"],
    [20494,"2012-09-06T17:00:00","77.5","ND","16.38","ND","ND","ND","2.5","42.4","32.5","35.7","261","0"],
    [20495,"2012-09-06T18:00:00","61.9","ND","16.37","ND","ND","ND","1","2.8","31.2","44.7","62.1","0"],
    [20496,"2012-09-06T19:00:00","81.5","ND","19.73","ND","ND","ND","1.8","242.3","29.2","50.5","0.8","0"],
    [20497,"2012-09-06T20:00:00","58.3","ND","27.33","ND","ND","ND","1","237.8","28.8","50.3","0","0"],
    [20498,"2012-09-06T21:00:00","82.2","ND","39.88","ND","ND","ND","0.1","204.8","28.6","50.6","0","0"],
    [20499,"2012-09-06T22:00:00","79","ND","43.58","ND","ND","ND","1.2","119.5","27.4","56.5","0","0"],
    [20500,"2012-09-06T23:00:00","92.7","ND","51.13","ND","ND","ND","0.4","160.1","26.2","63.6","0","0"],
    [20501,"2012-09-07T00:00:00","91.3","ND","59.45","ND","ND","ND","0.2","34.9","25.5","65.3","0","0"],
    [20502,"2012-09-07T01:00:00","71.8","ND","51.52","ND","ND","ND","0.5","85.5","24.7","69.9","0","0"],
    [20503,"2012-09-07T02:00:00","68.2","ND","47.85","ND","ND","ND","0.1","90.4","24.3","70.8","0","0"],
    [20504,"2012-09-07T03:00:00","68.1","ND","28.79","ND","ND","ND","0.2","334.7","23.1","73.2","0","0"],
    [20505,"2012-09-07T04:00:00","67.9","ND","28.78","ND","ND","ND","0.6","300.5","22.5","73.7","0","0"],
    [20506,"2012-09-07T05:00:00","64.3","ND","26.60","ND","ND","ND","0.2","237.7","22.4","74.7","0","0"],
    [20507,"2012-09-07T06:00:00","44","ND","23.37","ND","ND","ND","0.4","147.6","22.7","71.9","0.3","0"],
    [20508,"2012-09-07T07:00:00","84.1","ND","30.00","ND","ND","ND","1.2","171.2","22.8","67.7","33","0"],
    [20509,"2012-09-07T08:00:00","71.7","ND","35.07","ND","ND","ND","1.5","154.6","24.4","61.3","229","0"],
    [20510,"2012-09-07T09:00:00","68.5","ND","36.01","ND","ND","ND","0.9","155.5","25.7","57.7","253.4","0"],
    [20511,"2012-09-07T10:00:00","73.6","ND","51.78","ND","ND","ND","1.6","144.4","26.5","58.7","391.6","0"],
    [20512,"2012-09-07T11:00:00","68.8","ND","66.48","ND","ND","ND","1","126.8","28.3","52.7","662.5","0"],
    [20513,"2012-09-07T12:00:00","42.9","ND","ND","ND","ND","ND","1.3","80.8","30.2","46.7","886.5","0"],
    [20514,"2012-09-07T13:00:00","56.8","ND","27.48","ND","ND","ND","0.9","103.1","31.4","43.6","818","0"],
    [20515,"2012-09-07T14:00:00","58.1","ND","25.59","ND","ND","ND","0.6","134.1","33.6","36.1","755.1","0"],
    [20516,"2012-09-07T15:00:00","69.2","ND","24.67","ND","ND","ND","2.2","304.5","33.5","37.8","495.2","0"],
    [20517,"2012-09-07T16:00:00","49.3","ND","27.60","ND","ND","ND","2.8","264.1","33.4","37.5","415.5","0"],
    [20518,"2012-09-07T17:00:00","114.8","ND","23.34","ND","ND","ND","4.1","262.7","31.4","41.5","220.8","0"],
    [20519,"2012-09-07T18:00:00","114.9","ND","23.55","ND","ND","ND","2","272.7","30.5","42.2","66.7","0"],
    [20520,"2012-09-07T19:00:00","143.2","ND","45.00","ND","ND","ND","2","280.2","29.5","45.8","0.8","0"],
    [20521,"2012-09-07T20:00:00","101.7","ND","47.38","ND","ND","ND","0.7","80.8","28.8","49.9","0","0"],
    [20522,"2012-09-07T21:00:00","72.9","ND","35.69","ND","ND","ND","0.9","102.1","28.5","50.7","0","0"],
    [20523,"2012-09-07T22:00:00","38.1","ND","42.49","ND","ND","ND","0.8","103.6","27.6","55.3","0","0"],
    [20524,"2012-09-07T23:00:00","54.7","ND","38.74","ND","ND","ND","0.9","160.1","26.8","59","0","0"],
    [20525,"2012-09-08T00:00:00","30","ND","44.68","ND","ND","ND","0.4","111","25.5","65.1","0","0"],
    [20526,"2012-09-08T01:00:00","35.6","ND","45.77","ND","ND","ND","1","158","24.8","68.2","0","0"],
    [20527,"2012-09-08T02:00:00","21.4","ND","40.41","ND","ND","ND","0.8","124.7","24.4","71.2","0","0"],
    [20528,"2012-09-08T03:00:00","47.4","ND","29.51","ND","ND","ND","0.5","145.6","23.7","73.5","0","0"],
    [20529,"2012-09-08T04:00:00","64.3","ND","28.45","ND","ND","ND","0.1","261.1","23.3","75.6","0","0"],
    [20530,"2012-09-08T05:00:00","64.6","ND","18.18","ND","ND","ND","0.1","317.6","22.8","76.9","0","0"],
    [20531,"2012-09-08T06:00:00","46.7","ND","25.56","ND","ND","ND","0.6","30.7","22.5","78.6","0.2","0"],
    [20532,"2012-09-08T07:00:00","56.8","ND","25.61","ND","ND","ND","0.1","31","22.9","77","37.1","0"],
    [20533,"2012-09-08T08:00:00","61.5","ND","30.07","ND","ND","ND","0.4","44","23.5","75","117.6","0"],
    [20534,"2012-09-08T09:00:00","82.1","ND","34.05","ND","ND","ND","0.9","119.6","25.6","66.4","333.9","0"],
    [20535,"2012-09-08T10:00:00","65.9","ND","50.86","ND","ND","ND","1.2","114.9","27.3","59.2","551.7","0"],
    [20536,"2012-09-08T11:00:00","76.6","ND","66.20","ND","ND","ND","0.6","120.3","28.9","52.7","747.4","0"],
    [20537,"2012-09-08T12:00:00","57.6","ND","43.10","ND","ND","ND","1.3","125.7","30.8","45","820.4","0"],
    [20538,"2012-09-08T13:00:00","42.3","ND","22.50","ND","ND","ND","1.5","129.2","32.6","36.4","861.4","0"],
    [20539,"2012-09-08T14:00:00","23.3","ND","20.40","ND","ND","ND","1","136.1","33.4","31.9","500.8","0"],
    [20540,"2012-09-08T15:00:00","40","ND","17.29","ND","ND","ND","2","338.8","32.1","40.5","354.2","0"],
    [20541,"2012-09-08T16:00:00","26.1","ND","11.05","ND","ND","ND","0.8","0.4","31.6","42.1","344.2","0"],
    [20542,"2012-09-08T17:00:00","34","ND","14.11","ND","ND","ND","1.8","281.5","30.8","44.3","240.3","0"],
    [20543,"2012-09-08T18:00:00","17.8","ND","13.84","ND","ND","ND","1.8","257.6","29.9","45.2","95.9","0"],
    [20544,"2012-09-08T19:00:00","46.9","ND","17.86","ND","ND","ND","0.3","220.2","29","46.2","0.5","0"],
    [20545,"2012-09-08T20:00:00","24.5","ND","18.40","ND","ND","ND","0.4","80.9","28.4","49.4","0","0"],
    [20546,"2012-09-08T21:00:00","25.7","ND","23.26","ND","ND","ND","0.5","319.1","27.5","52.1","0","0"],
    [20547,"2012-09-08T22:00:00","15","ND","33.81","ND","ND","ND","1.4","234.4","27.1","54.7","0","0"],
    [20548,"2012-09-08T23:00:00","13.4","ND","35.77","ND","ND","ND","0.6","338.6","26.1","57.6","0","0"],
    [20549,"2012-09-09T00:00:00","8.2","ND","33.31","ND","ND","ND","1.6","150.7","25.3","63.6","0","0"],
    [20550,"2012-09-09T01:00:00","37.9","ND","25.53","ND","ND","ND","1.3","173.4","24.7","66.9","0","0"],
    [20551,"2012-09-09T02:00:00","19.6","ND","35.99","ND","ND","ND","0.7","7.5","23.2","74","0","0"],
    [20552,"2012-09-09T03:00:00","23.7","ND","28.90","ND","ND","ND","0.2","296.2","22.8","74.9","0","0"],
    [20553,"2012-09-09T04:00:00","24.3","ND","29.24","ND","ND","ND","0.2","271.9","22.7","74.6","0","0"],
    [20554,"2012-09-09T05:00:00","26.4","ND","25.83","ND","ND","ND","0.3","149.6","22.6","75","0","0"],
    [20555,"2012-09-09T06:00:00","36.5","ND","28.96","ND","ND","ND","1.2","178.3","21.8","79.7","0.1","0"],
    [20556,"2012-09-09T07:00:00","46.3","ND","29.08","ND","ND","ND","0.5","252.6","21.7","78.8","34.2","0"],
    [20557,"2012-09-09T08:00:00","41.8","ND","24.90","ND","ND","ND","0.9","165.2","23.5","70.8","216.6","0"],
    [20558,"2012-09-09T09:00:00","44.2","ND","24.21","ND","ND","ND","0.8","141.8","25.6","63.5","427.5","0"],
    [20559,"2012-09-09T10:00:00","26.5","ND","20.99","ND","ND","ND","0.7","82.1","27.2","59.2","635.7","0"],
    [20560,"2012-09-09T11:00:00","26.8","ND","22.86","ND","ND","ND","1.4","86","28.5","52.8","720","0"],
    [20561,"2012-09-09T12:00:00","14.9","ND","21.59","ND","ND","ND","1.1","118.5","30.8","44.3","792.9","0"],
    [20562,"2012-09-09T13:00:00","33.5","ND","15.05","ND","ND","ND","1.1","103.7","32.8","35.1","813.1","0"],
    [20563,"2012-09-09T14:00:00","18.6","ND","10.86","ND","ND","ND","1.7","128.1","33.7","28.2","641.1","0"],
    [20564,"2012-09-09T15:00:00","16","ND","11.92","ND","ND","ND","0.7","314.5","33.3","33.7","479.8","0"],
    [20565,"2012-09-09T16:00:00","16.5","ND","7.24","ND","ND","ND","1.5","347.3","32.4","37.2","326.7","0"],
    [20566,"2012-09-09T17:00:00","30.2","ND","10.79","ND","ND","ND","2.1","293.1","31","39.6","194.6","0"],
    [20567,"2012-09-09T18:00:00","33.2","ND","8.20","ND","ND","ND","0.8","297.9","29.3","40.2","12.4","0"],
    [20568,"2012-09-09T19:00:00","40.9","ND","12.92","ND","ND","ND","0.1","92.8","28.8","40.7","0.5","0"],
    [20569,"2012-09-09T20:00:00","21.2","ND","13.54","ND","ND","ND","0.4","175.3","28.5","44","0","0"],
    [20570,"2012-09-09T21:00:00","33","ND","19.84","ND","ND","ND","1.4","310.4","27.4","50.5","0","0"],
    [20571,"2012-09-09T22:00:00","18","ND","26.83","ND","ND","ND","1","107.7","26.6","56.3","0","0"],
    [20572,"2012-09-09T23:00:00","35.8","ND","29.92","ND","ND","ND","1.1","159.8","25.4","63.1","0","0"],
    [20573,"2012-09-10T00:00:00","19.9","ND","32.74","ND","ND","ND","0.8","11.2","24.5","67","0","0"],
    [20574,"2012-09-10T01:00:00","37.7","ND","36.16","ND","ND","ND","0.5","228","24.6","67","0","0"],
    [20575,"2012-09-10T02:00:00","28","ND","30.51","ND","ND","ND","0.3","134.9","24.8","65.3","0","0"],
    [20576,"2012-09-10T03:00:00","17.5","ND","19.52","ND","ND","ND","0.4","247.2","23.8","71.5","0","0"],
    [20577,"2012-09-10T04:00:00","17.1","ND","19.87","ND","ND","ND","2.4","188.5","23.5","71.3","0","0"],
    [20578,"2012-09-10T05:00:00","29.9","ND","16.66","ND","ND","ND","1.2","217.3","22.9","72.5","0","0"],
    [20579,"2012-09-10T06:00:00","28.6","ND","15.13","ND","ND","ND","0.6","270.8","22.7","72.7","0.2","0"],
    [20580,"2012-09-10T07:00:00","41.2","ND","14.67","ND","ND","ND","0.5","219.6","23","70.7","27.9","0"],
    [20581,"2012-09-10T08:00:00","50.3","ND","18.43","ND","ND","ND","0.8","93.5","24.1","67.8","147.3","0"],
    [20582,"2012-09-10T09:00:00","60.5","ND","27.28","ND","ND","ND","1.1","19.6","25.3","64.6","451.3","0"],
    [20583,"2012-09-10T10:00:00","31.1","ND","42.70","ND","ND","ND","0.9","38.9","26.3","60.5","465.6","0"],
    [20584,"2012-09-10T11:00:00","33.9","ND","45.46","ND","ND","ND","1","16","27.4","56.4","495.3","0"],
    [20585,"2012-09-10T12:00:00","18.5","ND","24.07","ND","ND","ND","0.5","45.6","28.2","54","420.2","0"],
    [20586,"2012-09-10T13:00:00","14.6","ND","13.34","ND","ND","ND","1.1","86.3","29.3","50.4","530.9","0"],
    [20587,"2012-09-10T14:00:00","8.9","ND","19.22","ND","ND","ND","1.2","63.7","30.7","45.8","775.2","0"],
    [20588,"2012-09-10T15:00:00","36.4","ND","17.16","ND","ND","ND","2","61","31.3","43.5","508.2","0"],
    [20589,"2012-09-10T16:00:00","27.7","ND","16.37","ND","ND","ND","0.7","51.6","31.6","41.9","433.6","0"],
    [20590,"2012-09-10T17:00:00","30.5","ND","17.27","ND","ND","ND","1.4","284.1","32","39.8","300.6","0"],
    [20591,"2012-09-10T18:00:00","17.9","ND","12.97","ND","ND","ND","2.3","249.1","29.9","43.2","71.3","0"],
    [20592,"2012-09-10T19:00:00","38.3","ND","14.82","ND","ND","ND","0.3","5","28.4","46.4","0.7","0"],
    [20593,"2012-09-10T20:00:00","30.7","ND","24.69","ND","ND","ND","0.7","241.9","27.5","49.4","0","0"],
    [20594,"2012-09-10T21:00:00","36.9","ND","39.07","ND","ND","ND","0.2","178.2","27","50.8","0","0"],
    [20595,"2012-09-10T22:00:00","20.1","ND","46.57","ND","ND","ND","0.9","125.7","25.6","58.4","0","0"],
    [20596,"2012-09-10T23:00:00","36.6","ND","41.44","ND","ND","ND","0.3","107.6","24.3","65.5","0","0"],
    [20597,"2012-09-11T00:00:00","26.3","ND","49.85","ND","ND","ND","0.4","146.6","23.6","67.5","0","0"],
    [20598,"2012-09-11T01:00:00","49.5","ND","37.40","ND","ND","ND","0.2","152","23.3","69","0","0"],
    [20599,"2012-09-11T02:00:00","29.8","ND","37.55","ND","ND","ND","0.7","163.5","22.4","73.2","0","0"],
    [20600,"2012-09-11T03:00:00","51.1","ND","34.99","ND","ND","ND","0.8","179.6","21.9","76.4","0","0"],
    [20601,"2012-09-11T04:00:00","36.8","ND","27.06","ND","ND","ND","0.8","172.3","21.9","76.1","0","0"],
    [20602,"2012-09-11T05:00:00","45.7","ND","19.72","ND","ND","ND","0.1","178.5","21.8","76.1","0","0"],
    [20603,"2012-09-11T06:00:00","35.4","ND","19.38","ND","ND","ND","0.2","328.3","21.5","77.1","0.1","0"],
    [20604,"2012-09-11T07:00:00","69.8","ND","20.47","ND","ND","ND","0.1","328.6","21.6","76.8","26.2","0"],
    [20605,"2012-09-11T08:00:00","101.9","ND","25.92","ND","ND","ND","0.2","101.1","23","71","146.2","0"],
    [20606,"2012-09-11T09:00:00","103.9","ND","33.95","ND","ND","ND","0.5","109.9","25","62.1","385.8","0"],
    [20607,"2012-09-11T10:00:00","59.1","ND","62.42","ND","ND","ND","0.9","87.6","27.2","54.2","611","0"],
    [20608,"2012-09-11T11:00:00","59.7","ND","100.58","ND","ND","ND","1.1","132.4","28.7","48.8","752.5","0"],
    [20609,"2012-09-11T12:00:00","38.1","ND","48.91","ND","ND","ND","1.4","102.3","29.8","45.4","810.7","0"],
    [20610,"2012-09-11T13:00:00","54.8","ND","22.47","ND","ND","ND","1.2","97.3","31.1","39.9","802.8","0"],
    [20611,"2012-09-11T14:00:00","29.6","ND","15.15","ND","ND","ND","1.7","93.8","32.2","35.4","619.6","0"],
    [20612,"2012-09-11T15:00:00","34.2","ND","15.07","ND","ND","ND","1.8","96.1","32.9","34","628.6","0"],
    [20613,"2012-09-11T16:00:00","36.9","ND","16.57","ND","ND","ND","2.4","96.8","32.1","37.4","282.5","0"],
    [20614,"2012-09-11T17:00:00","70.4","ND","14.29","ND","ND","ND","0.9","196.7","31.7","40.9","144.6","0"],
    [20615,"2012-09-11T18:00:00","65.7","ND","16.29","ND","ND","ND","2.2","247.7","30","46","32.2","0"],
    [20616,"2012-09-11T19:00:00","61.9","ND","21.08","ND","ND","ND","0.2","310.9","28.9","48","0.7","0"],
    [20617,"2012-09-11T20:00:00","42.1","ND","34.06","ND","ND","ND","0.5","236.1","28.3","49.4","0","0"],
    [20618,"2012-09-11T21:00:00","48.6","ND","44.88","ND","ND","ND","0.7","124.8","28.1","50.9","0","0"],
    [20619,"2012-09-11T22:00:00","40.5","ND","38.19","ND","ND","ND","1","90.1","26.7","57.4","0","0"],
    [20620,"2012-09-11T23:00:00","41.5","ND","39.23","ND","ND","ND","0.5","92.2","25.7","62","0","0"],
    [20621,"2012-09-12T00:00:00","48.7","ND","40.66","ND","ND","ND","0.4","139.6","25.2","63.5","0","0"],
    [20622,"2012-09-12T01:00:00","26.9","ND","41.82","ND","ND","ND","0.5","62.8","24.3","68.8","0","0"],
    [20623,"2012-09-12T02:00:00","57.2","ND","40.34","ND","ND","ND","0.1","356.7","23.9","70.7","0","0"],
    [20624,"2012-09-12T03:00:00","40.6","ND","28.90","ND","ND","ND","0.3","151.7","24.1","69.9","0","0"],
    [20625,"2012-09-12T04:00:00","24.5","ND","25.29","ND","ND","ND","0.1","258.2","23.8","71.4","0","0"],
    [20626,"2012-09-12T05:00:00","79","ND","26.54","ND","ND","ND","0.4","13.2","23.4","73.2","0","0"],
    [20627,"2012-09-12T06:00:00","67","ND","25.44","ND","ND","ND","0.1","325.4","23","75.4","0.3","0"],
    [20628,"2012-09-12T07:00:00","77.8","ND","29.91","ND","ND","ND","0.2","349","23.1","74.5","21.8","0"],
    [20629,"2012-09-12T08:00:00","97.9","ND","29.85","ND","ND","ND","0.5","60.2","24.1","70.9","110.7","0"],
    [20630,"2012-09-12T09:00:00","120.3","ND","34.25","ND","ND","ND","0.9","34.1","25.7","65.9","350","0"],
    [20631,"2012-09-12T10:00:00","85.7","ND","59.81","ND","ND","ND","1","94.1","27.3","58.2","555.3","0"],
    [20632,"2012-09-12T11:00:00","120.2","ND","68.19","ND","ND","ND","1","163.8","29","49.8","558.6","0"],
    [20633,"2012-09-12T12:00:00","87.7","ND","41.59","ND","ND","ND","1.2","112.1","29.8","45.7","524.1","0"],
    [20634,"2012-09-12T13:00:00","82.8","ND","28.82","ND","ND","ND","1.5","61.2","30.3","44.6","530","0"],
    [20635,"2012-09-12T14:00:00","63.6","ND","19.88","ND","ND","ND","2.1","53.2","30.8","46.4","407.4","0"],
    [20636,"2012-09-12T15:00:00","63.9","ND","20.30","ND","ND","ND","0.6","0.9","30.8","44.9","418.3","0"],
    [20637,"2012-09-12T16:00:00","58.4","ND","27.21","ND","ND","ND","1.4","274.3","30.1","46.2","161.8","0"],
    [20638,"2012-09-12T17:00:00","43.6","ND","11.13","ND","ND","ND","2.4","255.1","28.8","48.4","43.2","0"],
    [20639,"2012-09-12T18:00:00","24.3","ND","17.19","ND","ND","ND","1.8","244.9","28.2","49.8","11.6","0"],
    [20640,"2012-09-12T19:00:00","42.8","ND","25.09","ND","ND","ND","0.3","116.1","28.1","50.5","0.1","0"],
    [20641,"2012-09-12T20:00:00","26","ND","33.59","ND","ND","ND","0.3","133.4","27.3","52.8","0","0"],
    [20642,"2012-09-12T21:00:00","54.7","ND","48.02","ND","ND","ND","0.5","132.6","26.9","54.7","0","0"],
    [20643,"2012-09-12T22:00:00","29.8","ND","50.82","ND","ND","ND","0.4","97.4","26.2","58.9","0","0"],
    [20644,"2012-09-12T23:00:00","57.2","ND","49.32","ND","ND","ND","0.7","130.3","24.9","64.9","0","0"],
    [20645,"2012-09-13T00:00:00","37.8","ND","49.39","ND","ND","ND","1.1","162.6","24.2","68.2","0","0"],
    [20646,"2012-09-13T01:00:00","38.7","ND","36.37","ND","ND","ND","1.1","185.2","24.2","69.8","0","0"],
    [20647,"2012-09-13T02:00:00","21.1","ND","31.37","ND","ND","ND","0.8","199.1","24","70.2","0","0"],
    [20648,"2012-09-13T03:00:00","38.5","ND","25.23","ND","ND","ND","0.3","21","23.2","75.5","0","0"],
    [20649,"2012-09-13T04:00:00","31.4","ND","19.62","ND","ND","ND","0.7","40.5","22.7","78.4","0","0"],
    [20650,"2012-09-13T05:00:00","48.9","ND","20.71","ND","ND","ND","0.3","245.6","22.8","77.8","0","0"],
    [20651,"2012-09-13T06:00:00","48.2","ND","25.18","ND","ND","ND","0.3","284.9","22.9","76.7","0","0"],
    [20652,"2012-09-13T07:00:00","64.1","ND","25.83","ND","ND","ND","0.9","27.9","22.5","80.3","14.2","0"],
    [20653,"2012-09-13T08:00:00","68.9","ND","24.11","ND","ND","ND","0.1","84.9","23.1","77","87.8","0"],
    [20654,"2012-09-13T09:00:00","80.6","ND","29.21","ND","ND","ND","0.4","132.5","25","68.8","398.1","0"],
    [20655,"2012-09-13T10:00:00","61.1","ND","40.74","ND","ND","ND","1","87.4","26.8","61.4","543.2","0"],
    [20656,"2012-09-13T11:00:00","47","ND","62.19","ND","ND","ND","1.3","107.3","28.1","54.3","730.6","0"],
    [20657,"2012-09-13T12:00:00","32.8","ND","37.70","ND","ND","ND","1.3","45.8","29.9","47.2","838.5","0"],
    [20658,"2012-09-13T13:00:00","39.9","ND","20.91","ND","ND","ND","1.9","52.7","30.5","44.8","612.9","0"],
    [20659,"2012-09-13T14:00:00","30.9","ND","15.73","ND","ND","ND","1.3","20.1","31.6","40.8","504.6","0"],
    [20660,"2012-09-13T15:00:00","43.2","ND","15.15","ND","ND","ND","1.6","347.9","31.1","43.5","256.1","0"],
    [20661,"2012-09-13T16:00:00","22.8","ND","16.28","ND","ND","ND","0.7","280.2","30.3","44.3","87.3","0"],
    [20662,"2012-09-13T17:00:00","44.2","ND","20.20","ND","ND","ND","1.4","243.3","29.2","47.2","53.3","0"],
    [20663,"2012-09-13T18:00:00","23.7","ND","23.63","ND","ND","ND","1.4","250.6","28.6","47.9","12.2","0"],
    [20664,"2012-09-13T19:00:00","19.1","ND","36.43","ND","ND","ND","0.9","238","28.1","49","0","0"],
    [20665,"2012-09-13T20:00:00","16.3","ND","40.31","ND","ND","ND","0.2","152.8","27.1","52.8","0","0"],
    [20666,"2012-09-13T21:00:00","44.9","ND","47.15","ND","ND","ND","0.7","102.7","25.9","59.6","0","0"],
    [20667,"2012-09-13T22:00:00","35.2","ND","51.12","ND","ND","ND","0.7","99.6","25","64.3","0","0"],
    [20668,"2012-09-13T23:00:00","91.4","ND","50.10","ND","ND","ND","0.7","195.1","24","68.1","0","0"],
    [20669,"2012-09-14T00:00:00","67.3","ND","44.71","ND","ND","ND","0.4","137.9","23.9","69.2","0","0"],
    [20670,"2012-09-14T01:00:00","61.4","ND","37.96","ND","ND","ND","0.6","49.5","23.1","72.3","0","0"],
    [20671,"2012-09-14T02:00:00","31.2","ND","40.44","ND","ND","ND","0.1","280.9","22.6","74.3","0","0"],
    [20672,"2012-09-14T03:00:00","46.7","ND","32.73","ND","ND","ND","0","38.8","22.3","75.5","0","0"],
    [20673,"2012-09-14T04:00:00","45.5","ND","29.88","ND","ND","ND","0.3","129.9","21.7","78.3","0","0"],
    [20674,"2012-09-14T05:00:00","30.9","ND","29.62","ND","ND","ND","0","244.5","21","78.7","0","0"],
    [20675,"2012-09-14T06:00:00","30.9","ND","25.05","ND","ND","ND","0.2","337.3","20.6","80.7","0.4","0"],
    [20676,"2012-09-14T07:00:00","69.2","ND","25.11","ND","ND","ND","0.4","227.7","21.1","77.5","42.4","0"],
    [20677,"2012-09-14T08:00:00","81.2","ND","28.35","ND","ND","ND","0.7","102.7","22.8","69.2","194","0"],
    [20678,"2012-09-14T09:00:00","121.4","ND","36.36","ND","ND","ND","1.3","56.8","23.9","65.5","386.7","0"],
    [20679,"2012-09-14T10:00:00","99","ND","80.52","ND","ND","ND","0.9","87.6","25.9","57.8","585.6","0"],
    [20680,"2012-09-14T11:00:00","87.1","ND","84.99","ND","ND","ND","0.6","129","28.3","47.8","727.7","0"],
    [20681,"2012-09-14T12:00:00","64.5","ND","37.31","ND","ND","ND","1.3","105.1","29.9","41.1","795.7","0"],
    [20682,"2012-09-14T13:00:00","48.7","ND","28.41","ND","ND","ND","0.9","127.5","32.1","33.1","828.6","0"],
    [20683,"2012-09-14T14:00:00","25.7","ND","29.81","ND","ND","ND","1.2","77.2","33.4","28.2","751.7","0"],
    [20684,"2012-09-14T15:00:00","39.8","ND","22.85","ND","ND","ND","1.2","3.4","33.9","29","610.4","0"],
    [20685,"2012-09-14T16:00:00","35.5","ND","17.50","ND","ND","ND","3.1","288.8","32.4","36.6","373.8","0"],
    [20686,"2012-09-14T17:00:00","47.8","ND","15.87","ND","ND","ND","1.1","272.6","31","39.7","63.3","0"],
    [20687,"2012-09-14T18:00:00","37.2","ND","15.91","ND","ND","ND","1.8","252.7","30.2","40.8","11.7","0"],
    [20688,"2012-09-14T19:00:00","38.1","ND","29.68","ND","ND","ND","0.4","186.1","29.7","42.3","0","0"],
    [20689,"2012-09-14T20:00:00","27.3","ND","38.05","ND","ND","ND","0.1","98.3","29.1","44.9","0","0"],
    [20690,"2012-09-14T21:00:00","59","ND","40.65","ND","ND","ND","0.9","84","27.9","50.5","0","0"],
    [20691,"2012-09-14T22:00:00","46.4","ND","69.19","ND","ND","ND","0.2","16.3","26.1","58.6","0","0"],
    [20692,"2012-09-14T23:00:00","81.2","ND","59.91","ND","ND","ND","1","114.9","25.7","60.1","0","0"],
    [20693,"2012-09-15T00:00:00","53.3","ND","62.07","ND","ND","ND","0.7","144.3","24.8","65.4","0","0"],
    [20694,"2012-09-15T01:00:00","61.5","ND","58.23","ND","ND","ND","0.4","123.8","23.7","71.2","0","0"],
    [20695,"2012-09-15T02:00:00","31.6","ND","48.01","ND","ND","ND","0.1","249.6","23.1","70.8","0","0"],
    [20696,"2012-09-15T03:00:00","52.4","ND","40.39","ND","ND","ND","0.6","153.8","22.5","75.3","0","0"],
    [20697,"2012-09-15T04:00:00","58.6","ND","41.11","ND","ND","ND","0.2","161","22.2","75.8","0","0"],
    [20698,"2012-09-15T05:00:00","45.2","ND","36.08","ND","ND","ND","0.1","270.5","21.4","76.5","0","0"],
    [20699,"2012-09-15T06:00:00","42.8","ND","33.62","ND","ND","ND","0.1","291.2","20.9","78.3","0.4","0"],
    [20700,"2012-09-15T07:00:00","50.2","ND","31.39","ND","ND","ND","0.1","325.1","21.4","75.3","43.5","0"],
    [20701,"2012-09-15T08:00:00","87.2","ND","32.47","ND","ND","ND","1","55.4","22.8","70.1","204.1","0"],
    [20702,"2012-09-15T09:00:00","96.2","ND","36.59","ND","ND","ND","1.3","36.5","24.7","62.1","367.5","0"],
    [20703,"2012-09-15T10:00:00","57.6","ND","59.68","ND","ND","ND","0.7","76.2","26.7","53.2","570.7","0"],
    [20704,"2012-09-15T11:00:00","82.3","ND","52.45","ND","ND","ND","0.5","93.4","28.2","45.6","603.3","0"],
    [20705,"2012-09-15T12:00:00","65.6","ND","37.01","ND","ND","ND","1.1","94.8","30.3","38.2","798.1","0"],
    [20706,"2012-09-15T13:00:00","62.9","ND","26.11","ND","ND","ND","1","116.8","32.5","28.4","815.2","0"],
    [20707,"2012-09-15T14:00:00","33.2","ND","28.23","ND","ND","ND","1.4","127.8","33.6","23.9","722.6","0"],
    [20708,"2012-09-15T15:00:00","17.6","ND","22.69","ND","ND","ND","1.1","106.7","34","25","515","0"],
    [20709,"2012-09-15T16:00:00","9.4","ND","14.40","ND","ND","ND","2.8","266.8","33","34.6","342.4","0"],
    [20710,"2012-09-15T17:00:00","35.2","ND","15.41","ND","ND","ND","2.9","256.4","31.7","36.8","157.4","0"],
    [20711,"2012-09-15T18:00:00","23.8","ND","17.56","ND","ND","ND","1.3","251.5","30.9","37.3","40.1","0"],
    [20712,"2012-09-15T19:00:00","37.5","ND","21.44","ND","ND","ND","0.5","164.8","29.8","41.6","0.5","0"],
    [20713,"2012-09-15T20:00:00","28","ND","21.49","ND","ND","ND","0.6","170.3","28.9","44.3","0","0"],
    [20714,"2012-09-15T21:00:00","39.3","ND","36.44","ND","ND","ND","0.8","146.9","27.9","47.8","0","0"],
    [20715,"2012-09-15T22:00:00","42.8","ND","58.82","ND","ND","ND","0.2","83.4","26.4","56.1","0","0"],
    [20716,"2012-09-15T23:00:00","40.3","ND","46.15","ND","ND","ND","0.4","36","25.9","58.8","0","0"],
    [20717,"2012-09-16T00:00:00","21.8","ND","64.21","ND","ND","ND","0.3","56.1","24.5","65.7","0","0"],
    [20718,"2012-09-16T01:00:00","30.9","ND","62.97","ND","ND","ND","0.1","318.6","24.1","66.8","0","0"],
    [20719,"2012-09-16T02:00:00","30.7","ND","47.86","ND","ND","ND","0.2","350.1","23.4","69.6","0","0"],
    [20720,"2012-09-16T03:00:00","44.6","ND","46.38","ND","ND","ND","0.4","359.4","22.7","73.2","0","0"],
    [20721,"2012-09-16T04:00:00","27.4","ND","43.13","ND","ND","ND","0.5","246.4","22.6","74.4","0","0"],
    [20722,"2012-09-16T05:00:00","37.8","ND","38.26","ND","ND","ND","0.4","245.8","22.5","73.3","0","0"],
    [20723,"2012-09-16T06:00:00","50.6","ND","35.97","ND","ND","ND","0.3","22.4","22.2","75.7","0.7","0"],
    [20724,"2012-09-16T07:00:00","59.3","ND","38.02","ND","ND","ND","0.3","322.5","22","76.1","46.5","0"],
    [20725,"2012-09-16T08:00:00","56","ND","37.23","ND","ND","ND","0.2","163.6","23.6","68.4","165.1","0"],
    [20726,"2012-09-16T09:00:00","80.9","ND","33.69","ND","ND","ND","0.4","131.4","25.2","60.8","275","0"],
    [20727,"2012-09-16T10:00:00","64.9","ND","52.47","ND","ND","ND","0.8","98.5","26.8","56.6","418.6","0"],
    [20728,"2012-09-16T11:00:00","62.9","ND","63.70","ND","ND","ND","1.1","78.6","27.7","54.6","526.7","0"],
    [20729,"2012-09-16T12:00:00","43.3","ND","48.08","ND","ND","ND","0.6","71.4","29.2","51","554.4","0"],
    [20730,"2012-09-16T13:00:00","40.7","ND","25.65","ND","ND","ND","1.3","75.5","30.3","47","478.1","0"],
    [20731,"2012-09-16T14:00:00","21.6","ND","24.38","ND","ND","ND","1.6","84","30.9","43.6","389.4","0"],
    [20732,"2012-09-16T15:00:00","21","ND","17.92","ND","ND","ND","0.8","308.1","32","40.3","413.4","0"],
    [20733,"2012-09-16T16:00:00","11.8","ND","13.30","ND","ND","ND","2.6","262.9","31.4","40.5","323.7","0"],
    [20734,"2012-09-16T17:00:00","14.3","ND","8.35","ND","ND","ND","3.2","258.2","30.4","42.3","165.3","0"],
    [20735,"2012-09-16T18:00:00","8.2","ND","8.42","ND","ND","ND","1.3","247.5","29.2","44.6","31.7","0"],
    [20736,"2012-09-16T19:00:00","18.7","ND","11.90","ND","ND","ND","0.4","222.3","28.2","47.7","0.1","0"],
    [20737,"2012-09-16T20:00:00","24.3","ND","14.05","ND","ND","ND","0.3","88.2","27.4","50.7","0","0"],
    [20738,"2012-09-16T21:00:00","43.1","ND","32.86","ND","ND","ND","0.8","95.3","26.3","56.1","0","0"],
    [20739,"2012-09-16T22:00:00","30.4","ND","55.46","ND","ND","ND","0.5","71.8","25.2","60.6","0","0"],
    [20740,"2012-09-16T23:00:00","44.6","ND","51.00","ND","ND","ND","0.3","150.8","24.5","64.2","0","0"],
    [20741,"2012-09-17T00:00:00","33.6","ND","43.60","ND","ND","ND","0.3","154.3","24","66.7","0","0"],
    [20742,"2012-09-17T01:00:00","21.9","ND","38.93","ND","ND","ND","0.5","152.7","23.8","68.2","0","0"],
    [20743,"2012-09-17T02:00:00","16.1","ND","36.04","ND","ND","ND","1.3","180.7","23.8","69.1","0","0"],
    [20744,"2012-09-17T03:00:00","23.5","ND","33.39","ND","ND","ND","1.1","187.4","23.7","68.8","0","0"],
    [20745,"2012-09-17T04:00:00","26.4","ND","23.55","ND","ND","ND","0.4","156.5","23.5","69.9","0","0"],
    [20746,"2012-09-17T05:00:00","33.4","ND","12.18","ND","ND","ND","0.4","336.3","22.9","73.2","0","0"],
    [20747,"2012-09-17T06:00:00","51.7","ND","14.51","ND","ND","ND","0.1","162.8","22.7","74.6","0","0"],
    [20748,"2012-09-17T07:00:00","50","ND","20.65","ND","ND","ND","0.2","249.7","22.7","73.9","14.1","0"],
    [20749,"2012-09-17T08:00:00","91.8","ND","29.75","ND","ND","ND","0.1","52","23.2","73.3","67.3","0"],
    [20750,"2012-09-17T09:00:00","120.5","ND","29.80","ND","ND","ND","0.7","46.3","24.3","69.2","229.7","0"],
    [20751,"2012-09-17T10:00:00","108.2","ND","48.31","ND","ND","ND","1.1","43.4","26.2","61.5","440.7","0"],
    [20752,"2012-09-17T11:00:00","92.3","ND","81.54","ND","ND","ND","1.1","40","27.3","56","669.2","0"],
    [20753,"2012-09-17T12:00:00","49.2","ND","74.61","ND","ND","ND","1.2","74.5","29.1","49.6","770.4","0"],
    [20754,"2012-09-17T13:00:00","48.6","ND","30.34","ND","ND","ND","1.5","35.5","30.1","47","550.5","0"],
    [20755,"2012-09-17T14:00:00","35","ND","18.14","ND","ND","ND","1.9","270.2","29.3","48.9","266","0"],
    [20756,"2012-09-17T15:00:00","42.6","ND","21.70","ND","ND","ND","3.3","253.5","29.5","47","365","0"],
    [20757,"2012-09-17T16:00:00","31.4","ND","16.69","ND","ND","ND","2.9","265.4","28.8","46","197.2","0"],
    [20758,"2012-09-17T17:00:00","23.8","ND","21.17","ND","ND","ND","2.3","267.1","28.2","46.4","99.3","0"],
    [20759,"2012-09-17T18:00:00","31.3","ND","17.38","ND","ND","ND","2.3","273.6","27.4","47.7","29.1","0"],
    [20760,"2012-09-17T19:00:00","34.8","ND","19.65","ND","ND","ND","0.4","119.9","26.9","50.9","0.1","0"],
    [20761,"2012-09-17T20:00:00","22","ND","16.66","ND","ND","ND","0.9","77.6","26.8","51.9","0","0"],
    [20762,"2012-09-17T21:00:00","36.2","ND","33.08","ND","ND","ND","1.2","123.3","26.4","54.7","0","0"],
    [20763,"2012-09-17T22:00:00","22.5","ND","35.39","ND","ND","ND","1.4","69.6","25.4","59.8","0","0"],
    [20764,"2012-09-17T23:00:00","27.5","ND","47.11","ND","ND","ND","0.4","37.4","24.6","63.8","0","0"],
    [20765,"2012-09-18T00:00:00","15.1","ND","35.49","ND","ND","ND","0.4","97.3","23.9","67.3","0","0"],
    [20766,"2012-09-18T01:00:00","33.5","ND","38.54","ND","ND","ND","0.4","167.8","23.6","69","0","0"],
    [20767,"2012-09-18T02:00:00","35.3","ND","34.21","ND","ND","ND","1.1","148.6","23.5","70.1","0","0"],
    [20768,"2012-09-18T03:00:00","34","ND","28.97","ND","ND","ND","1","157.7","23","72.1","0","0"],
    [20769,"2012-09-18T04:00:00","29.8","ND","22.26","ND","ND","ND","0.2","41.5","22.5","74.8","0","0"],
    [20770,"2012-09-18T05:00:00","24.1","ND","14.04","ND","ND","ND","0.2","72","22.4","75.9","0","0"],
    [20771,"2012-09-18T06:00:00","15","ND","17.96","ND","ND","ND","0.4","213.5","22.6","75","0.1","0"],
    [20772,"2012-09-18T07:00:00","34.2","ND","23.78","ND","ND","ND","0.3","158","22.8","73.6","12.5","0"],
    [20773,"2012-09-18T08:00:00","43","ND","26.47","ND","ND","ND","0.5","93.3","22.9","74.5","59.1","0"],
    [20774,"2012-09-18T09:00:00","46.9","ND","27.27","ND","ND","ND","1.3","126.7","24.2","68.6","339.8","0"],
    [20775,"2012-09-18T10:00:00","25","ND","36.48","ND","ND","ND","0.8","85.7","26.5","59.8","572.5","0"],
    [20776,"2012-09-18T11:00:00","45.2","ND","39.26","ND","ND","ND","1.8","68.6","27.9","54.5","795.3","0"],
    [20777,"2012-09-18T12:00:00","23.8","ND","26.19","ND","ND","ND","1.3","69.1","28.7","51.7","606.6","0"],
    [20778,"2012-09-18T13:00:00","38.1","ND","16.25","ND","ND","ND","1.3","65","30.4","46.3","815.8","0"],
    [20779,"2012-09-18T14:00:00","29.3","ND","15.15","ND","ND","ND","1.2","88.1","31.1","42.6","746.3","0"],
    [20780,"2012-09-18T15:00:00","40.6","ND","10.53","ND","ND","ND","1.4","296.5","31.3","43.2","327.6","0"],
    [20781,"2012-09-18T16:00:00","44.5","ND","10.58","ND","ND","ND","4","280","30.8","44.9","433.6","0"],
    [20782,"2012-09-18T17:00:00","43.2","ND","12.69","ND","ND","ND","3.5","277.3","29.9","45.1","254.5","0"],
    [20783,"2012-09-18T18:00:00","27.2","ND","12.02","ND","ND","ND","1.9","273.1","28.9","46.2","14.1","0"],
    [20784,"2012-09-18T19:00:00","29.8","ND","14.44","ND","ND","ND","1.8","254.6","27.9","50.1","0","0"],
    [20785,"2012-09-18T20:00:00","44","ND","18.83","ND","ND","ND","2.4","268.7","26.9","49","0","0"],
    [20786,"2012-09-18T21:00:00","26.1","ND","17.80","ND","ND","ND","2.2","149.7","26","49.5","0","0"],
    [20787,"2012-09-18T22:00:00","25.3","ND","12.00","ND","ND","ND","1.5","157.4","25.2","55.8","0","0"],
    [20788,"2012-09-18T23:00:00","27.4","ND","30.51","ND","ND","ND","0.2","311.2","24.4","59.9","0","0"],
    [20789,"2012-09-19T00:00:00","36.8","ND","36.09","ND","ND","ND","0.6","263.1","23.7","62.8","0","0"],
    [20790,"2012-09-19T01:00:00","24.4","ND","35.22","ND","ND","ND","0.3","93.7","23.8","62.5","0","0"],
    [20791,"2012-09-19T02:00:00","24","ND","35.89","ND","ND","ND","1.6","355","21.5","75.9","0","0"],
    [20792,"2012-09-19T03:00:00","73.3","ND","33.95","ND","ND","ND","1.4","25.4","21.1","78.3","0","0"],
    [20793,"2012-09-19T04:00:00","81.1","ND","35.71","ND","ND","ND","0.8","36.5","20.6","82","0","0"],
    [20794,"2012-09-19T05:00:00","71.4","ND","34.12","ND","ND","ND","0.3","285.9","21.1","78.2","0","0"],
    [20795,"2012-09-19T06:00:00","66.7","ND","25.91","ND","ND","ND","0.4","214.5","21.4","74.9","0.4","0"],
    [20796,"2012-09-19T07:00:00","45.5","ND","33.53","ND","ND","ND","0.3","222.1","22.1","70.8","68.4","0"],
    [20797,"2012-09-19T08:00:00","25.2","ND","36.57","ND","ND","ND","1.5","134.8","24.8","60.8","240.2","0"],
    [20798,"2012-09-19T09:00:00","18.7","ND","39.66","ND","ND","ND","0.8","112.3","26.2","56.8","440","0"],
    [20799,"2012-09-19T10:00:00","20.4","ND","28.02","ND","ND","ND","1.4","110.7","27.3","55.7","608.1","0"],
    [20800,"2012-09-19T11:00:00","43.7","ND","38.78","ND","ND","ND","1.4","144.4","28.6","51.2","736.9","0"],
    [20801,"2012-09-19T12:00:00","30.4","ND","31.05","ND","ND","ND","0.9","88.9","30.2","47.5","806.6","0"],
    [20802,"2012-09-19T13:00:00","52.7","ND","25.99","ND","ND","ND","0.3","49.8","31.4","44.4","713.9","0"],
    [20803,"2012-09-19T14:00:00","44.4","ND","23.13","ND","ND","ND","1.2","58.8","32.4","41.4","690","0"],
    [20804,"2012-09-19T15:00:00","40.2","ND","21.87","ND","ND","ND","1.5","47.8","32.9","40.2","499","0"],
    [20805,"2012-09-19T16:00:00","27.4","ND","15.37","ND","ND","ND","1.4","333","33.3","39.8","479.8","0"],
    [20806,"2012-09-19T17:00:00","28","ND","11.83","ND","ND","ND","1.7","289.9","32.6","40.8","243.5","0"],
    [20807,"2012-09-19T18:00:00","15.1","ND","12.90","ND","ND","ND","1.7","247.6","30.6","45.1","52.5","0"],
    [20808,"2012-09-19T19:00:00","34.3","ND","18.19","ND","ND","ND","0.9","242.6","29.4","47.1","0.3","0"],
    [20809,"2012-09-19T20:00:00","42.5","ND","34.77","ND","ND","ND","0.5","152.3","28.9","47.8","0","0"],
    [20810,"2012-09-19T21:00:00","34.9","ND","57.81","ND","ND","ND","0.8","96.4","28.1","51.1","0","0"],
    [20811,"2012-09-19T22:00:00","19.1","ND","52.18","ND","ND","ND","0.8","141.7","27.4","54.2","0","0"],
    [20812,"2012-09-19T23:00:00","37.4","ND","60.36","ND","ND","ND","1.1","127.2","26.6","58","0","0"],
    [20813,"2012-09-20T00:00:00","19.6","ND","53.89","ND","ND","ND","0.7","143.9","26.1","60.8","0","0"],
    [20814,"2012-09-20T01:00:00","28.8","ND","43.04","ND","ND","ND","0.4","98.6","25.4","65.3","0","0"],
    [20815,"2012-09-20T02:00:00","29.6","ND","33.49","ND","ND","ND","0.5","307.6","24.8","68","0","0"],
    [20816,"2012-09-20T03:00:00","28.1","ND","23.94","ND","ND","ND","0.5","79.5","24.4","69.6","0","0"],
    [20817,"2012-09-20T04:00:00","30.1","ND","28.40","ND","ND","ND","0.2","25.7","24.2","71","0","0"],
    [20818,"2012-09-20T05:00:00","38.6","ND","24.25","ND","ND","ND","0.5","0.8","23.9","72.8","0","0"],
    [20819,"2012-09-20T06:00:00","35.9","ND","24.58","ND","ND","ND","0.3","181.9","23.9","72.9","0.2","0"],
    [20820,"2012-09-20T07:00:00","46.9","ND","26.06","ND","ND","ND","1.4","162.4","23.1","78.9","17","1.02"],
    [20821,"2012-09-20T08:00:00","38.5","ND","30.65","ND","ND","ND","0.8","256.8","22.2","89","80.5","3.3"],
    [20822,"2012-09-20T09:00:00","39.3","ND","31.27","ND","ND","ND","0.5","250.3","24","79.4","201.7","0.25"],
    [20823,"2012-09-20T10:00:00","28.9","ND","30.00","ND","ND","ND","0.5","221.6","25.4","68.4","253.1","0"],
    [20824,"2012-09-20T11:00:00","15.8","ND","32.89","ND","ND","ND","1.3","350.3","26.2","58","313.2","0"],
    [20825,"2012-09-20T12:00:00","7.9","ND","30.14","ND","ND","ND","2","330.1","27.9","45","537.9","0"],
    [20826,"2012-09-20T13:00:00","3.9","ND","28.34","ND","ND","ND","1.8","326.6","28.6","41.1","509.1","0"],
    [20827,"2012-09-20T14:00:00","2.5","ND","15.67","ND","ND","ND","1.4","12.6","28.9","40.6","589.7","0"],
    [20828,"2012-09-20T15:00:00","3.4","ND","11.94","ND","ND","ND","3","40.6","29.3","41.5","457.7","0"],
    [20829,"2012-09-20T16:00:00","6.6","ND","7.51","ND","ND","ND","1.5","353.8","29.5","38","296.2","0"],
    [20830,"2012-09-20T17:00:00","13.1","ND","17.44","ND","ND","ND","2.1","308.2","29.3","34.5","162.4","0"],
    [20831,"2012-09-20T18:00:00","15.1","ND","18.36","ND","ND","ND","0.4","320.3","29.2","35.1","47.4","0"],
    [20832,"2012-09-20T19:00:00","18.5","ND","17.27","ND","ND","ND","1","250.2","27.1","42.1","0.2","0"],
    [20833,"2012-09-20T20:00:00","13.5","ND","40.36","ND","ND","ND","1.4","243.3","26.1","43.2","0","0"],
    [20834,"2012-09-20T21:00:00","59.1","ND","65.28","ND","ND","ND","0.3","98.3","25.9","45.6","0","0"],
    [20835,"2012-09-20T22:00:00","48.9","ND","50.44","ND","ND","ND","0.1","137","25.2","49.7","0","0"],
    [20836,"2012-09-20T23:00:00","89.7","ND","71.09","ND","ND","ND","0.3","163.4","24.4","55","0","0"],
    [20837,"2012-09-21T00:00:00","75.2","ND","70.58","ND","ND","ND","0.3","170.2","23.5","59.8","0","0"],
    [20838,"2012-09-21T01:00:00","82.8","ND","64.73","ND","ND","ND","0.1","95.3","22.6","63.9","0","0"],
    [20839,"2012-09-21T02:00:00","52","ND","54.31","ND","ND","ND","0.3","354.5","21.7","67.8","0","0"],
    [20840,"2012-09-21T03:00:00","85.1","ND","50.18","ND","ND","ND","0.1","262.8","21","72.5","0","0"],
    [20841,"2012-09-21T04:00:00","70.6","ND","44.69","ND","ND","ND","0.3","271.4","21","72.1","0","0"],
    [20842,"2012-09-21T05:00:00","69.1","ND","37.68","ND","ND","ND","0.3","237.4","20.6","73.8","0","0"],
    [20843,"2012-09-21T06:00:00","57.7","ND","38.36","ND","ND","ND","0.1","291.9","20.3","75.8","0.3","0"],
    [20844,"2012-09-21T07:00:00","75.6","ND","35.72","ND","ND","ND","0.2","259.8","21.1","73.8","60.1","0"],
    [20845,"2012-09-21T08:00:00","74.2","ND","34.72","ND","ND","ND","0.6","96.3","23.3","65","227","0"],
    [20846,"2012-09-21T09:00:00","62.4","ND","42.25","ND","ND","ND","1","143.7","24.6","58.6","331","0"],
    [20847,"2012-09-21T10:00:00","52.9","ND","63.65","ND","ND","ND","0.6","130.1","26.4","53","604.5","0"],
    [20848,"2012-09-21T11:00:00","62","ND","63.16","ND","ND","ND","1.4","81.2","28.4","47.6","688.9","0"],
    [20849,"2012-09-21T12:00:00","40.7","ND","48.90","ND","ND","ND","1.4","72.1","29.9","44.3","762","0"],
    [20850,"2012-09-21T13:00:00","61.2","ND","29.85","ND","ND","ND","1.3","43.4","31","41.6","708.9","0"],
    [20851,"2012-09-21T14:00:00","32.5","ND","23.65","ND","ND","ND","4.1","263.4","31.7","39.6","795.3","0"],
    [20852,"2012-09-21T15:00:00","18","ND","18.72","ND","ND","ND","3.8","276.6","31.8","39.8","668.3","0"],
    [20853,"2012-09-21T16:00:00","12.8","ND","13.31","ND","ND","ND","4.6","273.9","30.7","42.5","472.2","0"],
    [20854,"2012-09-21T17:00:00","36.7","ND","11.61","ND","ND","ND","4.4","278.9","29.6","44.5","250.1","0"],
    [20855,"2012-09-21T18:00:00","26.7","ND","11.00","ND","ND","ND","3.8","278","29","45.4","47.4","0"],
    [20856,"2012-09-21T19:00:00","40.8","ND","11.01","ND","ND","ND","0.4","120.3","28.6","48","0.2","0"],
    [20857,"2012-09-21T20:00:00","21.6","ND","13.67","ND","ND","ND","0.5","97.5","27.6","51.6","0","0"],
    [20858,"2012-09-21T21:00:00","17.4","ND","33.11","ND","ND","ND","0.9","92.6","26.8","55.1","0","0"],
    [20859,"2012-09-21T22:00:00","22","ND","42.42","ND","ND","ND","1","138.8","26.2","57.6","0","0"],
    [20860,"2012-09-21T23:00:00","33.5","ND","45.48","ND","ND","ND","0.8","63.4","25.7","59.6","0","0"],
    [20861,"2012-09-22T00:00:00","18.4","ND","54.46","ND","ND","ND","0.6","64.5","25.3","62.3","0","0"],
    [20862,"2012-09-22T01:00:00","42.9","ND","42.68","ND","ND","ND","0.6","62.2","24.6","66.5","0","0"],
    [20863,"2012-09-22T02:00:00","29.4","ND","43.54","ND","ND","ND","0.5","237.4","24","68.6","0","0"],
    [20864,"2012-09-22T03:00:00","42.5","ND","37.86","ND","ND","ND","0.9","137.6","24.2","68.2","0","0"],
    [20865,"2012-09-22T04:00:00","24.1","ND","35.11","ND","ND","ND","1","94.5","23.7","70.3","0","0"],
    [20866,"2012-09-22T05:00:00","36.8","ND","25.77","ND","ND","ND","0.2","289.9","23.5","71.6","0","0"],
    [20867,"2012-09-22T06:00:00","20.2","ND","21.59","ND","ND","ND","0.1","260.7","22.5","83.1","0.1","1.52"],
    [20868,"2012-09-22T07:00:00","44.5","ND","21.12","ND","ND","ND","0","220.7","22.2","88.2","18.9","0"],
    [20869,"2012-09-22T08:00:00","23.9","ND","25.49","ND","ND","ND","0.2","167.2","23.6","76.4","119","0"],
    [20870,"2012-09-22T09:00:00","47.9","ND","26.23","ND","ND","ND","0.5","127.5","25","68.7","255.3","0"],
    [20871,"2012-09-22T10:00:00","47.1","ND","33.85","ND","ND","ND","1.5","185.4","25.7","66.1","498.2","0"],
    [20872,"2012-09-22T11:00:00","41.3","ND","46.84","ND","ND","ND","0.7","152.3","27.8","55.3","737.3","0"],
    [20873,"2012-09-22T12:00:00","21.8","ND","37.40","ND","ND","ND","0.9","126.9","29.8","48","827","0"],
    [20874,"2012-09-22T13:00:00","34.1","ND","25.59","ND","ND","ND","0.9","320","30.2","45.9","521.6","0"],
    [20875,"2012-09-22T14:00:00","19","ND","19.72","ND","ND","ND","1.6","19.6","30.9","43.8","341.6","0"],
    [20876,"2012-09-22T15:00:00","22.7","ND","17.73","ND","ND","ND","1.7","281.6","30.3","45.5","276.8","0"],
    [20877,"2012-09-22T16:00:00","13.7","ND","13.02","ND","ND","ND","2.5","251.2","27.8","58.2","139","0.76"],
    [20878,"2012-09-22T17:00:00","32.2","ND","13.46","ND","ND","ND","0.9","246.3","27.8","57.9","112.4","0"],
    [20879,"2012-09-22T18:00:00","16.6","ND","25.36","ND","ND","ND","0.9","245","28","53","50.9","0"],
    [20880,"2012-09-22T19:00:00","17.8","ND","25.97","ND","ND","ND","0.5","117.2","27.1","54.3","0.2","0"],
    [20881,"2012-09-22T20:00:00","23.5","ND","34.99","ND","ND","ND","0.2","128.8","26.5","56.8","0","0"],
    [20882,"2012-09-22T21:00:00","33.3","ND","39.56","ND","ND","ND","0.2","356.3","25.9","58.8","0","0"],
    [20883,"2012-09-22T22:00:00","17.8","ND","65.27","ND","ND","ND","0.8","126.5","25","63.2","0","0"],
    [20884,"2012-09-22T23:00:00","38.2","ND","60.63","ND","ND","ND","0.2","283.4","24.1","67.7","0","0"],
    [20885,"2012-09-23T00:00:00","32.1","ND","50.92","ND","ND","ND","0.3","227.3","23.7","69.4","0","0"],
    [20886,"2012-09-23T01:00:00","46.9","ND","49.17","ND","ND","ND","0.3","261.6","23.1","73.7","0","0"],
    [20887,"2012-09-23T02:00:00","27.1","ND","45.46","ND","ND","ND","0.1","323.3","22.7","74.1","0","0"],
    [20888,"2012-09-23T03:00:00","36.6","ND","42.07","ND","ND","ND","0.1","238.8","22.8","74.5","0","0"],
    [20889,"2012-09-23T04:00:00","31","ND","40.25","ND","ND","ND","0.7","225","22.7","74.3","0","0"],
    [20890,"2012-09-23T05:00:00","47.7","ND","35.40","ND","ND","ND","0.6","351.7","22.2","76.6","0","0"],
    [20891,"2012-09-23T06:00:00","24.4","ND","29.11","ND","ND","ND","0","46.2","21.9","78.7","0.2","0"],
    [20892,"2012-09-23T07:00:00","54.4","ND","31.95","ND","ND","ND","0.2","340.3","21.9","78.6","46.1","0"],
    [20893,"2012-09-23T08:00:00","52.4","ND","30.12","ND","ND","ND","0.4","164.7","23.5","71.3","192.1","0"],
    [20894,"2012-09-23T09:00:00","46.3","ND","29.93","ND","ND","ND","0.6","98.6","25.3","64.2","379.5","0"],
    [20895,"2012-09-23T10:00:00","24.6","ND","39.29","ND","ND","ND","1.2","53.8","26.6","60.1","635.7","0"],
    [20896,"2012-09-23T11:00:00","36.6","ND","37.95","ND","ND","ND","0.5","114.6","28.2","53.7","725.8","0"],
    [20897,"2012-09-23T12:00:00","27.8","ND","26.40","ND","ND","ND","0.7","34.1","29.9","48.4","796.5","0"],
    [20898,"2012-09-23T13:00:00","14.8","ND","13.98","ND","ND","ND","1.9","354.5","30.8","44","835.7","0"],
    [20899,"2012-09-23T14:00:00","9.1","ND","10.04","ND","ND","ND","2.1","283.5","30.7","43","404","0"],
    [20900,"2012-09-23T15:00:00","22.5","ND","8.89","ND","ND","ND","4.9","280.8","28.8","46.9","270.3","0"],
    [20901,"2012-09-23T16:00:00","17.1","ND","5.09","ND","ND","ND","2.7","268.4","28.6","45.9","259.3","0"],
    [20902,"2012-09-23T17:00:00","12.4","ND","3.74","ND","ND","ND","2.8","243.8","27.7","46.7","77.9","0"],
    [20903,"2012-09-23T18:00:00","7.1","ND","5.51","ND","ND","ND","1.1","69.1","27.5","48.7","19","0"],
    [20904,"2012-09-23T19:00:00","8.5","ND","10.26","ND","ND","ND","0.8","334.4","25.7","57.3","0","0"],
    [20905,"2012-09-23T20:00:00","11","ND","14.71","ND","ND","ND","0.8","350.3","24.9","60","0","0"],
    [20906,"2012-09-23T21:00:00","10.6","ND","40.35","ND","ND","ND","0.7","32.1","23.8","66.3","0","0"],
    [20907,"2012-09-23T22:00:00","13.8","ND","38.45","ND","ND","ND","0.3","323.2","23.2","66.9","0","0"],
    [20908,"2012-09-23T23:00:00","20.9","ND","32.91","ND","ND","ND","0.6","258","22.8","67.2","0","0"],
    [20909,"2012-09-24T00:00:00","11.9","ND","35.11","ND","ND","ND","0","349.6","22.7","66.1","0","0"],
    [20910,"2012-09-24T01:00:00","17.7","ND","33.08","ND","ND","ND","0.6","10.7","22.4","66.1","0","0"],
    [20911,"2012-09-24T02:00:00","16.7","ND","26.21","ND","ND","ND","0.1","319.9","21.5","71.1","0","0"],
    [20912,"2012-09-24T03:00:00","24.2","ND","33.95","ND","ND","ND","0","1.5","21","74.2","0","0"],
    [20913,"2012-09-24T04:00:00","14","ND","21.74","ND","ND","ND","0","280","20.8","75.3","0","0"],
    [20914,"2012-09-24T05:00:00","37.2","ND","21.26","ND","ND","ND","0.3","1.4","20.6","77.1","0","0"],
    [20915,"2012-09-24T06:00:00","39.7","ND","22.79","ND","ND","ND","0.4","353.9","20","83.3","0.4","0"],
    [20916,"2012-09-24T07:00:00","56.6","ND","26.83","ND","ND","ND","0.7","16.1","19.7","86.5","50.5","0"],
    [20917,"2012-09-24T08:00:00","65.7","ND","35.13","ND","ND","ND","0.8","41.3","21.6","76.8","224.9","0"],
    [20918,"2012-09-24T09:00:00","65","ND","34.04","ND","ND","ND","1.1","58.1","23.9","65.3","449.4","0"],
    [20919,"2012-09-24T10:00:00","44.5","ND","51.57","ND","ND","ND","0.8","31.6","26.1","55.8","653.1","0"],
    [20920,"2012-09-24T11:00:00","24","ND","40.85","ND","ND","ND","1.2","91.7","27.7","50.7","789.4","0"],
    [20921,"2012-09-24T12:00:00","18","ND","16.67","ND","ND","ND","1.1","53.7","29.6","46","758.4","0"],
    [20922,"2012-09-24T13:00:00","10.9","ND","12.64","ND","ND","ND","2.8","269.9","30.1","42.8","450.1","0"],
    [20923,"2012-09-24T14:00:00","6","ND","15.63","ND","ND","ND","5.4","277.3","30.4","41.1","826.6","0"],
    [20924,"2012-09-24T15:00:00","22","ND","12.29","ND","ND","ND","4.9","276","30.6","40.8","693.7","0"],
    [20925,"2012-09-24T16:00:00","50.5","ND","5.97","ND","ND","ND","6","282.3","30","42.5","534.5","0"],
    [20926,"2012-09-24T17:00:00","68.5","ND","8.14","ND","ND","ND","3.3","237.6","27.6","50.7","56.4","0"],
    [20927,"2012-09-24T18:00:00","71.2","ND","6.02","ND","ND","ND","3.1","186.6","23.5","73.4","2","2.54"],
    [20928,"2012-09-24T19:00:00","56.5","ND","12.29","ND","ND","ND","0.4","92.5","22.4","85.1","0","3.81"],
    [20929,"2012-09-24T20:00:00","ND","ND","36.74","ND","ND","ND","ND","ND","ND","ND","ND","ND"],
    [20930,"2012-09-24T21:00:00","ND","ND","ND","ND","ND","ND","ND","ND","ND","ND","ND","ND"],
    [20931,"2012-09-24T22:00:00","ND","ND","ND","ND","ND","ND","ND","ND","ND","ND","ND","ND"],
    [20932,"2012-09-24T23:00:00","ND","ND","ND","ND","ND","ND","ND","ND","ND","ND","ND","ND"],
    [20933,"2012-09-25T00:00:00","ND","ND","ND","ND","ND","ND","ND","ND","ND","ND","ND","ND"],
    [20934,"2012-09-25T01:00:00","ND","ND","ND","ND","ND","ND","ND","ND","ND","ND","ND","ND"],
    [20935,"2012-09-25T02:00:00","ND","ND","ND","ND","ND","ND","ND","ND","ND","ND","ND","ND"],
    [20936,"2012-09-25T03:00:00","ND","ND","ND","ND","ND","ND","ND","ND","ND","ND","ND","ND"],
    [20937,"2012-09-25T04:00:00","ND","ND","ND","ND","ND","ND","ND","ND","ND","ND","ND","ND"],
    [20938,"2012-09-25T05:00:00","ND","ND","ND","ND","ND","ND","ND","ND","ND","ND","ND","ND"],
    [20939,"2012-09-25T06:00:00","ND","ND","ND","ND","ND","ND","ND","ND","ND","ND","ND","ND"],
    [20940,"2012-09-25T07:00:00","ND","ND","ND","ND","ND","ND","ND","ND","ND","ND","ND","ND"],
    [20941,"2012-09-25T08:00:00","ND","ND","ND","ND","ND","ND","ND","ND","ND","ND","ND","ND"],
    [20942,"2012-09-25T09:00:00","ND","ND","ND","ND","ND","ND","ND","ND","ND","ND","ND","ND"],
    [20943,"2012-09-25T10:00:00","ND","ND","ND","ND","ND","ND","ND","ND","ND","ND","ND","ND"],
    [20944,"2012-09-25T11:00:00","ND","ND","ND","ND","ND","ND","ND","ND","ND","ND","ND","ND"],
    [20945,"2012-09-25T12:00:00","ND","ND","ND","ND","ND","ND","ND","ND","ND","ND","ND","ND"],
    [20946,"2012-09-25T13:00:00","ND","ND","ND","ND","ND","ND","ND","ND","ND","ND","ND","ND"],
    [20947,"2012-09-25T14:00:00","ND","ND","ND","ND","ND","ND","ND","ND","ND","ND","ND","ND"],
    [20948,"2012-09-25T15:00:00","ND","ND","ND","ND","ND","ND","ND","ND","ND","ND","ND","ND"],
    [20949,"2012-09-25T16:00:00","ND","ND","ND","ND","ND","ND","ND","ND","ND","ND","ND","ND"],
    [20950,"2012-09-25T17:00:00","ND","ND","ND","ND","ND","ND","ND","ND","ND","ND","ND","ND"],
    [20951,"2012-09-25T18:00:00","ND","ND","ND","ND","ND","ND","ND","ND","ND","ND","ND","ND"],
    [20952,"2012-09-25T19:00:00","ND","ND","ND","ND","ND","ND","ND","ND","ND","ND","ND","ND"],
    [20953,"2012-09-25T20:00:00","ND","ND","ND","ND","ND","ND","ND","ND","ND","ND","ND","ND"],
    [20954,"2012-09-25T21:00:00","ND","ND","ND","ND","ND","ND","ND","ND","ND","ND","ND","ND"],
    [20955,"2012-09-25T22:00:00","ND","ND","ND","ND","ND","ND","ND","ND","ND","ND","ND","ND"],
    [20956,"2012-09-25T23:00:00","ND","ND","ND","ND","ND","ND","ND","ND","ND","ND","ND","ND"],
    [20957,"2012-09-26T00:00:00","ND","ND","ND","ND","ND","ND","ND","ND","ND","ND","ND","ND"],
    [20958,"2012-09-26T01:00:00","ND","ND","ND","ND","ND","ND","ND","ND","ND","ND","ND","ND"],
    [20959,"2012-09-26T02:00:00","ND","ND","ND","ND","ND","ND","ND","ND","ND","ND","ND","ND"],
    [20960,"2012-09-26T03:00:00","ND","ND","ND","ND","ND","ND","ND","ND","ND","ND","ND","ND"],
    [20961,"2012-09-26T04:00:00","ND","ND","ND","ND","ND","ND","ND","ND","ND","ND","ND","ND"],
    [20962,"2012-09-26T05:00:00","ND","ND","ND","ND","ND","ND","ND","ND","ND","ND","ND","ND"],
    [20963,"2012-09-26T06:00:00","ND","ND","ND","ND","ND","ND","ND","ND","ND","ND","ND","ND"],
    [20964,"2012-09-26T07:00:00","ND","ND","ND","ND","ND","ND","ND","ND","ND","ND","ND","ND"],
    [20965,"2012-09-26T08:00:00","ND","ND","ND","ND","ND","ND","ND","ND","ND","ND","ND","ND"],
    [20966,"2012-09-26T09:00:00","ND","ND","ND","ND","ND","ND","ND","ND","ND","ND","ND","ND"],
    [20967,"2012-09-26T10:00:00","ND","ND","ND","ND","ND","ND","ND","ND","ND","ND","ND","ND"],
    [20968,"2012-09-26T11:00:00","ND","ND","ND","ND","ND","ND","ND","ND","ND","ND","ND","ND"],
    [20969,"2012-09-26T12:00:00","ND","ND","ND","ND","ND","ND","ND","ND","ND","ND","ND","ND"],
    [20970,"2012-09-26T13:00:00","ND","ND","ND","ND","ND","ND","0.8","135.1","30.4","47.7","795.5","0"],
    [20971,"2012-09-26T14:00:00","6.5","ND","ND","ND","ND","ND","1.2","100.7","32.5","40.1","796.4","0"],
    [20972,"2012-09-26T15:00:00","18.5","ND","17.84","ND","ND","ND","1.4","341.2","33","40.8","595.1","0"],
    [20973,"2012-09-26T16:00:00","23.3","ND","17.15","1670.43","ND","ND","3.6","264.9","32.1","43.5","419.6","0"],
    [20974,"2012-09-26T17:00:00","32.1","ND","18.55","1653.79","ND","ND","2.8","266.9","30.1","46.8","88.3","0"],
    [20975,"2012-09-26T18:00:00","20.7","ND","17.66","1607.99","ND","ND","1.1","240.3","29.2","49.1","15.1","0"],
    [20976,"2012-09-26T19:00:00","29.4","ND","18.28","1591.60","ND","ND","0.3","340.6","28.4","52.5","0.1","0"],
    [20977,"2012-09-26T20:00:00","20.7","ND","23.94","1749.60","ND","ND","1","140","28.1","53.9","0","0"],
    [20978,"2012-09-26T21:00:00","29.5","ND","23.24","1701.56","ND","ND","1","133.6","27.1","57.8","0","0"],
    [20979,"2012-09-26T22:00:00","23.5","ND","53.41","2111.24","ND","ND","0.9","148.5","26.4","62.4","0","0"],
    [20980,"2012-09-26T23:00:00","42.7","ND","37.71","1933.66","ND","ND","0.8","71.9","25.4","67.1","0","0"],
    [20981,"2012-09-27T00:00:00","26.7","ND","47.75","2168.10","ND","ND","0.1","338.9","24.7","69.6","0","0"],
    [20982,"2012-09-27T01:00:00","48.1","ND","37.42","1979.91","ND","ND","0.4","49.1","24.2","71.9","0","0"],
    [20983,"2012-09-27T02:00:00","35.4","ND","37.30","1805.20","ND","ND","0.1","151.1","23.9","73.6","0","0"],
    [20984,"2012-09-27T03:00:00","42.6","ND","38.00","1963.17","ND","ND","0","282.6","23.2","77.4","0","0"],
    [20985,"2012-09-27T04:00:00","44.9","ND","31.81","1776.35","ND","ND","0.1","35.3","22.6","79.5","0","0"],
    [20986,"2012-09-27T05:00:00","66.1","ND","26.85","1715.94","ND","ND","0.1","269.8","22","82.3","0","0"],
    [20987,"2012-09-27T06:00:00","51.2","ND","24.83","1746.47","ND","ND","0.4","255.2","21.6","83.7","0.4","0"],
    [20988,"2012-09-27T07:00:00","72.9","ND","24.07","1834.71","ND","ND","0.2","322.7","22","81.3","34.1","0"],
    [20989,"2012-09-27T08:00:00","80.8","ND","23.51","2064.02","ND","ND","0.5","72.6","24","72.9","217","0"],
    [20990,"2012-09-27T09:00:00","84.6","ND","32.29","2431.96","ND","ND","1.6","50.8","24.9","69.8","334.1","0"],
    [20991,"2012-09-27T10:00:00","61.9","ND","51.04","2679.82","ND","ND","1.3","117.1","25.5","67.7","364.2","0"],
    [20992,"2012-09-27T11:00:00","66.9","ND","38.85","1870.47","ND","ND","1.1","88.7","26.6","63.6","450.8","0"],
    [20993,"2012-09-27T12:00:00","34.1","ND","23.92","1716.12","ND","ND","1.1","69.1","28.1","57.6","760.3","0"],
    [20994,"2012-09-27T13:00:00","42.7","ND","22.89","1655.26","ND","ND","1.1","75.2","29.8","51.2","714.6","0"],
    [20995,"2012-09-27T14:00:00","45.7","ND","17.84","1583.12","ND","ND","1.1","54.4","31.1","46.5","814.5","0"],
    [20996,"2012-09-27T15:00:00","49","ND","16.49","1543.16","ND","ND","0.7","23.2","32.1","41.4","521.6","0"],
    [20997,"2012-09-27T16:00:00","38.9","ND","17.99","1559.96","ND","ND","0.9","35.9","32.3","39.3","173","0"],
    [20998,"2012-09-27T17:00:00","59.4","ND","17.13","1560.98","ND","ND","2.1","312.9","30.3","47.2","34.1","0"],
    [20999,"2012-09-27T18:00:00","32.1","ND","16.04","1515.78","ND","ND","0.9","245.1","28.5","48","9.9","0"],
    [21000,"2012-09-27T19:00:00","45","ND","19.44","1518.37","ND","ND","0.1","152.4","28.2","52.4","0","0"],
    [21001,"2012-09-27T20:00:00","28.8","ND","32.82","1829.50","ND","ND","1","235.6","27.6","54.6","0","0"],
    [21002,"2012-09-27T21:00:00","69.8","ND","59.50","2334.32","ND","ND","0.4","102.5","27","59.6","0","0"],
    [21003,"2012-09-27T22:00:00","50.8","ND","49.62","2202.80","ND","ND","0.7","143.6","26.7","61.5","0","0"],
    [21004,"2012-09-27T23:00:00","52.1","ND","52.39","2373.41","ND","ND","0.7","191.1","26.3","62.7","0","0"],
    [21005,"2012-09-28T00:00:00","39.8","ND","52.02","2669.40","ND","ND","0.6","336","24.9","70.6","0.1","0"],
    [21006,"2012-09-28T01:00:00","45.6","ND","43.68","2359.16","ND","ND","0.7","18.6","24.2","74.7","0.6","0"],
    [21007,"2012-09-28T02:00:00","24.2","ND","38.30","1828.05","ND","ND","0.5","200","24.4","74.1","0.3","0"],
    [21008,"2012-09-28T03:00:00","50.6","ND","27.65","1577.76","ND","ND","0.4","276.5","24.1","75.3","0","0"],
    [21009,"2012-09-28T04:00:00","59.3","ND","29.35","1496.21","ND","ND","0.4","23.5","23","83.9","0","3.56"],
    [21010,"2012-09-28T05:00:00","43.4","ND","24.47","1558.95","ND","ND","1.3","230.8","21.3","87.5","0","7.11"],
    [21011,"2012-09-28T06:00:00","23.9","ND","23.42","1527.37","ND","ND","0.4","239.3","20.2","91.7","0","7.11"],
    [21012,"2012-09-28T07:00:00","14.9","ND","12.62","1330.04","ND","ND","0.2","306.6","20.8","92.1","3.2","0.51"],
    [21013,"2012-09-28T08:00:00","8.1","ND","19.27","1377.94","ND","ND","0.5","35.8","21.2","89.4","29.3","0.25"],
    [21014,"2012-09-28T09:00:00","9.4","ND","41.43","2013.18","ND","ND","0.4","169.2","22","87.3","128.1","0"],
    [21015,"2012-09-28T10:00:00","19.1","ND","40.52","2256.81","ND","ND","0.4","234.2","23.7","77.2","304.6","0"],
    [21016,"2012-09-28T11:00:00","24.6","ND","51.57","2497.94","ND","ND","0.4","180.5","25.4","70.3","403.4","0"],
    [21017,"2012-09-28T12:00:00","16","ND","55.88","2317.23","ND","ND","1.4","74.9","26.2","65.8","504.6","0"],
    [21018,"2012-09-28T13:00:00","15.1","ND","87.65","2726.02","ND","ND","1","62.2","27.3","58.1","517.1","0"],
    [21019,"2012-09-28T14:00:00","12.7","ND","46.52","1916.39","ND","ND","1.4","78.4","28.9","51.8","613","0"],
    [21020,"2012-09-28T15:00:00","9.9","ND","22.10","1531.99","ND","ND","1.6","28.8","29.6","49.9","519.8","0"],
    [21021,"2012-09-28T16:00:00","6.6","ND","25.05","1523.91","ND","ND","2.7","254.7","30.4","43","437.1","0"],
    [21022,"2012-09-28T17:00:00","5","ND","20.79","1422.97","ND","ND","0.8","286.5","29.4","44.2","144.4","0"],
    [21023,"2012-09-28T18:00:00","3","ND","13.53","1406.65","ND","ND","1.7","243","27.6","48.1","38.7","0"],
    [21024,"2012-09-28T19:00:00","24.3","ND","23.06","1594.73","ND","ND","0.1","125.2","27.1","46.4","0.8","0"],
    [21025,"2012-09-28T20:00:00","34.8","ND","32.62","1811.28","ND","ND","0.3","130.9","26.4","48.7","0","0"],
    [21026,"2012-09-28T21:00:00","66.2","ND","54.16","2255.94","ND","ND","0.2","146","25","54.2","0","0"],
    [21027,"2012-09-28T22:00:00","60.6","ND","67.03","3345.17","ND","ND","0.3","242.2","23.8","62.2","0","0"],
    [21028,"2012-09-28T23:00:00","67.7","ND","68.92","3947.84","ND","ND","0.2","234.3","23","65.7","0","0"],
    [21029,"2012-09-29T00:00:00","42.8","ND","60.50","4073.75","ND","ND","0.2","266.9","22.1","70.9","0","0"],
    [21030,"2012-09-29T01:00:00","53.6","ND","54.42","3732.37","ND","ND","0.2","282.6","21.7","72.5","0","0"],
    [21031,"2012-09-29T02:00:00","26.8","ND","48.07","3376.10","ND","ND","0.1","264.7","21.4","70.8","0","0"],
    [21032,"2012-09-29T03:00:00","13.4","ND","43.06","2750.20","ND","ND","0.3","80.3","21.5","73.3","0","0"],
    [21033,"2012-09-29T04:00:00","27.3","ND","37.17","1890.69","ND","ND","0.6","271.5","20.8","75.7","0","0"],
    [21034,"2012-09-29T05:00:00","41","ND","37.75","1999.15","ND","ND","0.1","293","20.6","77.7","0","0"],
    [21035,"2012-09-29T06:00:00","21.6","ND","35.68","1794.62","ND","ND","0.1","274.9","20.5","77.3","1","0"],
    [21036,"2012-09-29T07:00:00","28.9","ND","32.85","1974.54","ND","ND","0.1","312.4","21.3","75.1","44","0"],
    [21037,"2012-09-29T08:00:00","35.5","ND","32.48","1912.04","ND","ND","0.3","193.6","22.9","67.4","152.2","0"],
    [21038,"2012-09-29T09:00:00","27.9","ND","37.89","2081.69","ND","ND","1.3","156.8","24.4","63","215.7","0"],
    [21039,"2012-09-29T10:00:00","31.9","ND","52.52","2229.44","ND","ND","1.1","166.3","25.2","61.3","319.8","0"],
    [21040,"2012-09-29T11:00:00","50.9","ND","66.44","2373.00","ND","ND","1.5","155.5","26.3","56.6","389.1","0"],
    [21041,"2012-09-29T12:00:00","36","ND","66.17","2209.16","ND","ND","1.4","171.5","27.8","51.9","688.3","0"],
    [21042,"2012-09-29T13:00:00","44.7","ND","49.52","1931.14","ND","ND","1.2","152","29.1","47.4","687","0"],
    [21043,"2012-09-29T14:00:00","40.7","ND","45.65","1951.10","ND","ND","1.4","105.4","30.6","43.1","665.6","0"],
    [21044,"2012-09-29T15:00:00","42.4","ND","37.09","1809.06","ND","ND","1.3","113.4","31.2","41.5","486.9","0"],
    [21045,"2012-09-29T16:00:00","28.6","ND","27.15","1625.52","ND","ND","0.7","13.8","32.3","40.5","449","0"],
    [21046,"2012-09-29T17:00:00","26.9","ND","24.39","1514.04","ND","ND","2","267.5","32","42.5","242.4","0"],
    [21047,"2012-09-29T18:00:00","19.8","ND","21.19","1477.37","ND","ND","2.3","261.9","29.8","46.9","46.3","0"],
    [21048,"2012-09-29T19:00:00","19.8","ND","17.87","1350.31","ND","ND","0.1","289.6","28.7","49.3","0.2","0"],
    [21049,"2012-09-29T20:00:00","17.3","ND","19.72","1380.20","ND","ND","1.1","92","28.2","52","0","0"],
    [21050,"2012-09-29T21:00:00","73.3","ND","25.28","1470.54","ND","ND","0.8","121","27.4","55.5","0","0"],
    [21051,"2012-09-29T22:00:00","63.5","ND","51.83","1928.57","ND","ND","0.4","130.1","26.1","62.7","0","0"],
    [21052,"2012-09-29T23:00:00","60.2","ND","54.16","2150.19","ND","ND","0.3","95.3","25.4","66.6","0","0"],
    [21053,"2012-09-30T00:00:00","39.6","ND","41.85","2030.45","ND","ND","0.2","88.6","24.8","69.7","0","0"],
    [21054,"2012-09-30T01:00:00","39.7","ND","38.02","2209.54","ND","ND","0.4","22.5","24.2","73.2","0","0"],
    [21055,"2012-09-30T02:00:00","21.2","ND","33.75","1919.45","ND","ND","0.1","150","23.8","75.7","0","0"],
    [21056,"2012-09-30T03:00:00","36","ND","31.98","1631.62","ND","ND","0.5","309.3","23.6","76.6","0","0"],
    [21057,"2012-09-30T04:00:00","27.7","ND","28.34","1527.90","ND","ND","0.2","46.7","23.5","79","0","0"],
    [21058,"2012-09-30T05:00:00","38.5","ND","27.83","1698.36","ND","ND","0.2","265.8","22.8","87.6","0","0.76"],
    [21059,"2012-09-30T06:00:00","20.9","ND","27.91","1592.01","ND","ND","0.2","23.3","22.3","89.2","0","0.25"],
    [21060,"2012-09-30T07:00:00","39.2","ND","21.91","1702.84","ND","ND","0.3","352.6","22","90.3","6.6","0"],
    [21061,"2012-09-30T08:00:00","21.6","ND","20.88","1565.02","ND","ND","0.2","261.8","22.5","88.6","36.4","0"],
    [21062,"2012-09-30T09:00:00","32.2","ND","21.09","1658.55","ND","ND","0.1","277.1","23.6","82.6","162.8","0"],
    [21063,"2012-09-30T10:00:00","28.6","ND","23.43","1824.36","ND","ND","0.7","222.3","24.8","74.7","292.6","0"],
    [21064,"2012-09-30T11:00:00","35.1","ND","27.99","1728.71","ND","ND","0.6","128.9","26.3","66.8","445.4","0"],
    [21065,"2012-09-30T12:00:00","19.6","ND","34.66","1656.87","ND","ND","1.2","75.3","27.7","60.1","744","0.25"],
    [21066,"2012-09-30T13:00:00","10.5","ND","34.11","1722.42","ND","ND","0.9","16.7","29.5","52.7","856.4","0"],
    [21067,"2012-09-30T14:00:00","7.5","ND","21.13","1581.55","ND","ND","1.8","59.9","30.3","49.3","662.9","0"],
    [21068,"2012-09-30T15:00:00","4.9","ND","12.77","1399.18","ND","ND","2","52.5","30.8","48.7","726.5","0"],
    [21069,"2012-09-30T16:00:00","3.9","ND","9.41","1319.73","ND","ND","2.8","50.3","30","52.3","372.6","0"],
    [21070,"2012-09-30T17:00:00","2.9","ND","7.76","1269.66","ND","ND","1.2","43.9","29.4","53.5","154.9","0"],
    [21071,"2012-09-30T18:00:00","3.6","ND","6.80","1197.40","ND","ND","2.3","255.7","28.3","52.4","23.2","0"],
    [21072,"2012-09-30T19:00:00","3.8","ND","7.43","1227.79","ND","ND","0.8","74.9","27.8","54.2","0.1","0"],
    [21073,"2012-09-30T20:00:00","13.3","ND","13.17","1352.95","ND","ND","0.1","245.8","26.9","58.3","0","0"],
    [21074,"2012-09-30T21:00:00","42.6","ND","31.27","1671.72","ND","ND","0.6","122.3","26.5","59.5","0","0"],
    [21075,"2012-09-30T22:00:00","36.8","ND","51.09","2509.99","ND","ND","0.1","125","25.5","62.4","0","0"],
    [21076,"2012-09-30T23:00:00","19.9","ND","50.79","2581.94","ND","ND","0.2","34.6","24.4","67","0","0"],
    [21077,"2012-10-01T00:00:00","16.2","ND","41.99","2263.74","ND","ND","0.1","320","23.4","72.5","0","0"],
    [21078,"2012-10-01T01:00:00","32.9","ND","38.29","1925.68","ND","ND","0.2","237.3","22.8","75.2","0","0"],
    [21079,"2012-10-01T02:00:00","17.8","ND","30.45","1739.84","ND","ND","0.3","20.5","22.4","77.3","0","0"],
    [21080,"2012-10-01T03:00:00","19.1","ND","27.41","1726.13","ND","ND","0","206.1","21.9","78.7","0","0"],
    [21081,"2012-10-01T04:00:00","23.8","ND","24.83","1598.50","ND","ND","0.1","346.7","21.5","80.9","0","0"],
    [21082,"2012-10-01T05:00:00","72.2","ND","21.72","1403.87","ND","ND","0.1","355.6","20.9","83.2","0","0"],
    [21083,"2012-10-01T06:00:00","37.1","ND","20.56","1468.80","ND","ND","0.1","325.3","21.4","81.4","0.5","0"],
    [21084,"2012-10-01T07:00:00","68.8","ND","20.65","1516.57","ND","ND","0.3","53.1","21.2","81.9","19.4","0"],
    [21085,"2012-10-01T08:00:00","43.5","ND","24.49","1719.12","ND","ND","0","139.6","22.3","78.1","158.1","0"],
    [21086,"2012-10-01T09:00:00","59.7","ND","31.47","2338.57","ND","ND","0.3","146.9","25.1","67","461.7","0"],
    [21087,"2012-10-01T10:00:00","38.1","ND","45.12","2658.70","ND","ND","0.7","136.6","27","58.1","646.2","0"],
    [21088,"2012-10-01T11:00:00","44.8","ND","76.18","2779.44","ND","ND","1.7","120.3","28.8","51.5","785.7","0"],
    [21089,"2012-10-01T12:00:00","2.5","ND","53.07","2111.59","ND","ND","1.2","111.8","30.2","47.2","868.6","0"],
    [21090,"2012-10-01T13:00:00","26.5","ND","18.99","1550.25","ND","ND","1.3","75","31.6","43.7","873.5","0"],
    [21091,"2012-10-01T14:00:00","15.4","ND","20.91","1545.69","ND","ND","3.5","300.1","31.4","43.5","605.1","0"],
    [21092,"2012-10-01T15:00:00","19.5","ND","15.91","1439.36","ND","ND","3.7","267.1","31.4","41.9","492.7","0"],
    [21093,"2012-10-01T16:00:00","14.1","ND","9.00","1287.23","ND","ND","2","273.8","30.9","42.7","213","0"],
    [21094,"2012-10-01T17:00:00","16.7","ND","13.27","1355.22","ND","ND","3.4","269.2","29.8","45.4","136.3","0"],
    [21095,"2012-10-01T18:00:00","10.8","ND","14.35","1303.75","ND","ND","0.7","267.6","29.3","45","16.3","0"],
    [21096,"2012-10-01T19:00:00","12.8","ND","16.22","1371.32","ND","ND","1.5","269.8","28.4","47.3","0","0"],
    [21097,"2012-10-01T20:00:00","17.3","ND","24.95","1529.46","ND","ND","0.9","121.9","27.8","51.1","0","0"],
    [21098,"2012-10-01T21:00:00","19","ND","23.71","1584.23","ND","ND","1.3","91.7","26.6","57.3","0","0"],
    [21099,"2012-10-01T22:00:00","10.1","ND","38.25","1727.64","ND","ND","0.6","92.9","25.1","64.8","0","0"],
    [21100,"2012-10-01T23:00:00","7.1","ND","33.59","1638.77","ND","ND","0.2","38.1","23.8","71.4","0","0"],
    [21101,"2012-10-02T00:00:00","17.4","ND","27.46","1449.06","ND","ND","0.2","302.4","23.5","71.9","0","0"],
    [21102,"2012-10-02T01:00:00","23.8","ND","24.21","1424.80","ND","ND","0.3","51.2","22.9","75.3","0","0"],
    [21103,"2012-10-02T02:00:00","28.2","ND","31.72","1626.67","ND","ND","0.5","41","22","79.9","0","0"],
    [21104,"2012-10-02T03:00:00","22.5","ND","29.44","1542.34","ND","ND","0.1","261.4","21.4","82.5","0","0"],
    [21105,"2012-10-02T04:00:00","12.7","ND","30.16","1448.66","ND","ND","0.1","207.9","22","79.9","0","0"],
    [21106,"2012-10-02T05:00:00","38.6","ND","26.20","1610.39","ND","ND","0.3","33.9","21.2","83.5","0","0"],
    [21107,"2012-10-02T06:00:00","20.9","ND","26.81","1583.40","ND","ND","0.4","148.4","21.7","81.1","0.3","0"],
    [21108,"2012-10-02T07:00:00","48.7","ND","24.64","1699.38","ND","ND","0.1","169.7","21.9","80.1","37.1","0"],
    [21109,"2012-10-02T08:00:00","65.3","ND","26.97","1745.88","ND","ND","0.4","162.4","22.9","76.5","115","0"],
    [21110,"2012-10-02T09:00:00","79.2","ND","30.65","2127.19","ND","ND","1.8","163.4","23.8","71.3","213.5","0"],
    [21111,"2012-10-02T10:00:00","60.2","ND","48.36","2658.52","ND","ND","1.8","147.9","26.1","61.3","653.3","0"],
    [21112,"2012-10-02T11:00:00","39.2","ND","76.54","3058.56","ND","ND","1.1","149.3","27.9","53.7","804","0"],
    [21113,"2012-10-02T12:00:00","21.4","ND","34.31","1885.51","ND","ND","1.6","127.5","29.6","48.6","810.2","0"],
    [21114,"2012-10-02T13:00:00","37.9","ND","16.28","1512.28","ND","ND","0.4","340.5","29.6","49.3","334.5","0"],
    [21115,"2012-10-02T14:00:00","21.2","ND","14.54","1465.75","ND","ND","1.6","337.8","30.8","42","784.9","0"],
    [21116,"2012-10-02T15:00:00","22","ND","17.59","1471.56","ND","ND","2","338.7","30.2","41.1","220.8","0"],
    [21117,"2012-10-02T16:00:00","12.8","ND","10.67","1293.81","ND","ND","2.1","284.5","29.1","44.6","112.3","0"],
    [21118,"2012-10-02T17:00:00","18","ND","12.87","1312.35","ND","ND","1.3","285.3","28.7","47.6","59.7","0"],
    [21119,"2012-10-02T18:00:00","10.6","ND","12.30","1299.01","ND","ND","0.5","113.7","28.4","45.7","18.3","0"],
    [21120,"2012-10-02T19:00:00","42.7","ND","17.96","1471.52","ND","ND","1","99.1","27.6","50.4","0","0"],
    [21121,"2012-10-02T20:00:00","23.3","ND","26.18","1606.29","ND","ND","1.9","179.7","26.3","56.6","0","0"],
    [21122,"2012-10-02T21:00:00","47.9","ND","50.09","2151.63","ND","ND","1.5","187.4","25.1","62.6","0","0"],
    [21123,"2012-10-02T22:00:00","32.3","ND","47.03","2154.46","ND","ND","0.2","75.4","24.3","65.9","0","0"],
    [21124,"2012-10-02T23:00:00","40.7","ND","38.95","1805.81","ND","ND","0.6","332.9","23.4","69","0","0"],
    [21125,"2012-10-03T00:00:00","31.6","ND","55.36","1959.87","ND","ND","0.4","40.4","23","70.3","0","0"],
    [21126,"2012-10-03T01:00:00","45.6","ND","43.91","1775.15","ND","ND","0.1","39","22.1","75.4","0","0"],
    [21127,"2012-10-03T02:00:00","35.5","ND","42.19","1747.07","ND","ND","0","335.8","21.6","76.5","0","0"],
    [21128,"2012-10-03T03:00:00","33.3","ND","31.58","1494.95","ND","ND","0.1","257.2","21.4","77.2","0","0"],
    [21129,"2012-10-03T04:00:00","18.2","ND","31.87","1527.89","ND","ND","0","70.7","21","78.7","0","0"],
    [21130,"2012-10-03T05:00:00","34.1","ND","27.56","1480.60","ND","ND","0","310.4","20.6","80.6","0","0"],
    [21131,"2012-10-03T06:00:00","36.4","ND","21.71","1388.29","ND","ND","0.5","44.1","20.1","82.7","0.8","0"],
    [21132,"2012-10-03T07:00:00","73","ND","20.17","1419.73","ND","ND","0","146.2","20.8","79","60.1","0"],
    [21133,"2012-10-03T08:00:00","62.2","ND","31.66","1750.66","ND","ND","0.5","52","23.1","69.8","237.2","0"],
    [21134,"2012-10-03T09:00:00","81.1","ND","37.77","2299.37","ND","ND","0.7","62.2","24.3","66.4","445.8","0"],
    [21135,"2012-10-03T10:00:00","57.6","ND","56.75","2457.27","ND","ND","0.8","135.6","26.5","57.6","637.9","0"],
    [21136,"2012-10-03T11:00:00","69.9","ND","52.32","2037.93","ND","ND","1","97.7","28.2","52.2","759","0"],
    [21137,"2012-10-03T12:00:00","52.6","ND","48.64","2003.18","ND","ND","1.3","73.9","29.6","49.1","827.3","0"],
    [21138,"2012-10-03T13:00:00","55.8","ND","25.25","1605.34","ND","ND","1.2","69.1","31","45.5","803","0"],
    [21139,"2012-10-03T14:00:00","43.8","ND","18.93","1449.15","ND","ND","1.2","351.7","32.4","42.1","781.5","0"],
    [21140,"2012-10-03T15:00:00","41.8","ND","16.39","1444.09","ND","ND","3.5","287","32.2","41.7","622.4","0"],
    [21141,"2012-10-03T16:00:00","27.5","ND","15.53","1407.94","ND","ND","4.8","277.3","31","43.3","457.1","0"],
    [21142,"2012-10-03T17:00:00","39.5","ND","8.82","1297.23","ND","ND","4.1","273.4","30.2","45","145.1","0"],
    [21143,"2012-10-03T18:00:00","37.1","ND","7.38","1247.19","ND","ND","2.8","262.8","29.6","45.9","11.1","0"],
    [21144,"2012-10-03T19:00:00","36","ND","10.12","1314.52","ND","ND","0.3","259.8","29.3","47.1","0","0"],
    [21145,"2012-10-03T20:00:00","19.6","ND","24.36","1650.24","ND","ND","0.1","342.4","28.6","49.9","0","0"],
    [21146,"2012-10-03T21:00:00","27.2","ND","37.02","1797.14","ND","ND","3.4","284.6","27.8","49.8","0","0"],
    [21147,"2012-10-03T22:00:00","14.3","ND","29.62","1607.36","ND","ND","0.8","91.3","27.1","52.8","0","0"],
    [21148,"2012-10-03T23:00:00","20.5","ND","5.73","1199.83","ND","ND","0.7","134.9","26.4","53.1","0","0"],
    [21149,"2012-10-04T00:00:00","11.9","ND","27.12","1415.72","ND","ND","1","107.9","26.1","53.8","0","0"],
    [21150,"2012-10-04T01:00:00","6.6","ND","26.62","1425.80","ND","ND","1","102.6","25.5","58","0","0"],
    [21151,"2012-10-04T02:00:00","4.9","ND","23.96","1354.08","ND","ND","0.9","198.2","24.9","60.3","0","0"],
    [21152,"2012-10-04T03:00:00","20.5","ND","31.10","1385.72","ND","ND","1.9","144.3","24.1","66.4","0","4.06"],
    [21153,"2012-10-04T04:00:00","30.2","ND","22.42","1279.21","ND","ND","0.2","311.8","21.3","87.9","0","1.02"],
    [21154,"2012-10-04T05:00:00","34.8","ND","12.20","1572.62","ND","ND","0.2","301.8","21.6","88.9","0","0"],
    [21155,"2012-10-04T06:00:00","19.1","ND","14.47","1630.85","ND","ND","0.3","293.8","21.5","88.4","0.2","0.25"],
    [21156,"2012-10-04T07:00:00","17.5","ND","11.11","1460.48","ND","ND","0.2","187.9","22.1","83.8","58.2","0"],
    [21157,"2012-10-04T08:00:00","14.7","ND","16.28","1452.11","ND","ND","0","34.1","23.3","81.3","143","0"],
    [21158,"2012-10-04T09:00:00","50.3","ND","28.07","1833.91","ND","ND","1.4","50.5","24.3","71.5","324.2","0"],
    [21159,"2012-10-04T10:00:00","26.7","ND","54.40","2651.57","ND","ND","0.9","76","26.2","61.7","579.9","0"],
    [21160,"2012-10-04T11:00:00","26","ND","58.49","2047.39","ND","ND","0.7","90.5","27.3","58.3","700.9","0"],
    [21161,"2012-10-04T12:00:00","13","ND","34.62","1396.88","ND","ND","1.1","65.4","28.3","53.6","515.8","0"],
    [21162,"2012-10-04T13:00:00","6.5","ND","12.13","1343.62","ND","ND","1.7","49.7","29.7","48.6","806.7","0"],
    [21163,"2012-10-04T14:00:00","5.9","ND","12.01","1326.59","ND","ND","2.2","39.9","30.6","44.6","572.8","0"],
    [21164,"2012-10-04T15:00:00","24.6","ND","12.47","1190.48","ND","ND","2.2","17.2","29.8","47.5","231.1","0"],
    [21165,"2012-10-04T16:00:00","13.3","ND","11.88","1187.34","ND","ND","4","279.4","29.7","47.2","436","0"],
    [21166,"2012-10-04T17:00:00","15","ND","18.61","1256.77","ND","ND","4.2","276.7","28.9","48.3","238.7","0"],
    [21167,"2012-10-04T18:00:00","8.5","ND","7.14","1148.99","ND","ND","1.2","285.5","27.7","52.2","28.3","0"],
    [21168,"2012-10-04T19:00:00","38.7","ND","7.85","1155.99","ND","ND","0.3","93.7","27.1","53","0","0"],
    [21169,"2012-10-04T20:00:00","21.2","ND","19.86","1349.81","ND","ND","0.2","311","27","51.1","0","0"],
    [21170,"2012-10-04T21:00:00","12.4","ND","38.55","1741.48","ND","ND","0.7","287.8","26.7","50.9","0","0"],
    [21171,"2012-10-04T22:00:00","6.2","ND","30.84","1497.79","ND","ND","0.8","101.2","26.8","49.8","0","0"],
    [21172,"2012-10-04T23:00:00","3.1","ND","8.15","1129.48","ND","ND","1.4","99","25.5","59.5","0","0"],
    [21173,"2012-10-05T00:00:00","5.3","ND","14.45","1204.91","ND","ND","0.9","57.6","24.8","61.5","0","0"],
    [21174,"2012-10-05T01:00:00","4.5","ND","28.50","1442.50","ND","ND","0.6","61.4","23.2","71.2","0","20.83"],
    [21175,"2012-10-05T02:00:00","3.9","ND","29.13","1309.49","ND","ND","0.9","251.9","20.5","89.4","0","10.16"],
    [21176,"2012-10-05T03:00:00","2.9","ND","18.33","1173.44","ND","ND","0.3","32.2","20.1","92.4","0","12.45"],
    [21177,"2012-10-05T04:00:00","2.7","ND","11.86","1092.97","ND","ND","0.9","18.1","19.7","95.4","0","8.38"],
    [21178,"2012-10-05T05:00:00","2.6","ND","14.97","1147.74","ND","ND","0.6","43.2","19.5","95.8","0","1.02"],
    [21179,"2012-10-05T06:00:00","2.9","ND","12.28","1135.71","ND","ND","0.3","304.2","19.7","94.8","0.1","0.25"],
    [21180,"2012-10-05T07:00:00","3.5","ND","14.49","1080.22","ND","ND","0.6","197.5","20.2","92.3","17.7","0.25"],
    [21181,"2012-10-05T08:00:00","3.3","ND","17.85","1239.87","ND","ND","1.2","184.6","21.1","86.3","126.9","0"],
    [21182,"2012-10-05T09:00:00","1.6","ND","36.86","1616.78","ND","ND","0.6","185.6","22.9","75.8","311.7","0"],
    [21183,"2012-10-05T10:00:00","2.4","ND","45.71","2036.19","ND","ND","1.1","60.7","23.4","77.4","300.8","0"],
    [21184,"2012-10-05T11:00:00","9.5","ND","30.97","1595.24","ND","ND","1","83.4","24","76","396.1","0"],
    [21185,"2012-10-05T12:00:00","6.8","ND","35.12","1678.39","ND","ND","1.3","80.1","25.2","71.4","697.5","0"],
    [21186,"2012-10-05T13:00:00","7.7","ND","18.24","1341.26","ND","ND","0.9","21.3","26.4","65.3","582.5","0"],
    [21187,"2012-10-05T14:00:00","7.3","ND","17.30","1312.13","ND","ND","1.4","37.5","27.2","61.8","387","0"],
    [21188,"2012-10-05T15:00:00","38.6","ND","19.16","1373.34","ND","ND","1.1","0.9","27.6","58.6","169.9","0"],
    [21189,"2012-10-05T16:00:00","20.3","ND","18.03","1340.50","ND","ND","1.3","345.3","28.7","52.5","422.7","0"],
    [21190,"2012-10-05T17:00:00","10.9","ND","28.66","1449.79","ND","ND","3.2","263.7","28.7","50.1","282.9","0"],
    [21191,"2012-10-05T18:00:00","7.5","ND","14.26","1241.02","ND","ND","1.2","280.1","27.3","52.2","21.2","0"],
    [21192,"2012-10-05T19:00:00","12.3","ND","10.14","1200.63","ND","ND","0.7","262.2","26.5","54.3","0.1","0"],
    [21193,"2012-10-05T20:00:00","17","ND","21.22","1439.22","ND","ND","0.8","104.7","26.1","57.5","0","0"],
    [21194,"2012-10-05T21:00:00","33.9","ND","33.54","1759.25","ND","ND","1.3","223.4","25.2","63","0","0"],
    [21195,"2012-10-05T22:00:00","17.9","ND","49.53","2201.04","ND","ND","1","231.9","24.8","63","0","0"],
    [21196,"2012-10-05T23:00:00","16.6","ND","33.01","1923.33","ND","ND","1","158.8","24.5","64.7","0","0"],
    [21197,"2012-10-06T00:00:00","9.1","ND","25.74","1475.35","ND","ND","1.6","111.6","23.8","72.6","0","0"],
    [21198,"2012-10-06T01:00:00","19.1","ND","32.56","1585.98","ND","ND","0.9","108.8","23.3","75.6","0","0"],
    [21199,"2012-10-06T02:00:00","11.8","ND","30.47","1401.06","ND","ND","0.3","29.9","22.8","79.9","0","0"],
    [21200,"2012-10-06T03:00:00","15.1","ND","26.98","1273.61","ND","ND","0.3","139.8","22.5","82.1","0","0"],
    [21201,"2012-10-06T04:00:00","15.9","ND","20.62","1249.60","ND","ND","0.4","10.4","21.8","82.9","0","0"],
    [21202,"2012-10-06T05:00:00","10","ND","22.94","1257.97","ND","ND","0.8","22.5","21.3","84.8","0","0"],
    [21203,"2012-10-06T06:00:00","5.8","ND","17.08","1187.95","ND","ND","0.7","76.1","21.1","86.8","0","0"],
    [21204,"2012-10-06T07:00:00","2.9","ND","18.57","1187.15","ND","ND","0.6","96.5","21","87.2","6.9","0"],
    [21205,"2012-10-06T08:00:00","10.9","ND","24.43","1198.04","ND","ND","0.9","122.9","21.2","84.9","30.7","0"],
    [21206,"2012-10-06T09:00:00","10.1","ND","30.49","1323.27","ND","ND","1.6","171.2","21.6","83.7","66.6","0"],
    [21207,"2012-10-06T10:00:00","6.7","ND","32.45","1528.92","ND","ND","1.6","199","22.3","80.9","253.1","0"],
    [21208,"2012-10-06T11:00:00","6.1","ND","31.37","1657.43","ND","ND","1.6","191.8","24","70.5","482.9","0"],
    [21209,"2012-10-06T12:00:00","3","ND","27.56","1587.05","ND","ND","1.7","150.4","26.3","60.9","873.4","0"],
    [21210,"2012-10-06T13:00:00","1.5","ND","22.91","1449.76","ND","ND","1.3","135.2","27.7","54.8","559.5","0"],
    [21211,"2012-10-06T14:00:00","1.6","ND","20.83","1433.42","ND","ND","1.1","126.8","28","53.7","208.2","0"],
    [21212,"2012-10-06T15:00:00","6.4","ND","18.64","1446.43","ND","ND","0.3","342.6","28.6","52.2","434.7","0"],
    [21213,"2012-10-06T16:00:00","5.2","ND","12.01","1240.61","ND","ND","2.8","267.8","29.3","48.8","508.1","0"],
    [21214,"2012-10-06T17:00:00","3.8","ND","14.98","1336.46","ND","ND","1","296.3","29.3","46.3","228.2","0"],
    [21215,"2012-10-06T18:00:00","3.8","ND","8.92","1208.62","ND","ND","1.8","249.4","27.7","50.8","38.2","0"],
    [21216,"2012-10-06T19:00:00","11.6","ND","8.29","1179.11","ND","ND","0.4","98.3","26.8","54.5","0.3","0"],
    [21217,"2012-10-06T20:00:00","20.8","ND","19.08","1394.56","ND","ND","1.2","120.6","25.8","61.6","0","0"],
    [21218,"2012-10-06T21:00:00","22.8","ND","28.27","1596.67","ND","ND","1.2","112.3","25","65.9","0","0"],
    [21219,"2012-10-06T22:00:00","24","ND","36.31","1615.31","ND","ND","0.4","141.4","24.1","71.4","0","0"],
    [21220,"2012-10-06T23:00:00","49.7","ND","40.39","1656.11","ND","ND","1.3","155.1","24.1","73.4","0","0"],
    [21221,"2012-10-07T00:00:00","25.9","ND","37.16","1736.06","ND","ND","1.4","143.7","24","72.8","0","0"],
    [21222,"2012-10-07T01:00:00","50.5","ND","41.35","1872.49","ND","ND","0.3","352","23.2","79.2","0","0"],
    [21223,"2012-10-07T02:00:00","26.7","ND","35.89","1571.39","ND","ND","0.6","131.5","22.4","84.7","0","0"],
    [21224,"2012-10-07T03:00:00","23.4","ND","29.85","1499.01","ND","ND","0.1","172.6","22.2","87.1","0","0"],
    [21225,"2012-10-07T04:00:00","12.4","ND","22.89","1339.12","ND","ND","0.3","50.9","22.2","85.8","0","0"],
    [21226,"2012-10-07T05:00:00","19.7","ND","24.14","1384.51","ND","ND","0.3","40.2","21.9","88.6","0","0"],
    [21227,"2012-10-07T06:00:00","11.1","ND","23.99","1383.10","ND","ND","0.8","45.5","21.6","91","0.1","0"],
    [21228,"2012-10-07T07:00:00","22.5","ND","23.26","1370.37","ND","ND","0.7","22.3","21.5","91.6","11.4","0"],
    [21229,"2012-10-07T08:00:00","20.3","ND","25.46","1335.94","ND","ND","0.5","40","21.4","92.3","41.7","0.76"],
    [21230,"2012-10-07T09:00:00","30.5","ND","20.58","1414.71","ND","ND","1.4","40.2","21.8","91.4","118.3","0"],
    [21231,"2012-10-07T10:00:00","16.1","ND","19.15","1314.63","ND","ND","1.5","41.1","22.7","84.7","322.5","0"],
    [21232,"2012-10-07T11:00:00","9.7","ND","16.05","1273.18","ND","ND","0.9","145.5","25.2","70.1","621.3","0"],
    [21233,"2012-10-07T12:00:00","6.9","ND","12.01","1192.23","ND","ND","0.9","69.5","26.4","62.6","561.1","0"],
    [21234,"2012-10-07T13:00:00","5.3","ND","10.24","1162.50","ND","ND","1.1","53.9","27.4","59.8","547.4","0"],
    [21235,"2012-10-07T14:00:00","10.9","ND","6.70","1189.48","ND","ND","1.9","39.4","27.8","58","574.3","0"],
    [21236,"2012-10-07T15:00:00","7.1","ND","6.98","1179.50","ND","ND","2","24.8","28.3","56.6","614.8","0"],
    [21237,"2012-10-07T16:00:00","5.5","ND","8.40","1146.71","ND","ND","2.4","22.3","28.6","52.7","422.8","0"],
    [21238,"2012-10-07T17:00:00","4.5","ND","6.25","1159.45","ND","ND","2.4","32.2","28.6","51.4","234.5","0"],
    [21239,"2012-10-07T18:00:00","3.6","ND","8.16","1124.66","ND","ND","1.2","63.7","28","55.9","47.7","0"],
    [21240,"2012-10-07T19:00:00","17.8","ND","9.47","1122.43","ND","ND","1.5","253.3","26.6","60.1","0.1","0"],
    [21241,"2012-10-07T20:00:00","9.9","ND","13.22","1220.86","ND","ND","0.2","176.1","26.1","62.3","0","0"],
    [21242,"2012-10-07T21:00:00","18.8","ND","22.95","1540.78","ND","ND","0.2","119.1","25.7","64.7","0","0"],
    [21243,"2012-10-07T22:00:00","9.9","ND","40.59","2009.52","ND","ND","0.4","117.6","25.2","67.8","0","0"],
    [21244,"2012-10-07T23:00:00","19.3","ND","44.20","2613.74","ND","ND","0.8","151.8","24","72.7","0","0"],
    [21245,"2012-10-08T00:00:00","11.1","ND","43.55","2466.21","ND","ND","0.3","183.2","23.4","76","0","0"],
    [21246,"2012-10-08T01:00:00","9.4","ND","34.79","1971.26","ND","ND","0.2","178.7","23.3","77.4","0","0"],
    [21247,"2012-10-08T02:00:00","5.8","ND","30.94","1833.91","ND","ND","0.3","124.9","23.3","77.3","0","0"],
    [21248,"2012-10-08T03:00:00","13.2","ND","28.50","1571.92","ND","ND","0.3","33","22.9","79.6","0","0"],
    [21249,"2012-10-08T04:00:00","22","ND","28.65","1649.42","ND","ND","0.4","44.6","22.3","82.3","0","0"],
    [21250,"2012-10-08T05:00:00","19.2","ND","25.31","1555.26","ND","ND","0.4","73.1","22.4","81.6","0","0"],
    [21251,"2012-10-08T06:00:00","25","ND","24.44","1544.43","ND","ND","0.1","165.8","22.2","83.6","0.4","0"],
    [21252,"2012-10-08T07:00:00","39.2","ND","19.11","1305.07","ND","ND","0.1","325.6","22.4","84.1","19.1","0"],
    [21253,"2012-10-08T08:00:00","3.5","ND","21.43","1374.09","ND","ND","0.5","339","22.9","81.3","72.9","0.25"],
    [21254,"2012-10-08T09:00:00","60","ND","24.89","1842.81","ND","ND","0.9","55.9","24.2","75.4","264.7","0"],
    [21255,"2012-10-08T10:00:00","31.2","ND","31.95","2182.24","ND","ND","1.2","77.8","25.9","68.3","530.7","0"],
    [21256,"2012-10-08T11:00:00","40.3","ND","34.48","ND","ND","ND","1.8","109.6","26.5","66.7","428.2","0"],
    [21257,"2012-10-08T12:00:00","ND","ND","25.76","ND","ND","ND","0.7","108.2","27.1","63.6","480.7","0"],
    [21258,"2012-10-08T13:00:00","2.8","ND","13.58","ND","ND","ND","0.3","40","29","55.7","747","0"],
    [21259,"2012-10-08T14:00:00","16.5","ND","13.95","ND","ND","ND","1.2","53","29.7","52.3","546.4","0"],
    [21260,"2012-10-08T15:00:00","9.8","ND","18.67","ND","ND","ND","1.1","359.3","29.7","50.9","231.2","0"],
    [21261,"2012-10-08T16:00:00","11.9","ND","13.41","ND","ND","ND","0.8","28.4","29.8","50.5","168.7","0"],
    [21262,"2012-10-08T17:00:00","23.6","ND","12.76","ND","ND","ND","0.9","242","29.4","51.3","99.1","0"],
    [21263,"2012-10-08T18:00:00","29.7","ND","14.79","ND","ND","ND","0.4","254.4","28.3","53.6","24.7","0"],
    [21264,"2012-10-08T19:00:00","37.2","ND","21.58","ND","ND","ND","0.8","247.2","27.1","57.4","0","0"],
    [21265,"2012-10-08T20:00:00","31.9","ND","34.60","ND","ND","ND","0.8","248.1","26.1","60","0","0"],
    [21266,"2012-10-08T21:00:00","41.7","ND","60.93","ND","ND","ND","1","157.4","25.7","62.4","0","0"],
    [21267,"2012-10-08T22:00:00","63.3","ND","42.70","ND","ND","ND","0.1","208.2","25","66.2","0","0"],
    [21268,"2012-10-08T23:00:00","41.8","ND","49.70","ND","ND","ND","0.3","128.5","24.6","68.3","0","0"],
    [21269,"2012-10-09T00:00:00","39.3","ND","41.61","ND","ND","ND","0.8","142.2","23.6","74","0","0"],
    [21270,"2012-10-09T01:00:00","20.8","ND","39.22","ND","ND","ND","0.6","214.8","22.9","77.9","0","0"],
    [21271,"2012-10-09T02:00:00","32.2","ND","29.46","ND","ND","ND","0.5","203","22.9","78.6","0","0"],
    [21272,"2012-10-09T03:00:00","22.4","ND","24.89","ND","ND","ND","0.3","207.6","22.9","78.6","0","0"],
    [21273,"2012-10-09T04:00:00","33.1","ND","22.83","ND","ND","ND","0.1","215.5","22.5","80.7","0","0"],
    [21274,"2012-10-09T05:00:00","34.4","ND","22.93","ND","ND","ND","0.4","36.9","22.5","81","0","0"],
    [21275,"2012-10-09T06:00:00","27.5","ND","20.92","ND","ND","ND","0.6","17.6","22","83.5","1.5","0"],
    [21276,"2012-10-09T07:00:00","27.7","ND","23.62","ND","ND","ND","0.2","158","22.3","81.9","33.9","0"],
    [21277,"2012-10-09T08:00:00","40.7","ND","23.93","ND","ND","ND","0.5","11.1","23.3","77.5","142.5","0"],
    [21278,"2012-10-09T09:00:00","23.7","ND","29.53","ND","ND","ND","1.4","95.9","24.9","70.9","329.2","0"],
    [21279,"2012-10-09T10:00:00","12.4","ND","41.42","ND","ND","ND","1.2","132.8","26.7","63.5","695.7","0"],
    [21280,"2012-10-09T11:00:00","7.8","ND","20.85","ND","ND","ND","0.5","106.7","27.4","59.6","386.8","0"],
    [21281,"2012-10-09T12:00:00","5","ND","13.20","ND","ND","ND","2.2","241.3","28.7","51.8","626.1","0"],
    [21282,"2012-10-09T13:00:00","3.2","ND","12.15","ND","ND","ND","1.5","244.7","30.3","43.8","798.3","0"],
    [21283,"2012-10-09T14:00:00","3.1","ND","10.85","ND","ND","ND","3.5","273","30.9","39","700.5","0"],
    [21284,"2012-10-09T15:00:00","1.5","ND","7.24","ND","ND","ND","3.3","288.7","31.2","36.3","631.2","0"],
    [21285,"2012-10-09T16:00:00","ND","ND","8.50","ND","ND","ND","4.2","286.9","30.4","39.6","394.3","0"],
    [21286,"2012-10-09T17:00:00","3.9","ND","7.00","ND","ND","ND","3.3","281","29.8","43.2","230.7","0"],
    [21287,"2012-10-09T18:00:00","16.4","ND","10.93","ND","ND","ND","0.7","282.9","28.7","46.4","39.3","0"],
    [21288,"2012-10-09T19:00:00","10.3","ND","12.36","ND","ND","ND","0.8","150.5","27.7","48.4","0.1","0"],
    [21289,"2012-10-09T20:00:00","41.9","ND","ND","ND","ND","ND","0.7","68.5","27","51.3","0","0"],
    [21290,"2012-10-09T21:00:00","33","ND","28.84","1556.95","ND","ND","1.1","122.8","26.6","54.4","0","0"],
    [21291,"2012-10-09T22:00:00","43.9","ND","51.66","1865.85","ND","ND","0.4","160.6","25.2","61.9","0","0"],
    [21292,"2012-10-09T23:00:00","77.5","ND","48.89","1948.84","ND","ND","0.4","133.5","24.9","63.2","0","0"],
    [21293,"2012-10-10T00:00:00","78.1","ND","43.51","1866.71","ND","ND","0.1","147","24.2","66.7","0","0"],
    [21294,"2012-10-10T01:00:00","44.1","ND","43.54","1930.88","ND","ND","0.6","153.2","23.3","72.3","0","0"],
    [21295,"2012-10-10T02:00:00","33.4","ND","39.74","1868.08","ND","ND","0.5","208.8","23","74.1","0","0"],
    [21296,"2012-10-10T03:00:00","18.2","ND","29.35","1502.05","ND","ND","0.9","226","23.3","71.8","0","0"],
    [21297,"2012-10-10T04:00:00","22.1","ND","27.27","1469.40","ND","ND","1","178","23.2","71.2","0","0"],
    [21298,"2012-10-10T05:00:00","13.2","ND","18.40","1332.26","ND","ND","0.7","176.7","22.7","73.5","0","0"],
    [21299,"2012-10-10T06:00:00","30.3","ND","15.03","1341.38","ND","ND","0.1","121.3","22.3","75.7","0.3","0"],
    [21300,"2012-10-10T07:00:00","33.1","ND","16.16","1350.92","ND","ND","0","257.9","22.6","75.5","30.7","0"],
    [21301,"2012-10-10T08:00:00","51.4","ND","24.03","1465.93","ND","ND","0.3","94.6","24","70.6","257.7","0"],
    [21302,"2012-10-10T09:00:00","55.8","ND","31.78","1906.74","ND","ND","1.1","125.4","25.9","62.2","421.8","0"],
    [21303,"2012-10-10T10:00:00","48","ND","50.55","2355.59","ND","ND","1","113.8","27.1","57.1","587.5","0"],
    [21304,"2012-10-10T11:00:00","24.5","ND","61.17","2376.58","ND","ND","1.4","135","28.3","52.8","707.1","0"],
    [21305,"2012-10-10T12:00:00","22.3","ND","23.04","1610.03","ND","ND","1.1","121.5","29.7","47.7","701.6","0"],
    [21306,"2012-10-10T13:00:00","13.2","ND","14.83","1442.96","ND","ND","0.7","316.8","30.4","45.7","530.6","0"],
    [21307,"2012-10-10T14:00:00","7.9","ND","13.12","1411.30","ND","ND","3.7","279.4","30.5","44.6","656.9","0"],
    [21308,"2012-10-10T15:00:00","4.7","ND","13.50","1376.77","ND","ND","3.6","280.6","31.1","42","659","0"],
    [21309,"2012-10-10T16:00:00","2.3","ND","6.52","1227.51","ND","ND","3.9","275.7","30.6","41.2","461.5","0"],
    [21310,"2012-10-10T17:00:00","2.5","ND","7.23","1237.16","ND","ND","3.3","285.5","29.7","42.4","201","0"],
    [21311,"2012-10-10T18:00:00","14.9","ND","6.98","1186.95","ND","ND","1.7","287.6","29.1","43.3","44.1","0"],
    [21312,"2012-10-10T19:00:00","18.9","ND","7.50","1207.82","ND","ND","0.5","49.3","28.2","45.7","0.1","0"],
    [21313,"2012-10-10T20:00:00","12.8","ND","16.03","1366.33","ND","ND","0.3","124.5","27.6","48.4","0","0"],
    [21314,"2012-10-10T21:00:00","33.6","ND","28.93","1548.51","ND","ND","1","77.3","26.5","54.9","0","0"],
    [21315,"2012-10-10T22:00:00","44.9","ND","46.93","1911.28","ND","ND","0.4","162.5","25.2","62.1","0","0"],
    [21316,"2012-10-10T23:00:00","23.9","ND","48.96","2006.16","ND","ND","1.4","145","24.4","65.7","0","0"],
    [21317,"2012-10-11T00:00:00","36.3","ND","39.79","1920.75","ND","ND","0.2","212.2","23.8","68.1","0","0"],
    [21318,"2012-10-11T01:00:00","19.2","ND","38.12","1894.05","ND","ND","0.4","151.9","23.6","69.9","0","0"],
    [21319,"2012-10-11T02:00:00","46.2","ND","34.77","1698.94","ND","ND","0.7","135.4","23.2","73","0","0"],
    [21320,"2012-10-11T03:00:00","25.6","ND","33.29","1696.64","ND","ND","0.4","149.9","22.9","74.6","0","0"],
    [21321,"2012-10-11T04:00:00","50","ND","25.88","1512.92","ND","ND","0.3","270.4","22.5","76.5","0","0"],
    [21322,"2012-10-11T05:00:00","79.9","ND","24.35","1465.44","ND","ND","0.5","341.4","22.3","77.6","0","0"],
    [21323,"2012-10-11T06:00:00","64.8","ND","24.39","1487.15","ND","ND","0.4","258.5","22.1","78.1","1.8","0"],
    [21324,"2012-10-11T07:00:00","47.3","ND","26.04","1554.21","ND","ND","0.3","32.7","22.7","75.6","78.6","0"],
    [21325,"2012-10-11T08:00:00","87.7","ND","26.58","1773.35","ND","ND","0.5","31.7","23.3","74","141.5","0"],
    [21326,"2012-10-11T09:00:00","90.6","ND","30.54","2050.33","ND","ND","0.6","115.3","24.5","68.2","107.1","0"],
    [21327,"2012-10-11T10:00:00","93.5","ND","45.18","2333.12","ND","ND","0.6","33.6","25.5","63.9","252.7","0"],
    [21328,"2012-10-11T11:00:00","47.3","ND","55.71","2214.73","ND","ND","0.4","216.3","26.7","54.9","386","0"],
    [21329,"2012-10-11T12:00:00","24.8","ND","56.50","2039.29","ND","ND","0.9","140.7","28.4","48.5","556.8","0"],
    [21330,"2012-10-11T13:00:00","14.9","ND","25.41","1413.59","ND","ND","2.4","268.3","28.6","46.7","464.1","0"],
    [21331,"2012-10-11T14:00:00","9.2","ND","8.98","1229.01","ND","ND","2.4","270.9","29.1","44.2","511.9","0"],
    [21332,"2012-10-11T15:00:00","4.6","ND","9.64","1242.66","ND","ND","3.4","285.4","28.7","45.3","438.4","0"],
    [21333,"2012-10-11T16:00:00","2.3","ND","7.84","1206.22","ND","ND","4.3","280.4","28.1","44.5","255","0"],
    [21334,"2012-10-11T17:00:00","1.7","ND","6.26","1180.68","ND","ND","2.7","284.7","27.9","42.4","147.8","0"],
    [21335,"2012-10-11T18:00:00","3","ND","6.45","1179.89","ND","ND","1.3","306.6","27.4","43.5","29.4","0"],
    [21336,"2012-10-11T19:00:00","2.6","ND","11.45","1235.67","ND","ND","0.7","99.1","26.5","46.3","0","0"],
    [21337,"2012-10-11T20:00:00","23.6","ND","17.45","1335.59","ND","ND","1.4","89.7","25.8","49.4","0","0"],
    [21338,"2012-10-11T21:00:00","20.4","ND","42.98","1746.00","ND","ND","0.4","266.9","25.1","50.2","0","0"],
    [21339,"2012-10-11T22:00:00","35.8","ND","47.48","1753.37","ND","ND","0.2","325.3","24.5","54","0","0"],
    [21340,"2012-10-11T23:00:00","25.3","ND","36.87","1612.60","ND","ND","0.4","269.2","23.6","59.6","0","0"],
    [21341,"2012-10-12T00:00:00","36.8","ND","44.02","1733.14","ND","ND","0.5","108.4","23.9","61.9","0","0"],
    [21342,"2012-10-12T01:00:00","38.6","ND","38.79","1643.59","ND","ND","0.8","343.9","23","67.6","0","0"],
    [21343,"2012-10-12T02:00:00","43.4","ND","43.20","1752.39","ND","ND","0.3","295.6","22.8","68.5","0","0"],
    [21344,"2012-10-12T03:00:00","24.6","ND","45.86","1944.53","ND","ND","0.3","255.6","22.9","69.2","0","0"],
    [21345,"2012-10-12T04:00:00","42.9","ND","42.00","1706.30","ND","ND","0.5","138.2","22.8","70.5","0","0"],
    [21346,"2012-10-12T05:00:00","43.9","ND","40.36","1671.61","ND","ND","0.1","332.2","21.8","74.7","0","0"],
    [21347,"2012-10-12T06:00:00","47.2","ND","34.88","1518.63","ND","ND","0.2","255","21.1","78.5","0.4","0"],
    [21348,"2012-10-12T07:00:00","29.2","ND","28.38","1537.64","ND","ND","0.3","300.4","21.4","77.5","60.5","0"],
    [21349,"2012-10-12T08:00:00","79.2","ND","30.70","1788.19","ND","ND","1.1","52.5","23.5","70.4","267.3","0"],
    [21350,"2012-10-12T09:00:00","54.8","ND","32.53","2302.48","ND","ND","1.2","54.6","24","67.4","246.3","0"],
    [21351,"2012-10-12T10:00:00","50.9","ND","59.04","2466.21","ND","ND","0.9","125","26","59.7","592.1","0"],
    [21352,"2012-10-12T11:00:00","34.3","ND","47.68","1666.70","ND","ND","0.2","281.9","27.6","51.4","552","0"],
    [21353,"2012-10-12T12:00:00","25.3","ND","36.17","1571.62","ND","ND","0.6","326.2","28.3","49.4","492.9","0"],
    [21354,"2012-10-12T13:00:00","14","ND","20.47","1401.54","ND","ND","0.7","294.3","29.9","44.8","719","0"],
    [21355,"2012-10-12T14:00:00","11.9","ND","16.90","1315.82","ND","ND","0.8","326.2","30.3","43","572","0"],
    [21356,"2012-10-12T15:00:00","7.9","ND","13.63","1294.24","ND","ND","1.4","260.2","30.5","41.9","240.4","0"],
    [21357,"2012-10-12T16:00:00","75.7","ND","9.40","1190.09","ND","ND","1.7","209.1","26.1","65.6","108.5","17.02"],
    [21358,"2012-10-12T17:00:00","42.6","ND","11.99","1241.82","ND","ND","2.8","200.5","22.9","86","49.8","0.25"],
    [21359,"2012-10-12T18:00:00","29.7","ND","20.16","1399.17","ND","ND","2.5","182.9","24","70.6","6.7","0"],
    [21360,"2012-10-12T19:00:00","36.8","ND","51.11","1998.09","ND","ND","0.1","28.6","25","67","0","0"],
    [21361,"2012-10-12T20:00:00","52.1","ND","54.83","1936.08","ND","ND","1","77","25","68","0","0"],
    [21362,"2012-10-12T21:00:00","26.8","ND","83.93","3104.60","ND","ND","0.1","222","24","69.9","0","0"],
    [21363,"2012-10-12T22:00:00","56.6","ND","66.06","2922.91","ND","ND","1","214.6","24","70.3","0","0"],
    [21364,"2012-10-12T23:00:00","30","ND","47.79","1963.83","ND","ND","1","240.4","24.3","66.1","0","0"],
    [21365,"2012-10-13T00:00:00","48.2","ND","55.09","2605.85","ND","ND","0.4","16.6","23.2","74.5","0","0"],
    [21366,"2012-10-13T01:00:00","68.3","ND","27.93","1537.23","ND","ND","0.4","158.5","22.9","77.8","0","0"],
    [21367,"2012-10-13T02:00:00","55.8","ND","39.39","1888.31","ND","ND","1.3","190.1","22.8","79.2","0","0"],
    [21368,"2012-10-13T03:00:00","30.5","ND","36.92","1864.93","ND","ND","1","179.7","22.8","77.2","0","0"],
    [21369,"2012-10-13T04:00:00","48.3","ND","36.04","1648.87","ND","ND","0.2","93.6","22.7","79.3","0","0"],
    [21370,"2012-10-13T05:00:00","30.5","ND","28.48","1466.43","ND","ND","0.5","16.4","22.1","84.1","0","0"],
    [21371,"2012-10-13T06:00:00","43.8","ND","29.95","1565.55","ND","ND","0","288","22.2","82.4","0.5","0"],
    [21372,"2012-10-13T07:00:00","25.5","ND","27.76","1577.43","ND","ND","0","0","22.2","81.5","26.2","0"],
    [21373,"2012-10-13T08:00:00","61.9","ND","29.83","1815.75","ND","ND","0.9","103","23.3","76.8","176.4","0"],
    [21374,"2012-10-13T09:00:00","65.1","ND","32.40","2038.94","ND","ND","1","130.3","24.4","71.4","321.4","0"],
    [21375,"2012-10-13T10:00:00","37.1","ND","47.29","2240.87","ND","ND","0.8","123.2","26.1","63.6","651.5","0"],
    [21376,"2012-10-13T11:00:00","19.1","ND","41.08","1874.23","ND","ND","1.1","138.1","27.7","54.8","839.1","0"],
    [21377,"2012-10-13T12:00:00","23.6","ND","23.97","1525.90","ND","ND","1.4","83.9","28.9","51.5","687.2","0"],
    [21378,"2012-10-13T13:00:00","16.8","ND","15.30","1404.33","ND","ND","0.7","27.8","29.3","50.7","411.5","0"],
    [21379,"2012-10-13T14:00:00","31.5","ND","14.56","1359.70","ND","ND","1.5","293.8","29.5","48.4","352","0"],
    [21380,"2012-10-13T15:00:00","16.6","ND","19.06","1302.46","ND","ND","3.2","255","30.8","43.9","637.4","0"],
    [21381,"2012-10-13T16:00:00","9.6","ND","10.93","1237.98","ND","ND","3.1","269","30.8","43.7","462.1","0"],
    [21382,"2012-10-13T17:00:00","6.1","ND","8.33","1237.98","ND","ND","3.2","274.6","29.6","45.9","214","0"],
    [21383,"2012-10-13T18:00:00","10.4","ND","8.19","1198.19","ND","ND","1.6","260","28.6","48.5","36.8","0"],
    [21384,"2012-10-13T19:00:00","6.8","ND","8.50","1171.04","ND","ND","0.1","142.6","27.9","50.6","0.2","0"],
    [21385,"2012-10-13T20:00:00","17.2","ND","17.91","1330.27","ND","ND","0.9","107.4","27.3","54.6","0","0"],
    [21386,"2012-10-13T21:00:00","27.8","ND","24.69","1431.52","ND","ND","0.6","170.6","26.4","57.9","0","0"],
    [21387,"2012-10-13T22:00:00","23.7","ND","39.70","1691.95","ND","ND","2.7","226.7","25.7","58.9","0","0"],
    [21388,"2012-10-13T23:00:00","14.2","ND","39.97","1929.14","ND","ND","0.8","95.7","25.6","59.9","0","0"],
    [21389,"2012-10-14T00:00:00","9.4","ND","9.93","1262.71","ND","ND","0.7","78.9","24.9","64.7","0","0"],
    [21390,"2012-10-14T01:00:00","5.5","ND","14.74","1259.75","ND","ND","2.3","180.2","23.8","71.3","0","0"],
    [21391,"2012-10-14T02:00:00","2.8","ND","19.77","1323.55","ND","ND","2.2","175.3","22.6","79.9","0","0.76"],
    [21392,"2012-10-14T03:00:00","2.9","ND","16.66","1250.02","ND","ND","0.9","155.2","21.5","89.5","0","0.76"],
    [21393,"2012-10-14T04:00:00","2.3","ND","12.62","1200.08","ND","ND","0.4","155.3","21.5","91.9","0","0.76"],
    [21394,"2012-10-14T05:00:00","10.3","ND","13.35","1234.05","ND","ND","0.9","127.4","21.4","93.5","0","4.06"],
    [21395,"2012-10-14T06:00:00","6.6","ND","17.77","1256.26","ND","ND","0.7","116.2","20.8","95.5","0","11.18"],
    [21396,"2012-10-14T07:00:00","4.7","ND","20.69","1310.18","ND","ND","0.6","87","20.6","97.1","1.3","9.14"],
    [21397,"2012-10-14T08:00:00","3.1","ND","16.33","1241.56","ND","ND","0.8","85.8","20.5","96.5","3.7","2.79"],
    [21398,"2012-10-14T09:00:00","3.9","ND","32.13","1376.54","ND","ND","0.2","245.3","19.8","97.5","16.2","44.2"],
    [21399,"2012-10-14T10:00:00","2","ND","20.47","1271.95","ND","ND","0.4","321.2","19.7","99.7","132.7","1.78"],
    [21400,"2012-10-14T11:00:00","3","ND","16.00","1226.50","ND","ND","0.7","134","22.1","81.1","293.7","0"],
    [21401,"2012-10-14T12:00:00","2.9","ND","13.52","1247.90","ND","ND","0.7","128.4","23.4","75.3","313","0"],
    [21402,"2012-10-14T13:00:00","3.4","ND","13.88","1287.59","ND","ND","1.1","73.9","23.5","77","275.6","0"],
    [21403,"2012-10-14T14:00:00","3.9","ND","19.75","1481.79","ND","ND","0.7","77.4","24","74.4","168.8","0"],
    [21404,"2012-10-14T15:00:00","3","ND","17.42","1427.20","ND","ND","0.6","288.6","24.3","73","177.1","0"],
    [21405,"2012-10-14T16:00:00","8.7","ND","12.36","1302.92","ND","ND","0.8","283.5","24.9","70.8","233.4","0"],
    [21406,"2012-10-14T17:00:00","6.5","ND","11.97","1317.01","ND","ND","0.4","280","25.4","68","147.2","0"],
    [21407,"2012-10-14T18:00:00","4.5","ND","14.94","1330.69","ND","ND","0.2","258","24.9","69.8","18.3","0"],
    [21408,"2012-10-14T19:00:00","4.4","ND","13.73","1271.20","ND","ND","0.2","246.5","23.6","75.5","0","0"],
    [21409,"2012-10-14T20:00:00","33.5","ND","22.65","1425.28","ND","ND","0.4","225.4","22.6","78.1","0","0"],
    [21410,"2012-10-14T21:00:00","25.4","ND","33.39","2215.94","ND","ND","0.3","353.9","22.3","79.2","0","0"],
    [21411,"2012-10-14T22:00:00","26.1","ND","35.98","2611.02","ND","ND","0.1","13.3","21.9","80.6","0","0"],
    [21412,"2012-10-14T23:00:00","20.6","ND","38.13","2924.92","ND","ND","0.1","248","21.4","83.2","0","0"],
    [21413,"2012-10-15T00:00:00","30.3","ND","35.04","2206.95","ND","ND","0.2","272.6","20.8","84.8","0","0"],
    [21414,"2012-10-15T01:00:00","17.3","ND","31.75","2518.70","ND","ND","0.1","270.6","20.5","87.5","0","0"],
    [21415,"2012-10-15T02:00:00","12.6","ND","27.08","2166.35","ND","ND","0.1","254","20.7","87.3","0","0"],
    [21416,"2012-10-15T03:00:00","9","ND","24.45","2314.61","ND","ND","0.2","219.7","21.1","85.9","0","0"],
    [21417,"2012-10-15T04:00:00","22.7","ND","23.18","2148.17","ND","ND","0.2","63.5","21","86.5","0","0"],
    [21418,"2012-10-15T05:00:00","13.5","ND","23.60","1989.20","ND","ND","0.5","70.2","20.2","89.1","0","0"],
    [21419,"2012-10-15T06:00:00","16.1","ND","22.22","1724.55","ND","ND","0.2","222.1","20.5","88.3","0.6","0"],
    [21420,"2012-10-15T07:00:00","26.4","ND","18.81","1320.12","ND","ND","0.1","108.8","20.8","87.1","27.4","0"],
    [21421,"2012-10-15T08:00:00","27.8","ND","19.79","1423.12","ND","ND","0.1","207.7","21.8","82.9","120.1","0"],
    [21422,"2012-10-15T09:00:00","22.8","ND","22.49","1575.29","ND","ND","0.4","112.3","23.2","76","251.8","0"],
    [21423,"2012-10-15T10:00:00","11.9","ND","25.82","1548.62","ND","ND","0.3","147.2","25.1","67.3","580.4","0"],
    [21424,"2012-10-15T11:00:00","7.9","ND","28.75","1615.85","ND","ND","0.6","136.1","27.2","58.3","777.1","0"],
    [21425,"2012-10-15T12:00:00","6.1","ND","23.58","1523.37","ND","ND","1.1","275","27.7","55","360.1","0"],
    [21426,"2012-10-15T13:00:00","4.5","ND","17.24","1398.74","ND","ND","0.3","25.6","29.2","49.4","773.7","0"],
    [21427,"2012-10-15T14:00:00","4","ND","12.47","1254.69","ND","ND","0.3","342.9","30","46.6","438.5","0"],
    [21428,"2012-10-15T15:00:00","2.8","ND","7.41","1188.13","ND","ND","3","290.3","30.1","46","590.1","0"],
    [21429,"2012-10-15T16:00:00","1.4","ND","7.55","1176.87","ND","ND","2","289.6","28.4","49.2","147.2","0"],
    [21430,"2012-10-15T17:00:00","3","ND","2.76","1077.57","ND","ND","0.2","136","28","49.2","133.9","0"],
    [21431,"2012-10-15T18:00:00","2.7","ND","5.55","1157.14","ND","ND","0.5","218.3","27.5","51.4","50.4","0"],
    [21432,"2012-10-15T19:00:00","3.6","ND","9.53","1201.43","ND","ND","0.8","102.3","26.1","57.7","0.1","0"],
    [21433,"2012-10-15T20:00:00","3.7","ND","10.78","1253.32","ND","ND","0.6","26.5","24.8","66.8","0","0"],
    [21434,"2012-10-15T21:00:00","3.8","ND","17.60","1362.36","ND","ND","0.5","100.8","24.4","69.5","0","0"],
    [21435,"2012-10-15T22:00:00","30.9","ND","23.74","1566.32","ND","ND","0.9","128.3","24.5","69.4","0","0"],
    [21436,"2012-10-15T23:00:00","31","ND","26.79","1692.65","ND","ND","1.1","49.8","23.5","75.2","0","0"],
    [21437,"2012-10-16T00:00:00","32.5","ND","33.79","1926.33","ND","ND","0.1","131.6","22.7","79.2","0","0"],
    [21438,"2012-10-16T01:00:00","18.2","ND","34.63","1659.68","ND","ND","0.4","219.1","22.8","78.8","0","0"],
    [21439,"2012-10-16T02:00:00","11","ND","20.12","1250.86","ND","ND","0.1","356.5","22.7","79.9","0","0"],
    [21440,"2012-10-16T03:00:00","6.4","ND","25.02","1341.38","ND","ND","0.8","59.7","22","83","0","0"],
    [21441,"2012-10-16T04:00:00","5.9","ND","28.08","1360.89","ND","ND","0.3","80.3","21","91.6","0","0"],
    [21442,"2012-10-16T05:00:00","5.3","ND","15.11","1164.14","ND","ND","0.4","158.6","20.9","94","0","2.03"],
    [21443,"2012-10-16T06:00:00","4.2","ND","10.81","1095.95","ND","ND","0.6","155.1","21","94.1","0","0"],
    [21444,"2012-10-16T07:00:00","3.7","ND","14.42","1198.04","ND","ND","1.1","176.3","20.9","93.1","22.1","0"],
    [21445,"2012-10-16T08:00:00","15","ND","17.13","1276.73","ND","ND","1","153","21.6","88.9","49.8","0.25"],
    [21446,"2012-10-16T09:00:00","8.1","ND","21.30","1574.23","ND","ND","1.1","335.4","20.6","93.7","15.8","24.38"],
    [21447,"2012-10-16T10:00:00","12.6","ND","29.15","2054.22","ND","ND","0.5","262.4","20","98.7","71.4","12.95"],
    [21448,"2012-10-16T11:00:00","15.4","ND","27.44","1768.43","ND","ND","1","37.3","20.7","95.5","128.1","2.03"],
    [21449,"2012-10-16T12:00:00","17.3","ND","22.33","1569.42","ND","ND","2","15.8","20.3","93.8","67.5","2.29"],
    [21450,"2012-10-16T13:00:00","9.4","ND","26.27","1499.63","ND","ND","1.4","1.1","20","93.2","131.6","4.06"],
    [21451,"2012-10-16T14:00:00","4.7","ND","30.76","1329.14","ND","ND","1","348.2","20.7","92.3","151","1.52"],
    [21452,"2012-10-16T15:00:00","3.7","ND","40.76","1388.76","ND","ND","0.9","51.6","21.3","91.3","95.7","0.25"],
    [21453,"2012-10-16T16:00:00","11.9","ND","33.98","1538.68","ND","ND","0.7","54.5","21.4","90.1","87.1","0.76"],
    [21454,"2012-10-16T17:00:00","7.5","ND","38.72","1607.11","ND","ND","0.5","83.8","21.6","90.1","51.3","0.25"],
    [21455,"2012-10-16T18:00:00","10.9","ND","50.46","1562.90","ND","ND","0.6","63.1","21.4","91","13.5","0"],
    [21456,"2012-10-16T19:00:00","6.6","ND","43.22","1663.70","ND","ND","0.3","27.5","21.2","92.4","0","0"],
    [21457,"2012-10-16T20:00:00","27.4","ND","45.15","1990.56","ND","ND","0.8","17.5","20.9","94.1","0","0"],
    [21458,"2012-10-16T21:00:00","15.4","ND","44.84","2259.69","ND","ND","0.3","266.4","20.9","94.2","0","0"],
    [21459,"2012-10-16T22:00:00","19.3","ND","34.55","1694.77","ND","ND","0.3","213.5","20.8","94.2","0","0"],
    [21460,"2012-10-16T23:00:00","32.8","ND","29.93","1987.85","ND","ND","1","196.5","20.9","93.4","0","0"],
    [21461,"2012-10-17T00:00:00","37.1","ND","25.88","2259.69","ND","ND","0.4","211.9","21","91.8","0","0"],
    [21462,"2012-10-17T01:00:00","19.9","ND","29.69","2689.95","ND","ND","0.1","171.9","20.9","91.2","0","0"],
    [21463,"2012-10-17T02:00:00","12.1","ND","30.46","2203.20","ND","ND","0","66.1","20.7","91.2","0","0"],
    [21464,"2012-10-17T03:00:00","13.9","ND","23.59","1750.07","ND","ND","0.1","41.9","20.5","92.8","0","0"],
    [21465,"2012-10-17T04:00:00","18.8","ND","22.32","1545.78","ND","ND","0","272.1","20.3","94","0","0"],
    [21466,"2012-10-17T05:00:00","10.9","ND","25.03","1386.87","ND","ND","0","290.7","20.1","93.7","0","0"],
    [21467,"2012-10-17T06:00:00","8.4","ND","20.01","1363.39","ND","ND","0","293.9","19.9","92.4","0.3","0"],
    [21468,"2012-10-17T07:00:00","6.9","ND","14.87","1317.42","ND","ND","0","296.8","20","92.1","43","0.25"],
    [21469,"2012-10-17T08:00:00","34.9","ND","14.43","1351.66","ND","ND","0.1","178","21.3","85.5","122","0"],
    [21470,"2012-10-17T09:00:00","18.4","ND","21.26","2353.28","ND","ND","0","303.9","22.1","80.9","174.9","0"],
    [21471,"2012-10-17T10:00:00","46.9","ND","33.27","2155.47","ND","ND","0.5","60.7","23.1","77.7","267.6","0"],
    [21472,"2012-10-17T11:00:00","30.3","ND","51.43","2322.14","ND","ND","1.2","41.2","23.1","78.5","196.9","0"],
    [21473,"2012-10-17T12:00:00","44.4","ND","65.29","2253.84","ND","ND","0.9","92.7","23.8","75.5","376.3","0"],
    [21474,"2012-10-17T13:00:00","30.2","ND","53.48","1928.28","ND","ND","0.6","150","25.4","67.5","517.1","0"],
    [21475,"2012-10-17T14:00:00","28.4","ND","38.93","1709.25","ND","ND","0.8","100.9","26.4","62.5","546","0"],
    [21476,"2012-10-17T15:00:00","24.8","ND","36.56","1772.52","ND","ND","1","78.5","26.9","59.4","449.2","0"],
    [21477,"2012-10-17T16:00:00","35.4","ND","26.42","1556.43","ND","ND","1","67.5","27.2","57.5","252.7","0"],
    [21478,"2012-10-17T17:00:00","29.4","ND","22.03","1419.50","ND","ND","0.3","355.6","26.6","60.4","35.4","0"],
    [21479,"2012-10-17T18:00:00","63.2","ND","21.06","1313.00","ND","ND","0.3","269","25.5","67.4","18.6","0"],
    [21480,"2012-10-17T19:00:00","63.9","ND","48.75","1595.07","ND","ND","0.2","229.9","24.9","69.3","0","0"],
    [21481,"2012-10-17T20:00:00","87.5","ND","86.29","2588.20","ND","ND","0.3","337.9","24","72.3","0","0"],
    [21482,"2012-10-17T21:00:00","55.8","ND","75.14","3436.71","ND","ND","0.2","270","23.5","74.4","0","0"],
    [21483,"2012-10-17T22:00:00","63.4","ND","55.60","3328.34","ND","ND","0.3","94.3","23.3","75.1","0","0"],
    [21484,"2012-10-17T23:00:00","54.5","ND","46.97","3326.09","ND","ND","0.5","193","22.9","80","0","0"],
    [21485,"2012-10-18T00:00:00","64.4","ND","37.93","2582.20","ND","ND","0.6","123","23.1","78.6","0","0"],
    [21486,"2012-10-18T01:00:00","33.2","ND","29.36","2094.48","ND","ND","0.5","92.6","22.3","80.4","0","0"],
    [21487,"2012-10-18T02:00:00","17.8","ND","26.15","1839.07","ND","ND","0.3","125.1","21.8","82.4","0","0"],
    [21488,"2012-10-18T03:00:00","9.8","ND","10.92","1121.97","ND","ND","1.4","166.6","21.6","85.7","0","0"],
    [21489,"2012-10-18T04:00:00","12.1","ND","14.26","1166.51","ND","ND","0.7","136.3","21.4","87.6","0","0"],
    [21490,"2012-10-18T05:00:00","6.8","ND","18.68","1188.36","ND","ND","0.4","139.8","21.1","89.3","0","0"],
    [21491,"2012-10-18T06:00:00","20","ND","10.32","1153.23","ND","ND","0.6","76.6","20.9","91.5","0","0"],
    [21492,"2012-10-18T07:00:00","11.9","ND","12.13","1141.14","ND","ND","0.5","29.1","20.4","94","3.1","0.51"],
    [21493,"2012-10-18T08:00:00","21.5","ND","26.74","1263.27","ND","ND","0.5","45.6","20.3","95","12.4","2.79"],
    [21494,"2012-10-18T09:00:00","21.1","ND","31.37","1533.45","ND","ND","0.5","44.9","20.3","95.8","49","3.05"],
    [21495,"2012-10-18T10:00:00","24.9","ND","34.68","1758.96","ND","ND","1.6","48.8","20.3","95.1","60.7","1.52"],
    [21496,"2012-10-18T11:00:00","14.4","ND","26.84","1409.42","ND","ND","1","50.1","20.3","95.5","135.5","3.56"],
    [21497,"2012-10-18T12:00:00","9.1","ND","20.56","1274.12","ND","ND","0.3","134.7","21.3","91.6","209","0.51"],
    [21498,"2012-10-18T13:00:00","7","ND","17.61","1255.84","ND","ND","0.5","118.8","22.3","84.5","141.5","0"],
    [21499,"2012-10-18T14:00:00","9.9","ND","25.36","1441.74","ND","ND","1.5","163.4","22.4","85.3","102.4","0"],
    [21500,"2012-10-18T15:00:00","6.3","ND","28.27","1442.23","ND","ND","2","171.2","21.7","87.8","82.3","0.51"],
    [21501,"2012-10-18T16:00:00","5.2","ND","28.74","1563.43","ND","ND","1.5","176.2","21.7","88.4","106.2","0"],
    [21502,"2012-10-18T17:00:00","27.7","ND","35.78","1756.03","ND","ND","1.3","174.7","22","85","40.7","0"],
    [21503,"2012-10-18T18:00:00","24.8","ND","41.07","1848.54","ND","ND","1.5","186.8","21.8","86.5","9.4","0"],
    [21504,"2012-10-18T19:00:00","14.8","ND","56.53","2141.95","ND","ND","1.4","215.7","21.9","82.6","0","0"],
    [21505,"2012-10-18T20:00:00","29","ND","66.99","2562.14","ND","ND","0.7","187.2","22","79.7","0","0"],
    [21506,"2012-10-18T21:00:00","29.2","ND","57.54","2699.10","ND","ND","0.3","343.2","21.4","85.9","0","0"],
    [21507,"2012-10-18T22:00:00","51.5","ND","44.92","2071.14","ND","ND","0.2","34.9","21.1","89.7","0","0"],
    [21508,"2012-10-18T23:00:00","50","ND","45.09","2295.15","ND","ND","0.1","284.1","20.7","91.8","0","0"],
    [21509,"2012-10-19T00:00:00","37.5","ND","46.50","2924.31","ND","ND","0.1","350.5","20.7","92.5","0","0"],
    [21510,"2012-10-19T01:00:00","39.4","ND","44.03","2642.04","ND","ND","0.1","52.5","20.5","92.7","0","0"],
    [21511,"2012-10-19T02:00:00","35.3","ND","40.74","2346.88","ND","ND","0.2","50","20.4","93.4","0","0.25"],
    [21512,"2012-10-19T03:00:00","19.8","ND","38.61","1770.84","ND","ND","0.3","48.9","20.1","95.3","0","0.51"],
    [21513,"2012-10-19T04:00:00","10.6","ND","34.14","1498.60","ND","ND","0.2","77.1","19.9","96","0","2.29"],
    [21514,"2012-10-19T05:00:00","16.3","ND","28.23","1294.90","ND","ND","0.1","75.5","19.8","96.7","0","0"],
    [21515,"2012-10-19T06:00:00","20.8","ND","24.02","1305.72","ND","ND","0.2","154.2","19.9","96.4","0.3","0.25"],
    [21516,"2012-10-19T07:00:00","35.4","ND","24.81","1362.46","ND","ND","0.3","139.5","20.1","96","14.1","0"],
    [21517,"2012-10-19T08:00:00","19.1","ND","35.23","1487.34","ND","ND","1.1","151.1","20.7","91.2","95","0"],
    [21518,"2012-10-19T09:00:00","18.6","ND","39.04","1942.01","ND","ND","1.6","159.2","21.6","85.5","186.8","0"],
    [21519,"2012-10-19T10:00:00","20.8","ND","41.17","2400.98","ND","ND","1.1","170.7","22.5","79.7","332.4","0"],
    [21520,"2012-10-19T11:00:00","12.4","ND","55.73","2646.87","ND","ND","0.4","80","24","71.1","470.1","0"],
    [21521,"2012-10-19T12:00:00","35.8","ND","46.12","2009.50","ND","ND","1.1","70.4","24.6","70.1","476.4","0"],
    [21522,"2012-10-19T13:00:00","28.6","ND","26.80","1578.82","ND","ND","1.1","66.5","25.4","66.2","475.1","0"],
    [21523,"2012-10-19T14:00:00","35.3","ND","26.87","1537.17","ND","ND","1.2","42","25.6","65.2","384.2","0"],
    [21524,"2012-10-19T15:00:00","36.2","ND","22.93","1457.85","ND","ND","1.5","39.5","25.4","66.1","282","0"],
    [21525,"2012-10-19T16:00:00","32.4","ND","20.18","1422.46","ND","ND","1.2","60.7","25.6","65.8","302.3","0"],
    [21526,"2012-10-19T17:00:00","38","ND","16.44","1297.14","ND","ND","0.6","35.4","25.7","65.5","143.1","0"],
    [21527,"2012-10-19T18:00:00","63.5","ND","18.52","1286.09","ND","ND","0.8","23.1","25","68.3","22.5","0"],
    [21528,"2012-10-19T19:00:00","76.2","ND","29.81","1374.73","ND","ND","0.7","325.1","23.9","73.5","0","0"],
    [21529,"2012-10-19T20:00:00","95","ND","46.03","1746.31","ND","ND","0.3","288.4","23","78.9","0","0"],
    [21530,"2012-10-19T21:00:00","94","ND","73.22","2253.08","ND","ND","0.3","263.3","22.5","82","0","0"],
    [21531,"2012-10-19T22:00:00","89.2","ND","65.55","2578.71","ND","ND","0.1","163","22.4","82.1","0","0"],
    [21532,"2012-10-19T23:00:00","65.7","ND","65.07","2929.88","ND","ND","0.1","178.1","22.4","81.4","0","0"],
    [21533,"2012-10-20T00:00:00","75.3","ND","65.42","3906.51","ND","ND","1.1","152.9","22.5","80.5","0","0"],
    [21534,"2012-10-20T01:00:00","76.4","ND","53.79","3192.15","ND","ND","0.1","253.6","22","81.9","0","0"],
    [21535,"2012-10-20T02:00:00","64.7","ND","58.79","2642.39","ND","ND","0.1","350.1","21.6","84.5","0","0"],
    [21536,"2012-10-20T03:00:00","58.2","ND","49.01","2480.26","ND","ND","0.1","55.1","21.3","85.6","0","0"],
    [21537,"2012-10-20T04:00:00","81.8","ND","41.05","2285.39","ND","ND","0.3","39.5","20.9","87.9","0","0"],
    [21538,"2012-10-20T05:00:00","70","ND","35.31","1920.74","ND","ND","0.1","91.3","20.7","89.3","0","0"],
    [21539,"2012-10-20T06:00:00","75.1","ND","30.02","1671.03","ND","ND","0","254.2","20.6","89.3","0.3","0"],
    [21540,"2012-10-20T07:00:00","64.7","ND","26.98","1760.76","ND","ND","0","105","20.8","87.6","29.2","0"],
    [21541,"2012-10-20T08:00:00","110.3","ND","26.89","1942.67","ND","ND","0.4","38.2","21.5","84.3","104.2","0"],
    [21542,"2012-10-20T09:00:00","97.9","ND","32.29","2275.63","ND","ND","0.3","80.9","22.6","77.9","226.3","0"],
    [21543,"2012-10-20T10:00:00","114.7","ND","54.76","2761.41","ND","ND","1","67.8","24.4","72.6","500","0"],
    [21544,"2012-10-20T11:00:00","76.2","ND","66.52","2721.06","ND","ND","0.7","144.8","26","62.9","461.4","0"],
    [21545,"2012-10-20T12:00:00","75","ND","74.15","2563.28","ND","ND","1.2","155.4","27.1","57.9","695.5","0"],
    [21546,"2012-10-20T13:00:00","38.3","ND","39.62","1788.20","ND","ND","1.4","70.7","28","54.7","659.8","0"],
    [21547,"2012-10-20T14:00:00","43.3","ND","23.86","1539.00","ND","ND","1.5","65.2","28.9","52.6","742","0"],
    [21548,"2012-10-20T15:00:00","31.6","ND","19.50","1392.72","ND","ND","1.5","56.3","29.6","51.2","480.2","0"],
    [21549,"2012-10-20T16:00:00","34.1","ND","15.26","1361.05","ND","ND","2.2","301.4","29.4","47.4","440.1","0"],
    [21550,"2012-10-20T17:00:00","17.9","ND","17.66","1313.65","ND","ND","4.8","285.1","28.2","46.7","227.4","0"],
    [21551,"2012-10-20T18:00:00","10","ND","8.81","1146.33","ND","ND","0.8","323.6","27.3","48.4","33.2","0"],
    [21552,"2012-10-20T19:00:00","22.3","ND","5.39","1073.64","ND","ND","0.3","110.4","26.3","52.6","0","0"],
    [21553,"2012-10-20T20:00:00","73.3","ND","14.62","1242.65","ND","ND","0.1","202.2","25.1","59.8","0","0"],
    [21554,"2012-10-20T21:00:00","73.8","ND","40.66","1948.19","ND","ND","0.5","196.6","24","63.9","0","0"],
    [21555,"2012-10-20T22:00:00","89.7","ND","52.97","3824.91","ND","ND","0.3","181.8","23.1","69.5","0","0"],
    [21556,"2012-10-20T23:00:00","70.7","ND","47.20","4223.10","ND","ND","0.3","339.2","22.5","72.3","0","0"],
    [21557,"2012-10-21T00:00:00","56.8","ND","40.51","3737.43","ND","ND","0.5","356.3","22.1","73.5","0","0"],
    [21558,"2012-10-21T01:00:00","35.8","ND","36.52","2858.84","ND","ND","0.1","227.6","22","72.9","0","0"],
    [21559,"2012-10-21T02:00:00","42.1","ND","34.31","2370.22","ND","ND","0.4","289.7","21","78.7","0","0"],
    [21560,"2012-10-21T03:00:00","23","ND","32.35","2079.62","ND","ND","0.3","8.8","20.6","79.2","0","0"],
    [21561,"2012-10-21T04:00:00","38.5","ND","30.06","2121.94","ND","ND","0.5","219","20.6","79.8","0","0"],
    [21562,"2012-10-21T05:00:00","21.6","ND","28.52","2031.65","ND","ND","0.3","258.3","20","82.6","0","0"],
    [21563,"2012-10-21T06:00:00","21.5","ND","26.57","2230.24","ND","ND","0.1","269.7","19.5","84.6","0.6","0"],
    [21564,"2012-10-21T07:00:00","29.7","ND","24.03","1979.06","ND","ND","0.1","14.9","20.2","82.5","53.6","0"],
    [21565,"2012-10-21T08:00:00","56.1","ND","22.68","1938.71","ND","ND","1","48.5","21.6","77.3","153.2","0"],
    [21566,"2012-10-21T09:00:00","41.9","ND","24.50","2231.10","ND","ND","1","84.5","24.1","68.4","431.3","0"],
    [21567,"2012-10-21T10:00:00","33.3","ND","37.69","2101.55","ND","ND","1.3","111.5","26","59.4","519.5","0"],
    [21568,"2012-10-21T11:00:00","18","ND","38.89","1850.62","ND","ND","2.2","126.8","27.5","55.8","748","0"],
    [21569,"2012-10-21T12:00:00","19.1","ND","17.28","1328.50","ND","ND","1.9","152.9","28.2","54.1","596.2","0"],
    [21570,"2012-10-21T13:00:00","11.3","ND","11.57","1320.02","ND","ND","1.4","198.5","28.9","51.9","589.7","0"],
    [21571,"2012-10-21T14:00:00","6.2","ND","11.35","1311.48","ND","ND","1.3","192.5","30.4","46.8","691.5","0"],
    [21572,"2012-10-21T15:00:00","5.3","ND","12.27","1317.99","ND","ND","0.2","257.7","30.9","45","542.7","0"],
    [21573,"2012-10-21T16:00:00","6.2","ND","11.77","1331.85","ND","ND","2.1","8.7","30.7","46.4","424.4","0"],
    [21574,"2012-10-21T17:00:00","3.7","ND","12.92","1330.97","ND","ND","3.1","279.6","29.7","46.8","209.5","0"],
    [21575,"2012-10-21T18:00:00","6.6","ND","7.25","1152.04","ND","ND","1.4","284.1","28.4","46","21.2","0"],
    [21576,"2012-10-21T19:00:00","4","ND","5.56","1112.33","ND","ND","0.4","202.7","27.3","50.7","0","0"],
    [21577,"2012-10-21T20:00:00","2","ND","10.19","1165.99","ND","ND","0.4","79.8","26.4","55.7","0","0"],
    [21578,"2012-10-21T21:00:00","9.8","ND","21.61","1427.23","ND","ND","0.6","162.3","25.5","62.1","0","0"],
    [21579,"2012-10-21T22:00:00","28.6","ND","33.71","1767.20","ND","ND","0.3","64.4","24.3","68.9","0","0"],
    [21580,"2012-10-21T23:00:00","16.2","ND","33.48","2102.97","ND","ND","0.3","21","24","70.4","0","0"],
    [21581,"2012-10-22T00:00:00","21.3","ND","28.16","1918.16","ND","ND","0.3","10.8","23.5","72.3","0","0"],
    [21582,"2012-10-22T01:00:00","11.6","ND","29.95","2120.10","ND","ND","0.3","3","23.2","75","0","0"],
    [21583,"2012-10-22T02:00:00","16.2","ND","25.68","1628.32","ND","ND","0.6","357.8","22.2","82.6","0","33.27"],
    [21584,"2012-10-22T03:00:00","9.9","ND","22.67","1282.37","ND","ND","0.3","284.9","20.4","97.6","0","10.41"],
    [21585,"2012-10-22T04:00:00","15.8","ND","21.05","1342.23","ND","ND","0.4","227.4","20.7","97.9","0","18.03"],
    [21586,"2012-10-22T05:00:00","10","ND","14.79","1208.11","ND","ND","0.5","143.6","20.8","97.6","0","5.84"],
    [21587,"2012-10-22T06:00:00","6.3","ND","13.17","1185.93","ND","ND","1.2","11.7","20.5","96.2","0","0.25"],
    [21588,"2012-10-22T07:00:00","4.2","ND","15.64","1184.72","ND","ND","2.3","43.7","20.3","96.9","9.2","4.06"],
    [21589,"2012-10-22T08:00:00","10.8","ND","16.91","1183.92","ND","ND","0.5","58.7","20.3","94","69.2","3.05"],
    [21590,"2012-10-22T09:00:00","6.5","ND","19.52","1443.25","ND","ND","1","38.9","20.6","92.3","103","0.76"],
    [21591,"2012-10-22T10:00:00","5","ND","23.70","1591.46","ND","ND","1","267.9","21.3","89","252.2","0.76"],
    [21592,"2012-10-22T11:00:00","2.5","ND","20.09","1380.29","ND","ND","1.2","223.1","22.2","80.1","273","0"],
    [21593,"2012-10-22T12:00:00","1.3","ND","16.46","1271.02","ND","ND","1.6","175.7","23.8","73.2","680.6","0"],
    [21594,"2012-10-22T13:00:00","2.6","ND","16.49","1346.37","ND","ND","0.7","176.8","25.1","66.2","428.4","0"],
    [21595,"2012-10-22T14:00:00","8.4","ND","28.09","1627.31","ND","ND","0.7","172.2","25.2","65.5","235.6","0"],
    [21596,"2012-10-22T15:00:00","23.1","ND","25.76","1559.07","ND","ND","0.6","39.4","25.2","65.6","143.1","0"],
    [21597,"2012-10-22T16:00:00","19","ND","31.25","1639.32","ND","ND","0.9","61.2","25.3","64.1","152.2","0"],
    [21598,"2012-10-22T17:00:00","10.5","ND","36.25","1685.74","ND","ND","0.3","85.2","25.3","62.4","59.7","0"],
    [21599,"2012-10-22T18:00:00","37.9","ND","39.27","1536.66","ND","ND","0.5","265.3","24.2","68.2","11","0"],
    [21600,"2012-10-22T19:00:00","37.9","ND","30.94","1485.29","ND","ND","0.4","262.1","22.5","76.7","0","0"],
    [21601,"2012-10-22T20:00:00","45.8","ND","58.91","2476.47","ND","ND","1.1","251.1","22.9","72.5","0","0"],
    [21602,"2012-10-22T21:00:00","67","ND","63.06","3355.73","ND","ND","0.4","84","22.9","74.4","0","0"],
    [21603,"2012-10-22T22:00:00","116.6","ND","58.59","2468.45","ND","ND","0.4","133.7","22.5","78.6","0","0"],
    [21604,"2012-10-22T23:00:00","71","ND","65.72","2874.07","ND","ND","0.1","293.4","21.5","81.8","0","0"],
    [21605,"2012-10-23T00:00:00","78.1","ND","61.70","3736.10","ND","ND","0.1","263","20.7","86.6","0","0"],
    [21606,"2012-10-23T01:00:00","49.7","ND","37.16","1908.14","ND","ND","0.8","289.5","20.8","84","0","0"],
    [21607,"2012-10-23T02:00:00","65.7","ND","32.98","2247.63","ND","ND","0","202.8","20.2","85.7","0","0"],
    [21608,"2012-10-23T03:00:00","100.2","ND","34.91","1949.98","ND","ND","0.4","1.1","19.7","87","0","0"],
    [21609,"2012-10-23T04:00:00","86.7","ND","32.67","1912.90","ND","ND","0.1","287.5","19.2","89.3","0","0"],
    [21610,"2012-10-23T05:00:00","71.5","ND","30.25","1718.66","ND","ND","0.1","228.6","19.2","89.3","0","0"],
    [21611,"2012-10-23T06:00:00","61.1","ND","28.31","1640.03","ND","ND","0.4","161.9","19.5","88","1.1","0"],
    [21612,"2012-10-23T07:00:00","77.1","ND","23.52","1596.74","ND","ND","0.9","12.5","19.1","89.7","67.4","0"],
    [21613,"2012-10-23T08:00:00","77.9","ND","28.06","1841.60","ND","ND","0.4","168","21.4","79.8","270.8","0"],
    [21614,"2012-10-23T09:00:00","56.5","ND","30.29","2195.63","ND","ND","0.8","145.1","23.7","68.2","495.6","0"],
    [21615,"2012-10-23T10:00:00","65.1","ND","52.73","2486.53","ND","ND","0.9","124","25.3","62.6","715","0"],
    [21616,"2012-10-23T11:00:00","44","ND","54.56","2064.17","ND","ND","0.9","147.1","26.7","57.2","697.1","0"],
    [21617,"2012-10-23T12:00:00","23","ND","33.62","1613.00","ND","ND","0.9","92.1","27.9","52.5","616.4","0"],
    [21618,"2012-10-23T13:00:00","6.8","ND","20.92","1457.51","ND","ND","0.8","63.5","28.5","50.7","585.7","0"],
    [21619,"2012-10-23T14:00:00","33.7","ND","20.50","1437.24","ND","ND","0.6","77.7","29.2","49.6","344.3","0"],
    [21620,"2012-10-23T15:00:00","18.8","ND","20.78","1428.96","ND","ND","3.1","290.6","29.1","49.8","530.8","0"],
    [21621,"2012-10-23T16:00:00","11.6","ND","16.50","1323.96","ND","ND","4.6","303.2","27.7","53.3","344","0"],
    [21622,"2012-10-23T17:00:00","19.2","ND","12.49","1225.35","ND","ND","2.3","295.1","27.2","54","89.3","0"],
    [21623,"2012-10-23T18:00:00","21.1","ND","4.90","1154.06","ND","ND","0.2","240.8","27.3","53","14.7","0"],
    [21624,"2012-10-23T19:00:00","16.4","ND","9.47","1235.26","ND","ND","1.3","115.2","27.2","54.8","0","0"],
    [21625,"2012-10-23T20:00:00","32.8","ND","22.10","1500.28","ND","ND","1.5","203.4","26.1","58.6","0","0"],
    [21626,"2012-10-23T21:00:00","17.6","ND","40.96","2196.19","ND","ND","1.1","288.7","24.2","68.5","0","0"],
    [21627,"2012-10-23T22:00:00","12.5","ND","31.58","1805.20","ND","ND","1.3","104.2","24","73","0","0"],
    [21628,"2012-10-23T23:00:00","15.4","ND","10.61","1278.77","ND","ND","0.4","21.7","21.9","87.1","0","0.76"],
    [21629,"2012-10-24T00:00:00","14.2","ND","33.21","1825.24","ND","ND","0.3","152.6","22","89.4","0","0.25"],
    [21630,"2012-10-24T01:00:00","8.8","ND","28.13","1587.70","ND","ND","0.1","316.8","21.9","90.5","0","0"],
    [21631,"2012-10-24T02:00:00","6","ND","34.84","1745.88","ND","ND","0.7","352","21.9","86.9","0","0"],
    [21632,"2012-10-24T03:00:00","5.1","ND","31.03","1734.55","ND","ND","0.7","358.8","21.8","84.8","0","0"],
    [21633,"2012-10-24T04:00:00","26.5","ND","28.60","1541.30","ND","ND","0.6","14.4","21.6","86.3","0","0"],
    [21634,"2012-10-24T05:00:00","15.5","ND","25.27","1483.62","ND","ND","0.4","314.7","21.2","88.8","0","0"],
    [21635,"2012-10-24T06:00:00","22.8","ND","14.50","1232.79","ND","ND","0.2","230.9","21.4","88","0.1","0"],
    [21636,"2012-10-24T07:00:00","12.7","ND","18.33","1324.17","ND","ND","1","172.6","21.1","87.5","4.5","0.51"],
    [21637,"2012-10-24T08:00:00","32","ND","17.96","1356.74","ND","ND","0.7","178.7","20.6","91.6","32.3","0.51"],
    [21638,"2012-10-24T09:00:00","17.8","ND","30.01","1760.76","ND","ND","0.7","117.9","21.4","88.8","133.3","0"],
    [21639,"2012-10-24T10:00:00","15.3","ND","45.48","2738.88","ND","ND","0.3","72","23","80.8","370.7","0"],
    [21640,"2012-10-24T11:00:00","9.1","ND","60.22","3015.48","ND","ND","0.7","74.4","25.2","71.4","802.7","0"],
    [21641,"2012-10-24T12:00:00","23.6","ND","47.23","2052.01","ND","ND","0.7","69.8","26.6","61.5","696.9","0"],
    [21642,"2012-10-24T13:00:00","13","ND","41.37","1842.81","ND","ND","1.5","259.8","27","57.2","268","0"],
    [21643,"2012-10-24T14:00:00","7.4","ND","17.97","1418.55","ND","ND","2.8","268.6","26.3","54.5","147.8","0"],
    [21644,"2012-10-24T15:00:00","6","ND","14.04","1357.71","ND","ND","0.7","315.1","27.4","48.6","430.3","0"],
    [21645,"2012-10-24T16:00:00","7.3","ND","12.66","1316.51","ND","ND","1.1","238.5","28.2","47.1","342.3","0"],
    [21646,"2012-10-24T17:00:00","6.7","ND","12.96","1296.86","ND","ND","2.9","208.3","25.5","59.6","46.2","0"],
    [21647,"2012-10-24T18:00:00","22.6","ND","12.60","1296.71","ND","ND","3","174.7","22.2","81.6","5.1","0"],
    [21648,"2012-10-24T19:00:00","26.1","ND","16.98","1418.55","ND","ND","1.6","139.1","21","88.9","0","1.27"],
    [21649,"2012-10-24T20:00:00","37.2","ND","43.15","2023.11","ND","ND","1.1","31.2","19.8","93.7","0","2.54"],
    [21650,"2012-10-24T21:00:00","19.5","ND","48.95","2228.72","ND","ND","0.5","22.8","19.6","94.6","0","1.78"],
    [21651,"2012-10-24T22:00:00","18.9","ND","34.34","1721.02","ND","ND","0.4","36.8","19.8","94.7","0","3.81"],
    [21652,"2012-10-24T23:00:00","17.3","ND","26.65","1452.05","ND","ND","0.2","218.5","20","94.5","0","0.25"],
    [21653,"2012-10-25T00:00:00","14.1","ND","35.59","1441.77","ND","ND","0.5","145","20.3","93.5","0","0.25"],
    [21654,"2012-10-25T01:00:00","8.5","ND","35.04","1420.70","ND","ND","0.9","117.1","20.2","93.7","0","0"],
    [21655,"2012-10-25T02:00:00","5.9","ND","40.71","1611.83","ND","ND","0.8","33.9","19.8","95.3","0","0"],
    [21656,"2012-10-25T03:00:00","4.6","ND","35.55","1519.58","ND","ND","1.1","47.6","19.4","96.2","0","2.54"],
    [21657,"2012-10-25T04:00:00","4.3","ND","22.01","1337.65","ND","ND","0.7","47.3","19.4","96.8","0","0.25"],
    [21658,"2012-10-25T05:00:00","3","ND","12.62","1247.73","ND","ND","0.7","71.2","19.5","96.8","0","0.51"],
    [21659,"2012-10-25T06:00:00","2.6","ND","13.44","1169.44","ND","ND","0.7","109.8","19.8","95","0.1","0"],
    [21660,"2012-10-25T07:00:00","2.5","ND","16.91","1215.67","ND","ND","0.3","135.6","19.9","93.9","9.3","0"],
    [21661,"2012-10-25T08:00:00","14.5","ND","19.53","1317.42","ND","ND","1","116.8","20.4","90.2","55.5","0"],
    [21662,"2012-10-25T09:00:00","17.1","ND","23.20","1646.77","ND","ND","0.7","163.3","20.9","87.7","119.5","0"],
    [21663,"2012-10-25T10:00:00","30.4","ND","22.98","1864.25","ND","ND","0.9","157.5","21.9","81.3","177.7","0"],
    [21664,"2012-10-25T11:00:00","17.1","ND","26.21","1859.25","ND","ND","0.8","179","23","75.5","326.6","0"],
    [21665,"2012-10-25T12:00:00","25.5","ND","32.81","1820.67","ND","ND","0.7","161.8","24.1","70.5","446.8","0"],
    [21666,"2012-10-25T13:00:00","14.2","ND","27.55","1667.54","ND","ND","0.8","61.5","25.7","63.9","692.1","0"],
    [21667,"2012-10-25T14:00:00","38.7","ND","30.89","1722.45","ND","ND","0.4","50.3","26.6","60.9","552.9","0"],
    [21668,"2012-10-25T15:00:00","31.9","ND","24.96","1635.50","ND","ND","0.9","92.3","27.1","59.9","324.3","0"],
    [21669,"2012-10-25T16:00:00","39.2","ND","21.62","1499.78","ND","ND","0.6","194.1","27.1","59.1","217.1","0"],
    [21670,"2012-10-25T17:00:00","22","ND","21.53","1488.25","ND","ND","0.7","305.5","27.5","55.2","190.8","0"],
    [21671,"2012-10-25T18:00:00","19.5","ND","21.59","1444.02","ND","ND","0.4","163","26.2","56.3","19.7","0"],
    [21672,"2012-10-25T19:00:00","34.9","ND","20.31","1460.78","ND","ND","0.6","280.5","24.4","65.1","0","0"],
    [21673,"2012-10-25T20:00:00","38.6","ND","21.75","1497.72","ND","ND","0.7","263.5","23.9","67.7","0","0"],
    [21674,"2012-10-25T21:00:00","47.4","ND","41.49","2887.69","ND","ND","0.1","314.5","23.2","70.5","0.1","0"],
    [21675,"2012-10-25T22:00:00","53.6","ND","38.86","2482.34","ND","ND","0.2","77.1","22.8","72.8","0","0"],
    [21676,"2012-10-25T23:00:00","61.7","ND","39.73","2638.19","ND","ND","0.5","211.4","21.8","78.7","0","0"],
    [21677,"2012-10-26T00:00:00","80.6","ND","39.61","2935.26","ND","ND","0.2","242.9","21.2","81.4","0","0"],
    [21678,"2012-10-26T01:00:00","52.7","ND","34.98","3381.69","ND","ND","0.2","252.3","20.8","83.3","0","0"],
    [21679,"2012-10-26T02:00:00","72","ND","31.44","2642.94","ND","ND","0.1","268.6","20.9","83.9","0","0"],
    [21680,"2012-10-26T03:00:00","49.8","ND","27.84","2474.36","ND","ND","0.1","267.2","20.9","85.8","0","0"],
    [21681,"2012-10-26T04:00:00","53.8","ND","26.86","2214.50","ND","ND","0.4","243.2","20.5","86.9","0","0"],
    [21682,"2012-10-26T05:00:00","34.7","ND","22.17","2042.24","ND","ND","0.8","229.2","20.8","82.7","0","0"],
    [21683,"2012-10-26T06:00:00","48","ND","20.41","1773.25","ND","ND","0.6","346.9","20.6","84.5","0.5","0"],
    [21684,"2012-10-26T07:00:00","85","ND","19.67","1456.01","ND","ND","0.1","343.6","20.7","85.7","33.6","0"],
    [21685,"2012-10-26T08:00:00","98.5","ND","24.04","1851.69","ND","ND","0.2","325.7","21.9","80.2","119.3","0"],
    [21686,"2012-10-26T09:00:00","76.8","ND","33.66","3015.62","ND","ND","0.6","161.5","23.9","70.1","298.1","0"],
    [21687,"2012-10-26T10:00:00","68.3","ND","52.07","3058.89","ND","ND","0.9","136.7","25.4","64.7","408.8","0"],
    [21688,"2012-10-26T11:00:00","40.2","ND","79.40","3120.23","ND","ND","0.4","163.8","26.6","60.9","582.2","0"],
    [21689,"2012-10-26T12:00:00","40.9","ND","39.61","1934.95","ND","ND","1.1","100.6","28","56.7","784.4","0"],
    [21690,"2012-10-26T13:00:00","38.8","ND","30.97","1724.14","ND","ND","1.6","33","28.5","55.4","679.7","0"],
    [21691,"2012-10-26T14:00:00","43.3","ND","17.76","1483.60","ND","ND","1.8","45.7","29.1","53.6","590.6","0"],
    [21692,"2012-10-26T15:00:00","1.9","ND","15.90","1451.71","ND","ND","1.8","28.8","29.6","52.8","544.2","0"],
    [21693,"2012-10-26T16:00:00","ND","ND","21.13","1430.85","ND","ND","2.3","270.6","30.3","47.4","415.6","0"],
    [21694,"2012-10-26T17:00:00","1.3","ND","17.02","1375.86","ND","ND","2","286.3","29.7","48","192.6","0"],
    [21695,"2012-10-26T18:00:00","20.9","ND","12.00","1361.50","ND","ND","0.4","4.5","28.1","51.8","21.2","0"],
    [21696,"2012-10-26T19:00:00","31.2","ND","14.77","1389.03","ND","ND","0.2","168.9","27.1","55","0","0"],
    [21697,"2012-10-26T20:00:00","62.5","ND","32.64","1649.76","ND","ND","0.2","109.2","26.3","59","0","0"],
    [21698,"2012-10-26T21:00:00","73.7","ND","40.35","2692.42","ND","ND","0.8","142.9","26","60.5","0","0"],
    [21699,"2012-10-26T22:00:00","78.4","ND","52.38","3241.45","ND","ND","1.2","143.8","25","67.2","0","0"],
    [21700,"2012-10-26T23:00:00","42.5","ND","46.99","2749.46","ND","ND","0.3","118.6","23.9","72.7","0","0"],
    [21701,"2012-10-27T00:00:00","65.7","ND","35.52","2921.93","ND","ND","0.2","124.7","23.5","74.4","0","0"],
    [21702,"2012-10-27T01:00:00","35.4","ND","28.20","2427.86","ND","ND","0.4","159.1","22.9","75.8","0","0"],
    [21703,"2012-10-27T02:00:00","33","ND","26.95","2491.20","ND","ND","0.4","228.2","22.3","79.5","0","0"],
    [21704,"2012-10-27T03:00:00","37.5","ND","22.43","1770.96","ND","ND","0.4","219.4","22.1","82.2","0","0"],
    [21705,"2012-10-27T04:00:00","48.5","ND","19.45","1679.00","ND","ND","0.2","359.2","22","82.7","0","0"],
    [21706,"2012-10-27T05:00:00","48.5","ND","18.22","1757.82","ND","ND","0.2","305.5","21.6","83.8","0","0"],
    [21707,"2012-10-27T06:00:00","48.8","ND","17.43","1630.85","ND","ND","0.6","241.3","21.3","85.5","0.7","0"],
    [21708,"2012-10-27T07:00:00","50.4","ND","15.98","1493.43","ND","ND","0.3","285.4","21.3","85.2","46.6","0"],
    [21709,"2012-10-27T08:00:00","49.8","ND","15.92","1719.70","ND","ND","0.5","206.2","23.7","75.3","284.7","0"],
    [21710,"2012-10-27T09:00:00","33.3","ND","19.76","2155.75","ND","ND","0.7","186.7","25.5","65.6","461.9","0"],
    [21711,"2012-10-27T10:00:00","29.9","ND","38.81","2088.50","ND","ND","1.5","112.3","27.1","60.2","631.6","0"],
    [21712,"2012-10-27T11:00:00","37","ND","41.99","1915.11","ND","ND","1.3","100.4","28.1","55.9","739","0"],
    [21713,"2012-10-27T12:00:00","24.4","ND","25.81","1608.96","ND","ND","1.5","98.2","29.3","51.4","839.8","0"],
    [21714,"2012-10-27T13:00:00","21.3","ND","16.72","1382.94","ND","ND","1.1","67.7","30.7","48.5","829","0"],
    [21715,"2012-10-27T14:00:00","34.5","ND","15.61","1377.67","ND","ND","1.5","72.2","31.1","47","623.7","0"],
    [21716,"2012-10-27T15:00:00","19","ND","19.20","1414.56","ND","ND","0.6","331.7","32","45","490.9","0"],
    [21717,"2012-10-27T16:00:00","32.4","ND","19.62","1348.40","ND","ND","1.4","346.4","31","47.7","221.4","0"],
    [21718,"2012-10-27T17:00:00","17.2","ND","20.40","1355.66","ND","ND","1.2","295.4","31","47.8","191.6","0"],
    [21719,"2012-10-27T18:00:00","13.3","ND","15.60","1320.60","ND","ND","0.3","259.9","29.4","51","26.9","0"],
    [21720,"2012-10-27T19:00:00","18.3","ND","15.21","1348.53","ND","ND","0.7","95.9","28.1","54","0","0"],
    [21721,"2012-10-27T20:00:00","40.6","ND","24.13","1551.08","ND","ND","1","100.3","27.6","57","0","0"],
    [21722,"2012-10-27T21:00:00","31.4","ND","37.07","1652.51","ND","ND","1.2","142.7","26.9","58.8","0","0"],
    [21723,"2012-10-27T22:00:00","40.7","ND","50.27","2017.60","ND","ND","0.6","137","25.8","64.5","0","0"],
    [21724,"2012-10-27T23:00:00","28.4","ND","45.55","2262.91","ND","ND","0.5","178","24.6","70.8","0","0"],
    [21725,"2012-10-28T00:00:00","67.7","ND","35.74","2288.14","ND","ND","0.3","182.8","24.1","73.3","0","0"],
    [21726,"2012-10-28T01:00:00","46.5","ND","27.68","2101.55","ND","ND","0.7","144.8","23.6","75.8","0","0"],
    [21727,"2012-10-28T02:00:00","51.2","ND","28.29","2291.85","ND","ND","0.5","120.6","22.9","79.4","0","0"],
    [21728,"2012-10-28T03:00:00","27.4","ND","24.65","1831.43","ND","ND","0.3","206.7","22.7","80.8","0","0"],
    [21729,"2012-10-28T04:00:00","19.2","ND","19.38","1420.96","ND","ND","0.2","285.6","22.8","81.1","0","0"],
    [21730,"2012-10-28T05:00:00","14.6","ND","20.00","1717.10","ND","ND","0.4","150.2","22.8","80.6","0","0"],
    [21731,"2012-10-28T06:00:00","29.8","ND","20.77","1648.87","ND","ND","0.3","204.6","22.6","81.5","0.7","0"],
    [21732,"2012-10-28T07:00:00","33.6","ND","20.61","1477.30","ND","ND","0.3","158.9","22.5","81.1","58.6","0"],
    [21733,"2012-10-28T08:00:00","53.5","ND","20.08","1522.24","ND","ND","0.4","171","23.9","74.1","243.1","0"],
    [21734,"2012-10-28T09:00:00","30.6","ND","22.14","1620.76","ND","ND","0.9","56.9","25.7","67.2","478.7","0"],
    [21735,"2012-10-28T10:00:00","29.1","ND","31.77","1791.35","ND","ND","1","59","26.9","63.1","630","0"],
    [21736,"2012-10-28T11:00:00","15.4","ND","28.11","1648.66","ND","ND","1","71.1","28.5","56.5","786.8","0"],
    [21737,"2012-10-28T12:00:00","10.2","ND","21.49","1425.65","ND","ND","1.2","40.3","29.6","53.2","789.7","0"],
    [21738,"2012-10-28T13:00:00","8","ND","13.73","1279.62","ND","ND","1.2","63.5","31.2","48.3","841.6","0"],
    [21739,"2012-10-28T14:00:00","25","ND","13.11","1286.39","ND","ND","0.9","47.2","31.7","45.5","401.8","0"],
    [21740,"2012-10-28T15:00:00","12.5","ND","10.42","1265.07","ND","ND","1.6","325","31.7","43.8","412.2","0"],
    [21741,"2012-10-28T16:00:00","6.3","ND","13.62","ND","ND","ND","3.6","271.8","31.5","45","416.9","0"],
    [21742,"2012-10-28T17:00:00","13.7","ND","4.97","ND","ND","ND","4","282.2","29.8","48","188.1","0"],
    [21743,"2012-10-28T18:00:00","13.7","ND","4.55","ND","ND","ND","3.2","277.4","28.8","50","20.4","0"],
    [21744,"2012-10-28T19:00:00","7.9","ND","4.29","ND","ND","ND","0.4","226.9","28.2","52.4","0","0"],
    [21745,"2012-10-28T20:00:00","12.1","ND","5.96","ND","ND","ND","0.5","104.9","27.6","55.7","0","0"],
    [21746,"2012-10-28T21:00:00","6.8","ND","14.84","ND","ND","ND","1.2","102.5","27.2","58.1","0","0"],
    [21747,"2012-10-28T22:00:00","12","ND","31.33","ND","ND","ND","1","124.2","26.5","61.9","0","0"],
    [21748,"2012-10-28T23:00:00","7.1","ND","31.04","ND","ND","ND","0.6","136.4","25.7","66.1","0","0"],
    [21749,"2012-10-29T00:00:00","4.8","ND","26.37","ND","ND","ND","0.7","138.4","24.6","71.4","0","0"],
    [21750,"2012-10-29T01:00:00","4","ND","22.65","ND","ND","ND","0.7","170.1","23.8","76.3","0","0"],
    [21751,"2012-10-29T02:00:00","4.5","ND","19.13","ND","ND","ND","0.2","288.1","23.2","77.7","0","0"],
    [21752,"2012-10-29T03:00:00","16.7","ND","17.47","ND","ND","ND","0.3","22.5","23.1","78.7","0","0"],
    [21753,"2012-10-29T04:00:00","26","ND","16.96","ND","ND","ND","0.3","11","22.8","81.8","0","0"],
    [21754,"2012-10-29T05:00:00","18.9","ND","16.36","ND","ND","ND","0.2","39.9","22.6","82.3","0","0"],
    [21755,"2012-10-29T06:00:00","29.7","ND","16.89","ND","ND","ND","0.5","224.2","22.3","83.3","1.1","0"],
    [21756,"2012-10-29T07:00:00","20.1","ND","16.57","ND","ND","ND","0.8","154.8","23","79.5","36.5","0"],
    [21757,"2012-10-29T08:00:00","32.8","ND","18.26","ND","ND","ND","0.9","153.3","24.5","71.7","279.4","0"],
    [21758,"2012-10-29T09:00:00","34.4","ND","22.24","ND","ND","ND","1.5","152.4","25.7","66.4","409.5","0"],
    [21759,"2012-10-29T10:00:00","10.9","ND","32.68","ND","ND","ND","1.5","159.1","26.8","61.5","594.5","0"],
    [21760,"2012-10-29T11:00:00","7.3","ND","22.95","ND","ND","ND","1.4","135.1","28.2","57.1","560.6","0"],
    [21761,"2012-10-29T12:00:00","11.6","ND","18.31","ND","ND","ND","0.9","155.4","28.9","55","567","0"],
    [21762,"2012-10-29T13:00:00","7.2","ND","17.10","ND","ND","ND","0.6","274.9","29.8","51.9","507","0"],
    [21763,"2012-10-29T14:00:00","7.8","ND","13.24","ND","ND","ND","3.7","274.5","30.2","46.6","615.1","0"],
    [21764,"2012-10-29T15:00:00","5.2","ND","16.04","ND","ND","ND","4.6","283.6","29.6","46.5","478.5","0"],
    [21765,"2012-10-29T16:00:00","3.8","ND","7.25","ND","ND","ND","5.4","282.6","28.8","47.6","356.8","0"],
    [21766,"2012-10-29T17:00:00","7.7","ND","7.00","ND","ND","ND","3.7","281.4","27.9","48.6","96.3","0"],
    [21767,"2012-10-29T18:00:00","6.3","ND","5.42","ND","ND","ND","1","315.9","27.3","49.4","12","0"],
    [21768,"2012-10-29T19:00:00","21.6","ND","8.96","ND","ND","ND","0.3","189.4","26.7","52.4","0","0"],
    [21769,"2012-10-29T20:00:00","15.2","ND","18.96","ND","ND","ND","1.3","236.7","26","57.5","0","0"],
    [21770,"2012-10-29T21:00:00","29.9","ND","31.92","ND","ND","ND","1.5","98.8","25.3","64.4","0","0"],
    [21771,"2012-10-29T22:00:00","16.9","ND","15.31","ND","ND","ND","0.6","138.2","24.4","68.7","0","0"],
    [21772,"2012-10-29T23:00:00","27.6","ND","33.21","ND","ND","ND","0.4","108.2","23.9","72.6","0","0"],
    [21773,"2012-10-30T00:00:00","44.3","ND","33.16","ND","ND","ND","0.6","167.2","23.6","73.8","0","0"],
    [21774,"2012-10-30T01:00:00","34.2","ND","39.12","ND","ND","ND","0.3","192.9","23.3","74.7","0","0"],
    [21775,"2012-10-30T02:00:00","37.8","ND","34.72","ND","ND","ND","0.3","141.4","23","75.7","0","0"],
    [21776,"2012-10-30T03:00:00","29.7","ND","24.19","ND","ND","ND","0.2","95.9","22.6","76.5","0","0"],
    [21777,"2012-10-30T04:00:00","32.9","ND","25.97","ND","ND","ND","0.1","65.5","22.3","79.3","0","0"],
    [21778,"2012-10-30T05:00:00","17.8","ND","18.81","ND","ND","ND","0.7","255.3","21.9","80.6","0","0"],
    [21779,"2012-10-30T06:00:00","34","ND","23.88","ND","ND","ND","0.2","359.3","22.1","78.9","0.5","0"],
    [21780,"2012-10-30T07:00:00","28.9","ND","18.20","ND","ND","ND","0.1","340.2","21.9","81.4","42.6","0"],
    [21781,"2012-10-30T08:00:00","53.3","ND","21.36","ND","ND","ND","0.5","136.5","23.2","76.3","130.1","0"],
    [21782,"2012-10-30T09:00:00","37.7","ND","32.85","ND","ND","ND","0.7","104","24.4","71.8","274.8","0"],
    [21783,"2012-10-30T10:00:00","41.9","ND","45.84","ND","ND","ND","1.4","96.3","25.6","64.5","573.1","0"],
    [21784,"2012-10-30T11:00:00","23.1","ND","51.33","ND","ND","ND","1.4","123.6","26.6","59.7","435.7","0"],
    [21785,"2012-10-30T12:00:00","16.1","ND","19.01","ND","ND","ND","1","109.7","26.9","59.3","373.2","0"],
    [21786,"2012-10-30T13:00:00","24.9","ND","13.48","ND","ND","ND","1.3","26.2","27.4","58.8","561.3","0"],
    [21787,"2012-10-30T14:00:00","34.6","ND","17.20","ND","ND","ND","1.6","35.5","27.7","58.6","471.1","0"],
    [21788,"2012-10-30T15:00:00","35.4","ND","16.50","ND","ND","ND","1.4","51.7","28.6","55.6","551.2","0"],
    [21789,"2012-10-30T16:00:00","56.2","ND","17.99","ND","ND","ND","0.8","32.9","28.2","56.5","130.3","0"],
    [21790,"2012-10-30T17:00:00","29.8","ND","23.53","ND","ND","ND","2.5","253.8","27.2","56.5","32.4","0"],
    [21791,"2012-10-30T18:00:00","34.9","ND","36.85","ND","ND","ND","3.9","204","24.3","68.8","8.1","0"],
    [21792,"2012-10-30T19:00:00","21.5","ND","20.97","ND","ND","ND","2.6","248.8","24.7","64.8","0.6","0"],
    [21793,"2012-10-30T20:00:00","15","ND","22.99","1785.35","ND","ND","0.4","96.8","24.3","69.3","0","0"],
    [21794,"2012-10-30T21:00:00","65","ND","17.02","1657.23","ND","ND","1.6","16","23.4","74.6","0","0"],
    [21795,"2012-10-30T22:00:00","33.3","ND","40.73","2221.94","ND","ND","0.2","74.4","22.4","83.5","0","0"],
    [21796,"2012-10-30T23:00:00","18.1","ND","34.35","1771.55","ND","ND","0.8","118.8","22.4","83.5","0","0"],
    [21797,"2012-10-31T00:00:00","10.7","ND","31.66","1669.35","ND","ND","1.4","177","21.9","84.3","0","0"],
    [21798,"2012-10-31T01:00:00","6.3","ND","39.85","1768.56","ND","ND","2","194.3","21.1","89.2","0","0.51"],
    [21799,"2012-10-31T02:00:00","4.7","ND","36.69","1797.68","ND","ND","1.6","188.7","20.9","87.5","0","0"],
    [21800,"2012-10-31T03:00:00","4.9","ND","25.45","1593.08","ND","ND","0.7","179.1","21","84.9","0","0"],
    [21801,"2012-10-31T04:00:00","3.6","ND","9.57","1412.79","ND","ND","0.6","155.6","21","86.2","0","0"],
    [21802,"2012-10-31T05:00:00","3","ND","4.40","1356.28","ND","ND","1.1","158.9","20.2","91.2","0","0.25"],
    [21803,"2012-10-31T06:00:00","3.3","ND","9.12","1465.30","ND","ND","1.2","108.1","20","93.2","0","6.35"],
    [21804,"2012-10-31T07:00:00","2.1","ND","8.37","1385.45","ND","ND","1","149.5","19.6","96.1","2.2","11.18"],
    [21805,"2012-10-31T08:00:00","12.7","ND","20.53","1484.80","ND","ND","0.8","151.3","19.9","96.8","124","6.6"],
    [21806,"2012-10-31T09:00:00","9.1","ND","35.84","1902.94","ND","ND","0.9","168.5","22.1","85.7","476.6","0"],
    [21807,"2012-10-31T10:00:00","6.8","ND","48.72","2665.98","ND","ND","1.5","124.9","24.2","71.5","618.2","0"],
    [21808,"2012-10-31T11:00:00","5.9","ND","59.00","2799.20","ND","ND","1.3","103.1","25.6","63.9","723.3","0"],
    [21809,"2012-10-31T12:00:00","4.6","ND","38.76","2135.12","ND","ND","1.3","126.4","26.3","61.5","643.9","0"],
    [21810,"2012-10-31T13:00:00","3.4","ND","23.21","1794.94","ND","ND","1.2","85.6","27.1","58.8","622.1","0"],
    [21811,"2012-10-31T14:00:00","4.1","ND","14.57","1626.69","ND","ND","1.7","50.9","27.6","58.8","539.1","0"],
    [21812,"2012-10-31T15:00:00","4.3","ND","12.79","1548.51","ND","ND","1.4","87.6","28.3","56.9","586.2","0"],
    [21813,"2012-10-31T16:00:00","4","ND","11.79","1528.95","ND","ND","0.9","51.7","28.6","56.1","315.7","0"],
    [21814,"2012-10-31T17:00:00","10.4","ND","10.81","1518.88","ND","ND","0.7","21.6","28.9","55.5","224","0"],
    [21815,"2012-10-31T18:00:00","26.4","ND","20.28","1566.81","ND","ND","1.5","236.3","27.8","54.8","27.1","0"],
    [21816,"2012-10-31T19:00:00","14.8","ND","22.95","1607.36","ND","ND","1.9","255.7","26.2","59.2","0","0"],
    [21817,"2012-10-31T20:00:00","38.1","ND","23.92","1886.36","ND","ND","0.7","111.4","26.1","60.3","0","0"],
    [21818,"2012-10-31T21:00:00","55.7","ND","30.89","2104.20","ND","ND","0","258.2","25.1","65.8","0","0"],
    [21819,"2012-10-31T22:00:00","68.7","ND","46.74","2280.52","ND","ND","0.6","131.9","24.2","72.3","0","0"],
    [21820,"2012-10-31T23:00:00","47.1","ND","49.35","3176.24","ND","ND","1","173.3","23.3","77.4","0","0"],
    [21821,"2012-11-01T00:00:00","55.5","ND","43.39","3109.67","ND","ND","0.3","129.3","22.9","78","0","0"],
    [21822,"2012-11-01T01:00:00","ND","ND","37.20","2843.84","ND","ND","0.1","349.3","22.5","79.7","0","0"],
    [21823,"2012-11-01T02:00:00","ND","ND","37.41","2431.03","ND","ND","0.3","54.8","22.3","81.4","0","0"],
    [21824,"2012-11-01T03:00:00","ND","ND","36.23","2259.10","ND","ND","0.5","339.6","21.1","86.4","0","0"],
    [21825,"2012-11-01T04:00:00","ND","ND","33.33","2046.41","ND","ND","0.4","268","21.1","86.9","0","0"],
    [21826,"2012-11-01T05:00:00","ND","ND","26.97","1831.60","ND","ND","0.3","155.3","21.7","83.9","0","0"],
    [21827,"2012-11-01T06:00:00","ND","ND","24.85","2039.26","ND","ND","0.5","47","21","86.3","0.4","0"],
    [21828,"2012-11-01T07:00:00","ND","ND","23.43","1763.16","ND","ND","0.1","49.3","20.9","86","26.5","0"],
    [21829,"2012-11-01T08:00:00","ND","ND","28.74","2214.50","ND","ND","0.5","59.4","22","81.5","116.7","0"],
    [21830,"2012-11-01T09:00:00","ND","ND","33.43","2426.92","ND","ND","0.6","109.7","23.5","74.2","280.7","0"],
    [21831,"2012-11-01T10:00:00","ND","ND","43.87","2541.85","ND","ND","0.7","149.4","25.7","65","545","0"],
    [21832,"2012-11-01T11:00:00","ND","ND","52.82","2331.05","ND","ND","0.5","172.4","27.2","58.6","761.6","0"],
    [21833,"2012-11-01T12:00:00","ND","ND","40.38","2181.18","ND","ND","1.1","95.4","28.8","53.1","884.9","0"],
    [21834,"2012-11-01T13:00:00","ND","ND","18.41","1786.73","ND","ND","1.3","57.3","28.9","54.1","479","0"],
    [21835,"2012-11-01T14:00:00","ND","ND","18.43","1775.72","ND","ND","0.1","57","29.6","52.2","438.9","0"],
    [21836,"2012-11-01T15:00:00","ND","ND","15.40","1733.30","ND","ND","3.2","255","30.3","48.1","529.7","0"],
    [21837,"2012-11-01T16:00:00","ND","ND","18.96","1760.63","ND","ND","3.3","265.2","29.9","47.8","406.4","0"],
    [21838,"2012-11-01T17:00:00","ND","ND","12.25","1618.58","ND","ND","2.8","274.2","28.9","50.3","129.1","0"],
    [21839,"2012-11-01T18:00:00","ND","ND","12.21","1578.42","ND","ND","0.5","72.6","27.9","52.6","9.9","0"],
    [21840,"2012-11-01T19:00:00","ND","ND","14.21","1573.19","ND","ND","0.4","184.3","27.5","53.4","0","0"],
    [21841,"2012-11-01T20:00:00","ND","ND","29.80","1871.45","ND","ND","1.7","157.2","26.3","59.6","0","0"],
    [21842,"2012-11-01T21:00:00","ND","ND","34.30","2105.61","ND","ND","0.6","349.6","25.1","66.4","0","0"],
    [21843,"2012-11-01T22:00:00","ND","ND","37.59","2097.16","ND","ND","0.5","146.2","23.9","73.2","0","0"],
    [21844,"2012-11-01T23:00:00","ND","ND","44.27","2180.03","ND","ND","0.2","212.7","23.3","75.7","0","0"],
    [21845,"2012-11-02T00:00:00","ND","ND","46.61","2084.50","ND","ND","0.3","306.4","22.5","78.1","0","0"],
    [21846,"2012-11-02T01:00:00","ND","ND","45.91","1999.35","ND","ND","0.4","340.9","22.4","77.3","0","0"],
    [21847,"2012-11-02T02:00:00","ND","ND","35.34","1760.20","ND","ND","0.4","315.6","21.7","84.4","0","0"],
    [21848,"2012-11-02T03:00:00","ND","ND","29.54","1688.05","ND","ND","0.4","87.9","21.5","84.2","0","0"],
    [21849,"2012-11-02T04:00:00","ND","ND","32.55","1856.73","ND","ND","0","286.4","21.2","85.2","0","0"],
    [21850,"2012-11-02T05:00:00","ND","ND","25.06","1628.64","ND","ND","0.3","299.8","20.8","85.2","0","0"],
    [21851,"2012-11-02T06:00:00","ND","ND","24.86","1603.83","ND","ND","0.1","184.6","20.8","84.3","0.6","0"],
    [21852,"2012-11-02T07:00:00","ND","ND","22.54","1626.42","ND","ND","0.1","242.2","21.6","81.2","26.2","0"],
    [21853,"2012-11-02T08:00:00","ND","ND","27.18","1710.13","ND","ND","0.6","75.1","22.8","78.3","136.9","0"],
    [21854,"2012-11-02T09:00:00","ND","ND","37.82","2331.16","ND","ND","1","92.3","24","72.5","357.6","0"],
    [21855,"2012-11-02T10:00:00","ND","ND","56.61","3436.71","ND","ND","1.1","112","25.4","66","536.5","0"],
    [21856,"2012-11-02T11:00:00","ND","ND","38.13","2145.16","ND","ND","0.9","148.3","26.9","60.1","682","0"],
    [21857,"2012-11-02T12:00:00","ND","ND","32.18","1925.36","ND","ND","0.3","89.7","28.5","54.5","700.7","0"],
    [21858,"2012-11-02T13:00:00","ND","ND","24.89","1796.55","ND","ND","0.7","6.1","28.8","52.6","313.9","0"],
    [21859,"2012-11-02T14:00:00","ND","ND","25.12","1763.53","ND","ND","1.2","319.8","28.8","50.5","341.7","0"],
    [21860,"2012-11-02T15:00:00","ND","ND","21.10","1670.71","ND","ND","2","247.9","30.3","43.1","601","0"],
    [21861,"2012-11-02T16:00:00","ND","ND","16.20","1527.44","ND","ND","1.8","225.3","29.6","46.8","147.2","0"],
    [21862,"2012-11-02T17:00:00","ND","ND","7.67","1477.38","ND","ND","2.3","258.4","29","48.7","197","0"],
    [21863,"2012-11-02T18:00:00","ND","ND","17.29","1636.99","ND","ND","1.3","299.2","27.6","51.5","21.9","0"],
    [21864,"2012-11-02T19:00:00","ND","ND","15.45","1640.96","ND","ND","0.7","236.9","27","54.2","0","0"],
    [21865,"2012-11-02T20:00:00","ND","ND","14.28","1568.48","ND","ND","0.8","178.4","26.5","56.3","0","0"],
    [21866,"2012-11-02T21:00:00","ND","ND","38.80","2440.91","ND","ND","0.8","148.7","25.8","62.2","0","0"],
    [21867,"2012-11-02T22:00:00","ND","ND","39.75","2274.39","ND","ND","1.6","176.2","25","67.4","0","0"],
    [21868,"2012-11-02T23:00:00","ND","ND","43.75","2680.72","ND","ND","1.1","183.3","23.8","71.6","0","0"],
    [21869,"2012-11-03T00:00:00","ND","ND","36.04","2430.32","ND","ND","0.4","251.8","23.6","73","0","0"],
    [21870,"2012-11-03T01:00:00","ND","ND","31.17","1824.36","ND","ND","0.3","292.4","23.3","75","0","0"],
    [21871,"2012-11-03T02:00:00","ND","ND","32.45","1811.12","ND","ND","0.9","39","22.8","75.9","0","0"],
    [21872,"2012-11-03T03:00:00","ND","ND","29.39","1762.58","ND","ND","0.3","13.3","22.3","77.7","0","0"],
    [21873,"2012-11-03T04:00:00","ND","ND","37.25","1759.60","ND","ND","0.5","247.4","22.1","80.8","0","4.06"],
    [21874,"2012-11-03T05:00:00","ND","ND","28.13","1656.31","ND","ND","0.2","66.5","21.4","87.9","0","0.25"],
    [21875,"2012-11-03T06:00:00","ND","ND","25.47","1641.06","ND","ND","0.7","18.2","21.3","89.8","0.5","0"],
    [21876,"2012-11-03T07:00:00","ND","ND","27.25","1674.45","ND","ND","0.5","146.6","21.5","90.3","43.4","0"],
    [21877,"2012-11-03T08:00:00","ND","ND","28.85","1720.87","ND","ND","1.2","112.4","22.9","81.2","254.8","0"],
    [21878,"2012-11-03T09:00:00","ND","ND","32.78","2002.06","ND","ND","1.1","142.3","24.5","71.8","456.2","0"],
    [21879,"2012-11-03T10:00:00","ND","ND","37.61","2230.19","ND","ND","1.5","158.7","25.4","68","446.8","0"],
    [21880,"2012-11-03T11:00:00","ND","ND","31.08","1996.03","ND","ND","1.5","131.4","26.9","61.4","738.9","0"],
    [21881,"2012-11-03T12:00:00","ND","ND","22.35","1787.01","ND","ND","1.8","137.1","28.2","57.8","721.4","0"],
    [21882,"2012-11-03T13:00:00","ND","ND","19.27","1736.86","ND","ND","1.4","117.7","29.4","52.3","848.2","0"],
    [21883,"2012-11-03T14:00:00","ND","ND","18.02","1743.78","ND","ND","0.4","155.5","30.3","49.2","595.2","0"],
    [21884,"2012-11-03T15:00:00","ND","ND","17.08","1737.31","ND","ND","2.4","284.1","30.3","49.5","503.4","0"],
    [21885,"2012-11-03T16:00:00","ND","ND","16.41","1702.33","ND","ND","3","281.9","30.3","47.6","509.4","0"],
    [21886,"2012-11-03T17:00:00","ND","ND","9.97","1515.78","ND","ND","1.5","296.5","29.7","48.2","205.6","0"],
    [21887,"2012-11-03T18:00:00","ND","ND","7.65","ND","ND","ND","0.5","232.2","27.3","59","11.3","0"],
    [21888,"2012-11-03T19:00:00","ND","ND","9.07","ND","ND","ND","0.5","273.5","27.4","53.9","0","0"],
    [21889,"2012-11-03T20:00:00","ND","ND","23.75","ND","ND","ND","0.3","80.4","26.8","57.4","0","0"],
    [21890,"2012-11-03T21:00:00","ND","ND","17.87","ND","ND","ND","0.7","193","26.4","58.7","0","0"],
    [21891,"2012-11-03T22:00:00","ND","ND","39.59","ND","ND","ND","1","123.8","25.9","62.5","0","0"],
    [21892,"2012-11-03T23:00:00","ND","ND","36.21","ND","ND","ND","0.7","116.9","25.2","66.7","0","0"],
    [21893,"2012-11-04T00:00:00","ND","ND","38.69","ND","ND","ND","0.8","83.6","24.4","71.8","0","0"],
    [21894,"2012-11-04T01:00:00","ND","ND","34.32","ND","ND","ND","0.3","157.7","23.9","74.4","0","0"],
    [21895,"2012-11-04T02:00:00","ND","ND","29.12","ND","ND","ND","0.3","166.4","23.9","74.8","0","0"],
    [21896,"2012-11-04T03:00:00","ND","ND","29.95","ND","ND","ND","0.8","144.5","23.7","74.3","0","0"],
    [21897,"2012-11-04T04:00:00","ND","ND","29.05","ND","ND","ND","1","165.7","23.1","77","0","0"],
    [21898,"2012-11-04T05:00:00","ND","ND","25.60","ND","ND","ND","0.5","166.6","23","78.6","0","0"],
    [21899,"2012-11-04T06:00:00","ND","ND","21.10","ND","ND","ND","0.1","189.7","22.8","81.2","0.5","0"],
    [21900,"2012-11-04T07:00:00","ND","ND","23.67","ND","ND","ND","0.2","4.5","22.9","80","57.3","0"],
    [21901,"2012-11-04T08:00:00","ND","ND","25.15","ND","ND","ND","0.6","135.3","24.8","71.1","297.7","0"],
    [21902,"2012-11-04T09:00:00","ND","ND","23.36","ND","ND","ND","1.7","102.9","25.5","68.3","307.6","0"],
    [21903,"2012-11-04T10:00:00","ND","ND","18.92","ND","ND","ND","1.2","158.8","25.9","65.5","337.9","0"],
    [21904,"2012-11-04T11:00:00","ND","ND","16.89","ND","ND","ND","1.6","199.9","27.1","60.3","468.3","0"],
    [21905,"2012-11-04T12:00:00","ND","ND","10.75","ND","ND","ND","1.3","192.9","28.5","54.6","777.1","0"],
    [21906,"2012-11-04T13:00:00","ND","ND","11.70","ND","ND","ND","0.8","82.4","29.7","50.6","536.2","0"],
    [21907,"2012-11-04T14:00:00","ND","ND","10.56","ND","ND","ND","0.9","358.5","28.9","52","185.6","0"],
    [21908,"2012-11-04T15:00:00","ND","ND","10.76","ND","ND","ND","1.6","257.9","30.1","48","536.3","0"],
    [21909,"2012-11-04T16:00:00","ND","ND","9.37","ND","ND","ND","1.4","251.5","29.8","47.7","247.8","0"],
    [21910,"2012-11-04T17:00:00","ND","ND","4.27","ND","ND","ND","2","245.6","28.6","51.3","94","0"],
    [21911,"2012-11-04T18:00:00","ND","ND","5.57","ND","ND","ND","1.4","240.1","27.9","53","15.5","0"],
    [21912,"2012-11-04T19:00:00","ND","ND","9.43","ND","ND","ND","2","232","26.7","56.8","0","0"],
    [21913,"2012-11-04T20:00:00","ND","ND","15.48","ND","ND","ND","0.8","25.2","26.2","58.9","0","0"],
    [21914,"2012-11-04T21:00:00","ND","ND","14.81","ND","ND","ND","0.5","353.9","24.8","70.2","0","0"],
    [21915,"2012-11-04T22:00:00","ND","ND","17.82","ND","ND","ND","0.3","315.2","24.1","72.3","0","0"],
    [21916,"2012-11-04T23:00:00","ND","ND","29.16","ND","ND","ND","0.8","227.9","24.2","71.3","0","0"],
    [21917,"2012-11-05T00:00:00","ND","ND","29.98","ND","ND","ND","0.4","245.7","24","70.2","0","0"],
    [21918,"2012-11-05T01:00:00","ND","ND","34.61","ND","ND","ND","0.4","18.6","23.8","70.8","0","0"],
    [21919,"2012-11-05T02:00:00","ND","ND","32.58","ND","ND","ND","0.2","24.2","23.1","78.4","0","0"],
    [21920,"2012-11-05T03:00:00","ND","ND","21.05","ND","ND","ND","0.9","7.3","22.6","80.6","0","0"],
    [21921,"2012-11-05T04:00:00","ND","ND","32.49","ND","ND","ND","0.7","344.2","22.3","83.1","0","0"],
    [21922,"2012-11-05T05:00:00","ND","ND","27.17","ND","ND","ND","1.2","28.5","22","84.3","0","0"],
    [21923,"2012-11-05T06:00:00","ND","ND","21.53","ND","ND","ND","1","36.7","21","90.2","0.7","0"],
    [21924,"2012-11-05T07:00:00","ND","ND","26.29","ND","ND","ND","0.2","133.9","21.4","89.4","68.8","0"],
    [21925,"2012-11-05T08:00:00","ND","ND","14.10","ND","ND","ND","0.4","82.9","22.5","84.4","173","0"],
    [21926,"2012-11-05T09:00:00","ND","ND","23.14","ND","ND","ND","0.7","130.1","24.4","74.9","355.9","0"],
    [21927,"2012-11-05T10:00:00","ND","ND","24.53","ND","ND","ND","0.8","135.1","25.5","67.4","445.5","0"],
    [21928,"2012-11-05T11:00:00","ND","ND","27.92","ND","ND","ND","1","88.2","27","62.2","603.9","0"],
    [21929,"2012-11-05T12:00:00","ND","ND","22.49","ND","ND","ND","1","43.8","27.6","59.1","734","0"],
    [21930,"2012-11-05T13:00:00","ND","ND","22.02","ND","ND","ND","1.4","45.4","28.6","56.2","657.9","0"],
    [21931,"2012-11-05T14:00:00","ND","ND","12.22","ND","ND","ND","1.2","51.5","28.7","54.5","535.5","0"],
    [21932,"2012-11-05T15:00:00","ND","ND","7.59","ND","ND","ND","0.8","123.7","29.2","54.2","360.8","0"],
    [21933,"2012-11-05T16:00:00","ND","ND","4.91","ND","ND","ND","1.6","29.2","28.4","57.9","202.9","0"],
    [21934,"2012-11-05T17:00:00","ND","ND","5.52","ND","ND","ND","1.2","346.1","27.8","56.6","38.3","0"],
    [21935,"2012-11-05T18:00:00","ND","ND","9.43","ND","ND","ND","0.3","350","27.3","57.6","3.5","0"],
    [21936,"2012-11-05T19:00:00","ND","ND","13.51","ND","ND","ND","0.9","106.4","26.3","62.5","0","0"],
    [21937,"2012-11-05T20:00:00","ND","ND","14.91","ND","ND","ND","0.9","125","24.9","70.7","0","0"],
    [21938,"2012-11-05T21:00:00","ND","ND","26.89","ND","ND","ND","0","50.6","24.2","73.1","0","0"],
    [21939,"2012-11-05T22:00:00","ND","ND","47.26","ND","ND","ND","0.1","73.2","24.3","73.4","0","0"],
    [21940,"2012-11-05T23:00:00","ND","ND","38.88","ND","ND","ND","0","92.7","23.8","74.8","0","0"],
    [21941,"2012-11-06T00:00:00","ND","ND","43.01","ND","ND","ND","0.8","284","23.1","79.2","0","0"],
    [21942,"2012-11-06T01:00:00","ND","ND","39.41","ND","ND","ND","0.6","41","22.3","80.5","0","0"],
    [21943,"2012-11-06T02:00:00","ND","ND","36.28","ND","ND","ND","0.3","24","22.3","80.9","0","0"],
    [21944,"2012-11-06T03:00:00","ND","ND","28.76","ND","ND","ND","0.4","327.4","22.2","81.5","0","0"],
    [21945,"2012-11-06T04:00:00","ND","ND","29.22","ND","ND","ND","0.4","46","22.3","82.2","0","0"],
    [21946,"2012-11-06T05:00:00","ND","ND","27.81","ND","ND","ND","0.3","92.7","22","84.1","0","0"],
    [21947,"2012-11-06T06:00:00","ND","ND","28.19","ND","ND","ND","0.7","139.2","21.6","86.8","0.3","0.25"],
    [21948,"2012-11-06T07:00:00","ND","ND","28.36","ND","ND","ND","0.3","323","21.6","87.9","20.2","0"],
    [21949,"2012-11-06T08:00:00","ND","ND","24.07","ND","ND","ND","1.1","18.5","22.5","83.9","129.3","0"],
    [21950,"2012-11-06T09:00:00","ND","ND","25.92","ND","ND","ND","1.3","50.4","22.9","82.7","169.5","0"],
    [21951,"2012-11-06T10:00:00","ND","ND","33.96","ND","ND","ND","1.1","66.7","24.2","74.5","437.5","0"],
    [21952,"2012-11-06T11:00:00","ND","ND","31.63","ND","ND","ND","1.6","75.2","26.5","64.2","811.5","0"],
    [21953,"2012-11-06T12:00:00","ND","ND","12.89","ND","ND","ND","2","57.4","27.5","60.7","927","0"],
    [21954,"2012-11-06T13:00:00","ND","ND","9.42","ND","ND","ND","1.7","53.7","28.5","57.6","742.3","0"],
    [21955,"2012-11-06T14:00:00","ND","ND","10.35","ND","ND","ND","0.6","286.5","28.6","55.3","216.8","0"],
    [21956,"2012-11-06T15:00:00","ND","ND","13.32","ND","ND","ND","1.9","266.2","27.7","53.6","65.7","0"],
    [21957,"2012-11-06T16:00:00","ND","ND","16.21","ND","ND","ND","1.9","252.1","25.8","64","79.7","0"],
    [21958,"2012-11-06T17:00:00","ND","ND","17.19","ND","ND","ND","1","240.2","27","57.5","79.4","0"],
    [21959,"2012-11-06T18:00:00","ND","ND","25.50","ND","ND","ND","1.1","242.6","27","56.6","35.6","0.25"],
    [21960,"2012-11-06T19:00:00","ND","ND","32.76","ND","ND","ND","0.1","270.8","26.3","58.2","0","0"],
    [21961,"2012-11-06T20:00:00","ND","ND","34.60","ND","ND","ND","0.5","139.4","25.9","57.9","0","0"],
    [21962,"2012-11-06T21:00:00","ND","ND","58.09","ND","ND","ND","0.4","101.5","25.3","59.8","0","0"],
    [21963,"2012-11-06T22:00:00","ND","ND","47.55","ND","ND","ND","1.3","137.9","24.7","64.2","0","0"],
    [21964,"2012-11-06T23:00:00","ND","ND","46.12","ND","ND","ND","0.7","223.4","23.5","71","0","0"],
    [21965,"2012-11-07T00:00:00","ND","ND","41.49","ND","ND","ND","0.4","281.3","22.6","74.1","0","0"],
    [21966,"2012-11-07T01:00:00","ND","ND","32.32","ND","ND","ND","0.6","350","21.8","80.3","0","0"],
    [21967,"2012-11-07T02:00:00","ND","ND","32.18","ND","ND","ND","0.4","289.4","21.6","79.9","0","0"],
    [21968,"2012-11-07T03:00:00","ND","ND","30.50","ND","ND","ND","0.1","53.6","21.9","77.4","0","0"],
    [21969,"2012-11-07T04:00:00","ND","ND","27.23","ND","ND","ND","0.4","44.9","21.9","78","0","0"],
    [21970,"2012-11-07T05:00:00","ND","ND","29.00","ND","ND","ND","0.4","326.5","21.3","85","0","0"],
    [21971,"2012-11-07T06:00:00","ND","ND","28.27","ND","ND","ND","0.2","40.6","21.3","85.6","0.6","0"],
    [21972,"2012-11-07T07:00:00","ND","ND","25.13","ND","ND","ND","0.6","269.9","21.3","85.2","18.5","0"],
    [21973,"2012-11-07T08:00:00","ND","ND","26.00","ND","ND","ND","0.7","153.2","22.7","76.8","81.3","0"],
    [21974,"2012-11-07T09:00:00","ND","ND","29.27","ND","ND","ND","0.9","94.2","23.5","74.8","101.5","0"],
    [21975,"2012-11-07T10:00:00","ND","ND","38.87","ND","ND","ND","0.6","157.7","25.5","66.3","612.8","0"],
    [21976,"2012-11-07T11:00:00","ND","ND","49.07","ND","ND","ND","ND","ND","ND","ND","ND","ND"],
    [21977,"2012-11-07T12:00:00","ND","ND","ND","ND","ND","ND","1","147.6","27.9","55.4","585.8","0"],
    [21978,"2012-11-07T13:00:00","ND","ND","ND","ND","ND","ND","0.4","191.4","28.7","49.8","561.3","0"],
    [21979,"2012-11-07T14:00:00","ND","ND","22.14","1716.55","ND","ND","0.4","230.9","30.2","44.8","514.3","0"],
    [21980,"2012-11-07T15:00:00","ND","ND","14.70","1643.49","ND","ND","2.5","288","30.3","44.1","483.9","0"],
    [21981,"2012-11-07T16:00:00","ND","ND","10.83","1585.74","ND","ND","3.2","287.5","29.5","45.5","384","0"],
    [21982,"2012-11-07T17:00:00","ND","ND","8.64","1523.41","ND","ND","2.6","262.3","29.4","45.6","176","0"],
    [21983,"2012-11-07T18:00:00","ND","ND","9.75","1546.15","ND","ND","0.5","269.2","27.9","48.4","17.3","0"],
    [21984,"2012-11-07T19:00:00","ND","ND","14.72","1631.03","ND","ND","0.5","101.7","27.3","50.2","0","0"],
    [21985,"2012-11-07T20:00:00","ND","ND","22.59","1777.85","ND","ND","0.4","122.7","26.4","54.7","0.1","0"],
    [21986,"2012-11-07T21:00:00","ND","ND","28.90","1887.62","ND","ND","0.2","50.9","25.1","60.5","0","0"],
    [21987,"2012-11-07T22:00:00","ND","ND","46.42","2555.56","ND","ND","0.3","135","24.5","65.4","0","0"],
    [21988,"2012-11-07T23:00:00","ND","ND","42.25","2767.72","ND","ND","0.4","154.6","23.5","68.9","0","0"],
    [21989,"2012-11-08T00:00:00","ND","ND","41.25","2929.39","ND","ND","0.3","153.9","23.3","71.1","0","0"],
    [21990,"2012-11-08T01:00:00","ND","ND","37.45","2688.21","ND","ND","0.3","203.5","23","73.6","0","0"],
    [21991,"2012-11-08T02:00:00","ND","ND","33.67","1991.36","ND","ND","0.3","237","23","73.8","0","0"],
    [21992,"2012-11-08T03:00:00","ND","ND","29.95","1775.15","ND","ND","0.9","150.3","22.9","75.1","0","0"],
    [21993,"2012-11-08T04:00:00","ND","ND","28.91","1842.81","ND","ND","1.3","189.9","22.5","77","0","0"],
    [21994,"2012-11-08T05:00:00","ND","ND","22.17","1601.76","ND","ND","1.4","186.5","22.2","79.3","0","0"],
    [21995,"2012-11-08T06:00:00","ND","ND","13.66","1497.99","ND","ND","0.6","167.8","22.1","81","0.3","0"],
    [21996,"2012-11-08T07:00:00","ND","ND","15.28","1497.49","ND","ND","0.6","276.8","22.1","81","12.1","0"],
    [21997,"2012-11-08T08:00:00","ND","ND","20.59","1622.28","ND","ND","0.4","264.6","22.6","78.8","60.2","0"],
    [21998,"2012-11-08T09:00:00","ND","ND","22.31","1988.67","ND","ND","0.3","67","23.6","74.7","184.4","0"],
    [21999,"2012-11-08T10:00:00","ND","ND","29.11","2257.65","ND","ND","0.8","48.4","24.2","74","264.9","0"],
    [22000,"2012-11-08T11:00:00","ND","ND","45.74","2559.27","ND","ND","0.7","17.1","25.4","68.1","391.3","0"],
    [22001,"2012-11-08T12:00:00","ND","ND","57.41","2581.08","ND","ND","1.8","53","26","65.3","401.7","0"],
    [22002,"2012-11-08T13:00:00","ND","ND","53.63","2241.43","ND","ND","1.4","69","26.8","62.1","469.5","0"],
    [22003,"2012-11-08T14:00:00","ND","ND","26.09","1774.89","ND","ND","1","86","27.5","59.6","350.5","0"],
    [22004,"2012-11-08T15:00:00","ND","ND","14.87","1617.31","ND","ND","0.8","100.4","27.8","58","316.9","0"],
    [22005,"2012-11-08T16:00:00","ND","ND","17.30","1665.17","ND","ND","1","60.4","28.2","57.2","214.6","0"],
    [22006,"2012-11-08T17:00:00","ND","ND","18.26","1644.23","ND","ND","0.6","255.7","28.3","54.5","174.4","0"],
    [22007,"2012-11-08T18:00:00","ND","ND","27.67","1725.86","ND","ND","0.6","258.5","27.7","54.5","15.8","0"],
    [22008,"2012-11-08T19:00:00","ND","ND","16.88","1618.38","ND","ND","0.4","288","26.4","58.3","0","0"],
    [22009,"2012-11-08T20:00:00","ND","ND","23.20","1910.64","ND","ND","0.5","64.7","25.9","59.7","0","0"],
    [22010,"2012-11-08T21:00:00","ND","ND","35.23","2436.02","ND","ND","0.9","218.8","25.2","62.1","0","0"],
    [22011,"2012-11-08T22:00:00","ND","ND","36.47","2418.85","ND","ND","0.8","139","24.6","66.7","0","0"],
    [22012,"2012-11-08T23:00:00","ND","ND","39.03","2928.82","ND","ND","0","241.3","23.3","73.4","0","0"],
    [22013,"2012-11-09T00:00:00","ND","ND","37.40","2756.55","ND","ND","0.4","134.1","22.8","76.5","0","0"],
    [22014,"2012-11-09T01:00:00","ND","ND","32.85","2524.47","ND","ND","0.6","349.8","22.1","80","0","0"],
    [22015,"2012-11-09T02:00:00","ND","ND","33.35","2212.19","ND","ND","0.2","122.3","22.1","81","0","0"],
    [22016,"2012-11-09T03:00:00","ND","ND","31.04","2223.54","ND","ND","0.8","176.6","22.2","80.3","0","0"],
    [22017,"2012-11-09T04:00:00","ND","ND","29.74","1963.28","ND","ND","0.9","349.2","21.2","85.8","0","0"],
    [22018,"2012-11-09T05:00:00","ND","ND","29.90","2114.97","ND","ND","0.3","121.8","21","86.9","0","0"],
    [22019,"2012-11-09T06:00:00","ND","ND","24.60","2000.51","ND","ND","0.5","354.9","21","86.4","0.9","0"],
    [22020,"2012-11-09T07:00:00","ND","ND","22.87","1910.09","ND","ND","0","224.9","21.7","81.8","48.1","0"],
    [22021,"2012-11-09T08:00:00","ND","ND","26.73","2254.51","ND","ND","1","183.6","23.2","74.4","125","0"],
    [22022,"2012-11-09T09:00:00","ND","ND","32.63","2846.72","ND","ND","1.5","139.4","24.9","66.3","175.8","0"],
    [22023,"2012-11-09T10:00:00","ND","ND","38.39","2691.27","ND","ND","0.4","25.5","25.5","67.5","340.5","0"],
    [22024,"2012-11-09T11:00:00","ND","ND","37.66","2237.68","ND","ND","1","134.7","26.5","62.5","391.9","0"],
    [22025,"2012-11-09T12:00:00","ND","ND","51.01","2394.86","ND","ND","0.2","99.3","27.4","58.8","483.2","0"],
    [22026,"2012-11-09T13:00:00","ND","ND","30.95","2009.41","ND","ND","1.4","51.1","28.2","56.7","531.1","0"],
    [22027,"2012-11-09T14:00:00","ND","ND","28.46","1968.45","ND","ND","1.5","51.6","28.8","55.5","451.1","0"],
    [22028,"2012-11-09T15:00:00","ND","ND","22.09","1844.74","ND","ND","1","53.8","29","54.3","322.3","0"],
    [22029,"2012-11-09T16:00:00","ND","ND","18.17","1741.48","ND","ND","0.6","9.4","29","53.2","182.3","0"],
    [22030,"2012-11-09T17:00:00","ND","ND","18.09","1671.82","ND","ND","0.8","261.2","28.7","51.7","95.6","0"],
    [22031,"2012-11-09T18:00:00","ND","ND","19.87","1704.95","ND","ND","0.3","259.6","27.8","53.6","15.4","0"],
    [22032,"2012-11-09T19:00:00","ND","ND","23.02","1827.07","ND","ND","0.2","106","27","55.2","0","0"],
    [22033,"2012-11-09T20:00:00","ND","ND","36.03","2168.20","ND","ND","0.1","113.9","26.2","59.7","0","0"],
    [22034,"2012-11-09T21:00:00","ND","ND","49.36","2852.55","ND","ND","0.6","73.7","25.6","62.8","0.1","0"],
    [22035,"2012-11-09T22:00:00","ND","ND","49.82","3776.64","ND","ND","0.5","124.7","24.7","68","0","0"],
    [22036,"2012-11-09T23:00:00","ND","ND","46.02","3730.92","ND","ND","0.6","168.5","23.8","73.2","0","0"],
    [22037,"2012-11-10T00:00:00","ND","ND","34.63","2920.95","ND","ND","0.1","122.9","23.1","76.5","0","0"],
    [22038,"2012-11-10T01:00:00","ND","ND","28.84","3084.80","ND","ND","0.2","232.7","22.4","78.6","0","0"],
    [22039,"2012-11-10T02:00:00","ND","ND","27.97","3179.71","ND","ND","0.1","321.4","21.8","80.8","0","0"],
    [22040,"2012-11-10T03:00:00","ND","ND","25.97","3048.59","ND","ND","0.4","0.6","21.4","83","0","0"],
    [22041,"2012-11-10T04:00:00","ND","ND","23.56","2512.52","ND","ND","0.5","281.5","21.1","85.6","0","0"],
    [22042,"2012-11-10T05:00:00","ND","ND","21.65","2238.62","ND","ND","0.2","258.2","21.2","84.9","0","0"],
    [22043,"2012-11-10T06:00:00","ND","ND","20.16","2148.90","ND","ND","0.2","233.4","21.5","83.3","1.1","0"],
    [22044,"2012-11-10T07:00:00","ND","ND","18.80","2196.38","ND","ND","0.2","71.8","21.9","83.7","66.1","0"],
    [22045,"2012-11-10T08:00:00","ND","ND","19.74","2346.74","ND","ND","0.1","125.7","23.5","75.7","206.3","0"],
    [22046,"2012-11-10T09:00:00","ND","ND","25.77","2598.84","ND","ND","0.7","119.9","25.5","66.8","326.2","0"],
    [22047,"2012-11-10T10:00:00","ND","ND","46.75","2788.50","ND","ND","0.7","62.8","26.7","62.9","554.6","0"],
    [22048,"2012-11-10T11:00:00","ND","ND","48.23","2465.59","ND","ND","0.7","151.2","28.5","55.1","681.6","0"],
    [22049,"2012-11-10T12:00:00","ND","ND","40.59","2248.58","ND","ND","0.8","63.8","28.8","54.1","390","0"],
    [22050,"2012-11-10T13:00:00","ND","ND","29.89","1972.37","ND","ND","1.4","40.9","29.7","52","594.2","0"],
    [22051,"2012-11-10T14:00:00","ND","ND","18.79","1768.79","ND","ND","1.7","1.9","30.5","48.1","539.4","0"],
    [22052,"2012-11-10T15:00:00","ND","ND","18.78","1715.12","ND","ND","1.9","297.1","30.3","47","302.8","0"],
    [22053,"2012-11-10T16:00:00","ND","ND","12.94","1504.12","ND","ND","2.3","269","29.4","48.7","232.5","0"],
    [22054,"2012-11-10T17:00:00","ND","ND","8.66","1522.90","ND","ND","1.5","253.6","29.4","47.6","123.1","0"],
    [22055,"2012-11-10T18:00:00","ND","ND","9.58","1511.28","ND","ND","0.7","241.4","28.4","50","19.7","0"],
    [22056,"2012-11-10T19:00:00","ND","ND","13.41","1587.39","ND","ND","1.3","245","27.3","53","0","0"],
    [22057,"2012-11-10T20:00:00","ND","ND","22.85","1754.76","ND","ND","1.2","249.5","26.6","56.8","0","0"],
    [22058,"2012-11-10T21:00:00","ND","ND","21.83","1773.71","ND","ND","0.9","85.5","26.3","59.6","0","0"],
    [22059,"2012-11-10T22:00:00","ND","ND","22.02","1875.49","ND","ND","0.3","24.4","25.1","66.2","0","0"],
    [22060,"2012-11-10T23:00:00","ND","ND","26.87","1982.57","ND","ND","0.2","355.7","24.5","68.7","0","0"],
    [22061,"2012-11-11T00:00:00","ND","ND","35.89","2333.12","ND","ND","0.6","27.2","24.2","72.2","0","0"],
    [22062,"2012-11-11T01:00:00","ND","ND","34.47","2353.62","ND","ND","0.3","319.5","23.8","73.9","0","0"],
    [22063,"2012-11-11T02:00:00","ND","ND","33.09","2053.79","ND","ND","0.4","66.3","23.7","74.4","0","0"],
    [22064,"2012-11-11T03:00:00","ND","ND","26.10","1733.73","ND","ND","0.3","72.5","23.7","74.8","0","0"],
    [22065,"2012-11-11T04:00:00","ND","ND","23.05","1631.07","ND","ND","0.6","41.5","23.3","76.5","0","0"],
    [22066,"2012-11-11T05:00:00","ND","ND","24.87","1651.65","ND","ND","0.7","3.8","22.3","82.9","0","0"],
    [22067,"2012-11-11T06:00:00","ND","ND","25.89","1759.60","ND","ND","0.6","15.3","21.4","87.7","0","0.25"],
    [22068,"2012-11-11T07:00:00","ND","ND","19.15","1652.38","ND","ND","0.2","342.7","21.4","88.7","11.4","0.25"],
    [22069,"2012-11-11T08:00:00","ND","ND","12.34","1493.93","ND","ND","0.8","44.1","21.4","88.4","34","1.27"],
    [22070,"2012-11-11T09:00:00","ND","ND","21.66","1641.06","ND","ND","1.1","10.2","21.8","87.1","118.9","0"],
    [22071,"2012-11-11T10:00:00","ND","ND","19.21","1643.29","ND","ND","1.1","49.2","22.7","83","197.9","0"],
    [22072,"2012-11-11T11:00:00","ND","ND","23.85","1568.74","ND","ND","0.6","110.3","24.1","75.7","348.9","0"],
    [22073,"2012-11-11T12:00:00","ND","ND","14.03","1461.95","ND","ND","0.2","156","24.9","70.3","344.9","0"],
    [22074,"2012-11-11T13:00:00","ND","ND","11.79","1534.60","ND","ND","1","60.3","25.8","65.9","361.1","0"],
    [22075,"2012-11-11T14:00:00","ND","ND","11.77","1596.67","ND","ND","0.8","25.9","26.1","65.1","361.1","0"],
    [22076,"2012-11-11T15:00:00","ND","ND","10.59","1529.28","ND","ND","1.1","62","26.6","65.2","302.1","0"],
    [22077,"2012-11-11T16:00:00","ND","ND","6.99","1485.77","ND","ND","1.5","54.7","26.6","65.5","239.2","0"],
    [22078,"2012-11-11T17:00:00","ND","ND","15.00","1508.80","ND","ND","1.6","44.8","26.3","65.1","126.9","0"],
    [22079,"2012-11-11T18:00:00","ND","ND","12.31","1507.29","ND","ND","1.3","51.5","25.8","67.3","18.5","0"],
    [22080,"2012-11-11T19:00:00","ND","ND","7.12","1435.85","ND","ND","0.3","194.9","25","69.3","0","0"],
    [22081,"2012-11-11T20:00:00","ND","ND","11.85","1546.57","ND","ND","0.3","256.4","24","70.4","0","0"],
    [22082,"2012-11-11T21:00:00","ND","ND","34.39","2329.20","ND","ND","0.3","339.3","23.2","75.2","0","0"],
    [22083,"2012-11-11T22:00:00","ND","ND","32.85","2573.43","ND","ND","0.4","8.6","22.7","77.5","0","0"],
    [22084,"2012-11-11T23:00:00","ND","ND","29.01","2773.71","ND","ND","0","25.4","22.3","79.7","0","0"],
    [22085,"2012-11-12T00:00:00","ND","ND","27.32","2043.41","ND","ND","0.3","225.6","21.9","81.6","0","0"],
    [22086,"2012-11-12T01:00:00","ND","ND","25.42","2097.33","ND","ND","0.7","30.8","21.4","83.4","0","0"],
    [22087,"2012-11-12T02:00:00","ND","ND","25.36","2569.11","ND","ND","0.3","264.9","21","84.8","0","0"],
    [22088,"2012-11-12T03:00:00","ND","ND","23.56","2090.93","ND","ND","0.1","257.5","21.6","83.1","0","0"],
    [22089,"2012-11-12T04:00:00","ND","ND","19.77","1789.41","ND","ND","0.1","234.2","21.8","83.6","0","0"],
    [22090,"2012-11-12T05:00:00","ND","ND","22.08","1971.95","ND","ND","0.3","31.8","21.9","83.7","0","0"],
    [22091,"2012-11-12T06:00:00","ND","ND","21.34","2063.32","ND","ND","1.1","25.4","20.4","88.7","0.2","0.25"],
    [22092,"2012-11-12T07:00:00","ND","ND","22.77","1894.91","ND","ND","0.4","143.8","20.6","91.1","28.4","0.25"],
    [22093,"2012-11-12T08:00:00","ND","ND","15.46","1546.31","ND","ND","0.5","149.6","21.7","86.4","94.7","0"],
    [22094,"2012-11-12T09:00:00","ND","ND","17.25","1778.69","ND","ND","0.3","175.8","23.2","79.5","231.4","0"],
    [22095,"2012-11-12T10:00:00","ND","ND","25.25","2095.19","ND","ND","0.8","162.2","25","70","455","0"],
    [22096,"2012-11-12T11:00:00","ND","ND","34.32","2119.37","ND","ND","0.4","163.3","26.7","63","572.6","0"],
    [22097,"2012-11-12T12:00:00","ND","ND","25.84","1843.43","ND","ND","0.2","64.2","27.9","57.9","573.2","0"],
    [22098,"2012-11-12T13:00:00","ND","ND","24.23","1885.51","ND","ND","1","338","28.3","56.4","510.6","0"],
    [22099,"2012-11-12T14:00:00","ND","ND","21.14","1853.27","ND","ND","1.2","294.3","30.3","45.4","715.9","0"],
    [22100,"2012-11-12T15:00:00","ND","ND","19.53","1655.69","ND","ND","2.4","283.2","30.2","43.8","483.9","0"],
    [22101,"2012-11-12T16:00:00","ND","ND","6.73","1457.00","ND","ND","3.6","284.4","30","43.5","453.1","0"],
    [22102,"2012-11-12T17:00:00","ND","ND","1.95","1409.44","ND","ND","2.1","282.8","29.6","44","183","0"],
    [22103,"2012-11-12T18:00:00","ND","ND","1.57","1407.58","ND","ND","1","241.6","27.9","48.2","12.7","0"],
    [22104,"2012-11-12T19:00:00","ND","ND","4.60","1434.38","ND","ND","0.9","247.6","26.7","52.7","0","0"],
    [22105,"2012-11-12T20:00:00","ND","ND","12.90","1636.04","ND","ND","2.2","195.5","26.6","55.9","0","0"],
    [22106,"2012-11-12T21:00:00","ND","ND","25.05","1854.33","ND","ND","1","96.9","25","70.1","0","0"],
    [22107,"2012-11-12T22:00:00","ND","ND","24.24","1844.43","ND","ND","1","6.1","23.4","78.9","0.1","0"],
    [22108,"2012-11-12T23:00:00","ND","ND","34.56","1994.05","ND","ND","1","9.4","22.7","81.8","0","0"],
    [22109,"2012-11-13T00:00:00","ND","ND","25.73","1864.30","ND","ND","1.1","352.3","22","84.6","0","0"],
    [22110,"2012-11-13T01:00:00","ND","ND","20.40","1633.07","ND","ND","0.4","7.2","21.7","85.4","0","0"],
    [22111,"2012-11-13T02:00:00","ND","ND","16.84","1529.44","ND","ND","0.3","48.1","21.9","82.8","0","0"],
    [22112,"2012-11-13T03:00:00","ND","ND","14.22","1496.47","ND","ND","0.4","315.4","21.7","83.1","0","0"],
    [22113,"2012-11-13T04:00:00","ND","ND","10.30","1484.13","ND","ND","0","246.7","21.8","82.1","0","0"],
    [22114,"2012-11-13T05:00:00","ND","ND","13.34","1529.96","ND","ND","0.2","235.8","21.9","81.2","0","0"],
    [22115,"2012-11-13T06:00:00","ND","ND","16.36","1541.82","ND","ND","0.7","16.8","21.6","83.4","0.3","0"],
    [22116,"2012-11-13T07:00:00","ND","ND","17.60","1517.60","ND","ND","0.3","49.7","21.5","84.4","8.6","0"],
    [22117,"2012-11-13T08:00:00","ND","ND","33.88","1845.41","ND","ND","0.6","52.8","22.2","82","49","0"],
    [22118,"2012-11-13T09:00:00","ND","ND","38.14","2167.55","ND","ND","0.5","67.5","23.4","75.2","198.7","0"],
    [22119,"2012-11-13T10:00:00","ND","ND","48.59","3065.14","ND","ND","0.6","85.5","25.9","65","614.8","0"],
    [22120,"2012-11-13T11:00:00","ND","ND","41.09","2010.87","ND","ND","1.1","81.9","26.9","62.5","351.9","0"],
    [22121,"2012-11-13T12:00:00","ND","ND","31.88","1856.19","ND","ND","0.2","253.3","27.3","61","338","0"],
    [22122,"2012-11-13T13:00:00","ND","ND","15.26","1708.58","ND","ND","0.9","226","29.3","53.2","848","0"],
    [22123,"2012-11-13T14:00:00","ND","ND","14.62","1708.34","ND","ND","1.1","325.7","29.2","52.5","409.1","0"],
    [22124,"2012-11-13T15:00:00","ND","ND","15.34","1731.01","ND","ND","0.5","121.6","30.8","48.3","690.7","0"],
    [22125,"2012-11-13T16:00:00","ND","ND","19.82","1716.82","ND","ND","0.7","283.1","29.7","50.4","120.5","0"],
    [22126,"2012-11-13T17:00:00","ND","ND","17.96","1640.78","ND","ND","1.2","243","27","63.7","70.2","0"],
    [22127,"2012-11-13T18:00:00","ND","ND","16.97","1683.81","ND","ND","0.8","245.2","27","58.3","15.3","0"],
    [22128,"2012-11-13T19:00:00","ND","ND","22.53","1983.67","ND","ND","0.2","251.6","26.6","58","0","0"],
    [22129,"2012-11-13T20:00:00","ND","ND","25.15","2096.20","ND","ND","0.8","144.1","26.2","59.4","0","0"],
    [22130,"2012-11-13T21:00:00","ND","ND","28.97","2380.96","ND","ND","0.1","352.8","25","64.8","0.1","0"],
    [22131,"2012-11-13T22:00:00","ND","ND","32.04","2359.95","ND","ND","0.8","168.8","24.6","68.1","0","0"],
    [22132,"2012-11-13T23:00:00","ND","ND","33.50","2734.33","ND","ND","0.7","131.3","24","75.9","0","0"],
    [22133,"2012-11-14T00:00:00","ND","ND","31.52","2363.45","ND","ND","0.5","141.2","23.8","77.8","0","0"],
    [22134,"2012-11-14T01:00:00","ND","ND","34.78","2110.84","ND","ND","0.5","212.2","23.6","75.7","0","0"],
    [22135,"2012-11-14T02:00:00","ND","ND","33.26","2063.81","ND","ND","0.7","152.2","23.2","75.4","0","0"],
    [22136,"2012-11-14T03:00:00","ND","ND","23.06","1673.87","ND","ND","0.9","174.8","23","78.6","0","0"],
    [22137,"2012-11-14T04:00:00","ND","ND","21.83","1570.33","ND","ND","0.4","131.5","23","81","0","0"],
    [22138,"2012-11-14T05:00:00","ND","ND","13.28","1558.95","ND","ND","0.3","291.1","22.8","81.8","0","0"],
    [22139,"2012-11-14T06:00:00","ND","ND","14.06","1580.64","ND","ND","1.2","158.3","22.8","82.5","0","0"],
    [22140,"2012-11-14T07:00:00","ND","ND","17.80","1660.24","ND","ND","1.8","147.6","22.4","80.8","7.8","0"],
    [22141,"2012-11-14T08:00:00","ND","ND","20.78","1635.28","ND","ND","1.6","135.9","22.5","77.6","78.9","0"],
    [22142,"2012-11-14T09:00:00","ND","ND","27.88","1885.75","ND","ND","1.5","121.6","23.6","72","392.5","0"],
    [22143,"2012-11-14T10:00:00","ND","ND","32.71","2155.03","ND","ND","1.3","78.5","25.6","64.7","624.4","0"],
    [22144,"2012-11-14T11:00:00","ND","ND","26.72","2008.85","ND","ND","1.1","83.9","27.1","59.6","735.3","0"],
    [22145,"2012-11-14T12:00:00","ND","ND","26.53","1949.72","ND","ND","1","117.2","28.1","55.2","579.2","0"],
    [22146,"2012-11-14T13:00:00","ND","ND","16.29","1678.41","ND","ND","1.7","135","28.2","55.3","254.6","0"],
    [22147,"2012-11-14T14:00:00","ND","ND","11.56","1621.07","ND","ND","0.8","210.9","28.3","55.3","175.8","0"],
    [22148,"2012-11-14T15:00:00","ND","ND","11.58","1575.28","ND","ND","2.2","257.8","28","55.1","156.5","0"],
    [22149,"2012-11-14T16:00:00","ND","ND","16.78","1620.00","ND","ND","2.3","263.2","27.1","60.7","108.2","0"],
    [22150,"2012-11-14T17:00:00","ND","ND","26.02","1661.30","ND","ND","2","254.5","27.2","60.4","45.1","0"],
    [22151,"2012-11-14T18:00:00","ND","ND","24.27","1638.77","ND","ND","0.4","272.1","27","58.2","16.7","0"],
    [22152,"2012-11-14T19:00:00","ND","ND","23.36","1637.68","ND","ND","0.7","92.5","26.6","59.1","0","0"],
    [22153,"2012-11-14T20:00:00","ND","ND","29.90","1819.78","ND","ND","0.4","176.7","26.2","60.5","0","0"],
    [22154,"2012-11-14T21:00:00","ND","ND","40.88","2507.48","ND","ND","1.2","139","25.4","64.2","0","0"],
    [22155,"2012-11-14T22:00:00","ND","ND","41.77","3120.23","ND","ND","0.6","214.8","24.4","69.1","0","0"],
    [22156,"2012-11-14T23:00:00","ND","ND","33.48","2286.60","ND","ND","1.8","224.3","24.7","65","0","0"],
    [22157,"2012-11-15T00:00:00","ND","ND","31.48","2334.69","ND","ND","1.1","187.8","24.6","64.6","0","0"],
    [22158,"2012-11-15T01:00:00","ND","ND","19.07","1716.10","ND","ND","0.8","71.4","23.7","76","0","0"],
    [22159,"2012-11-15T02:00:00","ND","ND","8.70","1288.89","ND","ND","1","15","22.4","81.8","0","0"],
    [22160,"2012-11-15T03:00:00","ND","ND","30.43","1544.43","ND","ND","0.9","8.9","22.3","81.4","0","0"],
    [22161,"2012-11-15T04:00:00","ND","ND","17.25","1350.92","ND","ND","1.3","47","21.8","85.1","0","0"],
    [22162,"2012-11-15T05:00:00","ND","ND","9.80","1303.30","ND","ND","1.4","12","21.4","85.6","0","0"],
    [22163,"2012-11-15T06:00:00","ND","ND","11.67","1301.53","ND","ND","1.6","20.7","20.4","91.2","0","0.25"],
    [22164,"2012-11-15T07:00:00","ND","ND","19.40","1319.67","ND","ND","0.9","350.8","20.3","91.7","20.9","1.27"],
    [22165,"2012-11-15T08:00:00","ND","ND","23.15","1330.50","ND","ND","0.7","86.2","21.1","81.5","57","0"],
    [22166,"2012-11-15T09:00:00","ND","ND","27.32","1548.94","ND","ND","0.4","133.5","21.5","80","85.3","0"],
    [22167,"2012-11-15T10:00:00","ND","ND","39.31","1879.37","ND","ND","1.6","140.9","22","80.5","152.1","0"],
    [22168,"2012-11-15T11:00:00","ND","ND","48.94","2302.17","ND","ND","2","170.1","21.8","81.8","231.5","0"],
    [22169,"2012-11-15T12:00:00","ND","ND","45.93","2153.28","ND","ND","2.3","177.2","22.5","79","326.6","0"],
    [22170,"2012-11-15T13:00:00","ND","ND","35.71","1953.91","ND","ND","1.1","180","23.8","73.6","300.5","0"],
    [22171,"2012-11-15T14:00:00","ND","ND","38.49","2030.97","ND","ND","0.9","190.4","24.4","69.6","158.7","0"],
    [22172,"2012-11-15T15:00:00","ND","ND","45.58","2172.27","ND","ND","0.4","245.9","25.2","66.7","346.8","0"],
    [22173,"2012-11-15T16:00:00","ND","ND","51.24","2189.58","ND","ND","1.4","37.7","25.9","65.3","227.8","0"],
    [22174,"2012-11-15T17:00:00","ND","ND","49.84","2171.74","ND","ND","0.9","43.8","25.5","66.7","104.8","0"],
    [22175,"2012-11-15T18:00:00","ND","ND","48.22","1881.95","ND","ND","1.5","148.1","24.9","68.7","14.8","0"],
    [22176,"2012-11-15T19:00:00","ND","ND","31.95","1626.22","ND","ND","1.1","203.1","24","73.3","0","0"],
    [22177,"2012-11-15T20:00:00","ND","ND","52.95","2112.26","ND","ND","0.6","264.6","23.5","77.1","0","0"],
    [22178,"2012-11-15T21:00:00","ND","ND","75.91","2906.59","ND","ND","0.1","305.1","23.1","79","0","0"],
    [22179,"2012-11-15T22:00:00","ND","ND","63.83","2629.48","ND","ND","0.2","42.5","23.2","77.3","0","0"],
    [22180,"2012-11-15T23:00:00","ND","ND","66.89","2732.85","ND","ND","0.5","113.5","23.1","77.9","0","0"],
    [22181,"2012-11-16T00:00:00","ND","ND","60.71","2766.08","ND","ND","0.1","161.8","22.8","79.2","0","0"],
    [22182,"2012-11-16T01:00:00","ND","ND","56.80","2763.27","ND","ND","0.3","25.3","22","85.6","0","2.54"],
    [22183,"2012-11-16T02:00:00","ND","ND","46.91","2324.85","ND","ND","0.2","10.2","20.9","93.9","0","7.87"],
    [22184,"2012-11-16T03:00:00","ND","ND","40.36","2169.30","ND","ND","0.7","7.2","20.7","94.1","0.1","0.25"],
    [22185,"2012-11-16T04:00:00","ND","ND","36.98","1885.56","ND","ND","0.1","56.8","20.8","93.8","0","0"],
    [22186,"2012-11-16T05:00:00","ND","ND","27.69","1761.96","ND","ND","0.2","52.1","20.7","94.2","0","0"],
    [22187,"2012-11-16T06:00:00","ND","ND","39.61","1704.91","ND","ND","0.1","74.4","20.6","95.1","0.2","0"],
    [22188,"2012-11-16T07:00:00","ND","ND","42.86","1760.76","ND","ND","0.2","115.7","20.6","94","22.9","0"],
    [22189,"2012-11-16T08:00:00","ND","ND","37.98","1647.89","ND","ND","0.9","182.8","21.4","89.3","84","0"],
    [22190,"2012-11-16T09:00:00","ND","ND","36.06","1980.59","ND","ND","0.9","123.4","23.7","76.3","438.3","0"],
    [22191,"2012-11-16T10:00:00","ND","ND","44.86","2623.40","ND","ND","1.3","126.3","25.2","69.3","625.1","0"],
    [22192,"2012-11-16T11:00:00","ND","ND","58.71","2671.06","ND","ND","1.6","105.7","26","66","583.5","0"],
    [22193,"2012-11-16T12:00:00","ND","ND","39.59","1977.06","ND","ND","0.8","54.5","26.5","62.8","502.5","0"],
    [22194,"2012-11-16T13:00:00","ND","ND","22.24","1611.92","ND","ND","1","69.2","27.7","58.6","517.8","0"],
    [22195,"2012-11-16T14:00:00","ND","ND","15.20","1456.54","ND","ND","0.3","107.8","28.4","55.5","466.4","0"],
    [22196,"2012-11-16T15:00:00","ND","ND","14.08","1425.17","ND","ND","1.4","171.6","29.7","50.7","503.4","0"],
    [22197,"2012-11-16T16:00:00","ND","ND","15.73","1477.87","ND","ND","2.1","260.5","29.7","49.3","441.2","0"],
    [22198,"2012-11-16T17:00:00","ND","ND","21.16","1559.33","ND","ND","3.6","275.2","28.4","51.4","198.1","0"],
    [22199,"2012-11-16T18:00:00","ND","ND","14.10","1413.59","ND","ND","2","279.5","27.5","53.6","18","0"],
    [22200,"2012-11-16T19:00:00","ND","ND","9.86","1328.50","ND","ND","1.6","264.9","26.8","55.8","0","0"],
    [22201,"2012-11-16T20:00:00","ND","ND","22.72","1544.39","ND","ND","0.5","147","26.3","58.4","0","0"],
    [22202,"2012-11-16T21:00:00","ND","ND","25.06","1656.87","ND","ND","1.3","139.2","25.3","63.2","0","0"],
    [22203,"2012-11-16T22:00:00","ND","ND","28.54","1662.80","ND","ND","0.8","120.3","24","71.6","0.1","0"],
    [22204,"2012-11-16T23:00:00","ND","ND","42.74","2260.69","ND","ND","0.5","100.9","23.3","75.2","0.1","0"],
    [22205,"2012-11-17T00:00:00","ND","ND","29.78","1970.59","ND","ND","2","179.7","23","78.4","0","0"],
    [22206,"2012-11-17T01:00:00","ND","ND","28.79","1854.81","ND","ND","2","157.8","22.8","80.8","0","0"],
    [22207,"2012-11-17T02:00:00","ND","ND","29.86","1569.27","ND","ND","2.1","168","22","84.5","0","0"],
    [22208,"2012-11-17T03:00:00","ND","ND","28.62","1531.00","ND","ND","1.2","155.7","22","86.3","0","0"],
    [22209,"2012-11-17T04:00:00","ND","ND","13.74","1292.84","ND","ND","1.2","154.3","21.9","85.8","0","0"],
    [22210,"2012-11-17T05:00:00","ND","ND","15.28","1326.42","ND","ND","0.1","142.5","21.4","88","0","0"],
    [22211,"2012-11-17T06:00:00","ND","ND","16.00","1346.80","ND","ND","0.6","11.9","20.9","91.9","0.3","0"],
    [22212,"2012-11-17T07:00:00","ND","ND","15.19","1401.01","ND","ND","0.6","42.5","21.2","89","8.8","0"],
    [22213,"2012-11-17T08:00:00","ND","ND","20.49","1617.33","ND","ND","0.7","34.1","21.5","87.6","67.6","0"],
    [22214,"2012-11-17T09:00:00","ND","ND","24.85","1811.44","ND","ND","0.6","44.8","23.4","79.9","362","0"],
    [22215,"2012-11-17T10:00:00","ND","ND","23.66","1777.55","ND","ND","0.4","261.4","25.2","70.8","396.9","0"],
    [22216,"2012-11-17T11:00:00","ND","ND","27.18","1662.25","ND","ND","1.2","132","26.5","63","643.2","0"],
    [22217,"2012-11-17T12:00:00","ND","ND","40.17","1807.66","ND","ND","1.6","106.2","27.8","58.5","635.5","0"],
    [22218,"2012-11-17T13:00:00","ND","ND","37.91","1954.27","ND","ND","0.9","126.4","28.5","54.8","561.3","0"],
    [22219,"2012-11-17T14:00:00","ND","ND","20.39","1587.92","ND","ND","1.7","303.3","27.9","57.1","138.9","0"],
    [22220,"2012-11-17T15:00:00","ND","ND","11.30","1399.67","ND","ND","2","277.7","28.4","54.1","300.9","0"],
    [22221,"2012-11-17T16:00:00","ND","ND","21.43","1541.04","ND","ND","2.5","278.7","29","50.2","284.1","0"],
    [22222,"2012-11-17T17:00:00","ND","ND","8.51","1323.52","ND","ND","0.6","245.6","28.6","50.3","93.1","0"],
    [22223,"2012-11-17T18:00:00","ND","ND","5.32","1263.80","ND","ND","0.4","177.9","27.7","53.7","11.2","0"],
    [22224,"2012-11-17T19:00:00","ND","ND","13.19","1398.74","ND","ND","0.4","122.8","26.7","56.9","0.1","0"],
    [22225,"2012-11-17T20:00:00","ND","ND","24.51","1693.65","ND","ND","3.4","198.8","25.1","65.5","0","0"],
    [22226,"2012-11-17T21:00:00","ND","ND","33.78","1925.27","ND","ND","1.9","172.9","24.5","68.9","0.1","0"],
    [22227,"2012-11-17T22:00:00","ND","ND","22.39","1612.60","ND","ND","1.2","181.5","24.3","70","0.1","0"],
    [22228,"2012-11-17T23:00:00","ND","ND","42.05","1942.96","ND","ND","0.4","313.6","24.1","72.2","0","0"],
    [22229,"2012-11-18T00:00:00","ND","ND","29.41","1713.22","ND","ND","0.7","134.7","23.5","75.8","0","0"],
    [22230,"2012-11-18T01:00:00","ND","ND","29.38","1721.16","ND","ND","0.8","149.8","22.9","79","0","0"],
    [22231,"2012-11-18T02:00:00","ND","ND","34.00","1763.18","ND","ND","0.5","126.1","22.7","78.6","0","0"],
    [22232,"2012-11-18T03:00:00","ND","ND","34.59","1716.52","ND","ND","0.6","150.2","22.4","80.5","0","0"],
    [22233,"2012-11-18T04:00:00","ND","ND","29.29","1589.86","ND","ND","1.7","168.2","20.9","92.3","0","30.23"],
    [22234,"2012-11-18T05:00:00","ND","ND","22.88","1457.50","ND","ND","0.4","219.1","19.9","98.7","0","16.26"],
    [22235,"2012-11-18T06:00:00","ND","ND","17.36","1384.98","ND","ND","0.5","136.8","20.1","99.3","0.1","0.76"],
    [22236,"2012-11-18T07:00:00","ND","ND","9.52","1273.25","ND","ND","0","294.1","20.3","98.4","14.5","0.25"],
    [22237,"2012-11-18T08:00:00","ND","ND","16.20","1353.05","ND","ND","0.3","43.8","20.8","93.6","71.7","0"],
    [22238,"2012-11-18T09:00:00","ND","ND","18.27","1377.94","ND","ND","0.3","157.9","22.1","87.2","202.7","0"],
    [22239,"2012-11-18T10:00:00","ND","ND","16.95","1452.11","ND","ND","1.4","130.7","23","82.4","231.8","0"],
    [22240,"2012-11-18T11:00:00","ND","ND","13.60","1445.16","ND","ND","0.9","138.5","23.8","78.5","341.9","0"],
    [22241,"2012-11-18T12:00:00","ND","ND","24.78","1700.08","ND","ND","1.1","115.9","24.6","73.1","292.8","0"],
    [22242,"2012-11-18T13:00:00","ND","ND","12.40","1464.41","ND","ND","0.4","49.9","25.5","69.2","503.1","0"],
    [22243,"2012-11-18T14:00:00","ND","ND","10.26","1411.46","ND","ND","0.6","45.1","26.3","64.9","398.9","0"],
    [22244,"2012-11-18T15:00:00","ND","ND","10.01","1449.76","ND","ND","1.3","358.1","26.8","62.3","349.7","0"],
    [22245,"2012-11-18T16:00:00","ND","ND","9.89","1429.13","ND","ND","1.8","53.2","26.8","62.2","217.9","0"],
    [22246,"2012-11-18T17:00:00","ND","ND","16.67","1325.41","ND","ND","1.8","46.3","26.2","61.3","48.6","0"],
    [22247,"2012-11-18T18:00:00","ND","ND","23.15","1345.76","ND","ND","0.8","56","25.4","67.3","12.3","0"],
    [22248,"2012-11-18T19:00:00","ND","ND","16.01","1330.69","ND","ND","0.6","184.5","24.9","70.4","0","0"],
    [22249,"2012-11-18T20:00:00","ND","ND","21.28","1465.89","ND","ND","0.4","294.9","24.1","73","0","0"],
    [22250,"2012-11-18T21:00:00","ND","ND","31.60","2501.30","ND","ND","0.3","26.5","24.3","70.3","0","0"],
    [22251,"2012-11-18T22:00:00","ND","ND","28.37","2617.28","ND","ND","0.5","161.4","23.2","76.8","0","0"],
    [22252,"2012-11-18T23:00:00","ND","ND","26.06","1810.51","ND","ND","1","198.3","22.8","77.5","0","0"],
    [22253,"2012-11-19T00:00:00","ND","ND","22.02","2171.96","ND","ND","0.2","302.5","22.6","77.8","0","0"],
    [22254,"2012-11-19T01:00:00","ND","ND","23.90","2420.49","ND","ND","0.6","345.1","22.4","78.4","0","0"],
    [22255,"2012-11-19T02:00:00","ND","ND","21.25","2032.75","ND","ND","0.1","308.1","22.2","80.3","0","0"],
    [22256,"2012-11-19T03:00:00","ND","ND","20.60","1770.36","ND","ND","0.5","355.9","21.7","84.1","0","0"],
    [22257,"2012-11-19T04:00:00","ND","ND","18.70","1631.41","ND","ND","0","302.8","21.4","84.2","0","0"],
    [22258,"2012-11-19T05:00:00","ND","ND","18.38","1663.70","ND","ND","0","281","21.6","84.4","0","0"],
    [22259,"2012-11-19T06:00:00","ND","ND","15.42","1608.20","ND","ND","0.1","317.3","21.5","84.6","0.4","0"],
    [22260,"2012-11-19T07:00:00","ND","ND","15.52","1664.26","ND","ND","0.9","236.6","21.8","83.9","43.1","0"],
    [22261,"2012-11-19T08:00:00","ND","ND","23.29","1847.29","ND","ND","1.2","149.2","23.7","74.2","215","0"],
    [22262,"2012-11-19T09:00:00","ND","ND","21.04","2406.69","ND","ND","1.6","120.7","24.9","70.6","290.9","0"],
    [22263,"2012-11-19T10:00:00","ND","ND","31.10","2198.83","ND","ND","1.1","113.7","26.1","66.2","569.4","0"],
    [22264,"2012-11-19T11:00:00","ND","ND","47.47","2345.67","ND","ND","0.2","179.3","27","62.3","452.5","0"],
    [22265,"2012-11-19T12:00:00","ND","ND","20.72","1580.02","ND","ND","0.1","269.9","27.6","59.9","664.3","0"],
    [22266,"2012-11-19T13:00:00","ND","ND","15.39","1479.17","ND","ND","0.8","47.5","28.7","54.4","566","0"],
    [22267,"2012-11-19T14:00:00","ND","ND","17.41","1484.58","ND","ND","0.8","303.1","29.6","51","699.3","0"],
    [22268,"2012-11-19T15:00:00","ND","ND","9.45","1337.78","ND","ND","1.8","271.8","30.4","49.7","554.4","0"],
    [22269,"2012-11-19T16:00:00","ND","ND","10.83","1306.33","ND","ND","1.3","341.4","30.8","48.3","399.8","0"],
    [22270,"2012-11-19T17:00:00","ND","ND","12.23","1366.45","ND","ND","1.8","294.5","30.2","48.5","230.8","0"],
    [22271,"2012-11-19T18:00:00","ND","ND","12.46","1352.09","ND","ND","1.7","292.4","28.9","51.1","37.7","0"],
    [22272,"2012-11-19T19:00:00","ND","ND","10.23","1357.90","ND","ND","0.2","196.6","28.5","52","0","0"],
    [22273,"2012-11-19T20:00:00","ND","ND","13.15","1414.06","ND","ND","0.5","128.7","28.1","53.6","0","0"],
    [22274,"2012-11-19T21:00:00","ND","ND","30.85","1967.79","ND","ND","0.4","84.6","27.4","58.4","0","0"],
    [22275,"2012-11-19T22:00:00","ND","ND","35.96","1940.12","ND","ND","0.9","97.1","26","66.4","0","0"],
    [22276,"2012-11-19T23:00:00","ND","ND","35.79","2275.91","ND","ND","0.4","198.2","25.2","70.9","0.1","0"],
    [22277,"2012-11-20T00:00:00","ND","ND","25.99","2097.87","ND","ND","0.2","17.5","24.3","73.5","0.1","0"],
    [22278,"2012-11-20T01:00:00","ND","ND","23.17","2308.69","ND","ND","0.4","130.4","23.7","76","0","0"],
    [22279,"2012-11-20T02:00:00","ND","ND","26.08","2189.97","ND","ND","0.4","155.1","23.1","78.2","0","0"],
    [22280,"2012-11-20T03:00:00","ND","ND","19.48","1457.03","ND","ND","0.2","193.7","23","79.6","0","0"],
    [22281,"2012-11-20T04:00:00","ND","ND","17.81","1399.64","ND","ND","0.1","251.1","23.1","80.1","0","0"],
    [22282,"2012-11-20T05:00:00","ND","ND","16.81","1445.65","ND","ND","0.3","59.5","22.7","80.8","0","0"],
    [22283,"2012-11-20T06:00:00","ND","ND","16.95","1477.80","ND","ND","0.3","160.4","22.7","80.8","0.5","0"],
    [22284,"2012-11-20T07:00:00","ND","ND","16.99","1409.59","ND","ND","0.4","244.2","22.8","81.4","29.1","0"],
    [22285,"2012-11-20T08:00:00","ND","ND","19.11","1523.78","ND","ND","0.2","257.8","23.6","78.5","89.7","0"],
    [22286,"2012-11-20T09:00:00","ND","ND","21.52","2280.45","ND","ND","0.7","100.9","25.5","71.4","369.9","0"],
    [22287,"2012-11-20T10:00:00","ND","ND","27.81","2191.78","ND","ND","1","81.8","26.6","65.5","427.2","0"],
    [22288,"2012-11-20T11:00:00","ND","ND","52.74","2476.28","ND","ND","0.5","14.3","27.2","63.4","381.4","0"],
    [22289,"2012-11-20T12:00:00","ND","ND","37.59","1904.21","ND","ND","0.7","1.2","28.2","59.5","629.5","0"],
    [22290,"2012-11-20T13:00:00","ND","ND","24.50","1609.49","ND","ND","0.9","11.7","29.2","55.9","616.3","0"],
    [22291,"2012-11-20T14:00:00","ND","ND","22.56","1556.75","ND","ND","0.7","54.1","30","52.5","402","0"],
    [22292,"2012-11-20T15:00:00","ND","ND","25.51","1502.63","ND","ND","0.4","308.9","30.1","51.3","350.9","0"],
    [22293,"2012-11-20T16:00:00","ND","ND","18.37","1363.30","ND","ND","3.2","254.2","30.6","47.9","445.9","0"],
    [22294,"2012-11-20T17:00:00","ND","ND","15.70","1388.89","ND","ND","2.5","282.1","29.9","49.2","227.3","0"],
    [22295,"2012-11-20T18:00:00","ND","ND","9.13","1327.47","ND","ND","0.9","318.6","28.3","53","31.6","0"],
    [22296,"2012-11-20T19:00:00","ND","ND","11.04","1355.20","ND","ND","0.4","80.9","27.5","55.4","0.1","0"],
    [22297,"2012-11-20T20:00:00","ND","ND","17.02","1478.68","ND","ND","0.3","265.4","27.1","56.7","0","0"],
    [22298,"2012-11-20T21:00:00","ND","ND","24.96","1788.20","ND","ND","0.8","316.4","26.9","57.1","0","0"],
    [22299,"2012-11-20T22:00:00","ND","ND","26.18","1913.83","ND","ND","1","91.6","26.1","62.3","0.1","0"],
    [22300,"2012-11-20T23:00:00","ND","ND","18.83","1540.78","ND","ND","0.2","109.1","25","68.4","0","0"],
    [22301,"2012-11-21T00:00:00","ND","ND","27.06","2073.55","ND","ND","0.1","45.1","24.6","70.4","0","0"],
    [22302,"2012-11-21T01:00:00","ND","ND","24.17","2082.21","ND","ND","0.2","47.7","24.1","72.5","0","0"],
    [22303,"2012-11-21T02:00:00","ND","ND","22.25","1724.64","ND","ND","0.3","271","23.2","77","0","0"],
    [22304,"2012-11-21T03:00:00","ND","ND","22.17","1514.45","ND","ND","0.6","173.5","23.2","76.9","0","0"],
    [22305,"2012-11-21T04:00:00","ND","ND","18.48","1514.45","ND","ND","0.3","188.1","23.4","76.6","0","0"],
    [22306,"2012-11-21T05:00:00","ND","ND","17.68","1492.69","ND","ND","0.2","235","22.6","80.3","0","0"],
    [22307,"2012-11-21T06:00:00","ND","ND","14.55","1340.93","ND","ND","0.3","296","22.5","81.6","0.3","0"],
    [22308,"2012-11-21T07:00:00","ND","ND","14.90","1374.56","ND","ND","0","0","22.6","81.7","25.4","0"],
    [22309,"2012-11-21T08:00:00","ND","ND","18.68","1818.21","ND","ND","0.3","167.8","23.8","75.7","146.6","0"],
    [22310,"2012-11-21T09:00:00","ND","ND","22.14","2521.60","ND","ND","0.9","61.5","26","66.6","455.6","0"],
    [22311,"2012-11-21T10:00:00","ND","ND","33.11","2712.71","ND","ND","1.1","79.5","27.4","60.3","634.6","0"],
    [22312,"2012-11-21T11:00:00","ND","ND","45.13","2298.12","ND","ND","0","184.6","27.9","58.3","289.7","0"],
    [22313,"2012-11-21T12:00:00","ND","ND","14.43","1445.94","ND","ND","0.7","231.1","28.2","56.8","207.1","0"],
    [22314,"2012-11-21T13:00:00","ND","ND","13.74","1424.23","ND","ND","2.8","258.1","26.9","61.1","149.5","0"],
    [22315,"2012-11-21T14:00:00","ND","ND","20.76","1567.96","ND","ND","3.6","279.3","28","53.9","544.3","0"],
    [22316,"2012-11-21T15:00:00","ND","ND","16.97","1469.57","ND","ND","1.5","245.7","27.9","54.2","210.9","0"],
    [22317,"2012-11-21T16:00:00","ND","ND","8.67","1318.70","ND","ND","1.2","117.4","24.3","78.3","19.6","0.51"],
    [22318,"2012-11-21T17:00:00","ND","ND","12.21","1360.07","ND","ND","0.7","61.8","22.4","89","20.1","0.51"],
    [22319,"2012-11-21T18:00:00","ND","ND","30.06","1737.49","ND","ND","0.4","288.5","22.3","88.5","7.2","0"],
    [22320,"2012-11-21T19:00:00","ND","ND","33.31","1748.25","ND","ND","0.7","158.2","22.9","85.7","0","0"],
    [22321,"2012-11-21T20:00:00","ND","ND","33.03","1945.18","ND","ND","0.3","100.5","23","86","0","0"],
    [22322,"2012-11-21T21:00:00","ND","ND","44.15","2844.80","ND","ND","0.4","210","22.9","86.1","0","0"],
    [22323,"2012-11-21T22:00:00","ND","ND","45.65","3048.59","ND","ND","0.2","6.2","22.7","87.6","0","0"],
    [22324,"2012-11-21T23:00:00","ND","ND","42.63","2887.38","ND","ND","0.6","4.8","22.4","89.8","0","0"],
    [22325,"2012-11-22T00:00:00","ND","ND","40.18","2725.47","ND","ND","0.6","42.2","21.9","91.6","0","0"],
    [22326,"2012-11-22T01:00:00","ND","ND","36.23","2482.78","ND","ND","0.4","90.1","21.9","91.1","0","0"],
    [22327,"2012-11-22T02:00:00","ND","ND","29.11","1745.88","ND","ND","0.2","245.1","22","90.6","0","0"],
    [22328,"2012-11-22T03:00:00","ND","ND","24.98","1689.77","ND","ND","0.1","312.5","22","89.9","0","0"],
    [22329,"2012-11-22T04:00:00","ND","ND","25.10","1667.09","ND","ND","0.2","42.5","21.9","91.3","0","0"],
    [22330,"2012-11-22T05:00:00","ND","ND","23.26","1711.87","ND","ND","0.1","311.3","21.8","92.4","0","0"],
    [22331,"2012-11-22T06:00:00","ND","ND","21.05","1620.63","ND","ND","0.3","266.5","21.7","91.4","0","1.52"],
    [22332,"2012-11-22T07:00:00","ND","ND","20.26","1665.39","ND","ND","0.5","64.7","21.2","91.2","1.4","11.18"],
    [22333,"2012-11-22T08:00:00","ND","ND","19.00","1572.09","ND","ND","0.7","306.7","20.7","96.4","9.9","5.59"],
    [22334,"2012-11-22T09:00:00","ND","ND","21.44","1716.20","ND","ND","0.2","335.7","21.6","91.5","100.2","0"],
    [22335,"2012-11-22T10:00:00","ND","ND","22.94","2287.72","ND","ND","0.4","191.9","23.2","80.4","233.8","0.25"],
    [22336,"2012-11-22T11:00:00","ND","ND","27.16","2231.83","ND","ND","0.3","283.7","24.7","71.1","426.9","0"],
    [22337,"2012-11-22T12:00:00","ND","ND","26.04","1968.46","ND","ND","0.4","69.3","26.4","63.4","729.1","0"],
    [22338,"2012-11-22T13:00:00","ND","ND","22.31","1703.46","ND","ND","1","97","27.6","59.6","620.5","0"],
    [22339,"2012-11-22T14:00:00","ND","ND","24.53","1687.18","ND","ND","1.2","84.9","27.9","58.6","417.2","0"],
    [22340,"2012-11-22T15:00:00","ND","ND","27.08","1700.43","ND","ND","1.2","269.2","27.4","58.3","297.4","0"],
    [22341,"2012-11-22T16:00:00","ND","ND","20.37","1478.19","ND","ND","1.8","264.1","27.4","55.8","252.2","0"],
    [22342,"2012-11-22T17:00:00","ND","ND","15.83","1466.64","ND","ND","1.3","253.9","27","54.9","84.7","0"],
    [22343,"2012-11-22T18:00:00","ND","ND","9.94","1349.36","ND","ND","2.7","255.7","26.2","54.6","7.8","0"],
    [22344,"2012-11-22T19:00:00","ND","ND","16.77","1564.30","ND","ND","1.1","265.5","25.6","58.7","0","0"],
    [22345,"2012-11-22T20:00:00","ND","ND","16.85","1584.12","ND","ND","1.2","85.5","24.5","69.2","0","0"],
    [22346,"2012-11-22T21:00:00","ND","ND","22.06","1692.65","ND","ND","0.9","118.1","23.5","74.9","0","0"],
    [22347,"2012-11-22T22:00:00","ND","ND","29.61","1880.74","ND","ND","0.2","312.3","22.9","78.3","0","0"],
    [22348,"2012-11-22T23:00:00","ND","ND","29.75","1911.06","ND","ND","0.5","12.8","22.6","80.2","0","0"],
    [22349,"2012-11-23T00:00:00","ND","ND","32.04","1988.67","ND","ND","0.6","27.1","22","82.9","0","0"],
    [22350,"2012-11-23T01:00:00","ND","ND","24.57","1825.86","ND","ND","0.6","329.4","21.9","82.9","0","0"],
    [22351,"2012-11-23T02:00:00","ND","ND","21.56","1485.13","ND","ND","0.1","243.3","21.8","83.5","0","0"],
    [22352,"2012-11-23T03:00:00","ND","ND","20.59","1552.63","ND","ND","0.1","228.9","21.7","84.1","0","0"],
    [22353,"2012-11-23T04:00:00","ND","ND","18.70","1586.09","ND","ND","0.3","333.7","21.9","83.1","0","0"],
    [22354,"2012-11-23T05:00:00","ND","ND","16.18","1598.50","ND","ND","0.6","6.8","21.5","85.5","0","0"],
    [22355,"2012-11-23T06:00:00","ND","ND","17.48","1539.73","ND","ND","0.4","354.9","21.3","86.1","0.2","0"],
    [22356,"2012-11-23T07:00:00","ND","ND","20.80","1798.90","ND","ND","0.2","285.1","21.6","85.1","9.7","0"],
    [22357,"2012-11-23T08:00:00","ND","ND","23.01","1789.41","ND","ND","0.3","288.6","22.6","80.4","109.8","0"],
    [22358,"2012-11-23T09:00:00","ND","ND","23.26","2136.40","ND","ND","0.5","41.2","24","73.6","332.5","0"],
    [22359,"2012-11-23T10:00:00","ND","ND","29.55","2363.45","ND","ND","0.6","45.5","25.4","66.7","403.9","0"],
    [22360,"2012-11-23T11:00:00","ND","ND","31.82","1950.15","ND","ND","0.5","55.4","26.8","61.2","613.8","0"],
    [22361,"2012-11-23T12:00:00","ND","ND","31.23","1786.42","ND","ND","1.4","112.3","27.1","60.7","297.8","0"],
    [22362,"2012-11-23T13:00:00","ND","ND","18.28","1603.62","ND","ND","0.7","139","27.5","58.8","319.4","0"],
    [22363,"2012-11-23T14:00:00","ND","ND","15.08","1478.68","ND","ND","0.7","222.5","28.2","56.6","540","0"],
    [22364,"2012-11-23T15:00:00","ND","ND","15.38","1528.44","ND","ND","1.2","301.9","29","53.4","447.4","0"],
    [22365,"2012-11-23T16:00:00","ND","ND","20.25","1671.82","ND","ND","1.4","338.3","29.4","52.4","355.3","0"],
    [22366,"2012-11-23T17:00:00","ND","ND","20.34","1627.53","ND","ND","1.6","329.6","29","52.3","197.1","0"],
    [22367,"2012-11-23T18:00:00","ND","ND","19.28","1544.11","ND","ND","0.6","250.4","27.9","55.4","24.9","0"],
    [22368,"2012-11-23T19:00:00","ND","ND","17.55","1492.22","ND","ND","0.3","233","26.7","59.5","0.1","0"],
    [22369,"2012-11-23T20:00:00","ND","ND","35.86","1947.12","ND","ND","0.2","347.4","26.2","61.5","0","0"],
    [22370,"2012-11-23T21:00:00","ND","ND","47.46","2852.55","ND","ND","0.2","276.6","25.4","66.8","0","0"],
    [22371,"2012-11-23T22:00:00","ND","ND","51.37","2971.11","ND","ND","0.7","145.2","24.7","69","0.1","0"],
    [22372,"2012-11-23T23:00:00","ND","ND","50.01","3742.36","ND","ND","0.3","191.2","23.8","74","0","0"],
    [22373,"2012-11-24T00:00:00","ND","ND","39.19","2567.24","ND","ND","0.6","241.1","23","76.9","0","0"],
    [22374,"2012-11-24T01:00:00","ND","ND","34.16","2856.18","ND","ND","0","352.6","23.3","76.8","0","0"],
    [22375,"2012-11-24T02:00:00","ND","ND","34.55","3029.93","ND","ND","0.6","27.4","22.9","78.9","0.1","0"],
    [22376,"2012-11-24T03:00:00","ND","ND","31.85","2730.08","ND","ND","0.4","203.6","21.9","88.9","0","3.3"],
    [22377,"2012-11-24T04:00:00","ND","ND","25.94","1689.20","ND","ND","0.5","277.6","21.8","91.2","0","0"],
    [22378,"2012-11-24T05:00:00","ND","ND","24.61","1847.29","ND","ND","0.1","284.4","21.8","90.5","0","0"],
    [22379,"2012-11-24T06:00:00","ND","ND","23.03","1892.62","ND","ND","0.2","267.7","21.4","92.5","0.2","0"],
    [22380,"2012-11-24T07:00:00","ND","ND","19.02","1799.51","ND","ND","0.2","18.5","21.7","90","18","0"],
    [22381,"2012-11-24T08:00:00","ND","ND","15.57","1971.28","ND","ND","0.2","173.3","23.1","85.6","169.9","0"],
    [22382,"2012-11-24T09:00:00","ND","ND","24.20","2424.59","ND","ND","1","151.3","25.2","72.2","379.9","0"],
    [22383,"2012-11-24T10:00:00","ND","ND","44.33","2957.65","ND","ND","1.3","121.1","26.7","64","574.6","0"],
    [22384,"2012-11-24T11:00:00","ND","ND","65.65","2719.06","ND","ND","1.3","114","27.6","60.6","578.6","0"],
    [22385,"2012-11-24T12:00:00","ND","ND","32.51","1872.08","ND","ND","1.1","67.5","28.1","59.3","533.8","0"],
    [22386,"2012-11-24T13:00:00","ND","ND","16.84","1551.08","ND","ND","0.6","332.3","29","55.6","603.9","0"],
    [22387,"2012-11-24T14:00:00","ND","ND","15.52","1474.45","ND","ND","0.8","349.2","30.1","51.2","645.4","0"],
    [22388,"2012-11-24T15:00:00","ND","ND","18.14","1491.47","ND","ND","1.4","353.3","30.5","48","434.7","0"],
    [22389,"2012-11-24T16:00:00","ND","ND","14.12","1458.44","ND","ND","2.1","285.1","31","46.4","425.5","0"],
    [22390,"2012-11-24T17:00:00","ND","ND","6.61","1355.66","ND","ND","1.7","270.9","30.3","47.6","206.5","0"],
    [22391,"2012-11-24T18:00:00","ND","ND","6.27","1352.54","ND","ND","0.3","273.3","28.6","50.9","19.7","0"],
    [22392,"2012-11-24T19:00:00","ND","ND","9.72","1402.93","ND","ND","0.4","130.4","27.7","53.8","0","0"],
    [22393,"2012-11-24T20:00:00","ND","ND","16.52","1560.58","ND","ND","0.6","104.9","27","56.8","0","0"],
    [22394,"2012-11-24T21:00:00","ND","ND","22.30","1683.81","ND","ND","0.5","126.1","26.2","62","0","0"],
    [22395,"2012-11-24T22:00:00","ND","ND","35.66","2116.41","ND","ND","1","150.5","25.3","66.7","0.1","0"],
    [22396,"2012-11-24T23:00:00","ND","ND","32.13","2591.68","ND","ND","0.3","6.6","24.3","71.1","0","0"],
    [22397,"2012-11-25T00:00:00","ND","ND","26.51","2502.99","ND","ND","0.4","276","23.6","73.4","0","0"],
    [22398,"2012-11-25T01:00:00","ND","ND","24.69","2246.24","ND","ND","0.3","359","23.7","74","0","0"],
    [22399,"2012-11-25T02:00:00","ND","ND","23.78","2178.56","ND","ND","0.6","321.9","23.3","76.6","0","0"],
    [22400,"2012-11-25T03:00:00","ND","ND","23.63","2300.93","ND","ND","0.2","334.4","23.1","78.8","0","0"],
    [22401,"2012-11-25T04:00:00","ND","ND","21.26","2003.41","ND","ND","0.3","157.5","23.4","77.2","0","0"],
    [22402,"2012-11-25T05:00:00","ND","ND","21.24","1948.47","ND","ND","0.3","284.5","23","79.5","0","0"],
    [22403,"2012-11-25T06:00:00","ND","ND","20.11","1900.32","ND","ND","0.6","9.4","22.5","83.3","0.3","0"],
    [22404,"2012-11-25T07:00:00","ND","ND","17.16","1874.39","ND","ND","0.1","286.9","22.5","83.5","30.6","0"],
    [22405,"2012-11-25T08:00:00","ND","ND","17.39","1897.11","ND","ND","0.4","12.5","23.4","80.4","121.2","0"],
    [22406,"2012-11-25T09:00:00","ND","ND","17.35","1948.47","ND","ND","0.4","99.2","24.9","72.5","264.7","0"],
    [22407,"2012-11-25T10:00:00","ND","ND","26.06","2095.76","ND","ND","0.9","44.6","26.7","63.8","622.9","0"],
    [22408,"2012-11-25T11:00:00","ND","ND","35.89","1901.04","ND","ND","0.3","185.7","28","57.6","499.7","0"],
    [22409,"2012-11-25T12:00:00","ND","ND","28.61","1666.28","ND","ND","0.9","90.7","28.8","53.9","660","0"],
    [22410,"2012-11-25T13:00:00","ND","ND","26.63","1717.12","ND","ND","0.1","337.1","31","46.8","745.9","0"],
    [22411,"2012-11-25T14:00:00","ND","ND","17.29","1530.96","ND","ND","2.4","279.6","31.1","45.4","662","0"],
    [22412,"2012-11-25T15:00:00","ND","ND","8.42","1344.42","ND","ND","4","264.8","31.2","43.8","633","0"],
    [22413,"2012-11-25T16:00:00","ND","ND","3.50","1298.08","ND","ND","4.1","281.8","30.3","45.6","394.6","0"],
    [22414,"2012-11-25T17:00:00","ND","ND","3.55","1305.90","ND","ND","4.4","284.7","29","49.6","231.6","0"],
    [22415,"2012-11-25T18:00:00","ND","ND","2.81","1277.08","ND","ND","3.1","285.3","27.9","51.1","26.9","0.25"],
    [22416,"2012-11-25T19:00:00","ND","ND","1.77","1272.43","ND","ND","0.1","244.5","27.7","52.5","0","0"],
    [22417,"2012-11-25T20:00:00","ND","ND","2.57","ND","ND","ND","1.2","141","27","56.5","0","0"],
    [22418,"2012-11-25T21:00:00","ND","ND","11.93","ND","ND","ND","2.4","201.7","25.8","60.9","0","0"],
    [22419,"2012-11-25T22:00:00","ND","ND","22.93","ND","ND","ND","0.7","184.1","25.6","61.7","0","0"],
    [22420,"2012-11-25T23:00:00","ND","ND","13.46","ND","ND","ND","0.8","22.4","24.7","68.2","0","0"],
    [22421,"2012-11-26T00:00:00","ND","ND","16.82","ND","ND","ND","0.8","351.1","23.7","74.2","0","0"],
    [22422,"2012-11-26T01:00:00","ND","ND","25.78","ND","ND","ND","1","344.3","23.5","74.8","0","0"],
    [22423,"2012-11-26T02:00:00","ND","ND","17.26","ND","ND","ND","0.5","19.3","23.1","78.1","0","0"],
    [22424,"2012-11-26T03:00:00","ND","ND","14.77","ND","ND","ND","0.2","22.7","22.7","81.3","0","0"],
    [22425,"2012-11-26T04:00:00","ND","ND","20.63","ND","ND","ND","0.3","344.3","22.5","82.3","0","0"],
    [22426,"2012-11-26T05:00:00","ND","ND","17.56","ND","ND","ND","0.3","357.5","22.6","81.5","0","0"],
    [22427,"2012-11-26T06:00:00","ND","ND","15.49","ND","ND","ND","0.4","287.9","22.4","81.8","0.2","0"],
    [22428,"2012-11-26T07:00:00","ND","ND","18.65","ND","ND","ND","0.2","357.6","22.6","81.6","26.4","0"],
    [22429,"2012-11-26T08:00:00","ND","ND","19.47","ND","ND","ND","0.6","78.8","23.2","79.8","111","0"],
    [22430,"2012-11-26T09:00:00","ND","ND","24.66","ND","ND","ND","0.8","43.1","24.5","74.2","319.2","0"],
    [22431,"2012-11-26T10:00:00","ND","ND","29.99","ND","ND","ND","1.2","65.1","25.8","69.3","532.6","0"],
    [22432,"2012-11-26T11:00:00","ND","ND","32.10","ND","ND","ND","1.6","120.5","26.6","64.4","476.5","0"],
    [22433,"2012-11-26T12:00:00","ND","ND","16.80","ND","ND","ND","1.2","145.5","28.1","56.8","649","0"],
    [22434,"2012-11-26T13:00:00","ND","ND","19.91","ND","ND","ND","0.9","164.3","29","54.1","487.6","0"],
    [22435,"2012-11-26T14:00:00","ND","ND","15.61","ND","ND","ND","1.1","162.9","29.6","52.3","363.1","0"],
    [22436,"2012-11-26T15:00:00","ND","ND","16.33","ND","ND","ND","1.6","303.7","27.9","58.2","124.1","2.79"],
    [22437,"2012-11-26T16:00:00","ND","ND","18.12","ND","ND","ND","0.7","145.4","27","62.6","168.6","0"],
    [22438,"2012-11-26T17:00:00","ND","ND","15.05","ND","ND","ND","0.3","248","27.5","57.7","85.8","0"],
    [22439,"2012-11-26T18:00:00","ND","ND","24.50","ND","ND","ND","0.4","352","27","57.5","27.4","0"],
    [22440,"2012-11-26T19:00:00","ND","ND","28.40","ND","ND","ND","0.7","306","26.2","60.1","0.1","0"],
    [22441,"2012-11-26T20:00:00","ND","ND","27.42","ND","ND","ND","0.3","103.4","25.6","62.6","0","0"],
    [22442,"2012-11-26T21:00:00","ND","ND","32.95","ND","ND","ND","0.6","332.5","25.5","62.3","0","0"],
    [22443,"2012-11-26T22:00:00","ND","ND","43.73","ND","ND","ND","1","147.8","25.2","64.6","0","0"],
    [22444,"2012-11-26T23:00:00","ND","ND","34.09","ND","ND","ND","0.3","165.4","24.5","67.8","0","0"],
    [22445,"2012-11-27T00:00:00","ND","ND","37.00","ND","ND","ND","0.5","3.9","23.5","72.1","0","0"],
    [22446,"2012-11-27T01:00:00","ND","ND","37.44","ND","ND","ND","0.2","319.2","23.2","72.8","0","0"],
    [22447,"2012-11-27T02:00:00","ND","ND","32.16","ND","ND","ND","0.8","38.2","22.4","76.7","0","0"],
    [22448,"2012-11-27T03:00:00","ND","ND","27.74","ND","ND","ND","0.3","61.6","22.3","76.4","0","0"],
    [22449,"2012-11-27T04:00:00","ND","ND","27.53","ND","ND","ND","0.5","236.3","22.3","77.2","0","0"],
    [22450,"2012-11-27T05:00:00","ND","ND","13.68","ND","ND","ND","1","238.3","21.8","80.6","0","0"],
    [22451,"2012-11-27T06:00:00","ND","ND","14.59","ND","ND","ND","1","237.2","21.9","77.2","0.3","0"],
    [22452,"2012-11-27T07:00:00","ND","ND","15.53","ND","ND","ND","0","209.8","22.3","77.1","32.7","0"],
    [22453,"2012-11-27T08:00:00","ND","ND","16.82","ND","ND","ND","1","47.9","24","71.7","194.3","0"],
    [22454,"2012-11-27T09:00:00","ND","ND","28.16","ND","ND","ND","1.2","43.8","25","70.4","437","0"],
    [22455,"2012-11-27T10:00:00","ND","ND","47.82","ND","ND","ND","0.9","81.4","26","65.7","393.9","0"],
    [22456,"2012-11-27T11:00:00","ND","ND","42.80","ND","ND","ND","1","98.1","27.8","59.3","654.1","0"],
    [22457,"2012-11-27T12:00:00","ND","ND","35.99","ND","ND","ND","1","95.9","28.7","55.8","565.7","0"],
    [22458,"2012-11-27T13:00:00","ND","ND","26.60","ND","ND","ND","0.6","68.8","28.8","55.2","380.6","0"],
    [22459,"2012-11-27T14:00:00","ND","ND","17.17","ND","ND","ND","0.7","73","29.4","53.7","380.1","0"],
    [22460,"2012-11-27T15:00:00","ND","ND","14.91","ND","ND","ND","2.1","302.9","29.4","51.9","431.7","0"],
    [22461,"2012-11-27T16:00:00","ND","ND","16.93","ND","ND","ND","1.6","358.9","30.7","46.2","426.4","0"],
    [22462,"2012-11-27T17:00:00","ND","ND","13.42","ND","ND","ND","1.3","306.5","29.7","47.3","144.5","0"],
    [22463,"2012-11-27T18:00:00","ND","ND","9.83","ND","ND","ND","0.8","278.7","28.6","49","8.1","0"],
    [22464,"2012-11-27T19:00:00","ND","ND","13.34","ND","ND","ND","1","248.9","27.8","50.2","0","0"],
    [22465,"2012-11-27T20:00:00","ND","ND","25.87","ND","ND","ND","1.8","112.7","27.5","54.6","0","0"],
    [22466,"2012-11-27T21:00:00","ND","ND","23.38","ND","ND","ND","1.9","115.9","25.1","69.9","0.1","0"],
    [22467,"2012-11-27T22:00:00","ND","ND","44.52","ND","ND","ND","0.4","336.3","24.1","74.1","0","0"],
    [22468,"2012-11-27T23:00:00","ND","ND","36.88","ND","ND","ND","0.3","11.6","23.6","77.1","0","0"],
    [22469,"2012-11-28T00:00:00","ND","ND","42.78","ND","ND","ND","0.9","8.1","22.8","80","0","0"],
    [22470,"2012-11-28T01:00:00","ND","ND","42.05","ND","ND","ND","0.6","10.2","22.6","80.3","0","0"],
    [22471,"2012-11-28T02:00:00","ND","ND","34.19","ND","ND","ND","0.3","66.6","22.8","78","0","0"],
    [22472,"2012-11-28T03:00:00","ND","ND","33.78","ND","ND","ND","0.2","133.5","22.8","77.7","0","0"],
    [22473,"2012-11-28T04:00:00","ND","ND","26.85","ND","ND","ND","0.1","278.3","22.6","78.7","0","0"],
    [22474,"2012-11-28T05:00:00","ND","ND","20.05","ND","ND","ND","0.1","149.6","22.8","78","0","0"],
    [22475,"2012-11-28T06:00:00","ND","ND","16.98","ND","ND","ND","0.6","22.3","22.2","81.9","0.1","0"],
    [22476,"2012-11-28T07:00:00","ND","ND","24.29","ND","ND","ND","0.6","11.1","21.8","86.3","12.1","0"],
    [22477,"2012-11-28T08:00:00","ND","ND","27.50","ND","ND","ND","0.1","17.6","22.6","83.1","80.1","0"],
    [22478,"2012-11-28T09:00:00","ND","ND","26.75","ND","ND","ND","1.3","41.3","23.5","79.4","153","0"],
    [22479,"2012-11-28T10:00:00","ND","ND","35.94","ND","ND","ND","1","46","23.7","75.8","133.8","0"],
    [22480,"2012-11-28T11:00:00","ND","ND","40.35","ND","ND","ND","1.5","150.1","24.3","73.5","217.4","0"],
    [22481,"2012-11-28T12:00:00","ND","ND","20.91","ND","ND","ND","2.7","158.9","24.9","69.8","350.8","0"],
    [22482,"2012-11-28T13:00:00","ND","ND","24.65","ND","ND","ND","3.6","169.4","24.6","69.3","290.3","0"],
    [22483,"2012-11-28T14:00:00","ND","ND","17.34","ND","ND","ND","2.9","158.3","25.4","64","229.3","0"],
    [22484,"2012-11-28T15:00:00","ND","ND","12.69","ND","ND","ND","1.5","150.2","26","60.3","196.4","0"],
    [22485,"2012-11-28T16:00:00","ND","ND","12.83","ND","ND","ND","0.4","222.5","26.5","57.8","163","0"],
    [22486,"2012-11-28T17:00:00","ND","ND","13.44","ND","ND","ND","0.6","86.1","26.3","58.8","51.6","0"],
    [22487,"2012-11-28T18:00:00","ND","ND","24.01","ND","ND","ND","0.4","347.9","25.4","61.3","12.8","0"],
    [22488,"2012-11-28T19:00:00","ND","ND","32.14","ND","ND","ND","0.1","28.6","24.8","64.7","0","0"],
    [22489,"2012-11-28T20:00:00","ND","ND","38.38","ND","ND","ND","0.8","128.6","24.9","61.9","0","0"],
    [22490,"2012-11-28T21:00:00","ND","ND","55.24","ND","ND","ND","0.6","169.1","24.6","63.6","0","0"],
    [22491,"2012-11-28T22:00:00","ND","ND","50.67","ND","ND","ND","0.1","37.9","24.4","64.5","0.1","0"],
    [22492,"2012-11-28T23:00:00","ND","ND","40.71","ND","ND","ND","0.1","233.3","23.5","69.2","0","0"],
    [22493,"2012-11-29T00:00:00","ND","ND","31.44","ND","ND","ND","0.1","15.1","22.9","72.5","0","0"],
    [22494,"2012-11-29T01:00:00","ND","ND","33.01","ND","ND","ND","0.5","85","22.7","75.2","0","0"],
    [22495,"2012-11-29T02:00:00","ND","ND","32.56","ND","ND","ND","0.7","211.3","22.2","78.8","0","0"],
    [22496,"2012-11-29T03:00:00","ND","ND","30.09","ND","ND","ND","0.4","169.8","22.3","80.4","0","0"],
    [22497,"2012-11-29T04:00:00","ND","ND","22.68","ND","ND","ND","0.2","307.7","22.1","79.9","0","0"],
    [22498,"2012-11-29T05:00:00","ND","ND","23.71","ND","ND","ND","0.1","340.9","22.1","79.8","0","0"],
    [22499,"2012-11-29T06:00:00","ND","ND","23.76","ND","ND","ND","0","351.7","21.8","81.3","0.2","0"],
    [22500,"2012-11-29T07:00:00","ND","ND","23.18","ND","ND","ND","0.4","356.1","21.9","80.7","33.3","0"],
    [22501,"2012-11-29T08:00:00","ND","ND","24.99","ND","ND","ND","0.8","54.5","22.9","78.1","207","0"],
    [22502,"2012-11-29T09:00:00","ND","ND","28.52","ND","ND","ND","0.3","51.9","24.8","70.2","443.2","0"],
    [22503,"2012-11-29T10:00:00","ND","ND","36.36","ND","ND","ND","0.7","63.5","26.3","62.8","509.1","0"],
    [22504,"2012-11-29T11:00:00","ND","ND","49.60","ND","ND","ND","0.9","97.1","27.1","58.9","340.9","0"],
    [22505,"2012-11-29T12:00:00","ND","ND","37.52","ND","ND","ND","1.3","132.7","28.2","54.3","622.2","0"],
    [22506,"2012-11-29T13:00:00","ND","ND","25.47","ND","ND","ND","0.8","150.5","28.2","54.8","245.5","0"],
    [22507,"2012-11-29T14:00:00","ND","ND","16.50","ND","ND","ND","2.7","276.6","27.9","53.8","161.1","0"],
    [22508,"2012-11-29T15:00:00","ND","ND","15.67","ND","ND","ND","2.1","259.5","25.6","64.7","190.1","2.79"],
    [22509,"2012-11-29T16:00:00","ND","ND","13.42","ND","ND","ND","0.5","272.8","27.4","54.3","184","0"],
    [22510,"2012-11-29T17:00:00","ND","ND","13.48","ND","ND","ND","0.8","228.9","27.6","52.3","132.3","0"],
    [22511,"2012-11-29T18:00:00","ND","ND","12.43","ND","ND","ND","1.2","257.4","26.3","56","26.4","0"],
    [22512,"2012-11-29T19:00:00","ND","ND","18.52","ND","ND","ND","1.1","179","25.3","60.4","0","0"],
    [22513,"2012-11-29T20:00:00","ND","ND","16.76","ND","ND","ND","2.5","240.7","24.7","62.3","0.1","0"],
    [22514,"2012-11-29T21:00:00","ND","ND","31.10","ND","ND","ND","2.2","276.4","24.5","62.8","0.1","0"],
    [22515,"2012-11-29T22:00:00","ND","ND","19.52","ND","ND","ND","0.6","8","24.4","64.4","0","0"],
    [22516,"2012-11-29T23:00:00","ND","ND","10.41","ND","ND","ND","0.6","70.2","23.2","75.8","0","0"],
    [22517,"2012-11-30T00:00:00","ND","ND","21.12","ND","ND","ND","0.8","123.5","22.6","80.8","0","0"],
    [22518,"2012-11-30T01:00:00","ND","ND","38.32","ND","ND","ND","0.1","65","22.5","81.2","0","0"],
    [22519,"2012-11-30T02:00:00","ND","ND","37.86","ND","ND","ND","1.4","164.9","22.2","81.6","0","0"],
    [22520,"2012-11-30T03:00:00","ND","ND","35.54","ND","ND","ND","2.2","170.8","21.5","85.7","0","0"],
    [22521,"2012-11-30T04:00:00","ND","ND","17.01","ND","ND","ND","2.1","182.3","20.7","90.8","0","0.76"],
    [22522,"2012-11-30T05:00:00","ND","ND","7.46","ND","ND","ND","2.3","178.9","20","91.8","0","0.51"],
    [22523,"2012-11-30T06:00:00","ND","ND","4.78","ND","ND","ND","1.5","178.8","19.7","93.1","0","0.51"],
    [22524,"2012-11-30T07:00:00","ND","ND","4.20","ND","ND","ND","1.3","170.4","19.6","93.3","7.2","0.51"],
    [22525,"2012-11-30T08:00:00","ND","ND","17.79","ND","ND","ND","1","161.9","20","89.9","57.9","0"],
    [22526,"2012-11-30T09:00:00","ND","ND","31.39","ND","ND","ND","0.5","106.1","21.8","81.5","295.9","0"],
    [22527,"2012-11-30T10:00:00","ND","ND","39.48","ND","ND","ND","1.1","101.3","24","71.5","626.5","0"],
    [22528,"2012-11-30T11:00:00","ND","ND","43.77","ND","ND","ND","1.9","118.1","25.6","63.5","759","0"],
    [22529,"2012-11-30T12:00:00","ND","ND","37.61","ND","ND","ND","1.7","134.4","26.7","60.4","710.3","0"],
    [22530,"2012-11-30T13:00:00","ND","ND","16.59","ND","ND","ND","1.2","121","27.1","59.5","306.3","0"],
    [22531,"2012-11-30T14:00:00","ND","ND","8.63","ND","ND","ND","1.1","325.4","27.7","57.2","606.8","0"],
    [22532,"2012-11-30T15:00:00","ND","ND","13.47","ND","ND","ND","2","295.7","28.8","49.6","460.9","0"],
    [22533,"2012-11-30T16:00:00","ND","ND","14.06","ND","ND","ND","2.3","245.5","29.6","45.8","467.6","0"],
    [22534,"2012-11-30T17:00:00","ND","ND","7.42","ND","ND","ND","1.8","168.5","26.6","63","129.3","1.52"],
    [22535,"2012-11-30T18:00:00","ND","ND","6.89","ND","ND","ND","0.9","157","25.2","71.8","16.1","0.25"],
    [22536,"2012-11-30T19:00:00","ND","ND","14.25","ND","ND","ND","0.4","131.4","25.1","72.2","0","0"],
    [22537,"2012-11-30T20:00:00","ND","ND","48.01","ND","ND","ND","0.9","98.3","25","71.8","0.1","0"],
    [22538,"2012-11-30T21:00:00","ND","ND","60.18","ND","ND","ND","1.3","79.8","24","77.8","0","0"],
    [22539,"2012-11-30T22:00:00","ND","ND","43.91","ND","ND","ND","0.5","69.5","22.8","81.4","0","0.51"],
    [22540,"2012-11-30T23:00:00","ND","ND","44.78","ND","ND","ND","0.3","161.8","22.2","88.8","0","0.51"],
    [22541,"2012-12-01T00:00:00","ND","ND","27.65","ND","ND","ND","0.6","183.1","22","87.5","0","0"],
    [22542,"2012-12-01T01:00:00","5.5","ND","38.67","ND","ND","ND","0","71.1","21.9","86.9","0","0"],
    [22543,"2012-12-01T02:00:00","3.8","ND","33.36","ND","ND","ND","0.8","160.6","21.8","84.3","0","0.25"],
    [22544,"2012-12-01T03:00:00","2.4","ND","29.57","ND","ND","ND","0.5","154.7","21.5","87","0","0"],
    [22545,"2012-12-01T04:00:00","1.8","ND","16.99","ND","ND","ND","0.2","113.2","21.4","88.6","0","0"],
    [22546,"2012-12-01T05:00:00","1.7","ND","20.91","ND","ND","ND","0.3","48.9","21.1","92.4","0","0"],
    [22547,"2012-12-01T06:00:00","18.9","ND","21.51","ND","ND","ND","0.4","95.1","21.1","92.4","0","0"],
    [22548,"2012-12-01T07:00:00","11.3","ND","25.00","ND","ND","ND","0.5","86.9","21.1","92.1","2.3","0"],
    [22549,"2012-12-01T08:00:00","17.5","ND","25.76","ND","ND","ND","1.1","168.4","20.2","96.5","16.1","34.04"],
    [22550,"2012-12-01T09:00:00","9.3","ND","26.50","ND","ND","ND","0.8","159.7","21.4","93.7","352.9","0"],
    [22551,"2012-12-01T10:00:00","6.5","ND","21.81","ND","ND","ND","0.9","124.1","24.3","73.7","410.5","0"],
    [22552,"2012-12-01T11:00:00","5.4","ND","25.39","ND","ND","ND","0.8","334.6","24.8","73.1","349.8","0"],
    [22553,"2012-12-01T12:00:00","21.6","ND","21.16","ND","ND","ND","1.2","310.1","24.7","73.7","333.3","0"],
    [22554,"2012-12-01T13:00:00","14.5","ND","32.36","ND","ND","ND","0.8","164.7","26.2","68.5","494.9","0"],
    [22555,"2012-12-01T14:00:00","25.8","ND","35.70","ND","ND","ND","1.1","134.5","28","59.5","645.5","0"],
    [22556,"2012-12-01T15:00:00","14.8","ND","40.06","ND","ND","ND","1.3","272.6","25","73.3","61.3","18.54"],
    [22557,"2012-12-01T16:00:00","22.4","ND","29.27","ND","ND","ND","1.5","196.2","21.7","90.5","18.1","7.87"],
    [22558,"2012-12-01T17:00:00","11.9","ND","22.56","ND","ND","ND","0.2","165.3","22.7","90.3","57.6","0.25"],
    [22559,"2012-12-01T18:00:00","23.1","ND","48.67","ND","ND","ND","0.3","148.3","23.4","88.1","22.6","0"],
    [22560,"2012-12-01T19:00:00","15.8","ND","66.00","ND","ND","ND","0.4","220.7","22.8","90.4","0","0"],
    [22561,"2012-12-01T20:00:00","34.9","ND","76.91","ND","ND","ND","0.5","268.2","22","90.6","0","0"],
    [22562,"2012-12-01T21:00:00","21.7","ND","55.28","ND","ND","ND","0.2","273","21.8","91.5","0.2","0.25"],
    [22563,"2012-12-01T22:00:00","36.4","ND","39.13","ND","ND","ND","0.2","297","21.2","92","0.1","0"],
    [22564,"2012-12-01T23:00:00","18.8","ND","37.19","ND","ND","ND","0.2","251.6","20.9","90.8","0","0"],
    [22565,"2012-12-02T00:00:00","21.5","ND","37.54","ND","ND","ND","0.3","321","20.6","89.3","0","0"],
    [22566,"2012-12-02T01:00:00","12.1","ND","32.83","ND","ND","ND","0.2","267.5","20.3","89.6","0","0"],
    [22567,"2012-12-02T02:00:00","18.4","ND","22.93","ND","ND","ND","0.2","287.9","20.3","91","0","0"],
    [22568,"2012-12-02T03:00:00","16.6","ND","17.68","ND","ND","ND","0.1","223.3","20.2","91.5","0","0"],
    [22569,"2012-12-02T04:00:00","20.5","ND","18.73","ND","ND","ND","0.1","263.5","20.4","91.4","0.1","0"],
    [22570,"2012-12-02T05:00:00","15.9","ND","21.08","ND","ND","ND","0","95.1","20.2","92.5","0.1","0"],
    [22571,"2012-12-02T06:00:00","32.4","ND","24.31","ND","ND","ND","0.3","221.4","19.8","92.9","0.5","0"],
    [22572,"2012-12-02T07:00:00","30.1","ND","19.19","ND","ND","ND","0.3","279","19.8","91.4","24.5","0"],
    [22573,"2012-12-02T08:00:00","27.7","ND","14.92","ND","ND","ND","0.1","84.9","22.1","80.8","140.5","0"],
    [22574,"2012-12-02T09:00:00","15.7","ND","18.11","ND","ND","ND","0.9","93.8","23.3","75.7","315.4","0"],
    [22575,"2012-12-02T10:00:00","9.1","ND","32.70","ND","ND","ND","1","116.5","25.2","67.1","563.1","0"],
    [22576,"2012-12-02T11:00:00","5.7","ND","35.23","ND","ND","ND","1.1","88","26.6","61.6","571.2","0"],
    [22577,"2012-12-02T12:00:00","4.3","ND","31.07","ND","ND","ND","0.7","69","26.5","61.2","465.9","0"],
    [22578,"2012-12-02T13:00:00","4.1","ND","21.12","ND","ND","ND","0.5","129.7","28.1","53.8","521.6","0"],
    [22579,"2012-12-02T14:00:00","2.9","ND","15.89","ND","ND","ND","1.6","247.7","26.6","62.6","157.6","0"],
    [22580,"2012-12-02T15:00:00","1.4","ND","12.82","ND","ND","ND","0.2","86.6","25.4","70.9","290","0.25"],
    [22581,"2012-12-02T16:00:00","ND","ND","14.26","ND","ND","ND","0.5","322.8","27.6","56","300.4","0"],
    [22582,"2012-12-02T17:00:00","ND","ND","19.13","ND","ND","ND","3.3","272.8","25.9","60.9","39.5","0.25"],
    [22583,"2012-12-02T18:00:00","1.2","ND","3.80","ND","ND","ND","3.4","268.8","24.5","61.9","5.7","0"],
    [22584,"2012-12-02T19:00:00","12.1","ND","3.61","ND","ND","ND","3.1","267.6","24.3","63.7","0","0"],
    [22585,"2012-12-02T20:00:00","19","ND","5.81","1497.22","ND","ND","0.4","107.3","24.3","66.1","0","0"],
    [22586,"2012-12-02T21:00:00","10.2","ND","4.85","1474.36","ND","ND","0.8","357.5","23","75.6","0","0"],
    [22587,"2012-12-02T22:00:00","13.7","ND","23.20","2401.01","ND","ND","0.3","173.7","21.5","86.1","0","4.06"],
    [22588,"2012-12-02T23:00:00","7.7","ND","20.85","2094.48","ND","ND","0.3","215.6","21.1","91.8","0","0.25"],
    [22589,"2012-12-03T00:00:00","5.1","ND","22.68","1854.21","ND","ND","1.1","163.2","21.3","90.1","0","0.51"],
    [22590,"2012-12-03T01:00:00","4.2","ND","29.02","2149.63","ND","ND","0.9","170.6","20.7","94.2","0.1","1.02"],
    [22591,"2012-12-03T02:00:00","2.7","ND","22.92","1772.65","ND","ND","0.2","213.6","20.3","91","0.1","0.25"],
    [22592,"2012-12-03T03:00:00","2.8","ND","16.37","1589.83","ND","ND","0.2","261.3","19.9","92.2","0","0"],
    [22593,"2012-12-03T04:00:00","7.1","ND","10.87","1475.06","ND","ND","0.2","307.9","19.8","93.3","0","0.25"],
    [22594,"2012-12-03T05:00:00","4.6","ND","7.98","1463.30","ND","ND","0.1","263.3","19.8","92.2","0","0"],
    [22595,"2012-12-03T06:00:00","4.3","ND","11.34","1519.58","ND","ND","0.1","47.9","19.9","93.1","0.2","0"],
    [22596,"2012-12-03T07:00:00","3.9","ND","11.48","1565.14","ND","ND","0.1","274.2","19.9","94.2","24.4","0"],
    [22597,"2012-12-03T08:00:00","20.3","ND","17.57","1756.56","ND","ND","0.1","202.9","21.2","88.7","181.1","0"],
    [22598,"2012-12-03T09:00:00","16.1","ND","19.58","2137.59","ND","ND","0.1","323.1","23","76.5","304.8","0"],
    [22599,"2012-12-03T10:00:00","24.5","ND","29.78","2571.70","ND","ND","0.9","44","25","69.3","636.6","0"],
    [22600,"2012-12-03T11:00:00","16.8","ND","38.91","2222.48","ND","ND","0.9","61.3","25.8","62.1","466.5","0"],
    [22601,"2012-12-03T12:00:00","10.2","ND","33.18","1849.38","ND","ND","0.9","76.7","27.3","58.2","788.9","0"],
    [22602,"2012-12-03T13:00:00","7.3","ND","19.61","1743.22","ND","ND","1.3","131.1","28.1","56","477.9","0"],
    [22603,"2012-12-03T14:00:00","5.1","ND","15.11","1666.84","ND","ND","1.5","140.3","28.7","53.7","578","0"],
    [22604,"2012-12-03T15:00:00","4.7","ND","15.58","1670.16","ND","ND","0.9","182.6","29.4","51","487.4","0"],
    [22605,"2012-12-03T16:00:00","12.3","ND","14.54","1674.03","ND","ND","0.5","5.7","28.9","52.4","167.4","0"],
    [22606,"2012-12-03T17:00:00","6.7","ND","14.50","1706.08","ND","ND","0.1","41.6","29","51.3","141.5","0"],
    [22607,"2012-12-03T18:00:00","24.1","ND","21.07","1776.31","ND","ND","0.8","255.3","27.2","54.9","9.4","0"],
    [22608,"2012-12-03T19:00:00","39.3","ND","15.01","1615.69","ND","ND","0.2","211.9","26","58.2","0","0"],
    [22609,"2012-12-03T20:00:00","27.3","ND","25.27","1988.55","ND","ND","0.3","214.1","25.4","59.5","0","0"],
    [22610,"2012-12-03T21:00:00","18.7","ND","33.57","2707.26","ND","ND","0.5","107.5","24.8","63.3","0","0"],
    [22611,"2012-12-03T22:00:00","40.4","ND","30.66","2781.96","ND","ND","0.1","309.5","24","66.7","0","0"],
    [22612,"2012-12-03T23:00:00","22.4","ND","33.79","3824.91","ND","ND","0.5","188.5","23","72.9","0","0"],
    [22613,"2012-12-04T00:00:00","28.1","ND","30.59","2981.35","ND","ND","0.4","317.4","22.2","76.6","0","0"],
    [22614,"2012-12-04T01:00:00","36","ND","25.93","3007.33","ND","ND","0.6","330","21.9","78.3","0","0"],
    [22615,"2012-12-04T02:00:00","36.3","ND","22.42","2358.08","ND","ND","0.4","325.1","21.4","80.3","0","0"],
    [22616,"2012-12-04T03:00:00","20.3","ND","21.04","2116.41","ND","ND","0.1","284.3","21","82.4","0.1","0"],
    [22617,"2012-12-04T04:00:00","23.6","ND","20.55","1966.60","ND","ND","0.2","312.1","20.4","84.1","0.1","0"],
    [22618,"2012-12-04T05:00:00","12.9","ND","15.76","1804.68","ND","ND","0.1","247.1","20.3","85.6","0.1","0"],
    [22619,"2012-12-04T06:00:00","8.7","ND","14.85","1680.03","ND","ND","0.3","245","20","87.7","0.3","0"],
    [22620,"2012-12-04T07:00:00","14.8","ND","13.44","1757.16","ND","ND","0.2","156","21","84.7","24.4","0"],
    [22621,"2012-12-04T08:00:00","37.9","ND","15.13","1887.48","ND","ND","1.1","166.8","22.8","75.5","181.3","0"],
    [22622,"2012-12-04T09:00:00","25.4","ND","22.27","2922.48","ND","ND","1.6","126.5","24.7","67.7","471.4","0"],
    [22623,"2012-12-04T10:00:00","21.4","ND","42.64","3364.69","ND","ND","1.1","151.4","25.7","64.7","563.8","0"],
    [22624,"2012-12-04T11:00:00","16.6","ND","39.95","2342.53","ND","ND","1.3","142.2","27","59.4","649.5","0"],
    [22625,"2012-12-04T12:00:00","21.9","ND","17.75","1741.48","ND","ND","0.6","141.2","28.3","54.3","705","0.25"],
    [22626,"2012-12-04T13:00:00","11.5","ND","19.52","1749.02","ND","ND","0.7","124.3","28.7","52.5","454.2","0"],
    [22627,"2012-12-04T14:00:00","26.9","ND","15.45","1739.75","ND","ND","1.1","195.6","30","48.6","718.2","0"],
    [22628,"2012-12-04T15:00:00","15.6","ND","16.66","1770.54","ND","ND","1.4","75.8","27.6","58.8","203.6","0"],
    [22629,"2012-12-04T16:00:00","23.6","ND","23.01","1837.41","ND","ND","0.8","125","27.6","57.8","232.3","0"],
    [22630,"2012-12-04T17:00:00","12.6","ND","30.61","1895.19","ND","ND","2.3","289.3","27.2","53.3","87.2","0"],
    [22631,"2012-12-04T18:00:00","7.4","ND","32.75","1961.91","ND","ND","0.7","87.7","26.8","57.9","26.3","0"],
    [22632,"2012-12-04T19:00:00","4.9","ND","9.38","1578.96","ND","ND","1.4","103.9","26.2","61.4","0","0"],
    [22633,"2012-12-04T20:00:00","14.6","ND","22.81","2104.90","ND","ND","1.2","154.9","25.6","61.5","0","0"],
    [22634,"2012-12-04T21:00:00","23.7","ND","30.37","2754.99","ND","ND","1.2","93","24.8","67.3","0","0"],
    [22635,"2012-12-04T22:00:00","14","ND","26.18","2358.37","ND","ND","0.3","48.1","24.3","67.8","0","0"],
    [22636,"2012-12-04T23:00:00","16.1","ND","26.91","2594.42","ND","ND","0.5","70.1","23.2","77","0","0"],
    [22637,"2012-12-05T00:00:00","19.5","ND","24.43","2061.02","ND","ND","0.7","200.4","22.6","83.5","0","0"],
    [22638,"2012-12-05T01:00:00","10.6","ND","23.41","2034.12","ND","ND","1.2","171.4","22.4","82.5","0","0"],
    [22639,"2012-12-05T02:00:00","6.7","ND","22.11","2191.73","ND","ND","0.7","154.8","21.9","84.6","0","0"],
    [22640,"2012-12-05T03:00:00","4","ND","17.71","1655.19","ND","ND","0","181.4","21.8","84.4","0","0"],
    [22641,"2012-12-05T04:00:00","4","ND","14.22","1586.63","ND","ND","0.2","81.4","21.7","84.4","0","0"],
    [22642,"2012-12-05T05:00:00","3.1","ND","12.72","1586.09","ND","ND","0.3","270.2","21.5","86.7","0","0"],
    [22643,"2012-12-05T06:00:00","11.7","ND","12.86","1562.37","ND","ND","0.2","19.9","21.2","89.2","0.1","0"],
    [22644,"2012-12-05T07:00:00","22.1","ND","14.80","1651.26","ND","ND","0.1","252.6","21.5","88.2","22.9","0"],
    [22645,"2012-12-05T08:00:00","34.7","ND","20.33","1890.69","ND","ND","1.1","91.1","22","86.2","65.2","0"],
    [22646,"2012-12-05T09:00:00","19.6","ND","18.79","2052.67","ND","ND","0.4","330.2","22.7","81.6","164.6","0"],
    [22647,"2012-12-05T10:00:00","26.8","ND","33.83","2921.49","ND","ND","0.8","155.1","24.8","70.3","483.2","0"],
    [22648,"2012-12-05T11:00:00","14.3","ND","27.25","2060.71","ND","ND","1.2","146.8","26.4","60.8","541.3","0"],
    [22649,"2012-12-05T12:00:00","17.7","ND","33.38","2152.35","ND","ND","0.4","196.3","26.8","60.3","487.7","0"],
    [22650,"2012-12-05T13:00:00","10.1","ND","36.42","2166.75","ND","ND","1.3","168.7","27.7","55","473.8","0"],
    [22651,"2012-12-05T14:00:00","5.6","ND","30.35","1999.86","ND","ND","0.7","286.9","28.7","52.8","481.7","0"],
    [22652,"2012-12-05T15:00:00","3.6","ND","19.83","1774.54","ND","ND","2.5","112.4","28","55","297.8","0"],
    [22653,"2012-12-05T16:00:00","3","ND","17.14","1758.85","ND","ND","2.4","260.3","28.7","49.7","512.2","0"],
    [22654,"2012-12-05T17:00:00","3.8","ND","22.82","1832.53","ND","ND","3.2","264.7","28","51","262.4","0"],
    [22655,"2012-12-05T18:00:00","3.1","ND","9.97","1608.43","ND","ND","0.9","269.1","27.2","52.4","73.2","0"],
    [22656,"2012-12-05T19:00:00","20","ND","7.55","1615.69","ND","ND","0.7","80","26.4","54.8","0.2","0"],
    [22657,"2012-12-05T20:00:00","25.9","ND","12.21","1680.44","ND","ND","2.4","208.4","25.4","57.5","0","0"],
    [22658,"2012-12-05T21:00:00","13.5","ND","22.44","1869.85","ND","ND","1.9","222.9","24.6","60.7","0","0"],
    [22659,"2012-12-05T22:00:00","7.4","ND","16.31","1864.83","ND","ND","1.7","179.2","24.1","64.2","0","0"],
    [22660,"2012-12-05T23:00:00","9.4","ND","8.94","1656.11","ND","ND","1.3","192.1","23.2","71.3","0","0"],
    [22661,"2012-12-06T00:00:00","15.7","ND","19.41","1844.67","ND","ND","1.3","336.3","22.1","81.1","0","0"],
    [22662,"2012-12-06T01:00:00","9.8","ND","26.26","1849.17","ND","ND","0.9","27.4","21.5","86.4","0","0"],
    [22663,"2012-12-06T02:00:00","15.8","ND","26.26","1788.80","ND","ND","0.9","17.2","20.9","89.5","0","0"],
    [22664,"2012-12-06T03:00:00","9.6","ND","25.91","1830.35","ND","ND","0.8","7.9","20.6","90.3","0.1","0"],
    [22665,"2012-12-06T04:00:00","12.3","ND","22.16","1681.75","ND","ND","0.4","40.1","20.7","89.5","0.1","0"],
    [22666,"2012-12-06T05:00:00","12.2","ND","14.03","1592.00","ND","ND","0.3","302.4","20.6","90.4","0.1","0"],
    [22667,"2012-12-06T06:00:00","25.3","ND","16.61","1580.17","ND","ND","0.2","263.2","20.7","89.1","0.2","0"],
    [22668,"2012-12-06T07:00:00","17.7","ND","18.01","1614.58","ND","ND","0.2","343.9","20.6","89.4","9.2","0"],
    [22669,"2012-12-06T08:00:00","52.3","ND","18.00","1749.47","ND","ND","0.4","146.2","21.9","83.1","173.1","0"],
    [22670,"2012-12-06T09:00:00","42.2","ND","21.38","2448.77","ND","ND","1.5","41.5","23.2","77.5","255.6","0"],
    [22671,"2012-12-06T10:00:00","34.1","ND","39.95","3040.30","ND","ND","0.9","137.1","24.6","70","373.4","0"],
    [22672,"2012-12-06T11:00:00","18.5","ND","49.73","2619.92","ND","ND","0.2","256.4","25.3","65.4","208.4","0"],
    [22673,"2012-12-06T12:00:00","14.6","ND","29.68","2006.83","ND","ND","0.6","176.6","27.1","58.3","602","0"],
    [22674,"2012-12-06T13:00:00","20.3","ND","25.78","1938.18","ND","ND","0.8","121.3","28.2","53.9","557.4","0"],
    [22675,"2012-12-06T14:00:00","33.6","ND","16.14","1771.60","ND","ND","0.2","96.8","28.9","50.9","459.6","0"],
    [22676,"2012-12-06T15:00:00","29.6","ND","17.42","1798.93","ND","ND","1.8","313.9","28.5","52.6","195.5","0"],
    [22677,"2012-12-06T16:00:00","33.9","ND","16.20","1842.91","ND","ND","1.9","286","28.6","51.6","263.9","0"],
    [22678,"2012-12-06T17:00:00","18.2","ND","19.12","1762.36","ND","ND","1.4","279.3","28.5","51","128.4","0"],
    [22679,"2012-12-06T18:00:00","9.1","ND","15.53","1692.23","ND","ND","0.6","237.7","27.4","54.2","21.9","0"],
    [22680,"2012-12-06T19:00:00","11.6","ND","22.42","1789.99","ND","ND","0.3","181.9","26.4","56.5","0.1","0"],
    [22681,"2012-12-06T20:00:00","34.6","ND","39.26","2175.37","ND","ND","0.2","152.5","25.7","58.4","0","0"],
    [22682,"2012-12-06T21:00:00","47.4","ND","52.88","3433.41","ND","ND","0.2","208.8","24.9","61.5","0","0"],
    [22683,"2012-12-06T22:00:00","46.2","ND","44.49","3046.29","ND","ND","0","149.5","24.3","64.5","0","0"],
    [22684,"2012-12-06T23:00:00","25.3","ND","41.49","3291.60","ND","ND","0.5","145.7","24.2","66.8","0","0"],
    [22685,"2012-12-07T00:00:00","53.2","ND","41.01","3519.00","ND","ND","1","176.7","23.8","69.4","0","0"],
    [22686,"2012-12-07T01:00:00","30.5","ND","32.02","3149.14","ND","ND","1.6","170.4","23.4","74.1","0","0"],
    [22687,"2012-12-07T02:00:00","28.9","ND","26.11","2335.89","ND","ND","1","154.9","23.2","75.2","0","0"],
    [22688,"2012-12-07T03:00:00","15.5","ND","24.13","1844.67","ND","ND","0","106.7","22.9","77.3","0","0"],
    [22689,"2012-12-07T04:00:00","27.8","ND","21.90","1820.05","ND","ND","0.1","294.4","22.8","78.2","0","0"],
    [22690,"2012-12-07T05:00:00","15.8","ND","20.58","1853.55","ND","ND","0.2","73.9","22.6","79.3","0","0"],
    [22691,"2012-12-07T06:00:00","36.1","ND","21.11","1954.58","ND","ND","0.4","95.1","22.4","79.1","0.1","0"],
    [22692,"2012-12-07T07:00:00","19.5","ND","18.50","1919.18","ND","ND","0.6","276.1","22.1","81.1","22.8","0"],
    [22693,"2012-12-07T08:00:00","46.8","ND","20.76","1849.17","ND","ND","1.5","158.6","23.5","75.8","141.6","0"],
    [22694,"2012-12-07T09:00:00","28.7","ND","21.53","2393.67","ND","ND","1.2","67.6","24","74.3","202.9","0"],
    [22695,"2012-12-07T10:00:00","57.5","ND","31.09","2740.23","ND","ND","0.7","338.8","24.4","72.1","267.5","0"],
    [22696,"2012-12-07T11:00:00","34.6","ND","41.75","2698.19","ND","ND","0.8","86.2","26.2","64.4","530.3","0"],
    [22697,"2012-12-07T12:00:00","30.2","ND","44.50","2380.96","ND","ND","1","88.8","28","56.3","729","0"],
    [22698,"2012-12-07T13:00:00","15.6","ND","29.87","2256.42","ND","ND","1.1","80.3","29","51.6","481.9","0"],
    [22699,"2012-12-07T14:00:00","9.4","ND","19.70","1915.62","ND","ND","0.6","46.2","28.6","53","223.2","0"],
    [22700,"2012-12-07T15:00:00","5.3","ND","13.10","1692.79","ND","ND","1.6","237.4","29.7","49.2","566.8","0"],
    [22701,"2012-12-07T16:00:00","5.1","ND","13.20","1675.69","ND","ND","1.9","250.3","30.5","46.5","442.9","0"],
    [22702,"2012-12-07T17:00:00","4.8","ND","14.89","1738.46","ND","ND","1.4","296.8","30","47.9","197.7","0"],
    [22703,"2012-12-07T18:00:00","6.2","ND","8.35","1665.71","ND","ND","0.4","351.6","28.5","50.3","34.1","0"],
    [22704,"2012-12-07T19:00:00","4.7","ND","13.62","1761.77","ND","ND","0.4","95.9","27.4","52.5","0.1","0"],
    [22705,"2012-12-07T20:00:00","24.7","ND","26.31","1963.22","ND","ND","0.3","142.9","27.7","52.4","0","0"],
    [22706,"2012-12-07T21:00:00","14.7","ND","31.28","2046.10","ND","ND","1.4","102.6","26.5","59.1","0","0"],
    [22707,"2012-12-07T22:00:00","51","ND","41.44","2982.06","ND","ND","0.6","159","25.2","65.8","0","0"],
    [22708,"2012-12-07T23:00:00","60.2","ND","36.41","2934.72","ND","ND","0.3","220.5","24.3","70.2","0","0"],
    [22709,"2012-12-08T00:00:00","64","ND","27.21","2811.57","ND","ND","0.1","192.3","24.1","71.1","0","0"],
    [22710,"2012-12-08T01:00:00","41.9","ND","30.53","3769.09","ND","ND","0.2","147.1","23.5","73","0","0"],
    [22711,"2012-12-08T02:00:00","46.8","ND","27.96","3385.33","ND","ND","0.7","207.7","23.3","74","0","0"],
    [22712,"2012-12-08T03:00:00","28.5","ND","23.02","2665.43","ND","ND","0.4","107","22.9","76.9","0","0"],
    [22713,"2012-12-08T04:00:00","40.8","ND","20.55","2525.33","ND","ND","0.5","273.6","22.7","78.7","0","0"],
    [22714,"2012-12-08T05:00:00","24.6","ND","18.15","2125.75","ND","ND","0.3","227.5","22.4","80.2","0","0"],
    [22715,"2012-12-08T06:00:00","48.6","ND","17.10","2157.66","ND","ND","0.5","284.4","22.1","81.2","0","0"],
    [22716,"2012-12-08T07:00:00","47","ND","17.08","2178.16","ND","ND","0.4","350","22.1","81.4","8.9","0"],
    [22717,"2012-12-08T08:00:00","58.9","ND","15.87","2076.06","ND","ND","0.3","97.7","22.9","78.5","112.6","0"],
    [22718,"2012-12-08T09:00:00","39.8","ND","17.95","2388.82","ND","ND","0.6","51.7","24.7","70.6","246.3","0"],
    [22719,"2012-12-08T10:00:00","29.6","ND","29.20","2689.47","ND","ND","0.8","74.6","26.1","64.8","528","0"],
    [22720,"2012-12-08T11:00:00","15.7","ND","37.41","2518.14","ND","ND","1","88.3","27.8","58.9","704.7","0"],
    [22721,"2012-12-08T12:00:00","36.1","ND","30.11","2173.98","ND","ND","1.5","147.3","29.1","53.1","742.1","0"],
    [22722,"2012-12-08T13:00:00","34.7","ND","25.20","2032.40","ND","ND","0.3","208","30.3","49.5","837.2","0"],
    [22723,"2012-12-08T14:00:00","36.1","ND","17.87","1970.51","ND","ND","0.2","288.9","30.9","47.7","581.8","0"],
    [22724,"2012-12-08T15:00:00","19.5","ND","15.27","1939.36","ND","ND","0.9","319.5","30.6","48.4","223.6","0"],
    [22725,"2012-12-08T16:00:00","27","ND","15.93","1995.80","ND","ND","1.6","288.9","30.3","49.2","168.1","0"],
    [22726,"2012-12-08T17:00:00","14.4","ND","14.84","1923.87","ND","ND","2.5","270.4","30.1","49.1","192.6","0"],
    [22727,"2012-12-08T18:00:00","8.3","ND","10.36","1806.08","ND","ND","1.8","253.8","28.8","51.7","35","0"],
    [22728,"2012-12-08T19:00:00","15.6","ND","11.77","1798.33","ND","ND","0.1","124.8","27.7","55.3","0.1","0"],
    [22729,"2012-12-08T20:00:00","24.7","ND","18.28","1884.26","ND","ND","0.3","156.9","27.1","57.3","0","0"],
    [22730,"2012-12-08T21:00:00","13.2","ND","33.59","2203.53","ND","ND","0.4","68.8","26.3","61.4","0","0"],
    [22731,"2012-12-08T22:00:00","28.1","ND","51.81","2715.43","ND","ND","0.7","91.6","25.3","67","0","0"],
    [22732,"2012-12-08T23:00:00","22.6","ND","51.70","3096.25","ND","ND","0.3","123","24.6","70.3","0.1","0"],
    [22733,"2012-12-09T00:00:00","15.9","ND","35.93","2894.50","ND","ND","0.5","118","24.6","70.4","0.1","0"],
    [22734,"2012-12-09T01:00:00","10.1","ND","25.98","2574.16","ND","ND","0.4","179.9","23.8","78","0.1","1.02"],
    [22735,"2012-12-09T02:00:00","16.7","ND","25.14","2441.73","ND","ND","0.1","168.5","22.9","86.2","0","0"],
    [22736,"2012-12-09T03:00:00","9","ND","24.14","2275.07","ND","ND","0.2","135.1","22.9","87.9","0","0.25"],
    [22737,"2012-12-09T04:00:00","5","ND","22.35","2297.82","ND","ND","0.3","26.8","22.7","87.5","0","0"],
    [22738,"2012-12-09T05:00:00","8.7","ND","21.51","2444.05","ND","ND","0.2","213.2","22.7","88","0","0"],
    [22739,"2012-12-09T06:00:00","14.9","ND","19.87","2273.53","ND","ND","0.3","203.8","22.7","86.5","0","0"],
    [22740,"2012-12-09T07:00:00","8.3","ND","17.14","2273.53","ND","ND","0.1","311.3","22.9","85.2","18.6","0"],
    [22741,"2012-12-09T08:00:00","22.2","ND","15.80","2081.69","ND","ND","0.2","240","23.7","81.8","153","0"],
    [22742,"2012-12-09T09:00:00","11.6","ND","16.82","2189.97","ND","ND","0.7","122","25.7","71.3","369.2","0"],
    [22743,"2012-12-09T10:00:00","26.9","ND","21.30","2308.08","ND","ND","0.9","98.2","26.3","68.9","305.4","0"],
    [22744,"2012-12-09T11:00:00","14.1","ND","31.97","2347.23","ND","ND","1","102.3","27.5","62.7","532.9","0"],
    [22745,"2012-12-09T12:00:00","8.3","ND","28.77","2229.57","ND","ND","1.6","139.4","29.1","56.1","815.7","0"],
    [22746,"2012-12-09T13:00:00","8.1","ND","16.11","1974.33","ND","ND","1.5","155.5","30.2","52.1","811.5","0"],
    [22747,"2012-12-09T14:00:00","27.4","ND","12.09","1876.61","ND","ND","1.9","141.2","31","49.4","584.3","0"],
    [22748,"2012-12-09T15:00:00","25.9","ND","10.32","1869.88","ND","ND","1.6","208.4","31.1","49.6","524.5","0"],
    [22749,"2012-12-09T16:00:00","13.9","ND","10.88","1893.87","ND","ND","0.6","56.2","31.1","47.8","326.3","0"],
    [22750,"2012-12-09T17:00:00","9.2","ND","11.69","1893.87","ND","ND","1.4","233.9","30.3","50.1","179","0"],
    [22751,"2012-12-09T18:00:00","7.2","ND","9.41","1818.93","ND","ND","1.6","248.7","29.1","51.2","43.6","0"],
    [22752,"2012-12-09T19:00:00","4.1","ND","11.78","1846.58","ND","ND","0.3","90.2","27.7","54.9","0.2","0"],
    [22753,"2012-12-09T20:00:00","23","ND","17.67","1953.62","ND","ND","0.2","217.3","27","57.7","0","0"],
    [22754,"2012-12-09T21:00:00","18.2","ND","34.89","2260.46","ND","ND","0.5","103.1","26.2","61.9","0.1","0"],
    [22755,"2012-12-09T22:00:00","23.6","ND","52.00","2864.05","ND","ND","0.4","128","25.5","64.9","0","0"],
    [22756,"2012-12-09T23:00:00","14.1","ND","48.45","3075.38","ND","ND","0.2","182.8","25","68","0","0"],
    [22757,"2012-12-10T00:00:00","20.7","ND","38.25","2680.72","ND","ND","0.4","125.5","24.7","69.2","0","0"],
    [22758,"2012-12-10T01:00:00","11.1","ND","28.00","2403.35","ND","ND","0.4","128.8","23.8","72.6","0","0"],
    [22759,"2012-12-10T02:00:00","7.7","ND","27.88","2304.81","ND","ND","0.3","138.4","23.4","74.9","0","0"],
    [22760,"2012-12-10T03:00:00","7","ND","20.79","1902.89","ND","ND","0.4","173.8","23","79.4","0","0"],
    [22761,"2012-12-10T04:00:00","19.9","ND","19.40","1763.77","ND","ND","0.5","242.9","22.7","80","0","0"],
    [22762,"2012-12-10T05:00:00","11.3","ND","19.25","1875.66","ND","ND","0.5","280","22.4","80.7","0","0"],
    [22763,"2012-12-10T06:00:00","39.7","ND","17.74","1873.76","ND","ND","0.3","21","21.9","82.4","0","0"],
    [22764,"2012-12-10T07:00:00","52.4","ND","15.53","1813.90","ND","ND","0.4","321.3","21.5","84.2","16.6","0"],
    [22765,"2012-12-10T08:00:00","67.2","ND","19.71","2049.20","ND","ND","0.2","265.3","22.6","79.7","122.8","0"],
    [22766,"2012-12-10T09:00:00","34.3","ND","23.20","2636.40","ND","ND","0.8","135.5","25.6","65.6","421.9","0"],
    [22767,"2012-12-10T10:00:00","39.2","ND","35.42","3168.24","ND","ND","1.4","109.3","26.9","62.7","537.3","0"],
    [22768,"2012-12-10T11:00:00","40.4","ND","33.57","2432.64","ND","ND","1.5","122","27.5","59.4","580.9","0"],
    [22769,"2012-12-10T12:00:00","33.5","ND","42.62","2483.72","ND","ND","0.7","66.2","28.9","54.8","741","0"],
    [22770,"2012-12-10T13:00:00","18.9","ND","17.96","1984.63","ND","ND","1.1","139.1","29.7","51.6","560","0"],
    [22771,"2012-12-10T14:00:00","15.2","ND","17.83","1989.89","ND","ND","0.9","342.1","30","50.4","329.8","0"],
    [22772,"2012-12-10T15:00:00","9.9","ND","16.24","ND","ND","ND","1.1","157.4","30.8","46","377.4","0"],
    [22773,"2012-12-10T16:00:00","6.5","ND","13.98","ND","ND","ND","1.3","224.9","30.6","48","171.4","0"],
    [22774,"2012-12-10T17:00:00","4.4","ND","10.63","ND","ND","ND","1.4","257.4","29.8","49.9","111.4","0"],
    [22775,"2012-12-10T18:00:00","11.9","ND","22.98","ND","ND","ND","0.9","256.2","28.7","51.8","29.7","0"],
    [22776,"2012-12-10T19:00:00","9.6","ND","20.82","ND","ND","ND","0.6","281.6","27.8","53.1","0.2","0"],
    [22777,"2012-12-10T20:00:00","24.7","ND","27.19","ND","ND","ND","0.4","133.6","27.1","54.6","0","0"],
    [22778,"2012-12-10T21:00:00","13.2","ND","37.38","ND","ND","ND","0.8","109","26.8","57","0.1","0"],
    [22779,"2012-12-10T22:00:00","33.5","ND","34.79","ND","ND","ND","0.6","99.9","25.8","62.9","0.1","0"],
    [22780,"2012-12-10T23:00:00","19.4","ND","47.06","ND","ND","ND","0.1","189.8","25.1","66.7","0","0"],
    [22781,"2012-12-11T00:00:00","47.6","ND","35.16","ND","ND","ND","0.1","246.9","24.1","71.6","0","0"],
    [22782,"2012-12-11T01:00:00","41.7","ND","28.84","ND","ND","ND","0.1","76.6","23.8","74.8","0","0"],
    [22783,"2012-12-11T02:00:00","49.3","ND","29.99","ND","ND","ND","0.1","165.9","23.5","76.6","0","0"],
    [22784,"2012-12-11T03:00:00","30.7","ND","27.75","ND","ND","ND","0.1","240.8","23.3","75.9","0","0"],
    [22785,"2012-12-11T04:00:00","38.2","ND","26.44","ND","ND","ND","0.4","289.6","23.1","77.7","0","0"],
    [22786,"2012-12-11T05:00:00","20.1","ND","23.77","ND","ND","ND","0.5","43.4","22.6","81.7","0","0"],
    [22787,"2012-12-11T06:00:00","50.5","ND","23.15","ND","ND","ND","0.4","41.2","22.2","82.6","0","0"],
    [22788,"2012-12-11T07:00:00","55.9","ND","22.41","ND","ND","ND","0.3","39.2","22.3","83.9","11.5","0"],
    [22789,"2012-12-11T08:00:00","86.7","ND","22.64","ND","ND","ND","0.3","332.9","23.1","79.9","97","0"],
    [22790,"2012-12-11T09:00:00","68.8","ND","24.31","ND","ND","ND","0.8","86.8","24.8","71.8","361.6","0"],
    [22791,"2012-12-11T10:00:00","82.5","ND","35.29","ND","ND","ND","1","131.5","26.6","64.4","569.7","0"],
    [22792,"2012-12-11T11:00:00","47.4","ND","51.73","ND","ND","ND","0.6","137.5","28.1","56.8","594.3","0"],
    [22793,"2012-12-11T12:00:00","48.9","ND","59.36","ND","ND","ND","1","104.9","29.2","52.7","577.2","0"],
    [22794,"2012-12-11T13:00:00","40.6","ND","29.15","ND","ND","ND","0.2","40.8","29.6","50.8","492.4","0"],
    [22795,"2012-12-11T14:00:00","29.7","ND","19.78","ND","ND","ND","1.2","321.6","30.5","45.7","397.7","0"],
    [22796,"2012-12-11T15:00:00","16.7","ND","20.49","ND","ND","ND","3.2","273.3","31.1","44.3","600.6","0"],
    [22797,"2012-12-11T16:00:00","10.2","ND","14.11","ND","ND","ND","3.8","281.2","30.6","44.3","404.8","0"],
    [22798,"2012-12-11T17:00:00","5.8","ND","8.58","ND","ND","ND","4.6","284.6","29.2","47.3","226.2","0"],
    [22799,"2012-12-11T18:00:00","18.7","ND","8.79","ND","ND","ND","3.2","279.5","28.1","50.2","24.4","0"],
    [22800,"2012-12-11T19:00:00","10","ND","6.09","ND","ND","ND","0.8","344.3","27","55.2","0.2","0"],
    [22801,"2012-12-11T20:00:00","6.3","ND","8.57","ND","ND","ND","1","122","26.2","60.3","0","0"],
    [22802,"2012-12-11T21:00:00","5.2","ND","12.08","ND","ND","ND","1.4","110.6","26.1","59.1","0","0"],
    [22803,"2012-12-11T22:00:00","17.2","ND","23.89","ND","ND","ND","2.5","159.6","25","67.7","0","0"],
    [22804,"2012-12-11T23:00:00","9.8","ND","27.16","ND","ND","ND","1.4","176.5","24.8","69","0","0"],
    [22805,"2012-12-12T00:00:00","27","ND","23.85","ND","ND","ND","0.5","32.8","24.2","73.5","0","0"],
    [22806,"2012-12-12T01:00:00","17.9","ND","24.44","ND","ND","ND","0.4","335.2","23.6","78.4","0","0"],
    [22807,"2012-12-12T02:00:00","28.7","ND","26.04","ND","ND","ND","0.8","13.1","23.1","80.2","0","0"],
    [22808,"2012-12-12T03:00:00","16.3","ND","24.53","ND","ND","ND","0.2","300","22.9","80.8","0","0"],
    [22809,"2012-12-12T04:00:00","40.2","ND","22.16","ND","ND","ND","0.4","335.7","22.7","80.8","0","0"],
    [22810,"2012-12-12T05:00:00","30.2","ND","24.71","ND","ND","ND","0.4","345.7","22.6","81.5","0","0"],
    [22811,"2012-12-12T06:00:00","39.4","ND","22.87","ND","ND","ND","0.2","273.1","22.7","81.5","0","0"],
    [22812,"2012-12-12T07:00:00","36.4","ND","23.72","ND","ND","ND","0.3","66.5","22.9","80.8","15.1","0"],
    [22813,"2012-12-12T08:00:00","53.8","ND","24.20","ND","ND","ND","0.9","110","23.1","79.7","96.3","0"],
    [22814,"2012-12-12T09:00:00","48","ND","28.02","ND","ND","ND","1.1","40.1","23.6","78","163.6","0"],
    [22815,"2012-12-12T10:00:00","58.9","ND","27.91","ND","ND","ND","1","5.9","24.8","72.4","438.1","0"],
    [22816,"2012-12-12T11:00:00","34.8","ND","30.68","ND","ND","ND","0.7","141.3","27.1","60.9","614.3","0"],
    [22817,"2012-12-12T12:00:00","24.4","ND","25.17","ND","ND","ND","0.9","89","28","56.2","619","0"],
    [22818,"2012-12-12T13:00:00","13.6","ND","24.67","ND","ND","ND","1.1","66.8","29.5","49.9","595.8","0"],
    [22819,"2012-12-12T14:00:00","12","ND","18.07","ND","ND","ND","1.1","38.1","29.4","50.7","301","0"],
    [22820,"2012-12-12T15:00:00","9.2","ND","12.21","ND","ND","ND","2.4","303.7","28.8","52.1","151.4","0"],
    [22821,"2012-12-12T16:00:00","17.3","ND","14.46","ND","ND","ND","1.8","257.3","29.2","50.3","213.8","0"],
    [22822,"2012-12-12T17:00:00","41.5","ND","16.77","ND","ND","ND","1.8","281.4","28.3","52.2","110.9","0"],
    [22823,"2012-12-12T18:00:00","62.4","ND","14.68","ND","ND","ND","0.1","302.7","27.8","51.5","28.2","0"],
    [22824,"2012-12-12T19:00:00","32.4","ND","15.78","ND","ND","ND","0.3","90.4","27.2","52.1","0.1","0"],
    [22825,"2012-12-12T20:00:00","25.3","ND","25.96","ND","ND","ND","0.3","98.5","26.8","54.3","0.1","0"],
    [22826,"2012-12-12T21:00:00","15.2","ND","26.17","ND","ND","ND","0.5","111.7","26.4","57.4","0.1","0"],
    [22827,"2012-12-12T22:00:00","42.5","ND","41.63","ND","ND","ND","0.9","325.8","25.5","64.6","0.1","0"],
    [22828,"2012-12-12T23:00:00","22.3","ND","37.02","ND","ND","ND","0.6","7.7","25.2","64.8","0","0"],
    [22829,"2012-12-13T00:00:00","15.5","ND","34.62","ND","ND","ND","0.8","77.6","23.8","73","0","0"],
    [22830,"2012-12-13T01:00:00","8.5","ND","22.55","ND","ND","ND","0.9","69.5","22.5","82.6","0","0"],
    [22831,"2012-12-13T02:00:00","5","ND","13.45","ND","ND","ND","0.4","17.4","21.3","91.1","0","0"],
    [22832,"2012-12-13T03:00:00","4.4","ND","17.15","ND","ND","ND","0.6","50","21.5","91.4","0","0"],
    [22833,"2012-12-13T04:00:00","15.9","ND","20.20","ND","ND","ND","0","44.1","21.3","93.6","0","6.35"],
    [22834,"2012-12-13T05:00:00","9.2","ND","22.58","ND","ND","ND","0.9","59.9","20.8","95.1","0","1.27"],
    [22835,"2012-12-13T06:00:00","5.1","ND","20.72","ND","ND","ND","0.4","36","20.9","94.7","0","0"],
    [22836,"2012-12-13T07:00:00","3.2","ND","14.51","ND","ND","ND","0.8","94.1","21","94.5","6.8","0"],
    [22837,"2012-12-13T08:00:00","11.3","ND","15.53","ND","ND","ND","1","69.6","21.1","93.3","32","0"],
    [22838,"2012-12-13T09:00:00","6.5","ND","19.94","ND","ND","ND","0.8","40.4","21.1","92.8","22.2","0"],
    [22839,"2012-12-13T10:00:00","13.6","ND","19.68","ND","ND","ND","0.6","39.4","21.7","89.9","65.1","0"],
    [22840,"2012-12-13T11:00:00","8.1","ND","19.28","ND","ND","ND","1.4","282.4","21.1","91.9","72.2","7.62"],
    [22841,"2012-12-13T12:00:00","4.9","ND","20.60","ND","ND","ND","0.6","228.3","21.7","86.9","257.5","1.52"],
    [22842,"2012-12-13T13:00:00","4","ND","20.41","ND","ND","ND","0.3","206.9","23.8","75.9","362","0"],
    [22843,"2012-12-13T14:00:00","4.1","ND","15.19","ND","ND","ND","0.6","196.1","24.5","74","278.4","0"],
    [22844,"2012-12-13T15:00:00","3.2","ND","22.15","ND","ND","ND","1.1","176","24.9","69.6","230.1","0"],
    [22845,"2012-12-13T16:00:00","9.2","ND","47.37","ND","ND","ND","1.2","201.1","25.1","68.7","158.3","0"],
    [22846,"2012-12-13T17:00:00","6.9","ND","37.57","ND","ND","ND","1.4","225.9","24.9","68.9","74.1","0"],
    [22847,"2012-12-13T18:00:00","10.9","ND","37.64","ND","ND","ND","0.9","225.4","24.7","67.8","20","0"],
    [22848,"2012-12-13T19:00:00","20.6","ND","42.64","ND","ND","ND","1.2","351.8","23.2","79.2","0","0"],
    [22849,"2012-12-13T20:00:00","21.4","ND","40.02","ND","ND","ND","0.7","30.6","22.6","83.2","0.1","0"],
    [22850,"2012-12-13T21:00:00","36","ND","54.24","ND","ND","ND","0.7","52.1","22.2","86.2","0","0"],
    [22851,"2012-12-13T22:00:00","36.4","ND","60.51","ND","ND","ND","1.1","3.1","22","82.9","0","0"],
    [22852,"2012-12-13T23:00:00","31.3","ND","55.82","ND","ND","ND","0.2","307.1","22.2","82.4","0","0"],
    [22853,"2012-12-14T00:00:00","45","ND","30.17","ND","ND","ND","0.4","169.4","22.5","81","0","0"],
    [22854,"2012-12-14T01:00:00","44.2","ND","44.04","ND","ND","ND","0.4","49.1","22.2","84.3","0","0"],
    [22855,"2012-12-14T02:00:00","24","ND","50.11","ND","ND","ND","0.6","12.2","21.4","88","0","0"],
    [22856,"2012-12-14T03:00:00","13.3","ND","39.99","ND","ND","ND","0.4","282.4","21","91.9","0","1.02"],
    [22857,"2012-12-14T04:00:00","16.3","ND","26.42","ND","ND","ND","0.3","153.1","21.1","92.5","0","0.25"],
    [22858,"2012-12-14T05:00:00","13","ND","26.19","ND","ND","ND","0.6","31.4","20.7","93.8","0","14.22"],
    [22859,"2012-12-14T06:00:00","25.9","ND","27.66","ND","ND","ND","1.1","11.8","20","96.8","0","13.21"],
    [22860,"2012-12-14T07:00:00","15.1","ND","32.52","ND","ND","ND","0.3","265","19.7","98.2","2.7","24.38"],
    [22861,"2012-12-14T08:00:00","16.1","ND","33.45","ND","ND","ND","0.1","166.2","19.8","98.8","32","1.52"],
    [22862,"2012-12-14T09:00:00","9.1","ND","38.10","ND","ND","ND","0.2","177.7","20.9","94.6","152.7","0"],
    [22863,"2012-12-14T10:00:00","6.6","ND","38.88","ND","ND","ND","0.6","79.1","22","88.6","136.2","0"],
    [22864,"2012-12-14T11:00:00","11.9","ND","52.41","ND","ND","ND","1.2","321.9","21.5","89.8","46.1","0.25"],
    [22865,"2012-12-14T12:00:00","18.7","ND","64.03","ND","ND","ND","0.9","259.5","20.8","96.1","188.4","18.54"],
    [22866,"2012-12-14T13:00:00","10.5","ND","53.94","ND","ND","ND","0.8","204.1","23.4","79.8","347.1","0"],
    [22867,"2012-12-14T14:00:00","7","ND","39.96","ND","ND","ND","1.7","251.2","23.4","79.8","220.2","0.25"],
    [22868,"2012-12-14T15:00:00","5.5","ND","30.16","ND","ND","ND","1.1","259.4","24","73.9","164","0"],
    [22869,"2012-12-14T16:00:00","4","ND","31.57","ND","ND","ND","0.2","332","24.9","66.7","158.7","0"],
    [22870,"2012-12-14T17:00:00","3.8","ND","25.00","ND","ND","ND","0.6","249.9","24.9","68.6","75.1","0"],
    [22871,"2012-12-14T18:00:00","37.7","ND","26.94","ND","ND","ND","0.5","9.4","24.4","74","17","0"],
    [22872,"2012-12-14T19:00:00","34.4","ND","56.67","ND","ND","ND","1.3","190","22","86.7","0","1.52"],
    [22873,"2012-12-14T20:00:00","33.3","ND","64.88","ND","ND","ND","0.3","229.8","22.2","86.1","0","0.25"],
    [22874,"2012-12-14T21:00:00","21","ND","50.23","ND","ND","ND","0.1","354.7","22.2","88.4","0","0"],
    [22875,"2012-12-14T22:00:00","25.5","ND","64.35","ND","ND","ND","0.1","331.6","21.9","85.9","0","0"],
    [22876,"2012-12-14T23:00:00","14.2","ND","55.08","ND","ND","ND","0","234.9","21.8","88.9","0.1","0"],
    [22877,"2012-12-15T00:00:00","19.6","ND","38.79","ND","ND","ND","0.1","273.5","21.6","89.2","0.1","0"],
    [22878,"2012-12-15T01:00:00","21.8","ND","39.32","ND","ND","ND","0.5","348.1","21.7","86","0","0"],
    [22879,"2012-12-15T02:00:00","36.7","ND","36.34","ND","ND","ND","0.3","322.1","21.7","84.4","0","0"],
    [22880,"2012-12-15T03:00:00","20.2","ND","34.44","ND","ND","ND","0.1","89.8","21.2","89.1","0","0"],
    [22881,"2012-12-15T04:00:00","21","ND","32.89","ND","ND","ND","0.1","43.4","21.3","89.8","0","0"],
    [22882,"2012-12-15T05:00:00","26","ND","26.52","ND","ND","ND","0.2","18.7","21.3","88.2","0","0"],
    [22883,"2012-12-15T06:00:00","34.4","ND","32.22","ND","ND","ND","0","35.2","21.1","90.5","0","0"],
    [22884,"2012-12-15T07:00:00","51.8","ND","25.43","ND","ND","ND","0","45.5","21.1","91.5","27","0"],
    [22885,"2012-12-15T08:00:00","48.4","ND","24.46","ND","ND","ND","0.3","166.3","22","87.5","72.3","0"],
    [22886,"2012-12-15T09:00:00","27.6","ND","24.87","ND","ND","ND","1.3","140.1","22.8","81.6","172.9","0"],
    [22887,"2012-12-15T10:00:00","33.3","ND","38.36","ND","ND","ND","0.2","184.2","23.8","76.3","277.4","0"],
    [22888,"2012-12-15T11:00:00","17.9","ND","41.31","ND","ND","ND","0.6","301.1","24.6","72.3","289.2","0"],
    [22889,"2012-12-15T12:00:00","11.6","ND","21.65","ND","ND","ND","0.2","31.5","26.7","64.1","742.5","0"],
    [22890,"2012-12-15T13:00:00","12","ND","25.76","ND","ND","ND","1.1","81.8","27.4","59.9","626.4","0"],
    [22891,"2012-12-15T14:00:00","9.4","ND","19.50","ND","ND","ND","0.3","352.7","28.3","56.9","605.8","0"],
    [22892,"2012-12-15T15:00:00","6.2","ND","16.83","ND","ND","ND","0.6","38.9","29.5","54.1","605.3","0"],
    [22893,"2012-12-15T16:00:00","4.7","ND","13.65","ND","ND","ND","1.4","241.7","29.4","51.4","353","0"],
    [22894,"2012-12-15T17:00:00","4.4","ND","18.46","ND","ND","ND","2.7","271.6","28.4","51.1","188.3","0"],
    [22895,"2012-12-15T18:00:00","9.1","ND","11.60","ND","ND","ND","1.7","258.2","27.5","53.9","32","0"],
    [22896,"2012-12-15T19:00:00","20.7","ND","9.74","ND","ND","ND","0.6","251.5","26.4","58","0.1","0"],
    [22897,"2012-12-15T20:00:00","35.4","ND","14.80","ND","ND","ND","0.8","111.4","26.1","60.1","0","0"],
    [22898,"2012-12-15T21:00:00","38.3","ND","23.50","ND","ND","ND","0.9","139.9","25.7","64.1","0","0"],
    [22899,"2012-12-15T22:00:00","42.3","ND","41.67","ND","ND","ND","3.1","191.8","24.7","68.2","0","0"],
    [22900,"2012-12-15T23:00:00","23","ND","39.17","ND","ND","ND","2.7","205.5","23","77.5","0","0"],
    [22901,"2012-12-16T00:00:00","13.4","ND","25.59","ND","ND","ND","2.1","142.4","22.8","78.4","0","0"],
    [22902,"2012-12-16T01:00:00","7.3","ND","18.02","ND","ND","ND","1.5","188.4","21.5","85.6","0.1","0"],
    [22903,"2012-12-16T02:00:00","4.5","ND","28.31","ND","ND","ND","0.2","37.8","21.6","85.5","0.1","0"],
    [22904,"2012-12-16T03:00:00","2.3","ND","20.89","ND","ND","ND","0.2","2.8","21.4","87.7","0.1","0"],
    [22905,"2012-12-16T04:00:00","1.1","ND","28.99","ND","ND","ND","0.3","122.7","21.5","87.1","0.1","0"],
    [22906,"2012-12-16T05:00:00","2.7","ND","26.49","ND","ND","ND","0.6","130.2","21.1","88.1","0.1","0"],
    [22907,"2012-12-16T06:00:00","4.3","ND","31.47","ND","ND","ND","0.9","143.4","20.9","88.7","0.1","0"],
    [22908,"2012-12-16T07:00:00","4.3","ND","24.54","ND","ND","ND","0.6","275","21.2","86.9","46.9","0"],
    [22909,"2012-12-16T08:00:00","3.2","ND","18.95","ND","ND","ND","0.5","12","23.3","74.8","209.2","0"],
    [22910,"2012-12-16T09:00:00","2.2","ND","17.94","ND","ND","ND","1.1","78.2","24.9","67.9","417.7","0"],
    [22911,"2012-12-16T10:00:00","23","ND","14.91","ND","ND","ND","1.4","74.6","25.4","68.4","390.7","0"],
    [22912,"2012-12-16T11:00:00","12.9","ND","17.94","ND","ND","ND","1.2","38.6","25.9","66.5","531.4","0"],
    [22913,"2012-12-16T12:00:00","12.8","ND","26.96","ND","ND","ND","0.7","54.3","27","60.2","463.4","0"],
    [22914,"2012-12-16T13:00:00","8.6","ND","10.26","ND","ND","ND","0.4","20.9","28.4","53.6","675.3","0"],
    [22915,"2012-12-16T14:00:00","6.1","ND","6.67","ND","ND","ND","0.5","27.6","29.2","51.9","688.5","0"],
    [22916,"2012-12-16T15:00:00","4.7","ND","6.97","ND","ND","ND","1.4","297.8","29.7","49.9","593.9","0"],
    [22917,"2012-12-16T16:00:00","4.4","ND","7.77","ND","ND","ND","1.7","255.8","29.9","48.4","367.2","0"],
    [22918,"2012-12-16T17:00:00","3.5","ND","8.54","ND","ND","ND","3.6","272.8","28.9","49.9","201.2","0"],
    [22919,"2012-12-16T18:00:00","2.3","ND","5.74","ND","ND","ND","2.3","275.7","27.7","51.5","18.6","0"],
    [22920,"2012-12-16T19:00:00","2.3","ND","5.06","ND","ND","ND","0.3","143.4","27.1","53.7","0.4","0"],
    [22921,"2012-12-16T20:00:00","11.5","ND","9.75","ND","ND","ND","0.4","93.1","26.1","58.2","0","0"],
    [22922,"2012-12-16T21:00:00","7.9","ND","29.77","ND","ND","ND","0.5","131.6","25.1","63.2","0","0"],
    [22923,"2012-12-16T22:00:00","28.3","ND","42.18","ND","ND","ND","0.9","90.7","24.8","65.8","0.1","0"],
    [22924,"2012-12-16T23:00:00","25.5","ND","34.73","ND","ND","ND","0.4","50.6","23.8","70.5","0.1","0"],
    [22925,"2012-12-17T00:00:00","25.3","ND","31.95","ND","ND","ND","0.4","135.3","23.4","73.4","0","0"],
    [22926,"2012-12-17T01:00:00","14.9","ND","29.24","ND","ND","ND","0.1","62.5","22.5","77.7","0","0"],
    [22927,"2012-12-17T02:00:00","26.8","ND","30.57","ND","ND","ND","1","219.4","22.2","80.4","0","0"],
    [22928,"2012-12-17T03:00:00","13.9","ND","29.27","ND","ND","ND","0.2","270.4","21.7","82.7","0","0"],
    [22929,"2012-12-17T04:00:00","10.4","ND","27.83","ND","ND","ND","0.3","13.2","21.6","80.2","0","0"],
    [22930,"2012-12-17T05:00:00","23.5","ND","17.80","ND","ND","ND","0","89.5","21.4","81.3","0","0"],
    [22931,"2012-12-17T06:00:00","15.2","ND","16.73","ND","ND","ND","0.2","273.8","21.3","82.8","0","0"],
    [22932,"2012-12-17T07:00:00","33.4","ND","21.04","ND","ND","ND","0.1","23.3","21.7","80.3","11.2","0"],
    [22933,"2012-12-17T08:00:00","56.6","ND","16.93","ND","ND","ND","0.3","197.7","22.6","77.2","122.1","0"],
    [22934,"2012-12-17T09:00:00","61.2","ND","24.19","ND","ND","ND","0.8","137.3","24.9","68.5","390.4","0"],
    [22935,"2012-12-17T10:00:00","56.6","ND","34.38","ND","ND","ND","1","136.9","26","62.9","543.3","0"],
    [22936,"2012-12-17T11:00:00","36.2","ND","66.44","ND","ND","ND","0.9","171.9","27.3","56.4","618.3","0"],
    [22937,"2012-12-17T12:00:00","35.7","ND","45.29","ND","ND","ND","0.4","11","27.9","55.5","382.1","0"],
    [22938,"2012-12-17T13:00:00","23.2","ND","25.20","ND","ND","ND","1","245.5","28.5","52.7","434.8","0"],
    [22939,"2012-12-17T14:00:00","26","ND","36.59","ND","ND","ND","0.7","295.7","28.9","51.2","311.8","0"],
    [22940,"2012-12-17T15:00:00","14.4","ND","28.41","ND","ND","ND","2.8","280.1","27.9","52.7","131.3","0"],
    [22941,"2012-12-17T16:00:00","7.2","ND","14.64","ND","ND","ND","2","280.4","27.6","50.9","154.5","0"],
    [22942,"2012-12-17T17:00:00","5.2","ND","14.04","ND","ND","ND","1.3","290.7","27.2","52.7","156.9","0"],
    [22943,"2012-12-17T18:00:00","4.1","ND","13.64","ND","ND","ND","0.2","292.2","26.8","52.6","53.3","0"],
    [22944,"2012-12-17T19:00:00","3.6","ND","7.90","ND","ND","ND","1.9","126.6","26.4","53.3","0.2","0"],
    [22945,"2012-12-17T20:00:00","3.6","ND","13.09","ND","ND","ND","1.3","165.9","25.9","56.5","0","0"],
    [22946,"2012-12-17T21:00:00","3.6","ND","27.11","ND","ND","ND","1.6","282","23.5","73","0","2.29"],
    [22947,"2012-12-17T22:00:00","3.4","ND","25.71","ND","ND","ND","0.4","265.2","22","86.5","0","2.03"],
    [22948,"2012-12-17T23:00:00","3.5","ND","27.11","ND","ND","ND","0.4","229.9","21.8","87.6","0","0"],
    [22949,"2012-12-18T00:00:00","2.9","ND","25.71","ND","ND","ND","2.2","161.2","21.4","88.9","0","0"],
    [22950,"2012-12-18T01:00:00","1.4","ND","25.04","ND","ND","ND","2.4","175.1","20.9","90.3","0","0.25"],
    [22951,"2012-12-18T02:00:00","ND","ND","19.13","ND","ND","ND","2.2","166.7","20.6","90.4","0","0"],
    [22952,"2012-12-18T03:00:00","1.8","ND","10.08","ND","ND","ND","1.2","177.9","20.5","91.7","0","0"],
    [22953,"2012-12-18T04:00:00","2.2","ND","6.96","ND","ND","ND","0.8","165.9","20.6","92.2","0","0"],
    [22954,"2012-12-18T05:00:00","3.4","ND","7.68","ND","ND","ND","0.5","178.8","20.6","91.3","0","0"],
    [22955,"2012-12-18T06:00:00","3.7","ND","8.03","ND","ND","ND","0.3","193.6","20.5","91.3","0","0"],
    [22956,"2012-12-18T07:00:00","12.9","ND","9.59","ND","ND","ND","0","289.4","20.1","92.2","7.6","0"],
    [22957,"2012-12-18T08:00:00","21.3","ND","11.13","ND","ND","ND","0.4","52.3","20.5","89.8","50","0"],
    [22958,"2012-12-18T09:00:00","17.9","ND","15.01","ND","ND","ND","0.5","24.7","21.4","86.2","216.1","0"],
    [22959,"2012-12-18T10:00:00","28.6","ND","21.04","ND","ND","ND","0.8","100.4","24.2","71.4","640.5","0"],
    [22960,"2012-12-18T11:00:00","15.5","ND","34.39","ND","ND","ND","1.2","77.9","25.4","64.9","643.7","0"],
    [22961,"2012-12-18T12:00:00","9.3","ND","33.99","ND","ND","ND","1.4","49.6","26.2","61.5","751.9","0"],
    [22962,"2012-12-18T13:00:00","4.6","ND","19.16","ND","ND","ND","0.9","54.4","27.5","56.3","750.2","0"],
    [22963,"2012-12-18T14:00:00","2.3","ND","9.67","ND","ND","ND","0.3","24.2","28.4","52.7","507.6","0"],
    [22964,"2012-12-18T15:00:00","1.7","ND","9.22","ND","ND","ND","1.9","256.9","28.8","50.6","336.1","0"],
    [22965,"2012-12-18T16:00:00","ND","ND","11.64","ND","ND","ND","3.7","275.5","29","47.3","452.2","0"],
    [22966,"2012-12-18T17:00:00","1.9","ND","10.35","ND","ND","ND","3.3","276.7","28.1","46.9","194","0"],
    [22967,"2012-12-18T18:00:00","1.6","ND","7.31","ND","ND","ND","0.3","257.4","27.3","48.5","36.3","0"],
    [22968,"2012-12-18T19:00:00","1.7","ND","8.94","ND","ND","ND","1.3","104.4","26.2","55","0.4","0"],
    [22969,"2012-12-18T20:00:00","22.7","ND","19.61","ND","ND","ND","0.9","193.8","25","64.8","0","0"],
    [22970,"2012-12-18T21:00:00","18.8","ND","34.77","ND","ND","ND","0.3","136.4","24.3","68.1","0","0"],
    [22971,"2012-12-18T22:00:00","19.3","ND","46.81","ND","ND","ND","0.2","263.9","23.3","71.7","0.1","0"],
    [22972,"2012-12-18T23:00:00","10.2","ND","41.41","ND","ND","ND","0.1","318.1","22.9","72.2","0.1","0"],
    [22973,"2012-12-19T00:00:00","31.1","ND","35.66","ND","ND","ND","0.1","106.6","22.8","72.8","0","0"],
    [22974,"2012-12-19T01:00:00","20.2","ND","33.89","ND","ND","ND","0.1","259.8","22.1","78.8","0","0"],
    [22975,"2012-12-19T02:00:00","32.2","ND","30.68","ND","ND","ND","0.4","281.8","21.9","78.5","0","0"],
    [22976,"2012-12-19T03:00:00","18.3","ND","27.10","ND","ND","ND","0.5","349.4","22.1","76.6","0","0"],
    [22977,"2012-12-19T04:00:00","23.2","ND","25.68","ND","ND","ND","0.5","356.3","21.9","78.7","0.1","0"],
    [22978,"2012-12-19T05:00:00","25","ND","26.82","ND","ND","ND","0.1","159.7","21.8","81.4","0","0"],
    [22979,"2012-12-19T06:00:00","40.6","ND","27.63","ND","ND","ND","0.6","258.5","21.8","81.4","0","0"],
    [22980,"2012-12-19T07:00:00","21.8","ND","23.94","ND","ND","ND","0.2","281.5","21.7","80.7","15.4","0"],
    [22981,"2012-12-19T08:00:00","57.2","ND","25.05","ND","ND","ND","0.3","80.9","22.6","78.2","72.6","0"],
    [22982,"2012-12-19T09:00:00","42","ND","25.76","ND","ND","ND","0.2","356.3","23.9","73.2","281.9","0"],
    [22983,"2012-12-19T10:00:00","72.4","ND","39.35","ND","ND","ND","0.8","114.8","25.4","65.8","397.9","0"],
    [22984,"2012-12-19T11:00:00","38","ND","53.47","ND","ND","ND","1","175.1","26.2","60.2","280.5","0"],
    [22985,"2012-12-19T12:00:00","24.3","ND","74.39","ND","ND","ND","1.1","269.5","26.9","58.5","372.7","0"],
    [22986,"2012-12-19T13:00:00","13.7","ND","37.32","ND","ND","ND","0.1","42.3","28.8","50.9","800.1","0"],
    [22987,"2012-12-19T14:00:00","19.2","ND","23.61","ND","ND","ND","0.9","31.4","29.2","49.7","428","0"],
    [22988,"2012-12-19T15:00:00","11.9","ND","22.04","ND","ND","ND","1.9","299.9","29","50.3","421.2","0"],
    [22989,"2012-12-19T16:00:00","6.6","ND","17.10","ND","ND","ND","2.6","260.6","29.2","48.9","268.3","0"],
    [22990,"2012-12-19T17:00:00","5.5","ND","13.14","ND","ND","ND","1.8","268.9","27.7","53.3","38.8","0"],
    [22991,"2012-12-19T18:00:00","10.2","ND","12.16","ND","ND","ND","0.5","231.5","27.1","55","8","0"],
    [22992,"2012-12-19T19:00:00","12.3","ND","19.04","ND","ND","ND","0.5","122.8","26","59.1","0.1","0"],
    [22993,"2012-12-19T20:00:00","41.6","ND","31.60","ND","ND","ND","1.3","127.4","24.7","68.3","0","0"],
    [22994,"2012-12-19T21:00:00","40.3","ND","40.62","ND","ND","ND","1","164.1","24.1","69.8","0.1","0"],
    [22995,"2012-12-19T22:00:00","38.1","ND","53.03","ND","ND","ND","0.7","193.9","23.7","71.4","0.1","0"],
    [22996,"2012-12-19T23:00:00","39.4","ND","64.88","ND","ND","ND","0.7","4.1","22.8","74.9","0.1","0"],
    [22997,"2012-12-20T00:00:00","56.3","ND","50.81","ND","ND","ND","0.5","27.5","22.7","76.2","0.1","0"],
    [22998,"2012-12-20T01:00:00","46.9","ND","42.18","ND","ND","ND","0.4","65.5","22.5","78.3","0","0"],
    [22999,"2012-12-20T02:00:00","42.6","ND","40.62","ND","ND","ND","0.1","228.1","22.5","78.8","0.1","0"],
    [23000,"2012-12-20T03:00:00","30.7","ND","46.13","ND","ND","ND","0.1","214.6","22.3","79.7","0","0"],
    [23001,"2012-12-20T04:00:00","43.4","ND","41.30","ND","ND","ND","0.2","277.8","21.8","81.7","0","0"],
    [23002,"2012-12-20T05:00:00","24.2","ND","37.36","ND","ND","ND","0.3","188","21.7","81.7","0","0"],
    [23003,"2012-12-20T06:00:00","42","ND","30.75","ND","ND","ND","0.1","258.8","21.9","80.8","0","0"],
    [23004,"2012-12-20T07:00:00","23.2","ND","30.23","ND","ND","ND","0.2","319","22","81.2","15","0"],
    [23005,"2012-12-20T08:00:00","73.5","ND","30.50","ND","ND","ND","0.3","19","22.5","80.4","127.4","0"],
    [23006,"2012-12-20T09:00:00","64.9","ND","35.06","ND","ND","ND","1.2","27.9","23.3","76","183","0"],
    [23007,"2012-12-20T10:00:00","71.8","ND","40.11","ND","ND","ND","0.9","53.8","24.9","69.1","406.9","0"],
    [23008,"2012-12-20T11:00:00","37.5","ND","48.20","ND","ND","ND","1","63.9","26.6","60.6","525.3","0"],
    [23009,"2012-12-20T12:00:00","19.5","ND","30.45","ND","ND","ND","1","59.2","28.1","53.3","771.3","0"],
    [23010,"2012-12-20T13:00:00","12.6","ND","11.30","ND","ND","ND","0.6","44.8","29.3","49.2","572.8","0"],
    [23011,"2012-12-20T14:00:00","23.2","ND","10.68","ND","ND","ND","1.6","313.7","29.2","48.7","358.8","0"],
    [23012,"2012-12-20T15:00:00","13.3","ND","12.68","ND","ND","ND","1.9","266.4","30.1","45.6","561.3","0"],
    [23013,"2012-12-20T16:00:00","7.3","ND","10.75","ND","ND","ND","3","263.1","30.5","43.7","469","0"],
    [23014,"2012-12-20T17:00:00","5.3","ND","7.73","ND","ND","ND","2","269.4","29.7","45.5","187.6","0"],
    [23015,"2012-12-20T18:00:00","7.7","ND","8.23","ND","ND","ND","0.9","260.6","28.3","49.4","39.4","0"],
    [23016,"2012-12-20T19:00:00","29.1","ND","11.54","ND","ND","ND","0.2","236.8","27.2","51.7","0.4","0"],
    [23017,"2012-12-20T20:00:00","50.8","ND","23.77","ND","ND","ND","0.3","118.9","26.8","53.5","0","0"],
    [23018,"2012-12-20T21:00:00","49.9","ND","37.93","ND","ND","ND","0.9","105.4","26.2","56.9","0","0"],
    [23019,"2012-12-20T22:00:00","41.5","ND","48.32","ND","ND","ND","0.4","158.7","25.4","62.3","0","0"],
    [23020,"2012-12-20T23:00:00","22.7","ND","43.72","ND","ND","ND","0.4","248.2","24.7","65.9","0.1","0"],
    [23021,"2012-12-21T00:00:00","50.4","ND","32.23","ND","ND","ND","0.4","47.6","24","69.7","0.1","0"],
    [23022,"2012-12-21T01:00:00","26.9","ND","33.26","ND","ND","ND","0.2","48","22.9","74.5","0","0"],
    [23023,"2012-12-21T02:00:00","31","ND","30.56","ND","ND","ND","0.3","268.6","22.8","75.9","0","0"],
    [23024,"2012-12-21T03:00:00","17.3","ND","24.47","ND","ND","ND","0.2","220.6","22.9","76.3","0","0"],
    [23025,"2012-12-21T04:00:00","35.5","ND","23.36","ND","ND","ND","0.1","336.3","22.8","77.9","0","0"],
    [23026,"2012-12-21T05:00:00","20.6","ND","22.94","ND","ND","ND","0.2","7.3","22.3","80.3","0","0"],
    [23027,"2012-12-21T06:00:00","50.3","ND","21.15","ND","ND","ND","0.2","235.7","22.3","80.3","0","0"],
    [23028,"2012-12-21T07:00:00","51.2","ND","21.26","ND","ND","ND","0.6","356.1","22.5","80.8","18.4","0"],
    [23029,"2012-12-21T08:00:00","61","ND","20.54","ND","ND","ND","0.1","124.8","23.2","79","96.5","0"],
    [23030,"2012-12-21T09:00:00","67.3","ND","24.22","ND","ND","ND","0.3","115.1","24.6","72.8","303.8","0"],
    [23031,"2012-12-21T10:00:00","48.1","ND","36.87","ND","ND","ND","0.7","145.6","26.5","62.6","548.8","0"],
    [23032,"2012-12-21T11:00:00","29.5","ND","53.95","ND","ND","ND","0.8","98","27.5","58.9","512.1","0"],
    [23033,"2012-12-21T12:00:00","23.2","ND","43.63","ND","ND","ND","0.8","101.1","27.8","57.6","300.1","0"],
    [23034,"2012-12-21T13:00:00","13.7","ND","29.77","ND","ND","ND","0.2","242.7","28.2","54.8","306.5","0"],
    [23035,"2012-12-21T14:00:00","17.7","ND","19.21","1991.60","ND","ND","0.8","302.9","29.3","50.2","458.7","0"],
    [23036,"2012-12-21T15:00:00","9.8","ND","20.62","2010.50","ND","ND","2.6","306.9","28.9","50.4","312.7","0"],
    [23037,"2012-12-21T16:00:00","6.1","ND","11.31","1810.54","ND","ND","3","265.2","29.4","48.1","417","0"],
    [23038,"2012-12-21T17:00:00","4.9","ND","10.36","1790.28","ND","ND","2.3","282.5","28.9","47.2","233.4","0"],
    [23039,"2012-12-21T18:00:00","3.3","ND","7.99","1787.32","ND","ND","1.1","248","28","49.3","50.2","0"],
    [23040,"2012-12-21T19:00:00","6.1","ND","9.74","1782.00","ND","ND","0.8","244.8","26.6","54.7","0.1","0"],
    [23041,"2012-12-21T20:00:00","4.5","ND","19.81","2142.27","ND","ND","0.2","182.2","25.8","58.9","0","0"],
    [23042,"2012-12-21T21:00:00","3","ND","26.27","2182.50","ND","ND","0.5","110.5","25.4","60.7","0","0"],
    [23043,"2012-12-21T22:00:00","14.3","ND","26.97","2328.70","ND","ND","0.9","315.5","24.1","67.3","0.1","0"],
    [23044,"2012-12-21T23:00:00","8.3","ND","30.23","2170.08","ND","ND","0.5","17.5","23.6","72.4","0","0"],
    [23045,"2012-12-22T00:00:00","10.9","ND","30.63","2257.65","ND","ND","0.7","14.9","23.1","76.7","0","0"],
    [23046,"2012-12-22T01:00:00","7.1","ND","29.77","2071.71","ND","ND","0.2","51.1","22.9","76.6","0","0"],
    [23047,"2012-12-22T02:00:00","18.8","ND","27.57","2093.06","ND","ND","0.5","170.2","22.7","79.4","0","0"],
    [23048,"2012-12-22T03:00:00","23.8","ND","26.31","2137.12","ND","ND","0.3","226.4","22.5","79.8","0","0"],
    [23049,"2012-12-22T04:00:00","25","ND","26.03","2158.39","ND","ND","0.4","249.1","22.2","81.6","0","0"],
    [23050,"2012-12-22T05:00:00","24.8","ND","24.16","2156.20","ND","ND","0.6","32.8","21.9","83","0","0"],
    [23051,"2012-12-22T06:00:00","43.7","ND","21.90","2176.68","ND","ND","0.4","12","21.9","83.2","0","0"],
    [23052,"2012-12-22T07:00:00","40.2","ND","23.06","2233.37","ND","ND","0.9","32.2","21.7","82.9","9.8","0"],
    [23053,"2012-12-22T08:00:00","46","ND","20.77","2209.20","ND","ND","0.5","51.3","22.1","82.9","68.9","0"],
    [23054,"2012-12-22T09:00:00","27.7","ND","23.09","2348.33","ND","ND","0.8","87.1","24","74.2","329.2","0"],
    [23055,"2012-12-22T10:00:00","49.1","ND","21.89","2112.26","ND","ND","1.9","125.5","25.4","68.3","552","0"],
    [23056,"2012-12-22T11:00:00","25.2","ND","27.18","2248.40","ND","ND","0.9","88.5","26","64.2","339.8","0"],
    [23057,"2012-12-22T12:00:00","28.4","ND","26.59","2195.45","ND","ND","0.8","244","27.6","57.6","598.4","0"],
    [23058,"2012-12-22T13:00:00","32.8","ND","18.90","1999.19","ND","ND","0.7","79.3","28.1","55.8","397.4","0"],
    [23059,"2012-12-22T14:00:00","38.7","ND","21.10","2083.54","ND","ND","1","115","28.9","52.1","341.7","0"],
    [23060,"2012-12-22T15:00:00","25.4","ND","24.25","2158.72","ND","ND","1.4","272","29.1","51.1","269.6","0"],
    [23061,"2012-12-22T16:00:00","22.2","ND","18.88","2113.69","ND","ND","2.8","242.9","29.8","48.2","451.5","0"],
    [23062,"2012-12-22T17:00:00","11.9","ND","17.63","2013.82","ND","ND","1.9","228.9","29.2","48.9","152.4","0"],
    [23063,"2012-12-22T18:00:00","ND","ND","11.82","1858.81","ND","ND","2","252.2","27.7","53.6","22.9","0"],
    [23064,"2012-12-22T19:00:00","1.3","ND","16.00","1988.30","ND","ND","0.2","224.2","26.9","55.6","0.2","0"],
    [23065,"2012-12-22T20:00:00","12.5","ND","21.32","ND","ND","ND","0.3","268","26.3","57.5","0","0"],
    [23066,"2012-12-22T21:00:00","7.3","ND","34.84","ND","ND","ND","0.9","126.8","25.8","61.1","0.1","0"],
    [23067,"2012-12-22T22:00:00","24.8","ND","37.92","ND","ND","ND","0.4","191.1","24.8","67","0","0"],
    [23068,"2012-12-22T23:00:00","26.5","ND","46.40","ND","ND","ND","0.1","213.6","24.1","69.3","0","0"],
    [23069,"2012-12-23T00:00:00","27.9","ND","36.37","ND","ND","ND","0.6","286.9","23.9","70","0","0"],
    [23070,"2012-12-23T01:00:00","21.4","ND","38.77","ND","ND","ND","0.1","353.1","23.7","72.1","0","0"],
    [23071,"2012-12-23T02:00:00","14.8","ND","39.40","ND","ND","ND","0.3","359.1","23.2","76.2","0","0"],
    [23072,"2012-12-23T03:00:00","13.2","ND","32.44","ND","ND","ND","0.4","314.8","22.9","78.1","0","0"],
    [23073,"2012-12-23T04:00:00","33.4","ND","30.00","ND","ND","ND","0.8","50.7","22.5","79.4","0","0"],
    [23074,"2012-12-23T05:00:00","28.1","ND","28.57","ND","ND","ND","0.1","169.3","22.8","78.7","0","0"],
    [23075,"2012-12-23T06:00:00","27.1","ND","26.27","ND","ND","ND","0.2","179.3","22.8","79.3","0","0"],
    [23076,"2012-12-23T07:00:00","25.2","ND","26.44","ND","ND","ND","0.2","86.5","22.4","81.1","11.7","0"],
    [23077,"2012-12-23T08:00:00","37.6","ND","23.52","ND","ND","ND","0.4","134.6","22.7","81.4","80.8","0"],
    [23078,"2012-12-23T09:00:00","28","ND","23.87","ND","ND","ND","0.5","33.2","23.4","79.1","154.2","0"],
    [23079,"2012-12-23T10:00:00","35.2","ND","30.54","ND","ND","ND","0.4","114.1","25","71.1","464.8","0"],
    [23080,"2012-12-23T11:00:00","18.4","ND","33.62","ND","ND","ND","1","103.6","26.7","62.4","405.2","0"],
    [23081,"2012-12-23T12:00:00","24.6","ND","31.48","ND","ND","ND","1.2","117.7","27.2","61.2","488.6","0"],
    [23082,"2012-12-23T13:00:00","27.3","ND","27.13","ND","ND","ND","1.3","137.8","27.7","58.8","252.9","0"],
    [23083,"2012-12-23T14:00:00","15.7","ND","18.93","ND","ND","ND","1.3","130.5","27.7","59.2","182.8","0"],
    [23084,"2012-12-23T15:00:00","11","ND","16.10","ND","ND","ND","0.8","169","28","57.3","294.5","0"],
    [23085,"2012-12-23T16:00:00","11.7","ND","12.40","ND","ND","ND","0.4","279.4","28.4","56.5","189.1","0"],
    [23086,"2012-12-23T17:00:00","8.1","ND","13.07","ND","ND","ND","1.4","38.8","27.7","58.4","74.9","0"],
    [23087,"2012-12-23T18:00:00","16.8","ND","16.86","ND","ND","ND","0.8","346.9","27.2","57.6","15.5","0"],
    [23088,"2012-12-23T19:00:00","24.6","ND","12.33","ND","ND","ND","0.1","212.6","27","59","0","0"],
    [23089,"2012-12-23T20:00:00","24.8","ND","18.22","ND","ND","ND","0.5","161","26.9","61.1","0","0"],
    [23090,"2012-12-23T21:00:00","18.6","ND","36.71","ND","ND","ND","1","351.5","25.3","69.4","0","0"],
    [23091,"2012-12-23T22:00:00","41.5","ND","50.68","ND","ND","ND","0.5","26.2","24.8","72.5","0.1","0"],
    [23092,"2012-12-23T23:00:00","21.8","ND","45.59","ND","ND","ND","0.3","292.9","24.3","73.9","0","0"],
    [23093,"2012-12-24T00:00:00","39.3","ND","38.44","ND","ND","ND","0.1","319.6","23.9","76","0","0"],
    [23094,"2012-12-24T01:00:00","40.6","ND","42.43","ND","ND","ND","0.1","313.5","23","80","0","0"],
    [23095,"2012-12-24T02:00:00","26.6","ND","38.91","ND","ND","ND","0.1","287.6","23.1","79.6","0","0"],
    [23096,"2012-12-24T03:00:00","15.1","ND","32.45","ND","ND","ND","0.4","14.8","23.3","79.5","0","0"],
    [23097,"2012-12-24T04:00:00","37.5","ND","31.18","ND","ND","ND","0.5","40.4","22.8","83","0","0"],
    [23098,"2012-12-24T05:00:00","33.1","ND","30.04","ND","ND","ND","0.2","320.4","22.4","85.2","0","0"],
    [23099,"2012-12-24T06:00:00","31","ND","25.56","ND","ND","ND","0.3","171.7","22.6","84.7","0","0"],
    [23100,"2012-12-24T07:00:00","21.5","ND","24.85","ND","ND","ND","0.1","90.1","22.6","84.3","3.8","0"],
    [23101,"2012-12-24T08:00:00","56.6","ND","24.31","ND","ND","ND","0.6","16","22.5","85.7","15.8","0"],
    [23102,"2012-12-24T09:00:00","46.1","ND","28.50","ND","ND","ND","0.5","37.3","22.7","84.6","62.1","0"],
    [23103,"2012-12-24T10:00:00","37.5","ND","31.17","ND","ND","ND","0.1","41.5","24.1","76.8","226","0"],
    [23104,"2012-12-24T11:00:00","21.9","ND","29.97","ND","ND","ND","0.8","66.5","25.3","71.9","319.3","0"],
    [23105,"2012-12-24T12:00:00","50.1","ND","39.40","2419.66","ND","ND","1.2","10.9","26","68.8","414.6","0"],
    [23106,"2012-12-24T13:00:00","45.4","ND","36.38","2229.94","ND","ND","0.6","84.9","27.5","61.2","451","0"],
    [23107,"2012-12-24T14:00:00","35.1","ND","30.39","2056.29","ND","ND","0.3","45.3","28.1","57.1","349.7","0"],
    [23108,"2012-12-24T15:00:00","23.1","ND","18.90","1794.16","ND","ND","0.6","297.7","28.6","55.7","350","0"],
    [23109,"2012-12-24T16:00:00","15.4","ND","19.40","1947.87","ND","ND","1.9","253.1","28.5","52.3","222.5","0"],
    [23110,"2012-12-24T17:00:00","9.3","ND","17.59","1854.50","ND","ND","1.4","265.6","28","53.1","90.9","0"],
    [23111,"2012-12-24T18:00:00","12.4","ND","8.83","1805.14","ND","ND","1.5","262.2","27","55.3","16.7","0"],
    [23112,"2012-12-24T19:00:00","6.7","ND","15.89","1799.14","ND","ND","0.7","244.1","26.5","56","0.1","0"],
    [23113,"2012-12-24T20:00:00","4.6","ND","15.67","1830.68","ND","ND","0.1","64.7","26","58.5","0","0"],
    [23114,"2012-12-24T21:00:00","3.3","ND","22.75","2126.49","ND","ND","0.5","102.8","25.1","66.2","0","0"],
    [23115,"2012-12-24T22:00:00","12.3","ND","26.47","2177.38","ND","ND","0.6","243.2","24","71.8","0.1","0"],
    [23116,"2012-12-24T23:00:00","26","ND","33.84","2306.36","ND","ND","0.1","297.2","23.5","73.3","0","0"],
    [23117,"2012-12-25T00:00:00","22.4","ND","38.04","2963.59","ND","ND","0.2","273.3","22.6","77.6","0","0"],
    [23118,"2012-12-25T01:00:00","12.3","ND","35.27","3022.77","ND","ND","0.1","302.2","22.5","78.5","0","0"],
    [23119,"2012-12-25T02:00:00","19.3","ND","25.92","2487.83","ND","ND","0.5","36.2","22.2","80.3","0","0"],
    [23120,"2012-12-25T03:00:00","10.6","ND","29.95","2757.67","ND","ND","0.1","9.6","21.7","83.5","0","0"],
    [23121,"2012-12-25T04:00:00","30.4","ND","27.42","2956.92","ND","ND","0.1","291.1","21.9","83.3","0","0"],
    [23122,"2012-12-25T05:00:00","16.4","ND","18.97","2210.70","ND","ND","0.6","47.9","21.8","83.3","0","0"],
    [23123,"2012-12-25T06:00:00","25.7","ND","19.27","2436.61","ND","ND","0.3","316.9","21.4","85.3","0","0"],
    [23124,"2012-12-25T07:00:00","17.3","ND","19.98","2274.85","ND","ND","0.1","260.8","21.7","85","14.2","0"],
    [23125,"2012-12-25T08:00:00","34.3","ND","18.51","2050.59","ND","ND","0.2","146","22.7","80.3","122.9","0"],
    [23126,"2012-12-25T09:00:00","19.3","ND","18.89","2193.96","ND","ND","1","195.3","24.1","73.6","311.1","0"],
    [23127,"2012-12-25T10:00:00","22.5","ND","24.92","2192.92","ND","ND","2.2","164.9","25.5","67.3","598.8","0"],
    [23128,"2012-12-25T11:00:00","12.1","ND","27.32","2099.98","ND","ND","1.3","130.2","27.3","60","733.2","0"],
    [23129,"2012-12-25T12:00:00","7","ND","11.29","1800.94","ND","ND","0.7","54.5","28.3","56.4","654.5","0"],
    [23130,"2012-12-25T13:00:00","5.4","ND","8.11","1725.86","ND","ND","0.4","13.1","29","53.2","396.8","0"],
    [23131,"2012-12-25T14:00:00","3.7","ND","9.41","1741.48","ND","ND","1.3","331.3","28.3","55","211.8","0"],
    [23132,"2012-12-25T15:00:00","2.4","ND","10.30","1702.69","ND","ND","0.6","328.2","26.7","66","159.8","0"],
    [23133,"2012-12-25T16:00:00","2.9","ND","3.86","1555.39","ND","ND","0.8","319.7","27.7","57.4","200.9","0"],
    [23134,"2012-12-25T17:00:00","1.5","ND","8.36","1676.18","ND","ND","0.5","289.4","28.4","53.5","230.2","0"],
    [23135,"2012-12-25T18:00:00","ND","ND","4.25","1575.80","ND","ND","0.6","337.7","28.2","52.9","99.3","0"],
    [23136,"2012-12-25T19:00:00","1.1","ND","3.81","1621.07","ND","ND","0.2","179.7","26.8","57.1","0.6","0"],
    [23137,"2012-12-25T20:00:00","1.2","ND","3.81","1555.91","ND","ND","0.3","36.3","25.9","60.7","0","0"],
    [23138,"2012-12-25T21:00:00","1.1","ND","15.72","1861.49","ND","ND","1","64.4","25.2","66.2","0","0"],
    [23139,"2012-12-25T22:00:00","7.5","ND","26.39","2097.87","ND","ND","0.3","19.7","23.7","73","0.1","0"],
    [23140,"2012-12-25T23:00:00","4.8","ND","27.72","2121.53","ND","ND","0.2","25.8","23.6","73.3","0","0"],
    [23141,"2012-12-26T00:00:00","3","ND","22.33","1778.75","ND","ND","0.6","22.3","23.4","75","0","0"],
    [23142,"2012-12-26T01:00:00","2.7","ND","23.25","2210.55","ND","ND","0.1","43.5","23.2","77.1","0","0"],
    [23143,"2012-12-26T02:00:00","1.3","ND","26.02","2106.57","ND","ND","0.2","333.5","22.8","79.2","0","0"],
    [23144,"2012-12-26T03:00:00","2.8","ND","24.45","1842.18","ND","ND","0.1","274.8","22.4","81.3","0","0"],
    [23145,"2012-12-26T04:00:00","2.4","ND","22.65","1907.83","ND","ND","0.2","281","22.1","82.9","0","0"],
    [23146,"2012-12-26T05:00:00","2.3","ND","20.42","1928.58","ND","ND","0.4","206.5","22.6","80.8","0","0"],
    [23147,"2012-12-26T06:00:00","5.8","ND","18.46","1920.48","ND","ND","0.7","26.3","22.2","82.4","0","0"],
    [23148,"2012-12-26T07:00:00","5.1","ND","19.55","1815.75","ND","ND","0.1","175.1","22","82.5","12.7","0"],
    [23149,"2012-12-26T08:00:00","15.1","ND","19.76","1859.88","ND","ND","0.2","12.5","22.8","80.1","112.5","0"],
    [23150,"2012-12-26T09:00:00","13.8","ND","19.87","1842.18","ND","ND","0.7","60","24.4","73.5","328.9","0"],
    [23151,"2012-12-26T10:00:00","24.6","ND","22.97","2080.81","ND","ND","0.5","108.9","25.9","65.9","518.1","0"],
    [23152,"2012-12-26T11:00:00","12.9","ND","28.90","2114.28","ND","ND","1.2","128.8","27.6","58.5","596.8","0"],
    [23153,"2012-12-26T12:00:00","7.2","ND","26.56","1814.30","ND","ND","0.6","304.1","28","57","555.5","0"],
    [23154,"2012-12-26T13:00:00","5","ND","18.05","1886.14","ND","ND","0.9","32.9","29.4","51.9","694","0"],
    [23155,"2012-12-26T14:00:00","13.6","ND","22.27","1906.54","ND","ND","0.2","295","30.4","48.1","576.3","0"],
    [23156,"2012-12-26T15:00:00","7.5","ND","12.33","1714.56","ND","ND","2.1","293.3","29.8","49.3","254.9","0"],
    [23157,"2012-12-26T16:00:00","4.8","ND","10.91","1676.25","ND","ND","2.8","284.6","30.2","47.7","413.6","0"],
    [23158,"2012-12-26T17:00:00","3.3","ND","10.29","1655.15","ND","ND","1.3","210.8","28.4","56.3","41.3","0"],
    [23159,"2012-12-26T18:00:00","19.4","ND","6.13","1610.56","ND","ND","0.4","240.2","27.8","55.6","17","0"],
    [23160,"2012-12-26T19:00:00","15.9","ND","15.72","1873.32","ND","ND","0.8","231","27.3","55.9","0.3","0"],
    [23161,"2012-12-26T20:00:00","37.8","ND","31.07","2343.53","ND","ND","0.2","159.5","27.2","56.7","0","0"],
    [23162,"2012-12-26T21:00:00","35.8","ND","36.85","2562.02","ND","ND","1.2","146.6","26.5","61.7","0.1","0"],
    [23163,"2012-12-26T22:00:00","35.3","ND","41.42","2544.54","ND","ND","0.6","74","25.2","67.6","0.1","0"],
    [23164,"2012-12-26T23:00:00","25","ND","35.15","2854.48","ND","ND","0.4","256.6","24.9","68.4","0","0"],
    [23165,"2012-12-27T00:00:00","36.8","ND","27.49","2290.45","ND","ND","0.4","14.9","24.3","71.3","0","0"],
    [23166,"2012-12-27T01:00:00","23.6","ND","28.84","2571.56","ND","ND","0.8","274.8","23.2","77.2","0","0"],
    [23167,"2012-12-27T02:00:00","32.7","ND","27.76","2493.73","ND","ND","0.2","239.7","23.4","74.8","0","0"],
    [23168,"2012-12-27T03:00:00","28.1","ND","26.71","2085.21","ND","ND","0.4","34.2","22.9","78.7","0","0"],
    [23169,"2012-12-27T04:00:00","34.9","ND","30.11","2172.69","ND","ND","0.1","251.4","22.8","80.2","0","0"],
    [23170,"2012-12-27T05:00:00","31.6","ND","25.91","2160.58","ND","ND","0.4","16","22.7","80.9","0","0"],
    [23171,"2012-12-27T06:00:00","44","ND","25.30","2091.65","ND","ND","0.3","129.5","22.6","80.9","0","0"],
    [23172,"2012-12-27T07:00:00","47","ND","24.42","2056.85","ND","ND","0.4","306.1","22.5","81.2","10.9","0"],
    [23173,"2012-12-27T08:00:00","59.2","ND","24.67","2101.59","ND","ND","0.3","53.5","23.2","79.4","58.2","0"],
    [23174,"2012-12-27T09:00:00","62.8","ND","26.21","2562.05","ND","ND","0.6","144.9","24.6","72.7","255.9","0"],
    [23175,"2012-12-27T10:00:00","49.2","ND","36.04","2745.77","ND","ND","1.4","154.2","26.1","65.4","339","0"],
    [23176,"2012-12-27T11:00:00","25.4","ND","47.73","2679.12","ND","ND","1.2","132.2","27.1","62","476.9","0"],
    [23177,"2012-12-27T12:00:00","36.6","ND","57.05","2768.83","ND","ND","0.8","95.3","28.5","57.2","645.8","0"],
    [23178,"2012-12-27T13:00:00","42.4","ND","37.54","2329.72","ND","ND","0.9","272.6","29.3","53.4","512.2","0"],
    [23179,"2012-12-27T14:00:00","44.7","ND","34.95","2254.55","ND","ND","1","356.3","29.7","51.2","276.6","0"],
    [23180,"2012-12-27T15:00:00","22.3","ND","31.89","2094.62","ND","ND","1.4","242.7","30.6","48.2","551.1","0"],
    [23181,"2012-12-27T16:00:00","11.2","ND","20.34","1785.72","ND","ND","1","63.4","30.4","50.3","222.2","0"],
    [23182,"2012-12-27T17:00:00","17.7","ND","14.50","1842.86","ND","ND","0.6","165.1","30.1","49.9","81.4","0"],
    [23183,"2012-12-27T18:00:00","23.8","ND","10.86","1782.78","ND","ND","1.2","238.6","29.3","51.6","21.8","0"],
    [23184,"2012-12-27T19:00:00","14.1","ND","17.08","1929.15","ND","ND","0.2","89.9","28","55","0.3","0"],
    [23185,"2012-12-27T20:00:00","18.6","ND","23.95","2163.85","ND","ND","1.5","256.8","26.7","60","0","0"],
    [23186,"2012-12-27T21:00:00","31","ND","35.53","2212.11","ND","ND","0.3","279.1","26","63.3","0","0"],
    [23187,"2012-12-27T22:00:00","33.7","ND","37.34","2344.88","ND","ND","0.9","122.4","25.8","64.8","0","0"],
    [23188,"2012-12-27T23:00:00","24.7","ND","43.83","2446.69","ND","ND","0.6","69.4","24.9","69.4","0","0"],
    [23189,"2012-12-28T00:00:00","33.6","ND","42.17","2874.51","ND","ND","0.5","122.5","24.5","70.4","0","0"],
    [23190,"2012-12-28T01:00:00","26.2","ND","34.28","2802.03","ND","ND","0.3","201.8","24.4","71.2","0","0"],
    [23191,"2012-12-28T02:00:00","45.7","ND","26.84","2298.03","ND","ND","0.1","142.7","24.1","73.9","0","0"],
    [23192,"2012-12-28T03:00:00","34.9","ND","26.51","2421.35","ND","ND","0.2","286.7","23.3","77.5","0","0"],
    [23193,"2012-12-28T04:00:00","24.1","ND","25.62","2346.49","ND","ND","0.9","170.4","23","78.5","0","0"],
    [23194,"2012-12-28T05:00:00","19.6","ND","22.84","2309.98","ND","ND","0.4","185.5","23","80.1","0","0"],
    [23195,"2012-12-28T06:00:00","22.3","ND","20.56","2071.01","ND","ND","0.2","312.7","22.6","83.7","0","4.83"],
    [23196,"2012-12-28T07:00:00","36","ND","20.85","1977.30","ND","ND","0.1","18.7","22","90.5","13.3","0.25"],
    [23197,"2012-12-28T08:00:00","39.1","ND","21.85","2166.08","ND","ND","0.2","41","22.3","87.1","55.8","0"],
    [23198,"2012-12-28T09:00:00","42.1","ND","24.90","2713.19","ND","ND","0.1","305.7","23.3","84","169.5","0.25"],
    [23199,"2012-12-28T10:00:00","47.1","ND","27.94","2870.46","ND","ND","0.5","95.9","25.6","71.3","484","0"],
    [23200,"2012-12-28T11:00:00","29.5","ND","42.48","3087.89","ND","ND","1","52.5","27.3","62.1","690.5","0"],
    [23201,"2012-12-28T12:00:00","16","ND","56.37","2897.67","ND","ND","0.7","7.3","28.4","55.9","654","0"],
    [23202,"2012-12-28T13:00:00","9.3","ND","34.46","2317.36","ND","ND","0.4","110.3","30","51.1","776.9","0"],
    [23203,"2012-12-28T14:00:00","5.9","ND","15.93","1945.26","ND","ND","1.6","333.4","30.7","47.7","590.2","0"],
    [23204,"2012-12-28T15:00:00","4.8","ND","16.33","1903.06","ND","ND","1.2","53.9","31.3","46.5","472.7","0"],
    [23205,"2012-12-28T16:00:00","29","ND","12.27","1824.93","ND","ND","2.3","287.8","30.6","47.4","203.2","0"],
    [23206,"2012-12-28T17:00:00","15.1","ND","16.14","1809.06","ND","ND","2.4","272.3","30.4","47.9","204.1","0"],
    [23207,"2012-12-28T18:00:00","13.7","ND","14.13","1831.20","ND","ND","1.8","253.2","29.3","50.6","55.3","0"],
    [23208,"2012-12-28T19:00:00","31.9","ND","15.15","1871.04","ND","ND","0.5","214.5","28.1","53.6","0.5","0"],
    [23209,"2012-12-28T20:00:00","21.4","ND","19.09","1967.79","ND","ND","0.7","98.4","27.7","55.8","0","0"],
    [23210,"2012-12-28T21:00:00","12.4","ND","34.61","2277.29","ND","ND","1.4","101.4","27","59.2","0","0"],
    [23211,"2012-12-28T22:00:00","31","ND","44.39","2594.92","ND","ND","0.7","181.2","25.7","63.6","0","0"],
    [23212,"2012-12-28T23:00:00","17.8","ND","34.38","2468.84","ND","ND","0.7","89","25.2","66.5","0","0"],
    [23213,"2012-12-29T00:00:00","35.7","ND","26.84","2281.29","ND","ND","0.5","195.2","24.4","70.2","0","0"],
    [23214,"2012-12-29T01:00:00","18.4","ND","27.76","2560.99","ND","ND","1","161.9","24.1","72","0","0"],
    [23215,"2012-12-29T02:00:00","14.4","ND","20.19","2192.92","ND","ND","1","166.3","23.7","74.2","0","0"],
    [23216,"2012-12-29T03:00:00","21.4","ND","20.20","2247.00","ND","ND","0.1","323.1","23.1","77.1","0","0"],
    [23217,"2012-12-29T04:00:00","34","ND","19.07","2037.56","ND","ND","0.3","350.1","22.7","79.8","0","0"],
    [23218,"2012-12-29T05:00:00","17.9","ND","18.43","2137.12","ND","ND","0.2","322.1","22.6","80.6","0","0"],
    [23219,"2012-12-29T06:00:00","22.3","ND","18.74","2284.13","ND","ND","0.4","27.5","22.5","81.3","0","0"],
    [23220,"2012-12-29T07:00:00","23.9","ND","17.00","2203.83","ND","ND","0.6","4.9","22.1","84.1","14.9","0"],
    [23221,"2012-12-29T08:00:00","43.2","ND","17.51","2393.71","ND","ND","0.5","33.5","22.7","81.6","76","0"],
    [23222,"2012-12-29T09:00:00","22.9","ND","18.46","2466.78","ND","ND","0.8","74.3","24.2","74.7","321.6","0"],
    [23223,"2012-12-29T10:00:00","24.8","ND","23.76","2410.74","ND","ND","0.6","131.2","26","65.5","470.8","0"],
    [23224,"2012-12-29T11:00:00","13.5","ND","31.12","2321.89","ND","ND","1.1","145.4","27.8","57.6","620.6","0"],
    [23225,"2012-12-29T12:00:00","15.5","ND","27.59","2231.80","ND","ND","0.8","111.2","28.6","54.9","598.3","0"],
    [23226,"2012-12-29T13:00:00","25.6","ND","23.87","2179.76","ND","ND","1","133.8","29.9","49.8","728.7","0"],
    [23227,"2012-12-29T14:00:00","21.3","ND","17.29","2049.42","ND","ND","1","30.3","31.4","45.3","716.7","0"],
    [23228,"2012-12-29T15:00:00","11.4","ND","15.70","2071.27","ND","ND","1.2","329.3","30.5","46.7","226.6","0"],
    [23229,"2012-12-29T16:00:00","6.7","ND","9.97","1866.80","ND","ND","1.9","282.8","30.9","44.5","394.3","0"],
    [23230,"2012-12-29T17:00:00","5","ND","8.09","1834.21","ND","ND","1","312.1","31.1","44","257.8","0"],
    [23231,"2012-12-29T18:00:00","2.5","ND","4.25","1776.97","ND","ND","0.8","284.8","29.4","47.4","38.6","0"],
    [23232,"2012-12-29T19:00:00","9.5","ND","5.83","1778.66","ND","ND","0.6","143.7","28.2","49.8","0.7","0"],
    [23233,"2012-12-29T20:00:00","8.7","ND","9.86","1887.39","ND","ND","0.5","87.6","27.3","53.4","0","0"],
    [23234,"2012-12-29T21:00:00","6.6","ND","17.86","2008.74","ND","ND","0.1","25.3","26.2","58.3","0","0"],
    [23235,"2012-12-29T22:00:00","31.6","ND","35.83","2530.49","ND","ND","0.6","177.1","25.3","62.5","0","0"],
    [23236,"2012-12-29T23:00:00","26.4","ND","36.76","3371.48","ND","ND","0.4","151.2","24.7","66.6","0","0"],
    [23237,"2012-12-30T00:00:00","44.3","ND","31.69","3204.47","ND","ND","0.4","88.5","24.4","68.3","0","0"],
    [23238,"2012-12-30T01:00:00","23.6","ND","25.26","2949.72","ND","ND","0.9","122","24","71.3","0","0"],
    [23239,"2012-12-30T02:00:00","13.5","ND","22.68","2454.79","ND","ND","1.5","173","23.2","78.4","0","0"],
    [23240,"2012-12-30T03:00:00","9.1","ND","20.11","2083.80","ND","ND","0.3","168.1","22.8","81.9","0","0"],
    [23241,"2012-12-30T04:00:00","6.1","ND","20.71","2092.36","ND","ND","0.5","225.4","23","81.2","0","0"],
    [23242,"2012-12-30T05:00:00","5.3","ND","20.62","2139.29","ND","ND","0.1","278.3","23.1","77.8","0","0"],
    [23243,"2012-12-30T06:00:00","6","ND","19.29","2174.16","ND","ND","0.3","77.9","23","78.9","0","0"],
    [23244,"2012-12-30T07:00:00","7.2","ND","18.32","2025.50","ND","ND","0.1","0.7","22.6","80.8","16.7","0"],
    [23245,"2012-12-30T08:00:00","19.7","ND","18.48","2193.22","ND","ND","0.4","169.1","23.8","75.2","168.7","0"],
    [23246,"2012-12-30T09:00:00","10.9","ND","18.46","2281.99","ND","ND","1.2","130.3","25.1","67.3","280.8","0"],
    [23247,"2012-12-30T10:00:00","6.3","ND","23.27","2349.28","ND","ND","1.3","100.1","25.9","65.5","449.8","0"],
    [23248,"2012-12-30T11:00:00","3.9","ND","16.55","1964.90","ND","ND","0.8","95.3","27.8","58.3","741.3","0"],
    [23249,"2012-12-30T12:00:00","11.5","ND","12.22","1908.01","ND","ND","1","78.3","28.7","54.1","679.3","0"],
    [23250,"2012-12-30T13:00:00","7.2","ND","9.80","1855.73","ND","ND","1.1","344.1","30","47.3","794.7","0"],
    [23251,"2012-12-30T14:00:00","3.6","ND","11.36","1898.67","ND","ND","0.7","291.1","31.4","41.1","632.8","0"],
    [23252,"2012-12-30T15:00:00","3.6","ND","5.68","1743.61","ND","ND","0.9","52.8","31.4","41.5","382.5","0"],
    [23253,"2012-12-30T16:00:00","3.8","ND","3.35","1708.51","ND","ND","3","270.5","30.7","43.4","424.8","0"],
    [23254,"2012-12-30T17:00:00","4","ND","5.26","1739.60","ND","ND","3.7","283.3","29.8","44.5","247.7","0"],
    [23255,"2012-12-30T18:00:00","3.2","ND","5.89","1757.73","ND","ND","2.3","268.7","28.8","46.1","56.1","0"],
    [23256,"2012-12-30T19:00:00","13.9","ND","5.19","1763.53","ND","ND","0.7","131","27.8","50.8","0.5","0"],
    [23257,"2012-12-30T20:00:00","17.6","ND","7.66","1792.38","ND","ND","0.5","346.4","27","53.6","0","0"],
    [23258,"2012-12-30T21:00:00","9.8","ND","23.68","2110.53","ND","ND","0.8","125.2","26.4","57.7","0","0"],
    [23259,"2012-12-30T22:00:00","6.6","ND","23.29","1968.19","ND","ND","0.5","57.7","24.9","64.8","0","0"],
    [23260,"2012-12-30T23:00:00","5.2","ND","31.07","2450.78","ND","ND","0.4","155.4","24.3","67.7","0","0"],
    [23261,"2012-12-31T00:00:00","4","ND","30.33","2537.27","ND","ND","0.4","182","24.2","68.8","0","0"],
    [23262,"2012-12-31T01:00:00","5.3","ND","25.88","2490.72","ND","ND","0.5","43.8","23.7","72.3","0","0"],
    [23263,"2012-12-31T02:00:00","8.4","ND","26.31","2771.68","ND","ND","0.6","13.9","22.6","78.1","0","0"],
    [23264,"2012-12-31T03:00:00","6.4","ND","22.42","2409.13","ND","ND","0","214","22.7","77.4","0","0"],
    [23265,"2012-12-31T04:00:00","4.8","ND","15.40","1784.72","ND","ND","0.2","234.6","22.7","77.8","0","0"],
    [23266,"2012-12-31T05:00:00","4.3","ND","17.42","1898.40","ND","ND","0.1","35","22.7","77.5","0","0"],
    [23267,"2012-12-31T06:00:00","6.6","ND","16.22","1989.34","ND","ND","0.7","358.3","22.2","80.2","0","0"],
    [23268,"2012-12-31T07:00:00","4.7","ND","16.42","1963.28","ND","ND","0.6","54.3","21.6","82.8","19.6","0"],
    [23269,"2012-12-31T08:00:00","14.1","ND","16.53","2061.22","ND","ND","0.5","140.3","23.1","76.3","108.2","0"],
    [23270,"2012-12-31T09:00:00","8.1","ND","16.39","2105.86","ND","ND","1.8","161.8","23.8","72","263.5","0"],
    [23271,"2012-12-31T10:00:00","10.5","ND","25.77","2373.27","ND","ND","2","120","25.3","67.1","533.5","0"],
    [23272,"2012-12-31T11:00:00","5.2","ND","22.08","2201.78","ND","ND","1.3","124.7","26.9","59.2","706","0"],
    [23273,"2012-12-31T12:00:00","2.6","ND","15.16","1948.42","ND","ND","1.4","112.3","28.7","51.4","720.1","0"],
    [23274,"2012-12-31T13:00:00","4.9","ND","12.89","1948.52","ND","ND","0.8","11.7","29.6","49.1","616","0"],
    [23275,"2012-12-31T14:00:00","20.8","ND","12.01","1907.80","ND","ND","1.2","27.9","29.9","47.9","537","0"],
    [23276,"2012-12-31T15:00:00","11.4","ND","12.67","1956.27","ND","ND","0.4","3","31.5","42.9","585.7","0"],
    [23277,"2012-12-31T16:00:00","5.7","ND","9.14","1849.54","ND","ND","1.9","323.9","30.1","46.7","149.2","0"],
    [23278,"2012-12-31T17:00:00","2.9","ND","9.48","1852.69","ND","ND","3.3","260.9","29.8","47.5","206.2","0"],
    [23279,"2012-12-31T18:00:00","8.6","ND","7.56","1781.01","ND","ND","1.7","255.6","28.7","48.8","22.3","0"],
    [23280,"2012-12-31T19:00:00","18.2","ND","9.15","1855.73","ND","ND","0.2","136.3","27.7","52.2","0.3","0"],
    [23281,"2012-12-31T20:00:00","23.6","ND","17.90","1999.86","ND","ND","0.7","97.9","27.4","54.4","0.1","0"],
    [23282,"2012-12-31T21:00:00","12.9","ND","23.09","2090.25","ND","ND","0.8","83.7","26.4","58.6","0","0"],
    [23283,"2012-12-31T22:00:00","24.2","ND","42.73","2232.92","ND","ND","0.6","150.1","25.2","64.1","0","0"],
    [23284,"2012-12-31T23:00:00","32.7","ND","36.43","2269.82","ND","ND","0.3","139.6","24.7","67.1","0","0"],
    [23285,"2013-01-01T00:00:00","18.3","ND","34.00","2689.47","ND","ND","0.1","106.8","24.4","69.2","0","0"],
    [23286,"2013-01-01T01:00:00","55.2","ND","28.02","ND","ND","ND","0.4","67","23.7","72.6","0","0"],
    [23287,"2013-01-01T02:00:00","74.3","ND","26.46","ND","ND","ND","0.1","88.5","23.3","74.5","0","0"],
    [23288,"2013-01-01T03:00:00","59.1","ND","23.93","ND","ND","ND","0.6","31.9","23","76.4","0","0"],
    [23289,"2013-01-01T04:00:00","57.7","ND","20.06","ND","ND","ND","0.1","31.3","22.8","77.1","0","0"],
    [23290,"2013-01-01T05:00:00","32","ND","21.20","ND","ND","ND","0.1","339.4","23","76.5","0","0"],
    [23291,"2013-01-01T06:00:00","47.2","ND","20.17","ND","ND","ND","0.3","20.7","22.7","77.8","0","0"],
    [23292,"2013-01-01T07:00:00","25.2","ND","15.76","ND","ND","ND","1","23","22.1","81.3","10.3","0"],
    [23293,"2013-01-01T08:00:00","14.1","ND","12.59","ND","ND","ND","0.3","287.8","22.5","79.5","79.9","0"],
    [23294,"2013-01-01T09:00:00","ND","ND","18.21","ND","ND","ND","0.4","28.6","24.3","71.9","279","0"],
    [23295,"2013-01-01T10:00:00","ND","ND","8.17","ND","ND","ND","1.1","124.3","26.2","61.5","573.3","0"],
    [23296,"2013-01-01T11:00:00","1.5","ND","6.23","ND","ND","ND","0.7","55.6","27.6","56.3","631.1","0"],
    [23297,"2013-01-01T12:00:00","5.9","ND","10.61","ND","ND","ND","0.6","31.6","28.8","52.1","714","0"],
    [23298,"2013-01-01T13:00:00","8.2","ND","8.82","ND","ND","ND","0.8","49.5","29.7","49.2","597","0"],
    [23299,"2013-01-01T14:00:00","14.7","ND","5.98","ND","ND","ND","0.7","339.8","30.3","46.2","503.1","0"],
    [23300,"2013-01-01T15:00:00","8","ND","1.51","ND","ND","ND","2.9","289.5","30.3","44.7","357","0"],
    [23301,"2013-01-01T16:00:00","5.2","ND","1.55","ND","ND","ND","2.4","283.4","30.6","44.4","462.4","0"],
    [23302,"2013-01-01T17:00:00","3.1","ND","1.92","ND","ND","ND","1.5","294","30.6","43.7","253.4","0"],
    [23303,"2013-01-01T18:00:00","2.1","ND","8.58","ND","ND","ND","0.9","249.6","29.4","47.4","49.1","0"],
    [23304,"2013-01-01T19:00:00","18.4","ND","19.26","ND","ND","ND","0.4","223.5","27.8","50.2","0.6","0"],
    [23305,"2013-01-01T20:00:00","12.1","ND","36.75","ND","ND","ND","0.4","123.3","27.2","51.1","0.1","0"],
    [23306,"2013-01-01T21:00:00","7.3","ND","39.43","ND","ND","ND","0.2","79.9","26.2","54.9","0","0"],
    [23307,"2013-01-01T22:00:00","5.3","ND","33.32","ND","ND","ND","0.8","120.5","25.5","58.9","0","0"],
    [23308,"2013-01-01T23:00:00","3.8","ND","24.77","ND","ND","ND","0.3","63.6","23.9","66.6","0","0"],
    [23309,"2013-01-02T00:00:00","4.9","ND","23.59","ND","ND","ND","0.2","201","23.5","69","0","0"],
    [23310,"2013-01-02T01:00:00","3.3","ND","22.47","ND","ND","ND","0.4","250.9","23","71.3","0","0"],
    [23311,"2013-01-02T02:00:00","2.6","ND","17.88","ND","ND","ND","0.7","144.2","23","73","0","0"],
    [23312,"2013-01-02T03:00:00","2","ND","12.89","ND","ND","ND","0.3","347.9","22.2","77.1","0","0"],
    [23313,"2013-01-02T04:00:00","1","ND","12.95","ND","ND","ND","0.5","296.2","21.9","78.5","0","0"],
    [23314,"2013-01-02T05:00:00","2.8","ND","15.52","ND","ND","ND","0.1","213.4","21.8","78.5","0","0"],
    [23315,"2013-01-02T06:00:00","3.7","ND","16.19","ND","ND","ND","0.2","346.4","21.5","79.4","0","0"],
    [23316,"2013-01-02T07:00:00","4.8","ND","18.62","ND","ND","ND","0.7","346.4","21.3","79.8","15.9","0"],
    [23317,"2013-01-02T08:00:00","20.6","ND","22.38","ND","ND","ND","0.8","170.4","23.5","69.9","177.5","0"],
    [23318,"2013-01-02T09:00:00","11.4","ND","23.08","ND","ND","ND","1.2","149.6","25.3","62.7","372.8","0"],
    [23319,"2013-01-02T10:00:00","7.9","ND","15.75","ND","ND","ND","1.2","138.9","26.6","58.8","566.8","0"],
    [23320,"2013-01-02T11:00:00","5.6","ND","15.59","ND","ND","ND","1.5","131.8","27.5","56.1","620.6","0"],
    [23321,"2013-01-02T12:00:00","7.1","ND","13.54","ND","ND","ND","1.3","130.1","29.1","51.1","737.5","0"],
    [23322,"2013-01-02T13:00:00","5.5","ND","12.83","ND","ND","ND","1.2","101.5","30","48.2","704","0"],
    [23323,"2013-01-02T14:00:00","3.6","ND","8.71","ND","ND","ND","1.8","312","30.5","45.6","651.1","0"],
    [23324,"2013-01-02T15:00:00","3.1","ND","4.69","ND","ND","ND","2.7","263.4","31.3","41.2","607.4","0"],
    [23325,"2013-01-02T16:00:00","3.4","ND","6.27","ND","ND","ND","2.8","283.2","31.1","41.7","480.5","0"],
    [23326,"2013-01-02T17:00:00","2.4","ND","9.48","ND","ND","ND","3","258.2","30.7","43.1","257.2","0"],
    [23327,"2013-01-02T18:00:00","2.9","ND","18.11","ND","ND","ND","1.4","265.2","29.5","46.1","52.9","0"],
    [23328,"2013-01-02T19:00:00","3.1","ND","28.69","ND","ND","ND","0.6","265.2","28.2","49.1","0.5","0"],
    [23329,"2013-01-02T20:00:00","14.8","ND","34.66","ND","ND","ND","0.6","110","27.8","50.6","0","0"],
    [23330,"2013-01-02T21:00:00","19","ND","44.61","ND","ND","ND","0","100.8","26.7","54.6","0","0"],
    [23331,"2013-01-02T22:00:00","32.2","ND","32.09","ND","ND","ND","1.2","110","25.5","61.5","0","0"],
    [23332,"2013-01-02T23:00:00","18.2","ND","27.85","ND","ND","ND","0.3","6.9","24.3","66.5","0","0"],
    [23333,"2013-01-03T00:00:00","31.3","ND","25.05","ND","ND","ND","0.3","340.3","23.5","70.4","0","0"],
    [23334,"2013-01-03T01:00:00","17","ND","24.97","ND","ND","ND","0.4","230.5","23.6","69.6","0","0"],
    [23335,"2013-01-03T02:00:00","14.6","ND","23.49","ND","ND","ND","0.1","290.5","23.6","70.4","0","0"],
    [23336,"2013-01-03T03:00:00","8.5","ND","17.85","ND","ND","ND","0.7","140.4","23.4","72.9","0","0"],
    [23337,"2013-01-03T04:00:00","5.2","ND","16.26","ND","ND","ND","0.2","78.7","22.8","75.8","0","0"],
    [23338,"2013-01-03T05:00:00","3.2","ND","15.67","ND","ND","ND","0.1","324","22.5","77.6","0","0"],
    [23339,"2013-01-03T06:00:00","10.9","ND","17.20","ND","ND","ND","0.2","341.4","22.1","78.9","0","0"],
    [23340,"2013-01-03T07:00:00","16.1","ND","21.24","ND","ND","ND","0.1","311.1","22","79.3","18.3","0"],
    [23341,"2013-01-03T08:00:00","18","ND","24.13","ND","ND","ND","0.6","222.3","23.6","72.9","161.3","0"],
    [23342,"2013-01-03T09:00:00","10.9","ND","27.82","ND","ND","ND","0.6","156.1","25.6","63.9","363.1","0"],
    [23343,"2013-01-03T10:00:00","7.1","ND","25.63","ND","ND","ND","1.1","127.2","27.2","57.8","547","0"],
    [23344,"2013-01-03T11:00:00","5.7","ND","18.34","ND","ND","ND","1.3","148.4","28.3","54","746.4","0"],
    [23345,"2013-01-03T12:00:00","5.1","ND","19.97","ND","ND","ND","1","109.4","29.6","51.4","697.7","0"],
    [23346,"2013-01-03T13:00:00","29","ND","18.52","ND","ND","ND","1.7","125.2","30.6","48.4","672.1","0"],
    [23347,"2013-01-03T14:00:00","33.8","ND","15.96","ND","ND","ND","1.1","297.3","30.1","49","186.9","0"],
    [23348,"2013-01-03T15:00:00","17.6","ND","11.67","ND","ND","ND","2","296.4","29.6","48.2","239.8","0"],
    [23349,"2013-01-03T16:00:00","10.6","ND","14.12","ND","ND","ND","1.6","270.5","29.4","47.6","81.7","0"],
    [23350,"2013-01-03T17:00:00","9.1","ND","17.65","ND","ND","ND","1.3","264.3","28.6","49.5","24.6","0"],
    [23351,"2013-01-03T18:00:00","5.8","ND","20.47","ND","ND","ND","0.7","236.7","28","51.6","12.6","0"],
    [23352,"2013-01-03T19:00:00","19.3","ND","35.49","ND","ND","ND","0.7","96.3","27.6","53.7","0.9","0"],
    [23353,"2013-01-03T20:00:00","36.9","ND","34.27","ND","ND","ND","1","68","26.6","58.5","0","0"],
    [23354,"2013-01-03T21:00:00","23.4","ND","29.67","ND","ND","ND","0.3","179.5","25.6","63.4","0","0"],
    [23355,"2013-01-03T22:00:00","36.4","ND","31.14","ND","ND","ND","0.7","189.4","25.1","64.3","0","0"],
    [23356,"2013-01-03T23:00:00","18.8","ND","26.93","ND","ND","ND","0.4","308","23.9","69.7","0","0"],
    [23357,"2013-01-04T00:00:00","34.4","ND","25.13","ND","ND","ND","0.4","213.2","23.7","70.4","0","0"],
    [23358,"2013-01-04T01:00:00","24.1","ND","23.67","ND","ND","ND","0.1","76.5","23.7","72","0","0"],
    [23359,"2013-01-04T02:00:00","14.1","ND","20.05","ND","ND","ND","0.7","35.1","22.6","76.8","0","0"],
    [23360,"2013-01-04T03:00:00","9","ND","17.39","ND","ND","ND","0.5","165.2","22.3","78","0","0"],
    [23361,"2013-01-04T04:00:00","5.3","ND","18.51","ND","ND","ND","0.3","305","22.5","77.5","0","0"],
    [23362,"2013-01-04T05:00:00","5","ND","18.70","ND","ND","ND","0.2","206.2","22.6","77.2","0","0"],
    [23363,"2013-01-04T06:00:00","11.2","ND","17.17","ND","ND","ND","0.2","258.3","22.3","79","0","0"],
    [23364,"2013-01-04T07:00:00","6.2","ND","18.98","ND","ND","ND","0.1","288.4","22.5","78.3","16.8","0"],
    [23365,"2013-01-04T08:00:00","30.2","ND","31.57","ND","ND","ND","0.5","87.7","23.4","75.2","79.2","0"],
    [23366,"2013-01-04T09:00:00","44.9","ND","48.60","ND","ND","ND","0.5","55.2","24.1","73.5","189.6","0"],
    [23367,"2013-01-04T10:00:00","58.3","ND","58.62","ND","ND","ND","0.6","57.4","25.6","66.5","374.7","0"],
    [23368,"2013-01-04T11:00:00","43.6","ND","45.15","ND","ND","ND","0.6","129.5","26.8","61.1","385.7","0"],
    [23369,"2013-01-04T12:00:00","31.8","ND","31.38","ND","ND","ND","0.8","86.9","28.1","56.4","610.3","0"],
    [23370,"2013-01-04T13:00:00","23.4","ND","23.06","ND","ND","ND","1","155.2","30","49.3","792.5","0"],
    [23371,"2013-01-04T14:00:00","33.2","ND","20.32","ND","ND","ND","0.7","71.9","31.1","46","669.3","0"],
    [23372,"2013-01-04T15:00:00","31.3","ND","16.06","ND","ND","ND","0.8","302.6","32.1","43.3","601.9","0"],
    [23373,"2013-01-04T16:00:00","16.5","ND","10.38","ND","ND","ND","1.2","267.3","32.4","42.1","428.4","0"],
    [23374,"2013-01-04T17:00:00","9.3","ND","12.44","ND","ND","ND","2.4","269.2","31.2","45.2","239.4","0"],
    [23375,"2013-01-04T18:00:00","7.2","ND","20.24","ND","ND","ND","2.4","252.8","29.7","48.3","41.5","0"],
    [23376,"2013-01-04T19:00:00","4.3","ND","24.35","ND","ND","ND","1.1","245.9","28.5","51.5","1.2","0"],
    [23377,"2013-01-04T20:00:00","21.7","ND","40.30","ND","ND","ND","0.8","250.1","27.8","54.2","0","0"],
    [23378,"2013-01-04T21:00:00","22.7","ND","36.99","ND","ND","ND","0.4","122.9","27","58.3","0","0"],
    [23379,"2013-01-04T22:00:00","30.2","ND","40.07","ND","ND","ND","0.3","248.2","25.8","63.3","0","0"],
    [23380,"2013-01-04T23:00:00","17.2","ND","42.58","ND","ND","ND","0.1","280.5","25","66.1","0","0"],
    [23381,"2013-01-05T00:00:00","45","ND","36.65","ND","ND","ND","0.4","34","24.2","70.2","0","0"],
    [23382,"2013-01-05T01:00:00","24.5","ND","30.17","ND","ND","ND","0.1","284","23.5","73.2","0","0"],
    [23383,"2013-01-05T02:00:00","26","ND","28.91","ND","ND","ND","0.2","41.3","23.1","74.6","0","0"],
    [23384,"2013-01-05T03:00:00","14.7","ND","21.23","ND","ND","ND","0.4","291.7","22.2","79.6","0","0"],
    [23385,"2013-01-05T04:00:00","27.3","ND","23.09","ND","ND","ND","0.3","261.8","22.3","78.4","0","0"],
    [23386,"2013-01-05T05:00:00","29","ND","21.53","ND","ND","ND","0.3","237.3","22.4","78.6","0","0"],
    [23387,"2013-01-05T06:00:00","30.6","ND","19.73","ND","ND","ND","0.3","153.2","22.1","79.4","0","0"],
    [23388,"2013-01-05T07:00:00","16.6","ND","21.49","ND","ND","ND","0.4","284.9","21.6","81.6","14.4","0"],
    [23389,"2013-01-05T08:00:00","30","ND","32.41","ND","ND","ND","0.4","120.8","23.2","75","136.4","0"],
    [23390,"2013-01-05T09:00:00","34","ND","58.23","ND","ND","ND","0.9","133.6","24.7","68.7","297.9","0"],
    [23391,"2013-01-05T10:00:00","37.3","ND","36.48","ND","ND","ND","0.8","131.9","26.4","61.5","539.6","0"],
    [23392,"2013-01-05T11:00:00","21","ND","19.36","ND","ND","ND","1.7","125.5","27.9","56.3","619.9","0"],
    [23393,"2013-01-05T12:00:00","23.6","ND","15.67","ND","ND","ND","0.5","63.9","28.9","53.5","652.7","0"],
    [23394,"2013-01-05T13:00:00","13.6","ND","16.96","ND","ND","ND","0.7","84.7","29.9","50.9","525","0"],
    [23395,"2013-01-05T14:00:00","31.7","ND","12.50","ND","ND","ND","0.9","64.3","31.2","47","644.1","0"],
    [23396,"2013-01-05T15:00:00","17.4","ND","11.62","ND","ND","ND","0.8","303.6","31.5","45","473.5","0"],
    [23397,"2013-01-05T16:00:00","9.4","ND","10.43","ND","ND","ND","1.6","308.3","30.9","46.5","236.5","0"],
    [23398,"2013-01-05T17:00:00","5.2","ND","10.61","ND","ND","ND","2.5","261.8","31","46.3","214.2","0"],
    [23399,"2013-01-05T18:00:00","12.6","ND","17.92","ND","ND","ND","1.7","255.2","30","48.6","56.5","0"],
    [23400,"2013-01-05T19:00:00","27","ND","23.24","ND","ND","ND","0.1","125.5","28.6","52.2","0.7","0"],
    [23401,"2013-01-05T20:00:00","49.3","ND","57.34","ND","ND","ND","0.5","85.2","27.9","55.2","0","0"],
    [23402,"2013-01-05T21:00:00","42.2","ND","63.73","ND","ND","ND","0.7","113.1","27.1","58.9","0","0"],
    [23403,"2013-01-05T22:00:00","57.7","ND","49.62","ND","ND","ND","0.7","176.9","26","63.5","0","0"],
    [23404,"2013-01-05T23:00:00","41.6","ND","42.97","ND","ND","ND","0.1","137.5","25.3","66.7","0","0"],
    [23405,"2013-01-06T00:00:00","42.6","ND","35.01","ND","ND","ND","0.4","18.6","24.5","70.4","0","0"],
    [23406,"2013-01-06T01:00:00","23.1","ND","27.11","ND","ND","ND","0.4","45","23.8","73.5","0","0"],
    [23407,"2013-01-06T02:00:00","33.4","ND","25.43","ND","ND","ND","0.4","55.9","23.3","76.1","0","0"],
    [23408,"2013-01-06T03:00:00","29.3","ND","23.68","ND","ND","ND","0.1","313.6","22.9","77.7","0","0"],
    [23409,"2013-01-06T04:00:00","33.1","ND","24.88","ND","ND","ND","0.2","291.3","22.3","80","0","0"],
    [23410,"2013-01-06T05:00:00","24.1","ND","22.47","ND","ND","ND","0","258.3","22.3","80.2","0","0"],
    [23411,"2013-01-06T06:00:00","28.8","ND","21.23","ND","ND","ND","0.1","30.9","22.4","79.6","0","0"],
    [23412,"2013-01-06T07:00:00","35.5","ND","24.87","ND","ND","ND","0.3","358.6","22.6","79.1","8.8","0"],
    [23413,"2013-01-06T08:00:00","35.2","ND","26.79","ND","ND","ND","0","138.4","23.4","76.2","38.1","0"],
    [23414,"2013-01-06T09:00:00","19.6","ND","22.51","ND","ND","ND","0.2","237.3","24.8","69.7","205.1","0"],
    [23415,"2013-01-06T10:00:00","10.5","ND","12.85","ND","ND","ND","0.3","214.4","26.4","61.6","448.5","0"],
    [23416,"2013-01-06T11:00:00","6.7","ND","7.10","ND","ND","ND","1.3","129.3","28.3","54.8","733.2","0"],
    [23417,"2013-01-06T12:00:00","6","ND","5.96","ND","ND","ND","1.1","88.4","29.4","51.7","625.4","0"],
    [23418,"2013-01-06T13:00:00","3.4","ND","5.84","ND","ND","ND","0.7","319.4","29.8","50.3","440.7","0"],
    [23419,"2013-01-06T14:00:00","20.3","ND","5.38","ND","ND","ND","1.4","18.7","29.9","49.5","394.7","0"],
    [23420,"2013-01-06T15:00:00","12.1","ND","1.27","ND","ND","ND","2","273.8","31.1","44.2","624.2","0"],
    [23421,"2013-01-06T16:00:00","7.5","ND","2.12","ND","ND","ND","2","277.1","31.4","42.5","410.1","0"],
    [23422,"2013-01-06T17:00:00","5","ND","3.03","ND","ND","ND","3.2","261.2","30","46.1","162.7","0"],
    [23423,"2013-01-06T18:00:00","9.9","ND","5.25","ND","ND","ND","2","269.6","29.2","47.8","34.7","0"],
    [23424,"2013-01-06T19:00:00","6","ND","10.12","ND","ND","ND","0.1","349","28.4","50.2","0.2","0"],
    [23425,"2013-01-06T20:00:00","4.1","ND","13.15","ND","ND","ND","0.4","91.5","28.2","51.4","0.1","0"],
    [23426,"2013-01-06T21:00:00","3.8","ND","30.45","ND","ND","ND","0.4","126.7","27.7","53.5","0","0"],
    [23427,"2013-01-06T22:00:00","5","ND","28.54","ND","ND","ND","1","143.1","26.4","59.3","0","0"],
    [23428,"2013-01-06T23:00:00","3.3","ND","23.28","ND","ND","ND","0.3","32.7","24.8","66.7","0","0"],
    [23429,"2013-01-07T00:00:00","11.6","ND","23.01","ND","ND","ND","0.1","336.5","24.2","68.4","0","0"],
    [23430,"2013-01-07T01:00:00","14.7","ND","21.19","ND","ND","ND","0.2","305.2","23.4","71.4","0","0"],
    [23431,"2013-01-07T02:00:00","9.1","ND","19.53","ND","ND","ND","0.2","27.8","23.2","73.8","0","0"],
    [23432,"2013-01-07T03:00:00","5.2","ND","19.81","ND","ND","ND","0.4","152.7","22.9","75.5","0","0"],
    [23433,"2013-01-07T04:00:00","9.1","ND","17.03","ND","ND","ND","0.1","321.1","22.1","78.6","0","0"],
    [23434,"2013-01-07T05:00:00","8.5","ND","15.24","ND","ND","ND","0.1","284.2","21.5","81.3","0","0"],
    [23435,"2013-01-07T06:00:00","16.5","ND","14.88","ND","ND","ND","0.1","279.6","21.7","80.6","0","0"],
    [23436,"2013-01-07T07:00:00","32.5","ND","17.91","ND","ND","ND","0.5","49.3","21.6","80.2","17.5","0"],
    [23437,"2013-01-07T08:00:00","17.5","ND","16.54","ND","ND","ND","0.8","54.4","22.1","78.8","175.7","0"],
    [23438,"2013-01-07T09:00:00","21.1","ND","28.62","ND","ND","ND","0.3","79.8","24.3","69.6","309.3","0"],
    [23439,"2013-01-07T10:00:00","25.7","ND","31.68","ND","ND","ND","0.5","121.1","25.9","63.5","385.3","0"],
    [23440,"2013-01-07T11:00:00","14.1","ND","19.13","ND","ND","ND","1","55","26.9","60.1","485.5","0"],
    [23441,"2013-01-07T12:00:00","13.4","ND","10.82","ND","ND","ND","0.8","49.2","28","55.5","578.2","0"],
    [23442,"2013-01-07T13:00:00","11.1","ND","8.61","ND","ND","ND","1.1","66.5","28.9","52.8","646.2","0"],
    [23443,"2013-01-07T14:00:00","20.4","ND","9.02","ND","ND","ND","0.9","42.4","30.1","49.5","667.8","0"],
    [23444,"2013-01-07T15:00:00","11","ND","8.60","ND","ND","ND","1.3","89.7","30.9","47.1","594.6","0"],
    [23445,"2013-01-07T16:00:00","10.3","ND","6.30","ND","ND","ND","1.1","328.8","31","45.3","272.4","0"],
    [23446,"2013-01-07T17:00:00","7.3","ND","5.05","ND","ND","ND","1.8","291.8","31","44.8","250","0"],
    [23447,"2013-01-07T18:00:00","8.9","ND","10.36","ND","ND","ND","0.7","318.9","29.4","48.7","33.9","0"],
    [23448,"2013-01-07T19:00:00","16.8","ND","15.98","ND","ND","ND","0.1","78","28.3","51.1","1.1","0"],
    [23449,"2013-01-07T20:00:00","17.3","ND","38.70","ND","ND","ND","0.2","198.9","27.6","53.1","0","0"],
    [23450,"2013-01-07T21:00:00","10.1","ND","38.34","ND","ND","ND","0.5","226.5","26.1","58.2","0","0"],
    [23451,"2013-01-07T22:00:00","26.3","ND","28.20","ND","ND","ND","0.7","142.8","25.3","64","0","0"],
    [23452,"2013-01-07T23:00:00","18.4","ND","26.19","ND","ND","ND","0.1","241.8","24.5","67.6","0","0"],
    [23453,"2013-01-08T00:00:00","38","ND","24.53","ND","ND","ND","0.3","120.6","23.9","71.7","0","0"],
    [23454,"2013-01-08T01:00:00","23.8","ND","20.76","ND","ND","ND","0.1","44.3","22.9","75.5","0","0"],
    [23455,"2013-01-08T02:00:00","17.7","ND","18.81","ND","ND","ND","0","342","22.2","78","0","0"],
    [23456,"2013-01-08T03:00:00","15.4","ND","16.96","ND","ND","ND","0.3","268.6","21.8","80","0","0"],
    [23457,"2013-01-08T04:00:00","20.2","ND","18.11","ND","ND","ND","0.1","256.7","22.1","78.5","0","0"],
    [23458,"2013-01-08T05:00:00","23.6","ND","16.21","ND","ND","ND","0.5","32.6","20.8","84.7","0","0"],
    [23459,"2013-01-08T06:00:00","14","ND","17.99","ND","ND","ND","0.1","344.9","20.7","84.6","0","0"],
    [23460,"2013-01-08T07:00:00","8","ND","21.11","ND","ND","ND","0","297.1","20.8","83.5","20","0"],
    [23461,"2013-01-08T08:00:00","23.1","ND","35.09","ND","ND","ND","0.5","157.8","22.8","75.6","156.2","0"],
    [23462,"2013-01-08T09:00:00","35","ND","52.23","ND","ND","ND","0.5","83.6","24.6","68","351.6","0"],
    [23463,"2013-01-08T10:00:00","33.9","ND","51.91","ND","ND","ND","0.9","117.9","26.1","62","539.6","0"],
    [23464,"2013-01-08T11:00:00","18.2","ND","29.97","ND","ND","ND","1.1","127.4","27.7","56.4","690","0"],
    [23465,"2013-01-08T12:00:00","37.7","ND","21.46","ND","ND","ND","1.2","163.3","29.6","49.6","784","0"],
    [23466,"2013-01-08T13:00:00","21.4","ND","22.48","ND","ND","ND","1.1","81.5","31.2","44.8","804.6","0"],
    [23467,"2013-01-08T14:00:00","28.9","ND","13.87","ND","ND","ND","0.9","119.1","32.7","36.7","758.4","0"],
    [23468,"2013-01-08T15:00:00","14.5","ND","8.90","ND","ND","ND","1.1","76.6","33.7","29.4","644.6","0"],
    [23469,"2013-01-08T16:00:00","7.2","ND","10.20","ND","ND","ND","1.3","334.3","33.2","34.2","379.2","0"],
    [23470,"2013-01-08T17:00:00","7.4","ND","18.14","ND","ND","ND","1.9","283.8","32.4","39.3","253.1","0"],
    [23471,"2013-01-08T18:00:00","33.2","ND","28.74","ND","ND","ND","0.8","259","31","42.9","60.6","0"],
    [23472,"2013-01-08T19:00:00","18.8","ND","30.23","ND","ND","ND","0.3","66.5","29.3","47.1","0.9","0"],
    [23473,"2013-01-08T20:00:00","30.4","ND","39.62","ND","ND","ND","0.8","138.4","28.8","48.5","0","0"],
    [23474,"2013-01-08T21:00:00","27.8","ND","50.14","ND","ND","ND","0.2","202.2","27.6","52.9","0","0"],
    [23475,"2013-01-08T22:00:00","41.5","ND","40.26","ND","ND","ND","0.5","316.1","25.8","60.4","0","0"],
    [23476,"2013-01-08T23:00:00","67.9","ND","35.55","ND","ND","ND","0.8","167.1","24.9","66.6","0","0"],
    [23477,"2013-01-09T00:00:00","113.9","ND","30.23","ND","ND","ND","0.4","99","24.1","70.3","0","0"],
    [23478,"2013-01-09T01:00:00","86.8","ND","27.36","ND","ND","ND","0.1","316.5","23.1","73.8","0","0"],
    [23479,"2013-01-09T02:00:00","78.6","ND","25.78","ND","ND","ND","0.2","266.5","22.6","75.7","0","0"],
    [23480,"2013-01-09T03:00:00","77.5","ND","24.36","ND","ND","ND","0.7","237.8","22.3","77.3","0","0"],
    [23481,"2013-01-09T04:00:00","50.7","ND","22.38","ND","ND","ND","0.3","249.1","21.9","79.3","0","0"],
    [23482,"2013-01-09T05:00:00","27.6","ND","19.23","ND","ND","ND","0.3","271.3","21.3","81.2","0","0"],
    [23483,"2013-01-09T06:00:00","44.1","ND","19.69","ND","ND","ND","0.2","287","20.9","82.7","0","0"],
    [23484,"2013-01-09T07:00:00","46.2","ND","27.24","ND","ND","ND","0.6","11.5","20.4","84.1","15.9","0"],
    [23485,"2013-01-09T08:00:00","80.4","ND","39.04","ND","ND","ND","0.5","48.2","22","77.4","158.1","0"],
    [23486,"2013-01-09T09:00:00","61.7","ND","76.33","ND","ND","ND","0.7","132","24.9","64.9","352.6","0"],
    [23487,"2013-01-09T10:00:00","59.1","ND","44.66","ND","ND","ND","1.4","67.5","26.3","61.2","519.6","0"],
    [23488,"2013-01-09T11:00:00","30.5","ND","15.26","ND","ND","ND","1","111.4","27.7","56.3","682.7","0"],
    [23489,"2013-01-09T12:00:00","24.7","ND","19.01","ND","ND","ND","0.9","113.3","29.3","51.3","774.3","0"],
    [23490,"2013-01-09T13:00:00","19.2","ND","17.04","ND","ND","ND","1","58.9","30.3","47.7","424.1","0"],
    [23491,"2013-01-09T14:00:00","21.5","ND","10.83","ND","ND","ND","0.8","76.3","31.3","42.4","586.8","0"],
    [23492,"2013-01-09T15:00:00","11.3","ND","8.85","ND","ND","ND","1","12","31.3","42.3","336.4","0"],
    [23493,"2013-01-09T16:00:00","6.2","ND","9.34","ND","ND","ND","3.2","259.3","31.7","42.4","447","0"],
    [23494,"2013-01-09T17:00:00","4.8","ND","14.94","ND","ND","ND","3","262.8","30.9","43.7","240.3","0"],
    [23495,"2013-01-09T18:00:00","5.1","ND","17.91","ND","ND","ND","2.5","268.1","29.5","46.6","33.2","0"],
    [23496,"2013-01-09T19:00:00","4.7","ND","25.16","ND","ND","ND","0.4","292.5","29","47","0.8","0"],
    [23497,"2013-01-09T20:00:00","14.6","ND","24.41","ND","ND","ND","0.5","107.9","28.7","48.6","0","0"],
    [23498,"2013-01-09T21:00:00","14.9","ND","45.54","ND","ND","ND","0.6","82.7","28.2","51.1","0","0"],
    [23499,"2013-01-09T22:00:00","28.6","ND","39.22","ND","ND","ND","1.4","106.2","27.5","55.5","0","0"],
    [23500,"2013-01-09T23:00:00","62.1","ND","28.48","ND","ND","ND","0.6","116.2","26","62.1","0","0"],
    [23501,"2013-01-10T00:00:00","50.7","ND","24.79","ND","ND","ND","0.6","91.1","25.5","64.8","0","0"],
    [23502,"2013-01-10T01:00:00","43","ND","25.65","ND","ND","ND","0.3","335.5","25","67.2","0","0"],
    [23503,"2013-01-10T02:00:00","31.6","ND","26.87","ND","ND","ND","0.3","94.1","24.9","67.9","0","0"],
    [23504,"2013-01-10T03:00:00","16.3","ND","20.40","ND","ND","ND","0.3","63.4","24.2","71.8","0","0"],
    [23505,"2013-01-10T04:00:00","36.3","ND","18.75","ND","ND","ND","0.4","50.2","23.7","74.2","0","0"],
    [23506,"2013-01-10T05:00:00","19.6","ND","18.95","ND","ND","ND","0.6","175.9","23.8","73.6","0","0"],
    [23507,"2013-01-10T06:00:00","24.3","ND","20.54","ND","ND","ND","0.2","272.6","23.8","73.5","0","0"],
    [23508,"2013-01-10T07:00:00","29.7","ND","25.46","ND","ND","ND","0.4","4.6","23.8","73.9","5.2","0"],
    [23509,"2013-01-10T08:00:00","59.9","ND","31.03","ND","ND","ND","0.6","9.6","24","73.2","49.9","0"],
    [23510,"2013-01-10T09:00:00","54.2","ND","34.48","ND","ND","ND","0.6","16.9","24.8","70.1","218.6","0"],
    [23511,"2013-01-10T10:00:00","73.5","ND","43.80","ND","ND","ND","0.8","65.4","26.9","62.1","435.7","0"],
    [23512,"2013-01-10T11:00:00","51.9","ND","19.59","ND","ND","ND","1.2","71.7","28","56.6","601.3","0"],
    [23513,"2013-01-10T12:00:00","50.9","ND","15.98","ND","ND","ND","1.3","71.6","29.1","53.5","571.8","0"],
    [23514,"2013-01-10T13:00:00","28.4","ND","15.62","ND","ND","ND","0.9","74.7","30.3","50.1","530","0"],
    [23515,"2013-01-10T14:00:00","94.9","ND","13.76","ND","ND","ND","0.9","45.2","30.6","50","426.9","0"],
    [23516,"2013-01-10T15:00:00","68.4","ND","11.65","ND","ND","ND","1","63.5","30.8","49.5","314.8","0"],
    [23517,"2013-01-10T16:00:00","41.6","ND","13.65","ND","ND","ND","0.4","42","30.8","49.9","160.5","0"],
    [23518,"2013-01-10T17:00:00","37.2","ND","15.81","ND","ND","ND","2.7","257.5","30.2","50.4","119","0"],
    [23519,"2013-01-10T18:00:00","26.2","ND","28.23","ND","ND","ND","2.1","253.6","29.6","51.2","36.8","0"],
    [23520,"2013-01-10T19:00:00","14","ND","27.74","ND","ND","ND","1.5","248.7","28.7","53.7","0.6","0"],
    [23521,"2013-01-10T20:00:00","8.6","ND","22.22","ND","ND","ND","1.4","254.6","28.2","55.4","0.1","0"],
    [23522,"2013-01-10T21:00:00","6.2","ND","49.62","ND","ND","ND","1","95.2","27.8","58.3","0","0"],
    [23523,"2013-01-10T22:00:00","28.3","ND","38.40","ND","ND","ND","0.7","121.6","27.3","60.1","0","0"],
    [23524,"2013-01-10T23:00:00","27.3","ND","39.68","ND","ND","ND","0.3","137.4","27.1","61.7","0","0"],
    [23525,"2013-01-11T00:00:00","42.4","ND","40.18","ND","ND","ND","0.4","101.7","26.7","63.7","0","0"],
    [23526,"2013-01-11T01:00:00","31.5","ND","27.19","ND","ND","ND","0.6","165.8","25.6","68.2","0","0"],
    [23527,"2013-01-11T02:00:00","21.2","ND","26.22","ND","ND","ND","0.7","155.3","25.2","69.6","0","0"],
    [23528,"2013-01-11T03:00:00","12.8","ND","18.87","ND","ND","ND","0.6","152.2","24.7","71.1","0","0"],
    [23529,"2013-01-11T04:00:00","7.8","ND","16.55","ND","ND","ND","0.9","155","24.5","73.2","0","0"],
    [23530,"2013-01-11T05:00:00","10.2","ND","17.44","ND","ND","ND","0.6","174.3","24.3","74.3","0","0"],
    [23531,"2013-01-11T06:00:00","18.5","ND","20.51","ND","ND","ND","0.4","5.1","23.4","78.2","0","0"],
    [23532,"2013-01-11T07:00:00","20.3","ND","25.69","ND","ND","ND","0.5","13.1","23","79.6","8.9","0"],
    [23533,"2013-01-11T08:00:00","43.2","ND","29.41","ND","ND","ND","0.3","15.8","23.8","76.8","96","0"],
    [23534,"2013-01-11T09:00:00","40.6","ND","39.95","ND","ND","ND","1","133.9","24.9","71.9","162.3","0"],
    [23535,"2013-01-11T10:00:00","41.6","ND","25.03","ND","ND","ND","0.8","129.6","27.2","62.3","526","0"],
    [23536,"2013-01-11T11:00:00","24.3","ND","17.23","ND","ND","ND","1.3","108.5","28.3","58.2","627.5","0"],
    [23537,"2013-01-11T12:00:00","28.8","ND","13.25","ND","ND","ND","1","100.4","29.6","53","704","0"],
    [23538,"2013-01-11T13:00:00","15.9","ND","11.11","ND","ND","ND","1.2","52.6","31","47.1","765.6","0"],
    [23539,"2013-01-11T14:00:00","24","ND","10.64","ND","ND","ND","1.5","68.6","31.9","43.7","585.9","0"],
    [23540,"2013-01-11T15:00:00","14.1","ND","9.17","ND","ND","ND","1.4","69.6","32.3","42.8","484.2","0"],
    [23541,"2013-01-11T16:00:00","18","ND","19.15","ND","ND","ND","1.2","352.2","31.2","47.3","110.4","0"],
    [23542,"2013-01-11T17:00:00","27.7","ND","18.83","ND","ND","ND","2.2","261.4","31","48.6","206.5","0"],
    [23543,"2013-01-11T18:00:00","25.5","ND","25.92","ND","ND","ND","1.7","255.3","29.9","51.1","30.7","0"],
    [23544,"2013-01-11T19:00:00","14.1","ND","31.24","ND","ND","ND","1","244.4","28.6","52.7","1.1","0"],
    [23545,"2013-01-11T20:00:00","32.5","ND","53.04","ND","ND","ND","0.4","252.1","28","54.9","0","0"],
    [23546,"2013-01-11T21:00:00","43.5","ND","51.95","ND","ND","ND","0.8","87.4","27","59.7","0","0"],
    [23547,"2013-01-11T22:00:00","50.8","ND","44.59","ND","ND","ND","0.6","178.1","26.3","62.5","0","0"],
    [23548,"2013-01-11T23:00:00","38.8","ND","42.68","ND","ND","ND","0.3","136","25.9","64.5","0","0"],
    [23549,"2013-01-12T00:00:00","59.8","ND","36.19","ND","ND","ND","0.4","37.4","25.2","67.9","0","0"],
    [23550,"2013-01-12T01:00:00","31.8","ND","31.59","ND","ND","ND","0.7","153.7","25","69.1","0.4","0"],
    [23551,"2013-01-12T02:00:00","36","ND","21.88","ND","ND","ND","1.2","139.3","24.4","71.8","0","0"],
    [23552,"2013-01-12T03:00:00","21.7","ND","21.91","ND","ND","ND","0.4","153.4","24.1","73.4","0","0"],
    [23553,"2013-01-12T04:00:00","27.1","ND","24.34","ND","ND","ND","0.6","238.5","23.9","74.6","0","0"],
    [23554,"2013-01-12T05:00:00","15.3","ND","22.74","ND","ND","ND","0.4","255.1","23.8","74.2","0","0"],
    [23555,"2013-01-12T06:00:00","47.4","ND","22.36","ND","ND","ND","0.2","334","24","73.2","0","0"],
    [23556,"2013-01-12T07:00:00","25.9","ND","24.53","ND","ND","ND","0.3","118.2","23.7","74.9","4.2","0"],
    [23557,"2013-01-12T08:00:00","36.5","ND","25.54","ND","ND","ND","0.1","75.5","23.9","74.4","6.3","0"],
    [23558,"2013-01-12T09:00:00","38.2","ND","31.55","ND","ND","ND","0.5","85.1","24","73","48.9","0"],
    [23559,"2013-01-12T10:00:00","69","ND","38.16","ND","ND","ND","0.8","6.3","24.3","71.6","80.9","0"],
    [23560,"2013-01-12T11:00:00","82.9","ND","46.98","ND","ND","ND","0.8","29.8","24.7","71.5","58.5","0"],
    [23561,"2013-01-12T12:00:00","71.4","ND","41.15","ND","ND","ND","1.3","37.8","24.6","71.9","122.5","0"],
    [23562,"2013-01-12T13:00:00","60","ND","32.62","ND","ND","ND","0.6","62.8","25","69.1","117.1","0"],
    [23563,"2013-01-12T14:00:00","47.1","ND","43.30","ND","ND","ND","0.1","177.2","25.4","66.9","96.5","0"],
    [23564,"2013-01-12T15:00:00","24.8","ND","39.58","ND","ND","ND","1.2","182.5","25.8","63.8","134.8","0"],
    [23565,"2013-01-12T16:00:00","13.8","ND","21.49","ND","ND","ND","0.6","156.7","26.1","61.4","112.4","0"],
    [23566,"2013-01-12T17:00:00","9.5","ND","26.54","ND","ND","ND","0.4","98.2","25.9","62","59.4","0"],
    [23567,"2013-01-12T18:00:00","30.6","ND","36.08","ND","ND","ND","0.6","317.7","25.4","66.1","16.9","0"],
    [23568,"2013-01-12T19:00:00","34.7","ND","54.47","ND","ND","ND","0.6","66.7","25.1","68.4","0.3","0"],
    [23569,"2013-01-12T20:00:00","53.6","ND","36.72","ND","ND","ND","0.5","38.4","24.5","72.3","0","0"],
    [23570,"2013-01-12T21:00:00","28.8","ND","51.17","ND","ND","ND","0.5","231.1","24.2","73.3","0","0"],
    [23571,"2013-01-12T22:00:00","50.2","ND","53.80","ND","ND","ND","0.8","208.6","24","73","0","0"],
    [23572,"2013-01-12T23:00:00","26.1","ND","39.97","ND","ND","ND","1.1","242.5","23.9","71.6","0","0"],
    [23573,"2013-01-13T00:00:00","36.2","ND","33.58","ND","ND","ND","0.6","344.7","23.5","74.3","0","0"],
    [23574,"2013-01-13T01:00:00","24.5","ND","38.60","ND","ND","ND","0.2","2.9","23.2","76.6","0","0"],
    [23575,"2013-01-13T02:00:00","51.6","ND","32.41","ND","ND","ND","0.6","35.5","22.6","81.1","0","0"],
    [23576,"2013-01-13T03:00:00","34.8","ND","27.68","ND","ND","ND","0.3","12.5","22.1","83.2","0","0"],
    [23577,"2013-01-13T04:00:00","48.5","ND","28.67","ND","ND","ND","0.4","249.1","22.3","82.2","0","0"],
    [23578,"2013-01-13T05:00:00","41.2","ND","29.83","ND","ND","ND","0.4","43.8","22.4","82","0","0"],
    [23579,"2013-01-13T06:00:00","65.1","ND","31.19","ND","ND","ND","0.4","189.9","22","82.7","0","0"],
    [23580,"2013-01-13T07:00:00","42.5","ND","26.93","ND","ND","ND","0.2","272.2","21.9","82.1","11","0"],
    [23581,"2013-01-13T08:00:00","42.5","ND","34.01","ND","ND","ND","0.2","322.3","22.8","78.5","90.9","0"],
    [23582,"2013-01-13T09:00:00","28.1","ND","44.29","ND","ND","ND","0.4","130","24.2","74.2","240.1","0"],
    [23583,"2013-01-13T10:00:00","52.5","ND","27.40","ND","ND","ND","2.2","34.6","24.6","74.1","205.2","0"],
    [23584,"2013-01-13T11:00:00","27.3","ND","25.02","ND","ND","ND","1.4","118.8","26.5","60.7","551.3","0"],
    [23585,"2013-01-13T12:00:00","15.5","ND","12.32","ND","ND","ND","0.7","79.6","28.4","52.2","583.5","0"],
    [23586,"2013-01-13T13:00:00","9.3","ND","8.30","ND","ND","ND","0.4","245.7","29.7","48.6","721.1","0"],
    [23587,"2013-01-13T14:00:00","6.3","ND","4.98","ND","ND","ND","0.7","115.3","31.1","43.5","758.1","0"],
    [23588,"2013-01-13T15:00:00","5.5","ND","6.07","ND","ND","ND","1.6","294.4","30.7","44.9","221.1","0"],
    [23589,"2013-01-13T16:00:00","4.9","ND","3.10","ND","ND","ND","4.3","275.1","30.1","45.3","426.7","0"],
    [23590,"2013-01-13T17:00:00","4.1","ND","5.36","ND","ND","ND","3","275.5","30.1","44.6","267.5","0"],
    [23591,"2013-01-13T18:00:00","15.1","ND","6.00","ND","ND","ND","2.1","296.6","28.6","49.1","71.6","0"],
    [23592,"2013-01-13T19:00:00","12.7","ND","12.11","ND","ND","ND","0.4","137.5","27.3","53.5","1.2","0"],
    [23593,"2013-01-13T20:00:00","13.7","ND","22.26","ND","ND","ND","0.7","77.2","26.7","55.9","0","0"],
    [23594,"2013-01-13T21:00:00","17.6","ND","20.06","ND","ND","ND","1.2","186","26.7","54.6","0","0"],
    [23595,"2013-01-13T22:00:00","10.2","ND","22.33","ND","ND","ND","1.2","165.5","26.4","56.6","0","0"],
    [23596,"2013-01-13T23:00:00","6.2","ND","22.33","ND","ND","ND","1.5","167.4","25.6","63.6","0","0"],
    [23597,"2013-01-14T00:00:00","7.1","ND","19.55","ND","ND","ND","1.1","106.7","25.3","66.8","0","0"],
    [23598,"2013-01-14T01:00:00","5.8","ND","19.69","ND","ND","ND","0.3","0","24.3","71.8","0","0"],
    [23599,"2013-01-14T02:00:00","11","ND","15.38","ND","ND","ND","0.2","322.2","24.1","72.7","0","0"],
    [23600,"2013-01-14T03:00:00","7.4","ND","17.88","ND","ND","ND","0.7","90.5","23.9","74.9","0","0"],
    [23601,"2013-01-14T04:00:00","10.6","ND","11.88","ND","ND","ND","0.9","49.6","24","71.1","0","0"],
    [23602,"2013-01-14T05:00:00","7.9","ND","13.94","ND","ND","ND","0.5","346.2","23.5","74.2","0","0"],
    [23603,"2013-01-14T06:00:00","21.1","ND","23.12","ND","ND","ND","0.8","48.4","23.2","74.4","0","0"],
    [23604,"2013-01-14T07:00:00","12.1","ND","29.79","ND","ND","ND","0.3","62.2","22.5","80.1","6.1","0"],
    [23605,"2013-01-14T08:00:00","7","ND","35.56","ND","ND","ND","1.1","164.3","23","79.5","79.2","0"],
    [23606,"2013-01-14T09:00:00","8.5","ND","40.27","ND","ND","ND","1.6","163.3","23.9","77.2","192.6","0"],
    [23607,"2013-01-14T10:00:00","12.4","ND","19.03","ND","ND","ND","2.4","143.8","24.6","74.5","268.3","0"],
    [23608,"2013-01-14T11:00:00","7.9","ND","13.24","ND","ND","ND","1.7","156.3","25.1","70.8","307","0"],
    [23609,"2013-01-14T12:00:00","5","ND","10.10","ND","ND","ND","2.9","242.5","24.7","68","341.3","0"],
    [23610,"2013-01-14T13:00:00","2.5","ND","14.42","ND","ND","ND","2.6","187.6","27.3","59.6","838.2","0"],
    [23611,"2013-01-14T14:00:00","1.3","ND","12.40","ND","ND","ND","1.3","149.7","28.4","53.7","601.6","0"],
    [23612,"2013-01-14T15:00:00","1.7","ND","14.93","ND","ND","ND","1.1","31.9","29.1","51.5","356.2","0"],
    [23613,"2013-01-14T16:00:00","58.2","ND","18.78","ND","ND","ND","0.9","291.3","29","52.3","223.3","0"],
    [23614,"2013-01-14T17:00:00","45.8","ND","19.31","ND","ND","ND","1.3","109.9","28.6","56.9","68.1","0"],
    [23615,"2013-01-14T18:00:00","49.3","ND","33.66","ND","ND","ND","1.6","239.4","27.7","61.4","61.3","0"],
    [23616,"2013-01-14T19:00:00","26.1","ND","36.80","ND","ND","ND","1.1","261.4","26.7","61.1","1","0"],
    [23617,"2013-01-14T20:00:00","28","ND","48.52","ND","ND","ND","0.1","52.5","26.3","60","0","0"],
    [23618,"2013-01-14T21:00:00","33.8","ND","53.91","ND","ND","ND","0.6","75.7","26.1","62","0","0"],
    [23619,"2013-01-14T22:00:00","43.8","ND","43.99","ND","ND","ND","1","158.7","25.6","63.4","0","0"],
    [23620,"2013-01-14T23:00:00","23.9","ND","40.34","ND","ND","ND","0.4","238.3","24.7","67.7","0","0"],
    [23621,"2013-01-15T00:00:00","30.4","ND","36.98","ND","ND","ND","0.1","268.3","24","70.3","0","0"],
    [23622,"2013-01-15T01:00:00","16.4","ND","32.46","ND","ND","ND","0.7","167.7","24","72.2","0","0"],
    [23623,"2013-01-15T02:00:00","16.4","ND","29.19","ND","ND","ND","0","273.3","23.4","73.8","0","0"],
    [23624,"2013-01-15T03:00:00","9.6","ND","21.74","ND","ND","ND","0.2","321","23.3","74.1","0","0"],
    [23625,"2013-01-15T04:00:00","26.6","ND","26.61","ND","ND","ND","0.4","29.9","22.9","77.3","0","0"],
    [23626,"2013-01-15T05:00:00","34.8","ND","26.13","ND","ND","ND","0.5","10.5","22.7","79.5","0","0"],
    [23627,"2013-01-15T06:00:00","26.6","ND","22.92","ND","ND","ND","0.4","307","22.3","82.3","0","0"],
    [23628,"2013-01-15T07:00:00","26","ND","25.79","ND","ND","ND","0.3","45.7","22.5","81.2","5.8","0"],
    [23629,"2013-01-15T08:00:00","48.7","ND","35.30","ND","ND","ND","0.6","197.7","23.1","79.2","44.9","0"],
    [23630,"2013-01-15T09:00:00","25.2","ND","33.01","ND","ND","ND","1.8","164.5","23.9","73.8","149.3","0"],
    [23631,"2013-01-15T10:00:00","14.5","ND","21.17","ND","ND","ND","1.8","170.8","25","68.6","464.6","0"],
    [23632,"2013-01-15T11:00:00","7.5","ND","83.89","ND","ND","ND","1.7","111.8","27.3","59.5","632.5","0"],
    [23633,"2013-01-15T12:00:00","19.9","ND","22.71","ND","ND","ND","1.6","9.7","27.5","59","317.5","0"],
    [23634,"2013-01-15T13:00:00","11.8","ND","17.75","ND","ND","ND","0.4","293.9","28.6","53.5","425.3","0"],
    [23635,"2013-01-15T14:00:00","5.9","ND","8.25","ND","ND","ND","2.9","282","28.5","50.4","272","0"],
    [23636,"2013-01-15T15:00:00","4.6","ND","9.98","ND","ND","ND","3.7","275.6","28.2","49.6","254","0"],
    [23637,"2013-01-15T16:00:00","3.1","ND","5.75","ND","ND","ND","4.9","282.3","28.5","47.5","370.7","0"],
    [23638,"2013-01-15T17:00:00","3","ND","9.21","ND","ND","ND","3.1","268.9","28","49.8","100","0"],
    [23639,"2013-01-15T18:00:00","12","ND","16.58","ND","ND","ND","2.4","266","27.1","55.5","5.6","0"],
    [23640,"2013-01-15T19:00:00","8.3","ND","24.55","ND","ND","ND","0.8","124.8","26.3","60.2","0","0"],
    [23641,"2013-01-15T20:00:00","16.3","ND","19.94","ND","ND","ND","0.5","240.9","25.2","63.7","0","0"],
    [23642,"2013-01-15T21:00:00","9.4","ND","22.36","ND","ND","ND","0.9","142.9","24.8","66.2","0","0"],
    [23643,"2013-01-15T22:00:00","ND","ND","ND","ND","ND","ND","ND","ND","ND","ND","ND","ND"],
    [23644,"2013-01-15T23:00:00","5.1","ND","31.00","ND","ND","ND","0.2","344.7","23.2","81.6","0","0"],
    [23645,"2013-01-16T00:00:00","3.4","ND","23.98","ND","ND","ND","0.2","266.1","22.5","83.3","0","0.25"],
    [23646,"2013-01-16T01:00:00","1.7","ND","22.12","ND","ND","ND","0.3","354.9","22.4","83.7","0","0"],
    [23647,"2013-01-16T02:00:00","20.9","ND","24.92","ND","ND","ND","0.4","322.8","21.9","87.6","0","0"],
    [23648,"2013-01-16T03:00:00","22.3","ND","23.72","ND","ND","ND","0.3","314.2","21.8","87.8","0","0"],
    [23649,"2013-01-16T04:00:00","26.4","ND","23.57","ND","ND","ND","0.2","248","21.8","87.5","0","0"],
    [23650,"2013-01-16T05:00:00","18.2","ND","21.43","ND","ND","ND","0","194","22.1","86.8","0","0"],
    [23651,"2013-01-16T06:00:00","25.2","ND","22.68","ND","ND","ND","0.2","37.2","22.1","87","0","0"],
    [23652,"2013-01-16T07:00:00","44.2","ND","28.25","ND","ND","ND","0.2","40.6","22","85.1","5.5","0"],
    [23653,"2013-01-16T08:00:00","43.7","ND","31.89","ND","ND","ND","0.3","39.1","22.2","86","74.9","0"],
    [23654,"2013-01-16T09:00:00","40.3","ND","37.22","ND","ND","ND","0.8","65.3","23.4","80.6","233.8","0"],
    [23655,"2013-01-16T10:00:00","52.6","ND","33.50","ND","ND","ND","0.5","154.5","24.9","71.9","349.8","0"],
    [23656,"2013-01-16T11:00:00","27.1","ND","30.44","ND","ND","ND","0.6","129.9","25.8","67.3","248.2","0"],
    [23657,"2013-01-16T12:00:00","30.8","ND","24.82","ND","ND","ND","1.1","88.9","27.7","59.1","624.3","0"],
    [23658,"2013-01-16T13:00:00","17.2","ND","19.09","ND","ND","ND","0.6","302.6","27.6","57.1","196.8","0"],
    [23659,"2013-01-16T14:00:00","13.6","ND","17.90","ND","ND","ND","0.2","99.4","28.9","51.8","584.4","0"],
    [23660,"2013-01-16T15:00:00","18","ND","12.79","ND","ND","ND","1.4","279.8","29.4","49.7","314.7","0"],
    [23661,"2013-01-16T16:00:00","13.7","ND","6.97","ND","ND","ND","1.8","277.5","30","47.4","346.8","0"],
    [23662,"2013-01-16T17:00:00","8.3","ND","8.13","ND","ND","ND","3.2","283.3","29.7","47.1","273.7","0"],
    [23663,"2013-01-16T18:00:00","6.4","ND","14.24","ND","ND","ND","2.1","273.2","28.6","48.7","33.7","0"],
    [23664,"2013-01-16T19:00:00","12.5","ND","30.84","ND","ND","ND","0.1","21.5","27.5","52.5","1.2","0"],
    [23665,"2013-01-16T20:00:00","15.1","ND","26.78","ND","ND","ND","1.2","106.6","27.3","54.4","0","0"],
    [23666,"2013-01-16T21:00:00","17.7","ND","36.82","ND","ND","ND","1.4","109.6","27","56.1","0","0"],
    [23667,"2013-01-16T22:00:00","10.7","ND","31.81","ND","ND","ND","1.2","90.1","26.2","60","0","0"],
    [23668,"2013-01-16T23:00:00","7.7","ND","18.85","ND","ND","ND","0.7","121.6","25.9","60.3","0","0"],
    [23669,"2013-01-17T00:00:00","5.3","ND","21.43","ND","ND","ND","1.4","58.1","25","66.8","0","0"],
    [23670,"2013-01-17T01:00:00","5","ND","22.73","ND","ND","ND","0.6","57.3","24.2","73.3","0","0"],
    [23671,"2013-01-17T02:00:00","4.3","ND","12.80","ND","ND","ND","1.3","130.8","23.9","74","0","0"],
    [23672,"2013-01-17T03:00:00","3.5","ND","6.92","ND","ND","ND","1.4","155.3","23.1","79.2","0","0"],
    [23673,"2013-01-17T04:00:00","3","ND","6.32","ND","ND","ND","0.4","191.9","23","79.3","0","0"],
    [23674,"2013-01-17T05:00:00","21.4","ND","19.36","ND","ND","ND","0.5","42.2","22.6","82.7","0","0"],
    [23675,"2013-01-17T06:00:00","11.8","ND","25.66","ND","ND","ND","0.5","332.6","22.5","84","0","0"],
    [23676,"2013-01-17T07:00:00","9.6","ND","27.28","ND","ND","ND","0.5","20.5","22.2","85.3","8.1","0"],
    [23677,"2013-01-17T08:00:00","29.8","ND","31.09","ND","ND","ND","0.4","351.2","22.6","83.8","17.7","0"],
    [23678,"2013-01-17T09:00:00","21.2","ND","34.09","ND","ND","ND","0.2","59.4","23.2","80.9","119.7","0"],
    [23679,"2013-01-17T10:00:00","37.6","ND","35.81","ND","ND","ND","0.8","86.2","25.2","69.8","464.9","0"],
    [23680,"2013-01-17T11:00:00","27.2","ND","30.73","ND","ND","ND","0.4","83.5","26.2","64.3","388.5","0"],
    [23681,"2013-01-17T12:00:00","40.5","ND","24.23","ND","ND","ND","1","91.5","27.9","58.6","598.9","0"],
    [23682,"2013-01-17T13:00:00","21.6","ND","18.19","ND","ND","ND","0.3","3.9","28","57.4","139.2","0"],
    [23683,"2013-01-17T14:00:00","12.9","ND","14.36","ND","ND","ND","0.4","191","28.8","52.8","524.9","0"],
    [23684,"2013-01-17T15:00:00","7.4","ND","9.34","ND","ND","ND","0.8","228.5","30.4","46.9","608.1","0"],
    [23685,"2013-01-17T16:00:00","19.2","ND","10.66","ND","ND","ND","2.4","260","30.8","45.9","486.2","0"],
    [23686,"2013-01-17T17:00:00","15.6","ND","12.67","ND","ND","ND","3.1","274.9","29.9","47.6","270.4","0"],
    [23687,"2013-01-17T18:00:00","23.5","ND","18.46","ND","ND","ND","2.1","259.6","28.8","49.4","87.7","0"],
    [23688,"2013-01-17T19:00:00","13.3","ND","24.63","ND","ND","ND","0.8","277.4","28.2","49.8","1.2","0"],
    [23689,"2013-01-17T20:00:00","8.3","ND","20.26","ND","ND","ND","0.9","328.4","27.2","53.8","0","0"],
    [23690,"2013-01-17T21:00:00","5.8","ND","23.46","ND","ND","ND","0.4","252.5","26.8","55.6","0","0"],
    [23691,"2013-01-17T22:00:00","5.2","ND","19.52","ND","ND","ND","0.4","320.5","26.5","57.4","0","0"],
    [23692,"2013-01-17T23:00:00","5.7","ND","31.26","ND","ND","ND","0.3","82.3","26","60.3","0","0"],
    [23693,"2013-01-18T00:00:00","3.8","ND","23.40","ND","ND","ND","0.9","66.2","25.6","61.5","0","0"],
    [23694,"2013-01-18T01:00:00","3.4","ND","18.14","ND","ND","ND","0.7","83.2","25.1","63.7","0","0"],
    [23695,"2013-01-18T02:00:00","3.1","ND","17.98","ND","ND","ND","0.2","4.8","24.5","66.8","0","0"],
    [23696,"2013-01-18T03:00:00","3.2","ND","17.23","ND","ND","ND","0.3","102.1","24.3","68.4","0","0"],
    [23697,"2013-01-18T04:00:00","2.8","ND","11.12","ND","ND","ND","0.5","122","23.8","72.4","0","0"],
    [23698,"2013-01-18T05:00:00","2.9","ND","13.85","ND","ND","ND","0.7","113.5","23.6","74.6","0","0"],
    [23699,"2013-01-18T06:00:00","3.1","ND","18.03","ND","ND","ND","0.6","141","23.3","77.9","0","0"],
    [23700,"2013-01-18T07:00:00","5.9","ND","20.90","ND","ND","ND","1.2","147.1","23.1","80.1","3.8","0"],
    [23701,"2013-01-18T08:00:00","24","ND","21.84","ND","ND","ND","1.2","163.2","23.3","78.4","41","0"],
    [23702,"2013-01-18T09:00:00","12.5","ND","25.24","ND","ND","ND","2.2","166.6","23.7","78.2","137.1","0"],
    [23703,"2013-01-18T10:00:00","24.5","ND","24.19","ND","ND","ND","2.2","161.4","24.2","76","186.6","0"],
    [23704,"2013-01-18T11:00:00","14.5","ND","18.99","ND","ND","ND","2.2","157","25.3","71.1","492.9","0"],
    [23705,"2013-01-18T12:00:00","9.7","ND","14.21","ND","ND","ND","1.3","144.8","26.4","64.8","335.4","0"],
    [23706,"2013-01-18T13:00:00","6.9","ND","20.19","ND","ND","ND","0.3","247.3","27.2","61.7","409.2","0"],
    [23707,"2013-01-18T14:00:00","24.7","ND","16.65","ND","ND","ND","1.3","123.6","27.8","59.4","257.2","0"],
    [23708,"2013-01-18T15:00:00","28.3","ND","25.84","ND","ND","ND","2","234.6","27.4","60.5","186.2","0"],
    [23709,"2013-01-18T16:00:00","14.8","ND","11.67","ND","ND","ND","0.3","252.9","27.7","57.7","167.8","0"],
    [23710,"2013-01-18T17:00:00","8.3","ND","21.93","ND","ND","ND","1","351.7","27.9","58","133.2","0"],
    [23711,"2013-01-18T18:00:00","10.4","ND","20.46","ND","ND","ND","2.1","248.3","26.8","60.6","25.5","0"],
    [23712,"2013-01-18T19:00:00","9.3","ND","23.38","ND","ND","ND","1.7","251.9","26","61.2","1.1","0"],
    [23713,"2013-01-18T20:00:00","30","ND","46.46","ND","ND","ND","0.2","285.7","25.6","64.3","0.1","0"],
    [23714,"2013-01-18T21:00:00","33.8","ND","50.01","ND","ND","ND","0.6","169.6","25.6","63.6","0","0"],
    [23715,"2013-01-18T22:00:00","36.5","ND","37.99","ND","ND","ND","0.3","105.8","24.7","67.4","0","0"],
    [23716,"2013-01-18T23:00:00","46.6","ND","37.55","ND","ND","ND","0.2","58.1","23.9","71.5","0","0"],
    [23717,"2013-01-19T00:00:00","32.6","ND","26.74","ND","ND","ND","0.4","170.3","23.5","72.5","0","0"],
    [23718,"2013-01-19T01:00:00","26.7","ND","27.41","ND","ND","ND","0.3","240.9","23.4","74.3","0","0"],
    [23719,"2013-01-19T02:00:00","21.4","ND","27.84","ND","ND","ND","0.2","310.6","23.2","75","0","0"],
    [23720,"2013-01-19T03:00:00","28.1","ND","27.74","ND","ND","ND","0.4","19.6","23","76.1","0","0"],
    [23721,"2013-01-19T04:00:00","39.1","ND","23.95","ND","ND","ND","0.5","7.8","22.3","80","0","0"],
    [23722,"2013-01-19T05:00:00","43.4","ND","20.93","ND","ND","ND","0.2","294.6","21.6","81.9","0","0"],
    [23723,"2013-01-19T06:00:00","31","ND","22.84","ND","ND","ND","0.2","95.6","22","79.6","0","0"],
    [23724,"2013-01-19T07:00:00","61.1","ND","27.40","ND","ND","ND","0.7","22.5","21.7","82.5","7.3","0"],
    [23725,"2013-01-19T08:00:00","69.3","ND","30.07","ND","ND","ND","0.3","273.1","22.7","78.7","135.1","0"],
    [23726,"2013-01-19T09:00:00","35.3","ND","25.79","ND","ND","ND","0.9","130.6","25.1","66.6","319.7","0"],
    [23727,"2013-01-19T10:00:00","35.2","ND","33.71","ND","ND","ND","1.5","114.9","26.3","64.3","458.3","0"],
    [23728,"2013-01-19T11:00:00","21","ND","18.75","ND","ND","ND","1","86.7","27.2","59.8","390","0"],
    [23729,"2013-01-19T12:00:00","27.7","ND","15.36","ND","ND","ND","0.6","96.9","28.5","54.6","700.5","0"],
    [23730,"2013-01-19T13:00:00","25.1","ND","14.36","ND","ND","ND","1.2","86.7","29.6","50.8","731.8","0"],
    [23731,"2013-01-19T14:00:00","21.7","ND","12.25","ND","ND","ND","1.1","343.4","30.2","46.9","398.1","0"],
    [23732,"2013-01-19T15:00:00","11.6","ND","9.49","ND","ND","ND","0.7","32.7","31.6","42.2","563.8","0"],
    [23733,"2013-01-19T16:00:00","26.7","ND","11.53","ND","ND","ND","1.9","283.2","31.5","42.7","302.7","0"],
    [23734,"2013-01-19T17:00:00","15.7","ND","10.42","ND","ND","ND","2.7","269.3","31.1","43.7","262.2","0"],
    [23735,"2013-01-19T18:00:00","20.7","ND","16.90","ND","ND","ND","1.6","265.9","30.6","43.8","102.9","0"],
    [23736,"2013-01-19T19:00:00","11.4","ND","19.30","ND","ND","ND","0.8","227.6","28.7","48","2.2","0"],
    [23737,"2013-01-19T20:00:00","14.8","ND","35.24","ND","ND","ND","0.3","233.7","27.6","50.7","0","0"],
    [23738,"2013-01-19T21:00:00","18.9","ND","44.04","ND","ND","ND","0.9","99.2","26.3","57.5","0","0"],
    [23739,"2013-01-19T22:00:00","40.4","ND","40.60","ND","ND","ND","0.1","132.8","25.5","60.8","0","0"],
    [23740,"2013-01-19T23:00:00","41.6","ND","40.15","ND","ND","ND","0.3","114.3","24.7","64.6","0","0"],
    [23741,"2013-01-20T00:00:00","62.1","ND","33.63","ND","ND","ND","0.4","160.5","23.9","67.9","0","0"],
    [23742,"2013-01-20T01:00:00","45.5","ND","32.06","ND","ND","ND","0.3","144","23.6","69","0","0"],
    [23743,"2013-01-20T02:00:00","35.1","ND","30.83","ND","ND","ND","0.2","151.5","23.4","70.3","0","0"],
    [23744,"2013-01-20T03:00:00","25.5","ND","21.85","ND","ND","ND","0.5","113.2","22.7","74.2","0","0"],
    [23745,"2013-01-20T04:00:00","21.5","ND","21.32","ND","ND","ND","0.3","146.2","22.7","74.8","0","0"],
    [23746,"2013-01-20T05:00:00","12.6","ND","23.27","ND","ND","ND","0.6","42.2","22.5","76.2","0","0"],
    [23747,"2013-01-20T06:00:00","37.1","ND","23.92","ND","ND","ND","0.3","50.1","22.2","77.5","0","0"],
    [23748,"2013-01-20T07:00:00","20.7","ND","22.94","ND","ND","ND","0.3","297.9","22.1","78.2","10.9","0"],
    [23749,"2013-01-20T08:00:00","55.2","ND","28.67","ND","ND","ND","0.3","86.7","22.7","76","69.9","0"],
    [23750,"2013-01-20T09:00:00","36.3","ND","33.94","ND","ND","ND","1.3","157.6","24","70.7","230.3","0"],
    [23751,"2013-01-20T10:00:00","60","ND","26.32","ND","ND","ND","1.4","178.4","25.1","65.5","264","0"],
    [23752,"2013-01-20T11:00:00","31.2","ND","15.20","ND","ND","ND","0.6","143.1","26.8","59","617.8","0"],
    [23753,"2013-01-20T12:00:00","23","ND","14.67","ND","ND","ND","0.8","129.4","28.8","51.9","575.7","0"],
    [23754,"2013-01-20T13:00:00","13.4","ND","11.75","ND","ND","ND","1","135.9","30.2","47.2","748.3","0"],
    [23755,"2013-01-20T14:00:00","25.1","ND","9.89","ND","ND","ND","0.4","344.9","30.7","45.7","480.4","0"],
    [23756,"2013-01-20T15:00:00","15.6","ND","6.14","ND","ND","ND","1.7","290.7","30.8","44.8","387.8","0"],
    [23757,"2013-01-20T16:00:00","8.5","ND","4.93","ND","ND","ND","1.5","269.9","30.7","44.5","214.5","0"],
    [23758,"2013-01-20T17:00:00","5.8","ND","5.31","ND","ND","ND","2.8","280.4","30.3","46.5","163.9","0"],
    [23759,"2013-01-20T18:00:00","24.1","ND","11.14","ND","ND","ND","2","260.6","29.4","48.2","60.6","0"],
    [23760,"2013-01-20T19:00:00","12.7","ND","18.65","ND","ND","ND","0.1","156.3","28.4","50.5","2.2","0"],
    [23761,"2013-01-20T20:00:00","20.1","ND","37.60","ND","ND","ND","0.7","124.6","27.8","51.8","0","0"],
    [23762,"2013-01-20T21:00:00","12.1","ND","48.78","ND","ND","ND","0.7","104.9","26.7","56.1","0","0"],
    [23763,"2013-01-20T22:00:00","24.6","ND","41.09","ND","ND","ND","0.7","94.8","25.5","61.2","0","0"],
    [23764,"2013-01-20T23:00:00","58.8","ND","41.77","ND","ND","ND","0.3","55","25.1","62.3","0","0"],
    [23765,"2013-01-21T00:00:00","59.1","ND","36.28","ND","ND","ND","0.2","30.2","24.4","67.2","0","0"],
    [23766,"2013-01-21T01:00:00","31","ND","32.22","ND","ND","ND","0.1","321","24.1","69","0","0"],
    [23767,"2013-01-21T02:00:00","40.4","ND","25.30","ND","ND","ND","0.4","35.5","23.5","72.2","0","0"],
    [23768,"2013-01-21T03:00:00","25.7","ND","17.79","ND","ND","ND","0.2","190.7","23.3","73.6","0","0"],
    [23769,"2013-01-21T04:00:00","27.6","ND","21.57","ND","ND","ND","0.1","340.3","23.2","73.8","0","0"],
    [23770,"2013-01-21T05:00:00","15.3","ND","23.51","ND","ND","ND","0.2","284.3","23.2","74","0","0"],
    [23771,"2013-01-21T06:00:00","37.5","ND","23.35","ND","ND","ND","0.2","186.6","23.3","74.2","0","0"],
    [23772,"2013-01-21T07:00:00","34.5","ND","26.31","ND","ND","ND","0.3","283.9","23.1","75.2","8.8","0"],
    [23773,"2013-01-21T08:00:00","69.3","ND","35.85","ND","ND","ND","0.9","13.2","23.2","75.9","63.6","0"],
    [23774,"2013-01-21T09:00:00","75.1","ND","52.76","ND","ND","ND","0.6","69.1","24.8","70.2","274","0"],
    [23775,"2013-01-21T10:00:00","60.6","ND","50.15","ND","ND","ND","0.9","82.5","27","61.1","515.1","0"],
    [23776,"2013-01-21T11:00:00","34.4","ND","32.45","ND","ND","ND","1.2","111","28.5","55.6","655.3","0"],
    [23777,"2013-01-21T12:00:00","47","ND","22.80","ND","ND","ND","1","116.2","29.9","51.1","703.3","0"],
    [23778,"2013-01-21T13:00:00","26.3","ND","20.05","ND","ND","ND","1.3","142.7","31.5","46","762.4","0"],
    [23779,"2013-01-21T14:00:00","38.7","ND","15.66","ND","ND","ND","0.6","327.4","31.4","45.3","502.6","0"],
    [23780,"2013-01-21T15:00:00","24.9","ND","12.38","ND","ND","ND","1.7","12.5","31.6","44.7","272","0"],
    [23781,"2013-01-21T16:00:00","16.6","ND","9.95","ND","ND","ND","3","272.1","31","46.4","297.9","0"],
    [23782,"2013-01-21T17:00:00","10.2","ND","12.11","ND","ND","ND","3.2","267.3","30.6","47","207.6","0"],
    [23783,"2013-01-21T18:00:00","9.6","ND","23.10","ND","ND","ND","1.8","257.3","30.3","47.9","55.5","0"],
    [23784,"2013-01-21T19:00:00","24","ND","30.57","ND","ND","ND","1.4","241.4","29.1","51.4","2.3","0"],
    [23785,"2013-01-21T20:00:00","21.4","ND","48.68","ND","ND","ND","0.9","119.3","28.9","52.6","0","0"],
    [23786,"2013-01-21T21:00:00","11.8","ND","36.41","ND","ND","ND","0.7","315.5","28","56","0.1","0"],
    [23787,"2013-01-21T22:00:00","15.6","ND","28.17","ND","ND","ND","0.8","103.8","27.7","57.8","0","0"],
    [23788,"2013-01-21T23:00:00","20.8","ND","31.85","ND","ND","ND","1","110.1","27.1","60.6","0","0"],
    [23789,"2013-01-22T00:00:00","26.1","ND","30.11","ND","ND","ND","0.7","145","26.4","64.4","0","0"],
    [23790,"2013-01-22T01:00:00","14.9","ND","27.86","ND","ND","ND","1.1","165","26","66.3","0","0"],
    [23791,"2013-01-22T02:00:00","13.7","ND","21.05","ND","ND","ND","1","126.3","25.5","68.9","0","0"],
    [23792,"2013-01-22T03:00:00","8.5","ND","16.93","ND","ND","ND","1.2","130.5","24.9","71.7","0","0"],
    [23793,"2013-01-22T04:00:00","19.6","ND","18.05","ND","ND","ND","0.3","141.2","24.5","73","0","0"],
    [23794,"2013-01-22T05:00:00","10.9","ND","19.35","ND","ND","ND","0.8","358.1","23.6","80.8","0","2.29"],
    [23795,"2013-01-22T06:00:00","32.2","ND","21.49","ND","ND","ND","0.2","271.1","22.9","88.1","0","0"],
    [23796,"2013-01-22T07:00:00","17.6","ND","22.47","ND","ND","ND","0.1","276","23.3","85.5","4.2","0"],
    [23797,"2013-01-22T08:00:00","35.2","ND","28.33","ND","ND","ND","0.1","45.7","23.9","83.3","34.2","0"],
    [23798,"2013-01-22T09:00:00","47.7","ND","35.58","ND","ND","ND","0.9","153.1","24.7","75","106.2","0"],
    [23799,"2013-01-22T10:00:00","45.8","ND","34.32","ND","ND","ND","0.8","184.2","26","68.4","344.3","0"],
    [23800,"2013-01-22T11:00:00","24.9","ND","38.35","ND","ND","ND","0.8","52.3","28.4","59.2","619.8","0"],
    [23801,"2013-01-22T12:00:00","26.1","ND","27.74","ND","ND","ND","0.5","253.1","28.7","56.6","380.7","0"],
    [23802,"2013-01-22T13:00:00","19.2","ND","16.15","ND","ND","ND","0.9","171.2","30.8","48.6","799.2","0"],
    [23803,"2013-01-22T14:00:00","10.1","ND","15.50","ND","ND","ND","1.1","312.3","31.3","47.2","524.2","0"],
    [23804,"2013-01-22T15:00:00","5.1","ND","8.96","ND","ND","ND","1.1","269.9","32.4","43.6","609.2","0"],
    [23805,"2013-01-22T16:00:00","2.5","ND","8.00","ND","ND","ND","3.3","277.2","32.1","44","500.3","0"],
    [23806,"2013-01-22T17:00:00","2.9","ND","12.27","ND","ND","ND","2.9","273.6","31.7","44.4","280.8","0"],
    [23807,"2013-01-22T18:00:00","2.9","ND","13.63","ND","ND","ND","1.5","277.3","30.3","47.2","87.1","0"],
    [23808,"2013-01-22T19:00:00","2","ND","23.31","ND","ND","ND","0.4","86.9","29.3","50","3.3","0"],
    [23809,"2013-01-22T20:00:00","10.4","ND","32.88","ND","ND","ND","1.1","110.4","28.6","52.7","0","0"],
    [23810,"2013-01-22T21:00:00","11.6","ND","23.05","ND","ND","ND","0.3","24.8","27.7","54.9","0","0"],
    [23811,"2013-01-22T22:00:00","25","ND","28.99","ND","ND","ND","0.7","91.3","27.2","58.3","0","0"],
    [23812,"2013-01-22T23:00:00","14.1","ND","27.89","ND","ND","ND","0.5","40","26.4","61.5","0","0"],
    [23813,"2013-01-23T00:00:00","42.2","ND","26.41","ND","ND","ND","0.1","144.1","25.9","64.2","0","0"],
    [23814,"2013-01-23T01:00:00","23.7","ND","21.40","ND","ND","ND","1.1","103.8","25.6","66.8","0","0"],
    [23815,"2013-01-23T02:00:00","29.7","ND","18.48","ND","ND","ND","0.3","354.9","24.8","70.8","0","0"],
    [23816,"2013-01-23T03:00:00","33.2","ND","17.93","ND","ND","ND","1","4.3","24.1","75.1","0","0"],
    [23817,"2013-01-23T04:00:00","22.7","ND","17.25","ND","ND","ND","0.5","293","24","74.6","0","0"],
    [23818,"2013-01-23T05:00:00","13.4","ND","16.60","ND","ND","ND","0.4","302.3","23.8","75.5","0","0"],
    [23819,"2013-01-23T06:00:00","46","ND","16.68","ND","ND","ND","0.3","268.3","23.6","76.5","0","0"],
    [23820,"2013-01-23T07:00:00","26.2","ND","20.26","ND","ND","ND","0.4","274.6","23.5","77.4","7","0"],
    [23821,"2013-01-23T08:00:00","49.7","ND","28.97","ND","ND","ND","0.2","54.3","24.4","74.7","61.3","0"],
    [23822,"2013-01-23T09:00:00","40.1","ND","39.94","ND","ND","ND","0.3","324.1","25.4","69.9","164.2","0"],
    [23823,"2013-01-23T10:00:00","52.8","ND","32.95","ND","ND","ND","1.3","129.5","26.6","65.4","339.1","0"],
    [23824,"2013-01-23T11:00:00","28.1","ND","18.32","ND","ND","ND","0.5","206.2","28","59.7","605.8","0"],
    [23825,"2013-01-23T12:00:00","41.1","ND","17.77","ND","ND","ND","0.7","257.4","29.3","54","455.4","0"],
    [23826,"2013-01-23T13:00:00","20.5","ND","13.41","ND","ND","ND","0.6","204.4","30.9","47.6","806.7","0"],
    [23827,"2013-01-23T14:00:00","11.5","ND","13.77","ND","ND","ND","1.5","356.2","31.7","45","413.7","0"],
    [23828,"2013-01-23T15:00:00","7.5","ND","9.91","ND","ND","ND","1.7","290.9","31.4","45.3","403.4","0"],
    [23829,"2013-01-23T16:00:00","18.8","ND","6.13","ND","ND","ND","4.2","280","31.2","45.4","474.6","0"],
    [23830,"2013-01-23T17:00:00","3","ND","7.18","ND","ND","ND","2.8","285.6","31.4","43.8","306","0"],
    [23831,"2013-01-23T18:00:00","1.5","ND","11.13","ND","ND","ND","2.7","279.2","29.5","49.7","27.2","0"],
    [23832,"2013-01-23T19:00:00","2.4","ND","20.91","ND","ND","ND","0.7","102.7","28.8","52.3","3.5","0"],
    [23833,"2013-01-23T20:00:00","20.4","ND","20.70","ND","ND","ND","0.5","78.9","28.1","54.5","0","0"],
    [23834,"2013-01-23T21:00:00","10.2","ND","21.82","ND","ND","ND","0.9","82.7","27.8","55.3","0","0"],
    [23835,"2013-01-23T22:00:00","5.1","ND","25.92","ND","ND","ND","0.9","30.4","27.2","57.7","0","0"],
    [23836,"2013-01-23T23:00:00","4.6","ND","22.62","ND","ND","ND","0.7","39.7","26.8","59.7","0","0"],
    [23837,"2013-01-24T00:00:00","2.9","ND","20.18","ND","ND","ND","0.5","85.7","26.5","60.9","0","0"],
    [23838,"2013-01-24T01:00:00","5.5","ND","16.39","ND","ND","ND","1.7","144.1","25.8","66.7","0","0"],
    [23839,"2013-01-24T02:00:00","20.8","ND","10.80","ND","ND","ND","1.4","146.7","25.2","69.9","0","0"],
    [23840,"2013-01-24T03:00:00","12.6","ND","8.39","ND","ND","ND","1.1","161.5","24.6","73","0","0"],
    [23841,"2013-01-24T04:00:00","12.8","ND","7.79","ND","ND","ND","0.9","178.7","24.1","78.2","0","0"],
    [23842,"2013-01-24T05:00:00","15.9","ND","10.53","ND","ND","ND","0.5","340.5","23.4","82.7","0","0"],
    [23843,"2013-01-24T06:00:00","20.3","ND","20.70","ND","ND","ND","0.4","31.4","23.2","83.5","0","0"],
    [23844,"2013-01-24T07:00:00","10.7","ND","24.13","ND","ND","ND","1.4","153.2","23.2","82.4","0.8","0"],
    [23845,"2013-01-24T08:00:00","8.3","ND","26.37","ND","ND","ND","1.6","149.7","22.3","86.2","4.2","0.76"],
    [23846,"2013-01-24T09:00:00","5.4","ND","30.18","ND","ND","ND","0.3","146","21.6","91.8","20.2","10.92"],
    [23847,"2013-01-24T10:00:00","25.5","ND","34.51","ND","ND","ND","0.6","132.2","21.7","93.4","45","6.6"],
    [23848,"2013-01-24T11:00:00","14.7","ND","18.70","ND","ND","ND","1.2","107.5","21.7","92","148.7","0.76"],
    [23849,"2013-01-24T12:00:00","8.5","ND","22.06","ND","ND","ND","0.3","325.2","22","89.2","125.3","0.25"],
    [23850,"2013-01-24T13:00:00","5.3","ND","34.42","ND","ND","ND","0.2","331.8","22.5","86.6","132.4","0"],
    [23851,"2013-01-24T14:00:00","12","ND","36.31","ND","ND","ND","0.5","51.5","23.4","82.5","116.4","0"],
    [23852,"2013-01-24T15:00:00","13.6","ND","30.21","ND","ND","ND","1","114.5","24.1","79.9","174.2","0"],
    [23853,"2013-01-24T16:00:00","15.2","ND","30.05","ND","ND","ND","0.8","49.5","24.3","78.4","152.7","0"],
    [23854,"2013-01-24T17:00:00","8.4","ND","26.34","ND","ND","ND","0.9","134.2","24.9","73","132.6","0"],
    [23855,"2013-01-24T18:00:00","17.3","ND","50.14","ND","ND","ND","0.2","282.9","24.9","74.4","51.6","0"],
    [23856,"2013-01-24T19:00:00","34.8","ND","64.07","ND","ND","ND","0.4","214","24.3","79.4","2.4","0"],
    [23857,"2013-01-24T20:00:00","45.3","ND","51.68","ND","ND","ND","0.6","307.3","23.7","80.4","0","0"],
    [23858,"2013-01-24T21:00:00","41.8","ND","49.72","ND","ND","ND","0.2","250.1","23.5","81.4","0","0"],
    [23859,"2013-01-24T22:00:00","58.4","ND","47.92","ND","ND","ND","0.4","186.8","23.5","81","0","0"],
    [23860,"2013-01-24T23:00:00","48.4","ND","49.50","ND","ND","ND","0.1","40.5","23.2","82.3","0","0"],
    [23861,"2013-01-25T00:00:00","63.7","ND","34.77","ND","ND","ND","0","269.4","22.8","83.8","0","0"],
    [23862,"2013-01-25T01:00:00","54.6","ND","35.47","ND","ND","ND","0.3","305.2","22.5","85.2","0","0"],
    [23863,"2013-01-25T02:00:00","69.9","ND","33.51","ND","ND","ND","0.2","333.7","22.4","85.6","0","0"],
    [23864,"2013-01-25T03:00:00","49.6","ND","41.40","ND","ND","ND","0.2","73.8","22.3","87.8","0","0"],
    [23865,"2013-01-25T04:00:00","65.6","ND","37.79","ND","ND","ND","0.4","23.7","22","89.9","0","0"],
    [23866,"2013-01-25T05:00:00","56.6","ND","34.38","ND","ND","ND","0.3","205","22","89.7","0","0"],
    [23867,"2013-01-25T06:00:00","55.3","ND","30.87","ND","ND","ND","0.2","254.6","22.1","88.5","0","0"],
    [23868,"2013-01-25T07:00:00","44.2","ND","27.90","ND","ND","ND","0.7","199.9","22.3","85.9","9.2","0"],
    [23869,"2013-01-25T08:00:00","58.1","ND","41.45","ND","ND","ND","0.4","62.5","22.7","85.2","36.2","0"],
    [23870,"2013-01-25T09:00:00","51","ND","45.25","ND","ND","ND","0.6","103.2","23.2","83.1","149.8","0"],
    [23871,"2013-01-25T10:00:00","50.5","ND","38.06","ND","ND","ND","0.5","86","24.8","73.7","317","0"],
    [23872,"2013-01-25T11:00:00","41.3","ND","39.77","ND","ND","ND","1.1","345.3","25.1","70.5","232.8","0"],
    [23873,"2013-01-25T12:00:00","43.1","ND","25.30","ND","ND","ND","0.9","120.3","27.8","58.4","736.4","0"],
    [23874,"2013-01-25T13:00:00","24","ND","17.18","ND","ND","ND","0.7","82.2","29","51.9","542.5","0"],
    [23875,"2013-01-25T14:00:00","14.6","ND","14.37","ND","ND","ND","2.1","293.3","29.3","51.4","609.6","0"],
    [23876,"2013-01-25T15:00:00","8.5","ND","9.52","ND","ND","ND","1.6","8.7","30","48.6","410.4","0"],
    [23877,"2013-01-25T16:00:00","4.8","ND","15.03","ND","ND","ND","1.3","322.2","29.6","50.3","221.2","0"],
    [23878,"2013-01-25T17:00:00","4.4","ND","16.56","ND","ND","ND","1.7","280.4","29.2","50.8","124.4","0"],
    [23879,"2013-01-25T18:00:00","3.4","ND","20.94","ND","ND","ND","0.3","331.7","28.7","52.5","52.1","0"],
    [23880,"2013-01-25T19:00:00","4.7","ND","30.18","ND","ND","ND","0.2","135.6","27.7","54.4","1.5","0"],
    [23881,"2013-01-25T20:00:00","20.8","ND","42.59","ND","ND","ND","0.2","89.9","26.6","59.3","0","0"],
    [23882,"2013-01-25T21:00:00","12.4","ND","41.13","ND","ND","ND","0.6","51.9","25.9","61.1","0","0"],
    [23883,"2013-01-25T22:00:00","33","ND","36.86","ND","ND","ND","0.5","203.6","25.6","63.4","0","0"],
    [23884,"2013-01-25T23:00:00","35.6","ND","28.83","ND","ND","ND","0.8","147.3","24.9","68.6","0.1","0"],
    [23885,"2013-01-26T00:00:00","43.9","ND","26.81","ND","ND","ND","1.3","167.9","24.3","71.1","0.1","0"],
    [23886,"2013-01-26T01:00:00","30.9","ND","25.54","ND","ND","ND","0.4","134.2","24.1","74.5","0","0"],
    [23887,"2013-01-26T02:00:00","26.8","ND","24.82","ND","ND","ND","0.6","159.3","23.8","72.8","0.1","0"],
    [23888,"2013-01-26T03:00:00","18.1","ND","22.42","ND","ND","ND","0.4","150.6","23.4","74.3","0.1","0"],
    [23889,"2013-01-26T04:00:00","19.3","ND","21.48","ND","ND","ND","0.1","141.2","23.3","76.5","0.2","0"],
    [23890,"2013-01-26T05:00:00","12","ND","21.23","ND","ND","ND","0.4","338.1","22.9","78.3","0.1","0"],
    [23891,"2013-01-26T06:00:00","22","ND","23.06","ND","ND","ND","0.3","19","22.7","79.1","0","0"],
    [23892,"2013-01-26T07:00:00","33.9","ND","25.27","ND","ND","ND","0.2","214.7","22.7","79.5","3.9","0"],
    [23893,"2013-01-26T08:00:00","52.7","ND","29.39","ND","ND","ND","0.3","171.4","23.2","77.9","38.6","0"],
    [23894,"2013-01-26T09:00:00","48.5","ND","49.73","ND","ND","ND","0.2","224","24.8","71.4","332.3","0"],
    [23895,"2013-01-26T10:00:00","67.5","ND","54.12","ND","ND","ND","0.9","100.6","26.5","63.7","415.8","0"],
    [23896,"2013-01-26T11:00:00","69.5","ND","38.02","ND","ND","ND","1.6","148.8","27.8","58.3","644.7","0"],
    [23897,"2013-01-26T12:00:00","48.6","ND","24.59","ND","ND","ND","1.5","136.2","29.1","53.3","780.2","0"],
    [23898,"2013-01-26T13:00:00","25.8","ND","10.96","ND","ND","ND","1.2","56.1","29.5","51.7","524.4","0"],
    [23899,"2013-01-26T14:00:00","14","ND","13.68","ND","ND","ND","0.7","60.6","30.5","48.9","490.5","0"],
    [23900,"2013-01-26T15:00:00","8","ND","12.29","ND","ND","ND","1","31.5","31.2","47.6","337.5","0"],
    [23901,"2013-01-26T16:00:00","18","ND","9.32","ND","ND","ND","1.5","293","31.2","47.2","423.2","0"],
    [23902,"2013-01-26T17:00:00","10.3","ND","6.58","ND","ND","ND","3.7","278.8","30.4","48.4","283.2","0"],
    [23903,"2013-01-26T18:00:00","13.9","ND","16.24","ND","ND","ND","1.7","259.6","30.1","48.3","101.7","0"],
    [23904,"2013-01-26T19:00:00","12","ND","20.02","ND","ND","ND","0.5","269.4","29","50.7","5.2","0"],
    [23905,"2013-01-26T20:00:00","12.5","ND","23.08","ND","ND","ND","0.4","83.6","28","53.7","0","0"],
    [23906,"2013-01-26T21:00:00","17.3","ND","49.25","ND","ND","ND","0.5","72.8","27.4","56.8","0","0"],
    [23907,"2013-01-26T22:00:00","38.7","ND","36.30","ND","ND","ND","0.4","94.3","26.3","61.8","0","0"],
    [23908,"2013-01-26T23:00:00","20.9","ND","28.28","ND","ND","ND","0.3","165.2","25.7","65.3","0.1","0"],
    [23909,"2013-01-27T00:00:00","46.6","ND","24.07","ND","ND","ND","0.6","156.5","25","69","0.1","0"],
    [23910,"2013-01-27T01:00:00","64.2","ND","23.36","ND","ND","ND","0.1","170.1","24.3","72.1","0","0"],
    [23911,"2013-01-27T02:00:00","68.4","ND","22.07","ND","ND","ND","0.6","244.4","24.2","73.2","0","0"],
    [23912,"2013-01-27T03:00:00","45.8","ND","22.83","ND","ND","ND","0.1","179.4","24.5","72.4","0.1","0"],
    [23913,"2013-01-27T04:00:00","49.3","ND","18.36","ND","ND","ND","0.5","12.4","23.2","79.5","0","0"],
    [23914,"2013-01-27T05:00:00","25.8","ND","16.37","ND","ND","ND","0.4","16.8","22.6","82.7","0.1","0"],
    [23915,"2013-01-27T06:00:00","28.1","ND","17.45","ND","ND","ND","0.3","6.1","23","80.9","0.1","0"],
    [23916,"2013-01-27T07:00:00","16.6","ND","18.69","ND","ND","ND","0.1","237.9","23.3","79.4","7","0"],
    [23917,"2013-01-27T08:00:00","33.2","ND","24.83","ND","ND","ND","0.4","147.6","23.9","76.5","58.8","0"],
    [23918,"2013-01-27T09:00:00","21","ND","37.00","ND","ND","ND","0.1","162.2","24.6","74.1","130","0"],
    [23919,"2013-01-27T10:00:00","45.8","ND","34.72","ND","ND","ND","0.6","208.5","26.5","65.4","514.3","0"],
    [23920,"2013-01-27T11:00:00","23.7","ND","10.58","ND","ND","ND","1.3","153.7","28.5","55.2","752.2","0"],
    [23921,"2013-01-27T12:00:00","13.4","ND","8.90","ND","ND","ND","0.7","39.8","29.9","50.7","707.2","0"],
    [23922,"2013-01-27T13:00:00","8.4","ND","12.82","ND","ND","ND","1.2","316.9","30.7","48.4","725.4","0"],
    [23923,"2013-01-27T14:00:00","5","ND","8.88","ND","ND","ND","0.9","135.5","32.3","42.7","768.6","0"],
    [23924,"2013-01-27T15:00:00","3.9","ND","12.01","ND","ND","ND","0.6","133.4","31.5","46.8","196","0"],
    [23925,"2013-01-27T16:00:00","3.7","ND","6.96","ND","ND","ND","2.9","260.9","31.1","47.7","313.2","0"],
    [23926,"2013-01-27T17:00:00","3.9","ND","7.77","ND","ND","ND","2.7","259.4","30.7","47.6","218.6","0"],
    [23927,"2013-01-27T18:00:00","2.6","ND","10.04","ND","ND","ND","2.3","264.1","30.1","47.9","79.6","0"],
    [23928,"2013-01-27T19:00:00","3.5","ND","17.49","ND","ND","ND","0.7","229.4","29.1","50.5","2.2","0"],
    [23929,"2013-01-27T20:00:00","9","ND","33.59","ND","ND","ND","0.6","88.9","28.1","54","0","0"],
    [23930,"2013-01-27T21:00:00","6.6","ND","40.34","ND","ND","ND","1.2","170.8","27.5","56.6","0","0"],
    [23931,"2013-01-27T22:00:00","17.6","ND","32.59","ND","ND","ND","0.5","94","26.1","64.1","0","0"],
    [23932,"2013-01-27T23:00:00","55.7","ND","29.58","ND","ND","ND","0.5","176.1","25.5","66.9","0.1","0"],
    [23933,"2013-01-28T00:00:00","29.6","ND","27.35","ND","ND","ND","0.5","141.1","25.2","68.8","0","0"],
    [23934,"2013-01-28T01:00:00","24.8","ND","23.50","ND","ND","ND","0.5","138.4","24.4","71.8","0","0"],
    [23935,"2013-01-28T02:00:00","14.8","ND","17.85","ND","ND","ND","0.7","149.7","24","73.5","0","0"],
    [23936,"2013-01-28T03:00:00","9","ND","17.40","ND","ND","ND","0.1","229.6","24","74.6","0","0"],
    [23937,"2013-01-28T04:00:00","6.6","ND","19.66","ND","ND","ND","0.3","350.5","23.6","76.7","0","0"],
    [23938,"2013-01-28T05:00:00","5.4","ND","20.25","ND","ND","ND","0.3","28.1","23.7","76.6","0.1","0"],
    [23939,"2013-01-28T06:00:00","11.6","ND","23.48","ND","ND","ND","0.3","103.6","23.5","77.9","0.1","0"],
    [23940,"2013-01-28T07:00:00","19","ND","21.25","ND","ND","ND","0.2","168","23.2","79.9","5.5","0"],
    [23941,"2013-01-28T08:00:00","37","ND","27.48","ND","ND","ND","0.2","46.3","23.8","77.8","79.6","0"],
    [23942,"2013-01-28T09:00:00","63.4","ND","44.66","ND","ND","ND","0.4","88.4","24.5","74.9","149.9","0"],
    [23943,"2013-01-28T10:00:00","74.5","ND","44.17","ND","ND","ND","0.7","133.3","25.9","68","404.6","0"],
    [23944,"2013-01-28T11:00:00","58.4","ND","35.74","ND","ND","ND","0.3","100.2","27.5","62.2","615.3","0"],
    [23945,"2013-01-28T12:00:00","49","ND","26.96","ND","ND","ND","0.4","87.6","28.7","57.2","625.4","0"],
    [23946,"2013-01-28T13:00:00","44.7","ND","22.95","ND","ND","ND","0.7","75.7","29.9","52.7","553.8","0"],
    [23947,"2013-01-28T14:00:00","57.3","ND","18.00","ND","ND","ND","0.5","355.1","30.9","49","448.3","0"],
    [23948,"2013-01-28T15:00:00","42.9","ND","12.24","ND","ND","ND","1.1","291.4","31.1","47.5","388.1","0"],
    [23949,"2013-01-28T16:00:00","23.4","ND","8.21","ND","ND","ND","2.2","255.8","31.8","45","497.2","0"],
    [23950,"2013-01-28T17:00:00","13.5","ND","12.13","ND","ND","ND","2.3","266.3","31.1","46.3","225.4","0"],
    [23951,"2013-01-28T18:00:00","17","ND","20.46","ND","ND","ND","2.2","255.9","30.4","48.2","90.2","0"],
    [23952,"2013-01-28T19:00:00","14.5","ND","30.60","ND","ND","ND","0.6","243.2","29","51.1","2.9","0"],
    [23953,"2013-01-28T20:00:00","29.8","ND","34.05","ND","ND","ND","0.4","221.3","28.3","52.6","0","0"],
    [23954,"2013-01-28T21:00:00","18.8","ND","59.16","ND","ND","ND","0.9","102.2","27.8","54.9","0","0"],
    [23955,"2013-01-28T22:00:00","42.6","ND","45.06","ND","ND","ND","0.8","155.1","26.8","58.6","0","0"],
    [23956,"2013-01-28T23:00:00","27.1","ND","32.18","ND","ND","ND","0.4","124.9","25.6","65.5","0.1","0"],
    [23957,"2013-01-29T00:00:00","38.2","ND","29.19","ND","ND","ND","0.2","141.7","25.2","67.8","0","0"],
    [23958,"2013-01-29T01:00:00","31.6","ND","28.92","ND","ND","ND","0.1","178.4","24.7","69.9","0","0"],
    [23959,"2013-01-29T02:00:00","34.1","ND","25.57","ND","ND","ND","0.6","114","24.3","72","0","0"],
    [23960,"2013-01-29T03:00:00","21.9","ND","20.53","ND","ND","ND","0.7","107.7","23.7","75.5","0","0"],
    [23961,"2013-01-29T04:00:00","32.8","ND","18.40","ND","ND","ND","0.3","208.2","23.1","78.4","0","0"],
    [23962,"2013-01-29T05:00:00","17.2","ND","17.75","ND","ND","ND","0.3","245.4","22.7","80","0","0"],
    [23963,"2013-01-29T06:00:00","20.7","ND","17.85","ND","ND","ND","0.1","291.1","22.4","80.1","0","0"],
    [23964,"2013-01-29T07:00:00","25.6","ND","25.52","ND","ND","ND","0.4","15.3","22.8","78.9","3.5","0"],
    [23965,"2013-01-29T08:00:00","76.6","ND","33.09","ND","ND","ND","0.2","274","23.3","77.5","70.6","0"],
    [23966,"2013-01-29T09:00:00","57.3","ND","33.71","ND","ND","ND","0.5","79.8","24.5","72.9","174.6","0"],
    [23967,"2013-01-29T10:00:00","62.5","ND","35.50","ND","ND","ND","0.7","137.1","26.4","64.3","533.5","0"],
    [23968,"2013-01-29T11:00:00","35.9","ND","23.81","ND","ND","ND","1.4","146.3","27.9","57.7","682.1","0"],
    [23969,"2013-01-29T12:00:00","28.2","ND","13.91","ND","ND","ND","1.1","128.4","29.3","52.8","709.5","0"],
    [23970,"2013-01-29T13:00:00","16.8","ND","16.24","ND","ND","ND","1.4","113.2","30.8","48.8","782.3","0"],
    [23971,"2013-01-29T14:00:00","26.5","ND","16.97","ND","ND","ND","0.5","59.3","31.7","46","585.1","0"],
    [23972,"2013-01-29T15:00:00","2.7","ND","11.84","ND","ND","ND","1.8","298.6","31.6","45.1","350.3","0"],
    [23973,"2013-01-29T16:00:00","1.9","ND","10.36","ND","ND","ND","3.8","267","31.7","44.6","453.3","0"],
    [23974,"2013-01-29T17:00:00","5.6","ND","14.62","ND","ND","ND","2.9","261.9","31.3","45.1","244.9","0"],
    [23975,"2013-01-29T18:00:00","4.4","ND","23.10","ND","ND","ND","2","257.4","30.3","46.8","74.5","0"],
    [23976,"2013-01-29T19:00:00","8.6","ND","31.83","ND","ND","ND","0.2","187.7","29.3","49","2.1","0"],
    [23977,"2013-01-29T20:00:00","10.4","ND","35.26","ND","ND","ND","0.4","104","28.4","51.8","0","0"],
    [23978,"2013-01-29T21:00:00","16.2","ND","49.37","ND","ND","ND","0.2","113.6","27.9","53.9","0","0"],
    [23979,"2013-01-29T22:00:00","46.2","ND","34.58","ND","ND","ND","1.1","115.1","26.5","61.7","0.1","0"],
    [23980,"2013-01-29T23:00:00","29.7","ND","27.96","ND","ND","ND","0.3","115.7","25.5","66.3","0","0"],
    [23981,"2013-01-30T00:00:00","64.8","ND","27.55","ND","ND","ND","0.2","184.2","25.4","66.8","0","0"],
    [23982,"2013-01-30T01:00:00","34","ND","19.94","ND","ND","ND","0.9","97.4","24.9","69.1","0","0"],
    [23983,"2013-01-30T02:00:00","34","ND","18.87","ND","ND","ND","0.5","80.5","24","74.6","0","0"],
    [23984,"2013-01-30T03:00:00","18.6","ND","19.38","ND","ND","ND","0.4","279.3","23.9","74.8","0","0"],
    [23985,"2013-01-30T04:00:00","33.2","ND","20.43","ND","ND","ND","0.7","348.5","23.6","76.4","0","0"],
    [23986,"2013-01-30T05:00:00","33.6","ND","20.96","ND","ND","ND","0.6","356.7","23.4","77.6","0","0"],
    [23987,"2013-01-30T06:00:00","29.7","ND","21.90","ND","ND","ND","0.7","27.7","23.2","78.3","0","0"],
    [23988,"2013-01-30T07:00:00","34.4","ND","24.14","ND","ND","ND","0.1","292","23.5","77","6.3","0"],
    [23989,"2013-01-30T08:00:00","47","ND","33.32","ND","ND","ND","0.9","139.9","24.2","74.1","46.5","0"],
    [23990,"2013-01-30T09:00:00","24.7","ND","46.78","ND","ND","ND","0.3","140.5","25.8","67.8","268","0"],
    [23991,"2013-01-30T10:00:00","54.5","ND","34.44","ND","ND","ND","0.8","94.1","26.9","63.2","479.3","0"],
    [23992,"2013-01-30T11:00:00","28.8","ND","17.30","ND","ND","ND","0.8","145.6","28.4","55.1","610.4","0"],
    [23993,"2013-01-30T12:00:00","17.4","ND","13.35","ND","ND","ND","1.2","108.4","30.1","50.1","668.5","0"],
    [23994,"2013-01-30T13:00:00","21.4","ND","17.72","ND","ND","ND","0.5","27.4","30.4","49.5","588.6","0"],
    [23995,"2013-01-30T14:00:00","33.7","ND","13.18","ND","ND","ND","1.4","19.4","30.9","46.9","386","0"],
    [23996,"2013-01-30T15:00:00","17.5","ND","10.62","ND","ND","ND","2.1","297.1","31.3","44.9","574.4","0"],
    [23997,"2013-01-30T16:00:00","13","ND","10.44","ND","ND","ND","3.3","276.9","31.7","42.7","490.4","0"],
    [23998,"2013-01-30T17:00:00","8.4","ND","10.95","ND","ND","ND","2.7","278.7","31.4","42.2","283.1","0"],
    [23999,"2013-01-30T18:00:00","6.2","ND","17.76","ND","ND","ND","0.7","284.3","30.2","44.5","46","0"],
    [24000,"2013-01-30T19:00:00","3.8","ND","33.69","ND","ND","ND","0.4","164.7","29","48.2","1.3","0"],
    [24001,"2013-01-30T20:00:00","15.2","ND","41.97","ND","ND","ND","0.5","118.3","28.3","50.6","0","0"],
    [24002,"2013-01-30T21:00:00","44.1","ND","43.23","ND","ND","ND","0.7","59.4","27.5","53.8","0","0"],
    [24003,"2013-01-30T22:00:00","49.8","ND","31.94","ND","ND","ND","0.8","131.5","26.2","60.5","0.1","0"],
    [24004,"2013-01-30T23:00:00","38.3","ND","28.40","ND","ND","ND","0.3","139.2","25.4","64.5","0","0"],
    [24005,"2013-01-31T00:00:00","68.6","ND","29.36","ND","ND","ND","0","269.2","25.2","65.7","0","0"],
    [24006,"2013-01-31T01:00:00","40.9","ND","19.22","ND","ND","ND","0.5","100.3","24.3","70.1","0","0"],
    [24007,"2013-01-31T02:00:00","49.9","ND","23.38","ND","ND","ND","0.6","177.3","24.4","70.1","0","0"],
    [24008,"2013-01-31T03:00:00","25.7","ND","19.57","ND","ND","ND","0.6","175","24.4","70.2","0","0"],
    [24009,"2013-01-31T04:00:00","30.5","ND","21.60","ND","ND","ND","0.4","10.5","23.7","74.2","0","0"],
    [24010,"2013-01-31T05:00:00","23.4","ND","20.72","ND","ND","ND","0.4","144.2","23.7","74.2","0","0"],
    [24011,"2013-01-31T06:00:00","37.7","ND","22.52","ND","ND","ND","0.5","25.6","22.9","77.9","0","0"],
    [24012,"2013-01-31T07:00:00","45.1","ND","25.55","ND","ND","ND","0.4","308.5","22.7","79","13.9","0"],
    [24013,"2013-01-31T08:00:00","75.3","ND","33.16","ND","ND","ND","0.8","43.2","23.4","75.4","66.1","0"],
    [24014,"2013-01-31T09:00:00","67.4","ND","51.79","ND","ND","ND","0.7","97.2","25.1","69.2","304.8","0"],
    [24015,"2013-01-31T10:00:00","65.9","ND","52.46","ND","ND","ND","1","39.1","27.1","61.7","515.2","0"],
    [24016,"2013-01-31T11:00:00","47.5","ND","28.02","ND","ND","ND","1.2","84.7","28.6","56.2","664.9","0"],
    [24017,"2013-01-31T12:00:00","36.3","ND","14.72","ND","ND","ND","0.8","114","29.9","51.8","585.7","0"],
    [24018,"2013-01-31T13:00:00","19.7","ND","13.50","ND","ND","ND","1.2","280.5","30.5","48","507","0"],
    [24019,"2013-01-31T14:00:00","11.1","ND","7.29","ND","ND","ND","1.5","299.6","31.4","43.7","499.8","0"],
    [24020,"2013-01-31T15:00:00","9.9","ND","8.52","ND","ND","ND","2.3","273.5","31.9","42.1","645.8","0"],
    [24021,"2013-01-31T16:00:00","6.7","ND","8.67","ND","ND","ND","3.5","276.2","31.8","42.2","492.5","0"],
    [24022,"2013-01-31T17:00:00","8.4","ND","8.46","ND","ND","ND","3.3","275.1","31.1","42.6","303","0"],
    [24023,"2013-01-31T18:00:00","10.2","ND","14.77","ND","ND","ND","2.5","275.2","30.2","43.8","97.7","0"],
    [24024,"2013-01-31T19:00:00","5.9","ND","12.69","ND","ND","ND","2.9","269.3","29","47.4","2.4","0"],
    [24025,"2013-01-31T20:00:00","6.9","ND","12.41","ND","ND","ND","0.8","299.9","28.5","50.3","0","0"],
    [24026,"2013-01-31T21:00:00","10.2","ND","37.12","ND","ND","ND","1.5","111.9","27.9","54.8","0.1","0"],
    [24027,"2013-01-31T22:00:00","19.4","ND","37.27","ND","ND","ND","0.9","91.3","26.8","59.3","0","0"],
    [24028,"2013-01-31T23:00:00","10.8","ND","32.85","ND","ND","ND","0.6","158.9","26.4","60.8","0","0"],
    [24029,"2013-02-01T00:00:00","17.2","ND","35.61","ND","ND","ND","0.7","39.6","26.1","62.4","0","0"],
    [24030,"2013-02-01T01:00:00","10.9","ND","23.24","ND","ND","ND","0.5","144.8","25.5","65.6","0","0"],
    [24031,"2013-02-01T02:00:00","13.3","ND","23.29","ND","ND","ND","0.8","171.9","25.4","68.1","0","0"],
    [24032,"2013-02-01T03:00:00","15.4","ND","19.41","ND","ND","ND","0.8","136.4","25.1","69.9","0","0"],
    [24033,"2013-02-01T04:00:00","27.5","ND","16.92","ND","ND","ND","1","140.9","24.7","71.5","0","0"],
    [24034,"2013-02-01T05:00:00","14.3","ND","15.81","ND","ND","ND","0.5","171.6","24.4","72.9","0","0"],
    [24035,"2013-02-01T06:00:00","27.5","ND","20.33","ND","ND","ND","0.6","261.5","24.3","75.3","0","0"],
    [24036,"2013-02-01T07:00:00","15.1","ND","15.68","ND","ND","ND","1","189.1","24.2","72.3","9.1","0"],
    [24037,"2013-02-01T08:00:00","17.1","ND","29.06","ND","ND","ND","0.7","182.5","25","69.6","53.8","0"],
    [24038,"2013-02-01T09:00:00","9.7","ND","23.67","ND","ND","ND","1.6","221.8","25.7","66.5","229","0"],
    [24039,"2013-02-01T10:00:00","8.1","ND","23.51","ND","ND","ND","1","176.6","27","60.9","398.1","0"],
    [24040,"2013-02-01T11:00:00","5.2","ND","14.52","ND","ND","ND","1.2","131.5","28.5","54.5","620.6","0"],
    [24041,"2013-02-01T12:00:00","5.6","ND","12.13","ND","ND","ND","0.9","276.8","28.8","53.2","484.1","0"],
    [24042,"2013-02-01T13:00:00","2.8","ND","4.75","ND","ND","ND","1.2","0.9","30.2","48","540.4","0"],
    [24043,"2013-02-01T14:00:00","ND","ND","6.84","ND","ND","ND","1.1","302.4","30.9","45.3","396.3","0"],
    [24044,"2013-02-01T15:00:00","1.2","ND","7.28","ND","ND","ND","4.3","283.3","30.2","47.1","468.7","0"],
    [24045,"2013-02-01T16:00:00","4.2","ND","4.96","ND","ND","ND","5.1","282.7","30","46.5","577.7","0"],
    [24046,"2013-02-01T17:00:00","10.2","ND","5.89","ND","ND","ND","4.2","277.2","29.6","46.9","267.8","0"],
    [24047,"2013-02-01T18:00:00","16.9","ND","6.86","ND","ND","ND","4.3","277.9","28.5","48.6","33.2","0"],
    [24048,"2013-02-01T19:00:00","9.9","ND","11.64","ND","ND","ND","2.3","244.3","27.5","54.4","1.5","0"],
    [24049,"2013-02-01T20:00:00","10.9","ND","16.33","ND","ND","ND","0.7","56.6","27","57.7","0","0"],
    [24050,"2013-02-01T21:00:00","7.6","ND","30.79","ND","ND","ND","1.2","93","26.2","65.2","0.1","0"],
    [24051,"2013-02-01T22:00:00","28.1","ND","27.62","ND","ND","ND","0.6","61.1","25.3","68.2","0.1","0"],
    [24052,"2013-02-01T23:00:00","15.6","ND","28.92","ND","ND","ND","0.9","106.8","25.5","66","0","0"],
    [24053,"2013-02-02T00:00:00","19.1","ND","25.66","ND","ND","ND","0.6","21.5","24.4","74.5","0","1.27"],
    [24054,"2013-02-02T01:00:00","15.7","ND","19.28","ND","ND","ND","1.2","359.3","22.3","88","0","0.51"],
    [24055,"2013-02-02T02:00:00","18","ND","22.53","ND","ND","ND","0.8","129","20.7","96.1","0","39.88"],
    [24056,"2013-02-02T03:00:00","11.1","ND","15.11","ND","ND","ND","1","19.5","20.3","99.4","0","12.19"],
    [24057,"2013-02-02T04:00:00","12.1","ND","13.01","ND","ND","ND","0.5","39.1","20.2","100","0","4.06"],
    [24058,"2013-02-02T05:00:00","6.7","ND","10.80","ND","ND","ND","0.7","49.7","20.1","99.8","0","2.54"],
    [24059,"2013-02-02T06:00:00","3.9","ND","22.75","ND","ND","ND","0.4","59.3","20.4","99.3","0","0.51"],
    [24060,"2013-02-02T07:00:00","2.6","ND","29.04","ND","ND","ND","0.3","214.3","20.6","98.3","1.6","2.03"],
    [24061,"2013-02-02T08:00:00","4.4","ND","26.91","ND","ND","ND","0.6","36","20.6","96.8","29.1","2.03"],
    [24062,"2013-02-02T09:00:00","4.1","ND","27.38","ND","ND","ND","0.8","4.2","20.9","93.9","69.8","1.52"],
    [24063,"2013-02-02T10:00:00","10.1","ND","28.60","ND","ND","ND","1.2","51.3","21.4","92.7","119.7","1.02"],
    [24064,"2013-02-02T11:00:00","7.1","ND","20.40","ND","ND","ND","1","64.8","22.6","84.5","359.1","0.51"],
    [24065,"2013-02-02T12:00:00","3.5","ND","19.49","ND","ND","ND","1.1","90.6","24.9","71.6","736.4","0.76"],
    [24066,"2013-02-02T13:00:00","2.7","ND","11.81","ND","ND","ND","0.9","41.9","25.9","66.7","463.3","0.25"],
    [24067,"2013-02-02T14:00:00","2.3","ND","10.90","ND","ND","ND","1.4","40.6","26.3","68.1","400.4","0.25"],
    [24068,"2013-02-02T15:00:00","1.8","ND","15.71","ND","ND","ND","1.2","10.6","26.1","68.4","204.8","0"],
    [24069,"2013-02-02T16:00:00","2","ND","17.16","ND","ND","ND","1.8","14.4","25.4","72.7","145.9","0"],
    [24070,"2013-02-02T17:00:00","3.8","ND","28.74","ND","ND","ND","1.7","335.9","23.6","84.5","194.5","0.25"],
    [24071,"2013-02-02T18:00:00","21.1","ND","28.11","ND","ND","ND","1.3","356.6","22.9","86.5","53.7","1.02"],
    [24072,"2013-02-02T19:00:00","11.5","ND","30.40","ND","ND","ND","0.3","31.7","23","85.3","1.3","1.02"],
    [24073,"2013-02-02T20:00:00","14.6","ND","31.35","ND","ND","ND","0.7","168.8","23","84.9","0","0.76"],
    [24074,"2013-02-02T21:00:00","13.7","ND","32.41","ND","ND","ND","0.6","163.8","23.1","83.7","0","0.25"],
    [24075,"2013-02-02T22:00:00","13.4","ND","30.90","ND","ND","ND","0.3","110.6","22.9","82.4","0","0.25"],
    [24076,"2013-02-02T23:00:00","13.2","ND","34.13","ND","ND","ND","1.1","164.8","22.9","82.8","0","0.25"],
    [24077,"2013-02-03T00:00:00","14.6","ND","25.06","ND","ND","ND","1.6","173.3","22.5","85.2","0","0"],
    [24078,"2013-02-03T01:00:00","9.1","ND","21.58","ND","ND","ND","0.8","127","22.4","85","0","0.25"],
    [24079,"2013-02-03T02:00:00","4.6","ND","20.84","ND","ND","ND","0.4","310.6","22.2","86.9","0","0"],
    [24080,"2013-02-03T03:00:00","4.2","ND","25.41","ND","ND","ND","0.1","166.1","22.2","87.6","0","0"],
    [24081,"2013-02-03T04:00:00","5.6","ND","22.90","ND","ND","ND","0.1","342.9","22.1","87.8","0.1","0.25"],
    [24082,"2013-02-03T05:00:00","5.1","ND","20.98","ND","ND","ND","0.5","29.1","21.6","91.7","0.1","0"],
    [24083,"2013-02-03T06:00:00","17.9","ND","16.49","ND","ND","ND","0.1","251.6","21.2","93.4","0.1","0"],
    [24084,"2013-02-03T07:00:00","10.7","ND","14.39","ND","ND","ND","0.1","310.4","21.1","92","8.6","0.25"],
    [24085,"2013-02-03T08:00:00","22.3","ND","18.10","ND","ND","ND","0.6","54.3","22","87","88.9","0"],
    [24086,"2013-02-03T09:00:00","11.7","ND","18.65","ND","ND","ND","0.9","94.8","23.2","84","326.9","0"],
    [24087,"2013-02-03T10:00:00","10.6","ND","17.48","ND","ND","ND","0.6","108.9","25.3","71.5","630.5","0"],
    [24088,"2013-02-03T11:00:00","6.6","ND","12.82","ND","ND","ND","1.3","117.7","27","61.8","798.2","0"],
    [24089,"2013-02-03T12:00:00","4.3","ND","9.14","ND","ND","ND","0.9","91.8","27.5","59.1","417.3","0"],
    [24090,"2013-02-03T13:00:00","4.3","ND","8.67","ND","ND","ND","0.3","9.7","28.4","56.3","585.3","0"],
    [24091,"2013-02-03T14:00:00","4.2","ND","8.16","ND","ND","ND","0.7","354.4","29.9","52.1","854","0"],
    [24092,"2013-02-03T15:00:00","3.5","ND","5.92","ND","ND","ND","0.9","48.1","29.4","51.9","165.5","0"],
    [24093,"2013-02-03T16:00:00","3.7","ND","5.05","ND","ND","ND","0.3","256.5","29.6","50.3","198.4","0"],
    [24094,"2013-02-03T17:00:00","3.1","ND","4.50","ND","ND","ND","2.3","300.3","28.8","51.6","163.9","0"],
    [24095,"2013-02-03T18:00:00","3.4","ND","11.62","ND","ND","ND","0.6","271.3","28","53.2","18.6","0"],
    [24096,"2013-02-03T19:00:00","3.6","ND","23.55","ND","ND","ND","0.6","74.6","27.3","54.2","0.5","0"],
    [24097,"2013-02-03T20:00:00","11.2","ND","30.81","ND","ND","ND","0.7","80.1","26.6","59.2","0","0"],
    [24098,"2013-02-03T21:00:00","7.7","ND","26.89","ND","ND","ND","2.9","173.9","24.3","72","0","0"],
    [24099,"2013-02-03T22:00:00","4.8","ND","35.04","ND","ND","ND","1.3","158.3","23.5","77.3","0","0"],
    [24100,"2013-02-03T23:00:00","3.7","ND","36.16","ND","ND","ND","0.3","35.4","23.3","79.1","0.1","0"],
    [24101,"2013-02-04T00:00:00","2.8","ND","32.20","ND","ND","ND","0.8","359.6","22.9","82.9","0","0"],
    [24102,"2013-02-04T01:00:00","2.8","ND","31.87","ND","ND","ND","0.5","27.9","22.4","85.4","0","0"],
    [24103,"2013-02-04T02:00:00","4.3","ND","25.92","ND","ND","ND","0.5","72","22.5","85.3","0","0"],
    [24104,"2013-02-04T03:00:00","12.6","ND","18.14","ND","ND","ND","0.3","126.8","22.3","88","0.1","0"],
    [24105,"2013-02-04T04:00:00","13.7","ND","13.08","ND","ND","ND","0.6","155.2","21.9","90.2","0.1","0.25"],
    [24106,"2013-02-04T05:00:00","9","ND","15.52","ND","ND","ND","0.5","156.9","21.7","93.3","0.1","0.25"],
    [24107,"2013-02-04T06:00:00","22.4","ND","20.65","ND","ND","ND","1.2","158.5","21.6","93.6","0.1","0.25"],
    [24108,"2013-02-04T07:00:00","12.1","ND","27.45","ND","ND","ND","1","162.3","21.6","93.5","4.3","0"],
    [24109,"2013-02-04T08:00:00","18.7","ND","32.83","ND","ND","ND","0.9","160.4","22","90.4","37.4","0"],
    [24110,"2013-02-04T09:00:00","10.9","ND","34.31","ND","ND","ND","0.4","189.8","22.5","87.6","104.7","0.25"],
    [24111,"2013-02-04T10:00:00","11.4","ND","28.29","ND","ND","ND","0.8","167.2","23.6","80.9","221.9","0"],
    [24112,"2013-02-04T11:00:00","13.8","ND","31.98","ND","ND","ND","1.1","259.9","24.6","76.8","252","0"],
    [24113,"2013-02-04T12:00:00","13.6","ND","32.76","ND","ND","ND","0.9","168.3","26.3","66.7","653.9","0"],
    [24114,"2013-02-04T13:00:00","7.6","ND","21.77","ND","ND","ND","0.4","326.5","27.5","59.8","267.2","0"],
    [24115,"2013-02-04T14:00:00","8.9","ND","19.57","ND","ND","ND","0.9","234.7","27.4","59","239.9","0"],
    [24116,"2013-02-04T15:00:00","6","ND","10.41","ND","ND","ND","0.7","247.9","28.1","53.3","245.6","0"],
    [24117,"2013-02-04T16:00:00","4.9","ND","8.05","ND","ND","ND","2.2","270.2","28.2","51.8","292.8","0"],
    [24118,"2013-02-04T17:00:00","3.3","ND","11.66","ND","ND","ND","1.4","316.8","27.9","52.5","183.7","0"],
    [24119,"2013-02-04T18:00:00","2.5","ND","18.82","ND","ND","ND","1.3","101.4","26.8","59.7","48.5","0"],
    [24120,"2013-02-04T19:00:00","3.7","ND","22.77","ND","ND","ND","1.5","68.6","24.7","75.3","1.7","0"],
    [24121,"2013-02-04T20:00:00","24.2","ND","18.46","ND","ND","ND","1.1","46.7","23.2","82.3","0","0"],
    [24122,"2013-02-04T21:00:00","22.4","ND","22.08","ND","ND","ND","0.8","125.3","22.5","87.1","0","0"],
    [24123,"2013-02-04T22:00:00","18.7","ND","26.02","ND","ND","ND","1.8","154.5","22.1","89.9","0.1","0.25"],
    [24124,"2013-02-04T23:00:00","28.3","ND","26.08","ND","ND","ND","1.4","158.2","21.7","90.5","0.1","0"],
    [24125,"2013-02-05T00:00:00","15.6","ND","29.64","ND","ND","ND","0.3","218","21.8","91","0.1","0.25"],
    [24126,"2013-02-05T01:00:00","8.6","ND","15.87","ND","ND","ND","0.4","279.7","21.8","89.5","0.1","0"],
    [24127,"2013-02-05T02:00:00","6.2","ND","22.40","ND","ND","ND","0.5","67.1","21.4","91.6","0.1","0"],
    [24128,"2013-02-05T03:00:00","4.2","ND","21.44","ND","ND","ND","0.5","123.9","21.2","92.9","0","0"],
    [24129,"2013-02-05T04:00:00","13.3","ND","20.82","ND","ND","ND","0.4","347.9","21.1","93.5","0","0.25"],
    [24130,"2013-02-05T05:00:00","37.8","ND","24.37","ND","ND","ND","0.8","50.1","21.1","93.8","0.1","0"],
    [24131,"2013-02-05T06:00:00","20.7","ND","13.58","ND","ND","ND","1.7","336.8","19.8","96.4","0","0"],
    [24132,"2013-02-05T07:00:00","11.7","ND","25.21","ND","ND","ND","0.2","157.5","19.7","93.2","7.4","0"],
    [24133,"2013-02-05T08:00:00","8.2","ND","34.90","ND","ND","ND","0.3","209.9","20.7","90.1","62.1","0"],
    [24134,"2013-02-05T09:00:00","5.2","ND","43.37","ND","ND","ND","0.4","175.2","22.3","83","236.7","0"],
    [24135,"2013-02-05T10:00:00","27","ND","34.68","ND","ND","ND","0.9","51.1","23.4","77.3","280.6","0"],
    [24136,"2013-02-05T11:00:00","21.3","ND","17.39","ND","ND","ND","1.1","32.6","23.2","80.1","159","0.25"],
    [24137,"2013-02-05T12:00:00","17.9","ND","24.38","ND","ND","ND","0.7","205.8","23.9","77.3","236.9","0"],
    [24138,"2013-02-05T13:00:00","10.8","ND","34.82","ND","ND","ND","1.7","175.2","23.7","77.1","240.9","0"],
    [24139,"2013-02-05T14:00:00","6.6","ND","26.02","ND","ND","ND","1.3","2","21.5","89.8","86.7","0"],
    [24140,"2013-02-05T15:00:00","4.3","ND","21.79","ND","ND","ND","1.2","29","21.2","95","206.2","0.25"],
    [24141,"2013-02-05T16:00:00","3.3","ND","20.50","ND","ND","ND","1.1","1.8","22.7","85.8","222.7","0"],
    [24142,"2013-02-05T17:00:00","3.7","ND","26.21","ND","ND","ND","0.6","9.1","23.9","77","158.7","0"],
    [24143,"2013-02-05T18:00:00","12.8","ND","39.15","ND","ND","ND","0.4","298","24.2","76.8","59.8","0"],
    [24144,"2013-02-05T19:00:00","8.3","ND","46.00","ND","ND","ND","0.7","356.4","23.6","79.5","1.5","0"],
    [24145,"2013-02-05T20:00:00","28","ND","49.03","ND","ND","ND","0.3","215.9","23.2","84.5","0","0"],
    [24146,"2013-02-05T21:00:00","32.7","ND","40.34","ND","ND","ND","0.1","80.9","22.9","86.5","0","0"],
    [24147,"2013-02-05T22:00:00","20.2","ND","27.85","ND","ND","ND","0.2","74.6","22.3","86.7","0","0"],
    [24148,"2013-02-05T23:00:00","11.3","ND","27.01","ND","ND","ND","0","0","22.1","90.3","0","0.25"],
    [24149,"2013-02-06T00:00:00","32.2","ND","24.68","ND","ND","ND","0.1","240.1","21.9","91.2","0","0"],
    [24150,"2013-02-06T01:00:00","16.8","ND","21.58","ND","ND","ND","0.2","355.6","21.8","89.9","0","0"],
    [24151,"2013-02-06T02:00:00","21.8","ND","24.91","ND","ND","ND","0.1","341.8","21.8","89.2","0","0"],
    [24152,"2013-02-06T03:00:00","11.9","ND","17.97","ND","ND","ND","0","0","21.6","90.6","0","0"],
    [24153,"2013-02-06T04:00:00","10.5","ND","15.67","ND","ND","ND","0","0","21.4","91.8","0","0"],
    [24154,"2013-02-06T05:00:00","6.3","ND","15.31","ND","ND","ND","0.1","178","21.4","91.3","0","0"],
    [24155,"2013-02-06T06:00:00","15.9","ND","18.34","ND","ND","ND","0.1","280.5","21.3","91.5","0","0"],
    [24156,"2013-02-06T07:00:00","9","ND","20.33","ND","ND","ND","0","316.3","21","91.8","7.4","0"],
    [24157,"2013-02-06T08:00:00","27.7","ND","26.66","ND","ND","ND","0.7","349.2","21.4","89","71.7","0"],
    [24158,"2013-02-06T09:00:00","35","ND","42.21","ND","ND","ND","0.5","58.8","22.4","86.8","198.8","0"],
    [24159,"2013-02-06T10:00:00","62","ND","51.95","ND","ND","ND","0.7","102.3","24.3","75.7","438","0"],
    [24160,"2013-02-06T11:00:00","31.8","ND","33.29","ND","ND","ND","0.6","66.9","25.1","72.1","362.8","0"],
    [24161,"2013-02-06T12:00:00","30.7","ND","25.55","ND","ND","ND","0.3","107.5","26.4","65.7","504.2","0"],
    [24162,"2013-02-06T13:00:00","16","ND","20.27","ND","ND","ND","1.1","276.6","26.7","62.6","327.9","0"],
    [24163,"2013-02-06T14:00:00","31.2","ND","18.43","ND","ND","ND","1.6","341.1","27.7","58.6","555.2","0"],
    [24164,"2013-02-06T15:00:00","17.2","ND","9.62","ND","ND","ND","1.8","8","27.9","55.4","352.5","0"],
    [24165,"2013-02-06T16:00:00","10","ND","9.91","ND","ND","ND","0.5","265.6","28","55.2","249.3","0"],
    [24166,"2013-02-06T17:00:00","6.1","ND","13.45","ND","ND","ND","0.9","325.4","27.9","55.1","210.2","0"],
    [24167,"2013-02-06T18:00:00","4.4","ND","17.51","ND","ND","ND","0.4","291.2","27.4","55.9","53.5","0"],
    [24168,"2013-02-06T19:00:00","5.5","ND","23.11","ND","ND","ND","1.1","247.9","26","60.1","1.7","0"],
    [24169,"2013-02-06T20:00:00","22.9","ND","30.55","ND","ND","ND","0.5","140","25.6","61.9","0","0"],
    [24170,"2013-02-06T21:00:00","27.7","ND","30.27","ND","ND","ND","0.6","90.2","24.8","65.8","0","0"],
    [24171,"2013-02-06T22:00:00","17.1","ND","22.93","ND","ND","ND","0.6","220.7","23.7","72.7","0","0"],
    [24172,"2013-02-06T23:00:00","23.8","ND","19.47","ND","ND","ND","0.5","148.7","23.2","76.1","0","0.25"],
    [24173,"2013-02-07T00:00:00","21.9","ND","17.45","ND","ND","ND","0.1","143.6","22.9","77.9","0","0"],
    [24174,"2013-02-07T01:00:00","12.8","ND","17.21","ND","ND","ND","0","206.2","22.9","77.8","0","0"],
    [24175,"2013-02-07T02:00:00","35.1","ND","16.56","ND","ND","ND","0.3","345.9","22.7","79.8","0","0"],
    [24176,"2013-02-07T03:00:00","44.5","ND","16.22","ND","ND","ND","0","242.9","22.4","81.3","0","0"],
    [24177,"2013-02-07T04:00:00","23.1","ND","15.14","ND","ND","ND","0.1","241","22.4","81.7","0","0"],
    [24178,"2013-02-07T05:00:00","29","ND","16.52","ND","ND","ND","0.3","31.8","22.3","82.5","0","0"],
    [24179,"2013-02-07T06:00:00","40.3","ND","15.28","ND","ND","ND","0.2","358.4","21.8","86.1","0","0"],
    [24180,"2013-02-07T07:00:00","30.1","ND","17.58","ND","ND","ND","0.3","350.1","22","85.5","6.1","0"],
    [24181,"2013-02-07T08:00:00","50.6","ND","24.76","ND","ND","ND","0.3","78.6","22.7","81.3","75.3","0"],
    [24182,"2013-02-07T09:00:00","53.1","ND","37.51","ND","ND","ND","0.1","0.6","23.6","77.1","139.2","0"],
    [24183,"2013-02-07T10:00:00","70.1","ND","41.62","ND","ND","ND","1.1","69.9","25.1","71.1","468.5","0"],
    [24184,"2013-02-07T11:00:00","36","ND","24.01","ND","ND","ND","0.7","53.9","26.8","61.8","686","0"],
    [24185,"2013-02-07T12:00:00","24.4","ND","19.88","ND","ND","ND","0.4","3.5","27.2","59.4","286.3","0"],
    [24186,"2013-02-07T13:00:00","14.3","ND","9.50","ND","ND","ND","1","24.8","28.8","52.2","720","0"],
    [24187,"2013-02-07T14:00:00","8.7","ND","8.68","ND","ND","ND","0.7","197.8","29.6","48.2","429","0"],
    [24188,"2013-02-07T15:00:00","6.5","ND","8.61","ND","ND","ND","0.7","309.9","30.4","45.7","576.4","0"],
    [24189,"2013-02-07T16:00:00","4.5","ND","6.73","ND","ND","ND","3.9","279.7","29.5","47.8","433","0"],
    [24190,"2013-02-07T17:00:00","4.3","ND","6.43","ND","ND","ND","4.1","281.3","29","47.8","322.5","0"],
    [24191,"2013-02-07T18:00:00","2.2","ND","12.65","ND","ND","ND","1.7","277.4","28.5","48.9","103.7","0"],
    [24192,"2013-02-07T19:00:00","1.7","ND","20.18","ND","ND","ND","0.1","35.2","27.4","51.4","2.5","0"],
    [24193,"2013-02-07T20:00:00","14.6","ND","30.08","ND","ND","ND","1.2","98","26.9","55.4","0","0"],
    [24194,"2013-02-07T21:00:00","11.8","ND","29.79","ND","ND","ND","1.3","123.1","26.3","58.2","0","0"],
    [24195,"2013-02-07T22:00:00","20.4","ND","21.69","ND","ND","ND","0.8","222.6","25.2","62.4","0","0"],
    [24196,"2013-02-07T23:00:00","31.7","ND","22.30","ND","ND","ND","0.3","260.3","24.8","64.8","0","0"],
    [24197,"2013-02-08T00:00:00","16.7","ND","21.49","ND","ND","ND","0.3","7.9","24.5","67.6","0","0"],
    [24198,"2013-02-08T01:00:00","9.8","ND","18.11","ND","ND","ND","0.4","114.5","23.9","72.1","0","0"],
    [24199,"2013-02-08T02:00:00","5.9","ND","16.00","ND","ND","ND","0.5","139.4","23.4","75.8","0","0"],
    [24200,"2013-02-08T03:00:00","3.6","ND","15.86","ND","ND","ND","0.2","341","22.9","77.3","0","0"],
    [24201,"2013-02-08T04:00:00","13.4","ND","12.31","ND","ND","ND","0.1","89.2","22.9","77.3","0","0"],
    [24202,"2013-02-08T05:00:00","9","ND","15.15","ND","ND","ND","0.3","321","22.6","79.4","0","0"],
    [24203,"2013-02-08T06:00:00","14.6","ND","16.55","ND","ND","ND","0.2","25.6","22.6","79.7","0","0"],
    [24204,"2013-02-08T07:00:00","12.4","ND","15.30","ND","ND","ND","0.5","36.3","22.3","81.8","3.5","0"],
    [24205,"2013-02-08T08:00:00","41.9","ND","17.31","ND","ND","ND","0.5","49.1","22.4","80.1","31.2","0"],
    [24206,"2013-02-08T09:00:00","50.1","ND","26.80","ND","ND","ND","0.3","93.1","23.1","77.8","94.2","0"],
    [24207,"2013-02-08T10:00:00","26.6","ND","22.35","ND","ND","ND","1.1","114.2","23.4","77.1","135.5","0"],
    [24208,"2013-02-08T11:00:00","15.3","ND","26.54","ND","ND","ND","1.2","160","23.4","77.7","225.2","0"],
    [24209,"2013-02-08T12:00:00","23.7","ND","52.38","ND","ND","ND","1","145","24.5","74.4","317.6","0"],
    [24210,"2013-02-08T13:00:00","19.3","ND","51.23","ND","ND","ND","0.7","113","26.2","66.5","434.6","0"],
    [24211,"2013-02-08T14:00:00","17.8","ND","33.51","ND","ND","ND","0.8","256.7","27.7","58.2","550.6","0"],
    [24212,"2013-02-08T15:00:00","9.6","ND","10.15","ND","ND","ND","1.7","313.5","28.8","50.3","541.3","0"],
    [24213,"2013-02-08T16:00:00","5.6","ND","9.25","ND","ND","ND","1.6","352.3","28.3","52","443.8","0"],
    [24214,"2013-02-08T17:00:00","15.3","ND","14.48","ND","ND","ND","0.3","19.1","26.9","57.2","71.6","0"],
    [24215,"2013-02-08T18:00:00","28.9","ND","13.70","ND","ND","ND","0.8","335.3","26.3","57.7","23","0"],
    [24216,"2013-02-08T19:00:00","16.2","ND","16.81","ND","ND","ND","1.3","202.1","26.2","58.3","0.2","0"],
    [24217,"2013-02-08T20:00:00","10","ND","26.29","ND","ND","ND","2.7","172.6","24.5","72.7","0","0"],
    [24218,"2013-02-08T21:00:00","5.6","ND","28.31","ND","ND","ND","2","180.1","24.2","74","0","0"],
    [24219,"2013-02-08T22:00:00","20.1","ND","26.66","ND","ND","ND","1.2","208.3","23.9","74.7","0","0"],
    [24220,"2013-02-08T23:00:00","11.9","ND","27.95","ND","ND","ND","0.9","157.1","24","74","0","0"],
    [24221,"2013-02-09T00:00:00","14.5","ND","27.06","ND","ND","ND","0.5","79","23.1","81.7","0.1","0"],
    [24222,"2013-02-09T01:00:00","8.5","ND","18.74","ND","ND","ND","1.1","32.8","22","89.5","0.1","0"],
    [24223,"2013-02-09T02:00:00","7.6","ND","14.43","ND","ND","ND","1.1","41","20.8","96.3","0.1","1.52"],
    [24224,"2013-02-09T03:00:00","6","ND","14.44","ND","ND","ND","0.1","157.6","20.6","97.8","0.1","0"],
    [24225,"2013-02-09T04:00:00","3.8","ND","16.87","ND","ND","ND","1.2","162","20.7","96.9","0.1","0"],
    [24226,"2013-02-09T05:00:00","2.8","ND","12.72","ND","ND","ND","0.8","173.9","20.7","94.9","0.1","0"],
    [24227,"2013-02-09T06:00:00","2.1","ND","14.16","ND","ND","ND","0.8","104.7","20.7","94.9","0","0.76"],
    [24228,"2013-02-09T07:00:00","3.1","ND","21.08","ND","ND","ND","0.6","181.9","20.6","95.8","3.6","0.25"],
    [24229,"2013-02-09T08:00:00","2.5","ND","24.28","ND","ND","ND","0.7","115.8","20.9","94.7","16.3","0"],
    [24230,"2013-02-09T09:00:00","2","ND","23.23","ND","ND","ND","1.5","156.4","21.3","92.2","45.4","0"],
    [24231,"2013-02-09T10:00:00","2.7","ND","25.32","ND","ND","ND","1.9","160.7","22.2","85.5","203.6","0"],
    [24232,"2013-02-09T11:00:00","2.1","ND","22.88","ND","ND","ND","1.9","159","23.3","79.3","227.1","0"],
    [24233,"2013-02-09T12:00:00","3.1","ND","15.00","ND","ND","ND","1","152.9","23.7","78.2","246.5","0"],
    [24234,"2013-02-09T13:00:00","3.9","ND","20.07","ND","ND","ND","2.1","252.8","24.3","75.6","339.2","0"],
    [24235,"2013-02-09T14:00:00","3.3","ND","12.06","ND","ND","ND","2","204.7","25.5","66.9","532.9","0"],
    [24236,"2013-02-09T15:00:00","1.7","ND","9.78","ND","ND","ND","1.2","249.6","25.6","65.8","214.5","0"],
    [24237,"2013-02-09T16:00:00","0.8","ND","12.54","ND","ND","ND","0.5","312.9","25.3","68.6","198.7","0"],
    [24238,"2013-02-09T17:00:00","1.1","ND","25.23","ND","ND","ND","1","27.6","25.4","68.9","103.8","0"],
    [24239,"2013-02-09T18:00:00","14.3","ND","23.77","ND","ND","ND","1.9","32.8","23.1","84.8","15.5","0"],
    [24240,"2013-02-09T19:00:00","13.3","ND","28.35","ND","ND","ND","0.9","2","21.9","90.2","0.7","0"],
    [24241,"2013-02-09T20:00:00","26","ND","45.66","ND","ND","ND","0.7","252.7","22.1","88.6","0","0"],
    [24242,"2013-02-09T21:00:00","15.9","ND","47.53","ND","ND","ND","1.4","194.4","22.6","84.4","0","0"],
    [24243,"2013-02-09T22:00:00","25.3","ND","27.48","ND","ND","ND","0.9","219.8","22.6","80.4","0","0"],
    [24244,"2013-02-09T23:00:00","14.2","ND","34.29","ND","ND","ND","0.3","68.7","22.5","81.7","0","0"],
    [24245,"2013-02-10T00:00:00","23.8","ND","30.25","ND","ND","ND","0.3","43.5","21.4","87.1","0","0"],
    [24246,"2013-02-10T01:00:00","13","ND","27.50","ND","ND","ND","0.3","48.8","21","88.9","0","0"],
    [24247,"2013-02-10T02:00:00","15.3","ND","24.85","ND","ND","ND","0.4","1.8","20.8","88.8","0","0"],
    [24248,"2013-02-10T03:00:00","8.6","ND","24.18","ND","ND","ND","0.5","176.5","20.8","88.1","0","0"],
    [24249,"2013-02-10T04:00:00","8.4","ND","21.10","ND","ND","ND","0.3","202.2","20.9","89.8","0","0"],
    [24250,"2013-02-10T05:00:00","4.9","ND","23.45","ND","ND","ND","0.3","12.8","21","89.1","0","0"],
    [24251,"2013-02-10T06:00:00","15","ND","21.71","ND","ND","ND","0.5","51.8","20.6","91.2","0","0"],
    [24252,"2013-02-10T07:00:00","26","ND","20.21","ND","ND","ND","0.4","30.6","20.3","92.1","7.4","0"],
    [24253,"2013-02-10T08:00:00","22.9","ND","23.79","ND","ND","ND","0.2","171.8","20.8","90.4","63.8","0"],
    [24254,"2013-02-10T09:00:00","12.5","ND","32.41","ND","ND","ND","0.3","40.4","21.9","85.9","161.3","0"],
    [24255,"2013-02-10T10:00:00","40.7","ND","28.68","ND","ND","ND","1","61.6","23.4","77.2","532.5","0"],
    [24256,"2013-02-10T11:00:00","20.3","ND","13.32","ND","ND","ND","1","40.9","25.2","68.6","762.7","0"],
    [24257,"2013-02-10T12:00:00","10.2","ND","3.96","ND","ND","ND","0.6","79.7","26.8","60.2","767.6","0"],
    [24258,"2013-02-10T13:00:00","5.1","ND","6.93","ND","ND","ND","1","137.7","28.1","54.1","569.2","0"],
    [24259,"2013-02-10T14:00:00","2.5","ND","9.21","ND","ND","ND","2.9","295.8","25.7","62.4","68.3","0"],
    [24260,"2013-02-10T15:00:00","3.1","ND","19.69","ND","ND","ND","2","241.8","22.6","84.9","146","0"],
    [24261,"2013-02-10T16:00:00","2.3","ND","15.09","ND","ND","ND","0.4","239","26.1","69","311.3","0"],
    [24262,"2013-02-10T17:00:00","2.4","ND","9.45","ND","ND","ND","0.5","268.5","26.5","61.2","156.6","0"],
    [24263,"2013-02-10T18:00:00","2.8","ND","15.23","ND","ND","ND","0.4","210.4","26","61.2","27.8","0"],
    [24264,"2013-02-10T19:00:00","3.8","ND","30.97","ND","ND","ND","1.2","152.2","24.9","65.5","0.6","0"],
    [24265,"2013-02-10T20:00:00","3.7","ND","30.00","ND","ND","ND","1","180.9","24","71.4","0","0"],
    [24266,"2013-02-10T21:00:00","9.4","ND","28.97","ND","ND","ND","2.7","184.1","23.1","76.2","0","0"],
    [24267,"2013-02-10T22:00:00","15.1","ND","28.56","ND","ND","ND","1.2","223.5","22.7","77.1","0","0"],
    [24268,"2013-02-10T23:00:00","9","ND","26.20","ND","ND","ND","0.4","273.9","22.1","79.9","0","0"],
    [24269,"2013-02-11T00:00:00","28.7","ND","17.27","ND","ND","ND","0.3","44.1","21.4","82.7","0","0"],
    [24270,"2013-02-11T01:00:00","15.3","ND","23.10","ND","ND","ND","0.3","33.9","21","84.8","0","0"],
    [24271,"2013-02-11T02:00:00","9.6","ND","13.82","ND","ND","ND","0.2","312.8","20.5","86.4","0","0"],
    [24272,"2013-02-11T03:00:00","17.1","ND","17.48","ND","ND","ND","0.1","83.2","20.6","86.5","0","0"],
    [24273,"2013-02-11T04:00:00","35.4","ND","17.05","ND","ND","ND","0","0","20.6","86.6","0","0"],
    [24274,"2013-02-11T05:00:00","19.3","ND","16.37","ND","ND","ND","0.1","264.1","20.4","88.7","0","0"],
    [24275,"2013-02-11T06:00:00","23.3","ND","17.02","ND","ND","ND","0.1","254","20.1","89.9","0","0"],
    [24276,"2013-02-11T07:00:00","35.8","ND","24.25","ND","ND","ND","0.2","282.5","19.9","89.3","8","0"],
    [24277,"2013-02-11T08:00:00","57.7","ND","33.98","ND","ND","ND","0","66","20.8","85.2","69.8","0"],
    [24278,"2013-02-11T09:00:00","81","ND","63.56","ND","ND","ND","0.3","116.3","21.9","81.7","82.9","0"],
    [24279,"2013-02-11T10:00:00","88.2","ND","72.30","ND","ND","ND","0.7","126.5","23.8","73","478.8","0"],
    [24280,"2013-02-11T11:00:00","44.6","ND","26.23","ND","ND","ND","1.1","116.1","25.6","63.4","680.4","0"],
    [24281,"2013-02-11T12:00:00","27.7","ND","14.55","ND","ND","ND","0.3","203","26.7","58.9","544.8","0"],
    [24282,"2013-02-11T13:00:00","15.2","ND","20.48","ND","ND","ND","0.7","334.1","27.8","54.8","795.3","0"],
    [24283,"2013-02-11T14:00:00","29.3","ND","21.96","ND","ND","ND","0.8","310","28.9","50.7","649.4","0"],
    [24284,"2013-02-11T15:00:00","22","ND","16.56","ND","ND","ND","0.9","303","28.8","51.2","290.7","0"],
    [24285,"2013-02-11T16:00:00","45.2","ND","24.54","ND","ND","ND","0.6","204.6","25","73.4","67.4","0"],
    [24286,"2013-02-11T17:00:00","24.7","ND","35.05","ND","ND","ND","0.3","113.5","25.5","71.9","121.8","0"],
    [24287,"2013-02-11T18:00:00","21.6","ND","28.55","ND","ND","ND","0.2","249.3","26.4","60.4","56.5","0"],
    [24288,"2013-02-11T19:00:00","11.3","ND","32.62","ND","ND","ND","0.5","287.1","25.7","59.3","4.5","0"],
    [24289,"2013-02-11T20:00:00","13.7","ND","36.09","ND","ND","ND","0.5","192.8","24.7","64.5","0","0"],
    [24290,"2013-02-11T21:00:00","23.9","ND","35.53","ND","ND","ND","0.1","186.1","23.8","71.1","0","0"],
    [24291,"2013-02-11T22:00:00","47.8","ND","31.07","ND","ND","ND","0.2","279.1","22.6","75.7","0","0"],
    [24292,"2013-02-11T23:00:00","37.3","ND","28.45","ND","ND","ND","0.1","262.5","22.6","74.3","0","0"],
    [24293,"2013-02-12T00:00:00","43.8","ND","27.61","ND","ND","ND","0.3","281.5","22.4","76","0","0"],
    [24294,"2013-02-12T01:00:00","26.9","ND","24.71","ND","ND","ND","0.2","250.2","22.3","77.5","0","0"],
    [24295,"2013-02-12T02:00:00","38.2","ND","24.08","ND","ND","ND","0.4","2.2","21.9","78.7","0","0"],
    [24296,"2013-02-12T03:00:00","30.4","ND","28.05","ND","ND","ND","0.4","343.9","21.7","81.6","0","0"],
    [24297,"2013-02-12T04:00:00","35.6","ND","24.94","ND","ND","ND","0.1","257","21.7","81.5","0","0"],
    [24298,"2013-02-12T05:00:00","31.4","ND","23.78","ND","ND","ND","0.3","335.9","21.4","82.8","0","0"],
    [24299,"2013-02-12T06:00:00","59.7","ND","24.44","ND","ND","ND","0.2","241.4","21.1","84.1","0","0"],
    [24300,"2013-02-12T07:00:00","46.9","ND","27.44","ND","ND","ND","0.2","275.7","21.1","85","11.8","0"],
    [24301,"2013-02-12T08:00:00","86.1","ND","31.53","ND","ND","ND","0.5","148","21.8","85.9","52.5","0"],
    [24302,"2013-02-12T09:00:00","58.1","ND","34.78","ND","ND","ND","1.1","148.6","22.4","81.3","100.8","0"],
    [24303,"2013-02-12T10:00:00","45.4","ND","21.30","ND","ND","ND","1.9","149","22.6","80.7","181.9","0"],
    [24304,"2013-02-12T11:00:00","22.7","ND","16.93","ND","ND","ND","1.8","150.8","23.9","73.9","455","0"],
    [24305,"2013-02-12T12:00:00","11.4","ND","24.75","ND","ND","ND","0.6","344.9","24.4","72.3","272.8","0"],
    [24306,"2013-02-12T13:00:00","6.9","ND","24.27","ND","ND","ND","1.2","26.6","22.1","84.8","106.4","6.1"],
    [24307,"2013-02-12T14:00:00","17.6","ND","31.89","ND","ND","ND","0.4","11.2","22.1","85.7","133.1","0.51"],
    [24308,"2013-02-12T15:00:00","11.1","ND","34.75","ND","ND","ND","0.6","112","23.2","81.4","236","0.51"],
    [24309,"2013-02-12T16:00:00","6.4","ND","44.43","ND","ND","ND","1.8","136.9","23.6","76.5","137.8","0"],
    [24310,"2013-02-12T17:00:00","4.7","ND","56.05","ND","ND","ND","1.3","109.9","23.6","77.7","61.7","0"],
    [24311,"2013-02-12T18:00:00","7.5","ND","57.79","ND","ND","ND","1.6","143.1","23.6","75","19","0"],
    [24312,"2013-02-12T19:00:00","4.6","ND","45.62","ND","ND","ND","1.5","143.7","22.8","80.8","1.1","0"],
    [24313,"2013-02-12T20:00:00","21.1","ND","39.13","ND","ND","ND","1.3","124.4","22.5","82.9","0","0"],
    [24314,"2013-02-12T21:00:00","14.3","ND","33.99","ND","ND","ND","1.1","179.2","22","85.7","0","0"],
    [24315,"2013-02-12T22:00:00","17.8","ND","41.82","ND","ND","ND","0.9","187.5","22.1","83","0","0"],
    [24316,"2013-02-12T23:00:00","10.8","ND","43.43","ND","ND","ND","0.4","186.4","21.9","84.4","0","0"],
    [24317,"2013-02-13T00:00:00","16.4","ND","32.52","ND","ND","ND","0.1","302.9","21.5","86.3","0","0"],
    [24318,"2013-02-13T01:00:00","11.6","ND","26.00","ND","ND","ND","0.3","7.4","21.3","84.8","0","0"],
    [24319,"2013-02-13T02:00:00","54.1","ND","24.12","ND","ND","ND","0.5","14.3","20.8","88.5","0","0"],
    [24320,"2013-02-13T03:00:00","47.6","ND","21.27","ND","ND","ND","0.3","54","20.6","87.8","0","0"],
    [24321,"2013-02-13T04:00:00","74.2","ND","18.92","ND","ND","ND","0","37.7","20.2","91.8","0","0.25"],
    [24322,"2013-02-13T05:00:00","42.7","ND","14.13","ND","ND","ND","0.1","252.7","19.6","92.7","0","0"],
    [24323,"2013-02-13T06:00:00","33.3","ND","16.60","ND","ND","ND","0.2","237.1","19.4","92.2","0","0"],
    [24324,"2013-02-13T07:00:00","33.7","ND","24.22","ND","ND","ND","0.6","8.7","19.5","90.9","6.4","0"],
    [24325,"2013-02-13T08:00:00","59.8","ND","25.96","ND","ND","ND","0.1","352.7","20.4","91.1","48","0"],
    [24326,"2013-02-13T09:00:00","30.5","ND","35.76","ND","ND","ND","0.2","169.5","21.8","83.3","256.8","0"],
    [24327,"2013-02-13T10:00:00","37.7","ND","34.70","ND","ND","ND","1","138.5","23.3","75.9","263.7","0"],
    [24328,"2013-02-13T11:00:00","20.3","ND","20.67","ND","ND","ND","1.2","143.7","24.6","68.5","438.3","0"],
    [24329,"2013-02-13T12:00:00","11.2","ND","15.08","ND","ND","ND","1.4","127.1","26.3","60.9","722.9","0"],
    [24330,"2013-02-13T13:00:00","7.8","ND","15.86","ND","ND","ND","1.4","161.9","27.5","56.4","888.2","0"],
    [24331,"2013-02-13T14:00:00","7","ND","15.05","ND","ND","ND","0.7","106.3","28.4","53.2","642.6","0"],
    [24332,"2013-02-13T15:00:00","5.4","ND","13.73","ND","ND","ND","1.7","282.8","29.2","49.3","638.1","0"],
    [24333,"2013-02-13T16:00:00","4.5","ND","7.37","ND","ND","ND","3.4","276","29.3","45.7","536.6","0"],
    [24334,"2013-02-13T17:00:00","3.7","ND","10.54","ND","ND","ND","3","274.8","28.5","47.7","268.3","0"],
    [24335,"2013-02-13T18:00:00","8.1","ND","17.01","ND","ND","ND","2","273.6","27.7","48","79.1","0"],
    [24336,"2013-02-13T19:00:00","5.2","ND","16.57","ND","ND","ND","1.7","267.1","26.7","50.4","2.6","0"],
    [24337,"2013-02-13T20:00:00","18.5","ND","33.36","ND","ND","ND","0.5","89.3","25.9","55","0","0"],
    [24338,"2013-02-13T21:00:00","24.5","ND","36.67","ND","ND","ND","1","144.1","25","59.9","0","0"],
    [24339,"2013-02-13T22:00:00","38.2","ND","34.44","ND","ND","ND","0.1","15.7","23.8","67.5","0","0"],
    [24340,"2013-02-13T23:00:00","40.3","ND","33.84","ND","ND","ND","0.1","27.7","23","71.7","0","0"],
    [24341,"2013-02-14T00:00:00","33.3","ND","25.74","ND","ND","ND","0.1","357.2","22.3","74.9","0","0"],
    [24342,"2013-02-14T01:00:00","47.9","ND","24.16","ND","ND","ND","0.2","85.4","22","77.4","0","0"],
    [24343,"2013-02-14T02:00:00","52.2","ND","21.70","ND","ND","ND","0.4","342","21.5","79.9","0","0"],
    [24344,"2013-02-14T03:00:00","30.2","ND","21.01","ND","ND","ND","0.4","29.9","21.5","80.1","0","0"],
    [24345,"2013-02-14T04:00:00","55.3","ND","18.73","ND","ND","ND","0.6","237.6","21.6","79.6","0","0"],
    [24346,"2013-02-14T05:00:00","28.9","ND","16.85","ND","ND","ND","0.8","101.5","21.6","79.3","0","0"],
    [24347,"2013-02-14T06:00:00","34.8","ND","19.14","ND","ND","ND","0.5","23.3","21","83.7","0","0"],
    [24348,"2013-02-14T07:00:00","24.7","ND","24.34","ND","ND","ND","0.1","50.3","20.7","87.5","3.7","0"],
    [24349,"2013-02-14T08:00:00","43.3","ND","25.62","ND","ND","ND","0.9","148.3","20.9","90.4","75.3","0"],
    [24350,"2013-02-14T09:00:00","37.1","ND","30.75","ND","ND","ND","1.9","158.3","21.2","88.7","95.8","0"],
    [24351,"2013-02-14T10:00:00","19.5","ND","22.89","ND","ND","ND","1.6","159.1","21.7","85.6","160.6","0"],
    [24352,"2013-02-14T11:00:00","10.3","ND","19.46","ND","ND","ND","0.5","140.2","23.3","77","409.6","0"],
    [24353,"2013-02-14T12:00:00","9.6","ND","21.00","ND","ND","ND","0.6","277.7","24.7","69.4","533.3","0"],
    [24354,"2013-02-14T13:00:00","5.6","ND","15.63","ND","ND","ND","1","330.7","26.1","61.1","536.1","0"],
    [24355,"2013-02-14T14:00:00","5","ND","8.99","ND","ND","ND","1.1","38.2","27","55.4","464.1","0"],
    [24356,"2013-02-14T15:00:00","4.7","ND","9.01","ND","ND","ND","1.2","58.8","27.7","54.9","371.3","0"],
    [24357,"2013-02-14T16:00:00","14.7","ND","22.00","ND","ND","ND","1.6","11.2","27.6","54.2","209.8","0"],
    [24358,"2013-02-14T17:00:00","9.1","ND","22.54","ND","ND","ND","2.1","38.1","27.2","55.9","271.5","0"],
    [24359,"2013-02-14T18:00:00","21.2","ND","27.60","ND","ND","ND","0.3","339.6","26.7","58","39","0"],
    [24360,"2013-02-14T19:00:00","13.1","ND","30.15","ND","ND","ND","0.2","243.2","25.7","60.2","1.4","0"],
    [24361,"2013-02-14T20:00:00","36.7","ND","36.59","ND","ND","ND","0.4","287.7","24.5","65.8","0","0"],
    [24362,"2013-02-14T21:00:00","18.9","ND","28.54","ND","ND","ND","0.5","218","24.5","64","0","0"],
    [24363,"2013-02-14T22:00:00","27.2","ND","29.21","ND","ND","ND","0.5","218.2","23.5","69.7","0","0"],
    [24364,"2013-02-14T23:00:00","14.4","ND","25.96","ND","ND","ND","0.1","306.2","22.5","75","0","0"],
    [24365,"2013-02-15T00:00:00","38.7","ND","24.67","ND","ND","ND","0.1","304.1","21.8","77.2","0","0"],
    [24366,"2013-02-15T01:00:00","35.8","ND","22.93","ND","ND","ND","0.1","291.6","21.3","78.4","0","0"],
    [24367,"2013-02-15T02:00:00","34","ND","22.13","ND","ND","ND","0.4","277.4","21.3","78.9","0","0"],
    [24368,"2013-02-15T03:00:00","31","ND","22.63","ND","ND","ND","0.3","344.8","21.2","80.9","0","0"],
    [24369,"2013-02-15T04:00:00","79.8","ND","23.13","ND","ND","ND","0.2","29.5","20.7","83.4","0","0"],
    [24370,"2013-02-15T05:00:00","72.4","ND","22.79","ND","ND","ND","0.7","34.7","20.4","86.7","0","0"],
    [24371,"2013-02-15T06:00:00","115.7","ND","23.94","ND","ND","ND","0.7","27.4","20.2","87.7","0","0"],
    [24372,"2013-02-15T07:00:00","90.7","ND","26.82","ND","ND","ND","0.2","221.9","20.1","88.1","13.5","0"],
    [24373,"2013-02-15T08:00:00","130.6","ND","47.70","ND","ND","ND","0.4","74.7","21","83.8","68.8","0"],
    [24374,"2013-02-15T09:00:00","158.7","ND","72.01","ND","ND","ND","0.6","113.5","22","79.3","168.7","0"],
    [24375,"2013-02-15T10:00:00","141.8","ND","50.98","ND","ND","ND","0.7","66.7","23","74.9","382.7","0"],
    [24376,"2013-02-15T11:00:00","89.5","ND","29.32","ND","ND","ND","1.4","54.2","25.3","65.3","729.6","0"],
    [24377,"2013-02-15T12:00:00","68","ND","14.30","ND","ND","ND","1","113.8","27.4","55.8","850.1","0.25"],
    [24378,"2013-02-15T13:00:00","47.3","ND","15.88","ND","ND","ND","1","106.5","28.7","51.1","887.6","0"],
    [24379,"2013-02-15T14:00:00","48.7","ND","15.64","ND","ND","ND","1.1","69.2","29.8","47.9","792.7","0"],
    [24380,"2013-02-15T15:00:00","53.1","ND","18.96","ND","ND","ND","0.9","66.3","30.6","46.2","677.2","0"],
    [24381,"2013-02-15T16:00:00","43.2","ND","13.76","ND","ND","ND","1.3","45.1","30.7","45","423.1","0"],
    [24382,"2013-02-15T17:00:00","31.6","ND","20.94","ND","ND","ND","1.1","354.6","29.9","49.2","181.7","0"],
    [24383,"2013-02-15T18:00:00","35.9","ND","26.43","ND","ND","ND","2.1","259.3","29.1","51.6","94.5","0"],
    [24384,"2013-02-15T19:00:00","23.1","ND","45.33","ND","ND","ND","1.2","240.6","27.7","55.2","3.9","0"],
    [24385,"2013-02-15T20:00:00","60.3","ND","55.42","ND","ND","ND","0.4","244.4","26.8","58.7","0","0"],
    [24386,"2013-02-15T21:00:00","42.7","ND","75.25","ND","ND","ND","0.1","263.8","26","63","0","0"],
    [24387,"2013-02-15T22:00:00","83.8","ND","62.52","ND","ND","ND","0.7","148.6","25.5","63.7","0","0"],
    [24388,"2013-02-15T23:00:00","84.3","ND","46.52","ND","ND","ND","0.9","162","24.4","69.3","0","0"],
    [24389,"2013-02-16T00:00:00","80.8","ND","35.26","ND","ND","ND","0.3","357.4","23.3","74.5","0","0"],
    [24390,"2013-02-16T01:00:00","67.4","ND","32.42","ND","ND","ND","0.1","285.6","22.5","77.7","0","0"],
    [24391,"2013-02-16T02:00:00","60.8","ND","32.73","ND","ND","ND","0.2","285.7","22.2","79.2","0","0"],
    [24392,"2013-02-16T03:00:00","49.1","ND","31.37","ND","ND","ND","0.1","8","21.9","80.8","0","0"],
    [24393,"2013-02-16T04:00:00","73.3","ND","27.17","ND","ND","ND","0.3","24.9","21.4","83.2","0","0"],
    [24394,"2013-02-16T05:00:00","37.8","ND","21.66","ND","ND","ND","0.1","254.7","21.4","83.8","0","0"],
    [24395,"2013-02-16T06:00:00","57","ND","22.16","ND","ND","ND","0.1","316.3","21.4","83.9","0","0"],
    [24396,"2013-02-16T07:00:00","62","ND","28.72","ND","ND","ND","0.1","302.1","21.5","83.2","5.7","0"],
    [24397,"2013-02-16T08:00:00","67.3","ND","34.49","ND","ND","ND","0.2","96.1","22","81.6","78.5","0"],
    [24398,"2013-02-16T09:00:00","51.8","ND","48.64","ND","ND","ND","0.7","161.7","23.8","73.6","290","0"],
    [24399,"2013-02-16T10:00:00","50.9","ND","31.80","ND","ND","ND","1.6","161.8","25.4","65.9","538","0"],
    [24400,"2013-02-16T11:00:00","30.1","ND","26.02","ND","ND","ND","1.4","137.8","27.3","58.6","731.3","0"],
    [24401,"2013-02-16T12:00:00","31.2","ND","20.02","ND","ND","ND","0.8","165.6","28.1","56.1","466.4","0"],
    [24402,"2013-02-16T13:00:00","17","ND","16.09","ND","ND","ND","0.8","197","29.3","51.9","739.2","0"],
    [24403,"2013-02-16T14:00:00","18.5","ND","15.68","ND","ND","ND","1.2","296.5","29.9","49.8","350.1","0"],
    [24404,"2013-02-16T15:00:00","9.3","ND","7.45","ND","ND","ND","1.7","277.3","30.9","45.5","743.4","0"],
    [24405,"2013-02-16T16:00:00","4.6","ND","5.54","ND","ND","ND","3.8","280.5","30.3","45.8","555.8","0"],
    [24406,"2013-02-16T17:00:00","3.9","ND","10.62","ND","ND","ND","2.7","259.5","29.9","46.7","234","0"],
    [24407,"2013-02-16T18:00:00","2.5","ND","13.36","ND","ND","ND","2.3","260.4","28.1","50.7","33.7","0"],
    [24408,"2013-02-16T19:00:00","3.2","ND","21.20","ND","ND","ND","0.7","243","27.8","51","3.2","0"],
    [24409,"2013-02-16T20:00:00","9.1","ND","25.30","ND","ND","ND","1.3","92.8","26.8","58","0","0"],
    [24410,"2013-02-16T21:00:00","14.1","ND","24.64","ND","ND","ND","0.3","97","25.7","63.5","0","0"],
    [24411,"2013-02-16T22:00:00","13.4","ND","23.46","ND","ND","ND","0.7","56.3","25.4","63.1","0","0"],
    [24412,"2013-02-16T23:00:00","18.9","ND","18.34","ND","ND","ND","1.1","17.1","24.3","71.3","0","0"],
    [24413,"2013-02-17T00:00:00","36.8","ND","26.63","ND","ND","ND","0.5","128.5","23.7","77.8","0","0"],
    [24414,"2013-02-17T01:00:00","30.9","ND","30.63","ND","ND","ND","0.5","147.6","23.6","80.8","0","0"],
    [24415,"2013-02-17T02:00:00","52.5","ND","26.74","ND","ND","ND","0.4","168.7","23.5","79.7","0","0"],
    [24416,"2013-02-17T03:00:00","27.1","ND","20.78","ND","ND","ND","1","153.6","22.9","80.7","0","0"],
    [24417,"2013-02-17T04:00:00","15.6","ND","18.85","ND","ND","ND","0.7","6.2","22.6","83.3","0","0"],
    [24418,"2013-02-17T05:00:00","9","ND","19.24","ND","ND","ND","0.6","92.5","22.3","84.1","0","0"],
    [24419,"2013-02-17T06:00:00","29.4","ND","21.27","ND","ND","ND","0.2","249.7","22","86.9","0","0"],
    [24420,"2013-02-17T07:00:00","20.2","ND","19.53","ND","ND","ND","0.2","221.4","22.2","85.2","9.1","0"],
    [24421,"2013-02-17T08:00:00","27.3","ND","21.45","ND","ND","ND","0.6","32.4","22.7","84.3","75.3","0"],
    [24422,"2013-02-17T09:00:00","18.1","ND","21.76","ND","ND","ND","0.5","65","23.5","81.5","198.5","0"],
    [24423,"2013-02-17T10:00:00","34","ND","17.23","ND","ND","ND","1.1","47.4","24.3","75.9","177.4","0"],
    [24424,"2013-02-17T11:00:00","17","ND","8.11","ND","ND","ND","0.2","33.8","25.4","68.4","409.1","0"],
    [24425,"2013-02-17T12:00:00","8.5","ND","8.87","ND","ND","ND","0.3","210.3","26.8","60.1","329.8","0"],
    [24426,"2013-02-17T13:00:00","6.1","ND","14.90","ND","ND","ND","1.8","44","26.2","62.1","197.9","0"],
    [24427,"2013-02-17T14:00:00","14.7","ND","22.19","ND","ND","ND","0.5","30.4","22.5","83.7","55.2","0.25"],
    [24428,"2013-02-17T15:00:00","8.3","ND","20.30","ND","ND","ND","0.2","15.4","21.9","90.3","126.7","0"],
    [24429,"2013-02-17T16:00:00","5","ND","19.54","ND","ND","ND","1.1","84.2","24.3","77.5","464.5","0"],
    [24430,"2013-02-17T17:00:00","4.3","ND","13.49","ND","ND","ND","1.2","143.6","26","63.6","188.3","0"],
    [24431,"2013-02-17T18:00:00","2.7","ND","14.73","ND","ND","ND","0.5","62.7","25.4","62.5","26.3","0.25"],
    [24432,"2013-02-17T19:00:00","3.3","ND","33.41","ND","ND","ND","1.2","122.5","24.8","66.7","0.6","0"],
    [24433,"2013-02-17T20:00:00","2.5","ND","12.85","ND","ND","ND","1.9","55","22","81.1","0","0"],
    [24434,"2013-02-17T21:00:00","3.5","ND","17.75","ND","ND","ND","0.9","64","20.8","88.4","0","0.25"],
    [24435,"2013-02-17T22:00:00","11.5","ND","32.47","ND","ND","ND","0.6","195.8","20.4","94.1","0","0"],
    [24436,"2013-02-17T23:00:00","7.4","ND","39.01","ND","ND","ND","1.5","177.6","20.6","95.7","0","0"],
    [24437,"2013-02-18T00:00:00","7.6","ND","33.15","ND","ND","ND","1.3","147.9","20.5","94.9","0","0"],
    [24438,"2013-02-18T01:00:00","5","ND","9.88","ND","ND","ND","1.5","151.5","20.2","95.2","0","0"],
    [24439,"2013-02-18T02:00:00","3.5","ND","6.20","ND","ND","ND","1.4","174.8","20","94.8","0","0"],
    [24440,"2013-02-18T03:00:00","3.2","ND","6.15","ND","ND","ND","0.9","168.2","20.2","93.1","0","0"],
    [24441,"2013-02-18T04:00:00","2.4","ND","5.95","ND","ND","ND","0.2","195.7","20.2","92.6","0","0"],
    [24442,"2013-02-18T05:00:00","1.8","ND","5.93","ND","ND","ND","0.1","280.6","20.1","93.1","0","0"],
    [24443,"2013-02-18T06:00:00","2.5","ND","15.88","ND","ND","ND","0.8","12.1","19.8","93.6","0","0"],
    [24444,"2013-02-18T07:00:00","3.4","ND","19.88","ND","ND","ND","0.5","55.2","19.4","96.1","3.9","0"],
    [24445,"2013-02-18T08:00:00","19.5","ND","28.92","ND","ND","ND","0.2","69.7","19.9","94.6","101.5","0"],
    [24446,"2013-02-18T09:00:00","25","ND","43.77","ND","ND","ND","0.3","100.9","21.3","85.9","162","0"],
    [24447,"2013-02-18T10:00:00","46.3","ND","51.72","ND","ND","ND","0.5","67.2","22.3","81.4","281.6","0"],
    [24448,"2013-02-18T11:00:00","38.8","ND","33.03","ND","ND","ND","0.7","50.3","23.6","74.4","478.4","0"],
    [24449,"2013-02-18T12:00:00","25.2","ND","16.29","ND","ND","ND","1.3","45.4","24.6","70.4","561.5","0"],
    [24450,"2013-02-18T13:00:00","13.4","ND","13.33","ND","ND","ND","1.2","62.4","25.7","66","633.6","0"],
    [24451,"2013-02-18T14:00:00","11.2","ND","17.62","ND","ND","ND","1.4","48.7","26.2","61.6","442.7","0"],
    [24452,"2013-02-18T15:00:00","7.3","ND","13.25","ND","ND","ND","1.4","21.4","26.4","61.4","380.9","0"],
    [24453,"2013-02-18T16:00:00","9.4","ND","28.73","ND","ND","ND","1.2","54.7","27.6","55.9","430.4","0"],
    [24454,"2013-02-18T17:00:00","11.5","ND","15.82","ND","ND","ND","0.7","56.2","27.9","55.8","296.5","0"],
    [24455,"2013-02-18T18:00:00","17.9","ND","33.27","ND","ND","ND","1.3","291.9","27.5","58","77","0"],
    [24456,"2013-02-18T19:00:00","22.4","ND","66.85","ND","ND","ND","0.9","263","26.3","64.3","1.4","0"],
    [24457,"2013-02-18T20:00:00","51.9","ND","52.34","ND","ND","ND","0.3","274.8","24.9","69.9","0","0"],
    [24458,"2013-02-18T21:00:00","46.7","ND","57.76","ND","ND","ND","0.3","259.3","24.1","74","0","0"],
    [24459,"2013-02-18T22:00:00","48.8","ND","49.29","ND","ND","ND","0.2","247.5","23.2","77.3","0","0"],
    [24460,"2013-02-18T23:00:00","38.9","ND","47.45","ND","ND","ND","0.1","61.8","22.9","79","0","0"],
    [24461,"2013-02-19T00:00:00","55.7","ND","41.35","ND","ND","ND","0.5","231.3","22.5","80.8","0","0"],
    [24462,"2013-02-19T01:00:00","52.4","ND","37.08","ND","ND","ND","0.5","243.7","22.1","82.2","0","0"],
    [24463,"2013-02-19T02:00:00","71.3","ND","35.84","ND","ND","ND","0.5","354.5","21.6","83.4","0","0"],
    [24464,"2013-02-19T03:00:00","59","ND","28.03","ND","ND","ND","0.2","73.3","20.9","86.7","0","0"],
    [24465,"2013-02-19T04:00:00","55.2","ND","23.94","ND","ND","ND","0.1","209.8","20.8","87.9","0","0"],
    [24466,"2013-02-19T05:00:00","31.8","ND","22.13","ND","ND","ND","0.4","45.8","20.8","87.3","0","0"],
    [24467,"2013-02-19T06:00:00","69.7","ND","25.67","ND","ND","ND","0.4","30.8","20.5","88","0","0"],
    [24468,"2013-02-19T07:00:00","92.2","ND","36.77","ND","ND","ND","0.2","23.2","21.1","86.1","8.2","0"],
    [24469,"2013-02-19T08:00:00","110.8","ND","48.80","ND","ND","ND","0.3","170.7","21.7","83.5","67.1","0"],
    [24470,"2013-02-19T09:00:00","64","ND","45.30","ND","ND","ND","0.4","20.4","22.8","76.6","233.6","0"],
    [24471,"2013-02-19T10:00:00","85","ND","74.39","ND","ND","ND","0.4","127","25.5","68.1","558.1","0"],
    [24472,"2013-02-19T11:00:00","45.8","ND","26.68","ND","ND","ND","0.7","147.8","27.2","61.1","691.3","0"],
    [24473,"2013-02-19T12:00:00","33.3","ND","17.04","ND","ND","ND","1.2","101.8","28.2","58.3","579.1","0"],
    [24474,"2013-02-19T13:00:00","25.4","ND","13.26","ND","ND","ND","0.7","77.4","28.4","57.2","465.5","0"],
    [24475,"2013-02-19T14:00:00","44.4","ND","14.04","ND","ND","ND","0.9","41.2","29.2","54.2","388.1","0"],
    [24476,"2013-02-19T15:00:00","23.7","ND","13.58","ND","ND","ND","0.5","43.4","29.1","53.8","277.6","0"],
    [24477,"2013-02-19T16:00:00","45.3","ND","17.43","ND","ND","ND","0.7","313.3","30.1","51.3","481.4","0"],
    [24478,"2013-02-19T17:00:00","23.7","ND","8.94","ND","ND","ND","0.8","199.7","30.7","47.7","343.8","0"],
    [24479,"2013-02-19T18:00:00","12.5","ND","17.00","ND","ND","ND","2.1","262.3","29.3","50.7","103.3","0"],
    [24480,"2013-02-19T19:00:00","8.3","ND","30.27","ND","ND","ND","0.2","213.1","27.8","53.8","3.1","0"],
    [24481,"2013-02-19T20:00:00","16.4","ND","42.45","ND","ND","ND","0.3","230.6","26.6","59.1","0","0"],
    [24482,"2013-02-19T21:00:00","22.2","ND","46.51","ND","ND","ND","0.7","125.4","26.4","60.2","0","0"],
    [24483,"2013-02-19T22:00:00","40.2","ND","35.42","ND","ND","ND","0.7","139.3","25.6","64.9","0","0"],
    [24484,"2013-02-19T23:00:00","36.9","ND","32.46","ND","ND","ND","0.4","121.7","24.7","69.7","0","0"],
    [24485,"2013-02-20T00:00:00","37.1","ND","26.48","ND","ND","ND","0","252.5","23.7","75.4","0","0"],
    [24486,"2013-02-20T01:00:00","20.5","ND","27.07","ND","ND","ND","0.2","70.1","23.4","77","0","0"],
    [24487,"2013-02-20T02:00:00","39.4","ND","25.42","ND","ND","ND","0.4","54.9","23.2","79.5","0","0"],
    [24488,"2013-02-20T03:00:00","21.9","ND","22.34","ND","ND","ND","0.3","213.5","23.1","80.9","0","0"],
    [24489,"2013-02-20T04:00:00","48.7","ND","20.10","ND","ND","ND","0.5","25.7","22.3","84.8","0","0"],
    [24490,"2013-02-20T05:00:00","45.7","ND","18.08","ND","ND","ND","0.2","166.5","21.9","86","0","0"],
    [24491,"2013-02-20T06:00:00","51.5","ND","16.76","ND","ND","ND","0.2","259.6","21.6","87.5","0","0"],
    [24492,"2013-02-20T07:00:00","51.7","ND","22.40","ND","ND","ND","0.2","224.3","21.8","86.4","11.8","0"],
    [24493,"2013-02-20T08:00:00","55.3","ND","30.33","ND","ND","ND","0.2","89.1","22.9","81.6","59.1","0"],
    [24494,"2013-02-20T09:00:00","67.3","ND","55.04","ND","ND","ND","0.9","62.9","24","77.1","305.2","0"],
    [24495,"2013-02-20T10:00:00","82.9","ND","60.05","ND","ND","ND","1.1","105.3","25.8","69.1","486.8","0"],
    [24496,"2013-02-20T11:00:00","52.3","ND","36.22","ND","ND","ND","0.7","25.2","26.7","64.5","418.2","0"],
    [24497,"2013-02-20T12:00:00","54.3","ND","23.91","ND","ND","ND","0.9","139.6","28.5","56.4","748.6","0"],
    [24498,"2013-02-20T13:00:00","29.3","ND","20.92","ND","ND","ND","1.3","98.7","29.5","53.1","752.7","0"],
    [24499,"2013-02-20T14:00:00","32.8","ND","18.79","ND","ND","ND","1.2","113.3","30.7","48.3","699.5","0"],
    [24500,"2013-02-20T15:00:00","30.9","ND","15.84","ND","ND","ND","0.8","119.1","31.1","47.5","475.6","0"],
    [24501,"2013-02-20T16:00:00","37.7","ND","15.63","ND","ND","ND","0.2","81.9","31.5","46.6","398.6","0"],
    [24502,"2013-02-20T17:00:00","20","ND","14.40","ND","ND","ND","2.8","285","30.8","48.2","313.5","0"],
    [24503,"2013-02-20T18:00:00","18.2","ND","16.66","ND","ND","ND","3","280.2","29.3","50.5","65.8","0"],
    [24504,"2013-02-20T19:00:00","10.5","ND","23.45","ND","ND","ND","2","266","28.4","52.3","1.6","0"],
    [24505,"2013-02-20T20:00:00","15.6","ND","32.76","ND","ND","ND","0.3","146.3","28.2","54","0","0"],
    [24506,"2013-02-20T21:00:00","21.9","ND","55.36","ND","ND","ND","1.2","110.7","27.7","57.4","0","0"],
    [24507,"2013-02-20T22:00:00","47.1","ND","35.99","ND","ND","ND","0.7","76.1","25.9","65.3","0","0"],
    [24508,"2013-02-20T23:00:00","24.4","ND","38.66","ND","ND","ND","0.2","253","25.5","68","0","0"],
    [24509,"2013-02-21T00:00:00","36.7","ND","31.92","ND","ND","ND","0.3","7.9","25.1","70.3","0","0"],
    [24510,"2013-02-21T01:00:00","18.9","ND","24.72","ND","ND","ND","0.4","108.1","24.6","72.4","0","0"],
    [24511,"2013-02-21T02:00:00","26.7","ND","17.99","ND","ND","ND","0.6","212.4","24.5","72.8","0","0"],
    [24512,"2013-02-21T03:00:00","14.5","ND","20.46","ND","ND","ND","0.6","175.8","24.2","75","0","0"],
    [24513,"2013-02-21T04:00:00","38","ND","15.97","ND","ND","ND","0.7","220.7","24","75.3","0","0"],
    [24514,"2013-02-21T05:00:00","33.6","ND","11.40","ND","ND","ND","0.5","227.5","24.1","74.8","0","0"],
    [24515,"2013-02-21T06:00:00","28.6","ND","20.24","ND","ND","ND","0.7","171.6","24","76","0","0"],
    [24516,"2013-02-21T07:00:00","15.5","ND","27.36","ND","ND","ND","0.9","156.3","23.3","81.4","3.5","0"],
    [24517,"2013-02-21T08:00:00","29.8","ND","31.78","ND","ND","ND","0.3","44.2","23.5","79.7","35.9","0"],
    [24518,"2013-02-21T09:00:00","26.9","ND","39.18","ND","ND","ND","0.3","320.1","24","78.6","121.6","0"],
    [24519,"2013-02-21T10:00:00","35.7","ND","34.91","ND","ND","ND","0.8","42.2","25.1","73.2","250.1","0"],
    [24520,"2013-02-21T11:00:00","30.5","ND","27.04","ND","ND","ND","0.5","48.3","26","69.3","402.8","0"],
    [24521,"2013-02-21T12:00:00","22.2","ND","26.48","ND","ND","ND","0.4","92.5","27.8","60","492.2","0"],
    [24522,"2013-02-21T13:00:00","13.1","ND","20.51","ND","ND","ND","0.7","185.9","28.1","58.7","261.9","0"],
    [24523,"2013-02-21T14:00:00","7.9","ND","25.49","ND","ND","ND","1.5","256.5","27.3","64.6","241.3","0"],
    [24524,"2013-02-21T15:00:00","5.8","ND","17.89","ND","ND","ND","0.8","4.9","28.1","57.5","329.5","0"],
    [24525,"2013-02-21T16:00:00","3.8","ND","14.80","ND","ND","ND","1.8","265.6","28.4","54.2","230.6","0.25"],
    [24526,"2013-02-21T17:00:00","2.5","ND","17.41","ND","ND","ND","1.8","265.9","28.4","52.2","152.3","0"],
    [24527,"2013-02-21T18:00:00","3","ND","29.83","ND","ND","ND","0.4","258","28.2","53.2","40.6","0"],
    [24528,"2013-02-21T19:00:00","10.9","ND","33.64","ND","ND","ND","0.6","219.4","27","57.6","3","0"],
    [24529,"2013-02-21T20:00:00","26.1","ND","30.73","ND","ND","ND","1.2","261.9","25.7","62.2","0","0"],
    [24530,"2013-02-21T21:00:00","36.3","ND","46.56","ND","ND","ND","0.5","211.2","25.1","66.5","0","0"],
    [24531,"2013-02-21T22:00:00","43","ND","39.16","ND","ND","ND","0.4","143.4","25","65.9","0","0"],
    [24532,"2013-02-21T23:00:00","41.6","ND","31.20","ND","ND","ND","0.3","80.7","24.4","70.6","0","0"],
    [24533,"2013-02-22T00:00:00","55.1","ND","27.36","ND","ND","ND","0.3","154","23.9","73.6","0","0"],
    [24534,"2013-02-22T01:00:00","38.9","ND","24.10","ND","ND","ND","0.5","180.7","23.1","77.1","0","0"],
    [24535,"2013-02-22T02:00:00","39.5","ND","20.16","ND","ND","ND","1.1","166.4","23.4","78.8","0","0"],
    [24536,"2013-02-22T03:00:00","40.8","ND","20.14","ND","ND","ND","0.3","265.1","23.2","79.3","0","0"],
    [24537,"2013-02-22T04:00:00","38.6","ND","18.81","ND","ND","ND","0.2","32.3","22.9","80.6","0","0"],
    [24538,"2013-02-22T05:00:00","20.1","ND","17.50","ND","ND","ND","0","18.6","22.8","81.5","0","0"],
    [24539,"2013-02-22T06:00:00","45.6","ND","22.36","ND","ND","ND","0.4","41.9","22.5","82.2","0","0"],
    [24540,"2013-02-22T07:00:00","70.4","ND","27.83","ND","ND","ND","0.3","36.5","22.7","81.6","3.7","0"],
    [24541,"2013-02-22T08:00:00","110.1","ND","33.26","ND","ND","ND","0.2","60.3","23.1","79.8","50.3","0"],
    [24542,"2013-02-22T09:00:00","84.9","ND","39.89","ND","ND","ND","0.5","52.1","24.6","73.6","245.6","0"],
    [24543,"2013-02-22T10:00:00","85","ND","36.65","ND","ND","ND","0.5","50.4","25.9","66.2","453.8","0"],
    [24544,"2013-02-22T11:00:00","1.5","ND","26.36","ND","ND","ND","0.7","100.4","27.7","59.7","671.7","0.25"],
    [24545,"2013-02-22T12:00:00","22.7","ND","18.81","ND","ND","ND","1.4","89.1","29.2","55","681.1","0"],
    [24546,"2013-02-22T13:00:00","12","ND","11.78","ND","ND","ND","1.2","98.7","28.7","57.1","304.2","0"],
    [24547,"2013-02-22T14:00:00","21.4","ND","14.14","ND","ND","ND","0.6","39.4","30.1","52.7","630.6","0"],
    [24548,"2013-02-22T15:00:00","11.4","ND","10.32","ND","ND","ND","0.8","317.3","31","47.6","591.5","0"],
    [24549,"2013-02-22T16:00:00","7.8","ND","9.02","ND","ND","ND","1.1","301.8","31.3","46","420.3","0"],
    [24550,"2013-02-22T17:00:00","5.2","ND","10.70","ND","ND","ND","2.8","268","30.9","46.8","325.9","0"],
    [24551,"2013-02-22T18:00:00","3.9","ND","18.44","ND","ND","ND","2","255.9","29.7","49.3","103.5","0"],
    [24552,"2013-02-22T19:00:00","2.7","ND","29.68","ND","ND","ND","0.9","245.7","28.4","51.4","2.5","0"],
    [24553,"2013-02-22T20:00:00","30.7","ND","40.02","ND","ND","ND","0.6","102.2","28.1","52.4","0","0"],
    [24554,"2013-02-22T21:00:00","47.8","ND","50.22","ND","ND","ND","0.7","95.3","27.3","57","0","0"],
    [24555,"2013-02-22T22:00:00","43.6","ND","34.06","ND","ND","ND","0.7","179.4","26.1","64","0","0"],
    [24556,"2013-02-22T23:00:00","31.5","ND","32.75","ND","ND","ND","0.4","171.7","25.5","67.2","0","0"],
    [24557,"2013-02-23T00:00:00","49.1","ND","34.70","ND","ND","ND","0.4","7","24.7","70.5","0","0"],
    [24558,"2013-02-23T01:00:00","45.4","ND","30.64","ND","ND","ND","0.1","340.1","24.1","74","0","0"],
    [24559,"2013-02-23T02:00:00","54.1","ND","26.07","ND","ND","ND","0.2","140.8","24","74.7","0","0"],
    [24560,"2013-02-23T03:00:00","28.7","ND","23.80","ND","ND","ND","0.5","352.7","23.7","77.1","0","0"],
    [24561,"2013-02-23T04:00:00","65.4","ND","24.42","ND","ND","ND","0.8","4.9","23.3","79.2","0","0"],
    [24562,"2013-02-23T05:00:00","35.3","ND","22.21","ND","ND","ND","0.1","176.8","23.6","77.7","0","0"],
    [24563,"2013-02-23T06:00:00","44.1","ND","24.85","ND","ND","ND","0.9","39.6","22.9","81.7","0","0"],
    [24564,"2013-02-23T07:00:00","24.7","ND","24.39","ND","ND","ND","0.4","200","22.9","82.5","11.2","0"],
    [24565,"2013-02-23T08:00:00","62.1","ND","29.43","ND","ND","ND","0.2","94.9","23.6","79.6","63","0"],
    [24566,"2013-02-23T09:00:00","58.9","ND","48.79","ND","ND","ND","0.8","34.5","24.6","76.6","258","0"],
    [24567,"2013-02-23T10:00:00","64.4","ND","50.63","ND","ND","ND","0.6","87.7","26.9","65.8","584.1","0"],
    [24568,"2013-02-23T11:00:00","34.2","ND","14.02","ND","ND","ND","1.3","150","28.7","55.4","829.9","0"],
    [24569,"2013-02-23T12:00:00","19.2","ND","13.22","ND","ND","ND","1","63.6","29.2","54.4","409.3","0"],
    [24570,"2013-02-23T13:00:00","21.9","ND","13.59","ND","ND","ND","0.8","97","30.3","51","889.4","0"],
    [24571,"2013-02-23T14:00:00","23.8","ND","10.61","ND","ND","ND","2.4","15.7","31.1","47.8","623.4","0"],
    [24572,"2013-02-23T15:00:00","11.9","ND","8.12","ND","ND","ND","1.7","353","31.6","46.1","553","0"],
    [24573,"2013-02-23T16:00:00","5.9","ND","7.71","ND","ND","ND","1.7","311.4","31.2","46.4","326.2","0"],
    [24574,"2013-02-23T17:00:00","4","ND","7.93","ND","ND","ND","3","271.3","30.7","47.1","331.1","0"],
    [24575,"2013-02-23T18:00:00","3.9","ND","10.37","ND","ND","ND","2.5","271.3","29.6","48.9","85.9","0"],
    [24576,"2013-02-23T19:00:00","17.8","ND","22.89","ND","ND","ND","0.3","154.7","28.8","50.8","3.4","0"],
    [24577,"2013-02-23T20:00:00","16.9","ND","24.45","ND","ND","ND","0.5","106.3","27.8","54.9","0","0"],
    [24578,"2013-02-23T21:00:00","9","ND","34.66","ND","ND","ND","0.6","90.9","27.2","58","0","0"],
    [24579,"2013-02-23T22:00:00","42.6","ND","31.66","ND","ND","ND","0.9","97.8","26.1","63.5","0","0"],
    [24580,"2013-02-23T23:00:00","21.8","ND","28.74","ND","ND","ND","0.4","37.3","25.6","66.4","0","0"],
    [24581,"2013-02-24T00:00:00","39.9","ND","28.82","ND","ND","ND","0.6","133","25.8","65.3","0","0"],
    [24582,"2013-02-24T01:00:00","33.7","ND","26.40","ND","ND","ND","0.8","84.8","25.4","66.7","0","0"],
    [24583,"2013-02-24T02:00:00","22.3","ND","18.12","ND","ND","ND","0.7","81.8","24.4","71.1","0","0"],
    [24584,"2013-02-24T03:00:00","14.4","ND","16.05","ND","ND","ND","0.7","144.8","24.3","72","0","0"],
    [24585,"2013-02-24T04:00:00","21.8","ND","13.02","ND","ND","ND","1","156","23.4","81.8","0","0"],
    [24586,"2013-02-24T05:00:00","12.9","ND","14.25","ND","ND","ND","0.6","331.7","22.1","91.6","0.1","0.25"],
    [24587,"2013-02-24T06:00:00","23.9","ND","16.76","ND","ND","ND","0.6","53.1","22","92.1","0","0"],
    [24588,"2013-02-24T07:00:00","13.7","ND","16.95","ND","ND","ND","0.9","18.3","21.7","93.8","2.3","0"],
    [24589,"2013-02-24T08:00:00","8.2","ND","14.03","ND","ND","ND","0.3","7.2","21.8","93.9","50.4","0"],
    [24590,"2013-02-24T09:00:00","5.6","ND","18.14","ND","ND","ND","0.5","180.9","23.2","86.7","178.1","0"],
    [24591,"2013-02-24T10:00:00","4.7","ND","21.79","ND","ND","ND","0.9","177.5","24","79.6","128.9","0.25"],
    [24592,"2013-02-24T11:00:00","2.9","ND","17.01","ND","ND","ND","0.7","189.3","24.3","79.3","247.2","0"],
    [24593,"2013-02-24T12:00:00","4.1","ND","12.61","ND","ND","ND","0.9","187.2","26.2","68.5","653.6","0"],
    [24594,"2013-02-24T13:00:00","2","ND","11.57","ND","ND","ND","0.3","46.8","27.7","61.2","646.1","0"],
    [24595,"2013-02-24T14:00:00","1","ND","10.69","ND","ND","ND","0.9","50.1","28.5","58.1","523.2","0"],
    [24596,"2013-02-24T15:00:00","2.7","ND","8.88","ND","ND","ND","0.8","132.8","29.1","54.6","569.9","0"],
    [24597,"2013-02-24T16:00:00","3.5","ND","9.41","ND","ND","ND","0.6","128.3","29.6","53.1","227","0"],
    [24598,"2013-02-24T17:00:00","1.8","ND","6.56","ND","ND","ND","0.1","356.5","28.5","55.2","133.7","0"],
    [24599,"2013-02-24T18:00:00","0.9","ND","8.47","ND","ND","ND","0.9","342.8","27.6","58.6","49.1","0"],
    [24600,"2013-02-24T19:00:00","1.9","ND","24.38","ND","ND","ND","0.2","204.8","27","60.2","4.2","0"],
    [24601,"2013-02-24T20:00:00","1.9","ND","24.15","ND","ND","ND","0.6","211.3","26.2","61.9","0","0"],
    [24602,"2013-02-24T21:00:00","1.5","ND","27.25","ND","ND","ND","0.4","255.9","24.8","69.5","0","0"],
    [24603,"2013-02-24T22:00:00","2","ND","28.35","ND","ND","ND","0.2","264.4","24.6","69.8","0","0"],
    [24604,"2013-02-24T23:00:00","2.7","ND","24.56","ND","ND","ND","0.3","29.5","23.9","74.5","0","0"],
    [24605,"2013-02-25T00:00:00","12","ND","20.29","ND","ND","ND","0.4","263.8","22.9","79.7","0","0"],
    [24606,"2013-02-25T01:00:00","6.8","ND","18.79","ND","ND","ND","0.2","303.3","22.5","80.6","0","0"],
    [24607,"2013-02-25T02:00:00","16.4","ND","19.77","ND","ND","ND","0.1","322.7","22.4","79.9","0","0"],
    [24608,"2013-02-25T03:00:00","11.1","ND","19.89","ND","ND","ND","0.2","8.7","22","80.2","0","0"],
    [24609,"2013-02-25T04:00:00","20.9","ND","18.58","ND","ND","ND","0.1","274.6","21.8","82","0","0"],
    [24610,"2013-02-25T05:00:00","12.1","ND","16.78","ND","ND","ND","0.3","309.7","21.6","83.2","0","0"],
    [24611,"2013-02-25T06:00:00","30","ND","22.00","ND","ND","ND","0","237.6","21.3","84.5","0","0"],
    [24612,"2013-02-25T07:00:00","25","ND","22.11","ND","ND","ND","0.2","240.6","21.5","83.8","10.8","0"],
    [24613,"2013-02-25T08:00:00","70.2","ND","41.63","ND","ND","ND","0.5","18.4","23","79.2","164.1","0"],
    [24614,"2013-02-25T09:00:00","50","ND","63.20","ND","ND","ND","0.8","118.9","24.8","72.3","360.2","0"],
    [24615,"2013-02-25T10:00:00","44.8","ND","36.52","ND","ND","ND","1.3","149.2","26.7","64.9","608","0"],
    [24616,"2013-02-25T11:00:00","24.9","ND","18.44","ND","ND","ND","0.8","82.8","27.8","60.4","664","0"],
    [24617,"2013-02-25T12:00:00","29.2","ND","15.45","ND","ND","ND","1.1","63.7","28.8","56.6","623.3","0"],
    [24618,"2013-02-25T13:00:00","23.5","ND","18.84","ND","ND","ND","0.9","58.9","29.9","53.7","483.3","0"],
    [24619,"2013-02-25T14:00:00","29.5","ND","19.87","ND","ND","ND","0.2","225.5","29.9","52.3","224.4","0"],
    [24620,"2013-02-25T15:00:00","17.1","ND","15.09","ND","ND","ND","0.2","182.1","30","51.6","212.9","0"],
    [24621,"2013-02-25T16:00:00","19.5","ND","10.52","ND","ND","ND","1.7","271","30.7","49","363.5","0"],
    [24622,"2013-02-25T17:00:00","11.3","ND","12.44","ND","ND","ND","2.2","257.9","29.9","50.1","136.7","0"],
    [24623,"2013-02-25T18:00:00","6.2","ND","24.12","ND","ND","ND","1.6","253.2","29.4","51.4","43.4","0"],
    [24624,"2013-02-25T19:00:00","5.3","ND","23.43","ND","ND","ND","1.9","248.9","28.1","54.7","1.5","0"],
    [24625,"2013-02-25T20:00:00","14.5","ND","41.37","ND","ND","ND","0.3","209","27.5","57.7","0","0"],
    [24626,"2013-02-25T21:00:00","13.1","ND","40.14","ND","ND","ND","0.1","276.2","26.7","60.7","0","0"],
    [24627,"2013-02-25T22:00:00","48.4","ND","38.75","ND","ND","ND","0.6","183.4","26.2","64.4","0","0"],
    [24628,"2013-02-25T23:00:00","33.4","ND","31.30","ND","ND","ND","0.3","83.8","25.3","69.5","0","0"],
    [24629,"2013-02-26T00:00:00","49.9","ND","29.72","ND","ND","ND","0.1","82.4","24.4","73.6","0","0"],
    [24630,"2013-02-26T01:00:00","26.9","ND","26.09","ND","ND","ND","0.6","251.8","23.6","77.2","0","0"],
    [24631,"2013-02-26T02:00:00","35.9","ND","24.38","ND","ND","ND","0","265.3","23.3","78.9","0","0"],
    [24632,"2013-02-26T03:00:00","22.3","ND","22.09","ND","ND","ND","0.3","274.1","22.9","79.9","0","0"],
    [24633,"2013-02-26T04:00:00","41.2","ND","21.59","ND","ND","ND","0.1","326.1","22.8","81.7","0","0"],
    [24634,"2013-02-26T05:00:00","27.6","ND","20.93","ND","ND","ND","0.6","316.2","22.4","82.8","0","0"],
    [24635,"2013-02-26T06:00:00","41.4","ND","21.41","ND","ND","ND","0.1","28.4","22.4","83.1","0","0"],
    [24636,"2013-02-26T07:00:00","32.2","ND","28.25","ND","ND","ND","0.1","25.6","22.6","82.5","15.5","0"],
    [24637,"2013-02-26T08:00:00","ND","ND","36.91","ND","ND","ND","0.2","177.8","23","81.7","55.6","0"],
    [24638,"2013-02-26T09:00:00","ND","ND","42.79","ND","ND","ND","0.3","11.8","23.3","81.6","91.3","0"],
    [24639,"2013-02-26T10:00:00","ND","ND","60.47","ND","ND","ND","0.3","67","24.8","74.9","227.2","0"],
    [24640,"2013-02-26T11:00:00","ND","ND","45.67","ND","ND","ND","1.2","91.3","27.1","63.7","754","0"],
    [24641,"2013-02-26T12:00:00","84.2","ND","15.68","ND","ND","ND","0.8","100.4","28.9","55.2","850","0"],
    [24642,"2013-02-26T13:00:00","45.2","ND","13.71","ND","ND","ND","1.2","89.6","29.5","54","414.3","0"],
    [24643,"2013-02-26T14:00:00","41.5","ND","13.62","ND","ND","ND","0.9","38.3","30.1","53","479.2","0"],
    [24644,"2013-02-26T15:00:00","21.3","ND","7.38","ND","ND","ND","1.3","329.9","31.1","47","601.3","0"],
    [24645,"2013-02-26T16:00:00","11.4","ND","7.50","ND","ND","ND","2.7","300.5","31.4","45.3","556.2","0"],
    [24646,"2013-02-26T17:00:00","7","ND","9.34","ND","ND","ND","2.5","270.6","31.2","45.7","321.1","0"],
    [24647,"2013-02-26T18:00:00","4.3","ND","19.04","ND","ND","ND","1.6","264.4","30.4","47.4","104.1","0"],
    [24648,"2013-02-26T19:00:00","4.2","ND","33.17","ND","ND","ND","0.7","240.9","29","50.6","3","0"],
    [24649,"2013-02-26T20:00:00","23.6","ND","36.03","ND","ND","ND","0.4","178.4","28.5","51.2","0","0"],
    [24650,"2013-02-26T21:00:00","34.8","ND","39.90","ND","ND","ND","0.3","30.6","27.8","54","0","0"],
    [24651,"2013-02-26T22:00:00","37.6","ND","36.71","ND","ND","ND","1","172.8","27.2","58.2","0","0"],
    [24652,"2013-02-26T23:00:00","52.6","ND","31.75","ND","ND","ND","0.2","315.3","26","64.5","0","0"],
    [24653,"2013-02-27T00:00:00","66.8","ND","30.25","ND","ND","ND","0.3","327","25.2","67.6","0","0"],
    [24654,"2013-02-27T01:00:00","44.9","ND","23.01","ND","ND","ND","0.7","356.3","23.9","76.1","0","0"],
    [24655,"2013-02-27T02:00:00","58.5","ND","23.00","ND","ND","ND","0.3","325.4","23.6","75.6","0","0"],
    [24656,"2013-02-27T03:00:00","53.5","ND","22.09","ND","ND","ND","0.4","7.4","23","78.5","0","0"],
    [24657,"2013-02-27T04:00:00","33.7","ND","20.28","ND","ND","ND","0.2","290","23","78.5","0","0"],
    [24658,"2013-02-27T05:00:00","45.7","ND","19.43","ND","ND","ND","0.1","201.6","22.9","79","0","0"],
    [24659,"2013-02-27T06:00:00","23.9","ND","19.23","ND","ND","ND","0.1","211.9","23","79","0","0"],
    [24660,"2013-02-27T07:00:00","20.3","ND","21.38","ND","ND","ND","0.2","279.1","23.2","79.1","9.6","0"],
    [24661,"2013-02-27T08:00:00","59.2","ND","35.65","ND","ND","ND","0.8","154.9","24.5","74.9","137.7","0"],
    [24662,"2013-02-27T09:00:00","45.5","ND","36.04","ND","ND","ND","1.7","117.3","25.9","68.5","377.8","0"],
    [24663,"2013-02-27T10:00:00","42.7","ND","21.06","ND","ND","ND","1.5","136.2","27.4","62","592.1","0"],
    [24664,"2013-02-27T11:00:00","33.8","ND","14.47","ND","ND","ND","1.9","132.4","28.7","57.5","770.5","0"],
    [24665,"2013-02-27T12:00:00","33.2","ND","9.94","ND","ND","ND","1.2","128.6","29.4","55.2","425.6","0"],
    [24666,"2013-02-27T13:00:00","19","ND","12.41","ND","ND","ND","1","109.4","29.5","55.2","215.6","0"],
    [24667,"2013-02-27T14:00:00","27.3","ND","11.21","ND","ND","ND","0.9","261","29.7","53.4","401","0"],
    [24668,"2013-02-27T15:00:00","14.4","ND","11.62","ND","ND","ND","1.5","213.1","30.5","49.6","360.9","0"],
    [24669,"2013-02-27T16:00:00","34.4","ND","18.94","ND","ND","ND","1.3","234.6","30","52.4","176.8","0"],
    [24670,"2013-02-27T17:00:00","39.5","ND","16.60","ND","ND","ND","1.6","304.8","29.3","52.9","130.2","0"],
    [24671,"2013-02-27T18:00:00","21.4","ND","20.66","ND","ND","ND","1","291.7","28.6","53.6","22.9","0"],
    [24672,"2013-02-27T19:00:00","21.1","ND","25.68","ND","ND","ND","0.6","337.1","26.4","64.2","1","0"],
    [24673,"2013-02-27T20:00:00","37.9","ND","47.06","ND","ND","ND","0.2","355.7","26.4","64.3","0","0"],
    [24674,"2013-02-27T21:00:00","20.2","ND","41.38","ND","ND","ND","0.7","76.6","26.4","62.7","0","0"],
    [24675,"2013-02-27T22:00:00","48.4","ND","35.79","ND","ND","ND","0.5","37.9","26","65.6","0","0"],
    [24676,"2013-02-27T23:00:00","32.6","ND","26.85","ND","ND","ND","0.6","320.4","25.5","67.7","0","0"],
    [24677,"2013-02-28T00:00:00","42","ND","22.83","ND","ND","ND","0.6","77.5","25.3","68.9","0","0"],
    [24678,"2013-02-28T01:00:00","44.8","ND","24.93","ND","ND","ND","0.3","289.6","24.2","78.3","0","0"],
    [24679,"2013-02-28T02:00:00","23.9","ND","21.74","ND","ND","ND","0.2","55.7","23.8","81.5","0","0"],
    [24680,"2013-02-28T03:00:00","13.9","ND","16.14","ND","ND","ND","0.8","173.4","23.6","80.9","0","0"],
    [24681,"2013-02-28T04:00:00","13.7","ND","13.95","ND","ND","ND","1","184.1","23.6","80.6","0","0"],
    [24682,"2013-02-28T05:00:00","21.3","ND","14.27","ND","ND","ND","1.1","191.7","23.3","81.1","0","0"],
    [24683,"2013-02-28T06:00:00","14.1","ND","15.20","ND","ND","ND","0.4","265.4","23.2","81.7","0","0"],
    [24684,"2013-02-28T07:00:00","11.8","ND","23.37","ND","ND","ND","0.3","38.5","23.1","82.6","6.2","0"],
    [24685,"2013-02-28T08:00:00","58.5","ND","27.14","ND","ND","ND","0.5","29","23.3","82.3","63.2","0"],
    [24686,"2013-02-28T09:00:00","47.1","ND","31.45","ND","ND","ND","0.5","28","24.1","78.1","147.7","0"],
    [24687,"2013-02-28T10:00:00","41","ND","25.20","ND","ND","ND","0.5","54.3","25.5","70.7","346.3","0"],
    [24688,"2013-02-28T11:00:00","34.9","ND","19.74","ND","ND","ND","0.6","76","26.7","65","410.2","0"],
    [24689,"2013-02-28T12:00:00","19.9","ND","19.11","ND","ND","ND","0.9","104","27","64","221.5","0"],
    [24690,"2013-02-28T13:00:00","10.9","ND","15.64","ND","ND","ND","1","161","27.3","63.5","272.6","0"],
    [24691,"2013-02-28T14:00:00","7.9","ND","20.21","ND","ND","ND","0.1","198.8","28.1","61.2","415.5","0"],
    [24692,"2013-02-28T15:00:00","11","ND","24.03","ND","ND","ND","0.8","175.6","29.5","55.3","577.1","0"],
    [24693,"2013-02-28T16:00:00","15","ND","23.62","ND","ND","ND","0.7","77.8","29.4","54.8","186.8","0"],
    [24694,"2013-02-28T17:00:00","9.5","ND","14.41","ND","ND","ND","2.2","273.7","29","51.1","177.4","0"],
    [24695,"2013-02-28T18:00:00","6.8","ND","18.93","ND","ND","ND","1.3","283.6","28.4","52.2","64.9","0"],
    [24696,"2013-02-28T19:00:00","4.2","ND","31.23","ND","ND","ND","0.3","317.7","27.7","54.1","2.8","0"],
    [24697,"2013-02-28T20:00:00","32.4","ND","35.42","ND","ND","ND","0.6","45.5","27","56.3","0","0"],
    [24698,"2013-02-28T21:00:00","29.1","ND","31.91","ND","ND","ND","0.4","95.9","26.3","59.2","0","0"],
    [24699,"2013-02-28T22:00:00","33.6","ND","34.92","ND","ND","ND","1.1","125.3","26.1","61.1","0","0"],
    [24700,"2013-02-28T23:00:00","19","ND","16.92","ND","ND","ND","3","184.8","25.1","70","0","0"],
    [24701,"2013-03-01T00:00:00","29.1","ND","20.10","ND","ND","ND","1.4","183.2","24.8","71.2","0","0"],
    [24702,"2013-03-01T01:00:00","34.5","ND","24.16","ND","ND","ND","0.8","333.5","22.9","86.3","0","0"],
    [24703,"2013-03-01T02:00:00","49.5","ND","18.25","ND","ND","ND","0.6","13.5","22.3","90.1","0.1","0"],
    [24704,"2013-03-01T03:00:00","47.1","ND","18.20","ND","ND","ND","0.9","192.5","22.4","89.3","0.1","0.25"],
    [24705,"2013-03-01T04:00:00","40.7","ND","11.87","ND","ND","ND","1.3","164.8","22.3","87.7","0","0"],
    [24706,"2013-03-01T05:00:00","22.9","ND","8.51","ND","ND","ND","0.2","168.7","22.2","87.4","0","0"],
    [24707,"2013-03-01T06:00:00","18.6","ND","18.17","ND","ND","ND","0.6","156.8","22.1","87.3","0.1","0"],
    [24708,"2013-03-01T07:00:00","21.4","ND","27.72","ND","ND","ND","0.1","205.3","22.1","88.1","6.3","0"],
    [24709,"2013-03-01T08:00:00","14","ND","37.99","ND","ND","ND","0.3","118.3","22.7","85.1","45.9","0"],
    [24710,"2013-03-01T09:00:00","38.2","ND","50.96","ND","ND","ND","0.2","72.9","23.1","84.2","77.8","0"],
    [24711,"2013-03-01T10:00:00","31.2","ND","28.39","ND","ND","ND","0.7","100","24.3","76.5","328.9","0"],
    [24712,"2013-03-01T11:00:00","16.8","ND","22.39","ND","ND","ND","0.4","120.6","26.4","68.2","647.2","0"],
    [24713,"2013-03-01T12:00:00","11","ND","18.82","ND","ND","ND","1.4","84.5","27.5","63.8","520.2","0"],
    [24714,"2013-03-01T13:00:00","8.5","ND","13.90","ND","ND","ND","0.1","320.1","28.2","59.4","521.5","0"],
    [24715,"2013-03-01T14:00:00","11.6","ND","12.74","ND","ND","ND","0.5","154.7","29.6","53.9","598.7","0"],
    [24716,"2013-03-01T15:00:00","12.4","ND","14.07","ND","ND","ND","0.4","49.5","29.4","52.9","318.8","0"],
    [24717,"2013-03-01T16:00:00","30.5","ND","15.21","ND","ND","ND","0.8","220.5","29.8","49.8","156.4","0"],
    [24718,"2013-03-01T17:00:00","17.6","ND","17.96","ND","ND","ND","1.5","272.1","28.6","52.4","40.1","0"],
    [24719,"2013-03-01T18:00:00","10.6","ND","25.97","ND","ND","ND","0.8","231.8","28.3","52.4","20.4","0"],
    [24720,"2013-03-01T19:00:00","14.4","ND","26.87","ND","ND","ND","0.6","306.8","27.5","56.5","2.4","0"],
    [24721,"2013-03-01T20:00:00","20","ND","33.33","ND","ND","ND","1","101.8","27","59.7","0","0"],
    [24722,"2013-03-01T21:00:00","14.7","ND","25.43","ND","ND","ND","0.6","327.6","26.2","60.8","0","0"],
    [24723,"2013-03-01T22:00:00","37.6","ND","34.63","ND","ND","ND","0.9","114.3","25.8","62.9","0","0"],
    [24724,"2013-03-01T23:00:00","46.8","ND","34.48","ND","ND","ND","0.8","234.2","25.1","65.9","0","0"],
    [24725,"2013-03-02T00:00:00","33.8","ND","28.40","ND","ND","ND","0.3","243.4","24.2","71.2","0","0"],
    [24726,"2013-03-02T01:00:00","30.8","ND","21.47","ND","ND","ND","1","241.1","23.9","74.5","0.1","0"],
    [24727,"2013-03-02T02:00:00","29.2","ND","11.05","ND","ND","ND","1","179.9","23.7","77.3","0.1","0"],
    [24728,"2013-03-02T03:00:00","18.9","ND","11.73","ND","ND","ND","0.4","200.9","23.4","78.2","0.1","0"],
    [24729,"2013-03-02T04:00:00","22.8","ND","13.47","ND","ND","ND","0.2","253.5","23","79.6","0.1","0"],
    [24730,"2013-03-02T05:00:00","12","ND","12.29","ND","ND","ND","0.2","295.7","22.5","80.1","0","0"],
    [24731,"2013-03-02T06:00:00","17.7","ND","19.04","ND","ND","ND","0","23.3","22.3","81.7","0","0"],
    [24732,"2013-03-02T07:00:00","32","ND","17.47","ND","ND","ND","0.3","308.2","21.7","83.7","9.3","0"],
    [24733,"2013-03-02T08:00:00","30.4","ND","28.24","ND","ND","ND","0.3","265.5","22.5","80.7","67.9","0"],
    [24734,"2013-03-02T09:00:00","36.6","ND","51.38","ND","ND","ND","0.3","93.6","23.9","74.7","212.1","0"],
    [24735,"2013-03-02T10:00:00","55.2","ND","48.05","ND","ND","ND","0.7","50.2","25.4","69.4","424.8","0"],
    [24736,"2013-03-02T11:00:00","39.3","ND","39.76","ND","ND","ND","0.7","124.3","27.4","60.9","572.2","0"],
    [24737,"2013-03-02T12:00:00","32.5","ND","18.34","ND","ND","ND","0.6","127.5","27.7","59","284.3","0"],
    [24738,"2013-03-02T13:00:00","47.2","ND","20.76","ND","ND","ND","0.8","65.6","27.8","60.4","261","0"],
    [24739,"2013-03-02T14:00:00","39.3","ND","20.17","ND","ND","ND","0.9","135.6","28.4","57.8","304.1","0"],
    [24740,"2013-03-02T15:00:00","37.5","ND","18.56","ND","ND","ND","0.9","269.9","29.7","52.9","612.7","0"],
    [24741,"2013-03-02T16:00:00","29.6","ND","15.06","ND","ND","ND","0.6","203.1","30.2","50.2","252.1","0"],
    [24742,"2013-03-02T17:00:00","16","ND","11.58","ND","ND","ND","0.9","350.5","29.3","50.4","52.1","0"],
    [24743,"2013-03-02T18:00:00","46.7","ND","18.93","ND","ND","ND","1","255.6","28.6","52.4","39","0"],
    [24744,"2013-03-02T19:00:00","42.2","ND","28.51","ND","ND","ND","0.2","308.5","27.7","55.2","2","0"],
    [24745,"2013-03-02T20:00:00","37.6","ND","46.44","ND","ND","ND","0.4","258.2","26.8","59.4","0","0"],
    [24746,"2013-03-02T21:00:00","34.6","ND","46.43","ND","ND","ND","0.1","69.9","26.6","59.9","0","0"],
    [24747,"2013-03-02T22:00:00","59.9","ND","34.20","ND","ND","ND","1","181.6","26","63.5","0","0"],
    [24748,"2013-03-02T23:00:00","35.5","ND","31.45","ND","ND","ND","0.2","108.2","25.5","65.9","0","0"],
    [24749,"2013-03-03T00:00:00","42.9","ND","32.93","ND","ND","ND","0.2","292.1","24.9","68.5","0","0"],
    [24750,"2013-03-03T01:00:00","47.4","ND","30.86","ND","ND","ND","0.4","159.4","24.7","70.5","0.1","0"],
    [24751,"2013-03-03T02:00:00","50.2","ND","23.95","ND","ND","ND","0.5","112.7","24","74.4","0","0"],
    [24752,"2013-03-03T03:00:00","26.8","ND","22.92","ND","ND","ND","0.5","189.9","23.7","76.8","0.1","0"],
    [24753,"2013-03-03T04:00:00","53","ND","21.63","ND","ND","ND","0.2","219.8","23.5","78.2","0.1","0"],
    [24754,"2013-03-03T05:00:00","48.1","ND","21.46","ND","ND","ND","0.4","174.3","23.6","78.5","0.1","0"],
    [24755,"2013-03-03T06:00:00","46.3","ND","19.46","ND","ND","ND","0.4","233.5","23.7","79.7","0.1","0"],
    [24756,"2013-03-03T07:00:00","36.6","ND","19.59","ND","ND","ND","0.3","5.9","23.4","80.5","4.4","0"],
    [24757,"2013-03-03T08:00:00","58.4","ND","18.40","ND","ND","ND","1.2","173","22.8","86.5","23.8","0"],
    [24758,"2013-03-03T09:00:00","16.2","ND","18.68","ND","ND","ND","0.6","198.3","22.8","90.1","101","0"],
    [24759,"2013-03-03T10:00:00","44.1","ND","24.25","ND","ND","ND","0.3","242","25.3","75.4","553.1","0"],
    [24760,"2013-03-03T11:00:00","37.7","ND","15.36","ND","ND","ND","1.4","153.2","27.4","63.2","726.1","0"],
    [24761,"2013-03-03T12:00:00","21.1","ND","11.18","ND","ND","ND","1.1","103.8","27.8","61.4","406.4","0"],
    [24762,"2013-03-03T13:00:00","12","ND","16.02","ND","ND","ND","0.7","314.1","27.3","62.4","134.5","0"],
    [24763,"2013-03-03T14:00:00","26.8","ND","12.81","ND","ND","ND","0.8","244.5","28.1","58","303.5","0"],
    [24764,"2013-03-03T15:00:00","21.9","ND","8.87","ND","ND","ND","0.6","357","28.7","54","310.2","0"],
    [24765,"2013-03-03T16:00:00","12.9","ND","6.07","ND","ND","ND","0.9","344.2","28.9","52.7","306.3","0"],
    [24766,"2013-03-03T17:00:00","8.9","ND","7.95","ND","ND","ND","2.1","247.3","29.2","52.2","249.2","0"],
    [24767,"2013-03-03T18:00:00","28.3","ND","15.03","ND","ND","ND","1","279.5","28.4","53.7","49.6","0"],
    [24768,"2013-03-03T19:00:00","14.8","ND","34.25","ND","ND","ND","0.3","246.7","26.9","59.7","1.4","0"],
    [24769,"2013-03-03T20:00:00","33.3","ND","40.95","ND","ND","ND","0.6","251.2","26","61.9","0","0"],
    [24770,"2013-03-03T21:00:00","42.9","ND","44.95","ND","ND","ND","0.1","316.7","25.1","67.7","0","0"],
    [24771,"2013-03-03T22:00:00","22.3","ND","39.71","ND","ND","ND","0.4","94.8","24.9","68.3","0.1","0"],
    [24772,"2013-03-03T23:00:00","34.4","ND","34.72","ND","ND","ND","0.2","302.7","23.8","73.3","0","0"],
    [24773,"2013-03-04T00:00:00","7.9","ND","31.17","ND","ND","ND","0.3","253.2","23.4","75.2","0","0"],
    [24774,"2013-03-04T01:00:00","18.7","ND","22.33","ND","ND","ND","0.3","281.7","22.9","76","0","0"],
    [24775,"2013-03-04T02:00:00","23.3","ND","24.56","ND","ND","ND","0.5","24","23","77.5","0","0.25"],
    [24776,"2013-03-04T03:00:00","18.1","ND","20.03","ND","ND","ND","0.2","9","22.6","80.7","0","0"],
    [24777,"2013-03-04T04:00:00","118.4","ND","21.13","ND","ND","ND","0.4","242","22.6","82","0","0"],
    [24778,"2013-03-04T05:00:00","53.2","ND","18.71","ND","ND","ND","0.2","268.4","22.1","87.9","0","0"],
    [24779,"2013-03-04T06:00:00","14.5","ND","17.94","ND","ND","ND","0.5","237.9","22.1","89.1","0","0"],
    [24780,"2013-03-04T07:00:00","9","ND","21.68","ND","ND","ND","0.3","259.8","22.2","87.8","16.7","0"],
    [24781,"2013-03-04T08:00:00","28.2","ND","33.48","ND","ND","ND","0.6","127.8","22.9","84.4","66","0"],
    [24782,"2013-03-04T09:00:00","28","ND","50.13","ND","ND","ND","0.3","212.2","23.5","80.3","83.9","0"],
    [24783,"2013-03-04T10:00:00","15.3","ND","59.51","ND","ND","ND","0.1","192.5","24.2","75.2","121.9","0"],
    [24784,"2013-03-04T11:00:00","20.9","ND","64.00","ND","ND","ND","0.6","23.2","24.9","74.1","194.4","0"],
    [24785,"2013-03-04T12:00:00","29","ND","62.35","ND","ND","ND","1.1","48.2","25.4","72","197.1","0"],
    [24786,"2013-03-04T13:00:00","17.3","ND","47.99","ND","ND","ND","1.3","46","25.5","71.7","191.4","0"],
    [24787,"2013-03-04T14:00:00","23.7","ND","40.62","ND","ND","ND","0.3","323","26.9","65.2","476.8","0"],
    [24788,"2013-03-04T15:00:00","12.6","ND","29.23","ND","ND","ND","1","92.1","28.1","59","426.7","0"],
    [24789,"2013-03-04T16:00:00","17.4","ND","18.40","ND","ND","ND","1.1","121.6","28","58.5","166.1","0"],
    [24790,"2013-03-04T17:00:00","11.3","ND","27.62","ND","ND","ND","0.6","91","27.8","58.8","71.9","0"],
    [24791,"2013-03-04T18:00:00","13.1","ND","44.33","ND","ND","ND","1.2","153.6","27.4","61.9","19","0"],
    [24792,"2013-03-04T19:00:00","8.4","ND","77.66","ND","ND","ND","1.1","168","26.9","65.5","0.9","0"],
    [24793,"2013-03-04T20:00:00","19.3","ND","80.80","ND","ND","ND","0.2","154.1","26.2","70","0","0"],
    [24794,"2013-03-04T21:00:00","11.9","ND","86.82","ND","ND","ND","0.2","249.8","25.5","74.3","0","0"],
    [24795,"2013-03-04T22:00:00","33.4","ND","67.17","ND","ND","ND","0.3","342.8","24.7","77.2","0","0"],
    [24796,"2013-03-04T23:00:00","26.7","ND","46.86","ND","ND","ND","0.6","335.3","24.5","75.3","0","0"],
    [24797,"2013-03-05T00:00:00","52.6","ND","43.87","ND","ND","ND","0.5","259.1","24.4","77.6","0","0"],
    [24798,"2013-03-05T01:00:00","29.8","ND","36.57","ND","ND","ND","0.3","277.9","24.5","75","0","0"],
    [24799,"2013-03-05T02:00:00","26.5","ND","42.10","ND","ND","ND","0.2","125","23.3","81.5","0","0.25"],
    [24800,"2013-03-05T03:00:00","22","ND","37.85","ND","ND","ND","0.4","0.8","22.9","83.4","0.2","0"],
    [24801,"2013-03-05T04:00:00","31.5","ND","28.39","ND","ND","ND","0.4","254.3","22.3","84.4","0","0"],
    [24802,"2013-03-05T05:00:00","33.2","ND","23.96","ND","ND","ND","0.3","287.7","22","85.6","0","0"],
    [24803,"2013-03-05T06:00:00","21.1","ND","27.14","ND","ND","ND","0.1","234.4","21.9","86.3","0","0"],
    [24804,"2013-03-05T07:00:00","13.5","ND","34.51","ND","ND","ND","0.3","11.4","21.7","86.5","9","0"],
    [24805,"2013-03-05T08:00:00","67.7","ND","49.31","ND","ND","ND","0.4","115.8","22.5","84.8","169.7","0"],
    [24806,"2013-03-05T09:00:00","57.9","ND","82.35","ND","ND","ND","1.3","136.9","24.6","76.4","370","0"],
    [24807,"2013-03-05T10:00:00","40.8","ND","38.98","ND","ND","ND","1.4","163.8","26.5","66.6","612","0"],
    [24808,"2013-03-05T11:00:00","29","ND","19.63","ND","ND","ND","1.7","123.6","28.5","59.3","778.2","0"],
    [24809,"2013-03-05T12:00:00","16.9","ND","14.44","ND","ND","ND","1.4","147.9","29.7","53.9","585.4","0"],
    [24810,"2013-03-05T13:00:00","18.2","ND","14.94","ND","ND","ND","0.1","148.6","30.9","50.2","770.4","0"],
    [24811,"2013-03-05T14:00:00","11.7","ND","13.94","ND","ND","ND","0.7","25.7","32","47.5","815.1","0"],
    [24812,"2013-03-05T15:00:00","20.3","ND","20.23","ND","ND","ND","1.4","10.8","32.2","46.5","369.6","0"],
    [24813,"2013-03-05T16:00:00","13.5","ND","12.07","ND","ND","ND","2.9","274.9","32.6","44.9","541.1","0"],
    [24814,"2013-03-05T17:00:00","7.6","ND","12.90","ND","ND","ND","2.9","276.8","31.6","46.4","323.8","0"],
    [24815,"2013-03-05T18:00:00","7.4","ND","16.61","ND","ND","ND","2.4","267.7","30.5","48","88.6","0"],
    [24816,"2013-03-05T19:00:00","4.9","ND","23.24","ND","ND","ND","0.8","262.2","29.4","49.9","2.4","0"],
    [24817,"2013-03-05T20:00:00","11","ND","40.04","ND","ND","ND","1","105.1","28.8","52.8","0","0"],
    [24818,"2013-03-05T21:00:00","40.3","ND","54.98","ND","ND","ND","0.8","137.8","28.2","55.4","0","0"],
    [24819,"2013-03-05T22:00:00","26.4","ND","38.01","ND","ND","ND","0.7","84.7","27.1","60.1","0","0"],
    [24820,"2013-03-05T23:00:00","14.3","ND","34.94","ND","ND","ND","0.8","133.6","26.3","64.4","0.1","0"],
    [24821,"2013-03-06T00:00:00","8.6","ND","25.54","ND","ND","ND","0.6","151.4","25.5","68.2","0","0"],
    [24822,"2013-03-06T01:00:00","7.6","ND","24.78","ND","ND","ND","0.9","97.6","24.9","71.5","0","0"],
    [24823,"2013-03-06T02:00:00","6.7","ND","17.64","ND","ND","ND","0.3","162.4","24.5","74.2","0","0"],
    [24824,"2013-03-06T03:00:00","3.8","ND","16.51","ND","ND","ND","0.3","204.8","24.6","73.6","0","0"],
    [24825,"2013-03-06T04:00:00","9.3","ND","15.58","ND","ND","ND","0.4","162.6","24.7","73.2","0","0"],
    [24826,"2013-03-06T05:00:00","18","ND","23.49","ND","ND","ND","0.7","76.5","24.1","76.2","0","0"],
    [24827,"2013-03-06T06:00:00","16.7","ND","20.76","ND","ND","ND","0.5","137.6","23.5","79","0","0"],
    [24828,"2013-03-06T07:00:00","11.3","ND","22.47","ND","ND","ND","0.1","244.5","23.3","82.6","6","0"],
    [24829,"2013-03-06T08:00:00","5.6","ND","27.58","ND","ND","ND","0.2","226","23.4","84.2","49.4","0"],
    [24830,"2013-03-06T09:00:00","17.5","ND","39.50","ND","ND","ND","1.4","162","24.6","76.2","239.7","0"],
    [24831,"2013-03-06T10:00:00","9.7","ND","40.32","ND","ND","ND","1.4","149.3","26.9","65.3","587.7","0"],
    [24832,"2013-03-06T11:00:00","5.1","ND","26.70","ND","ND","ND","2.1","137.9","28.3","59.1","641","0"],
    [24833,"2013-03-06T12:00:00","ND","ND","ND","ND","ND","ND","ND","ND","ND","ND","ND","ND"],
    [24834,"2013-03-06T13:00:00","ND","ND","ND","ND","ND","ND","ND","ND","ND","ND","ND","ND"],
    [24835,"2013-03-06T14:00:00","ND","ND","8.35","ND","ND","ND","1.6","243.1","30.8","48.4","754.9","0"],
    [24836,"2013-03-06T15:00:00","ND","ND","10.90","ND","ND","ND","2.7","254.1","29","56.8","232.8","0"],
    [24837,"2013-03-06T16:00:00","ND","ND","13.60","ND","ND","ND","1.6","261.7","29.2","52.9","158.7","0"],
    [24838,"2013-03-06T17:00:00","ND","ND","13.13","ND","ND","ND","0.6","221.4","29.5","49.8","149.1","0"],
    [24839,"2013-03-06T18:00:00","ND","ND","16.31","ND","ND","ND","2.1","271.1","28.2","53","19.1","0"],
    [24840,"2013-03-06T19:00:00","ND","ND","18.26","ND","ND","ND","0.2","60.6","28","53.8","0.5","0"],
    [24841,"2013-03-06T20:00:00","ND","ND","29.63","ND","ND","ND","1.3","200.2","27.5","54.6","0","0"],
    [24842,"2013-03-06T21:00:00","ND","ND","24.76","ND","ND","ND","0.3","120.2","26.7","56.2","0","0"],
    [24843,"2013-03-06T22:00:00","ND","ND","21.11","ND","ND","ND","0.6","250.1","26.6","56.1","0","0"],
    [24844,"2013-03-06T23:00:00","ND","ND","26.05","ND","ND","ND","0.1","263.4","26.3","56.7","0","0"],
    [24845,"2013-03-07T00:00:00","ND","ND","7.81","ND","ND","ND","1.7","22.4","26.1","51.9","0","0"],
    [24846,"2013-03-07T01:00:00","ND","ND","14.84","ND","ND","ND","1.2","139.4","24.2","67.6","0","0"],
    [24847,"2013-03-07T02:00:00","ND","ND","13.36","ND","ND","ND","1.2","144.7","23.1","75.2","0","0"],
    [24848,"2013-03-07T03:00:00","ND","ND","12.78","ND","ND","ND","0.5","57.6","22.3","77.9","0","0"],
    [24849,"2013-03-07T04:00:00","ND","ND","10.49","ND","ND","ND","0.7","11.8","21.7","79.5","0","0"],
    [24850,"2013-03-07T05:00:00","ND","ND","23.28","ND","ND","ND","0.6","30.1","21.7","80","0","0"],
    [24851,"2013-03-07T06:00:00","ND","ND","24.42","ND","ND","ND","0.5","5.5","21.1","85.4","0","0"],
    [24852,"2013-03-07T07:00:00","ND","ND","34.32","ND","ND","ND","0.8","195.1","20.7","91.4","5.5","0"],
    [24853,"2013-03-07T08:00:00","ND","ND","42.88","ND","ND","ND","0.7","117.1","21.2","83","91.9","0"],
    [24854,"2013-03-07T09:00:00","ND","ND","44.33","ND","ND","ND","0.6","162.6","22.2","77","181","0"],
    [24855,"2013-03-07T10:00:00","ND","ND","45.42","ND","ND","ND","1.7","166.7","23.5","73.7","430.8","0"],
    [24856,"2013-03-07T11:00:00","ND","ND","29.10","ND","ND","ND","1.6","65.8","25.8","63.4","797.6","0"],
    [24857,"2013-03-07T12:00:00","ND","ND","11.61","ND","ND","ND","2.7","46.5","27.6","57.5","901.2","0.25"],
    [24858,"2013-03-07T13:00:00","ND","ND","7.64","ND","ND","ND","1.3","47.6","28.6","53.1","848.9","0"],
    [24859,"2013-03-07T14:00:00","ND","ND","5.08","ND","ND","ND","0.8","1.7","30.4","43.2","690.2","0"],
    [24860,"2013-03-07T15:00:00","ND","ND","10.37","ND","ND","ND","2.4","43.6","30.4","45.5","470.4","0"],
    [24861,"2013-03-07T16:00:00","ND","ND","13.93","ND","ND","ND","1.5","15.3","30.2","45.6","210.1","0"],
    [24862,"2013-03-07T17:00:00","ND","ND","8.82","ND","ND","ND","1.5","313.3","30.4","44.7","298.6","0"],
    [24863,"2013-03-07T18:00:00","ND","ND","16.03","ND","ND","ND","1.5","291.3","29.6","46.8","101.6","0"],
    [24864,"2013-03-07T19:00:00","ND","ND","41.65","ND","ND","ND","0.5","268.5","27.9","51.7","2.6","0"],
    [24865,"2013-03-07T20:00:00","ND","ND","42.32","ND","ND","ND","0.6","256","26.7","54.4","0","0"],
    [24866,"2013-03-07T21:00:00","ND","ND","37.49","ND","ND","ND","0.4","300.4","25.4","59.4","0","0"],
    [24867,"2013-03-07T22:00:00","ND","ND","41.15","ND","ND","ND","0.2","227.5","25.5","60.4","0","0"],
    [24868,"2013-03-07T23:00:00","ND","ND","38.07","ND","ND","ND","0.4","125.7","24.9","64.2","0","0"],
    [24869,"2013-03-08T00:00:00","ND","ND","35.32","ND","ND","ND","0.4","302.9","23.9","68.8","0","0"],
    [24870,"2013-03-08T01:00:00","ND","ND","32.49","ND","ND","ND","0.3","252.8","23.6","69.1","0","0"],
    [24871,"2013-03-08T02:00:00","ND","ND","32.39","ND","ND","ND","0.2","22.8","23.2","70.2","0","0"],
    [24872,"2013-03-08T03:00:00","ND","ND","28.90","ND","ND","ND","0.3","223","22.8","73.2","0","0"],
    [24873,"2013-03-08T04:00:00","ND","ND","27.14","ND","ND","ND","0.3","262.6","22.3","76.2","0","0"],
    [24874,"2013-03-08T05:00:00","ND","ND","26.74","ND","ND","ND","0.3","327.3","22.2","76.7","0","0"],
    [24875,"2013-03-08T06:00:00","ND","ND","27.35","ND","ND","ND","0.1","340.9","22","78.8","0","0"],
    [24876,"2013-03-08T07:00:00","ND","ND","34.81","ND","ND","ND","0.3","13.3","22","79.7","8.7","0"],
    [24877,"2013-03-08T08:00:00","ND","ND","50.87","ND","ND","ND","0.1","198.9","22.8","77.6","98.3","0"],
    [24878,"2013-03-08T09:00:00","ND","ND","85.93","ND","ND","ND","0.8","108.3","24.7","69.5","249.6","0"],
    [24879,"2013-03-08T10:00:00","ND","ND","61.29","ND","ND","ND","0.6","86.8","25.3","68.3","303.5","0"],
    [24880,"2013-03-08T11:00:00","ND","ND","48.88","ND","ND","ND","0.5","129.1","27.9","57.5","792.5","0"],
    [24881,"2013-03-08T12:00:00","ND","ND","20.79","ND","ND","ND","1.4","142.3","29.6","51.5","801.9","0"],
    [24882,"2013-03-08T13:00:00","ND","ND","12.07","ND","ND","ND","2.1","125.4","30.5","49.2","992.4","0"],
    [24883,"2013-03-08T14:00:00","ND","ND","14.86","ND","ND","ND","1.4","73","31.6","47.4","819","0"],
    [24884,"2013-03-08T15:00:00","ND","ND","17.26","ND","ND","ND","0.8","323.3","31.5","47.2","391","0"],
    [24885,"2013-03-08T16:00:00","ND","ND","20.21","ND","ND","ND","0.9","94.1","31.6","47.6","225","0"],
    [24886,"2013-03-08T17:00:00","ND","ND","23.43","ND","ND","ND","1.6","263.6","31.4","49.1","193.9","0"],
    [24887,"2013-03-08T18:00:00","ND","ND","31.38","ND","ND","ND","1.8","251.3","29.7","52.3","32.5","0"],
    [24888,"2013-03-08T19:00:00","ND","ND","54.82","ND","ND","ND","0.1","247.1","28.9","53.9","1.9","0"],
    [24889,"2013-03-08T20:00:00","ND","ND","45.09","ND","ND","ND","1.1","248.5","28","56.8","0","0"],
    [24890,"2013-03-08T21:00:00","ND","ND","44.02","ND","ND","ND","1","111.9","27.6","58.6","0","0"],
    [24891,"2013-03-08T22:00:00","ND","ND","47.21","ND","ND","ND","0.6","180.4","26.6","63.2","0","0"],
    [24892,"2013-03-08T23:00:00","ND","ND","45.46","ND","ND","ND","0.2","274.7","25.8","66.8","0","0"],
    [24893,"2013-03-09T00:00:00","ND","ND","42.04","ND","ND","ND","0.2","48.4","25.7","67.2","0","0"],
    [24894,"2013-03-09T01:00:00","ND","ND","28.61","ND","ND","ND","0.2","107.5","24.6","73.7","0","0"],
    [24895,"2013-03-09T02:00:00","ND","ND","28.36","ND","ND","ND","0.4","238.2","24.2","75.9","0","0"],
    [24896,"2013-03-09T03:00:00","ND","ND","24.86","ND","ND","ND","0.2","196","24.3","76.1","0","0"],
    [24897,"2013-03-09T04:00:00","ND","ND","23.45","ND","ND","ND","0.2","356.9","24","77.5","0","0"],
    [24898,"2013-03-09T05:00:00","ND","ND","25.02","ND","ND","ND","0.3","267.4","23.7","79.1","0","0"],
    [24899,"2013-03-09T06:00:00","ND","ND","24.65","ND","ND","ND","0.1","296.6","23.8","79.2","0","0"],
    [24900,"2013-03-09T07:00:00","ND","ND","27.68","ND","ND","ND","0.8","24.7","23.7","79.1","6.8","0"],
    [24901,"2013-03-09T08:00:00","ND","ND","29.76","ND","ND","ND","0.4","88","23.7","79.8","58.3","0"],
    [24902,"2013-03-09T09:00:00","ND","ND","34.82","ND","ND","ND","0.1","38.4","24.6","76.1","161.8","0"],
    [24903,"2013-03-09T10:00:00","ND","ND","54.05","ND","ND","ND","0.7","74.4","26.1","71","311.3","0"],
    [24904,"2013-03-09T11:00:00","ND","ND","35.49","ND","ND","ND","1","133","27.3","64.3","507.1","0"],
    [24905,"2013-03-09T12:00:00","ND","ND","24.64","ND","ND","ND","1.3","123.1","28.3","58.9","421","0"],
    [24906,"2013-03-09T13:00:00","ND","ND","17.21","ND","ND","ND","1.1","213.2","28.8","56.4","271.6","0"],
    [24907,"2013-03-09T14:00:00","ND","ND","10.03","ND","ND","ND","1.3","270.4","29.3","53.1","452.6","0"],
    [24908,"2013-03-09T15:00:00","ND","ND","10.48","ND","ND","ND","0.5","339.3","29.5","52.5","215.2","0"],
    [24909,"2013-03-09T16:00:00","ND","ND","10.39","ND","ND","ND","1","275.3","29.7","51.8","235.6","0"],
    [24910,"2013-03-09T17:00:00","ND","ND","7.55","ND","ND","ND","1.6","299.7","29.6","51.5","273.6","0"],
    [24911,"2013-03-09T18:00:00","ND","ND","12.13","ND","ND","ND","2","288.2","28.7","52.8","99.2","0"],
    [24912,"2013-03-09T19:00:00","ND","ND","19.56","ND","ND","ND","0.5","256.5","28","53.3","3.5","0"],
    [24913,"2013-03-09T20:00:00","ND","ND","31.65","ND","ND","ND","0.2","180.8","27.6","55.1","0.1","0"],
    [24914,"2013-03-09T21:00:00","ND","ND","41.18","ND","ND","ND","0.2","345.9","26.4","59.3","0","0"],
    [24915,"2013-03-09T22:00:00","ND","ND","42.31","ND","ND","ND","0.6","206.9","26.1","60.9","0","0"],
    [24916,"2013-03-09T23:00:00","ND","ND","36.57","ND","ND","ND","0.3","358.8","25.4","65.7","0","0"],
    [24917,"2013-03-10T00:00:00","ND","ND","34.98","ND","ND","ND","0.8","25.9","24.9","69.4","0","0"],
    [24918,"2013-03-10T01:00:00","ND","ND","29.17","ND","ND","ND","0.2","295.9","24.4","71.1","0","0"],
    [24919,"2013-03-10T02:00:00","ND","ND","27.83","ND","ND","ND","0.3","270.6","24.3","71.7","0","0"],
    [24920,"2013-03-10T03:00:00","ND","ND","24.28","ND","ND","ND","0.2","226.4","23.6","74.2","0","0"],
    [24921,"2013-03-10T04:00:00","ND","ND","20.68","ND","ND","ND","0.3","315.8","22.9","77.6","0","0"],
    [24922,"2013-03-10T05:00:00","ND","ND","20.58","ND","ND","ND","0.3","271.8","22.5","80.3","0","0"],
    [24923,"2013-03-10T06:00:00","ND","ND","19.73","ND","ND","ND","0.3","343.6","22.4","80.1","0","0"],
    [24924,"2013-03-10T07:00:00","ND","ND","21.20","ND","ND","ND","0.4","138.5","23","77.2","6.5","0"],
    [24925,"2013-03-10T08:00:00","ND","ND","24.65","ND","ND","ND","0.1","336.5","23.6","75.8","79.2","0"],
    [24926,"2013-03-10T09:00:00","ND","ND","31.24","ND","ND","ND","0.6","151.6","25.1","69.5","284.3","0"],
    [24927,"2013-03-10T10:00:00","ND","ND","33.57","ND","ND","ND","0.5","116","26.9","63","492.2","0"],
    [24928,"2013-03-10T11:00:00","ND","ND","24.72","ND","ND","ND","1.2","53.4","28.5","57.4","819.7","0"],
    [24929,"2013-03-10T12:00:00","ND","ND","14.99","ND","ND","ND","1.1","95","30","52.2","675","0"],
    [24930,"2013-03-10T13:00:00","ND","ND","8.49","ND","ND","ND","1.3","93.4","30.1","50.8","290.9","0"],
    [24931,"2013-03-10T14:00:00","ND","ND","5.99","ND","ND","ND","1","45.9","29.9","52.1","343.1","0"],
    [24932,"2013-03-10T15:00:00","ND","ND","6.86","ND","ND","ND","1.1","258.5","30.9","49","494.1","0"],
    [24933,"2013-03-10T16:00:00","ND","ND","7.76","ND","ND","ND","0.8","332.5","30.9","48.7","293.1","0"],
    [24934,"2013-03-10T17:00:00","ND","ND","5.32","ND","ND","ND","2.6","269.5","30.7","48.5","272.5","0"],
    [24935,"2013-03-10T18:00:00","ND","ND","8.93","ND","ND","ND","2.1","281.6","29.7","50","62.7","0"],
    [24936,"2013-03-10T19:00:00","ND","ND","23.71","ND","ND","ND","0.5","237.8","29","51.7","2.1","0"],
    [24937,"2013-03-10T20:00:00","ND","ND","44.06","ND","ND","ND","0.4","257","28","55","0","0"],
    [24938,"2013-03-10T21:00:00","ND","ND","35.74","ND","ND","ND","0.8","128.5","27.8","55.3","0","0"],
    [24939,"2013-03-10T22:00:00","ND","ND","33.03","ND","ND","ND","1.4","143.8","26.7","61.3","0.2","0"],
    [24940,"2013-03-10T23:00:00","ND","ND","27.07","ND","ND","ND","0.4","176.7","25.5","68.1","0.1","0"],
    [24941,"2013-03-11T00:00:00","ND","ND","27.71","ND","ND","ND","0.4","193.5","24.8","70","0","0"],
    [24942,"2013-03-11T01:00:00","ND","ND","26.13","ND","ND","ND","0.4","27.9","24.7","71.9","0","0"],
    [24943,"2013-03-11T02:00:00","ND","ND","22.87","ND","ND","ND","0.1","57","24.1","74.7","0","0"],
    [24944,"2013-03-11T03:00:00","ND","ND","18.91","ND","ND","ND","0.2","252","23.9","76.2","0","0"],
    [24945,"2013-03-11T04:00:00","ND","ND","16.12","ND","ND","ND","0.3","114.8","23.6","77.9","0","0"],
    [24946,"2013-03-11T05:00:00","ND","ND","15.78","ND","ND","ND","0.7","153.6","23.2","79.6","0","0"],
    [24947,"2013-03-11T06:00:00","ND","ND","16.09","ND","ND","ND","0","287.6","22.7","81.6","0","0"],
    [24948,"2013-03-11T07:00:00","ND","ND","17.01","ND","ND","ND","0.1","291.6","22.4","82.2","9.6","0"],
    [24949,"2013-03-11T08:00:00","ND","ND","25.20","ND","ND","ND","0.1","216.9","23.7","76.9","115.7","0"],
    [24950,"2013-03-11T09:00:00","ND","ND","50.62","ND","ND","ND","0.6","217.3","25.5","70.4","286.5","0"],
    [24951,"2013-03-11T10:00:00","ND","ND","43.99","ND","ND","ND","1.2","150.8","27.4","62.2","566.8","0"],
    [24952,"2013-03-11T11:00:00","ND","ND","19.25","ND","ND","ND","1.2","180.1","28.5","56.8","708","0"],
    [24953,"2013-03-11T12:00:00","ND","ND","17.02","ND","ND","ND","0.1","62.7","29.9","53.4","524.2","0"],
    [24954,"2013-03-11T13:00:00","ND","ND","17.12","ND","ND","ND","0.2","289.4","31.4","48.2","674.4","0"],
    [24955,"2013-03-11T14:00:00","ND","ND","8.06","ND","ND","ND","1.4","283.3","32","44.1","614.9","0"],
    [24956,"2013-03-11T15:00:00","ND","ND","9.25","ND","ND","ND","2.7","286.6","32.4","42.4","621.1","0"],
    [24957,"2013-03-11T16:00:00","ND","ND","8.73","ND","ND","ND","4","285","31.8","43.8","541.8","0"],
    [24958,"2013-03-11T17:00:00","ND","ND","8.79","ND","ND","ND","4.8","286.7","30.7","45.9","315.5","0"],
    [24959,"2013-03-11T18:00:00","ND","ND","7.98","ND","ND","ND","4","286.2","29.8","47","102.8","0"],
    [24960,"2013-03-11T19:00:00","ND","ND","8.15","ND","ND","ND","2.8","288.5","28.9","50.2","2.4","0"],
    [24961,"2013-03-11T20:00:00","ND","ND","14.48","ND","ND","ND","0.7","174.9","28.4","53.7","0","0"],
    [24962,"2013-03-11T21:00:00","ND","ND","5.80","ND","ND","ND","2.4","242.8","27","60","0","0"],
    [24963,"2013-03-11T22:00:00","ND","ND","7.32","ND","ND","ND","2.3","197.4","26.4","62.5","0","0"],
    [24964,"2013-03-11T23:00:00","ND","ND","15.42","ND","ND","ND","1.2","153.3","26.3","64.4","0","0"],
    [24965,"2013-03-12T00:00:00","ND","ND","21.20","ND","ND","ND","0.8","103.9","25.2","74.2","0","0"],
    [24966,"2013-03-12T01:00:00","ND","ND","14.01","ND","ND","ND","1.2","16.2","24.2","79.1","0.1","0"],
    [24967,"2013-03-12T02:00:00","ND","ND","17.01","ND","ND","ND","0.9","32","23.4","83.7","0.1","0"],
    [24968,"2013-03-12T03:00:00","ND","ND","16.75","ND","ND","ND","0.4","1.6","23.2","84.8","0","0"],
    [24969,"2013-03-12T04:00:00","ND","ND","17.88","ND","ND","ND","0.3","295.2","23.3","82.9","0","0"],
    [24970,"2013-03-12T05:00:00","ND","ND","15.68","ND","ND","ND","0.3","327.4","23.1","82.8","0","0"],
    [24971,"2013-03-12T06:00:00","ND","ND","16.61","ND","ND","ND","0.4","86","23.2","80.8","0.1","0"],
    [24972,"2013-03-12T07:00:00","ND","ND","18.09","ND","ND","ND","0.7","10.9","22.7","83.9","7.6","0"],
    [24973,"2013-03-12T08:00:00","ND","ND","21.96","ND","ND","ND","0.4","24.1","22.9","86.1","81.9","0"],
    [24974,"2013-03-12T09:00:00","ND","ND","29.14","ND","ND","ND","0.5","214.7","24.6","76.5","299","0"],
    [24975,"2013-03-12T10:00:00","ND","ND","23.30","ND","ND","ND","0.9","64.2","27.2","62.4","469.5","0"],
    [24976,"2013-03-12T11:00:00","ND","ND","27.28","ND","ND","ND","0.2","103.9","27.6","62.2","602.2","0"],
    [24977,"2013-03-12T12:00:00","ND","ND","25.11","ND","ND","ND","0.6","184.6","29.1","56.6","532.6","0"],
    [24978,"2013-03-12T13:00:00","ND","ND","16.50","ND","ND","ND","0.4","51.8","29.9","52.3","671.7","0"],
    [24979,"2013-03-12T14:00:00","ND","ND","16.72","ND","ND","ND","1.4","305.7","30.8","50","371.8","0"],
    [24980,"2013-03-12T15:00:00","ND","ND","11.74","ND","ND","ND","1.6","289.2","31","48","426.7","0"],
    [24981,"2013-03-12T16:00:00","ND","ND","10.42","ND","ND","ND","2.5","280.5","31.1","46.9","359.3","0"],
    [24982,"2013-03-12T17:00:00","ND","ND","12.50","ND","ND","ND","2","278.5","30.8","47.3","183.3","0"],
    [24983,"2013-03-12T18:00:00","ND","ND","16.73","ND","ND","ND","2.2","274.3","29.9","48.1","76.8","0"],
    [24984,"2013-03-12T19:00:00","ND","ND","24.53","ND","ND","ND","0.1","16.9","29","50.8","2.4","0"],
    [24985,"2013-03-12T20:00:00","ND","ND","41.68","ND","ND","ND","0.6","109.2","28.4","54.2","0","0"],
    [24986,"2013-03-12T21:00:00","ND","ND","36.45","ND","ND","ND","0.3","178.4","28","55.4","0","0"],
    [24987,"2013-03-12T22:00:00","ND","ND","34.62","ND","ND","ND","1.4","136.1","27.5","58.8","0","0"],
    [24988,"2013-03-12T23:00:00","ND","ND","29.69","ND","ND","ND","1.1","86","26.6","63.2","0","0"],
    [24989,"2013-03-13T00:00:00","ND","ND","20.73","ND","ND","ND","0.9","139.3","26","65.8","0","0"],
    [24990,"2013-03-13T01:00:00","ND","ND","15.96","ND","ND","ND","0.7","87.1","24","82.1","0","0"],
    [24991,"2013-03-13T02:00:00","ND","ND","15.05","ND","ND","ND","0.3","155.6","23.5","84.5","0","0"],
    [24992,"2013-03-13T03:00:00","ND","ND","12.53","ND","ND","ND","0.6","139.6","23.8","82.4","0","0"],
    [24993,"2013-03-13T04:00:00","ND","ND","8.49","ND","ND","ND","1.8","164.6","22.3","91.5","0","3.3"],
    [24994,"2013-03-13T05:00:00","ND","ND","7.99","ND","ND","ND","0.7","166.9","21.7","95.9","0","1.78"],
    [24995,"2013-03-13T06:00:00","ND","ND","11.46","ND","ND","ND","0.5","333.4","22.2","94.2","0","0"],
    [24996,"2013-03-13T07:00:00","ND","ND","12.74","ND","ND","ND","0.5","185.7","22.6","92.5","5.5","0"],
    [24997,"2013-03-13T08:00:00","ND","ND","16.57","ND","ND","ND","1.5","169.6","22.5","90.9","19.9","0"],
    [24998,"2013-03-13T09:00:00","ND","ND","21.84","ND","ND","ND","0.7","179.9","23.1","85.1","88.7","0.25"],
    [24999,"2013-03-13T10:00:00","ND","ND","36.70","ND","ND","ND","1","124.1","24.2","81.2","196","0"],
    [25000,"2013-03-13T11:00:00","ND","ND","31.32","ND","ND","ND","1.4","142.4","24.6","79.5","487.7","0"],
    [25001,"2013-03-13T12:00:00","ND","ND","20.03","ND","ND","ND","1.2","124.2","26.3","68.1","687.4","0"],
    [25002,"2013-03-13T13:00:00","ND","ND","20.66","ND","ND","ND","0.6","109.7","28.3","60.7","982.9","0"],
    [25003,"2013-03-13T14:00:00","ND","ND","22.72","ND","ND","ND","0.6","95.3","29.4","56.2","420.3","0"],
    [25004,"2013-03-13T15:00:00","ND","ND","19.57","ND","ND","ND","0.3","34.9","29.4","54.2","371.7","0"],
    [25005,"2013-03-13T16:00:00","ND","ND","12.65","ND","ND","ND","3.3","280.4","28.4","52.9","203.5","0"],
    [25006,"2013-03-13T17:00:00","ND","ND","12.58","ND","ND","ND","3","282.2","28.2","53.3","152.5","0"],
    [25007,"2013-03-13T18:00:00","ND","ND","23.73","ND","ND","ND","2.2","117.3","26.7","65.4","25.9","0"],
    [25008,"2013-03-13T19:00:00","ND","ND","35.77","ND","ND","ND","0.9","238.6","25.2","72.3","2.2","0"],
    [25009,"2013-03-13T20:00:00","ND","ND","27.92","ND","ND","ND","0.4","4.9","24.7","72.5","0","0"],
    [25010,"2013-03-13T21:00:00","ND","ND","26.30","ND","ND","ND","0","137.7","24.4","73.4","0","0"],
    [25011,"2013-03-13T22:00:00","ND","ND","23.66","ND","ND","ND","1.7","118.7","25.1","68.8","0","0"],
    [25012,"2013-03-13T23:00:00","ND","ND","20.89","ND","ND","ND","0.8","104.6","23.9","78.9","0","0"],
    [25013,"2013-03-14T00:00:00","ND","ND","24.75","ND","ND","ND","1.2","158.7","23.9","78.9","0","0"],
    [25014,"2013-03-14T01:00:00","ND","ND","20.55","ND","ND","ND","0.4","248.2","23.7","79.6","0","0"],
    [25015,"2013-03-14T02:00:00","ND","ND","20.05","ND","ND","ND","0.6","164.9","23.5","83.1","0","0"],
    [25016,"2013-03-14T03:00:00","ND","ND","17.78","ND","ND","ND","0.2","61.1","23.1","83.9","0","0"],
    [25017,"2013-03-14T04:00:00","ND","ND","15.89","ND","ND","ND","0.3","280.4","22.5","87.3","0","0"],
    [25018,"2013-03-14T05:00:00","ND","ND","12.71","ND","ND","ND","0.4","282.6","22.3","87.2","0","0"],
    [25019,"2013-03-14T06:00:00","ND","ND","11.81","ND","ND","ND","0.2","326.3","22.3","86.3","0","0"],
    [25020,"2013-03-14T07:00:00","ND","ND","16.70","ND","ND","ND","0.2","77.5","22.5","84.4","16.5","0"],
    [25021,"2013-03-14T08:00:00","ND","ND","21.69","ND","ND","ND","1.7","144.2","23.6","81.8","146.2","0"],
    [25022,"2013-03-14T09:00:00","ND","ND","16.94","ND","ND","ND","1.6","148.1","23.8","79.4","179.9","0"],
    [25023,"2013-03-14T10:00:00","ND","ND","17.10","ND","ND","ND","1.6","195.5","24.6","76.1","222.9","0"],
    [25024,"2013-03-14T11:00:00","ND","ND","21.76","ND","ND","ND","1.4","176.5","25.6","69.7","381.8","0"],
    [25025,"2013-03-14T12:00:00","ND","ND","20.60","ND","ND","ND","1.5","163.6","27.9","59.1","841.7","0"],
    [25026,"2013-03-14T13:00:00","ND","ND","34.50","ND","ND","ND","1.2","168.3","29.1","54.6","826.5","0"],
    [25027,"2013-03-14T14:00:00","ND","ND","26.64","ND","ND","ND","1.2","170.6","30","51.1","441.5","0"],
    [25028,"2013-03-14T15:00:00","ND","ND","18.00","ND","ND","ND","2.6","247.9","30.7","48.5","625.1","0"],
    [25029,"2013-03-14T16:00:00","ND","ND","10.35","ND","ND","ND","3","264.6","30.8","46.8","500.5","0"],
    [25030,"2013-03-14T17:00:00","ND","ND","14.13","ND","ND","ND","3.1","276.8","29.5","49.5","178.2","0"],
    [25031,"2013-03-14T18:00:00","ND","ND","27.87","ND","ND","ND","1.3","167.1","28.2","56.2","99.9","0"],
    [25032,"2013-03-14T19:00:00","ND","ND","33.70","ND","ND","ND","0.6","72.1","26.9","63.3","2.3","0"],
    [25033,"2013-03-14T20:00:00","ND","ND","11.63","ND","ND","ND","0.8","347","26.7","59.7","0","0"],
    [25034,"2013-03-14T21:00:00","ND","ND","21.02","ND","ND","ND","1.5","114.6","25","74.5","0","0"],
    [25035,"2013-03-14T22:00:00","ND","ND","20.16","ND","ND","ND","1.3","141.3","24.3","79.8","0","0"],
    [25036,"2013-03-14T23:00:00","ND","ND","19.40","ND","ND","ND","1.6","168","23.9","80.1","0","0"],
    [25037,"2013-03-15T00:00:00","ND","ND","18.86","ND","ND","ND","1.9","178.7","23.4","82.8","0","0"],
    [25038,"2013-03-15T01:00:00","ND","ND","8.96","ND","ND","ND","2","178.1","22.2","89.4","0","0"],
    [25039,"2013-03-15T02:00:00","ND","ND","8.77","ND","ND","ND","0.8","192.8","21.6","94.1","0","0"],
    [25040,"2013-03-15T03:00:00","ND","ND","8.23","ND","ND","ND","0.5","165.3","21.5","94.9","0","1.78"],
    [25041,"2013-03-15T04:00:00","ND","ND","8.51","ND","ND","ND","1","156.7","21.5","95.2","0","1.27"],
    [25042,"2013-03-15T05:00:00","ND","ND","9.02","ND","ND","ND","1.1","161.2","21.4","95.4","0","0.51"],
    [25043,"2013-03-15T06:00:00","ND","ND","18.07","ND","ND","ND","0.6","149.7","21.4","95.7","0","0.25"],
    [25044,"2013-03-15T07:00:00","ND","ND","22.31","ND","ND","ND","0.1","334.6","21.4","95.9","1.4","10.16"],
    [25045,"2013-03-15T08:00:00","ND","ND","20.66","ND","ND","ND","0.2","33.1","21.2","97.3","9.8","6.6"],
    [25046,"2013-03-15T09:00:00","ND","ND","43.41","ND","ND","ND","1","43.9","21","98.1","9.7","15.24"],
    [25047,"2013-03-15T10:00:00","ND","ND","24.57","ND","ND","ND","1","2.2","20.8","99.2","51","8.64"],
    [25048,"2013-03-15T11:00:00","ND","ND","21.49","ND","ND","ND","0.5","15","21.1","98.5","112.6","5.59"],
    [25049,"2013-03-15T12:00:00","ND","ND","25.88","ND","ND","ND","0.6","50.9","21.8","95.1","170.6","2.03"],
    [25050,"2013-03-15T13:00:00","ND","ND","26.43","ND","ND","ND","1.2","62.8","22.3","91.2","330","0.76"],
    [25051,"2013-03-15T14:00:00","ND","ND","20.53","ND","ND","ND","1","93.4","23.6","83.1","285.8","0"],
    [25052,"2013-03-15T15:00:00","ND","ND","30.71","ND","ND","ND","0.5","217.6","24.2","81","178","0.25"],
    [25053,"2013-03-15T16:00:00","ND","ND","38.68","ND","ND","ND","0.4","272.4","24.5","78.8","165.5","0"],
    [25054,"2013-03-15T17:00:00","ND","ND","23.34","ND","ND","ND","1","311.2","25.5","72.6","251.7","0"],
    [25055,"2013-03-15T18:00:00","ND","ND","32.19","ND","ND","ND","0.8","348.9","24.7","77.3","47.8","0"],
    [25056,"2013-03-15T19:00:00","ND","ND","34.02","ND","ND","ND","1","314.3","23.7","81.4","1.9","0"],
    [25057,"2013-03-15T20:00:00","ND","ND","28.14","ND","ND","ND","0.3","289.4","22.8","85.7","0","0"],
    [25058,"2013-03-15T21:00:00","ND","ND","23.10","ND","ND","ND","0.3","256.4","22.2","89.5","0","0"],
    [25059,"2013-03-15T22:00:00","ND","ND","24.63","ND","ND","ND","0.5","254.2","22","88.8","0","0"],
    [25060,"2013-03-15T23:00:00","ND","ND","22.71","ND","ND","ND","0","296.4","22","85.6","0","0"],
    [25061,"2013-03-16T00:00:00","ND","ND","19.69","ND","ND","ND","0.2","209.9","21.7","88.2","0","0"],
    [25062,"2013-03-16T01:00:00","ND","ND","18.97","ND","ND","ND","0.1","83.7","21.6","87.1","0","0"],
    [25063,"2013-03-16T02:00:00","ND","ND","19.46","ND","ND","ND","0.2","39.3","21.4","90.5","0","0"],
    [25064,"2013-03-16T03:00:00","ND","ND","39.83","ND","ND","ND","0.4","27.8","21.1","91.2","0","0"],
    [25065,"2013-03-16T04:00:00","ND","ND","42.51","ND","ND","ND","0.2","50","21","92.5","0","0"],
    [25066,"2013-03-16T05:00:00","ND","ND","29.18","ND","ND","ND","0.1","267.8","21.1","91.1","0","0"],
    [25067,"2013-03-16T06:00:00","ND","ND","32.99","ND","ND","ND","0.8","49.5","20.6","92.7","0","0"],
    [25068,"2013-03-16T07:00:00","ND","ND","22.89","ND","ND","ND","0.6","54.8","20.2","93.7","12","0"],
    [25069,"2013-03-16T08:00:00","ND","ND","18.33","ND","ND","ND","0.5","46.9","21.1","89.1","111.1","0"],
    [25070,"2013-03-16T09:00:00","ND","ND","28.37","ND","ND","ND","0.3","93.4","22.7","82.5","197.1","0"],
    [25071,"2013-03-16T10:00:00","ND","ND","31.42","ND","ND","ND","0.6","138.3","24.7","73.4","518.9","0"],
    [25072,"2013-03-16T11:00:00","ND","ND","42.92","ND","ND","ND","0.5","151.2","26.7","66.2","608.3","0"],
    [25073,"2013-03-16T12:00:00","ND","ND","40.51","ND","ND","ND","1.4","90.8","27.1","65","431.7","0"],
    [25074,"2013-03-16T13:00:00","ND","ND","28.47","ND","ND","ND","0.7","54","27.5","62.7","440.9","0"],
    [25075,"2013-03-16T14:00:00","ND","ND","22.42","ND","ND","ND","0.7","60.3","28.9","57.8","665","0"],
    [25076,"2013-03-16T15:00:00","ND","ND","27.63","ND","ND","ND","0.9","26.1","29.7","55","606.6","0"],
    [25077,"2013-03-16T16:00:00","ND","ND","21.59","ND","ND","ND","1.7","344","30.1","53","405.6","0"],
    [25078,"2013-03-16T17:00:00","ND","ND","16.33","ND","ND","ND","1.6","265.8","30.2","51.3","287","0"],
    [25079,"2013-03-16T18:00:00","ND","ND","19.18","ND","ND","ND","1.4","251.8","28.9","54","65.2","0"],
    [25080,"2013-03-16T19:00:00","ND","ND","24.69","ND","ND","ND","0.2","202.3","28","56.4","1.8","0"],
    [25081,"2013-03-16T20:00:00","ND","ND","22.18","ND","ND","ND","0.2","80.8","27.5","58.3","0","0"],
    [25082,"2013-03-16T21:00:00","ND","ND","21.21","ND","ND","ND","0.8","153.1","27.1","60.7","0","0"],
    [25083,"2013-03-16T22:00:00","ND","ND","16.70","ND","ND","ND","0.4","57.2","25.5","71.1","0","0"],
    [25084,"2013-03-16T23:00:00","ND","ND","13.89","ND","ND","ND","0.4","325.8","25.1","73.1","0","0"],
    [25085,"2013-03-17T00:00:00","ND","ND","11.57","ND","ND","ND","0","201.5","24.6","76.1","0","0"],
    [25086,"2013-03-17T01:00:00","ND","ND","9.75","ND","ND","ND","0.2","7.8","23.8","79.8","0","0"],
    [25087,"2013-03-17T02:00:00","ND","ND","8.81","ND","ND","ND","0.5","204","23.6","80.8","0","0"],
    [25088,"2013-03-17T03:00:00","ND","ND","9.63","ND","ND","ND","0.2","54.1","23.5","80.6","0","0"],
    [25089,"2013-03-17T04:00:00","ND","ND","8.47","ND","ND","ND","0.2","104.3","23.4","80.8","0","0"],
    [25090,"2013-03-17T05:00:00","ND","ND","8.33","ND","ND","ND","0.3","252","23.1","83.6","0","0"],
    [25091,"2013-03-17T06:00:00","ND","ND","6.96","ND","ND","ND","0.6","287","22.9","84.5","0","0"],
    [25092,"2013-03-17T07:00:00","ND","ND","7.81","ND","ND","ND","0.3","141.2","23.4","82","10.8","0"],
    [25093,"2013-03-17T08:00:00","ND","ND","8.47","ND","ND","ND","0.6","120.8","23.5","83.7","97.7","0"],
    [25094,"2013-03-17T09:00:00","ND","ND","14.63","ND","ND","ND","1.1","134.3","24.1","81","114.5","0"],
    [25095,"2013-03-17T10:00:00","ND","ND","8.05","ND","ND","ND","0.9","161","24.6","77.5","226.5","0"],
    [25096,"2013-03-17T11:00:00","ND","ND","10.36","ND","ND","ND","0.5","181.2","25.1","76.3","227.1","0"],
    [25097,"2013-03-17T12:00:00","ND","ND","8.29","ND","ND","ND","1.8","221.4","26.5","70","700.5","0"],
    [25098,"2013-03-17T13:00:00","ND","ND","11.75","ND","ND","ND","1.5","168.1","28.7","56.9","830.2","0"],
    [25099,"2013-03-17T14:00:00","ND","ND","7.74","ND","ND","ND","2.8","289.3","27.2","61.5","157.6","0"],
    [25100,"2013-03-17T15:00:00","ND","ND","13.45","ND","ND","ND","0.9","123.2","24.7","76.6","79.9","0"],
    [25101,"2013-03-17T16:00:00","ND","ND","23.88","ND","ND","ND","1.1","111.1","25.2","73.8","118.3","0"],
    [25102,"2013-03-17T17:00:00","ND","ND","27.17","ND","ND","ND","0.8","73.4","25.3","73.9","56.4","0"],
    [25103,"2013-03-17T18:00:00","ND","ND","20.17","ND","ND","ND","1.8","151","25","75","29.5","0"],
    [25104,"2013-03-17T19:00:00","ND","ND","21.19","ND","ND","ND","0.9","183.2","24","78.5","1.1","0"],
    [25105,"2013-03-17T20:00:00","ND","ND","23.11","ND","ND","ND","0.4","264.9","23.8","80","0","0"],
    [25106,"2013-03-17T21:00:00","ND","ND","16.23","ND","ND","ND","0.9","16.1","23.6","79.4","0","0"],
    [25107,"2013-03-17T22:00:00","ND","ND","16.11","ND","ND","ND","0.6","70","23.4","80.6","0","0"],
    [25108,"2013-03-17T23:00:00","ND","ND","8.60","ND","ND","ND","1.1","50.9","22.8","82.3","0","0"],
    [25109,"2013-03-18T00:00:00","ND","ND","11.00","ND","ND","ND","1.1","43.7","22","87.1","0","0"],
    [25110,"2013-03-18T01:00:00","ND","ND","7.21","ND","ND","ND","0.3","77.7","21","93.1","0","0"],
    [25111,"2013-03-18T02:00:00","ND","ND","6.43","ND","ND","ND","0.5","49","20.9","93.3","0","0"],
    [25112,"2013-03-18T03:00:00","ND","ND","5.31","ND","ND","ND","1.5","21.5","20","92.1","0","0"],
    [25113,"2013-03-18T04:00:00","ND","ND","12.44","ND","ND","ND","0.5","88.6","20","90.7","0","0"],
    [25114,"2013-03-18T05:00:00","ND","ND","9.30","ND","ND","ND","0.8","161.2","20","91.5","0","0"],
    [25115,"2013-03-18T06:00:00","ND","ND","11.42","ND","ND","ND","0.4","180.9","20.2","91.1","0","0"],
    [25116,"2013-03-18T07:00:00","ND","ND","11.94","ND","ND","ND","0.7","156.4","20.7","90.1","18.6","0"],
    [25117,"2013-03-18T08:00:00","ND","ND","15.38","ND","ND","ND","0.8","52.2","21.2","88.9","102.5","0"],
    [25118,"2013-03-18T09:00:00","ND","ND","15.22","ND","ND","ND","0.9","43.5","21.8","85.6","149.5","0"],
    [25119,"2013-03-18T10:00:00","ND","ND","23.57","ND","ND","ND","1","59.7","23","79.6","451.4","0"],
    [25120,"2013-03-18T11:00:00","ND","ND","19.32","ND","ND","ND","1.2","74.9","24.7","73","617.2","0"],
    [25121,"2013-03-18T12:00:00","ND","ND","17.18","ND","ND","ND","1.3","83.8","26.1","66.1","601.8","0"],
    [25122,"2013-03-18T13:00:00","ND","ND","18.34","ND","ND","ND","1","56.9","27.1","62","659.6","0"],
    [25123,"2013-03-18T14:00:00","ND","ND","15.02","ND","ND","ND","0.8","340.1","28.3","57.7","748.5","0"],
    [25124,"2013-03-18T15:00:00","ND","ND","12.55","ND","ND","ND","0.5","215.5","28.7","53.6","303.7","0"],
    [25125,"2013-03-18T16:00:00","ND","ND","17.62","ND","ND","ND","1","90.1","27.4","64","141.7","2.29"],
    [25126,"2013-03-18T17:00:00","ND","ND","24.47","ND","ND","ND","2","357.6","24.8","78.6","95.8","0"],
    [25127,"2013-03-18T18:00:00","ND","ND","15.88","ND","ND","ND","1.1","342.3","24.3","75.9","26.5","0"],
    [25128,"2013-03-18T19:00:00","ND","ND","18.23","ND","ND","ND","0.8","101.5","25.2","69.9","0","0.25"],
    [25129,"2013-03-18T20:00:00","ND","ND","18.42","ND","ND","ND","2","164.8","24.7","73.3","0","0"],
    [25130,"2013-03-18T21:00:00","ND","ND","23.53","ND","ND","ND","1.6","190.7","23.6","82.6","0","0"],
    [25131,"2013-03-18T22:00:00","ND","ND","19.04","ND","ND","ND","1.4","197.6","23.5","77.7","0","0"],
    [25132,"2013-03-18T23:00:00","ND","ND","49.54","ND","ND","ND","1","346.3","23.1","80.2","0","0"],
    [25133,"2013-03-19T00:00:00","ND","ND","40.40","ND","ND","ND","0.9","51.4","22.4","91.1","0","0"],
    [25134,"2013-03-19T01:00:00","ND","ND","21.65","ND","ND","ND","0.9","41.2","21.6","95","0","2.29"],
    [25135,"2013-03-19T02:00:00","ND","ND","15.97","ND","ND","ND","0.9","95.5","21.2","96.5","0","3.56"],
    [25136,"2013-03-19T03:00:00","ND","ND","9.36","ND","ND","ND","1.3","161.4","20.7","94.3","0","0.25"],
    [25137,"2013-03-19T04:00:00","ND","ND","5.98","ND","ND","ND","1","180.7","20.7","94.1","0","3.05"],
    [25138,"2013-03-19T05:00:00","ND","ND","6.47","ND","ND","ND","0.3","44.3","20.5","95.6","0","2.03"],
    [25139,"2013-03-19T06:00:00","ND","ND","40.13","ND","ND","ND","0.8","45.1","20.4","96.7","0","0"],
    [25140,"2013-03-19T07:00:00","ND","ND","43.35","ND","ND","ND","0.3","26.3","20.4","97","8","0.25"],
    [25141,"2013-03-19T08:00:00","ND","ND","27.94","ND","ND","ND","0.6","44.6","20.7","96.5","47.7","0"],
    [25142,"2013-03-19T09:00:00","ND","ND","23.95","ND","ND","ND","0.5","98.4","21.2","93.8","160.6","0"],
    [25143,"2013-03-19T10:00:00","ND","ND","22.75","ND","ND","ND","1","61.3","22.1","88.7","169.1","0"],
    [25144,"2013-03-19T11:00:00","ND","ND","16.78","ND","ND","ND","0.4","7","23","83","306","0"],
    [25145,"2013-03-19T12:00:00","ND","ND","18.97","ND","ND","ND","0.4","338.9","24.8","72.9","499.9","0"],
    [25146,"2013-03-19T13:00:00","ND","ND","17.89","ND","ND","ND","1","132.9","27.2","59.1","858.2","0"],
    [25147,"2013-03-19T14:00:00","ND","ND","68.30","ND","ND","ND","1.4","55.7","28.7","54.5","900.2","0"],
    [25148,"2013-03-19T15:00:00","ND","ND","64.22","ND","ND","ND","1.1","46","29.4","53.6","664.5","0"],
    [25149,"2013-03-19T16:00:00","ND","ND","32.78","ND","ND","ND","1.2","358.6","29.6","51.8","360.2","0"],
    [25150,"2013-03-19T17:00:00","ND","ND","21.46","ND","ND","ND","1.6","335.2","30.1","47.6","328.9","0"],
    [25151,"2013-03-19T18:00:00","ND","ND","15.86","ND","ND","ND","2.1","260.8","28.3","52.5","95.1","0"],
    [25152,"2013-03-19T19:00:00","ND","ND","16.20","ND","ND","ND","0.3","236.1","27.1","54.4","0","0"],
    [25153,"2013-03-19T20:00:00","ND","ND","19.25","ND","ND","ND","0.3","116.3","26.8","56.4","0","0"],
    [25154,"2013-03-19T21:00:00","ND","ND","17.21","ND","ND","ND","1.8","129.6","26.3","60.8","0","0"],
    [25155,"2013-03-19T22:00:00","ND","ND","20.79","ND","ND","ND","0.1","320","25","70.1","0","0"],
    [25156,"2013-03-19T23:00:00","ND","ND","21.53","ND","ND","ND","0.8","191.1","24.5","72","0","0"],
    [25157,"2013-03-20T00:00:00","ND","ND","18.87","ND","ND","ND","0.8","246.9","24.1","72.9","0","0"],
    [25158,"2013-03-20T01:00:00","ND","ND","15.18","ND","ND","ND","0.2","287.6","23.9","74.4","0","0"],
    [25159,"2013-03-20T02:00:00","ND","ND","12.71","ND","ND","ND","0.4","80.4","23.5","78","0","0"],
    [25160,"2013-03-20T03:00:00","ND","ND","9.87","ND","ND","ND","0.5","180.4","22.9","82.7","0","0"],
    [25161,"2013-03-20T04:00:00","ND","ND","8.22","ND","ND","ND","0.2","322.1","22.7","84.5","0","0"],
    [25162,"2013-03-20T05:00:00","ND","ND","11.29","ND","ND","ND","0.4","116.7","22.8","83.8","0","0"],
    [25163,"2013-03-20T06:00:00","ND","ND","26.69","ND","ND","ND","0.6","143.5","22.7","82.6","0","0"],
    [25164,"2013-03-20T07:00:00","ND","ND","46.77","ND","ND","ND","0.9","160.1","22.5","82.4","5.9","0"],
    [25165,"2013-03-20T08:00:00","ND","ND","22.79","ND","ND","ND","0.4","282.2","22.6","82.7","36.7","0"],
    [25166,"2013-03-20T09:00:00","ND","ND","26.25","ND","ND","ND","0.8","52.1","23.5","80.9","127.5","0"],
    [25167,"2013-03-20T10:00:00","ND","ND","34.71","ND","ND","ND","0.7","354.4","25.3","73.6","540.5","0"],
    [25168,"2013-03-20T11:00:00","ND","ND","22.84","ND","ND","ND","1.1","84.8","27.4","63.5","876.3","0"],
    [25169,"2013-03-20T12:00:00","ND","ND","70.37","ND","ND","ND","0.5","75.2","28","59.4","318.1","0"],
    [25170,"2013-03-20T13:00:00","ND","ND","58.54","ND","ND","ND","0.3","66.3","29.2","54.2","796.6","0"],
    [25171,"2013-03-20T14:00:00","ND","ND","39.26","ND","ND","ND","1.6","258.8","29.4","53.2","304.6","0"],
    [25172,"2013-03-20T15:00:00","ND","ND","9.43","ND","ND","ND","3","256.4","30.1","50.3","636.7","0"],
    [25173,"2013-03-20T16:00:00","ND","ND","4.85","ND","ND","ND","2.9","255.4","30.3","46.7","522.2","0"],
    [25174,"2013-03-20T17:00:00","ND","ND","8.96","ND","ND","ND","1.2","346.5","29.9","48.2","151.9","0"],
    [25175,"2013-03-20T18:00:00","ND","ND","13.04","ND","ND","ND","1.6","241.8","28.3","53.9","13.4","0"],
    [25176,"2013-03-20T19:00:00","ND","ND","21.02","ND","ND","ND","1","105.9","26.6","66.8","0","0"],
    [25177,"2013-03-20T20:00:00","ND","ND","22.45","ND","ND","ND","0.8","266.6","26.3","65.1","0","0"],
    [25178,"2013-03-20T21:00:00","ND","ND","17.32","ND","ND","ND","0.4","9.1","26.2","63.3","0","0"],
    [25179,"2013-03-20T22:00:00","ND","ND","18.70","ND","ND","ND","0.4","106.5","25","72.7","0","0"],
    [25180,"2013-03-20T23:00:00","ND","ND","18.71","ND","ND","ND","1.3","103","25.4","68.7","0","0"],
    [25181,"2013-03-21T00:00:00","ND","ND","15.08","ND","ND","ND","1.1","318.4","24.5","74.9","0","0"],
    [25182,"2013-03-21T01:00:00","ND","ND","11.67","ND","ND","ND","1.1","185.4","23.9","79.6","0","0"],
    [25183,"2013-03-21T02:00:00","ND","ND","7.43","ND","ND","ND","0.6","115.5","24","74.4","0","0"],
    [25184,"2013-03-21T03:00:00","ND","ND","9.79","ND","ND","ND","1","55.5","23.1","81.6","0","0"],
    [25185,"2013-03-21T04:00:00","ND","ND","5.66","ND","ND","ND","0.3","111.3","22.7","83.1","0","0"],
    [25186,"2013-03-21T05:00:00","ND","ND","6.59","ND","ND","ND","2.3","179.2","22.5","84.2","0","0"],
    [25187,"2013-03-21T06:00:00","ND","ND","9.87","ND","ND","ND","2.1","186.7","22.3","85.1","0","0"],
    [25188,"2013-03-21T07:00:00","ND","ND","11.22","ND","ND","ND","2.3","168.8","22","86.1","5.5","0"],
    [25189,"2013-03-21T08:00:00","ND","ND","11.41","ND","ND","ND","2.2","169.3","21.5","87.6","26.9","0"],
    [25190,"2013-03-21T09:00:00","ND","ND","94.98","ND","ND","ND","1.2","187.3","20.9","89.9","30.7","0"],
    [25191,"2013-03-21T10:00:00","ND","ND","42.99","ND","ND","ND","0.6","96.6","20.6","93.7","53.7","0"],
    [25192,"2013-03-21T11:00:00","ND","ND","23.27","ND","ND","ND","0.7","63","20.4","92.6","95.3","0"],
    [25193,"2013-03-21T12:00:00","ND","ND","23.94","ND","ND","ND","0.6","207.6","21.1","89.6","123.2","0"],
    [25194,"2013-03-21T13:00:00","ND","ND","17.33","ND","ND","ND","1.1","221.5","21.8","83.4","194.8","0"],
    [25195,"2013-03-21T14:00:00","ND","ND","11.18","ND","ND","ND","0.9","207.8","22.4","79.3","124.6","0"],
    [25196,"2013-03-21T15:00:00","ND","ND","9.79","ND","ND","ND","0.3","177.6","22.7","75","114.3","0"],
    [25197,"2013-03-21T16:00:00","ND","ND","11.82","ND","ND","ND","1.5","244.7","22.8","76","127.8","0"],
    [25198,"2013-03-21T17:00:00","ND","ND","14.63","ND","ND","ND","0.2","203.4","23.3","72.8","53.5","0"],
    [25199,"2013-03-21T18:00:00","ND","ND","22.46","ND","ND","ND","0.2","244.1","23.4","73.6","19.6","0"],
    [25200,"2013-03-21T19:00:00","ND","ND","16.68","ND","ND","ND","0.5","269.1","22.5","79.3","0","0"],
    [25201,"2013-03-21T20:00:00","ND","ND","14.71","ND","ND","ND","0.2","333.7","22","78.6","0","0"],
    [25202,"2013-03-21T21:00:00","ND","ND","18.86","ND","ND","ND","0.8","351","21.8","80.4","0","0"],
    [25203,"2013-03-21T22:00:00","ND","ND","16.65","ND","ND","ND","1.5","14.4","21.4","88.8","0","0"],
    [25204,"2013-03-21T23:00:00","ND","ND","21.46","ND","ND","ND","0.5","24","21.8","84.2","0","0"],
    [25205,"2013-03-22T00:00:00","ND","ND","69.16","ND","ND","ND","0.3","351.4","21.8","85.9","0","0"],
    [25206,"2013-03-22T01:00:00","ND","ND","34.68","ND","ND","ND","0.6","192.2","21.5","86.1","0","0"],
    [25207,"2013-03-22T02:00:00","ND","ND","21.56","ND","ND","ND","0.3","270.8","21.3","85.8","0","0"],
    [25208,"2013-03-22T03:00:00","ND","ND","15.20","ND","ND","ND","0.1","251.3","21","86.8","0","0"],
    [25209,"2013-03-22T04:00:00","ND","ND","11.68","ND","ND","ND","0.5","126","20.9","92.7","0","0"],
    [25210,"2013-03-22T05:00:00","ND","ND","9.37","ND","ND","ND","1","153.8","20.6","92.6","0","0"],
    [25211,"2013-03-22T06:00:00","ND","ND","8.24","ND","ND","ND","0.6","223.8","20.7","90.8","0","0"],
    [25212,"2013-03-22T07:00:00","ND","ND","8.08","ND","ND","ND","0.1","241.8","20.8","89.2","12.6","0"],
    [25213,"2013-03-22T08:00:00","ND","ND","13.72","ND","ND","ND","0.1","27","21.5","85.5","89.7","0"],
    [25214,"2013-03-22T09:00:00","ND","ND","28.26","ND","ND","ND","0.3","189.5","22.9","78","249.9","0"],
    [25215,"2013-03-22T10:00:00","ND","ND","38.08","ND","ND","ND","0.7","166","23.8","72.1","347.5","0"],
    [25216,"2013-03-22T11:00:00","ND","ND","34.16","ND","ND","ND","0.6","102.4","25.3","65.6","539.9","0"],
    [25217,"2013-03-22T12:00:00","ND","ND","23.09","ND","ND","ND","0.8","149.5","26.5","62.3","517","0"],
    [25218,"2013-03-22T13:00:00","ND","ND","14.05","ND","ND","ND","1.5","135","27.5","58","659","0"],
    [25219,"2013-03-22T14:00:00","ND","ND","11.81","ND","ND","ND","0.8","160.8","28.3","54","612.5","0"],
    [25220,"2013-03-22T15:00:00","ND","ND","13.29","ND","ND","ND","0.9","110.9","28.7","53.4","439.3","0"],
    [25221,"2013-03-22T16:00:00","ND","ND","15.63","ND","ND","ND","1.2","47.5","28.5","54.5","290.7","0"],
    [25222,"2013-03-22T17:00:00","ND","ND","17.35","ND","ND","ND","1.3","54.3","28","56.6","116","0"],
    [25223,"2013-03-22T18:00:00","ND","ND","16.92","ND","ND","ND","0.6","244.8","27.5","58.8","31","0"],
    [25224,"2013-03-22T19:00:00","ND","ND","29.78","ND","ND","ND","0.3","178.5","26.9","61.9","0","0"],
    [25225,"2013-03-22T20:00:00","ND","ND","17.47","ND","ND","ND","1.9","243.8","26.1","61.8","0","0"],
    [25226,"2013-03-22T21:00:00","ND","ND","18.95","ND","ND","ND","0.4","342.1","25.7","63.9","0","0"],
    [25227,"2013-03-22T22:00:00","ND","ND","21.96","ND","ND","ND","1","168.5","25.5","66.2","0","0"],
    [25228,"2013-03-22T23:00:00","ND","ND","19.59","ND","ND","ND","0.4","191.1","24.8","71.4","0","0"],
    [25229,"2013-03-23T00:00:00","ND","ND","13.56","ND","ND","ND","1.7","193","25","66.6","0","0"],
    [25230,"2013-03-23T01:00:00","ND","ND","25.07","ND","ND","ND","0.7","77.9","24.3","76","0","0"],
    [25231,"2013-03-23T02:00:00","ND","ND","38.93","ND","ND","ND","0.9","44.6","23.1","85.9","0","0"],
    [25232,"2013-03-23T03:00:00","ND","ND","20.98","ND","ND","ND","0.5","339.5","23.1","83.5","0","0"],
    [25233,"2013-03-23T04:00:00","ND","ND","17.58","ND","ND","ND","0.2","233.9","23.3","80.8","0","0"],
    [25234,"2013-03-23T05:00:00","ND","ND","17.45","ND","ND","ND","0.5","77.1","23.3","82","0","0"],
    [25235,"2013-03-23T06:00:00","ND","ND","14.33","ND","ND","ND","0.5","26","22.3","87.3","0","0"],
    [25236,"2013-03-23T07:00:00","ND","ND","35.73","ND","ND","ND","0.1","147","22.4","87.1","8.9","0"],
    [25237,"2013-03-23T08:00:00","ND","ND","23.62","ND","ND","ND","0.5","47.6","22.7","84.7","35.5","0"],
    [25238,"2013-03-23T09:00:00","ND","ND","51.29","ND","ND","ND","0.2","137.9","23.3","80.6","110.8","0"],
    [25239,"2013-03-23T10:00:00","ND","ND","73.06","ND","ND","ND","0.7","151.6","25","73.6","328","0"],
    [25240,"2013-03-23T11:00:00","ND","ND","47.49","ND","ND","ND","0.9","118.5","26.1","68","422.4","0"],
    [25241,"2013-03-23T12:00:00","ND","ND","29.39","ND","ND","ND","0.5","167.5","27","64","441.1","0"],
    [25242,"2013-03-23T13:00:00","ND","ND","21.56","ND","ND","ND","0.7","99.6","28.1","59.3","492.2","0"],
    [25243,"2013-03-23T14:00:00","ND","ND","18.02","ND","ND","ND","0.6","18.1","28.4","58.7","342.9","0"],
    [25244,"2013-03-23T15:00:00","ND","ND","17.75","ND","ND","ND","1","45.9","28.6","58.2","231.8","0"],
    [25245,"2013-03-23T16:00:00","ND","ND","13.13","ND","ND","ND","1.3","42.3","28.5","57.3","202.9","0"],
    [25246,"2013-03-23T17:00:00","ND","ND","10.90","ND","ND","ND","0.9","214.9","28.6","55","120.1","0"],
    [25247,"2013-03-23T18:00:00","ND","ND","67.61","ND","ND","ND","0.8","232.4","28","56.8","39.1","0"],
    [25248,"2013-03-23T19:00:00","ND","ND","65.25","ND","ND","ND","0.6","243","27.1","60.6","0","0"],
    [25249,"2013-03-23T20:00:00","ND","ND","38.27","ND","ND","ND","0.7","257.1","26.2","63.9","0","0"],
    [25250,"2013-03-23T21:00:00","ND","ND","26.05","ND","ND","ND","0.2","320.8","25.4","68.5","0","0"],
    [25251,"2013-03-23T22:00:00","ND","ND","22.44","ND","ND","ND","0.4","142","25.1","70.8","0","0"],
    [25252,"2013-03-23T23:00:00","ND","ND","15.79","ND","ND","ND","0.2","131","24.1","77.1","0","0"],
    [25253,"2013-03-24T00:00:00","ND","ND","15.27","ND","ND","ND","0.2","263.8","23.4","79.9","0","0"],
    [25254,"2013-03-24T01:00:00","ND","ND","13.53","ND","ND","ND","0.3","343","23.1","81.5","0","0"],
    [25255,"2013-03-24T02:00:00","ND","ND","12.70","ND","ND","ND","0.3","351.5","22.9","81.5","0","0"],
    [25256,"2013-03-24T03:00:00","ND","ND","10.80","ND","ND","ND","0.1","269.3","22.6","82.7","0","0"],
    [25257,"2013-03-24T04:00:00","ND","ND","9.77","ND","ND","ND","0.5","353.7","22.1","84.9","0","0"],
    [25258,"2013-03-24T05:00:00","ND","ND","8.13","ND","ND","ND","0.1","230.6","21.9","85.6","0","0"],
    [25259,"2013-03-24T06:00:00","ND","ND","59.00","ND","ND","ND","0.6","346.1","21.4","87.8","0","0"],
    [25260,"2013-03-24T07:00:00","ND","ND","39.96","ND","ND","ND","0.3","213.3","21.6","86.1","14.4","0"],
    [25261,"2013-03-24T08:00:00","ND","ND","22.67","ND","ND","ND","0.4","256.7","22.7","82.3","100.6","0"],
    [25262,"2013-03-24T09:00:00","ND","ND","21.40","ND","ND","ND","1.2","185","24.8","71","399.2","0"],
    [25263,"2013-03-24T10:00:00","ND","ND","18.34","ND","ND","ND","1","148.9","26.8","64.5","599.1","0"],
    [25264,"2013-03-24T11:00:00","ND","ND","9.50","ND","ND","ND","1.3","123.8","28.2","59.4","871","0"],
    [25265,"2013-03-24T12:00:00","ND","ND","9.45","ND","ND","ND","1.1","59.6","29","56.2","751.5","0"],
    [25266,"2013-03-24T13:00:00","ND","ND","8.91","ND","ND","ND","0.6","43.8","29.6","53.7","408.3","0"],
    [25267,"2013-03-24T14:00:00","ND","ND","5.51","ND","ND","ND","2.5","260.9","28.5","57.5","169.7","0"],
    [25268,"2013-03-24T15:00:00","ND","ND","2.68","ND","ND","ND","2.5","279.5","29.6","51.5","580.3","0"],
    [25269,"2013-03-24T16:00:00","ND","ND","2.55","ND","ND","ND","2.7","264.5","30.9","45.7","479","0"],
    [25270,"2013-03-24T17:00:00","ND","ND","3.17","ND","ND","ND","2.3","301.6","29.3","49.6","156.7","0"],
    [25271,"2013-03-24T18:00:00","ND","ND","4.32","ND","ND","ND","1.1","305.4","28.4","50.8","19.6","0"],
    [25272,"2013-03-24T19:00:00","ND","ND","8.32","ND","ND","ND","0.3","347.6","27.5","54.8","0","0"],
    [25273,"2013-03-24T20:00:00","ND","ND","14.15","ND","ND","ND","2.8","183.2","25.5","65.9","0","0"],
    [25274,"2013-03-24T21:00:00","ND","ND","15.89","ND","ND","ND","2.2","185","22.8","83.9","0","0"],
    [25275,"2013-03-24T22:00:00","ND","ND","20.28","ND","ND","ND","1","161.4","22.4","86.8","0","0"],
    [25276,"2013-03-24T23:00:00","ND","ND","22.02","ND","ND","ND","0.3","271.5","22.3","89.2","0","0"],
    [25277,"2013-03-25T00:00:00","ND","ND","19.07","ND","ND","ND","0.4","14","22","90.8","0","0"],
    [25278,"2013-03-25T01:00:00","ND","ND","20.08","ND","ND","ND","0.6","36.8","21.7","92.1","0","0"],
    [25279,"2013-03-25T02:00:00","ND","ND","13.27","ND","ND","ND","0.2","142.9","21.5","91.5","0","0"],
    [25280,"2013-03-25T03:00:00","ND","ND","12.92","ND","ND","ND","0.7","359.7","21.5","90.9","0","0"],
    [25281,"2013-03-25T04:00:00","ND","ND","11.16","ND","ND","ND","0.4","28.3","21.4","91.3","0","0"],
    [25282,"2013-03-25T05:00:00","ND","ND","10.01","ND","ND","ND","0.9","3","21.3","91.1","0","0"],
    [25283,"2013-03-25T06:00:00","ND","ND","9.77","ND","ND","ND","0.4","32.2","21.5","88.7","0","0"],
    [25284,"2013-03-25T07:00:00","ND","ND","9.22","ND","ND","ND","0.2","227","21.2","91.4","15.4","0"],
    [25285,"2013-03-25T08:00:00","ND","ND","11.31","ND","ND","ND","0.5","69.1","22.3","85.8","145","0"],
    [25286,"2013-03-25T09:00:00","ND","ND","12.08","ND","ND","ND","0.9","40.8","22.4","85.4","66.9","0"],
    [25287,"2013-03-25T10:00:00","ND","ND","11.48","ND","ND","ND","0.7","65.2","23.2","82.7","262.6","0"],
    [25288,"2013-03-25T11:00:00","ND","ND","11.80","ND","ND","ND","0.7","64.1","24.8","72.9","530.9","0"],
    [25289,"2013-03-25T12:00:00","ND","ND","10.94","ND","ND","ND","0.3","24.6","27","63.3","781.8","0"],
    [25290,"2013-03-25T13:00:00","ND","ND","23.42","ND","ND","ND","1.3","46.1","28.2","58.4","768","0"],
    [25291,"2013-03-25T14:00:00","ND","ND","114.90","ND","ND","ND","1.6","59.1","29.1","55","817.7","0"],
    [25292,"2013-03-25T15:00:00","ND","ND","31.13","ND","ND","ND","1.8","61.7","30.1","50.9","571.3","0"],
    [25293,"2013-03-25T16:00:00","ND","ND","18.13","ND","ND","ND","0.7","16.6","30.8","48.8","494.6","0"],
    [25294,"2013-03-25T17:00:00","ND","ND","9.22","ND","ND","ND","2","283.4","30.3","50.8","176.5","0"],
    [25295,"2013-03-25T18:00:00","ND","ND","62.70","ND","ND","ND","1.6","266.1","30.3","50.5","121.2","0"],
    [25296,"2013-03-25T19:00:00","ND","ND","28.04","ND","ND","ND","0.4","321.1","28.6","55.8","0","0"],
    [25297,"2013-03-25T20:00:00","ND","ND","22.18","ND","ND","ND","1.9","255.4","27.7","58.6","0","0"],
    [25298,"2013-03-25T21:00:00","ND","ND","17.87","ND","ND","ND","0.1","262.5","27.2","60.2","0","0"],
    [25299,"2013-03-25T22:00:00","ND","ND","15.77","ND","ND","ND","0.5","318.5","25.5","69.5","0","0"],
    [25300,"2013-03-25T23:00:00","ND","ND","16.37","ND","ND","ND","0.7","251.3","25","70.6","0","0"],
    [25301,"2013-03-26T00:00:00","ND","ND","15.03","ND","ND","ND","0.2","328.3","24.7","71.5","0","0"],
    [25302,"2013-03-26T01:00:00","ND","ND","14.38","ND","ND","ND","0.4","96.2","24.9","72.2","0","0"],
    [25303,"2013-03-26T02:00:00","ND","ND","25.53","ND","ND","ND","0.8","172.6","24.2","75.3","0","0"],
    [25304,"2013-03-26T03:00:00","ND","ND","25.83","ND","ND","ND","0.9","185.9","23.8","78.7","0","0"],
    [25305,"2013-03-26T04:00:00","ND","ND","10.16","ND","ND","ND","0.3","261.5","23.5","80","0","0"],
    [25306,"2013-03-26T05:00:00","ND","ND","8.24","ND","ND","ND","0.5","298.6","23.3","80.4","0","0"],
    [25307,"2013-03-26T06:00:00","ND","ND","7.95","ND","ND","ND","0.2","127.2","23.5","79.9","0","0"],
    [25308,"2013-03-26T07:00:00","ND","ND","9.89","ND","ND","ND","1.7","142.9","23.5","81.8","5.4","0"],
    [25309,"2013-03-26T08:00:00","ND","ND","47.31","ND","ND","ND","1.4","176.3","23.9","79.8","168.6","0"],
    [25310,"2013-03-26T09:00:00","ND","ND","37.46","ND","ND","ND","1.5","146.1","25.4","71.8","186.3","0"],
    [25311,"2013-03-26T10:00:00","ND","ND","20.37","ND","ND","ND","1.3","142.4","23.2","86","50.9","0.25"],
    [25312,"2013-03-26T11:00:00","ND","ND","22.48","ND","ND","ND","1.7","3.8","22.4","93","23.7","0"],
    [25313,"2013-03-26T12:00:00","ND","ND","19.74","ND","ND","ND","2.2","15.2","21.3","91.9","95.2","0"],
    [25314,"2013-03-26T13:00:00","ND","ND","15.62","ND","ND","ND","2.5","359.6","21.6","83.6","294.9","0"],
    [25315,"2013-03-26T14:00:00","ND","ND","10.58","ND","ND","ND","1.8","6.4","21.8","76.5","159.7","0"],
    [25316,"2013-03-26T15:00:00","ND","ND","16.81","ND","ND","ND","1.5","203.7","23.8","68.5","367","0"],
    [25317,"2013-03-26T16:00:00","ND","ND","17.26","ND","ND","ND","2.4","218.3","26.1","61.1","295.6","0"],
    [25318,"2013-03-26T17:00:00","ND","ND","16.37","ND","ND","ND","2.4","192","27.2","50.4","262.1","0"],
    [25319,"2013-03-26T18:00:00","ND","ND","27.16","ND","ND","ND","0.8","242.3","26.5","52.7","48.8","0"],
    [25320,"2013-03-26T19:00:00","ND","ND","32.67","ND","ND","ND","0.8","352","24.4","63.3","0","0"],
    [25321,"2013-03-26T20:00:00","ND","ND","27.52","ND","ND","ND","0.5","185","23.6","67","0","0"],
    [25322,"2013-03-26T21:00:00","ND","ND","29.29","ND","ND","ND","1.5","166.7","23.1","72.4","0","0"],
    [25323,"2013-03-26T22:00:00","ND","ND","32.18","ND","ND","ND","1.8","168.1","23.2","73.4","0","0"],
    [25324,"2013-03-26T23:00:00","ND","ND","26.05","ND","ND","ND","0.6","140.6","22.9","73.3","0","0"],
    [25325,"2013-03-27T00:00:00","ND","ND","22.82","ND","ND","ND","1.1","2.2","21","85.6","0","0"],
    [25326,"2013-03-27T01:00:00","ND","ND","21.23","ND","ND","ND","0.5","244.9","21.2","84.7","0","0"],
    [25327,"2013-03-27T02:00:00","ND","ND","18.69","ND","ND","ND","0.3","204.7","21.2","84.2","0","0"],
    [25328,"2013-03-27T03:00:00","ND","ND","13.69","ND","ND","ND","0.4","5.9","20.6","86.4","0","0"],
    [25329,"2013-03-27T04:00:00","ND","ND","10.98","ND","ND","ND","0.7","23","19.5","89.8","0","0"],
    [25330,"2013-03-27T05:00:00","ND","ND","8.70","ND","ND","ND","0.1","120.1","19.4","89.8","0","0"],
    [25331,"2013-03-27T06:00:00","ND","ND","10.91","ND","ND","ND","0.4","17.6","19.2","90.2","0","0"],
    [25332,"2013-03-27T07:00:00","ND","ND","12.54","ND","ND","ND","0.6","38.3","19.1","92.4","32.3","0"],
    [25333,"2013-03-27T08:00:00","ND","ND","19.33","ND","ND","ND","0.5","51.1","19.9","90.4","78.6","0"],
    [25334,"2013-03-27T09:00:00","ND","ND","27.62","ND","ND","ND","0.5","49.3","21.1","86","204.3","0"],
    [25335,"2013-03-27T10:00:00","ND","ND","39.52","ND","ND","ND","1.4","22.1","22.9","78.9","346.8","0"],
    [25336,"2013-03-27T11:00:00","ND","ND","42.16","ND","ND","ND","2","41.6","24.1","74.8","451","0"],
    [25337,"2013-03-27T12:00:00","ND","ND","29.85","ND","ND","ND","1.9","45.5","25.7","66.6","834","0"],
    [25338,"2013-03-27T13:00:00","ND","ND","17.25","ND","ND","ND","1","57.2","27.9","56.4","919.7","0"],
    [25339,"2013-03-27T14:00:00","ND","ND","13.58","ND","ND","ND","1","51.7","29.7","47.5","864.2","0"],
    [25340,"2013-03-27T15:00:00","ND","ND","14.67","ND","ND","ND","1.9","51.1","30.5","47.4","732.1","0"],
    [25341,"2013-03-27T16:00:00","ND","ND","18.27","ND","ND","ND","1.7","44.1","30.6","48.8","413.8","0"],
    [25342,"2013-03-27T17:00:00","ND","ND","16.80","ND","ND","ND","2.9","286.3","30.7","47.7","338.8","0"],
    [25343,"2013-03-27T18:00:00","ND","ND","17.44","ND","ND","ND","1.1","284.7","29.5","48.3","97.2","0"],
    [25344,"2013-03-27T19:00:00","ND","ND","32.03","ND","ND","ND","0.4","198.3","28.1","52","0","0"],
    [25345,"2013-03-27T20:00:00","ND","ND","42.54","ND","ND","ND","0.5","256.8","27.1","54.3","0","0"],
    [25346,"2013-03-27T21:00:00","ND","ND","83.54","ND","ND","ND","1","114.2","26.6","57.6","0","0"],
    [25347,"2013-03-27T22:00:00","ND","ND","93.33","ND","ND","ND","0.4","196.4","25.2","67.1","0","0"],
    [25348,"2013-03-27T23:00:00","ND","ND","75.09","ND","ND","ND","0.3","200.9","24.3","71.5","0","0"],
    [25349,"2013-03-28T00:00:00","ND","ND","57.36","ND","ND","ND","0.3","299.7","23.7","73.1","0","0"],
    [25350,"2013-03-28T01:00:00","ND","ND","44.87","ND","ND","ND","0.5","94.4","23.7","74.6","0","0"],
    [25351,"2013-03-28T02:00:00","ND","ND","31.92","ND","ND","ND","0.2","163.5","23","78.2","0","0"],
    [25352,"2013-03-28T03:00:00","ND","ND","23.63","ND","ND","ND","1.2","243.6","22.8","78.5","0","0"],
    [25353,"2013-03-28T04:00:00","ND","ND","18.77","ND","ND","ND","0.2","184.1","22.8","78.2","0","0"],
    [25354,"2013-03-28T05:00:00","ND","ND","17.09","ND","ND","ND","0.6","160","22.6","80.9","0","0"],
    [25355,"2013-03-28T06:00:00","ND","ND","15.49","ND","ND","ND","0.2","110.9","22.3","82.9","0","0"],
    [25356,"2013-03-28T07:00:00","ND","ND","14.93","ND","ND","ND","0.2","228.9","22.3","82.7","18.9","0"],
    [25357,"2013-03-28T08:00:00","ND","ND","16.21","ND","ND","ND","0.8","104.2","23.2","79.3","83.9","0"],
    [25358,"2013-03-28T09:00:00","ND","ND","18.11","ND","ND","ND","0.3","147.9","23.7","77.2","213.8","0"],
    [25359,"2013-03-28T10:00:00","ND","ND","13.70","ND","ND","ND","2.2","165.6","25.1","67.9","349.1","0"],
    [25360,"2013-03-28T11:00:00","ND","ND","9.63","ND","ND","ND","1.6","116.8","26.3","64.2","579.5","0"],
    [25361,"2013-03-28T12:00:00","ND","ND","8.28","ND","ND","ND","0.6","138.2","27.6","59.5","644.2","0"],
    [25362,"2013-03-28T13:00:00","ND","ND","8.75","ND","ND","ND","1.1","102.1","28.5","56.2","687.3","0"],
    [25363,"2013-03-28T14:00:00","ND","ND","8.64","ND","ND","ND","0.9","98.1","29.5","53.5","705.5","0"],
    [25364,"2013-03-28T15:00:00","ND","ND","8.92","ND","ND","ND","0.8","36.6","29.7","53.3","329.6","0"],
    [25365,"2013-03-28T16:00:00","ND","ND","5.09","ND","ND","ND","2.1","265.9","29.5","51.1","278.2","0"],
    [25366,"2013-03-28T17:00:00","ND","ND","3.69","ND","ND","ND","0.8","317","29.4","49.6","145","0"],
    [25367,"2013-03-28T18:00:00","ND","ND","9.21","ND","ND","ND","0.9","275.3","28.7","51.7","46.2","0"],
    [25368,"2013-03-28T19:00:00","ND","ND","13.48","ND","ND","ND","0.3","76.8","27.8","52.7","0","0"],
    [25369,"2013-03-28T20:00:00","ND","ND","33.68","ND","ND","ND","0.3","81.6","26.9","57","0","0"],
    [25370,"2013-03-28T21:00:00","ND","ND","39.94","ND","ND","ND","0.4","96.4","25.9","61.5","0","0"],
    [25371,"2013-03-28T22:00:00","ND","ND","39.33","ND","ND","ND","0.5","100.6","24.9","68.3","0","0"],
    [25372,"2013-03-28T23:00:00","ND","ND","36.55","ND","ND","ND","0.3","222","24.2","72.2","0","0"],
    [25373,"2013-03-29T00:00:00","ND","ND","32.38","ND","ND","ND","0.1","164.6","24.2","72.3","0","0"],
    [25374,"2013-03-29T01:00:00","ND","ND","26.65","ND","ND","ND","0.2","241.9","23.1","75.9","0","0"],
    [25375,"2013-03-29T02:00:00","ND","ND","23.79","ND","ND","ND","0.2","146.2","22.7","78.3","0","0"],
    [25376,"2013-03-29T03:00:00","ND","ND","19.70","ND","ND","ND","0.2","274","22.2","80.9","0","0"],
    [25377,"2013-03-29T04:00:00","ND","ND","16.75","ND","ND","ND","0.1","311.8","21.8","83.3","0","0"],
    [25378,"2013-03-29T05:00:00","ND","ND","14.79","ND","ND","ND","0.3","222.7","21.7","83.7","0","0"],
    [25379,"2013-03-29T06:00:00","ND","ND","12.58","ND","ND","ND","0.3","273","21.4","84.9","0","0"],
    [25380,"2013-03-29T07:00:00","ND","ND","11.45","ND","ND","ND","0.4","344.1","21.5","84.4","37.7","0"],
    [25381,"2013-03-29T08:00:00","ND","ND","13.76","ND","ND","ND","0.5","68.1","23.6","74.7","208.7","0"],
    [25382,"2013-03-29T09:00:00","ND","ND","20.69","ND","ND","ND","0.3","357.4","24.6","70.5","212.3","0"],
    [25383,"2013-03-29T10:00:00","ND","ND","18.65","ND","ND","ND","0.9","49.7","26.3","64.3","530.7","0"],
    [25384,"2013-03-29T11:00:00","ND","ND","13.60","ND","ND","ND","0.9","59.7","28","57.2","713.1","0"],
    [25385,"2013-03-29T12:00:00","ND","ND","10.17","ND","ND","ND","1.2","100.8","28.8","55.4","786.1","0"],
    [25386,"2013-03-29T13:00:00","ND","ND","8.92","ND","ND","ND","0.7","38.7","29.9","51.5","716.9","0"],
    [25387,"2013-03-29T14:00:00","ND","ND","7.19","ND","ND","ND","0.4","236.3","31.1","48.2","759.2","0"],
    [25388,"2013-03-29T15:00:00","ND","ND","7.47","ND","ND","ND","1.6","11.8","31.5","48.1","503.5","0"],
    [25389,"2013-03-29T16:00:00","ND","ND","6.80","ND","ND","ND","1.8","268.7","31","47.3","280.1","0"],
    [25390,"2013-03-29T17:00:00","ND","ND","4.18","ND","ND","ND","2.8","269.1","30.7","46.7","235.1","0"],
    [25391,"2013-03-29T18:00:00","ND","ND","9.95","ND","ND","ND","1.3","270.6","30.3","47.2","85.1","0"],
    [25392,"2013-03-29T19:00:00","ND","ND","14.11","ND","ND","ND","0.3","14.9","28.6","52.3","0","0"],
    [25393,"2013-03-29T20:00:00","ND","ND","24.41","ND","ND","ND","0.7","137.4","28","54.1","0","0"],
    [25394,"2013-03-29T21:00:00","ND","ND","41.81","ND","ND","ND","0.8","125.5","27.3","58.3","0","0"],
    [25395,"2013-03-29T22:00:00","ND","ND","40.13","ND","ND","ND","1.1","164.8","26.2","62.6","0","0"],
    [25396,"2013-03-29T23:00:00","ND","ND","34.77","ND","ND","ND","0.3","323.9","25.2","66.7","0","0"],
    [25397,"2013-03-30T00:00:00","ND","ND","27.71","ND","ND","ND","0.7","347.1","24.4","72.6","0","0"],
    [25398,"2013-03-30T01:00:00","ND","ND","22.76","ND","ND","ND","0.2","288.6","23.9","74.8","0","0"],
    [25399,"2013-03-30T02:00:00","ND","ND","14.91","ND","ND","ND","0.1","327.7","23.7","74.2","0","0"],
    [25400,"2013-03-30T03:00:00","ND","ND","12.42","ND","ND","ND","0.5","169","23.4","77.8","0","0"],
    [25401,"2013-03-30T04:00:00","ND","ND","11.03","ND","ND","ND","0.2","241.3","23.2","78.8","0","0"],
    [25402,"2013-03-30T05:00:00","ND","ND","9.24","ND","ND","ND","0.5","251.6","23.1","79","0","0"],
    [25403,"2013-03-30T06:00:00","ND","ND","10.44","ND","ND","ND","0.7","343.6","22.5","81.2","0","0"],
    [25404,"2013-03-30T07:00:00","ND","ND","11.02","ND","ND","ND","0.1","259","22.5","82.1","40.9","0"],
    [25405,"2013-03-30T08:00:00","ND","ND","14.69","ND","ND","ND","0.6","172.5","24.6","72.2","212.6","0"],
    [25406,"2013-03-30T09:00:00","ND","ND","14.60","ND","ND","ND","1.6","160.5","25.4","67.2","170.2","0"],
    [25407,"2013-03-30T10:00:00","ND","ND","14.43","ND","ND","ND","0.5","78.4","26.3","66.5","406.6","0"],
    [25408,"2013-03-30T11:00:00","ND","ND","12.87","ND","ND","ND","0.9","65.9","27.9","60.5","758.3","0"],
    [25409,"2013-03-30T12:00:00","ND","ND","8.98","ND","ND","ND","1.2","99.9","29.2","55.2","937.3","0"],
    [25410,"2013-03-30T13:00:00","ND","ND","8.32","ND","ND","ND","1.3","112.8","30.4","51.1","677.4","0"],
    [25411,"2013-03-30T14:00:00","ND","ND","6.33","ND","ND","ND","1.2","61.2","30.7","51.5","561","0"],
    [25412,"2013-03-30T15:00:00","ND","ND","7.28","ND","ND","ND","1.7","25.5","30.9","51.8","527.6","0"],
    [25413,"2013-03-30T16:00:00","ND","ND","4.59","ND","ND","ND","0.7","49.1","31","49.5","234.9","0"],
    [25414,"2013-03-30T17:00:00","ND","ND","7.03","ND","ND","ND","1.2","259.2","30.8","49.7","92.4","0"],
    [25415,"2013-03-30T18:00:00","ND","ND","9.88","ND","ND","ND","1.3","262.9","29.8","51.5","35.9","0"],
    [25416,"2013-03-30T19:00:00","ND","ND","13.09","ND","ND","ND","1.1","252.4","28.9","53.9","0","0"],
    [25417,"2013-03-30T20:00:00","ND","ND","14.03","ND","ND","ND","0.3","142.2","28.7","53.7","0","0"],
    [25418,"2013-03-30T21:00:00","ND","ND","17.53","ND","ND","ND","0.2","226.9","28.1","55.7","0","0"],
    [25419,"2013-03-30T22:00:00","ND","ND","25.76","ND","ND","ND","0.6","154.3","27.6","58.9","0","0"],
    [25420,"2013-03-30T23:00:00","ND","ND","23.04","ND","ND","ND","0.5","220","26.8","62.4","0","0"],
    [25421,"2013-03-31T00:00:00","ND","ND","20.93","ND","ND","ND","0.7","110.1","26.4","64","0","0"],
    [25422,"2013-03-31T01:00:00","ND","ND","19.09","ND","ND","ND","0.6","61.9","25.5","67.9","0","0"],
    [25423,"2013-03-31T02:00:00","ND","ND","16.27","ND","ND","ND","0.6","359.6","24.3","73.3","0","0"],
    [25424,"2013-03-31T03:00:00","ND","ND","13.19","ND","ND","ND","0.5","345.6","23.8","74.9","0","0"],
    [25425,"2013-03-31T04:00:00","ND","ND","8.97","ND","ND","ND","0.5","45.6","23.4","77.7","0","0"],
    [25426,"2013-03-31T05:00:00","ND","ND","7.43","ND","ND","ND","0.1","106.3","23","80.1","0","0"],
    [25427,"2013-03-31T06:00:00","ND","ND","9.96","ND","ND","ND","0.8","229.8","23.1","79.6","0","0"],
    [25428,"2013-03-31T07:00:00","ND","ND","11.46","ND","ND","ND","0.3","264.1","23.3","79.4","20.9","0"],
    [25429,"2013-03-31T08:00:00","ND","ND","13.21","ND","ND","ND","0.7","64.5","24.4","75.5","186.1","0"],
    [25430,"2013-03-31T09:00:00","ND","ND","15.96","ND","ND","ND","0.6","83.9","25.9","70.1","331.3","0"],
    [25431,"2013-03-31T10:00:00","ND","ND","14.69","ND","ND","ND","0.5","59","27.3","64.4","449.4","0"],
    [25432,"2013-03-31T11:00:00","ND","ND","11.51","ND","ND","ND","1.4","135.2","28.9","57.3","709","0"],
    [25433,"2013-03-31T12:00:00","ND","ND","10.96","ND","ND","ND","0.9","77.2","29.7","54","581.5","0"],
    [25434,"2013-03-31T13:00:00","ND","ND","7.99","ND","ND","ND","1.3","45.7","30.8","50.1","736","0"],
    [25435,"2013-03-31T14:00:00","ND","ND","6.86","ND","ND","ND","1.1","31.9","32","46.6","795.5","0"],
    [25436,"2013-03-31T15:00:00","ND","ND","6.59","ND","ND","ND","1.5","37.5","32.7","43.7","605.9","0"],
    [25437,"2013-03-31T16:00:00","ND","ND","5.72","ND","ND","ND","1.9","324.9","32.9","44.6","459","0"],
    [25438,"2013-03-31T17:00:00","ND","ND","6.58","ND","ND","ND","1.3","315.6","32.5","45.7","308.2","0"],
    [25439,"2013-03-31T18:00:00","ND","ND","9.66","ND","ND","ND","1.1","309.9","31.4","48.3","97.9","0"],
    [25440,"2013-03-31T19:00:00","ND","ND","17.68","ND","ND","ND","0.5","222.8","30","50.6","0","0"],
    [25441,"2013-03-31T20:00:00","ND","ND","32.01","ND","ND","ND","0.5","198.2","29.2","51.5","0","0"],
    [25442,"2013-03-31T21:00:00","ND","ND","39.41","ND","ND","ND","0.3","31","28.4","53.9","0","0"],
    [25443,"2013-03-31T22:00:00","ND","ND","29.68","ND","ND","ND","0.7","82.9","27.3","61.6","0","0"],
    [25444,"2013-03-31T23:00:00","ND","ND","24.29","ND","ND","ND","0.5","169.7","26.6","64.5","0","0"],
    [25445,"2013-04-01T00:00:00","ND","ND","23.42","ND","ND","ND","0.1","334.1","26.1","65.7","0","0"],
    [25446,"2013-04-01T01:00:00","7.2","ND","21.74","ND","ND","ND","0.2","60.4","25.6","67.6","0","0"],
    [25447,"2013-04-01T02:00:00","8.3","ND","17.47","ND","ND","ND","0.5","87.4","25.1","71.2","0","0"],
    [25448,"2013-04-01T03:00:00","8.4","ND","15.16","ND","ND","ND","0.2","220.5","24.5","75.2","0","0"],
    [25449,"2013-04-01T04:00:00","8.2","ND","12.49","ND","ND","ND","0.6","216.7","24.5","75.4","0","0"],
    [25450,"2013-04-01T05:00:00","5.7","ND","10.92","ND","ND","ND","1.5","190","24.3","76.4","0","0"],
    [25451,"2013-04-01T06:00:00","6.8","ND","13.24","ND","ND","ND","0.6","203.6","24.5","75.2","0","0"],
    [25452,"2013-04-01T07:00:00","4.1","ND","16.54","ND","ND","ND","0.4","346.4","24.3","76","19.5","0"],
    [25453,"2013-04-01T08:00:00","12.7","ND","23.36","ND","ND","ND","0.6","11.1","25.5","72.2","199.4","0"],
    [25454,"2013-04-01T09:00:00","8.8","ND","36.48","ND","ND","ND","0.8","59.6","26.7","67.8","416.2","0"],
    [25455,"2013-04-01T10:00:00","6.8","ND","55.13","ND","ND","ND","0.1","225.7","28.2","60.2","470.8","0"],
    [25456,"2013-04-01T11:00:00","5.5","ND","27.70","ND","ND","ND","1","39.7","29.7","55.9","734.6","0"],
    [25457,"2013-04-01T12:00:00","5","ND","13.02","ND","ND","ND","0.8","12.2","31.2","51.1","886.5","0"],
    [25458,"2013-04-01T13:00:00","12.6","ND","10.81","ND","ND","ND","0.8","42.5","31.8","48.9","447.5","0"],
    [25459,"2013-04-01T14:00:00","6.4","ND","8.51","ND","ND","ND","1.9","268.2","30.9","49.2","163.1","0"],
    [25460,"2013-04-01T15:00:00","11.2","ND","12.64","ND","ND","ND","3.2","256.2","29.9","51.4","243.7","0"],
    [25461,"2013-04-01T16:00:00","14.2","ND","10.75","ND","ND","ND","3.2","270.9","29.6","51.5","166.9","0"],
    [25462,"2013-04-01T17:00:00","8.4","ND","16.09","ND","ND","ND","0.6","218.7","29.7","50.7","56.5","0"],
    [25463,"2013-04-01T18:00:00","14.2","ND","15.27","ND","ND","ND","1.6","299.1","28.6","52.4","16.2","0"],
    [25464,"2013-04-01T19:00:00","16.9","ND","24.28","ND","ND","ND","1.6","137.1","27.6","61","0","0"],
    [25465,"2013-04-01T20:00:00","49.2","ND","20.68","ND","ND","ND","0.3","232.8","26.6","66.2","0","0"],
    [25466,"2013-04-01T21:00:00","31.4","ND","15.23","ND","ND","ND","1.4","113.7","26.8","62.6","0","0"],
    [25467,"2013-04-01T22:00:00","21.3","ND","17.93","ND","ND","ND","0.7","7.9","25.9","68.3","0","0"],
    [25468,"2013-04-01T23:00:00","38.9","ND","17.09","ND","ND","ND","0.5","348.1","24.4","79","0","0"],
    [25469,"2013-04-02T00:00:00","72.9","ND","16.65","ND","ND","ND","0.8","180.5","24.7","77.1","0","0"],
    [25470,"2013-04-02T01:00:00","48.6","ND","17.00","ND","ND","ND","1","174.7","24.6","76.4","0","0"],
    [25471,"2013-04-02T02:00:00","54.3","ND","15.78","ND","ND","ND","0.8","218.3","24.3","78","0","0"],
    [25472,"2013-04-02T03:00:00","44.3","ND","14.27","ND","ND","ND","0.9","219.2","24.1","78.3","0","0"],
    [25473,"2013-04-02T04:00:00","38.7","ND","13.75","ND","ND","ND","0.6","335.7","23.8","80.1","0","0"],
    [25474,"2013-04-02T05:00:00","33.6","ND","12.80","ND","ND","ND","0.3","353.8","23.6","81.9","0","0"],
    [25475,"2013-04-02T06:00:00","65.7","ND","13.87","ND","ND","ND","0.7","4.8","23.1","84.2","0","0"],
    [25476,"2013-04-02T07:00:00","81","ND","31.99","ND","ND","ND","1.2","6.3","23","85.3","7.7","0"],
    [25477,"2013-04-02T08:00:00","68","ND","18.99","ND","ND","ND","0.6","82.7","23.6","82.2","39.3","0"],
    [25478,"2013-04-02T09:00:00","34.7","ND","17.50","ND","ND","ND","1.5","176.1","23.5","83.9","81.1","0"],
    [25479,"2013-04-02T10:00:00","38.3","ND","22.68","ND","ND","ND","0.7","111.3","24.6","76.7","288","0"],
    [25480,"2013-04-02T11:00:00","27.3","ND","28.86","ND","ND","ND","0.5","40.4","26.2","68.2","386.6","0"],
    [25481,"2013-04-02T12:00:00","15.9","ND","30.48","ND","ND","ND","1.1","126.7","26.5","67.9","221.5","0"],
    [25482,"2013-04-02T13:00:00","9","ND","29.63","ND","ND","ND","1.1","139.7","27.1","66.2","262.4","0"],
    [25483,"2013-04-02T14:00:00","26.2","ND","20.68","ND","ND","ND","1.5","57.2","27.4","68","422.9","0"],
    [25484,"2013-04-02T15:00:00","14.2","ND","29.32","ND","ND","ND","1.8","46.9","26.9","68.6","230.7","0"],
    [25485,"2013-04-02T16:00:00","27.2","ND","60.31","ND","ND","ND","1.1","70.9","26.9","68","157.1","0"],
    [25486,"2013-04-02T17:00:00","17.8","ND","52.88","ND","ND","ND","1.1","65","26.8","67.8","95.9","0"],
    [25487,"2013-04-02T18:00:00","19.2","ND","33.70","ND","ND","ND","1","202.6","27.1","60","56.6","0"],
    [25488,"2013-04-02T19:00:00","24","ND","30.49","ND","ND","ND","0.2","141.7","26.3","62.8","0","0"],
    [25489,"2013-04-02T20:00:00","31.3","ND","22.92","ND","ND","ND","1.5","247.5","25.5","64","0","0"],
    [25490,"2013-04-02T21:00:00","27.9","ND","27.01","ND","ND","ND","0.9","101.2","24.8","72.4","0","0"],
    [25491,"2013-04-02T22:00:00","27","ND","22.72","ND","ND","ND","0.2","150.1","24.3","76.8","0","0"],
    [25492,"2013-04-02T23:00:00","25.6","ND","20.51","ND","ND","ND","0.7","139.4","24.2","73.6","0","0"],
    [25493,"2013-04-03T00:00:00","19.5","ND","20.13","ND","ND","ND","0.6","146.9","23.9","73","0","0"],
    [25494,"2013-04-03T01:00:00","28.2","ND","15.09","ND","ND","ND","0.4","332","23.2","78.9","0","0"],
    [25495,"2013-04-03T02:00:00","40.8","ND","11.93","ND","ND","ND","0.8","32.1","22.4","83.9","0","0"],
    [25496,"2013-04-03T03:00:00","21.3","ND","9.19","ND","ND","ND","0.1","138","22.1","84.5","0","0"],
    [25497,"2013-04-03T04:00:00","32.3","ND","8.86","ND","ND","ND","0.1","339.1","22.1","86.3","0","0"],
    [25498,"2013-04-03T05:00:00","18.3","ND","12.40","ND","ND","ND","0.2","19.3","22.1","85.8","0","0"],
    [25499,"2013-04-03T06:00:00","46.2","ND","12.85","ND","ND","ND","0.4","353.2","22","86.6","0","0"],
    [25500,"2013-04-03T07:00:00","40.2","ND","12.21","ND","ND","ND","0.3","32.3","22","87","10","0"],
    [25501,"2013-04-03T08:00:00","58.3","ND","13.69","ND","ND","ND","0.4","55","22.6","84.4","96","0"],
    [25502,"2013-04-03T09:00:00","75.4","ND","20.45","ND","ND","ND","0.5","111.8","24.1","77","277.8","0"],
    [25503,"2013-04-03T10:00:00","68","ND","23.25","ND","ND","ND","1","88.4","25.4","71.5","443","0"],
    [25504,"2013-04-03T11:00:00","49.4","ND","33.80","ND","ND","ND","0.9","134.4","27.3","62.9","534","0"],
    [25505,"2013-04-03T12:00:00","29.5","ND","35.61","ND","ND","ND","0.5","212.9","28.1","58.5","487.3","0"],
    [25506,"2013-04-03T13:00:00","29.7","ND","31.46","ND","ND","ND","1.2","53.3","29.2","55.2","747.2","0"],
    [25507,"2013-04-03T14:00:00","25.1","ND","26.67","ND","ND","ND","0.6","57","29.7","52.7","452.3","0"],
    [25508,"2013-04-03T15:00:00","23.3","ND","27.29","ND","ND","ND","0.8","319.3","30","51.9","278.7","0"],
    [25509,"2013-04-03T16:00:00","20.4","ND","18.86","ND","ND","ND","2","263","30.9","47.4","493.1","0"],
    [25510,"2013-04-03T17:00:00","11","ND","23.13","ND","ND","ND","2.3","279.2","30.7","46.3","292","0"],
    [25511,"2013-04-03T18:00:00","8.4","ND","21.16","ND","ND","ND","1.4","273.3","29.7","49","85.9","0"],
    [25512,"2013-04-03T19:00:00","34.2","ND","25.13","ND","ND","ND","1.2","252.2","28.2","52.8","0","0"],
    [25513,"2013-04-03T20:00:00","34","ND","25.70","ND","ND","ND","0.2","267","27.5","55.3","0","0"],
    [25514,"2013-04-03T21:00:00","40.8","ND","36.57","ND","ND","ND","0.5","119.4","27.3","57","0","0"],
    [25515,"2013-04-03T22:00:00","58.2","ND","29.38","ND","ND","ND","0.3","108.2","26.3","62.4","0","0"],
    [25516,"2013-04-03T23:00:00","56.1","ND","27.29","ND","ND","ND","0.8","162.5","25.4","67.5","0","0"],
    [25517,"2013-04-04T00:00:00","49.1","ND","22.89","ND","ND","ND","0.2","163.7","25.1","68.8","0","0"],
    [25518,"2013-04-04T01:00:00","19.8","ND","16.75","ND","ND","ND","0.8","140.4","24.5","71.7","0","0"],
    [25519,"2013-04-04T02:00:00","33.6","ND","12.79","ND","ND","ND","0.5","185.7","24.1","74","0","0"],
    [25520,"2013-04-04T03:00:00","43.6","ND","14.39","ND","ND","ND","0.2","260.5","23.8","76.3","0","0"],
    [25521,"2013-04-04T04:00:00","11","ND","11.65","ND","ND","ND","0.6","159.9","23.7","78.3","0","0"],
    [25522,"2013-04-04T05:00:00","22.7","ND","10.54","ND","ND","ND","0.4","214.8","23.6","78.2","0","0"],
    [25523,"2013-04-04T06:00:00","60.6","ND","12.41","ND","ND","ND","0.5","7","23.6","78.7","0","0"],
    [25524,"2013-04-04T07:00:00","39.4","ND","14.56","ND","ND","ND","0.6","127.5","23.5","80.3","5.8","0"],
    [25525,"2013-04-04T08:00:00","ND","ND","17.14","ND","ND","ND","0.5","43.8","23.3","85","106","0"],
    [25526,"2013-04-04T09:00:00","52.5","ND","14.98","ND","ND","ND","0.8","55.5","24.4","76.7","235.4","0"],
    [25527,"2013-04-04T10:00:00","7.4","ND","14.09","ND","ND","ND","0.9","127.4","26.3","67.6","504.2","0"],
    [25528,"2013-04-04T11:00:00","54.8","ND","19.57","ND","ND","ND","1.5","133.3","27.4","62.6","443.8","0"],
    [25529,"2013-04-04T12:00:00","78.1","ND","31.67","ND","ND","ND","0.8","142.5","28.3","59.6","498.4","0"],
    [25530,"2013-04-04T13:00:00","11.4","ND","31.92","ND","ND","ND","1.3","164","29.8","54.1","657.4","0"],
    [25531,"2013-04-04T14:00:00","ND","ND","22.84","ND","ND","ND","0.9","149.9","29.9","52.8","289.8","0"],
    [25532,"2013-04-04T15:00:00","103.2","ND","22.24","ND","ND","ND","0.7","97.1","29.6","54.3","115.7","0"],
    [25533,"2013-04-04T16:00:00","67.4","ND","20.32","ND","ND","ND","0.6","299","29.2","54.2","65.7","0"],
    [25534,"2013-04-04T17:00:00","33.5","ND","17.07","ND","ND","ND","2.7","253.8","27.5","60.4","60.4","0"],
    [25535,"2013-04-04T18:00:00","6.8","ND","20.44","ND","ND","ND","1.6","241.6","27.5","58.7","50.3","0"],
    [25536,"2013-04-04T19:00:00","ND","ND","28.97","ND","ND","ND","0.4","278.5","27.2","58.3","0","0"],
    [25537,"2013-04-04T20:00:00","ND","ND","32.07","ND","ND","ND","0.8","171.2","26.9","59.2","0","0"],
    [25538,"2013-04-04T21:00:00","ND","ND","56.45","ND","ND","ND","0.4","70","26.5","61.9","0","0"],
    [25539,"2013-04-04T22:00:00","ND","ND","36.97","ND","ND","ND","0.2","158.3","25.9","65.2","0","0"],
    [25540,"2013-04-04T23:00:00","ND","ND","21.21","ND","ND","ND","0.7","173.1","25","70.8","0","0"],
    [25541,"2013-04-05T00:00:00","ND","ND","16.64","ND","ND","ND","0.2","101.6","24.1","75.2","0","0"],
    [25542,"2013-04-05T01:00:00","45.2","ND","13.95","ND","ND","ND","0.1","21.1","24","75.2","0","0"],
    [25543,"2013-04-05T02:00:00","ND","ND","12.55","ND","ND","ND","0.3","265.8","23.8","76.5","0","0"],
    [25544,"2013-04-05T03:00:00","ND","ND","10.87","ND","ND","ND","0.3","22.3","23.6","78.4","0","0"],
    [25545,"2013-04-05T04:00:00","ND","ND","8.61","ND","ND","ND","0.1","280.7","23.1","81.3","0","0"],
    [25546,"2013-04-05T05:00:00","122.2","ND","10.05","ND","ND","ND","0.4","38.4","23","81.7","0","0"],
    [25547,"2013-04-05T06:00:00","58.7","ND","28.20","ND","ND","ND","0.2","27.9","22.9","82.5","0","0"],
    [25548,"2013-04-05T07:00:00","91.7","ND","19.12","ND","ND","ND","0.3","190.7","23","82.5","5.3","0"],
    [25549,"2013-04-05T08:00:00","ND","ND","19.00","ND","ND","ND","0.9","173.5","23.7","80.2","67.3","0"],
    [25550,"2013-04-05T09:00:00","119.3","ND","22.95","ND","ND","ND","0.6","136.5","24.9","72.7","186.6","0"],
    [25551,"2013-04-05T10:00:00","4.1","ND","39.73","ND","ND","ND","0.7","141.3","21.3","56.4","203.6","0"],
    [25552,"2013-04-05T11:00:00","ND","ND","43.90","ND","ND","ND","0.9","150.1","25.5","60","351.6","0"],
    [25553,"2013-04-05T12:00:00","13.6","ND","39.59","ND","ND","ND","1.1","122.6","27.6","62.7","353.5","0"],
    [25554,"2013-04-05T13:00:00","14","ND","26.75","ND","ND","ND","0.6","156.6","28.7","55.6","539.6","0"],
    [25555,"2013-04-05T14:00:00","8.1","ND","16.64","ND","ND","ND","1.4","319.2","29.9","48","411.2","0"],
    [25556,"2013-04-05T15:00:00","6.2","ND","12.84","ND","ND","ND","2.6","290.2","30.2","46.4","585","0"],
    [25557,"2013-04-05T16:00:00","4.9","ND","13.14","ND","ND","ND","1.1","329.9","31","43.9","539.4","0"],
    [25558,"2013-04-05T17:00:00","3","ND","16.63","ND","ND","ND","2.8","270.5","30.5","46.2","264.1","0"],
    [25559,"2013-04-05T18:00:00","2","ND","17.77","ND","ND","ND","2.3","256.4","29","49.1","28.8","0"],
    [25560,"2013-04-05T19:00:00","18.3","ND","19.46","ND","ND","ND","0.8","237.7","27.9","53.5","0","0"],
    [25561,"2013-04-05T20:00:00","33.4","ND","27.05","ND","ND","ND","0.2","84.7","27.1","57.6","0","0"],
    [25562,"2013-04-05T21:00:00","42","ND","37.28","ND","ND","ND","1","100.1","26.4","61.6","0","0"],
    [25563,"2013-04-05T22:00:00","59.2","ND","43.66","ND","ND","ND","0.4","51.7","25","70.6","0","0"],
    [25564,"2013-04-05T23:00:00","35.1","ND","47.15","ND","ND","ND","0.6","20.3","24.6","73.1","0","0"],
    [25565,"2013-04-06T00:00:00","62.9","ND","49.75","ND","ND","ND","0.4","262.9","24.6","72.3","0","0"],
    [25566,"2013-04-06T01:00:00","49.1","ND","44.39","ND","ND","ND","0.4","271.6","24","74.1","0","0"],
    [25567,"2013-04-06T02:00:00","40.6","ND","41.68","ND","ND","ND","0.3","347.9","23.5","76.2","0","0"],
    [25568,"2013-04-06T03:00:00","43.6","ND","37.62","ND","ND","ND","0.2","195.9","23","80","0","0"],
    [25569,"2013-04-06T04:00:00","46","ND","34.84","ND","ND","ND","0.6","150.8","23.4","79.1","0","0"],
    [25570,"2013-04-06T05:00:00","43.4","ND","32.51","ND","ND","ND","0.4","25","22.3","82.9","0","0"],
    [25571,"2013-04-06T06:00:00","59.3","ND","33.29","ND","ND","ND","0.3","186.6","22.6","81.9","0","0"],
    [25572,"2013-04-06T07:00:00","71.1","ND","35.73","ND","ND","ND","0.6","42.9","22.7","80.9","50.3","0"],
    [25573,"2013-04-06T08:00:00","89.8","ND","44.81","ND","ND","ND","0.6","67.4","23.9","75.7","150.2","0"],
    [25574,"2013-04-06T09:00:00","65.4","ND","53.73","ND","ND","ND","0.6","119.1","25.4","70","389.7","0"],
    [25575,"2013-04-06T10:00:00","61.7","ND","64.77","ND","ND","ND","1","92.7","27.1","63.6","590","0"],
    [25576,"2013-04-06T11:00:00","31.9","ND","40.86","ND","ND","ND","0.7","67.9","28.4","57.8","692.2","0"],
    [25577,"2013-04-06T12:00:00","37.9","ND","34.53","ND","ND","ND","0.4","193.2","28.7","56.5","273.4","0"],
    [25578,"2013-04-06T13:00:00","24.8","ND","28.47","ND","ND","ND","0.6","172.7","30.5","49.9","770.9","0"],
    [25579,"2013-04-06T14:00:00","45.1","ND","26.10","ND","ND","ND","1.5","284","30.9","48.2","569.1","0"],
    [25580,"2013-04-06T15:00:00","23.8","ND","12.52","ND","ND","ND","0.9","334","31.7","44.5","386.2","0"],
    [25581,"2013-04-06T16:00:00","12.9","ND","8.37","ND","ND","ND","2.9","275.7","31.5","45.4","385.9","0"],
    [25582,"2013-04-06T17:00:00","8.4","ND","8.13","ND","ND","ND","3","276.6","31","46.1","296","0"],
    [25583,"2013-04-06T18:00:00","5.6","ND","15.18","ND","ND","ND","1.5","252.1","30.3","47","86.6","0"],
    [25584,"2013-04-06T19:00:00","5.3","ND","19.30","ND","ND","ND","0.2","41.8","29","49.3","0","0"],
    [25585,"2013-04-06T20:00:00","8.4","ND","31.81","ND","ND","ND","0.9","95.7","28.6","52","0","0"],
    [25586,"2013-04-06T21:00:00","13.9","ND","40.36","ND","ND","ND","1.3","134.3","27.9","55.7","0","0"],
    [25587,"2013-04-06T22:00:00","35.4","ND","32.50","ND","ND","ND","0.8","142.5","26.7","62.2","0","0"],
    [25588,"2013-04-06T23:00:00","42","ND","28.71","ND","ND","ND","0.2","290.7","25.9","66.8","0","0"],
    [25589,"2013-04-07T00:00:00","49.8","ND","30.11","ND","ND","ND","0.4","254.5","25.5","67.7","0","0"],
    [25590,"2013-04-07T01:00:00","30.1","ND","24.53","ND","ND","ND","1.1","165.3","25.8","66.3","0","0"],
    [25591,"2013-04-07T02:00:00","24.6","ND","17.10","ND","ND","ND","1","99.6","24.9","71.5","0","0"],
    [25592,"2013-04-07T03:00:00","19.9","ND","13.97","ND","ND","ND","0.3","203.7","24.5","73.6","0","0"],
    [25593,"2013-04-07T04:00:00","14.5","ND","16.56","ND","ND","ND","0.4","243.3","24.4","74.4","0","0"],
    [25594,"2013-04-07T05:00:00","21","ND","16.11","ND","ND","ND","0.7","38.5","24.1","75.4","0","0"],
    [25595,"2013-04-07T06:00:00","26.2","ND","14.07","ND","ND","ND","0.3","297.1","23.9","77.1","0","0"],
    [25596,"2013-04-07T07:00:00","16.2","ND","17.06","ND","ND","ND","0.2","189","23.9","77.4","12","0"],
    [25597,"2013-04-07T08:00:00","23.4","ND","19.17","ND","ND","ND","0.5","40","24.4","76.9","80.8","0"],
    [25598,"2013-04-07T09:00:00","12.9","ND","19.15","ND","ND","ND","0.9","97.6","25.5","73","336.9","0"],
    [25599,"2013-04-07T10:00:00","32.9","ND","22.37","ND","ND","ND","1.8","150.2","26.9","65.7","358","0"],
    [25600,"2013-04-07T11:00:00","17.2","ND","19.28","ND","ND","ND","1.7","187.6","27.6","62.4","639","0"],
    [25601,"2013-04-07T12:00:00","8.6","ND","12.36","ND","ND","ND","1.7","151.8","29.7","53.3","854","0"],
    [25602,"2013-04-07T13:00:00","5.2","ND","8.83","ND","ND","ND","1.9","153.5","30.7","48.5","832.1","0"],
    [25603,"2013-04-07T14:00:00","5.6","ND","8.20","ND","ND","ND","1.3","108.9","32.4","43.1","830.6","0"],
    [25604,"2013-04-07T15:00:00","3.4","ND","7.70","ND","ND","ND","1.8","1.9","32.3","46.1","472.1","0"],
    [25605,"2013-04-07T16:00:00","6.9","ND","5.75","ND","ND","ND","3.3","263.5","32.3","45.9","530.8","0"],
    [25606,"2013-04-07T17:00:00","4","ND","7.16","ND","ND","ND","3.2","264.3","31.5","46.1","286.7","0"],
    [25607,"2013-04-07T18:00:00","16.1","ND","11.84","ND","ND","ND","1.6","253","30.6","48","62.9","0"],
    [25608,"2013-04-07T19:00:00","9.9","ND","20.06","ND","ND","ND","0.6","223.8","29.3","50.6","0","0"],
    [25609,"2013-04-07T20:00:00","10.5","ND","34.84","ND","ND","ND","0.7","84.6","28.7","53.5","0","0"],
    [25610,"2013-04-07T21:00:00","7","ND","37.83","ND","ND","ND","1.1","142","27.9","57","0","0"],
    [25611,"2013-04-07T22:00:00","14.8","ND","28.06","ND","ND","ND","0.7","146.9","26.4","64.3","0","0"],
    [25612,"2013-04-07T23:00:00","11.7","ND","30.05","ND","ND","ND","0.3","85","26.2","65.2","0","0"],
    [25613,"2013-04-08T00:00:00","22.5","ND","28.10","ND","ND","ND","0.7","141.9","26.2","65.6","0","0"],
    [25614,"2013-04-08T01:00:00","15.3","ND","25.77","ND","ND","ND","0.6","28.8","25.3","69.8","0","0"],
    [25615,"2013-04-08T02:00:00","24","ND","16.40","ND","ND","ND","0.7","107.1","24.5","73.6","0","0"],
    [25616,"2013-04-08T03:00:00","12.9","ND","13.36","ND","ND","ND","0.7","158.2","24.4","75.3","0","0"],
    [25617,"2013-04-08T04:00:00","23.5","ND","14.66","ND","ND","ND","0.4","233.9","24.3","75.7","0","0"],
    [25618,"2013-04-08T05:00:00","15.2","ND","17.73","ND","ND","ND","0.4","334.4","24.2","75.8","0","0"],
    [25619,"2013-04-08T06:00:00","13.6","ND","18.78","ND","ND","ND","0.1","307.3","24.1","76.5","0","0"],
    [25620,"2013-04-08T07:00:00","29.3","ND","21.64","ND","ND","ND","0.4","359.6","24","77.2","12.7","0"],
    [25621,"2013-04-08T08:00:00","47.6","ND","27.70","ND","ND","ND","0.3","84.1","24.5","75.2","50.4","0"],
    [25622,"2013-04-08T09:00:00","62.6","ND","40.18","ND","ND","ND","1","62.3","25.5","72.6","281.2","0"],
    [25623,"2013-04-08T10:00:00","69.6","ND","53.60","ND","ND","ND","1","100.2","26.8","67.4","332.2","0"],
    [25624,"2013-04-08T11:00:00","36.6","ND","29.71","ND","ND","ND","1.5","132.2","27.8","61.8","369.6","0"],
    [25625,"2013-04-08T12:00:00","24.9","ND","15.82","ND","ND","ND","1.8","148.5","28.9","56.6","726","0"],
    [25626,"2013-04-08T13:00:00","14","ND","15.58","ND","ND","ND","1.5","174.6","30.5","51.2","901.7","0"],
    [25627,"2013-04-08T14:00:00","9.8","ND","15.53","ND","ND","ND","1.2","149.9","31.5","48","677","0"],
    [25628,"2013-04-08T15:00:00","7.3","ND","15.93","ND","ND","ND","0.5","356.5","31.4","48.4","359.9","0"],
    [25629,"2013-04-08T16:00:00","17.3","ND","16.88","ND","ND","ND","1.9","256.2","30.8","51.2","269.8","0"],
    [25630,"2013-04-08T17:00:00","11","ND","22.01","ND","ND","ND","1.3","279.2","29.1","55.9","88.1","0"],
    [25631,"2013-04-08T18:00:00","23.3","ND","24.10","ND","ND","ND","0.2","290.6","29.1","53.4","35.6","0"],
    [25632,"2013-04-08T19:00:00","26.2","ND","28.40","ND","ND","ND","0.2","83.7","28.4","55","0","0"],
    [25633,"2013-04-08T20:00:00","37.3","ND","41.46","ND","ND","ND","1.4","127.9","27.6","59.1","0","0"],
    [25634,"2013-04-08T21:00:00","38.1","ND","33.89","ND","ND","ND","0.7","199.8","26.9","61.3","0","0"],
    [25635,"2013-04-08T22:00:00","20.5","ND","13.63","ND","ND","ND","2.7","207.3","27.3","57.8","0","0"],
    [25636,"2013-04-08T23:00:00","15.1","ND","28.25","ND","ND","ND","0.8","149.3","26","67.8","0","0"],
    [25637,"2013-04-09T00:00:00","32.2","ND","25.98","ND","ND","ND","0.1","272.2","24.9","71.7","0","0"],
    [25638,"2013-04-09T01:00:00","28.1","ND","18.13","ND","ND","ND","1.3","214.2","24.9","71","0","0"],
    [25639,"2013-04-09T02:00:00","14.6","ND","12.74","ND","ND","ND","0.3","269.5","24.7","71.4","0","0"],
    [25640,"2013-04-09T03:00:00","22.3","ND","12.93","ND","ND","ND","0.1","48.1","24.3","72.1","0","0"],
    [25641,"2013-04-09T04:00:00","27.8","ND","18.01","ND","ND","ND","0.3","116.1","23.5","78.1","0","0"],
    [25642,"2013-04-09T05:00:00","35.5","ND","20.91","ND","ND","ND","0.2","331.6","22.9","79.9","0","0"],
    [25643,"2013-04-09T06:00:00","49.1","ND","20.31","ND","ND","ND","0.4","306.8","22.7","80.8","0","0"],
    [25644,"2013-04-09T07:00:00","65.4","ND","24.70","ND","ND","ND","0.6","2.4","22.8","80.4","8.9","0"],
    [25645,"2013-04-09T08:00:00","55.6","ND","32.55","ND","ND","ND","0.1","42.8","23.3","78.4","50.7","0"],
    [25646,"2013-04-09T09:00:00","49.2","ND","38.22","ND","ND","ND","0.4","187.8","24.9","71","294.9","0"],
    [25647,"2013-04-09T10:00:00","62.1","ND","37.09","ND","ND","ND","0.9","146.1","27.2","61.6","584.7","0"],
    [25648,"2013-04-09T11:00:00","70.5","ND","29.82","ND","ND","ND","1.5","153.6","28.9","55.9","761","0"],
    [25649,"2013-04-09T12:00:00","36","ND","16.66","ND","ND","ND","1.5","118.5","30","52.1","775.4","0"],
    [25650,"2013-04-09T13:00:00","29.8","ND","14.02","ND","ND","ND","1.1","37.8","30.8","50.5","574.4","0"],
    [25651,"2013-04-09T14:00:00","24.5","ND","11.64","ND","ND","ND","1.4","301.5","31.9","45.3","576.6","0"],
    [25652,"2013-04-09T15:00:00","13.1","ND","10.34","ND","ND","ND","1.7","290.2","32.2","43.8","719.8","0"],
    [25653,"2013-04-09T16:00:00","13.4","ND","12.13","ND","ND","ND","3.2","273.1","32.1","43.1","486.8","0"],
    [25654,"2013-04-09T17:00:00","8.8","ND","10.82","ND","ND","ND","4.3","270.6","30.1","47.3","168.4","0"],
    [25655,"2013-04-09T18:00:00","26","ND","8.36","ND","ND","ND","5.3","276.4","28.9","50.2","65.9","0"],
    [25656,"2013-04-09T19:00:00","14.7","ND","18.69","ND","ND","ND","2","261.5","29","48.8","0","0"],
    [25657,"2013-04-09T20:00:00","26.5","ND","33.36","ND","ND","ND","0.8","17.5","27.8","55.9","0","0"],
    [25658,"2013-04-09T21:00:00","32.9","ND","26.70","ND","ND","ND","0.5","25.8","26.8","58.9","0","0"],
    [25659,"2013-04-09T22:00:00","33","ND","38.67","ND","ND","ND","0.6","172.6","26.6","58.7","0","0"],
    [25660,"2013-04-09T23:00:00","32.7","ND","41.49","ND","ND","ND","0.3","107.9","26.2","60.5","0","0"],
    [25661,"2013-04-10T00:00:00","26.9","ND","31.45","ND","ND","ND","0.3","179.2","25","68.7","0","0"],
    [25662,"2013-04-10T01:00:00","14.8","ND","15.81","ND","ND","ND","1.9","197","24.4","74.5","0","0"],
    [25663,"2013-04-10T02:00:00","17.6","ND","12.70","ND","ND","ND","0.9","173.1","24.7","71.3","0","0"],
    [25664,"2013-04-10T03:00:00","9.4","ND","15.24","ND","ND","ND","0.3","18.1","24.3","73.1","0","0"],
    [25665,"2013-04-10T04:00:00","36","ND","24.99","ND","ND","ND","0.6","4.2","23.4","80.5","0","0"],
    [25666,"2013-04-10T05:00:00","41.7","ND","24.17","ND","ND","ND","0.6","10.8","23.4","79.8","0","0"],
    [25667,"2013-04-10T06:00:00","68.5","ND","24.47","ND","ND","ND","0.3","6.1","23","82.1","0","0"],
    [25668,"2013-04-10T07:00:00","64.7","ND","29.09","ND","ND","ND","0.2","74.9","23.4","78.6","39","0"],
    [25669,"2013-04-10T08:00:00","73.7","ND","40.08","ND","ND","ND","0.2","136.2","25","72.7","191.6","0"],
    [25670,"2013-04-10T09:00:00","70.7","ND","49.69","ND","ND","ND","1","65.5","26.3","68.7","403.7","0"],
    [25671,"2013-04-10T10:00:00","51.1","ND","30.45","ND","ND","ND","1.4","113.7","27.7","60","654.6","0"],
    [25672,"2013-04-10T11:00:00","26.9","ND","19.85","ND","ND","ND","1.4","133","29.5","52.1","795.5","0"],
    [25673,"2013-04-10T12:00:00","35.1","ND","14.17","ND","ND","ND","1.5","133.8","30.4","49.2","659.4","0"],
    [25674,"2013-04-10T13:00:00","19.8","ND","14.08","ND","ND","ND","0.8","105.3","31.3","47.5","659.7","0"],
    [25675,"2013-04-10T14:00:00","32.6","ND","18.45","ND","ND","ND","1","300.6","30.8","48.9","318.8","0"],
    [25676,"2013-04-10T15:00:00","17.8","ND","13.49","ND","ND","ND","2.2","257","31.1","47.4","378.3","0"],
    [25677,"2013-04-10T16:00:00","10.7","ND","12.94","ND","ND","ND","2.7","244.6","30.8","47.4","227.6","0"],
    [25678,"2013-04-10T17:00:00","42.3","ND","16.33","ND","ND","ND","2.9","252.5","30.3","48.1","153.2","0"],
    [25679,"2013-04-10T18:00:00","51.1","ND","24.22","ND","ND","ND","2","260.9","29.7","49","33","0"],
    [25680,"2013-04-10T19:00:00","27.9","ND","15.47","ND","ND","ND","3","278","28.8","51.8","0","0"],
    [25681,"2013-04-10T20:00:00","37.5","ND","21.79","ND","ND","ND","1.5","121.3","27.8","59","0","0"],
    [25682,"2013-04-10T21:00:00","32.6","ND","24.70","ND","ND","ND","1.5","171.5","25.6","72.9","0","0"],
    [25683,"2013-04-10T22:00:00","33.8","ND","23.10","ND","ND","ND","0.6","214.9","26.4","62.5","0","0"],
    [25684,"2013-04-10T23:00:00","21.9","ND","27.08","ND","ND","ND","1.3","137.8","26.4","62.7","0","0"],
    [25685,"2013-04-11T00:00:00","12.4","ND","17.03","ND","ND","ND","1.3","78.8","25","71.8","0","0"],
    [25686,"2013-04-11T01:00:00","7.6","ND","17.01","ND","ND","ND","1","15.6","22.7","86.6","0","0.25"],
    [25687,"2013-04-11T02:00:00","14.5","ND","21.98","ND","ND","ND","1.4","21.1","21.5","91.7","0","0"],
    [25688,"2013-04-11T03:00:00","9.3","ND","30.74","ND","ND","ND","0","238.6","21.6","90.9","0","0"],
    [25689,"2013-04-11T04:00:00","6.1","ND","27.73","ND","ND","ND","0.7","131.3","21.9","90.2","0","0.25"],
    [25690,"2013-04-11T05:00:00","4.9","ND","20.34","ND","ND","ND","0.8","37.9","21.2","91.1","0","0"],
    [25691,"2013-04-11T06:00:00","19.8","ND","21.70","ND","ND","ND","0.6","178.5","21.4","90.1","0","0"],
    [25692,"2013-04-11T07:00:00","17.5","ND","25.15","ND","ND","ND","0.7","210","22","86.9","26","0"],
    [25693,"2013-04-11T08:00:00","19.6","ND","26.64","ND","ND","ND","1.5","162.2","22.8","82.9","135","0"],
    [25694,"2013-04-11T09:00:00","12.1","ND","29.85","ND","ND","ND","1.2","182.4","23.7","78.7","246.2","0.25"],
    [25695,"2013-04-11T10:00:00","6","ND","23.98","ND","ND","ND","1.4","138.6","24.8","73.9","484.4","0"],
    [25696,"2013-04-11T11:00:00","4.9","ND","16.97","ND","ND","ND","1.4","131.8","26","68.9","452.5","0"],
    [25697,"2013-04-11T12:00:00","4.2","ND","19.50","ND","ND","ND","0.8","34.2","26.8","65.4","532","0"],
    [25698,"2013-04-11T13:00:00","45.2","ND","21.66","ND","ND","ND","0.8","128.1","28.4","57.4","880.8","0"],
    [25699,"2013-04-11T14:00:00","49.1","ND","29.80","ND","ND","ND","2","142.9","30","51.4","668.8","0"],
    [25700,"2013-04-11T15:00:00","ND","ND","ND","ND","ND","ND","ND","ND","ND","ND","ND","ND"],
    [25701,"2013-04-11T16:00:00","ND","ND","ND","ND","ND","ND","ND","ND","ND","ND","ND","ND"],
    [25702,"2013-04-11T17:00:00","ND","ND","ND","ND","ND","ND","ND","ND","ND","ND","ND","ND"],
    [25703,"2013-04-11T18:00:00","ND","ND","ND","ND","ND","ND","ND","ND","ND","ND","ND","ND"],
    [25704,"2013-04-11T19:00:00","ND","ND","ND","ND","ND","ND","ND","ND","ND","ND","ND","ND"],
    [25705,"2013-04-11T20:00:00","ND","ND","ND","ND","ND","ND","ND","ND","ND","ND","ND","ND"],
    [25706,"2013-04-11T21:00:00","ND","ND","ND","ND","ND","ND","ND","ND","ND","ND","ND","ND"],
    [25707,"2013-04-11T22:00:00","ND","ND","ND","ND","ND","ND","ND","ND","ND","ND","ND","ND"],
    [25708,"2013-04-11T23:00:00","ND","ND","ND","ND","ND","ND","ND","ND","ND","ND","ND","ND"],
    [25709,"2013-04-12T00:00:00","ND","ND","ND","ND","ND","ND","ND","ND","ND","ND","ND","ND"],
    [25710,"2013-04-12T01:00:00","ND","ND","ND","ND","ND","ND","ND","ND","ND","ND","ND","ND"],
    [25711,"2013-04-12T02:00:00","ND","ND","ND","ND","ND","ND","ND","ND","ND","ND","ND","ND"],
    [25712,"2013-04-12T03:00:00","ND","ND","ND","ND","ND","ND","ND","ND","ND","ND","ND","ND"],
    [25713,"2013-04-12T04:00:00","ND","ND","ND","ND","ND","ND","ND","ND","ND","ND","ND","ND"],
    [25714,"2013-04-12T05:00:00","ND","ND","ND","ND","ND","ND","ND","ND","ND","ND","ND","ND"],
    [25715,"2013-04-12T06:00:00","ND","ND","ND","ND","ND","ND","ND","ND","ND","ND","ND","ND"],
    [25716,"2013-04-12T07:00:00","ND","ND","ND","ND","ND","ND","ND","ND","ND","ND","ND","ND"],
    [25717,"2013-04-12T08:00:00","ND","ND","ND","ND","ND","ND","ND","ND","ND","ND","ND","ND"],
    [25718,"2013-04-12T09:00:00","ND","ND","ND","ND","ND","ND","ND","ND","ND","ND","ND","ND"],
    [25719,"2013-04-12T10:00:00","18.1","ND","ND","ND","ND","ND","ND","ND","ND","ND","ND","ND"],
    [25720,"2013-04-12T11:00:00","12.4","ND","18.49","ND","ND","ND","1.9","154.8","28.3","58.8","612.2","0"],
    [25721,"2013-04-12T12:00:00","21.2","ND","14.71","ND","ND","ND","1","142.1","29.6","54.2","797.2","0"],
    [25722,"2013-04-12T13:00:00","11.7","ND","14.78","ND","ND","ND","1.5","61.8","31.1","48.8","849.6","0"],
    [25723,"2013-04-12T14:00:00","7.8","ND","13.05","ND","ND","ND","1.5","83.8","32","46","628.9","0"],
    [25724,"2013-04-12T15:00:00","4.9","ND","16.02","ND","ND","ND","0.4","2.6","32.3","45.1","366.4","0"],
    [25725,"2013-04-12T16:00:00","13.1","ND","17.42","ND","ND","ND","3.1","263.5","32.2","46.6","512.2","0"],
    [25726,"2013-04-12T17:00:00","7.3","ND","18.31","ND","ND","ND","3.3","266.2","31","47.9","243.2","0"],
    [25727,"2013-04-12T18:00:00","20.9","ND","21.52","ND","ND","ND","2.4","268.3","30.2","49.5","67.7","0"],
    [25728,"2013-04-12T19:00:00","30.2","ND","31.65","ND","ND","ND","1.4","233.2","29.2","53.3","0","0"],
    [25729,"2013-04-12T20:00:00","40.2","ND","45.80","ND","ND","ND","0.8","148.5","28.3","57.5","0","0"],
    [25730,"2013-04-12T21:00:00","21","ND","48.08","ND","ND","ND","0.4","221.9","27.8","58.7","0","0"],
    [25731,"2013-04-12T22:00:00","54.8","ND","44.33","ND","ND","ND","0.4","91.4","27.1","62.9","0","0"],
    [25732,"2013-04-12T23:00:00","76.1","ND","42.81","ND","ND","ND","0.2","154","26.3","66.7","0","0"],
    [25733,"2013-04-13T00:00:00","73.6","ND","40.83","ND","ND","ND","0.3","283.8","25.8","69.6","0","0"],
    [25734,"2013-04-13T01:00:00","58.9","ND","35.08","ND","ND","ND","0.5","38.6","24.9","73.2","0","0"],
    [25735,"2013-04-13T02:00:00","38.3","ND","22.31","ND","ND","ND","0.3","122.9","24.6","74.4","0","0"],
    [25736,"2013-04-13T03:00:00","38.5","ND","22.23","ND","ND","ND","0.8","175","24.6","74.9","0","0"],
    [25737,"2013-04-13T04:00:00","38.3","ND","20.77","ND","ND","ND","0.9","161.1","24.1","78","0","0"],
    [25738,"2013-04-13T05:00:00","37","ND","23.42","ND","ND","ND","0.1","320.5","23.9","78.7","0","0"],
    [25739,"2013-04-13T06:00:00","35.3","ND","25.77","ND","ND","ND","0.8","12.9","23.3","80.4","0","0"],
    [25740,"2013-04-13T07:00:00","43.7","ND","27.09","ND","ND","ND","0.7","38.6","23.2","82","12.8","0"],
    [25741,"2013-04-13T08:00:00","57.4","ND","30.03","ND","ND","ND","0.1","106","24","78.5","87.4","0"],
    [25742,"2013-04-13T09:00:00","44.6","ND","44.73","ND","ND","ND","0.5","53.5","25.9","71.4","296.9","0"],
    [25743,"2013-04-13T10:00:00","71.7","ND","30.88","ND","ND","ND","1","43.5","27.3","65.3","494.5","0"],
    [25744,"2013-04-13T11:00:00","40","ND","16.49","ND","ND","ND","1.2","86.5","28.7","60","723.2","0"],
    [25745,"2013-04-13T12:00:00","30","ND","17.13","ND","ND","ND","1.1","137.1","30.1","55.3","762.4","0"],
    [25746,"2013-04-13T13:00:00","47.5","ND","16.77","ND","ND","ND","1.5","131.7","31.3","51.5","644.2","0"],
    [25747,"2013-04-13T14:00:00","47.5","ND","18.23","ND","ND","ND","0.7","37.4","31.9","49.5","369.9","0"],
    [25748,"2013-04-13T15:00:00","24.7","ND","15.11","ND","ND","ND","2.5","290.1","31.5","49.3","419.4","0"],
    [25749,"2013-04-13T16:00:00","14.4","ND","13.07","ND","ND","ND","4","250.1","32.1","47.4","505.4","0"],
    [25750,"2013-04-13T17:00:00","8.8","ND","12.26","ND","ND","ND","3.3","268.1","31.5","48.1","288.9","0"],
    [25751,"2013-04-13T18:00:00","22.9","ND","12.45","ND","ND","ND","3.1","264.3","30","50.5","71.8","0"],
    [25752,"2013-04-13T19:00:00","12.1","ND","27.09","ND","ND","ND","0.6","242.6","29.7","51","0","0"],
    [25753,"2013-04-13T20:00:00","30.9","ND","32.21","ND","ND","ND","1","121.4","29.3","52.3","0","0"],
    [25754,"2013-04-13T21:00:00","17.3","ND","41.23","ND","ND","ND","0.4","30","28.2","57.1","0","0"],
    [25755,"2013-04-13T22:00:00","47.2","ND","31.89","ND","ND","ND","0.7","90.8","27.5","60.7","0","0"],
    [25756,"2013-04-13T23:00:00","73.3","ND","36.74","ND","ND","ND","0.4","62.4","26.8","64.1","0","0"],
    [25757,"2013-04-14T00:00:00","39.8","ND","31.33","ND","ND","ND","0.5","54.1","26.2","66.1","0","0"],
    [25758,"2013-04-14T01:00:00","22.1","ND","26.14","ND","ND","ND","0.8","91.1","25.6","70.1","0","0"],
    [25759,"2013-04-14T02:00:00","32","ND","21.63","ND","ND","ND","0.2","303.8","25.1","72.1","0","0"],
    [25760,"2013-04-14T03:00:00","41.2","ND","18.19","ND","ND","ND","2.3","205.9","24","80.4","0","0"],
    [25761,"2013-04-14T04:00:00","25.6","ND","6.27","ND","ND","ND","1.4","228.3","22.9","86.1","0","5.59"],
    [25762,"2013-04-14T05:00:00","18.4","ND","6.34","ND","ND","ND","0.5","264.4","22.9","86.1","0","0.76"],
    [25763,"2013-04-14T06:00:00","9.8","ND","12.99","ND","ND","ND","0.4","279.5","22.7","89","0","0"],
    [25764,"2013-04-14T07:00:00","6.4","ND","16.83","ND","ND","ND","0.6","202.5","22.9","89.5","15.9","0.25"],
    [25765,"2013-04-14T08:00:00","5.9","ND","20.18","ND","ND","ND","0.6","234.8","23.5","86.7","34.1","0"],
    [25766,"2013-04-14T09:00:00","4.3","ND","23.04","ND","ND","ND","0.7","174.6","24.1","85.9","99.3","0"],
    [25767,"2013-04-14T10:00:00","24.8","ND","23.03","ND","ND","ND","0.9","55.7","24.9","82.9","290.6","0"],
    [25768,"2013-04-14T11:00:00","21.1","ND","16.91","ND","ND","ND","1.6","39.8","25.9","75.2","387.1","0"],
    [25769,"2013-04-14T12:00:00","11.8","ND","13.71","ND","ND","ND","1.2","80.5","27.1","67.6","428.1","0"],
    [25770,"2013-04-14T13:00:00","7.4","ND","13.44","ND","ND","ND","1.1","94.5","28.3","63.1","854.6","0"],
    [25771,"2013-04-14T14:00:00","5.9","ND","11.06","ND","ND","ND","1.4","107.7","29.3","57.7","472.3","0"],
    [25772,"2013-04-14T15:00:00","3.6","ND","9.08","ND","ND","ND","1.7","141","29.5","56.7","327.4","0"],
    [25773,"2013-04-14T16:00:00","3.9","ND","10.20","ND","ND","ND","1.5","151.8","29.2","57.2","218.1","0"],
    [25774,"2013-04-14T17:00:00","4.1","ND","12.35","ND","ND","ND","1.2","171.2","29.1","57.8","162.2","0"],
    [25775,"2013-04-14T18:00:00","6.4","ND","14.33","ND","ND","ND","0.3","178.6","29","59.1","65.2","0"],
    [25776,"2013-04-14T19:00:00","5","ND","18.03","ND","ND","ND","0.6","309.2","28.2","58.9","0","0"],
    [25777,"2013-04-14T20:00:00","3.2","ND","20.74","ND","ND","ND","0.3","212.9","27.3","59.9","0","0"],
    [25778,"2013-04-14T21:00:00","2.3","ND","24.41","ND","ND","ND","0.5","194.1","26.9","60.9","0","0"],
    [25779,"2013-04-14T22:00:00","17.4","ND","22.56","ND","ND","ND","0.6","133.2","26.2","64.8","0","0"],
    [25780,"2013-04-14T23:00:00","10.5","ND","9.63","ND","ND","ND","2.7","193.2","25.9","67.1","0","0"],
    [25781,"2013-04-15T00:00:00","6.9","ND","11.62","ND","ND","ND","0.5","64.9","25.9","65.9","0","0"],
    [25782,"2013-04-15T01:00:00","4.7","ND","22.00","ND","ND","ND","0.9","357.2","24.5","74.3","0","0"],
    [25783,"2013-04-15T02:00:00","4.2","ND","17.30","ND","ND","ND","0.3","39.3","23.9","77.4","0","0"],
    [25784,"2013-04-15T03:00:00","3.6","ND","16.49","ND","ND","ND","1.3","199.5","23.4","83.2","0","0"],
    [25785,"2013-04-15T04:00:00","3.2","ND","8.14","ND","ND","ND","1.2","222.7","22.5","85.4","0","2.79"],
    [25786,"2013-04-15T05:00:00","3.5","ND","11.03","ND","ND","ND","0.5","99.2","22.2","88.5","0","0.76"],
    [25787,"2013-04-15T06:00:00","3.4","ND","22.12","ND","ND","ND","0.2","277","21.8","91.5","0","0.76"],
    [25788,"2013-04-15T07:00:00","3","ND","24.70","ND","ND","ND","0.1","329","22","91.9","14.9","0.76"],
    [25789,"2013-04-15T08:00:00","3.1","ND","29.99","ND","ND","ND","0.3","81.3","22.6","88.9","83.5","0.25"],
    [25790,"2013-04-15T09:00:00","10.1","ND","36.59","ND","ND","ND","0.2","166.8","23.3","86.3","156.3","0"],
    [25791,"2013-04-15T10:00:00","15.4","ND","39.27","ND","ND","ND","0.4","59.2","25","75.6","323.7","0"],
    [25792,"2013-04-15T11:00:00","9","ND","36.41","ND","ND","ND","0.9","137.1","26.6","67.6","661.5","0"],
    [25793,"2013-04-15T12:00:00","7.7","ND","25.19","ND","ND","ND","1","87.9","28.2","61.6","651.4","0"],
    [25794,"2013-04-15T13:00:00","5.7","ND","16.33","ND","ND","ND","1.4","74.5","28.5","59.3","514.1","0"],
    [25795,"2013-04-15T14:00:00","3.9","ND","14.92","ND","ND","ND","1.3","119.6","29.3","55.9","551.8","0"],
    [25796,"2013-04-15T15:00:00","4.3","ND","18.92","ND","ND","ND","1","167.3","29.7","55.7","486.3","0"],
    [25797,"2013-04-15T16:00:00","18.3","ND","21.50","ND","ND","ND","1.6","266.1","29.9","55.2","318.7","0.25"],
    [25798,"2013-04-15T17:00:00","10.2","ND","64.35","ND","ND","ND","1.1","285.2","29.1","51.2","80.8","0"],
    [25799,"2013-04-15T18:00:00","5.1","ND","37.08","ND","ND","ND","0.5","192.9","29.1","51.6","40.6","0"],
    [25800,"2013-04-15T19:00:00","4.4","ND","46.10","ND","ND","ND","0.6","217.5","28.4","53.2","0","0"],
    [25801,"2013-04-15T20:00:00","3.2","ND","37.54","ND","ND","ND","1.2","242.8","27.6","54","0","0"],
    [25802,"2013-04-15T21:00:00","11.9","ND","42.87","ND","ND","ND","0.3","125.7","26.6","59.5","0","0"],
    [25803,"2013-04-15T22:00:00","29.2","ND","32.13","ND","ND","ND","0.5","158.6","25.3","70","0","0"],
    [25804,"2013-04-15T23:00:00","16.9","ND","31.85","ND","ND","ND","0.3","178.7","25","70.8","0","0"],
    [25805,"2013-04-16T00:00:00","24.8","ND","31.01","ND","ND","ND","0.6","38.6","24.5","74.1","0","0"],
    [25806,"2013-04-16T01:00:00","14.5","ND","29.18","ND","ND","ND","0.7","46.5","23.5","79.3","0","0"],
    [25807,"2013-04-16T02:00:00","20.1","ND","24.54","ND","ND","ND","0.2","167.7","23","82.1","0","0"],
    [25808,"2013-04-16T03:00:00","11.9","ND","23.26","ND","ND","ND","0.2","187.6","23.3","80.4","0","0"],
    [25809,"2013-04-16T04:00:00","6.6","ND","20.17","ND","ND","ND","0.4","251.4","23.1","82.5","0","0"],
    [25810,"2013-04-16T05:00:00","4","ND","17.65","ND","ND","ND","0.7","184.1","22.8","83.9","0","0"],
    [25811,"2013-04-16T06:00:00","32.3","ND","17.57","ND","ND","ND","0.5","9.9","22.5","85.4","0","0"],
    [25812,"2013-04-16T07:00:00","33.9","ND","18.60","ND","ND","ND","0.7","210.7","22.8","84.6","25.4","0"],
    [25813,"2013-04-16T08:00:00","51.1","ND","23.19","ND","ND","ND","0.8","36.8","23.1","83.9","138.3","0"],
    [25814,"2013-04-16T09:00:00","40.2","ND","37.12","ND","ND","ND","1.2","106.5","25.7","71.2","444.4","0"],
    [25815,"2013-04-16T10:00:00","30.1","ND","27.93","ND","ND","ND","1.2","87.4","27.4","63.2","611.1","0"],
    [25816,"2013-04-16T11:00:00","17.2","ND","19.38","ND","ND","ND","1.5","122.5","28.5","58.5","704","0"],
    [25817,"2013-04-16T12:00:00","20.6","ND","15.33","ND","ND","ND","1.1","144.3","30.2","51.4","903.2","0"],
    [25818,"2013-04-16T13:00:00","15.1","ND","18.33","ND","ND","ND","1.3","141.7","31.7","47.4","815.3","0"],
    [25819,"2013-04-16T14:00:00","24.3","ND","18.31","ND","ND","ND","0.7","75","32.6","45.2","657.8","0"],
    [25820,"2013-04-16T15:00:00","21.7","ND","23.02","ND","ND","ND","1.2","42.3","32.3","45.9","317.4","0"],
    [25821,"2013-04-16T16:00:00","30.7","ND","17.41","ND","ND","ND","2.9","280.7","32.4","45.8","470","0"],
    [25822,"2013-04-16T17:00:00","17.5","ND","14.59","ND","ND","ND","3.6","271","31.2","47.7","281.2","0"],
    [25823,"2013-04-16T18:00:00","12.6","ND","22.92","ND","ND","ND","2.8","251.9","29.9","50.7","42.3","0"],
    [25824,"2013-04-16T19:00:00","27.7","ND","20.94","ND","ND","ND","1.4","221.3","27.6","59.7","0","0"],
    [25825,"2013-04-16T20:00:00","33.6","ND","38.70","ND","ND","ND","0.8","10","26.3","66.1","0","0"],
    [25826,"2013-04-16T21:00:00","23.6","ND","40.52","ND","ND","ND","0.1","296.6","26.2","67.6","0","0"],
    [25827,"2013-04-16T22:00:00","49","ND","48.21","ND","ND","ND","0.5","143.5","25.9","71.5","0","0"],
    [25828,"2013-04-16T23:00:00","42.4","ND","41.60","ND","ND","ND","0.1","265.3","25.1","75.9","0","0"],
    [25829,"2013-04-17T00:00:00","62.6","ND","41.36","ND","ND","ND","0.7","123.3","25.1","74.9","0","0"],
    [25830,"2013-04-17T01:00:00","32","ND","30.59","ND","ND","ND","1.1","169.9","24.7","74.4","0","0"],
    [25831,"2013-04-17T02:00:00","37.8","ND","22.81","ND","ND","ND","0.5","212","24.1","78.7","0","0"],
    [25832,"2013-04-17T03:00:00","25.8","ND","23.46","ND","ND","ND","0.2","8.9","24","78.7","0","0"],
    [25833,"2013-04-17T04:00:00","47.3","ND","25.46","ND","ND","ND","0.1","126.6","24.1","77.9","0","0"],
    [25834,"2013-04-17T05:00:00","26","ND","25.96","ND","ND","ND","0.2","282.4","23.4","81.4","0","0"],
    [25835,"2013-04-17T06:00:00","69.6","ND","25.76","ND","ND","ND","0.8","33.1","23","84.1","0","0"],
    [25836,"2013-04-17T07:00:00","65","ND","23.97","ND","ND","ND","0.3","28.6","23.3","83.1","40.1","0"],
    [25837,"2013-04-17T08:00:00","86.4","ND","39.22","ND","ND","ND","0.3","133","24.8","75.1","191.9","0"],
    [25838,"2013-04-17T09:00:00","68.1","ND","62.28","ND","ND","ND","1.6","161","26.5","66.4","401.5","0"],
    [25839,"2013-04-17T10:00:00","52.9","ND","47.20","ND","ND","ND","1.4","79.6","28","62.9","605.1","0"],
    [25840,"2013-04-17T11:00:00","45.6","ND","36.48","ND","ND","ND","0.8","135","28.4","60.9","323","0"],
    [25841,"2013-04-17T12:00:00","40.3","ND","24.73","ND","ND","ND","0.5","22.8","29.8","53.3","713.1","0"],
    [25842,"2013-04-17T13:00:00","21","ND","10.24","ND","ND","ND","2.1","19.5","30.9","47.4","735.2","0"],
    [25843,"2013-04-17T14:00:00","11.6","ND","6.75","ND","ND","ND","4.2","268.5","31.4","44.9","765.1","0"],
    [25844,"2013-04-17T15:00:00","7.7","ND","8.39","ND","ND","ND","4.5","277.1","31.3","43.9","632.8","0"],
    [25845,"2013-04-17T16:00:00","18.4","ND","5.46","ND","ND","ND","4.8","288.5","30","46.7","339.2","0"],
    [25846,"2013-04-17T17:00:00","37.9","ND","12.47","ND","ND","ND","2.1","7.1","29.2","51.5","126.7","0"],
    [25847,"2013-04-17T18:00:00","ND","ND","21.48","ND","ND","ND","1.2","166.6","26.7","65.1","4.5","0"],
    [25848,"2013-04-17T19:00:00","29.2","ND","26.61","ND","ND","ND","2.9","183.9","23.1","84.5","0","1.78"],
    [25849,"2013-04-17T20:00:00","40","ND","24.00","ND","ND","ND","2.3","162.1","22","94.1","0","7.62"],
    [25850,"2013-04-17T21:00:00","35.3","ND","26.25","ND","ND","ND","2.3","184.4","21.4","95.5","0","4.32"],
    [25851,"2013-04-17T22:00:00","19.8","ND","17.07","ND","ND","ND","1.5","196.9","21.8","92.6","0","2.29"],
    [25852,"2013-04-17T23:00:00","10.8","ND","20.15","ND","ND","ND","1.7","172.1","22","90.5","0","2.03"],
    [25853,"2013-04-18T00:00:00","7.8","ND","15.12","ND","ND","ND","1.4","160.8","21.6","91.7","0","2.03"],
    [25854,"2013-04-18T01:00:00","5.6","ND","11.03","ND","ND","ND","0.7","156.1","21.4","93.1","0","0.76"],
    [25855,"2013-04-18T02:00:00","3.4","ND","8.71","ND","ND","ND","0.1","215","21.3","93.9","0","0.25"],
    [25856,"2013-04-18T03:00:00","2.9","ND","9.08","ND","ND","ND","0","182.5","21.4","94.3","0","0.25"],
    [25857,"2013-04-18T04:00:00","11.2","ND","10.78","ND","ND","ND","0.5","29.6","21.2","94.5","0","0"],
    [25858,"2013-04-18T05:00:00","7.3","ND","10.80","ND","ND","ND","1.2","44.3","20.7","96.6","0","0"],
    [25859,"2013-04-18T06:00:00","14.7","ND","17.67","ND","ND","ND","0.6","5.2","20.7","96.2","0","0"],
    [25860,"2013-04-18T07:00:00","16.4","ND","18.61","ND","ND","ND","0.2","138.9","20.9","93.7","26.2","0.25"],
    [25861,"2013-04-18T08:00:00","20.4","ND","21.47","ND","ND","ND","0.7","152.4","22.2","85.2","149.4","0"],
    [25862,"2013-04-18T09:00:00","12.6","ND","26.21","ND","ND","ND","0.7","184.2","23","77.6","255.9","0"],
    [25863,"2013-04-18T10:00:00","28.7","ND","23.35","ND","ND","ND","1.5","96.9","25","70.5","574.5","0"],
    [25864,"2013-04-18T11:00:00","22.8","ND","24.27","ND","ND","ND","1.1","85.6","25.2","69.1","257.3","0"],
    [25865,"2013-04-18T12:00:00","22.5","ND","21.13","ND","ND","ND","1","26.8","25.5","67.6","304.5","0"],
    [25866,"2013-04-18T13:00:00","12.3","ND","22.16","ND","ND","ND","1.1","68.6","26.7","64.6","672.5","0"],
    [25867,"2013-04-18T14:00:00","8.7","ND","18.21","ND","ND","ND","0.9","79.8","28.1","58.1","667.8","0"],
    [25868,"2013-04-18T15:00:00","5.7","ND","18.51","ND","ND","ND","0.3","272","29.5","53.2","495.9","0"],
    [25869,"2013-04-18T16:00:00","4.3","ND","25.26","ND","ND","ND","1.1","207.6","28.4","58.3","105.1","4.83"],
    [25870,"2013-04-18T17:00:00","16.3","ND","36.79","ND","ND","ND","0.8","295.9","24.9","80.2","39.2","5.33"],
    [25871,"2013-04-18T18:00:00","38.6","ND","25.97","ND","ND","ND","0.5","238.9","25.2","77.4","15.1","0"],
    [25872,"2013-04-18T19:00:00","25.6","ND","22.33","ND","ND","ND","0.4","299.4","25.9","66","0","0"],
    [25873,"2013-04-18T20:00:00","31.5","ND","29.90","ND","ND","ND","1","119.9","25.5","70.3","0","0"],
    [25874,"2013-04-18T21:00:00","33.7","ND","21.21","ND","ND","ND","0.2","52.7","23.4","82.2","0","0"],
    [25875,"2013-04-18T22:00:00","34.3","ND","28.16","ND","ND","ND","2.6","172","21.9","92.3","0","34.8"],
    [25876,"2013-04-18T23:00:00","51.2","ND","29.09","ND","ND","ND","1.4","175.4","20.9","99.7","0","15.24"],
    [25877,"2013-04-19T00:00:00","34.3","ND","18.12","ND","ND","ND","1.6","160.2","20.7","100","0","3.3"],
    [25878,"2013-04-19T01:00:00","19","ND","10.87","ND","ND","ND","2","188.7","20.6","100","0","5.84"],
    [25879,"2013-04-19T02:00:00","11.5","ND","12.92","ND","ND","ND","1.8","186.8","20.4","98","0","6.86"],
    [25880,"2013-04-19T03:00:00","12.9","ND","6.10","ND","ND","ND","1.5","175","20.4","94.8","0","0.51"],
    [25881,"2013-04-19T04:00:00","6.4","ND","10.36","ND","ND","ND","0.5","150.5","20.7","92.8","0","0"],
    [25882,"2013-04-19T05:00:00","4.8","ND","15.22","ND","ND","ND","1.1","45.1","20.3","95.3","0","0.25"],
    [25883,"2013-04-19T06:00:00","9.6","ND","15.35","ND","ND","ND","0.5","17.3","20","97.2","0","0"],
    [25884,"2013-04-19T07:00:00","5.6","ND","18.77","ND","ND","ND","0.8","349","20.1","96.8","8.7","1.27"],
    [25885,"2013-04-19T08:00:00","14.4","ND","19.71","ND","ND","ND","0.8","49.7","20.3","96.4","55.7","0.25"],
    [25886,"2013-04-19T09:00:00","10.3","ND","19.03","ND","ND","ND","0.4","84.8","21.3","90.5","201.9","0"],
    [25887,"2013-04-19T10:00:00","24.7","ND","23.43","ND","ND","ND","0.8","70.2","22.9","81.9","374.9","0"],
    [25888,"2013-04-19T11:00:00","14.9","ND","13.81","ND","ND","ND","1.5","52.6","24.6","70.7","769.7","0"],
    [25889,"2013-04-19T12:00:00","9.4","ND","8.28","ND","ND","ND","1.2","48.7","26","63.9","631.5","0"],
    [25890,"2013-04-19T13:00:00","10.3","ND","15.32","ND","ND","ND","0.4","120","26.9","63.1","532.8","0"],
    [25891,"2013-04-19T14:00:00","6.9","ND","17.88","ND","ND","ND","0.7","217.2","27.9","59.1","526.7","0"],
    [25892,"2013-04-19T15:00:00","ND","ND","12.93","ND","ND","ND","0.4","168.9","28.7","55","398.1","0.25"],
    [25893,"2013-04-19T16:00:00","ND","ND","9.31","ND","ND","ND","1.3","326.7","27.6","57","128.4","0"],
    [25894,"2013-04-19T17:00:00","ND","ND","24.73","ND","ND","ND","0.2","15.5","25.9","68.1","67.8","0"],
    [25895,"2013-04-19T18:00:00","8.6","ND","20.46","ND","ND","ND","0.5","274.3","25.1","75","20.7","0"],
    [25896,"2013-04-19T19:00:00","32.1","ND","17.10","ND","ND","ND","0.2","209","25","74","0","0"],
    [25897,"2013-04-19T20:00:00","34.6","ND","16.72","ND","ND","ND","0.3","356.2","24.6","73.1","0","0"],
    [25898,"2013-04-19T21:00:00","34.5","ND","11.22","ND","ND","ND","0.5","20.6","22.9","80.8","0","0"],
    [25899,"2013-04-19T22:00:00","23.7","ND","9.33","ND","ND","ND","0.7","164.4","22.2","88.7","0","0"],
    [25900,"2013-04-19T23:00:00","27.5","ND","9.43","ND","ND","ND","0.9","200.2","21.8","89.8","0","0"],
    [25901,"2013-04-20T00:00:00","29.2","ND","13.76","ND","ND","ND","1.2","161.7","21.7","91.7","0","0"],
    [25902,"2013-04-20T01:00:00","18.1","ND","10.34","ND","ND","ND","1.3","180.1","21.2","94.9","0","0"],
    [25903,"2013-04-20T02:00:00","14.6","ND","10.44","ND","ND","ND","0.5","206.2","21","94.4","0","0"],
    [25904,"2013-04-20T03:00:00","9.6","ND","10.84","ND","ND","ND","0.2","312.7","20.8","94.8","0","0"],
    [25905,"2013-04-20T04:00:00","7.5","ND","5.21","ND","ND","ND","0.3","308.4","20.6","93.7","0","0"],
    [25906,"2013-04-20T05:00:00","4.8","ND","4.83","ND","ND","ND","0","0","20.7","93.6","0","0"],
    [25907,"2013-04-20T06:00:00","4.9","ND","6.49","ND","ND","ND","0","246.4","20.6","93.4","0","0"],
    [25908,"2013-04-20T07:00:00","4.3","ND","7.29","ND","ND","ND","0.1","25.3","20.6","92.8","27.1","0"],
    [25909,"2013-04-20T08:00:00","3.6","ND","10.27","ND","ND","ND","0.8","10.6","21.5","88.5","111.5","0"],
    [25910,"2013-04-20T09:00:00","7.5","ND","12.65","ND","ND","ND","0.5","62.9","22.2","87.7","97.3","0"],
    [25911,"2013-04-20T10:00:00","7.2","ND","13.80","ND","ND","ND","0.2","38.5","22.8","84.5","150.9","0"],
    [25912,"2013-04-20T11:00:00","4.7","ND","11.07","ND","ND","ND","0.3","63.7","23.9","77.8","301.9","0"],
    [25913,"2013-04-20T12:00:00","27","ND","11.43","ND","ND","ND","0.2","41.9","25","70","289","0"],
    [25914,"2013-04-20T13:00:00","15.8","ND","11.66","ND","ND","ND","0.6","32.9","25.5","68.3","365.5","0"],
    [25915,"2013-04-20T14:00:00","9.1","ND","11.84","ND","ND","ND","1","58.3","26.7","64","570.1","0"],
    [25916,"2013-04-20T15:00:00","11.5","ND","7.35","ND","ND","ND","1.7","126.2","26.8","61.2","235.3","0"],
    [25917,"2013-04-20T16:00:00","11.8","ND","6.97","ND","ND","ND","2.8","185.6","21.2","88.4","9","22.61"],
    [25918,"2013-04-20T17:00:00","23.9","ND","14.96","ND","ND","ND","1.2","212.6","20.4","97.7","11.1","7.87"],
    [25919,"2013-04-20T18:00:00","13.4","ND","16.10","ND","ND","ND","0.3","259.8","20.9","95.2","13.5","3.56"],
    [25920,"2013-04-20T19:00:00","13","ND","15.60","ND","ND","ND","0.1","319.7","21.2","91.2","0","0.25"],
    [25921,"2013-04-20T20:00:00","8.7","ND","20.34","ND","ND","ND","0.6","40.8","20.9","93.9","0","0"],
    [25922,"2013-04-20T21:00:00","14.1","ND","19.58","ND","ND","ND","0.1","145","20.7","94.1","0","0.25"],
    [25923,"2013-04-20T22:00:00","9.4","ND","18.59","ND","ND","ND","0.4","165.1","20.8","89.5","0","0"],
    [25924,"2013-04-20T23:00:00","25.2","ND","13.79","ND","ND","ND","0.6","356.7","20.7","91.7","0","0"],
    [25925,"2013-04-21T00:00:00","14.2","ND","13.64","ND","ND","ND","0.1","265.7","20.6","92.7","0","0"],
    [25926,"2013-04-21T01:00:00","24.5","ND","8.40","ND","ND","ND","0.4","4.5","20.4","93.4","0","0"],
    [25927,"2013-04-21T02:00:00","14.4","ND","9.65","ND","ND","ND","0.2","36","20.1","94.6","0","0"],
    [25928,"2013-04-21T03:00:00","18.9","ND","12.86","ND","ND","ND","0.2","134.1","20.1","93.8","0","0"],
    [25929,"2013-04-21T04:00:00","10.3","ND","7.06","ND","ND","ND","0.2","133.4","20.3","93.9","0","0"],
    [25930,"2013-04-21T05:00:00","17.4","ND","5.71","ND","ND","ND","0.4","135.6","20.4","94.2","0","0"],
    [25931,"2013-04-21T06:00:00","27.8","ND","5.73","ND","ND","ND","0.1","50","20.3","93.3","0","0.25"],
    [25932,"2013-04-21T07:00:00","34.2","ND","5.14","ND","ND","ND","0.1","75.3","20.4","94.2","22.6","0"],
    [25933,"2013-04-21T08:00:00","26.9","ND","7.97","ND","ND","ND","0.2","144.3","20.9","91.6","84.3","0"],
    [25934,"2013-04-21T09:00:00","36.2","ND","11.46","ND","ND","ND","0.5","136.8","22.3","84.4","280.8","0"],
    [25935,"2013-04-21T10:00:00","18.8","ND","14.83","ND","ND","ND","0.9","188.2","23.2","79.3","241.6","0"],
    [25936,"2013-04-21T11:00:00","30.1","ND","11.68","ND","ND","ND","0.5","166.2","24.7","71","601.8","0"],
    [25937,"2013-04-21T12:00:00","17","ND","9.82","ND","ND","ND","1","68.7","26.3","64.7","707.1","0"],
    [25938,"2013-04-21T13:00:00","19.4","ND","12.21","ND","ND","ND","0.3","132","27.5","60.7","650.8","0"],
    [25939,"2013-04-21T14:00:00","10.8","ND","18.61","ND","ND","ND","1.6","343","28","59.8","552.2","0"],
    [25940,"2013-04-21T15:00:00","17.3","ND","13.62","ND","ND","ND","1.8","329.4","27.2","61.6","298.4","0"],
    [25941,"2013-04-21T16:00:00","10.7","ND","7.02","ND","ND","ND","0.5","288.5","27.8","57.9","215.3","0"],
    [25942,"2013-04-21T17:00:00","7.4","ND","5.47","ND","ND","ND","0.3","226.3","27.6","58.4","98.3","0"],
    [25943,"2013-04-21T18:00:00","4.8","ND","7.41","ND","ND","ND","0.4","254.3","26.9","58.4","31.2","0"],
    [25944,"2013-04-21T19:00:00","3.6","ND","7.54","ND","ND","ND","0.8","265.7","25.9","59","0","0"],
    [25945,"2013-04-21T20:00:00","4.3","ND","11.70","ND","ND","ND","0.7","137.7","25.5","62.5","0","0"],
    [25946,"2013-04-21T21:00:00","3.4","ND","9.43","ND","ND","ND","0.5","165.3","24.8","67.9","0","0"],
    [25947,"2013-04-21T22:00:00","21.7","ND","14.12","ND","ND","ND","0","268.2","24.1","72.3","0","0"],
    [25948,"2013-04-21T23:00:00","36.7","ND","16.37","ND","ND","ND","0.3","239.8","23.6","75.2","0","0"],
    [25949,"2013-04-22T00:00:00","19.7","ND","8.93","ND","ND","ND","0.4","56.1","23.1","79.8","0","0"],
    [25950,"2013-04-22T01:00:00","26.6","ND","4.93","ND","ND","ND","0.5","107.7","22.7","79.5","0","0"],
    [25951,"2013-04-22T02:00:00","14.1","ND","1.81","ND","ND","ND","0.7","120.6","21.5","87.2","0","0"],
    [25952,"2013-04-22T03:00:00","7.7","ND","35.52","ND","ND","ND","1.1","145.5","20.9","92.5","0","0"],
    [25953,"2013-04-22T04:00:00","6.6","ND","18.63","ND","ND","ND","1.3","146.8","20.9","93","0","0"],
    [25954,"2013-04-22T05:00:00","3.3","ND","11.32","ND","ND","ND","1.1","167.9","20.5","93.7","0","0"],
    [25955,"2013-04-22T06:00:00","3","ND","6.07","ND","ND","ND","1.3","139.1","20.5","92.3","0","0"],
    [25956,"2013-04-22T07:00:00","2.3","ND","23.22","ND","ND","ND","0.8","161.9","20.4","90.9","9.4","0"],
    [25957,"2013-04-22T08:00:00","2.6","ND","14.95","ND","ND","ND","0.4","175.9","20.8","88.9","36","0"],
    [25958,"2013-04-22T09:00:00","2.2","ND","16.09","ND","ND","ND","0.4","162","21.7","84.7","166.9","0"],
    [25959,"2013-04-22T10:00:00","15.5","ND","21.93","ND","ND","ND","0.3","264.1","23","79.3","296.4","0"],
    [25960,"2013-04-22T11:00:00","9.8","ND","34.75","ND","ND","ND","0.7","152.9","25.3","68.5","837","0"],
    [25961,"2013-04-22T12:00:00","6","ND","28.97","ND","ND","ND","1.2","110.5","27","60.5","755.3","0"],
    [25962,"2013-04-22T13:00:00","20.8","ND","17.12","ND","ND","ND","0.3","60.6","27.9","58.1","489.6","0"],
    [25963,"2013-04-22T14:00:00","21.7","ND","25.76","ND","ND","ND","1.1","249.5","27.8","58.6","500","0"],
    [25964,"2013-04-22T15:00:00","13.1","ND","37.04","ND","ND","ND","2.8","270.3","27.2","59.5","177.4","0"],
    [25965,"2013-04-22T16:00:00","18.2","ND","15.28","ND","ND","ND","2.3","269.2","26.5","63","111.8","0"],
    [25966,"2013-04-22T17:00:00","10.2","ND","6.89","ND","ND","ND","0.9","248.1","26.6","60","93.8","0"],
    [25967,"2013-04-22T18:00:00","5.7","ND","9.71","ND","ND","ND","0.7","160.6","27","56.9","45.4","0"],
    [25968,"2013-04-22T19:00:00","19.4","ND","11.47","ND","ND","ND","0.9","174.6","26","60.5","0","0"],
    [25969,"2013-04-22T20:00:00","16.2","ND","13.88","ND","ND","ND","1.3","126.9","25","67.5","0","0"],
    [25970,"2013-04-22T21:00:00","13.2","ND","35.55","ND","ND","ND","0.9","206.7","23.7","72.9","0","0"],
    [25971,"2013-04-22T22:00:00","7.6","ND","18.03","ND","ND","ND","0.6","327.3","22.6","84.9","0","0"],
    [25972,"2013-04-22T23:00:00","41.9","ND","21.05","ND","ND","ND","0.5","15.2","22","87.1","0","0"],
    [25973,"2013-04-23T00:00:00","23.2","ND","13.40","ND","ND","ND","0.3","165.4","21.8","88.4","0","0"],
    [25974,"2013-04-23T01:00:00","15.5","ND","9.47","ND","ND","ND","0.1","315.7","21.4","89.9","0","0"],
    [25975,"2013-04-23T02:00:00","15","ND","9.31","ND","ND","ND","0.2","47.2","21.1","88.9","0","0"],
    [25976,"2013-04-23T03:00:00","22.5","ND","10.08","ND","ND","ND","0.6","28.2","20.8","91.4","0","0"],
    [25977,"2013-04-23T04:00:00","16.8","ND","34.89","ND","ND","ND","0.3","151.3","21.1","90.8","0","0"],
    [25978,"2013-04-23T05:00:00","45.8","ND","48.94","ND","ND","ND","0.1","296.2","21.4","89.9","0","0"],
    [25979,"2013-04-23T06:00:00","38.1","ND","52.06","ND","ND","ND","0.4","38.4","21.3","89.9","0","0"],
    [25980,"2013-04-23T07:00:00","65","ND","28.05","ND","ND","ND","0.2","184.3","21.5","89.5","17.3","0"],
    [25981,"2013-04-23T08:00:00","55.2","ND","19.24","ND","ND","ND","0.2","107.5","22.5","85.6","142.1","0"],
    [25982,"2013-04-23T09:00:00","67.7","ND","78.03","ND","ND","ND","0.2","54.2","24","76.2","289","0"],
    [25983,"2013-04-23T10:00:00","ND","ND","75.40","ND","ND","ND","0.9","98.7","25.4","70.5","499.4","0"],
    [25984,"2013-04-23T11:00:00","ND","ND","34.29","ND","ND","ND","0.9","64.9","26.9","61.7","749.6","0"],
    [25985,"2013-04-23T12:00:00","ND","ND","18.05","ND","ND","ND","1.3","92.7","28.2","57.4","781.7","0"],
    [25986,"2013-04-23T13:00:00","ND","ND","18.33","ND","ND","ND","0.7","97.1","28.8","55","400.1","0"],
    [25987,"2013-04-23T14:00:00","9.6","ND","24.44","ND","ND","ND","0.8","27.1","29.3","53.7","419.7","0"],
    [25988,"2013-04-23T15:00:00","15.2","ND","23.47","ND","ND","ND","1.3","246.5","29.4","51.9","375.6","0"],
    [25989,"2013-04-23T16:00:00","8.6","ND","61.03","ND","ND","ND","0.4","174.1","30.2","48.8","254.6","0"],
    [25990,"2013-04-23T17:00:00","8","ND","ND","ND","ND","ND","1.4","289.3","29","52.8","59.7","0"],
    [25991,"2013-04-23T18:00:00","6.7","ND","ND","ND","ND","ND","5.1","219.5","23.4","76.6","11.3","0"],
    [25992,"2013-04-23T19:00:00","23.4","ND","56.01","ND","ND","ND","2.1","252.1","24.7","64.1","0","0"],
    [25993,"2013-04-23T20:00:00","12.6","ND","45.65","ND","ND","ND","0.8","3.1","25.6","62.6","0","0"],
    [25994,"2013-04-23T21:00:00","49.5","ND","44.94","ND","ND","ND","2.3","181.8","23.3","76.8","0","0"],
    [25995,"2013-04-23T22:00:00","38","ND","28.89","ND","ND","ND","1.5","203.5","22.9","76.3","0","0"],
    [25996,"2013-04-23T23:00:00","19.6","ND","30.58","ND","ND","ND","0.2","314.9","22.9","77.7","0","0"],
    [25997,"2013-04-24T00:00:00","28","ND","27.16","ND","ND","ND","0.1","67.8","22.7","79.9","0","0"],
    [25998,"2013-04-24T01:00:00","38.3","ND","32.24","ND","ND","ND","0.4","174.5","22.2","81.8","0","0"],
    [25999,"2013-04-24T02:00:00","36","ND","30.19","ND","ND","ND","0.1","281.2","22","84.5","0","0"],
    [26000,"2013-04-24T03:00:00","39.6","ND","27.83","ND","ND","ND","0.1","48.7","21.9","84.5","0","0"],
    [26001,"2013-04-24T04:00:00","29.9","ND","24.47","ND","ND","ND","0.3","165.5","21.7","86.1","0","0"],
    [26002,"2013-04-24T05:00:00","31.6","ND","18.76","ND","ND","ND","0.4","188.2","21.4","87.7","0","0"],
    [26003,"2013-04-24T06:00:00","23","ND","17.25","ND","ND","ND","0.1","318.1","21.5","87.4","0","0"],
    [26004,"2013-04-24T07:00:00","54.5","ND","23.39","ND","ND","ND","0.1","49","21.7","87.6","39.8","0"],
    [26005,"2013-04-24T08:00:00","69.1","ND","26.48","ND","ND","ND","0.9","20.5","22","87","82.5","0"],
    [26006,"2013-04-24T09:00:00","71.2","ND","32.33","ND","ND","ND","0.2","213.1","24.4","73.4","458.3","0"],
    [26007,"2013-04-24T10:00:00","38.3","ND","26.20","ND","ND","ND","1.5","146.6","26.7","61.6","650.9","0"],
    [26008,"2013-04-24T11:00:00","ND","ND","ND","ND","ND","ND","ND","ND","ND","ND","ND","ND"],
    [26009,"2013-04-24T12:00:00","ND","ND","ND","ND","ND","ND","ND","ND","ND","ND","ND","ND"],
    [26010,"2013-04-24T13:00:00","ND","ND","ND","ND","ND","ND","ND","ND","ND","ND","ND","ND"],
    [26011,"2013-04-24T14:00:00","ND","ND","ND","ND","ND","ND","ND","ND","ND","ND","ND","ND"],
    [26012,"2013-04-24T15:00:00","ND","ND","ND","ND","ND","ND","ND","ND","ND","ND","ND","ND"],
    [26013,"2013-04-24T16:00:00","ND","ND","ND","ND","ND","ND","ND","ND","ND","ND","ND","ND"],
    [26014,"2013-04-24T17:00:00","ND","ND","ND","ND","ND","ND","ND","ND","ND","ND","ND","ND"],
    [26015,"2013-04-24T18:00:00","ND","ND","ND","ND","ND","ND","ND","ND","ND","ND","ND","ND"],
    [26016,"2013-04-24T19:00:00","ND","ND","ND","ND","ND","ND","ND","ND","ND","ND","ND","ND"],
    [26017,"2013-04-24T20:00:00","ND","ND","ND","ND","ND","ND","ND","ND","ND","ND","ND","ND"],
    [26018,"2013-04-24T21:00:00","ND","ND","ND","ND","ND","ND","ND","ND","ND","ND","ND","ND"],
    [26019,"2013-04-24T22:00:00","ND","ND","ND","ND","ND","ND","ND","ND","ND","ND","ND","ND"],
    [26020,"2013-04-24T23:00:00","ND","ND","ND","ND","ND","ND","ND","ND","ND","ND","ND","ND"],
    [26021,"2013-04-25T00:00:00","ND","ND","ND","ND","ND","ND","ND","ND","ND","ND","ND","ND"],
    [26022,"2013-04-25T01:00:00","ND","ND","ND","ND","ND","ND","ND","ND","ND","ND","ND","ND"],
    [26023,"2013-04-25T02:00:00","ND","ND","ND","ND","ND","ND","ND","ND","ND","ND","ND","ND"],
    [26024,"2013-04-25T03:00:00","ND","ND","ND","ND","ND","ND","ND","ND","ND","ND","ND","ND"],
    [26025,"2013-04-25T04:00:00","ND","ND","ND","ND","ND","ND","ND","ND","ND","ND","ND","ND"],
    [26026,"2013-04-25T05:00:00","ND","ND","ND","ND","ND","ND","ND","ND","ND","ND","ND","ND"],
    [26027,"2013-04-25T06:00:00","ND","ND","ND","ND","ND","ND","ND","ND","ND","ND","ND","ND"],
    [26028,"2013-04-25T07:00:00","ND","ND","ND","ND","ND","ND","ND","ND","ND","ND","ND","ND"],
    [26029,"2013-04-25T08:00:00","ND","ND","ND","ND","ND","ND","ND","ND","ND","ND","ND","ND"],
    [26030,"2013-04-25T09:00:00","ND","ND","ND","ND","ND","ND","ND","ND","ND","ND","ND","ND"],
    [26031,"2013-04-25T10:00:00","ND","ND","ND","ND","ND","ND","ND","ND","ND","ND","ND","ND"],
    [26032,"2013-04-25T11:00:00","ND","ND","ND","ND","ND","ND","ND","ND","ND","ND","ND","ND"],
    [26033,"2013-04-25T12:00:00","ND","ND","ND","ND","ND","ND","ND","ND","ND","ND","ND","ND"],
    [26034,"2013-04-25T13:00:00","ND","ND","ND","ND","ND","ND","ND","ND","ND","ND","ND","ND"],
    [26035,"2013-04-25T14:00:00","ND","ND","ND","ND","ND","ND","ND","ND","ND","ND","ND","ND"],
    [26036,"2013-04-25T15:00:00","ND","ND","ND","ND","ND","ND","ND","ND","ND","ND","ND","ND"],
    [26037,"2013-04-25T16:00:00","ND","ND","ND","ND","ND","ND","ND","ND","ND","ND","ND","ND"],
    [26038,"2013-04-25T17:00:00","ND","ND","ND","ND","ND","ND","ND","ND","ND","ND","ND","ND"],
    [26039,"2013-04-25T18:00:00","ND","ND","ND","ND","ND","ND","ND","ND","ND","ND","ND","ND"],
    [26040,"2013-04-25T19:00:00","ND","ND","ND","ND","ND","ND","ND","ND","ND","ND","ND","ND"],
    [26041,"2013-04-25T20:00:00","ND","ND","ND","ND","ND","ND","ND","ND","ND","ND","ND","ND"],
    [26042,"2013-04-25T21:00:00","ND","ND","ND","ND","ND","ND","ND","ND","ND","ND","ND","ND"],
    [26043,"2013-04-25T22:00:00","ND","ND","ND","ND","ND","ND","ND","ND","ND","ND","ND","ND"],
    [26044,"2013-04-25T23:00:00","ND","ND","ND","ND","ND","ND","ND","ND","ND","ND","ND","ND"],
    [26045,"2013-04-26T00:00:00","ND","ND","ND","ND","ND","ND","ND","ND","ND","ND","ND","ND"],
    [26046,"2013-04-26T01:00:00","ND","ND","ND","ND","ND","ND","ND","ND","ND","ND","ND","ND"],
    [26047,"2013-04-26T02:00:00","ND","ND","ND","ND","ND","ND","ND","ND","ND","ND","ND","ND"],
    [26048,"2013-04-26T03:00:00","ND","ND","ND","ND","ND","ND","ND","ND","ND","ND","ND","ND"],
    [26049,"2013-04-26T04:00:00","ND","ND","ND","ND","ND","ND","ND","ND","ND","ND","ND","ND"],
    [26050,"2013-04-26T05:00:00","ND","ND","ND","ND","ND","ND","ND","ND","ND","ND","ND","ND"],
    [26051,"2013-04-26T06:00:00","ND","ND","ND","ND","ND","ND","ND","ND","ND","ND","ND","ND"],
    [26052,"2013-04-26T07:00:00","ND","ND","ND","ND","ND","ND","ND","ND","ND","ND","ND","ND"],
    [26053,"2013-04-26T08:00:00","ND","ND","ND","ND","ND","ND","ND","ND","ND","ND","ND","ND"],
    [26054,"2013-04-26T09:00:00","ND","ND","ND","ND","ND","ND","ND","ND","ND","ND","ND","ND"],
    [26055,"2013-04-26T10:00:00","ND","ND","ND","ND","ND","ND","ND","ND","ND","ND","ND","ND"],
    [26056,"2013-04-26T11:00:00","ND","ND","ND","ND","ND","ND","ND","ND","ND","ND","ND","ND"],
    [26057,"2013-04-26T12:00:00","ND","ND","ND","ND","ND","ND","ND","ND","ND","ND","ND","ND"],
    [26058,"2013-04-26T13:00:00","ND","ND","ND","ND","ND","ND","ND","ND","ND","ND","ND","ND"],
    [26059,"2013-04-26T14:00:00","ND","ND","ND","ND","ND","ND","ND","ND","ND","ND","ND","ND"],
    [26060,"2013-04-26T15:00:00","ND","ND","ND","ND","ND","ND","ND","ND","ND","ND","ND","ND"],
    [26061,"2013-04-26T16:00:00","ND","ND","ND","ND","ND","ND","ND","ND","ND","ND","ND","ND"],
    [26062,"2013-04-26T17:00:00","ND","ND","ND","ND","ND","ND","ND","ND","ND","ND","ND","ND"],
    [26063,"2013-04-26T18:00:00","ND","ND","ND","ND","ND","ND","ND","ND","ND","ND","ND","ND"],
    [26064,"2013-04-26T19:00:00","ND","ND","ND","ND","ND","ND","ND","ND","ND","ND","ND","ND"],
    [26065,"2013-04-26T20:00:00","ND","ND","ND","ND","ND","ND","ND","ND","ND","ND","ND","ND"],
    [26066,"2013-04-26T21:00:00","ND","ND","ND","ND","ND","ND","ND","ND","ND","ND","ND","ND"],
    [26067,"2013-04-26T22:00:00","ND","ND","ND","ND","ND","ND","ND","ND","ND","ND","ND","ND"],
    [26068,"2013-04-26T23:00:00","ND","ND","ND","ND","ND","ND","ND","ND","ND","ND","ND","ND"],
    [26069,"2013-04-27T00:00:00","ND","ND","ND","ND","ND","ND","ND","ND","ND","ND","ND","ND"],
    [26070,"2013-04-27T01:00:00","ND","ND","ND","ND","ND","ND","ND","ND","ND","ND","ND","ND"],
    [26071,"2013-04-27T02:00:00","ND","ND","ND","ND","ND","ND","ND","ND","ND","ND","ND","ND"],
    [26072,"2013-04-27T03:00:00","ND","ND","ND","ND","ND","ND","ND","ND","ND","ND","ND","ND"],
    [26073,"2013-04-27T04:00:00","ND","ND","ND","ND","ND","ND","ND","ND","ND","ND","ND","ND"],
    [26074,"2013-04-27T05:00:00","ND","ND","ND","ND","ND","ND","ND","ND","ND","ND","ND","ND"],
    [26075,"2013-04-27T06:00:00","ND","ND","ND","ND","ND","ND","ND","ND","ND","ND","ND","ND"],
    [26076,"2013-04-27T07:00:00","ND","ND","ND","ND","ND","ND","ND","ND","ND","ND","ND","ND"],
    [26077,"2013-04-27T08:00:00","ND","ND","ND","ND","ND","ND","ND","ND","ND","ND","ND","ND"],
    [26078,"2013-04-27T09:00:00","ND","ND","ND","ND","ND","ND","ND","ND","ND","ND","ND","ND"],
    [26079,"2013-04-27T10:00:00","ND","ND","ND","ND","ND","ND","ND","ND","ND","ND","ND","ND"],
    [26080,"2013-04-27T11:00:00","ND","ND","ND","ND","ND","ND","ND","ND","ND","ND","ND","ND"],
    [26081,"2013-04-27T12:00:00","ND","ND","ND","ND","ND","ND","ND","ND","ND","ND","ND","ND"],
    [26082,"2013-04-27T13:00:00","ND","ND","ND","ND","ND","ND","ND","ND","ND","ND","ND","ND"],
    [26083,"2013-04-27T14:00:00","ND","ND","ND","ND","ND","ND","ND","ND","ND","ND","ND","ND"],
    [26084,"2013-04-27T15:00:00","ND","ND","ND","ND","ND","ND","ND","ND","ND","ND","ND","ND"],
    [26085,"2013-04-27T16:00:00","ND","ND","ND","ND","ND","ND","ND","ND","ND","ND","ND","ND"],
    [26086,"2013-04-27T17:00:00","ND","ND","ND","ND","ND","ND","ND","ND","ND","ND","ND","ND"],
    [26087,"2013-04-27T18:00:00","ND","ND","ND","ND","ND","ND","ND","ND","ND","ND","ND","ND"],
    [26088,"2013-04-27T19:00:00","ND","ND","ND","ND","ND","ND","ND","ND","ND","ND","ND","ND"],
    [26089,"2013-04-27T20:00:00","ND","ND","ND","ND","ND","ND","ND","ND","ND","ND","ND","ND"],
    [26090,"2013-04-27T21:00:00","ND","ND","ND","ND","ND","ND","ND","ND","ND","ND","ND","ND"],
    [26091,"2013-04-27T22:00:00","ND","ND","ND","ND","ND","ND","ND","ND","ND","ND","ND","ND"],
    [26092,"2013-04-27T23:00:00","ND","ND","ND","ND","ND","ND","ND","ND","ND","ND","ND","ND"],
    [26093,"2013-04-28T00:00:00","ND","ND","ND","ND","ND","ND","ND","ND","ND","ND","ND","ND"],
    [26094,"2013-04-28T01:00:00","ND","ND","ND","ND","ND","ND","ND","ND","ND","ND","ND","ND"],
    [26095,"2013-04-28T02:00:00","ND","ND","ND","ND","ND","ND","ND","ND","ND","ND","ND","ND"],
    [26096,"2013-04-28T03:00:00","ND","ND","ND","ND","ND","ND","ND","ND","ND","ND","ND","ND"],
    [26097,"2013-04-28T04:00:00","ND","ND","ND","ND","ND","ND","ND","ND","ND","ND","ND","ND"],
    [26098,"2013-04-28T05:00:00","ND","ND","ND","ND","ND","ND","ND","ND","ND","ND","ND","ND"],
    [26099,"2013-04-28T06:00:00","ND","ND","ND","ND","ND","ND","ND","ND","ND","ND","ND","ND"],
    [26100,"2013-04-28T07:00:00","ND","ND","ND","ND","ND","ND","ND","ND","ND","ND","ND","ND"],
    [26101,"2013-04-28T08:00:00","ND","ND","ND","ND","ND","ND","ND","ND","ND","ND","ND","ND"],
    [26102,"2013-04-28T09:00:00","ND","ND","ND","ND","ND","ND","ND","ND","ND","ND","ND","ND"],
    [26103,"2013-04-28T10:00:00","ND","ND","ND","ND","ND","ND","ND","ND","ND","ND","ND","ND"],
    [26104,"2013-04-28T11:00:00","ND","ND","ND","ND","ND","ND","ND","ND","ND","ND","ND","ND"],
    [26105,"2013-04-28T12:00:00","ND","ND","ND","ND","ND","ND","ND","ND","ND","ND","ND","ND"],
    [26106,"2013-04-28T13:00:00","ND","ND","ND","ND","ND","ND","ND","ND","ND","ND","ND","ND"],
    [26107,"2013-04-28T14:00:00","ND","ND","ND","ND","ND","ND","ND","ND","ND","ND","ND","ND"],
    [26108,"2013-04-28T15:00:00","ND","ND","ND","ND","ND","ND","ND","ND","ND","ND","ND","ND"],
    [26109,"2013-04-28T16:00:00","ND","ND","ND","ND","ND","ND","ND","ND","ND","ND","ND","ND"],
    [26110,"2013-04-28T17:00:00","ND","ND","ND","ND","ND","ND","ND","ND","ND","ND","ND","ND"],
    [26111,"2013-04-28T18:00:00","ND","ND","ND","ND","ND","ND","ND","ND","ND","ND","ND","ND"],
    [26112,"2013-04-28T19:00:00","ND","ND","ND","ND","ND","ND","ND","ND","ND","ND","ND","ND"],
    [26113,"2013-04-28T20:00:00","ND","ND","ND","ND","ND","ND","ND","ND","ND","ND","ND","ND"],
    [26114,"2013-04-28T21:00:00","ND","ND","ND","ND","ND","ND","ND","ND","ND","ND","ND","ND"],
    [26115,"2013-04-28T22:00:00","ND","ND","ND","ND","ND","ND","ND","ND","ND","ND","ND","ND"],
    [26116,"2013-04-28T23:00:00","ND","ND","ND","ND","ND","ND","ND","ND","ND","ND","ND","ND"],
    [26117,"2013-04-29T00:00:00","ND","ND","ND","ND","ND","ND","ND","ND","ND","ND","ND","ND"],
    [26118,"2013-04-29T01:00:00","ND","ND","ND","ND","ND","ND","ND","ND","ND","ND","ND","ND"],
    [26119,"2013-04-29T02:00:00","ND","ND","ND","ND","ND","ND","ND","ND","ND","ND","ND","ND"],
    [26120,"2013-04-29T03:00:00","ND","ND","ND","ND","ND","ND","ND","ND","ND","ND","ND","ND"],
    [26121,"2013-04-29T04:00:00","ND","ND","ND","ND","ND","ND","ND","ND","ND","ND","ND","ND"],
    [26122,"2013-04-29T05:00:00","ND","ND","ND","ND","ND","ND","ND","ND","ND","ND","ND","ND"],
    [26123,"2013-04-29T06:00:00","ND","ND","ND","ND","ND","ND","ND","ND","ND","ND","ND","ND"],
    [26124,"2013-04-29T07:00:00","ND","ND","ND","ND","ND","ND","ND","ND","ND","ND","ND","ND"],
    [26125,"2013-04-29T08:00:00","ND","ND","ND","ND","ND","ND","ND","ND","ND","ND","ND","ND"],
    [26126,"2013-04-29T09:00:00","ND","ND","ND","ND","ND","ND","ND","ND","ND","ND","ND","ND"],
    [26127,"2013-04-29T10:00:00","ND","ND","ND","ND","ND","ND","ND","ND","ND","ND","ND","ND"],
    [26128,"2013-04-29T11:00:00","ND","ND","ND","ND","ND","ND","ND","ND","ND","ND","ND","ND"],
    [26129,"2013-04-29T12:00:00","85","ND","12.80","ND","ND","ND","0.4","97.1","28","58.9","570","0"],
    [26130,"2013-04-29T13:00:00","42.5","ND","14.87","ND","ND","ND","0.5","104.8","29.1","54.1","688.5","0"],
    [26131,"2013-04-29T14:00:00","24","ND","13.44","ND","ND","ND","0.6","353.4","28.7","54.8","241.9","0"],
    [26132,"2013-04-29T15:00:00","20.6","ND","12.71","ND","ND","ND","2.3","261.9","28.6","51.7","209.9","0"],
    [26133,"2013-04-29T16:00:00","12.7","ND","26.53","ND","ND","ND","4.8","196.5","25.1","68.9","42.2","0"],
    [26134,"2013-04-29T17:00:00","27.1","ND","36.23","ND","ND","ND","2.1","190.3","22.5","80.1","6.2","0"],
    [26135,"2013-04-29T18:00:00","34.9","ND","43.18","ND","ND","ND","1.1","17.6","21.1","86","0","0"],
    [26136,"2013-04-29T19:00:00","20.8","ND","39.54","ND","ND","ND","1.9","358.3","20.4","89.7","0","0"],
    [26137,"2013-04-29T20:00:00","11","ND","39.95","ND","ND","ND","0.6","306.2","20.6","91","0","0"],
    [26138,"2013-04-29T21:00:00","10.8","ND","40.81","ND","ND","ND","0.4","204.2","20.9","90.3","0","0"],
    [26139,"2013-04-29T22:00:00","7.2","ND","43.51","ND","ND","ND","0.7","157.8","21.3","89.2","0","0"],
    [26140,"2013-04-29T23:00:00","29.1","ND","42.17","ND","ND","ND","0.5","128.4","21.2","91.2","0","0"],
    [26141,"2013-04-30T00:00:00","20.8","ND","35.99","ND","ND","ND","0.3","148.6","21","92.9","0","0"],
    [26142,"2013-04-30T01:00:00","36.3","ND","37.73","ND","ND","ND","0.5","129.8","20.9","92.3","0","0"],
    [26143,"2013-04-30T02:00:00","31.7","ND","30.95","ND","ND","ND","0","237.5","20.8","92","0","0"],
    [26144,"2013-04-30T03:00:00","16.5","ND","27.93","ND","ND","ND","1","159.5","20.8","93","0","0"],
    [26145,"2013-04-30T04:00:00","9","ND","21.36","ND","ND","ND","1","175.5","20.6","92.8","0","0"],
    [26146,"2013-04-30T05:00:00","9.7","ND","21.46","ND","ND","ND","0.3","151.2","20.7","91.7","0","0"],
    [26147,"2013-04-30T06:00:00","18.6","ND","19.73","ND","ND","ND","0.2","273.1","20.9","91.3","0","0"],
    [26148,"2013-04-30T07:00:00","27.3","ND","24.76","ND","ND","ND","0.3","5.6","20.9","90.8","24.2","0"],
    [26149,"2013-04-30T08:00:00","20","ND","31.33","ND","ND","ND","0.6","48.9","21.7","87.2","140.7","0"],
    [26150,"2013-04-30T09:00:00","35.9","ND","30.65","ND","ND","ND","1","351.9","22.7","82.3","287.4","0"],
    [26151,"2013-04-30T10:00:00","19.8","ND","25.64","ND","ND","ND","1.7","51.2","24.4","75.5","550.9","0.25"],
    [26152,"2013-04-30T11:00:00","17.3","ND","14.33","ND","ND","ND","1.1","55.2","25.4","69.5","532.6","0"],
    [26153,"2013-04-30T12:00:00","10.2","ND","10.78","ND","ND","ND","1.6","20.6","26.8","62.2","701.1","0"],
    [26154,"2013-04-30T13:00:00","7.1","ND","11.69","ND","ND","ND","1.4","29.6","27.8","58.2","658.6","0"],
    [26155,"2013-04-30T14:00:00","4.9","ND","11.06","ND","ND","ND","1.1","41.2","29.1","54","811.3","0"],
    [26156,"2013-04-30T15:00:00","4.6","ND","12.21","ND","ND","ND","1","48.4","29.7","52.8","491.8","0"],
    [26157,"2013-04-30T16:00:00","6.6","ND","14.39","ND","ND","ND","2","127.1","29.4","53","136.4","0"],
    [26158,"2013-04-30T17:00:00","31.9","ND","20.18","ND","ND","ND","1.1","159.1","28.5","55.5","45.3","0"],
    [26159,"2013-04-30T18:00:00","33.1","ND","20.12","ND","ND","ND","1.5","318.8","27.3","60.6","9.8","0"],
    [26160,"2013-04-30T19:00:00","38.2","ND","31.14","ND","ND","ND","0.3","68.3","26.7","63.8","0","0"],
    [26161,"2013-04-30T20:00:00","43.4","ND","33.73","ND","ND","ND","0.6","122.5","26.3","66.2","0","0"],
    [26162,"2013-04-30T21:00:00","50.1","ND","35.46","ND","ND","ND","0.7","140.4","25.4","70.1","0","0"],
    [26163,"2013-04-30T22:00:00","41.8","ND","33.49","ND","ND","ND","0.2","299.9","25","72.8","0","0"],
    [26164,"2013-04-30T23:00:00","44.8","ND","31.65","ND","ND","ND","0.2","176.9","24.9","73.1","0","0"],
    [26165,"2013-05-01T00:00:00","36.5","ND","26.87","ND","ND","ND","0.2","230.3","24.5","76.2","0","0"],
    [26166,"2013-05-01T01:00:00","52.1","ND","23.42","ND","ND","ND","0.3","170.8","24.1","78.8","0","0"],
    [26167,"2013-05-01T02:00:00","56.2","ND","24.25","ND","ND","ND","0.8","127.1","24","77.5","0","0"],
    [26168,"2013-05-01T03:00:00","36.4","ND","17.24","ND","ND","ND","0.8","19.9","22.9","81.7","0","0"],
    [26169,"2013-05-01T04:00:00","34.4","ND","12.97","ND","ND","ND","1.3","216.8","21.4","92.4","0","30.99"],
    [26170,"2013-05-01T05:00:00","36.7","ND","13.51","ND","ND","ND","0.5","179.7","21.4","97.6","0","5.08"],
    [26171,"2013-05-01T06:00:00","28.6","ND","15.50","ND","ND","ND","0.2","163.5","21.4","97.4","0","8.89"],
    [26172,"2013-05-01T07:00:00","14.3","ND","17.41","ND","ND","ND","0.6","122.2","21","97","13.3","3.81"],
    [26173,"2013-05-01T08:00:00","9.6","ND","17.21","ND","ND","ND","0.4","38.5","21.3","95.8","90","1.02"],
    [26174,"2013-05-01T09:00:00","15.4","ND","16.56","ND","ND","ND","0.2","152.5","22.8","89.4","267.7","0"],
    [26175,"2013-05-01T10:00:00","10.2","ND","18.48","ND","ND","ND","1","40.8","23.6","83.6","257.3","0.25"],
    [26176,"2013-05-01T11:00:00","15.5","ND","17.39","ND","ND","ND","1.2","34.5","24.1","80.7","367.6","0"],
    [26177,"2013-05-01T12:00:00","9.6","ND","14.23","ND","ND","ND","1.2","29.5","24.5","77.2","306.3","0"],
    [26178,"2013-05-01T13:00:00","7.8","ND","8.64","ND","ND","ND","1.5","37.3","24.9","74.2","408.8","0"],
    [26179,"2013-05-01T14:00:00","5.5","ND","14.55","ND","ND","ND","1.3","33.2","26","69.2","546.4","0"],
    [26180,"2013-05-01T15:00:00","4.3","ND","12.41","ND","ND","ND","1.5","38.5","26.8","66.9","418.7","0"],
    [26181,"2013-05-01T16:00:00","4.7","ND","9.77","ND","ND","ND","1.1","196.5","27.7","58.7","403.3","0"],
    [26182,"2013-05-01T17:00:00","3","ND","13.29","ND","ND","ND","2.7","233.8","27.4","50.8","224.8","0"],
    [26183,"2013-05-01T18:00:00","3.1","ND","33.98","ND","ND","ND","1.6","251.6","26.5","54.3","51","0"],
    [26184,"2013-05-01T19:00:00","3.6","ND","28.59","ND","ND","ND","0.6","227.2","25.8","58.5","0","0"],
    [26185,"2013-05-01T20:00:00","3","ND","28.91","ND","ND","ND","0.5","206.3","25","64.6","0","0"],
    [26186,"2013-05-01T21:00:00","20.3","ND","32.59","ND","ND","ND","0.4","323.9","24.4","69.3","0","0"],
    [26187,"2013-05-01T22:00:00","11.6","ND","27.13","ND","ND","ND","0.6","341.1","23.7","74.2","0","0"],
    [26188,"2013-05-01T23:00:00","20.4","ND","24.96","ND","ND","ND","2.1","207.3","22.4","86.5","0","0"],
    [26189,"2013-05-02T00:00:00","11","ND","12.32","ND","ND","ND","0.8","168.1","21","89.1","0","0"],
    [26190,"2013-05-02T01:00:00","7.8","ND","9.93","ND","ND","ND","0.8","303.5","20.6","89.1","0","0"],
    [26191,"2013-05-02T02:00:00","5.9","ND","16.75","ND","ND","ND","0.4","59.5","20.8","93","0","0"],
    [26192,"2013-05-02T03:00:00","4.1","ND","13.57","ND","ND","ND","0.3","353.2","20.8","94.3","0","0"],
    [26193,"2013-05-02T04:00:00","2.8","ND","10.67","ND","ND","ND","0.3","48.1","20.5","95.7","0","0"],
    [26194,"2013-05-02T05:00:00","5.7","ND","9.37","ND","ND","ND","1","165.4","20.7","92.8","0","0"],
    [26195,"2013-05-02T06:00:00","5.4","ND","17.67","ND","ND","ND","0.6","152.1","20.9","91.5","0","0"],
    [26196,"2013-05-02T07:00:00","7.2","ND","24.74","ND","ND","ND","0.2","56.8","21.1","91.4","15.4","0"],
    [26197,"2013-05-02T08:00:00","5.1","ND","25.99","ND","ND","ND","1.2","43.5","21.1","93","61","0"],
    [26198,"2013-05-02T09:00:00","27.5","ND","17.20","ND","ND","ND","0.5","50.1","21.6","90.3","203.5","0"],
    [26199,"2013-05-02T10:00:00","14.5","ND","23.87","ND","ND","ND","0.7","60.6","23.4","80","412.5","0"],
    [26200,"2013-05-02T11:00:00","9.6","ND","18.96","ND","ND","ND","0.8","17","25.2","70.7","655.4","0"],
    [26201,"2013-05-02T12:00:00","6","ND","12.46","ND","ND","ND","1.4","61.8","26.5","62.4","814.4","0"],
    [26202,"2013-05-02T13:00:00","5.6","ND","16.64","ND","ND","ND","0.5","35.7","27.6","59.1","766.4","0"],
    [26203,"2013-05-02T14:00:00","3.3","ND","18.38","ND","ND","ND","1.2","52.6","28.4","57.8","583.6","0"],
    [26204,"2013-05-02T15:00:00","9.3","ND","18.92","ND","ND","ND","0.9","31.4","28.4","56.7","260.8","0"],
    [26205,"2013-05-02T16:00:00","5.2","ND","14.55","ND","ND","ND","2.5","240.7","28","56.4","193.5","0"],
    [26206,"2013-05-02T17:00:00","3.7","ND","18.08","ND","ND","ND","2.3","174.4","27.1","59","68.9","0"],
    [26207,"2013-05-02T18:00:00","16.8","ND","31.12","ND","ND","ND","2.5","183.1","22","82.9","6.7","0"],
    [26208,"2013-05-02T19:00:00","19.7","ND","40.88","ND","ND","ND","0.8","125.3","21","91.3","0","0"],
    [26209,"2013-05-02T20:00:00","18.5","ND","27.80","ND","ND","ND","1","27","19.6","94.7","0","0"],
    [26210,"2013-05-02T21:00:00","17.6","ND","28.40","ND","ND","ND","0.5","16.7","19.5","96.1","0","0"],
    [26211,"2013-05-02T22:00:00","11","ND","35.76","ND","ND","ND","0.9","151","20","96","0","0"],
    [26212,"2013-05-02T23:00:00","9.3","ND","37.28","ND","ND","ND","1","158.7","20.3","94.4","0","0"],
    [26213,"2013-05-03T00:00:00","6.5","ND","36.42","ND","ND","ND","0.1","125.8","20.4","94","0","0"],
    [26214,"2013-05-03T01:00:00","10.3","ND","34.49","ND","ND","ND","0.1","245.6","20.4","94.6","0","0"],
    [26215,"2013-05-03T02:00:00","7","ND","32.70","ND","ND","ND","0.1","163.8","20.5","94.5","0","0"],
    [26216,"2013-05-03T03:00:00","15.4","ND","29.97","ND","ND","ND","0.4","156.1","20.4","94","0","0"],
    [26217,"2013-05-03T04:00:00","8.3","ND","23.42","ND","ND","ND","0.5","144.8","20.4","93.6","0","0"],
    [26218,"2013-05-03T05:00:00","5.8","ND","18.01","ND","ND","ND","0.4","1.5","20.2","94.6","0","0"],
    [26219,"2013-05-03T06:00:00","17.2","ND","16.88","ND","ND","ND","1.8","35.1","19.6","96.7","0","0"],
    [26220,"2013-05-03T07:00:00","28.3","ND","22.95","ND","ND","ND","1.2","351.7","19.9","94.9","9.5","0"],
    [26221,"2013-05-03T08:00:00","22.2","ND","25.09","ND","ND","ND","0.8","340.6","20.8","88.2","93.7","0"],
    [26222,"2013-05-03T09:00:00","27.9","ND","29.71","ND","ND","ND","1","70","22.1","83.6","244.1","0"],
    [26223,"2013-05-03T10:00:00","34.9","ND","31.11","ND","ND","ND","0.7","85.8","23.9","75.3","533.4","0"],
    [26224,"2013-05-03T11:00:00","24","ND","19.27","ND","ND","ND","0.7","69.5","25.3","67.9","721.7","0"],
    [26225,"2013-05-03T12:00:00","13.7","ND","13.95","ND","ND","ND","1.1","64.4","26.4","65.1","797.8","0"],
    [26226,"2013-05-03T13:00:00","9.4","ND","12.05","ND","ND","ND","1.5","54.3","26.8","62.2","588.2","0"],
    [26227,"2013-05-03T14:00:00","6.7","ND","9.45","ND","ND","ND","1.1","70.7","26.5","63.3","233.2","0"],
    [26228,"2013-05-03T15:00:00","4.8","ND","15.22","ND","ND","ND","1","51.1","26.1","65.9","99.5","0"],
    [26229,"2013-05-03T16:00:00","5.3","ND","16.74","ND","ND","ND","0.6","27.5","26.6","60.4","175.6","0"],
    [26230,"2013-05-03T17:00:00","5.2","ND","23.74","ND","ND","ND","0.7","284.5","26.8","60.3","141.6","0"],
    [26231,"2013-05-03T18:00:00","3.5","ND","40.10","ND","ND","ND","1.2","267.2","26.3","62.9","45.8","0"],
    [26232,"2013-05-03T19:00:00","30.3","ND","51.78","ND","ND","ND","0.7","268.2","24.9","71.6","0","0"],
    [26233,"2013-05-03T20:00:00","35.1","ND","61.20","ND","ND","ND","0.6","163","24.6","72.9","0","0"],
    [26234,"2013-05-03T21:00:00","78.8","ND","58.87","ND","ND","ND","0.3","180","24.6","72.6","0","0"],
    [26235,"2013-05-03T22:00:00","160.3","ND","38.31","ND","ND","ND","0.6","88","24","76.6","0","0"],
    [26236,"2013-05-03T23:00:00","106","ND","27.18","ND","ND","ND","0.4","292.4","22.8","82.3","0","0"],
    [26237,"2013-05-04T00:00:00","26.5","ND","29.69","ND","ND","ND","0.3","293.4","22.3","84.8","0","0"],
    [26238,"2013-05-04T01:00:00","57.3","ND","28.60","ND","ND","ND","0.7","152.7","22.4","83.8","0","0"],
    [26239,"2013-05-04T02:00:00","16.1","ND","31.50","ND","ND","ND","0.6","175.3","22.4","83.2","0","0"],
    [26240,"2013-05-04T03:00:00","50.6","ND","28.56","ND","ND","ND","0.1","108.8","22.3","84.6","0","0"],
    [26241,"2013-05-04T04:00:00","17.7","ND","27.40","ND","ND","ND","1","174.2","22.5","83.4","0","0"],
    [26242,"2013-05-04T05:00:00","160.6","ND","20.32","ND","ND","ND","0.4","310","22.2","83.3","0","0"],
    [26243,"2013-05-04T06:00:00","99.3","ND","23.31","ND","ND","ND","0.6","59.1","21.4","88.3","0","0"],
    [26244,"2013-05-04T07:00:00","183.3","ND","24.21","ND","ND","ND","0.3","206","21","90.8","22.5","0"],
    [26245,"2013-05-04T08:00:00","114.1","ND","29.88","ND","ND","ND","1.4","114.8","21.4","89.4","53","0"],
    [26246,"2013-05-04T09:00:00","82.1","ND","29.82","ND","ND","ND","0.2","189.8","22.1","86.2","174.8","0"],
    [26247,"2013-05-04T10:00:00","74.2","ND","37.50","ND","ND","ND","0.6","19.2","23.7","79.2","302.4","0"],
    [26248,"2013-05-04T11:00:00","45.3","ND","27.91","ND","ND","ND","0.9","55.9","25.6","70.6","597.6","0"],
    [26249,"2013-05-04T12:00:00","110.2","ND","19.30","ND","ND","ND","0.5","39.2","27.3","61.8","638","0"],
    [26250,"2013-05-04T13:00:00","53","ND","17.49","ND","ND","ND","0.5","30","28.4","58.8","620.6","0"],
    [26251,"2013-05-04T14:00:00","38","ND","18.83","ND","ND","ND","1.1","43.7","29.4","57.1","605.5","0"],
    [26252,"2013-05-04T15:00:00","135","ND","19.58","ND","ND","ND","0.3","226","29.8","55.1","421.9","0"],
    [26253,"2013-05-04T16:00:00","95.6","ND","27.99","ND","ND","ND","2.9","146.1","29.1","56.1","227","0"],
    [26254,"2013-05-04T17:00:00","49.3","ND","27.24","ND","ND","ND","0.2","339.7","28.8","55.6","179","0"],
    [26255,"2013-05-04T18:00:00","32.2","ND","21.48","ND","ND","ND","0.9","285.1","28.3","54.6","50.2","0"],
    [26256,"2013-05-04T19:00:00","18.4","ND","15.11","ND","ND","ND","1.6","265.2","27","57.4","0","0"],
    [26257,"2013-05-04T20:00:00","11.7","ND","25.98","ND","ND","ND","0.3","31.1","26.6","59.5","0","0"],
    [26258,"2013-05-04T21:00:00","14.1","ND","36.49","ND","ND","ND","1","107.1","26.8","59.8","0","0"],
    [26259,"2013-05-04T22:00:00","8.9","ND","13.82","ND","ND","ND","1.4","267.1","24.4","71.5","0","0"],
    [26260,"2013-05-04T23:00:00","8.1","ND","19.27","ND","ND","ND","0.8","149.3","22.5","82.5","0","0"],
    [26261,"2013-05-05T00:00:00","22.3","ND","23.15","ND","ND","ND","0.4","132.3","22.2","84.5","0","0"],
    [26262,"2013-05-05T01:00:00","42.9","ND","25.43","ND","ND","ND","0.3","176.2","21.8","86.4","0","0"],
    [26263,"2013-05-05T02:00:00","24.4","ND","28.38","ND","ND","ND","0.4","259.2","21.8","87","0","0"],
    [26264,"2013-05-05T03:00:00","40.8","ND","24.58","ND","ND","ND","1.1","160.5","22.1","86.3","0","0"],
    [26265,"2013-05-05T04:00:00","22.4","ND","12.73","ND","ND","ND","0.1","279.7","21.5","88.3","0","0"],
    [26266,"2013-05-05T05:00:00","25.4","ND","16.64","ND","ND","ND","0.8","88.8","21.2","90.9","0","0"],
    [26267,"2013-05-05T06:00:00","14.7","ND","18.48","ND","ND","ND","0.4","61","20.8","91.2","0","0"],
    [26268,"2013-05-05T07:00:00","9.1","ND","17.61","ND","ND","ND","0.7","150.7","20.9","90","0","0"],
    [26269,"2013-05-05T08:00:00","34.9","ND","19.72","ND","ND","ND","1.4","154.1","20.8","91.2","23.5","0"],
    [26270,"2013-05-05T09:00:00","23.5","ND","19.17","ND","ND","ND","1.3","152.9","20.9","88.8","40.4","0"],
    [26271,"2013-05-05T10:00:00","14","ND","23.95","ND","ND","ND","0.6","185.9","21.4","86.4","133","0"],
    [26272,"2013-05-05T11:00:00","8.6","ND","23.63","ND","ND","ND","0.3","49.7","21.9","84.7","154.8","0"],
    [26273,"2013-05-05T12:00:00","5.3","ND","19.29","ND","ND","ND","0.6","134.4","23.6","75.2","519.2","0"],
    [26274,"2013-05-05T13:00:00","4.6","ND","10.29","ND","ND","ND","1.2","56.3","25.3","57.3","682.1","0"],
    [26275,"2013-05-05T14:00:00","4.8","ND","10.32","ND","ND","ND","0.3","196.6","26.5","54","665.1","0"],
    [26276,"2013-05-05T15:00:00","3.4","ND","12.77","ND","ND","ND","1.5","123","27.3","58.8","579.5","0"],
    [26277,"2013-05-05T16:00:00","2.3","ND","11.52","ND","ND","ND","2","128.8","26.4","65.4","199.9","0"],
    [26278,"2013-05-05T17:00:00","7.4","ND","13.89","ND","ND","ND","0.7","199.5","26","65.8","132.4","0"],
    [26279,"2013-05-05T18:00:00","6.6","ND","23.25","ND","ND","ND","0.5","299.4","25.8","67.6","31","0"],
    [26280,"2013-05-05T19:00:00","25.2","ND","42.34","ND","ND","ND","0.7","260.1","25.4","71.6","0","0"],
    [26281,"2013-05-05T20:00:00","42.1","ND","53.47","ND","ND","ND","0.3","181.9","25.3","71.3","0","0"],
    [26282,"2013-05-05T21:00:00","29.7","ND","43.43","ND","ND","ND","0.4","335.9","25","70.4","0","0"],
    [26283,"2013-05-05T22:00:00","16.6","ND","40.33","ND","ND","ND","0.3","162.8","24.6","73.5","0","0"],
    [26284,"2013-05-05T23:00:00","35.9","ND","41.82","ND","ND","ND","0.2","149.2","24.4","74.7","0","0"],
    [26285,"2013-05-06T00:00:00","26.1","ND","36.23","ND","ND","ND","0.4","110.2","23.9","77.9","0","0"],
    [26286,"2013-05-06T01:00:00","38.4","ND","23.85","ND","ND","ND","0.8","143.7","23.4","79.5","0","0"],
    [26287,"2013-05-06T02:00:00","28.3","ND","14.96","ND","ND","ND","1.3","149.5","22.8","84.3","0","0"],
    [26288,"2013-05-06T03:00:00","32.3","ND","11.43","ND","ND","ND","0.1","156.5","22.1","90.7","0","0"],
    [26289,"2013-05-06T04:00:00","18.7","ND","12.03","ND","ND","ND","0.3","211.8","22","92.1","0","0"],
    [26290,"2013-05-06T05:00:00","24.6","ND","8.67","ND","ND","ND","1.6","176.9","21.9","88.5","0","0"],
    [26291,"2013-05-06T06:00:00","14.5","ND","10.55","ND","ND","ND","1.4","163.4","21.8","86.7","0","0"],
    [26292,"2013-05-06T07:00:00","24.1","ND","16.17","ND","ND","ND","0.7","202.5","21.8","86.6","36.1","0"],
    [26293,"2013-05-06T08:00:00","22.6","ND","23.41","ND","ND","ND","1.2","146.9","22.9","78.8","171.4","0"],
    [26294,"2013-05-06T09:00:00","14.8","ND","30.65","ND","ND","ND","2","153.4","24","73.1","333.1","0"],
    [26295,"2013-05-06T10:00:00","10.2","ND","23.31","ND","ND","ND","2","137.1","25.4","68.2","528.7","0"],
    [26296,"2013-05-06T11:00:00","7.8","ND","15.16","ND","ND","ND","1.6","125.4","27.2","60.3","710","0"],
    [26297,"2013-05-06T12:00:00","5.2","ND","17.83","ND","ND","ND","0.6","308.5","27.4","61.7","396.6","0"],
    [26298,"2013-05-06T13:00:00","11.6","ND","14.11","ND","ND","ND","0.9","79.5","28.3","58.4","597.3","0"],
    [26299,"2013-05-06T14:00:00","13.9","ND","15.07","ND","ND","ND","1.3","327.2","28.1","59","378.4","0"],
    [26300,"2013-05-06T15:00:00","17.7","ND","22.61","ND","ND","ND","1.9","302.2","28.1","59.4","386.4","0"],
    [26301,"2013-05-06T16:00:00","10.3","ND","15.29","ND","ND","ND","1.1","327.6","29.4","53.7","476","0"],
    [26302,"2013-05-06T17:00:00","5.8","ND","13.71","ND","ND","ND","2","281.8","29.6","49.7","277.8","0"],
    [26303,"2013-05-06T18:00:00","3.6","ND","23.78","ND","ND","ND","0.3","322.3","28.2","53.8","29.6","0"],
    [26304,"2013-05-06T19:00:00","16.7","ND","31.43","ND","ND","ND","0.6","242.3","26.9","56.4","0","0"],
    [26305,"2013-05-06T20:00:00","29.6","ND","40.92","ND","ND","ND","0.9","131.9","26.2","59.4","0","0"],
    [26306,"2013-05-06T21:00:00","47.5","ND","38.08","ND","ND","ND","0.7","107.7","25.6","64.3","0","0"],
    [26307,"2013-05-06T22:00:00","35","ND","35.02","ND","ND","ND","0.4","38.5","24.7","68.8","0","0"],
    [26308,"2013-05-06T23:00:00","50.9","ND","29.63","ND","ND","ND","0.5","40.6","23.7","73.5","0","0"],
    [26309,"2013-05-07T00:00:00","46.9","ND","23.74","ND","ND","ND","0.4","173.7","23.2","76.3","0","0"],
    [26310,"2013-05-07T01:00:00","51.9","ND","22.43","ND","ND","ND","0.7","218.1","23.2","76.9","0","0"],
    [26311,"2013-05-07T02:00:00","26.7","ND","16.81","ND","ND","ND","1","165.5","23.2","77","0","0"],
    [26312,"2013-05-07T03:00:00","21.7","ND","17.59","ND","ND","ND","0.3","56.5","23","80.6","0","0"],
    [26313,"2013-05-07T04:00:00","13.4","ND","18.58","ND","ND","ND","0.5","305.1","22.4","82","0","0"],
    [26314,"2013-05-07T05:00:00","26.1","ND","14.99","ND","ND","ND","0","72.4","22.3","83.1","0","0"],
    [26315,"2013-05-07T06:00:00","45.8","ND","22.44","ND","ND","ND","0.3","73.6","22.1","83.9","0","0"],
    [26316,"2013-05-07T07:00:00","29","ND","24.00","ND","ND","ND","0","95.4","22.1","84.8","19.8","0"],
    [26317,"2013-05-07T08:00:00","59.6","ND","28.46","ND","ND","ND","0.3","342.7","22.3","84","75.3","0"],
    [26318,"2013-05-07T09:00:00","59.9","ND","40.53","ND","ND","ND","0.4","42.3","23.3","80.2","154.1","0"],
    [26319,"2013-05-07T10:00:00","89.2","ND","35.79","ND","ND","ND","1.2","51","23.6","81.2","222.3","0"],
    [26320,"2013-05-07T11:00:00","72.6","ND","33.04","ND","ND","ND","0.9","84.2","24.5","76.6","232.8","0"],
    [26321,"2013-05-07T12:00:00","41.6","ND","30.65","ND","ND","ND","0.1","149","25.2","72.3","238.3","0"],
    [26322,"2013-05-07T13:00:00","56","ND","36.25","ND","ND","ND","0.5","248.2","26.2","68","357.1","0"],
    [26323,"2013-05-07T14:00:00","48.1","ND","28.13","ND","ND","ND","1.1","115.7","26.9","64.5","372.5","0"],
    [26324,"2013-05-07T15:00:00","28.3","ND","17.93","ND","ND","ND","0.7","144.9","27.9","57.2","438.2","0"],
    [26325,"2013-05-07T16:00:00","20.7","ND","20.34","ND","ND","ND","1.1","233.6","26.3","56.7","68.6","0.51"],
    [26326,"2013-05-07T17:00:00","19.7","ND","20.77","ND","ND","ND","2.4","355.3","19.9","90.5","0","18.8"],
    [26327,"2013-05-07T18:00:00","11.8","ND","42.12","ND","ND","ND","0.8","54.1","20.7","89.6","0","1.02"],
    [26328,"2013-05-07T19:00:00","19.6","ND","38.50","ND","ND","ND","1.3","28.6","19.7","94.6","0","4.32"],
    [26329,"2013-05-07T20:00:00","12.7","ND","38.78","ND","ND","ND","0.2","293","19.9","94.5","0","0.76"],
    [26330,"2013-05-07T21:00:00","27.3","ND","36.30","ND","ND","ND","0.5","238","20.2","94.2","0","0.25"],
    [26331,"2013-05-07T22:00:00","19.5","ND","28.59","ND","ND","ND","0.2","284.2","20","93.9","0","0"],
    [26332,"2013-05-07T23:00:00","22.8","ND","25.17","ND","ND","ND","0.7","29.4","19.8","93.3","0","0"],
    [26333,"2013-05-08T00:00:00","16.1","ND","27.59","ND","ND","ND","1.1","343.7","19.2","95.7","0","0"],
    [26334,"2013-05-08T01:00:00","25.2","ND","27.87","ND","ND","ND","0.3","234.5","19.4","95","0","0"],
    [26335,"2013-05-08T02:00:00","49.8","ND","25.33","ND","ND","ND","0.1","203.4","19.5","94.8","0","0.25"],
    [26336,"2013-05-08T03:00:00","26.1","ND","22.20","ND","ND","ND","0","320.3","19.5","94.4","0","0"],
    [26337,"2013-05-08T04:00:00","14.8","ND","23.60","ND","ND","ND","0.4","49.2","19.4","94.3","0","0"],
    [26338,"2013-05-08T05:00:00","42.6","ND","25.54","ND","ND","ND","0.4","353.7","19.2","95.2","0","0"],
    [26339,"2013-05-08T06:00:00","62.4","ND","24.96","ND","ND","ND","0.1","45.6","19.1","95.5","0","0"],
    [26340,"2013-05-08T07:00:00","50.8","ND","23.85","ND","ND","ND","0.2","329.5","18.9","95.6","7.9","0"],
    [26341,"2013-05-08T08:00:00","54.8","ND","35.83","ND","ND","ND","0.5","29.5","19.7","93.8","145.4","0"],
    [26342,"2013-05-08T09:00:00","76.6","ND","41.86","ND","ND","ND","1.1","56.5","21.5","85.8","456.2","0"],
    [26343,"2013-05-08T10:00:00","43.5","ND","33.98","ND","ND","ND","0.7","113.8","23.2","77.2","648.3","0"],
    [26344,"2013-05-08T11:00:00","32.7","ND","33.02","ND","ND","ND","1.2","94.9","25.5","67.1","780.9","0"],
    [26345,"2013-05-08T12:00:00","16.9","ND","16.92","ND","ND","ND","1.2","88.2","26.4","63.9","535","0"],
    [26346,"2013-05-08T13:00:00","10.1","ND","16.55","ND","ND","ND","0.3","84.2","27","62.4","486.6","0"],
    [26347,"2013-05-08T14:00:00","6.7","ND","20.23","ND","ND","ND","0.7","70.1","28.4","58.1","693","0"],
    [26348,"2013-05-08T15:00:00","7.4","ND","24.52","ND","ND","ND","1.2","58.1","29.1","56.2","563","0"],
    [26349,"2013-05-08T16:00:00","ND","ND","44.41","ND","ND","ND","1.1","34.4","29.2","56.4","389.5","0"],
    [26350,"2013-05-08T17:00:00","51.3","ND","44.02","ND","ND","ND","1.1","327.5","28.1","60.4","44.2","ND"],
    [26351,"2013-05-08T18:00:00","50.5","ND","29.99","ND","ND","ND","0.8","278.7","27.5","61","20.9","0"],
    [26352,"2013-05-08T19:00:00","25.9","ND","20.64","ND","ND","ND","1","310","26.9","59.2","0","0"],
    [26353,"2013-05-08T20:00:00","39","ND","43.61","ND","ND","ND","0.3","86.5","26.5","61.7","0","0"],
    [26354,"2013-05-08T21:00:00","46.9","ND","39.84","ND","ND","ND","0.6","148.1","25.3","71.7","0","0.51"],
    [26355,"2013-05-08T22:00:00","25.7","ND","23.14","ND","ND","ND","1.6","249.5","24.4","73.1","0","0"],
    [26356,"2013-05-08T23:00:00","26.7","ND","28.20","ND","ND","ND","1.5","115.5","24.9","68.9","0","0"],
    [26357,"2013-05-09T00:00:00","14.1","ND","23.46","ND","ND","ND","0.7","227.7","24","73.4","0","0"],
    [26358,"2013-05-09T01:00:00","9.2","ND","26.78","ND","ND","ND","0.6","38.7","22.5","84.6","0","0"],
    [26359,"2013-05-09T02:00:00","22","ND","25.97","ND","ND","ND","0.4","125.8","22","87.4","0","0"],
    [26360,"2013-05-09T03:00:00","12.7","ND","9.94","ND","ND","ND","0.3","211.5","21.6","87.9","0","0"],
    [26361,"2013-05-09T04:00:00","7.1","ND","14.61","ND","ND","ND","0.3","82.7","21.5","88.7","0","0"],
    [26362,"2013-05-09T05:00:00","5.1","ND","17.90","ND","ND","ND","0.2","306.3","21.1","91.6","0","0"],
    [26363,"2013-05-09T06:00:00","16.4","ND","18.17","ND","ND","ND","0.2","142.3","20.9","92","0","0"],
    [26364,"2013-05-09T07:00:00","20.5","ND","22.32","ND","ND","ND","0.2","84.7","21.3","91.3","59.4","0"],
    [26365,"2013-05-09T08:00:00","47.7","ND","28.40","ND","ND","ND","0.7","32.2","21.9","88.9","90.5","0"],
    [26366,"2013-05-09T09:00:00","49.2","ND","27.68","ND","ND","ND","1","49.4","22.3","86.3","167.8","0"],
    [26367,"2013-05-09T10:00:00","48.8","ND","34.17","ND","ND","ND","0.5","82.7","23.6","79.4","310.8","0"],
    [26368,"2013-05-09T11:00:00","34","ND","36.44","ND","ND","ND","0.6","80.1","25.3","69.1","505.8","0"],
    [26369,"2013-05-09T12:00:00","39.4","ND","25.96","ND","ND","ND","1.2","55.4","26.6","64.5","662.6","0"],
    [26370,"2013-05-09T13:00:00","20.8","ND","11.55","ND","ND","ND","1.6","48.3","27.2","63.2","634.8","0"],
    [26371,"2013-05-09T14:00:00","12.8","ND","10.94","ND","ND","ND","1","46.8","27.9","57.7","443.8","0"],
    [26372,"2013-05-09T15:00:00","7","ND","14.06","ND","ND","ND","1.6","39.8","28","57.8","358.7","0"],
    [26373,"2013-05-09T16:00:00","4.8","ND","16.15","ND","ND","ND","2.2","40.2","26.5","68.3","83.5","0"],
    [26374,"2013-05-09T17:00:00","4.1","ND","20.14","ND","ND","ND","0.3","92.3","26.5","63","102.5","0"],
    [26375,"2013-05-09T18:00:00","11.6","ND","22.23","ND","ND","ND","0.6","172.2","26.8","60.1","42.2","0"],
    [26376,"2013-05-09T19:00:00","6.8","ND","20.26","ND","ND","ND","1","239.2","26.3","58.3","0","0"],
    [26377,"2013-05-09T20:00:00","5.3","ND","20.91","ND","ND","ND","0.5","274","25.6","60.7","0","0"],
    [26378,"2013-05-09T21:00:00","5.2","ND","24.42","ND","ND","ND","0.2","209.3","25.1","65.2","0","0"],
    [26379,"2013-05-09T22:00:00","35.7","ND","21.62","ND","ND","ND","0.4","31","24","75.2","0","0"],
    [26380,"2013-05-09T23:00:00","23.3","ND","21.58","ND","ND","ND","0.5","193.6","24.1","72.6","0","0"],
    [26381,"2013-05-10T00:00:00","13.4","ND","18.63","ND","ND","ND","0.7","190.5","24.2","73.7","0","0"],
    [26382,"2013-05-10T01:00:00","25.8","ND","18.28","ND","ND","ND","0.7","18.5","22.8","83.1","0","0"],
    [26383,"2013-05-10T02:00:00","23.2","ND","15.79","ND","ND","ND","0.7","1.7","22.4","84.8","0","0"],
    [26384,"2013-05-10T03:00:00","15.4","ND","16.15","ND","ND","ND","0.1","354.9","22.4","84.2","0","0"],
    [26385,"2013-05-10T04:00:00","23.6","ND","16.11","ND","ND","ND","0.6","14","22","86.6","0","0"],
    [26386,"2013-05-10T05:00:00","22.4","ND","16.74","ND","ND","ND","0.2","43.4","21.6","88.9","0","0"],
    [26387,"2013-05-10T06:00:00","37.4","ND","13.83","ND","ND","ND","0.2","286.8","21.2","90.8","0","0"],
    [26388,"2013-05-10T07:00:00","41.5","ND","16.21","ND","ND","ND","0.8","49.1","21.4","88.7","48.8","0"],
    [26389,"2013-05-10T08:00:00","51.9","ND","20.42","ND","ND","ND","0.4","51.6","22.6","84.6","165.1","0"],
    [26390,"2013-05-10T09:00:00","61.5","ND","29.49","ND","ND","ND","0.9","102.9","24.6","74.5","386","0"],
    [26391,"2013-05-10T10:00:00","40.6","ND","34.11","ND","ND","ND","0.6","109","25.7","68.5","424","0"],
    [26392,"2013-05-10T11:00:00","38.2","ND","29.42","ND","ND","ND","1.1","44.3","26.9","64.9","553","0"],
    [26393,"2013-05-10T12:00:00","46.1","ND","22.74","ND","ND","ND","0.7","50.1","28.4","58.3","797.3","0"],
    [26394,"2013-05-10T13:00:00","24.8","ND","20.33","ND","ND","ND","1.4","43.5","28.8","55.3","587.2","0"],
    [26395,"2013-05-10T14:00:00","15.9","ND","19.52","ND","ND","ND","1.1","24.2","29.5","53.3","474.7","0"],
    [26396,"2013-05-10T15:00:00","9","ND","16.44","ND","ND","ND","1.7","325.3","29.8","52","542.2","0"],
    [26397,"2013-05-10T16:00:00","5.2","ND","8.78","ND","ND","ND","1.3","272.5","30.9","46.9","529.7","0"],
    [26398,"2013-05-10T17:00:00","3.5","ND","12.05","ND","ND","ND","1.3","283.9","30.5","47.8","316.6","0"],
    [26399,"2013-05-10T18:00:00","2.3","ND","14.64","ND","ND","ND","1.4","302.2","28.9","51.5","58.5","0"],
    [26400,"2013-05-10T19:00:00","2.2","ND","24.59","ND","ND","ND","0.2","106.6","27.7","53.9","0","0"],
    [26401,"2013-05-10T20:00:00","1.6","ND","33.03","ND","ND","ND","0.6","130.7","27","57.4","0","0"],
    [26402,"2013-05-10T21:00:00","1.5","ND","34.22","ND","ND","ND","1.6","104.1","26.6","60.3","0","0"],
    [26403,"2013-05-10T22:00:00","45.5","ND","26.64","ND","ND","ND","1.7","131.3","25.3","67","0","0"],
    [26404,"2013-05-10T23:00:00","35.1","ND","22.97","ND","ND","ND","1.1","120.2","24.4","72.7","0","0"],
    [26405,"2013-05-11T00:00:00","35","ND","35.29","ND","ND","ND","0.4","163.2","24.2","74.1","0","0"],
    [26406,"2013-05-11T01:00:00","19.7","ND","32.27","ND","ND","ND","0.4","22.3","23.7","76.7","0","0"],
    [26407,"2013-05-11T02:00:00","35.4","ND","29.93","ND","ND","ND","0.5","355.4","23.2","78.6","0","0"],
    [26408,"2013-05-11T03:00:00","29.8","ND","28.00","ND","ND","ND","0.3","252.6","22.9","80.4","0","0"],
    [26409,"2013-05-11T04:00:00","30.4","ND","27.97","ND","ND","ND","0.3","338.6","22.6","81.7","0","0"],
    [26410,"2013-05-11T05:00:00","23.4","ND","25.57","ND","ND","ND","0.4","60","22.3","83.3","0","0"],
    [26411,"2013-05-11T06:00:00","27","ND","25.76","ND","ND","ND","0.1","24.4","22.1","86.2","0","0"],
    [26412,"2013-05-11T07:00:00","42.7","ND","28.98","ND","ND","ND","0.4","359.3","22.3","84.9","30.1","0"],
    [26413,"2013-05-11T08:00:00","61.5","ND","34.10","ND","ND","ND","0.3","0.1","23.3","80.1","123.1","0"],
    [26414,"2013-05-11T09:00:00","31.8","ND","25.75","ND","ND","ND","0.8","65.2","24.8","72.6","302.9","0"],
    [26415,"2013-05-11T10:00:00","17.8","ND","21.51","ND","ND","ND","0.2","113.9","26.3","65.6","387.3","0"],
    [26416,"2013-05-11T11:00:00","11.4","ND","16.92","ND","ND","ND","0.7","336.4","26.8","64.4","386.8","0"],
    [26417,"2013-05-11T12:00:00","7.3","ND","30.91","ND","ND","ND","1.9","193.5","26.1","71.7","393.4","0"],
    [26418,"2013-05-11T13:00:00","4.6","ND","22.34","ND","ND","ND","1.4","297.6","27.8","60.9","476.6","0"],
    [26419,"2013-05-11T14:00:00","4","ND","11.97","ND","ND","ND","0.5","289.4","28.1","55.2","472.2","0"],
    [26420,"2013-05-11T15:00:00","4","ND","11.03","ND","ND","ND","2.2","37.7","28.4","55.5","398.6","0"],
    [26421,"2013-05-11T16:00:00","4.8","ND","17.48","ND","ND","ND","2.9","48.3","26.4","70.2","226.9","0"],
    [26422,"2013-05-11T17:00:00","10.2","ND","18.80","ND","ND","ND","0.3","171.2","26.9","63.5","66.8","0"],
    [26423,"2013-05-11T18:00:00","6.4","ND","19.03","ND","ND","ND","0.4","202.4","26.6","61.5","31.9","0"],
    [26424,"2013-05-11T19:00:00","4.3","ND","39.38","ND","ND","ND","2.3","163.9","24.4","70.4","0","0"],
    [26425,"2013-05-11T20:00:00","32.9","ND","43.10","ND","ND","ND","1.1","174.3","23.5","74.9","0","0"],
    [26426,"2013-05-11T21:00:00","24.6","ND","43.87","ND","ND","ND","0.2","174.6","23.5","75.1","0","0"],
    [26427,"2013-05-11T22:00:00","32.8","ND","34.21","ND","ND","ND","0.5","341.6","22.9","78.7","0","0"],
    [26428,"2013-05-11T23:00:00","45.3","ND","29.05","ND","ND","ND","0.8","39.3","22","81.5","0","0"],
    [26429,"2013-05-12T00:00:00","49","ND","22.62","ND","ND","ND","0.6","12.1","20.9","89.1","0","0"],
    [26430,"2013-05-12T01:00:00","25.7","ND","22.64","ND","ND","ND","0.4","247.6","20.9","88.3","0","0"],
    [26431,"2013-05-12T02:00:00","25.5","ND","19.56","ND","ND","ND","0.1","203.2","20.7","87.7","0","0"],
    [26432,"2013-05-12T03:00:00","14.5","ND","18.90","ND","ND","ND","0.6","335","20.5","88.3","0","0"],
    [26433,"2013-05-12T04:00:00","33.6","ND","18.85","ND","ND","ND","0.2","329.3","20.3","88.4","0","0"],
    [26434,"2013-05-12T05:00:00","18.6","ND","16.99","ND","ND","ND","0.2","245.7","20.1","89","0","0"],
    [26435,"2013-05-12T06:00:00","23.1","ND","15.88","ND","ND","ND","0.3","295.7","19.9","89.7","0","0"],
    [26436,"2013-05-12T07:00:00","22.9","ND","19.45","ND","ND","ND","0.2","4.1","20.6","88.2","46.7","0"],
    [26437,"2013-05-12T08:00:00","32.8","ND","24.94","ND","ND","ND","0.5","23.7","21.5","87.1","104.7","0"],
    [26438,"2013-05-12T09:00:00","31","ND","31.11","ND","ND","ND","0.5","39.8","22.3","82.6","183.9","0"],
    [26439,"2013-05-12T10:00:00","35.1","ND","26.07","ND","ND","ND","0.5","22","23.7","75","449.4","0"],
    [26440,"2013-05-12T11:00:00","26.1","ND","31.22","ND","ND","ND","0.7","127.1","26","66.3","711.5","0"],
    [26441,"2013-05-12T12:00:00","18.5","ND","20.37","ND","ND","ND","0.3","147.1","27.7","57.8","659.9","0"],
    [26442,"2013-05-12T13:00:00","11.5","ND","19.32","ND","ND","ND","0.7","77.2","28.7","54.6","493.2","0"],
    [26443,"2013-05-12T14:00:00","17.1","ND","13.53","ND","ND","ND","1.1","54.8","29","53.8","430.7","0"],
    [26444,"2013-05-12T15:00:00","10.6","ND","12.33","ND","ND","ND","0.7","286","29","53.6","256.5","0"],
    [26445,"2013-05-12T16:00:00","6.1","ND","9.22","ND","ND","ND","1.2","66.5","29","55.8","227.5","0"],
    [26446,"2013-05-12T17:00:00","12.8","ND","7.57","ND","ND","ND","1","60.3","28.7","55.9","95.5","0"],
    [26447,"2013-05-12T18:00:00","23.8","ND","19.42","ND","ND","ND","1.1","208.1","28.3","57.2","15.3","0"],
    [26448,"2013-05-12T19:00:00","12.9","ND","22.07","ND","ND","ND","0.5","288.1","26.7","62.9","0","0"],
    [26449,"2013-05-12T20:00:00","36.1","ND","35.44","ND","ND","ND","0.3","256.1","25.7","67.5","0","0"],
    [26450,"2013-05-12T21:00:00","24.1","ND","24.23","ND","ND","ND","0.9","256","25.3","65.7","0","0"],
    [26451,"2013-05-12T22:00:00","44.5","ND","23.68","ND","ND","ND","0.4","3","24.1","73.5","0","0"],
    [26452,"2013-05-12T23:00:00","23.7","ND","21.18","ND","ND","ND","0.4","219.7","23.5","77.7","0","0"],
    [26453,"2013-05-13T00:00:00","17.3","ND","19.92","ND","ND","ND","0.1","309.3","22.9","79.3","0","0"],
    [26454,"2013-05-13T01:00:00","23.7","ND","18.62","ND","ND","ND","0.2","302.3","22.5","80.3","0","0"],
    [26455,"2013-05-13T02:00:00","26.5","ND","17.17","ND","ND","ND","0.2","272.5","22.6","80.8","0","0"],
    [26456,"2013-05-13T03:00:00","14.9","ND","17.44","ND","ND","ND","0","272.6","22.5","81.5","0","0"],
    [26457,"2013-05-13T04:00:00","18.8","ND","16.57","ND","ND","ND","0.3","330.6","21.9","84.7","0","0"],
    [26458,"2013-05-13T05:00:00","12.6","ND","15.82","ND","ND","ND","0.5","198.2","21.9","85.1","0","0"],
    [26459,"2013-05-13T06:00:00","29.2","ND","17.75","ND","ND","ND","0.3","270.4","22","84.5","0","0"],
    [26460,"2013-05-13T07:00:00","16.3","ND","15.92","ND","ND","ND","0.2","260.4","21.9","84.6","33.1","0"],
    [26461,"2013-05-13T08:00:00","30.5","ND","23.44","ND","ND","ND","0.2","275.1","23","80.7","88.9","0"],
    [26462,"2013-05-13T09:00:00","42.8","ND","38.91","ND","ND","ND","0.4","149.4","24.4","74.8","277.2","0"],
    [26463,"2013-05-13T10:00:00","34.6","ND","33.32","ND","ND","ND","1","108.3","26.5","65.9","598.7","0"],
    [26464,"2013-05-13T11:00:00","18.9","ND","16.93","ND","ND","ND","0.7","84.1","27","63.2","403.4","0"],
    [26465,"2013-05-13T12:00:00","32","ND","21.05","ND","ND","ND","0.9","118.2","27.6","61.7","313.4","0"],
    [26466,"2013-05-13T13:00:00","17.5","ND","15.92","ND","ND","ND","1.1","140.6","28.3","58.9","391.7","0"],
    [26467,"2013-05-13T14:00:00","25.7","ND","16.41","ND","ND","ND","0.9","185.7","28.6","58","368.1","0"],
    [26468,"2013-05-13T15:00:00","21.7","ND","14.91","ND","ND","ND","1","99.5","29.1","57.3","489.6","0"],
    [26469,"2013-05-13T16:00:00","21.1","ND","10.12","ND","ND","ND","2.2","250.2","29.6","52.8","422.1","0"],
    [26470,"2013-05-13T17:00:00","13.1","ND","6.67","ND","ND","ND","2","255.2","29.6","49.3","219.5","0"],
    [26471,"2013-05-13T18:00:00","8.9","ND","13.03","ND","ND","ND","0.7","257","28.9","52.3","80.7","0"],
    [26472,"2013-05-13T19:00:00","5.8","ND","19.77","ND","ND","ND","0.5","221.6","27.2","57.5","0","0"],
    [26473,"2013-05-13T20:00:00","6.5","ND","28.27","ND","ND","ND","0.9","104.6","27","59","0","0"],
    [26474,"2013-05-13T21:00:00","5.5","ND","21.45","ND","ND","ND","0.9","95.4","25.2","67.2","0","0"],
    [26475,"2013-05-13T22:00:00","16.2","ND","27.42","ND","ND","ND","0.6","125.1","24.8","69.6","0","0"],
    [26476,"2013-05-13T23:00:00","8.7","ND","22.98","ND","ND","ND","1.1","182.2","24.5","72.9","0","0"],
    [26477,"2013-05-14T00:00:00","15.7","ND","18.61","ND","ND","ND","1.9","163.4","24.2","74.4","0","0"],
    [26478,"2013-05-14T01:00:00","11.8","ND","18.75","ND","ND","ND","0.7","155.3","24.2","74.3","0","0"],
    [26479,"2013-05-14T02:00:00","17","ND","19.56","ND","ND","ND","0.8","9.3","23.1","80.5","0","0"],
    [26480,"2013-05-14T03:00:00","10.8","ND","16.17","ND","ND","ND","0.6","34.9","22.5","84.2","0","0"],
    [26481,"2013-05-14T04:00:00","20.7","ND","14.89","ND","ND","ND","0.2","168.2","22.6","83","0","0"],
    [26482,"2013-05-14T05:00:00","12.2","ND","21.22","ND","ND","ND","0.5","47.5","22.6","82.3","0","0"],
    [26483,"2013-05-14T06:00:00","25.1","ND","21.06","ND","ND","ND","0.2","121.4","22.4","83.2","0","0"],
    [26484,"2013-05-14T07:00:00","46.6","ND","23.25","ND","ND","ND","0.6","153.2","22.7","82","43.2","0"],
    [26485,"2013-05-14T08:00:00","30.1","ND","36.12","ND","ND","ND","0.8","141.3","24","76.3","198.9","0"],
    [26486,"2013-05-14T09:00:00","41.2","ND","47.86","ND","ND","ND","1.1","129.3","25.7","69.3","435.2","0"],
    [26487,"2013-05-14T10:00:00","39","ND","24.10","ND","ND","ND","1.8","96.2","25.8","69.1","280.4","0"],
    [26488,"2013-05-14T11:00:00","22.3","ND","14.87","ND","ND","ND","1.2","31.6","26.3","67","473.8","0"],
    [26489,"2013-05-14T12:00:00","13.7","ND","19.20","ND","ND","ND","1.1","41.6","28","61.8","713.4","0"],
    [26490,"2013-05-14T13:00:00","29.7","ND","20.16","ND","ND","ND","1","39.6","29","56.9","689.8","0"],
    [26491,"2013-05-14T14:00:00","31.7","ND","25.16","ND","ND","ND","1.4","33.8","29.7","55.6","574.7","0"],
    [26492,"2013-05-14T15:00:00","20.3","ND","11.50","ND","ND","ND","1.4","59.8","30.2","53","456.8","0"],
    [26493,"2013-05-14T16:00:00","11.3","ND","9.69","ND","ND","ND","2","267.5","30.6","49","387.6","0"],
    [26494,"2013-05-14T17:00:00","7.6","ND","14.91","ND","ND","ND","1.8","240.5","29.9","49.6","160.6","0"],
    [26495,"2013-05-14T18:00:00","19.1","ND","22.49","ND","ND","ND","0.5","197.5","28.3","55.7","18.2","0"],
    [26496,"2013-05-14T19:00:00","13.2","ND","30.91","ND","ND","ND","2.6","178.2","25.6","70.4","0","0"],
    [26497,"2013-05-14T20:00:00","25.8","ND","27.10","ND","ND","ND","1.5","170","24.6","75.7","0","0"],
    [26498,"2013-05-14T21:00:00","22.8","ND","40.21","ND","ND","ND","0.4","67.4","23.6","83.5","0","0"],
    [26499,"2013-05-14T22:00:00","34.7","ND","40.34","ND","ND","ND","0.6","5.7","22.8","87.6","0","0"],
    [26500,"2013-05-14T23:00:00","38","ND","40.15","ND","ND","ND","0.2","267","23.3","85.9","0","0"],
    [26501,"2013-05-15T00:00:00","46.3","ND","34.13","ND","ND","ND","0.5","146.6","23.4","84.9","0","0"],
    [26502,"2013-05-15T01:00:00","32.1","ND","29.36","ND","ND","ND","0.7","145.4","22.9","87.2","0","0"],
    [26503,"2013-05-15T02:00:00","28.9","ND","24.91","ND","ND","ND","0.4","2.8","22.5","89.6","0","0"],
    [26504,"2013-05-15T03:00:00","18.2","ND","24.23","ND","ND","ND","0.2","161.7","22.6","89.6","0","0"],
    [26505,"2013-05-15T04:00:00","16.1","ND","20.02","ND","ND","ND","0.5","195.6","22.7","88.5","0","0"],
    [26506,"2013-05-15T05:00:00","8.9","ND","15.96","ND","ND","ND","0.2","179.4","22.7","87.3","0","0"],
    [26507,"2013-05-15T06:00:00","14","ND","17.53","ND","ND","ND","0.5","10.1","22.4","89.8","0","0"],
    [26508,"2013-05-15T07:00:00","10.4","ND","19.05","ND","ND","ND","0.6","30.3","21.9","94.3","6.6","4.57"],
    [26509,"2013-05-15T08:00:00","34.2","ND","21.47","ND","ND","ND","0.6","37.2","21.9","95.7","37.3","0"],
    [26510,"2013-05-15T09:00:00","35.3","ND","22.49","ND","ND","ND","0.8","23.6","22.1","95.2","40.7","0.25"],
    [26511,"2013-05-15T10:00:00","28.1","ND","23.67","ND","ND","ND","0.8","13.6","23","89.2","311","0.25"],
    [26512,"2013-05-15T11:00:00","15.4","ND","27.86","ND","ND","ND","1","50.2","25.2","76.4","522.9","0"],
    [26513,"2013-05-15T12:00:00","9.1","ND","25.25","ND","ND","ND","0.8","117.3","26.7","67.8","603.1","0"],
    [26514,"2013-05-15T13:00:00","6.9","ND","16.35","ND","ND","ND","1.1","52.6","28.1","62","718.1","0"],
    [26515,"2013-05-15T14:00:00","5.6","ND","15.31","ND","ND","ND","1.4","43.8","28","62.6","329.1","0"],
    [26516,"2013-05-15T15:00:00","7.9","ND","11.30","ND","ND","ND","0.2","104.3","28.1","60.2","223.6","0"],
    [26517,"2013-05-15T16:00:00","4","ND","9.15","ND","ND","ND","2.4","258.4","28","56.1","197.5","0"],
    [26518,"2013-05-15T17:00:00","2.9","ND","21.57","ND","ND","ND","1.9","252.1","27.4","57.3","98.2","0"],
    [26519,"2013-05-15T18:00:00","1.8","ND","32.73","ND","ND","ND","3.7","153.7","23.4","73.9","12","0"],
    [26520,"2013-05-15T19:00:00","20.8","ND","39.61","ND","ND","ND","1.5","158","21.1","91.2","0","5.59"],
    [26521,"2013-05-15T20:00:00","12.2","ND","40.75","ND","ND","ND","0.9","158.5","21","92.6","0","9.91"],
    [26522,"2013-05-15T21:00:00","8.6","ND","39.76","ND","ND","ND","0.2","222.6","20.8","96","0","0"],
    [26523,"2013-05-15T22:00:00","5.7","ND","36.33","ND","ND","ND","0.2","264.8","21","95.7","0","0.25"],
    [26524,"2013-05-15T23:00:00","4.2","ND","32.07","ND","ND","ND","0.2","266.5","21.3","94.3","0","0"],
    [26525,"2013-05-16T00:00:00","10.4","ND","31.47","ND","ND","ND","0.2","125.6","21.5","93.4","0","0.25"],
    [26526,"2013-05-16T01:00:00","6.6","ND","25.26","ND","ND","ND","1.3","144.1","21.1","94.9","0","0"],
    [26527,"2013-05-16T02:00:00","5.2","ND","19.39","ND","ND","ND","1","157","20.9","95","0","0"],
    [26528,"2013-05-16T03:00:00","3.1","ND","14.19","ND","ND","ND","0.9","146.3","21.2","91.3","0","0"],
    [26529,"2013-05-16T04:00:00","18.4","ND","10.42","ND","ND","ND","0.3","163.4","21","92.2","0","0"],
    [26530,"2013-05-16T05:00:00","12.5","ND","11.08","ND","ND","ND","0.3","120.6","21.1","93.2","0","0"],
    [26531,"2013-05-16T06:00:00","7.3","ND","14.17","ND","ND","ND","0.8","158.6","20.8","93.5","0","0"],
    [26532,"2013-05-16T07:00:00","5.8","ND","21.67","ND","ND","ND","0.3","183","21","92.7","13.9","0"],
    [26533,"2013-05-16T08:00:00","9.3","ND","25.19","ND","ND","ND","0.3","23.4","21.6","89.7","66.1","0"],
    [26534,"2013-05-16T09:00:00","6.7","ND","28.41","ND","ND","ND","0.9","125.3","22.3","86.7","119.1","0"],
    [26535,"2013-05-16T10:00:00","30.4","ND","29.95","ND","ND","ND","0.7","146.3","23.4","80.6","343.7","0"],
    [26536,"2013-05-16T11:00:00","17.4","ND","33.25","ND","ND","ND","0.9","75.2","24.2","76.9","239.2","0"],
    [26537,"2013-05-16T12:00:00","13.8","ND","18.14","ND","ND","ND","0.5","344","25.1","73.2","430.9","0"],
    [26538,"2013-05-16T13:00:00","8.4","ND","18.22","ND","ND","ND","0.4","250.8","26.7","65.7","430.4","0"],
    [26539,"2013-05-16T14:00:00","10.2","ND","22.76","ND","ND","ND","0.4","255.7","26.9","64.3","165","0"],
    [26540,"2013-05-16T15:00:00","7.7","ND","25.88","ND","ND","ND","0.9","309.5","27.4","62.2","336.8","0"],
    [26541,"2013-05-16T16:00:00","13.9","ND","25.33","ND","ND","ND","1.8","54.7","26.7","66.3","130.5","0"],
    [26542,"2013-05-16T17:00:00","7.5","ND","23.67","ND","ND","ND","1","107.9","27.1","62.8","141.6","0"],
    [26543,"2013-05-16T18:00:00","15.2","ND","34.92","ND","ND","ND","1.9","144.2","26.1","68","18.5","0"],
    [26544,"2013-05-16T19:00:00","9.6","ND","48.85","ND","ND","ND","0.3","195.9","25.2","73","0","0"],
    [26545,"2013-05-16T20:00:00","22.7","ND","33.53","ND","ND","ND","0.8","76.1","24.7","75.5","0","0"],
    [26546,"2013-05-16T21:00:00","35.3","ND","26.45","ND","ND","ND","0.6","189.7","24.2","77.3","0","0"],
    [26547,"2013-05-16T22:00:00","28.4","ND","25.61","ND","ND","ND","1.3","152.3","24.1","78","0","0"],
    [26548,"2013-05-16T23:00:00","15.3","ND","27.31","ND","ND","ND","1.2","200.6","23.6","79.6","0","0"],
    [26549,"2013-05-17T00:00:00","12.5","ND","21.07","ND","ND","ND","0.3","234.7","22.8","83.5","0","0"],
    [26550,"2013-05-17T01:00:00","8.6","ND","18.76","ND","ND","ND","0.4","55.1","22.6","83","0","0"],
    [26551,"2013-05-17T02:00:00","28.7","ND","16.97","ND","ND","ND","0.6","322.1","22.1","86.3","0","0"],
    [26552,"2013-05-17T03:00:00","17.7","ND","16.87","ND","ND","ND","0","247.4","22","86.3","0","0"],
    [26553,"2013-05-17T04:00:00","28.4","ND","16.50","ND","ND","ND","0.6","18.8","21.7","88.2","0","0"],
    [26554,"2013-05-17T05:00:00","27.6","ND","17.25","ND","ND","ND","0.6","44.7","21.5","89.1","0","0"],
    [26555,"2013-05-17T06:00:00","34.2","ND","17.91","ND","ND","ND","0.2","36","21.5","89.2","0","0"],
    [26556,"2013-05-17T07:00:00","42.5","ND","20.69","ND","ND","ND","0.3","35.3","21.7","89.3","12.2","0"],
    [26557,"2013-05-17T08:00:00","60.4","ND","25.80","ND","ND","ND","0.1","177.1","22","86.8","46","0"],
    [26558,"2013-05-17T09:00:00","50.1","ND","28.87","ND","ND","ND","0.5","70.3","23","81.6","152.2","0"],
    [26559,"2013-05-17T10:00:00","27.3","ND","14.24","ND","ND","ND","0.6","104","24.2","73.9","340.4","0"],
    [26560,"2013-05-17T11:00:00","15.7","ND","15.84","ND","ND","ND","0.4","195.7","25.3","68.2","447.1","0"],
    [26561,"2013-05-17T12:00:00","8.5","ND","19.41","ND","ND","ND","0.6","37.1","26","65.5","276.9","0"],
    [26562,"2013-05-17T13:00:00","5.4","ND","16.05","ND","ND","ND","2","38.7","26.2","66.9","376.7","0"],
    [26563,"2013-05-17T14:00:00","17.4","ND","15.14","ND","ND","ND","3.1","27.4","25.6","68.2","329.8","0"],
    [26564,"2013-05-17T15:00:00","11.1","ND","14.18","ND","ND","ND","2.7","35.6","26.1","67.6","437.3","0"],
    [26565,"2013-05-17T16:00:00","11","ND","12.79","ND","ND","ND","2.2","42.8","26","68.1","209.1","0"],
    [26566,"2013-05-17T17:00:00","7","ND","11.83","ND","ND","ND","1.7","58","26.1","65.9","157.4","0"],
    [26567,"2013-05-17T18:00:00","15","ND","15.80","ND","ND","ND","1","50.7","26.1","65.5","38.9","0"],
    [26568,"2013-05-17T19:00:00","10","ND","32.06","ND","ND","ND","0.9","132.8","25.6","67.5","0","0"],
    [26569,"2013-05-17T20:00:00","13.5","ND","40.51","ND","ND","ND","1.2","174.3","25","69","0","0"],
    [26570,"2013-05-17T21:00:00","25.7","ND","33.59","ND","ND","ND","1.4","167.7","24.2","77.8","0","0"],
    [26571,"2013-05-17T22:00:00","25","ND","32.13","ND","ND","ND","0.5","243","23.9","76.6","0","0"],
    [26572,"2013-05-17T23:00:00","20.2","ND","26.98","ND","ND","ND","1","257.5","23.2","78.5","0","0"],
    [26573,"2013-05-18T00:00:00","37.8","ND","19.56","ND","ND","ND","0.1","17.3","23.2","77.4","0","0"],
    [26574,"2013-05-18T01:00:00","35.8","ND","25.11","ND","ND","ND","0.7","19","22.4","84.5","0","0"],
    [26575,"2013-05-18T02:00:00","49.5","ND","18.57","ND","ND","ND","0.5","338.2","21.7","90","0","0"],
    [26576,"2013-05-18T03:00:00","30.1","ND","19.25","ND","ND","ND","0.2","295.3","21.8","88.2","0","0"],
    [26577,"2013-05-18T04:00:00","17.6","ND","18.43","ND","ND","ND","0.3","348.7","21.8","86.5","0","0"],
    [26578,"2013-05-18T05:00:00","17.3","ND","17.91","ND","ND","ND","0.4","4","21.3","89.2","0","0"],
    [26579,"2013-05-18T06:00:00","27.2","ND","15.15","ND","ND","ND","0.3","260.8","21.1","90","0","0"],
    [26580,"2013-05-18T07:00:00","34.7","ND","17.78","ND","ND","ND","0.2","239.6","21.3","89.1","31.1","0"],
    [26581,"2013-05-18T08:00:00","35.7","ND","25.76","ND","ND","ND","0.4","156.2","22.8","83.4","147.8","0"],
    [26582,"2013-05-18T09:00:00","42.3","ND","25.96","ND","ND","ND","1.5","107.1","23.3","81.3","201.3","0"],
    [26583,"2013-05-18T10:00:00","52.3","ND","27.49","ND","ND","ND","0.5","192.3","24.3","76.9","380.1","0"],
    [26584,"2013-05-18T11:00:00","28","ND","20.61","ND","ND","ND","0.8","232","26.4","63.1","652.4","0"],
    [26585,"2013-05-18T12:00:00","16.3","ND","24.44","ND","ND","ND","0.4","203","27.4","58.1","451.8","0"],
    [26586,"2013-05-18T13:00:00","27.5","ND","17.99","ND","ND","ND","1.2","49.1","28.2","55.6","484.2","0"],
    [26587,"2013-05-18T14:00:00","44.6","ND","18.06","ND","ND","ND","1.5","33.7","29","54.5","693.2","0"],
    [26588,"2013-05-18T15:00:00","23.6","ND","22.80","ND","ND","ND","2.1","25.9","29.6","53.2","514.1","0"],
    [26589,"2013-05-18T16:00:00","19.6","ND","11.08","ND","ND","ND","1.2","335.5","29.9","52.1","382.3","0"],
    [26590,"2013-05-18T17:00:00","11.5","ND","7.33","ND","ND","ND","2.2","283.2","29.8","50.4","260.3","0"],
    [26591,"2013-05-18T18:00:00","21.6","ND","15.91","ND","ND","ND","0.5","329.4","28.4","54","34.3","0"],
    [26592,"2013-05-18T19:00:00","17.6","ND","29.45","ND","ND","ND","0.1","329.1","27.6","56.9","0","0"],
    [26593,"2013-05-18T20:00:00","21.1","ND","33.53","ND","ND","ND","0.3","101.5","27.1","59","0","0"],
    [26594,"2013-05-18T21:00:00","15.9","ND","31.64","ND","ND","ND","0.5","117.4","26.6","60.3","0","0"],
    [26595,"2013-05-18T22:00:00","44.9","ND","26.17","ND","ND","ND","0.5","156.5","25.3","68.1","0","0"],
    [26596,"2013-05-18T23:00:00","59","ND","25.95","ND","ND","ND","0.3","231.3","24.7","71.5","0","0"],
    [26597,"2013-05-19T00:00:00","67.9","ND","22.13","ND","ND","ND","0.4","306","23.7","76.7","0","0"],
    [26598,"2013-05-19T01:00:00","90.3","ND","21.65","ND","ND","ND","0.7","214.3","23.8","76.8","0","0"],
    [26599,"2013-05-19T02:00:00","60.1","ND","22.03","ND","ND","ND","0.5","216.6","23.7","77.7","0","0"],
    [26600,"2013-05-19T03:00:00","45.8","ND","18.81","ND","ND","ND","0.8","140.3","23.5","79.8","0","0"],
    [26601,"2013-05-19T04:00:00","32.5","ND","16.38","ND","ND","ND","0.3","133.5","22.8","85.4","0","0"],
    [26602,"2013-05-19T05:00:00","17.9","ND","14.91","ND","ND","ND","0.3","209.5","22.3","88.8","0","0"],
    [26603,"2013-05-19T06:00:00","10","ND","15.21","ND","ND","ND","0.8","232.2","22.3","85.9","0","0"],
    [26604,"2013-05-19T07:00:00","16.6","ND","14.19","ND","ND","ND","0.3","275.1","22.5","84.2","67.1","0"],
    [26605,"2013-05-19T08:00:00","10.3","ND","19.65","ND","ND","ND","1","177.1","23.9","78.3","175.5","0"],
    [26606,"2013-05-19T09:00:00","7.3","ND","21.95","ND","ND","ND","0.7","86.3","24.9","73.8","257.9","0"],
    [26607,"2013-05-19T10:00:00","5.3","ND","14.40","ND","ND","ND","0.5","121","26","69.8","395.3","0"],
    [26608,"2013-05-19T11:00:00","3.6","ND","14.70","ND","ND","ND","0.4","128.4","27.2","64.5","429.9","0"],
    [26609,"2013-05-19T12:00:00","11.2","ND","14.17","ND","ND","ND","1","117.9","27.5","64.3","383.2","0"],
    [26610,"2013-05-19T13:00:00","8.6","ND","11.35","ND","ND","ND","1.5","111.8","28.2","62.3","351.1","0"],
    [26611,"2013-05-19T14:00:00","21.8","ND","10.74","ND","ND","ND","0.9","84.6","28.3","61.8","383.1","0"],
    [26612,"2013-05-19T15:00:00","12.8","ND","9.92","ND","ND","ND","1.5","340.3","28.4","58.7","252.3","0"],
    [26613,"2013-05-19T16:00:00","7.6","ND","8.71","ND","ND","ND","1.1","16.5","29.3","54.7","376.9","0"],
    [26614,"2013-05-19T17:00:00","4.4","ND","7.49","ND","ND","ND","1.5","280","28.4","55.5","116.8","0"],
    [26615,"2013-05-19T18:00:00","11.6","ND","18.61","ND","ND","ND","0.7","241.5","27.8","57.3","44.5","0"],
    [26616,"2013-05-19T19:00:00","6.6","ND","19.25","ND","ND","ND","0.3","332.5","27","57.6","0","0"],
    [26617,"2013-05-19T20:00:00","4.4","ND","26.14","ND","ND","ND","1","158.9","26.7","59.3","0","0"],
    [26618,"2013-05-19T21:00:00","11.9","ND","27.80","ND","ND","ND","0.7","26","25.6","64.3","0","0"],
    [26619,"2013-05-19T22:00:00","12.9","ND","17.76","ND","ND","ND","0.6","67.4","24.3","71.2","0","0"],
    [26620,"2013-05-19T23:00:00","21.2","ND","14.62","ND","ND","ND","0.1","153.1","24","73.3","0","0"],
    [26621,"2013-05-20T00:00:00","20.6","ND","22.14","ND","ND","ND","0.1","158.8","24.1","73.7","0","0"],
    [26622,"2013-05-20T01:00:00","19.9","ND","21.39","ND","ND","ND","0.5","15.8","23.3","77.9","0","0"],
    [26623,"2013-05-20T02:00:00","37","ND","20.64","ND","ND","ND","0.5","117.3","23.4","77.5","0","0"],
    [26624,"2013-05-20T03:00:00","21","ND","14.72","ND","ND","ND","0.9","124.9","23","79.5","0","0"],
    [26625,"2013-05-20T04:00:00","23.1","ND","10.85","ND","ND","ND","0.2","141.8","22.5","81.9","0","0"],
    [26626,"2013-05-20T05:00:00","13.7","ND","11.96","ND","ND","ND","0.1","327.1","22.6","82","0","0"],
    [26627,"2013-05-20T06:00:00","15.9","ND","14.92","ND","ND","ND","0.3","319.9","22.5","82.7","0","0"],
    [26628,"2013-05-20T07:00:00","42.1","ND","20.29","ND","ND","ND","0.7","41.8","22.3","85","27.1","0.51"],
    [26629,"2013-05-20T08:00:00","37.1","ND","30.65","ND","ND","ND","0.3","36.8","22.9","84.7","102.6","0"],
    [26630,"2013-05-20T09:00:00","112.3","ND","49.95","ND","ND","ND","0.6","156.1","25.1","74.8","399.2","0"],
    [26631,"2013-05-20T10:00:00","43.5","ND","44.87","ND","ND","ND","0.2","192","25.8","69.8","236.1","0"],
    [26632,"2013-05-20T11:00:00","42.9","ND","33.07","ND","ND","ND","0.9","53.7","26.7","66.1","432.9","0"],
    [26633,"2013-05-20T12:00:00","10.7","ND","20.25","ND","ND","ND","0.5","0.6","27.8","61.8","546.7","0"],
    [26634,"2013-05-20T13:00:00","6.8","ND","20.35","ND","ND","ND","1","38.9","28.8","58.2","627.7","0"],
    [26635,"2013-05-20T14:00:00","11.6","ND","14.56","ND","ND","ND","0.4","266.4","29","54.3","271.9","0"],
    [26636,"2013-05-20T15:00:00","7.4","ND","10.82","ND","ND","ND","4","245","26.9","59.4","118.5","0"],
    [26637,"2013-05-20T16:00:00","5.1","ND","10.14","ND","ND","ND","2.4","254.3","28","53.2","211.2","0"],
    [26638,"2013-05-20T17:00:00","4.3","ND","9.84","ND","ND","ND","2.1","275.7","28.2","52.1","181.1","0"],
    [26639,"2013-05-20T18:00:00","4.1","ND","18.01","ND","ND","ND","0.3","172.2","27.9","52.8","42.8","0"],
    [26640,"2013-05-20T19:00:00","19.7","ND","25.70","ND","ND","ND","0.7","198.3","25.3","69","0","0.25"],
    [26641,"2013-05-20T20:00:00","11.8","ND","24.47","ND","ND","ND","0.1","64.4","23.7","81.5","0","0.25"],
    [26642,"2013-05-20T21:00:00","12.4","ND","22.14","ND","ND","ND","0.2","306.8","23.3","84.3","0","0"],
    [26643,"2013-05-20T22:00:00","23.7","ND","21.70","ND","ND","ND","0.6","180","23.5","82.9","0","0.25"],
    [26644,"2013-05-20T23:00:00","31.3","ND","19.37","ND","ND","ND","1","118.5","23.4","84.8","0","0"],
    [26645,"2013-05-21T00:00:00","21.7","ND","14.54","ND","ND","ND","1.6","155.3","23.1","84","0","0"],
    [26646,"2013-05-21T01:00:00","11.5","ND","13.26","ND","ND","ND","0.6","182.2","22.9","81.9","0","0"],
    [26647,"2013-05-21T02:00:00","13.3","ND","18.65","ND","ND","ND","0.7","40.2","22.7","83.4","0","0"],
    [26648,"2013-05-21T03:00:00","7.9","ND","10.96","ND","ND","ND","0.7","23","21.9","89.1","0","0"],
    [26649,"2013-05-21T04:00:00","4.5","ND","9.25","ND","ND","ND","0.6","22.9","21.5","91.9","0","0"],
    [26650,"2013-05-21T05:00:00","4.7","ND","10.51","ND","ND","ND","1.1","36.3","21.2","95","0","1.27"],
    [26651,"2013-05-21T06:00:00","5.3","ND","14.27","ND","ND","ND","1.6","22","20.6","97.4","0","8.89"],
    [26652,"2013-05-21T07:00:00","3.5","ND","18.77","ND","ND","ND","1.6","10.1","20.1","98","8.7","7.11"],
    [26653,"2013-05-21T08:00:00","2.9","ND","18.43","ND","ND","ND","1.3","55.3","20","98.1","25.3","2.54"],
    [26654,"2013-05-21T09:00:00","3.8","ND","19.85","ND","ND","ND","1","40.8","20.2","97.8","76.2","6.35"],
    [26655,"2013-05-21T10:00:00","2.8","ND","20.48","ND","ND","ND","0.7","76.5","21.1","93.8","190.9","0"],
    [26656,"2013-05-21T11:00:00","3.2","ND","23.90","ND","ND","ND","0.8","168.2","22.2","85.3","163","0"],
    [26657,"2013-05-21T12:00:00","3.8","ND","37.98","ND","ND","ND","1","187.5","22.3","87.6","204.8","0.25"],
    [26658,"2013-05-21T13:00:00","2.9","ND","34.76","ND","ND","ND","1.6","163","22.5","85.8","284.3","0.51"],
    [26659,"2013-05-21T14:00:00","3.2","ND","20.26","ND","ND","ND","1.5","160.2","23.3","79.5","234.7","0"],
    [26660,"2013-05-21T15:00:00","3","ND","23.89","ND","ND","ND","2.3","170.7","23.2","80","130.9","0"],
    [26661,"2013-05-21T16:00:00","2.8","ND","29.58","ND","ND","ND","1.5","213.4","23.8","76.1","199.4","0"],
    [26662,"2013-05-21T17:00:00","3.2","ND","30.83","ND","ND","ND","1.7","206.8","24.1","72.7","94.9","0"],
    [26663,"2013-05-21T18:00:00","3.7","ND","32.56","ND","ND","ND","1.2","240.6","23.8","73","23.1","0"],
    [26664,"2013-05-21T19:00:00","3","ND","38.67","ND","ND","ND","0.3","231","23.6","73.4","0","0"],
    [26665,"2013-05-21T20:00:00","19.5","ND","32.46","ND","ND","ND","0.1","290","22.7","78.4","0","0"],
    [26666,"2013-05-21T21:00:00","32.4","ND","31.79","ND","ND","ND","0.1","253.2","22.5","80.9","0","0"],
    [26667,"2013-05-21T22:00:00","40.5","ND","34.91","ND","ND","ND","0.2","327.8","22.5","82.2","0","0"],
    [26668,"2013-05-21T23:00:00","21.6","ND","30.95","ND","ND","ND","0.1","283.5","22.2","84.8","0","0"],
    [26669,"2013-05-22T00:00:00","60.9","ND","25.01","ND","ND","ND","1","335.6","21.4","91.9","0","8.64"],
    [26670,"2013-05-22T01:00:00","31.7","ND","21.45","ND","ND","ND","0.2","333.7","21.1","95.9","0","0.25"],
    [26671,"2013-05-22T02:00:00","21.2","ND","21.92","ND","ND","ND","0.3","1.9","20.9","95.8","0","0.25"],
    [26672,"2013-05-22T03:00:00","11.7","ND","19.29","ND","ND","ND","0.4","328.6","20.7","95.6","0","0"],
    [26673,"2013-05-22T04:00:00","16.7","ND","20.84","ND","ND","ND","0.2","44.9","20.9","95.3","0","0"],
    [26674,"2013-05-22T05:00:00","9.6","ND","17.98","ND","ND","ND","0.6","70.1","20.6","96.4","0","0"],
    [26675,"2013-05-22T06:00:00","8.1","ND","17.39","ND","ND","ND","0.4","41.8","20.4","97.1","0","0"],
    [26676,"2013-05-22T07:00:00","5.2","ND","19.38","ND","ND","ND","0.3","109.9","20.7","97","10.2","0"],
    [26677,"2013-05-22T08:00:00","26.3","ND","23.48","ND","ND","ND","0.5","56.7","20.9","96.1","24.2","0"],
    [26678,"2013-05-22T09:00:00","28.4","ND","24.79","ND","ND","ND","0.3","51.5","21.3","94.2","78.9","0"],
    [26679,"2013-05-22T10:00:00","37.9","ND","31.51","ND","ND","ND","0.3","247.9","22.2","87.9","121.6","0"],
    [26680,"2013-05-22T11:00:00","19.9","ND","30.41","ND","ND","ND","0.3","204.8","23.8","76.9","434.8","0"],
    [26681,"2013-05-22T12:00:00","34.9","ND","30.17","ND","ND","ND","0.6","88.7","25.9","67.4","594.2","0"],
    [26682,"2013-05-22T13:00:00","23","ND","21.64","ND","ND","ND","1","36.1","26.8","64.5","573.8","0"],
    [26683,"2013-05-22T14:00:00","13.4","ND","21.63","ND","ND","ND","1","39","27.8","59.7","621.8","0"],
    [26684,"2013-05-22T15:00:00","20.8","ND","22.06","ND","ND","ND","1","40.5","27.7","60.7","240.4","0"],
    [26685,"2013-05-22T16:00:00","17.6","ND","18.86","ND","ND","ND","1.5","16.5","25.4","73.9","53.4","12.19"],
    [26686,"2013-05-22T17:00:00","17.2","ND","21.98","ND","ND","ND","0.8","289.7","24.3","78.4","60.5","0"],
    [26687,"2013-05-22T18:00:00","10.7","ND","22.87","ND","ND","ND","0.7","231.7","24.8","75.6","36.4","0"],
    [26688,"2013-05-22T19:00:00","18.9","ND","27.33","ND","ND","ND","0.4","190.8","24.4","76.1","0","0.25"],
    [26689,"2013-05-22T20:00:00","25.3","ND","39.31","ND","ND","ND","0.5","85.9","23.3","81.5","0","0"],
    [26690,"2013-05-22T21:00:00","26.5","ND","37.56","ND","ND","ND","0.6","328.9","22.5","86.2","0","5.08"],
    [26691,"2013-05-22T22:00:00","34.7","ND","34.31","ND","ND","ND","0.3","324.4","21.1","93.7","0","10.41"],
    [26692,"2013-05-22T23:00:00","18.5","ND","33.64","ND","ND","ND","0.4","67.2","20.9","96.3","0","3.3"],
    [26693,"2013-05-23T00:00:00","19.9","ND","30.85","ND","ND","ND","0.1","52","20.9","96.7","0","0"],
    [26694,"2013-05-23T01:00:00","19.9","ND","27.54","ND","ND","ND","0.4","31.9","20.6","97","0","0"],
    [26695,"2013-05-23T02:00:00","27.8","ND","23.96","ND","ND","ND","0.3","41.4","20.4","96.5","0","0.25"],
    [26696,"2013-05-23T03:00:00","28.6","ND","22.34","ND","ND","ND","0","185.7","20.6","96.1","0","0"],
    [26697,"2013-05-23T04:00:00","15.8","ND","22.21","ND","ND","ND","0.3","75.7","20.6","95.6","0","1.52"],
    [26698,"2013-05-23T05:00:00","9","ND","15.77","ND","ND","ND","0.5","53.5","20.2","96.4","0","7.11"],
    [26699,"2013-05-23T06:00:00","8.1","ND","20.26","ND","ND","ND","0.1","45.7","20","97.6","0","7.62"],
    [26700,"2013-05-23T07:00:00","6.7","ND","21.40","ND","ND","ND","0.4","51.1","20.1","98.4","4.1","3.56"],
    [26701,"2013-05-23T08:00:00","13.8","ND","24.26","ND","ND","ND","0.9","52.4","20.2","98.7","25.5","1.78"],
    [26702,"2013-05-23T09:00:00","7.4","ND","19.64","ND","ND","ND","1.3","48.4","20.4","98.5","55.8","0.25"],
    [26703,"2013-05-23T10:00:00","6","ND","11.74","ND","ND","ND","1.8","41","20.8","96.3","146.1","0.25"],
    [26704,"2013-05-23T11:00:00","3.5","ND","9.97","ND","ND","ND","1.1","58.1","21.4","93.3","184.2","0.25"],
    [26705,"2013-05-23T12:00:00","1.8","ND","15.70","ND","ND","ND","0.6","153.4","23.4","79.2","374.8","0"],
    [26706,"2013-05-23T13:00:00","2.5","ND","19.22","ND","ND","ND","2.1","167.2","23.9","76.2","462.2","0"],
    [26707,"2013-05-23T14:00:00","4","ND","16.14","ND","ND","ND","2","142.2","25","70.6","398.9","0"],
    [26708,"2013-05-23T15:00:00","4.3","ND","17.36","ND","ND","ND","1.7","162.5","25.3","69.2","270.3","0"],
    [26709,"2013-05-23T16:00:00","2.7","ND","20.78","ND","ND","ND","1.6","173.1","25.1","69.9","129","0"],
    [26710,"2013-05-23T17:00:00","2.3","ND","29.64","ND","ND","ND","1.6","197.5","25.3","68.6","198.4","0"],
    [26711,"2013-05-23T18:00:00","3.3","ND","31.71","ND","ND","ND","0.9","206.9","25.3","66.6","63.7","0"],
    [26712,"2013-05-23T19:00:00","4.2","ND","44.57","ND","ND","ND","0.9","275.6","24.2","72.5","0","0"],
    [26713,"2013-05-23T20:00:00","36.6","ND","23.79","ND","ND","ND","0.3","199.6","23.6","71.4","0","0"],
    [26714,"2013-05-23T21:00:00","29.8","ND","28.27","ND","ND","ND","0.4","225.1","23","74.3","0","0"],
    [26715,"2013-05-23T22:00:00","47.1","ND","27.73","ND","ND","ND","0.1","177.9","22.6","79.1","0","0"],
    [26716,"2013-05-23T23:00:00","24.5","ND","27.47","ND","ND","ND","0.4","258.4","22.1","83.6","0","0"],
    [26717,"2013-05-24T00:00:00","50.3","ND","28.44","ND","ND","ND","0.3","259.8","21.7","86","0","0"],
    [26718,"2013-05-24T01:00:00","38","ND","23.47","ND","ND","ND","0.3","233.4","21.5","87.5","0","0"],
    [26719,"2013-05-24T02:00:00","35.8","ND","19.10","ND","ND","ND","0.2","221.2","21.5","86.9","0","0"],
    [26720,"2013-05-24T03:00:00","39.7","ND","19.83","ND","ND","ND","0.3","350","21.6","86.4","0","0"],
    [26721,"2013-05-24T04:00:00","57.4","ND","17.36","ND","ND","ND","0.5","35.4","21.1","89.7","0","0"],
    [26722,"2013-05-24T05:00:00","29.9","ND","14.93","ND","ND","ND","0.4","257.2","20.9","90.8","0","0"],
    [26723,"2013-05-24T06:00:00","38.3","ND","15.06","ND","ND","ND","0","253.6","21.1","89.8","0","0"],
    [26724,"2013-05-24T07:00:00","32.5","ND","18.82","ND","ND","ND","0","0","21.2","88.9","20.9","0"],
    [26725,"2013-05-24T08:00:00","39.4","ND","25.11","ND","ND","ND","0","197.4","22","85","101.8","0"],
    [26726,"2013-05-24T09:00:00","34.9","ND","46.50","ND","ND","ND","0.3","175.3","23.1","80.4","164.1","0"],
    [26727,"2013-05-24T10:00:00","36.7","ND","52.64","ND","ND","ND","0.5","191.4","23.8","76.1","184.6","0"],
    [26728,"2013-05-24T11:00:00","18.9","ND","31.17","ND","ND","ND","0.7","45.5","25","70.9","410.4","0"],
    [26729,"2013-05-24T12:00:00","19.4","ND","19.40","ND","ND","ND","0.9","49.1","26.2","66.3","503.8","0"],
    [26730,"2013-05-24T13:00:00","10.6","ND","14.06","ND","ND","ND","1","36.3","26.9","63.4","468.5","0"],
    [26731,"2013-05-24T14:00:00","6.7","ND","14.24","ND","ND","ND","0.7","50.2","27.8","60.7","462.8","0"],
    [26732,"2013-05-24T15:00:00","4.4","ND","16.48","ND","ND","ND","0.5","1.8","28.1","61","369.7","0"],
    [26733,"2013-05-24T16:00:00","11.1","ND","21.54","ND","ND","ND","1.3","352.5","28.3","59.7","339.9","0"],
    [26734,"2013-05-24T17:00:00","6.7","ND","21.73","ND","ND","ND","1","353.7","27.6","59.7","85.1","0"],
    [26735,"2013-05-24T18:00:00","16.7","ND","30.51","ND","ND","ND","0.3","338","26.8","60.8","11.3","0"],
    [26736,"2013-05-24T19:00:00","15","ND","34.97","ND","ND","ND","0.6","162.6","26.4","62.6","0","0"],
    [26737,"2013-05-24T20:00:00","44.6","ND","33.20","ND","ND","ND","0.7","128.4","25.1","70.1","0","0"],
    [26738,"2013-05-24T21:00:00","37.9","ND","33.17","ND","ND","ND","0.1","270.7","24","76.6","0","0"],
    [26739,"2013-05-24T22:00:00","66.4","ND","30.77","ND","ND","ND","0.4","132.8","23.7","78.1","0","0"],
    [26740,"2013-05-24T23:00:00","44.5","ND","23.47","ND","ND","ND","0.4","55.9","22.6","81.3","0","0"],
    [26741,"2013-05-25T00:00:00","32.3","ND","21.24","ND","ND","ND","0.1","203.8","22.3","82.7","0","0"],
    [26742,"2013-05-25T01:00:00","32.6","ND","19.84","ND","ND","ND","0.2","231.6","21.8","86.8","0","0"],
    [26743,"2013-05-25T02:00:00","44.4","ND","17.77","ND","ND","ND","0.3","185.4","21.4","86.8","0","0"],
    [26744,"2013-05-25T03:00:00","29.6","ND","16.48","ND","ND","ND","0.1","339.8","21.3","86.2","0","0"],
    [26745,"2013-05-25T04:00:00","46.5","ND","12.78","ND","ND","ND","0.3","274.9","20.8","89.4","0","0"],
    [26746,"2013-05-25T05:00:00","31.9","ND","12.02","ND","ND","ND","0.1","185.8","20.9","89.3","0","0"],
    [26747,"2013-05-25T06:00:00","35.6","ND","13.34","ND","ND","ND","0.2","6.4","21","88.7","0","0"],
    [26748,"2013-05-25T07:00:00","56.3","ND","18.24","ND","ND","ND","0.2","44.2","21.2","87.7","36","0"],
    [26749,"2013-05-25T08:00:00","81.7","ND","29.47","ND","ND","ND","0.4","81.7","21.7","86","90.2","0"],
    [26750,"2013-05-25T09:00:00","64.7","ND","52.29","ND","ND","ND","0.1","102.6","23","80.5","246.2","0"],
    [26751,"2013-05-25T10:00:00","54.7","ND","66.86","ND","ND","ND","0.2","262.1","25.4","69.9","551.7","0"],
    [26752,"2013-05-25T11:00:00","46.2","ND","43.74","ND","ND","ND","0.6","108","26.7","64.9","620.2","0"],
    [26753,"2013-05-25T12:00:00","37.9","ND","27.16","ND","ND","ND","0","349.4","27.7","59.9","492.3","0"],
    [26754,"2013-05-25T13:00:00","20.8","ND","19.30","ND","ND","ND","0.9","358.6","28.7","55.5","647","0"],
    [26755,"2013-05-25T14:00:00","15.5","ND","14.50","ND","ND","ND","1.1","37.9","29.3","54.2","506.4","0"],
    [26756,"2013-05-25T15:00:00","12.9","ND","21.25","ND","ND","ND","0.6","288.1","30.4","51.8","563.5","0"],
    [26757,"2013-05-25T16:00:00","16.8","ND","18.43","ND","ND","ND","1","260.4","30.2","50.9","296.7","0"],
    [26758,"2013-05-25T17:00:00","8.4","ND","8.16","ND","ND","ND","1.4","304.4","30.6","47.8","280.4","0"],
    [26759,"2013-05-25T18:00:00","4.2","ND","12.82","ND","ND","ND","0.5","279","28.4","53.5","38.7","0"],
    [26760,"2013-05-25T19:00:00","2.7","ND","26.48","ND","ND","ND","0.2","113","27.3","57.3","0","0"],
    [26761,"2013-05-25T20:00:00","22","ND","32.35","ND","ND","ND","0.7","105.1","26.7","59.2","0","0"],
    [26762,"2013-05-25T21:00:00","42","ND","33.24","ND","ND","ND","0.4","132.8","26","63.3","0","0"],
    [26763,"2013-05-25T22:00:00","49.6","ND","29.86","ND","ND","ND","0.7","139.9","24.9","69.3","0","0"],
    [26764,"2013-05-25T23:00:00","93.6","ND","18.30","ND","ND","ND","0.5","180.6","23.3","77.8","0","0"],
    [26765,"2013-05-26T00:00:00","102.5","ND","17.33","ND","ND","ND","0.8","178.3","23.1","79.1","0","0"],
    [26766,"2013-05-26T01:00:00","52.4","ND","17.24","ND","ND","ND","0.1","164","23.1","78.9","0","0"],
    [26767,"2013-05-26T02:00:00","52.2","ND","15.14","ND","ND","ND","0.4","317.6","22.7","79.6","0","0"],
    [26768,"2013-05-26T03:00:00","77.3","ND","14.59","ND","ND","ND","0.9","2.7","22.2","84.2","0","0"],
    [26769,"2013-05-26T04:00:00","40.9","ND","13.56","ND","ND","ND","0.5","350.2","22.2","85.4","0","0.76"],
    [26770,"2013-05-26T05:00:00","21","ND","12.00","ND","ND","ND","0.2","299.2","21.7","90.7","0","1.02"],
    [26771,"2013-05-26T06:00:00","12.7","ND","10.74","ND","ND","ND","0.7","245.4","21.5","92.1","0","0"],
    [26772,"2013-05-26T07:00:00","12.6","ND","11.08","ND","ND","ND","0.6","344","21.7","92","10.1","0"],
    [26773,"2013-05-26T08:00:00","31.7","ND","12.87","ND","ND","ND","0.1","342","21.7","93.1","59.6","0"],
    [26774,"2013-05-26T09:00:00","29.6","ND","21.36","ND","ND","ND","1.1","178","22.9","85.7","207.3","0"],
    [26775,"2013-05-26T10:00:00","22.4","ND","11.52","ND","ND","ND","1.7","156.7","24.3","74.6","391.4","0"],
    [26776,"2013-05-26T11:00:00","11.8","ND","10.60","ND","ND","ND","1.1","139.7","25.4","70.9","278.4","0"],
    [26777,"2013-05-26T12:00:00","7.6","ND","9.46","ND","ND","ND","0.8","121","25.9","69.3","389.3","0"],
    [26778,"2013-05-26T13:00:00","5.3","ND","10.19","ND","ND","ND","0.2","36.2","27.2","64.7","507.4","0"],
    [26779,"2013-05-26T14:00:00","4.1","ND","9.49","ND","ND","ND","0.7","77.1","28","61.4","493.5","0"],
    [26780,"2013-05-26T15:00:00","3.7","ND","10.37","ND","ND","ND","0.8","3.5","28.2","58.6","267.8","0"],
    [26781,"2013-05-26T16:00:00","2.8","ND","4.91","ND","ND","ND","1.6","277.5","26.9","61.1","99.7","9.91"],
    [26782,"2013-05-26T17:00:00","34.1","ND","10.94","ND","ND","ND","3","195.1","19.5","98.7","4.3","115.82"],
    [26783,"2013-05-26T18:00:00","27.1","ND","30.05","ND","ND","ND","0.5","145.5","19.2","100","0","20.57"],
    [26784,"2013-05-26T19:00:00","15.3","ND","31.10","ND","ND","ND","0.9","347.2","19.4","100","0","4.83"],
    [26785,"2013-05-26T20:00:00","16.2","ND","25.95","ND","ND","ND","0.9","51.7","19.6","100","0","3.81"],
    [26786,"2013-05-26T21:00:00","9","ND","18.47","ND","ND","ND","0.9","38.8","19.5","100","0","1.52"],
    [26787,"2013-05-26T22:00:00","6.4","ND","26.81","ND","ND","ND","0.3","159.2","19.7","100","0","0.51"],
    [26788,"2013-05-26T23:00:00","6.3","ND","21.80","ND","ND","ND","0.3","220.6","20","100","0","0"],
    [26789,"2013-05-27T00:00:00","5.5","ND","15.20","ND","ND","ND","0.1","250.7","20","99.2","0","0"],
    [26790,"2013-05-27T01:00:00","3.8","ND","12.98","ND","ND","ND","0.2","304.4","20","97.8","0","0"],
    [26791,"2013-05-27T02:00:00","17.4","ND","16.69","ND","ND","ND","0.4","3.7","20","98.3","0","0.25"],
    [26792,"2013-05-27T03:00:00","15.6","ND","15.91","ND","ND","ND","0.2","299.4","19.8","99.2","0","0.25"],
    [26793,"2013-05-27T04:00:00","17","ND","12.93","ND","ND","ND","0.4","161.7","20","99","0","0.25"],
    [26794,"2013-05-27T05:00:00","19","ND","13.46","ND","ND","ND","0.3","7.4","20","98.7","0","0"],
    [26795,"2013-05-27T06:00:00","42.1","ND","13.48","ND","ND","ND","0","87.7","19.9","99.2","0","0"],
    [26796,"2013-05-27T07:00:00","47.5","ND","16.92","ND","ND","ND","0","28.8","19.9","99","40.5","0"],
    [26797,"2013-05-27T08:00:00","59.1","ND","21.49","ND","ND","ND","0.5","14.7","20.4","97.4","123.7","0"],
    [26798,"2013-05-27T09:00:00","44.6","ND","22.68","ND","ND","ND","1","54.3","21.4","91.3","249","0"],
    [26799,"2013-05-27T10:00:00","37.7","ND","20.29","ND","ND","ND","0.9","63","22.6","84","434.9","0"],
    [26800,"2013-05-27T11:00:00","19.4","ND","15.30","ND","ND","ND","0.9","62.1","24.7","72.2","805.6","0"],
    [26801,"2013-05-27T12:00:00","13.9","ND","18.25","ND","ND","ND","0.5","281.9","25.3","67.9","336.7","0"],
    [26802,"2013-05-27T13:00:00","8","ND","14.32","ND","ND","ND","0.8","85.5","26.2","64.1","433.5","0"],
    [26803,"2013-05-27T14:00:00","5.7","ND","11.49","ND","ND","ND","0.6","87.7","27","62.8","405.2","0"],
    [26804,"2013-05-27T15:00:00","3.3","ND","15.35","ND","ND","ND","0.4","57","27.9","59.7","586.4","0"],
    [26805,"2013-05-27T16:00:00","2.5","ND","16.36","ND","ND","ND","0.7","94.4","27.9","60.1","171.2","0"],
    [26806,"2013-05-27T17:00:00","20","ND","19.95","ND","ND","ND","0","73.1","27.6","61.1","115.2","0"],
    [26807,"2013-05-27T18:00:00","14.2","ND","41.24","ND","ND","ND","0.7","246.1","27.3","63.7","59","0"],
    [26808,"2013-05-27T19:00:00","28.8","ND","43.76","ND","ND","ND","1.5","147.4","26.5","66.8","0","0"],
    [26809,"2013-05-27T20:00:00","32.5","ND","41.31","ND","ND","ND","0.5","113.4","25.3","71.7","0","0"],
    [26810,"2013-05-27T21:00:00","29.3","ND","33.09","ND","ND","ND","0.2","84.6","24.3","75.2","0","0"],
    [26811,"2013-05-27T22:00:00","39.2","ND","28.54","ND","ND","ND","0.1","278.7","23.3","82.1","0","0"],
    [26812,"2013-05-27T23:00:00","37.2","ND","27.94","ND","ND","ND","0","242.7","23.3","82.3","0","0"],
    [26813,"2013-05-28T00:00:00","34.1","ND","25.95","ND","ND","ND","0.1","191.8","23.5","81.5","0","0"],
    [26814,"2013-05-28T01:00:00","20.3","ND","23.36","ND","ND","ND","0.4","195.4","23.1","82.5","0","0"],
    [26815,"2013-05-28T02:00:00","46.2","ND","18.49","ND","ND","ND","0.6","184.6","22.5","84.8","0","0.25"],
    [26816,"2013-05-28T03:00:00","24","ND","11.43","ND","ND","ND","0.4","153.9","22","86.5","0","2.54"],
    [26817,"2013-05-28T04:00:00","33.2","ND","12.22","ND","ND","ND","0.3","252.2","20.5","96.4","0","36.83"],
    [26818,"2013-05-28T05:00:00","19.2","ND","13.48","ND","ND","ND","0.7","319.1","20.3","100","0","14.73"],
    [26819,"2013-05-28T06:00:00","21.9","ND","16.73","ND","ND","ND","0.2","97.7","20.5","99.4","0","0.25"],
    [26820,"2013-05-28T07:00:00","13.1","ND","20.38","ND","ND","ND","0.3","170.5","20.7","98.6","20.2","0"],
    [26821,"2013-05-28T08:00:00","17.4","ND","28.37","ND","ND","ND","0.1","40.5","21.2","96.5","47.8","0"],
    [26822,"2013-05-28T09:00:00","9.5","ND","38.79","ND","ND","ND","0.8","150.6","22.6","87.5","235.8","0"],
    [26823,"2013-05-28T10:00:00","31.3","ND","53.76","ND","ND","ND","1","89.3","23.3","85.8","165.7","0"],
    [26824,"2013-05-28T11:00:00","36.2","ND","33.77","ND","ND","ND","0.6","43.9","23.5","84.4","317.5","0"],
    [26825,"2013-05-28T12:00:00","20","ND","34.80","ND","ND","ND","0.2","74.2","25.3","72.8","512.6","0"],
    [26826,"2013-05-28T13:00:00","22.7","ND","26.00","ND","ND","ND","1.3","50.1","26.4","67.6","476.2","0"],
    [26827,"2013-05-28T14:00:00","12.8","ND","19.65","ND","ND","ND","1.2","36.5","27.1","65.1","479.8","0"],
    [26828,"2013-05-28T15:00:00","8.9","ND","11.79","ND","ND","ND","0.8","234.2","27.8","58.7","401.9","0"],
    [26829,"2013-05-28T16:00:00","4.4","ND","9.16","ND","ND","ND","2.4","274","27.2","55.2","175.3","0"],
    [26830,"2013-05-28T17:00:00","3.5","ND","6.21","ND","ND","ND","2.6","285.2","26.5","54.6","143.1","0"],
    [26831,"2013-05-28T18:00:00","9.9","ND","16.52","ND","ND","ND","0.4","176.1","26","57","24.2","0"],
    [26832,"2013-05-28T19:00:00","25.2","ND","23.21","ND","ND","ND","0.2","61.2","25.5","59","0","0"],
    [26833,"2013-05-28T20:00:00","36.1","ND","25.28","ND","ND","ND","0.8","142.4","24.2","67","0","0"],
    [26834,"2013-05-28T21:00:00","28.3","ND","23.69","ND","ND","ND","0.1","174.1","23.6","70.3","0","0"],
    [26835,"2013-05-28T22:00:00","48.7","ND","19.70","ND","ND","ND","2","193.1","23.6","70.7","0","0"],
    [26836,"2013-05-28T23:00:00","25.3","ND","15.85","ND","ND","ND","2.3","175.3","22.7","77.1","0","0"],
    [26837,"2013-05-29T00:00:00","18.6","ND","12.58","ND","ND","ND","1.5","187.5","22.2","79.2","0","0"],
    [26838,"2013-05-29T01:00:00","11.6","ND","14.49","ND","ND","ND","0.2","171.5","22","80.2","0","0"],
    [26839,"2013-05-29T02:00:00","12.3","ND","12.20","ND","ND","ND","0.1","255.5","21.6","83.4","0","0"],
    [26840,"2013-05-29T03:00:00","7.5","ND","14.09","ND","ND","ND","0.4","50","21.2","85.5","0","0"],
    [26841,"2013-05-29T04:00:00","24.5","ND","11.25","ND","ND","ND","0.1","56.3","20.6","88.5","0","0"],
    [26842,"2013-05-29T05:00:00","13.6","ND","10.75","ND","ND","ND","0.3","328.8","20.3","89.9","0","0"],
    [26843,"2013-05-29T06:00:00","45.1","ND","13.26","ND","ND","ND","0.1","49.8","20.4","89.1","0","0"],
    [26844,"2013-05-29T07:00:00","46.7","ND","14.42","ND","ND","ND","0.3","287","20.6","88.5","39.5","0"],
    [26845,"2013-05-29T08:00:00","30","ND","22.54","ND","ND","ND","0.2","56.4","22.2","79.6","149.2","0"],
    [26846,"2013-05-29T09:00:00","29.9","ND","29.63","ND","ND","ND","0.5","85.2","24.1","70.1","435.2","0"],
    [26847,"2013-05-29T10:00:00","21.8","ND","33.80","ND","ND","ND","0.9","115.7","25.4","65.2","460.9","0"],
    [26848,"2013-05-29T11:00:00","12","ND","21.69","ND","ND","ND","1.4","169.5","26.5","60.5","716.1","0"],
    [26849,"2013-05-29T12:00:00","7.4","ND","17.27","ND","ND","ND","1.1","126.6","28","55.5","882.9","0"],
    [26850,"2013-05-29T13:00:00","4.2","ND","16.62","ND","ND","ND","1.2","75.5","28.2","56.1","580.6","0"],
    [26851,"2013-05-29T14:00:00","17.9","ND","13.80","ND","ND","ND","1.5","114.8","28.9","54.1","574.9","0"],
    [26852,"2013-05-29T15:00:00","21.1","ND","20.38","ND","ND","ND","1.7","49","27.8","59.1","127.5","0"],
    [26853,"2013-05-29T16:00:00","18.8","ND","15.76","ND","ND","ND","0.7","285.3","27","58.9","98.9","0"],
    [26854,"2013-05-29T17:00:00","15.7","ND","21.50","ND","ND","ND","1.3","145.1","27.3","54.7","95.8","0"],
    [26855,"2013-05-29T18:00:00","17.1","ND","26.79","ND","ND","ND","0.6","21.7","26.8","58.4","34.8","0"],
    [26856,"2013-05-29T19:00:00","43.2","ND","27.37","ND","ND","ND","0.5","341.3","25","69.3","0","10.92"],
    [26857,"2013-05-29T20:00:00","41.8","ND","19.83","ND","ND","ND","1.4","255.6","22.4","85.3","0","0.76"],
    [26858,"2013-05-29T21:00:00","27.1","ND","23.54","ND","ND","ND","0.5","159.6","22.8","86.5","0","0"],
    [26859,"2013-05-29T22:00:00","28.1","ND","25.46","ND","ND","ND","1.9","160.8","22.6","86.9","0","0.25"],
    [26860,"2013-05-29T23:00:00","16.1","ND","33.51","ND","ND","ND","1","174.7","22.5","87.4","0","0"],
    [26861,"2013-05-30T00:00:00","19.4","ND","25.58","ND","ND","ND","0.6","160.6","22.4","87.4","0","0"],
    [26862,"2013-05-30T01:00:00","11.5","ND","21.68","ND","ND","ND","0.3","317.9","22","90.9","0","0"],
    [26863,"2013-05-30T02:00:00","26.1","ND","22.82","ND","ND","ND","0.4","68.6","21.5","93.8","0","0"],
    [26864,"2013-05-30T03:00:00","34","ND","18.43","ND","ND","ND","0.1","154.3","21.3","95","0","0"],
    [26865,"2013-05-30T04:00:00","43.1","ND","18.43","ND","ND","ND","0.5","53.4","21.2","94.7","0","0"],
    [26866,"2013-05-30T05:00:00","27.1","ND","16.80","ND","ND","ND","0.2","344.3","20.7","96.2","0","0"],
    [26867,"2013-05-30T06:00:00","35","ND","13.92","ND","ND","ND","0.2","294.9","20.7","95.2","0","0"],
    [26868,"2013-05-30T07:00:00","37.6","ND","22.29","ND","ND","ND","0.5","43.1","20.7","93.6","9.3","0"],
    [26869,"2013-05-30T08:00:00","45.2","ND","24.80","ND","ND","ND","0.5","30.3","21.2","89.3","46.7","0"],
    [26870,"2013-05-30T09:00:00","53.4","ND","33.62","ND","ND","ND","0.7","41.6","22.2","87.7","175.1","0"],
    [26871,"2013-05-30T10:00:00","59.6","ND","28.83","ND","ND","ND","0.8","52.3","23.8","79.1","366.2","0"],
    [26872,"2013-05-30T11:00:00","31.3","ND","19.97","ND","ND","ND","0.3","134.3","25.6","70.1","548","0"],
    [26873,"2013-05-30T12:00:00","25.7","ND","19.49","ND","ND","ND","0.1","299.7","26.4","65.2","288.3","0"],
    [26874,"2013-05-30T13:00:00","20.2","ND","16.89","ND","ND","ND","0.4","19.6","26.9","64.2","287.5","0"],
    [26875,"2013-05-30T14:00:00","20.4","ND","20.66","ND","ND","ND","1.1","18.9","27.4","62.2","275.3","0"],
    [26876,"2013-05-30T15:00:00","12.7","ND","12.44","ND","ND","ND","1.3","322.5","28.3","57.2","559","0"],
    [26877,"2013-05-30T16:00:00","6.3","ND","8.21","ND","ND","ND","1.4","276.1","29.7","51","485.8","0"],
    [26878,"2013-05-30T17:00:00","4.4","ND","9.43","ND","ND","ND","1.6","290.5","28.4","52.4","212.8","0"],
    [26879,"2013-05-30T18:00:00","3.8","ND","15.50","ND","ND","ND","0.1","53.8","27.1","55","20.5","0"],
    [26880,"2013-05-30T19:00:00","2.6","ND","17.13","ND","ND","ND","0.1","240.7","26.4","57.3","0","0"],
    [26881,"2013-05-30T20:00:00","4.2","ND","18.99","ND","ND","ND","1.2","147.2","25.9","58.6","0","0"],
    [26882,"2013-05-30T21:00:00","8.5","ND","19.29","ND","ND","ND","2.9","180.7","22.8","77.5","0","0"],
    [26883,"2013-05-30T22:00:00","21.4","ND","25.82","ND","ND","ND","0.6","229.4","22.2","83","0","0"],
    [26884,"2013-05-30T23:00:00","11.9","ND","25.55","ND","ND","ND","0.3","244.6","22.1","82.9","0","0"],
    [26885,"2013-05-31T00:00:00","8.8","ND","21.75","ND","ND","ND","0.3","359.3","21.9","82.3","0","0"],
    [26886,"2013-05-31T01:00:00","5.4","ND","20.94","ND","ND","ND","0.5","3.4","21.3","89.1","0","0"],
    [26887,"2013-05-31T02:00:00","24.9","ND","19.18","ND","ND","ND","0.5","355.9","21.1","90.1","0","0"],
    [26888,"2013-05-31T03:00:00","13","ND","16.65","ND","ND","ND","0.1","202.6","21","91.8","0","0"],
    [26889,"2013-05-31T04:00:00","11.7","ND","17.03","ND","ND","ND","0.2","289.7","21.1","92.1","0","0.51"],
    [26890,"2013-05-31T05:00:00","13.4","ND","18.86","ND","ND","ND","0.7","43.4","20.7","94.4","0","0.51"],
    [26891,"2013-05-31T06:00:00","23.2","ND","17.93","ND","ND","ND","0.5","19.8","20.7","96","0","0"],
    [26892,"2013-05-31T07:00:00","32.7","ND","15.48","ND","ND","ND","0.5","349.1","20.6","96.8","10.9","0"],
    [26893,"2013-05-31T08:00:00","41.5","ND","19.60","ND","ND","ND","0.6","55.3","20.9","95.4","44.6","0"],
    [26894,"2013-05-31T09:00:00","22.3","ND","16.89","ND","ND","ND","1.3","61.9","21.4","92.4","90.1","0.25"],
    [26895,"2013-05-31T10:00:00","25.1","ND","17.40","ND","ND","ND","1","131.7","22","88.3","46.2","0"],
    [26896,"2013-05-31T11:00:00","14.5","ND","31.88","ND","ND","ND","1","213.7","21.8","89.5","38.7","0"],
    [26897,"2013-05-31T12:00:00","12.3","ND","31.00","ND","ND","ND","1.3","353","20.7","93.9","20.8","26.16"],
    [26898,"2013-05-31T13:00:00","7.6","ND","25.66","ND","ND","ND","0.5","65.9","20.4","97.9","187.7","6.6"],
    [26899,"2013-05-31T14:00:00","4.7","ND","15.06","ND","ND","ND","1.1","50.6","20.8","93.9","175","3.05"],
    [26900,"2013-05-31T15:00:00","2.3","ND","15.56","ND","ND","ND","1.1","25.2","22.2","85.8","475.7","0"],
    [26901,"2013-05-31T16:00:00","1.2","ND","9.12","ND","ND","ND","1.2","52.9","23.4","77.9","298.1","0"],
    [26902,"2013-05-31T17:00:00","1.5","ND","13.68","ND","ND","ND","1","114.2","24.8","68","256.6","0"],
    [26903,"2013-05-31T18:00:00","2.3","ND","20.56","ND","ND","ND","1.1","108.6","24.3","69.6","50.7","0"],
    [26904,"2013-05-31T19:00:00","10.1","ND","26.75","ND","ND","ND","0.4","215.6","23.6","73.6","0","0"],
    [26905,"2013-05-31T20:00:00","28.8","ND","34.52","ND","ND","ND","1.1","192.2","23","78.9","0","0"],
    [26906,"2013-05-31T21:00:00","29","ND","32.90","ND","ND","ND","2.3","166.4","22.6","81.4","0","0"],
    [26907,"2013-05-31T22:00:00","19.2","ND","26.12","ND","ND","ND","1.4","162.2","21.8","85.7","0","0"],
    [26908,"2013-05-31T23:00:00","33.3","ND","23.19","ND","ND","ND","1.2","148.5","21.5","87.3","0","1.78"],
    [26909,"2013-06-01T00:00:00","17.6","ND","18.99","ND","ND","ND","0.3","120.8","20.4","93.7","0","0.51"],
    [26910,"2013-06-01T01:00:00","14.7","ND","19.78","ND","ND","ND","0.5","21.8","20.3","94","0","0"],
    [26911,"2013-06-01T02:00:00","10","ND","10.64","ND","ND","ND","0.7","38.9","19.8","94.7","0","0"],
    [26912,"2013-06-01T03:00:00","6","ND","8.58","ND","ND","ND","0.6","17","19.6","94.4","0","0"],
    [26913,"2013-06-01T04:00:00","4","ND","11.27","ND","ND","ND","0.4","46.3","19.7","92.4","0","0"],
    [26914,"2013-06-01T05:00:00","4.6","ND","15.26","ND","ND","ND","0.1","351.1","19.7","92","0","0"],
    [26915,"2013-06-01T06:00:00","23.6","ND","14.71","ND","ND","ND","0.6","291.2","19.7","93.1","0","0"],
    [26916,"2013-06-01T07:00:00","18.1","ND","13.83","ND","ND","ND","0.5","225.9","19.6","94.1","40.1","0"],
    [26917,"2013-06-01T08:00:00","24.3","ND","20.53","ND","ND","ND","0.5","94.9","21.3","85.8","325.4","0"],
    [26918,"2013-06-01T09:00:00","12.9","ND","16.34","ND","ND","ND","0.5","29.2","22.2","79.2","302.5","0"],
    [26919,"2013-06-01T10:00:00","12.6","ND","18.24","ND","ND","ND","0.2","81.4","22.4","77.8","116.4","0"],
    [26920,"2013-06-01T11:00:00","10","ND","19.63","ND","ND","ND","0.3","108.3","24","70.5","541.5","0"],
    [26921,"2013-06-01T12:00:00","24.3","ND","20.91","ND","ND","ND","0.9","57.9","25.6","63","768.3","0"],
    [26922,"2013-06-01T13:00:00","14.8","ND","20.45","ND","ND","ND","0.7","69.7","26.6","59.2","544.3","0"],
    [26923,"2013-06-01T14:00:00","9.1","ND","15.61","ND","ND","ND","1.3","81.5","27.5","56.7","729.5","0"],
    [26924,"2013-06-01T15:00:00","9.8","ND","15.89","ND","ND","ND","0.9","41.1","28.1","55.2","600.4","0"],
    [26925,"2013-06-01T16:00:00","25.4","ND","21.27","ND","ND","ND","0.8","283.1","28.8","53.3","406.4","0"],
    [26926,"2013-06-01T17:00:00","27.2","ND","16.19","ND","ND","ND","1.8","328.2","28.3","55.2","260.8","0"],
    [26927,"2013-06-01T18:00:00","14.9","ND","13.81","ND","ND","ND","1.5","264","27.6","57.4","85.1","0"],
    [26928,"2013-06-01T19:00:00","16.4","ND","22.32","ND","ND","ND","1.5","254.5","26","61.6","6.9","0"],
    [26929,"2013-06-01T20:00:00","12.1","ND","26.39","ND","ND","ND","0.7","223.2","25.9","61.9","0","0"],
    [26930,"2013-06-01T21:00:00","8.1","ND","19.55","ND","ND","ND","2.6","224.5","23.8","70.7","0","0"],
    [26931,"2013-06-01T22:00:00","6","ND","25.38","ND","ND","ND","0.6","193.5","24","66","0","0"],
    [26932,"2013-06-01T23:00:00","3.8","ND","39.48","ND","ND","ND","0.4","223.1","23.3","71.6","0","0"],
    [26933,"2013-06-02T00:00:00","30.8","ND","30.88","ND","ND","ND","1.7","174.7","22.6","78.5","0","0"],
    [26934,"2013-06-02T01:00:00","17.8","ND","22.25","ND","ND","ND","1","223.6","22.1","81.4","0","0"],
    [26935,"2013-06-02T02:00:00","10.6","ND","20.27","ND","ND","ND","0.2","310.9","22","80.3","0","0"],
    [26936,"2013-06-02T03:00:00","6.1","ND","21.26","ND","ND","ND","0.3","268.5","21.8","82.4","0","0"],
    [26937,"2013-06-02T04:00:00","21.6","ND","21.71","ND","ND","ND","0.1","73","21.8","84.3","0","0"],
    [26938,"2013-06-02T05:00:00","23.9","ND","20.75","ND","ND","ND","0.1","237.7","21.4","87.1","0","0"],
    [26939,"2013-06-02T06:00:00","21.4","ND","16.97","ND","ND","ND","0.3","324.3","20.7","88.1","0","0"],
    [26940,"2013-06-02T07:00:00","18.5","ND","16.22","ND","ND","ND","0.1","337.7","20.7","87.5","53.1","0"],
    [26941,"2013-06-02T08:00:00","33.7","ND","18.77","ND","ND","ND","0.2","22.1","22.5","80.6","215.1","0"],
    [26942,"2013-06-02T09:00:00","17.5","ND","19.80","ND","ND","ND","0.8","45","23.7","76.6","457.2","0"],
    [26943,"2013-06-02T10:00:00","17.5","ND","16.57","ND","ND","ND","1","88.8","25","68.8","570.5","0"],
    [26944,"2013-06-02T11:00:00","13.4","ND","11.46","ND","ND","ND","1.2","45.2","26.1","65.1","757.6","0"],
    [26945,"2013-06-02T12:00:00","8.8","ND","8.22","ND","ND","ND","1.7","44.3","26.8","61.9","772.2","0"],
    [26946,"2013-06-02T13:00:00","5.1","ND","6.44","ND","ND","ND","1.5","46.9","27.6","57.8","723","0"],
    [26947,"2013-06-02T14:00:00","3.7","ND","7.78","ND","ND","ND","1.2","39.6","28.8","52.8","746.3","0"],
    [26948,"2013-06-02T15:00:00","4.2","ND","6.50","ND","ND","ND","1.3","31.5","29.6","49.8","672.7","0"],
    [26949,"2013-06-02T16:00:00","4.6","ND","9.35","ND","ND","ND","1.4","37.2","29.5","52.4","413.4","0"],
    [26950,"2013-06-02T17:00:00","3","ND","11.59","ND","ND","ND","1.3","38.1","29.6","53","271.1","0"],
    [26951,"2013-06-02T18:00:00","17.6","ND","17.68","ND","ND","ND","1.2","357.1","28.8","55.2","70.6","0"],
    [26952,"2013-06-02T19:00:00","10.6","ND","15.35","ND","ND","ND","0.3","279.7","27.2","61.2","0","0"],
    [26953,"2013-06-02T20:00:00","22.7","ND","25.07","ND","ND","ND","1.1","263.6","26.2","63.9","0","0"],
    [26954,"2013-06-02T21:00:00","12","ND","33.38","ND","ND","ND","0.5","233.5","25.7","65.7","0","0"],
    [26955,"2013-06-02T22:00:00","21.3","ND","29.37","ND","ND","ND","0.3","101.7","24.5","72.3","0","0"],
    [26956,"2013-06-02T23:00:00","17.9","ND","23.19","ND","ND","ND","0.6","185.8","23.6","77.9","0","0"],
    [26957,"2013-06-03T00:00:00","26.1","ND","24.38","ND","ND","ND","0.2","130.3","23.1","79.3","0","0"],
    [26958,"2013-06-03T01:00:00","17.5","ND","21.07","ND","ND","ND","0","343.3","22.6","82.1","0","0"],
    [26959,"2013-06-03T02:00:00","28.5","ND","20.08","ND","ND","ND","0.2","217.1","22.5","82.5","0","0"],
    [26960,"2013-06-03T03:00:00","18.9","ND","19.78","ND","ND","ND","0.4","23","22.2","84","0","0"],
    [26961,"2013-06-03T04:00:00","32.9","ND","17.78","ND","ND","ND","0.3","114.2","21.9","84.5","0","0"],
    [26962,"2013-06-03T05:00:00","29.7","ND","15.79","ND","ND","ND","0.3","45.1","21.6","86.3","0","0"],
    [26963,"2013-06-03T06:00:00","43.4","ND","16.78","ND","ND","ND","0.3","337.4","21.3","88.2","0","0"],
    [26964,"2013-06-03T07:00:00","28.5","ND","16.64","ND","ND","ND","0.2","309.9","21.9","86.1","32.1","0"],
    [26965,"2013-06-03T08:00:00","21.4","ND","27.05","ND","ND","ND","0.5","55.8","23.6","78.9","222.3","0"],
    [26966,"2013-06-03T09:00:00","41.5","ND","34.37","ND","ND","ND","1.4","152.2","24.8","73.2","425.4","0"],
    [26967,"2013-06-03T10:00:00","21.9","ND","16.56","ND","ND","ND","0.8","108.1","26.1","66.5","518.8","0"],
    [26968,"2013-06-03T11:00:00","10.9","ND","14.01","ND","ND","ND","0.7","117.6","27.4","61.8","531.3","0"],
    [26969,"2013-06-03T12:00:00","5.5","ND","13.24","ND","ND","ND","1","107.1","27.9","60.9","533.6","0"],
    [26970,"2013-06-03T13:00:00","15.3","ND","11.65","ND","ND","ND","0.7","205.4","28.6","57.9","628.1","0"],
    [26971,"2013-06-03T14:00:00","8.5","ND","9.85","ND","ND","ND","1.1","144.5","30.2","51.5","718.3","0"],
    [26972,"2013-06-03T15:00:00","5.2","ND","9.51","ND","ND","ND","1.2","55.2","30.9","49.1","639.7","0"],
    [26973,"2013-06-03T16:00:00","23.4","ND","11.40","ND","ND","ND","1.8","59.7","30.2","50.4","290.4","0"],
    [26974,"2013-06-03T17:00:00","14","ND","5.73","ND","ND","ND","1.3","32.8","30.1","49.5","217.2","0"],
    [26975,"2013-06-03T18:00:00","9","ND","9.08","ND","ND","ND","0.7","8.1","29.4","53.4","77.6","0"],
    [26976,"2013-06-03T19:00:00","11.6","ND","27.27","ND","ND","ND","1.5","263.9","27.9","60","0","0"],
    [26977,"2013-06-03T20:00:00","36.1","ND","46.38","ND","ND","ND","0.3","293.3","26.8","66.4","0","0"],
    [26978,"2013-06-03T21:00:00","35.3","ND","49.01","ND","ND","ND","0.4","240.1","26.5","67.6","0","0"],
    [26979,"2013-06-03T22:00:00","38.1","ND","46.01","ND","ND","ND","0.5","354.4","26.1","68.9","0","0"],
    [26980,"2013-06-03T23:00:00","29.6","ND","36.24","ND","ND","ND","0.1","112.7","25.5","72.4","0","0"],
    [26981,"2013-06-04T00:00:00","34.4","ND","29.51","ND","ND","ND","0.2","107.9","25","75.2","0","0"],
    [26982,"2013-06-04T01:00:00","18.7","ND","23.58","ND","ND","ND","0.1","267.4","24.5","77.8","0","0"],
    [26983,"2013-06-04T02:00:00","23.3","ND","21.41","ND","ND","ND","0.4","67","24.2","78.5","0","0"],
    [26984,"2013-06-04T03:00:00","18.6","ND","15.44","ND","ND","ND","0.2","81.8","23.8","79.3","0","0"],
    [26985,"2013-06-04T04:00:00","30","ND","15.47","ND","ND","ND","0.4","251.7","23","83.5","0","0"],
    [26986,"2013-06-04T05:00:00","22.7","ND","12.91","ND","ND","ND","0.4","254.9","22.7","84.3","0","0"],
    [26987,"2013-06-04T06:00:00","22.4","ND","17.08","ND","ND","ND","0.5","355.1","22.3","84.7","0","0"],
    [26988,"2013-06-04T07:00:00","51.2","ND","21.94","ND","ND","ND","0.4","333.6","22","86","40.1","0"],
    [26989,"2013-06-04T08:00:00","53.7","ND","31.68","ND","ND","ND","0.2","29.7","23.4","80","119.3","0"],
    [26990,"2013-06-04T09:00:00","63.2","ND","51.65","ND","ND","ND","0.6","122.6","24.7","74","281.2","0"],
    [26991,"2013-06-04T10:00:00","51.1","ND","40.22","ND","ND","ND","0.8","121.1","25.9","69","388.1","0"],
    [26992,"2013-06-04T11:00:00","41.7","ND","30.44","ND","ND","ND","1.2","107.8","27.3","63.3","614.3","0"],
    [26993,"2013-06-04T12:00:00","32.4","ND","17.67","ND","ND","ND","0.9","133.9","28.2","56.9","543.7","0"],
    [26994,"2013-06-04T13:00:00","20.4","ND","15.96","ND","ND","ND","1.3","67.9","28.7","56.3","482.1","0"],
    [26995,"2013-06-04T14:00:00","27.7","ND","19.96","ND","ND","ND","1.3","48.1","28.6","57.4","456","0"],
    [26996,"2013-06-04T15:00:00","16.1","ND","17.45","ND","ND","ND","1.4","29.8","28.7","57.2","284.6","0"],
    [26997,"2013-06-04T16:00:00","9.8","ND","14.02","ND","ND","ND","1.4","40.8","28.9","55.2","407.7","0"],
    [26998,"2013-06-04T17:00:00","16.7","ND","18.94","ND","ND","ND","0.9","259.3","30","52.1","228.9","0"],
    [26999,"2013-06-04T18:00:00","25.8","ND","19.68","ND","ND","ND","0.8","264.8","28.5","53.2","23.9","0"],
    [27000,"2013-06-04T19:00:00","15.4","ND","31.68","ND","ND","ND","0.1","57.4","27.5","56.2","0","0"],
    [27001,"2013-06-04T20:00:00","37.6","ND","36.84","ND","ND","ND","1","252","27","57.6","0","0"],
    [27002,"2013-06-04T21:00:00","61.5","ND","39.86","ND","ND","ND","0.9","105.5","26.6","60.8","0","0"],
    [27003,"2013-06-04T22:00:00","48.7","ND","27.27","ND","ND","ND","0.2","121.3","25.2","69.7","0","0"],
    [27004,"2013-06-04T23:00:00","46.3","ND","27.38","ND","ND","ND","0.1","265.3","24.7","73.2","0","0"],
    [27005,"2013-06-05T00:00:00","52.4","ND","24.30","ND","ND","ND","0.4","25.7","24.4","73.7","0","0"],
    [27006,"2013-06-05T01:00:00","30.5","ND","18.88","ND","ND","ND","0.2","225.3","23.9","75.3","0","0"],
    [27007,"2013-06-05T02:00:00","37.3","ND","22.27","ND","ND","ND","0.3","52.9","23.8","75.9","0","0"],
    [27008,"2013-06-05T03:00:00","19.6","ND","18.31","ND","ND","ND","0.3","94.8","23.3","78.5","0","0"],
    [27009,"2013-06-05T04:00:00","29.9","ND","15.71","ND","ND","ND","1.7","162","23.3","78","0","0"],
    [27010,"2013-06-05T05:00:00","17.2","ND","11.42","ND","ND","ND","0.8","163.1","22.3","86.8","0","0"],
    [27011,"2013-06-05T06:00:00","32.6","ND","14.83","ND","ND","ND","0.1","241.9","21.8","90.8","0","0"],
    [27012,"2013-06-05T07:00:00","41.2","ND","17.77","ND","ND","ND","0.7","250.3","21.7","91.4","47.8","0"],
    [27013,"2013-06-05T08:00:00","41.9","ND","31.41","ND","ND","ND","1.2","164.1","23.2","83.9","201.9","0"],
    [27014,"2013-06-05T09:00:00","39.5","ND","48.49","ND","ND","ND","0.6","76.7","24.6","74.9","240.8","0"],
    [27015,"2013-06-05T10:00:00","29.2","ND","28.38","ND","ND","ND","1.3","34.8","25.4","70.6","402.5","0"],
    [27016,"2013-06-05T11:00:00","21.8","ND","13.68","ND","ND","ND","1.1","91.1","27.3","61.7","742.7","0"],
    [27017,"2013-06-05T12:00:00","21.5","ND","15.40","ND","ND","ND","0.6","135.2","28.2","57.3","540.3","0"],
    [27018,"2013-06-05T13:00:00","ND","ND","ND","ND","ND","ND","ND","ND","ND","ND","ND","ND"],
    [27019,"2013-06-05T14:00:00","ND","ND","ND","ND","ND","ND","ND","ND","ND","ND","ND","ND"],
    [27020,"2013-06-05T15:00:00","ND","ND","ND","ND","ND","ND","ND","ND","ND","ND","ND","ND"],
    [27021,"2013-06-05T16:00:00","ND","ND","ND","ND","ND","ND","ND","ND","ND","ND","ND","ND"],
    [27022,"2013-06-05T17:00:00","ND","ND","ND","ND","ND","ND","ND","ND","ND","ND","ND","ND"],
    [27023,"2013-06-05T18:00:00","ND","ND","ND","ND","ND","ND","ND","ND","ND","ND","ND","ND"],
    [27024,"2013-06-05T19:00:00","ND","ND","ND","ND","ND","ND","ND","ND","ND","ND","ND","ND"],
    [27025,"2013-06-05T20:00:00","ND","ND","ND","ND","ND","ND","ND","ND","ND","ND","ND","ND"],
    [27026,"2013-06-05T21:00:00","ND","ND","ND","ND","ND","ND","ND","ND","ND","ND","ND","ND"],
    [27027,"2013-06-05T22:00:00","3.7","ND","30.27","ND","ND","ND","0.7","91.2","24.3","69.6","0","0"],
    [27028,"2013-06-05T23:00:00","30.6","ND","20.78","ND","ND","ND","0.3","166.7","23.5","74.6","0","0"],
    [27029,"2013-06-06T00:00:00","56.3","ND","19.99","ND","ND","ND","0.7","178.2","23.4","75.1","0","0"],
    [27030,"2013-06-06T01:00:00","29.9","ND","18.55","ND","ND","ND","0.5","163.9","22.9","76.6","0","0"],
    [27031,"2013-06-06T02:00:00","25.1","ND","17.25","ND","ND","ND","0.2","220","22.7","77.7","0","0"],
    [27032,"2013-06-06T03:00:00","14.7","ND","15.58","ND","ND","ND","0.1","274.9","22.2","80.1","0","0"],
    [27033,"2013-06-06T04:00:00","9.4","ND","14.43","ND","ND","ND","0.4","30.9","22","81.8","0","0"],
    [27034,"2013-06-06T05:00:00","12.8","ND","15.06","ND","ND","ND","0.2","156.3","21.9","82.2","0","0"],
    [27035,"2013-06-06T06:00:00","25.7","ND","15.84","ND","ND","ND","0.2","41","21.9","82.7","0","0"],
    [27036,"2013-06-06T07:00:00","36","ND","21.15","ND","ND","ND","0.7","48.4","21.3","83.8","45.9","0"],
    [27037,"2013-06-06T08:00:00","61.3","ND","33.75","ND","ND","ND","0.2","11.5","22.2","82","93.9","0"],
    [27038,"2013-06-06T09:00:00","83.2","ND","48.42","ND","ND","ND","0.5","89.7","23.5","76.5","284.3","0"],
    [27039,"2013-06-06T10:00:00","71.1","ND","44.56","ND","ND","ND","1","49.3","25.6","68.1","579","0"],
    [27040,"2013-06-06T11:00:00","56.2","ND","25.94","ND","ND","ND","1.3","46.2","27","60.4","678.7","0"],
    [27041,"2013-06-06T12:00:00","37.2","ND","14.31","ND","ND","ND","0.8","4.7","27.6","56.1","530.5","0"],
    [27042,"2013-06-06T13:00:00","19.5","ND","20.88","ND","ND","ND","0.5","70.4","28.4","53.7","387.2","0"],
    [27043,"2013-06-06T14:00:00","21.4","ND","13.41","ND","ND","ND","0.8","48.3","28.4","54.9","434.7","0"],
    [27044,"2013-06-06T15:00:00","13.3","ND","15.06","ND","ND","ND","0.6","102.6","29","52.3","424.2","0"],
    [27045,"2013-06-06T16:00:00","26","ND","19.98","ND","ND","ND","1.2","46.4","28.7","54.5","170.7","0"],
    [27046,"2013-06-06T17:00:00","18.9","ND","18.99","ND","ND","ND","1","349.4","28.4","54.1","142.1","0"],
    [27047,"2013-06-06T18:00:00","27.7","ND","22.60","ND","ND","ND","1.3","261.2","28.2","54.8","44.9","0"],
    [27048,"2013-06-06T19:00:00","15.4","ND","30.26","ND","ND","ND","0.8","259.8","27.2","57.1","0","0"],
    [27049,"2013-06-06T20:00:00","26","ND","36.75","ND","ND","ND","0.7","259.4","26.4","59","0","0"],
    [27050,"2013-06-06T21:00:00","20.4","ND","38.52","ND","ND","ND","0.2","234.9","25.9","61.3","0","0"],
    [27051,"2013-06-06T22:00:00","33.3","ND","37.73","ND","ND","ND","0.8","111.7","25.8","63.7","0","0"],
    [27052,"2013-06-06T23:00:00","67.4","ND","26.50","ND","ND","ND","0.4","83.1","24.4","72.3","0","0"],
    [27053,"2013-06-07T00:00:00","61.1","ND","26.32","ND","ND","ND","0.5","209","23.8","74.3","0","0"],
    [27054,"2013-06-07T01:00:00","68.4","ND","26.07","ND","ND","ND","0.2","260.9","23.8","74.1","0","0"],
    [27055,"2013-06-07T02:00:00","51.8","ND","20.53","ND","ND","ND","0.3","27.9","22.8","80","0","0"],
    [27056,"2013-06-07T03:00:00","48.3","ND","19.51","ND","ND","ND","0.3","30.8","23.2","78.9","0","0"],
    [27057,"2013-06-07T04:00:00","49.4","ND","19.42","ND","ND","ND","0.4","13.7","22.5","81.8","0","0"],
    [27058,"2013-06-07T05:00:00","26.2","ND","16.99","ND","ND","ND","0.2","285.5","22","82.9","0","0"],
    [27059,"2013-06-07T06:00:00","36.9","ND","18.44","ND","ND","ND","0.6","13.6","21.7","85","0","0"],
    [27060,"2013-06-07T07:00:00","29.9","ND","22.25","ND","ND","ND","0.4","356.9","21.8","84.5","11.1","0"],
    [27061,"2013-06-07T08:00:00","51.4","ND","29.00","ND","ND","ND","0.2","192.5","22.8","80.1","65.9","0"],
    [27062,"2013-06-07T09:00:00","48.5","ND","40.86","ND","ND","ND","0.6","200.2","24.5","72","269.9","0"],
    [27063,"2013-06-07T10:00:00","53.9","ND","48.60","ND","ND","ND","0.8","42.3","26.1","66.2","586","0"],
    [27064,"2013-06-07T11:00:00","38.3","ND","20.84","ND","ND","ND","1.8","43.8","26.5","64.1","498.1","0"],
    [27065,"2013-06-07T12:00:00","36.9","ND","15.13","ND","ND","ND","1.4","46.6","26.9","63.7","476.6","0"],
    [27066,"2013-06-07T13:00:00","41.3","ND","29.19","ND","ND","ND","1.8","47.1","27.7","62","520.3","0"],
    [27067,"2013-06-07T14:00:00","50.7","ND","17.52","ND","ND","ND","2","38.5","28.6","59","566.3","0"],
    [27068,"2013-06-07T15:00:00","33.1","ND","14.01","ND","ND","ND","1.9","47.5","28.5","58.8","258.2","0"],
    [27069,"2013-06-07T16:00:00","30.5","ND","16.54","ND","ND","ND","1.9","72.7","28.5","59.2","173.3","0"],
    [27070,"2013-06-07T17:00:00","16","ND","19.33","ND","ND","ND","0.6","288.8","28.4","56","110.7","0"],
    [27071,"2013-06-07T18:00:00","20.9","ND","23.59","ND","ND","ND","1.1","263.1","28.3","54.9","39.2","0"],
    [27072,"2013-06-07T19:00:00","23.2","ND","22.06","ND","ND","ND","0.9","253","27.4","57.5","0","0"],
    [27073,"2013-06-07T20:00:00","31.5","ND","31.47","ND","ND","ND","0.5","262.4","26.4","60.5","0","0"],
    [27074,"2013-06-07T21:00:00","32.3","ND","32.59","ND","ND","ND","0.2","279.9","25.2","67.1","0","0"],
    [27075,"2013-06-07T22:00:00","47.8","ND","31.21","ND","ND","ND","0.4","294.6","24.5","70.1","0","0"],
    [27076,"2013-06-07T23:00:00","46.7","ND","29.10","ND","ND","ND","0.2","271.4","24","71.2","0","0"],
    [27077,"2013-06-08T00:00:00","39.3","ND","28.41","ND","ND","ND","0.3","307.1","23.7","73.6","0","0"],
    [27078,"2013-06-08T01:00:00","30.1","ND","25.55","ND","ND","ND","0.1","319.6","23.4","75.8","0","0"],
    [27079,"2013-06-08T02:00:00","50.9","ND","24.34","ND","ND","ND","0.4","358.3","23.3","76","0","0"],
    [27080,"2013-06-08T03:00:00","41.4","ND","21.64","ND","ND","ND","0.2","61.3","22.9","78.3","0","0"],
    [27081,"2013-06-08T04:00:00","55.1","ND","20.53","ND","ND","ND","0.2","292.2","22.3","81.2","0","0"],
    [27082,"2013-06-08T05:00:00","37.2","ND","23.20","ND","ND","ND","0.6","356.2","22.1","82.3","0","0"],
    [27083,"2013-06-08T06:00:00","62","ND","22.75","ND","ND","ND","0.3","162","21.8","85.8","0","0"],
    [27084,"2013-06-08T07:00:00","43.4","ND","25.40","ND","ND","ND","0.2","290.6","21.9","85.3","43.1","0"],
    [27085,"2013-06-08T08:00:00","71","ND","41.18","ND","ND","ND","0.7","58","23.7","78.3","207.6","0"],
    [27086,"2013-06-08T09:00:00","71.1","ND","42.95","ND","ND","ND","1.1","36.8","24.4","75.1","318.6","0"],
    [27087,"2013-06-08T10:00:00","65.1","ND","32.12","ND","ND","ND","0.5","71.6","26.3","66.2","566.6","0"],
    [27088,"2013-06-08T11:00:00","34.3","ND","24.03","ND","ND","ND","1.2","47.1","27.3","63.5","568.9","0"],
    [27089,"2013-06-08T12:00:00","47.7","ND","13.43","ND","ND","ND","1.3","39.8","28.5","58.4","790.8","0"],
    [27090,"2013-06-08T13:00:00","ND","ND","ND","ND","ND","ND","ND","ND","ND","ND","ND","ND"],
    [27091,"2013-06-08T14:00:00","ND","ND","ND","ND","ND","ND","ND","ND","ND","ND","ND","ND"],
    [27092,"2013-06-08T15:00:00","ND","ND","ND","ND","ND","ND","ND","ND","ND","ND","ND","ND"],
    [27093,"2013-06-08T16:00:00","ND","ND","ND","ND","ND","ND","ND","ND","ND","ND","ND","ND"],
    [27094,"2013-06-08T17:00:00","ND","ND","ND","ND","ND","ND","ND","ND","ND","ND","ND","ND"],
    [27095,"2013-06-08T18:00:00","ND","ND","ND","ND","ND","ND","ND","ND","ND","ND","ND","ND"],
    [27096,"2013-06-08T19:00:00","ND","ND","ND","ND","ND","ND","ND","ND","ND","ND","ND","ND"],
    [27097,"2013-06-08T20:00:00","ND","ND","ND","ND","ND","ND","ND","ND","ND","ND","ND","ND"],
    [27098,"2013-06-08T21:00:00","ND","ND","ND","ND","ND","ND","ND","ND","ND","ND","ND","ND"],
    [27099,"2013-06-08T22:00:00","ND","ND","ND","ND","ND","ND","ND","ND","ND","ND","ND","ND"],
    [27100,"2013-06-08T23:00:00","ND","ND","ND","ND","ND","ND","ND","ND","ND","ND","ND","ND"],
    [27101,"2013-06-09T00:00:00","ND","ND","ND","ND","ND","ND","ND","ND","ND","ND","ND","ND"],
    [27102,"2013-06-09T01:00:00","ND","ND","ND","ND","ND","ND","ND","ND","ND","ND","ND","ND"],
    [27103,"2013-06-09T02:00:00","ND","ND","ND","ND","ND","ND","ND","ND","ND","ND","ND","ND"],
    [27104,"2013-06-09T03:00:00","ND","ND","ND","ND","ND","ND","ND","ND","ND","ND","ND","ND"],
    [27105,"2013-06-09T04:00:00","ND","ND","ND","ND","ND","ND","ND","ND","ND","ND","ND","ND"],
    [27106,"2013-06-09T05:00:00","ND","ND","ND","ND","ND","ND","ND","ND","ND","ND","ND","ND"],
    [27107,"2013-06-09T06:00:00","ND","ND","ND","ND","ND","ND","ND","ND","ND","ND","ND","ND"],
    [27108,"2013-06-09T07:00:00","ND","ND","ND","ND","ND","ND","ND","ND","ND","ND","ND","ND"],
    [27109,"2013-06-09T08:00:00","ND","ND","ND","ND","ND","ND","ND","ND","ND","ND","ND","ND"],
    [27110,"2013-06-09T09:00:00","ND","ND","ND","ND","ND","ND","ND","ND","ND","ND","ND","ND"],
    [27111,"2013-06-09T10:00:00","ND","ND","ND","ND","ND","ND","ND","ND","ND","ND","ND","ND"],
    [27112,"2013-06-09T11:00:00","ND","ND","ND","ND","ND","ND","ND","ND","ND","ND","ND","ND"],
    [27113,"2013-06-09T12:00:00","ND","ND","ND","ND","ND","ND","ND","ND","ND","ND","ND","ND"],
    [27114,"2013-06-09T13:00:00","ND","ND","ND","ND","ND","ND","ND","ND","ND","ND","ND","ND"],
    [27115,"2013-06-09T14:00:00","ND","ND","ND","ND","ND","ND","ND","ND","ND","ND","ND","ND"],
    [27116,"2013-06-09T15:00:00","ND","ND","ND","ND","ND","ND","ND","ND","ND","ND","ND","ND"],
    [27117,"2013-06-09T16:00:00","ND","ND","ND","ND","ND","ND","ND","ND","ND","ND","ND","ND"],
    [27118,"2013-06-09T17:00:00","ND","ND","ND","ND","ND","ND","ND","ND","ND","ND","ND","ND"],
    [27119,"2013-06-09T18:00:00","ND","ND","ND","ND","ND","ND","ND","ND","ND","ND","ND","ND"],
    [27120,"2013-06-09T19:00:00","ND","ND","ND","ND","ND","ND","ND","ND","ND","ND","ND","ND"],
    [27121,"2013-06-09T20:00:00","ND","ND","ND","ND","ND","ND","ND","ND","ND","ND","ND","ND"],
    [27122,"2013-06-09T21:00:00","ND","ND","ND","ND","ND","ND","ND","ND","ND","ND","ND","ND"],
    [27123,"2013-06-09T22:00:00","ND","ND","ND","ND","ND","ND","ND","ND","ND","ND","ND","ND"],
    [27124,"2013-06-09T23:00:00","ND","ND","ND","ND","ND","ND","ND","ND","ND","ND","ND","ND"],
    [27125,"2013-06-10T00:00:00","ND","ND","ND","ND","ND","ND","ND","ND","ND","ND","ND","ND"],
    [27126,"2013-06-10T01:00:00","ND","ND","ND","ND","ND","ND","ND","ND","ND","ND","ND","ND"],
    [27127,"2013-06-10T02:00:00","ND","ND","ND","ND","ND","ND","ND","ND","ND","ND","ND","ND"],
    [27128,"2013-06-10T03:00:00","ND","ND","ND","ND","ND","ND","ND","ND","ND","ND","ND","ND"],
    [27129,"2013-06-10T04:00:00","ND","ND","ND","ND","ND","ND","ND","ND","ND","ND","ND","ND"],
    [27130,"2013-06-10T05:00:00","ND","ND","ND","ND","ND","ND","ND","ND","ND","ND","ND","ND"],
    [27131,"2013-06-10T06:00:00","ND","ND","ND","ND","ND","ND","ND","ND","ND","ND","ND","ND"],
    [27132,"2013-06-10T07:00:00","ND","ND","ND","ND","ND","ND","ND","ND","ND","ND","ND","ND"],
    [27133,"2013-06-10T08:00:00","ND","ND","ND","ND","ND","ND","ND","ND","ND","ND","ND","ND"],
    [27134,"2013-06-10T09:00:00","ND","ND","ND","ND","ND","ND","ND","ND","ND","ND","ND","ND"],
    [27135,"2013-06-10T10:00:00","ND","ND","ND","ND","ND","ND","ND","ND","ND","ND","ND","ND"],
    [27136,"2013-06-10T11:00:00","ND","ND","ND","ND","ND","ND","ND","ND","ND","ND","ND","ND"],
    [27137,"2013-06-10T12:00:00","ND","ND","ND","ND","ND","ND","ND","ND","ND","ND","ND","ND"],
    [27138,"2013-06-10T13:00:00","ND","ND","ND","ND","ND","ND","ND","ND","ND","ND","ND","ND"],
    [27139,"2013-06-10T14:00:00","ND","ND","ND","ND","ND","ND","ND","ND","ND","ND","ND","ND"],
    [27140,"2013-06-10T15:00:00","ND","ND","ND","ND","ND","ND","ND","ND","ND","ND","ND","ND"],
    [27141,"2013-06-10T16:00:00","ND","ND","ND","ND","ND","ND","ND","ND","ND","ND","ND","ND"],
    [27142,"2013-06-10T17:00:00","ND","ND","ND","ND","ND","ND","ND","ND","ND","ND","ND","ND"],
    [27143,"2013-06-10T18:00:00","ND","ND","ND","ND","ND","ND","ND","ND","ND","ND","ND","ND"],
    [27144,"2013-06-10T19:00:00","ND","ND","ND","ND","ND","ND","ND","ND","ND","ND","ND","ND"],
    [27145,"2013-06-10T20:00:00","ND","ND","ND","ND","ND","ND","ND","ND","ND","ND","ND","ND"],
    [27146,"2013-06-10T21:00:00","ND","ND","ND","ND","ND","ND","ND","ND","ND","ND","ND","ND"],
    [27147,"2013-06-10T22:00:00","ND","ND","ND","ND","ND","ND","ND","ND","ND","ND","ND","ND"],
    [27148,"2013-06-10T23:00:00","ND","ND","ND","ND","ND","ND","ND","ND","ND","ND","ND","ND"],
    [27149,"2013-06-11T00:00:00","ND","ND","ND","ND","ND","ND","ND","ND","ND","ND","ND","ND"],
    [27150,"2013-06-11T01:00:00","ND","ND","ND","ND","ND","ND","ND","ND","ND","ND","ND","ND"],
    [27151,"2013-06-11T02:00:00","ND","ND","ND","ND","ND","ND","ND","ND","ND","ND","ND","ND"],
    [27152,"2013-06-11T03:00:00","ND","ND","ND","ND","ND","ND","ND","ND","ND","ND","ND","ND"],
    [27153,"2013-06-11T04:00:00","ND","ND","ND","ND","ND","ND","ND","ND","ND","ND","ND","ND"],
    [27154,"2013-06-11T05:00:00","ND","ND","ND","ND","ND","ND","ND","ND","ND","ND","ND","ND"],
    [27155,"2013-06-11T06:00:00","ND","ND","ND","ND","ND","ND","ND","ND","ND","ND","ND","ND"],
    [27156,"2013-06-11T07:00:00","ND","ND","ND","ND","ND","ND","ND","ND","ND","ND","ND","ND"],
    [27157,"2013-06-11T08:00:00","ND","ND","ND","ND","ND","ND","ND","ND","ND","ND","ND","ND"],
    [27158,"2013-06-11T09:00:00","ND","ND","ND","ND","ND","ND","ND","ND","ND","ND","ND","ND"],
    [27159,"2013-06-11T10:00:00","ND","ND","ND","ND","ND","ND","ND","ND","ND","ND","ND","ND"],
    [27160,"2013-06-11T11:00:00","ND","ND","ND","ND","ND","ND","ND","ND","ND","ND","ND","ND"],
    [27161,"2013-06-11T12:00:00","ND","ND","ND","ND","ND","ND","ND","ND","ND","ND","ND","ND"],
    [27162,"2013-06-11T13:00:00","ND","ND","ND","ND","ND","ND","ND","ND","ND","ND","ND","ND"],
    [27163,"2013-06-11T14:00:00","ND","ND","ND","ND","ND","ND","ND","ND","ND","ND","ND","ND"],
    [27164,"2013-06-11T15:00:00","ND","ND","ND","ND","ND","ND","ND","ND","ND","ND","ND","ND"],
    [27165,"2013-06-11T16:00:00","ND","ND","ND","ND","ND","ND","ND","ND","ND","ND","ND","ND"],
    [27166,"2013-06-11T17:00:00","ND","ND","ND","ND","ND","ND","ND","ND","ND","ND","ND","ND"],
    [27167,"2013-06-11T18:00:00","ND","ND","ND","ND","ND","ND","ND","ND","ND","ND","ND","ND"],
    [27168,"2013-06-11T19:00:00","ND","ND","ND","ND","ND","ND","ND","ND","ND","ND","ND","ND"],
    [27169,"2013-06-11T20:00:00","ND","ND","ND","ND","ND","ND","ND","ND","ND","ND","ND","ND"],
    [27170,"2013-06-11T21:00:00","ND","ND","ND","ND","ND","ND","ND","ND","ND","ND","ND","ND"],
    [27171,"2013-06-11T22:00:00","ND","ND","ND","ND","ND","ND","ND","ND","ND","ND","ND","ND"],
    [27172,"2013-06-11T23:00:00","ND","ND","ND","ND","ND","ND","ND","ND","ND","ND","ND","ND"],
    [27173,"2013-06-12T00:00:00","ND","ND","ND","ND","ND","ND","ND","ND","ND","ND","ND","ND"],
    [27174,"2013-06-12T01:00:00","ND","ND","ND","ND","ND","ND","ND","ND","ND","ND","ND","ND"],
    [27175,"2013-06-12T02:00:00","ND","ND","ND","ND","ND","ND","ND","ND","ND","ND","ND","ND"],
    [27176,"2013-06-12T03:00:00","ND","ND","ND","ND","ND","ND","ND","ND","ND","ND","ND","ND"],
    [27177,"2013-06-12T04:00:00","ND","ND","ND","ND","ND","ND","ND","ND","ND","ND","ND","ND"],
    [27178,"2013-06-12T05:00:00","ND","ND","ND","ND","ND","ND","ND","ND","ND","ND","ND","ND"],
    [27179,"2013-06-12T06:00:00","ND","ND","ND","ND","ND","ND","ND","ND","ND","ND","ND","ND"],
    [27180,"2013-06-12T07:00:00","ND","ND","ND","ND","ND","ND","ND","ND","ND","ND","ND","ND"],
    [27181,"2013-06-12T08:00:00","ND","ND","ND","ND","ND","ND","ND","ND","ND","ND","ND","ND"],
    [27182,"2013-06-12T09:00:00","ND","ND","ND","ND","ND","ND","ND","ND","ND","ND","ND","ND"],
    [27183,"2013-06-12T10:00:00","ND","ND","ND","ND","ND","ND","ND","ND","ND","ND","ND","ND"],
    [27184,"2013-06-12T11:00:00","ND","ND","ND","ND","ND","ND","ND","ND","ND","ND","ND","ND"],
    [27185,"2013-06-12T12:00:00","ND","ND","ND","ND","ND","ND","ND","ND","ND","ND","ND","ND"],
    [27186,"2013-06-12T13:00:00","ND","ND","ND","ND","ND","ND","ND","ND","ND","ND","ND","ND"],
    [27187,"2013-06-12T14:00:00","ND","ND","ND","ND","ND","ND","ND","ND","ND","ND","ND","ND"],
    [27188,"2013-06-12T15:00:00","ND","ND","ND","ND","ND","ND","ND","ND","ND","ND","ND","ND"],
    [27189,"2013-06-12T16:00:00","ND","ND","ND","ND","ND","ND","ND","ND","ND","ND","ND","ND"],
    [27190,"2013-06-12T17:00:00","ND","ND","ND","ND","ND","ND","ND","ND","ND","ND","ND","ND"],
    [27191,"2013-06-12T18:00:00","ND","ND","ND","ND","ND","ND","ND","ND","ND","ND","ND","ND"],
    [27192,"2013-06-12T19:00:00","ND","ND","ND","ND","ND","ND","ND","ND","ND","ND","ND","ND"],
    [27193,"2013-06-12T20:00:00","ND","ND","ND","ND","ND","ND","ND","ND","ND","ND","ND","ND"],
    [27194,"2013-06-12T21:00:00","ND","ND","ND","ND","ND","ND","ND","ND","ND","ND","ND","ND"],
    [27195,"2013-06-12T22:00:00","ND","ND","ND","ND","ND","ND","ND","ND","ND","ND","ND","ND"],
    [27196,"2013-06-12T23:00:00","ND","ND","ND","ND","ND","ND","ND","ND","ND","ND","ND","ND"],
    [27197,"2013-06-13T00:00:00","ND","ND","ND","ND","ND","ND","ND","ND","ND","ND","ND","ND"],
    [27198,"2013-06-13T01:00:00","ND","ND","ND","ND","ND","ND","ND","ND","ND","ND","ND","ND"],
    [27199,"2013-06-13T02:00:00","ND","ND","ND","ND","ND","ND","ND","ND","ND","ND","ND","ND"],
    [27200,"2013-06-13T03:00:00","ND","ND","ND","ND","ND","ND","ND","ND","ND","ND","ND","ND"],
    [27201,"2013-06-13T04:00:00","ND","ND","ND","ND","ND","ND","ND","ND","ND","ND","ND","ND"],
    [27202,"2013-06-13T05:00:00","ND","ND","ND","ND","ND","ND","ND","ND","ND","ND","ND","ND"],
    [27203,"2013-06-13T06:00:00","ND","ND","ND","ND","ND","ND","ND","ND","ND","ND","ND","ND"],
    [27204,"2013-06-13T07:00:00","ND","ND","ND","ND","ND","ND","ND","ND","ND","ND","ND","ND"],
    [27205,"2013-06-13T08:00:00","ND","ND","ND","ND","ND","ND","ND","ND","ND","ND","ND","ND"],
    [27206,"2013-06-13T09:00:00","ND","ND","ND","ND","ND","ND","ND","ND","ND","ND","ND","ND"],
    [27207,"2013-06-13T10:00:00","ND","ND","ND","ND","ND","ND","ND","ND","ND","ND","ND","ND"],
    [27208,"2013-06-13T11:00:00","ND","ND","ND","ND","ND","ND","ND","ND","ND","ND","ND","ND"],
    [27209,"2013-06-13T12:00:00","ND","ND","ND","ND","ND","ND","ND","ND","ND","ND","ND","ND"],
    [27210,"2013-06-13T13:00:00","ND","ND","ND","ND","ND","ND","ND","ND","ND","ND","ND","ND"],
    [27211,"2013-06-13T14:00:00","ND","ND","ND","ND","ND","ND","ND","ND","ND","ND","ND","ND"],
    [27212,"2013-06-13T15:00:00","ND","ND","ND","ND","ND","ND","ND","ND","ND","ND","ND","ND"],
    [27213,"2013-06-13T16:00:00","ND","ND","ND","ND","ND","ND","ND","ND","ND","ND","ND","ND"],
    [27214,"2013-06-13T17:00:00","ND","ND","ND","ND","ND","ND","ND","ND","ND","ND","ND","ND"],
    [27215,"2013-06-13T18:00:00","ND","ND","ND","ND","ND","ND","ND","ND","ND","ND","ND","ND"],
    [27216,"2013-06-13T19:00:00","ND","ND","ND","ND","ND","ND","ND","ND","ND","ND","ND","ND"],
    [27217,"2013-06-13T20:00:00","ND","ND","ND","ND","ND","ND","ND","ND","ND","ND","ND","ND"],
    [27218,"2013-06-13T21:00:00","ND","ND","ND","ND","ND","ND","ND","ND","ND","ND","ND","ND"],
    [27219,"2013-06-13T22:00:00","ND","ND","ND","ND","ND","ND","ND","ND","ND","ND","ND","ND"],
    [27220,"2013-06-13T23:00:00","ND","ND","ND","ND","ND","ND","ND","ND","ND","ND","ND","ND"],
    [27221,"2013-06-14T00:00:00","ND","ND","ND","ND","ND","ND","ND","ND","ND","ND","ND","ND"],
    [27222,"2013-06-14T01:00:00","ND","ND","ND","ND","ND","ND","ND","ND","ND","ND","ND","ND"],
    [27223,"2013-06-14T02:00:00","ND","ND","ND","ND","ND","ND","ND","ND","ND","ND","ND","ND"],
    [27224,"2013-06-14T03:00:00","ND","ND","ND","ND","ND","ND","ND","ND","ND","ND","ND","ND"],
    [27225,"2013-06-14T04:00:00","ND","ND","ND","ND","ND","ND","ND","ND","ND","ND","ND","ND"],
    [27226,"2013-06-14T05:00:00","ND","ND","ND","ND","ND","ND","ND","ND","ND","ND","ND","ND"],
    [27227,"2013-06-14T06:00:00","ND","ND","ND","ND","ND","ND","ND","ND","ND","ND","ND","ND"],
    [27228,"2013-06-14T07:00:00","ND","ND","ND","ND","ND","ND","ND","ND","ND","ND","ND","ND"],
    [27229,"2013-06-14T08:00:00","ND","ND","ND","ND","ND","ND","ND","ND","ND","ND","ND","ND"],
    [27230,"2013-06-14T09:00:00","ND","ND","ND","ND","ND","ND","ND","ND","ND","ND","ND","ND"],
    [27231,"2013-06-14T10:00:00","ND","ND","ND","ND","ND","ND","ND","ND","ND","ND","ND","ND"],
    [27232,"2013-06-14T11:00:00","ND","ND","ND","ND","ND","ND","ND","ND","ND","ND","ND","ND"],
    [27233,"2013-06-14T12:00:00","ND","ND","ND","ND","ND","ND","ND","ND","ND","ND","ND","ND"],
    [27234,"2013-06-14T13:00:00","ND","ND","ND","ND","ND","ND","ND","ND","ND","ND","ND","ND"],
    [27235,"2013-06-14T14:00:00","ND","ND","ND","ND","ND","ND","ND","ND","ND","ND","ND","ND"],
    [27236,"2013-06-14T15:00:00","ND","ND","ND","ND","ND","ND","ND","ND","ND","ND","ND","ND"],
    [27237,"2013-06-14T16:00:00","ND","ND","ND","ND","ND","ND","ND","ND","ND","ND","ND","ND"],
    [27238,"2013-06-14T17:00:00","ND","ND","ND","ND","ND","ND","ND","ND","ND","ND","ND","ND"],
    [27239,"2013-06-14T18:00:00","ND","ND","ND","ND","ND","ND","ND","ND","ND","ND","ND","ND"],
    [27240,"2013-06-14T19:00:00","ND","ND","ND","ND","ND","ND","ND","ND","ND","ND","ND","ND"],
    [27241,"2013-06-14T20:00:00","ND","ND","ND","ND","ND","ND","ND","ND","ND","ND","ND","ND"],
    [27242,"2013-06-14T21:00:00","ND","ND","ND","ND","ND","ND","ND","ND","ND","ND","ND","ND"],
    [27243,"2013-06-14T22:00:00","ND","ND","ND","ND","ND","ND","ND","ND","ND","ND","ND","ND"],
    [27244,"2013-06-14T23:00:00","ND","ND","ND","ND","ND","ND","ND","ND","ND","ND","ND","ND"],
    [27245,"2013-06-15T00:00:00","ND","ND","ND","ND","ND","ND","ND","ND","ND","ND","ND","ND"],
    [27246,"2013-06-15T01:00:00","ND","ND","ND","ND","ND","ND","ND","ND","ND","ND","ND","ND"],
    [27247,"2013-06-15T02:00:00","ND","ND","ND","ND","ND","ND","ND","ND","ND","ND","ND","ND"],
    [27248,"2013-06-15T03:00:00","ND","ND","ND","ND","ND","ND","ND","ND","ND","ND","ND","ND"],
    [27249,"2013-06-15T04:00:00","ND","ND","ND","ND","ND","ND","ND","ND","ND","ND","ND","ND"],
    [27250,"2013-06-15T05:00:00","ND","ND","ND","ND","ND","ND","ND","ND","ND","ND","ND","ND"],
    [27251,"2013-06-15T06:00:00","ND","ND","ND","ND","ND","ND","ND","ND","ND","ND","ND","ND"],
    [27252,"2013-06-15T07:00:00","ND","ND","ND","ND","ND","ND","ND","ND","ND","ND","ND","ND"],
    [27253,"2013-06-15T08:00:00","ND","ND","ND","ND","ND","ND","ND","ND","ND","ND","ND","ND"],
    [27254,"2013-06-15T09:00:00","ND","ND","ND","ND","ND","ND","ND","ND","ND","ND","ND","ND"],
    [27255,"2013-06-15T10:00:00","ND","ND","ND","ND","ND","ND","ND","ND","ND","ND","ND","ND"],
    [27256,"2013-06-15T11:00:00","ND","ND","ND","ND","ND","ND","ND","ND","ND","ND","ND","ND"],
    [27257,"2013-06-15T12:00:00","ND","ND","ND","ND","ND","ND","ND","ND","ND","ND","ND","ND"],
    [27258,"2013-06-15T13:00:00","ND","ND","ND","ND","ND","ND","ND","ND","ND","ND","ND","ND"],
    [27259,"2013-06-15T14:00:00","ND","ND","ND","ND","ND","ND","ND","ND","ND","ND","ND","ND"],
    [27260,"2013-06-15T15:00:00","ND","ND","ND","ND","ND","ND","ND","ND","ND","ND","ND","ND"],
    [27261,"2013-06-15T16:00:00","ND","ND","ND","ND","ND","ND","ND","ND","ND","ND","ND","ND"],
    [27262,"2013-06-15T17:00:00","ND","ND","ND","ND","ND","ND","ND","ND","ND","ND","ND","ND"],
    [27263,"2013-06-15T18:00:00","ND","ND","ND","ND","ND","ND","ND","ND","ND","ND","ND","ND"],
    [27264,"2013-06-15T19:00:00","ND","ND","ND","ND","ND","ND","ND","ND","ND","ND","ND","ND"],
    [27265,"2013-06-15T20:00:00","ND","ND","ND","ND","ND","ND","ND","ND","ND","ND","ND","ND"],
    [27266,"2013-06-15T21:00:00","ND","ND","ND","ND","ND","ND","ND","ND","ND","ND","ND","ND"],
    [27267,"2013-06-15T22:00:00","ND","ND","ND","ND","ND","ND","ND","ND","ND","ND","ND","ND"],
    [27268,"2013-06-15T23:00:00","ND","ND","ND","ND","ND","ND","ND","ND","ND","ND","ND","ND"],
    [27269,"2013-06-16T00:00:00","ND","ND","ND","ND","ND","ND","ND","ND","ND","ND","ND","ND"],
    [27270,"2013-06-16T01:00:00","ND","ND","ND","ND","ND","ND","ND","ND","ND","ND","ND","ND"],
    [27271,"2013-06-16T02:00:00","ND","ND","ND","ND","ND","ND","ND","ND","ND","ND","ND","ND"],
    [27272,"2013-06-16T03:00:00","ND","ND","ND","ND","ND","ND","ND","ND","ND","ND","ND","ND"],
    [27273,"2013-06-16T04:00:00","ND","ND","ND","ND","ND","ND","ND","ND","ND","ND","ND","ND"],
    [27274,"2013-06-16T05:00:00","ND","ND","ND","ND","ND","ND","ND","ND","ND","ND","ND","ND"],
    [27275,"2013-06-16T06:00:00","ND","ND","ND","ND","ND","ND","ND","ND","ND","ND","ND","ND"],
    [27276,"2013-06-16T07:00:00","ND","ND","ND","ND","ND","ND","ND","ND","ND","ND","ND","ND"],
    [27277,"2013-06-16T08:00:00","ND","ND","ND","ND","ND","ND","ND","ND","ND","ND","ND","ND"],
    [27278,"2013-06-16T09:00:00","ND","ND","ND","ND","ND","ND","ND","ND","ND","ND","ND","ND"],
    [27279,"2013-06-16T10:00:00","ND","ND","ND","ND","ND","ND","ND","ND","ND","ND","ND","ND"],
    [27280,"2013-06-16T11:00:00","ND","ND","ND","ND","ND","ND","ND","ND","ND","ND","ND","ND"],
    [27281,"2013-06-16T12:00:00","ND","ND","ND","ND","ND","ND","ND","ND","ND","ND","ND","ND"],
    [27282,"2013-06-16T13:00:00","ND","ND","ND","ND","ND","ND","ND","ND","ND","ND","ND","ND"],
    [27283,"2013-06-16T14:00:00","ND","ND","ND","ND","ND","ND","ND","ND","ND","ND","ND","ND"],
    [27284,"2013-06-16T15:00:00","ND","ND","ND","ND","ND","ND","ND","ND","ND","ND","ND","ND"],
    [27285,"2013-06-16T16:00:00","ND","ND","ND","ND","ND","ND","ND","ND","ND","ND","ND","ND"],
    [27286,"2013-06-16T17:00:00","ND","ND","ND","ND","ND","ND","ND","ND","ND","ND","ND","ND"],
    [27287,"2013-06-16T18:00:00","ND","ND","ND","ND","ND","ND","ND","ND","ND","ND","ND","ND"],
    [27288,"2013-06-16T19:00:00","ND","ND","ND","ND","ND","ND","ND","ND","ND","ND","ND","ND"],
    [27289,"2013-06-16T20:00:00","ND","ND","ND","ND","ND","ND","ND","ND","ND","ND","ND","ND"],
    [27290,"2013-06-16T21:00:00","ND","ND","ND","ND","ND","ND","ND","ND","ND","ND","ND","ND"],
    [27291,"2013-06-16T22:00:00","ND","ND","ND","ND","ND","ND","ND","ND","ND","ND","ND","ND"],
    [27292,"2013-06-16T23:00:00","ND","ND","ND","ND","ND","ND","ND","ND","ND","ND","ND","ND"],
    [27293,"2013-06-17T00:00:00","ND","ND","ND","ND","ND","ND","ND","ND","ND","ND","ND","ND"],
    [27294,"2013-06-17T01:00:00","ND","ND","ND","ND","ND","ND","ND","ND","ND","ND","ND","ND"],
    [27295,"2013-06-17T02:00:00","ND","ND","ND","ND","ND","ND","ND","ND","ND","ND","ND","ND"],
    [27296,"2013-06-17T03:00:00","ND","ND","ND","ND","ND","ND","ND","ND","ND","ND","ND","ND"],
    [27297,"2013-06-17T04:00:00","ND","ND","ND","ND","ND","ND","ND","ND","ND","ND","ND","ND"],
    [27298,"2013-06-17T05:00:00","ND","ND","ND","ND","ND","ND","ND","ND","ND","ND","ND","ND"],
    [27299,"2013-06-17T06:00:00","ND","ND","ND","ND","ND","ND","ND","ND","ND","ND","ND","ND"],
    [27300,"2013-06-17T07:00:00","ND","ND","ND","ND","ND","ND","ND","ND","ND","ND","ND","ND"],
    [27301,"2013-06-17T08:00:00","ND","ND","ND","ND","ND","ND","ND","ND","ND","ND","ND","ND"],
    [27302,"2013-06-17T09:00:00","ND","ND","ND","ND","ND","ND","ND","ND","ND","ND","ND","ND"],
    [27303,"2013-06-17T10:00:00","ND","ND","ND","ND","ND","ND","ND","ND","ND","ND","ND","ND"],
    [27304,"2013-06-17T11:00:00","ND","ND","ND","ND","ND","ND","ND","ND","ND","ND","ND","ND"],
    [27305,"2013-06-17T12:00:00","ND","ND","ND","ND","ND","ND","ND","ND","ND","ND","ND","ND"],
    [27306,"2013-06-17T13:00:00","ND","ND","20.81","ND","ND","ND","0.9","344","29.6","53.2","384.1","0"],
    [27307,"2013-06-17T14:00:00","ND","ND","11.22","ND","ND","ND","2.1","354.6","29.9","50.4","405.1","0"],
    [27308,"2013-06-17T15:00:00","ND","ND","12.97","ND","ND","ND","2.1","268.1","30.5","47.8","382.9","0"],
    [27309,"2013-06-17T16:00:00","ND","ND","14.26","ND","ND","ND","2","274.6","30.7","46.4","381.4","0"],
    [27310,"2013-06-17T17:00:00","0.6","ND","20.81","ND","ND","ND","2.3","279.2","30.7","45.7","299.3","0"],
    [27311,"2013-06-17T18:00:00","0.3","ND","31.10","ND","ND","ND","2","276.1","29.6","48.4","92.6","0"],
    [27312,"2013-06-17T19:00:00","2.5","ND","42.55","ND","ND","ND","0.2","62.9","28.2","52.4","0","0"],
    [27313,"2013-06-17T20:00:00","15","ND","45.20","ND","ND","ND","0.3","326","27","57.8","0","0"],
    [27314,"2013-06-17T21:00:00","28.2","ND","43.65","ND","ND","ND","0.6","125.6","26.4","62.6","0","0"],
    [27315,"2013-06-17T22:00:00","39.6","ND","37.06","ND","ND","ND","1.3","204.7","25.9","66.9","0","0"],
    [27316,"2013-06-17T23:00:00","32.8","ND","38.12","ND","ND","ND","0.5","229.4","25.3","70.1","0","0"],
    [27317,"2013-06-18T00:00:00","21.6","ND","34.27","ND","ND","ND","0.4","330.2","24.1","75.1","0","0"],
    [27318,"2013-06-18T01:00:00","28.2","ND","32.77","ND","ND","ND","0.1","205.4","24.1","74.5","0","0"],
    [27319,"2013-06-18T02:00:00","17.8","ND","31.41","ND","ND","ND","0.1","188.2","23.9","76.7","0","0"],
    [27320,"2013-06-18T03:00:00","10.8","ND","29.93","ND","ND","ND","0.4","18.6","23.3","79.4","0","0"],
    [27321,"2013-06-18T04:00:00","28","ND","27.62","ND","ND","ND","0.4","304.7","22.9","81.3","0","0"],
    [27322,"2013-06-18T05:00:00","30.6","ND","26.30","ND","ND","ND","0.4","338.7","22.5","81.4","0","0"],
    [27323,"2013-06-18T06:00:00","39","ND","25.90","ND","ND","ND","0.7","53.6","22","83.5","0","0"],
    [27324,"2013-06-18T07:00:00","45.8","ND","23.90","ND","ND","ND","0.6","51.5","22","85.1","22.4","0"],
    [27325,"2013-06-18T08:00:00","77.3","ND","35.82","ND","ND","ND","0.5","70.1","22.8","82.9","117.2","0"],
    [27326,"2013-06-18T09:00:00","53.2","ND","39.67","ND","ND","ND","0.6","77.7","24.9","72","367.1","0"],
    [27327,"2013-06-18T10:00:00","45.3","ND","31.06","ND","ND","ND","1.1","102.4","26.3","66.1","571.8","0"],
    [27328,"2013-06-18T11:00:00","29.9","ND","31.04","ND","ND","ND","0.8","92.1","27.6","61.5","577.4","0"],
    [27329,"2013-06-18T12:00:00","43.6","ND","30.34","ND","ND","ND","1.4","140.1","28.2","58.2","262.9","0"],
    [27330,"2013-06-18T13:00:00","23.4","ND","29.16","ND","ND","ND","1","115.1","28.8","56","548.6","0"],
    [27331,"2013-06-18T14:00:00","27.9","ND","31.37","ND","ND","ND","0.8","40.2","29.3","54.7","391.3","0"],
    [27332,"2013-06-18T15:00:00","19.9","ND","34.67","ND","ND","ND","0.5","255.9","30.7","51.1","609","0"],
    [27333,"2013-06-18T16:00:00","32.3","ND","36.36","ND","ND","ND","0.9","155.2","31.4","47.7","394.7","0"],
    [27334,"2013-06-18T17:00:00","18","ND","39.53","ND","ND","ND","1.2","38.4","30.8","51","165.1","0"],
    [27335,"2013-06-18T18:00:00","27.8","ND","37.61","ND","ND","ND","1.8","289.2","29.5","53.2","24.2","0"],
    [27336,"2013-06-18T19:00:00","15.3","ND","36.65","ND","ND","ND","2.2","263.1","28.4","55.3","0","0"],
    [27337,"2013-06-18T20:00:00","8.5","ND","34.63","ND","ND","ND","1.6","263.3","27.9","57.7","0","0"],
    [27338,"2013-06-18T21:00:00","8.3","ND","46.53","ND","ND","ND","1.5","100.9","27.5","60.2","0","0"],
    [27339,"2013-06-18T22:00:00","13.2","ND","34.06","ND","ND","ND","0.9","105.3","25.9","70","0","0"],
    [27340,"2013-06-18T23:00:00","12.7","ND","33.41","ND","ND","ND","0.4","235","25.8","69.8","0","0"],
    [27341,"2013-06-19T00:00:00","20.7","ND","31.57","ND","ND","ND","0.7","110.9","25.4","71.6","0","0"],
    [27342,"2013-06-19T01:00:00","12.2","ND","26.26","ND","ND","ND","0.2","23.6","24.8","73.7","0","0"],
    [27343,"2013-06-19T02:00:00","14.8","ND","27.40","ND","ND","ND","0.6","218.6","25","74","0","0"],
    [27344,"2013-06-19T03:00:00","9.3","ND","18.72","ND","ND","ND","0.4","159.2","24.6","72.8","0","0"],
    [27345,"2013-06-19T04:00:00","15.4","ND","17.64","ND","ND","ND","0.9","71.8","24.2","75.1","0","1.02"],
    [27346,"2013-06-19T05:00:00","8","ND","14.75","ND","ND","ND","0.2","194.4","20.6","93.4","0","39.12"],
    [27347,"2013-06-19T06:00:00","6.1","ND","24.48","ND","ND","ND","0.6","199.8","21.3","88.9","0","0.25"],
    [27348,"2013-06-19T07:00:00","13","ND","26.13","ND","ND","ND","0.3","341.4","21.3","88","16.6","0"],
    [27349,"2013-06-19T08:00:00","26.6","ND","31.56","ND","ND","ND","0.3","34.3","21.8","86.4","102","0.25"],
    [27350,"2013-06-19T09:00:00","17.6","ND","41.64","ND","ND","ND","0.6","38.1","23.4","79.9","313.8","0"],
    [27351,"2013-06-19T10:00:00","32.7","ND","37.48","ND","ND","ND","1.2","50.2","25.3","67.8","584.1","0"],
    [27352,"2013-06-19T11:00:00","1.3","ND","ND","ND","ND","ND","1.2","68.8","27","57.7","727.7","0"],
    [27353,"2013-06-19T12:00:00","5.8","ND","ND","ND","ND","ND","1","52.2","28.4","55","643","0"],
    [27354,"2013-06-19T13:00:00","17.1","ND","ND","ND","ND","ND","0.7","15.4","28.4","56.1","401.1","0"],
    [27355,"2013-06-19T14:00:00","33.8","ND","ND","ND","ND","ND","0.8","336.4","29.8","51.4","723.3","0"],
    [27356,"2013-06-19T15:00:00","17.6","ND","ND","ND","ND","ND","0.7","310.1","30.3","49.5","462.1","0"],
    [27357,"2013-06-19T16:00:00","10.3","ND","ND","ND","ND","ND","1.6","259.4","29.5","51.7","232.6","0"],
    [27358,"2013-06-19T17:00:00","7.5","ND","ND","ND","ND","ND","3.1","258.6","28.8","53","154.1","0"],
    [27359,"2013-06-19T18:00:00","5.7","ND","ND","ND","ND","ND","1.1","255.3","28.1","54.6","38.1","0"],
    [27360,"2013-06-19T19:00:00","6.5","ND","ND","ND","ND","ND","0.5","129.6","27.5","57","0","0"],
    [27361,"2013-06-19T20:00:00","33.6","ND","ND","ND","ND","ND","0.8","204.9","26.8","59.8","0","0"],
    [27362,"2013-06-19T21:00:00","21.7","ND","ND","ND","ND","ND","0.7","211.3","26.3","61.9","0","0"],
    [27363,"2013-06-19T22:00:00","53.8","ND","ND","ND","ND","ND","0.3","77.4","24.9","70.8","0","0"],
    [27364,"2013-06-19T23:00:00","43.5","ND","ND","ND","ND","ND","0.6","141.3","24.3","72.8","0","0"],
    [27365,"2013-06-20T00:00:00","30.1","ND","ND","ND","ND","ND","0.1","251.4","23.8","75.1","0","0"],
    [27366,"2013-06-20T01:00:00","20.8","ND","ND","ND","ND","ND","0.8","194.3","23.9","74.2","0","0"],
    [27367,"2013-06-20T02:00:00","41.2","ND","ND","ND","ND","ND","0.4","156.4","23.9","75.2","0","0"],
    [27368,"2013-06-20T03:00:00","22","ND","ND","ND","ND","ND","1","141.9","23.1","78.7","0","0"],
    [27369,"2013-06-20T04:00:00","19.9","ND","ND","ND","ND","ND","0.9","171.6","22.5","83.5","0","0"],
    [27370,"2013-06-20T05:00:00","11.7","ND","ND","ND","ND","ND","0.4","181.1","22.3","85.4","0","0"],
    [27371,"2013-06-20T06:00:00","22.4","ND","ND","ND","ND","ND","0.4","249.6","21.8","88","0","0"],
    [27372,"2013-06-20T07:00:00","25.7","ND","ND","ND","ND","ND","0.3","306.2","22.1","86.1","18.2","0"],
    [27373,"2013-06-20T08:00:00","70.3","ND","ND","ND","ND","ND","0.6","55.1","22.6","83.3","40.4","0"],
    [27374,"2013-06-20T09:00:00","60.7","ND","ND","ND","ND","ND","0.4","61.4","23.4","79.7","209","0"],
    [27375,"2013-06-20T10:00:00","81","ND","ND","ND","ND","ND","0.5","87.6","26","67.7","552.7","0"],
    [27376,"2013-06-20T11:00:00","55.7","ND","ND","ND","ND","ND","1","75.7","27.7","60.5","785.4","0"],
    [27377,"2013-06-20T12:00:00","43.3","ND","ND","ND","ND","ND","1.2","61","28.3","58.2","649.5","0"],
    [27378,"2013-06-20T13:00:00","22.7","ND","ND","ND","ND","ND","1.4","65.5","28.9","56.6","646.2","0"],
    [27379,"2013-06-20T14:00:00","21.3","ND","ND","ND","ND","ND","0.6","69.6","30.6","49.2","682.3","0"],
    [27380,"2013-06-20T15:00:00","11.3","ND","ND","ND","ND","ND","1.3","24.2","30.8","47.2","493.7","0"],
    [27381,"2013-06-20T16:00:00","18.8","ND","ND","ND","ND","ND","2.1","295.3","29.9","49.4","177.9","0"],
    [27382,"2013-06-20T17:00:00","20.9","ND","ND","ND","ND","ND","2.2","256.7","29","51","122.1","0"],
    [27383,"2013-06-20T18:00:00","12.4","ND","ND","ND","ND","ND","0.9","253.1","28.7","51.5","58.7","0"],
    [27384,"2013-06-20T19:00:00","7.1","ND","ND","ND","ND","ND","0.3","283.9","27.6","53","0","0"],
    [27385,"2013-06-20T20:00:00","12.2","ND","ND","ND","ND","ND","0.6","103.7","27.1","54.6","0","0"],
    [27386,"2013-06-20T21:00:00","7","ND","ND","ND","ND","ND","0.6","127.2","26.3","58.3","0","0"],
    [27387,"2013-06-20T22:00:00","43.5","ND","ND","ND","ND","ND","0.7","190","25","65.7","0","0"],
    [27388,"2013-06-20T23:00:00","59.4","ND","ND","ND","ND","ND","0.3","136.4","24","71.1","0","0"],
    [27389,"2013-06-21T00:00:00","66.5","ND","ND","ND","ND","ND","0.4","217.1","23.5","73.6","0","0"],
    [27390,"2013-06-21T01:00:00","49","ND","ND","ND","ND","ND","0.3","326.4","23","75.7","0","0"],
    [27391,"2013-06-21T02:00:00","61.2","ND","ND","ND","ND","ND","0.3","56","22.5","78.1","0","0"],
    [27392,"2013-06-21T03:00:00","44.7","ND","ND","ND","ND","ND","0.8","353.6","21.5","83.4","0","0"],
    [27393,"2013-06-21T04:00:00","60","ND","ND","ND","ND","ND","0.3","6.7","21.2","85.4","0","0"],
    [27394,"2013-06-21T05:00:00","41.1","ND","ND","ND","ND","ND","0.4","268","21.1","84.9","0","0"],
    [27395,"2013-06-21T06:00:00","38.1","ND","ND","ND","ND","ND","0.5","269","20.9","84.7","0","0"],
    [27396,"2013-06-21T07:00:00","20.7","ND","ND","ND","ND","ND","0.2","256.1","21.6","83.2","47.8","0"],
    [27397,"2013-06-21T08:00:00","31.1","ND","ND","ND","ND","ND","0.3","14.9","23.1","77.8","133.1","0"],
    [27398,"2013-06-21T09:00:00","21.3","ND","ND","ND","ND","ND","0.4","153.1","24.9","68.1","391.3","0"],
    [27399,"2013-06-21T10:00:00","45.3","ND","ND","ND","ND","ND","1.3","74.6","26.3","63.9","569.6","0"],
    [27400,"2013-06-21T11:00:00","4.2","ND","ND","ND","ND","ND","1.2","74.4","27.3","61.3","647","0"],
    [27401,"2013-06-21T12:00:00","86","ND","ND","ND","ND","ND","1","66.8","28.7","56.6","793.5","0"],
    [27402,"2013-06-21T13:00:00","43.6","ND","ND","ND","ND","ND","0.9","34.2","29.8","53.4","682.6","0"],
    [27403,"2013-06-21T14:00:00","45.4","ND","ND","ND","ND","ND","0.8","353.7","30.1","52.1","377.5","0"],
    [27404,"2013-06-21T15:00:00","23.2","ND","ND","ND","ND","ND","0.7","249.3","31","47.2","372.5","0"],
    [27405,"2013-06-21T16:00:00","13.1","ND","ND","ND","ND","ND","3.2","261.8","30.8","46.2","432.9","0"],
    [27406,"2013-06-21T17:00:00","8.2","ND","ND","ND","ND","ND","2.6","275.7","30.6","46.1","283.9","0"],
    [27407,"2013-06-21T18:00:00","6.6","ND","ND","ND","ND","ND","0.8","271.4","29.6","47.8","46.5","0"],
    [27408,"2013-06-21T19:00:00","3.9","ND","ND","ND","ND","ND","0.1","201.8","28.4","50.6","0","0"],
    [27409,"2013-06-21T20:00:00","15.1","ND","ND","ND","ND","ND","0.5","98.1","27.7","54","0","0"],
    [27410,"2013-06-21T21:00:00","21","ND","ND","ND","ND","ND","0.5","159.9","27","57.3","0","0"],
    [27411,"2013-06-21T22:00:00","50","ND","ND","ND","ND","ND","1","147.8","25.5","65.3","0","0"],
    [27412,"2013-06-21T23:00:00","36.5","ND","ND","ND","ND","ND","0.3","184","24.6","70.1","0","0"],
    [27413,"2013-06-22T00:00:00","70.3","ND","ND","ND","ND","ND","0.7","189.3","24.1","72.6","0","0"],
    [27414,"2013-06-22T01:00:00","46.9","ND","ND","ND","ND","ND","0.2","283.6","23.5","75.4","0","0"],
    [27415,"2013-06-22T02:00:00","43.2","ND","ND","ND","ND","ND","0.5","319.2","23.1","76.2","0","0"],
    [27416,"2013-06-22T03:00:00","43.2","ND","ND","ND","ND","ND","0.4","10.1","22.9","78.7","0","0"],
    [27417,"2013-06-22T04:00:00","51.9","ND","ND","ND","ND","ND","0.8","10.3","22.2","83.2","0","0"],
    [27418,"2013-06-22T05:00:00","49.6","ND","ND","ND","ND","ND","0.1","2.6","21.9","84","0","0"],
    [27419,"2013-06-22T06:00:00","55.6","ND","ND","ND","ND","ND","0.2","271","21.7","84.8","0","0"],
    [27420,"2013-06-22T07:00:00","30.2","ND","ND","ND","ND","ND","0.2","316.1","22.1","82.9","31.8","0"],
    [27421,"2013-06-22T08:00:00","53.8","ND","ND","ND","ND","ND","0.6","35.1","23.6","76.7","175.4","0"],
    [27422,"2013-06-22T09:00:00","55.9","ND","ND","ND","ND","ND","0.7","86.4","25.1","69.5","283.1","0"],
    [27423,"2013-06-22T10:00:00","63.9","ND","ND","ND","ND","ND","0.6","99.6","26.6","64.5","597.3","0"],
    [27424,"2013-06-22T11:00:00","40.9","ND","ND","ND","ND","ND","0.8","99.7","27.7","59.2","504.7","0"],
    [27425,"2013-06-22T12:00:00","54.9","ND","ND","ND","ND","ND","0.4","243.3","28.4","56.7","423.9","0"],
    [27426,"2013-06-22T13:00:00","36.7","ND","ND","ND","ND","ND","0.6","23.6","30.4","51.9","698.8","0"],
    [27427,"2013-06-22T14:00:00","46.5","ND","ND","ND","ND","ND","0.9","22.7","30.7","51.1","487.8","0"],
    [27428,"2013-06-22T15:00:00","25.3","ND","ND","ND","ND","ND","1.4","278.1","31.7","45.9","671.1","0"],
    [27429,"2013-06-22T16:00:00","13.4","ND","ND","ND","ND","ND","3.3","271.7","31.5","44.6","477.5","0"],
    [27430,"2013-06-22T17:00:00","8.4","ND","ND","ND","ND","ND","2.9","277","31","44.6","293","0"],
    [27431,"2013-06-22T18:00:00","5.3","ND","ND","ND","ND","ND","1.6","259.5","29.8","48.3","63.3","0"],
    [27432,"2013-06-22T19:00:00","4.4","ND","ND","ND","ND","ND","0.3","225.5","28.7","50.7","0","0"],
    [27433,"2013-06-22T20:00:00","8.8","ND","ND","ND","ND","ND","0.5","102.2","28","53.1","0","0"],
    [27434,"2013-06-22T21:00:00","7.9","ND","ND","ND","ND","ND","0.9","98.6","27.2","57.6","0","0"],
    [27435,"2013-06-22T22:00:00","37","ND","ND","ND","ND","ND","0.5","154.8","26","63.9","0","0"],
    [27436,"2013-06-22T23:00:00","34.1","ND","ND","ND","ND","ND","0.2","56.6","25","69.8","0","0"],
    [27437,"2013-06-23T00:00:00","70.9","ND","ND","ND","ND","ND","0.3","73.5","24.1","74.4","0","0"],
    [27438,"2013-06-23T01:00:00","60.7","ND","ND","ND","ND","ND","0.4","160.6","23.9","75.7","0","0"],
    [27439,"2013-06-23T02:00:00","48.3","ND","ND","ND","ND","ND","0.2","156.8","23.7","77","0","0"],
    [27440,"2013-06-23T03:00:00","33.1","ND","ND","ND","ND","ND","0.1","316.9","23.4","78.2","0","0"],
    [27441,"2013-06-23T04:00:00","38.4","ND","ND","ND","ND","ND","0.4","337.8","22.9","81.2","0","0"],
    [27442,"2013-06-23T05:00:00","34.8","ND","ND","ND","ND","ND","0.4","27.4","22.6","82.5","0","0"],
    [27443,"2013-06-23T06:00:00","47.1","ND","ND","ND","ND","ND","0.5","29.5","22.6","81.6","0","0"],
    [27444,"2013-06-23T07:00:00","38","ND","ND","ND","ND","ND","0.2","326.1","22.8","81.8","18","0"],
    [27445,"2013-06-23T08:00:00","48.4","ND","ND","ND","ND","ND","0.1","250.5","23.5","79.1","96.3","0"],
    [27446,"2013-06-23T09:00:00","42.1","ND","ND","ND","ND","ND","0.4","124.8","25","72","239.4","0"],
    [27447,"2013-06-23T10:00:00","38.5","ND","ND","ND","ND","ND","0.8","51.3","26.1","68.1","359.3","0"],
    [27448,"2013-06-23T11:00:00","39.2","ND","ND","ND","ND","ND","1","102.2","27.7","61.9","497.5","0"],
    [27449,"2013-06-23T12:00:00","39.1","ND","ND","ND","ND","ND","0.9","59.7","28.1","59.7","375.1","0"],
    [27450,"2013-06-23T13:00:00","21.6","ND","ND","ND","ND","ND","1.2","52.1","28.9","58","621.8","0"],
    [27451,"2013-06-23T14:00:00","15.8","ND","ND","ND","ND","ND","0.5","67.2","30.2","53.9","452.8","0"],
    [27452,"2013-06-23T15:00:00","9.9","ND","ND","ND","ND","ND","0.9","59.3","30.1","53.8","404","0"],
    [27453,"2013-06-23T16:00:00","18.4","ND","ND","ND","ND","ND","0.6","252.9","30.5","51.2","211.8","0"],
    [27454,"2013-06-23T17:00:00","30.4","ND","ND","ND","ND","ND","2","262.6","29.9","51.6","183.4","0"],
    [27455,"2013-06-23T18:00:00","16.9","ND","ND","ND","ND","ND","1.8","256.5","28.8","54.6","65.7","0"],
    [27456,"2013-06-23T19:00:00","9.6","ND","ND","ND","ND","ND","1.2","245.2","27.8","57.5","0","0"],
    [27457,"2013-06-23T20:00:00","27.2","ND","ND","ND","ND","ND","0.7","223","27.3","59","0","0"],
    [27458,"2013-06-23T21:00:00","14.2","ND","ND","ND","ND","ND","0.4","44.3","26.6","62","0","0"],
    [27459,"2013-06-23T22:00:00","10","ND","ND","ND","ND","ND","0.6","137.6","25.3","68.2","0","0"],
    [27460,"2013-06-23T23:00:00","14.5","ND","ND","ND","ND","ND","0.6","184","25","69.4","0","0"],
    [27461,"2013-06-24T00:00:00","20.6","ND","ND","ND","ND","ND","0.6","162.1","24.7","70","0","0"],
    [27462,"2013-06-24T01:00:00","12.4","ND","ND","ND","ND","ND","0.2","98","24.5","71","0","0"],
    [27463,"2013-06-24T02:00:00","14.5","ND","ND","ND","ND","ND","0.9","145.7","24.2","73.5","0","0"],
    [27464,"2013-06-24T03:00:00","8.3","ND","ND","ND","ND","ND","0.4","192.7","24.1","75.2","0","0"],
    [27465,"2013-06-24T04:00:00","5.3","ND","ND","ND","ND","ND","1.3","169.1","23.9","75.7","0","0"],
    [27466,"2013-06-24T05:00:00","3.2","ND","ND","ND","ND","ND","1.2","185.1","23.4","77.3","0","0"],
    [27467,"2013-06-24T06:00:00","7.4","ND","ND","ND","ND","ND","1.2","183.1","23.3","78.5","0","0"],
    [27468,"2013-06-24T07:00:00","23.4","ND","ND","ND","ND","ND","0.5","272.7","23.4","79","22.5","0"],
    [27469,"2013-06-24T08:00:00","34.2","ND","ND","ND","ND","ND","0.1","164.7","24.1","76","115.1","0"],
    [27470,"2013-06-24T09:00:00","36.9","ND","ND","ND","ND","ND","0.4","143.4","25.2","69.9","209.8","0"],
    [27471,"2013-06-24T10:00:00","55.3","ND","ND","ND","ND","ND","1.3","40","26.2","68.1","475.2","0"],
    [27472,"2013-06-24T11:00:00","29.2","ND","ND","ND","ND","ND","1.4","49.4","27.3","63.5","584.7","0"],
    [27473,"2013-06-24T12:00:00","17.6","ND","ND","ND","ND","ND","1.6","66.3","28.6","57.5","731.2","0"],
    [27474,"2013-06-24T13:00:00","9.7","ND","ND","ND","ND","ND","1.3","236","29.2","52.9","574.5","0"],
    [27475,"2013-06-24T14:00:00","6.3","ND","ND","ND","ND","ND","3","262.2","30.3","47.6","621.4","0"],
    [27476,"2013-06-24T15:00:00","4.2","ND","ND","ND","ND","ND","3.2","269.7","30.4","46.9","577.7","0"],
    [27477,"2013-06-24T16:00:00","3.3","ND","ND","ND","ND","ND","2.9","274.7","30.3","46.1","363.1","0"],
    [27478,"2013-06-24T17:00:00","5","ND","ND","ND","ND","ND","3","270.5","29.3","46.9","228.8","0"],
    [27479,"2013-06-24T18:00:00","4","ND","ND","ND","ND","ND","2.8","266.8","28.4","48.5","124.5","0"],
    [27480,"2013-06-24T19:00:00","10.1","ND","ND","ND","ND","ND","2.2","263.6","27.4","51.3","0","0"],
    [27481,"2013-06-24T20:00:00","5.6","ND","ND","ND","ND","ND","1.1","137.1","27.2","53.4","0","0"],
    [27482,"2013-06-24T21:00:00","2.8","ND","ND","ND","ND","ND","1.6","233.8","26.4","56.3","0","0"],
    [27483,"2013-06-24T22:00:00","1.4","ND","ND","ND","ND","ND","2","211.4","25.9","57.8","0","0"],
    [27484,"2013-06-24T23:00:00","1.6","ND","ND","ND","ND","ND","0.6","358","25.1","63.2","0","0"],
    [27485,"2013-06-25T00:00:00","31.6","ND","ND","ND","ND","ND","1","12.6","23.9","72.2","0","0"],
    [27486,"2013-06-25T01:00:00","18","ND","ND","ND","ND","ND","0.5","328.8","23.6","74.7","0","0"],
    [27487,"2013-06-25T02:00:00","25.7","ND","ND","ND","ND","ND","0.7","275.6","23.4","75.4","0","0"],
    [27488,"2013-06-25T03:00:00","14.2","ND","ND","ND","ND","ND","0.5","39.6","23.1","76.2","0","0"],
    [27489,"2013-06-25T04:00:00","26","ND","ND","ND","ND","ND","1","44.1","21.9","83.6","0","0"],
    [27490,"2013-06-25T05:00:00","16.2","ND","ND","ND","ND","ND","0.5","142.9","21.7","85.2","0","0"],
    [27491,"2013-06-25T06:00:00","9.4","ND","ND","ND","ND","ND","0.8","171.4","22.2","83","0","0"],
    [27492,"2013-06-25T07:00:00","5.3","ND","ND","ND","ND","ND","1.1","171.3","22.6","81.5","12.3","0"],
    [27493,"2013-06-25T08:00:00","30.5","ND","ND","ND","ND","ND","0.6","128.2","22.6","82.3","94.7","0"],
    [27494,"2013-06-25T09:00:00","40.3","ND","ND","ND","ND","ND","1.2","41.6","23.6","78.7","328.4","0"],
    [27495,"2013-06-25T10:00:00","34.2","ND","ND","ND","ND","ND","0.6","160.5","25.1","70","555.1","0"],
    [27496,"2013-06-25T11:00:00","17.7","ND","ND","ND","ND","ND","0.8","210.5","26.7","60.7","441.5","0"],
    [27497,"2013-06-25T12:00:00","24.3","ND","ND","ND","ND","ND","1","31.2","27.2","58","282.6","0"],
    [27498,"2013-06-25T13:00:00","13.9","ND","ND","ND","ND","ND","1.4","23.5","28.9","52.1","701.7","0"],
    [27499,"2013-06-25T14:00:00","8.6","ND","ND","ND","ND","ND","1.6","76.3","29.7","50.4","647.7","0"],
    [27500,"2013-06-25T15:00:00","6.2","ND","ND","ND","ND","ND","1.5","301.1","29","53","151.6","0"],
    [27501,"2013-06-25T16:00:00","4.6","ND","ND","ND","ND","ND","2","267.8","28.2","54.8","77.4","0"],
    [27502,"2013-06-25T17:00:00","3.6","ND","ND","ND","ND","ND","1.6","267.7","28.4","53.7","143.7","0"],
    [27503,"2013-06-25T18:00:00","3.3","ND","ND","ND","ND","ND","1.2","284.6","28.3","52.2","51.4","0"],
    [27504,"2013-06-25T19:00:00","3.3","ND","ND","ND","ND","ND","0.1","272.5","27.9","53.2","4.1","0"],
    [27505,"2013-06-25T20:00:00","9.2","ND","ND","ND","ND","ND","0.3","58.3","27.5","54.7","0","0"],
    [27506,"2013-06-25T21:00:00","5.8","ND","ND","ND","ND","ND","0.6","155","27.1","56.1","0","0"],
    [27507,"2013-06-25T22:00:00","12.7","ND","ND","ND","ND","ND","0.5","60.8","26.6","59","0","0"],
    [27508,"2013-06-25T23:00:00","14.1","ND","ND","ND","ND","ND","0.9","124.8","26","63.2","0","0"],
    [27509,"2013-06-26T00:00:00","47","ND","ND","ND","ND","ND","0.4","73","25.4","66.1","0","0"],
    [27510,"2013-06-26T01:00:00","29.8","ND","ND","ND","ND","ND","0.6","332.7","24.2","73.4","0","0"],
    [27511,"2013-06-26T02:00:00","46","ND","ND","ND","ND","ND","0.4","304.9","23.8","75.1","0","0"],
    [27512,"2013-06-26T03:00:00","43.7","ND","ND","ND","ND","ND","0.1","159.9","23.6","76.5","0","0"],
    [27513,"2013-06-26T04:00:00","30.6","ND","ND","ND","ND","ND","0.2","315","23.2","78.7","0","0"],
    [27514,"2013-06-26T05:00:00","16.6","ND","ND","ND","ND","ND","0.4","22.9","22.8","80.2","0","0"],
    [27515,"2013-06-26T06:00:00","45.7","ND","ND","ND","ND","ND","0.7","147.9","23.1","80.1","0","0"],
    [27516,"2013-06-26T07:00:00","48.9","ND","ND","ND","ND","ND","0.5","351.2","22.8","82","15.7","0"],
    [27517,"2013-06-26T08:00:00","69.5","ND","ND","ND","ND","ND","0.2","233.9","23.3","79.5","40.3","0"],
    [27518,"2013-06-26T09:00:00","62.2","ND","ND","ND","ND","ND","0.9","186","24.5","75.2","256.8","0"],
    [27519,"2013-06-26T10:00:00","46.9","ND","ND","ND","ND","ND","1.4","169.4","26.6","63.7","554.5","0"],
    [27520,"2013-06-26T11:00:00","24.2","ND","ND","ND","ND","ND","1.9","139.3","28.1","57.1","660.2","0"],
    [27521,"2013-06-26T12:00:00","30.2","ND","ND","ND","ND","ND","1.2","143.7","29.1","53.9","689.3","0"],
    [27522,"2013-06-26T13:00:00","27.6","ND","ND","ND","ND","ND","1","135.1","30.5","49","728.6","0"],
    [27523,"2013-06-26T14:00:00","20","ND","ND","ND","ND","ND","1.1","47.2","30.8","47.9","427.8","0"],
    [27524,"2013-06-26T15:00:00","16.9","ND","ND","ND","ND","ND","3.1","287.2","30.5","50.5","485.2","0"],
    [27525,"2013-06-26T16:00:00","9.8","ND","ND","ND","ND","ND","2.9","262.3","30.4","49.5","341.5","0"],
    [27526,"2013-06-26T17:00:00","5.9","ND","ND","ND","ND","ND","1.4","274","30.9","47.3","254.6","0"],
    [27527,"2013-06-26T18:00:00","10.6","ND","ND","ND","ND","ND","1.5","276","29.3","49.6","67.3","0"],
    [27528,"2013-06-26T19:00:00","7.6","ND","ND","ND","ND","ND","0.8","101.7","28.4","53","0","0"],
    [27529,"2013-06-26T20:00:00","24","ND","ND","ND","ND","ND","0.3","75.8","27.7","54.2","0","0"],
    [27530,"2013-06-26T21:00:00","35","ND","ND","ND","ND","ND","1","135.9","27.3","57.6","0","0"],
    [27531,"2013-06-26T22:00:00","34","ND","ND","ND","ND","ND","0.5","66.8","25.9","64","0","0"],
    [27532,"2013-06-26T23:00:00","43.2","ND","ND","ND","ND","ND","0.4","116","25.2","67.1","0","0"],
    [27533,"2013-06-27T00:00:00","57.4","ND","ND","ND","ND","ND","0.2","338.2","24","72.6","0","0"],
    [27534,"2013-06-27T01:00:00","33.4","ND","ND","ND","ND","ND","0.3","311.5","23.5","74.9","0","0"],
    [27535,"2013-06-27T02:00:00","39","ND","ND","ND","ND","ND","0.3","226.9","23.2","76.8","0","0"],
    [27536,"2013-06-27T03:00:00","28.1","ND","ND","ND","ND","ND","0.2","245.9","23.5","76.3","0","0"],
    [27537,"2013-06-27T04:00:00","38.7","ND","ND","ND","ND","ND","0.3","278.6","23.2","78.2","0","0"],
    [27538,"2013-06-27T05:00:00","20.4","ND","ND","ND","ND","ND","0.2","295.3","23.4","77.5","0","0"],
    [27539,"2013-06-27T06:00:00","19.6","ND","ND","ND","ND","ND","0.5","225.4","23.5","76.8","0","0"],
    [27540,"2013-06-27T07:00:00","18.7","ND","ND","ND","ND","ND","0.6","50.2","23.3","78.3","14.3","0"],
    [27541,"2013-06-27T08:00:00","50.7","ND","ND","ND","ND","ND","0.3","220.7","23.5","79.3","89.2","0"],
    [27542,"2013-06-27T09:00:00","47.5","ND","ND","ND","ND","ND","0.7","164.9","24.7","71.5","89.7","0"],
    [27543,"2013-06-27T10:00:00","44.1","ND","ND","ND","ND","ND","0.4","85.8","26","66.4","286.1","0"],
    [27544,"2013-06-27T11:00:00","33.1","ND","ND","ND","ND","ND","0.8","116.7","26.6","65.1","201.5","0"],
    [27545,"2013-06-27T12:00:00","53.1","ND","ND","ND","ND","ND","0.3","195.7","27.4","62.3","528.7","0"],
    [27546,"2013-06-27T13:00:00","33.5","ND","ND","ND","ND","ND","0.1","42.5","29.2","54.4","613.4","0"],
    [27547,"2013-06-27T14:00:00","32.2","ND","ND","ND","ND","ND","1.2","91.5","29.9","52.8","573.9","0"],
    [27548,"2013-06-27T15:00:00","34.4","ND","ND","ND","ND","ND","1.8","305.2","30.5","51.3","492.9","0"],
    [27549,"2013-06-27T16:00:00","19.4","ND","ND","ND","ND","ND","2.7","275","30.5","47.3","360.5","0"],
    [27550,"2013-06-27T17:00:00","15.7","ND","ND","ND","ND","ND","3.6","281.5","29.4","49.5","195.7","0"],
    [27551,"2013-06-27T18:00:00","10.8","ND","ND","ND","ND","ND","1.2","287.6","27.9","53.5","32.4","0"],
    [27552,"2013-06-27T19:00:00","6.1","ND","ND","ND","ND","ND","0.8","89.3","27.4","55.1","0","0"],
    [27553,"2013-06-27T20:00:00","15.9","ND","ND","ND","ND","ND","1","65.8","26.3","58.3","0","0"],
    [27554,"2013-06-27T21:00:00","12.2","ND","ND","ND","ND","ND","0.8","126.4","25.9","56.1","0","0"],
    [27555,"2013-06-27T22:00:00","28.5","ND","ND","ND","ND","ND","1.2","127.7","25.4","57.5","0","0"],
    [27556,"2013-06-27T23:00:00","15","ND","ND","ND","ND","ND","1","87.9","25","58.9","0","0"],
    [27557,"2013-06-28T00:00:00","14.4","ND","ND","ND","ND","ND","2.1","145.6","23.8","65.4","0","0"],
    [27558,"2013-06-28T01:00:00","11.3","ND","ND","ND","ND","ND","1.3","154.3","23","72.8","0","0"],
    [27559,"2013-06-28T02:00:00","6.3","ND","ND","ND","ND","ND","0.8","187.2","22.9","75.1","0","0"],
    [27560,"2013-06-28T03:00:00","5.4","ND","ND","ND","ND","ND","0.2","208.6","22.4","76.3","0","0"],
    [27561,"2013-06-28T04:00:00","23.7","ND","ND","ND","ND","ND","0.3","272.9","21.6","83.1","0","0.25"],
    [27562,"2013-06-28T05:00:00","12.9","ND","ND","ND","ND","ND","0.4","142.5","21.7","83.1","0","0"],
    [27563,"2013-06-28T06:00:00","23.7","ND","ND","ND","ND","ND","0.5","49.6","21.2","85.4","0","0"],
    [27564,"2013-06-28T07:00:00","29.7","ND","ND","ND","ND","ND","0.3","251.5","21.3","84.8","17.6","0"],
    [27565,"2013-06-28T08:00:00","30.3","ND","ND","ND","ND","ND","0.2","273.7","22.3","79.8","96.7","0"],
    [27566,"2013-06-28T09:00:00","17","ND","ND","ND","ND","ND","0.4","60.1","23.9","71.4","268.3","0"],
    [27567,"2013-06-28T10:00:00","32.3","ND","ND","ND","ND","ND","2","55.4","24.6","66.4","450.5","0"],
    [27568,"2013-06-28T11:00:00","28.6","ND","ND","ND","ND","ND","1.4","64.5","25.4","63.8","480.5","0"],
    [27569,"2013-06-28T12:00:00","16.4","ND","ND","ND","ND","ND","1","34.9","26.2","60.9","448.1","0"],
    [27570,"2013-06-28T13:00:00","9.1","ND","ND","ND","ND","ND","1.3","59.4","27.4","57.3","504","0"],
    [27571,"2013-06-28T14:00:00","6.1","ND","ND","ND","ND","ND","1.8","57.9","28.2","55.4","626.3","0"],
    [27572,"2013-06-28T15:00:00","7.9","ND","ND","ND","ND","ND","2.1","48.8","27.6","57.6","177.8","0"],
    [27573,"2013-06-28T16:00:00","5.2","ND","ND","ND","ND","ND","1.4","306.3","28","52.7","254.8","0"],
    [27574,"2013-06-28T17:00:00","3.9","ND","ND","ND","ND","ND","1.9","314.9","27.3","53.4","102.5","0"],
    [27575,"2013-06-28T18:00:00","16.6","ND","ND","ND","ND","ND","0.9","357.5","26.4","57.8","24.9","0"],
    [27576,"2013-06-28T19:00:00","17.1","ND","ND","ND","ND","ND","0.1","68.1","25.9","57.9","0","0"],
    [27577,"2013-06-28T20:00:00","16.9","ND","ND","ND","ND","ND","0.2","77.1","25.6","59.7","0","0"],
    [27578,"2013-06-28T21:00:00","10.2","ND","ND","ND","ND","ND","0.9","104.9","25.2","62.7","0","0"],
    [27579,"2013-06-28T22:00:00","16","ND","ND","ND","ND","ND","0.7","324.3","24","69.6","0","0"],
    [27580,"2013-06-28T23:00:00","17.2","ND","ND","ND","ND","ND","0.9","315","23.8","71.5","0","0"],
    [27581,"2013-06-29T00:00:00","40.7","ND","ND","ND","ND","ND","1.2","0.8","22.9","77.5","0","0"],
    [27582,"2013-06-29T01:00:00","46.6","ND","ND","ND","ND","ND","0.9","12.4","22.4","78.8","0","0"],
    [27583,"2013-06-29T02:00:00","33.3","ND","ND","ND","ND","ND","0.4","298.3","22.4","79","0","0"],
    [27584,"2013-06-29T03:00:00","23.4","ND","ND","ND","ND","ND","0.4","353.6","22","80.5","0","0"],
    [27585,"2013-06-29T04:00:00","64.7","ND","ND","ND","ND","ND","0.6","61.2","21.6","82.5","0","0"],
    [27586,"2013-06-29T05:00:00","35.7","ND","ND","ND","ND","ND","0.3","179.8","21.4","83.5","0","0"],
    [27587,"2013-06-29T06:00:00","33","ND","ND","ND","ND","ND","0.3","278.9","21.1","84","0","0"],
    [27588,"2013-06-29T07:00:00","31.9","ND","ND","ND","ND","ND","0.3","233.7","21.7","81.6","17.2","0"],
    [27589,"2013-06-29T08:00:00","31.9","ND","ND","ND","ND","ND","0.6","38.1","22.5","78.9","105.7","0"],
    [27590,"2013-06-29T09:00:00","38","ND","ND","ND","ND","ND","0.7","76","24","73","426.7","0"],
    [27591,"2013-06-29T10:00:00","29.2","ND","ND","ND","ND","ND","1.3","45.5","25.4","66.3","714.5","0"],
    [27592,"2013-06-29T11:00:00","22.9","ND","ND","ND","ND","ND","1.2","66.4","26.6","60.8","721.1","0"],
    [27593,"2013-06-29T12:00:00","23.2","ND","ND","ND","ND","ND","0.9","74.5","27.9","53.6","668.1","0"],
    [27594,"2013-06-29T13:00:00","13.3","ND","ND","ND","ND","ND","0.7","86.2","29.3","49.4","598.5","0"],
    [27595,"2013-06-29T14:00:00","8.4","ND","ND","ND","ND","ND","0.8","43.5","29.6","46.5","473.1","0"],
    [27596,"2013-06-29T15:00:00","5.9","ND","ND","ND","ND","ND","2","323.8","29.2","49.1","225.3","0"],
    [27597,"2013-06-29T16:00:00","19.5","ND","ND","ND","ND","ND","2.6","281.6","28.6","50.4","271.3","0"],
    [27598,"2013-06-29T17:00:00","10.8","ND","ND","ND","ND","ND","3.8","271","28.1","50.3","289.2","0"],
    [27599,"2013-06-29T18:00:00","7.2","ND","ND","ND","ND","ND","1.8","294.8","27.9","48.9","111.2","0"],
    [27600,"2013-06-29T19:00:00","4.5","ND","ND","ND","ND","ND","0.1","33.3","26.9","50.8","0","0"],
    [27601,"2013-06-29T20:00:00","4","ND","ND","ND","ND","ND","0.7","97.2","26.6","52.9","0","0"],
    [27602,"2013-06-29T21:00:00","7.6","ND","ND","ND","ND","ND","1.5","205.2","25.8","56.1","0","0"],
    [27603,"2013-06-29T22:00:00","5.5","ND","ND","ND","ND","ND","1.6","227.2","24.7","60.7","0","0"],
    [27604,"2013-06-29T23:00:00","3.3","ND","ND","ND","ND","ND","0.6","313.9","23.7","67.1","0","0"],
    [27605,"2013-06-30T00:00:00","14.7","ND","ND","ND","ND","ND","0.6","330.6","23.1","69.5","0","0"],
    [27606,"2013-06-30T01:00:00","11.4","ND","ND","ND","ND","ND","0.3","14.8","23","70.7","0","0"],
    [27607,"2013-06-30T02:00:00","25.2","ND","ND","ND","ND","ND","0.9","13.1","22","75.3","0","0"],
    [27608,"2013-06-30T03:00:00","14","ND","ND","ND","ND","ND","0.7","338.8","21.3","78.2","0","0"],
    [27609,"2013-06-30T04:00:00","26","ND","ND","ND","ND","ND","0.4","333.9","21.4","77.1","0","0"],
    [27610,"2013-06-30T05:00:00","16","ND","ND","ND","ND","ND","0.3","237","21.7","75.3","0","0"],
    [27611,"2013-06-30T06:00:00","19.8","ND","ND","ND","ND","ND","0.4","352.6","21.8","75.9","0","0"],
    [27612,"2013-06-30T07:00:00","23.3","ND","ND","ND","ND","ND","0.6","36.9","21.1","80.5","9.1","0"],
    [27613,"2013-06-30T08:00:00","64.3","ND","ND","ND","ND","ND","0.5","29.7","21.2","81.2","50.2","0"],
    [27614,"2013-06-30T09:00:00","57.9","ND","ND","ND","ND","ND","0.7","20.7","21.8","80.4","99.9","0"],
    [27615,"2013-06-30T10:00:00","79.4","ND","ND","ND","ND","ND","1","20.6","22.2","79.5","215.2","0"],
    [27616,"2013-06-30T11:00:00","45.5","ND","ND","ND","ND","ND","1.3","47.7","23.3","73","325.4","0"],
    [27617,"2013-06-30T12:00:00","43.9","ND","ND","ND","ND","ND","1.5","52.3","23.6","74.1","282.8","0"],
    [27618,"2013-06-30T13:00:00","29.6","ND","ND","ND","ND","ND","0.9","43.8","24.3","70.8","339.9","0"],
    [27619,"2013-06-30T14:00:00","15.9","ND","ND","ND","ND","ND","0.6","56.3","25.3","64.7","439.6","0"],
    [27620,"2013-06-30T15:00:00","9.7","ND","ND","ND","ND","ND","1.4","295.3","26.7","59.6","662.4","0"],
    [27621,"2013-06-30T16:00:00","7.9","ND","ND","ND","ND","ND","0.9","287.9","28.2","53.5","478.8","0"],
    [27622,"2013-06-30T17:00:00","5.8","ND","ND","ND","ND","ND","0.5","38.7","28.2","52.5","227.4","0"],
    [27623,"2013-06-30T18:00:00","3.8","ND","ND","ND","ND","ND","0.9","320.8","27.5","51.5","72.2","0"],
    [27624,"2013-06-30T19:00:00","4.8","ND","ND","ND","ND","ND","0.9","274.8","26.2","54.7","0","0"],
    [27625,"2013-06-30T20:00:00","4.9","ND","ND","ND","ND","ND","0.2","44.3","25.3","57.4","0","0"],
    [27626,"2013-06-30T21:00:00","4.2","ND","ND","ND","ND","ND","0.2","102.7","24.9","59.4","0","0"],
    [27627,"2013-06-30T22:00:00","12.2","ND","ND","ND","ND","ND","0.8","143.7","24","63.8","0","0"],
    [27628,"2013-06-30T23:00:00","8.4","ND","ND","ND","ND","ND","0.4","212.5","23.2","69.2","0","0"],
    [27629,"2013-07-01T00:00:00","14.7","ND","ND","ND","ND","ND","0.5","170.7","23.1","70.8","0","0"],
    [27630,"2013-07-01T01:00:00","9.6","ND","ND","ND","ND","ND","0.8","155","22.5","74.6","0","0"],
    [27631,"2013-07-01T02:00:00","8.6","ND","ND","ND","ND","ND","0.6","321.8","22.1","76.1","0","0"],
    [27632,"2013-07-01T03:00:00","17.1","ND","ND","ND","ND","ND","0.7","36","21.4","80.6","0","0"],
    [27633,"2013-07-01T04:00:00","10.8","ND","ND","ND","ND","ND","0.9","349","20.9","83.1","0","0"],
    [27634,"2013-07-01T05:00:00","7.3","ND","ND","ND","ND","ND","0.1","48.6","20.4","85.5","0","0"],
    [27635,"2013-07-01T06:00:00","4.3","ND","ND","ND","ND","ND","0.5","345.7","20","86.1","0","0"],
    [27636,"2013-07-01T07:00:00","4.2","ND","ND","ND","ND","ND","0.3","49","20.3","85","17.1","0"],
    [27637,"2013-07-01T08:00:00","32.8","ND","ND","ND","ND","ND","0.6","48.3","21","82.5","114.7","0"],
    [27638,"2013-07-01T09:00:00","18.5","ND","ND","ND","ND","ND","0.5","13.7","22.5","74.7","226.2","0"],
    [27639,"2013-07-01T10:00:00","23.8","ND","ND","ND","ND","ND","0.8","25.3","24.6","65.9","524.9","0"],
    [27640,"2013-07-01T11:00:00","13.8","ND","ND","ND","ND","ND","1.6","35.4","25.7","62","599.7","0"],
    [27641,"2013-07-01T12:00:00","8.6","ND","ND","ND","ND","ND","1.1","72","27.2","55.5","743.2","0"],
    [27642,"2013-07-01T13:00:00","6.4","ND","ND","ND","ND","ND","1.1","77.4","28.6","49.9","662.5","0"],
    [27643,"2013-07-01T14:00:00","4.2","ND","ND","ND","ND","ND","1.3","72.3","29.2","49.8","645.2","0"],
    [27644,"2013-07-01T15:00:00","4.1","ND","ND","ND","ND","ND","1.1","30.7","29","51.1","257.4","0"],
    [27645,"2013-07-01T16:00:00","3.6","ND","ND","ND","ND","ND","2.1","262","28.4","51.8","213","0"],
    [27646,"2013-07-01T17:00:00","2.3","ND","ND","ND","ND","ND","1.9","283.1","28.3","50.3","205.7","0"],
    [27647,"2013-07-01T18:00:00","2.3","ND","ND","ND","ND","ND","0.4","19.6","27.5","51.7","31.1","0"],
    [27648,"2013-07-01T19:00:00","5.8","ND","ND","ND","ND","ND","0.6","20.1","26.7","53.3","0","0"],
    [27649,"2013-07-01T20:00:00","6.2","ND","ND","ND","ND","ND","1.6","42.3","24.6","65.9","0","0"],
    [27650,"2013-07-01T21:00:00","4.2","ND","ND","ND","ND","ND","0.7","98.9","22.9","78.6","0","0"],
    [27651,"2013-07-01T22:00:00","15.5","ND","ND","ND","ND","ND","0.7","132.6","22.5","81.3","0","0"],
    [27652,"2013-07-01T23:00:00","9","ND","ND","ND","ND","ND","0.8","140.4","22.2","82.3","0","0"],
    [27653,"2013-07-02T00:00:00","6.9","ND","ND","ND","ND","ND","0.7","191.4","22.1","81.8","0","0"],
    [27654,"2013-07-02T01:00:00","5.6","ND","ND","ND","ND","ND","0.5","72.1","21.6","82.6","0","0"],
    [27655,"2013-07-02T02:00:00","5.9","ND","ND","ND","ND","ND","0.4","35.8","20.5","88.5","0","0"],
    [27656,"2013-07-02T03:00:00","18.3","ND","ND","ND","ND","ND","0.2","279.1","20.2","89.2","0","0"],
    [27657,"2013-07-02T04:00:00","15.9","ND","ND","ND","ND","ND","0.3","21.1","20","89.5","0","0"],
    [27658,"2013-07-02T05:00:00","12.7","ND","ND","ND","ND","ND","0.4","318","19.8","91.4","0","0"],
    [27659,"2013-07-02T06:00:00","25","ND","ND","ND","ND","ND","0.5","56.4","20.3","88.7","0","0"],
    [27660,"2013-07-02T07:00:00","31","ND","ND","ND","ND","ND","0.2","29.5","20.1","89.6","6.1","0"],
    [27661,"2013-07-02T08:00:00","47","ND","ND","ND","ND","ND","0.7","36.9","20.8","86.7","42.9","0"],
    [27662,"2013-07-02T09:00:00","31.4","ND","ND","ND","ND","ND","0.9","99.7","22.2","81.1","244.8","0"],
    [27663,"2013-07-02T10:00:00","38.3","ND","ND","ND","ND","ND","0.8","190.4","23.3","74.3","275.9","0"],
    [27664,"2013-07-02T11:00:00","31.2","ND","ND","ND","ND","ND","1","181.1","24.4","68.4","293.1","0"],
    [27665,"2013-07-02T12:00:00","21.9","ND","ND","ND","ND","ND","0.8","117.8","26.3","61.1","679.3","0"],
    [27666,"2013-07-02T13:00:00","15.6","ND","ND","ND","ND","ND","1.1","97.6","26.9","58.7","318.5","0"],
    [27667,"2013-07-02T14:00:00","28.6","ND","ND","ND","ND","ND","0.8","62.1","27.2","57.1","361.5","0"],
    [27668,"2013-07-02T15:00:00","15.9","ND","ND","ND","ND","ND","0.1","1.7","27.8","55.5","427.4","0"],
    [27669,"2013-07-02T16:00:00","19.7","ND","ND","ND","ND","ND","1.1","130.2","28.5","53.6","454.4","0"],
    [27670,"2013-07-02T17:00:00","12.5","ND","ND","ND","ND","ND","0.9","87.4","28.6","53.1","245.9","0"],
    [27671,"2013-07-02T18:00:00","23.5","ND","ND","ND","ND","ND","1.9","219.9","27.9","53.4","109.8","0"],
    [27672,"2013-07-02T19:00:00","13.2","ND","ND","ND","ND","ND","1","272.5","26.7","51.5","0","0"],
    [27673,"2013-07-02T20:00:00","20.6","ND","ND","ND","ND","ND","0.3","233","26","51.9","0","0"],
    [27674,"2013-07-02T21:00:00","12.5","ND","ND","ND","ND","ND","0.5","251.8","25.5","54.4","0","0"],
    [27675,"2013-07-02T22:00:00","36.8","ND","ND","ND","ND","ND","0.3","121.1","24.3","61.7","0","0"],
    [27676,"2013-07-02T23:00:00","23.3","ND","ND","ND","ND","ND","0.2","318.4","23.1","66.3","0","0"],
    [27677,"2013-07-03T00:00:00","53.6","ND","ND","ND","ND","ND","0.5","343.7","22.2","69.5","0","0"],
    [27678,"2013-07-03T01:00:00","38.2","ND","ND","ND","ND","ND","0.1","262.3","21.7","71.7","0","0"],
    [27679,"2013-07-03T02:00:00","36","ND","ND","ND","ND","ND","0.3","285.2","21","74.1","0","0"],
    [27680,"2013-07-03T03:00:00","20.4","ND","ND","ND","ND","ND","0.4","9.6","20.8","74.6","0","0"],
    [27681,"2013-07-03T04:00:00","26.5","ND","ND","ND","ND","ND","0.7","1.6","20.4","78.8","0","0"],
    [27682,"2013-07-03T05:00:00","38.8","ND","ND","ND","ND","ND","0.7","1.5","20.1","81.9","0","0"],
    [27683,"2013-07-03T06:00:00","44.1","ND","ND","ND","ND","ND","0.5","27.3","20","84","0","0"],
    [27684,"2013-07-03T07:00:00","58.1","ND","ND","ND","ND","ND","0.3","46.8","19.9","86.3","24.6","0"],
    [27685,"2013-07-03T08:00:00","84.2","ND","ND","ND","ND","ND","0.1","302.8","20.9","82.2","98.1","0"],
    [27686,"2013-07-03T09:00:00","63.1","ND","ND","ND","ND","ND","0.6","98.7","23.7","68.7","389.9","0"],
    [27687,"2013-07-03T10:00:00","65.9","ND","ND","ND","ND","ND","1.2","58","25.3","63.3","564.5","0"],
    [27688,"2013-07-03T11:00:00","34.5","ND","ND","ND","ND","ND","1.2","71.1","27.2","55.7","712.5","0"],
    [27689,"2013-07-03T12:00:00","21.6","ND","ND","ND","ND","ND","1","67.9","28.2","52.2","543.2","0"],
    [27690,"2013-07-03T13:00:00","17.4","ND","ND","ND","ND","ND","1.7","57.9","28","53.2","291.7","0"],
    [27691,"2013-07-03T14:00:00","29.2","ND","ND","ND","ND","ND","0.9","349.7","28.3","52.3","446.7","0"],
    [27692,"2013-07-03T15:00:00","16.6","ND","ND","ND","ND","ND","1.5","306.6","29.7","44.5","695.8","0"],
    [27693,"2013-07-03T16:00:00","9.2","ND","ND","ND","ND","ND","1.9","320.6","29.4","44.1","334.9","0"],
    [27694,"2013-07-03T17:00:00","5.6","ND","ND","ND","ND","ND","3.1","274.7","29.1","44.7","283.3","0"],
    [27695,"2013-07-03T18:00:00","3.8","ND","ND","ND","ND","ND","2.7","281.5","28.1","46.4","64","0"],
    [27696,"2013-07-03T19:00:00","2.4","ND","ND","ND","ND","ND","0.6","119.5","27.3","48.6","0","0"],
    [27697,"2013-07-03T20:00:00","29.5","ND","ND","ND","ND","ND","1","107.9","26.5","53.6","0","0"],
    [27698,"2013-07-03T21:00:00","16.2","ND","ND","ND","ND","ND","1.3","173.1","25.1","62.2","0","0"],
    [27699,"2013-07-03T22:00:00","56.4","ND","ND","ND","ND","ND","0.8","297.4","24.4","66","0","0"],
    [27700,"2013-07-03T23:00:00","45.9","ND","ND","ND","ND","ND","0.4","307.8","24","67.1","0","0"],
    [27701,"2013-07-04T00:00:00","47.6","ND","ND","ND","ND","ND","0.3","130.8","23.5","68.4","0","0"],
    [27702,"2013-07-04T01:00:00","47","ND","ND","ND","ND","ND","0.2","59.8","22.9","72.6","0","0"],
    [27703,"2013-07-04T02:00:00","53.7","ND","ND","ND","ND","ND","0.3","124.6","22.1","78.6","0","0"],
    [27704,"2013-07-04T03:00:00","43.3","ND","ND","ND","ND","ND","1.1","246.4","22","78.1","0","0"],
    [27705,"2013-07-04T04:00:00","35.7","ND","ND","ND","ND","ND","1.4","245.1","22.3","74.9","0","0"],
    [27706,"2013-07-04T05:00:00","21.4","ND","ND","ND","ND","ND","0.2","209.4","22.1","73.9","0","0"],
    [27707,"2013-07-04T06:00:00","26.7","ND","ND","ND","ND","ND","0.4","22.9","21.6","77.5","0","0"],
    [27708,"2013-07-04T07:00:00","41.4","ND","ND","ND","ND","ND","0.8","356","21.1","83.8","34.4","0"],
    [27709,"2013-07-04T08:00:00","56.3","ND","ND","ND","ND","ND","1.1","61.5","22.7","75.9","175.3","0"],
    [27710,"2013-07-04T09:00:00","72","ND","ND","ND","ND","ND","0.3","48.2","23.5","72.2","252.9","0"],
    [27711,"2013-07-04T10:00:00","21.4","ND","ND","ND","ND","ND","1.3","141.2","25.7","60.9","562.9","0.25"],
    [27712,"2013-07-04T11:00:00","20.5","ND","ND","ND","ND","ND","2.3","133.7","27.2","54.9","685.5","0"],
    [27713,"2013-07-04T12:00:00","10.8","ND","ND","ND","ND","ND","1.6","134.7","27.6","53.4","763.8","0"],
    [27714,"2013-07-04T13:00:00","7.5","ND","ND","ND","ND","ND","0.9","64","29.1","48.9","707.6","0"],
    [27715,"2013-07-04T14:00:00","7.4","ND","ND","ND","ND","ND","0.8","62.5","29.9","46.8","616.5","0"],
    [27716,"2013-07-04T15:00:00","14.9","ND","ND","ND","ND","ND","1","352.9","30.2","46.5","438","0"],
    [27717,"2013-07-04T16:00:00","18.1","ND","ND","ND","ND","ND","4.1","287.6","29.1","48","279","0"],
    [27718,"2013-07-04T17:00:00","14","ND","ND","ND","ND","ND","4.1","282.5","27.6","50.8","67.6","0"],
    [27719,"2013-07-04T18:00:00","16.2","ND","ND","ND","ND","ND","2.3","279.6","27","51.8","29.9","0"],
    [27720,"2013-07-04T19:00:00","10.2","ND","ND","ND","ND","ND","0.3","89.7","26.9","52.9","0","0"],
    [27721,"2013-07-04T20:00:00","37","ND","ND","ND","ND","ND","1.1","168.8","25.7","58.6","0","0"],
    [27722,"2013-07-04T21:00:00","20.6","ND","ND","ND","ND","ND","1.3","120","25","62","0","0"],
    [27723,"2013-07-04T22:00:00","25.4","ND","ND","ND","ND","ND","0.1","88.1","24.3","65.3","0","0"],
    [27724,"2013-07-04T23:00:00","41.6","ND","ND","ND","ND","ND","0.8","49.5","23.6","68.5","0","0"],
    [27725,"2013-07-05T00:00:00","37.1","ND","ND","ND","ND","ND","0.2","69.5","23","71.4","0","0"],
    [27726,"2013-07-05T01:00:00","20.6","ND","ND","ND","ND","ND","1.2","195.2","23.3","72.1","0","0"],
    [27727,"2013-07-05T02:00:00","18.8","ND","ND","ND","ND","ND","0.2","234.3","23.3","72.5","0","0"],
    [27728,"2013-07-05T03:00:00","16.2","ND","ND","ND","ND","ND","0.3","165.1","22.8","74.4","0","0"],
    [27729,"2013-07-05T04:00:00","26.8","ND","ND","ND","ND","ND","0.9","357.2","21.6","80.7","0","0"],
    [27730,"2013-07-05T05:00:00","15.3","ND","ND","ND","ND","ND","0.4","346.2","21.6","80.5","0","0"],
    [27731,"2013-07-05T06:00:00","29.3","ND","ND","ND","ND","ND","0.5","23.5","21.4","81.8","0","0"],
    [27732,"2013-07-05T07:00:00","43.9","ND","ND","ND","ND","ND","0.2","34.4","21.1","84","6.7","0"],
    [27733,"2013-07-05T08:00:00","92","ND","ND","ND","ND","ND","0.5","59.3","21.9","80.4","45.6","0"],
    [27734,"2013-07-05T09:00:00","69.5","ND","ND","ND","ND","ND","0.1","99.5","23","75.1","169.9","0"],
    [27735,"2013-07-05T10:00:00","78.2","ND","ND","ND","ND","ND","0.9","150.5","24.6","66.7","277.5","0"],
    [27736,"2013-07-05T11:00:00","41","ND","ND","ND","ND","ND","1","181.5","25.9","60.3","467.9","0"],
    [27737,"2013-07-05T12:00:00","28","ND","ND","ND","ND","ND","1.6","103.1","27.1","56.7","652.5","0"],
    [27738,"2013-07-05T13:00:00","19.9","ND","ND","ND","ND","ND","0.1","175.9","28.7","50.2","670.8","0"],
    [27739,"2013-07-05T14:00:00","35.1","ND","ND","ND","ND","ND","1.1","60.5","29.2","49.9","588.2","0"],
    [27740,"2013-07-05T15:00:00","26.3","ND","ND","ND","ND","ND","1.8","10.1","30","47.9","502.6","0"],
    [27741,"2013-07-05T16:00:00","35.6","ND","ND","ND","ND","ND","1","27.1","29.4","47.5","189.3","0"],
    [27742,"2013-07-05T17:00:00","22.7","ND","ND","ND","ND","ND","2","268.8","28.8","49.1","147.9","0"],
    [27743,"2013-07-05T18:00:00","26.9","ND","ND","ND","ND","ND","2.6","250.2","27.7","52.3","34.7","0"],
    [27744,"2013-07-05T19:00:00","14.3","ND","ND","ND","ND","ND","1.4","132.1","26.8","58.8","0","0"],
    [27745,"2013-07-05T20:00:00","38.5","ND","ND","ND","ND","ND","1.4","181.6","25.5","63.3","0","0"],
    [27746,"2013-07-05T21:00:00","21.4","ND","ND","ND","ND","ND","0.2","234.3","25.2","61.8","0","0"],
    [27747,"2013-07-05T22:00:00","33.6","ND","ND","ND","ND","ND","0.3","159.8","24.4","64.4","0","0"],
    [27748,"2013-07-05T23:00:00","27.5","ND","ND","ND","ND","ND","0.8","287.4","23.3","72.2","0","0"],
    [27749,"2013-07-06T00:00:00","30.6","ND","ND","ND","ND","ND","0.6","284","23","71.2","0","0"],
    [27750,"2013-07-06T01:00:00","17.7","ND","ND","ND","ND","ND","0.6","195","23.1","71","0","0"],
    [27751,"2013-07-06T02:00:00","8.9","ND","ND","ND","ND","ND","0.1","348.9","23","72.1","0","0"],
    [27752,"2013-07-06T03:00:00","6.3","ND","ND","ND","ND","ND","0.6","342.1","22.2","78.7","0","0"],
    [27753,"2013-07-06T04:00:00","39.7","ND","ND","ND","ND","ND","1.3","359.9","21.5","83.6","0","0"],
    [27754,"2013-07-06T05:00:00","26.1","ND","ND","ND","ND","ND","1.1","19.5","20.9","88.6","0","0"],
    [27755,"2013-07-06T06:00:00","44.8","ND","ND","ND","ND","ND","0.5","55.1","20.6","90.1","0","0"],
    [27756,"2013-07-06T07:00:00","56.6","ND","ND","ND","ND","ND","0.4","340","20.8","88.6","37.3","0"],
    [27757,"2013-07-06T08:00:00","58.7","ND","ND","ND","ND","ND","0.1","282.1","22.2","81.6","120.7","0"],
    [27758,"2013-07-06T09:00:00","45","ND","ND","ND","ND","ND","0.6","116.8","24.4","68.2","375.6","0"],
    [27759,"2013-07-06T10:00:00","50.8","ND","ND","ND","ND","ND","0.8","103.7","25.8","63.2","523.8","0"],
    [27760,"2013-07-06T11:00:00","33.1","ND","ND","ND","ND","ND","1.3","52.4","26.8","58.6","697.7","0"],
    [27761,"2013-07-06T12:00:00","36.2","ND","ND","ND","ND","ND","1.1","75.6","28.2","52.5","617","0"],
    [27762,"2013-07-06T13:00:00","21.9","ND","ND","ND","ND","ND","0.2","59.7","29.1","48.3","473.8","0"],
    [27763,"2013-07-06T14:00:00","31.6","ND","ND","ND","ND","ND","0.8","87.2","31.2","42.2","846.2","0"],
    [27764,"2013-07-06T15:00:00","28.4","ND","ND","ND","ND","ND","2.1","12.4","31.2","43.8","634.8","0"],
    [27765,"2013-07-06T16:00:00","37.1","ND","ND","ND","ND","ND","1.5","310.2","31.4","42.5","482.1","0"],
    [27766,"2013-07-06T17:00:00","20.3","ND","ND","ND","ND","ND","3.1","277","30","44.4","291","0"],
    [27767,"2013-07-06T18:00:00","32.6","ND","ND","ND","ND","ND","2.4","272.8","29","46.6","113.4","0"],
    [27768,"2013-07-06T19:00:00","19.6","ND","ND","ND","ND","ND","0.6","110.3","27.9","49.8","0","0"],
    [27769,"2013-07-06T20:00:00","21.6","ND","ND","ND","ND","ND","1.4","119.5","27.5","52.4","0","0"],
    [27770,"2013-07-06T21:00:00","12.9","ND","ND","ND","ND","ND","0.5","80.8","26.8","54.1","0","0"],
    [27771,"2013-07-06T22:00:00","22.2","ND","ND","ND","ND","ND","1.4","127.9","26.5","56.3","0","0"],
    [27772,"2013-07-06T23:00:00","44.4","ND","ND","ND","ND","ND","0.7","163.7","25.2","62.4","0","0"],
    [27773,"2013-07-07T00:00:00","50.6","ND","ND","ND","ND","ND","0.9","95.4","24.5","67.2","0","0"],
    [27774,"2013-07-07T01:00:00","53.6","ND","ND","ND","ND","ND","0.2","321.1","23.9","70.6","0","0"],
    [27775,"2013-07-07T02:00:00","46.3","ND","ND","ND","ND","ND","0.3","6.7","23.2","73.5","0","0"],
    [27776,"2013-07-07T03:00:00","23.8","ND","ND","ND","ND","ND","0.5","341","21.8","79.6","0","0"],
    [27777,"2013-07-07T04:00:00","31.6","ND","ND","ND","ND","ND","0.4","295.1","21.5","79.9","0","0"],
    [27778,"2013-07-07T05:00:00","24.5","ND","ND","ND","ND","ND","0.3","358.8","21.6","79.5","0","0"],
    [27779,"2013-07-07T06:00:00","46.2","ND","ND","ND","ND","ND","0.4","31","21.8","78.9","0","0"],
    [27780,"2013-07-07T07:00:00","38.8","ND","ND","ND","ND","ND","0.6","42.2","21.7","80.2","19.1","0"],
    [27781,"2013-07-07T08:00:00","48.7","ND","ND","ND","ND","ND","0.1","309.9","22.8","76.5","154.5","0"],
    [27782,"2013-07-07T09:00:00","25","ND","ND","ND","ND","ND","0.7","136.7","24.7","67.1","393.4","0"],
    [27783,"2013-07-07T10:00:00","47.9","ND","ND","ND","ND","ND","0.9","65.3","26.4","61.3","581.2","0"],
    [27784,"2013-07-07T11:00:00","25.2","ND","ND","ND","ND","ND","1","58.2","27.8","56","667.7","0"],
    [27785,"2013-07-07T12:00:00","27.6","ND","ND","ND","ND","ND","1.2","76.8","29.3","51.9","769.1","0"],
    [27786,"2013-07-07T13:00:00","16.8","ND","ND","ND","ND","ND","1.5","79.3","29.8","51.2","539.2","0"],
    [27787,"2013-07-07T14:00:00","33.7","ND","ND","ND","ND","ND","1.3","257.1","29.8","50.1","403.9","0"],
    [27788,"2013-07-07T15:00:00","17.6","ND","ND","ND","ND","ND","2.2","269.3","30.3","47.6","427.5","0"],
    [27789,"2013-07-07T16:00:00","28.1","ND","ND","ND","ND","ND","1.8","311.4","28.2","55.8","129.9","0"],
    [27790,"2013-07-07T17:00:00","15.2","ND","ND","ND","ND","ND","1.5","280.2","29.8","45.9","264.1","0"],
    [27791,"2013-07-07T18:00:00","16.5","ND","ND","ND","ND","ND","2.1","271.3","29.3","46.4","117.9","0"],
    [27792,"2013-07-07T19:00:00","12.1","ND","ND","ND","ND","ND","1.8","265","28.2","49","0","0"],
    [27793,"2013-07-07T20:00:00","6.9","ND","ND","ND","ND","ND","0.5","63.8","27.3","53.1","0","0"],
    [27794,"2013-07-07T21:00:00","10.7","ND","ND","ND","ND","ND","0.9","73.1","26.5","57.3","0","0"],
    [27795,"2013-07-07T22:00:00","21.2","ND","ND","ND","ND","ND","0.8","158.2","25.8","60.8","0","0"],
    [27796,"2013-07-07T23:00:00","11.2","ND","ND","ND","ND","ND","0.5","75.1","24.6","66","0","0"],
    [27797,"2013-07-08T00:00:00","23.6","ND","ND","ND","ND","ND","0.3","212.4","23.9","68","0","0"],
    [27798,"2013-07-08T01:00:00","13.5","ND","ND","ND","ND","ND","0.4","155.6","23.7","69.4","0","0"],
    [27799,"2013-07-08T02:00:00","6.8","ND","ND","ND","ND","ND","0.4","31.8","23.4","71.8","0","0"],
    [27800,"2013-07-08T03:00:00","4.5","ND","ND","ND","ND","ND","0.4","86.4","23","73","0","0"],
    [27801,"2013-07-08T04:00:00","11.1","ND","ND","ND","ND","ND","1.9","173.2","22.9","74.9","0","0"],
    [27802,"2013-07-08T05:00:00","6.1","ND","ND","ND","ND","ND","0.4","96.1","22.4","80.4","0","0"],
    [27803,"2013-07-08T06:00:00","12.9","ND","ND","ND","ND","ND","0.6","143.6","22.5","80","0","0"],
    [27804,"2013-07-08T07:00:00","7.2","ND","ND","ND","ND","ND","1","180.9","22","84.1","11.9","0"],
    [27805,"2013-07-08T08:00:00","33.2","ND","ND","ND","ND","ND","0.4","276.6","22.4","83.3","76.8","0"],
    [27806,"2013-07-08T09:00:00","42.3","ND","ND","ND","ND","ND","0.8","51.2","23.3","78.8","154.9","0"],
    [27807,"2013-07-08T10:00:00","58.7","ND","ND","ND","ND","ND","0.4","47.7","25.1","68.1","460.4","0"],
    [27808,"2013-07-08T11:00:00","31.1","ND","ND","ND","ND","ND","1.5","120.8","26.5","61.2","596.6","0"],
    [27809,"2013-07-08T12:00:00","38.1","ND","ND","ND","ND","ND","1.4","126.6","27.8","56.7","680.7","0"],
    [27810,"2013-07-08T13:00:00","20.3","ND","ND","ND","ND","ND","1.3","167.2","28.8","53.5","763.7","0"],
    [27811,"2013-07-08T14:00:00","27","ND","ND","ND","ND","ND","1.3","138","29.7","50","624.4","0"],
    [27812,"2013-07-08T15:00:00","14.3","ND","ND","ND","ND","ND","1","92.7","30.6","46.3","516.5","0"],
    [27813,"2013-07-08T16:00:00","26.5","ND","ND","ND","ND","ND","1.2","34","31.5","43.9","490.6","0"],
    [27814,"2013-07-08T17:00:00","27.6","ND","ND","ND","ND","ND","1.2","283.8","31.2","44.7","257.7","0"],
    [27815,"2013-07-08T18:00:00","28.2","ND","ND","ND","ND","ND","2","257.7","29.9","46.8","87.5","0"],
    [27816,"2013-07-08T19:00:00","29.5","ND","ND","ND","ND","ND","0.5","242.2","28.4","49.2","0","0"],
    [27817,"2013-07-08T20:00:00","18.4","ND","ND","ND","ND","ND","0.7","109.3","27.7","51.4","0","0"],
    [27818,"2013-07-08T21:00:00","10.1","ND","ND","ND","ND","ND","0.8","101.6","27.1","54.5","0","0"],
    [27819,"2013-07-08T22:00:00","54.5","ND","ND","ND","ND","ND","0.6","133.4","25.7","60.7","0","0"],
    [27820,"2013-07-08T23:00:00","62.8","ND","ND","ND","ND","ND","0.7","158.4","24.7","66.2","0","0"],
    [27821,"2013-07-09T00:00:00","48.6","ND","ND","ND","ND","ND","0.4","159","24.7","66.2","0","0"],
    [27822,"2013-07-09T01:00:00","26.7","ND","ND","ND","ND","ND","0.6","110.2","24","70.2","0","0"],
    [27823,"2013-07-09T02:00:00","16","ND","ND","ND","ND","ND","0.2","149.6","23.2","75.3","0","0"],
    [27824,"2013-07-09T03:00:00","26.8","ND","ND","ND","ND","ND","0.4","134.4","23","76.9","0","0"],
    [27825,"2013-07-09T04:00:00","17.3","ND","ND","ND","ND","ND","0.3","269.7","22.3","79.4","0","0"],
    [27826,"2013-07-09T05:00:00","9.4","ND","ND","ND","ND","ND","0.1","327.7","21.9","80.9","0","0"],
    [27827,"2013-07-09T06:00:00","24","ND","ND","ND","ND","ND","0.4","226.8","22","80.9","0","0"],
    [27828,"2013-07-09T07:00:00","32.1","ND","ND","ND","ND","ND","0.4","185.2","22.7","77.7","13.8","0"],
    [27829,"2013-07-09T08:00:00","23.4","ND","ND","ND","ND","ND","0.5","182.3","23.5","72.2","107.5","0"],
    [27830,"2013-07-09T09:00:00","30.6","ND","ND","ND","ND","ND","0.9","127.7","24.8","68.8","321.6","0"],
    [27831,"2013-07-09T10:00:00","38.1","ND","ND","ND","ND","ND","1.5","101.4","25.9","64.9","522.9","0"],
    [27832,"2013-07-09T11:00:00","35.7","ND","ND","ND","ND","ND","1.4","128.2","27","59.3","433.4","0"],
    [27833,"2013-07-09T12:00:00","37.7","ND","ND","ND","ND","ND","1.6","107.7","27.6","58.6","404.4","0"],
    [27834,"2013-07-09T13:00:00","19.5","ND","ND","ND","ND","ND","1.2","78.5","28.1","57.1","488.3","0"],
    [27835,"2013-07-09T14:00:00","34.3","ND","ND","ND","ND","ND","1.1","47.5","29.4","52.6","666.7","0"],
    [27836,"2013-07-09T15:00:00","28.7","ND","ND","ND","ND","ND","0.9","13.5","29.8","51.3","448.9","0"],
    [27837,"2013-07-09T16:00:00","39.5","ND","ND","ND","ND","ND","1.3","11.5","30","49.4","213","0"],
    [27838,"2013-07-09T17:00:00","22.1","ND","ND","ND","ND","ND","1.8","253.9","29.9","47.4","207.7","0"],
    [27839,"2013-07-09T18:00:00","11.8","ND","ND","ND","ND","ND","2.1","260.5","29","49.1","103.7","0"],
    [27840,"2013-07-09T19:00:00","6.9","ND","ND","ND","ND","ND","1.3","251.1","27.5","52.9","0","0"],
    [27841,"2013-07-09T20:00:00","31.9","ND","ND","ND","ND","ND","1","245.9","27.1","53.7","0","0"],
    [27842,"2013-07-09T21:00:00","27.4","ND","ND","ND","ND","ND","0.2","198.1","26.7","55.5","0","0"],
    [27843,"2013-07-09T22:00:00","36.7","ND","ND","ND","ND","ND","1.5","119.2","25.8","60.7","0","0"],
    [27844,"2013-07-09T23:00:00","52.9","ND","ND","ND","ND","ND","0.2","43.4","24.8","65.8","0","0"],
    [27845,"2013-07-10T00:00:00","84.1","ND","ND","ND","ND","ND","0.6","180.6","24.3","67.8","0","0"],
    [27846,"2013-07-10T01:00:00","59.7","ND","ND","ND","ND","ND","0.5","13.1","24","69.2","0","0"],
    [27847,"2013-07-10T02:00:00","64.6","ND","ND","ND","ND","ND","0.5","24.6","23.3","73.6","0","0"],
    [27848,"2013-07-10T03:00:00","49.3","ND","ND","ND","ND","ND","0.2","166.6","23.1","74.5","0","0"],
    [27849,"2013-07-10T04:00:00","33.4","ND","ND","ND","ND","ND","0.2","246.2","23","74.6","0","0"],
    [27850,"2013-07-10T05:00:00","28.7","ND","ND","ND","ND","ND","0.3","213.5","22.7","76.6","0","0"],
    [27851,"2013-07-10T06:00:00","41.7","ND","ND","ND","ND","ND","0.2","11.4","22.3","77.8","0","0"],
    [27852,"2013-07-10T07:00:00","46.1","ND","ND","ND","ND","ND","0.7","15.5","21.8","80.2","21.6","0"],
    [27853,"2013-07-10T08:00:00","74.2","ND","ND","ND","ND","ND","0.3","21.9","23.4","73.3","170.3","0"],
    [27854,"2013-07-10T09:00:00","56","ND","ND","ND","ND","ND","0.8","75.2","25.3","66.2","370","0"],
    [27855,"2013-07-10T10:00:00","61.9","ND","ND","ND","ND","ND","1.1","60.3","26","64.2","440.1","0"],
    [27856,"2013-07-10T11:00:00","50","ND","ND","ND","ND","ND","1","55","26.7","60","308.5","0"],
    [27857,"2013-07-10T12:00:00","43.1","ND","ND","ND","ND","ND","1.3","56.8","27.3","57","297.3","0"],
    [27858,"2013-07-10T13:00:00","39.7","ND","ND","ND","ND","ND","0.5","20","27.7","56","382.8","0"],
    [27859,"2013-07-10T14:00:00","43.2","ND","ND","ND","ND","ND","0.7","117.4","29.4","50.5","693.1","0"],
    [27860,"2013-07-10T15:00:00","26.4","ND","ND","ND","ND","ND","0.9","90.5","29.7","48.6","263.2","0"],
    [27861,"2013-07-10T16:00:00","52.1","ND","ND","ND","ND","ND","1.1","294","29.1","50","166.9","0"],
    [27862,"2013-07-10T17:00:00","27.7","ND","ND","ND","ND","ND","2.7","257.1","29","49.2","176","0"],
    [27863,"2013-07-10T18:00:00","33","ND","ND","ND","ND","ND","2.3","252.3","27.9","51.6","31.6","0"],
    [27864,"2013-07-10T19:00:00","17.8","ND","ND","ND","ND","ND","0.1","155.1","27.5","52.8","0","0"],
    [27865,"2013-07-10T20:00:00","24.6","ND","ND","ND","ND","ND","0.5","220.6","26.6","55.9","0","0"],
    [27866,"2013-07-10T21:00:00","13.1","ND","ND","ND","ND","ND","0.5","93.1","26","58.7","0","0"],
    [27867,"2013-07-10T22:00:00","30.5","ND","ND","ND","ND","ND","0.7","138.4","25.6","60.6","0","0"],
    [27868,"2013-07-10T23:00:00","16.8","ND","ND","ND","ND","ND","1.4","121.3","25.3","62.3","0","0"],
    [27869,"2013-07-11T00:00:00","39","ND","ND","ND","ND","ND","1.2","54.7","23.9","69.2","0","0.51"],
    [27870,"2013-07-11T01:00:00","25.3","ND","ND","ND","ND","ND","1","306.2","21.5","84.9","0","4.57"],
    [27871,"2013-07-11T02:00:00","30.9","ND","ND","ND","ND","ND","0.3","332.9","21.6","85.2","0","0"],
    [27872,"2013-07-11T03:00:00","21.5","ND","ND","ND","ND","ND","0.4","244.4","21.5","85.1","0","0"],
    [27873,"2013-07-11T04:00:00","18.6","ND","ND","ND","ND","ND","1.4","194.8","20.6","90.2","0","20.83"],
    [27874,"2013-07-11T05:00:00","10.7","ND","ND","ND","ND","ND","0.5","259.9","20.3","97.1","0","0.51"],
    [27875,"2013-07-11T06:00:00","5.9","ND","ND","ND","ND","ND","0.4","304.5","20.6","94.1","0","0"],
    [27876,"2013-07-11T07:00:00","13.7","ND","ND","ND","ND","ND","0.2","180","21","92.2","17.8","0"],
    [27877,"2013-07-11T08:00:00","31.1","ND","ND","ND","ND","ND","1.1","60.1","21.2","90.5","95.2","0"],
    [27878,"2013-07-11T09:00:00","37.7","ND","ND","ND","ND","ND","0.5","165.2","22.2","85","252.4","0"],
    [27879,"2013-07-11T10:00:00","35.9","ND","ND","ND","ND","ND","0.6","118.7","24.6","73","498.9","0"],
    [27880,"2013-07-11T11:00:00","20","ND","ND","ND","ND","ND","1","69.3","26.3","64.6","683.4","0"],
    [27881,"2013-07-11T12:00:00","12.5","ND","ND","ND","ND","ND","1.1","91.4","27.6","58.6","801.5","0"],
    [27882,"2013-07-11T13:00:00","7.7","ND","ND","ND","ND","ND","0.8","40.1","28.2","53.7","600","0"],
    [27883,"2013-07-11T14:00:00","14.4","ND","ND","ND","ND","ND","1.2","39.8","29.4","49.5","607.9","0"],
    [27884,"2013-07-11T15:00:00","73.3","ND","ND","ND","ND","ND","1.3","58.6","29.9","46.9","386.5","0"],
    [27885,"2013-07-11T16:00:00","45.6","ND","ND","ND","ND","ND","0.7","64.5","29.5","47.5","281.5","0"],
    [27886,"2013-07-11T17:00:00","26.2","ND","ND","ND","ND","ND","1.1","325.3","29.5","49","229.6","0"],
    [27887,"2013-07-11T18:00:00","24.3","ND","ND","ND","ND","ND","1.8","258.2","28.1","51.7","70.8","0"],
    [27888,"2013-07-11T19:00:00","13","ND","ND","ND","ND","ND","1.2","263.4","27","52.6","0","0"],
    [27889,"2013-07-11T20:00:00","7.2","ND","ND","ND","ND","ND","0.4","123.1","26.9","53.1","0","0"],
    [27890,"2013-07-11T21:00:00","5.2","ND","ND","ND","ND","ND","0.6","106.2","26.5","56.4","0","0"],
    [27891,"2013-07-11T22:00:00","28.9","ND","ND","ND","ND","ND","1.1","153.8","25.7","60.8","0","0"],
    [27892,"2013-07-11T23:00:00","55","ND","ND","ND","ND","ND","0.7","136.7","24.9","65.7","0","0"],
    [27893,"2013-07-12T00:00:00","64.9","ND","ND","ND","ND","ND","0.6","91.5","24","70.1","0","0"],
    [27894,"2013-07-12T01:00:00","85.9","ND","ND","ND","ND","ND","0.4","114.9","24","69.7","0","0"],
    [27895,"2013-07-12T02:00:00","60.4","ND","ND","ND","ND","ND","0.8","89.7","23.4","72.9","0","0"],
    [27896,"2013-07-12T03:00:00","36.2","ND","ND","ND","ND","ND","0.4","166.6","22.9","74.3","0","0"],
    [27897,"2013-07-12T04:00:00","19.6","ND","ND","ND","ND","ND","0.4","194.2","21.8","83.4","0","20.83"],
    [27898,"2013-07-12T05:00:00","11.7","ND","ND","ND","ND","ND","0.5","185.9","20.5","94.3","0","1.52"],
    [27899,"2013-07-12T06:00:00","8","ND","ND","ND","ND","ND","0.5","13.4","21.2","91.3","0","0"],
    [27900,"2013-07-12T07:00:00","10.5","ND","ND","ND","ND","ND","0.4","237.5","21","92.9","24.7","0"],
    [27901,"2013-07-12T08:00:00","23.3","ND","ND","ND","ND","ND","0.3","194.2","21.8","88.2","72.1","0"],
    [27902,"2013-07-12T09:00:00","28.5","ND","ND","ND","ND","ND","0.2","302.2","22.8","82.5","161.8","0"],
    [27903,"2013-07-12T10:00:00","37.4","ND","ND","ND","ND","ND","0.5","107.2","24.3","73.4","359.3","0"],
    [27904,"2013-07-12T11:00:00","24.6","ND","ND","ND","ND","ND","0.5","99.8","25.7","65.4","508.2","0"],
    [27905,"2013-07-12T12:00:00","36.5","ND","ND","ND","ND","ND","0.8","100","26.8","60.6","570.4","0"],
    [27906,"2013-07-12T13:00:00","19.8","ND","ND","ND","ND","ND","0.9","45.3","27.8","56.8","595.6","0"],
    [27907,"2013-07-12T14:00:00","36.6","ND","ND","ND","ND","ND","0.8","12.4","28.6","55.4","460.9","0"],
    [27908,"2013-07-12T15:00:00","19.3","ND","ND","ND","ND","ND","1.1","303.9","28.7","53.1","398.4","0"],
    [27909,"2013-07-12T16:00:00","11.6","ND","ND","ND","ND","ND","1.1","325.2","28.5","51.1","270.4","0"],
    [27910,"2013-07-12T17:00:00","6.8","ND","ND","ND","ND","ND","1.7","245.1","27.7","53.4","108.2","0"],
    [27911,"2013-07-12T18:00:00","6.9","ND","ND","ND","ND","ND","1.5","256.6","26.6","55.6","25.6","0"],
    [27912,"2013-07-12T19:00:00","4.1","ND","ND","ND","ND","ND","0.4","297.2","26","56.7","0","0"],
    [27913,"2013-07-12T20:00:00","6.8","ND","ND","ND","ND","ND","0.1","207.5","25.1","62.7","0","0"],
    [27914,"2013-07-12T21:00:00","14.7","ND","ND","ND","ND","ND","0.5","70.4","24","68.8","0","0"],
    [27915,"2013-07-12T22:00:00","12.3","ND","ND","ND","ND","ND","0.1","137.4","23.1","75.5","0","0"],
    [27916,"2013-07-12T23:00:00","12.9","ND","ND","ND","ND","ND","1.1","174.8","22.8","73","0","0"],
    [27917,"2013-07-13T00:00:00","30.2","ND","ND","ND","ND","ND","0.8","181.1","22.7","72.2","0","0"],
    [27918,"2013-07-13T01:00:00","16.5","ND","ND","ND","ND","ND","0.4","214.1","22.5","74.4","0","0"],
    [27919,"2013-07-13T02:00:00","19.4","ND","ND","ND","ND","ND","0.1","163","22.6","74.4","0","0"],
    [27920,"2013-07-13T03:00:00","27.2","ND","ND","ND","ND","ND","0.4","313.6","22","79.7","0","0"],
    [27921,"2013-07-13T04:00:00","26.8","ND","ND","ND","ND","ND","0.4","141.6","21.8","80.9","0","0"],
    [27922,"2013-07-13T05:00:00","14","ND","ND","ND","ND","ND","0.2","269.1","21.7","82.1","0","0"],
    [27923,"2013-07-13T06:00:00","27.6","ND","ND","ND","ND","ND","1","4.8","20.8","87.5","0","0"],
    [27924,"2013-07-13T07:00:00","33.4","ND","ND","ND","ND","ND","0.6","20.1","20.4","90.4","36.3","0"],
    [27925,"2013-07-13T08:00:00","26.8","ND","ND","ND","ND","ND","0.3","171.3","22","83.5","208.1","0"],
    [27926,"2013-07-13T09:00:00","15.7","ND","ND","ND","ND","ND","1.1","160.4","24.1","69.3","404.4","0"],
    [27927,"2013-07-13T10:00:00","27.5","ND","ND","ND","ND","ND","ND","ND","ND","ND","ND","ND"],
    [27928,"2013-07-13T11:00:00","15.9","ND","ND","ND","ND","ND","1.7","136.8","27","56.6","688.9","0"],
    [27929,"2013-07-13T12:00:00","21.8","ND","ND","ND","ND","ND","1","121.7","28.1","53.7","751.1","0"],
    [27930,"2013-07-13T13:00:00","11.4","ND","ND","ND","ND","ND","0.9","142.3","29.3","49.8","702.4","0"],
    [27931,"2013-07-13T14:00:00","7.2","ND","ND","ND","ND","ND","1.4","61.2","30","48.2","613.6","0"],
    [27932,"2013-07-13T15:00:00","5.6","ND","ND","ND","ND","ND","1.4","334.3","30.4","47.2","536","0"],
    [27933,"2013-07-13T16:00:00","4.1","ND","ND","ND","ND","ND","2.3","264.5","30.1","46.6","325.9","0"],
    [27934,"2013-07-13T17:00:00","3","ND","ND","ND","ND","ND","2.1","279.4","29.8","46.3","279.3","0"],
    [27935,"2013-07-13T18:00:00","4.9","ND","ND","ND","ND","ND","1","265.8","28.9","49.1","94.9","0"],
    [27936,"2013-07-13T19:00:00","4.5","ND","ND","ND","ND","ND","0.6","350","27","52.5","0","0"],
    [27937,"2013-07-13T20:00:00","10.4","ND","ND","ND","ND","ND","0.8","118.8","27.2","52.1","0","0"],
    [27938,"2013-07-13T21:00:00","6.7","ND","ND","ND","ND","ND","1","87.4","26.6","55.4","0","0"],
    [27939,"2013-07-13T22:00:00","12.9","ND","ND","ND","ND","ND","0.9","134.9","25.4","61.6","0","0"],
    [27940,"2013-07-13T23:00:00","14.1","ND","ND","ND","ND","ND","0.3","51.9","24.4","66.9","0","0"],
    [27941,"2013-07-14T00:00:00","23.2","ND","ND","ND","ND","ND","0.3","342.8","23.6","69.9","0","0"],
    [27942,"2013-07-14T01:00:00","18.9","ND","ND","ND","ND","ND","0.6","27","23.1","73.6","0","0"],
    [27943,"2013-07-14T02:00:00","26.5","ND","ND","ND","ND","ND","0.2","221.8","23.2","72.9","0","0"],
    [27944,"2013-07-14T03:00:00","31.4","ND","ND","ND","ND","ND","0.4","240.3","22.7","75.4","0","0"],
    [27945,"2013-07-14T04:00:00","43","ND","ND","ND","ND","ND","0.3","311.6","22.2","77.3","0","0"],
    [27946,"2013-07-14T05:00:00","47.6","ND","ND","ND","ND","ND","0.2","42.3","21.6","80.8","0","0"],
    [27947,"2013-07-14T06:00:00","32.2","ND","ND","ND","ND","ND","0.7","242.8","21.7","80.1","0","0"],
    [27948,"2013-07-14T07:00:00","23.6","ND","ND","ND","ND","ND","0.3","61.2","22.1","78.4","23.9","0"],
    [27949,"2013-07-14T08:00:00","34.1","ND","ND","ND","ND","ND","0","80.6","22.3","79.1","91.1","0"],
    [27950,"2013-07-14T09:00:00","40.2","ND","ND","ND","ND","ND","0.7","134.5","24","71.8","262.1","0"],
    [27951,"2013-07-14T10:00:00","38.9","ND","ND","ND","ND","ND","0.8","98.5","26.3","62.8","535.9","0"],
    [27952,"2013-07-14T11:00:00","20.1","ND","ND","ND","ND","ND","0.8","52.9","27.5","57.4","659.9","0"],
    [27953,"2013-07-14T12:00:00","26.7","ND","ND","ND","ND","ND","0.7","86.9","28.4","54.1","632.9","0"],
    [27954,"2013-07-14T13:00:00","28.8","ND","ND","ND","ND","ND","1.3","75.5","29.9","50.7","704.2","0"],
    [27955,"2013-07-14T14:00:00","23.9","ND","ND","ND","ND","ND","1.5","44","30.6","48.7","609.2","0"],
    [27956,"2013-07-14T15:00:00","17.9","ND","ND","ND","ND","ND","1.6","18.7","31.5","45.4","664.1","0"],
    [27957,"2013-07-14T16:00:00","10.9","ND","ND","ND","ND","ND","1.4","341.2","31.5","43.9","464.6","0"],
    [27958,"2013-07-14T17:00:00","6","ND","ND","ND","ND","ND","2.3","291","31.2","44","307.5","0"],
    [27959,"2013-07-14T18:00:00","3.5","ND","ND","ND","ND","ND","0.9","278.9","30.1","46.2","99.8","0"],
    [27960,"2013-07-14T19:00:00","11","ND","ND","ND","ND","ND","0.9","247","28.4","49.3","0","0"],
    [27961,"2013-07-14T20:00:00","11.3","ND","ND","ND","ND","ND","0.1","242.5","27.5","52.2","0","0"],
    [27962,"2013-07-14T21:00:00","25.2","ND","ND","ND","ND","ND","0.1","338.2","26.6","56.7","0","0"],
    [27963,"2013-07-14T22:00:00","20.6","ND","ND","ND","ND","ND","0.7","179.2","26.3","58.2","0","0"],
    [27964,"2013-07-14T23:00:00","22.2","ND","ND","ND","ND","ND","0.4","59.7","25.4","63.3","0","0"],
    [27965,"2013-07-15T00:00:00","25.4","ND","ND","ND","ND","ND","0.2","14.3","24.3","67.7","0","0"],
    [27966,"2013-07-15T01:00:00","13.6","ND","ND","ND","ND","ND","0.7","191.2","23.9","70.4","0","0"],
    [27967,"2013-07-15T02:00:00","20.1","ND","ND","ND","ND","ND","1.2","189.7","23.9","73.2","0","0"],
    [27968,"2013-07-15T03:00:00","11.6","ND","ND","ND","ND","ND","0.4","177","23.7","74.3","0","0"],
    [27969,"2013-07-15T04:00:00","26","ND","ND","ND","ND","ND","0.2","308.1","23","76.9","0","0"],
    [27970,"2013-07-15T05:00:00","23.6","ND","ND","ND","ND","ND","0.3","349.9","22.8","78","0","0"],
    [27971,"2013-07-15T06:00:00","23.4","ND","ND","ND","ND","ND","0.2","311.3","22.4","79.9","0","0"],
    [27972,"2013-07-15T07:00:00","24.5","ND","ND","ND","ND","ND","0.4","19.3","21.9","84.2","7.7","0"],
    [27973,"2013-07-15T08:00:00","62.3","ND","ND","ND","ND","ND","0.3","287.5","22.6","80.5","79.5","0"],
    [27974,"2013-07-15T09:00:00","70.9","ND","ND","ND","ND","ND","0.5","68.9","24.3","73.9","214.4","0"],
    [27975,"2013-07-15T10:00:00","69","ND","ND","ND","ND","ND","0.6","45.9","26.4","65.1","556.7","0"],
    [27976,"2013-07-15T11:00:00","43.2","ND","ND","ND","ND","ND","1.4","57.9","27.6","59.7","731.8","0"],
    [27977,"2013-07-15T12:00:00","38.6","ND","ND","ND","ND","ND","1.6","55.3","28.3","56.2","673","0"],
    [27978,"2013-07-15T13:00:00","33.5","ND","ND","ND","ND","ND","1.6","47","29.1","54.9","455.9","0"],
    [27979,"2013-07-15T14:00:00","41.7","ND","ND","ND","ND","ND","2.5","37.3","29","56.6","402.9","0"],
    [27980,"2013-07-15T15:00:00","22.7","ND","ND","ND","ND","ND","1.4","18.1","29","53.6","212.8","0"],
    [27981,"2013-07-15T16:00:00","13.4","ND","ND","ND","ND","ND","1.5","284.1","29.2","51.8","269.6","0"],
    [27982,"2013-07-15T17:00:00","10.9","ND","ND","ND","ND","ND","0.6","111.8","29.1","50.7","86.9","0"],
    [27983,"2013-07-15T18:00:00","17.4","ND","ND","ND","ND","ND","0.3","268.9","28.1","53.2","37","0"],
    [27984,"2013-07-15T19:00:00","12","ND","ND","ND","ND","ND","1","217.2","27.2","55.3","0","0"],
    [27985,"2013-07-15T20:00:00","9.5","ND","ND","ND","ND","ND","1.2","222.4","26.5","56.8","0","0"],
    [27986,"2013-07-15T21:00:00","37.2","ND","ND","ND","ND","ND","0.6","76.6","25.8","64","0","0"],
    [27987,"2013-07-15T22:00:00","44.5","ND","ND","ND","ND","ND","0.4","2.5","24.7","67.2","0","0"],
    [27988,"2013-07-15T23:00:00","42.3","ND","ND","ND","ND","ND","0.2","66.6","23.9","73.6","0","0"],
    [27989,"2013-07-16T00:00:00","44.5","ND","ND","ND","ND","ND","0.4","359.3","23.1","76.1","0","0"],
    [27990,"2013-07-16T01:00:00","29.6","ND","ND","ND","ND","ND","0.1","225.1","23.1","75.8","0","0"],
    [27991,"2013-07-16T02:00:00","42.6","ND","ND","ND","ND","ND","0.4","16.5","22.7","78.7","0","0"],
    [27992,"2013-07-16T03:00:00","38.6","ND","ND","ND","ND","ND","0.2","40.8","22.4","80.8","0","0"],
    [27993,"2013-07-16T04:00:00","52.4","ND","ND","ND","ND","ND","0.2","140.5","22.1","81.2","0","0"],
    [27994,"2013-07-16T05:00:00","61","ND","ND","ND","ND","ND","0.2","344.5","21.6","83.8","0","0"],
    [27995,"2013-07-16T06:00:00","45","ND","ND","ND","ND","ND","0.1","172.3","21.4","84.8","0","0"],
    [27996,"2013-07-16T07:00:00","37.5","ND","ND","ND","ND","ND","0.2","144.3","21.9","82.9","29.1","0"],
    [27997,"2013-07-16T08:00:00","49.6","ND","ND","ND","ND","ND","0.2","154.6","23.2","77.4","185","0"],
    [27998,"2013-07-16T09:00:00","34.6","ND","ND","ND","ND","ND","1.6","141.4","25","68.4","384.8","0"],
    [27999,"2013-07-16T10:00:00","56.2","ND","ND","ND","ND","ND","1.9","125","25.8","67","443.1","0"],
    [28000,"2013-07-16T11:00:00","58","ND","ND","ND","ND","ND","1.6","98.8","26.1","67.8","612.8","0"],
    [28001,"2013-07-16T12:00:00","54.9","ND","ND","ND","ND","ND","1","100.9","27.5","61.5","618.3","0"],
    [28002,"2013-07-16T13:00:00","44.1","ND","ND","ND","ND","ND","1.2","127.9","29.1","54.7","641","0"],
    [28003,"2013-07-16T14:00:00","29.8","ND","ND","ND","ND","ND","1.4","122.8","30.5","48.7","682.6","0"],
    [28004,"2013-07-16T15:00:00","27.7","ND","ND","ND","ND","ND","1.1","308.3","30.1","50.7","399.9","0"],
    [28005,"2013-07-16T16:00:00","38.6","ND","ND","ND","ND","ND","0.9","26.9","30.8","47.8","376.9","0"],
    [28006,"2013-07-16T17:00:00","33.7","ND","ND","ND","ND","ND","1.2","289.1","30.5","46.6","158.3","0"],
    [28007,"2013-07-16T18:00:00","35.9","ND","ND","ND","ND","ND","1.3","268.4","29.3","50.2","33.2","0"],
    [28008,"2013-07-16T19:00:00","20.5","ND","ND","ND","ND","ND","1.7","256.6","28.1","53.2","0","0"],
    [28009,"2013-07-16T20:00:00","28.2","ND","ND","ND","ND","ND","2.2","258.6","27.4","56","0","0"],
    [28010,"2013-07-16T21:00:00","30.6","ND","ND","ND","ND","ND","1.1","84.8","26.6","61.5","0","0"],
    [28011,"2013-07-16T22:00:00","51.1","ND","ND","ND","ND","ND","0.7","199.6","25.8","65","0","0"],
    [28012,"2013-07-16T23:00:00","37.8","ND","ND","ND","ND","ND","1.1","244.1","25.3","65.9","0","0"],
    [28013,"2013-07-17T00:00:00","52.2","ND","ND","ND","ND","ND","0.4","50.2","24.6","70.8","0","0"],
    [28014,"2013-07-17T01:00:00","31.8","ND","ND","ND","ND","ND","0.4","180.1","24","73.2","0","0"],
    [28015,"2013-07-17T02:00:00","31.2","ND","ND","ND","ND","ND","0.4","84.5","23.7","74.9","0","0"],
    [28016,"2013-07-17T03:00:00","45","ND","ND","ND","ND","ND","0.5","34.5","22.9","78.6","0","0"],
    [28017,"2013-07-17T04:00:00","51","ND","ND","ND","ND","ND","0.3","295.5","22.6","80.4","0","0"],
    [28018,"2013-07-17T05:00:00","42.4","ND","ND","ND","ND","ND","0.3","266.2","22.2","81.4","0","0"],
    [28019,"2013-07-17T06:00:00","47","ND","ND","ND","ND","ND","0.1","300.9","21.8","82.4","0","0"],
    [28020,"2013-07-17T07:00:00","58.8","ND","ND","ND","ND","ND","0.8","11.1","21.5","83.8","22.1","0"],
    [28021,"2013-07-17T08:00:00","69.8","ND","ND","ND","ND","ND","0.2","198.6","22.6","78.8","128.8","0"],
    [28022,"2013-07-17T09:00:00","53.8","ND","ND","ND","ND","ND","0.6","126.6","24.5","69.2","249.9","0"],
    [28023,"2013-07-17T10:00:00","69.3","ND","ND","ND","ND","ND","0.7","43.3","25.6","65.2","412.8","0"],
    [28024,"2013-07-17T11:00:00","51.2","ND","ND","ND","ND","ND","0.6","149","27.3","56.4","552.5","0"],
    [28025,"2013-07-17T12:00:00","44.6","ND","ND","ND","ND","ND","1.7","71.7","28.3","54.3","674","0"],
    [28026,"2013-07-17T13:00:00","34.9","ND","ND","ND","ND","ND","0.9","52.7","29.4","51.2","616","0"],
    [28027,"2013-07-17T14:00:00","39.9","ND","ND","ND","ND","ND","1.6","66.1","30.7","46.8","655.7","0"],
    [28028,"2013-07-17T15:00:00","36.8","ND","ND","ND","ND","ND","2","47.9","30.7","47.1","455.7","0"],
    [28029,"2013-07-17T16:00:00","26.7","ND","ND","ND","ND","ND","1.5","359.2","30.6","48.2","336.3","0"],
    [28030,"2013-07-17T17:00:00","14.6","ND","ND","ND","ND","ND","1","273.1","30.3","48.6","210.1","0"],
    [28031,"2013-07-17T18:00:00","82.2","ND","ND","ND","ND","ND","1.5","251.4","28.9","50.9","44.2","0"],
    [28032,"2013-07-17T19:00:00","42.4","ND","ND","ND","ND","ND","2.3","245.4","27.7","54","0","0"],
    [28033,"2013-07-17T20:00:00","61.6","ND","ND","ND","ND","ND","0.2","110.6","27.5","54.1","0","0"],
    [28034,"2013-07-17T21:00:00","33.2","ND","ND","ND","ND","ND","0.3","93.2","26.5","58.7","0","0"],
    [28035,"2013-07-17T22:00:00","46.4","ND","ND","ND","ND","ND","0.5","146.5","25.2","66.2","0","0"],
    [28036,"2013-07-17T23:00:00","26.3","ND","ND","ND","ND","ND","0.1","112.1","25","67.2","0","0"],
    [28037,"2013-07-18T00:00:00","63","ND","ND","ND","ND","ND","0.1","274.2","24.6","68.4","0","0"],
    [28038,"2013-07-18T01:00:00","40.2","ND","ND","ND","ND","ND","0.2","37.4","24.4","70","0","0"],
    [28039,"2013-07-18T02:00:00","79.3","ND","ND","ND","ND","ND","0.8","145.1","23.9","72.4","0","0"],
    [28040,"2013-07-18T03:00:00","42.9","ND","ND","ND","ND","ND","1.1","178","23.4","74.9","0","0"],
    [28041,"2013-07-18T04:00:00","27.7","ND","ND","ND","ND","ND","0.6","253.8","23.3","75.6","0","0"],
    [28042,"2013-07-18T05:00:00","16.2","ND","ND","ND","ND","ND","0.5","264.6","23.1","77","0","0"],
    [28043,"2013-07-18T06:00:00","30.1","ND","ND","ND","ND","ND","0.6","56.6","23","77.3","0","0"],
    [28044,"2013-07-18T07:00:00","40.2","ND","ND","ND","ND","ND","0.6","40.3","22.3","81.4","6.4","0"],
    [28045,"2013-07-18T08:00:00","70","ND","ND","ND","ND","ND","0.6","31.4","22.5","81","73.8","0"],
    [28046,"2013-07-18T09:00:00","55.9","ND","ND","ND","ND","ND","0.6","45.5","24","74.2","225.9","0"],
    [28047,"2013-07-18T10:00:00","77.3","ND","ND","ND","ND","ND","0.3","78.8","25.8","66","447.9","0"],
    [28048,"2013-07-18T11:00:00","74.6","ND","ND","ND","ND","ND","1","35.6","27.1","61.2","500.1","0"],
    [28049,"2013-07-18T12:00:00","50.5","ND","ND","ND","ND","ND","1.1","47.1","27.9","57.6","580.4","0"],
    [28050,"2013-07-18T13:00:00","33.4","ND","ND","ND","ND","ND","1","45.4","28.7","54.1","567.4","0"],
    [28051,"2013-07-18T14:00:00","19.8","ND","ND","ND","ND","ND","1","54.3","29.3","52.9","537.7","0"],
    [28052,"2013-07-18T15:00:00","17.1","ND","ND","ND","ND","ND","0.9","323.3","29.9","48.9","431.7","0"],
    [28053,"2013-07-18T16:00:00","14.8","ND","ND","ND","ND","ND","1.5","267.6","30","46.3","327.5","0"],
    [28054,"2013-07-18T17:00:00","9.7","ND","ND","ND","ND","ND","2.7","258.6","29","47.9","184.8","0"],
    [28055,"2013-07-18T18:00:00","14.4","ND","ND","ND","ND","ND","1.2","272.7","28.1","50.6","69.5","0"],
    [28056,"2013-07-18T19:00:00","11.5","ND","ND","ND","ND","ND","0.4","154.3","27.2","52.2","0","0"],
    [28057,"2013-07-18T20:00:00","28.5","ND","ND","ND","ND","ND","0.8","149.8","26.8","52.2","0","0"],
    [28058,"2013-07-18T21:00:00","35.4","ND","ND","ND","ND","ND","1.2","141.3","26.3","55.4","0","0"],
    [28059,"2013-07-18T22:00:00","34","ND","ND","ND","ND","ND","0.7","185.7","24.9","62.6","0","0"],
    [28060,"2013-07-18T23:00:00","20.2","ND","ND","ND","ND","ND","0.3","159.3","24.1","65.9","0","0"],
    [28061,"2013-07-19T00:00:00","42.7","ND","ND","ND","ND","ND","0.4","16.9","23.4","69.6","0","0"],
    [28062,"2013-07-19T01:00:00","39.2","ND","ND","ND","ND","ND","0.1","133.1","22.9","72.2","0","0"],
    [28063,"2013-07-19T02:00:00","34.5","ND","ND","ND","ND","ND","0.2","210.4","22.8","73.8","0","0"],
    [28064,"2013-07-19T03:00:00","20.8","ND","ND","ND","ND","ND","0.5","146.3","22.9","74.1","0","0"],
    [28065,"2013-07-19T04:00:00","30.5","ND","ND","ND","ND","ND","0.4","143.2","22.4","76.9","0","0"],
    [28066,"2013-07-19T05:00:00","16.8","ND","ND","ND","ND","ND","0.9","168.1","22.1","80","0","0"],
    [28067,"2013-07-19T06:00:00","24.4","ND","ND","ND","ND","ND","0.4","301.9","22","80.4","0","0"],
    [28068,"2013-07-19T07:00:00","33.8","ND","ND","ND","ND","ND","0.5","17.8","22.2","79.3","8.2","0"],
    [28069,"2013-07-19T08:00:00","67.1","ND","ND","ND","ND","ND","0.6","12.8","22.7","77.2","115.2","0"],
    [28070,"2013-07-19T09:00:00","46.2","ND","ND","ND","ND","ND","0.9","61.7","24.5","68.6","405.3","0"],
    [28071,"2013-07-19T10:00:00","42.4","ND","ND","ND","ND","ND","0.7","55.8","25.6","63.6","511.5","0"],
    [28072,"2013-07-19T11:00:00","24","ND","ND","ND","ND","ND","1.1","69.5","27.1","58.3","744.4","0"],
    [28073,"2013-07-19T12:00:00","12.6","ND","ND","ND","ND","ND","1.2","30.6","28.6","53.1","800.3","0"],
    [28074,"2013-07-19T13:00:00","10.5","ND","ND","ND","ND","ND","1.6","38","28.9","51","473.6","0"],
    [28075,"2013-07-19T14:00:00","15.9","ND","ND","ND","ND","ND","2","339.6","29.1","49.4","332.7","0"],
    [28076,"2013-07-19T15:00:00","10.2","ND","ND","ND","ND","ND","1.9","5.5","29.2","49.1","448.2","0"],
    [28077,"2013-07-19T16:00:00","26.5","ND","ND","ND","ND","ND","1.6","81","28","58.1","172.3","0"],
    [28078,"2013-07-19T17:00:00","62.9","ND","ND","ND","ND","ND","2.6","173.7","27.2","56.4","75","0.25"],
    [28079,"2013-07-19T18:00:00","39.4","ND","ND","ND","ND","ND","1.9","179.4","26.6","58.6","30.9","0"],
    [28080,"2013-07-19T19:00:00","24.3","ND","ND","ND","ND","ND","0.2","177.8","26.3","59.5","0","0"],
    [28081,"2013-07-19T20:00:00","44.6","ND","ND","ND","ND","ND","1","16.4","25.2","63.6","0","0"],
    [28082,"2013-07-19T21:00:00","56.6","ND","ND","ND","ND","ND","1.3","17.2","23.2","73.7","0","0"],
    [28083,"2013-07-19T22:00:00","80.1","ND","ND","ND","ND","ND","1.2","356.7","22.2","79.4","0","0"],
    [28084,"2013-07-19T23:00:00","62.2","ND","ND","ND","ND","ND","0.6","8.5","22.2","78.1","0","0"],
    [28085,"2013-07-20T00:00:00","73.1","ND","ND","ND","ND","ND","0.2","55.4","22.1","76.4","0","0"],
    [28086,"2013-07-20T01:00:00","60.3","ND","ND","ND","ND","ND","0.7","250.9","22.2","75.8","0","0"],
    [28087,"2013-07-20T02:00:00","51.3","ND","ND","ND","ND","ND","0.4","263.7","22.5","74.2","0","0"],
    [28088,"2013-07-20T03:00:00","40.2","ND","ND","ND","ND","ND","0.3","211.6","22.9","72.7","0","0"],
    [28089,"2013-07-20T04:00:00","72.8","ND","ND","ND","ND","ND","0.6","39.1","22","79.8","0","0"],
    [28090,"2013-07-20T05:00:00","89.7","ND","ND","ND","ND","ND","0.2","276.7","21.7","80.7","0","0"],
    [28091,"2013-07-20T06:00:00","74.7","ND","ND","ND","ND","ND","0.1","69.9","21.8","80.1","0","0"],
    [28092,"2013-07-20T07:00:00","80.2","ND","ND","ND","ND","ND","0.5","17.4","21.6","82","41.8","0"],
    [28093,"2013-07-20T08:00:00","81.1","ND","ND","ND","ND","ND","0.2","42.5","22.6","78","134.8","0"],
    [28094,"2013-07-20T09:00:00","63.8","ND","ND","ND","ND","ND","0.4","137.3","24.3","67.9","359.1","0"],
    [28095,"2013-07-20T10:00:00","62","ND","ND","ND","ND","ND","1.3","53.2","25.8","62.6","529.1","0"],
    [28096,"2013-07-20T11:00:00","59.3","ND","ND","ND","ND","ND","1.2","78.8","27","59.5","661","0"],
    [28097,"2013-07-20T12:00:00","58.9","ND","ND","ND","ND","ND","1.4","69","28.6","53.7","728.1","0"],
    [28098,"2013-07-20T13:00:00","31.6","ND","ND","ND","ND","ND","0.8","42","29.6","49.8","477.1","0"],
    [28099,"2013-07-20T14:00:00","33.1","ND","ND","ND","ND","ND","1.3","351.5","30.4","46.7","510.7","0"],
    [28100,"2013-07-20T15:00:00","5","ND","ND","ND","ND","ND","1.2","302.2","30.7","44.9","431.7","0"],
    [28101,"2013-07-20T16:00:00","10","ND","ND","ND","ND","ND","3.1","272.6","30.1","46.3","292.5","0"],
    [28102,"2013-07-20T17:00:00","7.3","ND","ND","ND","ND","ND","2.7","261.2","29.8","46","220.8","0"],
    [28103,"2013-07-20T18:00:00","4.8","ND","ND","ND","ND","ND","1.6","270.6","29.5","46.1","97.8","0"],
    [28104,"2013-07-20T19:00:00","4.6","ND","ND","ND","ND","ND","0.9","249.6","27.8","51.6","0","0"],
    [28105,"2013-07-20T20:00:00","22.1","ND","ND","ND","ND","ND","0.4","112.9","27.3","54.1","0","0"],
    [28106,"2013-07-20T21:00:00","19.5","ND","ND","ND","ND","ND","0.2","82.3","26.6","56.1","0","0"],
    [28107,"2013-07-20T22:00:00","36.6","ND","ND","ND","ND","ND","1.7","94.4","25.4","63.1","0","0"],
    [28108,"2013-07-20T23:00:00","49.4","ND","ND","ND","ND","ND","0.5","62","24.4","68.1","0","0"],
    [28109,"2013-07-21T00:00:00","43.4","ND","ND","ND","ND","ND","0.3","15.4","23.7","71.5","0","0"],
    [28110,"2013-07-21T01:00:00","28.1","ND","ND","ND","ND","ND","0","216","23.2","73.3","0","0"],
    [28111,"2013-07-21T02:00:00","33.1","ND","ND","ND","ND","ND","0.6","166.3","23","74.1","0","0"],
    [28112,"2013-07-21T03:00:00","17.3","ND","ND","ND","ND","ND","1.7","174.6","22.5","78.5","0","13.97"],
    [28113,"2013-07-21T04:00:00","12.9","ND","ND","ND","ND","ND","1.8","221.4","19.7","98.1","0","28.19"],
    [28114,"2013-07-21T05:00:00","8.4","ND","ND","ND","ND","ND","0.4","29.2","20.4","97.2","0","0.25"],
    [28115,"2013-07-21T06:00:00","4.9","ND","ND","ND","ND","ND","0.1","7.6","20.8","94","0","0"],
    [28116,"2013-07-21T07:00:00","16.8","ND","ND","ND","ND","ND","0.2","262.9","20.7","93.5","36.7","0"],
    [28117,"2013-07-21T08:00:00","22.3","ND","ND","ND","ND","ND","0.2","221.1","22","90.5","167.3","0.25"],
    [28118,"2013-07-21T09:00:00","11.8","ND","ND","ND","ND","ND","0.4","60.5","24.1","77.7","310.3","0"],
    [28119,"2013-07-21T10:00:00","9.2","ND","ND","ND","ND","ND","0.8","105","25.3","70.6","613.3","0"],
    [28120,"2013-07-21T11:00:00","9.1","ND","ND","ND","ND","ND","1.1","128.3","26.5","64.1","654","0"],
    [28121,"2013-07-21T12:00:00","16.9","ND","ND","ND","ND","ND","0.5","171.5","28.3","57.6","809.6","0"],
    [28122,"2013-07-21T13:00:00","19.4","ND","ND","ND","ND","ND","0.5","119.4","29.5","53","605.1","0"],
    [28123,"2013-07-21T14:00:00","13.8","ND","ND","ND","ND","ND","0.5","29.3","30","50.5","455.8","0"],
    [28124,"2013-07-21T15:00:00","7.9","ND","ND","ND","ND","ND","3.2","269.3","30.1","48.1","558.2","0"],
    [28125,"2013-07-21T16:00:00","6.2","ND","ND","ND","ND","ND","1.9","278.1","30.4","45.7","377.3","0"],
    [28126,"2013-07-21T17:00:00","4.5","ND","ND","ND","ND","ND","2.3","268.8","28.9","48.3","127.4","0"],
    [28127,"2013-07-21T18:00:00","3.6","ND","ND","ND","ND","ND","0.6","236.8","28.1","49.6","33.9","0"],
    [28128,"2013-07-21T19:00:00","2.8","ND","ND","ND","ND","ND","0.8","226.2","27","53.9","0","0"],
    [28129,"2013-07-21T20:00:00","4.2","ND","ND","ND","ND","ND","0.7","145.6","26.5","55.7","0","0.25"],
    [28130,"2013-07-21T21:00:00","12.2","ND","ND","ND","ND","ND","1.3","143.9","26.2","58.2","0","0"],
    [28131,"2013-07-21T22:00:00","45.4","ND","ND","ND","ND","ND","0.3","4.1","24.9","66","0","0"],
    [28132,"2013-07-21T23:00:00","23.4","ND","ND","ND","ND","ND","0.5","11.9","24","69.6","0","0"],
    [28133,"2013-07-22T00:00:00","34.9","ND","ND","ND","ND","ND","0.3","343.2","23.6","72","0","0"],
    [28134,"2013-07-22T01:00:00","22.5","ND","ND","ND","ND","ND","0.1","133","23.4","73.3","0","0"],
    [28135,"2013-07-22T02:00:00","12","ND","ND","ND","ND","ND","0.5","6.6","23","74.8","0","0"],
    [28136,"2013-07-22T03:00:00","26.2","ND","ND","ND","ND","ND","0.6","21.4","22.2","81","0","0"],
    [28137,"2013-07-22T04:00:00","43.1","ND","ND","ND","ND","ND","0.1","280.8","22.3","80.7","0","0"],
    [28138,"2013-07-22T05:00:00","26.1","ND","ND","ND","ND","ND","0.8","275.7","22.3","80.8","0","0"],
    [28139,"2013-07-22T06:00:00","42","ND","ND","ND","ND","ND","0.2","231.9","22.4","79.4","0","0"],
    [28140,"2013-07-22T07:00:00","24.6","ND","ND","ND","ND","ND","0.2","268.8","22.6","79.5","20.1","0"],
    [28141,"2013-07-22T08:00:00","39","ND","ND","ND","ND","ND","0.4","203","23.4","75.9","134.4","0"],
    [28142,"2013-07-22T09:00:00","27.1","ND","ND","ND","ND","ND","0.5","87.7","24.5","71.7","228.2","0"],
    [28143,"2013-07-22T10:00:00","55.4","ND","ND","ND","ND","ND","0.7","102.1","26.3","63.5","612.2","0"],
    [28144,"2013-07-22T11:00:00","43.9","ND","ND","ND","ND","ND","1","69.8","27.7","58.3","577.1","0"],
    [28145,"2013-07-22T12:00:00","35.4","ND","ND","ND","ND","ND","0.8","147.2","28.1","56","397","0"],
    [28146,"2013-07-22T13:00:00","24.5","ND","ND","ND","ND","ND","1.4","138.1","29.3","52.3","493.9","0"],
    [28147,"2013-07-22T14:00:00","28.5","ND","ND","ND","ND","ND","0.8","162.9","30","50.1","542.4","0"],
    [28148,"2013-07-22T15:00:00","15.9","ND","ND","ND","ND","ND","0.8","298.2","30.3","48.5","514.1","0"],
    [28149,"2013-07-22T16:00:00","24.5","ND","ND","ND","ND","ND","1.2","321.3","31","45.6","403.6","0"],
    [28150,"2013-07-22T17:00:00","22.7","ND","ND","ND","ND","ND","1.2","262.4","27.1","62.1","66.5","10.41"],
    [28151,"2013-07-22T18:00:00","31.3","ND","ND","ND","ND","ND","0.7","333.6","24.6","72.3","35.1","0"],
    [28152,"2013-07-22T19:00:00","37.7","ND","ND","ND","ND","ND","0.7","103.8","25.4","68.3","4.7","0"],
    [28153,"2013-07-22T20:00:00","40.3","ND","ND","ND","ND","ND","1","89","25.6","65.2","0","0"],
    [28154,"2013-07-22T21:00:00","31","ND","ND","ND","ND","ND","1.6","160.6","24.9","68.2","0","0"],
    [28155,"2013-07-22T22:00:00","38.1","ND","ND","ND","ND","ND","0.2","261.6","24.1","70","0","0"],
    [28156,"2013-07-22T23:00:00","25","ND","ND","ND","ND","ND","0.1","165.4","24","71.3","0","0"],
    [28157,"2013-07-23T00:00:00","31.2","ND","ND","ND","ND","ND","1","171.7","24","70.5","0","0"],
    [28158,"2013-07-23T01:00:00","26.8","ND","ND","ND","ND","ND","0.6","137.5","23.4","74.2","0","0"],
    [28159,"2013-07-23T02:00:00","14.7","ND","ND","ND","ND","ND","0.4","90.5","22.9","78.1","0","0"],
    [28160,"2013-07-23T03:00:00","9.7","ND","ND","ND","ND","ND","1.1","233.1","22.4","81.5","0","0.25"],
    [28161,"2013-07-23T04:00:00","19.8","ND","ND","ND","ND","ND","0.8","319.5","21.6","87.8","0","3.81"],
    [28162,"2013-07-23T05:00:00","15.9","ND","ND","ND","ND","ND","0.3","54.9","21.2","90.8","0","0"],
    [28163,"2013-07-23T06:00:00","26.7","ND","ND","ND","ND","ND","0.2","195.4","21.1","92.9","0","0.25"],
    [28164,"2013-07-23T07:00:00","15.4","ND","ND","ND","ND","ND","0.8","152.2","21.5","91.6","6.4","0"],
    [28165,"2013-07-23T08:00:00","18","ND","ND","ND","ND","ND","1.1","173.7","21.9","88.4","65","0"],
    [28166,"2013-07-23T09:00:00","17.9","ND","ND","ND","ND","ND","1.3","147.9","23","79.9","191.8","0"],
    [28167,"2013-07-23T10:00:00","33.3","ND","ND","ND","ND","ND","0.6","55.2","24.1","77.8","303.9","0"],
    [28168,"2013-07-23T11:00:00","24.1","ND","ND","ND","ND","ND","1.6","42.8","23.5","81.3","217.2","0"],
    [28169,"2013-07-23T12:00:00","33.6","ND","ND","ND","ND","ND","1","73.1","24.6","74.7","371.1","0"],
    [28170,"2013-07-23T13:00:00","17.6","ND","ND","ND","ND","ND","0.7","55.9","26","66.9","393.7","0"],
    [28171,"2013-07-23T14:00:00","32","ND","ND","ND","ND","ND","1","133.9","26.7","64","518","0"],
    [28172,"2013-07-23T15:00:00","47.5","ND","ND","ND","ND","ND","2.2","175.3","27","64.9","468","0"],
    [28173,"2013-07-23T16:00:00","58.4","ND","ND","ND","ND","ND","1.9","154.5","27.2","63.7","256.9","0"],
    [28174,"2013-07-23T17:00:00","58.8","ND","ND","ND","ND","ND","1.8","166.6","26.9","64","170.1","0"],
    [28175,"2013-07-23T18:00:00","61.1","ND","ND","ND","ND","ND","1.1","132.8","26.7","64.2","60.2","0"],
    [28176,"2013-07-23T19:00:00","58.7","ND","ND","ND","ND","ND","0.8","164.4","26","66.8","0","0"],
    [28177,"2013-07-23T20:00:00","89","ND","ND","ND","ND","ND","0.3","283.8","24.7","73.5","0","0"],
    [28178,"2013-07-23T21:00:00","72","ND","ND","ND","ND","ND","0.1","169.9","24.3","73.5","0","0"],
    [28179,"2013-07-23T22:00:00","62.3","ND","ND","ND","ND","ND","0.4","207.7","24.1","72.4","0","0"],
    [28180,"2013-07-23T23:00:00","43.3","ND","ND","ND","ND","ND","0.3","330.6","23.4","74.6","0","0"],
    [28181,"2013-07-24T00:00:00","43.2","ND","ND","ND","ND","ND","0.2","308.2","22.7","78.6","0","0"],
    [28182,"2013-07-24T01:00:00","42.8","ND","ND","ND","ND","ND","0.1","268.3","22.1","82.3","0","0"],
    [28183,"2013-07-24T02:00:00","45.7","ND","ND","ND","ND","ND","0.2","249.7","21.6","82.6","0","0"],
    [28184,"2013-07-24T03:00:00","24.5","ND","ND","ND","ND","ND","0.9","209.8","21.4","84.2","0","0"],
    [28185,"2013-07-24T04:00:00","36.5","ND","ND","ND","ND","ND","1.4","186.3","21.9","80.2","0","0"],
    [28186,"2013-07-24T05:00:00","22.4","ND","ND","ND","ND","ND","0.3","213.4","21.8","80.7","0","0"],
    [28187,"2013-07-24T06:00:00","33","ND","ND","ND","ND","ND","0.3","308.1","21.6","81.6","0","0"],
    [28188,"2013-07-24T07:00:00","43","ND","ND","ND","ND","ND","0.4","267.9","21.2","83.4","28","0"],
    [28189,"2013-07-24T08:00:00","74.2","ND","ND","ND","ND","ND","0.4","142.5","23.1","75.6","167.1","0"],
    [28190,"2013-07-24T09:00:00","39.2","ND","ND","ND","ND","ND","0.6","140.9","24.8","67.1","387","0"],
    [28191,"2013-07-24T10:00:00","36.9","ND","ND","ND","ND","ND","0.9","154.1","26.3","62.2","591.2","0"],
    [28192,"2013-07-24T11:00:00","38.3","ND","ND","ND","ND","ND","1.6","137.2","27.6","57","711.5","0"],
    [28193,"2013-07-24T12:00:00","26.6","ND","ND","ND","ND","ND","1.2","163.7","28.9","52.8","818.6","0"],
    [28194,"2013-07-24T13:00:00","29.6","ND","ND","ND","ND","ND","1.1","114.2","30","51.1","815.6","0"],
    [28195,"2013-07-24T14:00:00","38.9","ND","ND","ND","ND","ND","1.5","2.7","30.9","47.7","675.1","0"],
    [28196,"2013-07-24T15:00:00","23.6","ND","ND","ND","ND","ND","1.4","353.9","31.4","44","536.4","0"],
    [28197,"2013-07-24T16:00:00","12.5","ND","ND","ND","ND","ND","3.1","276.8","31.6","41.4","520.9","0"],
    [28198,"2013-07-24T17:00:00","6.8","ND","ND","ND","ND","ND","2.5","270.7","31.5","41.2","316.4","0"],
    [28199,"2013-07-24T18:00:00","21.2","ND","ND","ND","ND","ND","1.1","271.4","30.4","43.4","109.7","0"],
    [28200,"2013-07-24T19:00:00","11.9","ND","ND","ND","ND","ND","0.6","246.3","28.8","47.3","0","0"],
    [28201,"2013-07-24T20:00:00","17.8","ND","ND","ND","ND","ND","0.3","246.5","27.5","52","0","0"],
    [28202,"2013-07-24T21:00:00","27.3","ND","ND","ND","ND","ND","0.6","150","27.6","52.4","0","0"],
    [28203,"2013-07-24T22:00:00","27","ND","ND","ND","ND","ND","0.9","149.1","26.1","60.5","0","0"],
    [28204,"2013-07-24T23:00:00","27.6","ND","ND","ND","ND","ND","0.1","78.8","24.6","67","0","0"],
    [28205,"2013-07-25T00:00:00","52.9","ND","ND","ND","ND","ND","0.1","309.1","23.7","71.2","0","0"],
    [28206,"2013-07-25T01:00:00","28.4","ND","ND","ND","ND","ND","0.4","309.5","22.8","75.3","0","0"],
    [28207,"2013-07-25T02:00:00","46.3","ND","ND","ND","ND","ND","0.1","312.7","22.5","77.2","0","0"],
    [28208,"2013-07-25T03:00:00","65.7","ND","ND","ND","ND","ND","0.5","0.7","21.7","81.3","0","0"],
    [28209,"2013-07-25T04:00:00","53.8","ND","ND","ND","ND","ND","0.8","244.2","21.5","81.9","0","0"],
    [28210,"2013-07-25T05:00:00","28.8","ND","ND","ND","ND","ND","0.2","277.4","21.4","81.9","0","0"],
    [28211,"2013-07-25T06:00:00","25.1","ND","ND","ND","ND","ND","0.2","315","21.2","82.4","0","0"],
    [28212,"2013-07-25T07:00:00","46.6","ND","ND","ND","ND","ND","0.1","291","21.2","83.8","34.6","0"],
    [28213,"2013-07-25T08:00:00","77.2","ND","ND","ND","ND","ND","0.7","38.9","23","75.8","201.7","0"],
    [28214,"2013-07-25T09:00:00","80.6","ND","ND","ND","ND","ND","0.6","42.3","24.5","70.4","321.1","0"],
    [28215,"2013-07-25T10:00:00","95.7","ND","ND","ND","ND","ND","0.7","85.1","26","64.9","468.8","0"],
    [28216,"2013-07-25T11:00:00","73.6","ND","ND","ND","ND","ND","0.9","130","27.4","58.2","616.6","0"],
    [28217,"2013-07-25T12:00:00","60.7","ND","ND","ND","ND","ND","0.8","114.6","28.8","53.6","814.1","0"],
    [28218,"2013-07-25T13:00:00","31.2","ND","ND","ND","ND","ND","1.3","106.4","30.3","48.8","728.6","0"],
    [28219,"2013-07-25T14:00:00","28.1","ND","ND","ND","ND","ND","0.6","141.1","31.4","44.3","750.2","0"],
    [28220,"2013-07-25T15:00:00","22.9","ND","ND","ND","ND","ND","1.4","96.2","31.7","42.5","443.6","0"],
    [28221,"2013-07-25T16:00:00","27","ND","ND","ND","ND","ND","1.2","70.5","32.2","39.8","475","0"],
    [28222,"2013-07-25T17:00:00","25.4","ND","ND","ND","ND","ND","1.4","87.3","32.3","39.5","240.8","0"],
    [28223,"2013-07-25T18:00:00","34.1","ND","ND","ND","ND","ND","0.4","335.9","31.4","44.8","95","0"],
    [28224,"2013-07-25T19:00:00","32.2","ND","ND","ND","ND","ND","1.2","262.8","29.3","51.7","4.9","0"],
    [28225,"2013-07-25T20:00:00","31.4","ND","ND","ND","ND","ND","0.3","249","28.9","51.6","0","0"],
    [28226,"2013-07-25T21:00:00","18.1","ND","ND","ND","ND","ND","0.5","253.2","28.2","53.6","0","0"],
    [28227,"2013-07-25T22:00:00","31.1","ND","ND","ND","ND","ND","0.5","61.5","26.9","61.3","0","0"],
    [28228,"2013-07-25T23:00:00","34.7","ND","ND","ND","ND","ND","0.4","234.3","25.5","68","0","0"],
    [28229,"2013-07-26T00:00:00","47.1","ND","ND","ND","ND","ND","0.2","310.4","24.9","69.4","0","0"],
    [28230,"2013-07-26T01:00:00","25.4","ND","ND","ND","ND","ND","0.1","295.1","24.5","70.5","0","0"],
    [28231,"2013-07-26T02:00:00","29.4","ND","ND","ND","ND","ND","0.5","204.4","23.8","74.4","0","0"],
    [28232,"2013-07-26T03:00:00","35.2","ND","ND","ND","ND","ND","0.7","90.5","23.5","76.8","0","0"],
    [28233,"2013-07-26T04:00:00","24.1","ND","ND","ND","ND","ND","0.2","185.6","23","78.9","0","0"],
    [28234,"2013-07-26T05:00:00","27.9","ND","ND","ND","ND","ND","0.2","329.4","22.8","80.1","0","0"],
    [28235,"2013-07-26T06:00:00","44.6","ND","ND","ND","ND","ND","0.2","352.3","22.7","80.7","0","0"],
    [28236,"2013-07-26T07:00:00","47.6","ND","ND","ND","ND","ND","0.1","139.1","22.9","80.2","15.7","0"],
    [28237,"2013-07-26T08:00:00","117","ND","ND","ND","ND","ND","0.5","192.1","23.9","71.9","122.3","0"],
    [28238,"2013-07-26T09:00:00","71.1","ND","ND","ND","ND","ND","1.5","119.8","25.4","59","311.6","0"],
    [28239,"2013-07-26T10:00:00","46.8","ND","ND","ND","ND","ND","0.9","85.8","26.3","58.4","334.2","0"],
    [28240,"2013-07-26T11:00:00","42.5","ND","ND","ND","ND","ND","1.1","70.1","27.3","56.6","630.4","0"],
    [28241,"2013-07-26T12:00:00","52.5","ND","ND","ND","ND","ND","1.1","35.2","28.8","50.1","670.3","0"],
    [28242,"2013-07-26T13:00:00","45.2","ND","ND","ND","ND","ND","1.4","57.5","30.2","46","775.3","0"],
    [28243,"2013-07-26T14:00:00","32.9","ND","ND","ND","ND","ND","1.4","41.6","31","42.4","592.8","0"],
    [28244,"2013-07-26T15:00:00","17.5","ND","ND","ND","ND","ND","1.2","2.6","31.1","41","506.8","0"],
    [28245,"2013-07-26T16:00:00","10.5","ND","ND","ND","ND","ND","0.7","72.6","31.7","39.6","412.1","0"],
    [28246,"2013-07-26T17:00:00","9.2","ND","ND","ND","ND","ND","0.9","317.5","30.8","43.1","221.1","0"],
    [28247,"2013-07-26T18:00:00","19.3","ND","ND","ND","ND","ND","0.9","351.2","29.8","47","87.7","0"],
    [28248,"2013-07-26T19:00:00","13.3","ND","ND","ND","ND","ND","1.5","250.6","27.9","50.4","4.2","0"],
    [28249,"2013-07-26T20:00:00","19.6","ND","ND","ND","ND","ND","0.8","260.6","27.4","50.1","0","0"],
    [28250,"2013-07-26T21:00:00","10.8","ND","ND","ND","ND","ND","0.5","305","27.3","49.8","0","0"],
    [28251,"2013-07-26T22:00:00","37.7","ND","ND","ND","ND","ND","0.7","136.2","26.3","55.5","0","0"],
    [28252,"2013-07-26T23:00:00","52.8","ND","ND","ND","ND","ND","0.2","143","24.9","63.4","0","0"],
    [28253,"2013-07-27T00:00:00","99.1","ND","ND","ND","ND","ND","0.4","147.4","23.7","68.6","0","0"],
    [28254,"2013-07-27T01:00:00","90.8","ND","ND","ND","ND","ND","0.4","260","23.1","70.4","0","0"],
    [28255,"2013-07-27T02:00:00","85.7","ND","ND","ND","ND","ND","0.2","264.7","22.6","70.5","0","0"],
    [28256,"2013-07-27T03:00:00","56.9","ND","ND","ND","ND","ND","0.3","191.4","22.8","71.2","0","0"],
    [28257,"2013-07-27T04:00:00","37.4","ND","ND","ND","ND","ND","0.5","163.6","22.2","70.7","0","0"],
    [28258,"2013-07-27T05:00:00","34.9","ND","ND","ND","ND","ND","0.4","179.1","21.8","73.7","0","0"],
    [28259,"2013-07-27T06:00:00","19.6","ND","ND","ND","ND","ND","0.2","272.8","21","76.1","0","0"],
    [28260,"2013-07-27T07:00:00","11.4","ND","ND","ND","ND","ND","0.1","302.8","20.8","75","36.2","0"],
    [28261,"2013-07-27T08:00:00","24.7","ND","ND","ND","ND","ND","0.3","45.2","23.1","60.9","191","0"],
    [28262,"2013-07-27T09:00:00","37.2","ND","ND","ND","ND","ND","0.9","94","24.8","56.2","404","0"],
    [28263,"2013-07-27T10:00:00","54.4","ND","ND","ND","ND","ND","0.9","121.5","26","52.9","600.4","0"],
    [28264,"2013-07-27T11:00:00","32.5","ND","ND","ND","ND","ND","0.8","69.2","27.3","50.3","733.3","0"],
    [28265,"2013-07-27T12:00:00","33.8","ND","ND","ND","ND","ND","1.1","67.8","28.5","48.6","819.8","0"],
    [28266,"2013-07-27T13:00:00","27","ND","ND","ND","ND","ND","0.5","43.4","30.2","44.1","794.6","0"],
    [28267,"2013-07-27T14:00:00","34.7","ND","ND","ND","ND","ND","0.7","100.7","31.6","39.8","751.2","0"],
    [28268,"2013-07-27T15:00:00","20","ND","ND","ND","ND","ND","1","40.7","32.4","36.6","637","0"],
    [28269,"2013-07-27T16:00:00","39.9","ND","ND","ND","ND","ND","1.5","1.4","31.7","41.2","316.6","0"],
    [28270,"2013-07-27T17:00:00","22","ND","ND","ND","ND","ND","0.7","282.9","31.7","40.9","300.8","0"],
    [28271,"2013-07-27T18:00:00","44.6","ND","ND","ND","ND","ND","1.9","260.1","30.1","44.9","75","0"],
    [28272,"2013-07-27T19:00:00","29.4","ND","ND","ND","ND","ND","2.4","260.6","28.1","49.8","0","0"],
    [28273,"2013-07-27T20:00:00","44","ND","ND","ND","ND","ND","0.6","223","27.9","49.9","0","0"],
    [28274,"2013-07-27T21:00:00","31.3","ND","ND","ND","ND","ND","2.1","238.1","27.8","40.1","0","0"],
    [28275,"2013-07-27T22:00:00","21.1","ND","ND","ND","ND","ND","0.2","338.2","26.5","47.1","0","0"],
    [28276,"2013-07-27T23:00:00","32.3","ND","ND","ND","ND","ND","0.2","301","24.7","57.2","0","0"],
    [28277,"2013-07-28T00:00:00","51.4","ND","ND","ND","ND","ND","0.8","349.6","23.8","59.8","0","0"],
    [28278,"2013-07-28T01:00:00","43.1","ND","ND","ND","ND","ND","0.3","316.6","23.2","61.4","0","0"],
    [28279,"2013-07-28T02:00:00","32.8","ND","ND","ND","ND","ND","0.3","222.4","22.7","64.1","0","0"],
    [28280,"2013-07-28T03:00:00","18.4","ND","ND","ND","ND","ND","0.1","11.4","21.8","68","0","0"],
    [28281,"2013-07-28T04:00:00","31.3","ND","ND","ND","ND","ND","0.3","299.9","21.2","71.1","0","0"],
    [28282,"2013-07-28T05:00:00","29.8","ND","ND","ND","ND","ND","0.3","220.2","21.1","70.9","0","0"],
    [28283,"2013-07-28T06:00:00","20","ND","ND","ND","ND","ND","0.2","2.7","20.9","73","0","0"],
    [28284,"2013-07-28T07:00:00","32","ND","ND","ND","ND","ND","0.6","3.8","20.5","76.9","44.6","0"],
    [28285,"2013-07-28T08:00:00","49","ND","ND","ND","ND","ND","0.3","40.3","23","67.3","216.6","0"],
    [28286,"2013-07-28T09:00:00","48.7","ND","ND","ND","ND","ND","1.1","49.7","24.6","59.3","385.4","0"],
    [28287,"2013-07-28T10:00:00","25.9","ND","ND","ND","ND","ND","0.7","81.6","26.3","52.7","637.9","0"],
    [28288,"2013-07-28T11:00:00","41.3","ND","ND","ND","ND","ND","1.4","65.3","27.5","52.4","763.8","0"],
    [28289,"2013-07-28T12:00:00","24.1","ND","ND","ND","ND","ND","1.1","49.9","29.1","46.6","899.9","0"],
    [28290,"2013-07-28T13:00:00","34.8","ND","ND","ND","ND","ND","0.5","97.1","30.3","40.8","512.2","0"],
    [28291,"2013-07-28T14:00:00","19.9","ND","ND","ND","ND","ND","2.1","148","31.5","37.3","627.8","0"],
    [28292,"2013-07-28T15:00:00","34.8","ND","ND","ND","ND","ND","1.3","66.9","31.4","36.6","305.4","0"],
    [28293,"2013-07-28T16:00:00","25.4","ND","ND","ND","ND","ND","1.5","99","31.2","37","256.9","0"],
    [28294,"2013-07-28T17:00:00","21.7","ND","ND","ND","ND","ND","0.8","280.4","30.5","44","165.7","0"],
    [28295,"2013-07-28T18:00:00","28.9","ND","ND","ND","ND","ND","2.3","260.6","29.3","45.9","24","0"],
    [28296,"2013-07-28T19:00:00","18.7","ND","ND","ND","ND","ND","0.2","0.7","28.6","46.8","0","0"],
    [28297,"2013-07-28T20:00:00","28.8","ND","ND","ND","ND","ND","0.1","174.4","28.2","47.9","0","0"],
    [28298,"2013-07-28T21:00:00","28","ND","ND","ND","ND","ND","1.8","271.1","27.4","51","0","0"],
    [28299,"2013-07-28T22:00:00","31.9","ND","ND","ND","ND","ND","1.5","28","26.1","59.7","0","0"],
    [28300,"2013-07-28T23:00:00","34.8","ND","ND","ND","ND","ND","1","183.6","25.9","59.3","0","0"],
    [28301,"2013-07-29T00:00:00","25.4","ND","ND","ND","ND","ND","0.1","23.2","24.9","62.3","0","0"],
    [28302,"2013-07-29T01:00:00","26.3","ND","ND","ND","ND","ND","0.2","317.1","24.1","65.2","0","0"],
    [28303,"2013-07-29T02:00:00","21.7","ND","ND","ND","ND","ND","0.2","164.2","24.2","68.5","0","0"],
    [28304,"2013-07-29T03:00:00","12.1","ND","ND","ND","ND","ND","0.6","204.2","23.9","69.3","0","0"],
    [28305,"2013-07-29T04:00:00","23.7","ND","ND","ND","ND","ND","0.5","38.7","23.2","72.3","0","0"],
    [28306,"2013-07-29T05:00:00","13.8","ND","ND","ND","ND","ND","0.1","61","22.8","74.4","0","0"],
    [28307,"2013-07-29T06:00:00","24.4","ND","ND","ND","ND","ND","0.3","319.7","22.3","75.9","0","0"],
    [28308,"2013-07-29T07:00:00","15.4","ND","ND","ND","ND","ND","0.4","318.4","22.3","76.2","19.2","0"],
    [28309,"2013-07-29T08:00:00","52.3","ND","ND","ND","ND","ND","0.3","251.4","23.2","71.5","111.9","0"],
    [28310,"2013-07-29T09:00:00","53.7","ND","ND","ND","ND","ND","0.2","44.7","24.9","64.2","265.5","0"],
    [28311,"2013-07-29T10:00:00","55.3","ND","ND","ND","ND","ND","0.6","103.7","26.5","56.2","520.3","0"],
    [28312,"2013-07-29T11:00:00","40.5","ND","ND","ND","ND","ND","1.6","154.2","28.3","47.7","697.6","0"],
    [28313,"2013-07-29T12:00:00","33.3","ND","ND","ND","ND","ND","1.6","134","28.9","45.9","512.5","0"],
    [28314,"2013-07-29T13:00:00","17.6","ND","ND","ND","ND","ND","0.6","114.8","29.8","44.8","603.2","0"],
    [28315,"2013-07-29T14:00:00","46","ND","ND","ND","ND","ND","1.6","94","30.2","45.5","507.8","0"],
    [28316,"2013-07-29T15:00:00","46.9","ND","ND","ND","ND","ND","1.6","58.9","30.1","46.1","385.9","0"],
    [28317,"2013-07-29T16:00:00","41.9","ND","ND","ND","ND","ND","1.5","41","30.5","42.9","404.2","0"],
    [28318,"2013-07-29T17:00:00","39.7","ND","ND","ND","ND","ND","1.1","218.6","30.1","46","103.8","0"],
    [28319,"2013-07-29T18:00:00","34.7","ND","ND","ND","ND","ND","1.7","247.1","28.9","47.8","35.2","0"],
    [28320,"2013-07-29T19:00:00","18.9","ND","ND","ND","ND","ND","1.7","242","28.2","47.6","0","0"],
    [28321,"2013-07-29T20:00:00","17.5","ND","ND","ND","ND","ND","1.5","247","27","50.4","0","0"],
    [28322,"2013-07-29T21:00:00","24.6","ND","ND","ND","ND","ND","1","153.7","27.1","51.3","0","0"],
    [28323,"2013-07-29T22:00:00","30","ND","ND","ND","ND","ND","0.7","143.9","26.1","57.2","0","0"],
    [28324,"2013-07-29T23:00:00","25.4","ND","ND","ND","ND","ND","0.8","208.5","25","62.8","0","0"],
    [28325,"2013-07-30T00:00:00","40.3","ND","ND","ND","ND","ND","0.1","13.5","24","67.7","0","0"],
    [28326,"2013-07-30T01:00:00","24.2","ND","ND","ND","ND","ND","0.1","198.2","23.1","69.8","0","0"],
    [28327,"2013-07-30T02:00:00","51.9","ND","ND","ND","ND","ND","0.5","179.4","23.1","72.1","0","0"],
    [28328,"2013-07-30T03:00:00","36.9","ND","ND","ND","ND","ND","0.5","205.3","22.4","74.8","0","0"],
    [28329,"2013-07-30T04:00:00","26.8","ND","ND","ND","ND","ND","0.1","201.3","21.8","75.9","0","0"],
    [28330,"2013-07-30T05:00:00","24.4","ND","ND","ND","ND","ND","0.2","325.2","21.1","78.2","0","0"],
    [28331,"2013-07-30T06:00:00","30.8","ND","ND","ND","ND","ND","0.2","289.3","21.3","77.8","0","0"],
    [28332,"2013-07-30T07:00:00","17.4","ND","ND","ND","ND","ND","0.3","355.9","21.6","76.6","38.1","0"],
    [28333,"2013-07-30T08:00:00","61.3","ND","ND","ND","ND","ND","1.1","41.4","22.6","72.1","209.4","0"],
    [28334,"2013-07-30T09:00:00","32.5","ND","ND","ND","ND","ND","1","106.1","24.5","57.6","416.9","0"],
    [28335,"2013-07-30T10:00:00","45.2","ND","ND","ND","ND","ND","0.7","148.7","26","52.4","375","0"],
    [28336,"2013-07-30T11:00:00","31.9","ND","ND","ND","ND","ND","1.1","137.9","27.6","47.2","645.3","0"],
    [28337,"2013-07-30T12:00:00","38.9","ND","ND","ND","ND","ND","2.5","133.4","27.8","47.5","529.5","0"],
    [28338,"2013-07-30T13:00:00","25.6","ND","ND","ND","ND","ND","1.8","159.5","28.6","42.2","524.1","0"],
    [28339,"2013-07-30T14:00:00","31.4","ND","ND","ND","ND","ND","2.8","147.4","29.2","40.9","522.3","0"],
    [28340,"2013-07-30T15:00:00","22.3","ND","ND","ND","ND","ND","2.1","141.3","29.7","40.3","447.2","0"],
    [28341,"2013-07-30T16:00:00","14","ND","ND","ND","ND","ND","1.6","111.9","30","38.6","320.3","0"],
    [28342,"2013-07-30T17:00:00","13.2","ND","ND","ND","ND","ND","1.1","101.3","29.9","38.1","211.8","0"],
    [28343,"2013-07-30T18:00:00","31.6","ND","ND","ND","ND","ND","0.6","236.9","28.6","45.1","44.8","0"],
    [28344,"2013-07-30T19:00:00","23.5","ND","ND","ND","ND","ND","1","248.3","26.9","53.1","0","0"],
    [28345,"2013-07-30T20:00:00","26.2","ND","ND","ND","ND","ND","1.6","256.3","26.1","55.1","0","0"],
    [28346,"2013-07-30T21:00:00","19.1","ND","ND","ND","ND","ND","0.6","254.3","25.8","55.1","0","0"],
    [28347,"2013-07-30T22:00:00","35.7","ND","ND","ND","ND","ND","0.9","125.7","24.4","64.1","0","0"],
    [28348,"2013-07-30T23:00:00","19.4","ND","ND","ND","ND","ND","0.3","217.1","24.2","65.9","0","0"],
    [28349,"2013-07-31T00:00:00","42.5","ND","ND","ND","ND","ND","0.5","124.5","23.5","69.1","0","0"],
    [28350,"2013-07-31T01:00:00","24.7","ND","ND","ND","ND","ND","0.1","99","22.4","73.2","0","0"],
    [28351,"2013-07-31T02:00:00","38.3","ND","ND","ND","ND","ND","0.4","265.2","22","74.2","0","0"],
    [28352,"2013-07-31T03:00:00","45.6","ND","ND","ND","ND","ND","0.6","160.8","22.2","73.7","0","0"],
    [28353,"2013-07-31T04:00:00","38.7","ND","ND","ND","ND","ND","1","137.5","22.1","74.3","0","0"],
    [28354,"2013-07-31T05:00:00","28.5","ND","ND","ND","ND","ND","0.4","281.6","20.9","79","0","0"],
    [28355,"2013-07-31T06:00:00","23.5","ND","ND","ND","ND","ND","0.2","273","20.6","79.9","0","0"],
    [28356,"2013-07-31T07:00:00","28.2","ND","ND","ND","ND","ND","0.3","301.6","20.6","78.8","23.5","0"],
    [28357,"2013-07-31T08:00:00","56.2","ND","ND","ND","ND","ND","0.5","71.6","22.4","72.4","138.6","0"],
    [28358,"2013-07-31T09:00:00","39.1","ND","ND","ND","ND","ND","1.1","122.3","23.3","70","259.6","0"],
    [28359,"2013-07-31T10:00:00","77.4","ND","ND","ND","ND","ND","1.1","144.3","24.9","62.9","452.4","0"],
    [28360,"2013-07-31T11:00:00","40.6","ND","ND","ND","ND","ND","0.9","163.3","26.8","54.7","522","0"],
    [28361,"2013-07-31T12:00:00","58.7","ND","ND","ND","ND","ND","2","131","28.4","47.8","828.4","0"],
    [28362,"2013-07-31T13:00:00","30","ND","ND","ND","ND","ND","1.6","115.1","29","46.6","524.3","0"],
    [28363,"2013-07-31T14:00:00","91.6","ND","ND","ND","ND","ND","0.7","133.6","29.8","44.8","461.5","0"],
    [28364,"2013-07-31T15:00:00","71.9","ND","ND","ND","ND","ND","0.9","110.4","30.1","44.6","419.2","0"],
    [28365,"2013-07-31T16:00:00","71.5","ND","ND","ND","ND","ND","0.1","48.2","30.6","43.1","291.1","0"],
    [28366,"2013-07-31T17:00:00","57.3","ND","ND","ND","ND","ND","1.9","283.4","29.9","46.6","196.4","0"],
    [28367,"2013-07-31T18:00:00","42.4","ND","ND","ND","ND","ND","3.2","280.2","28.5","49.1","88.7","0"],
    [28368,"2013-07-31T19:00:00","26.6","ND","ND","ND","ND","ND","1.8","294.7","27.6","50.4","0","0"],
    [28369,"2013-07-31T20:00:00","49.1","ND","ND","ND","ND","ND","0.3","79","27.2","52.2","0","0"],
    [28370,"2013-07-31T21:00:00","30.1","ND","ND","ND","ND","ND","0.7","92.2","26.8","54.8","0","0"],
    [28371,"2013-07-31T22:00:00","39.4","ND","ND","ND","ND","ND","0.9","124.6","25.3","62","0","0"],
    [28372,"2013-07-31T23:00:00","92.4","ND","ND","ND","ND","ND","0.3","63.3","24.1","67.8","0","0"],
    [28373,"2013-08-01T00:00:00","91.1","ND","ND","ND","ND","ND","0.4","106.2","23.9","68.6","0","0"],
    [28374,"2013-08-01T01:00:00","46.7","ND","ND","ND","ND","ND","0.5","63.8","23.2","72.1","0","0"],
    [28375,"2013-08-01T02:00:00","35","ND","ND","ND","ND","ND","0.4","72.9","22.8","74.6","0","0"],
    [28376,"2013-08-01T03:00:00","26.8","ND","ND","ND","ND","ND","0.3","112.8","22.2","77.2","0","0"],
    [28377,"2013-08-01T04:00:00","44.6","ND","ND","ND","ND","ND","0.4","285.2","22","78.4","0","0"],
    [28378,"2013-08-01T05:00:00","28.8","ND","ND","ND","ND","ND","0.3","168.7","22.3","76.8","0","0"],
    [28379,"2013-08-01T06:00:00","40.3","ND","ND","ND","ND","ND","0.8","152.5","22.2","75.3","0","0"],
    [28380,"2013-08-01T07:00:00","40.7","ND","ND","ND","ND","ND","0.8","153.8","22.1","75.7","25.9","0"],
    [28381,"2013-08-01T08:00:00","62.5","ND","ND","ND","ND","ND","0.6","170.3","22.8","73.1","130","0"],
    [28382,"2013-08-01T09:00:00","45.2","ND","ND","ND","ND","ND","0.6","144.2","23.8","68.5","111","0"],
    [28383,"2013-08-01T10:00:00","72.5","ND","ND","ND","ND","ND","1","335.1","22.5","80.9","146.2","2.54"],
    [28384,"2013-08-01T11:00:00","64.5","ND","ND","ND","ND","ND","0.4","258.9","24.5","71.2","462.6","0"],
    [28385,"2013-08-01T12:00:00","42.1","ND","ND","ND","ND","ND","0.1","252.1","26.9","59.7","607","0"],
    [28386,"2013-08-01T13:00:00","25","ND","ND","ND","ND","ND","0.8","31.5","27.8","56.6","432.2","0"],
    [28387,"2013-08-01T14:00:00","33.4","ND","ND","ND","ND","ND","2.1","35.7","28.4","54.1","563.5","0"],
    [28388,"2013-08-01T15:00:00","20.1","ND","ND","ND","ND","ND","1.7","7.9","29.5","47.9","524.6","0"],
    [28389,"2013-08-01T16:00:00","11.5","ND","ND","ND","ND","ND","1.8","313.3","29.8","46.6","424.5","0"],
    [28390,"2013-08-01T17:00:00","5.8","ND","ND","ND","ND","ND","3.2","271.1","29.1","47.5","319.5","0"],
    [28391,"2013-08-01T18:00:00","2.9","ND","ND","ND","ND","ND","2.2","274.2","27.9","49.3","34.4","0"],
    [28392,"2013-08-01T19:00:00","14.3","ND","ND","ND","ND","ND","0.8","107.3","27.2","51.3","0","0"],
    [28393,"2013-08-01T20:00:00","47.6","ND","ND","ND","ND","ND","1.1","112.6","26.8","53","0","0"],
    [28394,"2013-08-01T21:00:00","49.1","ND","ND","ND","ND","ND","0.3","61.2","26.2","54.8","0","0"],
    [28395,"2013-08-01T22:00:00","69.8","ND","ND","ND","ND","ND","0","337.8","25.8","56.6","0","0"],
    [28396,"2013-08-01T23:00:00","36","ND","ND","ND","ND","ND","1.3","86.6","25.2","59.9","0","0"],
    [28397,"2013-08-02T00:00:00","41.6","ND","ND","ND","ND","ND","0.9","143.8","24.3","65.6","0","0"],
    [28398,"2013-08-02T01:00:00","23","ND","ND","ND","ND","ND","0.8","75.3","23.2","73.3","0","0"],
    [28399,"2013-08-02T02:00:00","12.7","ND","ND","ND","ND","ND","0.6","53.5","22","81.4","0","0"],
    [28400,"2013-08-02T03:00:00","11.6","ND","ND","ND","ND","ND","1.2","40.9","21.5","85.1","0","0"],
    [28401,"2013-08-02T04:00:00","22.8","ND","ND","ND","ND","ND","0.6","56.3","21","87.5","0","0"],
    [28402,"2013-08-02T05:00:00","13.2","ND","ND","ND","ND","ND","0.7","34.9","20.8","89.6","0","0"],
    [28403,"2013-08-02T06:00:00","8.5","ND","ND","ND","ND","ND","0.3","173.5","21.1","89.4","0","0"],
    [28404,"2013-08-02T07:00:00","22.7","ND","ND","ND","ND","ND","0.5","74.7","21.5","86.2","6.7","0"],
    [28405,"2013-08-02T08:00:00","42.9","ND","ND","ND","ND","ND","0.5","48.9","21.5","87.4","82.3","0"],
    [28406,"2013-08-02T09:00:00","53.5","ND","ND","ND","ND","ND","0.5","20.6","23","79.4","178.7","0"],
    [28407,"2013-08-02T10:00:00","55.1","ND","ND","ND","ND","ND","1.1","71.5","24.1","73.1","279.6","0"],
    [28408,"2013-08-02T11:00:00","29.6","ND","ND","ND","ND","ND","1.1","60.9","25.9","64.7","667.1","0"],
    [28409,"2013-08-02T12:00:00","21.1","ND","ND","ND","ND","ND","1.3","76.1","27.6","57.1","845.5","0"],
    [28410,"2013-08-02T13:00:00","21.7","ND","ND","ND","ND","ND","1.3","64.7","29.2","50.9","800.2","0"],
    [28411,"2013-08-02T14:00:00","22.4","ND","ND","ND","ND","ND","0.9","69.5","30.2","47.5","767.6","0"],
    [28412,"2013-08-02T15:00:00","13.2","ND","ND","ND","ND","ND","1.4","78.1","30.6","46.8","645.9","0"],
    [28413,"2013-08-02T16:00:00","13.6","ND","ND","ND","ND","ND","1.3","19.5","30.8","47.5","398.2","0"],
    [28414,"2013-08-02T17:00:00","30.5","ND","ND","ND","ND","ND","1.4","288.4","30.3","48.1","165.5","0"],
    [28415,"2013-08-02T18:00:00","16.9","ND","ND","ND","ND","ND","1.6","266.8","29.9","48.5","88.4","0"],
    [28416,"2013-08-02T19:00:00","10.9","ND","ND","ND","ND","ND","0.7","271.6","28.6","51.2","0","0"],
    [28417,"2013-08-02T20:00:00","13.2","ND","ND","ND","ND","ND","0.2","137.2","28.5","50.2","0","0"],
    [28418,"2013-08-02T21:00:00","20","ND","ND","ND","ND","ND","0.9","107.8","28","51.8","0","0"],
    [28419,"2013-08-02T22:00:00","30.6","ND","ND","ND","ND","ND","1","95.4","26.8","58.4","0","0"],
    [28420,"2013-08-02T23:00:00","22.7","ND","ND","ND","ND","ND","0.5","99.3","26","62.6","0","0"],
    [28421,"2013-08-03T00:00:00","62.5","ND","ND","ND","ND","ND","0.5","156.5","25.6","64.4","0","0"],
    [28422,"2013-08-03T01:00:00","31.9","ND","ND","ND","ND","ND","0.9","148.9","25.1","67.3","0","0"],
    [28423,"2013-08-03T02:00:00","26.6","ND","ND","ND","ND","ND","0.5","140","24.6","69.4","0","0"],
    [28424,"2013-08-03T03:00:00","15.6","ND","ND","ND","ND","ND","0.5","158.8","24.4","71","0","0"],
    [28425,"2013-08-03T04:00:00","8.6","ND","ND","ND","ND","ND","0.4","105.3","24.1","72.8","0","0"],
    [28426,"2013-08-03T05:00:00","26.2","ND","ND","ND","ND","ND","0.7","117.4","23.8","74.9","0","0"],
    [28427,"2013-08-03T06:00:00","22.5","ND","ND","ND","ND","ND","0.5","124.9","23.4","77.1","0","0"],
    [28428,"2013-08-03T07:00:00","25.2","ND","ND","ND","ND","ND","0.1","226.7","23.7","76.1","16.1","0"],
    [28429,"2013-08-03T08:00:00","43.1","ND","ND","ND","ND","ND","1.5","160.8","24.1","73.3","54.8","0"],
    [28430,"2013-08-03T09:00:00","32.2","ND","ND","ND","ND","ND","1.9","136.4","25.2","70.6","321.1","0"],
    [28431,"2013-08-03T10:00:00","40.2","ND","ND","ND","ND","ND","1.6","135.7","26.3","64.9","396.9","0"],
    [28432,"2013-08-03T11:00:00","20.6","ND","ND","ND","ND","ND","1.3","161.9","27.8","58.8","750.1","0"],
    [28433,"2013-08-03T12:00:00","22.6","ND","ND","ND","ND","ND","2","143.7","29.5","50.8","837.9","0"],
    [28434,"2013-08-03T13:00:00","12.2","ND","ND","ND","ND","ND","1.4","151.8","31","45.8","819.9","0"],
    [28435,"2013-08-03T14:00:00","17.9","ND","ND","ND","ND","ND","0.5","193.6","32.6","37.3","809","0"],
    [28436,"2013-08-03T15:00:00","20.4","ND","ND","ND","ND","ND","0.5","6.3","33.9","31.5","687.3","0"],
    [28437,"2013-08-03T16:00:00","16.3","ND","ND","ND","ND","ND","2","321","33.2","35.2","383.2","0"],
    [28438,"2013-08-03T17:00:00","46.2","ND","ND","ND","ND","ND","2.3","270.1","31.4","41","141.7","0"],
    [28439,"2013-08-03T18:00:00","48.8","ND","ND","ND","ND","ND","2","253.4","30.3","43.9","70.6","0"],
    [28440,"2013-08-03T19:00:00","25.7","ND","ND","ND","ND","ND","0.9","240.9","29","46.8","0","0"],
    [28441,"2013-08-03T20:00:00","47.2","ND","ND","ND","ND","ND","0.4","129.2","28.2","50.2","0","0"],
    [28442,"2013-08-03T21:00:00","39.1","ND","ND","ND","ND","ND","0.3","183.5","27.6","53","0","0"],
    [28443,"2013-08-03T22:00:00","45.1","ND","ND","ND","ND","ND","0.7","96.9","26.9","56.9","0","0"],
    [28444,"2013-08-03T23:00:00","60.6","ND","ND","ND","ND","ND","0.6","85.6","25.9","61.9","0","0"],
    [28445,"2013-08-04T00:00:00","74.8","ND","ND","ND","ND","ND","0.7","72.8","24.6","68","0","0"],
    [28446,"2013-08-04T01:00:00","63.1","ND","ND","ND","ND","ND","0.8","136.2","24.5","69.3","0","0"],
    [28447,"2013-08-04T02:00:00","57.4","ND","ND","ND","ND","ND","1.2","149.1","23.7","73.2","0","0"],
    [28448,"2013-08-04T03:00:00","30.3","ND","ND","ND","ND","ND","0.3","248","23","76.1","0","0"],
    [28449,"2013-08-04T04:00:00","31.6","ND","ND","ND","ND","ND","0.5","246.5","22.8","75.9","0","0"],
    [28450,"2013-08-04T05:00:00","17.9","ND","ND","ND","ND","ND","0.3","165.1","22.8","75.7","0","0"],
    [28451,"2013-08-04T06:00:00","42.6","ND","ND","ND","ND","ND","0.8","10.8","21.3","83.3","0","0"],
    [28452,"2013-08-04T07:00:00","34.7","ND","ND","ND","ND","ND","0.5","218.7","21.6","82.3","26.6","0"],
    [28453,"2013-08-04T08:00:00","30.5","ND","ND","ND","ND","ND","0.4","47","23.5","73.6","124.4","0"],
    [28454,"2013-08-04T09:00:00","35.2","ND","ND","ND","ND","ND","0.7","89.7","24.6","70.1","372.3","0"],
    [28455,"2013-08-04T10:00:00","36.6","ND","ND","ND","ND","ND","0.8","149.8","25.9","62.1","367.2","0"],
    [28456,"2013-08-04T11:00:00","27.6","ND","ND","ND","ND","ND","0.7","122.3","26.7","59.9","383.7","0"],
    [28457,"2013-08-04T12:00:00","23","ND","ND","ND","ND","ND","0.7","71.2","27.4","58.7","320","0"],
    [28458,"2013-08-04T13:00:00","13.5","ND","ND","ND","ND","ND","1","151.3","29.3","52.4","739.2","0"],
    [28459,"2013-08-04T14:00:00","25","ND","ND","ND","ND","ND","1.2","87.4","30.7","47.3","779.2","0"],
    [28460,"2013-08-04T15:00:00","14.1","ND","ND","ND","ND","ND","1","52.2","32","38","692.4","0"],
    [28461,"2013-08-04T16:00:00","9.1","ND","ND","ND","ND","ND","1","26.4","32.7","33.6","554","0"],
    [28462,"2013-08-04T17:00:00","7","ND","ND","ND","ND","ND","0.9","9","32.4","37.7","359","0"],
    [28463,"2013-08-04T18:00:00","15.6","ND","ND","ND","ND","ND","1.5","261.3","30.7","44.3","70.3","0"],
    [28464,"2013-08-04T19:00:00","37","ND","ND","ND","ND","ND","2.7","248.8","29","49.4","0","0"],
    [28465,"2013-08-04T20:00:00","19.9","ND","ND","ND","ND","ND","1.7","246.6","28.3","51.7","0","0"],
    [28466,"2013-08-04T21:00:00","11.1","ND","ND","ND","ND","ND","0.6","97.5","27.8","53.5","0","0"],
    [28467,"2013-08-04T22:00:00","20","ND","ND","ND","ND","ND","0.9","100.6","27.1","57.2","0","0"],
    [28468,"2013-08-04T23:00:00","27.9","ND","ND","ND","ND","ND","0.8","107","26.2","61","0","0"],
    [28469,"2013-08-05T00:00:00","25.2","ND","ND","ND","ND","ND","0.7","125.9","25.2","66.4","0","0"],
    [28470,"2013-08-05T01:00:00","22.5","ND","ND","ND","ND","ND","0.1","80.7","24.9","67.5","0","0"],
    [28471,"2013-08-05T02:00:00","26.5","ND","ND","ND","ND","ND","0.3","240.2","24.4","69.3","0","0"],
    [28472,"2013-08-05T03:00:00","15.3","ND","ND","ND","ND","ND","0.1","239.2","23.5","73.4","0","0"],
    [28473,"2013-08-05T04:00:00","11","ND","ND","ND","ND","ND","1","169.7","22.8","76","0","0"],
    [28474,"2013-08-05T05:00:00","8.3","ND","ND","ND","ND","ND","0.5","197.4","22.4","76.5","0","0"],
    [28475,"2013-08-05T06:00:00","29","ND","ND","ND","ND","ND","0.7","243.8","21.9","76.9","0","0"],
    [28476,"2013-08-05T07:00:00","21.5","ND","ND","ND","ND","ND","0.6","268.3","21.7","77.4","16.6","0"],
    [28477,"2013-08-05T08:00:00","41.6","ND","ND","ND","ND","ND","0.3","97.8","23.4","69.4","174.8","0"],
    [28478,"2013-08-05T09:00:00","46.7","ND","ND","ND","ND","ND","0.9","84.7","25.1","63.7","389.7","0"],
    [28479,"2013-08-05T10:00:00","63.2","ND","ND","ND","ND","ND","1.5","115.9","26.8","55.6","619.2","0"],
    [28480,"2013-08-05T11:00:00","32.4","ND","ND","ND","ND","ND","1","122.2","28.2","51.8","758.8","0"],
    [28481,"2013-08-05T12:00:00","58","ND","ND","ND","ND","ND","1.3","145.3","29.9","47.1","780.1","0"],
    [28482,"2013-08-05T13:00:00","38.3","ND","ND","ND","ND","ND","1.7","53.4","30.3","46.3","627.4","0"],
    [28483,"2013-08-05T14:00:00","42","ND","ND","ND","ND","ND","1.2","79.4","30.2","46.2","359","0"],
    [28484,"2013-08-05T15:00:00","22.6","ND","ND","ND","ND","ND","1.1","86.7","30.9","44.5","384.3","0"],
    [28485,"2013-08-05T16:00:00","27","ND","ND","ND","ND","ND","1.4","352.9","30.8","46.3","251.2","0"],
    [28486,"2013-08-05T17:00:00","23.3","ND","ND","ND","ND","ND","0.7","294.2","30.7","45.8","175","0"],
    [28487,"2013-08-05T18:00:00","20.4","ND","ND","ND","ND","ND","0.9","294","30.2","46","101.3","0"],
    [28488,"2013-08-05T19:00:00","15.6","ND","ND","ND","ND","ND","1.2","246.3","28.9","48.1","0","0"],
    [28489,"2013-08-05T20:00:00","26.1","ND","ND","ND","ND","ND","0.9","228.4","28.5","48.6","0","0"],
    [28490,"2013-08-05T21:00:00","13.8","ND","ND","ND","ND","ND","0.6","278.8","27.6","51.3","0","0"],
    [28491,"2013-08-05T22:00:00","34.8","ND","ND","ND","ND","ND","0.6","137.2","26.9","56.4","0","0"],
    [28492,"2013-08-05T23:00:00","19.1","ND","ND","ND","ND","ND","0.8","34.6","26.1","59.6","0","0"],
    [28493,"2013-08-06T00:00:00","42.9","ND","ND","ND","ND","ND","0.5","184.9","25","66.1","0","0"],
    [28494,"2013-08-06T01:00:00","32.8","ND","ND","ND","ND","ND","0.6","28.8","24","69.8","0","0"],
    [28495,"2013-08-06T02:00:00","23.6","ND","ND","ND","ND","ND","0.1","317.9","23.7","71.9","0","0"],
    [28496,"2013-08-06T03:00:00","27.4","ND","ND","ND","ND","ND","0.3","316.3","23.3","73.2","0","0"],
    [28497,"2013-08-06T04:00:00","21.9","ND","ND","ND","ND","ND","0.4","285.6","23.1","74.2","0","0"],
    [28498,"2013-08-06T05:00:00","33.4","ND","ND","ND","ND","ND","0.5","359.1","22.9","75.7","0","0"],
    [28499,"2013-08-06T06:00:00","41","ND","ND","ND","ND","ND","0.5","350.4","22.9","76.6","0","0"],
    [28500,"2013-08-06T07:00:00","68.6","ND","ND","ND","ND","ND","0.6","26.6","22.8","76.5","11.4","0"],
    [28501,"2013-08-06T08:00:00","68.4","ND","ND","ND","ND","ND","0.4","31.2","23.1","75.5","67.8","0"],
    [28502,"2013-08-06T09:00:00","66.2","ND","ND","ND","ND","ND","0.1","159.1","24.3","70.3","173.6","0"],
    [28503,"2013-08-06T10:00:00","79.6","ND","ND","ND","ND","ND","1.2","55.3","25.6","66.1","341.5","0"],
    [28504,"2013-08-06T11:00:00","44","ND","ND","ND","ND","ND","1.5","75.5","26.6","63.5","544.6","0"],
    [28505,"2013-08-06T12:00:00","34.5","ND","ND","ND","ND","ND","1.2","61.2","28.3","56.6","536.1","0"],
    [28506,"2013-08-06T13:00:00","19.1","ND","ND","ND","ND","ND","0.7","58","29.5","52.9","578.3","0"],
    [28507,"2013-08-06T14:00:00","13.4","ND","ND","ND","ND","ND","0.6","8.8","30.1","49.8","490","0"],
    [28508,"2013-08-06T15:00:00","8","ND","ND","ND","ND","ND","0.8","48.1","31.1","46.3","422.8","0"],
    [28509,"2013-08-06T16:00:00","8","ND","ND","ND","ND","ND","3.6","268.5","29.9","48.3","375.4","0"],
    [28510,"2013-08-06T17:00:00","13.5","ND","ND","ND","ND","ND","3.6","282.7","28.8","49.1","204.9","0"],
    [28511,"2013-08-06T18:00:00","21","ND","ND","ND","ND","ND","1.4","257","28.3","50.3","48.9","0"],
    [28512,"2013-08-06T19:00:00","22.9","ND","ND","ND","ND","ND","0.5","117","27.8","52.1","0","0"],
    [28513,"2013-08-06T20:00:00","44.8","ND","ND","ND","ND","ND","0.7","110.5","26.8","55.1","0","0"],
    [28514,"2013-08-06T21:00:00","25.1","ND","ND","ND","ND","ND","0.8","143.7","26.3","56.5","0","0"],
    [28515,"2013-08-06T22:00:00","32.9","ND","ND","ND","ND","ND","1.1","137.1","25.2","62.1","0","0"],
    [28516,"2013-08-06T23:00:00","45.8","ND","ND","ND","ND","ND","0.4","107","24.1","65.8","0","0"],
    [28517,"2013-08-07T00:00:00","32.9","ND","ND","ND","ND","ND","0.9","192.9","24.2","65.4","0","0"],
    [28518,"2013-08-07T01:00:00","36.1","ND","ND","ND","ND","ND","0.7","187.6","24.1","67.8","0","0"],
    [28519,"2013-08-07T02:00:00","33.1","ND","ND","ND","ND","ND","2","163.6","23.7","71.3","0","0"],
    [28520,"2013-08-07T03:00:00","18.1","ND","ND","ND","ND","ND","0.5","255.2","23.4","72.1","0","0"],
    [28521,"2013-08-07T04:00:00","21.4","ND","ND","ND","ND","ND","0.4","339.3","22.7","75.9","0","0"],
    [28522,"2013-08-07T05:00:00","28.9","ND","ND","ND","ND","ND","1.1","354.2","21.7","81","0","0"],
    [28523,"2013-08-07T06:00:00","53.3","ND","ND","ND","ND","ND","0.5","70.7","21.8","80.3","0","0"],
    [28524,"2013-08-07T07:00:00","40.5","ND","ND","ND","ND","ND","0.8","31","21.8","80.6","24.4","0"],
    [28525,"2013-08-07T08:00:00","52.9","ND","ND","ND","ND","ND","0.4","33.3","22.3","80.4","136.9","0"],
    [28526,"2013-08-07T09:00:00","31","ND","ND","ND","ND","ND","1.1","160.7","24.4","69.4","385.4","0"],
    [28527,"2013-08-07T10:00:00","16.4","ND","ND","ND","ND","ND","1.6","165.8","26.4","60.4","584.7","0"],
    [28528,"2013-08-07T11:00:00","10.4","ND","ND","ND","ND","ND","1.1","156.6","28.1","53.5","607.5","0"],
    [28529,"2013-08-07T12:00:00","7.2","ND","ND","ND","ND","ND","1","68.4","29.1","51.2","586.3","0"],
    [28530,"2013-08-07T13:00:00","15.9","ND","ND","ND","ND","ND","1","73.6","29.7","50","506.1","0"],
    [28531,"2013-08-07T14:00:00","29.4","ND","ND","ND","ND","ND","0.3","239.9","30.4","48.4","573.3","0"],
    [28532,"2013-08-07T15:00:00","26.7","ND","ND","ND","ND","ND","0.4","229","31.2","44.7","375.2","0"],
    [28533,"2013-08-07T16:00:00","25.9","ND","ND","ND","ND","ND","3.6","286.4","30.1","46.9","280.5","0"],
    [28534,"2013-08-07T17:00:00","28.2","ND","ND","ND","ND","ND","2.8","261.9","29.7","48.1","245.5","0"],
    [28535,"2013-08-07T18:00:00","20.7","ND","ND","ND","ND","ND","2","285.7","28.3","50.9","52.4","0"],
    [28536,"2013-08-07T19:00:00","13.1","ND","ND","ND","ND","ND","1.8","170","27","54.2","0","0"],
    [28537,"2013-08-07T20:00:00","14.9","ND","ND","ND","ND","ND","1.9","141.7","25.2","59.2","0","0"],
    [28538,"2013-08-07T21:00:00","126.5","ND","ND","ND","ND","ND","3.1","173.5","23.5","72.5","0","0"],
    [28539,"2013-08-07T22:00:00","98.8","ND","ND","ND","ND","ND","1.6","156.5","22.3","82.8","0","0"],
    [28540,"2013-08-07T23:00:00","40.7","ND","ND","ND","ND","ND","1.9","148.8","21.6","85.6","0","2.03"],
    [28541,"2013-08-08T00:00:00","ND","ND","ND","ND","ND","ND","0.8","161.1","21.1","90.7","0","4.57"],
    [28542,"2013-08-08T01:00:00","ND","ND","ND","ND","ND","ND","0.8","87.6","20.6","94.4","0","11.18"],
    [28543,"2013-08-08T02:00:00","ND","ND","ND","ND","ND","ND","0.5","41.4","20.2","96.4","0","1.27"],
    [28544,"2013-08-08T03:00:00","ND","ND","ND","ND","ND","ND","0.2","164.6","20.3","95.3","0","0"],
    [28545,"2013-08-08T04:00:00","ND","ND","ND","ND","ND","ND","0.5","223.4","20.6","93.7","0","0"],
    [28546,"2013-08-08T05:00:00","55.5","ND","ND","ND","ND","ND","0.2","272.7","20.7","92.5","0","0"],
    [28547,"2013-08-08T06:00:00","28.7","ND","ND","ND","ND","ND","0.5","157.9","20.7","92.5","0","0"],
    [28548,"2013-08-08T07:00:00","72.2","ND","ND","ND","ND","ND","1","50.1","20.2","95.6","5.7","0"],
    [28549,"2013-08-08T08:00:00","79.4","ND","ND","ND","ND","ND","0.8","39.9","19.9","97.3","35.8","0"],
    [28550,"2013-08-08T09:00:00","77.4","ND","ND","ND","ND","ND","0.6","36.4","21.3","91.3","315.8","0"],
    [28551,"2013-08-08T10:00:00","46.3","ND","ND","ND","ND","ND","1.1","67.2","23.8","75.5","648.1","0"],
    [28552,"2013-08-08T11:00:00","30.9","ND","ND","ND","ND","ND","1.5","57.3","25","69.1","599.7","0"],
    [28553,"2013-08-08T12:00:00","57.6","ND","ND","ND","ND","ND","1.6","57.3","25.8","65.8","634.3","0"],
    [28554,"2013-08-08T13:00:00","ND","ND","ND","ND","ND","ND","1.2","34.2","26.7","61.6","490.9","0"],
    [28555,"2013-08-08T14:00:00","ND","ND","ND","ND","ND","ND","1.6","284.3","26.9","58.6","237.8","0"],
    [28556,"2013-08-08T15:00:00","118.4","ND","ND","ND","ND","ND","1.7","353.9","26.3","62.2","237.7","0"],
    [28557,"2013-08-08T16:00:00","43.8","ND","ND","ND","ND","ND","0.8","293.8","26.5","59.2","205.2","0"],
    [28558,"2013-08-08T17:00:00","34.2","ND","ND","ND","ND","ND","2.1","171.7","25.5","66.8","59.5","10.67"],
    [28559,"2013-08-08T18:00:00","51.3","ND","ND","ND","ND","ND","0.6","240.4","22.2","91.5","14.7","6.86"],
    [28560,"2013-08-08T19:00:00","21.4","ND","ND","ND","ND","ND","0.3","277.4","23","82.8","0","0"],
    [28561,"2013-08-08T20:00:00","25.7","ND","ND","ND","ND","ND","0.5","61.7","23","83","0","0"],
    [28562,"2013-08-08T21:00:00","52.5","ND","ND","ND","ND","ND","0.9","51.4","22.6","83.1","0","0"],
    [28563,"2013-08-08T22:00:00","88.2","ND","ND","ND","ND","ND","0.3","338.3","22.4","83.9","0","0"],
    [28564,"2013-08-08T23:00:00","86.5","ND","ND","ND","ND","ND","0.4","272.9","22.2","87","0","0"],
    [28565,"2013-08-09T00:00:00","94.1","ND","ND","ND","ND","ND","0.1","238","22.1","85.6","0","0"],
    [28566,"2013-08-09T01:00:00","41.8","ND","ND","ND","ND","ND","0.6","96","21.6","87.7","0","0"],
    [28567,"2013-08-09T02:00:00","97.3","ND","ND","ND","ND","ND","0.2","280.9","21.3","89.6","0","0"],
    [28568,"2013-08-09T03:00:00","ND","ND","ND","ND","ND","ND","0.2","242.1","21.3","90.4","0","0"],
    [28569,"2013-08-09T04:00:00","ND","ND","ND","ND","ND","ND","0.3","107.2","21.2","90.5","0","0"],
    [28570,"2013-08-09T05:00:00","61.8","ND","ND","ND","ND","ND","0.3","62.5","20.6","93.2","0","0"],
    [28571,"2013-08-09T06:00:00","35.4","ND","ND","ND","ND","ND","0.6","137.9","20.9","92.1","0","0"],
    [28572,"2013-08-09T07:00:00","68.4","ND","ND","ND","ND","ND","0.4","111.6","20.9","90.2","4.5","0"],
    [28573,"2013-08-09T08:00:00","ND","ND","ND","ND","ND","ND","0.9","190.7","21.4","88.2","73.7","0"],
    [28574,"2013-08-09T09:00:00","ND","ND","ND","ND","ND","ND","1.3","162.7","22.7","82.2","207.8","0"],
    [28575,"2013-08-09T10:00:00","ND","ND","ND","ND","ND","ND","1.3","158","23.9","75.2","371.8","0"],
    [28576,"2013-08-09T11:00:00","ND","ND","ND","ND","ND","ND","1.7","108.1","25.9","66.4","657.6","0"],
    [28577,"2013-08-09T12:00:00","ND","ND","ND","ND","ND","ND","0.4","156.6","26.4","62.6","419.6","0"],
    [28578,"2013-08-09T13:00:00","ND","ND","ND","ND","ND","ND","0.1","117.4","28","56.4","751.4","0"],
    [28579,"2013-08-09T14:00:00","ND","ND","ND","ND","ND","ND","0.9","104.7","29.4","50.3","717.3","0"],
    [28580,"2013-08-09T15:00:00","ND","ND","ND","ND","ND","ND","0.9","21.5","29.9","49.5","428.8","0"],
    [28581,"2013-08-09T16:00:00","ND","ND","ND","ND","ND","ND","2","316","29.7","49.4","402.7","0"],
    [28582,"2013-08-09T17:00:00","ND","ND","ND","ND","ND","ND","1.9","289.3","29.5","48.8","328.4","0"],
    [28583,"2013-08-09T18:00:00","ND","ND","ND","ND","ND","ND","1.8","286.9","28.5","49.8","139.2","0"],
    [28584,"2013-08-09T19:00:00","ND","ND","ND","ND","ND","ND","0.5","167","27.5","51.9","5.7","0"],
    [28585,"2013-08-09T20:00:00","ND","ND","ND","ND","ND","ND","0.5","103.5","26.8","54.6","0","0"],
    [28586,"2013-08-09T21:00:00","ND","ND","ND","ND","ND","ND","0.2","128.6","26","57.1","0","0"],
    [28587,"2013-08-09T22:00:00","ND","ND","ND","ND","ND","ND","1","83","25.9","58.1","0","0"],
    [28588,"2013-08-09T23:00:00","ND","ND","ND","ND","ND","ND","1.5","176.1","24.9","64","0","0"],
    [28589,"2013-08-10T00:00:00","ND","ND","ND","ND","ND","ND","0.6","97.2","24.1","68.8","0","0"],
    [28590,"2013-08-10T01:00:00","ND","ND","ND","ND","ND","ND","0.6","156.1","23.3","73.1","0","0"],
    [28591,"2013-08-10T02:00:00","ND","ND","ND","ND","ND","ND","0.6","150.7","23.1","74.5","0","0"],
    [28592,"2013-08-10T03:00:00","ND","ND","ND","ND","ND","ND","0.2","205.9","23","75.6","0","0"],
    [28593,"2013-08-10T04:00:00","ND","ND","ND","ND","ND","ND","0.5","170.1","22.8","76.9","0","0"],
    [28594,"2013-08-10T05:00:00","ND","ND","ND","ND","ND","ND","0.8","174.4","22.6","79.2","0","0"],
    [28595,"2013-08-10T06:00:00","ND","ND","ND","ND","ND","ND","0.3","4.7","22.3","81","0","0"],
    [28596,"2013-08-10T07:00:00","ND","ND","ND","ND","ND","ND","0.7","25","22","83.2","9.1","0"],
    [28597,"2013-08-10T08:00:00","ND","ND","ND","ND","ND","ND","0.2","91.5","22","85","57.9","0.25"],
    [28598,"2013-08-10T09:00:00","ND","ND","ND","ND","ND","ND","0.6","199.7","22","87.6","19.9","25.91"],
    [28599,"2013-08-10T10:00:00","ND","ND","ND","ND","ND","ND","3.3","183.9","18.6","99.6","37.2","98.55"],
    [28600,"2013-08-10T11:00:00","ND","ND","ND","ND","ND","ND","2.4","174.5","19.3","99.7","114.7","1.78"],
    [28601,"2013-08-10T12:00:00","ND","ND","ND","ND","ND","ND","1.4","108.5","20.7","92.1","146.6","1.27"],
    [28602,"2013-08-10T13:00:00","ND","ND","ND","ND","ND","ND","1.7","133.6","20.7","87.9","87.3","0.25"],
    [28603,"2013-08-10T14:00:00","ND","ND","ND","ND","ND","ND","0.7","194.9","21.5","84","386.3","0"],
    [28604,"2013-08-10T15:00:00","ND","ND","ND","ND","ND","ND","0.9","204","22.3","78.9","280.8","0"],
    [28605,"2013-08-10T16:00:00","ND","ND","ND","ND","ND","ND","1.8","171","23.8","73.5","361.3","0"],
    [28606,"2013-08-10T17:00:00","ND","ND","ND","ND","ND","ND","2.3","159.9","25","67.9","247.8","0"],
    [28607,"2013-08-10T18:00:00","ND","ND","ND","ND","ND","ND","2.6","174.6","23.5","74.2","62.5","0"],
    [28608,"2013-08-10T19:00:00","ND","ND","ND","ND","ND","ND","0.3","327.7","22.8","76.6","0","0"],
    [28609,"2013-08-10T20:00:00","ND","ND","ND","ND","ND","ND","0.7","356.9","22.3","80.1","0","0"],
    [28610,"2013-08-10T21:00:00","ND","ND","ND","ND","ND","ND","0.7","223.1","21.6","83.1","0","0"],
    [28611,"2013-08-10T22:00:00","ND","ND","ND","ND","ND","ND","1.2","178.9","21.4","84.6","0","0"],
    [28612,"2013-08-10T23:00:00","ND","ND","ND","ND","ND","ND","0.9","239.4","21.1","84.4","0","0"],
    [28613,"2013-08-11T00:00:00","ND","ND","ND","ND","ND","ND","0.7","246.4","21.1","82.6","0","0"],
    [28614,"2013-08-11T01:00:00","ND","ND","ND","ND","ND","ND","0.4","27.4","21.4","80","0","0"],
    [28615,"2013-08-11T02:00:00","ND","ND","ND","ND","ND","ND","0.5","188.7","21","83.6","0","0"],
    [28616,"2013-08-11T03:00:00","ND","ND","ND","ND","ND","ND","0.4","267.4","20.5","88.3","0","0"],
    [28617,"2013-08-11T04:00:00","ND","ND","ND","ND","ND","ND","0.2","312.6","20.5","87.7","0","0"],
    [28618,"2013-08-11T05:00:00","ND","ND","ND","ND","ND","ND","0.4","350.6","20.4","89.2","0","0"],
    [28619,"2013-08-11T06:00:00","ND","ND","ND","ND","ND","ND","0.3","304.5","19.8","89.5","0","0"],
    [28620,"2013-08-11T07:00:00","ND","ND","ND","ND","ND","ND","0.5","357","19.7","92.8","18.8","0"],
    [28621,"2013-08-11T08:00:00","ND","ND","ND","ND","ND","ND","0.6","322.8","20.6","88.9","97.5","0"],
    [28622,"2013-08-11T09:00:00","ND","ND","ND","ND","ND","ND","0.3","195","22.3","80.3","289.7","0"],
    [28623,"2013-08-11T10:00:00","ND","ND","ND","ND","ND","ND","1.4","93.7","24.2","69.6","699.3","0"],
    [28624,"2013-08-11T11:00:00","ND","ND","ND","ND","ND","ND","1.1","281.6","24.8","66.9","415.4","0"],
    [28625,"2013-08-11T12:00:00","ND","ND","ND","ND","ND","ND","0.6","272.6","26.4","59.1","915.6","0"],
    [28626,"2013-08-11T13:00:00","ND","ND","ND","ND","ND","ND","0.8","92.2","28.1","53.3","670.9","0"],
    [28627,"2013-08-11T14:00:00","ND","ND","ND","ND","ND","ND","1.4","320","28.2","52.7","418.1","0"],
    [28628,"2013-08-11T15:00:00","ND","ND","ND","ND","ND","ND","2.7","294.3","28","53.6","433.3","1.02"],
    [28629,"2013-08-11T16:00:00","ND","ND","ND","ND","ND","ND","3.9","223","21.1","89.1","36.5","49.78"],
    [28630,"2013-08-11T17:00:00","ND","ND","ND","ND","ND","ND","1.7","157.6","21.8","81.3","16.1","1.02"],
    [28631,"2013-08-11T18:00:00","ND","ND","ND","ND","ND","ND","0.4","263.6","21.5","85.7","5.4","4.83"],
    [28632,"2013-08-11T19:00:00","ND","ND","ND","ND","ND","ND","1.2","71.5","21.5","84.2","0","0.76"],
    [28633,"2013-08-11T20:00:00","ND","ND","ND","ND","ND","ND","1","195.7","21.1","88.6","0","0.51"],
    [28634,"2013-08-11T21:00:00","ND","ND","ND","ND","ND","ND","0.9","160.5","20.8","90.3","0","0.25"],
    [28635,"2013-08-11T22:00:00","ND","ND","ND","ND","ND","ND","0.3","272","20.7","92.7","0","0.25"],
    [28636,"2013-08-11T23:00:00","ND","ND","ND","ND","ND","ND","0.4","234","20.7","93.1","0","0"],
    [28637,"2013-08-12T00:00:00","ND","ND","ND","ND","ND","ND","0.5","208.4","20.6","92.6","0","0"],
    [28638,"2013-08-12T01:00:00","ND","ND","ND","ND","ND","ND","0.2","131.1","20.8","92.7","0","0.25"],
    [28639,"2013-08-12T02:00:00","ND","ND","ND","ND","ND","ND","0.2","316.3","20.2","94.5","0","1.52"],
    [28640,"2013-08-12T03:00:00","ND","ND","ND","ND","ND","ND","0.4","291","19.9","95.5","0","6.35"],
    [28641,"2013-08-12T04:00:00","ND","ND","ND","ND","ND","ND","0.7","58.7","19.9","96.4","0","0.25"],
    [28642,"2013-08-12T05:00:00","ND","ND","ND","ND","ND","ND","0.2","313.6","19.8","96.6","0","0.25"],
    [28643,"2013-08-12T06:00:00","ND","ND","ND","ND","ND","ND","0","84.1","19.8","95.2","0","0"],
    [28644,"2013-08-12T07:00:00","ND","ND","ND","ND","ND","ND","0.4","48.7","19.8","94","32.2","0"],
    [28645,"2013-08-12T08:00:00","ND","ND","ND","ND","ND","ND","0.9","49.7","20.1","93.4","34.1","0"],
    [28646,"2013-08-12T09:00:00","ND","ND","ND","ND","ND","ND","0.9","355.5","20.1","93.8","48.5","0"],
    [28647,"2013-08-12T10:00:00","ND","ND","ND","ND","ND","ND","0.4","335.9","21.2","86.5","200.4","0"],
    [28648,"2013-08-12T11:00:00","ND","ND","ND","ND","ND","ND","0.2","143.2","23.7","70.8","662.3","0"],
    [28649,"2013-08-12T12:00:00","ND","ND","ND","ND","ND","ND","1.3","76.6","25.7","60.9","873.8","0"],
    [28650,"2013-08-12T13:00:00","ND","ND","ND","ND","ND","ND","0.6","93.7","27","57.7","614.7","0"],
    [28651,"2013-08-12T14:00:00","ND","ND","ND","ND","ND","ND","0.7","126.1","27.1","57.1","199.2","0"],
    [28652,"2013-08-12T15:00:00","ND","ND","ND","ND","ND","ND","0.4","343.9","27.6","55.5","381.8","0"],
    [28653,"2013-08-12T16:00:00","ND","ND","ND","ND","ND","ND","0.7","322.1","28.2","53.3","283.5","0"],
    [28654,"2013-08-12T17:00:00","ND","ND","ND","ND","ND","ND","0.1","237.3","28","52.9","118.8","0"],
    [28655,"2013-08-12T18:00:00","ND","ND","ND","ND","ND","ND","0.6","306.7","26.9","56.3","34","0"],
    [28656,"2013-08-12T19:00:00","ND","ND","ND","ND","ND","ND","0.3","169.1","26.2","58.2","0","0"],
    [28657,"2013-08-12T20:00:00","ND","ND","ND","ND","ND","ND","0.1","306.9","25.5","62.5","0","0"],
    [28658,"2013-08-12T21:00:00","ND","ND","ND","ND","ND","ND","0.7","125.2","25.3","63.3","0","0"],
    [28659,"2013-08-12T22:00:00","ND","ND","ND","ND","ND","ND","0.3","210","24.4","69.4","0","0"],
    [28660,"2013-08-12T23:00:00","ND","ND","ND","ND","ND","ND","0.2","185.3","24.2","68.7","0","0"],
    [28661,"2013-08-13T00:00:00","ND","ND","ND","ND","ND","ND","0.5","216.8","23.4","74.7","0","0"],
    [28662,"2013-08-13T01:00:00","ND","ND","ND","ND","ND","ND","0.6","174","22.9","77.2","0","0"],
    [28663,"2013-08-13T02:00:00","ND","ND","ND","ND","ND","ND","0.6","179.5","22.5","79.8","0","0"],
    [28664,"2013-08-13T03:00:00","ND","ND","ND","ND","ND","ND","0.2","103","22.3","81.2","0","0"],
    [28665,"2013-08-13T04:00:00","ND","ND","ND","ND","ND","ND","0.5","214.2","21.9","83.6","0","0"],
    [28666,"2013-08-13T05:00:00","ND","ND","ND","ND","ND","ND","0.1","237.2","21.9","83.5","0","0"],
    [28667,"2013-08-13T06:00:00","ND","ND","ND","ND","ND","ND","0.3","45.4","21.7","85.2","0","0"],
    [28668,"2013-08-13T07:00:00","ND","ND","ND","ND","ND","ND","0","14.2","21.3","87.6","7.7","0"],
    [28669,"2013-08-13T08:00:00","ND","ND","ND","ND","ND","ND","0.3","35.9","22.1","84.6","56.8","0"],
    [28670,"2013-08-13T09:00:00","ND","ND","ND","ND","ND","ND","0.8","43.1","22.1","84.2","89.2","0"],
    [28671,"2013-08-13T10:00:00","ND","ND","ND","ND","ND","ND","1.8","167.7","23.3","76.8","256.7","0"],
    [28672,"2013-08-13T11:00:00","ND","ND","ND","ND","ND","ND","2.1","150.1","25.6","62.7","842.5","0"],
    [28673,"2013-08-13T12:00:00","ND","ND","ND","ND","ND","ND","0.8","177.5","26","62.2","491.9","0"],
    [28674,"2013-08-13T13:00:00","ND","ND","ND","ND","ND","ND","1.2","104.8","27.3","56.8","646.7","0"],
    [28675,"2013-08-13T14:00:00","ND","ND","ND","ND","ND","ND","0.6","128.7","28.8","50.8","707.6","0"],
    [28676,"2013-08-13T15:00:00","ND","ND","ND","ND","ND","ND","1.1","70.8","29.6","46","636.7","0"],
    [28677,"2013-08-13T16:00:00","ND","ND","ND","ND","ND","ND","1.5","37.3","29.8","46.7","477.8","0"],
    [28678,"2013-08-13T17:00:00","ND","ND","ND","ND","ND","ND","2","35.4","29.8","48.3","334.6","0"],
    [28679,"2013-08-13T18:00:00","ND","ND","ND","ND","ND","ND","2.1","39.2","28.8","50.4","62.3","0"],
    [28680,"2013-08-13T19:00:00","ND","ND","ND","ND","ND","ND","0.2","297.4","27.2","58.6","0","0"],
    [28681,"2013-08-13T20:00:00","ND","ND","ND","ND","ND","ND","0.6","252.6","26.5","61.2","0","0"],
    [28682,"2013-08-13T21:00:00","ND","ND","ND","ND","ND","ND","0.1","256","25.9","63","0","0"],
    [28683,"2013-08-13T22:00:00","ND","ND","ND","ND","ND","ND","0.8","152.7","25.3","66.1","0","0"],
    [28684,"2013-08-13T23:00:00","ND","ND","ND","ND","ND","ND","0.3","159.5","25.1","67.5","0","0"],
    [28685,"2013-08-14T00:00:00","ND","ND","ND","ND","ND","ND","0.7","212.5","24.5","71.7","0","0"],
    [28686,"2013-08-14T01:00:00","ND","ND","ND","ND","ND","ND","1.3","130.5","24","74.5","0","0"],
    [28687,"2013-08-14T02:00:00","ND","ND","ND","ND","ND","ND","1","183.8","23.4","76.9","0","0"],
    [28688,"2013-08-14T03:00:00","ND","ND","ND","ND","ND","ND","0.5","239.6","22.9","79.6","0","0"],
    [28689,"2013-08-14T04:00:00","ND","ND","ND","ND","ND","ND","0.3","3.6","22.8","80.7","0","0"],
    [28690,"2013-08-14T05:00:00","ND","ND","ND","ND","ND","ND","0.4","106.9","22.6","82.5","0","0"],
    [28691,"2013-08-14T06:00:00","ND","ND","ND","ND","ND","ND","0.5","93.5","22.1","84.4","0","0"],
    [28692,"2013-08-14T07:00:00","ND","ND","ND","ND","ND","ND","0.3","51.7","21.8","84.1","20.8","0"],
    [28693,"2013-08-14T08:00:00","ND","ND","ND","ND","ND","ND","1.4","157.4","23.6","76.2","271.2","0"],
    [28694,"2013-08-14T09:00:00","ND","ND","ND","ND","ND","ND","1.8","147.6","24.7","70.8","374.1","0"],
    [28695,"2013-08-14T10:00:00","ND","ND","ND","ND","ND","ND","1.6","116.9","26","65.9","600.9","0"],
    [28696,"2013-08-14T11:00:00","ND","ND","ND","ND","ND","ND","1.2","139.2","26.9","62","497.4","0"],
    [28697,"2013-08-14T12:00:00","ND","ND","ND","ND","ND","ND","1.2","144","28.1","57.4","824.4","0"],
    [28698,"2013-08-14T13:00:00","ND","ND","ND","ND","ND","ND","0.9","112.4","29.5","53.1","617.1","0"],
    [28699,"2013-08-14T14:00:00","ND","ND","ND","ND","ND","ND","0.8","133.8","30.7","49","648.4","0"],
    [28700,"2013-08-14T15:00:00","ND","ND","ND","ND","ND","ND","1","342.6","31.3","48.1","588.7","0"],
    [28701,"2013-08-14T16:00:00","ND","ND","ND","ND","ND","ND","2.2","265.7","31.1","47.4","388.4","0"],
    [28702,"2013-08-14T17:00:00","ND","ND","ND","ND","ND","ND","2.3","279.2","30.7","47.5","263.6","0"],
    [28703,"2013-08-14T18:00:00","ND","ND","ND","ND","ND","ND","1.8","271.1","29.8","48.8","92.7","0"],
    [28704,"2013-08-14T19:00:00","ND","ND","ND","ND","ND","ND","1.7","246.8","28.6","52.4","0","0"],
    [28705,"2013-08-14T20:00:00","ND","ND","ND","ND","ND","ND","0.5","165.6","28","55","0","0"],
    [28706,"2013-08-14T21:00:00","ND","ND","ND","ND","ND","ND","0.7","119.1","27.8","56.7","0","0"],
    [28707,"2013-08-14T22:00:00","ND","ND","ND","ND","ND","ND","0.8","153","27.1","60.2","0","0"],
    [28708,"2013-08-14T23:00:00","ND","ND","ND","ND","ND","ND","0.4","327.4","26.4","63.4","0","0"],
    [28709,"2013-08-15T00:00:00","ND","ND","ND","ND","ND","ND","0.6","94.3","25.8","66.4","0","0"],
    [28710,"2013-08-15T01:00:00","ND","ND","ND","ND","ND","ND","0.7","90.3","24.6","73.6","0","0"],
    [28711,"2013-08-15T02:00:00","ND","ND","ND","ND","ND","ND","0.4","93.4","24","77.2","0","0"],
    [28712,"2013-08-15T03:00:00","ND","ND","ND","ND","ND","ND","0.1","150.4","23.6","78.2","0","0"],
    [28713,"2013-08-15T04:00:00","ND","ND","ND","ND","ND","ND","0.8","152.4","23.6","77.5","0","0"],
    [28714,"2013-08-15T05:00:00","ND","ND","ND","ND","ND","ND","0.7","161","23.4","81.3","0","0"],
    [28715,"2013-08-15T06:00:00","ND","ND","ND","ND","ND","ND","0.2","292.1","22.8","83.3","0","0"],
    [28716,"2013-08-15T07:00:00","ND","ND","ND","ND","ND","ND","0.2","272.3","22.4","84.5","14.1","0"],
    [28717,"2013-08-15T08:00:00","ND","ND","ND","ND","ND","ND","0.6","20.2","23.3","79.5","104.2","0"],
    [28718,"2013-08-15T09:00:00","ND","ND","ND","ND","ND","ND","0.6","357.9","24.2","75.1","156.1","0"],
    [28719,"2013-08-15T10:00:00","ND","ND","ND","ND","ND","ND","0.9","35.8","25","72.2","252.3","0"],
    [28720,"2013-08-15T11:00:00","ND","ND","ND","ND","ND","ND","0.9","33.6","25.5","69.2","180","0"],
    [28721,"2013-08-15T12:00:00","ND","ND","ND","ND","ND","ND","0.8","73","26.2","67.4","291.2","0"],
    [28722,"2013-08-15T13:00:00","ND","ND","ND","ND","ND","ND","0.5","26.9","27.1","64.1","383.3","0"],
    [28723,"2013-08-15T14:00:00","ND","ND","ND","ND","ND","ND","0.9","27.5","28.2","60","553.4","0"],
    [28724,"2013-08-15T15:00:00","ND","ND","ND","ND","ND","ND","0.5","56.4","29.1","55","440.5","0"],
    [28725,"2013-08-15T16:00:00","ND","ND","ND","ND","ND","ND","1.6","137","29.3","52.9","237.7","0"],
    [28726,"2013-08-15T17:00:00","ND","ND","ND","ND","ND","ND","1.7","164.4","28.9","54.9","118.7","0"],
    [28727,"2013-08-15T18:00:00","ND","ND","ND","ND","ND","ND","1.9","152.8","28.8","52.5","88.9","0"],
    [28728,"2013-08-15T19:00:00","ND","ND","ND","ND","ND","ND","0.4","174.4","27.2","59.5","0","0"],
    [28729,"2013-08-15T20:00:00","ND","ND","ND","ND","ND","ND","0.5","339.4","25.9","64","0","0"],
    [28730,"2013-08-15T21:00:00","ND","ND","ND","ND","ND","ND","0.6","254.4","25.6","65.1","0","0"],
    [28731,"2013-08-15T22:00:00","ND","ND","ND","ND","ND","ND","0.4","238.1","25.2","65.7","0","0"],
    [28732,"2013-08-15T23:00:00","ND","ND","ND","ND","ND","ND","0.8","7.4","23.8","75.5","0","0"],
    [28733,"2013-08-16T00:00:00","ND","ND","ND","ND","ND","ND","0.5","358.2","23.1","78.9","0","0"],
    [28734,"2013-08-16T01:00:00","ND","ND","ND","ND","ND","ND","0.3","296.5","22.6","80.6","0","0"],
    [28735,"2013-08-16T02:00:00","ND","ND","ND","ND","ND","ND","0.1","9.9","22.8","79","0","0"],
    [28736,"2013-08-16T03:00:00","ND","ND","ND","ND","ND","ND","ND","ND","ND","ND","ND","ND"],
    [28737,"2013-08-16T04:00:00","ND","ND","ND","ND","ND","ND","ND","ND","ND","ND","ND","ND"],
    [28738,"2013-08-16T05:00:00","ND","ND","ND","ND","ND","ND","ND","ND","ND","ND","ND","ND"],
    [28739,"2013-08-16T06:00:00","ND","ND","ND","ND","ND","ND","0.2","228.4","21.1","84.5","0","0"],
    [28740,"2013-08-16T07:00:00","ND","ND","ND","ND","ND","ND","0.6","152.5","21.4","83.5","24.9","0"],
    [28741,"2013-08-16T08:00:00","ND","ND","ND","ND","ND","ND","0.2","92.7","23","77.4","191.8","0"],
    [28742,"2013-08-16T09:00:00","ND","ND","ND","ND","ND","ND","0.7","88.9","25.2","67.6","417.5","0"],
    [28743,"2013-08-16T10:00:00","ND","ND","ND","ND","ND","ND","1.3","99.2","26.7","62","649.7","0"],
    [28744,"2013-08-16T11:00:00","ND","ND","ND","ND","ND","ND","1.3","101.1","27.9","58.5","719.6","0"],
    [28745,"2013-08-16T12:00:00","ND","ND","ND","ND","ND","ND","1.2","116.4","28.9","53.9","846.9","0"],
    [28746,"2013-08-16T13:00:00","ND","ND","ND","ND","ND","ND","1.7","103","30.3","49","816.3","0"],
    [28747,"2013-08-16T14:00:00","ND","ND","ND","ND","ND","ND","1.1","324.7","31.1","46","721.8","0"],
    [28748,"2013-08-16T15:00:00","ND","ND","ND","ND","ND","ND","1.8","297.6","31.7","44.6","644.6","0"],
    [28749,"2013-08-16T16:00:00","ND","ND","ND","ND","ND","ND","3","280.6","31","45.8","323.1","0"],
    [28750,"2013-08-16T17:00:00","ND","ND","ND","ND","ND","ND","3.2","278.9","29.6","47.9","110.8","0"],
    [28751,"2013-08-16T18:00:00","ND","ND","ND","ND","ND","ND","0.1","223.4","29","50.3","36.2","0"],
    [28752,"2013-08-16T19:00:00","ND","ND","ND","ND","ND","ND","1.6","269.9","28.1","52.5","0","0"],
    [28753,"2013-08-16T20:00:00","ND","ND","ND","ND","ND","ND","1","122.4","28","52.8","0","0"],
    [28754,"2013-08-16T21:00:00","ND","ND","ND","ND","ND","ND","1","68.9","26.9","57.4","0","0"],
    [28755,"2013-08-16T22:00:00","ND","ND","ND","ND","ND","ND","0.2","72","26.4","59","0","0"],
    [28756,"2013-08-16T23:00:00","ND","ND","ND","ND","ND","ND","1.4","146.3","26","60.5","0","0"],
    [28757,"2013-08-17T00:00:00","ND","ND","ND","ND","ND","ND","1.1","174.3","25.3","62.7","0","0"],
    [28758,"2013-08-17T01:00:00","ND","ND","ND","ND","ND","ND","1.2","39.2","24.5","68.2","0","0"],
    [28759,"2013-08-17T02:00:00","ND","ND","ND","ND","ND","ND","1.1","135.3","23.8","72","0","0"],
    [28760,"2013-08-17T03:00:00","ND","ND","ND","ND","ND","ND","0.8","202.7","23.7","72.4","0","0"],
    [28761,"2013-08-17T04:00:00","ND","ND","ND","ND","ND","ND","0.6","120.2","23.1","77.4","0","3.05"],
    [28762,"2013-08-17T05:00:00","ND","ND","ND","ND","ND","ND","0.5","350.7","21","93.1","0","10.16"],
    [28763,"2013-08-17T06:00:00","ND","ND","ND","ND","ND","ND","0.4","313.2","21","94.6","0","1.02"],
    [28764,"2013-08-17T07:00:00","ND","ND","ND","ND","ND","ND","0.2","7.9","21.2","93.5","23.6","0"],
    [28765,"2013-08-17T08:00:00","ND","ND","ND","ND","ND","ND","0.4","26.7","21.7","91","106","0"],
    [28766,"2013-08-17T09:00:00","ND","ND","ND","ND","ND","ND","0.3","146.4","23","84.2","196.8","0"],
    [28767,"2013-08-17T10:00:00","ND","ND","ND","ND","ND","ND","0.8","91","24.3","74.7","367.7","0"],
    [28768,"2013-08-17T11:00:00","ND","ND","ND","ND","ND","ND","0.2","61","24.9","71.1","228.1","0"],
    [28769,"2013-08-17T12:00:00","ND","ND","ND","ND","ND","ND","1.1","102.1","26.2","67.6","599.1","0"],
    [28770,"2013-08-17T13:00:00","ND","ND","ND","ND","ND","ND","0.3","224.1","27.5","60.2","525.1","0"],
    [28771,"2013-08-17T14:00:00","ND","ND","ND","ND","ND","ND","3.3","282.8","25.8","62.7","93.1","0.76"],
    [28772,"2013-08-17T15:00:00","ND","ND","ND","ND","ND","ND","0.5","329.3","25.7","62.7","249.4","0"],
    [28773,"2013-08-17T16:00:00","ND","ND","ND","ND","ND","ND","0.7","68.5","27.2","55","244.8","0"],
    [28774,"2013-08-17T17:00:00","ND","ND","ND","ND","ND","ND","0.9","85.1","27","56.7","115.6","0"],
    [28775,"2013-08-17T18:00:00","ND","ND","ND","ND","ND","ND","1.9","266","26.4","53.3","28","0"],
    [28776,"2013-08-17T19:00:00","ND","ND","ND","ND","ND","ND","0.7","355","25.7","54.9","0","0"],
    [28777,"2013-08-17T20:00:00","ND","ND","ND","ND","ND","ND","1.9","174.3","25.3","56.6","0","0"],
    [28778,"2013-08-17T21:00:00","ND","ND","ND","ND","ND","ND","0.4","141.7","23.5","74.6","0","0"],
    [28779,"2013-08-17T22:00:00","ND","ND","ND","ND","ND","ND","0.4","32.2","22.9","76.5","0","0"],
    [28780,"2013-08-17T23:00:00","ND","ND","ND","ND","ND","ND","0.3","26.9","22.3","79.2","0","0"],
    [28781,"2013-08-18T00:00:00","ND","ND","ND","ND","ND","ND","0.8","24.9","21.9","82","0","0"],
    [28782,"2013-08-18T01:00:00","ND","ND","ND","ND","ND","ND","0.2","272.2","21.9","83","0","0"],
    [28783,"2013-08-18T02:00:00","ND","ND","ND","ND","ND","ND","0.1","264.7","22","84.1","0","0"],
    [28784,"2013-08-18T03:00:00","ND","ND","ND","ND","ND","ND","0.6","29","21.4","86.9","0","0"],
    [28785,"2013-08-18T04:00:00","ND","ND","ND","ND","ND","ND","0.1","4.1","21.2","86.9","0","0"],
    [28786,"2013-08-18T05:00:00","ND","ND","ND","ND","ND","ND","0.2","236.5","20.9","88.5","0","0"],
    [28787,"2013-08-18T06:00:00","ND","ND","ND","ND","ND","ND","0.4","233.6","21","85.3","0","0"],
    [28788,"2013-08-18T07:00:00","ND","ND","ND","ND","ND","ND","0.3","14.2","20.8","87.1","9.9","0"],
    [28789,"2013-08-18T08:00:00","ND","ND","ND","ND","ND","ND","0.4","299.7","21.3","86.6","86.1","0"],
    [28790,"2013-08-18T09:00:00","ND","ND","ND","ND","ND","ND","0.8","59.1","22.8","78.8","302.9","0"],
    [28791,"2013-08-18T10:00:00","ND","ND","ND","ND","ND","ND","1","147.1","24.6","70.8","523.6","0"],
    [28792,"2013-08-18T11:00:00","ND","ND","ND","ND","ND","ND","0.6","140.4","26","62.7","572.8","0"],
    [28793,"2013-08-18T12:00:00","ND","ND","ND","ND","ND","ND","0.7","99.4","27.6","56.3","826.7","0"],
    [28794,"2013-08-18T13:00:00","ND","ND","ND","ND","ND","ND","1","122.3","28.5","52.4","556.5","0"],
    [28795,"2013-08-18T14:00:00","ND","ND","ND","ND","ND","ND","0.2","26.4","29.2","50.8","486.9","0"],
    [28796,"2013-08-18T15:00:00","ND","ND","ND","ND","ND","ND","1.9","353.7","29","49.2","523.6","0"],
    [28797,"2013-08-18T16:00:00","ND","ND","ND","ND","ND","ND","2.5","275.7","29.9","46.3","596.7","0"],
    [28798,"2013-08-18T17:00:00","ND","ND","ND","ND","ND","ND","2.4","287.5","29.1","47.9","259.5","0"],
    [28799,"2013-08-18T18:00:00","ND","ND","ND","ND","ND","ND","2.3","277.5","28","49.3","85.5","0"],
    [28800,"2013-08-18T19:00:00","ND","ND","ND","ND","ND","ND","0.4","142.3","27","51.7","0","0"],
    [28801,"2013-08-18T20:00:00","ND","ND","ND","ND","ND","ND","0.9","87","26.5","55","0","0"],
    [28802,"2013-08-18T21:00:00","ND","ND","ND","ND","ND","ND","1.1","135.8","25.1","63.9","0","0"],
    [28803,"2013-08-18T22:00:00","ND","ND","ND","ND","ND","ND","0.6","46.9","23.5","70.7","0","0"],
    [28804,"2013-08-18T23:00:00","ND","ND","ND","ND","ND","ND","0.9","15","22.6","75.9","0","0"],
    [28805,"2013-08-19T00:00:00","ND","ND","ND","ND","ND","ND","0.6","295.9","22.5","76.2","0","0"],
    [28806,"2013-08-19T01:00:00","ND","ND","ND","ND","ND","ND","0.4","57.9","22.7","74.8","0","0"],
    [28807,"2013-08-19T02:00:00","ND","ND","ND","ND","ND","ND","0.6","20.5","22.3","77.8","0","0"],
    [28808,"2013-08-19T03:00:00","ND","ND","ND","ND","ND","ND","0.6","14","22","79.8","0","0"],
    [28809,"2013-08-19T04:00:00","ND","ND","ND","ND","ND","ND","0.3","15.5","21.6","82.5","0","0"],
    [28810,"2013-08-19T05:00:00","ND","ND","ND","ND","ND","ND","0.5","350.8","21.2","85.4","0","0"],
    [28811,"2013-08-19T06:00:00","ND","ND","ND","ND","ND","ND","0.3","303.5","21.1","85.7","0","0"],
    [28812,"2013-08-19T07:00:00","ND","ND","ND","ND","ND","ND","0.2","353","21.1","84.9","19.8","0"],
    [28813,"2013-08-19T08:00:00","ND","ND","ND","ND","ND","ND","0.4","17.1","22.2","79.8","163.2","0"],
    [28814,"2013-08-19T09:00:00","ND","ND","ND","ND","ND","ND","0.7","60.1","24.2","72.1","391.9","0"],
    [28815,"2013-08-19T10:00:00","ND","ND","ND","ND","ND","ND","1.7","59.3","25.5","65.2","608.6","0"],
    [28816,"2013-08-19T11:00:00","ND","ND","ND","ND","ND","ND","1.6","67.5","27.1","58","773.2","0"],
    [28817,"2013-08-19T12:00:00","ND","ND","ND","ND","ND","ND","0.7","283.1","27.5","55.2","322.4","0"],
    [28818,"2013-08-19T13:00:00","ND","ND","ND","ND","ND","ND","0.2","68.2","28.2","53","342","0"],
    [28819,"2013-08-19T14:00:00","ND","ND","ND","ND","ND","ND","0.8","93.9","28.2","54","374","0"],
    [28820,"2013-08-19T15:00:00","ND","ND","ND","ND","ND","ND","1","13.8","28.9","49.9","506.5","0"],
    [28821,"2013-08-19T16:00:00","ND","ND","ND","ND","ND","ND","1.9","325.8","29.1","48","287.1","0"],
    [28822,"2013-08-19T17:00:00","ND","ND","ND","ND","ND","ND","2.9","263.4","28.6","49.5","178.4","0"],
    [28823,"2013-08-19T18:00:00","ND","ND","ND","ND","ND","ND","2.5","266.2","27.2","52.3","38.7","0"],
    [28824,"2013-08-19T19:00:00","ND","ND","ND","ND","ND","ND","0.1","38.4","26.7","53","0","0"],
    [28825,"2013-08-19T20:00:00","ND","ND","ND","ND","ND","ND","1.1","109.2","26.6","53","0","0"],
    [28826,"2013-08-19T21:00:00","ND","ND","ND","ND","ND","ND","0.9","140.6","26","53.9","0","0"],
    [28827,"2013-08-19T22:00:00","ND","ND","ND","ND","ND","ND","0.5","99.1","24.9","58.8","0","0"],
    [28828,"2013-08-19T23:00:00","ND","ND","ND","ND","ND","ND","0.7","156.2","24.4","62.8","0","0"],
    [28829,"2013-08-20T00:00:00","ND","ND","ND","ND","ND","ND","0.6","66.7","23.7","65.5","0","0"],
    [28830,"2013-08-20T01:00:00","ND","ND","ND","ND","ND","ND","0.3","32","22.8","68.3","0","0"],
    [28831,"2013-08-20T02:00:00","ND","ND","ND","ND","ND","ND","0.3","89.8","22.7","70.1","0","0"],
    [28832,"2013-08-20T03:00:00","ND","ND","ND","ND","ND","ND","0.3","80.7","22.5","73","0","0"],
    [28833,"2013-08-20T04:00:00","ND","ND","ND","ND","ND","ND","0.5","157.4","21.8","80.2","0","0"],
    [28834,"2013-08-20T05:00:00","ND","ND","ND","ND","ND","ND","0.3","187.8","21.7","80.4","0","0"],
    [28835,"2013-08-20T06:00:00","ND","ND","ND","ND","ND","ND","0.2","315.9","21.4","82.5","0","0"],
    [28836,"2013-08-20T07:00:00","ND","ND","ND","ND","ND","ND","0.3","37.8","21.2","81.7","11","0"],
    [28837,"2013-08-20T08:00:00","ND","ND","ND","ND","ND","ND","0.2","308.1","22","78.2","129.1","0"],
    [28838,"2013-08-20T09:00:00","ND","ND","ND","ND","ND","ND","0.2","12.5","23.7","71.1","246.6","0"],
    [28839,"2013-08-20T10:00:00","ND","ND","ND","ND","ND","ND","0.7","65.9","25","64.6","499","0"],
    [28840,"2013-08-20T11:00:00","ND","ND","ND","ND","ND","ND","0.4","94","26.8","56.9","740.3","0"],
    [28841,"2013-08-20T12:00:00","ND","ND","ND","ND","ND","ND","1","51.9","28","54.9","624.1","0"],
    [28842,"2013-08-20T13:00:00","ND","ND","ND","ND","ND","ND","1.4","55.8","28.6","53.4","589.7","0"],
    [28843,"2013-08-20T14:00:00","ND","ND","ND","ND","ND","ND","1","83.2","29.5","50.4","525.6","0"],
    [28844,"2013-08-20T15:00:00","ND","ND","ND","ND","ND","ND","1","94.8","30.3","47.9","646.9","0"],
    [28845,"2013-08-20T16:00:00","ND","ND","ND","ND","ND","ND","1.3","112.1","30.8","44.7","392.7","0"],
    [28846,"2013-08-20T17:00:00","ND","ND","ND","ND","ND","ND","1.8","117.3","30.8","44.4","253.2","0"],
    [28847,"2013-08-20T18:00:00","ND","ND","ND","ND","ND","ND","0.8","112.1","30","45.4","66.7","0"],
    [28848,"2013-08-20T19:00:00","ND","ND","ND","ND","ND","ND","0.7","296.1","28","54.7","0","0"],
    [28849,"2013-08-20T20:00:00","ND","ND","ND","ND","ND","ND","0.4","270.1","27","56.9","0","0"],
    [28850,"2013-08-20T21:00:00","ND","ND","ND","ND","ND","ND","0.2","288.1","25.8","62.6","0","0"],
    [28851,"2013-08-20T22:00:00","ND","ND","ND","ND","ND","ND","0","136.4","25.8","62.6","0","0"],
    [28852,"2013-08-20T23:00:00","ND","ND","ND","ND","ND","ND","0.7","89.2","25.6","64.4","0","0"],
    [28853,"2013-08-21T00:00:00","ND","ND","ND","ND","ND","ND","0.7","175.1","24","74.3","0","0"],
    [28854,"2013-08-21T01:00:00","ND","ND","ND","ND","ND","ND","0.6","291","23.5","73.1","0","0"],
    [28855,"2013-08-21T02:00:00","ND","ND","ND","ND","ND","ND","0.8","6.3","22.8","76.1","0","0"],
    [28856,"2013-08-21T03:00:00","ND","ND","ND","ND","ND","ND","0.5","310.9","22.7","75.1","0","0"],
    [28857,"2013-08-21T04:00:00","ND","ND","ND","ND","ND","ND","0.2","14.4","23","75.8","0","0"],
    [28858,"2013-08-21T05:00:00","ND","ND","ND","ND","ND","ND","0.4","76.6","22.6","80.2","0","0"],
    [28859,"2013-08-21T06:00:00","ND","ND","ND","ND","ND","ND","0.2","259.6","21.8","83.1","0","0"],
    [28860,"2013-08-21T07:00:00","ND","ND","ND","ND","ND","ND","0.2","203.3","22","78.9","33.5","0"],
    [28861,"2013-08-21T08:00:00","ND","ND","ND","ND","ND","ND","0.5","88.5","24.2","66","230.2","0"],
    [28862,"2013-08-21T09:00:00","ND","ND","ND","ND","ND","ND","0.9","121","26","58.1","439.1","0"],
    [28863,"2013-08-21T10:00:00","ND","ND","ND","ND","ND","ND","1.6","129.5","27.2","54.9","601.1","0"],
    [28864,"2013-08-21T11:00:00","ND","ND","ND","ND","ND","ND","1.5","126","28.4","52.2","810.1","0"],
    [28865,"2013-08-21T12:00:00","ND","ND","ND","ND","ND","ND","0.2","113.5","29.4","48.9","446.7","0"],
    [28866,"2013-08-21T13:00:00","ND","ND","ND","ND","ND","ND","1.7","263.7","29.5","49.4","416.2","0"],
    [28867,"2013-08-21T14:00:00","ND","ND","ND","ND","ND","ND","2.1","359.3","30","47.2","663.1","0"],
    [28868,"2013-08-21T15:00:00","ND","ND","ND","ND","ND","ND","1.7","7.5","30.6","45.1","448.8","0"],
    [28869,"2013-08-21T16:00:00","ND","ND","ND","ND","ND","ND","1.5","296.6","31","43.9","416.6","0"],
    [28870,"2013-08-21T17:00:00","ND","ND","ND","ND","ND","ND","3.3","271.2","30.3","45.8","285.7","0"],
    [28871,"2013-08-21T18:00:00","ND","ND","ND","ND","ND","ND","1.6","264.3","29.5","46.9","63","0"],
    [28872,"2013-08-21T19:00:00","ND","ND","ND","ND","ND","ND","0.6","253.2","28.1","50.4","0","0"],
    [28873,"2013-08-21T20:00:00","ND","ND","ND","ND","ND","ND","0.4","136.6","27.6","52.3","0","0"],
    [28874,"2013-08-21T21:00:00","ND","ND","ND","ND","ND","ND","0.7","134","27.1","54.7","0","0"],
    [28875,"2013-08-21T22:00:00","ND","ND","ND","ND","ND","ND","0.5","108.1","26.7","57","0","0"],
    [28876,"2013-08-21T23:00:00","ND","ND","ND","ND","ND","ND","1.3","116.9","25.7","62.6","0","0"],
    [28877,"2013-08-22T00:00:00","ND","ND","ND","ND","ND","ND","0.7","88.2","24.6","68","0","0"],
    [28878,"2013-08-22T01:00:00","ND","ND","ND","ND","ND","ND","0.8","194.9","24.2","70.7","0","0"],
    [28879,"2013-08-22T02:00:00","ND","ND","ND","ND","ND","ND","0.4","294.5","23.7","72.7","0","0"],
    [28880,"2013-08-22T03:00:00","ND","ND","ND","ND","ND","ND","0.6","340.9","23","75.5","0","0"],
    [28881,"2013-08-22T04:00:00","ND","ND","ND","ND","ND","ND","0.4","70.2","22.5","78","0","0"],
    [28882,"2013-08-22T05:00:00","ND","ND","ND","ND","ND","ND","0.7","16.7","22.1","80.9","0","0"],
    [28883,"2013-08-22T06:00:00","ND","ND","ND","ND","ND","ND","0.4","8.6","21.6","82.8","0","0"],
    [28884,"2013-08-22T07:00:00","ND","ND","ND","ND","ND","ND","0.2","207.6","21.9","81.8","22.8","0"],
    [28885,"2013-08-22T08:00:00","ND","ND","ND","ND","ND","ND","0.5","65.5","23","77.6","121.5","0"],
    [28886,"2013-08-22T09:00:00","ND","ND","ND","ND","ND","ND","0.8","121.4","23.9","73.9","244.2","0"],
    [28887,"2013-08-22T10:00:00","ND","ND","ND","ND","ND","ND","0.9","113.7","25.8","65.4","516.2","0"],
    [28888,"2013-08-22T11:00:00","ND","ND","ND","ND","ND","ND","1.3","115.1","27.1","59.7","544.5","0"],
    [28889,"2013-08-22T12:00:00","ND","ND","ND","ND","ND","ND","1.7","131.8","27.2","59","321.4","0"],
    [28890,"2013-08-22T13:00:00","ND","ND","ND","ND","ND","ND","0.5","13.8","27.3","59.7","393.6","0"],
    [28891,"2013-08-22T14:00:00","ND","ND","ND","ND","ND","ND","0.8","94.5","28.1","57","446.3","0"],
    [28892,"2013-08-22T15:00:00","ND","ND","ND","ND","ND","ND","0.7","11.7","29.3","50.8","619.5","0"],
    [28893,"2013-08-22T16:00:00","ND","ND","ND","ND","ND","ND","1.1","15.2","30","48.2","339.2","0"],
    [28894,"2013-08-22T17:00:00","ND","ND","ND","ND","ND","ND","0.9","337.4","30","47.1","287.8","0"],
    [28895,"2013-08-22T18:00:00","ND","ND","ND","ND","ND","ND","1.5","291.6","29","49.1","87","0"],
    [28896,"2013-08-22T19:00:00","ND","ND","ND","ND","ND","ND","0.6","266.6","27.5","52.3","0","0"],
    [28897,"2013-08-22T20:00:00","ND","ND","ND","ND","ND","ND","0.7","59.9","26.7","54","0","0"],
    [28898,"2013-08-22T21:00:00","ND","ND","ND","ND","ND","ND","0.6","90.5","26.3","56.1","0","0"],
    [28899,"2013-08-22T22:00:00","ND","ND","ND","ND","ND","ND","1.2","108","24.9","62.6","0","0"],
    [28900,"2013-08-22T23:00:00","ND","ND","ND","ND","ND","ND","0.5","44","24.2","66.7","0","0"],
    [28901,"2013-08-23T00:00:00","ND","ND","ND","ND","ND","ND","0.4","124.5","23.8","68.4","0","0"],
    [28902,"2013-08-23T01:00:00","ND","ND","ND","ND","ND","ND","0.4","215.9","23.6","69.6","0","0"],
    [28903,"2013-08-23T02:00:00","ND","ND","ND","ND","ND","ND","0.2","241.1","23","72.7","0","0"],
    [28904,"2013-08-23T03:00:00","ND","ND","ND","ND","ND","ND","0.2","233.9","22.7","74.2","0","0"],
    [28905,"2013-08-23T04:00:00","ND","ND","ND","ND","ND","ND","0.2","262.7","22","77.3","0","0"],
    [28906,"2013-08-23T05:00:00","ND","ND","ND","ND","ND","ND","0.2","221.7","21.6","79.5","0","0"],
    [28907,"2013-08-23T06:00:00","ND","ND","ND","ND","ND","ND","0.6","13","21.6","79.7","0","0"],
    [28908,"2013-08-23T07:00:00","ND","ND","ND","ND","ND","ND","0.2","20.2","21.6","78.2","43.6","0"],
    [28909,"2013-08-23T08:00:00","ND","ND","ND","ND","ND","ND","1","34","22.5","76.7","150.9","0"],
    [28910,"2013-08-23T09:00:00","ND","ND","ND","ND","ND","ND","0.8","71.6","24.5","67.8","310.3","0"],
    [28911,"2013-08-23T10:00:00","ND","ND","ND","ND","ND","ND","0.8","131.8","25.7","62.8","473.7","0"],
    [28912,"2013-08-23T11:00:00","ND","ND","ND","ND","ND","ND","0.7","153","27.1","56.5","635.2","0"],
    [28913,"2013-08-23T12:00:00","ND","ND","ND","ND","ND","ND","ND","ND","ND","ND","ND","ND"],
    [28914,"2013-08-23T13:00:00","ND","ND","ND","ND","ND","ND","1","119.1","28.3","54.2","493.7","0"],
    [28915,"2013-08-23T14:00:00","ND","ND","ND","ND","ND","ND","0.5","84.6","29.7","50.2","579.2","0"],
    [28916,"2013-08-23T15:00:00","ND","ND","ND","ND","ND","ND","1","68.3","29.8","49.9","333.5","0"],
    [28917,"2013-08-23T16:00:00","ND","ND","ND","ND","ND","ND","2.6","257.6","30.5","44","382.8","0"],
    [28918,"2013-08-23T17:00:00","ND","ND","ND","ND","ND","ND","2.2","272.1","30","43.5","255.3","0"],
    [28919,"2013-08-23T18:00:00","ND","ND","ND","ND","ND","ND","2.7","273.2","28.6","45.7","57.1","0"],
    [28920,"2013-08-23T19:00:00","ND","ND","ND","ND","ND","ND","0.4","136.9","27.3","48.5","0","0"],
    [28921,"2013-08-23T20:00:00","ND","ND","ND","ND","ND","ND","0.7","92.8","26.5","52.1","0","0"],
    [28922,"2013-08-23T21:00:00","ND","ND","ND","ND","ND","ND","1.1","89.2","26.1","56","0","0"],
    [28923,"2013-08-23T22:00:00","ND","ND","ND","ND","ND","ND","0.9","89.1","25.3","60","0","0"],
    [28924,"2013-08-23T23:00:00","ND","ND","ND","ND","ND","ND","0.5","66.2","24.7","63.2","0","0"],
    [28925,"2013-08-24T00:00:00","ND","ND","ND","ND","ND","ND","0.3","43","24.1","66.4","0","0"],
    [28926,"2013-08-24T01:00:00","ND","ND","ND","ND","ND","ND","0.5","124.2","23","72.7","0","0"],
    [28927,"2013-08-24T02:00:00","ND","ND","ND","ND","ND","ND","0.4","200.3","22.9","74","0","0"],
    [28928,"2013-08-24T03:00:00","ND","ND","ND","ND","ND","ND","1.2","181.3","22.7","75.5","0","0"],
    [28929,"2013-08-24T04:00:00","ND","ND","ND","ND","ND","ND","0.2","270","22.4","77","0","0"],
    [28930,"2013-08-24T05:00:00","ND","ND","ND","ND","ND","ND","0.3","28.3","21.7","79.3","0","0"],
    [28931,"2013-08-24T06:00:00","ND","ND","ND","ND","ND","ND","0.3","11.3","21.4","80.5","0","0"],
    [28932,"2013-08-24T07:00:00","ND","ND","ND","ND","ND","ND","0.2","289.6","21.9","78.6","17.1","0"],
    [28933,"2013-08-24T08:00:00","ND","ND","ND","ND","ND","ND","0.1","20.1","22.8","75.4","71.1","0"],
    [28934,"2013-08-24T09:00:00","ND","ND","ND","ND","ND","ND","0.5","31.5","23.3","74.4","127.7","0"],
    [28935,"2013-08-24T10:00:00","ND","ND","ND","ND","ND","ND","0.6","119.4","24","72.4","194.3","0"],
    [28936,"2013-08-24T11:00:00","ND","ND","ND","ND","ND","ND","0.7","155.4","25.1","66.2","372.1","0"],
    [28937,"2013-08-24T12:00:00","ND","ND","ND","ND","ND","ND","0.9","57.2","26.6","60.8","506.2","0"],
    [28938,"2013-08-24T13:00:00","ND","ND","ND","ND","ND","ND","1.1","32.5","27.5","57.2","519.7","0"],
    [28939,"2013-08-24T14:00:00","ND","ND","ND","ND","ND","ND","0.3","221.1","27.9","54.8","282.1","0"],
    [28940,"2013-08-24T15:00:00","ND","ND","ND","ND","ND","ND","2.5","276.5","27","54.9","119.9","0"],
    [28941,"2013-08-24T16:00:00","ND","ND","ND","ND","ND","ND","3.4","266.1","27.6","52","526.1","0"],
    [28942,"2013-08-24T17:00:00","ND","ND","ND","ND","ND","ND","2.6","290","27.3","50.2","319.1","0"],
    [28943,"2013-08-24T18:00:00","ND","ND","ND","ND","ND","ND","2","270.1","27","44.6","70.8","0"],
    [28944,"2013-08-24T19:00:00","ND","ND","ND","ND","ND","ND","0.9","148.5","26.4","45.8","0","0"],
    [28945,"2013-08-24T20:00:00","ND","ND","ND","ND","ND","ND","1.6","189.1","24.9","59","0","0"],
    [28946,"2013-08-24T21:00:00","ND","ND","ND","ND","ND","ND","1.5","179.1","23.8","70.8","0","0"],
    [28947,"2013-08-24T22:00:00","ND","ND","ND","ND","ND","ND","0.6","241.8","23.4","70.8","0","0"],
    [28948,"2013-08-24T23:00:00","ND","ND","ND","ND","ND","ND","0.2","4.1","23","69.3","0","0"],
    [28949,"2013-08-25T00:00:00","ND","ND","ND","ND","ND","ND","0.6","28.7","21.9","70.4","0","0"],
    [28950,"2013-08-25T01:00:00","ND","ND","ND","ND","ND","ND","0.3","317.8","21.3","72.8","0","0"],
    [28951,"2013-08-25T02:00:00","ND","ND","ND","ND","ND","ND","0.7","332","20.7","76.2","0","0"],
    [28952,"2013-08-25T03:00:00","ND","ND","ND","ND","ND","ND","0.5","334.3","20.4","75.5","0","0"],
    [28953,"2013-08-25T04:00:00","ND","ND","ND","ND","ND","ND","0.2","257.1","20.1","78","0","0"],
    [28954,"2013-08-25T05:00:00","ND","ND","ND","ND","ND","ND","0.9","7","19.7","82.9","0","0"],
    [28955,"2013-08-25T06:00:00","ND","ND","ND","ND","ND","ND","0.2","183.2","19.5","84.7","0","0"],
    [28956,"2013-08-25T07:00:00","ND","ND","ND","ND","ND","ND","0.6","13.2","19.5","85.8","40.9","0"],
    [28957,"2013-08-25T08:00:00","ND","ND","ND","ND","ND","ND","0.2","156.9","21.5","78.2","214.4","0"],
    [28958,"2013-08-25T09:00:00","ND","ND","ND","ND","ND","ND","0.8","140.1","23.5","69.3","432.2","0"],
    [28959,"2013-08-25T10:00:00","ND","ND","ND","ND","ND","ND","1.6","122.5","25.4","61.6","622.6","0"],
    [28960,"2013-08-25T11:00:00","ND","ND","ND","ND","ND","ND","1.2","148.2","26.8","55.6","763","0"],
    [28961,"2013-08-25T12:00:00","ND","ND","ND","ND","ND","ND","1.5","107.9","28.2","51.3","777.2","0"],
    [28962,"2013-08-25T13:00:00","ND","ND","ND","ND","ND","ND","0.7","35.1","29.4","48.9","610.6","0"],
    [28963,"2013-08-25T14:00:00","ND","ND","ND","ND","ND","ND","1.5","287.5","30.1","46","649.1","0"],
    [28964,"2013-08-25T15:00:00","ND","ND","ND","ND","ND","ND","4.6","283.3","29.7","46.2","572.4","0"],
    [28965,"2013-08-25T16:00:00","ND","ND","ND","ND","ND","ND","4.6","282.3","29.1","47.4","329.3","0"],
    [28966,"2013-08-25T17:00:00","ND","ND","ND","ND","ND","ND","4.1","285.8","28.1","49.4","152.7","0"],
    [28967,"2013-08-25T18:00:00","ND","ND","ND","ND","ND","ND","2.2","306.1","27.3","52.5","47.3","0"],
    [28968,"2013-08-25T19:00:00","ND","ND","ND","ND","ND","ND","0.8","351.4","26.3","57.1","0","0"],
    [28969,"2013-08-25T20:00:00","ND","ND","ND","ND","ND","ND","1.6","79","24.5","67.4","0","0"],
    [28970,"2013-08-25T21:00:00","ND","ND","ND","ND","ND","ND","0.7","120.7","23.3","73.4","0","0"],
    [28971,"2013-08-25T22:00:00","ND","ND","ND","ND","ND","ND","3","188.2","23.8","71.3","0","0"],
    [28972,"2013-08-25T23:00:00","ND","ND","ND","ND","ND","ND","1.8","171.4","23.4","72.2","0","0"],
    [28973,"2013-08-26T00:00:00","ND","ND","ND","ND","ND","ND","0.5","336.9","23","74.8","0","0"],
    [28974,"2013-08-26T01:00:00","ND","ND","ND","ND","ND","ND","0.8","25.8","22.1","81.1","0","0"],
    [28975,"2013-08-26T02:00:00","ND","ND","ND","ND","ND","ND","0.4","87.3","21.7","85","0","0"],
    [28976,"2013-08-26T03:00:00","ND","ND","ND","ND","ND","ND","0.5","2.7","21.4","85.9","0","0"],
    [28977,"2013-08-26T04:00:00","ND","ND","ND","ND","ND","ND","0.2","337.8","21.6","84.4","0","0"],
    [28978,"2013-08-26T05:00:00","ND","ND","ND","ND","ND","ND","0.3","73.9","21.7","83.5","0","0"],
    [28979,"2013-08-26T06:00:00","ND","ND","ND","ND","ND","ND","0.3","99.8","21.3","84.8","0","0"],
    [28980,"2013-08-26T07:00:00","ND","ND","ND","ND","ND","ND","1","138.3","21.4","84.5","19.1","0"],
    [28981,"2013-08-26T08:00:00","ND","ND","ND","ND","ND","ND","0.2","174.3","22","82.1","118","0"],
    [28982,"2013-08-26T09:00:00","ND","ND","ND","ND","ND","ND","0.5","81.3","23.1","77.8","159.9","0"],
    [28983,"2013-08-26T10:00:00","ND","ND","ND","ND","ND","ND","0.7","126.7","24.2","70.9","335.8","0"],
    [28984,"2013-08-26T11:00:00","ND","ND","ND","ND","ND","ND","0.5","93.2","25.8","62.7","598.1","0"],
    [28985,"2013-08-26T12:00:00","ND","ND","ND","ND","ND","ND","1.2","58.2","27.1","58.8","623.8","0"],
    [28986,"2013-08-26T13:00:00","ND","ND","ND","ND","ND","ND","1.1","45.8","27.6","57","533.5","0"],
    [28987,"2013-08-26T14:00:00","ND","ND","ND","ND","ND","ND","1.6","48.1","28.2","54.1","542.1","0"],
    [28988,"2013-08-26T15:00:00","ND","ND","ND","ND","ND","ND","1.7","47.6","29.1","51.7","495.8","0"],
    [28989,"2013-08-26T16:00:00","ND","ND","ND","ND","ND","ND","1.1","353.2","29.3","48.4","348.3","0"],
    [28990,"2013-08-26T17:00:00","ND","ND","ND","ND","ND","ND","2.5","256.9","29.5","47","284.9","0"],
    [28991,"2013-08-26T18:00:00","ND","ND","ND","ND","ND","ND","1.4","270.5","28.6","49.7","79","0"],
    [28992,"2013-08-26T19:00:00","ND","ND","ND","ND","ND","ND","0.8","253.3","26.9","54.3","0","0"],
    [28993,"2013-08-26T20:00:00","ND","ND","ND","ND","ND","ND","1.9","242.2","26.7","54.3","0","0"],
    [28994,"2013-08-26T21:00:00","ND","ND","ND","ND","ND","ND","0.9","253.9","26.2","56.9","0","0"],
    [28995,"2013-08-26T22:00:00","ND","ND","ND","ND","ND","ND","1.1","56.1","25.3","64.3","0","0"],
    [28996,"2013-08-26T23:00:00","ND","ND","ND","ND","ND","ND","0.5","338.7","24.7","66","0","0"],
    [28997,"2013-08-27T00:00:00","ND","ND","ND","ND","ND","ND","0.1","355.8","24","69.3","0","0"],
    [28998,"2013-08-27T01:00:00","ND","ND","ND","ND","ND","ND","0.6","63.8","23.3","73.7","0","0"],
    [28999,"2013-08-27T02:00:00","ND","ND","ND","ND","ND","ND","0.1","328.6","22.5","77.6","0","0"],
    [29000,"2013-08-27T03:00:00","ND","ND","ND","ND","ND","ND","0.2","290.7","22","79.3","0","0"],
    [29001,"2013-08-27T04:00:00","ND","ND","ND","ND","ND","ND","0.2","203.6","21.7","80","0","0"],
    [29002,"2013-08-27T05:00:00","ND","ND","ND","ND","ND","ND","0.2","343.1","21.1","82.2","0","0"],
    [29003,"2013-08-27T06:00:00","ND","ND","ND","ND","ND","ND","0.4","342.8","20.6","82.9","0","0"],
    [29004,"2013-08-27T07:00:00","ND","ND","ND","ND","ND","ND","0.2","15.3","20.8","82.3","23.2","0"],
    [29005,"2013-08-27T08:00:00","ND","ND","ND","ND","ND","ND","0.5","45.6","21.5","80.9","83.2","0"],
    [29006,"2013-08-27T09:00:00","ND","ND","ND","ND","ND","ND","0.7","107.5","22.8","75.3","249.7","0"],
    [29007,"2013-08-27T10:00:00","ND","ND","ND","ND","ND","ND","0.8","123.2","24.3","67.9","549","0"],
    [29008,"2013-08-27T11:00:00","ND","ND","ND","ND","ND","ND","1","71.8","26.9","57.5","834.8","0"],
    [29009,"2013-08-27T12:00:00","ND","ND","ND","ND","ND","ND","0.9","84.5","28.3","51.4","915.1","0"],
    [29010,"2013-08-27T13:00:00","ND","ND","ND","ND","ND","ND","1.4","131.1","29.5","46.6","731.6","0"],
    [29011,"2013-08-27T14:00:00","ND","ND","ND","ND","ND","ND","2.4","88.4","29.4","50","494.7","0"],
    [29012,"2013-08-27T15:00:00","ND","ND","ND","ND","ND","ND","1.7","55.5","28.9","51","423.4","0"],
    [29013,"2013-08-27T16:00:00","ND","ND","ND","ND","ND","ND","0.9","112.6","29.3","48.8","262.4","0"],
    [29014,"2013-08-27T17:00:00","ND","ND","ND","ND","ND","ND","0.5","187.9","29.2","50","161.3","0"],
    [29015,"2013-08-27T18:00:00","ND","ND","ND","ND","ND","ND","1.9","256.8","28.6","49.9","61.4","0"],
    [29016,"2013-08-27T19:00:00","ND","ND","ND","ND","ND","ND","0.6","242.6","27.3","51","0","0.25"],
    [29017,"2013-08-27T20:00:00","ND","ND","ND","ND","ND","ND","0.4","167.2","26.9","52.2","0","0"],
    [29018,"2013-08-27T21:00:00","ND","ND","ND","ND","ND","ND","0.1","133","26.3","54.7","0","0"],
    [29019,"2013-08-27T22:00:00","ND","ND","ND","ND","ND","ND","0.9","93.2","26","56.9","0","0"],
    [29020,"2013-08-27T23:00:00","ND","ND","ND","ND","ND","ND","0.3","90.8","24.8","63.7","0","0"],
    [29021,"2013-08-28T00:00:00","ND","ND","ND","ND","ND","ND","0.3","142.8","24.6","65.6","0","0"],
    [29022,"2013-08-28T01:00:00","ND","ND","ND","ND","ND","ND","0.8","130.6","23.9","69.6","0","0"],
    [29023,"2013-08-28T02:00:00","ND","ND","ND","ND","ND","ND","0.7","126.8","23.5","71.6","0","0"],
    [29024,"2013-08-28T03:00:00","ND","ND","ND","ND","ND","ND","0","264.2","22.7","77.2","0","0"],
    [29025,"2013-08-28T04:00:00","ND","ND","ND","ND","ND","ND","0.6","186.1","22.8","76.1","0","0"],
    [29026,"2013-08-28T05:00:00","ND","ND","ND","ND","ND","ND","0.9","177.4","22.8","74.6","0","0"],
    [29027,"2013-08-28T06:00:00","ND","ND","ND","ND","ND","ND","0.2","252.8","22.3","77.5","0","0"],
    [29028,"2013-08-28T07:00:00","ND","ND","ND","ND","ND","ND","0","255.4","22.1","79.5","25.8","0"],
    [29029,"2013-08-28T08:00:00","ND","ND","ND","ND","ND","ND","0.6","45.6","23.4","73.1","149.7","0"],
    [29030,"2013-08-28T09:00:00","ND","ND","ND","ND","ND","ND","0.9","67","24.2","69.9","257.1","0"],
    [29031,"2013-08-28T10:00:00","ND","ND","ND","ND","ND","ND","1.3","53.3","25.1","65.7","329.7","0"],
    [29032,"2013-08-28T11:00:00","ND","ND","ND","ND","ND","ND","0.9","63","26.7","59.7","521.1","0"],
    [29033,"2013-08-28T12:00:00","ND","ND","ND","ND","ND","ND","1","118.4","28.2","54.4","691.7","0"],
    [29034,"2013-08-28T13:00:00","ND","ND","ND","ND","ND","ND","1","111.4","29.6","49.9","677.7","0"],
    [29035,"2013-08-28T14:00:00","ND","ND","ND","ND","ND","ND","ND","ND","ND","ND","ND","ND"],
    [29036,"2013-08-28T15:00:00","ND","ND","ND","ND","ND","ND","ND","ND","ND","ND","ND","ND"],
    [29037,"2013-08-28T16:00:00","ND","ND","ND","ND","ND","ND","ND","ND","ND","ND","ND","ND"],
    [29038,"2013-08-28T17:00:00","ND","ND","ND","ND","ND","ND","1.8","315.1","26.9","59.2","96.2","0"],
    [29039,"2013-08-28T18:00:00","ND","ND","ND","ND","ND","ND","0.6","1.5","27.2","59.9","32.5","0"],
    [29040,"2013-08-28T19:00:00","ND","ND","ND","ND","ND","ND","1.4","258.9","26.9","56.5","0","0"],
    [29041,"2013-08-28T20:00:00","ND","ND","ND","ND","ND","ND","1.9","253.8","26.7","57","0","0"],
    [29042,"2013-08-28T21:00:00","ND","ND","ND","ND","ND","ND","0.6","77","26.4","60","0","0"],
    [29043,"2013-08-28T22:00:00","ND","ND","ND","ND","ND","ND","1.1","89.6","25.4","66.5","0","0"],
    [29044,"2013-08-28T23:00:00","ND","ND","ND","ND","ND","ND","0.2","145","24.7","69.2","0","0"],
    [29045,"2013-08-29T00:00:00","ND","ND","ND","ND","ND","ND","0.3","186","24.4","70.5","0","0"],
    [29046,"2013-08-29T01:00:00","ND","ND","ND","ND","ND","ND","0.4","46.1","23.1","77.9","0","0"],
    [29047,"2013-08-29T02:00:00","ND","ND","ND","ND","ND","ND","0.1","18.1","21.9","82.7","0","0"],
    [29048,"2013-08-29T03:00:00","ND","ND","ND","ND","ND","ND","0.3","303.9","22.2","80.3","0","0"],
    [29049,"2013-08-29T04:00:00","ND","ND","ND","ND","ND","ND","0.2","293.3","21.8","79.9","0","0"],
    [29050,"2013-08-29T05:00:00","ND","ND","ND","ND","ND","ND","0.4","35.4","21.4","83.7","0","0"],
    [29051,"2013-08-29T06:00:00","ND","ND","ND","ND","ND","ND","0.3","330.3","21.3","83.5","0","0"],
    [29052,"2013-08-29T07:00:00","ND","ND","ND","ND","ND","ND","0.3","98.7","21.4","83.6","36.2","0"],
    [29053,"2013-08-29T08:00:00","ND","ND","ND","ND","ND","ND","0.6","129.4","23.4","73.5","205.2","0"],
    [29054,"2013-08-29T09:00:00","ND","ND","ND","ND","ND","ND","1","71.7","24.6","67.2","320.5","0"],
    [29055,"2013-08-29T10:00:00","ND","ND","ND","ND","ND","ND","0.5","109.2","25.5","62.6","454.6","0"],
    [29056,"2013-08-29T11:00:00","ND","ND","ND","ND","ND","ND","1.4","136.5","27.5","50.4","658","0"],
    [29057,"2013-08-29T12:00:00","ND","ND","ND","ND","ND","ND","2.5","138.6","29.1","44.6","731.2","0"],
    [29058,"2013-08-29T13:00:00","ND","ND","ND","ND","ND","ND","4.2","161.4","29.6","37","516.9","0"],
    [29059,"2013-08-29T14:00:00","ND","ND","ND","ND","ND","ND","5","155.1","30.2","32.5","665.5","0"],
    [29060,"2013-08-29T15:00:00","ND","ND","ND","ND","ND","ND","5.1","146.1","30.8","32.7","707.9","0"],
    [29061,"2013-08-29T16:00:00","ND","ND","ND","ND","ND","ND","4.4","173","30.9","29.5","477.6","0"],
    [29062,"2013-08-29T17:00:00","ND","ND","ND","ND","ND","ND","3.8","177","31","27.1","306.4","0"],
    [29063,"2013-08-29T18:00:00","ND","ND","ND","ND","ND","ND","3.4","161.3","30.1","27.9","82.9","0"],
    [29064,"2013-08-29T19:00:00","ND","ND","ND","ND","ND","ND","2.3","182","29","31.6","0","0"],
    [29065,"2013-08-29T20:00:00","ND","ND","ND","ND","ND","ND","1.2","242.6","27.6","39","0","0"],
    [29066,"2013-08-29T21:00:00","ND","ND","ND","ND","ND","ND","0.4","148.5","26.5","46.6","0","0"],
    [29067,"2013-08-29T22:00:00","ND","ND","ND","ND","ND","ND","0.3","33.9","25.3","51.7","0","0"],
    [29068,"2013-08-29T23:00:00","ND","ND","ND","ND","ND","ND","0.4","117.5","24.1","60.5","0","0"],
    [29069,"2013-08-30T00:00:00","ND","ND","ND","ND","ND","ND","0.4","236.6","23","62.5","0","0"],
    [29070,"2013-08-30T01:00:00","ND","ND","ND","ND","ND","ND","0.2","357.7","22.3","65.2","0","0"],
    [29071,"2013-08-30T02:00:00","ND","ND","ND","ND","ND","ND","0.1","324","21.6","67.5","0","0"],
    [29072,"2013-08-30T03:00:00","ND","ND","ND","ND","ND","ND","0.4","220.6","22.4","66.9","0","0"],
    [29073,"2013-08-30T04:00:00","ND","ND","ND","ND","ND","ND","0.4","7.9","22.3","67.8","0","0"],
    [29074,"2013-08-30T05:00:00","ND","ND","ND","ND","ND","ND","0.2","328.4","21.4","70.5","0","0"],
    [29075,"2013-08-30T06:00:00","ND","ND","ND","ND","ND","ND","0.4","8.4","20.6","71.4","0","0"],
    [29076,"2013-08-30T07:00:00","ND","ND","ND","ND","ND","ND","0.6","35.5","20.2","70.1","45.1","0"],
    [29077,"2013-08-30T08:00:00","ND","ND","ND","ND","ND","ND","0.6","35.1","22.1","58.4","213.7","0"],
    [29078,"2013-08-30T09:00:00","ND","ND","ND","ND","ND","ND","1.2","39.5","24","55.5","426.8","0"],
    [29079,"2013-08-30T10:00:00","ND","ND","ND","ND","ND","ND","1.3","59.1","26.1","47.9","660.6","0"],
    [29080,"2013-08-30T11:00:00","ND","ND","ND","ND","ND","ND","0.5","140","28","38.1","818.6","0"],
    [29081,"2013-08-30T12:00:00","ND","ND","ND","ND","ND","ND","1.1","109.1","29.6","34.6","809.8","0"],
    [29082,"2013-08-30T13:00:00","ND","ND","ND","ND","ND","ND","1.6","139.4","31.3","28.7","839.2","0"],
    [29083,"2013-08-30T14:00:00","ND","ND","ND","ND","ND","ND","2.3","116.6","31.6","28.1","417","0"],
    [29084,"2013-08-30T15:00:00","ND","ND","ND","ND","ND","ND","1.9","84.7","31.1","30.7","356.4","0"],
    [29085,"2013-08-30T16:00:00","ND","ND","ND","ND","ND","ND","1.2","73.3","31.2","30.5","354","0"],
    [29086,"2013-08-30T17:00:00","ND","ND","ND","ND","ND","ND","1.7","74.5","30.8","32.7","242","0"],
    [29087,"2013-08-30T18:00:00","ND","ND","ND","ND","ND","ND","1","88.3","30.3","33.4","43.8","0"],
    [29088,"2013-08-30T19:00:00","ND","ND","ND","ND","ND","ND","2.4","253.6","28.4","44","0","0"],
    [29089,"2013-08-30T20:00:00","ND","ND","ND","ND","ND","ND","1.5","235.8","28","43.8","0","0"],
    [29090,"2013-08-30T21:00:00","ND","ND","ND","ND","ND","ND","0.6","225.6","27.3","44.7","0","0"],
    [29091,"2013-08-30T22:00:00","ND","ND","ND","ND","ND","ND","0.4","99.5","26.8","48.3","0","0"],
    [29092,"2013-08-30T23:00:00","ND","ND","ND","ND","ND","ND","0.3","48.4","25.5","56.4","0","0"],
    [29093,"2013-08-31T00:00:00","ND","ND","ND","ND","ND","ND","0.1","163.7","25.2","59.2","0","0"],
    [29094,"2013-08-31T01:00:00","ND","ND","ND","ND","ND","ND","0.2","269.3","24.2","63","0","0"],
    [29095,"2013-08-31T02:00:00","ND","ND","ND","ND","ND","ND","0.1","312.2","23.5","61.3","0","0"],
    [29096,"2013-08-31T03:00:00","ND","ND","ND","ND","ND","ND","0.1","79.5","23.9","64.4","0","0"],
    [29097,"2013-08-31T04:00:00","ND","ND","ND","ND","ND","ND","0.3","184.1","23.5","68.7","0","0"],
    [29098,"2013-08-31T05:00:00","ND","ND","ND","ND","ND","ND","0.3","145.5","23.2","69.6","0","0"],
    [29099,"2013-08-31T06:00:00","ND","ND","ND","ND","ND","ND","0.1","109","22.6","71.1","0","0"],
    [29100,"2013-08-31T07:00:00","ND","ND","ND","ND","ND","ND","0.5","254.3","22.3","74.1","28.8","0"],
    [29101,"2013-08-31T08:00:00","ND","ND","ND","ND","ND","ND","0.4","111.4","23.7","67.6","168.7","0"],
    [29102,"2013-08-31T09:00:00","ND","ND","ND","ND","ND","ND","0.9","136.1","24.6","59.5","383.4","0"],
    [29103,"2013-08-31T10:00:00","ND","ND","ND","ND","ND","ND","1.2","138.4","26.4","54","520.5","0"],
    [29104,"2013-08-31T11:00:00","ND","ND","ND","ND","ND","ND","0.9","125.2","27.4","50.1","574.8","0"],
    [29105,"2013-08-31T12:00:00","ND","ND","ND","ND","ND","ND","1.3","118.8","28.7","46.4","681.4","0"],
    [29106,"2013-08-31T13:00:00","ND","ND","ND","ND","ND","ND","1.5","92.9","28.9","45.5","555.2","0"],
    [29107,"2013-08-31T14:00:00","ND","ND","ND","ND","ND","ND","1.4","62.9","29.7","45.3","502.1","0"],
    [29108,"2013-08-31T15:00:00","ND","ND","ND","ND","ND","ND","2","61","29.1","45.4","340.1","0"],
    [29109,"2013-08-31T16:00:00","ND","ND","ND","ND","ND","ND","1.1","69.9","29.2","43.8","196.8","0"],
    [29110,"2013-08-31T17:00:00","ND","ND","ND","ND","ND","ND","0.5","121.3","28.7","47.6","60.5","0"],
    [29111,"2013-08-31T18:00:00","ND","ND","ND","ND","ND","ND","1.9","238.5","27.7","50.5","14.6","0"],
    [29112,"2013-08-31T19:00:00","ND","ND","ND","ND","ND","ND","2.4","258.1","26.9","52.2","0","0"],
    [29113,"2013-08-31T20:00:00","ND","ND","ND","ND","ND","ND","1.3","283.1","27","51.9","0","0"],
    [29114,"2013-08-31T21:00:00","ND","ND","ND","ND","ND","ND","1.1","94.1","26.7","55.2","0","0"],
    [29115,"2013-08-31T22:00:00","ND","ND","ND","ND","ND","ND","1.1","90.5","25.4","62.4","0","0"],
    [29116,"2013-08-31T23:00:00","ND","ND","ND","ND","ND","ND","0.5","168","25.1","63.5","0","0"],
    [29117,"2013-09-01T00:00:00","ND","ND","ND","ND","ND","ND","0.1","97.4","24.9","64.6","0","0"],
    [29118,"2013-09-01T01:00:00","63.3","ND","ND","ND","ND","ND","0.6","127.7","24.1","69.6","0","0"],
    [29119,"2013-09-01T02:00:00","36.9","ND","ND","ND","ND","ND","1","157.8","23.8","70.6","0","0"],
    [29120,"2013-09-01T03:00:00","25.9","ND","ND","ND","ND","ND","1.1","118.7","23.6","71","0","0"],
    [29121,"2013-09-01T04:00:00","51.1","ND","ND","ND","ND","ND","0.3","173.3","22.7","73.5","0","0"],
    [29122,"2013-09-01T05:00:00","48.2","ND","ND","ND","ND","ND","0.2","263.3","22.2","75.3","0","0"],
    [29123,"2013-09-01T06:00:00","42.5","ND","ND","ND","ND","ND","0.3","291.6","21.8","75.8","0","0"],
    [29124,"2013-09-01T07:00:00","43.8","ND","ND","ND","ND","ND","0.2","71.1","22","75.4","42","0"],
    [29125,"2013-09-01T08:00:00","38.9","ND","ND","ND","ND","ND","0.7","52.5","22.9","73.7","176.4","0"],
    [29126,"2013-09-01T09:00:00","35.4","ND","ND","ND","ND","ND","0.6","63.2","24.6","64.8","398.7","0"],
    [29127,"2013-09-01T10:00:00","33.5","ND","ND","ND","ND","ND","1.1","100.3","26","59.4","590.8","0"],
    [29128,"2013-09-01T11:00:00","43","ND","ND","ND","ND","ND","1.6","100.5","27.3","54.7","750.7","0"],
    [29129,"2013-09-01T12:00:00","35.3","ND","ND","ND","ND","ND","1.3","52.4","28.6","51.9","845.5","0"],
    [29130,"2013-09-01T13:00:00","30.9","ND","ND","ND","ND","ND","1.2","85","30.2","47.6","917.3","0"],
    [29131,"2013-09-01T14:00:00","16","ND","ND","ND","ND","ND","1.2","3.8","30.8","44.9","617.8","0"],
    [29132,"2013-09-01T15:00:00","23.3","ND","ND","ND","ND","ND","1.4","258.2","31.1","42.7","414.6","0"],
    [29133,"2013-09-01T16:00:00","15.3","ND","ND","ND","ND","ND","4.3","270","30.4","44.6","497.3","0"],
    [29134,"2013-09-01T17:00:00","22.8","ND","ND","ND","ND","ND","3.1","281.2","30","44.1","286.3","0"],
    [29135,"2013-09-01T18:00:00","13.9","ND","ND","ND","ND","ND","3","267.6","28.7","46.7","71.4","0"],
    [29136,"2013-09-01T19:00:00","13.5","ND","ND","ND","ND","ND","0.8","259.9","28","48.4","0","0"],
    [29137,"2013-09-01T20:00:00","14.3","ND","ND","ND","ND","ND","1.2","125.1","27.2","52.7","0","0"],
    [29138,"2013-09-01T21:00:00","25.7","ND","ND","ND","ND","ND","2.1","162.5","26.1","56.2","0","0"],
    [29139,"2013-09-01T22:00:00","31.8","ND","ND","ND","ND","ND","0.2","202.7","25.6","59.1","0","0"],
    [29140,"2013-09-01T23:00:00","21.9","ND","ND","ND","ND","ND","0.3","51.7","24.9","61.8","0","0"],
    [29141,"2013-09-02T00:00:00","21.2","ND","ND","ND","ND","ND","1","139.2","24.1","66.7","0","0"],
    [29142,"2013-09-02T01:00:00","28.6","ND","ND","ND","ND","ND","0.3","205.2","23.6","66.5","0","0"],
    [29143,"2013-09-02T02:00:00","18.5","ND","ND","ND","ND","ND","0.5","186.6","23.2","65.6","0","0"],
    [29144,"2013-09-02T03:00:00","26.1","ND","ND","ND","ND","ND","0.5","5.8","22.4","70.4","0","0"],
    [29145,"2013-09-02T04:00:00","13.5","ND","ND","ND","ND","ND","0.7","10.3","21.7","73.3","0","0"],
    [29146,"2013-09-02T05:00:00","31.4","ND","ND","ND","ND","ND","0.5","42.9","21","75.5","0","0"],
    [29147,"2013-09-02T06:00:00","27.6","ND","ND","ND","ND","ND","0.3","313.3","20.7","77.2","0","0"],
    [29148,"2013-09-02T07:00:00","41.3","ND","ND","ND","ND","ND","0.2","180.4","21.4","74","53.4","0"],
    [29149,"2013-09-02T08:00:00","60.4","ND","ND","ND","ND","ND","1","45.3","22.9","69.5","184.7","0"],
    [29150,"2013-09-02T09:00:00","68.5","ND","ND","ND","ND","ND","0.9","92.4","24.2","64.3","436.4","0"],
    [29151,"2013-09-02T10:00:00","53.1","ND","ND","ND","ND","ND","1.4","114.8","25.8","58.7","646.7","0"],
    [29152,"2013-09-02T11:00:00","64.3","ND","ND","ND","ND","ND","1.4","123.4","27.6","51.9","768.9","0"],
    [29153,"2013-09-02T12:00:00","54.3","ND","ND","ND","ND","ND","1.4","99.1","29","47.5","900.3","0"],
    [29154,"2013-09-02T13:00:00","43","ND","ND","ND","ND","ND","0.5","122.7","29.8","45.3","457.6","0"],
    [29155,"2013-09-02T14:00:00","35.7","ND","ND","ND","ND","ND","0.8","41.6","30.4","43.2","347.9","0"],
    [29156,"2013-09-02T15:00:00","34.6","ND","ND","ND","ND","ND","1.5","268.7","30.7","41.9","527.4","0"],
    [29157,"2013-09-02T16:00:00","18","ND","ND","ND","ND","ND","3.2","283.1","30.2","43.1","295.5","0"],
    [29158,"2013-09-02T17:00:00","33.7","ND","ND","ND","ND","ND","3.3","289.6","29.9","43.8","232.6","0"],
    [29159,"2013-09-02T18:00:00","33.6","ND","ND","ND","ND","ND","2.8","277.4","28.4","47","14.1","0"],
    [29160,"2013-09-02T19:00:00","33.2","ND","ND","ND","ND","ND","0.3","222","28","47.8","0","0"],
    [29161,"2013-09-02T20:00:00","33.9","ND","ND","ND","ND","ND","1.2","117.4","27.4","50.6","0","0"],
    [29162,"2013-09-02T21:00:00","44.5","ND","ND","ND","ND","ND","1.2","139.2","26.2","56.8","0","0"],
    [29163,"2013-09-02T22:00:00","29.1","ND","ND","ND","ND","ND","0.3","110","25.8","58.4","0","0"],
    [29164,"2013-09-02T23:00:00","41.9","ND","ND","ND","ND","ND","1.2","113.2","25","61.4","0","0"],
    [29165,"2013-09-03T00:00:00","47.6","ND","ND","ND","ND","ND","0.6","130.1","23.9","65.9","0","0"],
    [29166,"2013-09-03T01:00:00","41","ND","ND","ND","ND","ND","1","145.8","23.8","66.5","0","0"],
    [29167,"2013-09-03T02:00:00","26.3","ND","ND","ND","ND","ND","0.3","65.6","23.8","67.5","0","0"],
    [29168,"2013-09-03T03:00:00","21.8","ND","ND","ND","ND","ND","0.8","11.7","22.7","72.2","0","0"],
    [29169,"2013-09-03T04:00:00","11.5","ND","ND","ND","ND","ND","0.8","207","22.8","71.4","0","0"],
    [29170,"2013-09-03T05:00:00","29.6","ND","ND","ND","ND","ND","0.3","238.2","22.5","73.3","0","0"],
    [29171,"2013-09-03T06:00:00","26.4","ND","ND","ND","ND","ND","0.9","32.9","21.9","76.8","0","0"],
    [29172,"2013-09-03T07:00:00","36","ND","ND","ND","ND","ND","0.2","193.7","21.9","77.6","23","0"],
    [29173,"2013-09-03T08:00:00","49.7","ND","ND","ND","ND","ND","0.8","172.7","22.7","73.7","42.5","0"],
    [29174,"2013-09-03T09:00:00","37","ND","ND","ND","ND","ND","0.5","73.6","22.7","77","158.4","0"],
    [29175,"2013-09-03T10:00:00","42.7","ND","ND","ND","ND","ND","1.5","125.2","25.2","66.3","663.9","0"],
    [29176,"2013-09-03T11:00:00","46.2","ND","ND","ND","ND","ND","1.4","90.2","26.4","59.5","624.8","0"],
    [29177,"2013-09-03T12:00:00","38.2","ND","ND","ND","ND","ND","0.9","274.2","27","56.9","480.4","0"],
    [29178,"2013-09-03T13:00:00","36.4","ND","ND","ND","ND","ND","1.7","29.2","28.7","51","827.7","0"],
    [29179,"2013-09-03T14:00:00","22.8","ND","ND","ND","ND","ND","2","11.5","29","46.6","273.4","0"],
    [29180,"2013-09-03T15:00:00","18.7","ND","ND","ND","ND","ND","1","279.6","29.9","43.7","611.3","0"],
    [29181,"2013-09-03T16:00:00","14.1","ND","ND","ND","ND","ND","3.1","262.7","30.3","42.5","549.2","0"],
    [29182,"2013-09-03T17:00:00","9.6","ND","ND","ND","ND","ND","3.3","271.7","29.6","44.5","291.4","0"],
    [29183,"2013-09-03T18:00:00","15","ND","ND","ND","ND","ND","3.3","278.4","28","47.7","69.1","0"],
    [29184,"2013-09-03T19:00:00","26.1","ND","ND","ND","ND","ND","0.8","253.6","27.1","50.2","0","0"],
    [29185,"2013-09-03T20:00:00","15.1","ND","ND","ND","ND","ND","0.5","99.9","26.6","53","0","0"],
    [29186,"2013-09-03T21:00:00","32.9","ND","ND","ND","ND","ND","0.8","91.6","26.2","54.9","0","0"],
    [29187,"2013-09-03T22:00:00","24.5","ND","ND","ND","ND","ND","1","110.3","25.5","59.4","0","0"],
    [29188,"2013-09-03T23:00:00","34.7","ND","ND","ND","ND","ND","0.8","135.3","24.4","65.1","0","0"],
    [29189,"2013-09-04T00:00:00","32.4","ND","ND","ND","ND","ND","0.9","30.4","23.5","69.4","0","0"],
    [29190,"2013-09-04T01:00:00","33.1","ND","ND","ND","ND","ND","0.3","262.5","23.2","70.2","0","0"],
    [29191,"2013-09-04T02:00:00","37.9","ND","ND","ND","ND","ND","0.7","20.1","22.6","70.7","0","0"],
    [29192,"2013-09-04T03:00:00","36.1","ND","ND","ND","ND","ND","0.4","0.8","21.7","73.4","0","0"],
    [29193,"2013-09-04T04:00:00","34.6","ND","ND","ND","ND","ND","0.1","304.1","21.6","73.6","0","0"],
    [29194,"2013-09-04T05:00:00","27","ND","ND","ND","ND","ND","0.2","202.9","21.7","73.1","0","0"],
    [29195,"2013-09-04T06:00:00","37","ND","ND","ND","ND","ND","0.3","51","21.5","70.9","0","0"],
    [29196,"2013-09-04T07:00:00","37.8","ND","ND","ND","ND","ND","0.2","201.6","21.9","71.7","53.5","0"],
    [29197,"2013-09-04T08:00:00","42.9","ND","ND","ND","ND","ND","0.7","99.7","23.6","66.4","249","0"],
    [29198,"2013-09-04T09:00:00","42.9","ND","ND","ND","ND","ND","0.9","131","25","62.4","405.2","0"],
    [29199,"2013-09-04T10:00:00","ND","ND","ND","ND","ND","ND","0.9","166.3","26.4","57","573.2","0"],
    [29200,"2013-09-04T11:00:00","ND","ND","ND","ND","ND","ND","1.6","117.1","27.7","52","766.2","0"],
    [29201,"2013-09-04T12:00:00","ND","ND","ND","ND","ND","ND","1.9","134.5","29.1","48.5","788.2","0"],
    [29202,"2013-09-04T13:00:00","ND","ND","ND","ND","ND","ND","1.4","128.2","30.2","46.4","751.5","0"],
    [29203,"2013-09-04T14:00:00","ND","ND","ND","ND","ND","ND","0.6","124.2","30.6","44.9","443.4","0"],
    [29204,"2013-09-04T15:00:00","ND","ND","ND","ND","ND","ND","4.7","282","29","47.1","212.6","0"],
    [29205,"2013-09-04T16:00:00","ND","ND","ND","ND","ND","ND","4.2","281.1","29.5","44.6","416.5","0"],
    [29206,"2013-09-04T17:00:00","ND","ND","ND","ND","ND","ND","3","277.2","29.4","44.3","155.4","0"],
    [29207,"2013-09-04T18:00:00","ND","ND","ND","ND","ND","ND","1.8","248.9","28.6","47.4","16.4","0"],
    [29208,"2013-09-04T19:00:00","ND","ND","ND","ND","ND","ND","1.4","304.9","23.6","74.8","0","22.1"],
    [29209,"2013-09-04T20:00:00","ND","ND","ND","ND","ND","ND","0.3","141.2","22.9","82","0","0"],
    [29210,"2013-09-04T21:00:00","ND","ND","ND","ND","ND","ND","0.4","205","22.9","84.2","0","0"],
    [29211,"2013-09-04T22:00:00","ND","ND","ND","ND","ND","ND","0.8","215.5","22.6","85","0","0"],
    [29212,"2013-09-04T23:00:00","ND","ND","ND","ND","ND","ND","0.9","181","23.3","76.4","0","0"],
    [29213,"2013-09-05T00:00:00","ND","ND","ND","ND","ND","ND","0.6","118.5","22.8","78.8","0","0"],
    [29214,"2013-09-05T01:00:00","ND","ND","ND","ND","ND","ND","0.6","17.2","22.1","82.5","0","0"],
    [29215,"2013-09-05T02:00:00","ND","ND","ND","ND","ND","ND","0.2","324.3","21.7","84","0","0"],
    [29216,"2013-09-05T03:00:00","ND","ND","ND","ND","ND","ND","0.2","282.9","21.7","84.3","0","0.25"],
    [29217,"2013-09-05T04:00:00","ND","ND","ND","ND","ND","ND","0","70.2","21.5","86.4","0","0"],
    [29218,"2013-09-05T05:00:00","ND","ND","ND","ND","ND","ND","0.1","302.3","21","87.7","0","0"],
    [29219,"2013-09-05T06:00:00","ND","ND","ND","ND","ND","ND","0.5","41.5","20.6","88.4","0","0"],
    [29220,"2013-09-05T07:00:00","ND","ND","ND","ND","ND","ND","0.3","121.8","21.1","86.3","40.3","0"],
    [29221,"2013-09-05T08:00:00","ND","ND","ND","ND","ND","ND","1","33.8","22.7","80.7","220.1","0"],
    [29222,"2013-09-05T09:00:00","ND","ND","ND","ND","ND","ND","1.1","27.2","23.9","76.2","409.5","0"],
    [29223,"2013-09-05T10:00:00","ND","ND","ND","ND","ND","ND","0.6","122","25.7","66","593.7","0"],
    [29224,"2013-09-05T11:00:00","ND","ND","ND","ND","ND","ND","1.3","98.2","27.4","57.3","776.9","0"],
    [29225,"2013-09-05T12:00:00","ND","ND","ND","ND","ND","ND","1","73.2","28.7","51.5","637.5","0"],
    [29226,"2013-09-05T13:00:00","ND","ND","ND","ND","ND","ND","1.6","93.3","29.8","48","792","0"],
    [29227,"2013-09-05T14:00:00","ND","ND","ND","ND","ND","ND","1.8","100.9","31.2","43.3","859.2","0"],
    [29228,"2013-09-05T15:00:00","ND","ND","ND","ND","ND","ND","1.2","97.1","32.3","39.2","527.7","0"],
    [29229,"2013-09-05T16:00:00","ND","ND","ND","ND","ND","ND","0.8","311.7","32.1","40.5","354.9","0"],
    [29230,"2013-09-05T17:00:00","ND","ND","ND","ND","ND","ND","3.1","269.8","30.8","45.2","341.7","0"],
    [29231,"2013-09-05T18:00:00","ND","ND","ND","ND","ND","ND","3","268.5","29.5","47.6","78.3","0"],
    [29232,"2013-09-05T19:00:00","ND","ND","ND","ND","ND","ND","0.9","249.7","28.5","50.4","0","0"],
    [29233,"2013-09-05T20:00:00","ND","ND","ND","ND","ND","ND","0.8","276.4","27.6","54.1","0","0"],
    [29234,"2013-09-05T21:00:00","ND","ND","ND","ND","ND","ND","1.6","162.2","27","56.4","0","0"],
    [29235,"2013-09-05T22:00:00","ND","ND","ND","ND","ND","ND","3","168.3","26","60.8","0","0"],
    [29236,"2013-09-05T23:00:00","ND","ND","ND","ND","ND","ND","1.5","139","24.7","65.2","0","0"],
    [29237,"2013-09-06T00:00:00","ND","ND","ND","ND","ND","ND","0.4","25.3","23.9","69","0","0"],
    [29238,"2013-09-06T01:00:00","ND","ND","ND","ND","ND","ND","1.5","159.3","23.5","73.6","0","0"],
    [29239,"2013-09-06T02:00:00","ND","ND","ND","ND","ND","ND","1.6","162.2","22.6","78.5","0","0"],
    [29240,"2013-09-06T03:00:00","ND","ND","ND","ND","ND","ND","0.3","316.2","22.5","78.9","0","0"],
    [29241,"2013-09-06T04:00:00","ND","ND","ND","ND","ND","ND","0.9","1.2","21.9","85","0","0.25"],
    [29242,"2013-09-06T05:00:00","ND","ND","ND","ND","ND","ND","0.5","55.2","21.2","92","0","0.51"],
    [29243,"2013-09-06T06:00:00","ND","ND","ND","ND","ND","ND","0.4","170.4","21.2","92.6","0","0.25"],
    [29244,"2013-09-06T07:00:00","ND","ND","ND","ND","ND","ND","0.6","229.5","21.6","91.4","20.7","0"],
    [29245,"2013-09-06T08:00:00","ND","ND","ND","ND","ND","ND","1.2","109.4","22.4","86.5","51.8","0"],
    [29246,"2013-09-06T09:00:00","ND","ND","ND","ND","ND","ND","1.5","122.2","22.7","83.7","194.8","0"],
    [29247,"2013-09-06T10:00:00","ND","ND","ND","ND","ND","ND","0.6","95.4","24","76.2","345","0"],
    [29248,"2013-09-06T11:00:00","ND","ND","ND","ND","ND","ND","0.3","12.7","24.7","71.7","286.8","0"],
    [29249,"2013-09-06T12:00:00","ND","ND","ND","ND","ND","ND","0.4","46.6","ND","23.6","241.4","0"],
    [29250,"2013-09-06T13:00:00","ND","ND","ND","ND","ND","ND","ND","ND","ND","ND","ND","ND"],
    [29251,"2013-09-06T14:00:00","ND","ND","ND","ND","ND","ND","1.3","83.1","28","53.7","473.5","0"],
    [29252,"2013-09-06T15:00:00","ND","ND","ND","ND","ND","ND","1.3","98.2","28.3","52.3","368.2","0"],
    [29253,"2013-09-06T16:00:00","ND","ND","ND","ND","ND","ND","1.3","98.2","28.3","52.3","368.2","0"],
    [29254,"2013-09-06T17:00:00","ND","ND","ND","ND","ND","ND","1.3","98.2","28.3","52.3","368.2","0"],
    [29255,"2013-09-06T18:00:00","ND","ND","ND","ND","ND","ND","1.3","98.2","28.3","52.3","368.2","0"],
    [29256,"2013-09-06T19:00:00","ND","ND","ND","ND","ND","ND","1.3","98.2","28.3","52.3","368.2","0"],
    [29257,"2013-09-06T20:00:00","ND","ND","ND","ND","ND","ND","1.3","98.2","28.3","52.3","368.2","0"],
    [29258,"2013-09-06T21:00:00","ND","ND","ND","ND","ND","ND","1.3","98.2","28.3","52.3","368.2","0"],
    [29259,"2013-09-06T22:00:00","ND","ND","ND","ND","ND","ND","1.3","98.2","28.3","52.3","368.2","0"],
    [29260,"2013-09-06T23:00:00","ND","ND","ND","ND","ND","ND","1.3","98.2","28.3","52.3","368.2","0"],
    [29261,"2013-09-07T00:00:00","ND","ND","ND","ND","ND","ND","1.3","98.2","28.3","52.3","368.2","0"],
    [29262,"2013-09-07T01:00:00","ND","ND","ND","ND","ND","ND","1.3","98.2","28.3","52.3","368.2","0"],
    [29263,"2013-09-07T02:00:00","ND","ND","ND","ND","ND","ND","1.3","98.2","28.3","52.3","368.2","0"],
    [29264,"2013-09-07T03:00:00","ND","ND","ND","ND","ND","ND","1.3","98.2","28.3","52.3","368.2","0"],
    [29265,"2013-09-07T04:00:00","ND","ND","ND","ND","ND","ND","1.3","98.2","28.3","52.3","368.2","0"],
    [29266,"2013-09-07T05:00:00","ND","ND","ND","ND","ND","ND","1.3","98.2","28.3","52.3","368.2","0"],
    [29267,"2013-09-07T06:00:00","ND","ND","ND","ND","ND","ND","1.3","98.2","28.3","52.3","368.2","0"],
    [29268,"2013-09-07T07:00:00","ND","ND","ND","ND","ND","ND","1.3","98.2","28.3","52.3","368.2","0"],
    [29269,"2013-09-07T08:00:00","ND","ND","ND","ND","ND","ND","1.3","98.2","28.3","52.3","368.2","0"],
    [29270,"2013-09-07T09:00:00","ND","ND","ND","ND","ND","ND","1.3","98.2","28.3","52.3","368.2","0"],
    [29271,"2013-09-07T10:00:00","ND","ND","ND","ND","ND","ND","1.3","98.2","28.3","52.3","368.2","0"],
    [29272,"2013-09-07T11:00:00","ND","ND","ND","ND","ND","ND","1.3","98.2","28.3","52.3","368.2","0"],
    [29273,"2013-09-07T12:00:00","ND","ND","ND","ND","ND","ND","1.4","98.9","28.8","50.7","564.4","0"],
    [29274,"2013-09-07T13:00:00","ND","ND","ND","ND","ND","ND","ND","ND","ND","ND","ND","ND"],
    [29275,"2013-09-07T14:00:00","ND","ND","ND","ND","ND","ND","0.9","52.1","31.6","40.9","842.1","0"],
    [29276,"2013-09-07T15:00:00","ND","ND","ND","ND","ND","ND","1.3","40.3","31.5","42.3","442.4","0"],
    [29277,"2013-09-07T16:00:00","ND","ND","ND","ND","ND","ND","1.9","292.3","31.1","45.2","372.1","0"],
    [29278,"2013-09-07T17:00:00","ND","ND","ND","ND","ND","ND","3.7","262.9","30","47.9","311.3","0"],
    [29279,"2013-09-07T18:00:00","ND","ND","ND","ND","ND","ND","2.5","261.2","29.1","49.1","48.4","0"],
    [29280,"2013-09-07T19:00:00","ND","ND","ND","ND","ND","ND","0.4","229.6","28.2","51.2","0","0"],
    [29281,"2013-09-07T20:00:00","ND","ND","ND","ND","ND","ND","0.2","79","27.7","52.1","0","0"],
    [29282,"2013-09-07T21:00:00","ND","ND","ND","ND","ND","ND","0.2","10.6","27.5","51.8","0","0"],
    [29283,"2013-09-07T22:00:00","ND","ND","ND","ND","ND","ND","1.2","92.4","26.4","58.4","0","0"],
    [29284,"2013-09-07T23:00:00","ND","ND","ND","ND","ND","ND","0.1","26.2","25.2","63.5","0","0"],
    [29285,"2013-09-08T00:00:00","ND","ND","ND","ND","ND","ND","0.4","97.8","24.4","67.8","0","0"],
    [29286,"2013-09-08T01:00:00","ND","ND","ND","ND","ND","ND","0.3","44.1","24.1","69.6","0","0"],
    [29287,"2013-09-08T02:00:00","ND","ND","ND","ND","ND","ND","0.5","80.5","23.5","73.9","0","0"],
    [29288,"2013-09-08T03:00:00","ND","ND","ND","ND","ND","ND","0.2","323.3","22.9","76","0","0"],
    [29289,"2013-09-08T04:00:00","ND","ND","ND","ND","ND","ND","0.3","193.3","23","75.8","0","0"],
    [29290,"2013-09-08T05:00:00","ND","ND","ND","ND","ND","ND","0.7","339.9","22.9","76.8","0","0"],
    [29291,"2013-09-08T06:00:00","ND","ND","ND","ND","ND","ND","0.4","28.5","22.2","82.7","0","0"],
    [29292,"2013-09-08T07:00:00","ND","ND","ND","ND","ND","ND","0.1","342.2","22.5","82.7","11.3","0"],
    [29293,"2013-09-08T08:00:00","ND","ND","ND","ND","ND","ND","0.4","54","23","78.9","56.4","0"],
    [29294,"2013-09-08T09:00:00","ND","ND","ND","ND","ND","ND","0.3","297.3","24","74.5","243.7","0"],
    [29295,"2013-09-08T10:00:00","ND","ND","ND","ND","ND","ND","0.8","38.8","26.1","65.3","531.8","0"],
    [29296,"2013-09-08T11:00:00","ND","ND","ND","ND","ND","ND","1.1","64.4","27.1","59.7","684.6","0"],
    [29297,"2013-09-08T12:00:00","ND","ND","ND","ND","ND","ND","1.2","92.7","28.9","51.2","680.1","0"],
    [29298,"2013-09-08T13:00:00","ND","ND","ND","ND","ND","ND","1.2","21.2","29.2","51.2","603","0"],
    [29299,"2013-09-08T14:00:00","ND","ND","ND","ND","ND","ND","1.5","29.7","30.2","49.3","713.2","0"],
    [29300,"2013-09-08T15:00:00","ND","ND","ND","ND","ND","ND","2.2","32.8","30.3","48.9","461.9","0"],
    [29301,"2013-09-08T16:00:00","ND","ND","ND","ND","ND","ND","1.7","271.4","30.2","47.7","469.7","0"],
    [29302,"2013-09-08T17:00:00","ND","ND","ND","ND","ND","ND","4","265.5","29.5","48.6","276","0"],
    [29303,"2013-09-08T18:00:00","ND","ND","ND","ND","ND","ND","2.2","260.3","28.5","49.4","51.2","0"],
    [29304,"2013-09-08T19:00:00","ND","ND","ND","ND","ND","ND","0.5","73.8","27.7","52","0","0"],
    [29305,"2013-09-08T20:00:00","ND","ND","ND","ND","ND","ND","0.8","87.5","27.7","53.2","0","0"],
    [29306,"2013-09-08T21:00:00","ND","ND","ND","ND","ND","ND","2.1","200.6","26.4","59","0","0"],
    [29307,"2013-09-08T22:00:00","ND","ND","ND","ND","ND","ND","1.3","76","25.9","60.4","0","0"],
    [29308,"2013-09-08T23:00:00","ND","ND","ND","ND","ND","ND","1.2","90.2","25","65","0","0"],
    [29309,"2013-09-09T00:00:00","ND","ND","ND","ND","ND","ND","0.6","154","23.9","69.3","0","0"],
    [29310,"2013-09-09T01:00:00","ND","ND","ND","ND","ND","ND","0.4","188.1","23.6","70.9","0","0"],
    [29311,"2013-09-09T02:00:00","ND","ND","ND","ND","ND","ND","0.3","303.6","23.7","71.2","0","0"],
    [29312,"2013-09-09T03:00:00","ND","ND","ND","ND","ND","ND","1.2","37.2","22.6","78.9","0","0"],
    [29313,"2013-09-09T04:00:00","ND","ND","ND","ND","ND","ND","1.5","56.1","22.3","81.5","0","0"],
    [29314,"2013-09-09T05:00:00","ND","ND","ND","ND","ND","ND","1.5","56.1","22.3","81.5","0","0"],
    [29315,"2013-09-09T06:00:00","ND","ND","ND","ND","ND","ND","1.5","56.1","22.3","81.5","0","0"],
    [29316,"2013-09-09T07:00:00","ND","ND","ND","ND","ND","ND","1.5","56.1","22.3","81.5","0","0"],
    [29317,"2013-09-09T08:00:00","ND","ND","ND","ND","ND","ND","1.5","56.1","22.3","81.5","0","0"],
    [29318,"2013-09-09T09:00:00","ND","ND","ND","ND","ND","ND","ND","ND","ND","ND","ND","ND"],
    [29319,"2013-09-09T10:00:00","ND","ND","ND","ND","ND","ND","ND","ND","ND","ND","ND","ND"],
    [29320,"2013-09-09T11:00:00","ND","ND","ND","ND","ND","ND","1","85","27.4","59.6","590.5","0"],
    [29321,"2013-09-09T12:00:00","ND","ND","ND","ND","ND","ND","1.1","97.4","27.8","57.9","344.3","0"],
    [29322,"2013-09-09T13:00:00","ND","ND","ND","ND","ND","ND","0.7","100.7","29","53.3","589.7","0"],
    [29323,"2013-09-09T14:00:00","ND","ND","ND","ND","ND","ND","0.5","115.5","29.8","51.1","494.3","0"],
    [29324,"2013-09-09T15:00:00","ND","ND","ND","ND","ND","ND","0.3","248.4","30","48.8","227.3","0"],
    [29325,"2013-09-09T16:00:00","ND","ND","ND","ND","ND","ND","3.7","264.1","28.1","52.1","99.7","0"],
    [29326,"2013-09-09T17:00:00","ND","ND","ND","ND","ND","ND","3.1","262.8","28.2","50.2","121.1","0"],
    [29327,"2013-09-09T18:00:00","ND","ND","ND","ND","ND","ND","3.4","274.3","27.5","52.5","29.4","0"],
    [29328,"2013-09-09T19:00:00","ND","ND","ND","ND","ND","ND","4.8","279.3","24.3","67.9","0","14.73"],
    [29329,"2013-09-09T20:00:00","ND","ND","ND","ND","ND","ND","0.7","299.9","22.6","79.9","0","3.56"],
    [29330,"2013-09-09T21:00:00","ND","ND","ND","ND","ND","ND","1.6","228.3","21.2","92.3","0","12.95"],
    [29331,"2013-09-09T22:00:00","ND","ND","ND","ND","ND","ND","1","304.7","20.4","94.8","0","57.66"],
    [29332,"2013-09-09T23:00:00","ND","ND","ND","ND","ND","ND","0.4","77.4","20","99.1","0","5.84"],
    [29333,"2013-09-10T00:00:00","ND","ND","ND","ND","ND","ND","0.4","258.5","20.6","96.6","0","3.3"],
    [29334,"2013-09-10T01:00:00","ND","ND","ND","ND","ND","ND","0.5","304.1","20.2","95.9","0","10.16"],
    [29335,"2013-09-10T02:00:00","ND","ND","ND","ND","ND","ND","0.4","190.3","19.9","97.5","0","17.27"],
    [29336,"2013-09-10T03:00:00","ND","ND","ND","ND","ND","ND","0.4","304.8","19.7","97.7","0","2.03"],
    [29337,"2013-09-10T04:00:00","ND","ND","ND","ND","ND","ND","0.1","196.5","19.9","95.2","0","0"],
    [29338,"2013-09-10T05:00:00","ND","ND","ND","ND","ND","ND","0.2","198.1","20","95.1","0","0"],
    [29339,"2013-09-10T06:00:00","ND","ND","ND","ND","ND","ND","0.5","260.8","19.9","94.3","0","0"],
    [29340,"2013-09-10T07:00:00","ND","ND","ND","ND","ND","ND","0.7","260.1","19.9","92.7","22.4","0"],
    [29341,"2013-09-10T08:00:00","ND","ND","ND","ND","ND","ND","0.2","49.1","20.8","90.5","69.5","0"],
    [29342,"2013-09-10T09:00:00","ND","ND","ND","ND","ND","ND","0.5","141.9","21.9","85.2","242.6","0"],
    [29343,"2013-09-10T10:00:00","ND","ND","ND","ND","ND","ND","1","136","23.7","74.6","545.2","0.25"],
    [29344,"2013-09-10T11:00:00","ND","ND","ND","ND","ND","ND","0.9","136.7","25.8","65.1","854.4","0"],
    [29345,"2013-09-10T12:00:00","ND","ND","ND","ND","ND","ND","1","97.6","27","60.4","937.6","0"],
    [29346,"2013-09-10T13:00:00","ND","ND","ND","ND","ND","ND","1.8","110.2","27.8","56.9","732.2","0"],
    [29347,"2013-09-10T14:00:00","ND","ND","ND","ND","ND","ND","1.3","50.7","28.6","52.8","633","0"],
    [29348,"2013-09-10T15:00:00","ND","ND","ND","ND","ND","ND","0.9","205.5","29.4","51","479.7","0"],
    [29349,"2013-09-10T16:00:00","ND","ND","ND","ND","ND","ND","2","245.9","28.2","54.6","131.6","0"],
    [29350,"2013-09-10T17:00:00","ND","ND","ND","ND","ND","ND","1.8","253.9","28.3","52.9","196.8","0"],
    [29351,"2013-09-10T18:00:00","ND","ND","ND","ND","ND","ND","2.1","253.7","27.5","54.6","38.4","0"],
    [29352,"2013-09-10T19:00:00","ND","ND","ND","ND","ND","ND","1.4","233.5","26.7","57.1","0","0"],
    [29353,"2013-09-10T20:00:00","ND","ND","ND","ND","ND","ND","0.7","82.9","26.3","60","0","0"],
    [29354,"2013-09-10T21:00:00","ND","ND","ND","ND","ND","ND","0.9","98.7","25.1","61.5","0","0"],
    [29355,"2013-09-10T22:00:00","ND","ND","ND","ND","ND","ND","1.3","194.2","24.2","64.9","0","0"],
    [29356,"2013-09-10T23:00:00","ND","ND","ND","ND","ND","ND","0.5","187","23.7","68.7","0","0"],
    [29357,"2013-09-11T00:00:00","ND","ND","ND","ND","ND","ND","0.7","16.9","23.4","70.5","0","0"],
    [29358,"2013-09-11T01:00:00","ND","ND","ND","ND","ND","ND","0.6","123.3","22.7","74.8","0","0"],
    [29359,"2013-09-11T02:00:00","ND","ND","ND","ND","ND","ND","0.6","130.9","22.2","78.3","0","0"],
    [29360,"2013-09-11T03:00:00","ND","ND","ND","ND","ND","ND","0.5","9.9","21.6","83.1","0","0"],
    [29361,"2013-09-11T04:00:00","ND","ND","ND","ND","ND","ND","0.6","4.9","21.4","84.3","0","0"],
    [29362,"2013-09-11T05:00:00","ND","ND","ND","ND","ND","ND","0.4","348.7","21.2","86.5","0","0"],
    [29363,"2013-09-11T06:00:00","ND","ND","ND","ND","ND","ND","0.2","312.2","21.3","85.9","0","0"],
    [29364,"2013-09-11T07:00:00","ND","ND","ND","ND","ND","ND","0.3","250","21.4","83.8","18.5","0"],
    [29365,"2013-09-11T08:00:00","ND","ND","ND","ND","ND","ND","0.6","65.6","21.8","83","97.8","0"],
    [29366,"2013-09-11T09:00:00","ND","ND","ND","ND","ND","ND","1.1","148.6","23.6","75","310.4","0"],
    [29367,"2013-09-11T10:00:00","ND","ND","ND","ND","ND","ND","0.9","127.3","24.7","70","447.4","0"],
    [29368,"2013-09-11T11:00:00","ND","ND","ND","ND","ND","ND","1.5","75.4","25.6","66.8","472.1","0"],
    [29369,"2013-09-11T12:00:00","ND","ND","ND","ND","ND","ND","0.8","89.3","26.2","64.6","393.2","0"],
    [29370,"2013-09-11T13:00:00","ND","ND","ND","ND","ND","ND","0.4","113.2","27.1","60","497.3","0"],
    [29371,"2013-09-11T14:00:00","ND","ND","ND","ND","ND","ND","1","45.1","28.1","56.7","579.3","0"],
    [29372,"2013-09-11T15:00:00","ND","ND","ND","ND","ND","ND","1.6","50.2","28.7","54.7","546","0"],
    [29373,"2013-09-11T16:00:00","ND","ND","ND","ND","ND","ND","1.3","67.3","28.8","54.5","308.3","0"],
    [29374,"2013-09-11T17:00:00","ND","ND","ND","ND","ND","ND","0.9","258.1","28.5","52.9","93.8","0"],
    [29375,"2013-09-11T18:00:00","ND","ND","ND","ND","ND","ND","1.6","269.1","27.7","53.5","48.9","0"],
    [29376,"2013-09-11T19:00:00","ND","ND","ND","ND","ND","ND","0.3","82.7","26.7","55.2","0","0"],
    [29377,"2013-09-11T20:00:00","ND","ND","ND","ND","ND","ND","0.4","89.2","26.2","57.2","0","0"],
    [29378,"2013-09-11T21:00:00","ND","ND","ND","ND","ND","ND","1.1","148.1","25.7","59.8","0","0"],
    [29379,"2013-09-11T22:00:00","ND","ND","ND","ND","ND","ND","0.6","145.6","24.8","64.3","0","0"],
    [29380,"2013-09-11T23:00:00","ND","ND","ND","ND","ND","ND","0.6","154.5","24.1","68.9","0","0"],
    [29381,"2013-09-12T00:00:00","ND","ND","ND","ND","ND","ND","0.8","167.6","23.5","71.7","0","0"],
    [29382,"2013-09-12T01:00:00","ND","ND","ND","ND","ND","ND","0.7","157.6","23","73.9","0","0"],
    [29383,"2013-09-12T02:00:00","ND","ND","ND","ND","ND","ND","1.1","169.1","22.7","75.1","0","0"],
    [29384,"2013-09-12T03:00:00","ND","ND","ND","ND","ND","ND","0.6","137.5","22.4","76.9","0","0"],
    [29385,"2013-09-12T04:00:00","ND","ND","ND","ND","ND","ND","0.2","141.7","22","78.9","0","0"],
    [29386,"2013-09-12T05:00:00","ND","ND","ND","ND","ND","ND","0.4","223.7","21.9","80.3","0","0"],
    [29387,"2013-09-12T06:00:00","ND","ND","ND","ND","ND","ND","0.2","56.9","21.6","81.8","0","0"],
    [29388,"2013-09-12T07:00:00","ND","ND","ND","ND","ND","ND","0.3","39.1","21.7","82.3","35","0"],
    [29389,"2013-09-12T08:00:00","ND","ND","ND","ND","ND","ND","1","73","23.4","75.4","232.7","0"],
    [29390,"2013-09-12T09:00:00","ND","ND","ND","ND","ND","ND","0.6","77.9","24.7","69.4","477.5","0"],
    [29391,"2013-09-12T10:00:00","ND","ND","ND","ND","ND","ND","1","127.8","26.7","60.5","645.4","0"],
    [29392,"2013-09-12T11:00:00","ND","ND","ND","ND","ND","ND","1","137.3","26.8","58.7","324.1","0"],
    [29393,"2013-09-12T12:00:00","ND","ND","ND","ND","ND","ND","0.9","84","28.1","54.5","701.8","0"],
    [29394,"2013-09-12T13:00:00","ND","ND","ND","ND","ND","ND","0.5","327","28.8","52.1","619.1","0"],
    [29395,"2013-09-12T14:00:00","ND","ND","ND","ND","ND","ND","1.8","262.1","29.4","46.4","416.3","0"],
    [29396,"2013-09-12T15:00:00","ND","ND","ND","ND","ND","ND","2.3","267","30.6","43.4","625","0"],
    [29397,"2013-09-12T16:00:00","ND","ND","ND","ND","ND","ND","3.3","285.5","29.5","46.9","362.6","0"],
    [29398,"2013-09-12T17:00:00","ND","ND","ND","ND","ND","ND","1.5","268.9","28.1","49.6","42.1","0"],
    [29399,"2013-09-12T18:00:00","ND","ND","ND","ND","ND","ND","0.8","227.6","27.7","50.4","18.5","0"],
    [29400,"2013-09-12T19:00:00","ND","ND","ND","ND","ND","ND","1.8","130.2","26.8","55.9","0","0"],
    [29401,"2013-09-12T20:00:00","ND","ND","ND","ND","ND","ND","1.4","98.8","25.8","62.6","0","0"],
    [29402,"2013-09-12T21:00:00","ND","ND","ND","ND","ND","ND","1.4","95.8","24.9","67.5","0","0"],
    [29403,"2013-09-12T22:00:00","ND","ND","ND","ND","ND","ND","0.7","274.8","23.8","74.9","0","0"],
    [29404,"2013-09-12T23:00:00","ND","ND","ND","ND","ND","ND","0.6","259.7","23.9","73.5","0","0"],
    [29405,"2013-09-13T00:00:00","ND","ND","ND","ND","ND","ND","1.3","349.6","22.7","80.8","0","0"],
    [29406,"2013-09-13T01:00:00","ND","ND","ND","ND","ND","ND","0.6","9.3","22.3","83.5","0","0"],
    [29407,"2013-09-13T02:00:00","ND","ND","ND","ND","ND","ND","0.4","303.4","22.5","82.4","0","0"],
    [29408,"2013-09-13T03:00:00","ND","ND","ND","ND","ND","ND","0.9","41.6","22.3","84.6","0","0"],
    [29409,"2013-09-13T04:00:00","ND","ND","ND","ND","ND","ND","1","354.4","21.8","87.9","0","0"],
    [29410,"2013-09-13T05:00:00","ND","ND","ND","ND","ND","ND","0.4","86","22.1","84.5","0","0"],
    [29411,"2013-09-13T06:00:00","ND","ND","ND","ND","ND","ND","0.9","144.5","22.3","83","0","0"],
    [29412,"2013-09-13T07:00:00","ND","ND","ND","ND","ND","ND","0.8","118.7","22.3","84.3","26.5","0"],
    [29413,"2013-09-13T08:00:00","ND","ND","ND","ND","ND","ND","0.2","354.3","22.6","82.4","68.5","0"],
    [29414,"2013-09-13T09:00:00","ND","ND","ND","ND","ND","ND","0.8","299.7","23.1","78.7","73","0"],
    [29415,"2013-09-13T10:00:00","ND","ND","ND","ND","ND","ND","0.3","255.4","24.3","71.4","188.9","0"],
    [29416,"2013-09-13T11:00:00","ND","ND","ND","ND","ND","ND","0.4","38.7","25.9","64.8","414.5","0"],
    [29417,"2013-09-13T12:00:00","ND","ND","ND","ND","ND","ND","1.4","28.4","27.7","55.2","805.5","0"],
    [29418,"2013-09-13T13:00:00","ND","ND","ND","ND","ND","ND","1.4","37.2","29","51.7","641.4","0"],
    [29419,"2013-09-13T14:00:00","ND","ND","ND","ND","ND","ND","0.9","341.1","30","48.2","563.6","0"],
    [29420,"2013-09-13T15:00:00","ND","ND","ND","ND","ND","ND","0.7","40.7","30.9","45","503","0"],
    [29421,"2013-09-13T16:00:00","ND","ND","ND","ND","ND","ND","2.1","345.5","31.1","44.8","539.1","0"],
    [29422,"2013-09-13T17:00:00","ND","ND","ND","ND","ND","ND","1.8","288.3","30.8","45.3","318.7","0"],
    [29423,"2013-09-13T18:00:00","ND","ND","ND","ND","ND","ND","0.8","307","29","50.3","41.8","0"],
    [29424,"2013-09-13T19:00:00","ND","ND","ND","ND","ND","ND","1.8","245","27.6","52.6","0","0"],
    [29425,"2013-09-13T20:00:00","ND","ND","ND","ND","ND","ND","0.3","70.9","27.2","54.1","0","0"],
    [29426,"2013-09-13T21:00:00","ND","ND","ND","ND","ND","ND","0.5","100.3","26.5","57.8","0","0"],
    [29427,"2013-09-13T22:00:00","ND","ND","ND","ND","ND","ND","0.9","153.4","25.2","64.4","0","0"],
    [29428,"2013-09-13T23:00:00","ND","ND","ND","ND","ND","ND","0.4","57","24.7","67.3","0","0"],
    [29429,"2013-09-14T00:00:00","ND","ND","ND","ND","ND","ND","0.2","249.9","24","70.5","0","0"],
    [29430,"2013-09-14T01:00:00","ND","ND","ND","ND","ND","ND","0.3","62.4","23.6","72.8","0","0"],
    [29431,"2013-09-14T02:00:00","ND","ND","ND","ND","ND","ND","0.6","142.4","23.1","76","0","0"],
    [29432,"2013-09-14T03:00:00","ND","ND","ND","ND","ND","ND","0.4","186","22.7","78.3","0","0"],
    [29433,"2013-09-14T04:00:00","ND","ND","ND","ND","ND","ND","0.2","315.1","22.2","80.2","0","0"],
    [29434,"2013-09-14T05:00:00","ND","ND","ND","ND","ND","ND","0.1","276.2","22.1","80.6","0","0"],
    [29435,"2013-09-14T06:00:00","ND","ND","ND","ND","ND","ND","0.4","265.1","22.4","79.9","0","0"],
    [29436,"2013-09-14T07:00:00","ND","ND","ND","ND","ND","ND","0.2","320.6","22.4","79.6","31.5","0"],
    [29437,"2013-09-14T08:00:00","ND","ND","ND","ND","ND","ND","0.6","130.1","23.8","73.7","117.5","0"],
    [29438,"2013-09-14T09:00:00","ND","ND","ND","ND","ND","ND","0.4","72.2","25.1","69.2","348","0"],
    [29439,"2013-09-14T10:00:00","ND","ND","ND","ND","ND","ND","1","58.6","26.6","63.5","547.2","0"],
    [29440,"2013-09-14T11:00:00","ND","ND","ND","ND","ND","ND","0.9","143","28.2","56.6","659.2","0"],
    [29441,"2013-09-14T12:00:00","ND","ND","ND","ND","ND","ND","0.7","275.1","29.2","53.8","541.6","0"],
    [29442,"2013-09-14T13:00:00","ND","ND","ND","ND","ND","ND","0.6","346.7","30.3","50.3","623.3","0"],
    [29443,"2013-09-14T14:00:00","ND","ND","ND","ND","ND","ND","1.8","264.5","31.4","45","667.4","0"],
    [29444,"2013-09-14T15:00:00","ND","ND","ND","ND","ND","ND","2.1","287.1","32","43.6","727.6","0"],
    [29445,"2013-09-14T16:00:00","ND","ND","ND","ND","ND","ND","3.9","274.5","31.2","45","517.3","0"],
    [29446,"2013-09-14T17:00:00","ND","ND","ND","ND","ND","ND","2.6","272.2","30.7","45.1","257.8","0"],
    [29447,"2013-09-14T18:00:00","ND","ND","ND","ND","ND","ND","1.4","215.4","29.8","47.5","43.3","0"],
    [29448,"2013-09-14T19:00:00","ND","ND","ND","ND","ND","ND","1.4","117.3","27","61.7","0","0.76"],
    [29449,"2013-09-14T20:00:00","ND","ND","ND","ND","ND","ND","0.4","130.2","25.3","67.8","0","0"],
    [29450,"2013-09-14T21:00:00","ND","ND","ND","ND","ND","ND","0.2","278.9","24.7","72.5","0","0"],
    [29451,"2013-09-14T22:00:00","ND","ND","ND","ND","ND","ND","0.6","286.8","23.9","76.3","0","0"],
    [29452,"2013-09-14T23:00:00","ND","ND","ND","ND","ND","ND","0.6","302.7","23.7","75.8","0","0"],
    [29453,"2013-09-15T00:00:00","ND","ND","ND","ND","ND","ND","0.4","187.8","23.7","74.9","0","0"],
    [29454,"2013-09-15T01:00:00","ND","ND","ND","ND","ND","ND","0.5","158.9","23","77.1","0","0"],
    [29455,"2013-09-15T02:00:00","ND","ND","ND","ND","ND","ND","0.8","356.8","22.1","81.5","0","0"],
    [29456,"2013-09-15T03:00:00","ND","ND","ND","ND","ND","ND","0.9","10.2","21.5","85.9","0","0"],
    [29457,"2013-09-15T04:00:00","ND","ND","ND","ND","ND","ND","0.2","45.6","21.8","84.3","0","0"],
    [29458,"2013-09-15T05:00:00","ND","ND","ND","ND","ND","ND","0.4","354.9","21.7","85.2","0","0"],
    [29459,"2013-09-15T06:00:00","ND","ND","ND","ND","ND","ND","0.5","330.8","21.5","85.7","0","0"],
    [29460,"2013-09-15T07:00:00","ND","ND","ND","ND","ND","ND","0.1","231.6","21.6","84.2","30.8","0"],
    [29461,"2013-09-15T08:00:00","ND","ND","ND","ND","ND","ND","1.3","156.3","22.6","80.3","104.8","0"],
    [29462,"2013-09-15T09:00:00","ND","ND","ND","ND","ND","ND","1","163","23.7","75.9","295.4","0"],
    [29463,"2013-09-15T10:00:00","ND","ND","ND","ND","ND","ND","1.3","127.3","26.4","63.2","684.7","0"],
    [29464,"2013-09-15T11:00:00","ND","ND","ND","ND","ND","ND","1.2","105.6","27.8","58.4","622.2","0"],
    [29465,"2013-09-15T12:00:00","ND","ND","ND","ND","ND","ND","1.3","136.4","28.7","55.4","539.4","0"],
    [29466,"2013-09-15T13:00:00","ND","ND","ND","ND","ND","ND","0.8","77.7","29.3","53.9","502.2","0"],
    [29467,"2013-09-15T14:00:00","ND","ND","ND","ND","ND","ND","1.3","283","29.8","52.2","556.4","0"],
    [29468,"2013-09-15T15:00:00","ND","ND","ND","ND","ND","ND","0.9","94.1","30.9","48.5","383.1","0"],
    [29469,"2013-09-15T16:00:00","ND","ND","ND","ND","ND","ND","2","261.8","30.2","49.8","315.3","0"],
    [29470,"2013-09-15T17:00:00","ND","ND","ND","ND","ND","ND","2.5","266.1","29.7","50.6","159.3","0"],
    [29471,"2013-09-15T18:00:00","ND","ND","ND","ND","ND","ND","2.5","227.5","28","56.9","40.7","0"],
    [29472,"2013-09-15T19:00:00","ND","ND","ND","ND","ND","ND","3.9","242.6","25.7","64.1","0","0"],
    [29473,"2013-09-15T20:00:00","ND","ND","ND","ND","ND","ND","0.4","206.2","26.1","62.7","0","0"],
    [29474,"2013-09-15T21:00:00","ND","ND","ND","ND","ND","ND","1.4","11.1","25","67.7","0","0"],
    [29475,"2013-09-15T22:00:00","ND","ND","ND","ND","ND","ND","0.4","20.4","24.2","70.8","0","0"],
    [29476,"2013-09-15T23:00:00","ND","ND","ND","ND","ND","ND","0.5","314.6","23.7","73.3","0","0"],
    [29477,"2013-09-16T00:00:00","ND","ND","ND","ND","ND","ND","0.5","250.1","23.4","74.6","0","0"],
    [29478,"2013-09-16T01:00:00","ND","ND","ND","ND","ND","ND","0.8","142.7","23.9","72.2","0","0"],
    [29479,"2013-09-16T02:00:00","ND","ND","ND","ND","ND","ND","0.5","35.9","22.9","77.9","0","0"],
    [29480,"2013-09-16T03:00:00","ND","ND","ND","ND","ND","ND","0.3","303.6","21.7","83.7","0","0"],
    [29481,"2013-09-16T04:00:00","ND","ND","ND","ND","ND","ND","0.4","266.1","21.5","84","0","0"],
    [29482,"2013-09-16T05:00:00","ND","ND","ND","ND","ND","ND","0.4","25.9","21","85.1","0","0"],
    [29483,"2013-09-16T06:00:00","ND","ND","ND","ND","ND","ND","0.5","232.6","21","85.8","0","0"],
    [29484,"2013-09-16T07:00:00","ND","ND","ND","ND","ND","ND","0.7","238.3","22","80.3","57.8","0"],
    [29485,"2013-09-16T08:00:00","ND","ND","ND","ND","ND","ND","0.5","49.8","23.3","76.7","129","0"],
    [29486,"2013-09-16T09:00:00","ND","ND","ND","ND","ND","ND","1.1","75.7","24.8","70.7","305.8","0"],
    [29487,"2013-09-16T10:00:00","ND","ND","ND","ND","ND","ND","1.1","93.1","26.2","64.7","656.2","0"],
    [29488,"2013-09-16T11:00:00","ND","ND","ND","ND","ND","ND","1.1","158.5","27.1","60.3","419.1","0"],
    [29489,"2013-09-16T12:00:00","ND","ND","ND","ND","ND","ND","0.8","148.6","28.7","55.2","928.5","0"],
    [29490,"2013-09-16T13:00:00","ND","ND","ND","ND","ND","ND","1.2","123.9","29.9","51.1","779.5","0"],
    [29491,"2013-09-16T14:00:00","ND","ND","ND","ND","ND","ND","0.5","180.7","31.8","45.9","773.2","0"],
    [29492,"2013-09-16T15:00:00","ND","ND","ND","ND","ND","ND","2.3","277.8","31.4","46.4","318.2","0"],
    [29493,"2013-09-16T16:00:00","ND","ND","ND","ND","ND","ND","2.6","267","30.8","46.2","173.4","0"],
    [29494,"2013-09-16T17:00:00","ND","ND","ND","ND","ND","ND","2.4","259","30.6","46.9","184.2","0"],
    [29495,"2013-09-16T18:00:00","ND","ND","ND","ND","ND","ND","1.9","266","29.4","49.1","33","0"],
    [29496,"2013-09-16T19:00:00","ND","ND","ND","ND","ND","ND","0.2","245.5","28.8","50.2","0","0"],
    [29497,"2013-09-16T20:00:00","ND","ND","ND","ND","ND","ND","0.6","116.3","27.9","53.1","0","0"],
    [29498,"2013-09-16T21:00:00","ND","ND","ND","ND","ND","ND","1","122.6","27.3","55.8","0","0"],
    [29499,"2013-09-16T22:00:00","ND","ND","ND","ND","ND","ND","1.1","95.8","26.1","62","0","0"],
    [29500,"2013-09-16T23:00:00","ND","ND","ND","ND","ND","ND","0.4","203.7","25.6","64.4","0","0"],
    [29501,"2013-09-17T00:00:00","ND","ND","ND","ND","ND","ND","0.1","263.7","25.3","66.3","0","0"],
    [29502,"2013-09-17T01:00:00","ND","ND","ND","ND","ND","ND","0.8","171.1","24.6","69.1","0","0"],
    [29503,"2013-09-17T02:00:00","ND","ND","ND","ND","ND","ND","0.3","108.9","24.4","70.7","0","0"],
    [29504,"2013-09-17T03:00:00","ND","ND","ND","ND","ND","ND","0.2","98.4","23.7","74.6","0","0"],
    [29505,"2013-09-17T04:00:00","ND","ND","ND","ND","ND","ND","0.5","143.7","23.4","78.1","0","0"],
    [29506,"2013-09-17T05:00:00","ND","ND","ND","ND","ND","ND","0.3","182.4","23.3","78.6","0","0"],
    [29507,"2013-09-17T06:00:00","ND","ND","ND","ND","ND","ND","0.2","274.4","23","80.5","0","0"],
    [29508,"2013-09-17T07:00:00","ND","ND","ND","ND","ND","ND","0.3","262.4","23.3","78.9","62.7","0"],
    [29509,"2013-09-17T08:00:00","ND","ND","ND","ND","ND","ND","0.1","33","24.3","75.4","175.6","0"],
    [29510,"2013-09-17T09:00:00","ND","ND","ND","ND","ND","ND","0.7","78.8","25.2","72.9","197","0"],
    [29511,"2013-09-17T10:00:00","ND","ND","ND","ND","ND","ND","0.8","85","25.8","69.7","232.7","0"],
    [29512,"2013-09-17T11:00:00","ND","ND","ND","ND","ND","ND","0.6","96.3","27.1","63.2","495.1","0"],
    [29513,"2013-09-17T12:00:00","ND","ND","ND","ND","ND","ND","1.2","114.1","28.4","57.4","433.7","0"],
    [29514,"2013-09-17T13:00:00","ND","ND","ND","ND","ND","ND","0.3","250.9","28.6","55.6","334.6","0"],
    [29515,"2013-09-17T14:00:00","ND","ND","ND","ND","ND","ND","1.7","254.7","29.3","51.8","467.8","0"],
    [29516,"2013-09-17T15:00:00","ND","ND","ND","ND","ND","ND","1.9","299","28.9","50.6","242.4","0"],
    [29517,"2013-09-17T16:00:00","ND","ND","ND","ND","ND","ND","1","250.1","28.6","51.3","285.1","0"],
    [29518,"2013-09-17T17:00:00","ND","ND","ND","ND","ND","ND","0.6","93","27.5","54.9","86.1","0"],
    [29519,"2013-09-17T18:00:00","ND","ND","ND","ND","ND","ND","1","113","26.5","59.2","27.2","0"],
    [29520,"2013-09-17T19:00:00","ND","ND","ND","ND","ND","ND","2.4","157.5","23","81.4","0","0"],
    [29521,"2013-09-17T20:00:00","ND","ND","ND","ND","ND","ND","1.7","171.2","22.9","78.9","0","0"],
    [29522,"2013-09-17T21:00:00","ND","ND","ND","ND","ND","ND","0.7","177.9","22.9","80.7","0","0"],
    [29523,"2013-09-17T22:00:00","ND","ND","ND","ND","ND","ND","1","175.4","22.6","83.3","0","0"],
    [29524,"2013-09-17T23:00:00","ND","ND","ND","ND","ND","ND","0.5","169.3","22.5","84.3","0","0"],
    [29525,"2013-09-18T00:00:00","ND","ND","ND","ND","ND","ND","0.9","350.9","22.1","86.3","0","0"],
    [29526,"2013-09-18T01:00:00","ND","ND","ND","ND","ND","ND","0.4","110.5","21.9","87.8","0","0"],
    [29527,"2013-09-18T02:00:00","ND","ND","ND","ND","ND","ND","0.3","347.2","21.8","88.8","0","0"],
    [29528,"2013-09-18T03:00:00","ND","ND","ND","ND","ND","ND","0.8","44.6","21.5","89.7","0","0"],
    [29529,"2013-09-18T04:00:00","ND","ND","ND","ND","ND","ND","0.7","39.7","21.4","90.3","0","0"],
    [29530,"2013-09-18T05:00:00","ND","ND","ND","ND","ND","ND","0.9","50.2","21.2","91.7","0","0"],
    [29531,"2013-09-18T06:00:00","ND","ND","ND","ND","ND","ND","0.8","35.5","21.2","90.6","0","0"],
    [29532,"2013-09-18T07:00:00","ND","ND","ND","ND","ND","ND","1","45.9","21.4","89.1","13.5","0"],
    [29533,"2013-09-18T08:00:00","ND","ND","ND","ND","ND","ND","0.8","47.7","21.9","87.1","64.7","0"],
    [29534,"2013-09-18T09:00:00","ND","ND","ND","ND","ND","ND","0.2","65.4","23.2","79.5","233.8","0"],
    [29535,"2013-09-18T10:00:00","ND","ND","ND","ND","ND","ND","0.9","62","23.9","76","158.6","0"],
    [29536,"2013-09-18T11:00:00","ND","ND","ND","ND","ND","ND","1.1","49.1","25.4","69.5","449.9","0"],
    [29537,"2013-09-18T12:00:00","ND","ND","ND","ND","ND","ND","1","66.5","26.8","62.1","501.5","0"],
    [29538,"2013-09-18T13:00:00","ND","ND","ND","ND","ND","ND","1.1","71.4","27.7","57.2","519.4","0"],
    [29539,"2013-09-18T14:00:00","ND","ND","ND","ND","ND","ND","0.9","21.8","28.7","53.6","576.7","0"],
    [29540,"2013-09-18T15:00:00","ND","ND","ND","ND","ND","ND","1.4","63.4","29","52.5","302.1","0"],
    [29541,"2013-09-18T16:00:00","ND","ND","ND","ND","ND","ND","1","291.8","29.3","50.9","270.5","0"],
    [29542,"2013-09-18T17:00:00","ND","ND","ND","ND","ND","ND","2.1","257.2","28.4","52.7","82.1","0"],
    [29543,"2013-09-18T18:00:00","ND","ND","ND","ND","ND","ND","1.5","244.4","27.7","54.9","21.8","0"],
    [29544,"2013-09-18T19:00:00","ND","ND","ND","ND","ND","ND","1.3","242","27.1","55.8","0","0"],
    [29545,"2013-09-18T20:00:00","ND","ND","ND","ND","ND","ND","0.5","181.3","26.8","56.2","0","0"],
    [29546,"2013-09-18T21:00:00","ND","ND","ND","ND","ND","ND","0.8","88.9","26.4","58.9","0","0"],
    [29547,"2013-09-18T22:00:00","ND","ND","ND","ND","ND","ND","0.5","110","25.6","62.6","0","0"],
    [29548,"2013-09-18T23:00:00","ND","ND","ND","ND","ND","ND","0.4","198.5","24.9","66.5","0","0"],
    [29549,"2013-09-19T00:00:00","ND","ND","ND","ND","ND","ND","0.8","192.5","24.8","66.9","0","0"],
    [29550,"2013-09-19T01:00:00","ND","ND","ND","ND","ND","ND","0.4","34","23.8","74.8","0","0"],
    [29551,"2013-09-19T02:00:00","ND","ND","ND","ND","ND","ND","0.3","26.3","23.1","77.5","0","0"],
    [29552,"2013-09-19T03:00:00","ND","ND","ND","ND","ND","ND","0.4","50.1","22.9","78.5","0","0"],
    [29553,"2013-09-19T04:00:00","ND","ND","ND","ND","ND","ND","0.5","38.3","22.6","80.9","0","0"],
    [29554,"2013-09-19T05:00:00","ND","ND","ND","ND","ND","ND","0.2","53.3","22.7","80.1","0","0"],
    [29555,"2013-09-19T06:00:00","ND","ND","ND","ND","ND","ND","0.4","160.2","22.6","80.9","0","0"],
    [29556,"2013-09-19T07:00:00","ND","ND","ND","ND","ND","ND","0.6","127.4","23","79.3","12","0"],
    [29557,"2013-09-19T08:00:00","ND","ND","ND","ND","ND","ND","0.2","226.5","23.5","79.1","113.2","0"],
    [29558,"2013-09-19T09:00:00","ND","ND","ND","ND","ND","ND","0.2","138.8","25","73","309.8","0"],
    [29559,"2013-09-19T10:00:00","ND","ND","ND","ND","ND","ND","1.3","52.9","26.7","64.8","640","0"],
    [29560,"2013-09-19T11:00:00","ND","ND","ND","ND","ND","ND","1.9","130.8","27.2","62.4","276","0"],
    [29561,"2013-09-19T12:00:00","ND","ND","ND","ND","ND","ND","1.1","90.3","28","59.4","626.1","0"],
    [29562,"2013-09-19T13:00:00","ND","ND","ND","ND","ND","ND","1.7","114.3","28","59.7","202.4","0"],
    [29563,"2013-09-19T14:00:00","ND","ND","ND","ND","ND","ND","0.9","183.4","28.3","57.9","359.1","0"],
    [29564,"2013-09-19T15:00:00","ND","ND","ND","ND","ND","ND","0.7","12","29.1","54.5","439.6","0"],
    [29565,"2013-09-19T16:00:00","ND","ND","ND","ND","ND","ND","1.2","215.9","29.4","51.1","284.7","0"],
    [29566,"2013-09-19T17:00:00","ND","ND","ND","ND","ND","ND","2.2","258.2","29.2","50.7","148.1","0"],
    [29567,"2013-09-19T18:00:00","ND","ND","ND","ND","ND","ND","2.7","247","26.6","60","7.7","0"],
    [29568,"2013-09-19T19:00:00","ND","ND","ND","ND","ND","ND","1.6","257.5","25","65.1","0","0"],
    [29569,"2013-09-19T20:00:00","ND","ND","ND","ND","ND","ND","1","246.7","25.4","63.5","0","0"],
    [29570,"2013-09-19T21:00:00","ND","ND","ND","ND","ND","ND","0.7","84.3","25.5","62.5","0","0"],
    [29571,"2013-09-19T22:00:00","ND","ND","ND","ND","ND","ND","0.3","164.9","24.8","66.6","0","0"],
    [29572,"2013-09-19T23:00:00","ND","ND","ND","ND","ND","ND","0.2","205.7","24.1","71.1","0","0"],
    [29573,"2013-09-20T00:00:00","ND","ND","ND","ND","ND","ND","0.4","129.5","23.8","72.4","0","0"],
    [29574,"2013-09-20T01:00:00","ND","ND","ND","ND","ND","ND","0.3","126.7","23","73.4","0","0"],
    [29575,"2013-09-20T02:00:00","ND","ND","ND","ND","ND","ND","0.3","111.2","23.1","73.2","0","0"],
    [29576,"2013-09-20T03:00:00","ND","ND","ND","ND","ND","ND","0.4","226.6","22.9","75.2","0","0"],
    [29577,"2013-09-20T04:00:00","ND","ND","ND","ND","ND","ND","0.2","242.7","22.7","78.8","0","0"],
    [29578,"2013-09-20T05:00:00","ND","ND","ND","ND","ND","ND","0.2","86.3","21.9","80.8","0","0"],
    [29579,"2013-09-20T06:00:00","ND","ND","ND","ND","ND","ND","0.3","54.1","21.7","82.5","0","0"],
    [29580,"2013-09-20T07:00:00","ND","ND","ND","ND","ND","ND","0","158.9","21.7","83.1","46.8","0"],
    [29581,"2013-09-20T08:00:00","ND","ND","ND","ND","ND","ND","1.1","45.6","22.8","78.2","157.7","0"],
    [29582,"2013-09-20T09:00:00","ND","ND","ND","ND","ND","ND","0.8","138.2","24.6","70","424","0"],
    [29583,"2013-09-20T10:00:00","ND","ND","ND","ND","ND","ND","0.9","113.8","26.2","62.1","436.2","0"],
    [29584,"2013-09-20T11:00:00","ND","ND","ND","ND","ND","ND","0.4","91.1","27.6","57.8","697.7","0"],
    [29585,"2013-09-20T12:00:00","ND","ND","ND","ND","ND","ND","0.2","123.7","28.8","52.2","741.5","0"],
    [29586,"2013-09-20T13:00:00","ND","ND","ND","ND","ND","ND","1.1","64.8","30","49.1","696.6","0"],
    [29587,"2013-09-20T14:00:00","ND","ND","ND","ND","ND","ND","1.3","94.5","31.2","43.3","600.4","0"],
    [29588,"2013-09-20T15:00:00","ND","ND","ND","ND","ND","ND","0.4","84.6","31.8","39.5","374.9","0"],
    [29589,"2013-09-20T16:00:00","ND","ND","ND","ND","ND","ND","1.3","6.9","31.3","40.1","282.3","0"],
    [29590,"2013-09-20T17:00:00","ND","ND","ND","ND","ND","ND","1.2","311.7","31.3","43.4","266","0"],
    [29591,"2013-09-20T18:00:00","ND","ND","ND","ND","ND","ND","2.1","248","29.1","50.6","34.4","0"],
    [29592,"2013-09-20T19:00:00","ND","ND","ND","ND","ND","ND","0.5","234.5","28.1","53.2","0","0"],
    [29593,"2013-09-20T20:00:00","ND","ND","ND","ND","ND","ND","0.1","63.5","27.6","55.4","0","0"],
    [29594,"2013-09-20T21:00:00","ND","ND","ND","ND","ND","ND","1","131.1","27.3","56.8","0","0"],
    [29595,"2013-09-20T22:00:00","ND","ND","ND","ND","ND","ND","0.9","121.1","25.4","66.2","0","0"],
    [29596,"2013-09-20T23:00:00","ND","ND","ND","ND","ND","ND","0.7","155.6","24.7","69.4","0","0"],
    [29597,"2013-09-21T00:00:00","ND","ND","ND","ND","ND","ND","0.9","168.9","24","72.4","0","0"],
    [29598,"2013-09-21T01:00:00","ND","ND","ND","ND","ND","ND","0.4","68.1","23.5","74.7","0","0"],
    [29599,"2013-09-21T02:00:00","ND","ND","ND","ND","ND","ND","0.4","11.1","22.4","78.9","0","0"],
    [29600,"2013-09-21T03:00:00","ND","ND","ND","ND","ND","ND","0.1","125.2","21.9","80.8","0","0"],
    [29601,"2013-09-21T04:00:00","ND","ND","ND","ND","ND","ND","0.4","122.9","21.7","80.5","0","0"],
    [29602,"2013-09-21T05:00:00","ND","ND","ND","ND","ND","ND","0.2","285.4","21","82.6","0","0"],
    [29603,"2013-09-21T06:00:00","ND","ND","ND","ND","ND","ND","0.2","244.3","20.7","83.5","0","0"],
    [29604,"2013-09-21T07:00:00","ND","ND","ND","ND","ND","ND","0.2","119.8","21.3","80.9","59.1","0"],
    [29605,"2013-09-21T08:00:00","ND","ND","ND","ND","ND","ND","0.7","44.7","22.6","72.5","251.6","0"],
    [29606,"2013-09-21T09:00:00","ND","ND","ND","ND","ND","ND","ND","ND","ND","ND","ND","ND"],
    [29607,"2013-09-21T10:00:00","ND","ND","ND","ND","ND","ND","ND","ND","ND","ND","ND","ND"],
    [29608,"2013-09-21T11:00:00","ND","ND","ND","ND","ND","ND","ND","ND","ND","ND","ND","ND"],
    [29609,"2013-09-21T12:00:00","ND","ND","ND","ND","ND","ND","ND","ND","ND","ND","ND","ND"],
    [29610,"2013-09-21T13:00:00","ND","ND","ND","ND","ND","ND","ND","ND","ND","ND","ND","ND"],
    [29611,"2013-09-21T14:00:00","ND","ND","ND","ND","ND","ND","ND","ND","ND","ND","ND","ND"],
    [29612,"2013-09-21T15:00:00","ND","ND","ND","ND","ND","ND","ND","ND","ND","ND","ND","ND"],
    [29613,"2013-09-21T16:00:00","ND","ND","ND","ND","ND","ND","ND","ND","ND","ND","ND","ND"],
    [29614,"2013-09-21T17:00:00","ND","ND","ND","ND","ND","ND","ND","ND","ND","ND","ND","ND"],
    [29615,"2013-09-21T18:00:00","ND","ND","ND","ND","ND","ND","ND","ND","ND","ND","ND","ND"],
    [29616,"2013-09-21T19:00:00","ND","ND","ND","ND","ND","ND","ND","ND","ND","ND","ND","ND"],
    [29617,"2013-09-21T20:00:00","ND","ND","ND","ND","ND","ND","ND","ND","ND","ND","ND","ND"],
    [29618,"2013-09-21T21:00:00","ND","ND","ND","ND","ND","ND","ND","ND","ND","ND","ND","ND"],
    [29619,"2013-09-21T22:00:00","ND","ND","ND","ND","ND","ND","ND","ND","ND","ND","ND","ND"],
    [29620,"2013-09-21T23:00:00","ND","ND","ND","ND","ND","ND","ND","ND","ND","ND","ND","ND"],
    [29621,"2013-09-22T00:00:00","ND","ND","ND","ND","ND","ND","ND","ND","ND","ND","ND","ND"],
    [29622,"2013-09-22T01:00:00","ND","ND","ND","ND","ND","ND","ND","ND","ND","ND","ND","ND"],
    [29623,"2013-09-22T02:00:00","ND","ND","ND","ND","ND","ND","ND","ND","ND","ND","ND","ND"],
    [29624,"2013-09-22T03:00:00","ND","ND","ND","ND","ND","ND","ND","ND","ND","ND","ND","ND"],
    [29625,"2013-09-22T04:00:00","ND","ND","ND","ND","ND","ND","ND","ND","ND","ND","ND","ND"],
    [29626,"2013-09-22T05:00:00","ND","ND","ND","ND","ND","ND","ND","ND","ND","ND","ND","ND"],
    [29627,"2013-09-22T06:00:00","ND","ND","ND","ND","ND","ND","ND","ND","ND","ND","ND","ND"],
    [29628,"2013-09-22T07:00:00","ND","ND","ND","ND","ND","ND","ND","ND","ND","ND","ND","ND"],
    [29629,"2013-09-22T08:00:00","ND","ND","ND","ND","ND","ND","ND","ND","ND","ND","ND","ND"],
    [29630,"2013-09-22T09:00:00","ND","ND","ND","ND","ND","ND","ND","ND","ND","ND","ND","ND"],
    [29631,"2013-09-22T10:00:00","ND","ND","ND","ND","ND","ND","ND","ND","ND","ND","ND","ND"],
    [29632,"2013-09-22T11:00:00","ND","ND","ND","ND","ND","ND","ND","ND","ND","ND","ND","ND"],
    [29633,"2013-09-22T12:00:00","ND","ND","ND","ND","ND","ND","ND","ND","ND","ND","ND","ND"],
    [29634,"2013-09-22T13:00:00","ND","ND","ND","ND","ND","ND","ND","ND","ND","ND","ND","ND"],
    [29635,"2013-09-22T14:00:00","ND","ND","ND","ND","ND","ND","ND","ND","ND","ND","ND","ND"],
    [29636,"2013-09-22T15:00:00","ND","ND","ND","ND","ND","ND","ND","ND","ND","ND","ND","ND"],
    [29637,"2013-09-22T16:00:00","ND","ND","ND","ND","ND","ND","ND","ND","ND","ND","ND","ND"],
    [29638,"2013-09-22T17:00:00","ND","ND","ND","ND","ND","ND","ND","ND","ND","ND","ND","ND"],
    [29639,"2013-09-22T18:00:00","ND","ND","ND","ND","ND","ND","ND","ND","ND","ND","ND","ND"],
    [29640,"2013-09-22T19:00:00","ND","ND","ND","ND","ND","ND","ND","ND","ND","ND","ND","ND"],
    [29641,"2013-09-22T20:00:00","ND","ND","ND","ND","ND","ND","ND","ND","ND","ND","ND","ND"],
    [29642,"2013-09-22T21:00:00","ND","ND","ND","ND","ND","ND","ND","ND","ND","ND","ND","ND"],
    [29643,"2013-09-22T22:00:00","ND","ND","ND","ND","ND","ND","ND","ND","ND","ND","ND","ND"],
    [29644,"2013-09-22T23:00:00","ND","ND","ND","ND","ND","ND","ND","ND","ND","ND","ND","ND"],
    [29645,"2013-09-23T00:00:00","ND","ND","ND","ND","ND","ND","ND","ND","ND","ND","ND","ND"],
    [29646,"2013-09-23T01:00:00","ND","ND","ND","ND","ND","ND","ND","ND","ND","ND","ND","ND"],
    [29647,"2013-09-23T02:00:00","ND","ND","ND","ND","ND","ND","ND","ND","ND","ND","ND","ND"],
    [29648,"2013-09-23T03:00:00","ND","ND","ND","ND","ND","ND","ND","ND","ND","ND","ND","ND"],
    [29649,"2013-09-23T04:00:00","ND","ND","ND","ND","ND","ND","ND","ND","ND","ND","ND","ND"],
    [29650,"2013-09-23T05:00:00","ND","ND","ND","ND","ND","ND","ND","ND","ND","ND","ND","ND"],
    [29651,"2013-09-23T06:00:00","ND","ND","ND","ND","ND","ND","ND","ND","ND","ND","ND","ND"],
    [29652,"2013-09-23T07:00:00","ND","ND","ND","ND","ND","ND","ND","ND","ND","ND","ND","ND"],
    [29653,"2013-09-23T08:00:00","ND","ND","ND","ND","ND","ND","ND","ND","ND","ND","ND","ND"],
    [29654,"2013-09-23T09:00:00","ND","ND","ND","ND","ND","ND","ND","ND","ND","ND","ND","ND"],
    [29655,"2013-09-23T10:00:00","ND","ND","ND","ND","ND","ND","ND","ND","ND","ND","ND","ND"],
    [29656,"2013-09-23T11:00:00","ND","ND","ND","ND","ND","ND","ND","ND","ND","ND","ND","ND"],
    [29657,"2013-09-23T12:00:00","ND","ND","ND","ND","ND","ND","ND","ND","ND","ND","ND","ND"],
    [29658,"2013-09-23T13:00:00","ND","ND","ND","ND","ND","ND","ND","ND","ND","ND","ND","ND"],
    [29659,"2013-09-23T14:00:00","ND","ND","ND","ND","ND","ND","ND","ND","ND","ND","ND","ND"],
    [29660,"2013-09-23T15:00:00","ND","ND","ND","ND","ND","ND","ND","ND","ND","ND","ND","ND"],
    [29661,"2013-09-23T16:00:00","ND","ND","ND","ND","ND","ND","ND","ND","ND","ND","ND","ND"],
    [29662,"2013-09-23T17:00:00","ND","ND","ND","ND","ND","ND","ND","ND","ND","ND","ND","ND"],
    [29663,"2013-09-23T18:00:00","ND","ND","ND","ND","ND","ND","ND","ND","ND","ND","ND","ND"],
    [29664,"2013-09-23T19:00:00","ND","ND","ND","ND","ND","ND","ND","ND","ND","ND","ND","ND"],
    [29665,"2013-09-23T20:00:00","ND","ND","ND","ND","ND","ND","ND","ND","ND","ND","ND","ND"],
    [29666,"2013-09-23T21:00:00","ND","ND","ND","ND","ND","ND","ND","ND","ND","ND","ND","ND"],
    [29667,"2013-09-23T22:00:00","ND","ND","ND","ND","ND","ND","ND","ND","ND","ND","ND","ND"],
    [29668,"2013-09-23T23:00:00","ND","ND","ND","ND","ND","ND","ND","ND","ND","ND","ND","ND"],
    [29669,"2013-09-24T00:00:00","ND","ND","ND","ND","ND","ND","ND","ND","ND","ND","ND","ND"],
    [29670,"2013-09-24T01:00:00","ND","ND","ND","ND","ND","ND","ND","ND","ND","ND","ND","ND"],
    [29671,"2013-09-24T02:00:00","ND","ND","ND","ND","ND","ND","ND","ND","ND","ND","ND","ND"],
    [29672,"2013-09-24T03:00:00","ND","ND","ND","ND","ND","ND","ND","ND","ND","ND","ND","ND"],
    [29673,"2013-09-24T04:00:00","ND","ND","ND","ND","ND","ND","ND","ND","ND","ND","ND","ND"],
    [29674,"2013-09-24T05:00:00","ND","ND","ND","ND","ND","ND","ND","ND","ND","ND","ND","ND"],
    [29675,"2013-09-24T06:00:00","ND","ND","ND","ND","ND","ND","ND","ND","ND","ND","ND","ND"],
    [29676,"2013-09-24T07:00:00","ND","ND","ND","ND","ND","ND","ND","ND","ND","ND","ND","ND"],
    [29677,"2013-09-24T08:00:00","ND","ND","ND","ND","ND","ND","ND","ND","ND","ND","ND","ND"],
    [29678,"2013-09-24T09:00:00","ND","ND","ND","ND","ND","ND","ND","ND","ND","ND","ND","ND"],
    [29679,"2013-09-24T10:00:00","ND","ND","ND","ND","ND","ND","ND","ND","ND","ND","ND","ND"],
    [29680,"2013-09-24T11:00:00","ND","ND","ND","ND","ND","ND","ND","ND","ND","ND","ND","ND"],
    [29681,"2013-09-24T12:00:00","ND","ND","ND","ND","ND","ND","ND","ND","ND","ND","ND","ND"],
    [29682,"2013-09-24T13:00:00","ND","ND","ND","ND","ND","ND","ND","ND","ND","ND","ND","ND"],
    [29683,"2013-09-24T14:00:00","ND","ND","ND","ND","ND","ND","ND","ND","ND","ND","ND","ND"],
    [29684,"2013-09-24T15:00:00","ND","ND","ND","ND","ND","ND","ND","ND","ND","ND","ND","ND"],
    [29685,"2013-09-24T16:00:00","ND","ND","ND","ND","ND","ND","ND","ND","ND","ND","ND","ND"],
    [29686,"2013-09-24T17:00:00","ND","ND","ND","ND","ND","ND","ND","ND","ND","ND","ND","ND"],
    [29687,"2013-09-24T18:00:00","ND","ND","ND","ND","ND","ND","ND","ND","ND","ND","ND","ND"],
    [29688,"2013-09-24T19:00:00","ND","ND","ND","ND","ND","ND","ND","ND","ND","ND","ND","ND"],
    [29689,"2013-09-24T20:00:00","ND","ND","ND","ND","ND","ND","ND","ND","ND","ND","ND","ND"],
    [29690,"2013-09-24T21:00:00","ND","ND","ND","ND","ND","ND","ND","ND","ND","ND","ND","ND"],
    [29691,"2013-09-24T22:00:00","ND","ND","ND","ND","ND","ND","ND","ND","ND","ND","ND","ND"],
    [29692,"2013-09-24T23:00:00","ND","ND","ND","ND","ND","ND","ND","ND","ND","ND","ND","ND"],
    [29693,"2013-09-25T00:00:00","ND","ND","ND","ND","ND","ND","ND","ND","ND","ND","ND","ND"],
    [29694,"2013-09-25T01:00:00","ND","ND","ND","ND","ND","ND","ND","ND","ND","ND","ND","ND"],
    [29695,"2013-09-25T02:00:00","ND","ND","ND","ND","ND","ND","ND","ND","ND","ND","ND","ND"],
    [29696,"2013-09-25T03:00:00","ND","ND","ND","ND","ND","ND","ND","ND","ND","ND","ND","ND"],
    [29697,"2013-09-25T04:00:00","ND","ND","ND","ND","ND","ND","ND","ND","ND","ND","ND","ND"],
    [29698,"2013-09-25T05:00:00","ND","ND","ND","ND","ND","ND","ND","ND","ND","ND","ND","ND"],
    [29699,"2013-09-25T06:00:00","ND","ND","ND","ND","ND","ND","ND","ND","ND","ND","ND","ND"],
    [29700,"2013-09-25T07:00:00","ND","ND","ND","ND","ND","ND","ND","ND","ND","ND","ND","ND"],
    [29701,"2013-09-25T08:00:00","ND","ND","ND","ND","ND","ND","ND","ND","ND","ND","ND","ND"],
    [29702,"2013-09-25T09:00:00","ND","ND","ND","ND","ND","ND","ND","ND","ND","ND","ND","ND"],
    [29703,"2013-09-25T10:00:00","ND","ND","ND","ND","ND","ND","ND","ND","ND","ND","ND","ND"],
    [29704,"2013-09-25T11:00:00","ND","ND","ND","ND","ND","ND","ND","ND","ND","ND","ND","ND"],
    [29705,"2013-09-25T12:00:00","ND","ND","ND","ND","ND","ND","ND","ND","ND","ND","ND","ND"],
    [29706,"2013-09-25T13:00:00","ND","ND","ND","ND","ND","ND","1.6","72.8","31.1","46.8","913.5","0"],
    [29707,"2013-09-25T14:00:00","ND","ND","ND","ND","ND","ND","1.7","87.1","31","46.9","918.5","0"],
    [29708,"2013-09-25T15:00:00","ND","ND","ND","ND","ND","ND","1.7","87.1","31","46.9","918.5","0"],
    [29709,"2013-09-25T16:00:00","ND","ND","ND","ND","ND","ND","1.7","87.1","31","46.9","918.5","0"],
    [29710,"2013-09-25T17:00:00","ND","ND","ND","ND","ND","ND","1.7","87.1","31","46.9","918.5","0"],
    [29711,"2013-09-25T18:00:00","ND","ND","ND","ND","ND","ND","1.7","87.1","31","46.9","918.5","0"],
    [29712,"2013-09-25T19:00:00","ND","ND","ND","ND","ND","ND","1.7","87.1","31","46.9","918.5","0"],
    [29713,"2013-09-25T20:00:00","ND","ND","ND","ND","ND","ND","1.7","87.1","31","46.9","918.5","0"],
    [29714,"2013-09-25T21:00:00","ND","ND","ND","ND","ND","ND","1.7","87.1","31","46.9","918.5","0"],
    [29715,"2013-09-25T22:00:00","ND","ND","ND","ND","ND","ND","1.7","87.1","31","46.9","918.5","0"],
    [29716,"2013-09-25T23:00:00","ND","ND","ND","ND","ND","ND","1.7","87.1","31","46.9","918.5","0"],
    [29717,"2013-09-26T00:00:00","ND","ND","ND","ND","ND","ND","1.7","87.1","31","46.9","918.5","0"],
    [29718,"2013-09-26T01:00:00","ND","ND","ND","ND","ND","ND","1.7","87.1","31","46.9","918.5","0"],
    [29719,"2013-09-26T02:00:00","ND","ND","ND","ND","ND","ND","1.7","87.1","31","46.9","918.5","0"],
    [29720,"2013-09-26T03:00:00","ND","ND","ND","ND","ND","ND","1.7","87.1","31","46.9","918.5","0"],
    [29721,"2013-09-26T04:00:00","ND","ND","ND","ND","ND","ND","1.7","87.1","31","46.9","918.5","0"],
    [29722,"2013-09-26T05:00:00","ND","ND","ND","ND","ND","ND","1.7","87.1","31","46.9","918.5","0"],
    [29723,"2013-09-26T06:00:00","ND","ND","ND","ND","ND","ND","1.7","87.1","31","46.9","918.5","0"],
    [29724,"2013-09-26T07:00:00","ND","ND","ND","ND","ND","ND","1.7","87.1","31","46.9","918.5","0"],
    [29725,"2013-09-26T08:00:00","ND","ND","ND","ND","ND","ND","1.7","87.1","31","46.9","918.5","0"],
    [29726,"2013-09-26T09:00:00","ND","ND","ND","ND","ND","ND","1.7","87.1","31","46.9","918.5","0"],
    [29727,"2013-09-26T10:00:00","ND","ND","ND","ND","ND","ND","1.7","87.1","31","46.9","918.5","0"],
    [29728,"2013-09-26T11:00:00","ND","ND","ND","ND","ND","ND","1.7","87.1","31","46.9","918.5","0"],
    [29729,"2013-09-26T12:00:00","ND","ND","ND","ND","ND","ND","1.7","87.1","31","46.9","918.5","0"],
    [29730,"2013-09-26T13:00:00","ND","ND","ND","ND","ND","ND","1.7","87.1","31","46.9","918.5","0"],
    [29731,"2013-09-26T14:00:00","ND","ND","ND","ND","ND","ND","1.7","87.1","31","46.9","918.5","0"],
    [29732,"2013-09-26T15:00:00","ND","ND","ND","ND","ND","ND","1.7","87.1","31","46.9","918.5","0"],
    [29733,"2013-09-26T16:00:00","ND","ND","ND","ND","ND","ND","2.1","256.4","31.9","43.2","600.1","0"],
    [29734,"2013-09-26T17:00:00","ND","ND","ND","ND","ND","ND","4","263.1","30.7","44.9","278.7","0"],
    [29735,"2013-09-26T18:00:00","19","ND","ND","ND","ND","ND","3","265","30","46.1","108.8","0"],
    [29736,"2013-09-26T19:00:00","24","ND","ND","ND","ND","ND","0.6","143.5","29.2","48.9","0","0"],
    [29737,"2013-09-26T20:00:00","46","ND","ND","ND","ND","ND","0.5","182.7","28.4","51.8","0","0"],
    [29738,"2013-09-26T21:00:00","26","ND","ND","ND","ND","ND","1","102.6","27.8","54.3","0","0"],
    [29739,"2013-09-26T22:00:00","38","ND","ND","ND","ND","ND","0.8","84.3","26.9","57.2","0","0"],
    [29740,"2013-09-26T23:00:00","23","ND","ND","ND","ND","ND","1.5","115","26.5","58.9","0","0"],
    [29741,"2013-09-27T00:00:00","25","ND","ND","ND","ND","ND","0.8","12","25.7","63.3","0","0"],
    [29742,"2013-09-27T01:00:00","30","ND","ND","ND","ND","ND","0.9","70.6","24.9","68.5","0","0"],
    [29743,"2013-09-27T02:00:00","41","ND","ND","ND","ND","ND","1.5","143.3","24.3","71.5","0","0"],
    [29744,"2013-09-27T03:00:00","47","ND","ND","ND","ND","ND","0.9","202","24.1","72.9","0","0"],
    [29745,"2013-09-27T04:00:00","42","ND","ND","ND","ND","ND","1.6","200.3","23.9","74.9","0","0"],
    [29746,"2013-09-27T05:00:00","38","ND","ND","ND","ND","ND","0.8","200.6","23.7","76.2","0","0"],
    [29747,"2013-09-27T06:00:00","30","ND","ND","ND","ND","ND","0.9","156.7","23.4","79.6","0","0"],
    [29748,"2013-09-27T07:00:00","31","ND","ND","ND","ND","ND","0.3","96.3","23.4","79.4","22.4","0"],
    [29749,"2013-09-27T08:00:00","53","ND","ND","ND","ND","ND","0.8","125.1","24.2","75.9","127.4","0"],
    [29750,"2013-09-27T09:00:00","65","ND","ND","ND","ND","ND","1.2","141.8","25","72.7","261.8","0"],
    [29751,"2013-09-27T10:00:00","72","ND","ND","ND","ND","ND","0.8","155.1","25.9","68.5","335.8","0"],
    [29752,"2013-09-27T11:00:00","83","ND","ND","ND","ND","ND","1.3","110.3","28.1","58.6","699.2","0"],
    [29753,"2013-09-27T12:00:00","57","ND","ND","ND","ND","ND","0.5","292.9","29.9","51.4","839","0"],
    [29754,"2013-09-27T13:00:00","60","ND","ND","ND","ND","ND","1.2","316.6","31.2","47.4","703.6","0"],
    [29755,"2013-09-27T14:00:00","49","ND","ND","ND","ND","ND","0.2","242.7","31.6","44.3","743.6","0"],
    [29756,"2013-09-27T15:00:00","41","ND","ND","ND","ND","ND","3","276","30.6","47.3","245","0"],
    [29757,"2013-09-27T16:00:00","ND","ND","ND","ND","ND","ND","5.1","275.3","29.4","48.2","334.5","0"],
    [29758,"2013-09-27T17:00:00","36","ND","ND","ND","ND","ND","3.5","272.9","28.9","48.6","143.6","0"],
    [29759,"2013-09-27T18:00:00","ND","ND","ND","ND","ND","ND","4","237.6","24.7","67.7","0","1.78"],
    [29760,"2013-09-27T19:00:00","25","ND","ND","ND","ND","ND","0.2","184.8","22.2","81.9","0","6.35"],
    [29761,"2013-09-27T20:00:00","ND","ND","ND","ND","ND","ND","0.7","242.6","21.7","87.6","0","0.25"],
    [29762,"2013-09-27T21:00:00","ND","ND","ND","ND","ND","ND","0.5","254","22.1","85.7","0","0.25"],
    [29763,"2013-09-27T22:00:00","ND","ND","ND","ND","ND","ND","0.3","175.1","22.3","85.7","0","0"],
    [29764,"2013-09-27T23:00:00","39","ND","ND","ND","ND","ND","0.7","177.7","22.3","86.6","0","0"],
    [29765,"2013-09-28T00:00:00","ND","ND","ND","ND","ND","ND","1.6","149.4","22.2","86.8","0","0"],
    [29766,"2013-09-28T01:00:00","26","ND","ND","ND","ND","ND","1.1","142.6","21.9","86.2","0","0"],
    [29767,"2013-09-28T02:00:00","18","ND","ND","ND","ND","ND","0.5","53.9","21.8","87","0","0"],
    [29768,"2013-09-28T03:00:00","26","ND","ND","ND","ND","ND","1.1","72.2","21.3","90.7","0","0"],
    [29769,"2013-09-28T04:00:00","25","ND","ND","ND","ND","ND","0.2","349.1","21.2","91.1","0","0"],
    [29770,"2013-09-28T05:00:00","33","ND","ND","ND","ND","ND","0.4","183.3","21.5","88.3","0","0"],
    [29771,"2013-09-28T06:00:00","30","ND","ND","ND","ND","ND","0.8","26.9","21.2","91.3","0","0"],
    [29772,"2013-09-28T07:00:00","52","ND","ND","ND","ND","ND","1.1","30.6","21.4","90.3","25.6","0"],
    [29773,"2013-09-28T08:00:00","62","ND","ND","ND","ND","ND","0.4","260","22.5","83.7","155.1","0"],
    [29774,"2013-09-28T09:00:00","51","ND","ND","ND","ND","ND","1","132.3","24.2","71.6","350.9","0"],
    [29775,"2013-09-28T10:00:00","29","ND","ND","ND","ND","ND","1","104.2","25.5","64.6","451","0"],
    [29776,"2013-09-28T11:00:00","18","ND","ND","ND","ND","ND","0.8","263.9","26.2","61","506.9","0"],
    [29777,"2013-09-28T12:00:00","21","ND","ND","ND","ND","ND","1.2","176","27.5","56.7","606.4","0"],
    [29778,"2013-09-28T13:00:00","36","ND","ND","ND","ND","ND","0.3","111.8","28.7","52.6","799.5","0"],
    [29779,"2013-09-28T14:00:00","43","ND","ND","ND","ND","ND","0.7","51.5","30","47.1","625.5","0"],
    [29780,"2013-09-28T15:00:00","20","ND","ND","ND","ND","ND","1.6","32.6","30.3","46.5","397.3","0"],
    [29781,"2013-09-28T16:00:00","44","ND","ND","ND","ND","ND","1.7","10.6","30.1","47.6","270.1","0"],
    [29782,"2013-09-28T17:00:00","9","ND","ND","ND","ND","ND","2.2","284.1","29.3","49.4","193.1","0"],
    [29783,"2013-09-28T18:00:00","17","ND","ND","ND","ND","ND","0.4","349.4","28.1","52.3","29.8","0"],
    [29784,"2013-09-28T19:00:00","13","ND","ND","ND","ND","ND","0","131.4","27.1","51.8","0","0"],
    [29785,"2013-09-28T20:00:00","23","ND","ND","ND","ND","ND","0.1","168.9","26.6","55.5","0","0"],
    [29786,"2013-09-28T21:00:00","27","ND","ND","ND","ND","ND","1.1","96.2","26.4","57.3","0","0"],
    [29787,"2013-09-28T22:00:00","26","ND","ND","ND","ND","ND","1.1","185.9","25.5","63.4","0","0"],
    [29788,"2013-09-28T23:00:00","34","ND","ND","ND","ND","ND","1","82.6","24.7","66.6","0","0"],
    [29789,"2013-09-29T00:00:00","76","ND","ND","ND","ND","ND","0.5","186.9","24.5","68.5","0","0"],
    [29790,"2013-09-29T01:00:00","14","ND","ND","ND","ND","ND","0.9","157.9","22.6","84.1","0","1.02"],
    [29791,"2013-09-29T02:00:00","7","ND","ND","ND","ND","ND","0.6","168.7","22.2","88.6","0","0"],
    [29792,"2013-09-29T03:00:00","10","ND","ND","ND","ND","ND","0.2","161","22.3","87.6","0","0"],
    [29793,"2013-09-29T04:00:00","17","ND","ND","ND","ND","ND","1.4","165.3","22.1","88.3","0","0.25"],
    [29794,"2013-09-29T05:00:00","23","ND","ND","ND","ND","ND","2.2","171.5","21.7","88.5","0","0"],
    [29795,"2013-09-29T06:00:00","16","ND","ND","ND","ND","ND","2.4","158.7","21.1","90.4","0","0"],
    [29796,"2013-09-29T07:00:00","4","ND","ND","ND","ND","ND","1.8","165.7","20.6","93.2","0","4.57"],
    [29797,"2013-09-29T08:00:00","7","ND","ND","ND","ND","ND","2","161.9","20.3","95.9","0","3.56"],
    [29798,"2013-09-29T09:00:00","5","ND","ND","ND","ND","ND","1.6","148.6","20.1","96.9","7.2","21.59"],
    [29799,"2013-09-29T10:00:00","4","ND","ND","ND","ND","ND","1.5","157","20.2","97.4","201.9","4.06"],
    [29800,"2013-09-29T11:00:00","4","ND","ND","ND","ND","ND","1.9","161.3","22.3","81.7","439.1","0"],
    [29801,"2013-09-29T12:00:00","ND","ND","ND","ND","ND","ND","1.5","173.7","23.8","71.2","527.9","0"],
    [29802,"2013-09-29T13:00:00","2","ND","ND","ND","ND","ND","0.8","204","25.8","62.2","835.2","0"],
    [29803,"2013-09-29T14:00:00","6","ND","ND","ND","ND","ND","0.4","84.7","27.2","56.4","710.4","0"],
    [29804,"2013-09-29T15:00:00","20","ND","ND","ND","ND","ND","2.1","32.8","27.1","57.4","506.3","0"],
    [29805,"2013-09-29T16:00:00","16","ND","ND","ND","ND","ND","2.6","32.2","27.4","59.3","521.8","0"],
    [29806,"2013-09-29T17:00:00","5","ND","ND","ND","ND","ND","1.1","345.1","27.9","53.6","235.3","0"],
    [29807,"2013-09-29T18:00:00","5","ND","ND","ND","ND","ND","0.2","198.5","27.1","54","62","0"],
    [29808,"2013-09-29T19:00:00","9","ND","ND","ND","ND","ND","0.3","336.2","25.8","59.1","0","0"],
    [29809,"2013-09-29T20:00:00","17","ND","ND","ND","ND","ND","0.2","141.3","25.5","60.2","0","0"],
    [29810,"2013-09-29T21:00:00","9","ND","ND","ND","ND","ND","1","174.1","25.3","61.1","0","0"],
    [29811,"2013-09-29T22:00:00","17","ND","ND","ND","ND","ND","0.9","255.8","24.2","67.6","0","0"],
    [29812,"2013-09-29T23:00:00","13","ND","ND","ND","ND","ND","0.6","253.8","23.5","69.9","0","0"],
    [29813,"2013-09-30T00:00:00","12","ND","ND","ND","ND","ND","0.7","221.2","22.8","74.5","0","0"],
    [29814,"2013-09-30T01:00:00","8","ND","ND","ND","ND","ND","0.2","248.5","22.4","75.1","0","0"],
    [29815,"2013-09-30T02:00:00","24","ND","ND","ND","ND","ND","0.4","22.8","21.7","81","0","0"],
    [29816,"2013-09-30T03:00:00","12","ND","ND","ND","ND","ND","0.1","253.7","21.6","80.9","0","0"],
    [29817,"2013-09-30T04:00:00","12","ND","ND","ND","ND","ND","0.1","200","21.9","80.4","0","0"],
    [29818,"2013-09-30T05:00:00","31","ND","ND","ND","ND","ND","0.4","37","21.7","83.2","0","0"],
    [29819,"2013-09-30T06:00:00","42","ND","ND","ND","ND","ND","0.6","22","21.3","85.8","0","0"],
    [29820,"2013-09-30T07:00:00","68","ND","ND","ND","ND","ND","0.2","332.2","21.4","85.6","31.7","0"],
    [29821,"2013-09-30T08:00:00","58","ND","ND","ND","ND","ND","0.5","61.5","22.6","78.1","150.4","0"],
    [29822,"2013-09-30T09:00:00","31","ND","ND","ND","ND","ND","1.2","78.4","23.9","72.3","330.5","0"],
    [29823,"2013-09-30T10:00:00","15","ND","ND","ND","ND","ND","1.1","121.8","25","67.3","483.4","0"],
    [29824,"2013-09-30T11:00:00","19","ND","ND","ND","ND","ND","1.2","117.4","26.4","61.7","815.6","0"],
    [29825,"2013-09-30T12:00:00","ND","ND","ND","ND","ND","ND","0.8","114.2","27.5","57.2","594.6","0"],
    [29826,"2013-09-30T13:00:00","33","ND","ND","ND","ND","ND","0.8","98.5","28.6","53.1","624.6","0"],
    [29827,"2013-09-30T14:00:00","26","ND","ND","ND","ND","ND","1.3","172","29.4","49.6","620.2","0"],
    [29828,"2013-09-30T15:00:00","44","ND","ND","ND","ND","ND","0.1","324","30.2","46.6","446.1","0"],
    [29829,"2013-09-30T16:00:00","ND","ND","ND","ND","ND","ND","3.2","263.5","29.5","47.1","336.9","0"],
    [29830,"2013-09-30T17:00:00","29","ND","ND","ND","ND","ND","2.9","264.9","28.7","48.6","191","0"],
    [29831,"2013-09-30T18:00:00","21","ND","ND","ND","ND","ND","1.7","254.4","28","51","58.6","0"],
    [29832,"2013-09-30T19:00:00","11","ND","ND","ND","ND","ND","0.2","163","27","53.7","0","0"],
    [29833,"2013-09-30T20:00:00","63","ND","ND","ND","ND","ND","0.5","86.5","26.3","56.6","0","0"],
    [29834,"2013-09-30T21:00:00","65","ND","ND","ND","ND","ND","0.6","83.6","25.8","59","0","0"],
    [29835,"2013-09-30T22:00:00","48","ND","ND","ND","ND","ND","0.5","106.8","24.7","62.8","0","0"],
    [29836,"2013-09-30T23:00:00","52","ND","ND","ND","ND","ND","0.5","197.1","24","66.9","0","0"],
    [29837,"2013-10-01T00:00:00","43","ND","ND","ND","ND","ND","0.9","111.6","23.5","68.7","0","0"],
    [29838,"2013-10-01T01:00:00","29","ND","ND","ND","ND","ND","0.8","182.5","23.1","72","0","0"],
    [29839,"2013-10-01T02:00:00","33","ND","ND","ND","ND","ND","0.9","159.9","23","73.3","0","0"],
    [29840,"2013-10-01T03:00:00","26","ND","ND","ND","ND","ND","0.6","117.2","22.6","73.3","0","0"],
    [29841,"2013-10-01T04:00:00","23","ND","ND","ND","ND","ND","0.3","247.2","21.7","79.6","0","0"],
    [29842,"2013-10-01T05:00:00","17","ND","ND","ND","ND","ND","0.1","284.1","21.1","81.5","0","0"],
    [29843,"2013-10-01T06:00:00","27","ND","ND","ND","ND","ND","0.2","287.7","21.3","81.2","0","0"],
    [29844,"2013-10-01T07:00:00","76","ND","ND","ND","ND","ND","0.4","42.7","21.3","78.7","41.2","0"],
    [29845,"2013-10-01T08:00:00","77","ND","ND","ND","ND","ND","0.8","185","23.3","71.8","252.2","0"],
    [29846,"2013-10-01T09:00:00","45","ND","ND","ND","ND","ND","1.5","141.6","25.2","62.8","525.2","0"],
    [29847,"2013-10-01T10:00:00","51","ND","ND","ND","ND","ND","1.9","126.7","26.6","58.4","649.9","0"],
    [29848,"2013-10-01T11:00:00","45","ND","ND","ND","ND","ND","1.1","66","26.9","57.7","588.5","0"],
    [29849,"2013-10-01T12:00:00","52","ND","ND","ND","ND","ND","1.3","31","28.2","53.3","817.9","0"],
    [29850,"2013-10-01T13:00:00","22","ND","ND","ND","ND","ND","1.9","25.8","29.2","48.9","719.6","0"],
    [29851,"2013-10-01T14:00:00","13","ND","ND","ND","ND","ND","2.2","49.8","30.2","46.4","854.2","0"],
    [29852,"2013-10-01T15:00:00","22","ND","ND","ND","ND","ND","1.7","4.3","30.7","45.1","662.2","0"],
    [29853,"2013-10-01T16:00:00","13","ND","ND","ND","ND","ND","2.1","301.8","30.7","45.6","404.3","0"],
    [29854,"2013-10-01T17:00:00","15","ND","ND","ND","ND","ND","1.7","311","30.4","44.9","195.3","0"],
    [29855,"2013-10-01T18:00:00","30","ND","ND","ND","ND","ND","1.2","277.9","29.2","47.5","52.4","0"],
    [29856,"2013-10-01T19:00:00","26","ND","ND","ND","ND","ND","1.1","249.2","27.8","52.4","0","0"],
    [29857,"2013-10-01T20:00:00","56","ND","ND","ND","ND","ND","0.4","264.4","27","56.6","0","0"],
    [29858,"2013-10-01T21:00:00","55","ND","ND","ND","ND","ND","0.6","248.4","26.6","58.3","0","0"],
    [29859,"2013-10-01T22:00:00","115","ND","ND","ND","ND","ND","1.1","147.5","26.2","60.7","0","0"],
    [29860,"2013-10-01T23:00:00","ND","ND","ND","ND","ND","ND","0.3","196","25","66.7","0","0"],
    [29861,"2013-10-02T00:00:00","53","ND","ND","ND","ND","ND","0.2","236","24.3","69.5","0","0"],
    [29862,"2013-10-02T01:00:00","26","ND","ND","ND","ND","ND","0.4","188.2","24.1","69.8","0","0"],
    [29863,"2013-10-02T02:00:00","60","ND","ND","ND","ND","ND","0.4","186.9","23.7","72.4","0","0"],
    [29864,"2013-10-02T03:00:00","24","ND","ND","ND","ND","ND","0.5","171.2","23.5","73.3","0","0"],
    [29865,"2013-10-02T04:00:00","37","ND","ND","ND","ND","ND","0.2","265","22.7","76.8","0","0"],
    [29866,"2013-10-02T05:00:00","22","ND","ND","ND","ND","ND","0.2","270.7","22.5","78.7","0","0"],
    [29867,"2013-10-02T06:00:00","32","ND","ND","ND","ND","ND","0.1","232.4","22.6","78.5","0","0"],
    [29868,"2013-10-02T07:00:00","81","ND","ND","ND","ND","ND","0.4","13.6","22.9","78.4","59.9","0"],
    [29869,"2013-10-02T08:00:00","59","ND","ND","ND","ND","ND","0.5","155.7","24","73.4","78.1","0"],
    [29870,"2013-10-02T09:00:00","33","ND","ND","ND","ND","ND","1.4","138.3","22.2","84.5","32.7","18.54"],
    [29871,"2013-10-02T10:00:00","15","ND","ND","ND","ND","ND","1.2","270.6","22","89.7","486.1","12.19"],
    [29872,"2013-10-02T11:00:00","8","ND","ND","ND","ND","ND","0.3","257.2","26.1","64.7","840.6","0"],
    [29873,"2013-10-02T12:00:00","25","ND","ND","ND","ND","ND","0.9","73.5","27.8","59.3","880.8","0"],
    [29874,"2013-10-02T13:00:00","33","ND","ND","ND","ND","ND","1.1","54.9","28.8","55.2","887","0"],
    [29875,"2013-10-02T14:00:00","38","ND","ND","ND","ND","ND","0.9","67.8","30.4","50.2","778.4","0"],
    [29876,"2013-10-02T15:00:00","38","ND","ND","ND","ND","ND","0.9","6.9","31.4","47.2","683.2","0"],
    [29877,"2013-10-02T16:00:00","32","ND","ND","ND","ND","ND","1.5","45.3","31","45","242.4","0"],
    [29878,"2013-10-02T17:00:00","19","ND","ND","ND","ND","ND","1.1","284.6","30.9","47.1","198.4","0"],
    [29879,"2013-10-02T18:00:00","25","ND","ND","ND","ND","ND","2.5","243.3","28.8","52.8","41.4","0"],
    [29880,"2013-10-02T19:00:00","39","ND","ND","ND","ND","ND","0.5","69.5","28.2","53.4","0","0"],
    [29881,"2013-10-02T20:00:00","52","ND","ND","ND","ND","ND","0.8","261.4","26.8","59.8","0","0"],
    [29882,"2013-10-02T21:00:00","52","ND","ND","ND","ND","ND","0.2","231.2","26.1","63","0","0"],
    [29883,"2013-10-02T22:00:00","27","ND","ND","ND","ND","ND","0.3","93.3","26.1","61.1","0","0"],
    [29884,"2013-10-02T23:00:00","38","ND","ND","ND","ND","ND","0.4","187.5","26.1","61","0","0"],
    [29885,"2013-10-03T00:00:00","54","ND","ND","ND","ND","ND","0.2","248.7","25.3","64.8","0","0"],
    [29886,"2013-10-03T01:00:00","29","ND","ND","ND","ND","ND","0.7","36.6","24.1","73.1","0","0"],
    [29887,"2013-10-03T02:00:00","23","ND","ND","ND","ND","ND","0.2","265.7","23.5","75.3","0","0"],
    [29888,"2013-10-03T03:00:00","29","ND","ND","ND","ND","ND","0.4","49.7","23.3","76.7","0","0"],
    [29889,"2013-10-03T04:00:00","26","ND","ND","ND","ND","ND","0.3","197.2","23.2","75.9","0","0"],
    [29890,"2013-10-03T05:00:00","27","ND","ND","ND","ND","ND","1.5","165.6","23.3","78","0","0"],
    [29891,"2013-10-03T06:00:00","20","ND","ND","ND","ND","ND","1.3","221.2","22.1","88.7","0","3.81"],
    [29892,"2013-10-03T07:00:00","22","ND","ND","ND","ND","ND","1.4","245.8","20.7","97.5","12.9","39.88"],
    [29893,"2013-10-03T08:00:00","10","ND","ND","ND","ND","ND","0.3","273.8","21","97.3","35.2","2.03"],
    [29894,"2013-10-03T09:00:00","20","ND","ND","ND","ND","ND","0.8","216.7","22.4","87.3","240.4","0.25"],
    [29895,"2013-10-03T10:00:00","28","ND","ND","ND","ND","ND","0.1","64.3","24.5","75.2","417.5","0"],
    [29896,"2013-10-03T11:00:00","28","ND","ND","ND","ND","ND","0.6","102.3","26.3","64","653.8","0"],
    [29897,"2013-10-03T12:00:00","31","ND","ND","ND","ND","ND","0.4","147","28.1","58.3","559.4","0"],
    [29898,"2013-10-03T13:00:00","19","ND","ND","ND","ND","ND","0.4","39.7","28","55.7","301.5","0"],
    [29899,"2013-10-03T14:00:00","6","ND","ND","ND","ND","ND","1.1","281","28.6","53.5","518.9","0"],
    [29900,"2013-10-03T15:00:00","13","ND","ND","ND","ND","ND","1.5","341.7","29.2","50.5","588.7","0"],
    [29901,"2013-10-03T16:00:00","12","ND","ND","ND","ND","ND","1.1","285","29.4","49.9","446.1","0"],
    [29902,"2013-10-03T17:00:00","8","ND","ND","ND","ND","ND","2.7","266.3","28.1","50.9","198.5","0"],
    [29903,"2013-10-03T18:00:00","17","ND","ND","ND","ND","ND","1","259.5","27.1","52.9","36","0"],
    [29904,"2013-10-03T19:00:00","49","ND","ND","ND","ND","ND","0.7","117","26.7","54.8","0","0"],
    [29905,"2013-10-03T20:00:00","48","ND","ND","ND","ND","ND","0.9","108.4","26","58.2","0","0"],
    [29906,"2013-10-03T21:00:00","27","ND","ND","ND","ND","ND","1.9","182.4","25.5","60.7","0","0"],
    [29907,"2013-10-03T22:00:00","32","ND","ND","ND","ND","ND","2.7","169.3","23.6","72","0","0"],
    [29908,"2013-10-03T23:00:00","16","ND","ND","ND","ND","ND","0.8","205.8","23.4","72.6","0","0"],
    [29909,"2013-10-04T00:00:00","ND","ND","ND","ND","ND","ND","0.3","251.2","22.9","78.8","0","0"],
    [29910,"2013-10-04T01:00:00","30","ND","ND","ND","ND","ND","0.5","5.5","22.4","82.5","0","0"],
    [29911,"2013-10-04T02:00:00","20","ND","ND","ND","ND","ND","0.5","276.1","22.1","83.7","0","0"],
    [29912,"2013-10-04T03:00:00","20","ND","ND","ND","ND","ND","0.3","53.2","22.3","83.4","0","0"],
    [29913,"2013-10-04T04:00:00","44","ND","ND","ND","ND","ND","0.3","56.5","21.8","87","0","0"],
    [29914,"2013-10-04T05:00:00","56","ND","ND","ND","ND","ND","0.7","14.3","21.6","88","0","0"],
    [29915,"2013-10-04T06:00:00","42","ND","ND","ND","ND","ND","0.3","36.1","21.4","88.5","0","0"],
    [29916,"2013-10-04T07:00:00","70","ND","ND","ND","ND","ND","0.4","298.8","21.6","87.3","17.2","0"],
    [29917,"2013-10-04T08:00:00","62","ND","ND","ND","ND","ND","0.8","266.5","22.2","83.3","101.7","0"],
    [29918,"2013-10-04T09:00:00","86","ND","ND","ND","ND","ND","0.4","112.6","24.1","74.7","287.6","0"],
    [29919,"2013-10-04T10:00:00","50","ND","ND","ND","ND","ND","0.7","92.7","26","65.7","482.2","0"],
    [29920,"2013-10-04T11:00:00","44","ND","ND","ND","ND","ND","0.5","82.2","26.6","62.8","481.7","0"],
    [29921,"2013-10-04T12:00:00","49","ND","ND","ND","ND","ND","0.4","78.5","28","56.3","760.4","0"],
    [29922,"2013-10-04T13:00:00","34","ND","ND","ND","ND","ND","1.5","50.5","29.3","49","814.8","0"],
    [29923,"2013-10-04T14:00:00","35","ND","ND","ND","ND","ND","0.8","20.9","30.2","47.2","633.4","0"],
    [29924,"2013-10-04T15:00:00","42","ND","ND","ND","ND","ND","1.3","23.3","30.4","47.2","516.6","0"],
    [29925,"2013-10-04T16:00:00","30","ND","ND","ND","ND","ND","1.7","285.5","30.1","49.9","314.7","0"],
    [29926,"2013-10-04T17:00:00","23","ND","ND","ND","ND","ND","2.4","268.5","28.8","52.7","152.2","0"],
    [29927,"2013-10-04T18:00:00","20","ND","ND","ND","ND","ND","1.6","249.8","28.3","52.6","46.4","0"],
    [29928,"2013-10-04T19:00:00","28","ND","ND","ND","ND","ND","0.7","238.3","27.7","54","0","0"],
    [29929,"2013-10-04T20:00:00","26","ND","ND","ND","ND","ND","0.4","186.7","27.2","56.6","0","0"],
    [29930,"2013-10-04T21:00:00","51","ND","ND","ND","ND","ND","0.5","346.8","26.6","59.6","0","0"],
    [29931,"2013-10-04T22:00:00","40","ND","ND","ND","ND","ND","0.8","122.5","26","62.6","0","0"],
    [29932,"2013-10-04T23:00:00","72","ND","ND","ND","ND","ND","0.8","132","25.5","64.4","0","0"],
    [29933,"2013-10-05T00:00:00","29","ND","ND","ND","ND","ND","0.2","81.1","25","66.7","0","0"],
    [29934,"2013-10-05T01:00:00","3","ND","ND","ND","ND","ND","0.2","76","23.9","71.1","0","0"],
    [29935,"2013-10-05T02:00:00","15","ND","ND","ND","ND","ND","0.7","199.4","23.8","71.9","0","0"],
    [29936,"2013-10-05T03:00:00","18","ND","ND","ND","ND","ND","1.1","126.3","23.3","74.1","0","0"],
    [29937,"2013-10-05T04:00:00","20","ND","ND","ND","ND","ND","0.7","128.3","22.9","77","0","0"],
    [29938,"2013-10-05T05:00:00","18","ND","ND","ND","ND","ND","0.2","263.7","22.4","80","0","0"],
    [29939,"2013-10-05T06:00:00","21","ND","ND","ND","ND","ND","0.2","268.3","22","82.6","0","0"],
    [29940,"2013-10-05T07:00:00","39","ND","ND","ND","ND","ND","0.3","260.6","22.1","81.5","21.2","0"],
    [29941,"2013-10-05T08:00:00","35","ND","ND","ND","ND","ND","0.4","189.3","23.2","76.8","120.7","0"],
    [29942,"2013-10-05T09:00:00","51","ND","ND","ND","ND","ND","0.9","167.1","24.9","69.8","386","0"],
    [29943,"2013-10-05T10:00:00","52","ND","ND","ND","ND","ND","1.2","121","26.7","63.1","672.9","0"],
    [29944,"2013-10-05T11:00:00","50","ND","ND","ND","ND","ND","1","144.8","28.3","56.3","813.6","0"],
    [29945,"2013-10-05T12:00:00","51","ND","ND","ND","ND","ND","1.2","187.5","30","50.5","873.9","0"],
    [29946,"2013-10-05T13:00:00","55","ND","ND","ND","ND","ND","0.6","140.1","31.1","46.3","878.1","0"],
    [29947,"2013-10-05T14:00:00","57","ND","ND","ND","ND","ND","1.3","50.8","32.2","43.4","820.3","0"],
    [29948,"2013-10-05T15:00:00","59","ND","ND","ND","ND","ND","2.1","339","32.1","44.8","587.6","0"],
    [29949,"2013-10-05T16:00:00","34","ND","ND","ND","ND","ND","3.4","257","31.8","44.7","467.3","0"],
    [29950,"2013-10-05T17:00:00","28","ND","ND","ND","ND","ND","2.4","269","30.7","44.2","176.2","0"],
    [29951,"2013-10-05T18:00:00","19","ND","ND","ND","ND","ND","0.6","277.3","29.3","46.3","23","0"],
    [29952,"2013-10-05T19:00:00","19","ND","ND","ND","ND","ND","0.4","159.4","28.4","49.7","0","0"],
    [29953,"2013-10-05T20:00:00","36","ND","ND","ND","ND","ND","0.9","93.3","27.6","54.5","0","0"],
    [29954,"2013-10-05T21:00:00","41","ND","ND","ND","ND","ND","0.7","89.9","26.7","58.3","0","0"],
    [29955,"2013-10-05T22:00:00","32","ND","ND","ND","ND","ND","0.4","146.9","25.6","62.8","0","0"],
    [29956,"2013-10-05T23:00:00","43","ND","ND","ND","ND","ND","0.6","101.3","25","66.3","0","0"],
    [29957,"2013-10-06T00:00:00","39","ND","ND","ND","ND","ND","0.4","357.5","23.7","71.6","0","0"],
    [29958,"2013-10-06T01:00:00","32","ND","ND","ND","ND","ND","0.2","245.9","23.2","74.6","0","0"],
    [29959,"2013-10-06T02:00:00","84","ND","ND","ND","ND","ND","0.4","251.4","23","75.9","0","0"],
    [29960,"2013-10-06T03:00:00","63","ND","ND","ND","ND","ND","0.5","195.7","23.1","75.7","0","0"],
    [29961,"2013-10-06T04:00:00","46","ND","ND","ND","ND","ND","1.3","155","22.7","77.5","0","0"],
    [29962,"2013-10-06T05:00:00","39","ND","ND","ND","ND","ND","0.1","132.1","22.3","80.1","0","0"],
    [29963,"2013-10-06T06:00:00","46","ND","ND","ND","ND","ND","0.4","266.8","21.8","82.5","0","0"],
    [29964,"2013-10-06T07:00:00","42","ND","ND","ND","ND","ND","0.1","245.3","22","81.5","37.4","0"],
    [29965,"2013-10-06T08:00:00","53","ND","ND","ND","ND","ND","0.7","194.3","23.1","75.8","137.3","0"],
    [29966,"2013-10-06T09:00:00","43","ND","ND","ND","ND","ND","0.3","95.8","25.8","63.2","489.5","0"],
    [29967,"2013-10-06T10:00:00","48","ND","ND","ND","ND","ND","0.8","139.6","27.3","58.6","702.1","0"],
    [29968,"2013-10-06T11:00:00","42","ND","ND","ND","ND","ND","1.2","125.7","28.6","53.8","687","0"],
    [29969,"2013-10-06T12:00:00","37","ND","ND","ND","ND","ND","1.2","120.9","29.7","50.9","884.3","0"],
    [29970,"2013-10-06T13:00:00","38","ND","ND","ND","ND","ND","0.7","286","31.1","46.3","787.1","0"],
    [29971,"2013-10-06T14:00:00","30","ND","ND","ND","ND","ND","1.1","25","31.7","41.7","476.1","0"],
    [29972,"2013-10-06T15:00:00","8","ND","ND","ND","ND","ND","3.2","266.1","32.5","37.8","690.6","0"],
    [29973,"2013-10-06T16:00:00","6","ND","ND","ND","ND","ND","2.7","262.2","32.4","37.1","484","0"],
    [29974,"2013-10-06T17:00:00","15","ND","ND","ND","ND","ND","2.7","262.1","31.7","38.8","264.6","0"],
    [29975,"2013-10-06T18:00:00","13","ND","ND","ND","ND","ND","0.5","264.4","30.1","41.4","43.5","0"],
    [29976,"2013-10-06T19:00:00","24","ND","ND","ND","ND","ND","0.5","198.1","28.6","47.1","0","0"],
    [29977,"2013-10-06T20:00:00","35","ND","ND","ND","ND","ND","0.1","242.8","27.5","51.9","0","0"],
    [29978,"2013-10-06T21:00:00","41","ND","ND","ND","ND","ND","0.4","96.7","26.8","56.4","0","0"],
    [29979,"2013-10-06T22:00:00","32","ND","ND","ND","ND","ND","0.4","93.3","25.9","61.4","0","0"],
    [29980,"2013-10-06T23:00:00","16","ND","ND","ND","ND","ND","0.4","145.9","25","65.3","0","0"],
    [29981,"2013-10-07T00:00:00","15","ND","ND","ND","ND","ND","0.9","154.5","24.3","68.8","0","0"],
    [29982,"2013-10-07T01:00:00","27","ND","ND","ND","ND","ND","1","130.4","23.8","72","0","0"],
    [29983,"2013-10-07T02:00:00","30","ND","ND","ND","ND","ND","0.7","134","23.3","74.8","0","0"],
    [29984,"2013-10-07T03:00:00","43","ND","ND","ND","ND","ND","0.9","168","23","76","0","0"],
    [29985,"2013-10-07T04:00:00","48","ND","ND","ND","ND","ND","1","140.6","23.2","75.1","0","0"],
    [29986,"2013-10-07T05:00:00","31","ND","ND","ND","ND","ND","1.3","180.6","22.6","74.8","0","0"],
    [29987,"2013-10-07T06:00:00","28","ND","ND","ND","ND","ND","0.6","210.5","22.1","77.5","0","0"],
    [29988,"2013-10-07T07:00:00","42","ND","ND","ND","ND","ND","0.2","276.3","22.2","77.7","42.5","0"],
    [29989,"2013-10-07T08:00:00","71","ND","ND","ND","ND","ND","0.8","122.5","23.6","72.8","207.7","0"],
    [29990,"2013-10-07T09:00:00","81","ND","ND","ND","ND","ND","1.2","39.2","24.8","68.3","392.9","0"],
    [29991,"2013-10-07T10:00:00","57","ND","ND","ND","ND","ND","1","114.4","26.3","61.9","661.1","0"],
    [29992,"2013-10-07T11:00:00","55","ND","ND","ND","ND","ND","1.1","65.9","27.6","57.5","794.7","0"],
    [29993,"2013-10-07T12:00:00","46","ND","ND","ND","ND","ND","0.7","6.7","28.3","54.9","579","0"],
    [29994,"2013-10-07T13:00:00","50","ND","ND","ND","ND","ND","0.6","337.8","29.5","51.4","601.1","0"],
    [29995,"2013-10-07T14:00:00","44","ND","ND","ND","ND","ND","0.7","58.1","30.7","47.6","757.9","0"],
    [29996,"2013-10-07T15:00:00","22","ND","ND","ND","ND","ND","1.4","263.1","31.5","43.9","411.6","0"],
    [29997,"2013-10-07T16:00:00","23","ND","ND","ND","ND","ND","2.7","280.4","30.5","44.8","255.5","0"],
    [29998,"2013-10-07T17:00:00","24","ND","ND","ND","ND","ND","2.7","272","29.9","46.7","151.7","0"],
    [29999,"2013-10-07T18:00:00","27","ND","ND","ND","ND","ND","1.1","255.9","29.3","48.1","41.4","0"],
    [30000,"2013-10-07T19:00:00","34","ND","ND","ND","ND","ND","0.3","240.8","28.1","50.8","0","0"],
    [30001,"2013-10-07T20:00:00","76","ND","ND","ND","ND","ND","0.2","131.8","27.7","52.8","0","0"],
    [30002,"2013-10-07T21:00:00","61","ND","ND","ND","ND","ND","0.5","95.9","27.6","54.1","0","0"],
    [30003,"2013-10-07T22:00:00","43","ND","ND","ND","ND","ND","1","110.8","26.7","57.1","0","0"],
    [30004,"2013-10-07T23:00:00","104","ND","ND","ND","ND","ND","0.4","90.6","26","61.6","0","0"],
    [30005,"2013-10-08T00:00:00","63","ND","ND","ND","ND","ND","0.7","121.8","25.8","62.9","0","0"],
    [30006,"2013-10-08T01:00:00","40","ND","ND","ND","ND","ND","0.6","132.3","24.9","68","0","0"],
    [30007,"2013-10-08T02:00:00","47","ND","ND","ND","ND","ND","0.4","277.4","24.7","69.6","0","0"],
    [30008,"2013-10-08T03:00:00","56","ND","ND","ND","ND","ND","0.5","14.1","23.9","75.1","0","0"],
    [30009,"2013-10-08T04:00:00","53","ND","ND","ND","ND","ND","0.1","238.2","23.4","79.1","0","0"],
    [30010,"2013-10-08T05:00:00","53","ND","ND","ND","ND","ND","0.4","23.5","23.3","79.2","0","0"],
    [30011,"2013-10-08T06:00:00","60","ND","ND","ND","ND","ND","0.4","28.1","23","79.1","0","0"],
    [30012,"2013-10-08T07:00:00","67","ND","ND","ND","ND","ND","0.7","145.3","23.2","77.5","23","0"],
    [30013,"2013-10-08T08:00:00","86","ND","ND","ND","ND","ND","0.5","49.8","23.9","76.2","139.1","0"],
    [30014,"2013-10-08T09:00:00","94","ND","ND","ND","ND","ND","0.9","98.1","24.7","73.2","183.8","0"],
    [30015,"2013-10-08T10:00:00","80","ND","ND","ND","ND","ND","0.5","100.4","26","65.7","487.7","0"],
    [30016,"2013-10-08T11:00:00","68","ND","ND","ND","ND","ND","1.5","58.4","27.4","60.5","568.4","0"],
    [30017,"2013-10-08T12:00:00","52","ND","ND","ND","ND","ND","1.1","93.6","28.7","53.8","644.4","0"],
    [30018,"2013-10-08T13:00:00","53","ND","ND","ND","ND","ND","0.6","50.2","30.1","49.4","602.2","0"],
    [30019,"2013-10-08T14:00:00","59","ND","ND","ND","ND","ND","1.5","68.2","30.8","47.2","703.3","0"],
    [30020,"2013-10-08T15:00:00","56","ND","ND","ND","ND","ND","1.2","8","30.9","47.2","295.5","0"],
    [30021,"2013-10-08T16:00:00","48","ND","ND","ND","ND","ND","1.5","289.8","30.1","49.5","212.7","0"],
    [30022,"2013-10-08T17:00:00","43","ND","ND","ND","ND","ND","0.5","133.2","30.1","48.4","150.4","0"],
    [30023,"2013-10-08T18:00:00","38","ND","ND","ND","ND","ND","1.5","255.9","28.9","51.4","38.2","0"],
    [30024,"2013-10-08T19:00:00","38","ND","ND","ND","ND","ND","1.5","240.8","27.9","52.7","0","0"],
    [30025,"2013-10-08T20:00:00","40","ND","ND","ND","ND","ND","0.3","220.9","27.2","54.4","0","0"],
    [30026,"2013-10-08T21:00:00","48","ND","ND","ND","ND","ND","0.6","185.1","26.6","57.3","0","0"],
    [30027,"2013-10-08T22:00:00","78","ND","ND","ND","ND","ND","0.5","144.1","25.3","64","0","0"],
    [30028,"2013-10-08T23:00:00","69","ND","ND","ND","ND","ND","0.4","148.5","24.8","67","0","0"],
    [30029,"2013-10-09T00:00:00","17","ND","ND","ND","ND","ND","0.5","126.6","23.7","72","0","0"],
    [30030,"2013-10-09T01:00:00","31","ND","ND","ND","ND","ND","0.2","297.6","23.1","74.4","0","0"],
    [30031,"2013-10-09T02:00:00","35","ND","ND","ND","ND","ND","0.3","39","22.7","76.7","0","0"],
    [30032,"2013-10-09T03:00:00","43","ND","ND","ND","ND","ND","0.6","8.2","21.9","80.2","0","0"],
    [30033,"2013-10-09T04:00:00","45","ND","ND","ND","ND","ND","0.5","263.4","22.1","79.7","0","0"],
    [30034,"2013-10-09T05:00:00","51","ND","ND","ND","ND","ND","0.4","265.2","22.3","79.1","0","0"],
    [30035,"2013-10-09T06:00:00","55","ND","ND","ND","ND","ND","0.3","63.1","21.9","80.7","0","0"],
    [30036,"2013-10-09T07:00:00","76","ND","ND","ND","ND","ND","0.2","283.3","21.8","81.5","25.9","0"],
    [30037,"2013-10-09T08:00:00","76","ND","ND","ND","ND","ND","0.7","175","22.9","75.2","151.5","0"],
    [30038,"2013-10-09T09:00:00","63","ND","ND","ND","ND","ND","0.5","142.4","25.4","63.9","487.1","0"],
    [30039,"2013-10-09T10:00:00","69","ND","ND","ND","ND","ND","1.5","125.6","27.1","57.4","670.8","0"],
    [30040,"2013-10-09T11:00:00","48","ND","ND","ND","ND","ND","1.3","91.1","28.5","52.6","875.8","0"],
    [30041,"2013-10-09T12:00:00","49","ND","ND","ND","ND","ND","1.5","106.5","29.7","49.1","858.5","0"],
    [30042,"2013-10-09T13:00:00","58","ND","ND","ND","ND","ND","1.3","121.9","30.3","47.5","656.3","0"],
    [30043,"2013-10-09T14:00:00","61","ND","ND","ND","ND","ND","1.4","86.4","30.5","47.8","420.8","0"],
    [30044,"2013-10-09T15:00:00","54","ND","ND","ND","ND","ND","0.7","255","30.8","47.5","441.3","0"],
    [30045,"2013-10-09T16:00:00","21","ND","ND","ND","ND","ND","2.9","272.9","30.6","46.1","357.3","0"],
    [30046,"2013-10-09T17:00:00","28","ND","ND","ND","ND","ND","3.2","265.1","30","46.6","227.3","0"],
    [30047,"2013-10-09T18:00:00","21","ND","ND","ND","ND","ND","1.6","269","28.9","47.8","26.7","0"],
    [30048,"2013-10-09T19:00:00","38","ND","ND","ND","ND","ND","1","240.8","28","51","0","0"],
    [30049,"2013-10-09T20:00:00","81","ND","ND","ND","ND","ND","0.5","91.7","27.7","52.3","0","0"],
    [30050,"2013-10-09T21:00:00","66","ND","ND","ND","ND","ND","1.2","98.4","27","56.1","0","0"],
    [30051,"2013-10-09T22:00:00","48","ND","ND","ND","ND","ND","1.6","146","26.3","59","0","0"],
    [30052,"2013-10-09T23:00:00","36","ND","ND","ND","ND","ND","0.6","168.1","25.7","62.6","0","0"],
    [30053,"2013-10-10T00:00:00","19","ND","ND","ND","ND","ND","0.4","127.6","24.8","67","0","0"],
    [30054,"2013-10-10T01:00:00","24","ND","ND","ND","ND","ND","0.1","119.4","24.4","69.2","0","0"],
    [30055,"2013-10-10T02:00:00","30","ND","ND","ND","ND","ND","0.7","115.4","23.9","71.8","0","0"],
    [30056,"2013-10-10T03:00:00","46","ND","ND","ND","ND","ND","0.2","237.3","23.6","73.5","0","0"],
    [30057,"2013-10-10T04:00:00","56","ND","ND","ND","ND","ND","0.2","88.3","23.1","76.3","0","0"],
    [30058,"2013-10-10T05:00:00","55","ND","ND","ND","ND","ND","0.4","41.6","23.2","76.4","0","0"],
    [30059,"2013-10-10T06:00:00","73","ND","ND","ND","ND","ND","0.2","348.8","22.5","80","0","0"],
    [30060,"2013-10-10T07:00:00","103","ND","ND","ND","ND","ND","0.8","46.9","22.6","79.9","30","0"],
    [30061,"2013-10-10T08:00:00","113","ND","ND","ND","ND","ND","0.5","60.4","24.2","72.8","174.4","0"],
    [30062,"2013-10-10T09:00:00","76","ND","ND","ND","ND","ND","0.8","49.4","24.9","69.4","275.2","0"],
    [30063,"2013-10-10T10:00:00","55","ND","ND","ND","ND","ND","0.4","73","26.4","62.9","426.8","0"],
    [30064,"2013-10-10T11:00:00","43","ND","ND","ND","ND","ND","1.5","125.9","27.8","56.8","753.1","0"],
    [30065,"2013-10-10T12:00:00","42","ND","ND","ND","ND","ND","0.9","291.4","28.3","53.7","366.7","0"],
    [30066,"2013-10-10T13:00:00","18","ND","ND","ND","ND","ND","1.9","270.5","28.2","51.5","232.9","0"],
    [30067,"2013-10-10T14:00:00","15","ND","ND","ND","ND","ND","2.8","233.4","23.5","78.5","54.2","17.02"],
    [30068,"2013-10-10T15:00:00","36","ND","ND","ND","ND","ND","1.3","343.6","23.5","77.4","85.8","0.51"],
    [30069,"2013-10-10T16:00:00","30","ND","ND","ND","ND","ND","0.7","53.6","24.5","70.6","82.2","0"],
    [30070,"2013-10-10T17:00:00","33","ND","ND","ND","ND","ND","1.1","109.2","25.1","67.8","92.9","0"],
    [30071,"2013-10-10T18:00:00","36","ND","ND","ND","ND","ND","1","157.4","24.6","71","25.8","0"],
    [30072,"2013-10-10T19:00:00","29","ND","ND","ND","ND","ND","1.3","180.4","24.1","71.1","0","0"],
    [30073,"2013-10-10T20:00:00","44","ND","ND","ND","ND","ND","2.6","192.6","23.8","72.2","0","0"],
    [30074,"2013-10-10T21:00:00","26","ND","ND","ND","ND","ND","2.5","176.2","23.2","74.3","0","0"],
    [30075,"2013-10-10T22:00:00","25","ND","ND","ND","ND","ND","1.2","173.8","23","75.3","0","0"],
    [30076,"2013-10-10T23:00:00","18","ND","ND","ND","ND","ND","0.2","31.4","22.6","77.4","0","0"],
    [30077,"2013-10-11T00:00:00","43","ND","ND","ND","ND","ND","0.5","354.2","22.2","83.6","0","0"],
    [30078,"2013-10-11T01:00:00","34","ND","ND","ND","ND","ND","0.7","44","21.5","86.9","0","0"],
    [30079,"2013-10-11T02:00:00","37","ND","ND","ND","ND","ND","0.5","112.6","21.3","89.7","0","0"],
    [30080,"2013-10-11T03:00:00","28","ND","ND","ND","ND","ND","0.5","174.8","21.1","90.3","0","0"],
    [30081,"2013-10-11T04:00:00","40","ND","ND","ND","ND","ND","0.4","248.6","21.1","90.5","0","0"],
    [30082,"2013-10-11T05:00:00","50","ND","ND","ND","ND","ND","0.3","271.5","21","89.6","0","0"],
    [30083,"2013-10-11T06:00:00","44","ND","ND","ND","ND","ND","0.2","155.4","21.5","86.1","0","0"],
    [30084,"2013-10-11T07:00:00","69","ND","ND","ND","ND","ND","0.6","33.9","21.6","86.1","34.4","0"],
    [30085,"2013-10-11T08:00:00","80","ND","ND","ND","ND","ND","1","16.5","22.3","84","231.2","0"],
    [30086,"2013-10-11T09:00:00","74","ND","ND","ND","ND","ND","1.4","67.7","23.9","76.4","424.9","0"],
    [30087,"2013-10-11T10:00:00","45","ND","ND","ND","ND","ND","1.5","68.7","25.4","67.5","848.2","0"],
    [30088,"2013-10-11T11:00:00","32","ND","ND","ND","ND","ND","1.7","45.3","26.7","61.8","833.7","0"],
    [30089,"2013-10-11T12:00:00","38","ND","ND","ND","ND","ND","0.9","267.8","27.2","60.3","423.7","0"],
    [30090,"2013-10-11T13:00:00","37","ND","ND","ND","ND","ND","0.6","119.4","28.5","54.9","694.8","0"],
    [30091,"2013-10-11T14:00:00","14","ND","ND","ND","ND","ND","1.3","90.9","29.4","52.4","659.3","0"],
    [30092,"2013-10-11T15:00:00","24","ND","ND","ND","ND","ND","0.8","137.5","30.3","48.5","488.1","0"],
    [30093,"2013-10-11T16:00:00","25","ND","ND","ND","ND","ND","0.4","164.5","30.1","47.9","223.9","0"],
    [30094,"2013-10-11T17:00:00","27","ND","ND","ND","ND","ND","2","262.2","28.5","54.7","83","0"],
    [30095,"2013-10-11T18:00:00","29","ND","ND","ND","ND","ND","1.4","253.8","27.5","57.3","4.3","0"],
    [30096,"2013-10-11T19:00:00","17","ND","ND","ND","ND","ND","0.3","218.4","26.7","58.8","0","0"],
    [30097,"2013-10-11T20:00:00","43","ND","ND","ND","ND","ND","0.5","84.7","26.7","59.1","0","0"],
    [30098,"2013-10-11T21:00:00","71","ND","ND","ND","ND","ND","0.2","242","26.3","60.9","0","0"],
    [30099,"2013-10-11T22:00:00","25","ND","ND","ND","ND","ND","0.7","114.5","26.1","61.4","0","0"],
    [30100,"2013-10-11T23:00:00","42","ND","ND","ND","ND","ND","0.4","171.9","25.7","64.7","0","0"],
    [30101,"2013-10-12T00:00:00","60","ND","ND","ND","ND","ND","0.8","146.6","25.3","67.3","0","0"],
    [30102,"2013-10-12T01:00:00","31","ND","ND","ND","ND","ND","1","21.2","23.1","81.9","0","16"],
    [30103,"2013-10-12T02:00:00","21","ND","ND","ND","ND","ND","0.5","201.7","22","91.6","0","1.78"],
    [30104,"2013-10-12T03:00:00","3","ND","ND","ND","ND","ND","0.8","73.5","22","87.5","0","0"],
    [30105,"2013-10-12T04:00:00","ND","ND","ND","ND","ND","ND","0.9","122.8","21.4","88.1","0","1.02"],
    [30106,"2013-10-12T05:00:00","5","ND","ND","ND","ND","ND","1","139.5","20.2","94.2","0","9.65"],
    [30107,"2013-10-12T06:00:00","7","ND","ND","ND","ND","ND","1.6","144.2","19.9","96.3","0","4.57"],
    [30108,"2013-10-12T07:00:00","2","ND","ND","ND","ND","ND","0.8","215.1","20.1","93.6","21.6","0.25"],
    [30109,"2013-10-12T08:00:00","2","ND","ND","ND","ND","ND","0.2","225","20.7","90.4","33.2","0"],
    [30110,"2013-10-12T09:00:00","24","ND","ND","ND","ND","ND","0.8","352.9","21.5","87.1","116.1","0"],
    [30111,"2013-10-12T10:00:00","14","ND","ND","ND","ND","ND","1.9","49","21.8","89.5","332.3","0"],
    [30112,"2013-10-12T11:00:00","14","ND","ND","ND","ND","ND","1.4","24.4","23.4","79.8","570","0"],
    [30113,"2013-10-12T12:00:00","32","ND","ND","ND","ND","ND","1.1","18.4","25.3","70.1","732.5","0"],
    [30114,"2013-10-12T13:00:00","2","ND","ND","ND","ND","ND","1.7","53.4","26.5","65.2","675.3","0"],
    [30115,"2013-10-12T14:00:00","9","ND","ND","ND","ND","ND","1.1","47","27.4","61.4","712","0"],
    [30116,"2013-10-12T15:00:00","32","ND","ND","ND","ND","ND","0.3","349.1","28.7","55.5","621.4","0"],
    [30117,"2013-10-12T16:00:00","25","ND","ND","ND","ND","ND","2.1","152.1","28","57.2","153.8","2.03"],
    [30118,"2013-10-12T17:00:00","15","ND","ND","ND","ND","ND","2.3","198.1","23.8","84.1","121.1","8.89"],
    [30119,"2013-10-12T18:00:00","15","ND","ND","ND","ND","ND","2","233.1","23.6","86.1","31.9","0.25"],
    [30120,"2013-10-12T19:00:00","21","ND","ND","ND","ND","ND","1.1","255.9","23.5","78.2","0","0"],
    [30121,"2013-10-12T20:00:00","36","ND","ND","ND","ND","ND","0.8","229.8","22.9","78.5","0","0"],
    [30122,"2013-10-12T21:00:00","44","ND","ND","ND","ND","ND","0.4","90.9","23","77.6","0","0"],
    [30123,"2013-10-12T22:00:00","48","ND","ND","ND","ND","ND","0.5","207.9","22.6","82.7","0","0"],
    [30124,"2013-10-12T23:00:00","35","ND","ND","ND","ND","ND","0","301","22.3","82.7","0","0"],
    [30125,"2013-10-13T00:00:00","28","ND","ND","ND","ND","ND","0.2","170.9","22.4","81.4","0","0"],
    [30126,"2013-10-13T01:00:00","9","ND","ND","ND","ND","ND","0.5","69.6","22.2","80.9","0","0"],
    [30127,"2013-10-13T02:00:00","9","ND","ND","ND","ND","ND","0.6","349.8","21.4","85.6","0","0"],
    [30128,"2013-10-13T03:00:00","15","ND","ND","ND","ND","ND","0.4","63.7","21.3","86.5","0","0"],
    [30129,"2013-10-13T04:00:00","9","ND","ND","ND","ND","ND","0.3","157.3","20.9","89.7","0","0.76"],
    [30130,"2013-10-13T05:00:00","12","ND","ND","ND","ND","ND","0.7","203.3","20.7","93","0","0"],
    [30131,"2013-10-13T06:00:00","18","ND","ND","ND","ND","ND","0.5","190.2","20.6","94.4","0","0"],
    [30132,"2013-10-13T07:00:00","24","ND","ND","ND","ND","ND","0.4","321.4","20.7","92.9","34.8","0.25"],
    [30133,"2013-10-13T08:00:00","35","ND","ND","ND","ND","ND","0.5","76.4","21.7","88.2","127.6","0"],
    [30134,"2013-10-13T09:00:00","45","ND","ND","ND","ND","ND","0.6","112.6","22.6","82.9","249.8","0"],
    [30135,"2013-10-13T10:00:00","38","ND","ND","ND","ND","ND","1.3","163.3","24.5","72.6","624.4","0"],
    [30136,"2013-10-13T11:00:00","36","ND","ND","ND","ND","ND","1.3","142.6","26.3","63.3","754.6","0"],
    [30137,"2013-10-13T12:00:00","27","ND","ND","ND","ND","ND","0.8","126","27.5","58.8","684.2","0"],
    [30138,"2013-10-13T13:00:00","18","ND","ND","ND","ND","ND","0.8","226.8","27.6","57.8","241.4","0"],
    [30139,"2013-10-13T14:00:00","24","ND","ND","ND","ND","ND","1","1.7","26.3","66.3","155.8","11.43"],
    [30140,"2013-10-13T15:00:00","13","ND","ND","ND","ND","ND","0.7","181.9","22.1","92.5","25.8","14.99"],
    [30141,"2013-10-13T16:00:00","17","ND","ND","ND","ND","ND","0.1","27.6","22.6","92","38.6","2.03"],
    [30142,"2013-10-13T17:00:00","12","ND","ND","ND","ND","ND","0.9","140.5","23.2","86.7","37.2","0"],
    [30143,"2013-10-13T18:00:00","21","ND","ND","ND","ND","ND","0.2","52.1","23","88.2","11.5","0"],
    [30144,"2013-10-13T19:00:00","18","ND","ND","ND","ND","ND","0.6","204.2","23","84.3","0","0.25"],
    [30145,"2013-10-13T20:00:00","13","ND","ND","ND","ND","ND","0.7","183.8","22.5","84.1","0","0"],
    [30146,"2013-10-13T21:00:00","12","ND","ND","ND","ND","ND","0.2","177.3","22","88.6","0","0"],
    [30147,"2013-10-13T22:00:00","19","ND","ND","ND","ND","ND","0.1","142.8","21.9","90.3","0","0"],
    [30148,"2013-10-13T23:00:00","15","ND","ND","ND","ND","ND","0.2","214","21.7","91.3","0","0"],
    [30149,"2013-10-14T00:00:00","13","ND","ND","ND","ND","ND","0.9","172.3","21.8","90.1","0","0"],
    [30150,"2013-10-14T01:00:00","6","ND","ND","ND","ND","ND","1.1","174.5","21.3","90.9","0","0.25"],
    [30151,"2013-10-14T02:00:00","3","ND","ND","ND","ND","ND","1.2","172.7","20.9","93.5","0","0.51"],
    [30152,"2013-10-14T03:00:00","4","ND","ND","ND","ND","ND","1.1","154.1","21","93.9","0","0"],
    [30153,"2013-10-14T04:00:00","7","ND","ND","ND","ND","ND","1.3","174.9","20.9","94.7","0","0"],
    [30154,"2013-10-14T05:00:00","9","ND","ND","ND","ND","ND","0.8","163.5","21","93.8","0","0"],
    [30155,"2013-10-14T06:00:00","14","ND","ND","ND","ND","ND","0.3","63.9","20.9","94.1","0","0"],
    [30156,"2013-10-14T07:00:00","17","ND","ND","ND","ND","ND","0.5","53","20.8","94.9","12.6","0"],
    [30157,"2013-10-14T08:00:00","14","ND","ND","ND","ND","ND","0.2","101.1","21","94","57.5","0"],
    [30158,"2013-10-14T09:00:00","23","ND","ND","ND","ND","ND","0.3","28.7","21.7","89.5","102.5","0"],
    [30159,"2013-10-14T10:00:00","41","ND","ND","ND","ND","ND","0.5","58.1","22.6","85.6","257.9","0"],
    [30160,"2013-10-14T11:00:00","31","ND","ND","ND","ND","ND","0.5","24.4","24.2","75.6","429.5","0"],
    [30161,"2013-10-14T12:00:00","33","ND","ND","ND","ND","ND","0.2","51.8","25.5","69.1","576.4","0"],
    [30162,"2013-10-14T13:00:00","34","ND","ND","ND","ND","ND","1","79.8","26.4","64.6","352","0"],
    [30163,"2013-10-14T14:00:00","20","ND","ND","ND","ND","ND","1.6","286.3","25.6","70","250.3","0"],
    [30164,"2013-10-14T15:00:00","36","ND","ND","ND","ND","ND","1.1","287.1","26.3","66","197.2","0"],
    [30165,"2013-10-14T16:00:00","32","ND","ND","ND","ND","ND","1","152.1","24.5","75.2","15","25.15"],
    [30166,"2013-10-14T17:00:00","6","ND","ND","ND","ND","ND","0.9","323.8","20.1","98.6","0","36.58"],
    [30167,"2013-10-14T18:00:00","11","ND","ND","ND","ND","ND","0.9","4.5","20","99.6","0","5.84"],
    [30168,"2013-10-14T19:00:00","11","ND","ND","ND","ND","ND","0.5","9","20.3","98.6","0","3.05"],
    [30169,"2013-10-14T20:00:00","19","ND","ND","ND","ND","ND","0.9","138.6","20.5","96.1","0","2.29"],
    [30170,"2013-10-14T21:00:00","12","ND","ND","ND","ND","ND","0.2","289.6","20.5","95.2","0","0.25"],
    [30171,"2013-10-14T22:00:00","19","ND","ND","ND","ND","ND","0.1","164.5","20.7","95.1","0","0"],
    [30172,"2013-10-14T23:00:00","17","ND","ND","ND","ND","ND","0.7","229.8","20.6","95.1","0","0"],
    [30173,"2013-10-15T00:00:00","18","ND","ND","ND","ND","ND","0.4","179.5","20.6","93.6","0","0.25"],
    [30174,"2013-10-15T01:00:00","7","ND","ND","ND","ND","ND","0.3","29.6","20.5","93.8","0","0"],
    [30175,"2013-10-15T02:00:00","44","ND","ND","ND","ND","ND","0.6","28.1","20","96.6","0","0"],
    [30176,"2013-10-15T03:00:00","37","ND","ND","ND","ND","ND","0.3","356.6","19.9","97.7","0","0"],
    [30177,"2013-10-15T04:00:00","45","ND","ND","ND","ND","ND","0.4","21.9","19.8","97.9","0","0"],
    [30178,"2013-10-15T05:00:00","48","ND","ND","ND","ND","ND","0.3","10.5","19.8","98","0","0"],
    [30179,"2013-10-15T06:00:00","40","ND","ND","ND","ND","ND","0.4","38","19.9","97.8","0","0"],
    [30180,"2013-10-15T07:00:00","50","ND","ND","ND","ND","ND","0.3","61.4","20.1","97.2","7.4","0"],
    [30181,"2013-10-15T08:00:00","65","ND","ND","ND","ND","ND","0.2","69.8","20.5","95.7","27.1","0.25"],
    [30182,"2013-10-15T09:00:00","67","ND","ND","ND","ND","ND","0.1","43.3","20.9","93.7","86.1","0"],
    [30183,"2013-10-15T10:00:00","71","ND","ND","ND","ND","ND","0.6","45.6","21.7","88.3","127.1","0"],
    [30184,"2013-10-15T11:00:00","61","ND","ND","ND","ND","ND","0.3","131","22.7","82.7","281.9","0"],
    [30185,"2013-10-15T12:00:00","62","ND","ND","ND","ND","ND","0.3","300.7","24.2","74.3","334.2","0"],
    [30186,"2013-10-15T13:00:00","81","ND","ND","ND","ND","ND","0.7","46.3","25.1","69.8","505.2","0"],
    [30187,"2013-10-15T14:00:00","29","ND","ND","ND","ND","ND","0.3","44","26.5","59.4","543.5","0"],
    [30188,"2013-10-15T15:00:00","23","ND","ND","ND","ND","ND","0.5","217.5","27.8","55.8","546.4","0"],
    [30189,"2013-10-15T16:00:00","38","ND","ND","ND","ND","ND","0.8","239.8","27.8","55.7","224.8","0"],
    [30190,"2013-10-15T17:00:00","44","ND","ND","ND","ND","ND","1.3","149.1","27.6","56.2","67.2","0"],
    [30191,"2013-10-15T18:00:00","13","ND","ND","ND","ND","ND","1.9","297.1","25.8","61.8","13.3","0"],
    [30192,"2013-10-15T19:00:00","18","ND","ND","ND","ND","ND","0.5","94.6","25.1","64.5","0","0"],
    [30193,"2013-10-15T20:00:00","34","ND","ND","ND","ND","ND","0.1","359.8","24.4","69.4","0","0"],
    [30194,"2013-10-15T21:00:00","49","ND","ND","ND","ND","ND","0.7","178.2","23.7","74","0","0"],
    [30195,"2013-10-15T22:00:00","46","ND","ND","ND","ND","ND","0.8","134.2","23.2","78.3","0","0"],
    [30196,"2013-10-15T23:00:00","21","ND","ND","ND","ND","ND","1.6","118.1","22.9","80.1","0","0"],
    [30197,"2013-10-16T00:00:00","22","ND","ND","ND","ND","ND","0.3","65.9","21.9","83.7","0","0"],
    [30198,"2013-10-16T01:00:00","16","ND","ND","ND","ND","ND","0.4","69.5","21","86","0","0"],
    [30199,"2013-10-16T02:00:00","ND","ND","ND","ND","ND","ND","0.1","36.6","20.6","89.2","0","0"],
    [30200,"2013-10-16T03:00:00","30","ND","ND","ND","ND","ND","0.1","239","20.6","89.7","0","0"],
    [30201,"2013-10-16T04:00:00","23","ND","ND","ND","ND","ND","0.2","131.7","20.9","88.3","0","0"],
    [30202,"2013-10-16T05:00:00","28","ND","ND","ND","ND","ND","0.2","37.1","20.9","87.7","0","0"],
    [30203,"2013-10-16T06:00:00","40","ND","ND","ND","ND","ND","0.1","36.8","20.5","89.7","0","0"],
    [30204,"2013-10-16T07:00:00","55","ND","ND","ND","ND","ND","0.1","263.8","20.7","89","26.8","0"],
    [30205,"2013-10-16T08:00:00","60","ND","ND","ND","ND","ND","0.4","154.4","21.9","83.6","144.2","0"],
    [30206,"2013-10-16T09:00:00","65","ND","ND","ND","ND","ND","0.9","89.3","22.8","80.5","165.4","0"],
    [30207,"2013-10-16T10:00:00","65","ND","ND","ND","ND","ND","0.7","76.4","23.3","78.5","179.8","0"],
    [30208,"2013-10-16T11:00:00","64","ND","ND","ND","ND","ND","0.5","75.1","24.5","71.8","380.8","0"],
    [30209,"2013-10-16T12:00:00","48","ND","ND","ND","ND","ND","1.1","49.1","25.6","67.1","490.3","0"],
    [30210,"2013-10-16T13:00:00","38","ND","ND","ND","ND","ND","1.2","57.6","26.1","64.9","417.2","0"],
    [30211,"2013-10-16T14:00:00","35","ND","ND","ND","ND","ND","0.4","27.4","26.6","62.4","422.1","0"],
    [30212,"2013-10-16T15:00:00","27","ND","ND","ND","ND","ND","0.5","246.6","27.2","55.5","311","0"],
    [30213,"2013-10-16T16:00:00","32","ND","ND","ND","ND","ND","0.5","332","26.9","58.4","161","0"],
    [30214,"2013-10-16T17:00:00","20","ND","ND","ND","ND","ND","1.6","251.8","26.4","57.4","59.4","0"],
    [30215,"2013-10-16T18:00:00","33","ND","ND","ND","ND","ND","0.4","5.3","25.6","60.5","7.8","0"],
    [30216,"2013-10-16T19:00:00","40","ND","ND","ND","ND","ND","1","38.8","23.6","75.1","0","0"],
    [30217,"2013-10-16T20:00:00","43","ND","ND","ND","ND","ND","1","36.4","22.2","84.1","0","0.25"],
    [30218,"2013-10-16T21:00:00","29","ND","ND","ND","ND","ND","0.9","348.4","21.5","90.2","0","0.25"],
    [30219,"2013-10-16T22:00:00","37","ND","ND","ND","ND","ND","0.2","255.4","21.8","91.4","0","0.76"],
    [30220,"2013-10-16T23:00:00","32","ND","ND","ND","ND","ND","0.4","292","21.6","92.5","0","1.27"],
    [30221,"2013-10-17T00:00:00","15","ND","ND","ND","ND","ND","0.6","261.7","19.8","92.3","0","18.8"],
    [30222,"2013-10-17T01:00:00","17","ND","ND","ND","ND","ND","0.4","247.8","19.5","95","0","4.83"],
    [30223,"2013-10-17T02:00:00","19","ND","ND","ND","ND","ND","0.3","300.1","19.4","95","0","6.86"],
    [30224,"2013-10-17T03:00:00","14","ND","ND","ND","ND","ND","0.2","230.4","19.5","95.8","0","2.79"],
    [30225,"2013-10-17T04:00:00","16","ND","ND","ND","ND","ND","0.2","238.3","19.6","96.4","0","3.3"],
    [30226,"2013-10-17T05:00:00","22","ND","ND","ND","ND","ND","0.1","12.3","19.5","96.4","0","0.51"],
    [30227,"2013-10-17T06:00:00","27","ND","ND","ND","ND","ND","0","244.3","19.7","96.1","0.1","0.25"],
    [30228,"2013-10-17T07:00:00","29","ND","ND","ND","ND","ND","0.3","3.9","20","95.5","28.6","0"],
    [30229,"2013-10-17T08:00:00","52","ND","ND","ND","ND","ND","0.9","38.3","20.1","96","45.6","0"],
    [30230,"2013-10-17T09:00:00","70","ND","ND","ND","ND","ND","0.1","165.5","20.7","93.2","67.5","0"],
    [30231,"2013-10-17T10:00:00","ND","ND","ND","ND","ND","ND","ND","ND","ND","ND","ND","ND"],
    [30232,"2013-10-17T11:00:00","ND","ND","ND","ND","ND","ND","ND","ND","ND","ND","ND","ND"],
    [30233,"2013-10-17T12:00:00","ND","ND","ND","ND","ND","ND","ND","ND","ND","ND","ND","ND"],
    [30234,"2013-10-17T13:00:00","ND","ND","ND","ND","ND","ND","ND","ND","ND","ND","ND","ND"],
    [30235,"2013-10-17T14:00:00","ND","ND","ND","ND","ND","ND","ND","ND","ND","ND","ND","ND"],
    [30236,"2013-10-17T15:00:00","ND","ND","ND","ND","ND","ND","ND","ND","ND","ND","ND","ND"],
    [30237,"2013-10-17T16:00:00","ND","ND","ND","ND","ND","ND","ND","ND","ND","ND","ND","ND"],
    [30238,"2013-10-17T17:00:00","56","ND","ND","ND","ND","ND","0.2","264.3","27.7","58.1","95.5","0"],
    [30239,"2013-10-17T18:00:00","62","ND","ND","ND","ND","ND","0.5","285.6","27","62.2","17.8","0"],
    [30240,"2013-10-17T19:00:00","50","ND","ND","ND","ND","ND","0.5","289.1","25.6","66.3","0","0"],
    [30241,"2013-10-17T20:00:00","69","ND","ND","ND","ND","ND","0.1","96.1","25","70.6","0","0"],
    [30242,"2013-10-17T21:00:00","53","ND","ND","ND","ND","ND","0.6","246.3","24.3","73.9","0","0"],
    [30243,"2013-10-17T22:00:00","70","ND","ND","ND","ND","ND","0.4","164.3","24.1","74.3","0","0"],
    [30244,"2013-10-17T23:00:00","54","ND","ND","ND","ND","ND","0.1","198.9","23.6","77","0","0"],
    [30245,"2013-10-18T00:00:00","57","ND","ND","ND","ND","ND","0.4","59.9","22.9","81.3","0","0"],
    [30246,"2013-10-18T01:00:00","38","ND","ND","ND","ND","ND","0","236.6","22.4","85.4","0","0"],
    [30247,"2013-10-18T02:00:00","51","ND","ND","ND","ND","ND","0","234.8","22.4","85.7","0","0"],
    [30248,"2013-10-18T03:00:00","49","ND","ND","ND","ND","ND","0.2","53.2","22.3","86.3","0","0"],
    [30249,"2013-10-18T04:00:00","49","ND","ND","ND","ND","ND","0.3","52","21.9","85.9","0","0"],
    [30250,"2013-10-18T05:00:00","40","ND","ND","ND","ND","ND","0.3","90.8","21.7","85.7","0","0"],
    [30251,"2013-10-18T06:00:00","54","ND","ND","ND","ND","ND","0.2","113.2","21.8","85","0.5","0"],
    [30252,"2013-10-18T07:00:00","97","ND","ND","ND","ND","ND","0.2","101.2","22.2","84.5","48.6","0"],
    [30253,"2013-10-18T08:00:00","58","ND","ND","ND","ND","ND","1.7","147.6","24","74.8","269.1","0"],
    [30254,"2013-10-18T09:00:00","50","ND","ND","ND","ND","ND","2.5","150.8","25.6","67.5","493","0"],
    [30255,"2013-10-18T10:00:00","49","ND","ND","ND","ND","ND","1.2","146.3","27.1","62.3","608.6","0"],
    [30256,"2013-10-18T11:00:00","51","ND","ND","ND","ND","ND","1","63.9","27.3","62.5","334.9","0"],
    [30257,"2013-10-18T12:00:00","52","ND","ND","ND","ND","ND","0.8","74.2","28.6","56.4","703.2","0"],
    [30258,"2013-10-18T13:00:00","49","ND","ND","ND","ND","ND","0.5","96","29.1","54.7","595.6","0"],
    [30259,"2013-10-18T14:00:00","43","ND","ND","ND","ND","ND","0.6","250.7","30.3","51","598.5","0"],
    [30260,"2013-10-18T15:00:00","14","ND","ND","ND","ND","ND","1.4","267.3","31.3","45.2","616.5","0"],
    [30261,"2013-10-18T16:00:00","12","ND","ND","ND","ND","ND","3.5","275.2","30.9","44","500.5","0"],
    [30262,"2013-10-18T17:00:00","13","ND","ND","ND","ND","ND","2.9","277.9","29.4","47.4","103.8","0"],
    [30263,"2013-10-18T18:00:00","48","ND","ND","ND","ND","ND","1","62.1","26.3","65.7","0","0"],
    [30264,"2013-10-18T19:00:00","49","ND","ND","ND","ND","ND","0.2","131.1","24.4","77.1","0","0"],
    [30265,"2013-10-18T20:00:00","65","ND","ND","ND","ND","ND","0.7","160.1","24.8","73.8","0","0"],
    [30266,"2013-10-18T21:00:00","73","ND","ND","ND","ND","ND","0.5","80.6","24.6","73.9","0","0"],
    [30267,"2013-10-18T22:00:00","62","ND","ND","ND","ND","ND","0.9","273.5","23","80","0","0"],
    [30268,"2013-10-18T23:00:00","38","ND","ND","ND","ND","ND","0.5","238.5","23.1","79.6","0","0"],
    [30269,"2013-10-19T00:00:00","36","ND","ND","ND","ND","ND","0.1","321.6","22.8","79.7","0","0"],
    [30270,"2013-10-19T01:00:00","90","ND","ND","ND","ND","ND","0.9","28.4","21.9","84.6","0","0"],
    [30271,"2013-10-19T02:00:00","73","ND","ND","ND","ND","ND","0.4","329","21.2","87.4","0","0"],
    [30272,"2013-10-19T03:00:00","51","ND","ND","ND","ND","ND","0.4","261.1","21.2","86.7","0","0"],
    [30273,"2013-10-19T04:00:00","50","ND","ND","ND","ND","ND","0.5","224.2","21","87.4","0","0"],
    [30274,"2013-10-19T05:00:00","41","ND","ND","ND","ND","ND","0.2","199.3","21.1","86","0","0"],
    [30275,"2013-10-19T06:00:00","80","ND","ND","ND","ND","ND","0.4","299.5","21.1","87.4","0","0"],
    [30276,"2013-10-19T07:00:00","72","ND","ND","ND","ND","ND","0.6","165.9","21.9","83.9","72.1","0"],
    [30277,"2013-10-19T08:00:00","69","ND","ND","ND","ND","ND","1.5","143.4","23.7","74.7","248.8","0"],
    [30278,"2013-10-19T09:00:00","58","ND","ND","ND","ND","ND","1.5","115.2","24.7","71.4","546.1","0"],
    [30279,"2013-10-19T10:00:00","61","ND","ND","ND","ND","ND","1","149.1","25.8","66.3","504.8","0"],
    [30280,"2013-10-19T11:00:00","64","ND","ND","ND","ND","ND","0.9","165.6","27.5","59.4","761.2","0"],
    [30281,"2013-10-19T12:00:00","63","ND","ND","ND","ND","ND","1.2","109.8","28.7","55","850.5","0"],
    [30282,"2013-10-19T13:00:00","68","ND","ND","ND","ND","ND","0.9","58.1","29.2","54.1","490.5","0"],
    [30283,"2013-10-19T14:00:00","60","ND","ND","ND","ND","ND","0.7","69.9","30.1","51.5","488.7","0"],
    [30284,"2013-10-19T15:00:00","37","ND","ND","ND","ND","ND","0.8","2.9","31.4","45.5","536.3","0"],
    [30285,"2013-10-19T16:00:00","11","ND","ND","ND","ND","ND","2.4","302.6","31.1","43.7","384.2","0"],
    [30286,"2013-10-19T17:00:00","10","ND","ND","ND","ND","ND","2.6","277.4","30.2","45","203.2","0"],
    [30287,"2013-10-19T18:00:00","15","ND","ND","ND","ND","ND","0.3","316","28.7","48","23.4","0"],
    [30288,"2013-10-19T19:00:00","31","ND","ND","ND","ND","ND","0.3","231.7","27.4","51.9","0","0"],
    [30289,"2013-10-19T20:00:00","50","ND","ND","ND","ND","ND","0.8","156.6","27","53.9","0","0"],
    [30290,"2013-10-19T21:00:00","59","ND","ND","ND","ND","ND","0.3","157.9","26","59.2","0","0"],
    [30291,"2013-10-19T22:00:00","59","ND","ND","ND","ND","ND","0.1","100.9","24.7","65.6","0","0"],
    [30292,"2013-10-19T23:00:00","57","ND","ND","ND","ND","ND","0.2","123.6","24.4","69","0","0"],
    [30293,"2013-10-20T00:00:00","39","ND","ND","ND","ND","ND","0.1","102.1","23.9","71.8","0","0"],
    [30294,"2013-10-20T01:00:00","23","ND","ND","ND","ND","ND","0.3","145.5","23.2","76.4","0","0"],
    [30295,"2013-10-20T02:00:00","46","ND","ND","ND","ND","ND","0.7","216.8","22.9","78","0","0"],
    [30296,"2013-10-20T03:00:00","54","ND","ND","ND","ND","ND","0.3","248.5","22.8","79","0","0"],
    [30297,"2013-10-20T04:00:00","65","ND","ND","ND","ND","ND","0.1","276.5","22.7","80.2","0","0"],
    [30298,"2013-10-20T05:00:00","53","ND","ND","ND","ND","ND","0.2","155.4","22.6","80","0","0"],
    [30299,"2013-10-20T06:00:00","70","ND","ND","ND","ND","ND","0.5","47.7","22.2","82.4","0","0"],
    [30300,"2013-10-20T07:00:00","62","ND","ND","ND","ND","ND","0.3","22.2","22","83.8","33.1","0"],
    [30301,"2013-10-20T08:00:00","85","ND","ND","ND","ND","ND","0.5","338","23.1","78.9","189.4","0"],
    [30302,"2013-10-20T09:00:00","59","ND","ND","ND","ND","ND","1","58.5","25","69.1","349.7","0"],
    [30303,"2013-10-20T10:00:00","50","ND","ND","ND","ND","ND","1.3","180.3","26.8","61.3","572.4","0"],
    [30304,"2013-10-20T11:00:00","34","ND","ND","ND","ND","ND","1.5","150","28.3","54.7","806.5","0"],
    [30305,"2013-10-20T12:00:00","39","ND","ND","ND","ND","ND","0.5","219.7","29.1","52.7","733","0"],
    [30306,"2013-10-20T13:00:00","27","ND","ND","ND","ND","ND","1.4","228.3","30.5","47.2","651.3","0"],
    [30307,"2013-10-20T14:00:00","10","ND","ND","ND","ND","ND","3.2","260.2","30.8","43.4","720.7","0"],
    [30308,"2013-10-20T15:00:00","15","ND","ND","ND","ND","ND","1.6","328.4","31.1","42.6","603.9","0"],
    [30309,"2013-10-20T16:00:00","15","ND","ND","ND","ND","ND","3.1","275.6","30.4","44.3","394.3","0"],
    [30310,"2013-10-20T17:00:00","8","ND","ND","ND","ND","ND","2.6","274.2","29.4","46.6","243.6","0"],
    [30311,"2013-10-20T18:00:00","8","ND","ND","ND","ND","ND","0.6","257.7","28.5","49","32.8","0"],
    [30312,"2013-10-20T19:00:00","6","ND","ND","ND","ND","ND","0.7","267.6","27.3","52.7","0","0"],
    [30313,"2013-10-20T20:00:00","15","ND","ND","ND","ND","ND","2.6","187.9","26","60.7","0","0"],
    [30314,"2013-10-20T21:00:00","18","ND","ND","ND","ND","ND","0.8","96.1","25.1","66.1","0","0"],
    [30315,"2013-10-20T22:00:00","22","ND","ND","ND","ND","ND","1.3","128.2","24","70.6","0","0"],
    [30316,"2013-10-20T23:00:00","36","ND","ND","ND","ND","ND","0.5","118.7","22.8","76.2","0","0"],
    [30317,"2013-10-21T00:00:00","43","ND","ND","ND","ND","ND","0.5","358.5","22.1","79.8","0","0"],
    [30318,"2013-10-21T01:00:00","40","ND","ND","ND","ND","ND","0.8","338.3","21.7","82.2","0","0"],
    [30319,"2013-10-21T02:00:00","50","ND","ND","ND","ND","ND","0.4","17.3","21.9","81.3","0","0"],
    [30320,"2013-10-21T03:00:00","31","ND","ND","ND","ND","ND","0.5","53.2","21.7","83.3","0","0"],
    [30321,"2013-10-21T04:00:00","30","ND","ND","ND","ND","ND","0.1","268.1","21.6","84","0","0"],
    [30322,"2013-10-21T05:00:00","21","ND","ND","ND","ND","ND","0.3","243.3","21.9","81.6","0","0"],
    [30323,"2013-10-21T06:00:00","50","ND","ND","ND","ND","ND","0.5","29.5","21.8","84.1","0","0"],
    [30324,"2013-10-21T07:00:00","95","ND","ND","ND","ND","ND","0.6","30.5","21.5","88.1","20.4","0"],
    [30325,"2013-10-21T08:00:00","69","ND","ND","ND","ND","ND","0.4","270.9","22.5","82.2","135.9","0"],
    [30326,"2013-10-21T09:00:00","63","ND","ND","ND","ND","ND","0.7","160.5","24.1","73","304.9","0"],
    [30327,"2013-10-21T10:00:00","72","ND","ND","ND","ND","ND","1.1","67.2","24.3","74.9","199","0"],
    [30328,"2013-10-21T11:00:00","59","ND","ND","ND","ND","ND","1","48.7","24.7","73.1","273","0"],
    [30329,"2013-10-21T12:00:00","59","ND","ND","ND","ND","ND","1.1","70.5","25.4","70.1","405.5","0"],
    [30330,"2013-10-21T13:00:00","50","ND","ND","ND","ND","ND","1","61.2","27.1","62.8","670.5","0"],
    [30331,"2013-10-21T14:00:00","43","ND","ND","ND","ND","ND","1.8","217.4","28.6","53.5","778","0"],
    [30332,"2013-10-21T15:00:00","10","ND","ND","ND","ND","ND","2.2","290.3","29.4","46.7","628.4","0"],
    [30333,"2013-10-21T16:00:00","11","ND","ND","ND","ND","ND","2.5","279","28.8","47.7","346.4","0"],
    [30334,"2013-10-21T17:00:00","10","ND","ND","ND","ND","ND","3","265.8","27.5","50.8","154","0"],
    [30335,"2013-10-21T18:00:00","8","ND","ND","ND","ND","ND","2.9","282.4","26.1","54.1","12.8","0"],
    [30336,"2013-10-21T19:00:00","12","ND","ND","ND","ND","ND","0.7","195.9","25.6","56.9","0","0"],
    [30337,"2013-10-21T20:00:00","7","ND","ND","ND","ND","ND","3.5","264.5","24.8","59.8","0","0"],
    [30338,"2013-10-21T21:00:00","3","ND","ND","ND","ND","ND","1.5","232.8","24.4","61.9","0","0"],
    [30339,"2013-10-21T22:00:00","6","ND","ND","ND","ND","ND","1.7","132.2","23","72.9","0","4.32"],
    [30340,"2013-10-21T23:00:00","7","ND","ND","ND","ND","ND","1.9","184","20","90.4","0","10.67"],
    [30341,"2013-10-22T00:00:00","4","ND","ND","ND","ND","ND","1.8","214.4","19.7","91.3","0","7.11"],
    [30342,"2013-10-22T01:00:00","ND","ND","ND","ND","ND","ND","1.2","195.8","19.4","92.3","0","18.03"],
    [30343,"2013-10-22T02:00:00","ND","ND","ND","ND","ND","ND","0.1","207.5","19","97.5","0","24.13"],
    [30344,"2013-10-22T03:00:00","12","ND","ND","ND","ND","ND","0.5","20.9","19.5","98.3","0","9.14"],
    [30345,"2013-10-22T04:00:00","17","ND","ND","ND","ND","ND","0.6","61","19.4","98.3","0","17.02"],
    [30346,"2013-10-22T05:00:00","11","ND","ND","ND","ND","ND","0.3","159.1","19.4","98.5","0","2.03"],
    [30347,"2013-10-22T06:00:00","14","ND","ND","ND","ND","ND","0.5","182.4","19.6","98.5","0","1.02"],
    [30348,"2013-10-22T07:00:00","12","ND","ND","ND","ND","ND","0.5","207.3","19.7","98.2","7","0"],
    [30349,"2013-10-22T08:00:00","20","ND","ND","ND","ND","ND","1.3","181.7","20","95.3","35.8","0.25"],
    [30350,"2013-10-22T09:00:00","16","ND","ND","ND","ND","ND","1","224.5","20.6","91.1","215.3","0"],
    [30351,"2013-10-22T10:00:00","22","ND","ND","ND","ND","ND","0.6","156.5","22.3","79.9","206.7","0"],
    [30352,"2013-10-22T11:00:00","34","ND","ND","ND","ND","ND","0.3","164.6","23.9","74.2","555.3","0"],
    [30353,"2013-10-22T12:00:00","27","ND","ND","ND","ND","ND","0.7","97.4","25.1","67.1","650.2","0"],
    [30354,"2013-10-22T13:00:00","34","ND","ND","ND","ND","ND","1.5","113.3","26.7","61.2","644.7","0"],
    [30355,"2013-10-22T14:00:00","41","ND","ND","ND","ND","ND","1.6","110.7","26.4","63.5","434.7","0"],
    [30356,"2013-10-22T15:00:00","35","ND","ND","ND","ND","ND","0.4","125.3","26.9","60.2","512.3","0"],
    [30357,"2013-10-22T16:00:00","51","ND","ND","ND","ND","ND","0.3","160.3","27.7","57.5","315.2","0"],
    [30358,"2013-10-22T17:00:00","62","ND","ND","ND","ND","ND","1.1","266","27.8","58.4","173.3","0"],
    [30359,"2013-10-22T18:00:00","75","ND","ND","ND","ND","ND","1.1","254.2","26.8","63.8","20.9","0"],
    [30360,"2013-10-22T19:00:00","60","ND","ND","ND","ND","ND","1.9","252.7","25.3","67.7","0","0"],
    [30361,"2013-10-22T20:00:00","40","ND","ND","ND","ND","ND","0.5","280.4","25.3","64.8","0","0"],
    [30362,"2013-10-22T21:00:00","37","ND","ND","ND","ND","ND","0.5","185.1","25.1","65.6","0","0"],
    [30363,"2013-10-22T22:00:00","63","ND","ND","ND","ND","ND","0.2","198.2","24.3","73.4","0","0"],
    [30364,"2013-10-22T23:00:00","48","ND","ND","ND","ND","ND","0.1","132.7","23.9","75.8","0","0"],
    [30365,"2013-10-23T00:00:00","103","ND","ND","ND","ND","ND","0.4","10.8","23.6","77.8","0","0"],
    [30366,"2013-10-23T01:00:00","76","ND","ND","ND","ND","ND","0.1","286.7","23.1","81.1","0","0"],
    [30367,"2013-10-23T02:00:00","53","ND","ND","ND","ND","ND","0.8","300.5","22.3","85.7","0","3.81"],
    [30368,"2013-10-23T03:00:00","28","ND","ND","ND","ND","ND","0.2","336.7","21.8","89.4","0","0"],
    [30369,"2013-10-23T04:00:00","27","ND","ND","ND","ND","ND","0.4","272.6","21.5","93.4","0","0.25"],
    [30370,"2013-10-23T05:00:00","26","ND","ND","ND","ND","ND","0.2","120.6","21.4","91.3","0","0"],
    [30371,"2013-10-23T06:00:00","45","ND","ND","ND","ND","ND","0.4","266.8","21.1","93.5","0","0"],
    [30372,"2013-10-23T07:00:00","61","ND","ND","ND","ND","ND","0.1","277.9","20.9","94.1","32.6","0"],
    [30373,"2013-10-23T08:00:00","91","ND","ND","ND","ND","ND","0.8","36.8","21.7","89.5","168","0"],
    [30374,"2013-10-23T09:00:00","77","ND","ND","ND","ND","ND","0.5","101.6","24.2","77.4","463.5","0"],
    [30375,"2013-10-23T10:00:00","64","ND","ND","ND","ND","ND","0.5","136.1","25.5","67.6","419.7","0"],
    [30376,"2013-10-23T11:00:00","63","ND","ND","ND","ND","ND","0.2","92.8","27.4","61.6","801","0"],
    [30377,"2013-10-23T12:00:00","69","ND","ND","ND","ND","ND","0.7","92.9","28.7","56.5","732.1","0"],
    [30378,"2013-10-23T13:00:00","45","ND","ND","ND","ND","ND","1.6","59.4","29.3","53.6","702.6","0"],
    [30379,"2013-10-23T14:00:00","42","ND","ND","ND","ND","ND","0.9","23.6","30.2","50.7","601.8","0"],
    [30380,"2013-10-23T15:00:00","15","ND","ND","ND","ND","ND","2.6","249.5","31.6","44.5","734.4","0"],
    [30381,"2013-10-23T16:00:00","12","ND","ND","ND","ND","ND","3.8","265","31","44.8","502.7","0"],
    [30382,"2013-10-23T17:00:00","23","ND","ND","ND","ND","ND","1","253.4","30.1","48.4","163.1","0"],
    [30383,"2013-10-23T18:00:00","44","ND","ND","ND","ND","ND","1.6","133","28.1","56.9","4.5","0"],
    [30384,"2013-10-23T19:00:00","65","ND","ND","ND","ND","ND","0.9","125.9","27.2","62.4","0","0"],
    [30385,"2013-10-23T20:00:00","66","ND","ND","ND","ND","ND","0.3","324.7","26.5","64.2","0","0"],
    [30386,"2013-10-23T21:00:00","83","ND","ND","ND","ND","ND","1.6","124","26.2","66.5","0","0"],
    [30387,"2013-10-23T22:00:00","47","ND","ND","ND","ND","ND","1.4","172.4","25","72.9","0","0"],
    [30388,"2013-10-23T23:00:00","48","ND","ND","ND","ND","ND","0.4","312","24.3","73.8","0","0"],
    [30389,"2013-10-24T00:00:00","83","ND","ND","ND","ND","ND","0.5","78.6","24.3","74.4","0","0"],
    [30390,"2013-10-24T01:00:00","ND","ND","ND","ND","ND","ND","0.7","148.4","23.7","78.5","0","0"],
    [30391,"2013-10-24T02:00:00","37","ND","ND","ND","ND","ND","1.1","168.7","23.1","81.2","0","0"],
    [30392,"2013-10-24T03:00:00","37","ND","ND","ND","ND","ND","1.7","196","23","80.6","0","0"],
    [30393,"2013-10-24T04:00:00","35","ND","ND","ND","ND","ND","0.4","204.3","23","79.2","0","0"],
    [30394,"2013-10-24T05:00:00","34","ND","ND","ND","ND","ND","0.3","281.1","22.9","80.9","0","0"],
    [30395,"2013-10-24T06:00:00","45","ND","ND","ND","ND","ND","0.8","213.5","22.8","81.6","0","0"],
    [30396,"2013-10-24T07:00:00","52","ND","ND","ND","ND","ND","0.5","140.8","22.9","81.2","13.4","0"],
    [30397,"2013-10-24T08:00:00","87","ND","ND","ND","ND","ND","0.4","59.5","23.2","81.3","82.8","0"],
    [30398,"2013-10-24T09:00:00","105","ND","ND","ND","ND","ND","1.5","40.4","24.4","77.5","250.9","0"],
    [30399,"2013-10-24T10:00:00","51","ND","ND","ND","ND","ND","1.7","69.6","25.5","70.1","416.7","0"],
    [30400,"2013-10-24T11:00:00","43","ND","ND","ND","ND","ND","1","47.5","26.6","64.5","643.4","0"],
    [30401,"2013-10-24T12:00:00","41","ND","ND","ND","ND","ND","1.7","69","28","60.1","717.7","0"],
    [30402,"2013-10-24T13:00:00","45","ND","ND","ND","ND","ND","0.5","116.3","29.2","55.8","588.5","0"],
    [30403,"2013-10-24T14:00:00","47","ND","ND","ND","ND","ND","0.9","223.6","30.6","49.8","548.3","0"],
    [30404,"2013-10-24T15:00:00","29","ND","ND","ND","ND","ND","1.9","81.9","30.4","50","413.4","0"],
    [30405,"2013-10-24T16:00:00","36","ND","ND","ND","ND","ND","2.2","65.3","28.4","57.3","225.2","0"],
    [30406,"2013-10-24T17:00:00","52","ND","ND","ND","ND","ND","1.1","74.6","26.4","66.9","52.2","0"],
    [30407,"2013-10-24T18:00:00","47","ND","ND","ND","ND","ND","0.7","163.1","26","70.4","11.7","0"],
    [30408,"2013-10-24T19:00:00","67","ND","ND","ND","ND","ND","0.5","205.7","25.7","71.6","0","0"],
    [30409,"2013-10-24T20:00:00","119","ND","ND","ND","ND","ND","0.8","44.2","24.9","73.3","0","0"],
    [30410,"2013-10-24T21:00:00","ND","ND","ND","ND","ND","ND","0.5","351.7","23.9","78.4","0","0"],
    [30411,"2013-10-24T22:00:00","97","ND","ND","ND","ND","ND","0.9","164.9","24","77.7","0","0"],
    [30412,"2013-10-24T23:00:00","69","ND","ND","ND","ND","ND","0.7","175.7","23.7","75.5","0","0"],
    [30413,"2013-10-25T00:00:00","56","ND","ND","ND","ND","ND","0.3","264.5","23","79.1","0","0"],
    [30414,"2013-10-25T01:00:00","ND","ND","ND","ND","ND","ND","0.4","74.9","22.7","81.5","0","0"],
    [30415,"2013-10-25T02:00:00","60","ND","ND","ND","ND","ND","0.3","172.4","22.2","83.6","0","0"],
    [30416,"2013-10-25T03:00:00","55","ND","ND","ND","ND","ND","0.6","189.1","22.3","82.3","0","0"],
    [30417,"2013-10-25T04:00:00","60","ND","ND","ND","ND","ND","1","157.6","22.1","82.4","0","0"],
    [30418,"2013-10-25T05:00:00","49","ND","ND","ND","ND","ND","0.5","128.9","21.9","83.5","0","0"],
    [30419,"2013-10-25T06:00:00","54","ND","ND","ND","ND","ND","0.2","0.5","21.4","85.8","0","0"],
    [30420,"2013-10-25T07:00:00","75","ND","ND","ND","ND","ND","0.4","61.4","22","84.2","58.1","0"],
    [30421,"2013-10-25T08:00:00","105","ND","ND","ND","ND","ND","0.5","116.3","23.5","77.1","227.6","0"],
    [30422,"2013-10-25T09:00:00","74","ND","ND","ND","ND","ND","1.6","94.5","25","72.1","444.5","0"],
    [30423,"2013-10-25T10:00:00","67","ND","ND","ND","ND","ND","1","91.9","25.7","69.1","525.3","0"],
    [30424,"2013-10-25T11:00:00","77","ND","ND","ND","ND","ND","0.7","37.8","27","63.3","657","0"],
    [30425,"2013-10-25T12:00:00","68","ND","ND","ND","ND","ND","1","63.8","28.2","57.9","651.8","0"],
    [30426,"2013-10-25T13:00:00","82","ND","ND","ND","ND","ND","0.6","66","30.1","52.2","812.6","0"],
    [30427,"2013-10-25T14:00:00","53","ND","ND","ND","ND","ND","0.9","351.3","30.3","49.2","449.7","0"],
    [30428,"2013-10-25T15:00:00","25","ND","ND","ND","ND","ND","2.6","292","30.7","46.2","537.9","0"],
    [30429,"2013-10-25T16:00:00","31","ND","ND","ND","ND","ND","4","276.7","29.8","47.7","361.3","0"],
    [30430,"2013-10-25T17:00:00","26","ND","ND","ND","ND","ND","3.3","270.5","28.8","50.1","171.1","0"],
    [30431,"2013-10-25T18:00:00","23","ND","ND","ND","ND","ND","1.5","265.7","28","51.4","25.3","0"],
    [30432,"2013-10-25T19:00:00","30","ND","ND","ND","ND","ND","0.3","356.7","28","50","0","0"],
    [30433,"2013-10-25T20:00:00","46","ND","ND","ND","ND","ND","1.8","115.6","27.5","53","0","0"],
    [30434,"2013-10-25T21:00:00","36","ND","ND","ND","ND","ND","1","133.6","24.6","72.5","0","14.22"],
    [30435,"2013-10-25T22:00:00","22","ND","ND","ND","ND","ND","2.6","262.3","22.5","83","0","3.56"],
    [30436,"2013-10-25T23:00:00","7","ND","ND","ND","ND","ND","1","243.2","22.7","78.1","0","2.29"],
    [30437,"2013-10-26T00:00:00","8","ND","ND","ND","ND","ND","0.7","249.6","21.4","87.2","0","0.76"],
    [30438,"2013-10-26T01:00:00","8","ND","ND","ND","ND","ND","0.5","243.4","21.5","89.2","0","0"],
    [30439,"2013-10-26T02:00:00","20","ND","ND","ND","ND","ND","0.6","314.6","21.5","87.9","0","0"],
    [30440,"2013-10-26T03:00:00","33","ND","ND","ND","ND","ND","0.2","329.8","21.8","87.8","0","0"],
    [30441,"2013-10-26T04:00:00","32","ND","ND","ND","ND","ND","0.7","242","21.7","87.7","0","0"],
    [30442,"2013-10-26T05:00:00","23","ND","ND","ND","ND","ND","0.1","152.8","21.6","87.6","0","0"],
    [30443,"2013-10-26T06:00:00","50","ND","ND","ND","ND","ND","0.8","0.8","21.5","89.2","0","0"],
    [30444,"2013-10-26T07:00:00","53","ND","ND","ND","ND","ND","0.2","345.3","21.8","88.8","43.8","0"],
    [30445,"2013-10-26T08:00:00","59","ND","ND","ND","ND","ND","0.2","284.5","22.6","84","131.5","0"],
    [30446,"2013-10-26T09:00:00","56","ND","ND","ND","ND","ND","0.6","181.4","24.3","76.3","344.8","0"],
    [30447,"2013-10-26T10:00:00","61","ND","ND","ND","ND","ND","0.7","150.7","25.5","71","386.5","0"],
    [30448,"2013-10-26T11:00:00","77","ND","ND","ND","ND","ND","0.9","179.5","26.6","65.5","576.6","0"],
    [30449,"2013-10-26T12:00:00","43","ND","ND","ND","ND","ND","0.5","108.3","28.5","55.1","878","0"],
    [30450,"2013-10-26T13:00:00","46","ND","ND","ND","ND","ND","0.1","288.7","30","50.2","924.3","0"],
    [30451,"2013-10-26T14:00:00","49","ND","ND","ND","ND","ND","1","49.7","30.4","49.4","524.5","0"],
    [30452,"2013-10-26T15:00:00","10","ND","ND","ND","ND","ND","2.6","274.2","29.9","49.6","404.8","0"],
    [30453,"2013-10-26T16:00:00","14","ND","ND","ND","ND","ND","2.8","261.8","29.3","50.3","253.2","0"],
    [30454,"2013-10-26T17:00:00","10","ND","ND","ND","ND","ND","3","276.1","29.2","48.6","217.3","0"],
    [30455,"2013-10-26T18:00:00","27","ND","ND","ND","ND","ND","0.4","236.7","28.1","50.4","8","0"],
    [30456,"2013-10-26T19:00:00","36","ND","ND","ND","ND","ND","0.4","144.6","27","54.9","0","0"],
    [30457,"2013-10-26T20:00:00","28","ND","ND","ND","ND","ND","0.5","142.1","26.3","58.6","0","0"],
    [30458,"2013-10-26T21:00:00","40","ND","ND","ND","ND","ND","0.5","61.5","25.6","61.9","0","0"],
    [30459,"2013-10-26T22:00:00","39","ND","ND","ND","ND","ND","0.7","97.4","24.7","68.2","0","0"],
    [30460,"2013-10-26T23:00:00","31","ND","ND","ND","ND","ND","0.3","159.5","23.6","72.5","0","0"],
    [30461,"2013-10-27T00:00:00","31","ND","ND","ND","ND","ND","0.5","191.9","23.4","73.7","0","0"],
    [30462,"2013-10-27T01:00:00","38","ND","ND","ND","ND","ND","0.4","100.5","23","76.5","0","0"],
    [30463,"2013-10-27T02:00:00","30","ND","ND","ND","ND","ND","0.1","231.1","22.4","79.9","0","0"],
    [30464,"2013-10-27T03:00:00","36","ND","ND","ND","ND","ND","0.4","276.3","21.9","82.7","0","0"],
    [30465,"2013-10-27T04:00:00","38","ND","ND","ND","ND","ND","0.3","199.6","22","82.3","0","0"],
    [30466,"2013-10-27T05:00:00","35","ND","ND","ND","ND","ND","0.2","279.7","22.2","81.9","0","0"],
    [30467,"2013-10-27T06:00:00","56","ND","ND","ND","ND","ND","0.4","25.4","22","82.9","0","0"],
    [30468,"2013-10-27T07:00:00","49","ND","ND","ND","ND","ND","0.3","34.5","22.3","82.6","50.4","0"],
    [30469,"2013-10-27T08:00:00","54","ND","ND","ND","ND","ND","0.3","342.8","23.1","78.2","86.6","0"],
    [30470,"2013-10-27T09:00:00","66","ND","ND","ND","ND","ND","0.9","130","25","69.7","441.1","0"],
    [30471,"2013-10-27T10:00:00","48","ND","ND","ND","ND","ND","0.7","117.2","26.8","62.1","665.1","0"],
    [30472,"2013-10-27T11:00:00","53","ND","ND","ND","ND","ND","1","259.2","27.1","60.8","404.7","0"],
    [30473,"2013-10-27T12:00:00","4","ND","ND","ND","ND","ND","0.2","317.2","27.8","54.7","348.7","0"],
    [30474,"2013-10-27T13:00:00","3","ND","ND","ND","ND","ND","1.1","311.7","29.2","49.1","726.6","0"],
    [30475,"2013-10-27T14:00:00","ND","ND","ND","ND","ND","ND","1.7","289.6","30.1","45.4","783","0"],
    [30476,"2013-10-27T15:00:00","ND","ND","ND","ND","ND","ND","3.3","287","29.1","47.6","507.2","0"],
    [30477,"2013-10-27T16:00:00","4","ND","ND","ND","ND","ND","0.9","285","28.2","49.4","218.8","0"],
    [30478,"2013-10-27T17:00:00","6","ND","ND","ND","ND","ND","0.2","266.7","27.5","50","106.3","0"],
    [30479,"2013-10-27T18:00:00","15","ND","ND","ND","ND","ND","0.5","21.6","26.8","52","29.3","0"],
    [30480,"2013-10-27T19:00:00","27","ND","ND","ND","ND","ND","1","115.8","25.9","57.1","0","0"],
    [30481,"2013-10-27T20:00:00","21","ND","ND","ND","ND","ND","1","207.9","24.9","63.4","0","0"],
    [30482,"2013-10-27T21:00:00","16","ND","ND","ND","ND","ND","1","245.6","24","67.3","0","0"],
    [30483,"2013-10-27T22:00:00","15","ND","ND","ND","ND","ND","1","259.8","23.4","70.5","0","0"],
    [30484,"2013-10-27T23:00:00","24","ND","ND","ND","ND","ND","0.3","16.1","23","72.2","0","0"],
    [30485,"2013-10-28T00:00:00","65","ND","ND","ND","ND","ND","1","21.2","21.5","83.2","0","0"],
    [30486,"2013-10-28T01:00:00","51","ND","ND","ND","ND","ND","0.5","350.8","21.2","84.7","0","0"],
    [30487,"2013-10-28T02:00:00","34","ND","ND","ND","ND","ND","0.2","259.5","21.6","82.2","0","0"],
    [30488,"2013-10-28T03:00:00","28","ND","ND","ND","ND","ND","0.4","239.1","22","81.3","0","0"],
    [30489,"2013-10-28T04:00:00","41","ND","ND","ND","ND","ND","0.5","43.7","21.1","83.2","0","0"],
    [30490,"2013-10-28T05:00:00","44","ND","ND","ND","ND","ND","0.7","38.9","20.9","83","0","0"],
    [30491,"2013-10-28T06:00:00","39","ND","ND","ND","ND","ND","0.2","97.5","20.9","83.3","0","0"],
    [30492,"2013-10-28T07:00:00","58","ND","ND","ND","ND","ND","0.5","164.3","21.5","81.4","82.4","0"],
    [30493,"2013-10-28T08:00:00","75","ND","ND","ND","ND","ND","0.9","40.7","22.6","77.2","215.6","0"],
    [30494,"2013-10-28T09:00:00","60","ND","ND","ND","ND","ND","1.1","39.9","23.9","71.9","472.7","0"],
    [30495,"2013-10-28T10:00:00","45","ND","ND","ND","ND","ND","0.9","93.3","26.2","62.9","685.7","0"],
    [30496,"2013-10-28T11:00:00","26","ND","ND","ND","ND","ND","1","116.2","27.4","57.3","643.2","0"],
    [30497,"2013-10-28T12:00:00","39","ND","ND","ND","ND","ND","1.2","102.5","28.5","53.5","759.2","0"],
    [30498,"2013-10-28T13:00:00","56","ND","ND","ND","ND","ND","0.6","28.8","29.6","51.4","582.4","0"],
    [30499,"2013-10-28T14:00:00","55","ND","ND","ND","ND","ND","1.2","355.5","30.2","49.8","594.5","0"],
    [30500,"2013-10-28T15:00:00","22","ND","ND","ND","ND","ND","1.8","322.1","30.5","46.3","500.3","0"],
    [30501,"2013-10-28T16:00:00","21","ND","ND","ND","ND","ND","3.6","284.2","29.7","47.6","427","0"],
    [30502,"2013-10-28T17:00:00","17","ND","ND","ND","ND","ND","3.1","278.7","29.1","47.6","214.8","0"],
    [30503,"2013-10-28T18:00:00","14","ND","ND","ND","ND","ND","2.8","261.3","28","49.8","31.8","0"],
    [30504,"2013-10-28T19:00:00","27","ND","ND","ND","ND","ND","0.2","196","27.9","50.6","0","0"],
    [30505,"2013-10-28T20:00:00","36","ND","ND","ND","ND","ND","1.2","152.5","27.4","52.9","0","0"],
    [30506,"2013-10-28T21:00:00","46","ND","ND","ND","ND","ND","1.1","114.4","25.9","60.8","0","0"],
    [30507,"2013-10-28T22:00:00","37","ND","ND","ND","ND","ND","0.7","87.6","24.9","64.7","0","0"],
    [30508,"2013-10-28T23:00:00","42","ND","ND","ND","ND","ND","0.5","263.8","24.2","67.9","0","0"],
    [30509,"2013-10-29T00:00:00","43","ND","ND","ND","ND","ND","0.2","82.1","24.2","67.1","0","0"],
    [30510,"2013-10-29T01:00:00","30","ND","ND","ND","ND","ND","0.2","73.6","23.6","70.7","0","0"],
    [30511,"2013-10-29T02:00:00","33","ND","ND","ND","ND","ND","0.2","242.6","22.9","73.9","0","0"],
    [30512,"2013-10-29T03:00:00","18","ND","ND","ND","ND","ND","0.5","162.4","23","73.4","0","0"],
    [30513,"2013-10-29T04:00:00","32","ND","ND","ND","ND","ND","0.4","243.2","22.5","76.3","0","0"],
    [30514,"2013-10-29T05:00:00","27","ND","ND","ND","ND","ND","1.1","192.3","22.9","75","0","0"],
    [30515,"2013-10-29T06:00:00","40","ND","ND","ND","ND","ND","0.6","113.4","23","75.4","0","0"],
    [30516,"2013-10-29T07:00:00","85","ND","ND","ND","ND","ND","0.5","350.9","22.1","80.4","28.1","0"],
    [30517,"2013-10-29T08:00:00","75","ND","ND","ND","ND","ND","0.4","191.1","23.3","75.2","88.8","0"],
    [30518,"2013-10-29T09:00:00","62","ND","ND","ND","ND","ND","0.2","93.6","24.6","69.9","247.6","0"],
    [30519,"2013-10-29T10:00:00","64","ND","ND","ND","ND","ND","1.3","111.2","25.7","66","385.8","0"],
    [30520,"2013-10-29T11:00:00","48","ND","ND","ND","ND","ND","1.1","144.5","26.8","61.7","708.5","0"],
    [30521,"2013-10-29T12:00:00","30","ND","ND","ND","ND","ND","1.5","249.4","28.6","54.5","847.8","0"],
    [30522,"2013-10-29T13:00:00","33","ND","ND","ND","ND","ND","0.3","99.8","29.2","50.8","303.3","0"],
    [30523,"2013-10-29T14:00:00","24","ND","ND","ND","ND","ND","1.3","272.2","29.8","48.1","564.4","0"],
    [30524,"2013-10-29T15:00:00","17","ND","ND","ND","ND","ND","4.5","261.4","30.1","46","658.1","0"],
    [30525,"2013-10-29T16:00:00","37","ND","ND","ND","ND","ND","0.4","226.8","26.6","62","159.6","0.25"],
    [30526,"2013-10-29T17:00:00","25","ND","ND","ND","ND","ND","2.5","168.4","23.2","76.4","7.5","0"],
    [30527,"2013-10-29T18:00:00","23","ND","ND","ND","ND","ND","1.1","157.1","22","85.2","0","4.32"],
    [30528,"2013-10-29T19:00:00","23","ND","ND","ND","ND","ND","0.4","52.7","20.9","91","0","1.52"],
    [30529,"2013-10-29T20:00:00","24","ND","ND","ND","ND","ND","0.3","240.4","21","92.1","0","0.25"],
    [30530,"2013-10-29T21:00:00","30","ND","ND","ND","ND","ND","0.6","146.7","21.4","90.7","0","0.25"],
    [30531,"2013-10-29T22:00:00","20","ND","ND","ND","ND","ND","1.1","133.7","21","88.4","0","0"],
    [30532,"2013-10-29T23:00:00","9","ND","ND","ND","ND","ND","0.8","145.5","20.8","91.5","0","1.02"],
    [30533,"2013-10-30T00:00:00","18","ND","ND","ND","ND","ND","0.7","153.5","20.6","92.3","0","0.51"],
    [30534,"2013-10-30T01:00:00","6","ND","ND","ND","ND","ND","0.6","234.2","20.7","91.8","0","0"],
    [30535,"2013-10-30T02:00:00","6","ND","ND","ND","ND","ND","1","238.1","21.1","89","0","0"],
    [30536,"2013-10-30T03:00:00","32","ND","ND","ND","ND","ND","0.6","104.5","21.2","90","0","0"],
    [30537,"2013-10-30T04:00:00","37","ND","ND","ND","ND","ND","0.5","111.7","20.4","94.4","0","0"],
    [30538,"2013-10-30T05:00:00","29","ND","ND","ND","ND","ND","0.2","47.4","20.3","94.3","0","0"],
    [30539,"2013-10-30T06:00:00","57","ND","ND","ND","ND","ND","0.5","24.4","20.2","94.9","0","0"],
    [30540,"2013-10-30T07:00:00","47","ND","ND","ND","ND","ND","0.8","83","20.1","94.6","9.9","0"],
    [30541,"2013-10-30T08:00:00","59","ND","ND","ND","ND","ND","1.3","157.3","20.3","90.3","19","0"],
    [30542,"2013-10-30T09:00:00","75","ND","ND","ND","ND","ND","0.5","196","21.3","85.3","166.2","0"],
    [30543,"2013-10-30T10:00:00","76","ND","ND","ND","ND","ND","0.6","76.3","22.6","79.4","218.5","0"],
    [30544,"2013-10-30T11:00:00","75","ND","ND","ND","ND","ND","0.8","53.2","23.7","75.4","445.1","0"],
    [30545,"2013-10-30T12:00:00","42","ND","ND","ND","ND","ND","1","72.9","25.4","68","708.2","0"],
    [30546,"2013-10-30T13:00:00","69","ND","ND","ND","ND","ND","0.7","207.7","27","61.7","792.7","0"],
    [30547,"2013-10-30T14:00:00","55","ND","ND","ND","ND","ND","0.9","112.4","27.6","59.5","296.8","0"],
    [30548,"2013-10-30T15:00:00","64","ND","ND","ND","ND","ND","1.7","338","25.8","69.9","184.9","0"],
    [30549,"2013-10-30T16:00:00","42","ND","ND","ND","ND","ND","0.5","52.6","27.8","57.4","376.6","0"],
    [30550,"2013-10-30T17:00:00","14","ND","ND","ND","ND","ND","1.6","257.2","28.2","53.7","190.4","0"],
    [30551,"2013-10-30T18:00:00","21","ND","ND","ND","ND","ND","1.9","287.1","26.4","55.9","17.6","0"],
    [30552,"2013-10-30T19:00:00","25","ND","ND","ND","ND","ND","0.2","231.7","26.1","57.7","0","0"],
    [30553,"2013-10-30T20:00:00","34","ND","ND","ND","ND","ND","1.5","131.8","25.8","58.4","0","0"],
    [30554,"2013-10-30T21:00:00","31","ND","ND","ND","ND","ND","1.1","123","25","61.8","0","0"],
    [30555,"2013-10-30T22:00:00","31","ND","ND","ND","ND","ND","1.4","79.4","24.5","64","0","0"],
    [30556,"2013-10-30T23:00:00","18","ND","ND","ND","ND","ND","0.9","221.2","24.3","64.4","0","0"],
    [30557,"2013-10-31T00:00:00","13","ND","ND","ND","ND","ND","1.8","191.7","22.6","79.3","0","0"],
    [30558,"2013-10-31T01:00:00","8","ND","ND","ND","ND","ND","0.3","233.3","21.8","84.8","0","0.25"],
    [30559,"2013-10-31T02:00:00","4","ND","ND","ND","ND","ND","0.8","193.7","21.7","85.4","0","0"],
    [30560,"2013-10-31T03:00:00","25","ND","ND","ND","ND","ND","1","354.8","21.4","86.5","0","0"],
    [30561,"2013-10-31T04:00:00","33","ND","ND","ND","ND","ND","1.9","4","20.3","93.9","0","3.56"],
    [30562,"2013-10-31T05:00:00","23","ND","ND","ND","ND","ND","0.5","44.3","19.8","96.4","0","13.97"],
    [30563,"2013-10-31T06:00:00","16","ND","ND","ND","ND","ND","0.3","115.9","19.6","97.6","0","13.97"],
    [30564,"2013-10-31T07:00:00","10","ND","ND","ND","ND","ND","1.5","143","19.7","97.1","0","5.08"],
    [30565,"2013-10-31T08:00:00","6","ND","ND","ND","ND","ND","1.3","182.9","19.8","96","34.8","3.05"],
    [30566,"2013-10-31T09:00:00","15","ND","ND","ND","ND","ND","1","191.4","20","94.9","66.4","2.79"],
    [30567,"2013-10-31T10:00:00","7","ND","ND","ND","ND","ND","0.8","239.9","21.3","88.9","317.8","0.25"],
    [30568,"2013-10-31T11:00:00","6","ND","ND","ND","ND","ND","1.2","249.7","23.1","73.6","321.6","0"],
    [30569,"2013-10-31T12:00:00","10","ND","ND","ND","ND","ND","1.9","159","23.6","71.7","190.7","0"],
    [30570,"2013-10-31T13:00:00","22","ND","ND","ND","ND","ND","2.3","149.5","23.3","75.1","297.6","0"],
    [30571,"2013-10-31T14:00:00","9","ND","ND","ND","ND","ND","2.1","144","23.8","69","339.8","0"],
    [30572,"2013-10-31T15:00:00","11","ND","ND","ND","ND","ND","1.2","166","24","65.5","227.7","0"],
    [30573,"2013-10-31T16:00:00","31","ND","ND","ND","ND","ND","0.7","171.8","24.3","65.5","190.4","0"],
    [30574,"2013-10-31T17:00:00","27","ND","ND","ND","ND","ND","1","152.7","24.1","66.3","74.6","0"],
    [30575,"2013-10-31T18:00:00","34","ND","ND","ND","ND","ND","1.3","169.7","23.4","69","10.2","0"],
    [30576,"2013-10-31T19:00:00","44","ND","ND","ND","ND","ND","0.4","276.5","22.8","74.2","0","0"],
    [30577,"2013-10-31T20:00:00","84","ND","ND","ND","ND","ND","0.1","279.4","22.4","77.9","0","0"],
    [30578,"2013-10-31T21:00:00","65","ND","ND","ND","ND","ND","0.4","337","22.2","77.4","0","0"],
    [30579,"2013-10-31T22:00:00","62","ND","ND","ND","ND","ND","0.2","314.8","22.1","78.6","0","0"],
    [30580,"2013-10-31T23:00:00","77","ND","ND","ND","ND","ND","0","297","21.4","82.5","0","0"],
    [30581,"2013-11-01T00:00:00","55","ND","ND","ND","ND","ND","0.5","289.9","20.6","84.4","0","0"],
    [30582,"2013-11-01T01:00:00","47","ND","ND","ND","ND","ND","0.4","231.3","20.5","85.8","0","0"],
    [30583,"2013-11-01T02:00:00","29","ND","ND","ND","ND","ND","0.6","196.8","20.9","79.5","0","0"],
    [30584,"2013-11-01T03:00:00","43","ND","ND","ND","ND","ND","0.4","289.5","20.7","81.8","0","0"],
    [30585,"2013-11-01T04:00:00","32","ND","ND","ND","ND","ND","0.4","308","20.2","83.8","0","0"],
    [30586,"2013-11-01T05:00:00","32","ND","ND","ND","ND","ND","0.1","13.1","20","83.7","0","0"],
    [30587,"2013-11-01T06:00:00","49","ND","ND","ND","ND","ND","0.2","247.3","19.7","86.6","0","0"],
    [30588,"2013-11-01T07:00:00","89","ND","ND","ND","ND","ND","0.5","21","19.9","88.2","50.5","0"],
    [30589,"2013-11-01T08:00:00","86","ND","ND","ND","ND","ND","0.2","114","21.1","87.8","211.6","0"],
    [30590,"2013-11-01T09:00:00","65","ND","ND","ND","ND","ND","1.9","128.2","23","75.5","338","0"],
    [30591,"2013-11-01T10:00:00","41","ND","ND","ND","ND","ND","2.4","146.9","23.3","72.5","266.7","0"],
    [30592,"2013-11-01T11:00:00","32","ND","ND","ND","ND","ND","1","134","23.1","71.1","247","0"],
    [30593,"2013-11-01T12:00:00","29","ND","ND","ND","ND","ND","0.8","83.9","24.6","65.8","521.3","0"],
    [30594,"2013-11-01T13:00:00","23","ND","ND","ND","ND","ND","1.6","133.8","25.5","59.8","370.7","0"],
    [30595,"2013-11-01T14:00:00","17","ND","ND","ND","ND","ND","0.3","267.1","23.8","71.1","192.5","0.51"],
    [30596,"2013-11-01T15:00:00","10","ND","ND","ND","ND","ND","1.3","179.3","24.9","64.7","409.7","0.25"],
    [30597,"2013-11-01T16:00:00","37","ND","ND","ND","ND","ND","1","35.7","25.8","61.4","263.2","0"],
    [30598,"2013-11-01T17:00:00","48","ND","ND","ND","ND","ND","2.2","12.1","24.5","68.9","53.5","0"],
    [30599,"2013-11-01T18:00:00","42","ND","ND","ND","ND","ND","1","20.7","22.7","79.3","5.5","0"],
    [30600,"2013-11-01T19:00:00","27","ND","ND","ND","ND","ND","0.3","145.3","21.7","85.1","0","4.32"],
    [30601,"2013-11-01T20:00:00","22","ND","ND","ND","ND","ND","0.7","12","20.5","88.8","0","0.25"],
    [30602,"2013-11-01T21:00:00","34","ND","ND","ND","ND","ND","1","215.4","20.6","88.9","0","0.25"],
    [30603,"2013-11-01T22:00:00","26","ND","ND","ND","ND","ND","0.9","226.6","20.6","87.2","0","0"],
    [30604,"2013-11-01T23:00:00","17","ND","ND","ND","ND","ND","0.1","187.5","20.7","87","0","0"],
    [30605,"2013-11-02T00:00:00","31","ND","ND","ND","ND","ND","0.3","324.9","20.4","88.8","0","0"],
    [30606,"2013-11-02T01:00:00","28","ND","ND","ND","ND","ND","0.1","295.8","20.4","88.1","0","0"],
    [30607,"2013-11-02T02:00:00","30","ND","ND","ND","ND","ND","0.4","18.8","20","89.1","0","0"],
    [30608,"2013-11-02T03:00:00","33","ND","ND","ND","ND","ND","0.2","43.2","19.7","94.7","0","0"],
    [30609,"2013-11-02T04:00:00","41","ND","ND","ND","ND","ND","0.1","61.8","19.7","95.5","0","0"],
    [30610,"2013-11-02T05:00:00","51","ND","ND","ND","ND","ND","0.6","313.6","19.8","95.1","0","0.76"],
    [30611,"2013-11-02T06:00:00","39","ND","ND","ND","ND","ND","0.1","210.7","19.6","94.6","0","0"],
    [30612,"2013-11-02T07:00:00","48","ND","ND","ND","ND","ND","0.2","251.6","19.9","94.8","32.5","0"],
    [30613,"2013-11-02T08:00:00","54","ND","ND","ND","ND","ND","0.1","162.9","20.6","90.9","98.4","0"],
    [30614,"2013-11-02T09:00:00","73","ND","ND","ND","ND","ND","1","136.5","21.7","84.8","189.1","0"],
    [30615,"2013-11-02T10:00:00","69","ND","ND","ND","ND","ND","2","153","22.8","78.3","344.8","0"],
    [30616,"2013-11-02T11:00:00","48","ND","ND","ND","ND","ND","2.4","156.9","23.6","71.9","398.5","0"],
    [30617,"2013-11-02T12:00:00","33","ND","ND","ND","ND","ND","1.6","165.1","24.7","68","682.6","0"],
    [30618,"2013-11-02T13:00:00","36","ND","ND","ND","ND","ND","1.3","188.7","25.3","63.3","277.5","0"],
    [30619,"2013-11-02T14:00:00","10","ND","ND","ND","ND","ND","1","235.4","25.3","62.1","219.5","0"],
    [30620,"2013-11-02T15:00:00","20","ND","ND","ND","ND","ND","0.9","315.9","25.6","60.9","283.2","0"],
    [30621,"2013-11-02T16:00:00","37","ND","ND","ND","ND","ND","0.9","352.8","26.2","57.6","266.5","0"],
    [30622,"2013-11-02T17:00:00","46","ND","ND","ND","ND","ND","0.9","68.8","26.1","60.1","115.5","0"],
    [30623,"2013-11-02T18:00:00","22","ND","ND","ND","ND","ND","0.2","255.2","25.5","58.2","16.8","0"],
    [30624,"2013-11-02T19:00:00","33","ND","ND","ND","ND","ND","0.8","262.9","25","58.4","0","0"],
    [30625,"2013-11-02T20:00:00","17","ND","ND","ND","ND","ND","2.6","296.6","24.4","58.2","0","0"],
    [30626,"2013-11-02T21:00:00","38","ND","ND","ND","ND","ND","1.3","113.4","23.6","66.9","0","0"],
    [30627,"2013-11-02T22:00:00","47","ND","ND","ND","ND","ND","0.4","60.1","22.8","71.8","0","0"],
    [30628,"2013-11-02T23:00:00","58","ND","ND","ND","ND","ND","0.3","191.2","22.8","71.6","0","0"],
    [30629,"2013-11-03T00:00:00","41","ND","ND","ND","ND","ND","1.7","148.3","22.2","76.6","0","0"],
    [30630,"2013-11-03T01:00:00","9","ND","ND","ND","ND","ND","1.9","184.6","21.4","81.1","0","0"],
    [30631,"2013-11-03T02:00:00","14","ND","ND","ND","ND","ND","0.7","194.5","21","81.6","0","0"],
    [30632,"2013-11-03T03:00:00","23","ND","ND","ND","ND","ND","0.3","334.7","20.8","82.8","0","0"],
    [30633,"2013-11-03T04:00:00","44","ND","ND","ND","ND","ND","0.1","51.3","20.8","83.8","0","0"],
    [30634,"2013-11-03T05:00:00","43","ND","ND","ND","ND","ND","0.6","13.6","20.5","86.5","0","0"],
    [30635,"2013-11-03T06:00:00","62","ND","ND","ND","ND","ND","0.5","19.8","20","89.4","0","0"],
    [30636,"2013-11-03T07:00:00","54","ND","ND","ND","ND","ND","0.1","354.7","20.1","90.2","37.5","0"],
    [30637,"2013-11-03T08:00:00","77","ND","ND","ND","ND","ND","0.3","47.5","21.3","83.8","140.8","0"],
    [30638,"2013-11-03T09:00:00","56","ND","ND","ND","ND","ND","1","124.7","23.1","73.6","420.5","0"],
    [30639,"2013-11-03T10:00:00","15","ND","ND","ND","ND","ND","2.5","143.6","25.1","62.7","680.4","0"],
    [30640,"2013-11-03T11:00:00","21","ND","ND","ND","ND","ND","1.5","151.2","25.4","62.6","378","0"],
    [30641,"2013-11-03T12:00:00","22","ND","ND","ND","ND","ND","1.3","200.5","26.9","55.2","776.4","0"],
    [30642,"2013-11-03T13:00:00","22","ND","ND","ND","ND","ND","0.4","306.6","27.1","54.3","277.5","0"],
    [30643,"2013-11-03T14:00:00","16","ND","ND","ND","ND","ND","1.5","307.7","27.3","55","425.3","0"],
    [30644,"2013-11-03T15:00:00","7","ND","ND","ND","ND","ND","1.6","277.2","27.9","51.1","469.2","0"],
    [30645,"2013-11-03T16:00:00","4","ND","ND","ND","ND","ND","1.8","213.4","28.6","46.3","335.5","0"],
    [30646,"2013-11-03T17:00:00","8","ND","ND","ND","ND","ND","0.8","225.5","28.3","48.1","127.9","0"],
    [30647,"2013-11-03T18:00:00","9","ND","ND","ND","ND","ND","0.7","269.2","26.5","52.7","11.5","0"],
    [30648,"2013-11-03T19:00:00","10","ND","ND","ND","ND","ND","0.6","119.2","26.1","54.2","0","0"],
    [30649,"2013-11-03T20:00:00","19","ND","ND","ND","ND","ND","0.5","111.3","25.7","56.6","0","0"],
    [30650,"2013-11-03T21:00:00","33","ND","ND","ND","ND","ND","0.9","96.8","25.1","60.3","0","0"],
    [30651,"2013-11-03T22:00:00","25","ND","ND","ND","ND","ND","1.1","94.5","24.3","65.4","0","0"],
    [30652,"2013-11-03T23:00:00","13","ND","ND","ND","ND","ND","0.5","56.2","23.4","68.6","0","1.02"],
    [30653,"2013-11-04T00:00:00","7","ND","ND","ND","ND","ND","2.2","230","21.3","79","0","3.3"],
    [30654,"2013-11-04T01:00:00","6","ND","ND","ND","ND","ND","2.4","210.3","20.5","82.4","0","0"],
    [30655,"2013-11-04T02:00:00","3","ND","ND","ND","ND","ND","0.5","262.1","21.6","75","0","0"],
    [30656,"2013-11-04T03:00:00","21","ND","ND","ND","ND","ND","0.6","316.8","21","82.1","0","0"],
    [30657,"2013-11-04T04:00:00","18","ND","ND","ND","ND","ND","0.5","218.5","20.7","85.3","0","0"],
    [30658,"2013-11-04T05:00:00","16","ND","ND","ND","ND","ND","1.2","181.4","20.6","88.3","0","0"],
    [30659,"2013-11-04T06:00:00","8","ND","ND","ND","ND","ND","1.4","178.2","20.4","85.9","0","0"],
    [30660,"2013-11-04T07:00:00","6","ND","ND","ND","ND","ND","1.3","177.8","20","85.5","4.1","0"],
    [30661,"2013-11-04T08:00:00","7","ND","ND","ND","ND","ND","1.8","183.6","20.2","85.5","22.3","0"],
    [30662,"2013-11-04T09:00:00","9","ND","ND","ND","ND","ND","2.2","185.2","20.2","86.1","68","0"],
    [30663,"2013-11-04T10:00:00","18","ND","ND","ND","ND","ND","2.1","169.1","20.7","82.6","123.8","0"],
    [30664,"2013-11-04T11:00:00","13","ND","ND","ND","ND","ND","2.6","158.5","21.8","77.9","381.1","0"],
    [30665,"2013-11-04T12:00:00","10","ND","ND","ND","ND","ND","2.3","147.7","23.2","70.5","558.8","0"],
    [30666,"2013-11-04T13:00:00","13","ND","ND","ND","ND","ND","1.8","152.6","23.7","69","427.7","0"],
    [30667,"2013-11-04T14:00:00","9","ND","ND","ND","ND","ND","1.9","167.8","24.6","64.5","444.7","0"],
    [30668,"2013-11-04T15:00:00","16","ND","ND","ND","ND","ND","1.7","170.7","24.8","64.4","253.5","0"],
    [30669,"2013-11-04T16:00:00","11","ND","ND","ND","ND","ND","0.8","183.7","25.1","62.8","190.7","0"],
    [30670,"2013-11-04T17:00:00","17","ND","ND","ND","ND","ND","0.5","150.5","24.8","64.9","79.6","0"],
    [30671,"2013-11-04T18:00:00","23","ND","ND","ND","ND","ND","0.1","89.6","24.3","67.4","18.3","0"],
    [30672,"2013-11-04T19:00:00","40","ND","ND","ND","ND","ND","0.4","285.2","22.9","76.6","0","0"],
    [30673,"2013-11-04T20:00:00","59","ND","ND","ND","ND","ND","0.4","268.6","22.1","79.7","0","0"],
    [30674,"2013-11-04T21:00:00","54","ND","ND","ND","ND","ND","0.4","263.3","21.7","82","0","0"],
    [30675,"2013-11-04T22:00:00","31","ND","ND","ND","ND","ND","0.2","292","21.2","83.5","0","0"],
    [30676,"2013-11-04T23:00:00","33","ND","ND","ND","ND","ND","0.1","60.4","20.8","84.8","0","0"],
    [30677,"2013-11-05T00:00:00","32","ND","ND","ND","ND","ND","0.1","303.4","20.4","86.4","0","0"],
    [30678,"2013-11-05T01:00:00","24","ND","ND","ND","ND","ND","0.3","231.1","20.3","87.6","0","0"],
    [30679,"2013-11-05T02:00:00","40","ND","ND","ND","ND","ND","0.5","207.4","20.7","85.5","0","0"],
    [30680,"2013-11-05T03:00:00","35","ND","ND","ND","ND","ND","0.3","157.7","20.8","82.2","0","0"],
    [30681,"2013-11-05T04:00:00","36","ND","ND","ND","ND","ND","0.3","170.5","20.4","87.1","0","0"],
    [30682,"2013-11-05T05:00:00","25","ND","ND","ND","ND","ND","0.2","262.8","19.8","89.1","0","0"],
    [30683,"2013-11-05T06:00:00","36","ND","ND","ND","ND","ND","0.4","292.9","19.7","87.4","0","0"],
    [30684,"2013-11-05T07:00:00","65","ND","ND","ND","ND","ND","0.1","143.4","20.3","85","28.7","0"],
    [30685,"2013-11-05T08:00:00","135","ND","ND","ND","ND","ND","0.8","36.3","20.9","83.2","126","0"],
    [30686,"2013-11-05T09:00:00","108","ND","ND","ND","ND","ND","0.7","77.4","22.8","77","319.3","0"],
    [30687,"2013-11-05T10:00:00","51","ND","ND","ND","ND","ND","1","109.5","24.2","70.6","549.9","0"],
    [30688,"2013-11-05T11:00:00","37","ND","ND","ND","ND","ND","1.5","110.4","26","61.7","743.6","0"],
    [30689,"2013-11-05T12:00:00","45","ND","ND","ND","ND","ND","0.9","94.5","26.7","58.8","418.2","0"],
    [30690,"2013-11-05T13:00:00","49","ND","ND","ND","ND","ND","0.7","36","27","58.5","341.3","0"],
    [30691,"2013-11-05T14:00:00","31","ND","ND","ND","ND","ND","2.6","268","27.4","53.8","562.3","0"],
    [30692,"2013-11-05T15:00:00","6","ND","ND","ND","ND","ND","2.5","246.9","27.7","51.4","382.5","0"],
    [30693,"2013-11-05T16:00:00","13","ND","ND","ND","ND","ND","1.6","250.1","27.9","52.4","241.8","0"],
    [30694,"2013-11-05T17:00:00","47","ND","ND","ND","ND","ND","1.2","155.4","27.7","55.8","83.2","0"],
    [30695,"2013-11-05T18:00:00","71","ND","ND","ND","ND","ND","0.5","248.4","27","59.8","19.9","0"],
    [30696,"2013-11-05T19:00:00","93","ND","ND","ND","ND","ND","0.6","297.9","25.7","64.9","0","0"],
    [30697,"2013-11-05T20:00:00","80","ND","ND","ND","ND","ND","0.4","326.8","24.8","68.3","0","0"],
    [30698,"2013-11-05T21:00:00","74","ND","ND","ND","ND","ND","0.8","164.2","24.1","71.7","0","0"],
    [30699,"2013-11-05T22:00:00","44","ND","ND","ND","ND","ND","1.1","153.1","23.2","77.7","0","0"],
    [30700,"2013-11-05T23:00:00","41","ND","ND","ND","ND","ND","0.7","174.9","22.8","75.9","0","0"],
    [30701,"2013-11-06T00:00:00","50","ND","ND","ND","ND","ND","0.5","341.3","22.2","79.3","0","0"],
    [30702,"2013-11-06T01:00:00","141","ND","ND","ND","ND","ND","0.5","32.6","22.1","80.1","0","0"],
    [30703,"2013-11-06T02:00:00","58","ND","ND","ND","ND","ND","0.3","24.5","21.9","82.5","0","0"],
    [30704,"2013-11-06T03:00:00","47","ND","ND","ND","ND","ND","0.4","194.5","22","81.5","0","0"],
    [30705,"2013-11-06T04:00:00","43","ND","ND","ND","ND","ND","0.3","173.4","21.6","82.7","0","0"],
    [30706,"2013-11-06T05:00:00","63","ND","ND","ND","ND","ND","0.2","35.7","21.4","83.3","0","0"],
    [30707,"2013-11-06T06:00:00","44","ND","ND","ND","ND","ND","1","46.6","21","86","0","0"],
    [30708,"2013-11-06T07:00:00","49","ND","ND","ND","ND","ND","0.3","161","20.6","88.4","31.4","0"],
    [30709,"2013-11-06T08:00:00","65","ND","ND","ND","ND","ND","1","118.3","21.8","82.6","145.3","0"],
    [30710,"2013-11-06T09:00:00","74","ND","ND","ND","ND","ND","0.6","34.1","22.8","79.1","315.9","0"],
    [30711,"2013-11-06T10:00:00","85","ND","ND","ND","ND","ND","0.8","117.2","24.6","71.2","441.2","0"],
    [30712,"2013-11-06T11:00:00","79","ND","ND","ND","ND","ND","0.6","130.6","26.4","62.8","705.4","0"],
    [30713,"2013-11-06T12:00:00","52","ND","ND","ND","ND","ND","1.7","117.7","27.7","57.3","683.9","0"],
    [30714,"2013-11-06T13:00:00","41","ND","ND","ND","ND","ND","0.6","57.3","27.7","57.3","326.6","0"],
    [30715,"2013-11-06T14:00:00","32","ND","ND","ND","ND","ND","2.6","289.5","26.8","60.9","253.4","0"],
    [30716,"2013-11-06T15:00:00","33","ND","ND","ND","ND","ND","1.5","320.6","26.9","55.8","225.1","0"],
    [30717,"2013-11-06T16:00:00","21","ND","ND","ND","ND","ND","2","281.6","27","51.1","248.4","0"],
    [30718,"2013-11-06T17:00:00","31","ND","ND","ND","ND","ND","0.4","300.3","27.2","50.6","105.3","0"],
    [30719,"2013-11-06T18:00:00","45","ND","ND","ND","ND","ND","0.5","325.9","26.3","53.6","28.6","0"],
    [30720,"2013-11-06T19:00:00","58","ND","ND","ND","ND","ND","0.3","215.7","25.4","55.9","0","0"],
    [30721,"2013-11-06T20:00:00","41","ND","ND","ND","ND","ND","0.9","117","24.7","61","0","0"],
    [30722,"2013-11-06T21:00:00","48","ND","ND","ND","ND","ND","1.1","114.3","23.5","73.9","0","0"],
    [30723,"2013-11-06T22:00:00","40","ND","ND","ND","ND","ND","0.2","162.2","22.8","78","0","0"],
    [30724,"2013-11-06T23:00:00","57","ND","ND","ND","ND","ND","0.5","286.4","22.3","80.3","0","0"],
    [30725,"2013-11-07T00:00:00","57","ND","ND","ND","ND","ND","0.7","39.1","21.4","81.9","0","0"],
    [30726,"2013-11-07T01:00:00","43","ND","ND","ND","ND","ND","0.3","7.3","21.1","81.2","0","0"],
    [30727,"2013-11-07T02:00:00","44","ND","ND","ND","ND","ND","0.5","214.3","21.1","80","0","0"],
    [30728,"2013-11-07T03:00:00","29","ND","ND","ND","ND","ND","0.1","354.1","20.8","80.8","0","0"],
    [30729,"2013-11-07T04:00:00","39","ND","ND","ND","ND","ND","0.1","158.9","20.5","84.6","0","0"],
    [30730,"2013-11-07T05:00:00","32","ND","ND","ND","ND","ND","0.8","170.1","20.8","83.6","0","0"],
    [30731,"2013-11-07T06:00:00","79","ND","ND","ND","ND","ND","0.4","40.2","20.5","86.2","0","0"],
    [30732,"2013-11-07T07:00:00","76","ND","ND","ND","ND","ND","0.8","27.9","20.5","87.1","36.4","0"],
    [30733,"2013-11-07T08:00:00","72","ND","ND","ND","ND","ND","0.9","42.9","20.7","88.9","107.1","0"],
    [30734,"2013-11-07T09:00:00","92","ND","ND","ND","ND","ND","0.8","161.7","22.5","79.6","345.5","0"],
    [30735,"2013-11-07T10:00:00","86","ND","ND","ND","ND","ND","0.8","71.9","25","67.2","558.8","0"],
    [30736,"2013-11-07T11:00:00","78","ND","ND","ND","ND","ND","0.6","38.2","26.2","61.8","537.2","0"],
    [30737,"2013-11-07T12:00:00","62","ND","ND","ND","ND","ND","1.4","81.2","27.7","56.3","743.6","0"],
    [30738,"2013-11-07T13:00:00","41","ND","ND","ND","ND","ND","1.7","50.4","28.5","54.5","534.1","0"],
    [30739,"2013-11-07T14:00:00","24","ND","ND","ND","ND","ND","1.4","267.1","28.3","52.6","127.4","0"],
    [30740,"2013-11-07T15:00:00","32","ND","ND","ND","ND","ND","2.1","274.3","27.9","51.6","318.5","0"],
    [30741,"2013-11-07T16:00:00","32","ND","ND","ND","ND","ND","5.2","283.7","27","49.4","360.2","0"],
    [30742,"2013-11-07T17:00:00","17","ND","ND","ND","ND","ND","3.7","277.8","27.7","41.8","296","0"],
    [30743,"2013-11-07T18:00:00","20","ND","ND","ND","ND","ND","4.2","272.6","26.6","45.5","57.6","0"],
    [30744,"2013-11-07T19:00:00","16","ND","ND","ND","ND","ND","1.8","252.3","26.4","46.1","0","0"],
    [30745,"2013-11-07T20:00:00","32","ND","ND","ND","ND","ND","0.8","112.4","25.4","53.5","0","0"],
    [30746,"2013-11-07T21:00:00","36","ND","ND","ND","ND","ND","0.7","132.7","24.8","57","0","0"],
    [30747,"2013-11-07T22:00:00","16","ND","ND","ND","ND","ND","1.1","115.1","23.3","71.3","0","0"],
    [30748,"2013-11-07T23:00:00","19","ND","ND","ND","ND","ND","0.6","253.9","22.5","75.4","0","0"],
    [30749,"2013-11-08T00:00:00","26","ND","ND","ND","ND","ND","0.5","133.2","22.7","74.8","0","0"],
    [30750,"2013-11-08T01:00:00","19","ND","ND","ND","ND","ND","0.1","217","22.2","78.1","0","0"],
    [30751,"2013-11-08T02:00:00","47","ND","ND","ND","ND","ND","0.6","355.1","21.2","79.6","0","0"],
    [30752,"2013-11-08T03:00:00","28","ND","ND","ND","ND","ND","0.5","236.3","20.8","82.1","0","0"],
    [30753,"2013-11-08T04:00:00","24","ND","ND","ND","ND","ND","0.6","261.3","20.5","82.6","0","0"],
    [30754,"2013-11-08T05:00:00","19","ND","ND","ND","ND","ND","0.2","288.9","19.9","83.1","0","0"],
    [30755,"2013-11-08T06:00:00","23","ND","ND","ND","ND","ND","0.1","239.9","19.8","84.5","0","0"],
    [30756,"2013-11-08T07:00:00","100","ND","ND","ND","ND","ND","0.3","6.2","20.2","84.3","55.2","0"],
    [30757,"2013-11-08T08:00:00","88","ND","ND","ND","ND","ND","0.3","344.2","22.4","73","258","0"],
    [30758,"2013-11-08T09:00:00","64","ND","ND","ND","ND","ND","0.6","115","24.4","63.8","468.7","0"],
    [30759,"2013-11-08T10:00:00","51","ND","ND","ND","ND","ND","0.5","37.4","25.8","59.4","616.7","0"],
    [30760,"2013-11-08T11:00:00","50","ND","ND","ND","ND","ND","0.6","114.6","27.5","53.2","782.8","0"],
    [30761,"2013-11-08T12:00:00","53","ND","ND","ND","ND","ND","1.2","81.1","28.6","50","804.9","0"],
    [30762,"2013-11-08T13:00:00","54","ND","ND","ND","ND","ND","0.4","347.3","29","48.1","536.8","0"],
    [30763,"2013-11-08T14:00:00","18","ND","ND","ND","ND","ND","2.1","276.6","30.3","44.6","727.3","0"],
    [30764,"2013-11-08T15:00:00","9","ND","ND","ND","ND","ND","4.2","279.7","29.8","45","627","0"],
    [30765,"2013-11-08T16:00:00","18","ND","ND","ND","ND","ND","4.3","280.8","29","46.2","414.8","0"],
    [30766,"2013-11-08T17:00:00","16","ND","ND","ND","ND","ND","1.7","293.2","28.5","46.9","142.4","0"],
    [30767,"2013-11-08T18:00:00","15","ND","ND","ND","ND","ND","2.5","281.6","27.2","50.7","18.6","0"],
    [30768,"2013-11-08T19:00:00","13","ND","ND","ND","ND","ND","0.3","111.7","26.8","52.7","0","0"],
    [30769,"2013-11-08T20:00:00","51","ND","ND","ND","ND","ND","0.8","113.1","26.2","55.1","0","0"],
    [30770,"2013-11-08T21:00:00","39","ND","ND","ND","ND","ND","0.5","123.3","24.9","62.2","0","0"],
    [30771,"2013-11-08T22:00:00","44","ND","ND","ND","ND","ND","0.5","352","24.6","62.6","0","0"],
    [30772,"2013-11-08T23:00:00","34","ND","ND","ND","ND","ND","0.8","84.7","24.5","64.7","0","0"],
    [30773,"2013-11-09T00:00:00","36","ND","ND","ND","ND","ND","0.3","118","23.5","70.2","0","0"],
    [30774,"2013-11-09T01:00:00","45","ND","ND","ND","ND","ND","0.6","46.6","22.9","73.1","0","0"],
    [30775,"2013-11-09T02:00:00","40","ND","ND","ND","ND","ND","0.3","268.2","22.5","75.3","0","0"],
    [30776,"2013-11-09T03:00:00","18","ND","ND","ND","ND","ND","1.2","157.9","22.6","78.3","0","0"],
    [30777,"2013-11-09T04:00:00","13","ND","ND","ND","ND","ND","1.2","152.7","22","80.5","0","0"],
    [30778,"2013-11-09T05:00:00","11","ND","ND","ND","ND","ND","1.2","146.9","21.3","84.5","0","0"],
    [30779,"2013-11-09T06:00:00","14","ND","ND","ND","ND","ND","0.5","137.5","21.2","86.2","0","0"],
    [30780,"2013-11-09T07:00:00","24","ND","ND","ND","ND","ND","0.7","251.4","21.6","84.5","56.9","0"],
    [30781,"2013-11-09T08:00:00","26","ND","ND","ND","ND","ND","1","131.5","23.7","73.2","288.3","0"],
    [30782,"2013-11-09T09:00:00","33","ND","ND","ND","ND","ND","2.1","148.7","24.7","66.4","425.3","0"],
    [30783,"2013-11-09T10:00:00","24","ND","ND","ND","ND","ND","1.3","170.8","25.6","63.7","417.1","0"],
    [30784,"2013-11-09T11:00:00","30","ND","ND","ND","ND","ND","0.7","63.3","26.6","59.1","479.5","0"],
    [30785,"2013-11-09T12:00:00","34","ND","ND","ND","ND","ND","1","69.8","28.2","53.6","806.4","0"],
    [30786,"2013-11-09T13:00:00","51","ND","ND","ND","ND","ND","1.4","326.3","28.9","49.6","739.1","0"],
    [30787,"2013-11-09T14:00:00","47","ND","ND","ND","ND","ND","1.5","299.7","29.8","46.7","586.7","0"],
    [30788,"2013-11-09T15:00:00","21","ND","ND","ND","ND","ND","1.9","327.4","29.8","47.4","395.4","0"],
    [30789,"2013-11-09T16:00:00","6","ND","ND","ND","ND","ND","2.8","283.9","29.9","46.9","429.2","0"],
    [30790,"2013-11-09T17:00:00","17","ND","ND","ND","ND","ND","2.5","267.4","29.3","46.9","205.1","0"],
    [30791,"2013-11-09T18:00:00","22","ND","ND","ND","ND","ND","1.4","251.8","27.9","48.5","22.2","0"],
    [30792,"2013-11-09T19:00:00","36","ND","ND","ND","ND","ND","0.5","93.5","26.9","52.2","0","0"],
    [30793,"2013-11-09T20:00:00","44","ND","ND","ND","ND","ND","0.5","93.3","26.5","54.4","0","0"],
    [30794,"2013-11-09T21:00:00","52","ND","ND","ND","ND","ND","0.9","141.3","26","57.8","0","0"],
    [30795,"2013-11-09T22:00:00","46","ND","ND","ND","ND","ND","0.5","67.4","24.9","64.3","0","0"],
    [30796,"2013-11-09T23:00:00","37","ND","ND","ND","ND","ND","0.4","177.9","24.6","65.7","0","0"],
    [30797,"2013-11-10T00:00:00","35","ND","ND","ND","ND","ND","0.2","354.4","24.1","68.2","0","0"],
    [30798,"2013-11-10T01:00:00","33","ND","ND","ND","ND","ND","0.4","121.1","23.8","70.7","0","0"],
    [30799,"2013-11-10T02:00:00","56","ND","ND","ND","ND","ND","0.6","142.4","23.4","74.1","0","0"],
    [30800,"2013-11-10T03:00:00","54","ND","ND","ND","ND","ND","0.8","154.7","23.1","75.5","0","0"],
    [30801,"2013-11-10T04:00:00","40","ND","ND","ND","ND","ND","0.7","168.2","23","76.2","0","0"],
    [30802,"2013-11-10T05:00:00","38","ND","ND","ND","ND","ND","0.7","176","23","75.8","0","0"],
    [30803,"2013-11-10T06:00:00","20","ND","ND","ND","ND","ND","0.8","156.6","22.5","78","0","0"],
    [30804,"2013-11-10T07:00:00","21","ND","ND","ND","ND","ND","0.4","146.5","21.8","85.8","9.9","0"],
    [30805,"2013-11-10T08:00:00","17","ND","ND","ND","ND","ND","1","60.2","21.7","88.2","52.6","0.25"],
    [30806,"2013-11-10T09:00:00","30","ND","ND","ND","ND","ND","0.2","244.4","21.9","89.4","129.8","0"],
    [30807,"2013-11-10T10:00:00","54","ND","ND","ND","ND","ND","1.1","143.5","24.1","75.9","478.3","0"],
    [30808,"2013-11-10T11:00:00","41","ND","ND","ND","ND","ND","0.5","218.8","25.7","67.8","326.4","0"],
    [30809,"2013-11-10T12:00:00","42","ND","ND","ND","ND","ND","0.7","141","27.5","58.7","667.6","0"],
    [30810,"2013-11-10T13:00:00","45","ND","ND","ND","ND","ND","0.9","117.3","28.5","54.9","748.6","0"],
    [30811,"2013-11-10T14:00:00","34","ND","ND","ND","ND","ND","0.7","125.6","28.9","52.9","425.2","0"],
    [30812,"2013-11-10T15:00:00","25","ND","ND","ND","ND","ND","1","333.2","28.8","53.7","231","0"],
    [30813,"2013-11-10T16:00:00","3","ND","ND","ND","ND","ND","2.1","249.7","29.6","50","416.9","0"],
    [30814,"2013-11-10T17:00:00","7","ND","ND","ND","ND","ND","1.5","298.5","29.1","49.7","197.2","0"],
    [30815,"2013-11-10T18:00:00","15","ND","ND","ND","ND","ND","0.8","271.5","28","52.5","24.3","0"],
    [30816,"2013-11-10T19:00:00","14","ND","ND","ND","ND","ND","1.3","116","26.3","65","0","0"],
    [30817,"2013-11-10T20:00:00","23","ND","ND","ND","ND","ND","0.6","62.3","25.5","67.8","0","0"],
    [30818,"2013-11-10T21:00:00","30","ND","ND","ND","ND","ND","1.1","143.2","25.9","66","0","0"],
    [30819,"2013-11-10T22:00:00","17","ND","ND","ND","ND","ND","0.8","96.4","24.9","69.4","0","0"],
    [30820,"2013-11-10T23:00:00","25","ND","ND","ND","ND","ND","1.7","191.6","24.5","74.3","0","0"],
    [30821,"2013-11-11T00:00:00","44","ND","ND","ND","ND","ND","1.8","181.7","24.2","77.4","0","0"],
    [30822,"2013-11-11T01:00:00","23","ND","ND","ND","ND","ND","0.2","242.2","23.8","76.1","0","0"],
    [30823,"2013-11-11T02:00:00","13","ND","ND","ND","ND","ND","0.6","280.8","23","77.5","0","0"],
    [30824,"2013-11-11T03:00:00","26","ND","ND","ND","ND","ND","0.6","360","22.8","81.6","0","0"],
    [30825,"2013-11-11T04:00:00","28","ND","ND","ND","ND","ND","0.4","321.3","22.4","84.4","0","0"],
    [30826,"2013-11-11T05:00:00","33","ND","ND","ND","ND","ND","0.1","328.7","22.5","83.8","0","0"],
    [30827,"2013-11-11T06:00:00","35","ND","ND","ND","ND","ND","0.9","17.2","22.3","84.4","0","0"],
    [30828,"2013-11-11T07:00:00","51","ND","ND","ND","ND","ND","0.3","318.8","22.4","84.5","38.4","0"],
    [30829,"2013-11-11T08:00:00","49","ND","ND","ND","ND","ND","0.6","144.7","23.5","78.6","141.2","0"],
    [30830,"2013-11-11T09:00:00","48","ND","ND","ND","ND","ND","0.5","119.2","24.5","73.6","223.7","0"],
    [30831,"2013-11-11T10:00:00","53","ND","ND","ND","ND","ND","1.5","114","26.4","65.7","624.9","0"],
    [30832,"2013-11-11T11:00:00","50","ND","ND","ND","ND","ND","1.4","126.9","27.8","59.4","740.4","0"],
    [30833,"2013-11-11T12:00:00","38","ND","ND","ND","ND","ND","0.6","118.3","29.2","53.6","786.2","0"],
    [30834,"2013-11-11T13:00:00","44","ND","ND","ND","ND","ND","0.7","82.3","30.1","51","611.3","0"],
    [30835,"2013-11-11T14:00:00","55","ND","ND","ND","ND","ND","1.3","345.6","29.6","52.6","207.8","0"],
    [30836,"2013-11-11T15:00:00","18","ND","ND","ND","ND","ND","2.9","267","29.8","50.1","395.5","0"],
    [30837,"2013-11-11T16:00:00","7","ND","ND","ND","ND","ND","3.5","260.8","30.4","47.7","444","0"],
    [30838,"2013-11-11T17:00:00","10","ND","ND","ND","ND","ND","1.6","282.1","29.9","47.9","198.2","0"],
    [30839,"2013-11-11T18:00:00","22","ND","ND","ND","ND","ND","0.7","248.1","28.4","51.2","20","0"],
    [30840,"2013-11-11T19:00:00","23","ND","ND","ND","ND","ND","0.5","230.7","27.4","54.6","0","0"],
    [30841,"2013-11-11T20:00:00","24","ND","ND","ND","ND","ND","0.2","128.9","27.1","55","0","0"],
    [30842,"2013-11-11T21:00:00","21","ND","ND","ND","ND","ND","0.7","115.6","26.3","60.1","0","0"],
    [30843,"2013-11-11T22:00:00","24","ND","ND","ND","ND","ND","0.9","136.2","25.3","65.8","0","0"],
    [30844,"2013-11-11T23:00:00","31","ND","ND","ND","ND","ND","0.6","159.5","24.6","69.1","0","0"],
    [30845,"2013-11-12T00:00:00","24","ND","ND","ND","ND","ND","0.1","156.9","24.3","70","0","0"],
    [30846,"2013-11-12T01:00:00","14","ND","ND","ND","ND","ND","0.6","154","23.9","72.3","0","0"],
    [30847,"2013-11-12T02:00:00","26","ND","ND","ND","ND","ND","0.6","122.5","23.6","75.1","0","0"],
    [30848,"2013-11-12T03:00:00","33","ND","ND","ND","ND","ND","0.2","286.8","23.1","77.6","0","0"],
    [30849,"2013-11-12T04:00:00","23","ND","ND","ND","ND","ND","0.5","226.3","23.2","78.7","0","0"],
    [30850,"2013-11-12T05:00:00","27","ND","ND","ND","ND","ND","0.7","196.5","22.8","83.7","0","0"],
    [30851,"2013-11-12T06:00:00","52","ND","ND","ND","ND","ND","0.9","355.6","22.4","83.5","0","0"],
    [30852,"2013-11-12T07:00:00","61","ND","ND","ND","ND","ND","0.6","359.8","22.4","83","30.5","0"],
    [30853,"2013-11-12T08:00:00","66","ND","ND","ND","ND","ND","0.5","286.5","23.5","80","189.7","0"],
    [30854,"2013-11-12T09:00:00","68","ND","ND","ND","ND","ND","0.8","89.2","26","67.8","497.9","0"],
    [30855,"2013-11-12T10:00:00","38","ND","ND","ND","ND","ND","0.6","116","26.7","63","315.6","0"],
    [30856,"2013-11-12T11:00:00","53","ND","ND","ND","ND","ND","1.1","96.4","27.6","59.9","702.2","0"],
    [30857,"2013-11-12T12:00:00","47","ND","ND","ND","ND","ND","0.7","100.5","28.9","55.5","511.4","0"],
    [30858,"2013-11-12T13:00:00","50","ND","ND","ND","ND","ND","0.5","47.7","30","52.1","667.2","0"],
    [30859,"2013-11-12T14:00:00","32","ND","ND","ND","ND","ND","1.2","30.5","30.4","50.6","379.4","0"],
    [30860,"2013-11-12T15:00:00","19","ND","ND","ND","ND","ND","1.5","270.4","30.5","48.8","491.5","0"],
    [30861,"2013-11-12T16:00:00","18","ND","ND","ND","ND","ND","3","259.3","29","51.9","128.3","0"],
    [30862,"2013-11-12T17:00:00","24","ND","ND","ND","ND","ND","0.2","280.5","28.4","51.6","36.2","0"],
    [30863,"2013-11-12T18:00:00","23","ND","ND","ND","ND","ND","1.5","242.9","27.8","52.5","25","0"],
    [30864,"2013-11-12T19:00:00","37","ND","ND","ND","ND","ND","0.5","250","27","54.5","0","0"],
    [30865,"2013-11-12T20:00:00","55","ND","ND","ND","ND","ND","0.8","126.6","26.6","57.8","0","0"],
    [30866,"2013-11-12T21:00:00","35","ND","ND","ND","ND","ND","0.7","63.4","25.5","62.5","0","0"],
    [30867,"2013-11-12T22:00:00","29","ND","ND","ND","ND","ND","0.5","100.7","25","65.9","0","0"],
    [30868,"2013-11-12T23:00:00","34","ND","ND","ND","ND","ND","0.4","228.4","24.2","70","0","0"],
    [30869,"2013-11-13T00:00:00","35","ND","ND","ND","ND","ND","0.2","211","23.5","72.7","0","0"],
    [30870,"2013-11-13T01:00:00","46","ND","ND","ND","ND","ND","0.3","253.3","23.7","72.6","0","0"],
    [30871,"2013-11-13T02:00:00","50","ND","ND","ND","ND","ND","0.3","345.6","23.6","73.9","0","0"],
    [30872,"2013-11-13T03:00:00","48","ND","ND","ND","ND","ND","0.7","20.6","23.2","77.7","0","0"],
    [30873,"2013-11-13T04:00:00","51","ND","ND","ND","ND","ND","0.6","108.3","22.9","80","0","0"],
    [30874,"2013-11-13T05:00:00","59","ND","ND","ND","ND","ND","0","101.9","22.8","82.1","0","0"],
    [30875,"2013-11-13T06:00:00","38","ND","ND","ND","ND","ND","0.8","32.8","22","85.5","0","0"],
    [30876,"2013-11-13T07:00:00","58","ND","ND","ND","ND","ND","0.6","178.3","22.1","86.2","20.5","0"],
    [30877,"2013-11-13T08:00:00","45","ND","ND","ND","ND","ND","0.6","186.7","23.2","80.6","153.5","0"],
    [30878,"2013-11-13T09:00:00","56","ND","ND","ND","ND","ND","1.1","162","24.7","73.1","268.5","0"],
    [30879,"2013-11-13T10:00:00","52","ND","ND","ND","ND","ND","1.1","149.6","25.5","69.8","354","0"],
    [30880,"2013-11-13T11:00:00","39","ND","ND","ND","ND","ND","1.1","68.5","26.5","64.8","494.1","0"],
    [30881,"2013-11-13T12:00:00","51","ND","ND","ND","ND","ND","1","32.6","27.1","63.6","441.3","0"],
    [30882,"2013-11-13T13:00:00","42","ND","ND","ND","ND","ND","0.9","64.4","27.7","61.2","477.8","0"],
    [30883,"2013-11-13T14:00:00","35","ND","ND","ND","ND","ND","0.9","117.9","28.8","57","497","0"],
    [30884,"2013-11-13T15:00:00","36","ND","ND","ND","ND","ND","1.4","145.7","29.1","55.1","330.7","0"],
    [30885,"2013-11-13T16:00:00","44","ND","ND","ND","ND","ND","0.9","200.7","29.3","53.9","247.4","0"],
    [30886,"2013-11-13T17:00:00","58","ND","ND","ND","ND","ND","0.5","325.2","28.6","56.4","72","0"],
    [30887,"2013-11-13T18:00:00","21","ND","ND","ND","ND","ND","1.3","242","27.8","56.5","10.7","0"],
    [30888,"2013-11-13T19:00:00","38","ND","ND","ND","ND","ND","0.9","232.6","27.1","59","0","0"],
    [30889,"2013-11-13T20:00:00","41","ND","ND","ND","ND","ND","0.1","234.7","26.7","60.4","0","0"],
    [30890,"2013-11-13T21:00:00","52","ND","ND","ND","ND","ND","0.2","131.3","25.9","64.3","0","0"],
    [30891,"2013-11-13T22:00:00","57","ND","ND","ND","ND","ND","0.8","152.6","25.4","68","0","0"],
    [30892,"2013-11-13T23:00:00","60","ND","ND","ND","ND","ND","0.4","111.7","24.5","72.5","0","0"],
    [30893,"2013-11-14T00:00:00","60","ND","ND","ND","ND","ND","0.4","178","24","74.1","0","0"],
    [30894,"2013-11-14T01:00:00","71","ND","ND","ND","ND","ND","0.6","52.1","23.5","76.3","0","0"],
    [30895,"2013-11-14T02:00:00","39","ND","ND","ND","ND","ND","0.8","156.8","23","78.9","0","0"],
    [30896,"2013-11-14T03:00:00","46","ND","ND","ND","ND","ND","0.9","157","22.7","81.2","0","0"],
    [30897,"2013-11-14T04:00:00","39","ND","ND","ND","ND","ND","0.6","165","22.5","82.4","0","0"],
    [30898,"2013-11-14T05:00:00","36","ND","ND","ND","ND","ND","0.1","274.1","22.3","84.4","0","0"],
    [30899,"2013-11-14T06:00:00","68","ND","ND","ND","ND","ND","0.2","314.6","22.1","84.4","0","0"],
    [30900,"2013-11-14T07:00:00","56","ND","ND","ND","ND","ND","0.3","255.2","22.3","84.8","24.5","0"],
    [30901,"2013-11-14T08:00:00","73","ND","ND","ND","ND","ND","0.3","174.4","23","82.2","99.3","0"],
    [30902,"2013-11-14T09:00:00","75","ND","ND","ND","ND","ND","0.6","153.1","24.2","75.9","199.4","0"],
    [30903,"2013-11-14T10:00:00","69","ND","ND","ND","ND","ND","0.9","131","25.2","72.1","333.7","0"],
    [30904,"2013-11-14T11:00:00","61","ND","ND","ND","ND","ND","0.9","95.3","26","68.1","401","0"],
    [30905,"2013-11-14T12:00:00","62","ND","ND","ND","ND","ND","1.2","56.7","26.8","64.7","405.1","0"],
    [30906,"2013-11-14T13:00:00","77","ND","ND","ND","ND","ND","0.9","62.1","27.8","60.3","599.1","0"],
    [30907,"2013-11-14T14:00:00","73","ND","ND","ND","ND","ND","1","42","28.8","57.2","519.3","0"],
    [30908,"2013-11-14T15:00:00","56","ND","ND","ND","ND","ND","1","73.6","29.5","54.1","294.9","0"],
    [30909,"2013-11-14T16:00:00","38","ND","ND","ND","ND","ND","0.6","238.6","29.1","53.8","142.7","0"],
    [30910,"2013-11-14T17:00:00","15","ND","ND","ND","ND","ND","2.8","252.4","29.7","49","238.1","0"],
    [30911,"2013-11-14T18:00:00","13","ND","ND","ND","ND","ND","2.1","255.3","28.3","51.5","16.3","0"],
    [30912,"2013-11-14T19:00:00","34","ND","ND","ND","ND","ND","0.8","178.6","27.4","55.1","0","0"],
    [30913,"2013-11-14T20:00:00","23","ND","ND","ND","ND","ND","1.7","201.7","26.4","60.4","0","0"],
    [30914,"2013-11-14T21:00:00","53","ND","ND","ND","ND","ND","0.9","18.5","25.9","63.7","0","0"],
    [30915,"2013-11-14T22:00:00","64","ND","ND","ND","ND","ND","1","350.2","24.8","69.2","0","0"],
    [30916,"2013-11-14T23:00:00","61","ND","ND","ND","ND","ND","0.2","102","24.7","68.2","0","0"],
    [30917,"2013-11-15T00:00:00","47","ND","ND","ND","ND","ND","0.4","288.4","24.1","72.6","0","0"],
    [30918,"2013-11-15T01:00:00","58","ND","ND","ND","ND","ND","1.1","142.5","24.6","69","0","0"],
    [30919,"2013-11-15T02:00:00","23","ND","ND","ND","ND","ND","1.1","155.1","22.7","83","0","0"],
    [30920,"2013-11-15T03:00:00","24","ND","ND","ND","ND","ND","0.1","345.2","22.6","84.5","0","0"],
    [30921,"2013-11-15T04:00:00","59","ND","ND","ND","ND","ND","0.4","5.8","22.5","85.5","0","0"],
    [30922,"2013-11-15T05:00:00","61","ND","ND","ND","ND","ND","0.9","351.9","22.1","87.1","0","0"],
    [30923,"2013-11-15T06:00:00","49","ND","ND","ND","ND","ND","0.2","119.8","22.2","86.1","0","0"],
    [30924,"2013-11-15T07:00:00","62","ND","ND","ND","ND","ND","0.3","235.7","22.5","85.8","45.9","0"],
    [30925,"2013-11-15T08:00:00","84","ND","ND","ND","ND","ND","1","32.2","24","76.1","249.8","0"],
    [30926,"2013-11-15T09:00:00","50","ND","ND","ND","ND","ND","1.1","59.1","25.8","68.8","454.7","0"],
    [30927,"2013-11-15T10:00:00","32","ND","ND","ND","ND","ND","0.6","96.2","26.1","67.5","250.2","0"],
    [30928,"2013-11-15T11:00:00","46","ND","ND","ND","ND","ND","1.8","220.2","26","67.6","376.5","0"],
    [30929,"2013-11-15T12:00:00","48","ND","ND","ND","ND","ND","1.4","181.3","28","58","803","0"],
    [30930,"2013-11-15T13:00:00","36","ND","ND","ND","ND","ND","0.8","122.5","30","51","812.6","0"],
    [30931,"2013-11-15T14:00:00","33","ND","ND","ND","ND","ND","0.9","71.8","30.3","49.2","458.3","0"],
    [30932,"2013-11-15T15:00:00","29","ND","ND","ND","ND","ND","1.2","66.2","30.7","48.9","532.8","0"],
    [30933,"2013-11-15T16:00:00","37","ND","ND","ND","ND","ND","0.9","2.9","31","48.2","292.7","0"],
    [30934,"2013-11-15T17:00:00","27","ND","ND","ND","ND","ND","1.3","282.9","30.4","50.8","164","0"],
    [30935,"2013-11-15T18:00:00","32","ND","ND","ND","ND","ND","1.2","250.6","28.9","53.7","20.9","0"],
    [30936,"2013-11-15T19:00:00","33","ND","ND","ND","ND","ND","1.6","244.5","27.6","57.8","0","0"],
    [30937,"2013-11-15T20:00:00","28","ND","ND","ND","ND","ND","0.6","225.5","27.3","58.5","0","0"],
    [30938,"2013-11-15T21:00:00","50","ND","ND","ND","ND","ND","0.5","102.1","26.6","62.3","0","0"],
    [30939,"2013-11-15T22:00:00","47","ND","ND","ND","ND","ND","0.8","153.3","25.4","67.9","0","0"],
    [30940,"2013-11-15T23:00:00","57","ND","ND","ND","ND","ND","0.6","190.5","25","70.3","0","0"],
    [30941,"2013-11-16T00:00:00","44","ND","ND","ND","ND","ND","0.2","178.1","24.5","72.2","0","0"],
    [30942,"2013-11-16T01:00:00","54","ND","ND","ND","ND","ND","0.5","153.8","24.1","74.4","0","0"],
    [30943,"2013-11-16T02:00:00","34","ND","ND","ND","ND","ND","0.8","142","23.8","77","0","0"],
    [30944,"2013-11-16T03:00:00","53","ND","ND","ND","ND","ND","0.9","153.5","23.5","78.8","0","0"],
    [30945,"2013-11-16T04:00:00","59","ND","ND","ND","ND","ND","0.6","171.9","23.4","79.3","0","0"],
    [30946,"2013-11-16T05:00:00","47","ND","ND","ND","ND","ND","0.4","258.8","23.3","80","0","0"],
    [30947,"2013-11-16T06:00:00","50","ND","ND","ND","ND","ND","0.2","10.7","23","81.1","0","0"],
    [30948,"2013-11-16T07:00:00","90","ND","ND","ND","ND","ND","0.1","352","23.2","81.1","24.8","0"],
    [30949,"2013-11-16T08:00:00","82","ND","ND","ND","ND","ND","0.4","223.7","24.5","75.5","173.3","0"],
    [30950,"2013-11-16T09:00:00","70","ND","ND","ND","ND","ND","0.6","88.8","26.3","67.3","403","0"],
    [30951,"2013-11-16T10:00:00","56","ND","ND","ND","ND","ND","1.4","58.3","27.1","63.8","577.4","0"],
    [30952,"2013-11-16T11:00:00","48","ND","ND","ND","ND","ND","1.1","52.7","28.8","57.9","813.4","0"],
    [30953,"2013-11-16T12:00:00","37","ND","ND","ND","ND","ND","1","32.7","29.8","53.7","711.7","0"],
    [30954,"2013-11-16T13:00:00","32","ND","ND","ND","ND","ND","0.8","10.6","30.5","50.9","436.9","0"],
    [30955,"2013-11-16T14:00:00","6","ND","ND","ND","ND","ND","1.4","250.2","31.7","44","743.4","0"],
    [30956,"2013-11-16T15:00:00","27","ND","ND","ND","ND","ND","1.4","343.1","30.9","47.4","82","0"],
    [30957,"2013-11-16T16:00:00","11","ND","ND","ND","ND","ND","3.6","263.4","28.5","54.4","38.5","0"],
    [30958,"2013-11-16T17:00:00","16","ND","ND","ND","ND","ND","2.5","271.6","28.5","53.9","56.5","0"],
    [30959,"2013-11-16T18:00:00","12","ND","ND","ND","ND","ND","1.5","284.8","28.2","53.6","14.9","0"],
    [30960,"2013-11-16T19:00:00","33","ND","ND","ND","ND","ND","0.9","110.2","27.8","57","0","0"],
    [30961,"2013-11-16T20:00:00","37","ND","ND","ND","ND","ND","0.6","156","26.8","61.9","0","0"],
    [30962,"2013-11-16T21:00:00","45","ND","ND","ND","ND","ND","0.2","296.8","25.9","66.7","0","0"],
    [30963,"2013-11-16T22:00:00","45","ND","ND","ND","ND","ND","0.4","93.2","25.6","69.1","0","0"],
    [30964,"2013-11-16T23:00:00","39","ND","ND","ND","ND","ND","1","118.5","25.6","68.8","0","0"],
    [30965,"2013-11-17T00:00:00","42","ND","ND","ND","ND","ND","0.9","71.3","24.5","76.5","0","0"],
    [30966,"2013-11-17T01:00:00","38","ND","ND","ND","ND","ND","1","149.5","23.9","78.5","0","0"],
    [30967,"2013-11-17T02:00:00","33","ND","ND","ND","ND","ND","1.3","163.5","23.5","81.5","0","0"],
    [30968,"2013-11-17T03:00:00","32","ND","ND","ND","ND","ND","0.5","200.8","23.4","81.7","0","0"],
    [30969,"2013-11-17T04:00:00","20","ND","ND","ND","ND","ND","0.4","288.2","23.5","79.1","0","0"],
    [30970,"2013-11-17T05:00:00","34","ND","ND","ND","ND","ND","0.9","39.1","23.6","78","0","0"],
    [30971,"2013-11-17T06:00:00","35","ND","ND","ND","ND","ND","0.9","31.3","22.3","88.3","0","0"],
    [30972,"2013-11-17T07:00:00","43","ND","ND","ND","ND","ND","0.6","333.9","22.5","87.2","13.2","0"],
    [30973,"2013-11-17T08:00:00","34","ND","ND","ND","ND","ND","0.4","283.7","23.4","81.8","123.5","0"],
    [30974,"2013-11-17T09:00:00","33","ND","ND","ND","ND","ND","1.2","128","24.7","74.9","186.7","0"],
    [30975,"2013-11-17T10:00:00","41","ND","ND","ND","ND","ND","1","134.5","24.9","74.5","166.7","0"],
    [30976,"2013-11-17T11:00:00","58","ND","ND","ND","ND","ND","1.3","188.6","25.9","70.3","385.8","0"],
    [30977,"2013-11-17T12:00:00","47","ND","ND","ND","ND","ND","0.2","347.9","27.4","64","581.8","0"],
    [30978,"2013-11-17T13:00:00","45","ND","ND","ND","ND","ND","1.4","140.7","28.5","58.5","452.4","0"],
    [30979,"2013-11-17T14:00:00","32","ND","ND","ND","ND","ND","0.3","160.6","28.8","56.6","357.5","0"],
    [30980,"2013-11-17T15:00:00","18","ND","ND","ND","ND","ND","1.3","288.8","30.1","51.1","660.4","0"],
    [30981,"2013-11-17T16:00:00","3","ND","ND","ND","ND","ND","3","261.3","29","52","305.5","0"],
    [30982,"2013-11-17T17:00:00","4","ND","ND","ND","ND","ND","1.8","274.8","28.4","51.5","116.4","0"],
    [30983,"2013-11-17T18:00:00","11","ND","ND","ND","ND","ND","0.3","155.4","27.6","54.9","19.1","0"],
    [30984,"2013-11-17T19:00:00","19","ND","ND","ND","ND","ND","0.9","84.8","26.6","60.7","0","0"],
    [30985,"2013-11-17T20:00:00","20","ND","ND","ND","ND","ND","1.7","130.4","25.7","66.6","0","0"],
    [30986,"2013-11-17T21:00:00","25","ND","ND","ND","ND","ND","0.8","28.9","25","69.2","0","0"],
    [30987,"2013-11-17T22:00:00","50","ND","ND","ND","ND","ND","0.8","2.9","23.8","76.8","0","0"],
    [30988,"2013-11-17T23:00:00","49","ND","ND","ND","ND","ND","0.6","13.6","23.2","80.7","0","0"],
    [30989,"2013-11-18T00:00:00","70","ND","ND","ND","ND","ND","0.3","350.3","22.6","86.2","0","1.02"],
    [30990,"2013-11-18T01:00:00","22","ND","ND","ND","ND","ND","0.6","243.3","22.2","90.6","0","1.78"],
    [30991,"2013-11-18T02:00:00","15","ND","ND","ND","ND","ND","0.3","237.8","22.2","90.9","0","0.25"],
    [30992,"2013-11-18T03:00:00","17","ND","ND","ND","ND","ND","0.9","211.1","22.1","89.6","0","0"],
    [30993,"2013-11-18T04:00:00","20","ND","ND","ND","ND","ND","1","147.2","22.3","88.2","0","0"],
    [30994,"2013-11-18T05:00:00","22","ND","ND","ND","ND","ND","0.7","181","22.2","89.3","0","0"],
    [30995,"2013-11-18T06:00:00","31","ND","ND","ND","ND","ND","1.1","144","22.1","89.2","0","0"],
    [30996,"2013-11-18T07:00:00","37","ND","ND","ND","ND","ND","1.2","179.4","22","89.2","13.9","0"],
    [30997,"2013-11-18T08:00:00","47","ND","ND","ND","ND","ND","1","192","22.6","86.9","77.4","0"],
    [30998,"2013-11-18T09:00:00","42","ND","ND","ND","ND","ND","1.4","180.5","23.8","78.5","186.9","0"],
    [30999,"2013-11-18T10:00:00","41","ND","ND","ND","ND","ND","2.6","153.7","24.8","72.5","428.3","0"],
    [31000,"2013-11-18T11:00:00","38","ND","ND","ND","ND","ND","1.8","167.8","26.4","64.4","711.1","0"],
    [31001,"2013-11-18T12:00:00","29","ND","ND","ND","ND","ND","0.3","161.7","27.3","60.3","464.5","0"],
    [31002,"2013-11-18T13:00:00","28","ND","ND","ND","ND","ND","0.6","170","28.2","56.1","649.7","0"],
    [31003,"2013-11-18T14:00:00","13","ND","ND","ND","ND","ND","0.7","73.3","27.8","58.2","301.9","0"],
    [31004,"2013-11-18T15:00:00","11","ND","ND","ND","ND","ND","1.2","165.4","28.7","54.1","510.1","0"],
    [31005,"2013-11-18T16:00:00","10","ND","ND","ND","ND","ND","4.2","251.2","28.5","52.6","282.4","0"],
    [31006,"2013-11-18T17:00:00","8","ND","ND","ND","ND","ND","2.9","263.6","26.7","58.1","49","0"],
    [31007,"2013-11-18T18:00:00","43","ND","ND","ND","ND","ND","0.6","115.4","21.6","89.1","0","10.67"],
    [31008,"2013-11-18T19:00:00","36","ND","ND","ND","ND","ND","0.3","88","22.1","85.1","0","0"],
    [31009,"2013-11-18T20:00:00","43","ND","ND","ND","ND","ND","0.8","333.6","22","88.2","0","0"],
    [31010,"2013-11-18T21:00:00","46","ND","ND","ND","ND","ND","0.1","61.4","21.9","89","0","0"],
    [31011,"2013-11-18T22:00:00","40","ND","ND","ND","ND","ND","0.5","87.7","21.6","88.6","0","0.25"],
    [31012,"2013-11-18T23:00:00","43","ND","ND","ND","ND","ND","0.5","276.3","21.5","89.4","0","0"],
    [31013,"2013-11-19T00:00:00","67","ND","ND","ND","ND","ND","0","36.6","21.9","88.1","0","0"],
    [31014,"2013-11-19T01:00:00","59","ND","ND","ND","ND","ND","0.6","92.5","21.9","88","0","0"],
    [31015,"2013-11-19T02:00:00","42","ND","ND","ND","ND","ND","0.5","188.8","20.9","90.8","0","0"],
    [31016,"2013-11-19T03:00:00","50","ND","ND","ND","ND","ND","0.2","167.6","21.1","90.2","0","0.51"],
    [31017,"2013-11-19T04:00:00","37","ND","ND","ND","ND","ND","0.9","111.1","20.9","91.5","0","0"],
    [31018,"2013-11-19T05:00:00","29","ND","ND","ND","ND","ND","0.9","139.7","20.4","92","0","2.79"],
    [31019,"2013-11-19T06:00:00","20","ND","ND","ND","ND","ND","0.5","134.2","20","94.3","0","2.79"],
    [31020,"2013-11-19T07:00:00","21","ND","ND","ND","ND","ND","0.5","127.8","19.8","93.3","4.5","0.76"],
    [31021,"2013-11-19T08:00:00","26","ND","ND","ND","ND","ND","0.3","76.5","20","94.1","19.1","2.29"],
    [31022,"2013-11-19T09:00:00","24","ND","ND","ND","ND","ND","0.8","23.2","20.1","94.4","67.3","1.02"],
    [31023,"2013-11-19T10:00:00","24","ND","ND","ND","ND","ND","1.4","310.7","21.4","87.2","438.6","0"],
    [31024,"2013-11-19T11:00:00","17","ND","ND","ND","ND","ND","0.9","188.6","24.7","68.1","658.8","0"],
    [31025,"2013-11-19T12:00:00","27","ND","ND","ND","ND","ND","1.4","74.1","25.6","64.5","413.1","0"],
    [31026,"2013-11-19T13:00:00","29","ND","ND","ND","ND","ND","0.4","133.6","25.7","65.1","408.1","0"],
    [31027,"2013-11-19T14:00:00","36","ND","ND","ND","ND","ND","0.6","304.4","27.3","57.9","761.9","0"],
    [31028,"2013-11-19T15:00:00","32","ND","ND","ND","ND","ND","1.4","82.8","27.5","59.2","307","0"],
    [31029,"2013-11-19T16:00:00","28","ND","ND","ND","ND","ND","0.6","229.8","24.3","78.2","80.1","7.37"],
    [31030,"2013-11-19T17:00:00","37","ND","ND","ND","ND","ND","0.8","302.7","24.6","77.4","97.7","0"],
    [31031,"2013-11-19T18:00:00","39","ND","ND","ND","ND","ND","1.9","280.5","24.9","69.4","33.4","0"],
    [31032,"2013-11-19T19:00:00","45","ND","ND","ND","ND","ND","0.2","248","23.9","71.9","0","0"],
    [31033,"2013-11-19T20:00:00","80","ND","ND","ND","ND","ND","0.2","284.9","23","77.8","0","0"],
    [31034,"2013-11-19T21:00:00","44","ND","ND","ND","ND","ND","0.1","275.1","22.7","74","0","0"],
    [31035,"2013-11-19T22:00:00","62","ND","ND","ND","ND","ND","0.9","161.5","22.4","78.5","0","0"],
    [31036,"2013-11-19T23:00:00","48","ND","ND","ND","ND","ND","0.3","268.9","21.5","83.9","0","0"],
    [31037,"2013-11-20T00:00:00","48","ND","ND","ND","ND","ND","0.3","37.9","21.4","84.1","0","0"],
    [31038,"2013-11-20T01:00:00","63","ND","ND","ND","ND","ND","0.3","262.1","21.4","84.4","0","0"],
    [31039,"2013-11-20T02:00:00","36","ND","ND","ND","ND","ND","0.2","128.8","21.3","86.3","0","0"],
    [31040,"2013-11-20T03:00:00","36","ND","ND","ND","ND","ND","0.3","89.5","20.9","86.7","0","0"],
    [31041,"2013-11-20T04:00:00","37","ND","ND","ND","ND","ND","0.3","220.4","20.8","88.7","0","0"],
    [31042,"2013-11-20T05:00:00","11","ND","ND","ND","ND","ND","0.2","136.7","20.5","92.8","0","0.25"],
    [31043,"2013-11-20T06:00:00","9","ND","ND","ND","ND","ND","0.7","159.4","20.5","92.5","0.1","0"],
    [31044,"2013-11-20T07:00:00","23","ND","ND","ND","ND","ND","0.8","158.5","20.7","93","19.9","0"],
    [31045,"2013-11-20T08:00:00","21","ND","ND","ND","ND","ND","1.6","170.6","20.7","92.7","68.8","0"],
    [31046,"2013-11-20T09:00:00","23","ND","ND","ND","ND","ND","0.9","150.1","22.7","82.5","300.6","0"],
    [31047,"2013-11-20T10:00:00","43","ND","ND","ND","ND","ND","1.5","120.3","24.4","74.3","580.4","0"],
    [31048,"2013-11-20T11:00:00","24","ND","ND","ND","ND","ND","1.9","123.1","25.8","67.4","575.9","0"],
    [31049,"2013-11-20T12:00:00","22","ND","ND","ND","ND","ND","1.3","133.6","26.3","64.8","449","0"],
    [31050,"2013-11-20T13:00:00","31","ND","ND","ND","ND","ND","0.5","185.5","26.7","63.9","420.5","0"],
    [31051,"2013-11-20T14:00:00","23","ND","ND","ND","ND","ND","1.6","291.2","26.7","60.9","299.8","0"],
    [31052,"2013-11-20T15:00:00","27","ND","ND","ND","ND","ND","1.2","321.7","25.2","69.9","185.8","0.25"],
    [31053,"2013-11-20T16:00:00","15","ND","ND","ND","ND","ND","0.7","259.4","26.9","59.8","354.9","0"],
    [31054,"2013-11-20T17:00:00","16","ND","ND","ND","ND","ND","2.4","291.9","27.8","52.2","257.1","0"],
    [31055,"2013-11-20T18:00:00","31","ND","ND","ND","ND","ND","0.4","113.3","27.1","55.3","29.3","0"],
    [31056,"2013-11-20T19:00:00","49","ND","ND","ND","ND","ND","2","135.6","25.5","63.1","0","0"],
    [31057,"2013-11-20T20:00:00","29","ND","ND","ND","ND","ND","0.6","234.1","24.6","66.6","0","0"],
    [31058,"2013-11-20T21:00:00","50","ND","ND","ND","ND","ND","0.6","268.9","23.7","72.5","0","0"],
    [31059,"2013-11-20T22:00:00","68","ND","ND","ND","ND","ND","0.7","40.5","23.7","74.1","0","0"],
    [31060,"2013-11-20T23:00:00","59","ND","ND","ND","ND","ND","0.3","332.9","22.8","78.5","0","0"],
    [31061,"2013-11-21T00:00:00","42","ND","ND","ND","ND","ND","0.3","294.9","22.5","79.7","0","0"],
    [31062,"2013-11-21T01:00:00","67","ND","ND","ND","ND","ND","0.2","175.1","22.6","80.2","0","0"],
    [31063,"2013-11-21T02:00:00","52","ND","ND","ND","ND","ND","0.2","314.1","21.9","87.4","0","5.33"],
    [31064,"2013-11-21T03:00:00","38","ND","ND","ND","ND","ND","0.2","339","21.2","92.9","0","0.25"],
    [31065,"2013-11-21T04:00:00","51","ND","ND","ND","ND","ND","0.5","263.3","21.1","92.9","0","0"],
    [31066,"2013-11-21T05:00:00","38","ND","ND","ND","ND","ND","0.2","343.5","21","93.3","0","0"],
    [31067,"2013-11-21T06:00:00","43","ND","ND","ND","ND","ND","0.1","174.2","21","92.7","0.2","0"],
    [31068,"2013-11-21T07:00:00","69","ND","ND","ND","ND","ND","0.2","299","21.1","91.4","47.9","0"],
    [31069,"2013-11-21T08:00:00","103","ND","ND","ND","ND","ND","0.6","78.2","22.3","86.1","182.1","0"],
    [31070,"2013-11-21T09:00:00","97","ND","ND","ND","ND","ND","0.4","110.9","24.6","76","396.6","0"],
    [31071,"2013-11-21T10:00:00","56","ND","ND","ND","ND","ND","0.6","36","25.5","69","457.2","0"],
    [31072,"2013-11-21T11:00:00","48","ND","ND","ND","ND","ND","0.1","193","26.5","63.2","391.9","0"],
    [31073,"2013-11-21T12:00:00","48","ND","ND","ND","ND","ND","0.4","298.3","27.3","59.6","305.5","0"],
    [31074,"2013-11-21T13:00:00","24","ND","ND","ND","ND","ND","0.7","275.5","28.4","53.6","622","0"],
    [31075,"2013-11-21T14:00:00","14","ND","ND","ND","ND","ND","1","287.8","28.6","52.3","342.2","0"],
    [31076,"2013-11-21T15:00:00","7","ND","ND","ND","ND","ND","2.5","234.4","29.8","47.3","651.7","0"],
    [31077,"2013-11-21T16:00:00","16","ND","ND","ND","ND","ND","0.6","218.8","29.4","50.7","497.8","0"],
    [31078,"2013-11-21T17:00:00","24","ND","ND","ND","ND","ND","0.8","209.4","25.5","67.7","25.5","0"],
    [31079,"2013-11-21T18:00:00","21","ND","ND","ND","ND","ND","1","101.9","25.5","63.5","2.3","0"],
    [31080,"2013-11-21T19:00:00","24","ND","ND","ND","ND","ND","1.5","137.9","25.1","65.1","0","0"],
    [31081,"2013-11-21T20:00:00","35","ND","ND","ND","ND","ND","3.2","193.9","23.6","77","0","0"],
    [31082,"2013-11-21T21:00:00","19","ND","ND","ND","ND","ND","2.9","185.9","22","86.5","0","4.32"],
    [31083,"2013-11-21T22:00:00","9","ND","ND","ND","ND","ND","0.5","256.1","21.7","89.2","0","0.25"],
    [31084,"2013-11-21T23:00:00","28","ND","ND","ND","ND","ND","0.4","105","21.7","90.4","0","0.25"],
    [31085,"2013-11-22T00:00:00","60","ND","ND","ND","ND","ND","0.6","35.5","21","93.3","0","0.25"],
    [31086,"2013-11-22T01:00:00","26","ND","ND","ND","ND","ND","0.1","1.5","20.8","93.2","0","0"],
    [31087,"2013-11-22T02:00:00","38","ND","ND","ND","ND","ND","0.2","345.4","20.7","93.2","0","0"],
    [31088,"2013-11-22T03:00:00","30","ND","ND","ND","ND","ND","0","43.3","20.5","93.2","0","0"],
    [31089,"2013-11-22T04:00:00","28","ND","ND","ND","ND","ND","0.2","158.4","20.4","92.6","0","0"],
    [31090,"2013-11-22T05:00:00","45","ND","ND","ND","ND","ND","0.5","358.6","20.1","93.8","0","0"],
    [31091,"2013-11-22T06:00:00","54","ND","ND","ND","ND","ND","0.1","215.2","19.9","93.9","0.2","0"],
    [31092,"2013-11-22T07:00:00","70","ND","ND","ND","ND","ND","0.2","353.3","19.8","94","9.3","0"],
    [31093,"2013-11-22T08:00:00","83","ND","ND","ND","ND","ND","0.9","345.5","20.2","93.5","87","0"],
    [31094,"2013-11-22T09:00:00","107","ND","ND","ND","ND","ND","0.7","173.8","22.1","82.9","337.2","0"],
    [31095,"2013-11-22T10:00:00","71","ND","ND","ND","ND","ND","0.9","136","24","70.8","395.6","0"],
    [31096,"2013-11-22T11:00:00","53","ND","ND","ND","ND","ND","0.4","76.8","24.8","67.8","651.5","0"],
    [31097,"2013-11-22T12:00:00","37","ND","ND","ND","ND","ND","1.4","66.8","26.6","60","754.3","0"],
    [31098,"2013-11-22T13:00:00","35","ND","ND","ND","ND","ND","1.4","91.9","28","53.1","790.2","0"],
    [31099,"2013-11-22T14:00:00","46","ND","ND","ND","ND","ND","1.7","67.2","27.1","57.2","265.4","0"],
    [31100,"2013-11-22T15:00:00","25","ND","ND","ND","ND","ND","1.2","334.1","27.8","54.5","403","0"],
    [31101,"2013-11-22T16:00:00","10","ND","ND","ND","ND","ND","1.2","294.7","28.8","50.4","497.8","0"],
    [31102,"2013-11-22T17:00:00","12","ND","ND","ND","ND","ND","1.6","338.4","28.5","50.5","242.3","0"],
    [31103,"2013-11-22T18:00:00","23","ND","ND","ND","ND","ND","0.9","309","26.9","55.1","23.8","0"],
    [31104,"2013-11-22T19:00:00","17","ND","ND","ND","ND","ND","0.3","223.3","25.9","58.1","0","0"],
    [31105,"2013-11-22T20:00:00","40","ND","ND","ND","ND","ND","0.5","31.7","25.1","61.5","0","0"],
    [31106,"2013-11-22T21:00:00","59","ND","ND","ND","ND","ND","0.5","220.4","24","67.3","0","0"],
    [31107,"2013-11-22T22:00:00","77","ND","ND","ND","ND","ND","0.4","159","23.5","71.5","0","0"],
    [31108,"2013-11-22T23:00:00","68","ND","ND","ND","ND","ND","0.5","309.4","22.4","75.7","0","0"],
    [31109,"2013-11-23T00:00:00","40","ND","ND","ND","ND","ND","0.3","302.6","22","75.9","0","0"],
    [31110,"2013-11-23T01:00:00","45","ND","ND","ND","ND","ND","0.2","335.4","22.1","77.2","0","0"],
    [31111,"2013-11-23T02:00:00","40","ND","ND","ND","ND","ND","0.2","59.7","21.2","83","0","0"],
    [31112,"2013-11-23T03:00:00","52","ND","ND","ND","ND","ND","0.5","297.1","20.8","83.8","0","0"],
    [31113,"2013-11-23T04:00:00","72","ND","ND","ND","ND","ND","0.1","17.3","20.8","83.3","0","0"],
    [31114,"2013-11-23T05:00:00","69","ND","ND","ND","ND","ND","0.5","194.5","21.1","82","0","0"],
    [31115,"2013-11-23T06:00:00","38","ND","ND","ND","ND","ND","0.2","229.2","21.4","80.2","0.3","0"],
    [31116,"2013-11-23T07:00:00","79","ND","ND","ND","ND","ND","0.9","27.4","20.7","85.7","20","0"],
    [31117,"2013-11-23T08:00:00","70","ND","ND","ND","ND","ND","0.5","77.5","22.2","78.3","243.7","0"],
    [31118,"2013-11-23T09:00:00","71","ND","ND","ND","ND","ND","1.2","122","24.7","67.4","436.4","0"],
    [31119,"2013-11-23T10:00:00","29","ND","ND","ND","ND","ND","1.4","153.3","26.1","60.4","577.9","0"],
    [31120,"2013-11-23T11:00:00","66","ND","ND","ND","ND","ND","0.9","81.7","26.3","63.6","330.9","0"],
    [31121,"2013-11-23T12:00:00","22","ND","ND","ND","ND","ND","3.3","258.9","24.3","68.4","113.5","0"],
    [31122,"2013-11-23T13:00:00","4","ND","ND","ND","ND","ND","3.2","246.8","26.1","63.4","487.4","0"],
    [31123,"2013-11-23T14:00:00","9","ND","ND","ND","ND","ND","2.6","249.2","29","47.9","700.8","0"],
    [31124,"2013-11-23T15:00:00","10","ND","ND","ND","ND","ND","2.1","334.1","29.2","46.7","673.7","0"],
    [31125,"2013-11-23T16:00:00","7","ND","ND","ND","ND","ND","1.9","275.9","29.3","45.9","371.9","0"],
    [31126,"2013-11-23T17:00:00","7","ND","ND","ND","ND","ND","3.1","257.5","28.5","49","198.3","0"],
    [31127,"2013-11-23T18:00:00","8","ND","ND","ND","ND","ND","1.8","243.4","26.9","54.9","13.6","0"],
    [31128,"2013-11-23T19:00:00","12","ND","ND","ND","ND","ND","1.2","219","25.8","59.6","0","0"],
    [31129,"2013-11-23T20:00:00","20","ND","ND","ND","ND","ND","0.2","151.8","25.4","60.6","0","0"],
    [31130,"2013-11-23T21:00:00","30","ND","ND","ND","ND","ND","0.3","109.1","24.8","64.2","0","0"],
    [31131,"2013-11-23T22:00:00","42","ND","ND","ND","ND","ND","0.3","77.5","24.1","68.8","0","0"],
    [31132,"2013-11-23T23:00:00","45","ND","ND","ND","ND","ND","0.2","218.4","23.4","73.4","0","0"],
    [31133,"2013-11-24T00:00:00","17","ND","ND","ND","ND","ND","1.9","144.7","23.5","72.6","0","0"],
    [31134,"2013-11-24T01:00:00","19","ND","ND","ND","ND","ND","1.2","159.2","23.1","73.8","0","0"],
    [31135,"2013-11-24T02:00:00","28","ND","ND","ND","ND","ND","0","271.1","22.5","79.9","0","0"],
    [31136,"2013-11-24T03:00:00","43","ND","ND","ND","ND","ND","0.6","29.8","21.8","83","0","0"],
    [31137,"2013-11-24T04:00:00","44","ND","ND","ND","ND","ND","0.4","215.9","21.8","83","0","0"],
    [31138,"2013-11-24T05:00:00","21","ND","ND","ND","ND","ND","0.1","192.8","21.8","84.5","0","0"],
    [31139,"2013-11-24T06:00:00","34","ND","ND","ND","ND","ND","0.7","260.8","21.9","83","0","0"],
    [31140,"2013-11-24T07:00:00","47","ND","ND","ND","ND","ND","0.8","38","21.6","84.6","5.6","0"],
    [31141,"2013-11-24T08:00:00","42","ND","ND","ND","ND","ND","0.5","192.9","21.7","85.2","21.9","0"],
    [31142,"2013-11-24T09:00:00","10","ND","ND","ND","ND","ND","1.4","173.6","21","90.6","58.7","12.7"],
    [31143,"2013-11-24T10:00:00","19","ND","ND","ND","ND","ND","1.4","203.5","21.2","93.4","150.2","1.52"],
    [31144,"2013-11-24T11:00:00","24","ND","ND","ND","ND","ND","1.5","187.6","23.1","81.5","348.3","0"],
    [31145,"2013-11-24T12:00:00","12","ND","ND","ND","ND","ND","1.1","193.5","24.6","70.3","286.8","0"],
    [31146,"2013-11-24T13:00:00","14","ND","ND","ND","ND","ND","0.9","250.1","24.1","75.7","222.2","1.78"],
    [31147,"2013-11-24T14:00:00","8","ND","ND","ND","ND","ND","0.4","320.4","24.2","75.1","268.7","0.25"],
    [31148,"2013-11-24T15:00:00","4","ND","ND","ND","ND","ND","1.2","351.1","25.5","66","298.1","0"],
    [31149,"2013-11-24T16:00:00","15","ND","ND","ND","ND","ND","1.7","42.2","24.4","73.9","168","0"],
    [31150,"2013-11-24T17:00:00","20","ND","ND","ND","ND","ND","0.9","329.1","24.2","71","46.1","0.25"],
    [31151,"2013-11-24T18:00:00","19","ND","ND","ND","ND","ND","0.7","189.6","22.6","84.1","7","5.33"],
    [31152,"2013-11-24T19:00:00","28","ND","ND","ND","ND","ND","0.7","204.6","21.6","91.4","0","2.29"],
    [31153,"2013-11-24T20:00:00","19","ND","ND","ND","ND","ND","1.2","217.8","21.5","89.2","0","0"],
    [31154,"2013-11-24T21:00:00","7","ND","ND","ND","ND","ND","0.9","221.5","21.6","86.7","0","0"],
    [31155,"2013-11-24T22:00:00","15","ND","ND","ND","ND","ND","0.6","329.2","21.4","88.5","0","0"],
    [31156,"2013-11-24T23:00:00","24","ND","ND","ND","ND","ND","0.2","229.1","21.3","91.3","0","0.25"],
    [31157,"2013-11-25T00:00:00","50","ND","ND","ND","ND","ND","1.2","181.5","21.2","91.8","0","0"],
    [31158,"2013-11-25T01:00:00","16","ND","ND","ND","ND","ND","0.3","200.8","21","92.3","0","0.25"],
    [31159,"2013-11-25T02:00:00","23","ND","ND","ND","ND","ND","0.2","289.2","20.9","92.1","0","0"],
    [31160,"2013-11-25T03:00:00","29","ND","ND","ND","ND","ND","0.1","88","20.8","91.5","0","0"],
    [31161,"2013-11-25T04:00:00","29","ND","ND","ND","ND","ND","0","338.5","20.7","91.8","0","0"],
    [31162,"2013-11-25T05:00:00","29","ND","ND","ND","ND","ND","0.2","53","20.6","91","0","0"],
    [31163,"2013-11-25T06:00:00","49","ND","ND","ND","ND","ND","0.5","353.5","20.5","91.2","0.1","0"],
    [31164,"2013-11-25T07:00:00","52","ND","ND","ND","ND","ND","0.5","345.7","20.3","92.8","20.1","0"],
    [31165,"2013-11-25T08:00:00","67","ND","ND","ND","ND","ND","0.8","75.3","21.1","89.8","102.2","0"],
    [31166,"2013-11-25T09:00:00","60","ND","ND","ND","ND","ND","0.5","19","22.1","84","203.9","0"],
    [31167,"2013-11-25T10:00:00","48","ND","ND","ND","ND","ND","1","99","23.9","75.3","565.4","0"],
    [31168,"2013-11-25T11:00:00","ND","ND","ND","ND","ND","ND","1.1","125","25.6","67","650.2","0"],
    [31169,"2013-11-25T12:00:00","43","ND","ND","ND","ND","ND","0.2","332.2","26.4","62.9","526","0"],
    [31170,"2013-11-25T13:00:00","46","ND","ND","ND","ND","ND","1","55.2","27.6","57.8","823.2","0"],
    [31171,"2013-11-25T14:00:00","31","ND","ND","ND","ND","ND","0.7","24.8","27.5","55.9","157.7","0"],
    [31172,"2013-11-25T15:00:00","18","ND","ND","ND","ND","ND","1.1","287.2","23.6","75","37.3","6.6"],
    [31173,"2013-11-25T16:00:00","16","ND","ND","ND","ND","ND","0.2","264.6","22.3","86.7","125.8","2.29"],
    [31174,"2013-11-25T17:00:00","35","ND","ND","ND","ND","ND","0.7","146.9","23.1","84","52.4","0.25"],
    [31175,"2013-11-25T18:00:00","43","ND","ND","ND","ND","ND","1.6","169","22.7","86.1","5.7","0"],
    [31176,"2013-11-25T19:00:00","44","ND","ND","ND","ND","ND","1.6","164.5","22.2","85","0","0"],
    [31177,"2013-11-25T20:00:00","39","ND","ND","ND","ND","ND","1.3","176.6","21.8","86.8","0","0"],
    [31178,"2013-11-25T21:00:00","43","ND","ND","ND","ND","ND","0.9","202.3","21.9","85.3","0","0"],
    [31179,"2013-11-25T22:00:00","31","ND","ND","ND","ND","ND","0.3","293.2","21.6","87","0","0"],
    [31180,"2013-11-25T23:00:00","32","ND","ND","ND","ND","ND","0.3","21.7","21.1","86.8","0","0"],
    [31181,"2013-11-26T00:00:00","38","ND","ND","ND","ND","ND","0.7","29.6","20.6","91.2","0","0"],
    [31182,"2013-11-26T01:00:00","49","ND","ND","ND","ND","ND","0.3","297.7","20.3","92.3","0","0"],
    [31183,"2013-11-26T02:00:00","59","ND","ND","ND","ND","ND","0.2","212.4","20.3","92.1","0","0"],
    [31184,"2013-11-26T03:00:00","51","ND","ND","ND","ND","ND","0.5","265.1","20.2","92.8","0","0"],
    [31185,"2013-11-26T04:00:00","49","ND","ND","ND","ND","ND","0.3","266.6","20.4","91.3","0","0"],
    [31186,"2013-11-26T05:00:00","42","ND","ND","ND","ND","ND","0.1","301.9","20.6","90.2","0","0"],
    [31187,"2013-11-26T06:00:00","58","ND","ND","ND","ND","ND","0.1","144.8","20.9","88.3","0.1","0"],
    [31188,"2013-11-26T07:00:00","89","ND","ND","ND","ND","ND","0.3","41.6","20.7","88.3","16.6","0"],
    [31189,"2013-11-26T08:00:00","106","ND","ND","ND","ND","ND","0.5","56.3","21.3","86.5","108.9","0"],
    [31190,"2013-11-26T09:00:00","71","ND","ND","ND","ND","ND","0.8","85.3","23.3","77.5","419.6","0"],
    [31191,"2013-11-26T10:00:00","50","ND","ND","ND","ND","ND","0.4","228.1","24.2","71.6","368.7","0"],
    [31192,"2013-11-26T11:00:00","36","ND","ND","ND","ND","ND","1","142.8","26.2","61.7","723.2","0"],
    [31193,"2013-11-26T12:00:00","39","ND","ND","ND","ND","ND","0.5","151.6","26.5","59.4","238.9","0"],
    [31194,"2013-11-26T13:00:00","37","ND","ND","ND","ND","ND","0.6","236.7","27.2","57.4","432.2","0"],
    [31195,"2013-11-26T14:00:00","42","ND","ND","ND","ND","ND","1.4","321.4","27.2","58.9","335.8","0"],
    [31196,"2013-11-26T15:00:00","14","ND","ND","ND","ND","ND","1.7","271.3","26.3","61","305","0"],
    [31197,"2013-11-26T16:00:00","17","ND","ND","ND","ND","ND","1.2","249.6","27.6","54.8","194.3","0"],
    [31198,"2013-11-26T17:00:00","15","ND","ND","ND","ND","ND","1.6","257.6","26.9","55.6","76.8","0"],
    [31199,"2013-11-26T18:00:00","14","ND","ND","ND","ND","ND","0.3","307.6","25.7","58.1","7.4","0"],
    [31200,"2013-11-26T19:00:00","89","ND","ND","ND","ND","ND","0.8","103.4","25.2","61.2","0","0"],
    [31201,"2013-11-26T20:00:00","92","ND","ND","ND","ND","ND","0.3","332.6","24.8","63.4","0","0"],
    [31202,"2013-11-26T21:00:00","38","ND","ND","ND","ND","ND","0.5","61","24.4","63.1","0","0"],
    [31203,"2013-11-26T22:00:00","47","ND","ND","ND","ND","ND","0.5","151.6","23.5","67.7","0","0"],
    [31204,"2013-11-26T23:00:00","39","ND","ND","ND","ND","ND","0.7","160.3","23.2","70.4","0","0"],
    [31205,"2013-11-27T00:00:00","81","ND","ND","ND","ND","ND","0.3","349.9","22.6","73.9","0","0"],
    [31206,"2013-11-27T01:00:00","15","ND","ND","ND","ND","ND","1.5","38.5","21.1","85.4","0","0"],
    [31207,"2013-11-27T02:00:00","4","ND","ND","ND","ND","ND","1","59","20.3","90","0","0"],
    [31208,"2013-11-27T03:00:00","5","ND","ND","ND","ND","ND","0.9","49.1","20.1","89.7","0","0"],
    [31209,"2013-11-27T04:00:00","56","ND","ND","ND","ND","ND","0.2","114.5","20.2","89.1","0","0"],
    [31210,"2013-11-27T05:00:00","20","ND","ND","ND","ND","ND","0","246.7","20.4","88.2","0","0"],
    [31211,"2013-11-27T06:00:00","39","ND","ND","ND","ND","ND","0.2","59.7","20.4","88.7","0.1","0"],
    [31212,"2013-11-27T07:00:00","39","ND","ND","ND","ND","ND","0.6","133.4","20.5","87.6","9.5","0"],
    [31213,"2013-11-27T08:00:00","57","ND","ND","ND","ND","ND","0.5","156.4","20.9","86.9","73.7","0"],
    [31214,"2013-11-27T09:00:00","27","ND","ND","ND","ND","ND","1.2","172.7","22.6","78.2","342.4","0"],
    [31215,"2013-11-27T10:00:00","19","ND","ND","ND","ND","ND","1.8","164","24.1","71","432.4","0"],
    [31216,"2013-11-27T11:00:00","20","ND","ND","ND","ND","ND","1.9","186.2","25.3","66","577.1","0"],
    [31217,"2013-11-27T12:00:00","22","ND","ND","ND","ND","ND","1.4","150.2","26.9","58","739.7","0"],
    [31218,"2013-11-27T13:00:00","24","ND","ND","ND","ND","ND","1.3","198.2","28.3","53.3","683.4","0"],
    [31219,"2013-11-27T14:00:00","35","ND","ND","ND","ND","ND","0.6","247.9","27.3","57.1","163.8","0.25"],
    [31220,"2013-11-27T15:00:00","14","ND","ND","ND","ND","ND","2.8","258.8","22.7","78.3","34.2","1.02"],
    [31221,"2013-11-27T16:00:00","29","ND","ND","ND","ND","ND","0.4","253.7","24.1","76.7","92.3","0"],
    [31222,"2013-11-27T17:00:00","69","ND","ND","ND","ND","ND","0.4","269.7","25.3","68.1","74.3","0"],
    [31223,"2013-11-27T18:00:00","62","ND","ND","ND","ND","ND","0.5","198.7","25","65.8","18.2","0"],
    [31224,"2013-11-27T19:00:00","94","ND","ND","ND","ND","ND","0.4","308.5","23.8","72.7","0","0"],
    [31225,"2013-11-27T20:00:00","81","ND","ND","ND","ND","ND","0.3","165.2","23.4","73.7","0","0"],
    [31226,"2013-11-27T21:00:00","75","ND","ND","ND","ND","ND","0.1","355.1","23.1","76.3","0","0"],
    [31227,"2013-11-27T22:00:00","65","ND","ND","ND","ND","ND","0.4","270.2","22.1","80.8","0","0"],
    [31228,"2013-11-27T23:00:00","62","ND","ND","ND","ND","ND","0.9","189.8","22.1","80.2","0","0"],
    [31229,"2013-11-28T00:00:00","31","ND","ND","ND","ND","ND","0.7","7.7","22.4","79.1","0","0"],
    [31230,"2013-11-28T01:00:00","50","ND","ND","ND","ND","ND","0.3","305.1","21.9","81.5","0","0"],
    [31231,"2013-11-28T02:00:00","53","ND","ND","ND","ND","ND","0.1","277.2","21.7","83.8","0","0"],
    [31232,"2013-11-28T03:00:00","46","ND","ND","ND","ND","ND","0.3","319.4","21.5","83.5","0","0"],
    [31233,"2013-11-28T04:00:00","62","ND","ND","ND","ND","ND","0.1","213.2","21.5","83.5","0","0"],
    [31234,"2013-11-28T05:00:00","73","ND","ND","ND","ND","ND","0.1","4","21","86","0","0"],
    [31235,"2013-11-28T06:00:00","64","ND","ND","ND","ND","ND","0.2","289.3","20.3","88.4","0.2","0"],
    [31236,"2013-11-28T07:00:00","107","ND","ND","ND","ND","ND","0.2","99.7","21","87","25.3","0"],
    [31237,"2013-11-28T08:00:00","67","ND","ND","ND","ND","ND","0.4","129.2","21.7","83.4","17.3","0"],
    [31238,"2013-11-28T09:00:00","45","ND","ND","ND","ND","ND","0.8","148.2","22.2","82.3","108","0"],
    [31239,"2013-11-28T10:00:00","40","ND","ND","ND","ND","ND","1.8","170.9","22.9","78.4","183","0"],
    [31240,"2013-11-28T11:00:00","26","ND","ND","ND","ND","ND","1.4","231.8","22.1","84.5","107","3.3"],
    [31241,"2013-11-28T12:00:00","30","ND","ND","ND","ND","ND","0.9","157.7","23.3","82.1","516.9","0"],
    [31242,"2013-11-28T13:00:00","32","ND","ND","ND","ND","ND","0.9","146.4","24.6","72.3","226.3","0"],
    [31243,"2013-11-28T14:00:00","27","ND","ND","ND","ND","ND","1.8","320.3","21.4","88.9","62.5","17.27"],
    [31244,"2013-11-28T15:00:00","6","ND","ND","ND","ND","ND","1.3","204.9","21.8","88.8","366.3","0.76"],
    [31245,"2013-11-28T16:00:00","6","ND","ND","ND","ND","ND","0.6","140.2","25.7","68","343.5","0"],
    [31246,"2013-11-28T17:00:00","37","ND","ND","ND","ND","ND","0.1","338.5","26.1","66.3","146.8","0"],
    [31247,"2013-11-28T18:00:00","69","ND","ND","ND","ND","ND","0.2","307.4","24.7","75.1","9.7","0"],
    [31248,"2013-11-28T19:00:00","55","ND","ND","ND","ND","ND","1.3","220.7","23.6","76","0.1","0"],
    [31249,"2013-11-28T20:00:00","68","ND","ND","ND","ND","ND","0.4","316.4","23.5","74","0","0"],
    [31250,"2013-11-28T21:00:00","73","ND","ND","ND","ND","ND","0.2","293.4","23.4","74.4","0","0"],
    [31251,"2013-11-28T22:00:00","62","ND","ND","ND","ND","ND","0.6","136.3","23.3","73","0","0"],
    [31252,"2013-11-28T23:00:00","27","ND","ND","ND","ND","ND","0.6","147.7","23","73","0","0"],
    [31253,"2013-11-29T00:00:00","18","ND","ND","ND","ND","ND","0.5","220.7","22.3","78.2","0","0"],
    [31254,"2013-11-29T01:00:00","28","ND","ND","ND","ND","ND","0.1","283.9","22","80.3","0","0"],
    [31255,"2013-11-29T02:00:00","19","ND","ND","ND","ND","ND","0.3","274.2","21.9","79.2","0","0"],
    [31256,"2013-11-29T03:00:00","17","ND","ND","ND","ND","ND","0.6","172.3","21.8","82.6","0","0"],
    [31257,"2013-11-29T04:00:00","27","ND","ND","ND","ND","ND","0.1","171.9","21.2","85.2","0","0"],
    [31258,"2013-11-29T05:00:00","15","ND","ND","ND","ND","ND","0.3","143.4","21.2","86.7","0","0"],
    [31259,"2013-11-29T06:00:00","35","ND","ND","ND","ND","ND","0.2","28.5","20.9","89","0","0"],
    [31260,"2013-11-29T07:00:00","70","ND","ND","ND","ND","ND","0.5","20.5","21","86.8","11.9","0"],
    [31261,"2013-11-29T08:00:00","95","ND","ND","ND","ND","ND","0.7","49.6","21.5","87.4","92.4","0"],
    [31262,"2013-11-29T09:00:00","73","ND","ND","ND","ND","ND","0.9","12.5","22","85.5","164.1","0"],
    [31263,"2013-11-29T10:00:00","62","ND","ND","ND","ND","ND","0.3","148.8","23.7","75.1","321.6","0"],
    [31264,"2013-11-29T11:00:00","48","ND","ND","ND","ND","ND","0.7","53.1","25.4","66.3","722.6","0"],
    [31265,"2013-11-29T12:00:00","44","ND","ND","ND","ND","ND","1.1","67","26.9","60.3","754.1","0"],
    [31266,"2013-11-29T13:00:00","36","ND","ND","ND","ND","ND","0.5","59.3","27.8","55.2","573.2","0"],
    [31267,"2013-11-29T14:00:00","37","ND","ND","ND","ND","ND","1.8","303.7","27.7","56.6","561.7","0"],
    [31268,"2013-11-29T15:00:00","29","ND","ND","ND","ND","ND","0.9","339.6","29.2","51.2","612.6","0"],
    [31269,"2013-11-29T16:00:00","14","ND","ND","ND","ND","ND","0.5","73.1","29.9","47","445.5","0"],
    [31270,"2013-11-29T17:00:00","18","ND","ND","ND","ND","ND","2.5","257","29.2","48.4","216.4","0"],
    [31271,"2013-11-29T18:00:00","16","ND","ND","ND","ND","ND","1.9","253.9","27.2","53.8","14.3","0"],
    [31272,"2013-11-29T19:00:00","28","ND","ND","ND","ND","ND","0.4","71.5","26.4","56.4","0.1","0"],
    [31273,"2013-11-29T20:00:00","66","ND","ND","ND","ND","ND","0.4","66.3","25.9","59.2","0","0"],
    [31274,"2013-11-29T21:00:00","62","ND","ND","ND","ND","ND","1.2","138.2","25.6","62.6","0","0"],
    [31275,"2013-11-29T22:00:00","54","ND","ND","ND","ND","ND","0.5","142.3","24.8","67.6","0","0.51"],
    [31276,"2013-11-29T23:00:00","22","ND","ND","ND","ND","ND","0.6","206","23","78.8","0","0"],
    [31277,"2013-11-30T00:00:00","56","ND","ND","ND","ND","ND","2.3","158.3","22.6","82","0","0"],
    [31278,"2013-11-30T01:00:00","8","ND","ND","ND","ND","ND","1.6","160.9","22.2","84.3","0","0.25"],
    [31279,"2013-11-30T02:00:00","14","ND","ND","ND","ND","ND","0.9","147.4","21.9","84.9","0","0"],
    [31280,"2013-11-30T03:00:00","9","ND","ND","ND","ND","ND","0.8","148.3","21.8","85.6","0","0"],
    [31281,"2013-11-30T04:00:00","15","ND","ND","ND","ND","ND","0.5","193.2","21.5","87.8","0","0"],
    [31282,"2013-11-30T05:00:00","18","ND","ND","ND","ND","ND","0.1","155.8","21.5","88.6","0","0"],
    [31283,"2013-11-30T06:00:00","30","ND","ND","ND","ND","ND","0.2","197.3","21.5","89.4","0","0"],
    [31284,"2013-11-30T07:00:00","24","ND","ND","ND","ND","ND","1","159.1","21.5","88.5","6.1","0"],
    [31285,"2013-11-30T08:00:00","22","ND","ND","ND","ND","ND","0.4","193.1","22.1","86.3","195.8","0"],
    [31286,"2013-11-30T09:00:00","39","ND","ND","ND","ND","ND","0.9","76.4","24.2","76.1","499","0"],
    [31287,"2013-11-30T10:00:00","29","ND","ND","ND","ND","ND","0.8","64.6","25.2","68.2","392","0"],
    [31288,"2013-11-30T11:00:00","12","ND","ND","ND","ND","ND","2.1","289.2","20.5","96.3","92.6","63.5"],
    [31289,"2013-11-30T12:00:00","22","ND","ND","ND","ND","ND","1.6","198.2","22.7","90","685.4","0.25"],
    [31290,"2013-11-30T13:00:00","16","ND","ND","ND","ND","ND","0.8","278.7","26.3","61.8","567.6","0"],
    [31291,"2013-11-30T14:00:00","17","ND","ND","ND","ND","ND","1.1","315.8","25.9","66.4","496.3","0"],
    [31292,"2013-11-30T15:00:00","6","ND","ND","ND","ND","ND","1.9","260.8","28","55.2","581.7","0"],
    [31293,"2013-11-30T16:00:00","6","ND","ND","ND","ND","ND","1.2","240.7","28","51.3","260.2","0"],
    [31294,"2013-11-30T17:00:00","18","ND","ND","ND","ND","ND","0.8","200.5","27.2","57.2","97.4","0"],
    [31295,"2013-11-30T18:00:00","27","ND","ND","ND","ND","ND","1.7","188","26","62.8","22.3","0"],
    [31296,"2013-11-30T19:00:00","23","ND","ND","ND","ND","ND","0.9","255","24.7","62.4","0.2","0"],
    [31297,"2013-11-30T20:00:00","43","ND","ND","ND","ND","ND","0.2","311.6","23.8","67.9","0","0"],
    [31298,"2013-11-30T21:00:00","50","ND","ND","ND","ND","ND","0.3","69.4","23.6","69.7","0","0"],
    [31299,"2013-11-30T22:00:00","48","ND","ND","ND","ND","ND","0.8","160.2","23.5","69.8","0","0"],
    [31300,"2013-11-30T23:00:00","44","ND","ND","ND","ND","ND","0.3","190.6","22.6","75","0","0"],
    [31301,"2013-12-01T00:00:00","ND","ND","ND","ND","ND","ND","0.4","319.8","22","79.7","0","0"],
    [31302,"2013-12-01T01:00:00","58","ND","ND","ND","ND","ND","0.8","353.7","21","83.2","0","0"],
    [31303,"2013-12-01T02:00:00","31","ND","ND","ND","ND","ND","0.5","328.7","20.4","84.6","0","0"],
    [31304,"2013-12-01T03:00:00","43","ND","ND","ND","ND","ND","0.2","267.6","20.6","84.5","0","0"],
    [31305,"2013-12-01T04:00:00","43","ND","ND","ND","ND","ND","0.5","2.4","20.8","83.8","0","0"],
    [31306,"2013-12-01T05:00:00","41","ND","ND","ND","ND","ND","0","1","20.5","88.1","0","0"],
    [31307,"2013-12-01T06:00:00","45","ND","ND","ND","ND","ND","0.4","18.1","20.3","89.4","0.3","0"],
    [31308,"2013-12-01T07:00:00","ND","ND","ND","ND","ND","ND","0.6","10.7","20.2","88.3","23.1","0"],
    [31309,"2013-12-01T08:00:00","ND","ND","ND","ND","ND","ND","0.5","69.9","21","84.3","124.4","0"],
    [31310,"2013-12-01T09:00:00","ND","ND","ND","ND","ND","ND","0.9","172.8","23.1","74.5","358.8","0"],
    [31311,"2013-12-01T10:00:00","ND","ND","ND","ND","ND","ND","1.3","157.8","25.2","64.2","616","0"],
    [31312,"2013-12-01T11:00:00","ND","ND","ND","ND","ND","ND","1.8","154.9","26.6","59","741.3","0"],
    [31313,"2013-12-01T12:00:00","ND","ND","ND","ND","ND","ND","1.9","137.4","27.8","55.1","714.7","0"],
    [31314,"2013-12-01T13:00:00","ND","ND","ND","ND","ND","ND","1.1","161.1","28.6","52","631.6","0"],
    [31315,"2013-12-01T14:00:00","ND","ND","ND","ND","ND","ND","1","245.7","29.3","50.5","671.8","0"],
    [31316,"2013-12-01T15:00:00","ND","ND","ND","ND","ND","ND","2.3","239.6","30","48.1","663.4","0"],
    [31317,"2013-12-01T16:00:00","ND","ND","ND","ND","ND","ND","3.3","269","29.3","48","357.5","0"],
    [31318,"2013-12-01T17:00:00","ND","ND","ND","ND","ND","ND","2.2","275.6","28.6","49.1","128.6","0"],
    [31319,"2013-12-01T18:00:00","ND","ND","ND","ND","ND","ND","2.4","283.3","27.5","52.6","22","0"],
    [31320,"2013-12-01T19:00:00","ND","ND","ND","ND","ND","ND","1.1","292","26.8","55.6","0","0"],
    [31321,"2013-12-01T20:00:00","ND","ND","ND","ND","ND","ND","0.1","257.8","26.8","56.1","0","0"],
    [31322,"2013-12-01T21:00:00","ND","ND","ND","ND","ND","ND","3.4","286.1","23.5","71.6","0","1.52"],
    [31323,"2013-12-01T22:00:00","ND","ND","ND","ND","ND","ND","0.7","138.8","23","77.9","0","0.51"],
    [31324,"2013-12-01T23:00:00","ND","ND","ND","ND","ND","ND","0.8","69.2","23.1","78.8","0","0"],
    [31325,"2013-12-02T00:00:00","ND","ND","ND","ND","ND","ND","0.4","250.1","22.4","85.7","0","0"],
    [31326,"2013-12-02T01:00:00","ND","ND","ND","ND","ND","ND","1.4","181.7","21.8","87.2","0","0"],
    [31327,"2013-12-02T02:00:00","ND","ND","ND","ND","ND","ND","0.1","185","21.9","87.8","0","0"],
    [31328,"2013-12-02T03:00:00","ND","ND","ND","ND","ND","ND","0.6","15.4","21.6","88.8","0","3.05"],
    [31329,"2013-12-02T04:00:00","ND","ND","ND","ND","ND","ND","0.6","277.2","20.2","95.5","0","41.91"],
    [31330,"2013-12-02T05:00:00","ND","ND","ND","ND","ND","ND","0.7","337.8","19.7","99","0","15.75"],
    [31331,"2013-12-02T06:00:00","ND","ND","ND","ND","ND","ND","0.6","1.5","19.8","99.3","0","3.81"],
    [31332,"2013-12-02T07:00:00","ND","ND","ND","ND","ND","ND","0.2","354.4","20.1","98.5","6.8","0.25"],
    [31333,"2013-12-02T08:00:00","ND","ND","ND","ND","ND","ND","0.4","45.9","20.4","97.7","26.7","7.11"],
    [31334,"2013-12-02T09:00:00","ND","ND","ND","ND","ND","ND","0.7","47.5","20.5","97.3","91.9","1.78"],
    [31335,"2013-12-02T10:00:00","ND","ND","ND","ND","ND","ND","0.9","42.7","21","94","92.7","0"],
    [31336,"2013-12-02T11:00:00","ND","ND","ND","ND","ND","ND","0.4","191.8","21.9","89.7","234.1","0"],
    [31337,"2013-12-02T12:00:00","ND","ND","ND","ND","ND","ND","0.8","151.6","23.1","83.4","257.7","0"],
    [31338,"2013-12-02T13:00:00","ND","ND","ND","ND","ND","ND","0.2","193.9","23.5","80.7","255.5","0"],
    [31339,"2013-12-02T14:00:00","ND","ND","ND","ND","ND","ND","0.7","100.6","23.6","81.1","244.2","0.51"],
    [31340,"2013-12-02T15:00:00","ND","ND","ND","ND","ND","ND","0.8","85.9","24.3","77.6","405.9","0"],
    [31341,"2013-12-02T16:00:00","ND","ND","ND","ND","ND","ND","0.4","34","24.9","73.2","240.3","0.25"],
    [31342,"2013-12-02T17:00:00","ND","ND","ND","ND","ND","ND","0.2","255.6","25.3","71.6","127.9","0"],
    [31343,"2013-12-02T18:00:00","ND","ND","ND","ND","ND","ND","1","144.9","25","70.7","22.6","0"],
    [31344,"2013-12-02T19:00:00","ND","ND","ND","ND","ND","ND","0.9","290.2","23.9","78.8","0.1","0"],
    [31345,"2013-12-02T20:00:00","ND","ND","ND","ND","ND","ND","0.3","66.7","23.7","78.6","0","0"],
    [31346,"2013-12-02T21:00:00","ND","ND","ND","ND","ND","ND","0.5","228.9","23.1","82.4","0","0"],
    [31347,"2013-12-02T22:00:00","ND","ND","ND","ND","ND","ND","0.7","205.6","23","81.3","0","0"],
    [31348,"2013-12-02T23:00:00","ND","ND","ND","ND","ND","ND","0.4","138.1","23","82.4","0","0"],
    [31349,"2013-12-03T00:00:00","31","ND","ND","ND","ND","ND","0.4","279.8","22.3","85.3","0","0"],
    [31350,"2013-12-03T01:00:00","ND","ND","ND","ND","ND","ND","0.2","334","22.2","86.3","0","0"],
    [31351,"2013-12-03T02:00:00","ND","ND","ND","ND","ND","ND","1.5","29.8","21.6","88.9","0","0"],
    [31352,"2013-12-03T03:00:00","ND","ND","ND","ND","ND","ND","0.5","35.6","21.1","90.6","0","0"],
    [31353,"2013-12-03T04:00:00","ND","ND","ND","ND","ND","ND","0.3","121","21.1","92.4","0","0"],
    [31354,"2013-12-03T05:00:00","ND","ND","ND","ND","ND","ND","0.5","146.2","21.2","93.4","0","0.51"],
    [31355,"2013-12-03T06:00:00","ND","ND","ND","ND","ND","ND","0.5","104.2","21","93.8","0","0.25"],
    [31356,"2013-12-03T07:00:00","ND","ND","ND","ND","ND","ND","1.2","158","20.8","93.9","6.9","0"],
    [31357,"2013-12-03T08:00:00","ND","ND","ND","ND","ND","ND","1.1","147.5","21.3","91","83.8","0"],
    [31358,"2013-12-03T09:00:00","ND","ND","ND","ND","ND","ND","1.1","169.5","22.4","85.8","271.3","0"],
    [31359,"2013-12-03T10:00:00","ND","ND","ND","ND","ND","ND","0.9","127.3","24.7","73.7","537.5","0"],
    [31360,"2013-12-03T11:00:00","39","ND","ND","ND","ND","ND","1","141.6","25.1","70.2","345.2","0"],
    [31361,"2013-12-03T12:00:00","39","ND","ND","ND","ND","ND","0.3","249.9","26.1","66.6","399.1","0"],
    [31362,"2013-12-03T13:00:00","51","ND","ND","ND","ND","ND","0.2","344.5","26.5","63.9","297.2","0"],
    [31363,"2013-12-03T14:00:00","42","ND","ND","ND","ND","ND","0.8","13.7","26","67.2","131.7","0"],
    [31364,"2013-12-03T15:00:00","41","ND","ND","ND","ND","ND","1.7","224.4","26.7","67.8","453.2","0"],
    [31365,"2013-12-03T16:00:00","13","ND","ND","ND","ND","ND","0.2","242.1","27.7","57.2","285.1","0"],
    [31366,"2013-12-03T17:00:00","27","ND","ND","ND","ND","ND","0.3","147.1","26.8","58.9","71.8","0"],
    [31367,"2013-12-03T18:00:00","46","ND","ND","ND","ND","ND","2.3","168.7","24.7","74","4.5","0"],
    [31368,"2013-12-03T19:00:00","61","ND","ND","ND","ND","ND","1","184.7","24.1","78","0","0"],
    [31369,"2013-12-03T20:00:00","58","ND","ND","ND","ND","ND","0.1","169.9","23.5","82.3","0","0"],
    [31370,"2013-12-03T21:00:00","48","ND","ND","ND","ND","ND","1.5","149.8","23.3","82.5","0","0"],
    [31371,"2013-12-03T22:00:00","42","ND","ND","ND","ND","ND","1.3","159.4","22.7","85","0","0"],
    [31372,"2013-12-03T23:00:00","36","ND","ND","ND","ND","ND","0.9","171.7","22.6","84.3","0","0"],
    [31373,"2013-12-04T00:00:00","40","ND","ND","ND","ND","ND","0.4","211.5","22.8","83.7","0","0"],
    [31374,"2013-12-04T01:00:00","23","ND","ND","ND","ND","ND","0.1","277","22","87.9","0","0"],
    [31375,"2013-12-04T02:00:00","28","ND","ND","ND","ND","ND","0.1","229.8","22","87.2","0","0"],
    [31376,"2013-12-04T03:00:00","31","ND","ND","ND","ND","ND","0.2","63.6","22.1","86.5","0","0"],
    [31377,"2013-12-04T04:00:00","44","ND","ND","ND","ND","ND","0.2","138.4","21.8","87.5","0","0"],
    [31378,"2013-12-04T05:00:00","36","ND","ND","ND","ND","ND","0.7","127.3","21.7","87.5","0","0"],
    [31379,"2013-12-04T06:00:00","25","ND","ND","ND","ND","ND","0.2","106.3","21.4","87.6","0.1","0"],
    [31380,"2013-12-04T07:00:00","77","ND","ND","ND","ND","ND","0.6","10.1","21.3","88.7","29.1","0"],
    [31381,"2013-12-04T08:00:00","78","ND","ND","ND","ND","ND","0.6","4.4","22.2","85.4","118.2","0"],
    [31382,"2013-12-04T09:00:00","76","ND","ND","ND","ND","ND","0.8","55.1","23.1","82","252.1","0"],
    [31383,"2013-12-04T10:00:00","62","ND","ND","ND","ND","ND","1.4","77.8","25","72.4","601.7","0"],
    [31384,"2013-12-04T11:00:00","38","ND","ND","ND","ND","ND","1.3","94.6","26.4","64.9","646","0"],
    [31385,"2013-12-04T12:00:00","30","ND","ND","ND","ND","ND","0.9","132","27.4","60.5","515","0"],
    [31386,"2013-12-04T13:00:00","39","ND","ND","ND","ND","ND","0.8","155.3","27.3","60.3","246","0"],
    [31387,"2013-12-04T14:00:00","48","ND","ND","ND","ND","ND","0.9","169.2","28.6","56.3","643.5","0"],
    [31388,"2013-12-04T15:00:00","59","ND","ND","ND","ND","ND","1.5","136.2","28.8","55.4","340.9","0"],
    [31389,"2013-12-04T16:00:00","48","ND","ND","ND","ND","ND","1.3","112.7","28.2","57.5","117","0"],
    [31390,"2013-12-04T17:00:00","30","ND","ND","ND","ND","ND","1.5","245.3","27.8","57.3","109.6","0"],
    [31391,"2013-12-04T18:00:00","29","ND","ND","ND","ND","ND","1.2","248.1","26.9","58.6","13.2","0"],
    [31392,"2013-12-04T19:00:00","65","ND","ND","ND","ND","ND","0.3","339.7","26.1","62.2","0","0"],
    [31393,"2013-12-04T20:00:00","94","ND","ND","ND","ND","ND","0.4","255.2","25.3","66.1","0","0"],
    [31394,"2013-12-04T21:00:00","35","ND","ND","ND","ND","ND","0.9","49.5","24.4","73.1","0","0"],
    [31395,"2013-12-04T22:00:00","38","ND","ND","ND","ND","ND","1.1","143.7","23.8","78.4","0","0"],
    [31396,"2013-12-04T23:00:00","33","ND","ND","ND","ND","ND","0.7","6.1","23","82.4","0","0"],
    [31397,"2013-12-05T00:00:00","48","ND","ND","ND","ND","ND","0.3","240.7","22.4","77.9","0","0"],
    [31398,"2013-12-05T01:00:00","50","ND","ND","ND","ND","ND","0.4","49.5","22.6","84.9","0","0"],
    [31399,"2013-12-05T02:00:00","43","ND","ND","ND","ND","ND","0.4","210.8","22.1","86.8","0","0"],
    [31400,"2013-12-05T03:00:00","57","ND","ND","ND","ND","ND","0.1","12.2","22.2","86.6","0","0"],
    [31401,"2013-12-05T04:00:00","55","ND","ND","ND","ND","ND","0.7","204","22","87.6","0","0"],
    [31402,"2013-12-05T05:00:00","56","ND","ND","ND","ND","ND","0.8","14.6","21.7","88.6","0","0"],
    [31403,"2013-12-05T06:00:00","65","ND","ND","ND","ND","ND","0.4","223.3","21.4","90.4","0","0"],
    [31404,"2013-12-05T07:00:00","85","ND","ND","ND","ND","ND","0.3","334.6","21.7","89.6","5","0"],
    [31405,"2013-12-05T08:00:00","106","ND","ND","ND","ND","ND","0.5","12","22.1","87","31.6","0"],
    [31406,"2013-12-05T09:00:00","131","ND","ND","ND","ND","ND","1.2","22.6","22.7","86.2","217.1","0"],
    [31407,"2013-12-05T10:00:00","81","ND","ND","ND","ND","ND","1.2","92.3","25.6","71.4","608.8","0"],
    [31408,"2013-12-05T11:00:00","44","ND","ND","ND","ND","ND","1.4","101.8","26.9","64.3","628.4","0"],
    [31409,"2013-12-05T12:00:00","46","ND","ND","ND","ND","ND","1.2","96","27.5","63.7","556.9","0"],
    [31410,"2013-12-05T13:00:00","48","ND","ND","ND","ND","ND","1.1","66.2","27.3","63.8","240","0"],
    [31411,"2013-12-05T14:00:00","41","ND","ND","ND","ND","ND","0.7","45.1","27.9","61.1","566.5","0"],
    [31412,"2013-12-05T15:00:00","41","ND","ND","ND","ND","ND","0.9","333.4","29.1","54.3","526.4","0"],
    [31413,"2013-12-05T16:00:00","14","ND","ND","ND","ND","ND","2.3","251.2","29.8","48.8","333.3","0"],
    [31414,"2013-12-05T17:00:00","23","ND","ND","ND","ND","ND","2.4","255.2","28.2","51.6","57.5","0"],
    [31415,"2013-12-05T18:00:00","83","ND","ND","ND","ND","ND","0.1","89.1","27.7","53.7","17.9","0"],
    [31416,"2013-12-05T19:00:00","52","ND","ND","ND","ND","ND","1.6","170.1","26.9","56.8","0","0"],
    [31417,"2013-12-05T20:00:00","57","ND","ND","ND","ND","ND","0.7","3.8","25.5","63.5","0","0"],
    [31418,"2013-12-05T21:00:00","43","ND","ND","ND","ND","ND","0.9","56.3","23.4","71.4","0","0"],
    [31419,"2013-12-05T22:00:00","42","ND","ND","ND","ND","ND","0.9","154.7","22.8","71.7","0","0"],
    [31420,"2013-12-05T23:00:00","33","ND","ND","ND","ND","ND","0.7","267.4","22.3","77.3","0","0"],
    [31421,"2013-12-06T00:00:00","46","ND","ND","ND","ND","ND","0.7","321.7","22.2","79.7","0","0"],
    [31422,"2013-12-06T01:00:00","68","ND","ND","ND","ND","ND","0.3","146.4","22.7","75.4","0","0"],
    [31423,"2013-12-06T02:00:00","66","ND","ND","ND","ND","ND","0.4","0.2","21.8","79.6","0","0"],
    [31424,"2013-12-06T03:00:00","73","ND","ND","ND","ND","ND","0.2","338.1","21.2","82.8","0","0"],
    [31425,"2013-12-06T04:00:00","73","ND","ND","ND","ND","ND","0.2","69.1","21.3","82.5","0","0"],
    [31426,"2013-12-06T05:00:00","65","ND","ND","ND","ND","ND","0.6","31","21.1","83.4","0","0"],
    [31427,"2013-12-06T06:00:00","89","ND","ND","ND","ND","ND","0.4","337.2","20.7","86.9","0.2","0"],
    [31428,"2013-12-06T07:00:00","143","ND","ND","ND","ND","ND","0.1","53.3","21","85.4","31.1","0"],
    [31429,"2013-12-06T08:00:00","138","ND","ND","ND","ND","ND","0.2","132.7","22.6","77.6","152.1","0"],
    [31430,"2013-12-06T09:00:00","128","ND","ND","ND","ND","ND","0.1","165.4","24.6","68.3","406.6","0"],
    [31431,"2013-12-06T10:00:00","90","ND","ND","ND","ND","ND","1","128.2","26.6","60.6","579.8","0"],
    [31432,"2013-12-06T11:00:00","73","ND","ND","ND","ND","ND","0.9","139","27.8","56.5","723.9","0"],
    [31433,"2013-12-06T12:00:00","48","ND","ND","ND","ND","ND","1","45.6","28.1","56.2","548.1","0"],
    [31434,"2013-12-06T13:00:00","59","ND","ND","ND","ND","ND","0.8","6.8","29","53.6","652.1","0"],
    [31435,"2013-12-06T14:00:00","47","ND","ND","ND","ND","ND","1.4","17.6","30","50","498.6","0"],
    [31436,"2013-12-06T15:00:00","14","ND","ND","ND","ND","ND","2.2","280.6","29.9","47.1","370.2","0"],
    [31437,"2013-12-06T16:00:00","18","ND","ND","ND","ND","ND","2.5","284.5","29.7","47.2","299.3","0"],
    [31438,"2013-12-06T17:00:00","35","ND","ND","ND","ND","ND","1.3","313.6","28.4","48.7","96.4","0"],
    [31439,"2013-12-06T18:00:00","24","ND","ND","ND","ND","ND","0.5","328.1","27.8","50.9","11.6","0"],
    [31440,"2013-12-06T19:00:00","21","ND","ND","ND","ND","ND","0.6","51.7","26.7","55.9","0","0"],
    [31441,"2013-12-06T20:00:00","29","ND","ND","ND","ND","ND","2.9","167.8","25.8","61.6","0","0"],
    [31442,"2013-12-06T21:00:00","44","ND","ND","ND","ND","ND","1.8","106.9","24.2","69.8","0","0"],
    [31443,"2013-12-06T22:00:00","37","ND","ND","ND","ND","ND","1.5","148.2","22.4","76.8","0","0"],
    [31444,"2013-12-06T23:00:00","39","ND","ND","ND","ND","ND","0.7","223.8","22.2","77.8","0","0"],
    [31445,"2013-12-07T00:00:00","15","ND","ND","ND","ND","ND","0.9","36.1","20.6","94.5","0","0.25"],
    [31446,"2013-12-07T01:00:00","44","ND","ND","ND","ND","ND","0.7","36.8","21.5","85.9","0","2.29"],
    [31447,"2013-12-07T02:00:00","43","ND","ND","ND","ND","ND","0.3","35","20.9","91.4","0","0"],
    [31448,"2013-12-07T03:00:00","44","ND","ND","ND","ND","ND","0.1","154.1","20.9","90.4","0","0.25"],
    [31449,"2013-12-07T04:00:00","47","ND","ND","ND","ND","ND","0.2","235.2","21.1","92","0","0"],
    [31450,"2013-12-07T05:00:00","38","ND","ND","ND","ND","ND","0.1","227.9","21.2","91.8","0","0"],
    [31451,"2013-12-07T06:00:00","44","ND","ND","ND","ND","ND","0.1","25.8","21.2","90.9","0","0"],
    [31452,"2013-12-07T07:00:00","65","ND","ND","ND","ND","ND","0.3","58.3","21.2","90.8","12.1","0"],
    [31453,"2013-12-07T08:00:00","50","ND","ND","ND","ND","ND","0.8","141.1","21.7","88.6","48.8","0.25"],
    [31454,"2013-12-07T09:00:00","29","ND","ND","ND","ND","ND","1.9","153.1","22","85.7","142.5","0"],
    [31455,"2013-12-07T10:00:00","26","ND","ND","ND","ND","ND","1.2","141.7","22.3","82.2","146.1","0"],
    [31456,"2013-12-07T11:00:00","36","ND","ND","ND","ND","ND","0.9","143.1","22.8","82.2","370.4","0"],
    [31457,"2013-12-07T12:00:00","57","ND","ND","ND","ND","ND","1","77.5","24.9","71.5","688","0"],
    [31458,"2013-12-07T13:00:00","30","ND","ND","ND","ND","ND","1.4","26.6","26.8","62.7","674.9","0"],
    [31459,"2013-12-07T14:00:00","29","ND","ND","ND","ND","ND","2.6","36.2","26.2","66","288.5","0"],
    [31460,"2013-12-07T15:00:00","16","ND","ND","ND","ND","ND","1.1","318.4","25","71.7","203.1","0"],
    [31461,"2013-12-07T16:00:00","17","ND","ND","ND","ND","ND","0.9","207.2","26.1","63.3","125.6","0"],
    [31462,"2013-12-07T17:00:00","14","ND","ND","ND","ND","ND","0.2","245.2","26","60.5","87.3","0"],
    [31463,"2013-12-07T18:00:00","9","ND","ND","ND","ND","ND","0.8","243","25.5","60.8","26","0"],
    [31464,"2013-12-07T19:00:00","26","ND","ND","ND","ND","ND","0.9","147.9","24.8","63.6","0","0"],
    [31465,"2013-12-07T20:00:00","35","ND","ND","ND","ND","ND","1.3","73.2","23.2","78.5","0","0"],
    [31466,"2013-12-07T21:00:00","23","ND","ND","ND","ND","ND","0.8","40.5","21.7","89.2","0","0"],
    [31467,"2013-12-07T22:00:00","34","ND","ND","ND","ND","ND","0.5","15.5","21.4","90.3","0","0"],
    [31468,"2013-12-07T23:00:00","31","ND","ND","ND","ND","ND","0.7","54","21.3","91","0","0"],
    [31469,"2013-12-08T00:00:00","59","ND","ND","ND","ND","ND","0.3","335.4","21.4","85.8","0","0"],
    [31470,"2013-12-08T01:00:00","20","ND","ND","ND","ND","ND","0.8","69","20.5","95.2","0","0.51"],
    [31471,"2013-12-08T02:00:00","15","ND","ND","ND","ND","ND","0.5","135.3","20.5","95.1","0","0.76"],
    [31472,"2013-12-08T03:00:00","19","ND","ND","ND","ND","ND","0.5","168.2","20.5","94.8","0","0.51"],
    [31473,"2013-12-08T04:00:00","23","ND","ND","ND","ND","ND","0.4","144","20.6","94.5","0","0"],
    [31474,"2013-12-08T05:00:00","15","ND","ND","ND","ND","ND","0.4","173.1","20.6","94.6","0","0.25"],
    [31475,"2013-12-08T06:00:00","18","ND","ND","ND","ND","ND","0.3","132.4","20.6","95.2","0","0"],
    [31476,"2013-12-08T07:00:00","16","ND","ND","ND","ND","ND","0.4","108.9","20.8","94.3","12.2","0"],
    [31477,"2013-12-08T08:00:00","21","ND","ND","ND","ND","ND","0.8","13","20.4","95.8","18.4","0.25"],
    [31478,"2013-12-08T09:00:00","20","ND","ND","ND","ND","ND","1.3","356.4","20.3","96.1","97.7","5.08"],
    [31479,"2013-12-08T10:00:00","10","ND","ND","ND","ND","ND","1","37.9","21.5","90.6","350.6","0.25"],
    [31480,"2013-12-08T11:00:00","21","ND","ND","ND","ND","ND","0.7","26.2","23.3","79.5","499.5","0"],
    [31481,"2013-12-08T12:00:00","15","ND","ND","ND","ND","ND","1.7","59.3","25.3","67.5","760.2","0"],
    [31482,"2013-12-08T13:00:00","8","ND","ND","ND","ND","ND","1.3","21.5","25.9","63.9","487.8","0"],
    [31483,"2013-12-08T14:00:00","5","ND","ND","ND","ND","ND","2.1","56.5","26.8","58.9","420","0"],
    [31484,"2013-12-08T15:00:00","18","ND","ND","ND","ND","ND","0.2","329.9","26.7","56.6","176.4","0"],
    [31485,"2013-12-08T16:00:00","9","ND","ND","ND","ND","ND","1.8","256.8","26.3","52.9","83.5","0"],
    [31486,"2013-12-08T17:00:00","11","ND","ND","ND","ND","ND","3.1","194.2","24.1","69.3","31.1","0"],
    [31487,"2013-12-08T18:00:00","13","ND","ND","ND","ND","ND","1.6","168.1","22.1","84.3","6","0"],
    [31488,"2013-12-08T19:00:00","21","ND","ND","ND","ND","ND","0.5","151.5","22.2","86.7","0","0"],
    [31489,"2013-12-08T20:00:00","29","ND","ND","ND","ND","ND","0.2","319.5","22.3","83.4","0","0"],
    [31490,"2013-12-08T21:00:00","33","ND","ND","ND","ND","ND","0.6","49.8","21.4","87.6","0","0"],
    [31491,"2013-12-08T22:00:00","43","ND","ND","ND","ND","ND","0.3","359.4","21","89.1","0","0"],
    [31492,"2013-12-08T23:00:00","34","ND","ND","ND","ND","ND","0.8","297.2","21.1","88.4","0","0"],
    [31493,"2013-12-09T00:00:00","38","ND","ND","ND","ND","ND","0.6","240.1","21.2","81.5","0","0"],
    [31494,"2013-12-09T01:00:00","43","ND","ND","ND","ND","ND","0.2","235.7","21.4","86.3","0","0"],
    [31495,"2013-12-09T02:00:00","34","ND","ND","ND","ND","ND","0.1","341.6","21.1","86.4","0","0"],
    [31496,"2013-12-09T03:00:00","47","ND","ND","ND","ND","ND","0.5","30.6","20.6","90.8","0","0"],
    [31497,"2013-12-09T04:00:00","47","ND","ND","ND","ND","ND","0.1","268.9","20.4","91.3","0","0"],
    [31498,"2013-12-09T05:00:00","58","ND","ND","ND","ND","ND","0.1","43.1","20.5","91.8","0","0"],
    [31499,"2013-12-09T06:00:00","52","ND","ND","ND","ND","ND","0.1","303.9","20.3","92","0.1","0"],
    [31500,"2013-12-09T07:00:00","65","ND","ND","ND","ND","ND","0.1","253.3","20.3","91.6","16.5","0"],
    [31501,"2013-12-09T08:00:00","96","ND","ND","ND","ND","ND","0","29.3","21","90.1","88.7","0"],
    [31502,"2013-12-09T09:00:00","110","ND","ND","ND","ND","ND","0.9","62.1","22.4","84","235.3","0"],
    [31503,"2013-12-09T10:00:00","94","ND","ND","ND","ND","ND","0.7","118.6","23.6","76.8","313.5","0"],
    [31504,"2013-12-09T11:00:00","74","ND","ND","ND","ND","ND","0.6","176.9","25","69.3","400","0"],
    [31505,"2013-12-09T12:00:00","68","ND","ND","ND","ND","ND","0.8","70","26","63.6","444.4","0"],
    [31506,"2013-12-09T13:00:00","66","ND","ND","ND","ND","ND","1","90.8","27.3","58.5","660.3","0"],
    [31507,"2013-12-09T14:00:00","62","ND","ND","ND","ND","ND","1.1","28.4","27.1","59.2","184.9","0"],
    [31508,"2013-12-09T15:00:00","26","ND","ND","ND","ND","ND","0.9","287.6","26.3","60.7","118.2","0"],
    [31509,"2013-12-09T16:00:00","28","ND","ND","ND","ND","ND","0.6","152.4","26.3","59.4","108.3","0"],
    [31510,"2013-12-09T17:00:00","30","ND","ND","ND","ND","ND","0.8","208.2","26.1","59.5","63.8","0"],
    [31511,"2013-12-09T18:00:00","28","ND","ND","ND","ND","ND","1.2","216.1","25.3","61.8","20.2","0"],
    [31512,"2013-12-09T19:00:00","43","ND","ND","ND","ND","ND","0.7","276.1","24.2","67.5","0.1","0"],
    [31513,"2013-12-09T20:00:00","80","ND","ND","ND","ND","ND","0.2","176.2","24","68.6","0","0"],
    [31514,"2013-12-09T21:00:00","68","ND","ND","ND","ND","ND","0.3","275.1","22.8","74.7","0","0"],
    [31515,"2013-12-09T22:00:00","67","ND","ND","ND","ND","ND","0.3","254.4","22.1","78.5","0","0"],
    [31516,"2013-12-09T23:00:00","62","ND","ND","ND","ND","ND","0.3","255.8","21.4","81.9","0","0"],
    [31517,"2013-12-10T00:00:00","70","ND","ND","ND","ND","ND","0.3","268.1","21.6","82.2","0","0"],
    [31518,"2013-12-10T01:00:00","43","ND","ND","ND","ND","ND","0.1","19.5","21.4","80.8","0","0"],
    [31519,"2013-12-10T02:00:00","56","ND","ND","ND","ND","ND","0.4","315.3","21.1","81.6","0","0"],
    [31520,"2013-12-10T03:00:00","45","ND","ND","ND","ND","ND","0","341.5","21.3","81.8","0","0"],
    [31521,"2013-12-10T04:00:00","36","ND","ND","ND","ND","ND","0.2","333.3","21","82.9","0","0"],
    [31522,"2013-12-10T05:00:00","62","ND","ND","ND","ND","ND","0.5","61","20.8","86.1","0","0"],
    [31523,"2013-12-10T06:00:00","67","ND","ND","ND","ND","ND","0.4","35","20.7","86.6","0.1","0"],
    [31524,"2013-12-10T07:00:00","80","ND","ND","ND","ND","ND","0.2","288.1","20.8","86.1","21","0"],
    [31525,"2013-12-10T08:00:00","90","ND","ND","ND","ND","ND","0.3","145.9","22.2","79.8","200.1","0"],
    [31526,"2013-12-10T09:00:00","68","ND","ND","ND","ND","ND","0.8","83.6","24.3","71.7","458.8","0"],
    [31527,"2013-12-10T10:00:00","57","ND","ND","ND","ND","ND","1.2","128","25.3","67","462.4","0"],
    [31528,"2013-12-10T11:00:00","63","ND","ND","ND","ND","ND","2","115.1","26.4","63.5","649.3","0"],
    [31529,"2013-12-10T12:00:00","ND","ND","ND","ND","ND","ND","1.3","127.6","27.4","58.2","533","0"],
    [31530,"2013-12-10T13:00:00","ND","ND","ND","ND","ND","ND","1.2","184.6","28.2","55.2","617.1","0"],
    [31531,"2013-12-10T14:00:00","54","ND","ND","ND","ND","ND","0.8","68.2","28.9","53.9","502.7","0"],
    [31532,"2013-12-10T15:00:00","61","ND","ND","ND","ND","ND","1.4","50.2","28","57.7","167","0"],
    [31533,"2013-12-10T16:00:00","34","ND","ND","ND","ND","ND","0.5","197.8","27.9","55.6","87.8","0"],
    [31534,"2013-12-10T17:00:00","32","ND","ND","ND","ND","ND","1.8","247.4","27.7","55.8","108.2","0"],
    [31535,"2013-12-10T18:00:00","49","ND","ND","ND","ND","ND","0.5","270.5","27.3","57.5","44.2","0"],
    [31536,"2013-12-10T19:00:00","38","ND","ND","ND","ND","ND","1.3","250","25.5","62.8","0.1","0"],
    [31537,"2013-12-10T20:00:00","58","ND","ND","ND","ND","ND","0.3","250.9","24.7","66","0","0"],
    [31538,"2013-12-10T21:00:00","71","ND","ND","ND","ND","ND","0.4","190.3","24.1","68.7","0","0"],
    [31539,"2013-12-10T22:00:00","78","ND","ND","ND","ND","ND","0.5","125.8","23.4","75.7","0","0"],
    [31540,"2013-12-10T23:00:00","82","ND","ND","ND","ND","ND","0.1","1.8","22.4","80","0","0"],
    [31541,"2013-12-11T00:00:00","55","ND","ND","ND","ND","ND","0.1","294.2","23","77.2","0","0"],
    [31542,"2013-12-11T01:00:00","52","ND","ND","ND","ND","ND","0.1","143.7","22","80.9","0","0"],
    [31543,"2013-12-11T02:00:00","86","ND","ND","ND","ND","ND","0.4","152.5","21.8","82.5","0","0"],
    [31544,"2013-12-11T03:00:00","56","ND","ND","ND","ND","ND","0.5","156.7","21.8","82.5","0","0"],
    [31545,"2013-12-11T04:00:00","45","ND","ND","ND","ND","ND","0.2","273","21.4","84.5","0","0"],
    [31546,"2013-12-11T05:00:00","42","ND","ND","ND","ND","ND","0.1","241.2","20.9","85.6","0","0"],
    [31547,"2013-12-11T06:00:00","55","ND","ND","ND","ND","ND","0.1","279.5","20.6","86.6","0","0"],
    [31548,"2013-12-11T07:00:00","133","ND","ND","ND","ND","ND","0.5","29","20.8","86.7","25.3","0"],
    [31549,"2013-12-11T08:00:00","168","ND","ND","ND","ND","ND","0.2","37.4","22.4","80.7","160","0"],
    [31550,"2013-12-11T09:00:00","123","ND","ND","ND","ND","ND","0.6","81.2","24.2","72.8","367.4","0"],
    [31551,"2013-12-11T10:00:00","122","ND","ND","ND","ND","ND","0.6","92.1","25.2","68.2","415.1","0"],
    [31552,"2013-12-11T11:00:00","115","ND","ND","ND","ND","ND","1.1","46.6","26.7","63.3","596","0"],
    [31553,"2013-12-11T12:00:00","81","ND","ND","ND","ND","ND","1.3","43.8","27.6","59.4","554.8","0"],
    [31554,"2013-12-11T13:00:00","76","ND","ND","ND","ND","ND","0.4","75.1","28.8","54.5","594.1","0"],
    [31555,"2013-12-11T14:00:00","57","ND","ND","ND","ND","ND","1","32.2","29.5","52.7","583.1","0"],
    [31556,"2013-12-11T15:00:00","46","ND","ND","ND","ND","ND","1.2","43.5","30.1","51.4","477.9","0"],
    [31557,"2013-12-11T16:00:00","30","ND","ND","ND","ND","ND","1.2","244.1","30.3","49.1","374.4","0"],
    [31558,"2013-12-11T17:00:00","27","ND","ND","ND","ND","ND","1.9","275","29.9","48.6","216.6","0"],
    [31559,"2013-12-11T18:00:00","27","ND","ND","ND","ND","ND","0.8","301.3","28.6","50.6","37.6","0"],
    [31560,"2013-12-11T19:00:00","45","ND","ND","ND","ND","ND","0.8","237.5","27.4","54.4","0.1","0"],
    [31561,"2013-12-11T20:00:00","71","ND","ND","ND","ND","ND","0.7","113.7","27.1","56","0","0"],
    [31562,"2013-12-11T21:00:00","83","ND","ND","ND","ND","ND","0.8","149.3","25.8","62.8","0","0"],
    [31563,"2013-12-11T22:00:00","38","ND","ND","ND","ND","ND","0.4","142.1","24.7","69.4","0","0"],
    [31564,"2013-12-11T23:00:00","61","ND","ND","ND","ND","ND","0.3","87.3","23.9","74.4","0","0"],
    [31565,"2013-12-12T00:00:00","45","ND","ND","ND","ND","ND","0.6","192.6","24.1","72.5","0","0"],
    [31566,"2013-12-12T01:00:00","43","ND","ND","ND","ND","ND","0.7","234.9","22.7","79","0","0"],
    [31567,"2013-12-12T02:00:00","29","ND","ND","ND","ND","ND","0.3","219.6","22.4","80.2","0","0"],
    [31568,"2013-12-12T03:00:00","57","ND","ND","ND","ND","ND","0.3","8.7","22.1","81.4","0","0"],
    [31569,"2013-12-12T04:00:00","44","ND","ND","ND","ND","ND","0.4","274","21.5","84.4","0","0"],
    [31570,"2013-12-12T05:00:00","46","ND","ND","ND","ND","ND","0.1","325.2","21.3","85","0","0"],
    [31571,"2013-12-12T06:00:00","78","ND","ND","ND","ND","ND","0.3","318.7","21","86.4","0","0"],
    [31572,"2013-12-12T07:00:00","104","ND","ND","ND","ND","ND","0.1","216.2","21.8","83.8","22.6","0"],
    [31573,"2013-12-12T08:00:00","146","ND","ND","ND","ND","ND","1.2","43.1","22.7","80.5","93.6","0"],
    [31574,"2013-12-12T09:00:00","118","ND","ND","ND","ND","ND","0.6","30.5","23.9","76","287.1","0"],
    [31575,"2013-12-12T10:00:00","108","ND","ND","ND","ND","ND","0.8","107","26.5","65.4","586.6","0"],
    [31576,"2013-12-12T11:00:00","66","ND","ND","ND","ND","ND","0.9","134.7","28.1","56.9","714.5","0"],
    [31577,"2013-12-12T12:00:00","63","ND","ND","ND","ND","ND","0.6","122.9","29.1","54.5","569.4","0"],
    [31578,"2013-12-12T13:00:00","64","ND","ND","ND","ND","ND","1.2","114.1","29.8","53","634.5","0"],
    [31579,"2013-12-12T14:00:00","79","ND","ND","ND","ND","ND","1.5","360","30.4","51.4","413.1","0"],
    [31580,"2013-12-12T15:00:00","7","ND","ND","ND","ND","ND","1.7","290.2","30.7","47.4","432.5","0"],
    [31581,"2013-12-12T16:00:00","24","ND","ND","ND","ND","ND","1.4","308.6","31.2","45.5","438.8","0"],
    [31582,"2013-12-12T17:00:00","17","ND","ND","ND","ND","ND","1.6","298.5","30.4","47.3","227.7","0"],
    [31583,"2013-12-12T18:00:00","21","ND","ND","ND","ND","ND","1.1","243","29.3","50.5","45.9","0"],
    [31584,"2013-12-12T19:00:00","22","ND","ND","ND","ND","ND","0.3","267.4","27.8","53.9","0.2","0"],
    [31585,"2013-12-12T20:00:00","40","ND","ND","ND","ND","ND","1","117.9","27.4","55.3","0","0"],
    [31586,"2013-12-12T21:00:00","72","ND","ND","ND","ND","ND","0.3","166.3","26.7","58.4","0","0"],
    [31587,"2013-12-12T22:00:00","52","ND","ND","ND","ND","ND","1.2","129.8","25.4","66.3","0","0"],
    [31588,"2013-12-12T23:00:00","51","ND","ND","ND","ND","ND","0.3","88.3","24.4","72.2","0","0"],
    [31589,"2013-12-13T00:00:00","23","ND","ND","ND","ND","ND","0.7","261.4","22.4","85.1","0","0"],
    [31590,"2013-12-13T01:00:00","35","ND","ND","ND","ND","ND","0.3","344.8","24","72.5","0","0"],
    [31591,"2013-12-13T02:00:00","40","ND","ND","ND","ND","ND","0.2","230.5","23.6","74.8","0","0"],
    [31592,"2013-12-13T03:00:00","20","ND","ND","ND","ND","ND","1.6","171.3","23.5","77.3","0","0"],
    [31593,"2013-12-13T04:00:00","26","ND","ND","ND","ND","ND","0.7","165.2","22.8","83","0","0"],
    [31594,"2013-12-13T05:00:00","59","ND","ND","ND","ND","ND","0.7","357.8","22.1","88","0","0"],
    [31595,"2013-12-13T06:00:00","68","ND","ND","ND","ND","ND","0.7","14.8","22.1","87.2","0","0"],
    [31596,"2013-12-13T07:00:00","48","ND","ND","ND","ND","ND","0.5","102","22.3","85.2","24","0"],
    [31597,"2013-12-13T08:00:00","61","ND","ND","ND","ND","ND","0.2","207.6","23.3","81","101.6","0"],
    [31598,"2013-12-13T09:00:00","68","ND","ND","ND","ND","ND","0.6","25.8","24.9","72.9","308.8","0"],
    [31599,"2013-12-13T10:00:00","60","ND","ND","ND","ND","ND","0.8","125.3","27.1","63.6","574","0"],
    [31600,"2013-12-13T11:00:00","45","ND","ND","ND","ND","ND","1.1","69.6","27.2","63.1","260.3","0"],
    [31601,"2013-12-13T12:00:00","36","ND","ND","ND","ND","ND","2.4","276.8","26.9","62.5","370.7","0"],
    [31602,"2013-12-13T13:00:00","16","ND","ND","ND","ND","ND","0.7","229.5","28.6","53.1","541.9","0"],
    [31603,"2013-12-13T14:00:00","18","ND","ND","ND","ND","ND","1.3","300.9","29.8","48.9","604","0"],
    [31604,"2013-12-13T15:00:00","22","ND","ND","ND","ND","ND","2.2","291.4","29.9","48.3","467.2","0"],
    [31605,"2013-12-13T16:00:00","11","ND","ND","ND","ND","ND","2.1","267.5","29.3","49.5","273.8","0"],
    [31606,"2013-12-13T17:00:00","27","ND","ND","ND","ND","ND","1.6","283.6","28.4","52.3","137.5","0"],
    [31607,"2013-12-13T18:00:00","20","ND","ND","ND","ND","ND","0.1","214.8","27.6","54.2","14.7","0"],
    [31608,"2013-12-13T19:00:00","25","ND","ND","ND","ND","ND","1.7","151.1","26.7","59.1","0","0"],
    [31609,"2013-12-13T20:00:00","31","ND","ND","ND","ND","ND","2.7","144.9","24.8","71.4","0","0"],
    [31610,"2013-12-13T21:00:00","20","ND","ND","ND","ND","ND","2.1","177.3","22.3","84.4","0","0.25"],
    [31611,"2013-12-13T22:00:00","12","ND","ND","ND","ND","ND","1.3","189.3","22.2","85.3","0","0"],
    [31612,"2013-12-13T23:00:00","21","ND","ND","ND","ND","ND","0.4","14.8","22.2","85.3","0","0"],
    [31613,"2013-12-14T00:00:00","48","ND","ND","ND","ND","ND","1","167.5","23.4","73.7","0","0"],
    [31614,"2013-12-14T01:00:00","40","ND","ND","ND","ND","ND","0.6","29.6","22","87.3","0","0"],
    [31615,"2013-12-14T02:00:00","38","ND","ND","ND","ND","ND","0.1","328","21.4","91.2","0","0"],
    [31616,"2013-12-14T03:00:00","76","ND","ND","ND","ND","ND","0.7","350.4","21.5","90.8","0","0"],
    [31617,"2013-12-14T04:00:00","45","ND","ND","ND","ND","ND","0.8","27","21.4","90.5","0","0"],
    [31618,"2013-12-14T05:00:00","49","ND","ND","ND","ND","ND","0.4","69.1","21.1","93.3","0","0"],
    [31619,"2013-12-14T06:00:00","38","ND","ND","ND","ND","ND","0.3","122.2","21.3","91.6","0","0"],
    [31620,"2013-12-14T07:00:00","62","ND","ND","ND","ND","ND","0.4","182.8","21.5","91.2","16.4","0"],
    [31621,"2013-12-14T08:00:00","84","ND","ND","ND","ND","ND","0.7","30.6","22.1","88.4","105.8","0"],
    [31622,"2013-12-14T09:00:00","98","ND","ND","ND","ND","ND","1.2","48.3","23.2","83.2","207.5","0"],
    [31623,"2013-12-14T10:00:00","101","ND","ND","ND","ND","ND","0.4","1.4","24.4","76.7","324.9","0"],
    [31624,"2013-12-14T11:00:00","82","ND","ND","ND","ND","ND","0.8","78.4","26.6","66.3","722","0"],
    [31625,"2013-12-14T12:00:00","54","ND","ND","ND","ND","ND","1.2","73.7","27.5","61.6","510","0"],
    [31626,"2013-12-14T13:00:00","56","ND","ND","ND","ND","ND","1.1","274.4","28.4","56","700.9","0"],
    [31627,"2013-12-14T14:00:00","52","ND","ND","ND","ND","ND","0.4","336.6","30.1","49.6","701","0"],
    [31628,"2013-12-14T15:00:00","52","ND","ND","ND","ND","ND","1","7.2","29.4","50.1","218.5","0"],
    [31629,"2013-12-14T16:00:00","29","ND","ND","ND","ND","ND","2.3","270","29.5","50.4","317.1","0"],
    [31630,"2013-12-14T17:00:00","32","ND","ND","ND","ND","ND","2.3","277.9","28.9","50.5","193.2","0"],
    [31631,"2013-12-14T18:00:00","25","ND","ND","ND","ND","ND","0.9","275.5","27.9","51.4","35.5","0"],
    [31632,"2013-12-14T19:00:00","25","ND","ND","ND","ND","ND","0.4","334.4","27","52.1","0.2","0"],
    [31633,"2013-12-14T20:00:00","44","ND","ND","ND","ND","ND","0.8","89.8","26.6","54.8","0","0"],
    [31634,"2013-12-14T21:00:00","78","ND","ND","ND","ND","ND","0.6","102.7","25.7","60.7","0","0"],
    [31635,"2013-12-14T22:00:00","82","ND","ND","ND","ND","ND","0.8","146.8","25","64.8","0","0"],
    [31636,"2013-12-14T23:00:00","59","ND","ND","ND","ND","ND","0.4","84.9","24","70.3","0","0"],
    [31637,"2013-12-15T00:00:00","17","ND","ND","ND","ND","ND","0.4","191.4","23.4","81.9","0","0.76"],
    [31638,"2013-12-15T01:00:00","33","ND","ND","ND","ND","ND","0.5","242.7","23.2","75.1","0","0"],
    [31639,"2013-12-15T02:00:00","33","ND","ND","ND","ND","ND","0.4","226.5","22.9","76.9","0","0"],
    [31640,"2013-12-15T03:00:00","31","ND","ND","ND","ND","ND","0.2","236.7","22.4","79.5","0","0"],
    [31641,"2013-12-15T04:00:00","35","ND","ND","ND","ND","ND","0.4","295.6","22","80.9","0","0"],
    [31642,"2013-12-15T05:00:00","34","ND","ND","ND","ND","ND","0.2","277.1","22.1","81.3","0","0"],
    [31643,"2013-12-15T06:00:00","35","ND","ND","ND","ND","ND","0.3","300.4","22","81.5","0","0"],
    [31644,"2013-12-15T07:00:00","48","ND","ND","ND","ND","ND","0.3","224.7","21.9","82","15.2","0"],
    [31645,"2013-12-15T08:00:00","59","ND","ND","ND","ND","ND","0.3","150.9","22.9","78","93.7","0"],
    [31646,"2013-12-15T09:00:00","63","ND","ND","ND","ND","ND","0.4","73.5","24.2","72.1","226.5","0"],
    [31647,"2013-12-15T10:00:00","71","ND","ND","ND","ND","ND","1","159.8","25.9","65.8","549.9","0"],
    [31648,"2013-12-15T11:00:00","56","ND","ND","ND","ND","ND","1.5","119.2","27.4","59.2","700.1","0"],
    [31649,"2013-12-15T12:00:00","40","ND","ND","ND","ND","ND","0.6","60.2","28.6","53.6","816.9","0"],
    [31650,"2013-12-15T13:00:00","44","ND","ND","ND","ND","ND","0.9","52.6","29.6","50.3","668.6","0"],
    [31651,"2013-12-15T14:00:00","51","ND","ND","ND","ND","ND","0.7","342.3","30.4","48.9","426.6","0"],
    [31652,"2013-12-15T15:00:00","16","ND","ND","ND","ND","ND","1.9","281.6","29.4","51.1","224.8","0"],
    [31653,"2013-12-15T16:00:00","16","ND","ND","ND","ND","ND","2.4","265.1","30.4","47.8","393.1","0"],
    [31654,"2013-12-15T17:00:00","19","ND","ND","ND","ND","ND","2.5","277.4","29.6","49","222.4","0"],
    [31655,"2013-12-15T18:00:00","17","ND","ND","ND","ND","ND","1","300.5","28.4","50.1","34.1","0"],
    [31656,"2013-12-15T19:00:00","21","ND","ND","ND","ND","ND","0.8","94.9","27.5","53.1","0.6","0"],
    [31657,"2013-12-15T20:00:00","30","ND","ND","ND","ND","ND","0.6","104.8","27.2","55.1","0","0"],
    [31658,"2013-12-15T21:00:00","49","ND","ND","ND","ND","ND","0.7","148.8","26.4","58.8","0","0"],
    [31659,"2013-12-15T22:00:00","36","ND","ND","ND","ND","ND","0.9","132.5","25.9","61.4","0","0"],
    [31660,"2013-12-15T23:00:00","42","ND","ND","ND","ND","ND","0.9","109","25.5","64.9","0","0"],
    [31661,"2013-12-16T00:00:00","59","ND","ND","ND","ND","ND","0.7","358.7","24.4","70.5","0","0"],
    [31662,"2013-12-16T01:00:00","9","ND","ND","ND","ND","ND","0.4","177.6","23.1","84.1","0","0"],
    [31663,"2013-12-16T02:00:00","27","ND","ND","ND","ND","ND","0.3","5","23","83.7","0","0"],
    [31664,"2013-12-16T03:00:00","25","ND","ND","ND","ND","ND","0.4","275","22.9","83.3","0","0.25"],
    [31665,"2013-12-16T04:00:00","21","ND","ND","ND","ND","ND","0.3","247.7","22.9","83.5","0","0"],
    [31666,"2013-12-16T05:00:00","20","ND","ND","ND","ND","ND","0.5","233.6","22.7","84.8","0","0"],
    [31667,"2013-12-16T06:00:00","35","ND","ND","ND","ND","ND","0.2","183.5","22.6","84.2","0","0"],
    [31668,"2013-12-16T07:00:00","25","ND","ND","ND","ND","ND","0.4","3.8","22.2","86.5","17","0"],
    [31669,"2013-12-16T08:00:00","45","ND","ND","ND","ND","ND","0.5","199.2","22.9","83.1","103.5","0"],
    [31670,"2013-12-16T09:00:00","50","ND","ND","ND","ND","ND","1","130.2","24.3","74.7","195.5","0"],
    [31671,"2013-12-16T10:00:00","43","ND","ND","ND","ND","ND","1","68.3","25.3","70.3","335.2","0"],
    [31672,"2013-12-16T11:00:00","38","ND","ND","ND","ND","ND","1","103.8","26.9","64.3","724.4","0"],
    [31673,"2013-12-16T12:00:00","34","ND","ND","ND","ND","ND","1.1","82","27.9","61","649.5","0"],
    [31674,"2013-12-16T13:00:00","49","ND","ND","ND","ND","ND","0.4","21.2","28.3","59","344.6","0"],
    [31675,"2013-12-16T14:00:00","42","ND","ND","ND","ND","ND","0.4","68.1","28.9","57","356.2","0"],
    [31676,"2013-12-16T15:00:00","33","ND","ND","ND","ND","ND","0.2","351.3","29.9","51.9","372.1","0"],
    [31677,"2013-12-16T16:00:00","14","ND","ND","ND","ND","ND","3.1","267.6","30.2","48.3","427.4","0"],
    [31678,"2013-12-16T17:00:00","8","ND","ND","ND","ND","ND","2.7","258.3","29.4","49.8","173","0"],
    [31679,"2013-12-16T18:00:00","17","ND","ND","ND","ND","ND","0.7","263.6","28.2","51.7","17.2","0"],
    [31680,"2013-12-16T19:00:00","15","ND","ND","ND","ND","ND","1","227.1","27.3","54.3","0.2","0"],
    [31681,"2013-12-16T20:00:00","89","ND","ND","ND","ND","ND","0.3","74.3","26.8","57.4","0","0"],
    [31682,"2013-12-16T21:00:00","63","ND","ND","ND","ND","ND","0.5","65.2","26.1","59.9","0","0"],
    [31683,"2013-12-16T22:00:00","53","ND","ND","ND","ND","ND","0.9","97.1","25.4","64.2","0","0"],
    [31684,"2013-12-16T23:00:00","36","ND","ND","ND","ND","ND","0.2","327","24.8","67.8","0","0"],
    [31685,"2013-12-17T00:00:00","47","ND","ND","ND","ND","ND","0.3","28.5","22.4","84.6","0","0"],
    [31686,"2013-12-17T01:00:00","38","ND","ND","ND","ND","ND","0.5","22.7","23.7","75.4","0","0"],
    [31687,"2013-12-17T02:00:00","32","ND","ND","ND","ND","ND","0.4","240.4","23.6","76","0","0"],
    [31688,"2013-12-17T03:00:00","33","ND","ND","ND","ND","ND","0.5","17.4","23.1","78.9","0","0"],
    [31689,"2013-12-17T04:00:00","17","ND","ND","ND","ND","ND","0.3","148.3","23.1","78.7","0","0"],
    [31690,"2013-12-17T05:00:00","19","ND","ND","ND","ND","ND","0.2","216.6","22.9","80.6","0","0"],
    [31691,"2013-12-17T06:00:00","26","ND","ND","ND","ND","ND","0.4","242.5","22.5","82.3","0","0"],
    [31692,"2013-12-17T07:00:00","36","ND","ND","ND","ND","ND","0.7","177.6","22.6","82.2","11.5","0"],
    [31693,"2013-12-17T08:00:00","42","ND","ND","ND","ND","ND","0.4","154.8","23.2","80.1","75.6","0"],
    [31694,"2013-12-17T09:00:00","40","ND","ND","ND","ND","ND","0.4","163.8","24.1","76.6","175.4","0"],
    [31695,"2013-12-17T10:00:00","57","ND","ND","ND","ND","ND","0.9","49.7","25.3","71.7","240.6","0"],
    [31696,"2013-12-17T11:00:00","44","ND","ND","ND","ND","ND","1","49","26.7","64.2","626.6","0"],
    [31697,"2013-12-17T12:00:00","45","ND","ND","ND","ND","ND","0.6","92.3","27.8","59.7","591.6","0"],
    [31698,"2013-12-17T13:00:00","27","ND","ND","ND","ND","ND","0.9","339.9","27","62","108.7","0"],
    [31699,"2013-12-17T14:00:00","23","ND","ND","ND","ND","ND","1","189.5","26.6","63.7","151.4","0"],
    [31700,"2013-12-17T15:00:00","20","ND","ND","ND","ND","ND","1.1","162.4","27.2","56.8","166.1","0"],
    [31701,"2013-12-17T16:00:00","26","ND","ND","ND","ND","ND","1.1","98.9","27.5","57.4","323.7","0"],
    [31702,"2013-12-17T17:00:00","26","ND","ND","ND","ND","ND","1","121.5","27","57.9","74.9","0"],
    [31703,"2013-12-17T18:00:00","45","ND","ND","ND","ND","ND","1.8","109.1","26.2","64.8","14.4","0"],
    [31704,"2013-12-17T19:00:00","43","ND","ND","ND","ND","ND","2.6","149.4","24.2","74.8","0.1","0"],
    [31705,"2013-12-17T20:00:00","39","ND","ND","ND","ND","ND","1.4","169.7","23.8","74.6","0","0"],
    [31706,"2013-12-17T21:00:00","27","ND","ND","ND","ND","ND","0.5","173.6","23.9","72.8","0","0"],
    [31707,"2013-12-17T22:00:00","44","ND","ND","ND","ND","ND","0.7","338.6","23.3","76.6","0","0"],
    [31708,"2013-12-17T23:00:00","64","ND","ND","ND","ND","ND","1.1","30.1","22.7","82.5","0","0"],
    [31709,"2013-12-18T00:00:00","21","ND","ND","ND","ND","ND","2.3","174.4","23.1","80.1","0","0"],
    [31710,"2013-12-18T01:00:00","42","ND","ND","ND","ND","ND","0.4","250","22.6","83.5","0","0"],
    [31711,"2013-12-18T02:00:00","56","ND","ND","ND","ND","ND","1","151.4","22.5","82.4","0","0"],
    [31712,"2013-12-18T03:00:00","20","ND","ND","ND","ND","ND","0.4","97.4","22.1","85.2","0","0"],
    [31713,"2013-12-18T04:00:00","25","ND","ND","ND","ND","ND","0.7","140.4","22.1","84.7","0","0"],
    [31714,"2013-12-18T05:00:00","17","ND","ND","ND","ND","ND","0.2","88.7","21.6","88.3","0","0"],
    [31715,"2013-12-18T06:00:00","30","ND","ND","ND","ND","ND","0.9","247.9","21.7","87.5","0","0"],
    [31716,"2013-12-18T07:00:00","42","ND","ND","ND","ND","ND","0.4","102.8","21.8","86.5","14.8","0"],
    [31717,"2013-12-18T08:00:00","45","ND","ND","ND","ND","ND","0.6","144.5","22.5","83.4","90.8","0"],
    [31718,"2013-12-18T09:00:00","50","ND","ND","ND","ND","ND","1.7","109.3","23.8","76.5","200.9","0"],
    [31719,"2013-12-18T10:00:00","34","ND","ND","ND","ND","ND","0.4","99.3","23.7","76","99.5","0"],
    [31720,"2013-12-18T11:00:00","32","ND","ND","ND","ND","ND","1.8","253.4","23.9","75.2","330.1","0"],
    [31721,"2013-12-18T12:00:00","17","ND","ND","ND","ND","ND","0.5","207.6","26.7","60.8","631.9","0"],
    [31722,"2013-12-18T13:00:00","34","ND","ND","ND","ND","ND","0.5","271.1","28.4","53.9","661.5","0"],
    [31723,"2013-12-18T14:00:00","47","ND","ND","ND","ND","ND","1.2","32.9","28.1","55.2","469.5","0"],
    [31724,"2013-12-18T15:00:00","25","ND","ND","ND","ND","ND","0.6","295","27.3","56.6","97.1","0"],
    [31725,"2013-12-18T16:00:00","18","ND","ND","ND","ND","ND","0.9","139.3","27.4","55.9","135.4","0"],
    [31726,"2013-12-18T17:00:00","39","ND","ND","ND","ND","ND","0.8","337.5","27.5","56.4","148.9","0"],
    [31727,"2013-12-18T18:00:00","16","ND","ND","ND","ND","ND","1.8","258.4","26.7","56.6","33.4","0"],
    [31728,"2013-12-18T19:00:00","33","ND","ND","ND","ND","ND","0.5","265.3","25.7","59.9","0.3","0"],
    [31729,"2013-12-18T20:00:00","31","ND","ND","ND","ND","ND","0.3","213.7","25.4","60.9","0","0"],
    [31730,"2013-12-18T21:00:00","70","ND","ND","ND","ND","ND","1","91.6","25.3","63.2","0","0"],
    [31731,"2013-12-18T22:00:00","30","ND","ND","ND","ND","ND","1.8","82.8","24.3","68.5","0","0"],
    [31732,"2013-12-18T23:00:00","30","ND","ND","ND","ND","ND","1.3","216.4","23.7","73.9","0","0"],
    [31733,"2013-12-19T00:00:00","30","ND","ND","ND","ND","ND","0.3","301.8","22.3","78.2","0","0"],
    [31734,"2013-12-19T01:00:00","17","ND","ND","ND","ND","ND","1","135.5","22.7","82.1","0","0"],
    [31735,"2013-12-19T02:00:00","24","ND","ND","ND","ND","ND","0.7","52.1","22.1","86","0","0"],
    [31736,"2013-12-19T03:00:00","36","ND","ND","ND","ND","ND","0.7","24.1","21.5","90","0","0"],
    [31737,"2013-12-19T04:00:00","12","ND","ND","ND","ND","ND","0.9","158.9","21.5","88.2","0","0"],
    [31738,"2013-12-19T05:00:00","20","ND","ND","ND","ND","ND","0.2","319.5","21.5","88.1","0","0"],
    [31739,"2013-12-19T06:00:00","46","ND","ND","ND","ND","ND","0.4","83","21.4","89.8","0","0"],
    [31740,"2013-12-19T07:00:00","38","ND","ND","ND","ND","ND","0.5","25.2","21.5","89","8.4","0"],
    [31741,"2013-12-19T08:00:00","60","ND","ND","ND","ND","ND","0.5","55.3","21.9","87.7","47.3","0"],
    [31742,"2013-12-19T09:00:00","63","ND","ND","ND","ND","ND","0.5","62.6","23","81.3","169.9","0"],
    [31743,"2013-12-19T10:00:00","57","ND","ND","ND","ND","ND","0.5","77.9","24","75.7","200.6","0"],
    [31744,"2013-12-19T11:00:00","43","ND","ND","ND","ND","ND","0.5","176.7","25.4","68.9","356.6","0"],
    [31745,"2013-12-19T12:00:00","50","ND","ND","ND","ND","ND","0.1","151.2","26.9","60.9","526.2","0"],
    [31746,"2013-12-19T13:00:00","36","ND","ND","ND","ND","ND","0.9","80.3","28.4","54.3","776.4","0"],
    [31747,"2013-12-19T14:00:00","31","ND","ND","ND","ND","ND","1.1","64.4","29.2","49.8","699.8","0"],
    [31748,"2013-12-19T15:00:00","30","ND","ND","ND","ND","ND","0.9","317","28.7","52.3","154.9","0"],
    [31749,"2013-12-19T16:00:00","26","ND","ND","ND","ND","ND","2.8","291.2","25.1","70.7","98.3","1.02"],
    [31750,"2013-12-19T17:00:00","17","ND","ND","ND","ND","ND","0.2","38.1","26.4","64.1","76.4","0"],
    [31751,"2013-12-19T18:00:00","50","ND","ND","ND","ND","ND","0.7","281.3","26.5","63","21.5","0"],
    [31752,"2013-12-19T19:00:00","43","ND","ND","ND","ND","ND","0.2","266.3","25.7","63.7","0.1","0"],
    [31753,"2013-12-19T20:00:00","72","ND","ND","ND","ND","ND","0.2","157.6","25.1","65.9","0","0"],
    [31754,"2013-12-19T21:00:00","61","ND","ND","ND","ND","ND","0.3","244.2","24.3","69.1","0","0"],
    [31755,"2013-12-19T22:00:00","80","ND","ND","ND","ND","ND","0.5","182.3","23.7","72.5","0","0"],
    [31756,"2013-12-19T23:00:00","55","ND","ND","ND","ND","ND","0.1","188.6","23","75.5","0","0"],
    [31757,"2013-12-20T00:00:00","46","ND","ND","ND","ND","ND","0.4","95.4","24.3","69.8","0","0"],
    [31758,"2013-12-20T01:00:00","34","ND","ND","ND","ND","ND","0.3","109.8","22.3","78.6","0","0"],
    [31759,"2013-12-20T02:00:00","15","ND","ND","ND","ND","ND","0.2","177","22","79.9","0","0"],
    [31760,"2013-12-20T03:00:00","28","ND","ND","ND","ND","ND","0.2","255.8","21.5","82.7","0","0"],
    [31761,"2013-12-20T04:00:00","43","ND","ND","ND","ND","ND","0.2","325","21.4","83.1","0","0"],
    [31762,"2013-12-20T05:00:00","38","ND","ND","ND","ND","ND","0.2","330.1","21.7","82.1","0","0"],
    [31763,"2013-12-20T06:00:00","59","ND","ND","ND","ND","ND","0.1","9","21.8","82.5","0","0"],
    [31764,"2013-12-20T07:00:00","64","ND","ND","ND","ND","ND","0.2","9.6","22","82","16.6","0"],
    [31765,"2013-12-20T08:00:00","117","ND","ND","ND","ND","ND","0.2","69.9","22.6","80.5","95.2","0"],
    [31766,"2013-12-20T09:00:00","83","ND","ND","ND","ND","ND","0.5","62.1","23.9","75","218.7","0"],
    [31767,"2013-12-20T10:00:00","85","ND","ND","ND","ND","ND","0.5","67.1","25.2","68.9","393.8","0"],
    [31768,"2013-12-20T11:00:00","83","ND","ND","ND","ND","ND","0.9","82.6","26","65.3","349.9","0"],
    [31769,"2013-12-20T12:00:00","74","ND","ND","ND","ND","ND","0.9","108","26.6","62.5","328.1","0"],
    [31770,"2013-12-20T13:00:00","70","ND","ND","ND","ND","ND","0.8","188.8","27.3","60.5","279.8","0"],
    [31771,"2013-12-20T14:00:00","69","ND","ND","ND","ND","ND","0.5","196.3","28.5","55.5","446","0"],
    [31772,"2013-12-20T15:00:00","57","ND","ND","ND","ND","ND","1.4","325","28","58.1","201.8","0"],
    [31773,"2013-12-20T16:00:00","35","ND","ND","ND","ND","ND","0.9","311.5","27.3","60.9","224","0"],
    [31774,"2013-12-20T17:00:00","15","ND","ND","ND","ND","ND","0.4","294.7","29","51.3","218","0"],
    [31775,"2013-12-20T18:00:00","27","ND","ND","ND","ND","ND","0.6","281.2","28","53.6","47.6","0"],
    [31776,"2013-12-20T19:00:00","23","ND","ND","ND","ND","ND","0.3","141.6","26.9","56.2","0.4","0"],
    [31777,"2013-12-20T20:00:00","42","ND","ND","ND","ND","ND","0.8","140.7","26.2","58.3","0","0"],
    [31778,"2013-12-20T21:00:00","54","ND","ND","ND","ND","ND","0.3","292.1","24.8","64.9","0","0"],
    [31779,"2013-12-20T22:00:00","63","ND","ND","ND","ND","ND","0.1","280.2","25.1","64.2","0","0"],
    [31780,"2013-12-20T23:00:00","48","ND","ND","ND","ND","ND","0.5","160.4","24.7","66.7","0","0"],
    [31781,"2013-12-21T00:00:00","28","ND","ND","ND","ND","ND","0.6","79.2","23.5","74.9","0","0"],
    [31782,"2013-12-21T01:00:00","25","ND","ND","ND","ND","ND","0.8","159.7","24","72","0","0"],
    [31783,"2013-12-21T02:00:00","36","ND","ND","ND","ND","ND","1.1","124.2","23.6","75.9","0","0"],
    [31784,"2013-12-21T03:00:00","30","ND","ND","ND","ND","ND","1","131.3","23.2","77.7","0","0"],
    [31785,"2013-12-21T04:00:00","23","ND","ND","ND","ND","ND","1.1","148.3","22.8","78.5","0","0"],
    [31786,"2013-12-21T05:00:00","17","ND","ND","ND","ND","ND","1.1","166.5","22.6","78.8","0","0"],
    [31787,"2013-12-21T06:00:00","21","ND","ND","ND","ND","ND","1.1","144.4","22.4","80.4","0","0"],
    [31788,"2013-12-21T07:00:00","28","ND","ND","ND","ND","ND","0.5","157.5","22.2","81.5","12.3","0"],
    [31789,"2013-12-21T08:00:00","39","ND","ND","ND","ND","ND","0.7","148.1","22.9","79.1","113.4","0"],
    [31790,"2013-12-21T09:00:00","48","ND","ND","ND","ND","ND","0.8","151.1","24.1","74","202.3","0"],
    [31791,"2013-12-21T10:00:00","53","ND","ND","ND","ND","ND","0.5","205.1","22.8","83.9","14.4","11.43"],
    [31792,"2013-12-21T11:00:00","39","ND","ND","ND","ND","ND","1.2","217","21.6","94.6","91.6","10.41"],
    [31793,"2013-12-21T12:00:00","25","ND","ND","ND","ND","ND","1.2","188.8","23.6","83.2","366","0"],
    [31794,"2013-12-21T13:00:00","21","ND","ND","ND","ND","ND","0.6","201.4","26.8","65.3","653","0"],
    [31795,"2013-12-21T14:00:00","11","ND","ND","ND","ND","ND","0.8","234.1","28.4","54.6","723.9","0"],
    [31796,"2013-12-21T15:00:00","10","ND","ND","ND","ND","ND","1.9","291.9","28.5","52.6","414.7","0"],
    [31797,"2013-12-21T16:00:00","6","ND","ND","ND","ND","ND","2.2","259.2","29.2","49.1","488.6","0"],
    [31798,"2013-12-21T17:00:00","5","ND","ND","ND","ND","ND","1.7","283.7","29","48.6","260.1","0"],
    [31799,"2013-12-21T18:00:00","17","ND","ND","ND","ND","ND","0.6","292.5","27.4","54.2","24.8","0"],
    [31800,"2013-12-21T19:00:00","23","ND","ND","ND","ND","ND","0.3","217.8","26.2","58.1","0.4","0"],
    [31801,"2013-12-21T20:00:00","38","ND","ND","ND","ND","ND","0.7","96.3","25.8","60.4","0","0"],
    [31802,"2013-12-21T21:00:00","38","ND","ND","ND","ND","ND","0.7","317.5","25.4","61.7","0","0"],
    [31803,"2013-12-21T22:00:00","31","ND","ND","ND","ND","ND","1","83.6","25.1","64.3","0","0"],
    [31804,"2013-12-21T23:00:00","45","ND","ND","ND","ND","ND","0.3","34.2","24","70.4","0","0"],
    [31805,"2013-12-22T00:00:00","26","ND","ND","ND","ND","ND","2.1","173.7","22.2","88.9","0","4.83"],
    [31806,"2013-12-22T01:00:00","28","ND","ND","ND","ND","ND","0.4","103.3","23.3","76.8","0","0"],
    [31807,"2013-12-22T02:00:00","40","ND","ND","ND","ND","ND","0.2","157.4","23.3","77.1","0","0"],
    [31808,"2013-12-22T03:00:00","19","ND","ND","ND","ND","ND","0.3","339.4","22.4","83.1","0","2.03"],
    [31809,"2013-12-22T04:00:00","21","ND","ND","ND","ND","ND","0.3","256.8","21.2","91.2","0","4.32"],
    [31810,"2013-12-22T05:00:00","8","ND","ND","ND","ND","ND","0.5","268.5","21.2","92.9","0","0.51"],
    [31811,"2013-12-22T06:00:00","18","ND","ND","ND","ND","ND","0.4","18.2","20.9","92.8","0","0.51"],
    [31812,"2013-12-22T07:00:00","10","ND","ND","ND","ND","ND","0.8","35","20.6","94.5","1.9","4.06"],
    [31813,"2013-12-22T08:00:00","15","ND","ND","ND","ND","ND","1.2","353.5","20.3","96.6","10.2","4.32"],
    [31814,"2013-12-22T09:00:00","14","ND","ND","ND","ND","ND","0.9","10.6","20.4","97.9","38.5","7.62"],
    [31815,"2013-12-22T10:00:00","7","ND","ND","ND","ND","ND","1","359.8","20.5","98.2","66.4","4.06"],
    [31816,"2013-12-22T11:00:00","3","ND","ND","ND","ND","ND","0.7","11.5","20.9","97.5","258.4","2.54"],
    [31817,"2013-12-22T12:00:00","23","ND","ND","ND","ND","ND","0.8","101.6","23.4","84.5","738.4","0"],
    [31818,"2013-12-22T13:00:00","38","ND","ND","ND","ND","ND","1.5","148.9","25.2","73.9","503.4","0"],
    [31819,"2013-12-22T14:00:00","46","ND","ND","ND","ND","ND","0.8","99.2","26.3","68.6","493.7","0"],
    [31820,"2013-12-22T15:00:00","35","ND","ND","ND","ND","ND","0.5","295.6","26","66.9","81.7","0"],
    [31821,"2013-12-22T16:00:00","26","ND","ND","ND","ND","ND","1.2","250.6","25","72.4","67.2","0"],
    [31822,"2013-12-22T17:00:00","18","ND","ND","ND","ND","ND","0.5","241.9","25","70.3","64.9","0"],
    [31823,"2013-12-22T18:00:00","32","ND","ND","ND","ND","ND","0.2","36.7","25.2","69.5","27","0"],
    [31824,"2013-12-22T19:00:00","17","ND","ND","ND","ND","ND","0.9","44","24.1","80.1","0.1","0"],
    [31825,"2013-12-22T20:00:00","30","ND","ND","ND","ND","ND","0.5","102.4","23.6","79","0","0"],
    [31826,"2013-12-22T21:00:00","30","ND","ND","ND","ND","ND","0.4","129.8","23.4","80.9","0","0"],
    [31827,"2013-12-22T22:00:00","37","ND","ND","ND","ND","ND","0.5","147.5","23.3","81.3","0","0"],
    [31828,"2013-12-22T23:00:00","38","ND","ND","ND","ND","ND","1.7","168.1","23.2","81.9","0","0"],
    [31829,"2013-12-23T00:00:00","34","ND","ND","ND","ND","ND","0.3","229.6","20.5","94.3","0","0"],
    [31830,"2013-12-23T01:00:00","10","ND","ND","ND","ND","ND","1","193.1","20.9","96","0","13.21"],
    [31831,"2013-12-23T02:00:00","5","ND","ND","ND","ND","ND","1.1","174.7","20.4","97.1","0","5.84"],
    [31832,"2013-12-23T03:00:00","2","ND","ND","ND","ND","ND","0.6","200.9","20.5","98","0","4.06"],
    [31833,"2013-12-23T04:00:00","4","ND","ND","ND","ND","ND","0.1","166","20.6","98.3","0","0.51"],
    [31834,"2013-12-23T05:00:00","4","ND","ND","ND","ND","ND","0.8","114.4","20.6","97.9","0","0.25"],
    [31835,"2013-12-23T06:00:00","7","ND","ND","ND","ND","ND","0.4","179","20.4","97.8","0","0"],
    [31836,"2013-12-23T07:00:00","7","ND","ND","ND","ND","ND","0.8","181.2","20.4","97.8","0.6","5.59"],
    [31837,"2013-12-23T08:00:00","9","ND","ND","ND","ND","ND","0.8","178.4","19.8","99.6","5.3","44.2"],
    [31838,"2013-12-23T09:00:00","8","ND","ND","ND","ND","ND","0.9","64.4","19.6","100.4","17.4","35.56"],
    [31839,"2013-12-23T10:00:00","4","ND","ND","ND","ND","ND","1.3","344.5","19.5","100.4","24.2","37.08"],
    [31840,"2013-12-23T11:00:00","20","ND","ND","ND","ND","ND","1.7","352.6","19.7","100.4","83.4","7.87"],
    [31841,"2013-12-23T12:00:00","27","ND","ND","ND","ND","ND","1.2","11.9","20.1","100.4","144.8","0.76"],
    [31842,"2013-12-23T13:00:00","22","ND","ND","ND","ND","ND","0.7","352.6","20.7","100.3","236.5","0.25"],
    [31843,"2013-12-23T14:00:00","15","ND","ND","ND","ND","ND","1","146.9","22.5","85.6","294.3","0"],
    [31844,"2013-12-23T15:00:00","28","ND","ND","ND","ND","ND","0.7","162.9","23.6","78.4","320.1","0"],
    [31845,"2013-12-23T16:00:00","38","ND","ND","ND","ND","ND","1.1","57.2","23.9","77","217","0"],
    [31846,"2013-12-23T17:00:00","17","ND","ND","ND","ND","ND","1.4","52.2","23.2","80.2","60.1","0"],
    [31847,"2013-12-23T18:00:00","31","ND","ND","ND","ND","ND","1.1","36.4","22.5","84","8.3","0"],
    [31848,"2013-12-23T19:00:00","25","ND","ND","ND","ND","ND","1","14.4","22","87","0.1","0"],
    [31849,"2013-12-23T20:00:00","37","ND","ND","ND","ND","ND","1.2","4.1","21.6","89","0","0"],
    [31850,"2013-12-23T21:00:00","29","ND","ND","ND","ND","ND","0.1","251.1","21.7","87.9","0","0"],
    [31851,"2013-12-23T22:00:00","27","ND","ND","ND","ND","ND","0.4","179.1","21.6","88.4","0","0"],
    [31852,"2013-12-23T23:00:00","26","ND","ND","ND","ND","ND","0.7","37.5","20.6","92","0","0"],
    [31853,"2013-12-24T00:00:00","44","ND","ND","ND","ND","ND","0.2","4.5","21","82.8","0","0"],
    [31854,"2013-12-24T01:00:00","42","ND","ND","ND","ND","ND","0.8","211.6","20.7","93.4","0","0"],
    [31855,"2013-12-24T02:00:00","38","ND","ND","ND","ND","ND","1","174.4","20.7","91.2","0","0"],
    [31856,"2013-12-24T03:00:00","28","ND","ND","ND","ND","ND","0.5","357.8","20.1","93","0","0"],
    [31857,"2013-12-24T04:00:00","40","ND","ND","ND","ND","ND","0.1","320.7","20","95.1","0","0"],
    [31858,"2013-12-24T05:00:00","40","ND","ND","ND","ND","ND","0.2","193.5","19.9","95.5","0","0"],
    [31859,"2013-12-24T06:00:00","43","ND","ND","ND","ND","ND","0","272.1","20.1","95.3","0","0"],
    [31860,"2013-12-24T07:00:00","36","ND","ND","ND","ND","ND","0.3","22.5","20","96","19.3","0.25"],
    [31861,"2013-12-24T08:00:00","52","ND","ND","ND","ND","ND","0.4","157.6","20.2","97.2","41.3","0"],
    [31862,"2013-12-24T09:00:00","36","ND","ND","ND","ND","ND","0.6","199.5","21.5","88.7","275.2","0.25"],
    [31863,"2013-12-24T10:00:00","29","ND","ND","ND","ND","ND","0.9","136.3","22.9","75.9","164.5","0"],
    [31864,"2013-12-24T11:00:00","52","ND","ND","ND","ND","ND","0.4","359","24.1","73.6","580.8","0"],
    [31865,"2013-12-24T12:00:00","47","ND","ND","ND","ND","ND","0.9","65.6","24.9","68.3","335.2","0"],
    [31866,"2013-12-24T13:00:00","56","ND","ND","ND","ND","ND","0.6","51.3","25.7","65.8","493.2","0"],
    [31867,"2013-12-24T14:00:00","54","ND","ND","ND","ND","ND","1.1","15.2","26.2","64.8","374.6","0"],
    [31868,"2013-12-24T15:00:00","63","ND","ND","ND","ND","ND","1","320.8","26.1","65.5","255.5","0"],
    [31869,"2013-12-24T16:00:00","53","ND","ND","ND","ND","ND","0.9","39","26.6","64.1","309.3","0"],
    [31870,"2013-12-24T17:00:00","49","ND","ND","ND","ND","ND","1","37.3","26.3","64.5","113.6","0"],
    [31871,"2013-12-24T18:00:00","40","ND","ND","ND","ND","ND","0.6","254.8","26","64","37.2","0"],
    [31872,"2013-12-24T19:00:00","34","ND","ND","ND","ND","ND","0.3","211.8","25","66.1","0.3","0"],
    [31873,"2013-12-24T20:00:00","48","ND","ND","ND","ND","ND","0.3","175.9","24.1","69","0","0"],
    [31874,"2013-12-24T21:00:00","46","ND","ND","ND","ND","ND","0.3","287.8","22.7","74.9","0","0"],
    [31875,"2013-12-24T22:00:00","41","ND","ND","ND","ND","ND","0.1","22.1","22.3","76.6","0","0"],
    [31876,"2013-12-24T23:00:00","51","ND","ND","ND","ND","ND","0.1","156.7","21.8","80.3","0","0"],
    [31877,"2013-12-25T00:00:00","49","ND","ND","ND","ND","ND","0.6","9","21.7","80","0","0"],
    [31878,"2013-12-25T01:00:00","52","ND","ND","ND","ND","ND","0.5","350.7","20.3","87.1","0","0"],
    [31879,"2013-12-25T02:00:00","58","ND","ND","ND","ND","ND","0.2","203.8","20.3","88.2","0","0"],
    [31880,"2013-12-25T03:00:00","50","ND","ND","ND","ND","ND","0.5","24.9","20.2","88.1","0","0"],
    [31881,"2013-12-25T04:00:00","43","ND","ND","ND","ND","ND","0.1","228.8","20.3","88.2","0","0"],
    [31882,"2013-12-25T05:00:00","42","ND","ND","ND","ND","ND","0.1","44.6","20.3","87.9","0","0"],
    [31883,"2013-12-25T06:00:00","32","ND","ND","ND","ND","ND","0.1","40.7","19.7","90.8","0","0"],
    [31884,"2013-12-25T07:00:00","39","ND","ND","ND","ND","ND","0.3","259.9","19.2","91.6","25.7","0"],
    [31885,"2013-12-25T08:00:00","52","ND","ND","ND","ND","ND","0.1","147.4","21.7","81.5","203","0"],
    [31886,"2013-12-25T09:00:00","46","ND","ND","ND","ND","ND","0.9","78.7","23.9","70.4","394.1","0"],
    [31887,"2013-12-25T10:00:00","75","ND","ND","ND","ND","ND","1","129.5","25.1","65.1","576.8","0"],
    [31888,"2013-12-25T11:00:00","43","ND","ND","ND","ND","ND","0.9","51.2","26","61.7","579.7","0"],
    [31889,"2013-12-25T12:00:00","32","ND","ND","ND","ND","ND","1","73.8","27.5","57","830.1","0"],
    [31890,"2013-12-25T13:00:00","35","ND","ND","ND","ND","ND","0.3","352.3","28.4","52.6","776.4","0"],
    [31891,"2013-12-25T14:00:00","ND","ND","ND","ND","ND","ND","0.5","356","29.6","50","731.3","0"],
    [31892,"2013-12-25T15:00:00","15","ND","ND","ND","ND","ND","0.7","2.2","29.3","49.8","198","0"],
    [31893,"2013-12-25T16:00:00","16","ND","ND","ND","ND","ND","0.5","302.7","29.4","49","254.1","0"],
    [31894,"2013-12-25T17:00:00","9","ND","ND","ND","ND","ND","2.7","267.6","29.2","47.6","234.4","0"],
    [31895,"2013-12-25T18:00:00","11","ND","ND","ND","ND","ND","2.1","262.4","27.5","51.2","34.3","0"],
    [31896,"2013-12-25T19:00:00","15","ND","ND","ND","ND","ND","0.7","109.2","26.6","55.5","0.4","0"],
    [31897,"2013-12-25T20:00:00","46","ND","ND","ND","ND","ND","0.3","352.8","25.1","62.1","0","0"],
    [31898,"2013-12-25T21:00:00","52","ND","ND","ND","ND","ND","0.5","178","23.9","68.6","0","0"],
    [31899,"2013-12-25T22:00:00","48","ND","ND","ND","ND","ND","0.3","229.4","23.1","74.3","0","0"],
    [31900,"2013-12-25T23:00:00","30","ND","ND","ND","ND","ND","0.2","250.7","22.2","76.3","0","0"],
    [31901,"2013-12-26T00:00:00","52","ND","ND","ND","ND","ND","0.2","14.2","22.7","76.9","0","0"],
    [31902,"2013-12-26T01:00:00","32","ND","ND","ND","ND","ND","0.2","312.2","21.3","82","0","0"],
    [31903,"2013-12-26T02:00:00","31","ND","ND","ND","ND","ND","0.2","334.6","21","82.9","0","0"],
    [31904,"2013-12-26T03:00:00","26","ND","ND","ND","ND","ND","0.1","239.8","21.1","83.8","0","0"],
    [31905,"2013-12-26T04:00:00","36","ND","ND","ND","ND","ND","0.4","6.3","20.8","84.9","0","0"],
    [31906,"2013-12-26T05:00:00","29","ND","ND","ND","ND","ND","0.2","270.2","20.8","85.3","0","0"],
    [31907,"2013-12-26T06:00:00","37","ND","ND","ND","ND","ND","0.4","235","20.8","86.1","0","0"],
    [31908,"2013-12-26T07:00:00","63","ND","ND","ND","ND","ND","0.2","90.7","21","85.8","12.7","0"],
    [31909,"2013-12-26T08:00:00","83","ND","ND","ND","ND","ND","0.7","255.8","20.9","87.1","35.8","0"],
    [31910,"2013-12-26T09:00:00","65","ND","ND","ND","ND","ND","1.2","127.1","23.2","76.1","246.4","0"],
    [31911,"2013-12-26T10:00:00","67","ND","ND","ND","ND","ND","1.2","85.5","24","72.5","457.5","0"],
    [31912,"2013-12-26T11:00:00","64","ND","ND","ND","ND","ND","1.3","69.8","25.6","65.7","668.4","0"],
    [31913,"2013-12-26T12:00:00","55","ND","ND","ND","ND","ND","0.9","100.2","27.1","59.2","810.9","0"],
    [31914,"2013-12-26T13:00:00","40","ND","ND","ND","ND","ND","1","42.5","28.1","55.6","525","0"],
    [31915,"2013-12-26T14:00:00","39","ND","ND","ND","ND","ND","0.9","38.1","28.8","53.3","644.2","0"],
    [31916,"2013-12-26T15:00:00","40","ND","ND","ND","ND","ND","1.5","38.6","28.9","53.4","366.3","0"],
    [31917,"2013-12-26T16:00:00","34","ND","ND","ND","ND","ND","1.2","346.1","28.7","54.2","212.2","0"],
    [31918,"2013-12-26T17:00:00","18","ND","ND","ND","ND","ND","1.1","291.3","29","51.2","180.9","0"],
    [31919,"2013-12-26T18:00:00","18","ND","ND","ND","ND","ND","1.9","266.6","27.5","54.3","48","0"],
    [31920,"2013-12-26T19:00:00","39","ND","ND","ND","ND","ND","0.5","222.5","26.3","58.4","0.5","0"],
    [31921,"2013-12-26T20:00:00","41","ND","ND","ND","ND","ND","0.5","338.8","25.6","60.5","0","0"],
    [31922,"2013-12-26T21:00:00","60","ND","ND","ND","ND","ND","0.3","249","24.7","64.6","0","0"],
    [31923,"2013-12-26T22:00:00","56","ND","ND","ND","ND","ND","0.5","179.4","24","69","0","0"],
    [31924,"2013-12-26T23:00:00","40","ND","ND","ND","ND","ND","0.5","179.4","23.2","74.8","0","0"],
    [31925,"2013-12-27T00:00:00","65","ND","ND","ND","ND","ND","0.3","45.7","23.2","79.3","0","0"],
    [31926,"2013-12-27T01:00:00","57","ND","ND","ND","ND","ND","0.2","302.4","22.4","78.6","0","0"],
    [31927,"2013-12-27T02:00:00","43","ND","ND","ND","ND","ND","0.4","259.4","21.7","81.4","0","0"],
    [31928,"2013-12-27T03:00:00","42","ND","ND","ND","ND","ND","0.1","277","21.3","83.4","0","0"],
    [31929,"2013-12-27T04:00:00","38","ND","ND","ND","ND","ND","0.4","158.5","21.1","85.6","0","0"],
    [31930,"2013-12-27T05:00:00","32","ND","ND","ND","ND","ND","0.3","17.4","20.8","87.7","0","0"],
    [31931,"2013-12-27T06:00:00","49","ND","ND","ND","ND","ND","0.4","267.3","20.4","89","0","0"],
    [31932,"2013-12-27T07:00:00","53","ND","ND","ND","ND","ND","0.6","218.5","20.7","87.3","27","0"],
    [31933,"2013-12-27T08:00:00","112","ND","ND","ND","ND","ND","0.9","25.2","22","82.4","170.2","0"],
    [31934,"2013-12-27T09:00:00","119","ND","ND","ND","ND","ND","0.3","27.1","23.6","76","236","0"],
    [31935,"2013-12-27T10:00:00","99","ND","ND","ND","ND","ND","1","44.1","24.5","73.9","406.3","0"],
    [31936,"2013-12-27T11:00:00","63","ND","ND","ND","ND","ND","0.6","125.8","26.6","62.8","627.2","0"],
    [31937,"2013-12-27T12:00:00","40","ND","ND","ND","ND","ND","1.3","112","28.3","54.2","788.1","0"],
    [31938,"2013-12-27T13:00:00","40","ND","ND","ND","ND","ND","0.8","81.4","29","52.1","598.4","0"],
    [31939,"2013-12-27T14:00:00","36","ND","ND","ND","ND","ND","0.4","70.5","30","49.3","707.4","0"],
    [31940,"2013-12-27T15:00:00","57","ND","ND","ND","ND","ND","1.5","53.2","29.8","51.2","317.8","0"],
    [31941,"2013-12-27T16:00:00","49","ND","ND","ND","ND","ND","0.8","60.3","30.5","49.8","364.2","0"],
    [31942,"2013-12-27T17:00:00","31","ND","ND","ND","ND","ND","1.2","314.8","29.9","51.3","130.2","0"],
    [31943,"2013-12-27T18:00:00","25","ND","ND","ND","ND","ND","0.9","278.4","29","53.4","32.3","0"],
    [31944,"2013-12-27T19:00:00","56","ND","ND","ND","ND","ND","0.5","240.1","27.3","60","0.6","0"],
    [31945,"2013-12-27T20:00:00","47","ND","ND","ND","ND","ND","0.8","250.1","26.4","61.5","0","0"],
    [31946,"2013-12-27T21:00:00","69","ND","ND","ND","ND","ND","0.1","145.8","25.5","67.4","0","0"],
    [31947,"2013-12-27T22:00:00","58","ND","ND","ND","ND","ND","0.3","31","24.6","71.7","0","0"],
    [31948,"2013-12-27T23:00:00","55","ND","ND","ND","ND","ND","0.4","211.9","23.9","76","0","0"],
    [31949,"2013-12-28T00:00:00","ND","ND","ND","ND","ND","ND","0.3","160.6","23.8","75.2","0","0"],
    [31950,"2013-12-28T01:00:00","53","ND","ND","ND","ND","ND","0.5","288","22.3","81.7","0","0"],
    [31951,"2013-12-28T02:00:00","60","ND","ND","ND","ND","ND","0","112.5","22.2","82.1","0","0"],
    [31952,"2013-12-28T03:00:00","60","ND","ND","ND","ND","ND","0.2","162.7","22.4","81.6","0","0"],
    [31953,"2013-12-28T04:00:00","62","ND","ND","ND","ND","ND","0.2","27.8","21.8","84.1","0","0"],
    [31954,"2013-12-28T05:00:00","63","ND","ND","ND","ND","ND","0.3","242.8","21.5","85.1","0","0"],
    [31955,"2013-12-28T06:00:00","59","ND","ND","ND","ND","ND","0.2","309.9","21.3","86.4","0","0"],
    [31956,"2013-12-28T07:00:00","62","ND","ND","ND","ND","ND","0.1","260.5","20.9","87.4","21.3","0"],
    [31957,"2013-12-28T08:00:00","69","ND","ND","ND","ND","ND","0.2","240","22.5","81.4","150.6","0"],
    [31958,"2013-12-28T09:00:00","70","ND","ND","ND","ND","ND","0.8","107.1","24.6","70.6","344.4","0"],
    [31959,"2013-12-28T10:00:00","71","ND","ND","ND","ND","ND","1","117.9","26.2","64.2","547.4","0"],
    [31960,"2013-12-28T11:00:00","55","ND","ND","ND","ND","ND","1.3","108.5","27.4","60.1","666.7","0"],
    [31961,"2013-12-28T12:00:00","65","ND","ND","ND","ND","ND","0.7","125.8","28.2","57.8","502","0"],
    [31962,"2013-12-28T13:00:00","72","ND","ND","ND","ND","ND","1","133.4","29.7","52.7","743.5","0"],
    [31963,"2013-12-28T14:00:00","74","ND","ND","ND","ND","ND","1.4","75","30.1","52.8","678.3","0"],
    [31964,"2013-12-28T15:00:00","86","ND","ND","ND","ND","ND","0.7","58.1","31","51.8","471.3","0"],
    [31965,"2013-12-28T16:00:00","34","ND","ND","ND","ND","ND","1.9","246.6","31.2","48","405.1","0"],
    [31966,"2013-12-28T17:00:00","24","ND","ND","ND","ND","ND","2.1","263.2","30.9","48","229.2","0"],
    [31967,"2013-12-28T18:00:00","33","ND","ND","ND","ND","ND","1.3","249","29.7","50","47.8","0"],
    [31968,"2013-12-28T19:00:00","37","ND","ND","ND","ND","ND","0.6","226.3","28.2","53.3","0.5","0"],
    [31969,"2013-12-28T20:00:00","48","ND","ND","ND","ND","ND","0.2","148.4","27.5","56","0","0"],
    [31970,"2013-12-28T21:00:00","74","ND","ND","ND","ND","ND","0.8","139.7","26.8","59.3","0","0"],
    [31971,"2013-12-28T22:00:00","47","ND","ND","ND","ND","ND","0.9","119.5","25.3","67.8","0","0"],
    [31972,"2013-12-28T23:00:00","93","ND","ND","ND","ND","ND","0.3","135.9","24.3","72.8","0","0"],
    [31973,"2013-12-29T00:00:00","40","ND","ND","ND","ND","ND","0.3","295.5","23.8","73.1","0","0"],
    [31974,"2013-12-29T01:00:00","80","ND","ND","ND","ND","ND","0.3","236.6","23.1","78.2","0","0"],
    [31975,"2013-12-29T02:00:00","57","ND","ND","ND","ND","ND","0.4","218.4","23.1","78.3","0","0"],
    [31976,"2013-12-29T03:00:00","47","ND","ND","ND","ND","ND","0.7","190.5","23.3","79","0","0"],
    [31977,"2013-12-29T04:00:00","47","ND","ND","ND","ND","ND","0.8","141.2","22.9","80.7","0","0"],
    [31978,"2013-12-29T05:00:00","53","ND","ND","ND","ND","ND","0.5","155","22.5","83","0","0"],
    [31979,"2013-12-29T06:00:00","45","ND","ND","ND","ND","ND","0.7","208.1","22.5","83.1","0","0"],
    [31980,"2013-12-29T07:00:00","42","ND","ND","ND","ND","ND","0.4","243.6","22.5","82.6","16.8","0"],
    [31981,"2013-12-29T08:00:00","64","ND","ND","ND","ND","ND","0.6","138.2","23.3","79.6","127.4","0"],
    [31982,"2013-12-29T09:00:00","67","ND","ND","ND","ND","ND","1","174.1","24.6","72.5","266.3","0"],
    [31983,"2013-12-29T10:00:00","42","ND","ND","ND","ND","ND","1.3","151.1","26.6","63.8","559.9","0"],
    [31984,"2013-12-29T11:00:00","49","ND","ND","ND","ND","ND","0.6","95.9","27.8","60.2","629.1","0"],
    [31985,"2013-12-29T12:00:00","52","ND","ND","ND","ND","ND","1.2","69.1","28.3","59.6","552.5","0"],
    [31986,"2013-12-29T13:00:00","51","ND","ND","ND","ND","ND","0.1","42","29.5","56.4","607.7","0"],
    [31987,"2013-12-29T14:00:00","33","ND","ND","ND","ND","ND","0.9","325.3","30","52.1","415.7","0"],
    [31988,"2013-12-29T15:00:00","15","ND","ND","ND","ND","ND","3","260.6","30.6","45.7","534.8","0"],
    [31989,"2013-12-29T16:00:00","8","ND","ND","ND","ND","ND","2.6","247.9","31.5","42.7","447.4","0"],
    [31990,"2013-12-29T17:00:00","14","ND","ND","ND","ND","ND","2.8","255.1","30.7","45.2","246.2","0"],
    [31991,"2013-12-29T18:00:00","17","ND","ND","ND","ND","ND","1.7","257.2","29.6","47.7","59.1","0"],
    [31992,"2013-12-29T19:00:00","16","ND","ND","ND","ND","ND","0.5","57.9","28.2","51.6","0.8","0"],
    [31993,"2013-12-29T20:00:00","34","ND","ND","ND","ND","ND","0.6","93.3","27.4","54.4","0","0"],
    [31994,"2013-12-29T21:00:00","52","ND","ND","ND","ND","ND","0.6","95.6","26.6","59.3","0","0"],
    [31995,"2013-12-29T22:00:00","23","ND","ND","ND","ND","ND","0.5","137.1","24.7","70","0","0"],
    [31996,"2013-12-29T23:00:00","39","ND","ND","ND","ND","ND","0.1","184.4","24.2","71","0","0"],
    [31997,"2013-12-30T00:00:00","32","ND","ND","ND","ND","ND","0.7","2.7","24.2","70.6","0","0"],
    [31998,"2013-12-30T01:00:00","30","ND","ND","ND","ND","ND","0.6","5.7","23.2","75.1","0","0"],
    [31999,"2013-12-30T02:00:00","29","ND","ND","ND","ND","ND","0.4","253.4","22.8","78.4","0","0"],
    [32000,"2013-12-30T03:00:00","28","ND","ND","ND","ND","ND","0.3","278.2","22.1","81.6","0","0"],
    [32001,"2013-12-30T04:00:00","25","ND","ND","ND","ND","ND","0.3","250.7","22.1","82.5","0","0"],
    [32002,"2013-12-30T05:00:00","36","ND","ND","ND","ND","ND","0.5","262.2","22.2","82.9","0","0"],
    [32003,"2013-12-30T06:00:00","39","ND","ND","ND","ND","ND","0.1","277.7","22.5","81.5","0","0"],
    [32004,"2013-12-30T07:00:00","76","ND","ND","ND","ND","ND","0.5","343.5","22.5","82.6","22.2","0"],
    [32005,"2013-12-30T08:00:00","99","ND","ND","ND","ND","ND","0.8","58.7","23.5","79.1","167.1","0"],
    [32006,"2013-12-30T09:00:00","62","ND","ND","ND","ND","ND","0.8","156.4","25.2","69.3","206.4","0"],
    [32007,"2013-12-30T10:00:00","43","ND","ND","ND","ND","ND","0.6","151.5","26.5","63.6","457.4","0"],
    [32008,"2013-12-30T11:00:00","50","ND","ND","ND","ND","ND","0.7","86.6","27.9","58.9","630.4","0"],
    [32009,"2013-12-30T12:00:00","42","ND","ND","ND","ND","ND","0.9","238.9","28.9","55.4","550.8","0"],
    [32010,"2013-12-30T13:00:00","42","ND","ND","ND","ND","ND","0.7","262.7","30.1","50.3","702.4","0"],
    [32011,"2013-12-30T14:00:00","38","ND","ND","ND","ND","ND","1.2","320.8","30.3","49.8","437.9","0"],
    [32012,"2013-12-30T15:00:00","20","ND","ND","ND","ND","ND","1.5","340.7","31.2","46.1","518.2","0"],
    [32013,"2013-12-30T16:00:00","18","ND","ND","ND","ND","ND","2.5","277.6","31.6","44.3","488.3","0"],
    [32014,"2013-12-30T17:00:00","17","ND","ND","ND","ND","ND","3.3","272.4","30.2","47.7","274.3","0"],
    [32015,"2013-12-30T18:00:00","13","ND","ND","ND","ND","ND","1.3","271.2","29","50.5","48.1","0"],
    [32016,"2013-12-30T19:00:00","26","ND","ND","ND","ND","ND","0.3","244.3","28.2","52.4","0.7","0"],
    [32017,"2013-12-30T20:00:00","50","ND","ND","ND","ND","ND","1.5","122.8","27.7","56.2","0","0"],
    [32018,"2013-12-30T21:00:00","39","ND","ND","ND","ND","ND","0.8","133","26.5","61.3","0","0"],
    [32019,"2013-12-30T22:00:00","23","ND","ND","ND","ND","ND","0.9","251.6","26.2","61.2","0","0"],
    [32020,"2013-12-30T23:00:00","48","ND","ND","ND","ND","ND","0.6","295.9","24.9","67.9","0","0"],
    [32021,"2013-12-31T00:00:00","27","ND","ND","ND","ND","ND","1.1","158","24.4","73.5","0","0"],
    [32022,"2013-12-31T01:00:00","21","ND","ND","ND","ND","ND","0.8","327.9","23.6","74.9","0","0"],
    [32023,"2013-12-31T02:00:00","57","ND","ND","ND","ND","ND","0.3","331.8","23.3","75.5","0","0"],
    [32024,"2013-12-31T03:00:00","40","ND","ND","ND","ND","ND","0.1","78.7","23.1","78.5","0","0"],
    [32025,"2013-12-31T04:00:00","31","ND","ND","ND","ND","ND","0.2","237","23.1","78.8","0","0"],
    [32026,"2013-12-31T05:00:00","34","ND","ND","ND","ND","ND","0.3","49.9","23","79.1","0","0"],
    [32027,"2013-12-31T06:00:00","36","ND","ND","ND","ND","ND","0.3","288.2","23.1","80.1","0","0"],
    [32028,"2013-12-31T07:00:00","53","ND","ND","ND","ND","ND","0.5","46.7","23","80.5","10.3","0"],
    [32029,"2013-12-31T08:00:00","54","ND","ND","ND","ND","ND","0.5","343.6","23.6","78.8","105.6","0"],
    [32030,"2013-12-31T09:00:00","44","ND","ND","ND","ND","ND","0.4","246.2","24.9","72.6","177.7","0"],
    [32031,"2013-12-31T10:00:00","57","ND","ND","ND","ND","ND","0.7","324.1","25.2","71.4","142.2","0"],
    [32032,"2013-12-31T11:00:00","48","ND","ND","ND","ND","ND","0.6","268.6","26.6","65","427.9","0"],
    [32033,"2013-12-31T12:00:00","34","ND","ND","ND","ND","ND","0.3","244.9","29.2","53.3","799.8","0"],
    [32034,"2013-12-31T13:00:00","41","ND","ND","ND","ND","ND","1","118.8","30.3","49.6","719.5","0"],
    [32035,"2013-12-31T14:00:00","16","ND","ND","ND","ND","ND","1","314.7","31.1","46.5","705.2","0"],
    [32036,"2013-12-31T15:00:00","15","ND","ND","ND","ND","ND","2.2","298.4","29.7","49.5","150.8","0"],
    [32037,"2013-12-31T16:00:00","10","ND","ND","ND","ND","ND","2.4","282.3","30.7","46","442.4","0"],
    [32038,"2013-12-31T17:00:00","12","ND","ND","ND","ND","ND","3.8","281.9","29.6","48.5","299.5","0"],
    [32039,"2013-12-31T18:00:00","11","ND","ND","ND","ND","ND","0.5","281.4","28.5","51.9","36.3","0"],
    [32040,"2013-12-31T19:00:00","17","ND","ND","ND","ND","ND","0.7","91","27.8","53.4","0.4","0"],
    [32041,"2013-12-31T20:00:00","19","ND","ND","ND","ND","ND","1.2","303.6","27","56.8","0","0"],
    [32042,"2013-12-31T21:00:00","11","ND","ND","ND","ND","ND","2.1","172.5","26.4","59.1","0","0"],
    [32043,"2013-12-31T22:00:00","6","ND","ND","ND","ND","ND","2.4","183.7","25.9","61.4","0","0"],
    [32044,"2013-12-31T23:00:00","33","ND","ND","ND","ND","ND","0.9","119.8","25.4","67.8","0","0"],
    [32045,"2014-01-01T00:00:00","27","ND","ND","ND","ND","ND","1.1","158","24.4","73.5","0","0"],
    [32046,"2014-01-01T01:00:00","37","ND","ND","ND","ND","ND","0.5","312.4","23.3","81.7","0","0.25"],
    [32047,"2014-01-01T02:00:00","28","ND","ND","ND","ND","ND","0.9","343.8","22.8","84.3","0","0"],
    [32048,"2014-01-01T03:00:00","17","ND","ND","ND","ND","ND","0.8","27.6","22.9","82.3","0","0"],
    [32049,"2014-01-01T04:00:00","27","ND","ND","ND","ND","ND","0.5","21.3","22.9","80.7","0","0"],
    [32050,"2014-01-01T05:00:00","15","ND","ND","ND","ND","ND","0.2","28","23","80.3","0","0"],
    [32051,"2014-01-01T06:00:00","16","ND","ND","ND","ND","ND","0.1","353.1","22.9","81.1","0","0"],
    [32052,"2014-01-01T07:00:00","19","ND","ND","ND","ND","ND","0.5","40.5","22.9","81.1","5.6","0"],
    [32053,"2014-01-01T08:00:00","25","ND","ND","ND","ND","ND","0.4","345.3","22.9","83","54.2","0"],
    [32054,"2014-01-01T09:00:00","28","ND","ND","ND","ND","ND","1","44.3","24.1","77.1","217","0"],
    [32055,"2014-01-01T10:00:00","28","ND","ND","ND","ND","ND","0.2","51.6","25","72.4","328.1","0"],
    [32056,"2014-01-01T11:00:00","27","ND","ND","ND","ND","ND","1.1","98.1","26.8","63.7","714.6","0"],
    [32057,"2014-01-01T12:00:00","26","ND","ND","ND","ND","ND","1.2","78.5","28","58.9","719.9","0"],
    [32058,"2014-01-01T13:00:00","16","ND","ND","ND","ND","ND","1.7","15.4","28.5","56.9","563.6","0"],
    [32059,"2014-01-01T14:00:00","11","ND","ND","ND","ND","ND","1.4","255.3","30","49.7","626.3","0"],
    [32060,"2014-01-01T15:00:00","14","ND","ND","ND","ND","ND","2.6","268.2","30.1","47.6","460.1","0"],
    [32061,"2014-01-01T16:00:00","8","ND","ND","ND","ND","ND","2.7","267.8","29.7","47.4","373.9","0"],
    [32062,"2014-01-01T17:00:00","6","ND","ND","ND","ND","ND","1.9","271.2","29.6","46.9","204.2","0"],
    [32063,"2014-01-01T18:00:00","6","ND","ND","ND","ND","ND","0.4","231.3","28.7","48.2","25.6","0"],
    [32064,"2014-01-01T19:00:00","13","ND","ND","ND","ND","ND","1.1","244.1","27.6","52","0","0"],
    [32065,"2014-01-01T20:00:00","16","ND","ND","ND","ND","ND","0.4","126.1","27.1","55.1","0","0"],
    [32066,"2014-01-01T21:00:00","3","ND","ND","ND","ND","ND","2.4","209.9","25.9","60.6","0","0"],
    [32067,"2014-01-01T22:00:00","13","ND","ND","ND","ND","ND","0.8","179.9","25.3","63.3","0","0"],
    [32068,"2014-01-01T23:00:00","12","ND","ND","ND","ND","ND","0.6","41.3","24.7","66.7","0","0"],
    [32069,"2014-01-02T00:00:00","22","ND","ND","ND","ND","ND","0.8","5.3","23.4","75.9","0","0"],
    [32070,"2014-01-02T01:00:00","17","ND","ND","ND","ND","ND","0.6","342.6","22.2","83.2","0","0"],
    [32071,"2014-01-02T02:00:00","20","ND","ND","ND","ND","ND","0.3","358.7","21.9","82.4","0","0"],
    [32072,"2014-01-02T03:00:00","3","ND","ND","ND","ND","ND","0.2","274.2","22.2","80.7","0","0"],
    [32073,"2014-01-02T04:00:00","18","ND","ND","ND","ND","ND","0.3","316.3","22","81.5","0","0"],
    [32074,"2014-01-02T05:00:00","14","ND","ND","ND","ND","ND","0.2","342.2","21.5","82.7","0","0"],
    [32075,"2014-01-02T06:00:00","16","ND","ND","ND","ND","ND","0.2","298.4","21.4","84","0","0"],
    [32076,"2014-01-02T07:00:00","26","ND","ND","ND","ND","ND","0.1","112","21.8","83.1","24.5","0"],
    [32077,"2014-01-02T08:00:00","61","ND","ND","ND","ND","ND","0.7","314.7","23","78","164.6","0"],
    [32078,"2014-01-02T09:00:00","43","ND","ND","ND","ND","ND","1.1","31.6","24.1","74.6","242.9","0"],
    [32079,"2014-01-02T10:00:00","43","ND","ND","ND","ND","ND","0.6","26.8","24.8","71.9","252.2","0"],
    [32080,"2014-01-02T11:00:00","38","ND","ND","ND","ND","ND","0.7","309.3","25.6","68.8","186.2","0"],
    [32081,"2014-01-02T12:00:00","43","ND","ND","ND","ND","ND","0.7","210.6","28","57.8","676","0"],
    [32082,"2014-01-02T13:00:00","32","ND","ND","ND","ND","ND","0.4","66.6","29.7","50.2","769","0"],
    [32083,"2014-01-02T14:00:00","27","ND","ND","ND","ND","ND","1.5","2.9","30.1","48","496.2","0"],
    [32084,"2014-01-02T15:00:00","22","ND","ND","ND","ND","ND","1.2","3.1","31","45.3","609.3","0"],
    [32085,"2014-01-02T16:00:00","18","ND","ND","ND","ND","ND","1.7","316.4","30.7","45.6","415.4","0"],
    [32086,"2014-01-02T17:00:00","7","ND","ND","ND","ND","ND","2.9","280.2","30.1","46.7","254.7","0"],
    [32087,"2014-01-02T18:00:00","19","ND","ND","ND","ND","ND","0.6","276.1","29.1","48.9","51.1","0"],
    [32088,"2014-01-02T19:00:00","22","ND","ND","ND","ND","ND","0.1","150.7","27.6","52.8","0","0"],
    [32089,"2014-01-02T20:00:00","18","ND","ND","ND","ND","ND","1.3","104.5","27.3","54.6","0","0"],
    [32090,"2014-01-02T21:00:00","34","ND","ND","ND","ND","ND","0.3","30.4","26.5","58","0","0"],
    [32091,"2014-01-02T22:00:00","27","ND","ND","ND","ND","ND","1.3","123.3","25.9","62","0","0"],
    [32092,"2014-01-02T23:00:00","28","ND","ND","ND","ND","ND","0.9","280.8","25.2","65.2","0","0"],
    [32093,"2014-01-03T00:00:00","25","ND","ND","ND","ND","ND","0.4","78.5","25.1","65.8","0","0"],
    [32094,"2014-01-03T01:00:00","12","ND","ND","ND","ND","ND","0.6","116.2","24.9","66.6","0","0"],
    [32095,"2014-01-03T02:00:00","18","ND","ND","ND","ND","ND","0.7","354.5","24.3","69.9","0","0"],
    [32096,"2014-01-03T03:00:00","12","ND","ND","ND","ND","ND","1.1","33.7","23.1","79.5","0","0"],
    [32097,"2014-01-03T04:00:00","12","ND","ND","ND","ND","ND","0.4","114.1","22.8","81","0","0"],
    [32098,"2014-01-03T05:00:00","8","ND","ND","ND","ND","ND","0.1","327.6","22.8","81.2","0","0"],
    [32099,"2014-01-03T06:00:00","20","ND","ND","ND","ND","ND","0.8","326.8","22.8","81.1","0","0"],
    [32100,"2014-01-03T07:00:00","33","ND","ND","ND","ND","ND","0.4","19.6","22.6","81.4","10.1","0"],
    [32101,"2014-01-03T08:00:00","44","ND","ND","ND","ND","ND","0.3","34","22.8","81.5","55.4","0"],
    [32102,"2014-01-03T09:00:00","36","ND","ND","ND","ND","ND","0.2","10.1","23.9","76.2","288.7","0"],
    [32103,"2014-01-03T10:00:00","43","ND","ND","ND","ND","ND","1.3","118.3","26.1","66.4","535.6","0"],
    [32104,"2014-01-03T11:00:00","44","ND","ND","ND","ND","ND","0.9","95.6","27.5","59.8","668.9","0"],
    [32105,"2014-01-03T12:00:00","19","ND","ND","ND","ND","ND","1.2","58.4","28.5","54.6","762.3","0"],
    [32106,"2014-01-03T13:00:00","28","ND","ND","ND","ND","ND","0.6","358.6","29.3","52.3","712.9","0"],
    [32107,"2014-01-03T14:00:00","24","ND","ND","ND","ND","ND","1.2","269.8","29.9","49.6","653.3","0"],
    [32108,"2014-01-03T15:00:00","19","ND","ND","ND","ND","ND","1.3","339.4","30.8","47","548.1","0"],
    [32109,"2014-01-03T16:00:00","13","ND","ND","ND","ND","ND","1.8","316","29.9","48.4","186.9","0"],
    [32110,"2014-01-03T17:00:00","14","ND","ND","ND","ND","ND","1.6","284.8","29.9","48.9","172.7","0"],
    [32111,"2014-01-03T18:00:00","21","ND","ND","ND","ND","ND","0.6","254.1","28.9","51","34.1","0"],
    [32112,"2014-01-03T19:00:00","24","ND","ND","ND","ND","ND","0.5","221.3","27.9","52","0","0"],
    [32113,"2014-01-03T20:00:00","40","ND","ND","ND","ND","ND","0.2","171","27.2","54.6","0","0"],
    [32114,"2014-01-03T21:00:00","48","ND","ND","ND","ND","ND","0.1","349.9","26.3","57.9","0","0"],
    [32115,"2014-01-03T22:00:00","60","ND","ND","ND","ND","ND","0.3","108.4","25.6","62.4","0","0"],
    [32116,"2014-01-03T23:00:00","40","ND","ND","ND","ND","ND","0.7","178","25","66.4","0","0"],
    [32117,"2014-01-04T00:00:00","43","ND","ND","ND","ND","ND","0.4","136.5","24.1","70.7","0","0"],
    [32118,"2014-01-04T01:00:00","37","ND","ND","ND","ND","ND","0.4","183.7","23.7","72.9","0","0"],
    [32119,"2014-01-04T02:00:00","40","ND","ND","ND","ND","ND","0.3","279.4","23.1","75.9","0","0"],
    [32120,"2014-01-04T03:00:00","24","ND","ND","ND","ND","ND","0.5","8.8","22.6","78.7","0","0"],
    [32121,"2014-01-04T04:00:00","37","ND","ND","ND","ND","ND","0.2","226.6","22.9","77.8","0","0"],
    [32122,"2014-01-04T05:00:00","37","ND","ND","ND","ND","ND","1","326.6","21.8","87.1","0","14.22"],
    [32123,"2014-01-04T06:00:00","14","ND","ND","ND","ND","ND","0.4","256.3","21.5","91.6","0","0"],
    [32124,"2014-01-04T07:00:00","21","ND","ND","ND","ND","ND","0.3","292.1","21.4","91.8","6.2","0.25"],
    [32125,"2014-01-04T08:00:00","35","ND","ND","ND","ND","ND","0.3","120.2","23.2","85.7","162.7","0"],
    [32126,"2014-01-04T09:00:00","61","ND","ND","ND","ND","ND","0.6","59.8","25.1","74.7","366.3","0"],
    [32127,"2014-01-04T10:00:00","36","ND","ND","ND","ND","ND","0.9","39.6","26.5","66.6","541.8","0"],
    [32128,"2014-01-04T11:00:00","22","ND","ND","ND","ND","ND","0.8","54.3","27.6","61.3","744.2","0"],
    [32129,"2014-01-04T12:00:00","25","ND","ND","ND","ND","ND","1.2","61.1","28.6","56.9","707","0"],
    [32130,"2014-01-04T13:00:00","28","ND","ND","ND","ND","ND","0.7","6.4","29.3","55.7","675.2","0"],
    [32131,"2014-01-04T14:00:00","26","ND","ND","ND","ND","ND","0.8","296.2","30.3","52.2","608","0"],
    [32132,"2014-01-04T15:00:00","24","ND","ND","ND","ND","ND","1.3","12.6","30.8","49.5","491.9","0"],
    [32133,"2014-01-04T16:00:00","20","ND","ND","ND","ND","ND","2.3","253.6","30.7","49.2","260.6","0"],
    [32134,"2014-01-04T17:00:00","12","ND","ND","ND","ND","ND","2.5","279.6","30.5","48.7","250.8","0"],
    [32135,"2014-01-04T18:00:00","16","ND","ND","ND","ND","ND","1","247.2","29.4","50.4","39.7","0"],
    [32136,"2014-01-04T19:00:00","12","ND","ND","ND","ND","ND","0.7","236.2","28","54.5","0","0"],
    [32137,"2014-01-04T20:00:00","28","ND","ND","ND","ND","ND","0.7","122","27.6","56.2","0","0"],
    [32138,"2014-01-04T21:00:00","34","ND","ND","ND","ND","ND","0.1","235","26.8","60.7","0","0"],
    [32139,"2014-01-04T22:00:00","34","ND","ND","ND","ND","ND","0.7","141.2","26.1","63.5","0","0"],
    [32140,"2014-01-04T23:00:00","33","ND","ND","ND","ND","ND","0.6","121.5","25.1","69.2","0","0"],
    [32141,"2014-01-05T00:00:00","24","ND","ND","ND","ND","ND","0.2","99.1","24.3","72.8","0","0"],
    [32142,"2014-01-05T01:00:00","27","ND","ND","ND","ND","ND","0.3","232.8","24.1","74.8","0","0"],
    [32143,"2014-01-05T02:00:00","27","ND","ND","ND","ND","ND","0.2","269.9","24.2","73.9","0","0"],
    [32144,"2014-01-05T03:00:00","25","ND","ND","ND","ND","ND","0.7","30.1","23.2","79.2","0","0"],
    [32145,"2014-01-05T04:00:00","45","ND","ND","ND","ND","ND","0.2","311.9","23.1","79.7","0","0"],
    [32146,"2014-01-05T05:00:00","28","ND","ND","ND","ND","ND","0.4","51.6","23.2","79.3","0","0"],
    [32147,"2014-01-05T06:00:00","26","ND","ND","ND","ND","ND","0.4","17.4","22.6","82.2","0","0"],
    [32148,"2014-01-05T07:00:00","34","ND","ND","ND","ND","ND","0.2","263.5","22.7","82.8","10.1","0"],
    [32149,"2014-01-05T08:00:00","34","ND","ND","ND","ND","ND","0.3","224.6","23.9","77.1","135.7","0"],
    [32150,"2014-01-05T09:00:00","47","ND","ND","ND","ND","ND","0.7","140.8","24.8","73.2","166.9","0"],
    [32151,"2014-01-05T10:00:00","50","ND","ND","ND","ND","ND","0.5","167.6","26.5","66.7","507","0"],
    [32152,"2014-01-05T11:00:00","38","ND","ND","ND","ND","ND","1.1","116","27.7","61.4","470.3","0"],
    [32153,"2014-01-05T12:00:00","51","ND","ND","ND","ND","ND","0.6","66.4","27.9","60.4","301.2","0"],
    [32154,"2014-01-05T13:00:00","41","ND","ND","ND","ND","ND","0.4","340.7","29.3","54.5","653.7","0"],
    [32155,"2014-01-05T14:00:00","20","ND","ND","ND","ND","ND","0.4","11.8","30","51.8","386.9","0"],
    [32156,"2014-01-05T15:00:00","24","ND","ND","ND","ND","ND","0.8","334.2","29.7","52.2","259.2","0"],
    [32157,"2014-01-05T16:00:00","16","ND","ND","ND","ND","ND","2.7","257.7","30.1","49.4","350.4","0"],
    [32158,"2014-01-05T17:00:00","10","ND","ND","ND","ND","ND","1.7","260.1","28.5","52.6","41.6","0"],
    [32159,"2014-01-05T18:00:00","15","ND","ND","ND","ND","ND","0.5","263.2","27.9","54","14.9","0"],
    [32160,"2014-01-05T19:00:00","15","ND","ND","ND","ND","ND","1.2","131.7","27.7","55.1","0","0"],
    [32161,"2014-01-05T20:00:00","20","ND","ND","ND","ND","ND","1","104.2","26.2","65.6","0","0"],
    [32162,"2014-01-05T21:00:00","29","ND","ND","ND","ND","ND","0.9","158.8","26","66","0","0"],
    [32163,"2014-01-05T22:00:00","26","ND","ND","ND","ND","ND","0.3","178.1","25.5","68.3","0","0"],
    [32164,"2014-01-05T23:00:00","20","ND","ND","ND","ND","ND","0.4","208","24.8","73.2","0","0"],
    [32165,"2014-01-06T00:00:00","38","ND","ND","ND","ND","ND","0.6","120.1","23.9","80.9","0","1.52"],
    [32166,"2014-01-06T01:00:00","8","ND","ND","ND","ND","ND","0.9","197","22.5","89.7","0","4.06"],
    [32167,"2014-01-06T02:00:00","5","ND","ND","ND","ND","ND","0.4","125.3","22.4","91.9","0","0.76"],
    [32168,"2014-01-06T03:00:00","17","ND","ND","ND","ND","ND","0.2","14.7","21.9","94.6","0","4.06"],
    [32169,"2014-01-06T04:00:00","12","ND","ND","ND","ND","ND","1","172.4","21.9","96.2","0","0.76"],
    [32170,"2014-01-06T05:00:00","12","ND","ND","ND","ND","ND","1.2","174.7","21.8","94.9","0","1.27"],
    [32171,"2014-01-06T06:00:00","10","ND","ND","ND","ND","ND","1","148","21.8","93.9","0","1.27"],
    [32172,"2014-01-06T07:00:00","7","ND","ND","ND","ND","ND","0.7","143","21.6","94","6.6","0.25"],
    [32173,"2014-01-06T08:00:00","18","ND","ND","ND","ND","ND","0.5","75.7","21.4","92.9","21.2","0.25"],
    [32174,"2014-01-06T09:00:00","15","ND","ND","ND","ND","ND","0.8","47.8","21.1","95.3","71.3","0"],
    [32175,"2014-01-06T10:00:00","15","ND","ND","ND","ND","ND","2.1","156","21.7","90.7","164.2","0"],
    [32176,"2014-01-06T11:00:00","12","ND","ND","ND","ND","ND","0.9","72.2","22.6","84.9","281.1","0.25"],
    [32177,"2014-01-06T12:00:00","29","ND","ND","ND","ND","ND","1.2","301","23.9","78.8","514","0"],
    [32178,"2014-01-06T13:00:00","31","ND","ND","ND","ND","ND","0.6","90.3","26.2","67","644.9","0"],
    [32179,"2014-01-06T14:00:00","22","ND","ND","ND","ND","ND","0.6","72.5","27.5","61.4","758.1","0"],
    [32180,"2014-01-06T15:00:00","20","ND","ND","ND","ND","ND","1","2","27.9","60.6","325.5","0"],
    [32181,"2014-01-06T16:00:00","7","ND","ND","ND","ND","ND","2.5","236","23.7","79.3","30.5","55.88"],
    [32182,"2014-01-06T17:00:00","9","ND","ND","ND","ND","ND","0.6","213.3","20.1","99.8","27.6","40.64"],
    [32183,"2014-01-06T18:00:00","11","ND","ND","ND","ND","ND","0.7","293.4","20.9","100","13.8","2.54"],
    [32184,"2014-01-06T19:00:00","18","ND","ND","ND","ND","ND","1.5","24.1","21.1","97.8","0","0.51"],
    [32185,"2014-01-06T20:00:00","13","ND","ND","ND","ND","ND","1.3","348.4","20.9","95.8","0","1.78"],
    [32186,"2014-01-06T21:00:00","13","ND","ND","ND","ND","ND","1.3","353.8","20.3","96.7","0","20.57"],
    [32187,"2014-01-06T22:00:00","6","ND","ND","ND","ND","ND","0.7","211.5","19.5","98.2","0","16.76"],
    [32188,"2014-01-06T23:00:00","5","ND","ND","ND","ND","ND","0.5","62.4","19.5","98.7","0","11.68"],
    [32189,"2014-01-07T00:00:00","12","ND","ND","ND","ND","ND","0.6","59.9","19.3","99.8","0","10.41"],
    [32190,"2014-01-07T01:00:00","11","ND","ND","ND","ND","ND","0.7","175.4","19.2","99.9","0","4.83"],
    [32191,"2014-01-07T02:00:00","7","ND","ND","ND","ND","ND","1.3","163.1","19.3","100","0","6.1"],
    [32192,"2014-01-07T03:00:00","6","ND","ND","ND","ND","ND","1.5","153","19.2","99.9","0","2.79"],
    [32193,"2014-01-07T04:00:00","4","ND","ND","ND","ND","ND","1","153.1","19.1","99.3","0","1.27"],
    [32194,"2014-01-07T05:00:00","7","ND","ND","ND","ND","ND","0.1","114.4","19.1","98.9","0","0.25"],
    [32195,"2014-01-07T06:00:00","14","ND","ND","ND","ND","ND","0.4","47.6","19.1","99","0","0.25"],
    [32196,"2014-01-07T07:00:00","24","ND","ND","ND","ND","ND","0.1","342.1","19.1","98.9","18.3","0"],
    [32197,"2014-01-07T08:00:00","30","ND","ND","ND","ND","ND","0.1","351.8","19.9","96.8","87.7","0"],
    [32198,"2014-01-07T09:00:00","35","ND","ND","ND","ND","ND","1","29.8","20.5","91","176.9","0"],
    [32199,"2014-01-07T10:00:00","48","ND","ND","ND","ND","ND","0.9","44","21.3","86.8","176","0"],
    [32200,"2014-01-07T11:00:00","39","ND","ND","ND","ND","ND","1.3","43.1","21.8","83.9","204.6","0"],
    [32201,"2014-01-07T12:00:00","27","ND","ND","ND","ND","ND","1.3","52","22.5","79.9","342.5","0"],
    [32202,"2014-01-07T13:00:00","19","ND","ND","ND","ND","ND","1.1","35","23.6","74.1","525.2","0"],
    [32203,"2014-01-07T14:00:00","27","ND","ND","ND","ND","ND","0.4","342.6","25.4","66.3","636","0"],
    [32204,"2014-01-07T15:00:00","27","ND","ND","ND","ND","ND","0.9","238.2","26.2","62.9","401.4","0"],
    [32205,"2014-01-07T16:00:00","22","ND","ND","ND","ND","ND","1","255.4","26.6","59.4","289.2","0"],
    [32206,"2014-01-07T17:00:00","19","ND","ND","ND","ND","ND","0.4","43.9","26.7","57.4","285.4","0"],
    [32207,"2014-01-07T18:00:00","22","ND","ND","ND","ND","ND","0.7","288.6","26","58.5","49.9","0"],
    [32208,"2014-01-07T19:00:00","32","ND","ND","ND","ND","ND","0.5","256.2","24.8","64.1","0","0"],
    [32209,"2014-01-07T20:00:00","34","ND","ND","ND","ND","ND","0.9","207.4","24.4","62.4","0","0"],
    [32210,"2014-01-07T21:00:00","30","ND","ND","ND","ND","ND","0.3","286.8","23.5","68.3","0","0"],
    [32211,"2014-01-07T22:00:00","54","ND","ND","ND","ND","ND","0.2","5.6","23","73.2","0","0"],
    [32212,"2014-01-07T23:00:00","32","ND","ND","ND","ND","ND","0.2","56.1","22.4","79.5","0","0"],
    [32213,"2014-01-08T00:00:00","34","ND","ND","ND","ND","ND","0.1","252.6","22.2","80.5","0","0"],
    [32214,"2014-01-08T01:00:00","30","ND","ND","ND","ND","ND","0","312.2","22","82.2","0","0"],
    [32215,"2014-01-08T02:00:00","30","ND","ND","ND","ND","ND","0.1","5.5","21.8","80","0","0"],
    [32216,"2014-01-08T03:00:00","24","ND","ND","ND","ND","ND","0","80","21.3","86.1","0","0.76"],
    [32217,"2014-01-08T04:00:00","23","ND","ND","ND","ND","ND","0.7","198.8","20.6","92.2","0","2.29"],
    [32218,"2014-01-08T05:00:00","12","ND","ND","ND","ND","ND","0.8","197.9","20.1","95","0","3.3"],
    [32219,"2014-01-08T06:00:00","11","ND","ND","ND","ND","ND","0.6","167.2","20.1","95.1","0","0.51"],
    [32220,"2014-01-08T07:00:00","10","ND","ND","ND","ND","ND","0.2","187.2","20.1","94.2","9.4","0.25"],
    [32221,"2014-01-08T08:00:00","22","ND","ND","ND","ND","ND","0","179.6","20.5","92.3","52.5","0"],
    [32222,"2014-01-08T09:00:00","38","ND","ND","ND","ND","ND","0.4","78.8","22.3","84.8","316.9","0"],
    [32223,"2014-01-08T10:00:00","41","ND","ND","ND","ND","ND","1.1","83.4","23.9","76","484.3","0"],
    [32224,"2014-01-08T11:00:00","27","ND","ND","ND","ND","ND","1.2","66.3","25.1","68.9","597.8","0"],
    [32225,"2014-01-08T12:00:00","19","ND","ND","ND","ND","ND","1","109.1","26.4","63","520.9","0"],
    [32226,"2014-01-08T13:00:00","22","ND","ND","ND","ND","ND","0.6","76.1","26.6","62.3","546.1","0"],
    [32227,"2014-01-08T14:00:00","48","ND","ND","ND","ND","ND","0.5","58.3","26.9","61","277.6","0"],
    [32228,"2014-01-08T15:00:00","33","ND","ND","ND","ND","ND","0.6","68.4","27.6","57.5","242.1","0"],
    [32229,"2014-01-08T16:00:00","20","ND","ND","ND","ND","ND","0.1","117.9","28.3","53.4","384.1","0"],
    [32230,"2014-01-08T17:00:00","22","ND","ND","ND","ND","ND","1.2","338.3","28.2","53","264.3","0"],
    [32231,"2014-01-08T18:00:00","18","ND","ND","ND","ND","ND","1.1","250.8","27","56.5","62","0"],
    [32232,"2014-01-08T19:00:00","25","ND","ND","ND","ND","ND","0.3","109.2","26.1","59","0","0"],
    [32233,"2014-01-08T20:00:00","57","ND","ND","ND","ND","ND","0.8","53.3","25","64.3","0","0"],
    [32234,"2014-01-08T21:00:00","38","ND","ND","ND","ND","ND","0.6","129.5","24.7","66.2","0","0"],
    [32235,"2014-01-08T22:00:00","49","ND","ND","ND","ND","ND","0.3","358.8","23.9","70.9","0","0"],
    [32236,"2014-01-08T23:00:00","45","ND","ND","ND","ND","ND","0.8","351.3","23.2","78.6","0","0"],
    [32237,"2014-01-09T00:00:00","56","ND","ND","ND","ND","ND","0.3","26.7","22.7","83.1","0","0"],
    [32238,"2014-01-09T01:00:00","34","ND","ND","ND","ND","ND","0.3","252.3","22.6","81.7","0","0"],
    [32239,"2014-01-09T02:00:00","39","ND","ND","ND","ND","ND","0.2","220.2","22.6","81.4","0","0"],
    [32240,"2014-01-09T03:00:00","36","ND","ND","ND","ND","ND","0.1","238.8","22.4","82.2","0","0"],
    [32241,"2014-01-09T04:00:00","37","ND","ND","ND","ND","ND","0.6","122.9","22.1","85.4","0","0"],
    [32242,"2014-01-09T05:00:00","24","ND","ND","ND","ND","ND","0.5","195.6","22","83.6","0","0"],
    [32243,"2014-01-09T06:00:00","22","ND","ND","ND","ND","ND","0.4","175.3","22","83.7","0","0"],
    [32244,"2014-01-09T07:00:00","38","ND","ND","ND","ND","ND","0.2","4.3","22.1","83.5","0","0"],
    [32245,"2014-01-09T08:00:00","83","ND","ND","ND","ND","ND","0.6","51.9","21.8","85.4","27","0"],
    [32246,"2014-01-09T09:00:00","39","ND","ND","ND","ND","ND","0.8","79.5","21.9","85","50.8","0"],
    [32247,"2014-01-09T10:00:00","48","ND","ND","ND","ND","ND","0.3","65.4","22.4","83.6","121.9","0"],
    [32248,"2014-01-09T11:00:00","54","ND","ND","ND","ND","ND","1.1","50.7","23.2","80.4","278.4","0"],
    [32249,"2014-01-09T12:00:00","47","ND","ND","ND","ND","ND","1","137","25.1","69.6","485.1","0"],
    [32250,"2014-01-09T13:00:00","33","ND","ND","ND","ND","ND","1.2","110.4","26.5","61.4","707.9","0"],
    [32251,"2014-01-09T14:00:00","26","ND","ND","ND","ND","ND","1.4","287.9","26.1","62.1","191.7","0"],
    [32252,"2014-01-09T15:00:00","19","ND","ND","ND","ND","ND","1.1","276.3","27.8","56.4","568.2","0"],
    [32253,"2014-01-09T16:00:00","31","ND","ND","ND","ND","ND","2.1","2.1","25.7","67.8","187.8","0"],
    [32254,"2014-01-09T17:00:00","46","ND","ND","ND","ND","ND","1.2","46.4","25.9","67","103.8","0"],
    [32255,"2014-01-09T18:00:00","44","ND","ND","ND","ND","ND","0.9","51.6","25.5","68","31","0"],
    [32256,"2014-01-09T19:00:00","29","ND","ND","ND","ND","ND","0.8","106","25","70.1","0","0"],
    [32257,"2014-01-09T20:00:00","42","ND","ND","ND","ND","ND","0.7","134.6","24.8","69.7","0","0"],
    [32258,"2014-01-09T21:00:00","42","ND","ND","ND","ND","ND","1.2","112.8","24.8","70.1","0","0"],
    [32259,"2014-01-09T22:00:00","18","ND","ND","ND","ND","ND","1","177.4","24","70.4","0","0"],
    [32260,"2014-01-09T23:00:00","12","ND","ND","ND","ND","ND","1.4","197.9","23.8","68.6","0","0"],
    [32261,"2014-01-10T00:00:00","22","ND","ND","ND","ND","ND","1.3","150.6","23.3","76.4","0","0"],
    [32262,"2014-01-10T01:00:00","30","ND","ND","ND","ND","ND","0.3","55.5","22.5","84.6","0","0"],
    [32263,"2014-01-10T02:00:00","22","ND","ND","ND","ND","ND","1.2","152.6","22.1","85.2","0","0"],
    [32264,"2014-01-10T03:00:00","6","ND","ND","ND","ND","ND","1.3","169.8","21.9","85","0","0"],
    [32265,"2014-01-10T04:00:00","9","ND","ND","ND","ND","ND","1.8","177.3","21.1","88.4","0","0.51"],
    [32266,"2014-01-10T05:00:00","6","ND","ND","ND","ND","ND","0.7","156.9","20.4","91.9","0","0.25"],
    [32267,"2014-01-10T06:00:00","5","ND","ND","ND","ND","ND","0.3","134.7","20.4","93.9","0","0.76"],
    [32268,"2014-01-10T07:00:00","11","ND","ND","ND","ND","ND","0.6","126.8","20.6","93.4","0","0"],
    [32269,"2014-01-10T08:00:00","10","ND","ND","ND","ND","ND","0.6","183.5","20","97.7","7.6","46.99"],
    [32270,"2014-01-10T09:00:00","7","ND","ND","ND","ND","ND","1.2","237","19.6","100","57.4","13.97"],
    [32271,"2014-01-10T10:00:00","5","ND","ND","ND","ND","ND","0.5","136.7","20.4","99.6","226.5","1.27"],
    [32272,"2014-01-10T11:00:00","23","ND","ND","ND","ND","ND","0.5","58.1","22.4","88.1","297.3","0"],
    [32273,"2014-01-10T12:00:00","27","ND","ND","ND","ND","ND","0.5","48.4","23.3","81.8","293.5","0"],
    [32274,"2014-01-10T13:00:00","23","ND","ND","ND","ND","ND","0.8","43.5","24.3","75.1","334.6","0"],
    [32275,"2014-01-10T14:00:00","19","ND","ND","ND","ND","ND","1.2","61.7","25.3","70.2","550.4","0"],
    [32276,"2014-01-10T15:00:00","40","ND","ND","ND","ND","ND","1.1","339.9","25.7","68.9","341.5","0"],
    [32277,"2014-01-10T16:00:00","31","ND","ND","ND","ND","ND","1.2","9.8","26.3","65.2","431.3","0"],
    [32278,"2014-01-10T17:00:00","32","ND","ND","ND","ND","ND","1.2","18.3","26.6","64.3","277.3","0"],
    [32279,"2014-01-10T18:00:00","41","ND","ND","ND","ND","ND","0.3","29.7","25.8","67.3","31","0"],
    [32280,"2014-01-10T19:00:00","37","ND","ND","ND","ND","ND","1.1","257.1","24.7","69.1","0","0"],
    [32281,"2014-01-10T20:00:00","18","ND","ND","ND","ND","ND","0.5","248.8","24.4","68.5","0","0"],
    [32282,"2014-01-10T21:00:00","30","ND","ND","ND","ND","ND","0.3","242.3","24.3","69.5","0","0"],
    [32283,"2014-01-10T22:00:00","37","ND","ND","ND","ND","ND","0","19.4","24.1","72.1","0","0"],
    [32284,"2014-01-10T23:00:00","47","ND","ND","ND","ND","ND","0.3","72.6","23.6","79.4","0","0"],
    [32285,"2014-01-11T00:00:00","51","ND","ND","ND","ND","ND","0.2","45.4","23.1","80","0","0"],
    [32286,"2014-01-11T01:00:00","53","ND","ND","ND","ND","ND","0.1","263.8","22.6","83.8","0","0"],
    [32287,"2014-01-11T02:00:00","51","ND","ND","ND","ND","ND","0.2","247.2","22.4","85.6","0","0"],
    [32288,"2014-01-11T03:00:00","27","ND","ND","ND","ND","ND","0.1","204.4","22.3","86.1","0","0"],
    [32289,"2014-01-11T04:00:00","15","ND","ND","ND","ND","ND","1.2","156.9","21.8","88.1","0","0"],
    [32290,"2014-01-11T05:00:00","12","ND","ND","ND","ND","ND","1.3","179.9","21.3","91.9","0","0"],
    [32291,"2014-01-11T06:00:00","21","ND","ND","ND","ND","ND","1.4","172.1","21.6","91.1","0","0"],
    [32292,"2014-01-11T07:00:00","14","ND","ND","ND","ND","ND","1.1","183.3","20.8","95","0","7.37"],
    [32293,"2014-01-11T08:00:00","21","ND","ND","ND","ND","ND","0.2","275.7","21","97.2","55.1","0.25"],
    [32294,"2014-01-11T09:00:00","21","ND","ND","ND","ND","ND","0.2","280.2","22","92.3","146.1","0"],
    [32295,"2014-01-11T10:00:00","38","ND","ND","ND","ND","ND","0.6","50.1","23","86.4","156.7","0"],
    [32296,"2014-01-11T11:00:00","28","ND","ND","ND","ND","ND","1","126.5","24","77.3","218.9","0"],
    [32297,"2014-01-11T12:00:00","36","ND","ND","ND","ND","ND","0.7","164.8","24.4","75.2","228.5","0"],
    [32298,"2014-01-11T13:00:00","41","ND","ND","ND","ND","ND","1.4","150.9","25.3","68.7","535.2","0"],
    [32299,"2014-01-11T14:00:00","32","ND","ND","ND","ND","ND","1.4","144.5","27.2","58.9","903.3","0"],
    [32300,"2014-01-11T15:00:00","23","ND","ND","ND","ND","ND","0.7","186.8","28.3","52.7","525.2","0"],
    [32301,"2014-01-11T16:00:00","30","ND","ND","ND","ND","ND","1.5","254.8","28","54.7","194.2","0"],
    [32302,"2014-01-11T17:00:00","30","ND","ND","ND","ND","ND","0.2","317","27.7","57.5","100.6","0"],
    [32303,"2014-01-11T18:00:00","45","ND","ND","ND","ND","ND","0.7","32","27.2","60.5","70.3","0"],
    [32304,"2014-01-11T19:00:00","49","ND","ND","ND","ND","ND","0.5","281.5","26","68.3","0","0"],
    [32305,"2014-01-11T20:00:00","49","ND","ND","ND","ND","ND","0.4","254.1","25.3","70.6","0","0"],
    [32306,"2014-01-11T21:00:00","55","ND","ND","ND","ND","ND","0.2","227","24.6","74.1","0","0"],
    [32307,"2014-01-11T22:00:00","76","ND","ND","ND","ND","ND","0.5","194.9","23.8","78.3","0","0"],
    [32308,"2014-01-11T23:00:00","66","ND","ND","ND","ND","ND","0.4","28.9","23.3","82.4","0","0"],
    [32309,"2014-01-12T00:00:00","59","ND","ND","ND","ND","ND","0.2","289.2","22.7","85","0","0"],
    [32310,"2014-01-12T01:00:00","59","ND","ND","ND","ND","ND","0.7","284","22.3","84.8","0","0"],
    [32311,"2014-01-12T02:00:00","49","ND","ND","ND","ND","ND","0","257.2","22","85","0","0"],
    [32312,"2014-01-12T03:00:00","42","ND","ND","ND","ND","ND","0.1","336.2","21.6","87.6","0","0"],
    [32313,"2014-01-12T04:00:00","49","ND","ND","ND","ND","ND","0.2","188.5","21.3","88.9","0","0"],
    [32314,"2014-01-12T05:00:00","59","ND","ND","ND","ND","ND","0.3","327.9","21.3","88.2","0","0"],
    [32315,"2014-01-12T06:00:00","36","ND","ND","ND","ND","ND","0.3","204.6","21.6","85.3","0","0"],
    [32316,"2014-01-12T07:00:00","47","ND","ND","ND","ND","ND","0.2","311.8","21.7","84.6","9.2","0"],
    [32317,"2014-01-12T08:00:00","59","ND","ND","ND","ND","ND","0.4","47","21.9","85.1","43.8","0"],
    [32318,"2014-01-12T09:00:00","66","ND","ND","ND","ND","ND","0.8","38.3","22.7","83","186.9","0"],
    [32319,"2014-01-12T10:00:00","56","ND","ND","ND","ND","ND","0.9","44.7","23.5","79.6","211.2","0"],
    [32320,"2014-01-12T11:00:00","46","ND","ND","ND","ND","ND","0.9","77.9","24.6","75","422.2","0"],
    [32321,"2014-01-12T12:00:00","47","ND","ND","ND","ND","ND","0.8","62.1","26.2","68","579.4","0"],
    [32322,"2014-01-12T13:00:00","48","ND","ND","ND","ND","ND","0.7","112.4","27","64.3","533.9","0"],
    [32323,"2014-01-12T14:00:00","44","ND","ND","ND","ND","ND","0.6","55.1","27.7","62.2","501.7","0"],
    [32324,"2014-01-12T15:00:00","48","ND","ND","ND","ND","ND","0.7","59","28.4","59.6","429.6","0"],
    [32325,"2014-01-12T16:00:00","39","ND","ND","ND","ND","ND","1.4","43.4","27.8","62.5","156.3","0"],
    [32326,"2014-01-12T17:00:00","32","ND","ND","ND","ND","ND","1","253.5","28.3","60.5","231.7","0"],
    [32327,"2014-01-12T18:00:00","35","ND","ND","ND","ND","ND","1","254.9","27.7","62","31.7","0"],
    [32328,"2014-01-12T19:00:00","21","ND","ND","ND","ND","ND","0.4","33.9","26.8","64.4","0","0"],
    [32329,"2014-01-12T20:00:00","35","ND","ND","ND","ND","ND","1.5","135","26.3","65.8","0","0"],
    [32330,"2014-01-12T21:00:00","38","ND","ND","ND","ND","ND","0.2","190.9","24.9","72.2","0","0"],
    [32331,"2014-01-12T22:00:00","38","ND","ND","ND","ND","ND","0.3","271.8","23.7","78.1","0","0"],
    [32332,"2014-01-12T23:00:00","46","ND","ND","ND","ND","ND","0.2","145.8","23.5","78.6","0","0"],
    [32333,"2014-01-13T00:00:00","37","ND","ND","ND","ND","ND","0.2","26.2","22.8","82.5","0","0"],
    [32334,"2014-01-13T01:00:00","35","ND","ND","ND","ND","ND","0.2","116.4","22.6","85.6","0","0"],
    [32335,"2014-01-13T02:00:00","37","ND","ND","ND","ND","ND","0.8","148.8","22.5","83.8","0","0"],
    [32336,"2014-01-13T03:00:00","26","ND","ND","ND","ND","ND","0.6","127.2","22.3","82","0","0"],
    [32337,"2014-01-13T04:00:00","35","ND","ND","ND","ND","ND","0.9","176.8","21.7","89.8","0","4.57"],
    [32338,"2014-01-13T05:00:00","21","ND","ND","ND","ND","ND","0.5","218.8","21.4","91.6","0","0"],
    [32339,"2014-01-13T06:00:00","25","ND","ND","ND","ND","ND","0.1","338.7","21.4","91.9","0","0"],
    [32340,"2014-01-13T07:00:00","51","ND","ND","ND","ND","ND","0.7","24.5","21","92.9","0","0.25"],
    [32341,"2014-01-13T08:00:00","68","ND","ND","ND","ND","ND","0.6","10.6","20.8","94.7","48.7","0"],
    [32342,"2014-01-13T09:00:00","79","ND","ND","ND","ND","ND","0.7","46","22","89.7","160.1","0"],
    [32343,"2014-01-13T10:00:00","56","ND","ND","ND","ND","ND","0.8","52.6","23.7","80.4","388.3","0"],
    [32344,"2014-01-13T11:00:00","41","ND","ND","ND","ND","ND","0.8","84.4","26.2","65.3","675.7","0"],
    [32345,"2014-01-13T12:00:00","46","ND","ND","ND","ND","ND","1.2","74.4","27.5","60.5","705.1","0"],
    [32346,"2014-01-13T13:00:00","45","ND","ND","ND","ND","ND","0.9","53","28.5","56.5","680.9","0"],
    [32347,"2014-01-13T14:00:00","40","ND","ND","ND","ND","ND","0.8","25.9","29.1","54","539.9","0"],
    [32348,"2014-01-13T15:00:00","35","ND","ND","ND","ND","ND","0.9","308.6","29.8","50","421.4","0"],
    [32349,"2014-01-13T16:00:00","11","ND","ND","ND","ND","ND","3.1","259.1","30.3","47.2","478.9","0"],
    [32350,"2014-01-13T17:00:00","17","ND","ND","ND","ND","ND","2.4","265.7","29.9","47.9","273.8","0"],
    [32351,"2014-01-13T18:00:00","27","ND","ND","ND","ND","ND","0.3","282.6","29.2","49.3","76.4","0"],
    [32352,"2014-01-13T19:00:00","30","ND","ND","ND","ND","ND","0.3","41.6","27.5","53.5","0","0"],
    [32353,"2014-01-13T20:00:00","62","ND","ND","ND","ND","ND","0.6","73.2","26.9","56.2","0","0"],
    [32354,"2014-01-13T21:00:00","83","ND","ND","ND","ND","ND","0.9","139","26.4","59.9","0","0"],
    [32355,"2014-01-13T22:00:00","45","ND","ND","ND","ND","ND","0.6","149.3","24.9","69.1","0","0"],
    [32356,"2014-01-13T23:00:00","45","ND","ND","ND","ND","ND","0.4","276.1","24","72.1","0","0"],
    [32357,"2014-01-14T00:00:00","17","ND","ND","ND","ND","ND","0.6","255.3","23.9","71.1","0","0"],
    [32358,"2014-01-14T01:00:00","63","ND","ND","ND","ND","ND","0.4","36.5","23.3","77.5","0","0"],
    [32359,"2014-01-14T02:00:00","44","ND","ND","ND","ND","ND","0.4","354.3","22.9","79.6","0","0"],
    [32360,"2014-01-14T03:00:00","41","ND","ND","ND","ND","ND","0.5","27.6","22.2","83.5","0","0"],
    [32361,"2014-01-14T04:00:00","40","ND","ND","ND","ND","ND","0.2","267.8","21.8","84.9","0","0"],
    [32362,"2014-01-14T05:00:00","36","ND","ND","ND","ND","ND","0.4","260.3","21.7","85.5","0","0"],
    [32363,"2014-01-14T06:00:00","48","ND","ND","ND","ND","ND","0.2","246.2","22.1","84.2","0","0"],
    [32364,"2014-01-14T07:00:00","56","ND","ND","ND","ND","ND","0","140.1","22.4","82.3","11.7","0"],
    [32365,"2014-01-14T08:00:00","100","ND","ND","ND","ND","ND","0.6","47","22.8","80.2","99.2","0"],
    [32366,"2014-01-14T09:00:00","83","ND","ND","ND","ND","ND","0.8","78.7","24.3","74.2","305.1","0"],
    [32367,"2014-01-14T10:00:00","100","ND","ND","ND","ND","ND","0.5","54.1","25.5","70.7","481.9","0"],
    [32368,"2014-01-14T11:00:00","65","ND","ND","ND","ND","ND","1.2","85.7","27.2","62.9","641.7","0"],
    [32369,"2014-01-14T12:00:00","45","ND","ND","ND","ND","ND","1","74.2","28.1","58.8","723.5","0"],
    [32370,"2014-01-14T13:00:00","54","ND","ND","ND","ND","ND","0.4","337.2","29.5","53.5","590.3","0"],
    [32371,"2014-01-14T14:00:00","54","ND","ND","ND","ND","ND","0.7","347.7","29.8","52","572.3","0"],
    [32372,"2014-01-14T15:00:00","27","ND","ND","ND","ND","ND","2.3","257.7","30.8","47.5","604.6","0"],
    [32373,"2014-01-14T16:00:00","16","ND","ND","ND","ND","ND","3.4","259.1","30.5","47.1","443.7","0"],
    [32374,"2014-01-14T17:00:00","31","ND","ND","ND","ND","ND","2.1","283.3","30.4","47.2","283.4","0"],
    [32375,"2014-01-14T18:00:00","27","ND","ND","ND","ND","ND","2.3","261.7","29.5","49.7","145.7","0"],
    [32376,"2014-01-14T19:00:00","35","ND","ND","ND","ND","ND","0.4","251.3","28.5","51.9","5.5","0"],
    [32377,"2014-01-14T20:00:00","26","ND","ND","ND","ND","ND","0.9","107","28.4","51.7","0","0"],
    [32378,"2014-01-14T21:00:00","44","ND","ND","ND","ND","ND","0.4","134","27.6","55.4","0","0"],
    [32379,"2014-01-14T22:00:00","50","ND","ND","ND","ND","ND","0.7","81.9","26.8","60.4","0","0"],
    [32380,"2014-01-14T23:00:00","62","ND","ND","ND","ND","ND","0.6","101","25.9","64.9","0","0"],
    [32381,"2014-01-15T00:00:00","77","ND","ND","ND","ND","ND","0.8","209.3","25","69.9","0","0"],
    [32382,"2014-01-15T01:00:00","31","ND","ND","ND","ND","ND","0.6","184.3","24.5","71.8","0","0"],
    [32383,"2014-01-15T02:00:00","32","ND","ND","ND","ND","ND","0.7","165.5","23.5","77.5","0","0"],
    [32384,"2014-01-15T03:00:00","25","ND","ND","ND","ND","ND","1","196.7","23.5","76.9","0","0"],
    [32385,"2014-01-15T04:00:00","26","ND","ND","ND","ND","ND","0.2","244","23.1","80.4","0","0"],
    [32386,"2014-01-15T05:00:00","42","ND","ND","ND","ND","ND","0.3","321.3","22.4","84.1","0","0"],
    [32387,"2014-01-15T06:00:00","40","ND","ND","ND","ND","ND","0.3","279","22.5","83.6","0","0"],
    [32388,"2014-01-15T07:00:00","84","ND","ND","ND","ND","ND","0.2","74.8","22.4","84.5","20.3","0"],
    [32389,"2014-01-15T08:00:00","76","ND","ND","ND","ND","ND","0.5","275.4","23.7","78.6","136","0"],
    [32390,"2014-01-15T09:00:00","61","ND","ND","ND","ND","ND","0.9","137.4","25.7","69.3","338.9","0"],
    [32391,"2014-01-15T10:00:00","61","ND","ND","ND","ND","ND","1.6","147.5","26.5","64.6","523.9","0"],
    [32392,"2014-01-15T11:00:00","47","ND","ND","ND","ND","ND","1.2","158.7","27.5","60.9","480.5","0"],
    [32393,"2014-01-15T12:00:00","71","ND","ND","ND","ND","ND","0.9","0.5","27.6","62.3","402.8","0"],
    [32394,"2014-01-15T13:00:00","75","ND","ND","ND","ND","ND","1","353","28.5","58","453.8","0"],
    [32395,"2014-01-15T14:00:00","27","ND","ND","ND","ND","ND","2.1","287.3","29.9","49.8","744.9","0"],
    [32396,"2014-01-15T15:00:00","19","ND","ND","ND","ND","ND","2.6","270.3","30.3","46.2","495","0"],
    [32397,"2014-01-15T16:00:00","36","ND","ND","ND","ND","ND","1.5","326","30.6","45.8","473.2","0"],
    [32398,"2014-01-15T17:00:00","30","ND","ND","ND","ND","ND","3.2","286.3","29.1","49.2","261.7","0"],
    [32399,"2014-01-15T18:00:00","17","ND","ND","ND","ND","ND","2.7","263.9","28.5","48.1","57.8","0"],
    [32400,"2014-01-15T19:00:00","17","ND","ND","ND","ND","ND","1.4","278","28.2","47.9","0","0"],
    [32401,"2014-01-15T20:00:00","41","ND","ND","ND","ND","ND","1.2","160.4","27","56.3","0","0"],
    [32402,"2014-01-15T21:00:00","22","ND","ND","ND","ND","ND","2","198.1","25.2","67.2","0","0"],
    [32403,"2014-01-15T22:00:00","32","ND","ND","ND","ND","ND","1.8","152.9","24.2","75.4","0","0"],
    [32404,"2014-01-15T23:00:00","28","ND","ND","ND","ND","ND","0.5","347.9","23.5","79.4","0","0"],
    [32405,"2014-01-16T00:00:00","53","ND","ND","ND","ND","ND","0.1","202.6","23.3","77.8","0","0"],
    [32406,"2014-01-16T01:00:00","49","ND","ND","ND","ND","ND","0.3","357.1","22.7","80.8","0","0"],
    [32407,"2014-01-16T02:00:00","56","ND","ND","ND","ND","ND","0.4","51","22","86.4","0","0"],
    [32408,"2014-01-16T03:00:00","47","ND","ND","ND","ND","ND","0.5","345.5","21.3","88.8","0","0"],
    [32409,"2014-01-16T04:00:00","54","ND","ND","ND","ND","ND","0.7","358.5","20.8","90.9","0","0"],
    [32410,"2014-01-16T05:00:00","44","ND","ND","ND","ND","ND","0.2","204.8","20.9","89.8","0","0"],
    [32411,"2014-01-16T06:00:00","81","ND","ND","ND","ND","ND","0.2","3.8","20.8","88.8","0","0"],
    [32412,"2014-01-16T07:00:00","93","ND","ND","ND","ND","ND","0.4","163.3","21.2","88.1","19.8","0"],
    [32413,"2014-01-16T08:00:00","142","ND","ND","ND","ND","ND","0.9","67.4","22.5","82.2","153.1","0"],
    [32414,"2014-01-16T09:00:00","101","ND","ND","ND","ND","ND","0.7","35.1","22.6","82.7","187.3","0"],
    [32415,"2014-01-16T10:00:00","113","ND","ND","ND","ND","ND","0.7","51.3","24","75.6","205.5","0"],
    [32416,"2014-01-16T11:00:00","104","ND","ND","ND","ND","ND","1","29.5","23.7","78.4","111.9","0"],
    [32417,"2014-01-16T12:00:00","75","ND","ND","ND","ND","ND","1.3","24.4","24.4","74.7","397.9","0"],
    [32418,"2014-01-16T13:00:00","61","ND","ND","ND","ND","ND","1.8","39.9","26.3","67.3","708.5","0"],
    [32419,"2014-01-16T14:00:00","31","ND","ND","ND","ND","ND","1.2","38.6","27.7","60.7","518.6","0"],
    [32420,"2014-01-16T15:00:00","43","ND","ND","ND","ND","ND","0.8","78","29.2","55.6","454.1","0"],
    [32421,"2014-01-16T16:00:00","45","ND","ND","ND","ND","ND","0.3","335.1","29.6","54.2","344.2","0"],
    [32422,"2014-01-16T17:00:00","51","ND","ND","ND","ND","ND","1.4","14.1","29.1","55.1","150.5","0"],
    [32423,"2014-01-16T18:00:00","40","ND","ND","ND","ND","ND","1.5","259.5","28.2","55.1","29.1","0"],
    [32424,"2014-01-16T19:00:00","36","ND","ND","ND","ND","ND","1","259.3","26.9","57.3","0","0"],
    [32425,"2014-01-16T20:00:00","42","ND","ND","ND","ND","ND","1.3","260.9","26.2","59.5","0","0"],
    [32426,"2014-01-16T21:00:00","46","ND","ND","ND","ND","ND","0.1","216.2","26.1","60.7","0","0"],
    [32427,"2014-01-16T22:00:00","58","ND","ND","ND","ND","ND","0.9","100.6","24.8","67.7","0","0"],
    [32428,"2014-01-16T23:00:00","59","ND","ND","ND","ND","ND","0.6","183.2","24.1","72.3","0","0"],
    [32429,"2014-01-17T00:00:00","26","ND","ND","ND","ND","ND","0.5","126.9","23.4","74.2","0","0"],
    [32430,"2014-01-17T01:00:00","36","ND","ND","ND","ND","ND","0.1","216.3","23.1","76.5","0","0"],
    [32431,"2014-01-17T02:00:00","42","ND","ND","ND","ND","ND","0.1","206.8","22.9","77.6","0","0"],
    [32432,"2014-01-17T03:00:00","47","ND","ND","ND","ND","ND","0.4","133","22.6","79.6","0","0"],
    [32433,"2014-01-17T04:00:00","45","ND","ND","ND","ND","ND","0.6","154.5","22.3","79.4","0","0"],
    [32434,"2014-01-17T05:00:00","43","ND","ND","ND","ND","ND","0.2","53.3","22.3","79.9","0","0"],
    [32435,"2014-01-17T06:00:00","79","ND","ND","ND","ND","ND","0.8","353.5","21.5","84.2","0","0"],
    [32436,"2014-01-17T07:00:00","83","ND","ND","ND","ND","ND","0.1","351.4","21.7","84.3","13.6","0"],
    [32437,"2014-01-17T08:00:00","98","ND","ND","ND","ND","ND","0.2","277.9","22.9","79","144","0"],
    [32438,"2014-01-17T09:00:00","101","ND","ND","ND","ND","ND","1.1","66.4","24.3","73.8","218.3","0"],
    [32439,"2014-01-17T10:00:00","66","ND","ND","ND","ND","ND","1.1","109.7","24.2","75.1","311.6","0"],
    [32440,"2014-01-17T11:00:00","51","ND","ND","ND","ND","ND","1.6","161.4","26.7","61.4","698.9","0.25"],
    [32441,"2014-01-17T12:00:00","56","ND","ND","ND","ND","ND","1.9","195.4","28.5","53.9","803.3","0"],
    [32442,"2014-01-17T13:00:00","38","ND","ND","ND","ND","ND","0.8","176","29.2","51.2","488.7","0"],
    [32443,"2014-01-17T14:00:00","31","ND","ND","ND","ND","ND","1.9","349","29.5","50.9","613.4","0"],
    [32444,"2014-01-17T15:00:00","39","ND","ND","ND","ND","ND","1.9","355.8","30.3","47.6","638","0"],
    [32445,"2014-01-17T16:00:00","29","ND","ND","ND","ND","ND","1.5","313.7","30.9","44.8","488.6","0"],
    [32446,"2014-01-17T17:00:00","31","ND","ND","ND","ND","ND","1.9","275.1","30.2","45.5","247.7","0"],
    [32447,"2014-01-17T18:00:00","27","ND","ND","ND","ND","ND","1","272.1","29.1","47.7","65.6","0"],
    [32448,"2014-01-17T19:00:00","66","ND","ND","ND","ND","ND","0.2","231.7","28","50.8","0","0"],
    [32449,"2014-01-17T20:00:00","54","ND","ND","ND","ND","ND","0.6","79.5","27.2","53.3","0","0"],
    [32450,"2014-01-17T21:00:00","69","ND","ND","ND","ND","ND","0.8","176.3","26.7","55.4","0","0"],
    [32451,"2014-01-17T22:00:00","80","ND","ND","ND","ND","ND","0.7","151.5","25.2","64.4","0","0"],
    [32452,"2014-01-17T23:00:00","76","ND","ND","ND","ND","ND","0.2","76.6","24.3","68.7","0","0"],
    [32453,"2014-01-18T00:00:00","44","ND","ND","ND","ND","ND","0.3","226.8","23.4","73","0","0"],
    [32454,"2014-01-18T01:00:00","61","ND","ND","ND","ND","ND","0.2","138.6","23","75.2","0","0"],
    [32455,"2014-01-18T02:00:00","49","ND","ND","ND","ND","ND","0.5","249.1","22.3","78","0","0"],
    [32456,"2014-01-18T03:00:00","48","ND","ND","ND","ND","ND","0.4","277.4","21.8","80.3","0","0"],
    [32457,"2014-01-18T04:00:00","41","ND","ND","ND","ND","ND","0.2","225.2","21.7","80","0","0"],
    [32458,"2014-01-18T05:00:00","44","ND","ND","ND","ND","ND","0","143.6","22","79.6","0","0"],
    [32459,"2014-01-18T06:00:00","59","ND","ND","ND","ND","ND","0.3","32.2","21.9","81.7","0","0"],
    [32460,"2014-01-18T07:00:00","91","ND","ND","ND","ND","ND","0.4","341.7","21.4","83.8","14.1","0"],
    [32461,"2014-01-18T08:00:00","81","ND","ND","ND","ND","ND","0.4","225.2","23.2","76.3","168.2","0"],
    [32462,"2014-01-18T09:00:00","67","ND","ND","ND","ND","ND","0.4","199.4","25.3","66.1","344.5","0"],
    [32463,"2014-01-18T10:00:00","89","ND","ND","ND","ND","ND","1.2","68.4","26.8","61.3","536.6","0"],
    [32464,"2014-01-18T11:00:00","49","ND","ND","ND","ND","ND","1.1","60.2","27.9","56.4","701.6","0"],
    [32465,"2014-01-18T12:00:00","62","ND","ND","ND","ND","ND","0.7","117","28.9","53.4","551.1","0"],
    [32466,"2014-01-18T13:00:00","70","ND","ND","ND","ND","ND","1.3","175.7","30.4","49.7","789.3","0"],
    [32467,"2014-01-18T14:00:00","72","ND","ND","ND","ND","ND","1.3","118.8","30.7","49.7","545","0"],
    [32468,"2014-01-18T15:00:00","69","ND","ND","ND","ND","ND","0.9","65.7","30.8","50.3","357.3","0"],
    [32469,"2014-01-18T16:00:00","48","ND","ND","ND","ND","ND","1.6","267.6","30.2","50.9","216.4","0"],
    [32470,"2014-01-18T17:00:00","38","ND","ND","ND","ND","ND","2.8","255.1","30.3","49.7","215.8","0"],
    [32471,"2014-01-18T18:00:00","45","ND","ND","ND","ND","ND","1.7","255.2","29.1","52.1","61.6","0"],
    [32472,"2014-01-18T19:00:00","43","ND","ND","ND","ND","ND","0.2","72.6","28.1","54.2","0","0"],
    [32473,"2014-01-18T20:00:00","34","ND","ND","ND","ND","ND","0.6","98.7","27.7","56.1","0","0"],
    [32474,"2014-01-18T21:00:00","66","ND","ND","ND","ND","ND","1.4","103.9","27","59.8","0","0"],
    [32475,"2014-01-18T22:00:00","52","ND","ND","ND","ND","ND","0.2","38.5","25.3","67.2","0","0"],
    [32476,"2014-01-18T23:00:00","56","ND","ND","ND","ND","ND","0.2","278","24.6","70.7","0","0"],
    [32477,"2014-01-19T00:00:00","53","ND","ND","ND","ND","ND","0.1","69.9","24.3","72","0","0"],
    [32478,"2014-01-19T01:00:00","211","ND","ND","ND","ND","ND","0.2","81.3","23.9","74.9","0","0"],
    [32479,"2014-01-19T02:00:00","113","ND","ND","ND","ND","ND","0.4","32.2","23.7","75.7","0","0"],
    [32480,"2014-01-19T03:00:00","54","ND","ND","ND","ND","ND","0.5","27.1","23.4","77.5","0","0"],
    [32481,"2014-01-19T04:00:00","47","ND","ND","ND","ND","ND","0.3","309.7","23","79.9","0","0"],
    [32482,"2014-01-19T05:00:00","56","ND","ND","ND","ND","ND","0.4","110","23.5","77.3","0","0"],
    [32483,"2014-01-19T06:00:00","59","ND","ND","ND","ND","ND","0.8","350.5","23","81.4","0","1.78"],
    [32484,"2014-01-19T07:00:00","46","ND","ND","ND","ND","ND","0.5","355.9","21.9","90.8","0","0.51"],
    [32485,"2014-01-19T08:00:00","46","ND","ND","ND","ND","ND","1.3","207.7","21.4","95.8","32.5","31.75"],
    [32486,"2014-01-19T09:00:00","46","ND","ND","ND","ND","ND","0.4","133.5","22.2","98.8","253.8","0.25"],
    [32487,"2014-01-19T10:00:00","52","ND","ND","ND","ND","ND","0.2","17.3","25.5","79.5","592.7","0"],
    [32488,"2014-01-19T11:00:00","37","ND","ND","ND","ND","ND","1.3","96.6","27.1","67","581.6","0"],
    [32489,"2014-01-19T12:00:00","38","ND","ND","ND","ND","ND","0.8","76.3","27.4","66.2","422.3","0"],
    [32490,"2014-01-19T13:00:00","34","ND","ND","ND","ND","ND","1","231.3","28.3","60.5","719.2","0"],
    [32491,"2014-01-19T14:00:00","24","ND","ND","ND","ND","ND","0.6","155.5","29.5","53.5","749.8","0"],
    [32492,"2014-01-19T15:00:00","38","ND","ND","ND","ND","ND","0.6","86.1","29.5","55.4","286.5","0"],
    [32493,"2014-01-19T16:00:00","12","ND","ND","ND","ND","ND","2.3","261.9","28.5","54.5","155","0"],
    [32494,"2014-01-19T17:00:00","17","ND","ND","ND","ND","ND","2.5","263.7","28.1","54.4","153.4","0"],
    [32495,"2014-01-19T18:00:00","17","ND","ND","ND","ND","ND","0.5","283.4","27.7","55.8","50.5","0"],
    [32496,"2014-01-19T19:00:00","60","ND","ND","ND","ND","ND","0.9","130.5","27.2","56.9","0","0"],
    [32497,"2014-01-19T20:00:00","28","ND","ND","ND","ND","ND","0.9","96.9","26.8","59.4","0","0"],
    [32498,"2014-01-19T21:00:00","30","ND","ND","ND","ND","ND","0.9","160.2","25.8","64","0","0"],
    [32499,"2014-01-19T22:00:00","32","ND","ND","ND","ND","ND","0.6","113.2","25.5","65.5","0","0"],
    [32500,"2014-01-19T23:00:00","23","ND","ND","ND","ND","ND","0.8","104","24.8","67.7","0","0"],
    [32501,"2014-01-20T00:00:00","24","ND","ND","ND","ND","ND","0.4","75.6","24","72.4","0","0"],
    [32502,"2014-01-20T01:00:00","17","ND","ND","ND","ND","ND","0.5","115.5","23.8","74.8","0","0"],
    [32503,"2014-01-20T02:00:00","25","ND","ND","ND","ND","ND","0.5","247.4","23","81.8","0","0"],
    [32504,"2014-01-20T03:00:00","22","ND","ND","ND","ND","ND","0.4","283.5","22.6","85.5","0","0"],
    [32505,"2014-01-20T04:00:00","27","ND","ND","ND","ND","ND","0.5","22.7","22.3","87","0","0"],
    [32506,"2014-01-20T05:00:00","50","ND","ND","ND","ND","ND","0.5","11","22","89","0","0"],
    [32507,"2014-01-20T06:00:00","41","ND","ND","ND","ND","ND","0.3","44.2","22.2","86.5","0","0"],
    [32508,"2014-01-20T07:00:00","44","ND","ND","ND","ND","ND","0.5","57","22.1","88.5","6.6","0"],
    [32509,"2014-01-20T08:00:00","59","ND","ND","ND","ND","ND","0.7","14.9","22.5","86.5","37","0"],
    [32510,"2014-01-20T09:00:00","81","ND","ND","ND","ND","ND","0.9","41.6","23.2","84.1","80","0"],
    [32511,"2014-01-20T10:00:00","103","ND","ND","ND","ND","ND","0.9","47.4","24.6","78.4","499.7","0"],
    [32512,"2014-01-20T11:00:00","65","ND","ND","ND","ND","ND","1","153","27.1","64.9","651.7","0"],
    [32513,"2014-01-20T12:00:00","41","ND","ND","ND","ND","ND","1.2","193.9","28.6","56.2","797.2","0"],
    [32514,"2014-01-20T13:00:00","32","ND","ND","ND","ND","ND","1.7","126.8","29.8","50.5","788.9","0"],
    [32515,"2014-01-20T14:00:00","35","ND","ND","ND","ND","ND","0.3","111.8","30.7","48.3","625.9","0"],
    [32516,"2014-01-20T15:00:00","31","ND","ND","ND","ND","ND","2.7","269.4","30.8","48.4","611.3","0"],
    [32517,"2014-01-20T16:00:00","21","ND","ND","ND","ND","ND","3.7","276.7","30.3","49.1","502.7","0"],
    [32518,"2014-01-20T17:00:00","20","ND","ND","ND","ND","ND","3.6","275.1","29.4","50.4","257","0"],
    [32519,"2014-01-20T18:00:00","11","ND","ND","ND","ND","ND","2.7","283.3","28.5","52.2","58.9","0"],
    [32520,"2014-01-20T19:00:00","24","ND","ND","ND","ND","ND","1.9","264","27.8","53.2","0","0"],
    [32521,"2014-01-20T20:00:00","24","ND","ND","ND","ND","ND","1.2","125.9","27.5","54.1","0","0"],
    [32522,"2014-01-20T21:00:00","25","ND","ND","ND","ND","ND","1.6","241.5","26.8","55.8","0","0"],
    [32523,"2014-01-20T22:00:00","13","ND","ND","ND","ND","ND","2.3","217.5","26.5","57.1","0","0"],
    [32524,"2014-01-20T23:00:00","20","ND","ND","ND","ND","ND","1.2","114","25.7","66","0","0"],
    [32525,"2014-01-21T00:00:00","26","ND","ND","ND","ND","ND","0.8","262.9","25.2","65.9","0","0"],
    [32526,"2014-01-21T01:00:00","43","ND","ND","ND","ND","ND","1.3","354.2","23.8","77.5","0","0"],
    [32527,"2014-01-21T02:00:00","32","ND","ND","ND","ND","ND","0.7","325.2","23.3","80.3","0","0"],
    [32528,"2014-01-21T03:00:00","27","ND","ND","ND","ND","ND","0.5","29.7","23.3","79.4","0","0"],
    [32529,"2014-01-21T04:00:00","25","ND","ND","ND","ND","ND","0.5","53.6","23.4","76.8","0","0"],
    [32530,"2014-01-21T05:00:00","34","ND","ND","ND","ND","ND","0.1","330","23.2","80","0","0"],
    [32531,"2014-01-21T06:00:00","38","ND","ND","ND","ND","ND","0.5","193","23","81.1","0","0"],
    [32532,"2014-01-21T07:00:00","48","ND","ND","ND","ND","ND","0.5","242.5","23.2","81.7","0","0"],
    [32533,"2014-01-21T08:00:00","46","ND","ND","ND","ND","ND","0.7","168","23.6","79.7","19.7","0"],
    [32534,"2014-01-21T09:00:00","61","ND","ND","ND","ND","ND","1.5","157.5","23.9","75.8","42.3","0"],
    [32535,"2014-01-21T10:00:00","47","ND","ND","ND","ND","ND","0.3","323.5","23.5","80.4","92.5","0.51"],
    [32536,"2014-01-21T11:00:00","59","ND","ND","ND","ND","ND","0.2","225.4","24.6","73.9","304.5","0"],
    [32537,"2014-01-21T12:00:00","70","ND","ND","ND","ND","ND","0.6","29.2","25.4","69.6","238.7","0"],
    [32538,"2014-01-21T13:00:00","66","ND","ND","ND","ND","ND","0.7","19.9","26.1","66.8","294.3","0"],
    [32539,"2014-01-21T14:00:00","50","ND","ND","ND","ND","ND","0.8","329.2","27","63.5","350.7","0"],
    [32540,"2014-01-21T15:00:00","38","ND","ND","ND","ND","ND","0.9","35.8","26.9","62.8","162.9","0"],
    [32541,"2014-01-21T16:00:00","35","ND","ND","ND","ND","ND","1.2","311.1","26.6","61","123","0"],
    [32542,"2014-01-21T17:00:00","14","ND","ND","ND","ND","ND","0.5","130","27.2","57","136.2","0"],
    [32543,"2014-01-21T18:00:00","68","ND","ND","ND","ND","ND","1","37.1","26.5","60.6","47.1","0"],
    [32544,"2014-01-21T19:00:00","40","ND","ND","ND","ND","ND","0.9","294.1","25.6","65.4","6.6","0"],
    [32545,"2014-01-21T20:00:00","36","ND","ND","ND","ND","ND","0.1","144.5","24.9","65.3","0","0"],
    [32546,"2014-01-21T21:00:00","30","ND","ND","ND","ND","ND","0.4","347.6","24.1","68.2","0","0"],
    [32547,"2014-01-21T22:00:00","90","ND","ND","ND","ND","ND","0.3","152.7","23.9","69.5","0","0"],
    [32548,"2014-01-21T23:00:00","41","ND","ND","ND","ND","ND","0.4","165.3","22.9","75.3","0","0"],
    [32549,"2014-01-22T00:00:00","64","ND","ND","ND","ND","ND","0.3","330.6","22.4","76.9","0","0"],
    [32550,"2014-01-22T01:00:00","69","ND","ND","ND","ND","ND","0.7","157.8","22.3","78.1","0","0"],
    [32551,"2014-01-22T02:00:00","58","ND","ND","ND","ND","ND","0.4","68.7","21.9","81.6","0","0"],
    [32552,"2014-01-22T03:00:00","39","ND","ND","ND","ND","ND","1.2","211.8","21.9","82.1","0","0"],
    [32553,"2014-01-22T04:00:00","38","ND","ND","ND","ND","ND","1","206.8","21.8","84.3","0","0"],
    [32554,"2014-01-22T05:00:00","28","ND","ND","ND","ND","ND","0.5","181.9","21.8","86.4","0","0"],
    [32555,"2014-01-22T06:00:00","36","ND","ND","ND","ND","ND","0.4","359.5","21.9","85.1","0","0"],
    [32556,"2014-01-22T07:00:00","61","ND","ND","ND","ND","ND","0.2","103.4","21.3","88.1","11.8","0"],
    [32557,"2014-01-22T08:00:00","72","ND","ND","ND","ND","ND","0.2","90.9","22.7","83.2","157.4","0"],
    [32558,"2014-01-22T09:00:00","94","ND","ND","ND","ND","ND","0.5","352","24.5","74.5","344.3","0"],
    [32559,"2014-01-22T10:00:00","78","ND","ND","ND","ND","ND","0.9","119","26.1","65.7","502.2","0"],
    [32560,"2014-01-22T11:00:00","49","ND","ND","ND","ND","ND","1.3","133.3","27.6","58.2","605.6","0"],
    [32561,"2014-01-22T12:00:00","52","ND","ND","ND","ND","ND","1.1","70.2","27.9","57.9","410.7","0"],
    [32562,"2014-01-22T13:00:00","56","ND","ND","ND","ND","ND","0.2","227.3","29.1","53.7","487","0"],
    [32563,"2014-01-22T14:00:00","16","ND","ND","ND","ND","ND","1.1","303.1","29.4","48.6","617.2","0"],
    [32564,"2014-01-22T15:00:00","26","ND","ND","ND","ND","ND","2.2","257.1","31.1","43.1","659.7","0"],
    [32565,"2014-01-22T16:00:00","29","ND","ND","ND","ND","ND","3.4","275.7","29.8","46.5","286.5","0"],
    [32566,"2014-01-22T17:00:00","26","ND","ND","ND","ND","ND","2.3","273.4","29.5","47.2","201.4","0"],
    [32567,"2014-01-22T18:00:00","35","ND","ND","ND","ND","ND","0.9","272","28.6","49.4","50.9","0"],
    [32568,"2014-01-22T19:00:00","38","ND","ND","ND","ND","ND","0.8","234.7","27.7","52.3","0","0"],
    [32569,"2014-01-22T20:00:00","58","ND","ND","ND","ND","ND","0.2","154.2","27.1","55","0","0"],
    [32570,"2014-01-22T21:00:00","45","ND","ND","ND","ND","ND","0.5","331.1","26.5","56.8","0","0"],
    [32571,"2014-01-22T22:00:00","67","ND","ND","ND","ND","ND","1.3","138.2","25.9","61.2","0","0"],
    [32572,"2014-01-22T23:00:00","41","ND","ND","ND","ND","ND","1","231.5","24.9","66.2","0","0"],
    [32573,"2014-01-23T00:00:00","31","ND","ND","ND","ND","ND","0.5","226.3","24.3","68.1","0","0"],
    [32574,"2014-01-23T01:00:00","29","ND","ND","ND","ND","ND","0.6","68.9","23.9","71.1","0","0"],
    [32575,"2014-01-23T02:00:00","41","ND","ND","ND","ND","ND","0.7","93.8","23.2","77","0","0"],
    [32576,"2014-01-23T03:00:00","38","ND","ND","ND","ND","ND","1","149.1","23","79.1","0","0"],
    [32577,"2014-01-23T04:00:00","48","ND","ND","ND","ND","ND","0.2","128.6","22.4","81.9","0","0"],
    [32578,"2014-01-23T05:00:00","41","ND","ND","ND","ND","ND","0.2","257.5","22.5","81.8","0","0"],
    [32579,"2014-01-23T06:00:00","47","ND","ND","ND","ND","ND","0.4","261.5","22.3","81.8","0","0"],
    [32580,"2014-01-23T07:00:00","81","ND","ND","ND","ND","ND","0.2","337.2","22.4","81.9","6.9","0"],
    [32581,"2014-01-23T08:00:00","91","ND","ND","ND","ND","ND","0.5","114.3","23.3","76.8","69.7","0"],
    [32582,"2014-01-23T09:00:00","104","ND","ND","ND","ND","ND","1.2","46.2","23.6","76.6","139.4","0"],
    [32583,"2014-01-23T10:00:00","63","ND","ND","ND","ND","ND","0.5","154.9","25.7","66.8","496.7","0"],
    [32584,"2014-01-23T11:00:00","63","ND","ND","ND","ND","ND","1.4","146.4","27.4","59","749.6","0"],
    [32585,"2014-01-23T12:00:00","64","ND","ND","ND","ND","ND","1.1","86.2","28.8","53.4","766.1","0"],
    [32586,"2014-01-23T13:00:00","65","ND","ND","ND","ND","ND","1.1","102.7","29.5","50.7","567.7","0"],
    [32587,"2014-01-23T14:00:00","79","ND","ND","ND","ND","ND","0.8","3.3","30.7","48.1","554.4","0"],
    [32588,"2014-01-23T15:00:00","67","ND","ND","ND","ND","ND","0.6","311.3","31.1","47.6","406.8","0"],
    [32589,"2014-01-23T16:00:00","39","ND","ND","ND","ND","ND","3.7","281.1","30.3","48.5","489.8","0"],
    [32590,"2014-01-23T17:00:00","36","ND","ND","ND","ND","ND","3.2","275.3","29.8","49","312","0"],
    [32591,"2014-01-23T18:00:00","26","ND","ND","ND","ND","ND","1.5","279.6","29.3","48.9","108.5","0"],
    [32592,"2014-01-23T19:00:00","33","ND","ND","ND","ND","ND","0.2","277","28.4","49.7","9.4","0"],
    [32593,"2014-01-23T20:00:00","35","ND","ND","ND","ND","ND","0.7","69.5","27.5","53","0","0"],
    [32594,"2014-01-23T21:00:00","45","ND","ND","ND","ND","ND","0.4","136.7","26.8","55.8","0","0"],
    [32595,"2014-01-23T22:00:00","69","ND","ND","ND","ND","ND","1","55.2","25.3","65.2","0","0"],
    [32596,"2014-01-23T23:00:00","39","ND","ND","ND","ND","ND","0.1","172.9","24.5","68.7","0","0"],
    [32597,"2014-01-24T00:00:00","46","ND","ND","ND","ND","ND","0.3","191.8","23.9","71.5","0","0"],
    [32598,"2014-01-24T01:00:00","27","ND","ND","ND","ND","ND","0.5","197.1","23.5","73.2","0","0"],
    [32599,"2014-01-24T02:00:00","38","ND","ND","ND","ND","ND","0.1","32.4","22.9","76.5","0","0"],
    [32600,"2014-01-24T03:00:00","35","ND","ND","ND","ND","ND","0.4","255.6","22.9","77.3","0","0"],
    [32601,"2014-01-24T04:00:00","44","ND","ND","ND","ND","ND","0.1","314.5","22.9","77.5","0","0"],
    [32602,"2014-01-24T05:00:00","93","ND","ND","ND","ND","ND","0.4","286.4","22.6","78.8","0","0"],
    [32603,"2014-01-24T06:00:00","37","ND","ND","ND","ND","ND","0.9","227.8","22.5","79.7","0","0"],
    [32604,"2014-01-24T07:00:00","56","ND","ND","ND","ND","ND","0.4","235.2","22.4","80.1","13.3","0"],
    [32605,"2014-01-24T08:00:00","68","ND","ND","ND","ND","ND","0.5","154.1","23.4","76","72.3","0"],
    [32606,"2014-01-24T09:00:00","66","ND","ND","ND","ND","ND","0.6","149.8","24.8","70","286.6","0"],
    [32607,"2014-01-24T10:00:00","67","ND","ND","ND","ND","ND","2.2","135.9","26.6","62.3","545.5","0"],
    [32608,"2014-01-24T11:00:00","53","ND","ND","ND","ND","ND","0.2","225.2","27.5","60.2","612.5","0"],
    [32609,"2014-01-24T12:00:00","77","ND","ND","ND","ND","ND","1.1","115.8","27.8","59.1","412.4","0"],
    [32610,"2014-01-24T13:00:00","57","ND","ND","ND","ND","ND","1","51","29.1","53.6","621.9","0"],
    [32611,"2014-01-24T14:00:00","32","ND","ND","ND","ND","ND","0.8","286.7","30.8","45.8","779.2","0"],
    [32612,"2014-01-24T15:00:00","28","ND","ND","ND","ND","ND","1.3","307.3","31.9","40.8","699.4","0"],
    [32613,"2014-01-24T16:00:00","40","ND","ND","ND","ND","ND","3.9","277.5","31","43.5","541.9","0"],
    [32614,"2014-01-24T17:00:00","32","ND","ND","ND","ND","ND","3.8","277.7","29.7","44.9","250.8","0"],
    [32615,"2014-01-24T18:00:00","31","ND","ND","ND","ND","ND","3.2","270.6","28.9","45.5","60.2","0"],
    [32616,"2014-01-24T19:00:00","28","ND","ND","ND","ND","ND","1.1","251.3","28.4","46.6","0","0"],
    [32617,"2014-01-24T20:00:00","47","ND","ND","ND","ND","ND","1.4","107.7","27.8","50.2","0","0"],
    [32618,"2014-01-24T21:00:00","51","ND","ND","ND","ND","ND","0.7","98.6","27.2","53","0","0"],
    [32619,"2014-01-24T22:00:00","55","ND","ND","ND","ND","ND","0.3","354.6","26","58.9","0","0"],
    [32620,"2014-01-24T23:00:00","38","ND","ND","ND","ND","ND","0.6","116.1","25.3","62.5","0","0"],
    [32621,"2014-01-25T00:00:00","48","ND","ND","ND","ND","ND","0.2","341.8","24.8","65.5","0","0"],
    [32622,"2014-01-25T01:00:00","60","ND","ND","ND","ND","ND","0.8","356.8","23.7","71.7","0","0"],
    [32623,"2014-01-25T02:00:00","68","ND","ND","ND","ND","ND","0.6","331.5","23.2","75","0","0"],
    [32624,"2014-01-25T03:00:00","43","ND","ND","ND","ND","ND","0.3","302.3","23.1","74.6","0","0"],
    [32625,"2014-01-25T04:00:00","59","ND","ND","ND","ND","ND","0.8","30.7","22.8","76.3","0","0"],
    [32626,"2014-01-25T05:00:00","68","ND","ND","ND","ND","ND","1","164.1","22.7","78.2","0","0"],
    [32627,"2014-01-25T06:00:00","46","ND","ND","ND","ND","ND","0.4","250.3","23","75.9","0","0"],
    [32628,"2014-01-25T07:00:00","45","ND","ND","ND","ND","ND","0.3","164.6","23.3","72.8","5.8","0"],
    [32629,"2014-01-25T08:00:00","122","ND","ND","ND","ND","ND","0.5","357.4","23.8","74","132.8","0"],
    [32630,"2014-01-25T09:00:00","110","ND","ND","ND","ND","ND","0.7","93.5","25","68.8","239.4","0"],
    [32631,"2014-01-25T10:00:00","67","ND","ND","ND","ND","ND","0.9","160.7","26.7","59.9","552.5","0"],
    [32632,"2014-01-25T11:00:00","49","ND","ND","ND","ND","ND","1.1","93.1","28","55.3","585.5","0"],
    [32633,"2014-01-25T12:00:00","58","ND","ND","ND","ND","ND","0.8","11.1","26.6","64.8","212.1","0"],
    [32634,"2014-01-25T13:00:00","44","ND","ND","ND","ND","ND","1.8","163.6","28.8","53.5","870","0"],
    [32635,"2014-01-25T14:00:00","54","ND","ND","ND","ND","ND","1.5","206.2","29.9","48.6","385.4","0"],
    [32636,"2014-01-25T15:00:00","26","ND","ND","ND","ND","ND","4.6","278.2","29.1","47.2","577.5","0"],
    [32637,"2014-01-25T16:00:00","15","ND","ND","ND","ND","ND","1","306.9","30","41.7","536.3","0"],
    [32638,"2014-01-25T17:00:00","19","ND","ND","ND","ND","ND","0.9","210.4","29.4","43.8","126.5","0"],
    [32639,"2014-01-25T18:00:00","17","ND","ND","ND","ND","ND","1.7","273.7","27.6","51.1","36.1","0"],
    [32640,"2014-01-25T19:00:00","24","ND","ND","ND","ND","ND","1.6","238.1","26.7","55.7","0","0"],
    [32641,"2014-01-25T20:00:00","18","ND","ND","ND","ND","ND","0.3","205.3","25.1","66.2","0","0"],
    [32642,"2014-01-25T21:00:00","20","ND","ND","ND","ND","ND","1.3","144.7","24.1","72.1","0","0"],
    [32643,"2014-01-25T22:00:00","18","ND","ND","ND","ND","ND","0.5","276.8","23.1","80","0","0.51"],
    [32644,"2014-01-25T23:00:00","58","ND","ND","ND","ND","ND","0.6","102.1","22.1","88.4","0","3.56"],
    [32645,"2014-01-26T00:00:00","40","ND","ND","ND","ND","ND","0.1","169.5","21.7","90.5","0","0.25"],
    [32646,"2014-01-26T01:00:00","32","ND","ND","ND","ND","ND","0.5","128","21.7","89.1","0","0.25"],
    [32647,"2014-01-26T02:00:00","29","ND","ND","ND","ND","ND","0.7","196.6","21.7","88.7","0","0"],
    [32648,"2014-01-26T03:00:00","21","ND","ND","ND","ND","ND","1.7","156.2","21.8","87.1","0","0"],
    [32649,"2014-01-26T04:00:00","17","ND","ND","ND","ND","ND","0.9","141.1","22.1","83.1","0","0"],
    [32650,"2014-01-26T05:00:00","17","ND","ND","ND","ND","ND","1.3","145.3","21.8","83.4","0","0"],
    [32651,"2014-01-26T06:00:00","16","ND","ND","ND","ND","ND","1.4","171.3","21.5","84.5","0","0"],
    [32652,"2014-01-26T07:00:00","14","ND","ND","ND","ND","ND","1.1","221.8","21.7","83","0","0"],
    [32653,"2014-01-26T08:00:00","17","ND","ND","ND","ND","ND","1.8","185.6","22.3","79.2","84.3","0"],
    [32654,"2014-01-26T09:00:00","15","ND","ND","ND","ND","ND","2.1","154.7","22.3","78.8","101.6","0"],
    [32655,"2014-01-26T10:00:00","17","ND","ND","ND","ND","ND","0.9","152.7","23.2","75.1","297.4","0"],
    [32656,"2014-01-26T11:00:00","14","ND","ND","ND","ND","ND","0.9","164.4","25.2","65.2","511.9","0"],
    [32657,"2014-01-26T12:00:00","9","ND","ND","ND","ND","ND","0.9","271.4","26.1","59.2","450.2","0"],
    [32658,"2014-01-26T13:00:00","23","ND","ND","ND","ND","ND","0.9","284.7","26.6","57.4","340.7","0"],
    [32659,"2014-01-26T14:00:00","24","ND","ND","ND","ND","ND","1.1","3.2","27.1","56.4","371.8","0"],
    [32660,"2014-01-26T15:00:00","27","ND","ND","ND","ND","ND","0.7","22.1","27","58","321.4","0"],
    [32661,"2014-01-26T16:00:00","12","ND","ND","ND","ND","ND","1.8","260.6","27.2","53.9","246.9","0"],
    [32662,"2014-01-26T17:00:00","6","ND","ND","ND","ND","ND","0.9","297.7","27.3","52.5","155.8","0"],
    [32663,"2014-01-26T18:00:00","9","ND","ND","ND","ND","ND","0.6","358","26.7","53.8","61.4","0"],
    [32664,"2014-01-26T19:00:00","23","ND","ND","ND","ND","ND","0.6","294.2","25","59","0","0"],
    [32665,"2014-01-26T20:00:00","13","ND","ND","ND","ND","ND","1.5","242.7","24.5","57.8","0","0"],
    [32666,"2014-01-26T21:00:00","38","ND","ND","ND","ND","ND","0.2","55.8","23.5","65.7","0","0"],
    [32667,"2014-01-26T22:00:00","28","ND","ND","ND","ND","ND","0.4","349.9","22.6","67.5","0","0"],
    [32668,"2014-01-26T23:00:00","36","ND","ND","ND","ND","ND","0.1","257.3","22.1","70.7","0","0"],
    [32669,"2014-01-27T00:00:00","19","ND","ND","ND","ND","ND","0.2","273.5","21.4","74.9","0","0"],
    [32670,"2014-01-27T01:00:00","24","ND","ND","ND","ND","ND","0.3","268.9","21","76.9","0","0"],
    [32671,"2014-01-27T02:00:00","24","ND","ND","ND","ND","ND","0.1","300.9","20.9","77.7","0","0"],
    [32672,"2014-01-27T03:00:00","17","ND","ND","ND","ND","ND","0.2","263.7","20.5","80.8","0","0"],
    [32673,"2014-01-27T04:00:00","36","ND","ND","ND","ND","ND","0","271","20.3","81.1","0","0"],
    [32674,"2014-01-27T05:00:00","33","ND","ND","ND","ND","ND","0","117.8","20.3","81.8","0","0"],
    [32675,"2014-01-27T06:00:00","45","ND","ND","ND","ND","ND","0.3","239.7","20.1","82.8","0","0"],
    [32676,"2014-01-27T07:00:00","61","ND","ND","ND","ND","ND","0.2","4.9","20.2","82.5","11","0"],
    [32677,"2014-01-27T08:00:00","121","ND","ND","ND","ND","ND","0.1","12.6","21.4","77","59.7","0"],
    [32678,"2014-01-27T09:00:00","112","ND","ND","ND","ND","ND","0.6","58.7","23.1","71.9","320.4","0"],
    [32679,"2014-01-27T10:00:00","87","ND","ND","ND","ND","ND","0.8","82.1","25.2","64","591.2","0"],
    [32680,"2014-01-27T11:00:00","56","ND","ND","ND","ND","ND","0.9","53.6","26.9","57.6","736.5","0"],
    [32681,"2014-01-27T12:00:00","50","ND","ND","ND","ND","ND","1.2","55.4","28.6","50.7","877.9","0"],
    [32682,"2014-01-27T13:00:00","44","ND","ND","ND","ND","ND","1.8","60.1","29.8","46.5","810.8","0"],
    [32683,"2014-01-27T14:00:00","41","ND","ND","ND","ND","ND","1.6","59.1","30.4","45.5","638.2","0"],
    [32684,"2014-01-27T15:00:00","38","ND","ND","ND","ND","ND","1.4","37.2","30.4","45.4","473.6","0"],
    [32685,"2014-01-27T16:00:00","32","ND","ND","ND","ND","ND","2.4","270.8","30.5","45.5","378.2","0"],
    [32686,"2014-01-27T17:00:00","37","ND","ND","ND","ND","ND","2.8","278.2","30.4","44","303.4","0"],
    [32687,"2014-01-27T18:00:00","20","ND","ND","ND","ND","ND","1.9","278.6","29.1","46.8","83.7","0"],
    [32688,"2014-01-27T19:00:00","21","ND","ND","ND","ND","ND","0.3","175.6","28","49.4","0","0"],
    [32689,"2014-01-27T20:00:00","52","ND","ND","ND","ND","ND","0.8","104.8","27.2","53","0","0"],
    [32690,"2014-01-27T21:00:00","58","ND","ND","ND","ND","ND","0.8","123.2","26.3","58.3","0","0"],
    [32691,"2014-01-27T22:00:00","90","ND","ND","ND","ND","ND","0.6","104.3","24.7","65.9","0","0"],
    [32692,"2014-01-27T23:00:00","77","ND","ND","ND","ND","ND","0.5","167.7","24.2","67.7","0","0"],
    [32693,"2014-01-28T00:00:00","91","ND","ND","ND","ND","ND","0.2","326.3","23.5","70.9","0","0"],
    [32694,"2014-01-28T01:00:00","56","ND","ND","ND","ND","ND","0.3","237.1","23.1","72.6","0","0"],
    [32695,"2014-01-28T02:00:00","44","ND","ND","ND","ND","ND","0.5","287.8","22.6","74.5","0","0"],
    [32696,"2014-01-28T03:00:00","88","ND","ND","ND","ND","ND","0.2","323.3","22.2","77.2","0","0"],
    [32697,"2014-01-28T04:00:00","48","ND","ND","ND","ND","ND","0.1","263.1","22","78.3","0","0"],
    [32698,"2014-01-28T05:00:00","40","ND","ND","ND","ND","ND","0.3","165.5","22","77.8","0","0"],
    [32699,"2014-01-28T06:00:00","119","ND","ND","ND","ND","ND","0.5","6","21.1","82.7","0","0"],
    [32700,"2014-01-28T07:00:00","128","ND","ND","ND","ND","ND","0.6","284.7","21.2","82.1","12.8","0"],
    [32701,"2014-01-28T08:00:00","110","ND","ND","ND","ND","ND","0.1","154.9","23.1","73.7","146.4","0"],
    [32702,"2014-01-28T09:00:00","115","ND","ND","ND","ND","ND","0.7","100.5","24.9","67","337.6","0"],
    [32703,"2014-01-28T10:00:00","78","ND","ND","ND","ND","ND","1","141.3","26.4","60.9","537.2","0"],
    [32704,"2014-01-28T11:00:00","41","ND","ND","ND","ND","ND","1.7","145.2","27.8","56","715","0"],
    [32705,"2014-01-28T12:00:00","33","ND","ND","ND","ND","ND","0.8","115","28.8","52.8","660.3","0"],
    [32706,"2014-01-28T13:00:00","53","ND","ND","ND","ND","ND","0.4","41.7","29.4","50.8","543.7","0"],
    [32707,"2014-01-28T14:00:00","34","ND","ND","ND","ND","ND","1","288.9","30.7","46.5","620.4","0"],
    [32708,"2014-01-28T15:00:00","25","ND","ND","ND","ND","ND","3.9","273.4","31.1","43.3","700","0"],
    [32709,"2014-01-28T16:00:00","23","ND","ND","ND","ND","ND","4","277","30.2","44.8","436.8","0.25"],
    [32710,"2014-01-28T17:00:00","25","ND","ND","ND","ND","ND","3.3","277.6","29.4","46.9","237.3","0"],
    [32711,"2014-01-28T18:00:00","20","ND","ND","ND","ND","ND","2.6","271.9","28.5","48.3","46.1","0"],
    [32712,"2014-01-28T19:00:00","41","ND","ND","ND","ND","ND","0.8","108.9","27.9","52","0","0"],
    [32713,"2014-01-28T20:00:00","33","ND","ND","ND","ND","ND","2.5","251.9","26.7","57.4","0","0"],
    [32714,"2014-01-28T21:00:00","8","ND","ND","ND","ND","ND","1.6","258.5","26","59.5","0","0"],
    [32715,"2014-01-28T22:00:00","27","ND","ND","ND","ND","ND","1.9","152.3","26.2","58.3","0","0"],
    [32716,"2014-01-28T23:00:00","35","ND","ND","ND","ND","ND","1.7","95.2","25.3","65.2","0","0"],
    [32717,"2014-01-29T00:00:00","53","ND","ND","ND","ND","ND","1","46.6","24.2","71.9","0","0"],
    [32718,"2014-01-29T01:00:00","48","ND","ND","ND","ND","ND","0.4","18.8","23.8","73.2","0","0"],
    [32719,"2014-01-29T02:00:00","31","ND","ND","ND","ND","ND","0.5","61.7","23.4","76.7","0","0"],
    [32720,"2014-01-29T03:00:00","33","ND","ND","ND","ND","ND","0.7","25.3","22.8","80.2","0","0"],
    [32721,"2014-01-29T04:00:00","31","ND","ND","ND","ND","ND","0.3","39.3","22.4","83.7","0","0"],
    [32722,"2014-01-29T05:00:00","32","ND","ND","ND","ND","ND","0.8","277.5","22.2","84.5","0","0"],
    [32723,"2014-01-29T06:00:00","39","ND","ND","ND","ND","ND","0.1","261.2","22.4","83.5","0","0"],
    [32724,"2014-01-29T07:00:00","48","ND","ND","ND","ND","ND","0.4","300.3","22","85","6.7","0"],
    [32725,"2014-01-29T08:00:00","59","ND","ND","ND","ND","ND","0.2","312.3","22.7","82.2","48.9","0"],
    [32726,"2014-01-29T09:00:00","106","ND","ND","ND","ND","ND","0.8","51.6","23.4","80.1","115","0"],
    [32727,"2014-01-29T10:00:00","102","ND","ND","ND","ND","ND","1.1","76.1","24.5","75.6","428.6","0"],
    [32728,"2014-01-29T11:00:00","53","ND","ND","ND","ND","ND","1.5","89.9","26.2","66.2","660.5","0"],
    [32729,"2014-01-29T12:00:00","78","ND","ND","ND","ND","ND","1.1","285.3","27.2","60.5","416.4","0"],
    [32730,"2014-01-29T13:00:00","45","ND","ND","ND","ND","ND","1.5","339.8","27.5","57.5","442","0"],
    [32731,"2014-01-29T14:00:00","48","ND","ND","ND","ND","ND","1.9","64.2","28.7","53.2","610.2","0"],
    [32732,"2014-01-29T15:00:00","29","ND","ND","ND","ND","ND","0.8","225.9","29.5","49.1","431.5","0"],
    [32733,"2014-01-29T16:00:00","25","ND","ND","ND","ND","ND","2.5","273","30.3","46.1","510.9","0"],
    [32734,"2014-01-29T17:00:00","20","ND","ND","ND","ND","ND","2.9","269.9","29.2","47.7","291.4","0"],
    [32735,"2014-01-29T18:00:00","19","ND","ND","ND","ND","ND","2","255.4","28","49.9","73.2","0"],
    [32736,"2014-01-29T19:00:00","30","ND","ND","ND","ND","ND","0.1","117.3","27.1","51.7","0","0"],
    [32737,"2014-01-29T20:00:00","42","ND","ND","ND","ND","ND","1","93.7","26.7","54.3","0","0"],
    [32738,"2014-01-29T21:00:00","48","ND","ND","ND","ND","ND","1.7","145","25.9","58.8","0","0"],
    [32739,"2014-01-29T22:00:00","37","ND","ND","ND","ND","ND","2.5","194.2","24.9","66.4","0","0"],
    [32740,"2014-01-29T23:00:00","22","ND","ND","ND","ND","ND","2.4","216.7","24.6","67","0","0"],
    [32741,"2014-01-30T00:00:00","8","ND","ND","ND","ND","ND","1.3","167.1","24","70.1","0","0"],
    [32742,"2014-01-30T01:00:00","29","ND","ND","ND","ND","ND","0.9","318.2","23.1","77.6","0","0"],
    [32743,"2014-01-30T02:00:00","30","ND","ND","ND","ND","ND","0.3","54.8","21.9","89.2","0","0.25"],
    [32744,"2014-01-30T03:00:00","22","ND","ND","ND","ND","ND","1.3","180.6","21.4","92.2","0","0"],
    [32745,"2014-01-30T04:00:00","16","ND","ND","ND","ND","ND","0.9","169.5","21.6","90.8","0","0"],
    [32746,"2014-01-30T05:00:00","18","ND","ND","ND","ND","ND","0.4","176.2","21.8","88.7","0","0"],
    [32747,"2014-01-30T06:00:00","28","ND","ND","ND","ND","ND","1.4","160.5","21.8","89.1","0","0"],
    [32748,"2014-01-30T07:00:00","20","ND","ND","ND","ND","ND","0.5","106.9","21.8","85.7","0","0"],
    [32749,"2014-01-30T08:00:00","39","ND","ND","ND","ND","ND","1.1","144.7","22","86.3","63.3","0"],
    [32750,"2014-01-30T09:00:00","32","ND","ND","ND","ND","ND","0.3","133.3","23.5","78.5","207.4","0"],
    [32751,"2014-01-30T10:00:00","40","ND","ND","ND","ND","ND","1.4","152","24.8","72.1","430.2","0"],
    [32752,"2014-01-30T11:00:00","31","ND","ND","ND","ND","ND","1.8","143.2","26","65.2","518.9","0"],
    [32753,"2014-01-30T12:00:00","39","ND","ND","ND","ND","ND","1.2","355.4","27","61.4","607.1","0"],
    [32754,"2014-01-30T13:00:00","46","ND","ND","ND","ND","ND","1.3","133","27.9","56.3","438.1","0"],
    [32755,"2014-01-30T14:00:00","38","ND","ND","ND","ND","ND","1.3","117.1","28.5","53.2","493.8","0"],
    [32756,"2014-01-30T15:00:00","26","ND","ND","ND","ND","ND","2.4","270","27.9","52.5","227.5","0"],
    [32757,"2014-01-30T16:00:00","17","ND","ND","ND","ND","ND","1.8","263.3","27.5","51.4","212.7","0"],
    [32758,"2014-01-30T17:00:00","20","ND","ND","ND","ND","ND","2.5","276","27.3","51","170.5","0"],
    [32759,"2014-01-30T18:00:00","29","ND","ND","ND","ND","ND","0.6","278.7","26.8","51.6","43.2","0"],
    [32760,"2014-01-30T19:00:00","37","ND","ND","ND","ND","ND","1.1","112.9","25.8","59.4","0","0"],
    [32761,"2014-01-30T20:00:00","31","ND","ND","ND","ND","ND","2.6","153.2","23.7","73.9","0","0"],
    [32762,"2014-01-30T21:00:00","28","ND","ND","ND","ND","ND","1.5","151.4","23.2","76.5","0","0"],
    [32763,"2014-01-30T22:00:00","74","ND","ND","ND","ND","ND","0.5","350.3","22.9","80","0","0"],
    [32764,"2014-01-30T23:00:00","74","ND","ND","ND","ND","ND","0.6","18.4","22.5","82.4","0","0"],
    [32765,"2014-01-31T00:00:00","77","ND","ND","ND","ND","ND","0.5","23","22.1","82.2","0","0"],
    [32766,"2014-01-31T01:00:00","57","ND","ND","ND","ND","ND","0.3","135.7","22.1","82.2","0","0"],
    [32767,"2014-01-31T02:00:00","50","ND","ND","ND","ND","ND","0.3","27","22.1","80.6","0","0"],
    [32768,"2014-01-31T03:00:00","101","ND","ND","ND","ND","ND","0.8","28","21.3","85.2","0","0"],
    [32769,"2014-01-31T04:00:00","59","ND","ND","ND","ND","ND","0.8","18.6","20.9","89.5","0","0"],
    [32770,"2014-01-31T05:00:00","42","ND","ND","ND","ND","ND","0.2","314.6","21","88.8","0","0"],
    [32771,"2014-01-31T06:00:00","46","ND","ND","ND","ND","ND","0.1","306.5","20.6","88.7","0","0"],
    [32772,"2014-01-31T07:00:00","68","ND","ND","ND","ND","ND","0.3","326.6","20.6","87.3","5.6","0"],
    [32773,"2014-01-31T08:00:00","84","ND","ND","ND","ND","ND","0.2","233.3","21.6","83.3","40.5","0"],
    [32774,"2014-01-31T09:00:00","108","ND","ND","ND","ND","ND","1","54.6","22.2","80.4","131.8","0"],
    [32775,"2014-01-31T10:00:00","92","ND","ND","ND","ND","ND","1","54.3","23.4","75.2","263.6","0"],
    [32776,"2014-01-31T11:00:00","55","ND","ND","ND","ND","ND","1.4","65.3","24.1","72","284.9","0"],
    [32777,"2014-01-31T12:00:00","38","ND","ND","ND","ND","ND","0.6","57.3","25.6","64.4","545.3","0"],
    [32778,"2014-01-31T13:00:00","37","ND","ND","ND","ND","ND","0.3","357.5","27.2","56","466.8","0"],
    [32779,"2014-01-31T14:00:00","39","ND","ND","ND","ND","ND","0.5","62.1","27.9","53.1","480.8","0"],
    [32780,"2014-01-31T15:00:00","53","ND","ND","ND","ND","ND","1.3","333.1","28","52.7","272.3","0"],
    [32781,"2014-01-31T16:00:00","22","ND","ND","ND","ND","ND","2.5","254.2","28.3","51.3","274.7","0"],
    [32782,"2014-01-31T17:00:00","27","ND","ND","ND","ND","ND","1.9","264.3","28.8","49.7","258.7","0"],
    [32783,"2014-01-31T18:00:00","25","ND","ND","ND","ND","ND","0.8","270.9","28.1","50.3","62","0"],
    [32784,"2014-01-31T19:00:00","33","ND","ND","ND","ND","ND","0.5","276.5","27.1","53.9","0","0"],
    [32785,"2014-01-31T20:00:00","63","ND","ND","ND","ND","ND","0.3","140.2","26.7","55.2","0","0"],
    [32786,"2014-01-31T21:00:00","56","ND","ND","ND","ND","ND","0.4","116.2","26","58.3","0","0"],
    [32787,"2014-01-31T22:00:00","51","ND","ND","ND","ND","ND","0.8","114.9","25.3","61.2","0","0"],
    [32788,"2014-01-31T23:00:00","127","ND","ND","ND","ND","ND","0.7","136.6","24.3","66.6","0","0"],
    [32789,"2014-02-01T00:00:00","67","ND","ND","ND","ND","ND","0.5","159.4","24","67.2","0","0"],
    [32790,"2014-02-01T01:00:00","47","ND","ND","ND","ND","ND","0.4","103.1","23.8","69.2","0","0"],
    [32791,"2014-02-01T02:00:00","36","ND","ND","ND","ND","ND","0.1","48.7","23.2","72.3","0","0"],
    [32792,"2014-02-01T03:00:00","46","ND","ND","ND","ND","ND","0.9","156.8","23.2","73.2","0","0"],
    [32793,"2014-02-01T04:00:00","53","ND","ND","ND","ND","ND","0.9","157.7","23","75.2","0","0"],
    [32794,"2014-02-01T05:00:00","49","ND","ND","ND","ND","ND","0.3","146.5","22.8","75.9","0","0"],
    [32795,"2014-02-01T06:00:00","53","ND","ND","ND","ND","ND","0.4","191.7","22.8","76.3","0","0"],
    [32796,"2014-02-01T07:00:00","48","ND","ND","ND","ND","ND","0.4","144.1","22.7","76.8","13.1","0"],
    [32797,"2014-02-01T08:00:00","103","ND","ND","ND","ND","ND","0.7","31.4","22.4","80.8","77.8","0"],
    [32798,"2014-02-01T09:00:00","121","ND","ND","ND","ND","ND","0.5","104.6","23.7","75.3","220.1","0"],
    [32799,"2014-02-01T10:00:00","51","ND","ND","ND","ND","ND","1.7","171.3","25.3","64.8","478.5","0"],
    [32800,"2014-02-01T11:00:00","56","ND","ND","ND","ND","ND","1.7","141.4","27.6","55.8","717.6","0"],
    [32801,"2014-02-01T12:00:00","65","ND","ND","ND","ND","ND","1.4","112.6","28.8","51.8","831","0"],
    [32802,"2014-02-01T13:00:00","67","ND","ND","ND","ND","ND","0.7","105.3","30.2","48.3","792.2","0"],
    [32803,"2014-02-01T14:00:00","38","ND","ND","ND","ND","ND","0.9","266.1","30.1","47.5","429.6","0"],
    [32804,"2014-02-01T15:00:00","29","ND","ND","ND","ND","ND","3.5","260.4","31","44.4","731.8","0"],
    [32805,"2014-02-01T16:00:00","39","ND","ND","ND","ND","ND","4.1","267.8","30.2","46.2","495.1","0"],
    [32806,"2014-02-01T17:00:00","24","ND","ND","ND","ND","ND","3","264.8","30","45.4","236.7","0"],
    [32807,"2014-02-01T18:00:00","25","ND","ND","ND","ND","ND","0.9","288.9","28.8","48","44.4","0"],
    [32808,"2014-02-01T19:00:00","31","ND","ND","ND","ND","ND","0.7","102","27.9","51.4","0","0"],
    [32809,"2014-02-01T20:00:00","52","ND","ND","ND","ND","ND","0.6","96.9","27.3","53.6","0","0"],
    [32810,"2014-02-01T21:00:00","44","ND","ND","ND","ND","ND","1.1","109.2","27","56.3","0","0"],
    [32811,"2014-02-01T22:00:00","50","ND","ND","ND","ND","ND","0.8","87.8","26.1","60.7","0","0"],
    [32812,"2014-02-01T23:00:00","32","ND","ND","ND","ND","ND","0.6","155.9","25.6","63","0","0"],
    [32813,"2014-02-02T00:00:00","118","ND","ND","ND","ND","ND","0.7","119.5","25.1","66","0","0"],
    [32814,"2014-02-02T01:00:00","38","ND","ND","ND","ND","ND","0.6","142.3","24.3","69.6","0","0"],
    [32815,"2014-02-02T02:00:00","36","ND","ND","ND","ND","ND","0.7","119.8","23.8","72.7","0","0"],
    [32816,"2014-02-02T03:00:00","38","ND","ND","ND","ND","ND","0.4","144.5","23.5","76.6","0","0"],
    [32817,"2014-02-02T04:00:00","47","ND","ND","ND","ND","ND","0.6","104.5","23.4","76.9","0","0"],
    [32818,"2014-02-02T05:00:00","40","ND","ND","ND","ND","ND","0.8","20.7","22.8","79.2","0","0"],
    [32819,"2014-02-02T06:00:00","28","ND","ND","ND","ND","ND","0.9","192.7","22.4","81.8","0","0"],
    [32820,"2014-02-02T07:00:00","36","ND","ND","ND","ND","ND","0.6","42","22.4","81.9","5","0"],
    [32821,"2014-02-02T08:00:00","51","ND","ND","ND","ND","ND","0.6","48.1","22.6","82.3","105.1","0"],
    [32822,"2014-02-02T09:00:00","57","ND","ND","ND","ND","ND","1.1","175.5","23.6","78.8","174.6","0"],
    [32823,"2014-02-02T10:00:00","30","ND","ND","ND","ND","ND","0.6","167.4","25.2","69.3","512.2","0"],
    [32824,"2014-02-02T11:00:00","28","ND","ND","ND","ND","ND","0.9","86.5","27.1","59.8","695.6","0"],
    [32825,"2014-02-02T12:00:00","41","ND","ND","ND","ND","ND","0.4","2.2","28.4","56","615.8","0"],
    [32826,"2014-02-02T13:00:00","26","ND","ND","ND","ND","ND","0.4","297.4","28.8","52.1","344.2","0"],
    [32827,"2014-02-02T14:00:00","14","ND","ND","ND","ND","ND","3.1","272.3","27.8","56.4","453.2","0"],
    [32828,"2014-02-02T15:00:00","6","ND","ND","ND","ND","ND","2.9","272.5","28.6","50.6","369.8","0"],
    [32829,"2014-02-02T16:00:00","9","ND","ND","ND","ND","ND","3.1","274.8","28.2","51.1","310.1","0"],
    [32830,"2014-02-02T17:00:00","9","ND","ND","ND","ND","ND","2.3","274","27.9","50.8","176.6","0"],
    [32831,"2014-02-02T18:00:00","16","ND","ND","ND","ND","ND","1.4","283.2","27.6","50.6","69.8","0"],
    [32832,"2014-02-02T19:00:00","38","ND","ND","ND","ND","ND","1.8","109.1","26.2","59.4","0","0"],
    [32833,"2014-02-02T20:00:00","32","ND","ND","ND","ND","ND","1.7","155.7","24.2","69.5","0","0"],
    [32834,"2014-02-02T21:00:00","42","ND","ND","ND","ND","ND","1.2","157.3","23.3","74.1","0","0"],
    [32835,"2014-02-02T22:00:00","35","ND","ND","ND","ND","ND","0.6","282.1","23.3","75.3","0","0"],
    [32836,"2014-02-02T23:00:00","50","ND","ND","ND","ND","ND","0.2","322.6","23.5","74.5","0","0"],
    [32837,"2014-02-03T00:00:00","40","ND","ND","ND","ND","ND","0.3","289.6","23","77.1","0","0"],
    [32838,"2014-02-03T01:00:00","50","ND","ND","ND","ND","ND","0.3","1.3","22.4","79","0","0"],
    [32839,"2014-02-03T02:00:00","50","ND","ND","ND","ND","ND","0.7","94.8","22","82","0","0"],
    [32840,"2014-02-03T03:00:00","46","ND","ND","ND","ND","ND","0.4","250.4","21.6","84.2","0","0"],
    [32841,"2014-02-03T04:00:00","54","ND","ND","ND","ND","ND","0.5","342.9","21.3","84.2","0","0"],
    [32842,"2014-02-03T05:00:00","64","ND","ND","ND","ND","ND","0.8","181.6","21.3","84","0","0"],
    [32843,"2014-02-03T06:00:00","46","ND","ND","ND","ND","ND","0.3","265.4","21.1","83.1","0","0"],
    [32844,"2014-02-03T07:00:00","93","ND","ND","ND","ND","ND","0.8","28.4","20.8","83.7","14.2","0"],
    [32845,"2014-02-03T08:00:00","78","ND","ND","ND","ND","ND","1","23.4","20.6","89","54.4","0"],
    [32846,"2014-02-03T09:00:00","122","ND","ND","ND","ND","ND","0.4","74.5","22.1","82.9","168.8","0"],
    [32847,"2014-02-03T10:00:00","88","ND","ND","ND","ND","ND","0.4","186.7","24.2","70.4","364.8","0"],
    [32848,"2014-02-03T11:00:00","44","ND","ND","ND","ND","ND","0.6","123.2","27","58.3","675.7","0"],
    [32849,"2014-02-03T12:00:00","45","ND","ND","ND","ND","ND","1","150.2","28","54.2","486.9","0"],
    [32850,"2014-02-03T13:00:00","44","ND","ND","ND","ND","ND","0.9","144.3","28.6","52.1","477.7","0"],
    [32851,"2014-02-03T14:00:00","57","ND","ND","ND","ND","ND","1","330.1","29.4","50.6","506.2","0"],
    [32852,"2014-02-03T15:00:00","31","ND","ND","ND","ND","ND","1.3","316.5","30","47.9","496.3","0"],
    [32853,"2014-02-03T16:00:00","27","ND","ND","ND","ND","ND","3.2","280.1","30","46.1","479.8","0"],
    [32854,"2014-02-03T17:00:00","25","ND","ND","ND","ND","ND","2.8","272.9","29.5","46.2","270.3","0"],
    [32855,"2014-02-03T18:00:00","29","ND","ND","ND","ND","ND","1.8","258.3","28.6","48.7","78.3","0"],
    [32856,"2014-02-03T19:00:00","32","ND","ND","ND","ND","ND","0.7","230.6","27.4","52.3","0","0"],
    [32857,"2014-02-03T20:00:00","55","ND","ND","ND","ND","ND","0.2","163.5","26.9","54.3","0","0"],
    [32858,"2014-02-03T21:00:00","63","ND","ND","ND","ND","ND","0","218.4","26.1","57.5","0","0"],
    [32859,"2014-02-03T22:00:00","70","ND","ND","ND","ND","ND","0.8","130.3","24.6","67","0","0"],
    [32860,"2014-02-03T23:00:00","60","ND","ND","ND","ND","ND","0.2","194","24","70.3","0","0"],
    [32861,"2014-02-04T00:00:00","54","ND","ND","ND","ND","ND","0.1","100.8","23.8","71.1","0","0"],
    [32862,"2014-02-04T01:00:00","59","ND","ND","ND","ND","ND","0.5","271.7","22.9","73.6","0","0"],
    [32863,"2014-02-04T02:00:00","47","ND","ND","ND","ND","ND","0.5","213.2","22.6","74.3","0","0"],
    [32864,"2014-02-04T03:00:00","35","ND","ND","ND","ND","ND","0.4","275.1","22.3","76.5","0","0"],
    [32865,"2014-02-04T04:00:00","59","ND","ND","ND","ND","ND","0.3","61.2","22.4","77.2","0","0"],
    [32866,"2014-02-04T05:00:00","45","ND","ND","ND","ND","ND","0.3","297.7","22.2","79.1","0","0"],
    [32867,"2014-02-04T06:00:00","59","ND","ND","ND","ND","ND","0.2","259.6","22.3","80.5","0","0"],
    [32868,"2014-02-04T07:00:00","99","ND","ND","ND","ND","ND","0.4","1","22.1","80.2","8.2","0"],
    [32869,"2014-02-04T08:00:00","112","ND","ND","ND","ND","ND","0.5","16.6","22.7","76.8","110.9","0"],
    [32870,"2014-02-04T09:00:00","104","ND","ND","ND","ND","ND","1","35.3","24.3","71.9","340.9","0"],
    [32871,"2014-02-04T10:00:00","75","ND","ND","ND","ND","ND","1.4","129.3","26.5","62.4","521.5","0"],
    [32872,"2014-02-04T11:00:00","66","ND","ND","ND","ND","ND","1.7","147.6","27","60.7","367.6","0"],
    [32873,"2014-02-04T12:00:00","74","ND","ND","ND","ND","ND","0.8","331.9","27","60.2","355.5","0"],
    [32874,"2014-02-04T13:00:00","55","ND","ND","ND","ND","ND","1","201.9","28.9","53.1","601.7","0"],
    [32875,"2014-02-04T14:00:00","40","ND","ND","ND","ND","ND","0.8","255","29.2","51.4","439.1","0"],
    [32876,"2014-02-04T15:00:00","21","ND","ND","ND","ND","ND","3.2","272.9","30.2","46.1","630.2","0"],
    [32877,"2014-02-04T16:00:00","38","ND","ND","ND","ND","ND","4.5","279.2","29.3","47.1","464.8","0"],
    [32878,"2014-02-04T17:00:00","20","ND","ND","ND","ND","ND","2","264.9","29.6","46","238.1","0"],
    [32879,"2014-02-04T18:00:00","44","ND","ND","ND","ND","ND","0.9","231.7","28.6","49.3","50.3","0"],
    [32880,"2014-02-04T19:00:00","25","ND","ND","ND","ND","ND","1.5","225.6","27.1","54.9","0","0"],
    [32881,"2014-02-04T20:00:00","35","ND","ND","ND","ND","ND","1.5","145","26.8","56.4","0","0"],
    [32882,"2014-02-04T21:00:00","59","ND","ND","ND","ND","ND","1.5","70.3","25.2","67.6","0","0"],
    [32883,"2014-02-04T22:00:00","67","ND","ND","ND","ND","ND","0.7","353.2","24.3","70.9","0","0"],
    [32884,"2014-02-04T23:00:00","56","ND","ND","ND","ND","ND","0.3","325.9","23.9","72.3","0","0"],
    [32885,"2014-02-05T00:00:00","83","ND","ND","ND","ND","ND","0.3","7.1","23.4","76.3","0","0"],
    [32886,"2014-02-05T01:00:00","54","ND","ND","ND","ND","ND","0.6","268.4","23","77.6","0","0"],
    [32887,"2014-02-05T02:00:00","47","ND","ND","ND","ND","ND","0.6","282.5","23.1","76.2","0","0"],
    [32888,"2014-02-05T03:00:00","43","ND","ND","ND","ND","ND","0.5","99.3","23.3","76.3","0","0"],
    [32889,"2014-02-05T04:00:00","48","ND","ND","ND","ND","ND","0.8","113.5","22.2","85.1","0","0"],
    [32890,"2014-02-05T05:00:00","31","ND","ND","ND","ND","ND","1.6","154.9","22.1","84.7","0","0"],
    [32891,"2014-02-05T06:00:00","28","ND","ND","ND","ND","ND","1.7","180.4","21.9","83.2","0","0"],
    [32892,"2014-02-05T07:00:00","30","ND","ND","ND","ND","ND","0.8","180.1","21.8","82.4","7.3","0"],
    [32893,"2014-02-05T08:00:00","34","ND","ND","ND","ND","ND","1","168.6","22.5","80","116.4","0"],
    [32894,"2014-02-05T09:00:00","36","ND","ND","ND","ND","ND","2.4","158","23.4","74.4","230.3","0"],
    [32895,"2014-02-05T10:00:00","35","ND","ND","ND","ND","ND","2.4","147.6","24.5","69.1","374.2","0"],
    [32896,"2014-02-05T11:00:00","27","ND","ND","ND","ND","ND","1.3","183.2","24.9","66.6","249.9","0"],
    [32897,"2014-02-05T12:00:00","40","ND","ND","ND","ND","ND","1.6","179.3","26.2","62.7","517.7","0"],
    [32898,"2014-02-05T13:00:00","18","ND","ND","ND","ND","ND","2.2","183.7","27.3","57.7","537.9","0"],
    [32899,"2014-02-05T14:00:00","17","ND","ND","ND","ND","ND","1.6","189.6","28.6","51.5","739.8","0"],
    [32900,"2014-02-05T15:00:00","16","ND","ND","ND","ND","ND","0.5","226.7","28.9","50.1","246.2","0"],
    [32901,"2014-02-05T16:00:00","55","ND","ND","ND","ND","ND","2.1","2.1","24.6","72.6","109.9","1.02"],
    [32902,"2014-02-05T17:00:00","51","ND","ND","ND","ND","ND","2.8","30.2","23.4","78.3","132","0"],
    [32903,"2014-02-05T18:00:00","36","ND","ND","ND","ND","ND","1.5","25.2","21.4","87.3","7.2","0.25"],
    [32904,"2014-02-05T19:00:00","41","ND","ND","ND","ND","ND","1.1","48.8","21","88","0","0"],
    [32905,"2014-02-05T20:00:00","64","ND","ND","ND","ND","ND","0.8","108.5","21.2","88","0","0"],
    [32906,"2014-02-05T21:00:00","28","ND","ND","ND","ND","ND","0.9","106.3","21.3","84.3","0","0"],
    [32907,"2014-02-05T22:00:00","38","ND","ND","ND","ND","ND","0.7","236.2","21.6","82.2","0","0"],
    [32908,"2014-02-05T23:00:00","39","ND","ND","ND","ND","ND","0.4","324.1","21.5","83.7","0","0"],
    [32909,"2014-02-06T00:00:00","35","ND","ND","ND","ND","ND","0.4","166.5","21.3","84.5","0","0"],
    [32910,"2014-02-06T01:00:00","159","ND","ND","ND","ND","ND","0.8","35","20.2","88.9","0","0"],
    [32911,"2014-02-06T02:00:00","49","ND","ND","ND","ND","ND","0.7","53.7","19.9","91","0","0"],
    [32912,"2014-02-06T03:00:00","39","ND","ND","ND","ND","ND","0.8","54.4","19.7","91.5","0","0"],
    [32913,"2014-02-06T04:00:00","61","ND","ND","ND","ND","ND","0.6","11.8","19.7","91.3","0","0"],
    [32914,"2014-02-06T05:00:00","ND","ND","ND","ND","ND","ND","0.7","55.2","19.8","92.5","0","0"],
    [32915,"2014-02-06T06:00:00","ND","ND","ND","ND","ND","ND","1.1","49.5","19.5","92.8","0","0"],
    [32916,"2014-02-06T07:00:00","71","ND","ND","ND","ND","ND","0.7","47.5","19.3","93.8","4.2","0"],
    [32917,"2014-02-06T08:00:00","82","ND","ND","ND","ND","ND","1.2","51.9","19.2","91.9","29.4","0"],
    [32918,"2014-02-06T09:00:00","73","ND","ND","ND","ND","ND","0.7","38.5","19.4","92.3","125.8","0"],
    [32919,"2014-02-06T10:00:00","69","ND","ND","ND","ND","ND","0.8","226.9","21.6","80.7","310.6","0"],
    [32920,"2014-02-06T11:00:00","74","ND","ND","ND","ND","ND","1","51.5","23.7","71","558.4","0"],
    [32921,"2014-02-06T12:00:00","60","ND","ND","ND","ND","ND","1.5","50.6","24.2","69.5","502.8","0"],
    [32922,"2014-02-06T13:00:00","50","ND","ND","ND","ND","ND","1.1","42.4","25","65.3","581.9","0"],
    [32923,"2014-02-06T14:00:00","55","ND","ND","ND","ND","ND","1.4","55.2","25.8","61.8","326.8","0"],
    [32924,"2014-02-06T15:00:00","55","ND","ND","ND","ND","ND","0.5","13.2","26.2","60.1","316.1","0"],
    [32925,"2014-02-06T16:00:00","ND","ND","ND","ND","ND","ND","0.8","302.2","26.4","59.5","216","0"],
    [32926,"2014-02-06T17:00:00","ND","ND","ND","ND","ND","ND","0.9","276.4","26.7","59.7","95.9","0"],
    [32927,"2014-02-06T18:00:00","101","ND","ND","ND","ND","ND","0.5","61","26.5","60.8","49.3","0"],
    [32928,"2014-02-06T19:00:00","118","ND","ND","ND","ND","ND","0.2","317.9","25.1","67.9","0","0"],
    [32929,"2014-02-06T20:00:00","91","ND","ND","ND","ND","ND","0.8","244.5","24.1","69.1","0","0"],
    [32930,"2014-02-06T21:00:00","82","ND","ND","ND","ND","ND","0.4","279.5","23.5","70.1","0","0"],
    [32931,"2014-02-06T22:00:00","77","ND","ND","ND","ND","ND","0.1","28.2","23","72.5","0","0"],
    [32932,"2014-02-06T23:00:00","78","ND","ND","ND","ND","ND","0.2","243.8","22.2","76","0","0"],
    [32933,"2014-02-07T00:00:00","82","ND","ND","ND","ND","ND","0.4","237.8","21.7","79.1","0","0"],
    [32934,"2014-02-07T01:00:00","65","ND","ND","ND","ND","ND","0.1","283","21","82.5","0","0"],
    [32935,"2014-02-07T02:00:00","73","ND","ND","ND","ND","ND","0.2","218.6","20.9","82.9","0","0"],
    [32936,"2014-02-07T03:00:00","66","ND","ND","ND","ND","ND","0.4","303.7","20.4","84.7","0","0"],
    [32937,"2014-02-07T04:00:00","58","ND","ND","ND","ND","ND","0.4","245.7","20","84.8","0","0"],
    [32938,"2014-02-07T05:00:00","87","ND","ND","ND","ND","ND","0.2","36.8","20.4","83.8","0","0"],
    [32939,"2014-02-07T06:00:00","85","ND","ND","ND","ND","ND","0.1","80.1","20.1","85","0","0"],
    [32940,"2014-02-07T07:00:00","95","ND","ND","ND","ND","ND","0.3","265.5","19.6","86","13.1","0"],
    [32941,"2014-02-07T08:00:00","112","ND","ND","ND","ND","ND","0.2","56.5","20.7","82.5","66.9","0"],
    [32942,"2014-02-07T09:00:00","178","ND","ND","ND","ND","ND","0.6","25.1","21.6","81.3","276.7","0"],
    [32943,"2014-02-07T10:00:00","107","ND","ND","ND","ND","ND","0.8","120.2","24.9","64.7","492.7","0"],
    [32944,"2014-02-07T11:00:00","93","ND","ND","ND","ND","ND","0.3","154.9","26.3","59.1","580.2","0"],
    [32945,"2014-02-07T12:00:00","64","ND","ND","ND","ND","ND","0.2","42.7","28","52.5","698.6","0"],
    [32946,"2014-02-07T13:00:00","75","ND","ND","ND","ND","ND","1.2","78","28.9","50.2","546.1","0"],
    [32947,"2014-02-07T14:00:00","93","ND","ND","ND","ND","ND","0.3","333.9","29.8","47.7","432.5","0"],
    [32948,"2014-02-07T15:00:00","68","ND","ND","ND","ND","ND","0.7","95.7","30.2","46.3","505.7","0"],
    [32949,"2014-02-07T16:00:00","56","ND","ND","ND","ND","ND","1.3","345.9","30.4","46.5","328.8","0"],
    [32950,"2014-02-07T17:00:00","46","ND","ND","ND","ND","ND","2.1","269.9","29.9","48.3","237","0"],
    [32951,"2014-02-07T18:00:00","52","ND","ND","ND","ND","ND","2.1","263.7","29","49.8","90.1","0"],
    [32952,"2014-02-07T19:00:00","46","ND","ND","ND","ND","ND","0.5","191.1","28","50.9","4.8","0"],
    [32953,"2014-02-07T20:00:00","94","ND","ND","ND","ND","ND","0.1","194.5","26.8","55","0","0"],
    [32954,"2014-02-07T21:00:00","111","ND","ND","ND","ND","ND","0.3","100.4","26.1","58.4","0","0"],
    [32955,"2014-02-07T22:00:00","89","ND","ND","ND","ND","ND","0.4","114","25.2","62.4","0","0"],
    [32956,"2014-02-07T23:00:00","82","ND","ND","ND","ND","ND","0.5","149.4","24","68.6","0","0"],
    [32957,"2014-02-08T00:00:00","96","ND","ND","ND","ND","ND","0.2","117.1","23.3","72","0","0"],
    [32958,"2014-02-08T01:00:00","65","ND","ND","ND","ND","ND","0.3","222.9","22.6","75.4","0","0"],
    [32959,"2014-02-08T02:00:00","57","ND","ND","ND","ND","ND","0.3","270.5","22.5","76.6","0","0"],
    [32960,"2014-02-08T03:00:00","63","ND","ND","ND","ND","ND","0.4","5.3","21.8","79.3","0","0"],
    [32961,"2014-02-08T04:00:00","86","ND","ND","ND","ND","ND","0.2","307.2","21.6","80.3","0","0"],
    [32962,"2014-02-08T05:00:00","123","ND","ND","ND","ND","ND","0.3","355.4","21.5","81.1","0","0"],
    [32963,"2014-02-08T06:00:00","94","ND","ND","ND","ND","ND","0.2","185.8","21.1","82.9","0","0"],
    [32964,"2014-02-08T07:00:00","70","ND","ND","ND","ND","ND","0.4","245.8","20.9","83.2","8.8","0"],
    [32965,"2014-02-08T08:00:00","84","ND","ND","ND","ND","ND","0.5","236.7","22.1","79","116.9","0"],
    [32966,"2014-02-08T09:00:00","103","ND","ND","ND","ND","ND","0.7","82.9","24.5","68.8","309.6","0"],
    [32967,"2014-02-08T10:00:00","94","ND","ND","ND","ND","ND","1.1","120.9","25.5","64.7","431.6","0"],
    [32968,"2014-02-08T11:00:00","68","ND","ND","ND","ND","ND","0.8","45.4","27.2","57.3","660.7","0"],
    [32969,"2014-02-08T12:00:00","59","ND","ND","ND","ND","ND","1.3","102.8","28.1","54.6","682.9","0"],
    [32970,"2014-02-08T13:00:00","64","ND","ND","ND","ND","ND","0.4","7.6","28.9","52.2","531.2","0"],
    [32971,"2014-02-08T14:00:00","59","ND","ND","ND","ND","ND","1","335.8","30.4","47.3","792.1","0"],
    [32972,"2014-02-08T15:00:00","22","ND","ND","ND","ND","ND","0.9","312.9","31.2","43.2","500.3","0"],
    [32973,"2014-02-08T16:00:00","44","ND","ND","ND","ND","ND","3.5","277.3","29.5","46.2","172.7","0"],
    [32974,"2014-02-08T17:00:00","30","ND","ND","ND","ND","ND","3.2","271.5","28.9","47.9","171.2","0"],
    [32975,"2014-02-08T18:00:00","38","ND","ND","ND","ND","ND","4.3","271.5","27.8","49.3","59.6","0"],
    [32976,"2014-02-08T19:00:00","33","ND","ND","ND","ND","ND","0.5","272.1","27.7","49.7","0","0"],
    [32977,"2014-02-08T20:00:00","39","ND","ND","ND","ND","ND","1.7","144.3","26.7","52.9","0","0"],
    [32978,"2014-02-08T21:00:00","33","ND","ND","ND","ND","ND","1.7","229.3","26.4","53.3","0","0"],
    [32979,"2014-02-08T22:00:00","41","ND","ND","ND","ND","ND","0.4","91.8","25.9","56.9","0","0"],
    [32980,"2014-02-08T23:00:00","48","ND","ND","ND","ND","ND","1.1","138.9","25.3","61.7","0","0"],
    [32981,"2014-02-09T00:00:00","52","ND","ND","ND","ND","ND","0.7","109.8","24.6","66.3","0","0"],
    [32982,"2014-02-09T01:00:00","50","ND","ND","ND","ND","ND","1.2","148.9","24.3","70","0","0"],
    [32983,"2014-02-09T02:00:00","58","ND","ND","ND","ND","ND","1","131.5","23.6","75.3","0","0"],
    [32984,"2014-02-09T03:00:00","65","ND","ND","ND","ND","ND","1","138","23.6","77.6","0","0"],
    [32985,"2014-02-09T04:00:00","65","ND","ND","ND","ND","ND","0.3","145","23","81.6","0","0"],
    [32986,"2014-02-09T05:00:00","62","ND","ND","ND","ND","ND","0.5","355","22.5","80.8","0","0"],
    [32987,"2014-02-09T06:00:00","64","ND","ND","ND","ND","ND","0.5","344.8","22.2","82.1","0","0"],
    [32988,"2014-02-09T07:00:00","72","ND","ND","ND","ND","ND","0.4","53.8","22.1","82.6","5.8","0"],
    [32989,"2014-02-09T08:00:00","90","ND","ND","ND","ND","ND","0.6","33.7","22.4","83.1","114","0"],
    [32990,"2014-02-09T09:00:00","64","ND","ND","ND","ND","ND","0.3","84.3","24.6","73.1","354.1","0"],
    [32991,"2014-02-09T10:00:00","63","ND","ND","ND","ND","ND","0.8","59.5","25.9","68.3","360.1","0"],
    [32992,"2014-02-09T11:00:00","50","ND","ND","ND","ND","ND","0.3","294.8","26.4","65.3","329","0"],
    [32993,"2014-02-09T12:00:00","52","ND","ND","ND","ND","ND","0.5","119.3","28.2","55.5","474.7","0"],
    [32994,"2014-02-09T13:00:00","46","ND","ND","ND","ND","ND","0.2","288","28.6","53.1","372.1","0"],
    [32995,"2014-02-09T14:00:00","33","ND","ND","ND","ND","ND","0.5","337.4","29.8","48.5","718.9","0"],
    [32996,"2014-02-09T15:00:00","38","ND","ND","ND","ND","ND","0.5","71.1","31.2","44.8","649.3","0"],
    [32997,"2014-02-09T16:00:00","21","ND","ND","ND","ND","ND","3.4","275.5","30.4","46.2","369.2","0"],
    [32998,"2014-02-09T17:00:00","20","ND","ND","ND","ND","ND","3.5","276.6","29.9","46.2","299.8","0"],
    [32999,"2014-02-09T18:00:00","20","ND","ND","ND","ND","ND","1.5","288.4","28.7","48","45","0"],
    [33000,"2014-02-09T19:00:00","17","ND","ND","ND","ND","ND","0.2","33.8","28.2","48.7","0","0"],
    [33001,"2014-02-09T20:00:00","44","ND","ND","ND","ND","ND","0.9","113.7","27.5","52.2","0","0"],
    [33002,"2014-02-09T21:00:00","42","ND","ND","ND","ND","ND","0.7","73.6","27.1","54.2","0","0"],
    [33003,"2014-02-09T22:00:00","26","ND","ND","ND","ND","ND","1.9","139.7","26.5","57.3","0","0"],
    [33004,"2014-02-09T23:00:00","33","ND","ND","ND","ND","ND","1.1","191.4","25.6","63.4","0","0"],
    [33005,"2014-02-10T00:00:00","34","ND","ND","ND","ND","ND","0.6","323.5","24.3","68.2","0","0"],
    [33006,"2014-02-10T01:00:00","47","ND","ND","ND","ND","ND","0.8","14.2","23.5","72.3","0","0"],
    [33007,"2014-02-10T02:00:00","38","ND","ND","ND","ND","ND","0.3","287.2","22.9","74.8","0","0"],
    [33008,"2014-02-10T03:00:00","23","ND","ND","ND","ND","ND","0.4","266.7","22.4","76.1","0","0"],
    [33009,"2014-02-10T04:00:00","25","ND","ND","ND","ND","ND","0.2","289.1","22.2","77.1","0","0"],
    [33010,"2014-02-10T05:00:00","40","ND","ND","ND","ND","ND","0.3","157.3","22.9","73.5","0","0"],
    [33011,"2014-02-10T06:00:00","56","ND","ND","ND","ND","ND","0.4","28.5","22.8","75.6","0","0"],
    [33012,"2014-02-10T07:00:00","63","ND","ND","ND","ND","ND","0.7","173.4","22.5","77.4","6.9","0"],
    [33013,"2014-02-10T08:00:00","63","ND","ND","ND","ND","ND","1.2","219.3","23.2","75.2","104","0"],
    [33014,"2014-02-10T09:00:00","50","ND","ND","ND","ND","ND","0.9","153.7","25","66.8","303.7","0"],
    [33015,"2014-02-10T10:00:00","49","ND","ND","ND","ND","ND","0.7","126.5","27.1","58.3","561.5","0"],
    [33016,"2014-02-10T11:00:00","46","ND","ND","ND","ND","ND","1.8","91.8","28.3","55.4","709.8","0"],
    [33017,"2014-02-10T12:00:00","38","ND","ND","ND","ND","ND","1.3","130.1","29.3","51.5","701.1","0"],
    [33018,"2014-02-10T13:00:00","60","ND","ND","ND","ND","ND","1","169.1","30.5","48.5","822","0"],
    [33019,"2014-02-10T14:00:00","61","ND","ND","ND","ND","ND","1","66.3","31","47.2","675.4","0"],
    [33020,"2014-02-10T15:00:00","51","ND","ND","ND","ND","ND","0.8","333.4","31.5","44.8","499.6","0"],
    [33021,"2014-02-10T16:00:00","31","ND","ND","ND","ND","ND","2.9","280.1","29.8","48.9","196.4","0"],
    [33022,"2014-02-10T17:00:00","30","ND","ND","ND","ND","ND","2.1","274.5","29.7","48.1","183.7","0"],
    [33023,"2014-02-10T18:00:00","28","ND","ND","ND","ND","ND","1.2","267.8","29.2","48","59.2","0"],
    [33024,"2014-02-10T19:00:00","29","ND","ND","ND","ND","ND","0.6","259.3","28.4","49.8","0","0"],
    [33025,"2014-02-10T20:00:00","53","ND","ND","ND","ND","ND","0.6","128.5","27.5","54.6","0","0"],
    [33026,"2014-02-10T21:00:00","47","ND","ND","ND","ND","ND","0.5","95.9","26.8","57.4","0","0"],
    [33027,"2014-02-10T22:00:00","48","ND","ND","ND","ND","ND","0.3","232.3","26.3","60.5","0","0"],
    [33028,"2014-02-10T23:00:00","72","ND","ND","ND","ND","ND","1.3","124.5","25.4","64.3","0","0"],
    [33029,"2014-02-11T00:00:00","47","ND","ND","ND","ND","ND","0.5","124.7","24.8","67.5","0","0"],
    [33030,"2014-02-11T01:00:00","71","ND","ND","ND","ND","ND","0.5","12.1","23.7","72.4","0","0"],
    [33031,"2014-02-11T02:00:00","42","ND","ND","ND","ND","ND","0.4","254.6","23.3","73.8","0","0"],
    [33032,"2014-02-11T03:00:00","64","ND","ND","ND","ND","ND","0","80.2","23","75.5","0","0"],
    [33033,"2014-02-11T04:00:00","65","ND","ND","ND","ND","ND","0.1","349.9","22.6","77.7","0","0"],
    [33034,"2014-02-11T05:00:00","97","ND","ND","ND","ND","ND","0.1","259.1","22.7","77.7","0","0"],
    [33035,"2014-02-11T06:00:00","91","ND","ND","ND","ND","ND","0.3","4.2","22.4","79.6","0","0"],
    [33036,"2014-02-11T07:00:00","81","ND","ND","ND","ND","ND","0.1","298.7","22.2","80","15.2","0"],
    [33037,"2014-02-11T08:00:00","128","ND","ND","ND","ND","ND","0.3","68.9","23.4","75.3","144.9","0"],
    [33038,"2014-02-11T09:00:00","108","ND","ND","ND","ND","ND","1","62.6","24.8","69.5","235.5","0"],
    [33039,"2014-02-11T10:00:00","77","ND","ND","ND","ND","ND","1.2","83.6","25.3","69.8","275.7","0"],
    [33040,"2014-02-11T11:00:00","66","ND","ND","ND","ND","ND","1.1","104.8","27.1","61.9","762.9","0"],
    [33041,"2014-02-11T12:00:00","72","ND","ND","ND","ND","ND","1.7","122.7","28.3","56.7","569.5","0"],
    [33042,"2014-02-11T13:00:00","91","ND","ND","ND","ND","ND","1.7","174.8","29.6","52.9","753.1","0"],
    [33043,"2014-02-11T14:00:00","87","ND","ND","ND","ND","ND","0.4","106.5","30.1","50.3","375.6","0"],
    [33044,"2014-02-11T15:00:00","57","ND","ND","ND","ND","ND","0.9","258.1","29.8","50.6","302.1","0"],
    [33045,"2014-02-11T16:00:00","67","ND","ND","ND","ND","ND","1.2","197.2","30.8","48.6","322.3","0"],
    [33046,"2014-02-11T17:00:00","53","ND","ND","ND","ND","ND","1.2","271.5","30","51.2","148.1","0"],
    [33047,"2014-02-11T18:00:00","51","ND","ND","ND","ND","ND","1.1","296.2","29","53.2","38.8","0"],
    [33048,"2014-02-11T19:00:00","49","ND","ND","ND","ND","ND","0.5","248.6","28.3","54.2","0","0"],
    [33049,"2014-02-11T20:00:00","47","ND","ND","ND","ND","ND","0.5","142.7","27.9","55.8","0","0"],
    [33050,"2014-02-11T21:00:00","35","ND","ND","ND","ND","ND","0.4","161.4","27.3","56.7","0","0"],
    [33051,"2014-02-11T22:00:00","41","ND","ND","ND","ND","ND","0.9","270.9","26.7","58.8","0","0"],
    [33052,"2014-02-11T23:00:00","13","ND","ND","ND","ND","ND","1.4","221.8","26.4","55.7","0","0"],
    [33053,"2014-02-12T00:00:00","19","ND","ND","ND","ND","ND","1.2","100.7","25.5","62.1","0","0"],
    [33054,"2014-02-12T01:00:00","8","ND","ND","ND","ND","ND","0.8","168.2","23.8","73.2","0","0"],
    [33055,"2014-02-12T02:00:00","10","ND","ND","ND","ND","ND","1.9","176.3","23.1","76.2","0","0"],
    [33056,"2014-02-12T03:00:00","6","ND","ND","ND","ND","ND","2.1","198.3","23","73","0","0"],
    [33057,"2014-02-12T04:00:00","9","ND","ND","ND","ND","ND","1.4","154.6","23.1","73","0","0"],
    [33058,"2014-02-12T05:00:00","19","ND","ND","ND","ND","ND","0.3","34.6","22.6","77.2","0","0"],
    [33059,"2014-02-12T06:00:00","30","ND","ND","ND","ND","ND","0.3","177.5","22.1","82.3","0","0"],
    [33060,"2014-02-12T07:00:00","27","ND","ND","ND","ND","ND","0.4","170.7","22.4","81","6.4","0"],
    [33061,"2014-02-12T08:00:00","83","ND","ND","ND","ND","ND","0.2","82.3","23.2","78.2","123.6","0"],
    [33062,"2014-02-12T09:00:00","68","ND","ND","ND","ND","ND","0.6","107.1","25.5","67.3","354.9","0"],
    [33063,"2014-02-12T10:00:00","49","ND","ND","ND","ND","ND","1.8","112.9","26.5","63.6","570.1","0"],
    [33064,"2014-02-12T11:00:00","38","ND","ND","ND","ND","ND","0.5","56.2","27.3","59.5","358","0"],
    [33065,"2014-02-12T12:00:00","41","ND","ND","ND","ND","ND","0.9","60.5","28","56.2","605.1","0"],
    [33066,"2014-02-12T13:00:00","40","ND","ND","ND","ND","ND","1.3","82.9","29.7","50","853.5","0"],
    [33067,"2014-02-12T14:00:00","48","ND","ND","ND","ND","ND","0.5","42.6","30.8","46.4","773.9","0"],
    [33068,"2014-02-12T15:00:00","44","ND","ND","ND","ND","ND","1","359","30.9","45.7","326.3","0"],
    [33069,"2014-02-12T16:00:00","28","ND","ND","ND","ND","ND","3","272","31","45.6","429.6","0"],
    [33070,"2014-02-12T17:00:00","28","ND","ND","ND","ND","ND","3.8","273.2","30.4","46.3","315.6","0"],
    [33071,"2014-02-12T18:00:00","27","ND","ND","ND","ND","ND","3.2","276.2","28.8","49.4","60.8","0"],
    [33072,"2014-02-12T19:00:00","22","ND","ND","ND","ND","ND","1.5","258.9","28.5","50.2","0","0"],
    [33073,"2014-02-12T20:00:00","47","ND","ND","ND","ND","ND","1.3","118.9","28.1","53.3","0","0"],
    [33074,"2014-02-12T21:00:00","30","ND","ND","ND","ND","ND","0.5","222.4","26.5","61.9","0","0"],
    [33075,"2014-02-12T22:00:00","25","ND","ND","ND","ND","ND","0.1","321.3","26.1","63.9","0","0"],
    [33076,"2014-02-12T23:00:00","45","ND","ND","ND","ND","ND","1.4","121.5","26.1","63.2","0","0"],
    [33077,"2014-02-13T00:00:00","39","ND","ND","ND","ND","ND","0.3","194.3","25.4","66.4","0","0"],
    [33078,"2014-02-13T01:00:00","27","ND","ND","ND","ND","ND","1.3","146.6","25.2","67","0","0"],
    [33079,"2014-02-13T02:00:00","38","ND","ND","ND","ND","ND","0.8","231.4","24.5","74","0","0"],
    [33080,"2014-02-13T03:00:00","39","ND","ND","ND","ND","ND","1.1","224.8","23","82.7","0","5.08"],
    [33081,"2014-02-13T04:00:00","9","ND","ND","ND","ND","ND","1.3","184.6","21.3","90.3","0","3.56"],
    [33082,"2014-02-13T05:00:00","13","ND","ND","ND","ND","ND","0.9","266","20.8","94.1","0","20.57"],
    [33083,"2014-02-13T06:00:00","12","ND","ND","ND","ND","ND","0.6","56.3","21","95","0","1.02"],
    [33084,"2014-02-13T07:00:00","31","ND","ND","ND","ND","ND","0.3","45.8","21.1","95.2","10.2","0"],
    [33085,"2014-02-13T08:00:00","31","ND","ND","ND","ND","ND","0.3","88.6","21.6","94.2","126","0"],
    [33086,"2014-02-13T09:00:00","37","ND","ND","ND","ND","ND","1.2","56.9","23.3","85.8","387.4","0.25"],
    [33087,"2014-02-13T10:00:00","37","ND","ND","ND","ND","ND","1.1","67","25.1","74.6","527.4","0"],
    [33088,"2014-02-13T11:00:00","51","ND","ND","ND","ND","ND","1.4","134.1","26.3","68.2","557.5","0"],
    [33089,"2014-02-13T12:00:00","41","ND","ND","ND","ND","ND","1.7","147","27.4","62.6","651.8","0"],
    [33090,"2014-02-13T13:00:00","24","ND","ND","ND","ND","ND","2.2","289.4","26.4","64.7","320.2","0.51"],
    [33091,"2014-02-13T14:00:00","22","ND","ND","ND","ND","ND","0.8","305.1","27.2","61.9","320.9","0"],
    [33092,"2014-02-13T15:00:00","17","ND","ND","ND","ND","ND","1","258.2","28.8","54.5","440.9","0"],
    [33093,"2014-02-13T16:00:00","30","ND","ND","ND","ND","ND","4.8","281.5","28.4","53.1","438.7","0"],
    [33094,"2014-02-13T17:00:00","27","ND","ND","ND","ND","ND","2.6","298.4","28.1","52.2","215.8","0"],
    [33095,"2014-02-13T18:00:00","47","ND","ND","ND","ND","ND","2.4","96.4","25.9","65.3","5.2","0"],
    [33096,"2014-02-13T19:00:00","48","ND","ND","ND","ND","ND","1.5","168.2","24","73.7","0","0"],
    [33097,"2014-02-13T20:00:00","34","ND","ND","ND","ND","ND","1.7","184.5","23.6","77.7","0","0"],
    [33098,"2014-02-13T21:00:00","40","ND","ND","ND","ND","ND","2.6","174","23.4","76.4","0","0.25"],
    [33099,"2014-02-13T22:00:00","17","ND","ND","ND","ND","ND","0.5","278.3","22.7","81.7","0","0.25"],
    [33100,"2014-02-13T23:00:00","31","ND","ND","ND","ND","ND","1.4","28.5","21.4","91.7","0","6.86"],
    [33101,"2014-02-14T00:00:00","21","ND","ND","ND","ND","ND","0.9","8.4","20.8","96.4","0","1.78"],
    [33102,"2014-02-14T01:00:00","23","ND","ND","ND","ND","ND","0.4","313.2","20.9","96.2","0","0.25"],
    [33103,"2014-02-14T02:00:00","34","ND","ND","ND","ND","ND","0.4","221","21.1","94.7","0","0"],
    [33104,"2014-02-14T03:00:00","38","ND","ND","ND","ND","ND","0.4","112.6","21.1","93.9","0","0"],
    [33105,"2014-02-14T04:00:00","28","ND","ND","ND","ND","ND","0.7","103","20.9","93.2","0","0.25"],
    [33106,"2014-02-14T05:00:00","29","ND","ND","ND","ND","ND","0.5","199.8","20.8","91.7","0","0"],
    [33107,"2014-02-14T06:00:00","43","ND","ND","ND","ND","ND","0.2","8.5","20.9","92.9","0","1.27"],
    [33108,"2014-02-14T07:00:00","53","ND","ND","ND","ND","ND","0.4","59.8","20.8","95","0","0"],
    [33109,"2014-02-14T08:00:00","66","ND","ND","ND","ND","ND","0","307.5","21.1","94.7","56.2","0"],
    [33110,"2014-02-14T09:00:00","65","ND","ND","ND","ND","ND","0.6","170","21.9","89.1","46.5","0.25"],
    [33111,"2014-02-14T10:00:00","75","ND","ND","ND","ND","ND","0.3","266.5","22.1","89","195.7","0.76"],
    [33112,"2014-02-14T11:00:00","65","ND","ND","ND","ND","ND","0.5","37.5","24.5","74","608.6","0"],
    [33113,"2014-02-14T12:00:00","52","ND","ND","ND","ND","ND","1","101.8","26.5","64.1","832.1","0"],
    [33114,"2014-02-14T13:00:00","65","ND","ND","ND","ND","ND","0.8","114.4","27.8","58.9","641","0"],
    [33115,"2014-02-14T14:00:00","56","ND","ND","ND","ND","ND","0.5","26.4","28.5","54.6","686.6","0"],
    [33116,"2014-02-14T15:00:00","39","ND","ND","ND","ND","ND","0.9","336.3","28.2","53.4","133.9","0"],
    [33117,"2014-02-14T16:00:00","24","ND","ND","ND","ND","ND","2.5","278.5","28.5","51.4","382","0"],
    [33118,"2014-02-14T17:00:00","24","ND","ND","ND","ND","ND","1.5","314","29.1","48.5","295.1","0"],
    [33119,"2014-02-14T18:00:00","56","ND","ND","ND","ND","ND","2.2","39.4","27.7","58.1","119.5","0"],
    [33120,"2014-02-14T19:00:00","47","ND","ND","ND","ND","ND","0.9","54.8","25.8","67.6","0","0"],
    [33121,"2014-02-14T20:00:00","63","ND","ND","ND","ND","ND","0.3","208","24.8","71.2","0","0"],
    [33122,"2014-02-14T21:00:00","62","ND","ND","ND","ND","ND","0.1","218.7","24.3","70.8","0","0"],
    [33123,"2014-02-14T22:00:00","71","ND","ND","ND","ND","ND","0.4","278.1","23.8","75.6","0","0"],
    [33124,"2014-02-14T23:00:00","64","ND","ND","ND","ND","ND","0.2","323.9","23.2","75.6","0","0"],
    [33125,"2014-02-15T00:00:00","62","ND","ND","ND","ND","ND","0.4","119","22.8","78.3","0","0"],
    [33126,"2014-02-15T01:00:00","61","ND","ND","ND","ND","ND","0.6","257.9","22.4","81.6","0","0"],
    [33127,"2014-02-15T02:00:00","51","ND","ND","ND","ND","ND","0.5","243.6","22.1","82.7","0","0"],
    [33128,"2014-02-15T03:00:00","43","ND","ND","ND","ND","ND","0.4","328.6","21.8","81.9","0","0"],
    [33129,"2014-02-15T04:00:00","53","ND","ND","ND","ND","ND","0.3","71.7","21.4","82.6","0","0"],
    [33130,"2014-02-15T05:00:00","60","ND","ND","ND","ND","ND","0.3","327.7","21.2","84.3","0","0"],
    [33131,"2014-02-15T06:00:00","68","ND","ND","ND","ND","ND","0.1","70.9","21.1","84.9","0","0"],
    [33132,"2014-02-15T07:00:00","89","ND","ND","ND","ND","ND","0.2","355.9","20.9","86.5","10.8","0"],
    [33133,"2014-02-15T08:00:00","120","ND","ND","ND","ND","ND","0.2","151.7","22","81.9","158.3","0"],
    [33134,"2014-02-15T09:00:00","90","ND","ND","ND","ND","ND","0.6","139.1","24.6","70.4","382.7","0"],
    [33135,"2014-02-15T10:00:00","88","ND","ND","ND","ND","ND","1","46.9","25.6","66.6","469.8","0"],
    [33136,"2014-02-15T11:00:00","59","ND","ND","ND","ND","ND","1.1","38.2","26.8","61.9","613.1","0"],
    [33137,"2014-02-15T12:00:00","56","ND","ND","ND","ND","ND","1.2","84.8","28.1","56.9","596.2","0"],
    [33138,"2014-02-15T13:00:00","62","ND","ND","ND","ND","ND","1.3","26.7","28.8","55","631.1","0"],
    [33139,"2014-02-15T14:00:00","39","ND","ND","ND","ND","ND","1","1.2","29.8","50.6","573","0"],
    [33140,"2014-02-15T15:00:00","31","ND","ND","ND","ND","ND","0.7","15.7","30.1","48.2","408","0"],
    [33141,"2014-02-15T16:00:00","22","ND","ND","ND","ND","ND","2.4","284.5","30.6","45.9","404","0"],
    [33142,"2014-02-15T17:00:00","25","ND","ND","ND","ND","ND","2.8","268.8","30.3","45.8","303.8","0"],
    [33143,"2014-02-15T18:00:00","33","ND","ND","ND","ND","ND","2.1","290.8","29.3","47","96.6","0"],
    [33144,"2014-02-15T19:00:00","33","ND","ND","ND","ND","ND","0.8","269.3","28.2","49","0","0"],
    [33145,"2014-02-15T20:00:00","59","ND","ND","ND","ND","ND","0.7","111.9","27.5","52.9","0","0"],
    [33146,"2014-02-15T21:00:00","48","ND","ND","ND","ND","ND","0.2","83.9","26.9","55.8","0","0"],
    [33147,"2014-02-15T22:00:00","55","ND","ND","ND","ND","ND","0.8","118.8","25.8","62.9","0","0"],
    [33148,"2014-02-15T23:00:00","59","ND","ND","ND","ND","ND","0.3","164.1","24.7","69.1","0","0"],
    [33149,"2014-02-16T00:00:00","54","ND","ND","ND","ND","ND","0.2","0.5","24.2","71.1","0","0"],
    [33150,"2014-02-16T01:00:00","46","ND","ND","ND","ND","ND","0.7","224.4","23.8","73.1","0","0"],
    [33151,"2014-02-16T02:00:00","47","ND","ND","ND","ND","ND","0.2","39.7","23.4","75.2","0","0"],
    [33152,"2014-02-16T03:00:00","46","ND","ND","ND","ND","ND","0.3","273.8","22.5","79.2","0","0"],
    [33153,"2014-02-16T04:00:00","73","ND","ND","ND","ND","ND","0.2","4.9","22.8","78.4","0","0"],
    [33154,"2014-02-16T05:00:00","50","ND","ND","ND","ND","ND","0.4","19.4","22.3","81.5","0","0"],
    [33155,"2014-02-16T06:00:00","55","ND","ND","ND","ND","ND","0.3","214.2","22.2","82.4","0","0"],
    [33156,"2014-02-16T07:00:00","52","ND","ND","ND","ND","ND","0","141.6","22.5","80.5","0","0"],
    [33157,"2014-02-16T08:00:00","49","ND","ND","ND","ND","ND","1","230.8","22.6","84.1","106.7","0.76"],
    [33158,"2014-02-16T09:00:00","44","ND","ND","ND","ND","ND","1","139.6","24.9","70.9","284.4","0"],
    [33159,"2014-02-16T10:00:00","51","ND","ND","ND","ND","ND","0.2","273.6","26.1","65.4","320.6","0"],
    [33160,"2014-02-16T11:00:00","45","ND","ND","ND","ND","ND","1.2","137.2","27.5","59.8","498.8","0"],
    [33161,"2014-02-16T12:00:00","35","ND","ND","ND","ND","ND","0.7","43.1","28.1","57.5","481.5","0"],
    [33162,"2014-02-16T13:00:00","41","ND","ND","ND","ND","ND","0.7","40.2","29.5","53.1","729.1","0"],
    [33163,"2014-02-16T14:00:00","40","ND","ND","ND","ND","ND","0.7","27.3","30.2","51","516.3","0"],
    [33164,"2014-02-16T15:00:00","26","ND","ND","ND","ND","ND","1.8","312.4","30.5","49.1","520.4","0"],
    [33165,"2014-02-16T16:00:00","15","ND","ND","ND","ND","ND","2.9","288.9","30.2","47.5","310.9","0"],
    [33166,"2014-02-16T17:00:00","9","ND","ND","ND","ND","ND","1.6","277.4","29.2","50","131.5","0"],
    [33167,"2014-02-16T18:00:00","37","ND","ND","ND","ND","ND","1.9","132.4","27.4","61.3","10.8","0"],
    [33168,"2014-02-16T19:00:00","57","ND","ND","ND","ND","ND","1.2","144","26.3","67.1","0","0"],
    [33169,"2014-02-16T20:00:00","41","ND","ND","ND","ND","ND","1.9","157.5","25.1","66.2","0","0"],
    [33170,"2014-02-16T21:00:00","47","ND","ND","ND","ND","ND","1","145","24.7","68.5","0","0"],
    [33171,"2014-02-16T22:00:00","63","ND","ND","ND","ND","ND","0.4","2.7","24.2","72.1","0","0"],
    [33172,"2014-02-16T23:00:00","69","ND","ND","ND","ND","ND","0.8","4.9","23","80.1","0","0"],
    [33173,"2014-02-17T00:00:00","64","ND","ND","ND","ND","ND","0.7","65.2","23.2","78.6","0","0"],
    [33174,"2014-02-17T01:00:00","53","ND","ND","ND","ND","ND","0.9","355.6","22.6","82","0","0"],
    [33175,"2014-02-17T02:00:00","56","ND","ND","ND","ND","ND","0.3","29.3","22.6","81.6","0","0"],
    [33176,"2014-02-17T03:00:00","58","ND","ND","ND","ND","ND","0.3","346.8","22.2","83.7","0","0"],
    [33177,"2014-02-17T04:00:00","65","ND","ND","ND","ND","ND","0.5","69.4","22.3","81.9","0","0"],
    [33178,"2014-02-17T05:00:00","45","ND","ND","ND","ND","ND","0.2","308.3","22.3","81.3","0","0"],
    [33179,"2014-02-17T06:00:00","51","ND","ND","ND","ND","ND","0.4","235.8","22.2","81.8","0","0"],
    [33180,"2014-02-17T07:00:00","58","ND","ND","ND","ND","ND","0.3","219.9","22.5","79.6","6.9","0"],
    [33181,"2014-02-17T08:00:00","66","ND","ND","ND","ND","ND","0.7","178.3","23.1","76.3","43.9","0"],
    [33182,"2014-02-17T09:00:00","65","ND","ND","ND","ND","ND","0.8","162.3","23.9","72.8","100.9","0"],
    [33183,"2014-02-17T10:00:00","55","ND","ND","ND","ND","ND","0.9","147.2","24.1","75.4","304.7","0"],
    [33184,"2014-02-17T11:00:00","41","ND","ND","ND","ND","ND","1.4","155","26.8","62.6","770.4","0"],
    [33185,"2014-02-17T12:00:00","37","ND","ND","ND","ND","ND","1.4","139.8","28.6","53.8","761.8","0"],
    [33186,"2014-02-17T13:00:00","35","ND","ND","ND","ND","ND","0.9","90.3","29","53.3","451.4","0"],
    [33187,"2014-02-17T14:00:00","42","ND","ND","ND","ND","ND","0.7","99.1","29.9","50.5","480.6","0"],
    [33188,"2014-02-17T15:00:00","26","ND","ND","ND","ND","ND","2.6","274.5","29.4","49.7","414.9","0"],
    [33189,"2014-02-17T16:00:00","22","ND","ND","ND","ND","ND","1.1","312.2","30.4","45.5","446.9","0"],
    [33190,"2014-02-17T17:00:00","35","ND","ND","ND","ND","ND","1","78.3","30.4","44.4","213.9","0"],
    [33191,"2014-02-17T18:00:00","57","ND","ND","ND","ND","ND","1.4","19.9","29.2","51.1","76.3","0"],
    [33192,"2014-02-17T19:00:00","45","ND","ND","ND","ND","ND","0.3","227.9","27.8","55.6","0","0"],
    [33193,"2014-02-17T20:00:00","42","ND","ND","ND","ND","ND","0.8","177.4","26.8","58.3","0","0"],
    [33194,"2014-02-17T21:00:00","66","ND","ND","ND","ND","ND","0.8","122.4","25.8","63.9","0","0"],
    [33195,"2014-02-17T22:00:00","94","ND","ND","ND","ND","ND","0.2","161.7","25","67.9","0","0"],
    [33196,"2014-02-17T23:00:00","76","ND","ND","ND","ND","ND","0.5","145.3","24","72.3","0","0"],
    [33197,"2014-02-18T00:00:00","42","ND","ND","ND","ND","ND","0.3","163.1","23.4","75.7","0","0"],
    [33198,"2014-02-18T01:00:00","50","ND","ND","ND","ND","ND","0.2","248.6","22.8","78.5","0","0"],
    [33199,"2014-02-18T02:00:00","42","ND","ND","ND","ND","ND","0.2","20.2","22.4","80.4","0","0"],
    [33200,"2014-02-18T03:00:00","55","ND","ND","ND","ND","ND","0.3","107.5","22","82","0","0"],
    [33201,"2014-02-18T04:00:00","54","ND","ND","ND","ND","ND","0.4","9.3","21.7","83.1","0","0"],
    [33202,"2014-02-18T05:00:00","46","ND","ND","ND","ND","ND","0.4","160.7","21.6","81.9","0","0"],
    [33203,"2014-02-18T06:00:00","62","ND","ND","ND","ND","ND","0.5","3.7","21.3","83.7","0","0"],
    [33204,"2014-02-18T07:00:00","62","ND","ND","ND","ND","ND","0.5","246.7","21.6","83.8","19.8","0"],
    [33205,"2014-02-18T08:00:00","75","ND","ND","ND","ND","ND","0.6","94.9","23.5","75.7","141.1","0"],
    [33206,"2014-02-18T09:00:00","101","ND","ND","ND","ND","ND","1.8","144.8","24.6","71.3","317.7","0"],
    [33207,"2014-02-18T10:00:00","52","ND","ND","ND","ND","ND","1.6","148.3","25.4","67.5","367.1","0"],
    [33208,"2014-02-18T11:00:00","42","ND","ND","ND","ND","ND","1","105.4","26.4","63","372.7","0"],
    [33209,"2014-02-18T12:00:00","57","ND","ND","ND","ND","ND","1.8","257.9","26.8","61.5","321.5","0"],
    [33210,"2014-02-18T13:00:00","53","ND","ND","ND","ND","ND","0.8","256.1","28.6","53.5","762.4","0"],
    [33211,"2014-02-18T14:00:00","42","ND","ND","ND","ND","ND","2.3","259","30.1","49.1","736.8","0"],
    [33212,"2014-02-18T15:00:00","33","ND","ND","ND","ND","ND","0.9","195.7","25.6","71.5","76.3","34.8"],
    [33213,"2014-02-18T16:00:00","42","ND","ND","ND","ND","ND","0.6","208.1","23.3","88.9","36.2","2.29"],
    [33214,"2014-02-18T17:00:00","55","ND","ND","ND","ND","ND","0.2","208.3","23.9","86.2","43.1","1.78"],
    [33215,"2014-02-18T18:00:00","47","ND","ND","ND","ND","ND","0.3","132.4","24.1","87.1","53.3","0.25"],
    [33216,"2014-02-18T19:00:00","48","ND","ND","ND","ND","ND","0.2","336.5","23.5","84.5","0","0"],
    [33217,"2014-02-18T20:00:00","56","ND","ND","ND","ND","ND","0.9","254","22.9","88.3","0","0"],
    [33218,"2014-02-18T21:00:00","53","ND","ND","ND","ND","ND","0.5","267.2","22.6","87.2","0","0"],
    [33219,"2014-02-18T22:00:00","50","ND","ND","ND","ND","ND","0.5","263.7","22.1","86.9","0","0"],
    [33220,"2014-02-18T23:00:00","66","ND","ND","ND","ND","ND","0.3","345.4","21.9","87.5","0","0"],
    [33221,"2014-02-19T00:00:00","76","ND","ND","ND","ND","ND","0.2","252.7","21.9","87.3","0","0"],
    [33222,"2014-02-19T01:00:00","71","ND","ND","ND","ND","ND","0.2","196.4","22.2","87.7","0","0"],
    [33223,"2014-02-19T02:00:00","65","ND","ND","ND","ND","ND","0","0","22.2","89.2","0","0"],
    [33224,"2014-02-19T03:00:00","51","ND","ND","ND","ND","ND","1.2","212.2","22.2","87.3","0","0"],
    [33225,"2014-02-19T04:00:00","30","ND","ND","ND","ND","ND","0.2","249.8","22.3","83.3","0","0"],
    [33226,"2014-02-19T05:00:00","69","ND","ND","ND","ND","ND","0.7","344.8","21.8","90.6","0","0"],
    [33227,"2014-02-19T06:00:00","63","ND","ND","ND","ND","ND","0.5","181.3","21.7","91.7","0","0"],
    [33228,"2014-02-19T07:00:00","34","ND","ND","ND","ND","ND","0.3","188.9","21.5","92.3","14.3","0"],
    [33229,"2014-02-19T08:00:00","63","ND","ND","ND","ND","ND","0.5","268.8","22.1","89.7","77.8","0"],
    [33230,"2014-02-19T09:00:00","69","ND","ND","ND","ND","ND","0.3","193.5","22.7","85.1","110.7","0"],
    [33231,"2014-02-19T10:00:00","93","ND","ND","ND","ND","ND","0.7","48","23.9","79.8","305.6","0"],
    [33232,"2014-02-19T11:00:00","85","ND","ND","ND","ND","ND","1","138.7","26.1","69","679.8","0"],
    [33233,"2014-02-19T12:00:00","54","ND","ND","ND","ND","ND","1","143.5","27.9","60.2","731.8","0"],
    [33234,"2014-02-19T13:00:00","59","ND","ND","ND","ND","ND","1","153.2","28.5","55.7","643.9","0"],
    [33235,"2014-02-19T14:00:00","54","ND","ND","ND","ND","ND","1.1","265.4","29.9","50.6","866.9","0"],
    [33236,"2014-02-19T15:00:00","41","ND","ND","ND","ND","ND","1.6","307.6","30.1","49.5","635","0"],
    [33237,"2014-02-19T16:00:00","15","ND","ND","ND","ND","ND","2.4","263.3","30.6","47.4","577.7","0"],
    [33238,"2014-02-19T17:00:00","25","ND","ND","ND","ND","ND","3.3","280.4","29.4","49.6","285.4","0"],
    [33239,"2014-02-19T18:00:00","31","ND","ND","ND","ND","ND","0.9","308.4","28.5","50.5","67","0"],
    [33240,"2014-02-19T19:00:00","31","ND","ND","ND","ND","ND","0.6","247.5","27.4","53.3","0","0"],
    [33241,"2014-02-19T20:00:00","42","ND","ND","ND","ND","ND","0.2","170.2","26.8","56.1","0","0"],
    [33242,"2014-02-19T21:00:00","40","ND","ND","ND","ND","ND","0.8","224.8","26","60.1","0","0"],
    [33243,"2014-02-19T22:00:00","24","ND","ND","ND","ND","ND","1.4","245.3","25.5","62.5","0","0"],
    [33244,"2014-02-19T23:00:00","39","ND","ND","ND","ND","ND","0.6","253","25.1","66.2","0","0"],
    [33245,"2014-02-20T00:00:00","40","ND","ND","ND","ND","ND","0.6","41.2","24.4","72.7","0","0"],
    [33246,"2014-02-20T01:00:00","48","ND","ND","ND","ND","ND","1.3","0.4","23.5","78.5","0","0"],
    [33247,"2014-02-20T02:00:00","59","ND","ND","ND","ND","ND","1.2","8.8","23","82.1","0","0"],
    [33248,"2014-02-20T03:00:00","40","ND","ND","ND","ND","ND","0.8","13.4","22.9","82.9","0","0"],
    [33249,"2014-02-20T04:00:00","35","ND","ND","ND","ND","ND","0.1","349.3","22.6","85.9","0","0.25"],
    [33250,"2014-02-20T05:00:00","21","ND","ND","ND","ND","ND","0.5","44.1","22","86.6","0","0"],
    [33251,"2014-02-20T06:00:00","39","ND","ND","ND","ND","ND","0.2","300.3","22.1","88","0","0"],
    [33252,"2014-02-20T07:00:00","70","ND","ND","ND","ND","ND","0.3","240","22.2","88.1","13.4","0"],
    [33253,"2014-02-20T08:00:00","50","ND","ND","ND","ND","ND","0.6","162.3","23.2","82.6","148.3","0"],
    [33254,"2014-02-20T09:00:00","55","ND","ND","ND","ND","ND","1.6","136.4","24.4","74.8","173.4","0"],
    [33255,"2014-02-20T10:00:00","66","ND","ND","ND","ND","ND","0.6","135.6","25","72.3","266.8","0"],
    [33256,"2014-02-20T11:00:00","65","ND","ND","ND","ND","ND","0.2","189.9","26","68.1","316.3","0"],
    [33257,"2014-02-20T12:00:00","48","ND","ND","ND","ND","ND","1.6","49.5","27.1","63.7","621.2","0"],
    [33258,"2014-02-20T13:00:00","30","ND","ND","ND","ND","ND","1.4","61.6","27.9","60.1","647.9","0"],
    [33259,"2014-02-20T14:00:00","36","ND","ND","ND","ND","ND","0.6","223","27.8","59.5","224.1","0"],
    [33260,"2014-02-20T15:00:00","32","ND","ND","ND","ND","ND","1.2","114.2","29","55.1","449.1","0"],
    [33261,"2014-02-20T16:00:00","33","ND","ND","ND","ND","ND","1.5","212.5","29.4","52.5","347.7","0"],
    [33262,"2014-02-20T17:00:00","15","ND","ND","ND","ND","ND","2.7","261.2","29.5","49.4","293.1","0"],
    [33263,"2014-02-20T18:00:00","16","ND","ND","ND","ND","ND","2.7","278.5","28.2","51.7","95.1","0"],
    [33264,"2014-02-20T19:00:00","26","ND","ND","ND","ND","ND","1.1","245.9","27.1","54.3","0","0"],
    [33265,"2014-02-20T20:00:00","29","ND","ND","ND","ND","ND","0","132.2","26.4","56.9","0","0"],
    [33266,"2014-02-20T21:00:00","52","ND","ND","ND","ND","ND","0.8","137.2","26.3","59.5","0","0"],
    [33267,"2014-02-20T22:00:00","39","ND","ND","ND","ND","ND","0.9","137.5","25.7","63.3","0","0"],
    [33268,"2014-02-20T23:00:00","49","ND","ND","ND","ND","ND","0.7","137.3","25.2","66","0","0"],
    [33269,"2014-02-21T00:00:00","43","ND","ND","ND","ND","ND","0.3","160.4","24.5","69.3","0","0"],
    [33270,"2014-02-21T01:00:00","39","ND","ND","ND","ND","ND","0.3","182","24.1","72.2","0","0"],
    [33271,"2014-02-21T02:00:00","33","ND","ND","ND","ND","ND","0.7","167.1","23.6","74.3","0","0"],
    [33272,"2014-02-21T03:00:00","32","ND","ND","ND","ND","ND","0.6","161.5","23.5","75.4","0","0"],
    [33273,"2014-02-21T04:00:00","29","ND","ND","ND","ND","ND","0.4","221.7","23.3","77","0","0"],
    [33274,"2014-02-21T05:00:00","38","ND","ND","ND","ND","ND","0.7","134.7","23.2","78.7","0","0"],
    [33275,"2014-02-21T06:00:00","43","ND","ND","ND","ND","ND","0.7","6.7","22.2","87.1","0","0"],
    [33276,"2014-02-21T07:00:00","49","ND","ND","ND","ND","ND","0.5","33.8","21.9","89.7","5.2","0"],
    [33277,"2014-02-21T08:00:00","41","ND","ND","ND","ND","ND","1.1","47.8","21.8","89.2","58.5","0"],
    [33278,"2014-02-21T09:00:00","51","ND","ND","ND","ND","ND","1","35.8","22.7","87","101","0"],
    [33279,"2014-02-21T10:00:00","56","ND","ND","ND","ND","ND","0.9","54.4","23.2","83.7","122.3","0"],
    [33280,"2014-02-21T11:00:00","44","ND","ND","ND","ND","ND","1.5","173","24.1","79.1","302.6","0"],
    [33281,"2014-02-21T12:00:00","61","ND","ND","ND","ND","ND","1.2","208.5","25.6","71.1","349.3","0"],
    [33282,"2014-02-21T13:00:00","55","ND","ND","ND","ND","ND","1.5","312","25.7","70.2","303","0"],
    [33283,"2014-02-21T14:00:00","28","ND","ND","ND","ND","ND","1","352","27","62.3","413","0"],
    [33284,"2014-02-21T15:00:00","32","ND","ND","ND","ND","ND","0.4","73.2","28.1","55.9","379.5","0"],
    [33285,"2014-02-21T16:00:00","25","ND","ND","ND","ND","ND","0.3","302.7","28.1","54.1","251.6","0"],
    [33286,"2014-02-21T17:00:00","ND","ND","ND","ND","ND","ND","1.7","192.7","26.7","59","142","0"],
    [33287,"2014-02-21T18:00:00","ND","ND","ND","ND","ND","ND","3.2","173","22.8","75.8","20.6","0"],
    [33288,"2014-02-21T19:00:00","28","ND","ND","ND","ND","ND","1.4","167.8","22.6","80.5","0","0"],
    [33289,"2014-02-21T20:00:00","34","ND","ND","ND","ND","ND","0.5","209.6","22","85.9","0","0.25"],
    [33290,"2014-02-21T21:00:00","40","ND","ND","ND","ND","ND","0.7","145.5","22.3","83.4","0","0"],
    [33291,"2014-02-21T22:00:00","54","ND","ND","ND","ND","ND","0.6","348.4","21.4","85.5","0","0"],
    [33292,"2014-02-21T23:00:00","66","ND","ND","ND","ND","ND","0.5","24.9","21.3","87.1","0","0"],
    [33293,"2014-02-22T00:00:00","66","ND","ND","ND","ND","ND","0.6","88.5","21.2","86.6","0","0"],
    [33294,"2014-02-22T01:00:00","66","ND","ND","ND","ND","ND","0.8","3.7","20.8","88.1","0","0"],
    [33295,"2014-02-22T02:00:00","56","ND","ND","ND","ND","ND","0.4","53.7","20.8","87.5","0","0"],
    [33296,"2014-02-22T03:00:00","60","ND","ND","ND","ND","ND","0.2","283.6","21","87.5","0","0"],
    [33297,"2014-02-22T04:00:00","71","ND","ND","ND","ND","ND","0.5","166.1","21.2","87.4","0","0"],
    [33298,"2014-02-22T05:00:00","70","ND","ND","ND","ND","ND","0.9","147.6","21.1","88.6","0","0"],
    [33299,"2014-02-22T06:00:00","58","ND","ND","ND","ND","ND","0.2","173.6","21","90.9","0","0"],
    [33300,"2014-02-22T07:00:00","88","ND","ND","ND","ND","ND","0.4","29.9","20.9","90.7","13.1","0.25"],
    [33301,"2014-02-22T08:00:00","ND","ND","ND","ND","ND","ND","0.7","57.2","21.2","90","79.5","0"],
    [33302,"2014-02-22T09:00:00","ND","ND","ND","ND","ND","ND","0.2","251.3","22.1","85.9","176","0"],
    [33303,"2014-02-22T10:00:00","111","ND","ND","ND","ND","ND","0.4","144.2","24.6","73.5","532.9","0"],
    [33304,"2014-02-22T11:00:00","66","ND","ND","ND","ND","ND","1.2","87.2","26.5","64.4","649.6","0"],
    [33305,"2014-02-22T12:00:00","44","ND","ND","ND","ND","ND","1.3","60","27.4","60.1","572.7","0"],
    [33306,"2014-02-22T13:00:00","47","ND","ND","ND","ND","ND","0.7","329","28.5","56.3","623.1","0"],
    [33307,"2014-02-22T14:00:00","43","ND","ND","ND","ND","ND","0.9","0.5","29.2","53.1","482.4","0"],
    [33308,"2014-02-22T15:00:00","19","ND","ND","ND","ND","ND","2.7","254.5","29.9","49.2","545.4","0"],
    [33309,"2014-02-22T16:00:00","23","ND","ND","ND","ND","ND","2.8","254.5","29.4","50.3","280","0"],
    [33310,"2014-02-22T17:00:00","19","ND","ND","ND","ND","ND","2","250.9","28.9","51.5","143.9","0"],
    [33311,"2014-02-22T18:00:00","26","ND","ND","ND","ND","ND","1.5","230.1","28.2","53","78.1","0"],
    [33312,"2014-02-22T19:00:00","21","ND","ND","ND","ND","ND","0.6","266.1","27.1","55.5","0","0"],
    [33313,"2014-02-22T20:00:00","21","ND","ND","ND","ND","ND","0.7","152.3","26.7","56.9","0","0"],
    [33314,"2014-02-22T21:00:00","22","ND","ND","ND","ND","ND","2","163.6","26","61.9","0","0"],
    [33315,"2014-02-22T22:00:00","115","ND","ND","ND","ND","ND","2.5","169.4","24.5","73.3","0","0"],
    [33316,"2014-02-22T23:00:00","33","ND","ND","ND","ND","ND","2","167.7","24","75","0","0"],
    [33317,"2014-02-23T00:00:00","23","ND","ND","ND","ND","ND","1.3","168.9","23.7","76.5","0","0"],
    [33318,"2014-02-23T01:00:00","18","ND","ND","ND","ND","ND","0.4","198.2","23.8","75.4","0","0"],
    [33319,"2014-02-23T02:00:00","17","ND","ND","ND","ND","ND","0.2","266.9","23.2","78","0","0"],
    [33320,"2014-02-23T03:00:00","24","ND","ND","ND","ND","ND","0.5","37.3","22.8","79.3","0","0"],
    [33321,"2014-02-23T04:00:00","48","ND","ND","ND","ND","ND","0.5","6.5","22.2","84.6","0","0"],
    [33322,"2014-02-23T05:00:00","59","ND","ND","ND","ND","ND","0.5","28.4","22","87.6","0","0"],
    [33323,"2014-02-23T06:00:00","51","ND","ND","ND","ND","ND","0.5","341.5","21.8","88.8","0","0"],
    [33324,"2014-02-23T07:00:00","60","ND","ND","ND","ND","ND","0.2","271.4","21.8","88.5","6.9","0"],
    [33325,"2014-02-23T08:00:00","48","ND","ND","ND","ND","ND","0.2","222.8","22.4","85.4","47.4","0"],
    [33326,"2014-02-23T09:00:00","56","ND","ND","ND","ND","ND","0.6","117.7","23.4","80","91.8","0"],
    [33327,"2014-02-23T10:00:00","43","ND","ND","ND","ND","ND","0.7","148.1","24.4","74.7","298.7","0"],
    [33328,"2014-02-23T11:00:00","43","ND","ND","ND","ND","ND","0.2","111.4","26.8","63.5","741.4","0"],
    [33329,"2014-02-23T12:00:00","43","ND","ND","ND","ND","ND","0.4","94.7","28.2","57","481.9","0"],
    [33330,"2014-02-23T13:00:00","37","ND","ND","ND","ND","ND","0.8","175.8","29.3","52.5","489.1","0"],
    [33331,"2014-02-23T14:00:00","23","ND","ND","ND","ND","ND","1.7","288.1","29.2","51.9","411.6","0"],
    [33332,"2014-02-23T15:00:00","25","ND","ND","ND","ND","ND","1.2","318.3","30.3","47.9","506.1","0"],
    [33333,"2014-02-23T16:00:00","15","ND","ND","ND","ND","ND","3","284.3","30.3","47.3","516.7","0"],
    [33334,"2014-02-23T17:00:00","22","ND","ND","ND","ND","ND","2.2","287.2","29.6","47.8","240.5","0"],
    [33335,"2014-02-23T18:00:00","21","ND","ND","ND","ND","ND","1.7","256.6","28.9","48.9","85.7","0"],
    [33336,"2014-02-23T19:00:00","23","ND","ND","ND","ND","ND","0.4","195.9","28.1","49.8","0","0"],
    [33337,"2014-02-23T20:00:00","34","ND","ND","ND","ND","ND","1.2","83.5","26.9","58.9","0","0"],
    [33338,"2014-02-23T21:00:00","51","ND","ND","ND","ND","ND","1.5","64.4","24.8","72.1","0","0"],
    [33339,"2014-02-23T22:00:00","33","ND","ND","ND","ND","ND","2.2","172.3","24","74.1","0","0"],
    [33340,"2014-02-23T23:00:00","21","ND","ND","ND","ND","ND","1.2","197.6","23.6","77.4","0","0"],
    [33341,"2014-02-24T00:00:00","35","ND","ND","ND","ND","ND","0.5","302.8","23.6","76.7","0","0"],
    [33342,"2014-02-24T01:00:00","36","ND","ND","ND","ND","ND","0.6","29.3","23.5","77.7","0","0"],
    [33343,"2014-02-24T02:00:00","50","ND","ND","ND","ND","ND","0.2","323","22.8","82.6","0","0"],
    [33344,"2014-02-24T03:00:00","34","ND","ND","ND","ND","ND","0.5","148.9","22.8","82.6","0","0"],
    [33345,"2014-02-24T04:00:00","29","ND","ND","ND","ND","ND","0.4","326.5","22.5","85.3","0","0"],
    [33346,"2014-02-24T05:00:00","43","ND","ND","ND","ND","ND","0.3","14.4","22.3","86.1","0","0"],
    [33347,"2014-02-24T06:00:00","61","ND","ND","ND","ND","ND","0.7","55.5","22.1","87.5","0","0"],
    [33348,"2014-02-24T07:00:00","51","ND","ND","ND","ND","ND","0.3","222.3","22.1","88.2","0","0"],
    [33349,"2014-02-24T08:00:00","92","ND","ND","ND","ND","ND","0.4","35.9","22.5","87.1","72.4","0"],
    [33350,"2014-02-24T09:00:00","111","ND","ND","ND","ND","ND","0.7","62.9","23.9","81.5","328.1","0"],
    [33351,"2014-02-24T10:00:00","75","ND","ND","ND","ND","ND","0.7","107.4","26.2","68.4","558.7","0"],
    [33352,"2014-02-24T11:00:00","56","ND","ND","ND","ND","ND","1.1","44.2","26.8","64.2","477.7","0"],
    [33353,"2014-02-24T12:00:00","44","ND","ND","ND","ND","ND","0.8","70.4","28.2","58.2","418.4","0"],
    [33354,"2014-02-24T13:00:00","58","ND","ND","ND","ND","ND","0.5","75.7","29.1","54.3","675.4","0"],
    [33355,"2014-02-24T14:00:00","40","ND","ND","ND","ND","ND","1.1","240.6","30.3","49.1","518.3","0"],
    [33356,"2014-02-24T15:00:00","37","ND","ND","ND","ND","ND","1.2","275.5","29.7","49.9","165.1","0"],
    [33357,"2014-02-24T16:00:00","21","ND","ND","ND","ND","ND","2.6","257.3","29.4","51.1","128.8","0"],
    [33358,"2014-02-24T17:00:00","33","ND","ND","ND","ND","ND","2.3","257.8","28.9","51.6","164.7","0"],
    [33359,"2014-02-24T18:00:00","26","ND","ND","ND","ND","ND","0.7","245.4","29","51.2","81.5","0"],
    [33360,"2014-02-24T19:00:00","35","ND","ND","ND","ND","ND","0.5","240.7","27.6","55.2","0","0"],
    [33361,"2014-02-24T20:00:00","31","ND","ND","ND","ND","ND","0.6","88.5","26.8","58.7","0","0"],
    [33362,"2014-02-24T21:00:00","33","ND","ND","ND","ND","ND","1.4","20.6","24.5","73.5","0","0"],
    [33363,"2014-02-24T22:00:00","39","ND","ND","ND","ND","ND","0.2","104.9","24.4","73.6","0","0"],
    [33364,"2014-02-24T23:00:00","26","ND","ND","ND","ND","ND","2.4","165.7","23.8","77.7","0","0.25"],
    [33365,"2014-02-25T00:00:00","18","ND","ND","ND","ND","ND","0.1","171.9","22","91.1","0","14.73"],
    [33366,"2014-02-25T01:00:00","19","ND","ND","ND","ND","ND","0.7","180.7","21.7","94.7","0","0.76"],
    [33367,"2014-02-25T02:00:00","20","ND","ND","ND","ND","ND","0.8","77.8","21.8","94.3","0","0"],
    [33368,"2014-02-25T03:00:00","31","ND","ND","ND","ND","ND","0.2","211.5","21.7","94.7","0","0"],
    [33369,"2014-02-25T04:00:00","28","ND","ND","ND","ND","ND","0.2","304.9","21.8","94.7","0","0.51"],
    [33370,"2014-02-25T05:00:00","34","ND","ND","ND","ND","ND","0.3","262.8","21.7","94.7","0","0"],
    [33371,"2014-02-25T06:00:00","33","ND","ND","ND","ND","ND","0.1","319","21.4","94.8","0","0.25"],
    [33372,"2014-02-25T07:00:00","44","ND","ND","ND","ND","ND","0.3","188.4","21.7","94.6","12.6","0"],
    [33373,"2014-02-25T08:00:00","48","ND","ND","ND","ND","ND","0.1","98.7","23","86.5","138.9","0"],
    [33374,"2014-02-25T09:00:00","88","ND","ND","ND","ND","ND","1","86.5","23.6","86.5","231.9","0"],
    [33375,"2014-02-25T10:00:00","60","ND","ND","ND","ND","ND","0.8","150.5","25","77.8","389","0"],
    [33376,"2014-02-25T11:00:00","60","ND","ND","ND","ND","ND","1.4","3.9","25.8","72","651","0"],
    [33377,"2014-02-25T12:00:00","50","ND","ND","ND","ND","ND","0.5","26.2","27.8","61","663.9","0"],
    [33378,"2014-02-25T13:00:00","46","ND","ND","ND","ND","ND","0.3","252.2","28","60.3","346.5","0"],
    [33379,"2014-02-25T14:00:00","46","ND","ND","ND","ND","ND","0.7","241.9","28.6","57.1","295.5","0"],
    [33380,"2014-02-25T15:00:00","22","ND","ND","ND","ND","ND","2.8","264.2","27.7","56.1","173.5","0"],
    [33381,"2014-02-25T16:00:00","18","ND","ND","ND","ND","ND","0.4","219.3","28.2","52.9","294.5","0"],
    [33382,"2014-02-25T17:00:00","31","ND","ND","ND","ND","ND","0.2","119.1","29.7","49.7","353.5","0"],
    [33383,"2014-02-25T18:00:00","30","ND","ND","ND","ND","ND","1.5","95.9","28.6","58","99.9","0"],
    [33384,"2014-02-25T19:00:00","29","ND","ND","ND","ND","ND","0.9","222.8","27.1","58.9","0","0"],
    [33385,"2014-02-25T20:00:00","49","ND","ND","ND","ND","ND","0.4","104.7","26.5","59.7","0","0"],
    [33386,"2014-02-25T21:00:00","33","ND","ND","ND","ND","ND","0.5","225.2","26","62.4","0","0"],
    [33387,"2014-02-25T22:00:00","48","ND","ND","ND","ND","ND","0.4","90.9","25.6","64","0","0"],
    [33388,"2014-02-25T23:00:00","47","ND","ND","ND","ND","ND","0.3","174.6","25.2","66.8","0","0"],
    [33389,"2014-02-26T00:00:00","40","ND","ND","ND","ND","ND","0.9","72.6","24.2","72.8","0","0"],
    [33390,"2014-02-26T01:00:00","26","ND","ND","ND","ND","ND","0.5","51.8","23.5","74.6","0","0"],
    [33391,"2014-02-26T02:00:00","32","ND","ND","ND","ND","ND","0.4","336.3","23.3","76.2","0","0"],
    [33392,"2014-02-26T03:00:00","26","ND","ND","ND","ND","ND","0.8","252.4","21.4","91.5","0","27.43"],
    [33393,"2014-02-26T04:00:00","10","ND","ND","ND","ND","ND","0.4","257.1","21.2","94.4","0","0.51"],
    [33394,"2014-02-26T05:00:00","22","ND","ND","ND","ND","ND","0.4","227.9","21.6","93.6","0","0.76"],
    [33395,"2014-02-26T06:00:00","27","ND","ND","ND","ND","ND","0.3","313.5","21.5","93.3","0","1.02"],
    [33396,"2014-02-26T07:00:00","32","ND","ND","ND","ND","ND","0.4","352.9","21.2","95.4","21.1","17.78"],
    [33397,"2014-02-26T08:00:00","46","ND","ND","ND","ND","ND","0.3","200.8","21.6","95.8","109.4","0.76"],
    [33398,"2014-02-26T09:00:00","54","ND","ND","ND","ND","ND","0.4","190.2","23","86","176.2","0"],
    [33399,"2014-02-26T10:00:00","42","ND","ND","ND","ND","ND","0.4","115.5","24.6","74.3","439","0"],
    [33400,"2014-02-26T11:00:00","57","ND","ND","ND","ND","ND","1.3","133.7","25.9","68.9","437","0"],
    [33401,"2014-02-26T12:00:00","56","ND","ND","ND","ND","ND","1.3","128.6","27.6","61.6","799.2","0"],
    [33402,"2014-02-26T13:00:00","50","ND","ND","ND","ND","ND","0.9","182.6","29","55.7","900.2","0"],
    [33403,"2014-02-26T14:00:00","42","ND","ND","ND","ND","ND","0.6","107.2","30.2","50.1","689.6","0"],
    [33404,"2014-02-26T15:00:00","38","ND","ND","ND","ND","ND","0.8","19.6","30.8","48.7","496.4","0"],
    [33405,"2014-02-26T16:00:00","43","ND","ND","ND","ND","ND","0.8","9.1","30.3","50.3","239.1","0"],
    [33406,"2014-02-26T17:00:00","34","ND","ND","ND","ND","ND","2.1","264.1","30.2","51","247.1","0"],
    [33407,"2014-02-26T18:00:00","31","ND","ND","ND","ND","ND","1.4","254.6","29.4","53.3","97.6","0"],
    [33408,"2014-02-26T19:00:00","33","ND","ND","ND","ND","ND","1.2","237.8","27.6","57.4","0","0"],
    [33409,"2014-02-26T20:00:00","58","ND","ND","ND","ND","ND","0.2","135.4","27.4","58.9","0","0"],
    [33410,"2014-02-26T21:00:00","97","ND","ND","ND","ND","ND","1.3","82.6","26.5","64.8","0","0"],
    [33411,"2014-02-26T22:00:00","78","ND","ND","ND","ND","ND","0.4","190.2","25.9","67.5","0","0"],
    [33412,"2014-02-26T23:00:00","55","ND","ND","ND","ND","ND","0.4","142.3","25.5","70.4","0","0"],
    [33413,"2014-02-27T00:00:00","65","ND","ND","ND","ND","ND","0.4","39.6","24.8","73.5","0","0"],
    [33414,"2014-02-27T01:00:00","56","ND","ND","ND","ND","ND","0.3","6","24.2","76.5","0","0"],
    [33415,"2014-02-27T02:00:00","48","ND","ND","ND","ND","ND","0.3","121.3","24.3","76.6","0","0"],
    [33416,"2014-02-27T03:00:00","49","ND","ND","ND","ND","ND","0.3","26.1","24.1","78","0","0.25"],
    [33417,"2014-02-27T04:00:00","53","ND","ND","ND","ND","ND","0.8","345.7","22.6","89.6","0","3.05"],
    [33418,"2014-02-27T05:00:00","36","ND","ND","ND","ND","ND","0.1","215","22.3","91.7","0","0.51"],
    [33419,"2014-02-27T06:00:00","40","ND","ND","ND","ND","ND","0.5","183.4","22.5","92.5","0","1.52"],
    [33420,"2014-02-27T07:00:00","48","ND","ND","ND","ND","ND","0.1","316.4","22.4","93.2","5.6","0.25"],
    [33421,"2014-02-27T08:00:00","59","ND","ND","ND","ND","ND","0.9","168.1","22.9","90.8","48.3","0"],
    [33422,"2014-02-27T09:00:00","71","ND","ND","ND","ND","ND","0.8","155.5","23.4","85.9","66.9","0.76"],
    [33423,"2014-02-27T10:00:00","36","ND","ND","ND","ND","ND","0.4","102.4","22.8","92","157.3","5.59"],
    [33424,"2014-02-27T11:00:00","55","ND","ND","ND","ND","ND","0.4","43.7","24.4","85.3","380.1","0.25"],
    [33425,"2014-02-27T12:00:00","36","ND","ND","ND","ND","ND","1","70.4","26.3","71.5","564.4","0"],
    [33426,"2014-02-27T13:00:00","37","ND","ND","ND","ND","ND","1.3","60","26.8","66.5","434.7","0"],
    [33427,"2014-02-27T14:00:00","24","ND","ND","ND","ND","ND","1.1","264.6","28.2","59.2","651","0.25"],
    [33428,"2014-02-27T15:00:00","20","ND","ND","ND","ND","ND","2.1","270.4","28.8","52.2","500.6","0"],
    [33429,"2014-02-27T16:00:00","32","ND","ND","ND","ND","ND","0.5","162.8","27.3","60","215.1","0"],
    [33430,"2014-02-27T17:00:00","33","ND","ND","ND","ND","ND","1.3","68.1","23.2","80.1","39.3","0"],
    [33431,"2014-02-27T18:00:00","50","ND","ND","ND","ND","ND","1.3","138.8","19.8","91.5","0","29.72"],
    [33432,"2014-02-27T19:00:00","26","ND","ND","ND","ND","ND","0.9","143","19.9","96.7","0","3.3"],
    [33433,"2014-02-27T20:00:00","20","ND","ND","ND","ND","ND","1.2","127.2","20","94.3","0","1.78"],
    [33434,"2014-02-27T21:00:00","20","ND","ND","ND","ND","ND","0.5","295.7","20","94","0","1.02"],
    [33435,"2014-02-27T22:00:00","34","ND","ND","ND","ND","ND","0.6","195","20.2","93.3","0","0"],
    [33436,"2014-02-27T23:00:00","28","ND","ND","ND","ND","ND","0.3","275.9","20.4","93","0","0.25"],
    [33437,"2014-02-28T00:00:00","27","ND","ND","ND","ND","ND","0.1","256.9","20.3","93.2","0","0"],
    [33438,"2014-02-28T01:00:00","34","ND","ND","ND","ND","ND","0.5","92.4","20","95.6","0","0"],
    [33439,"2014-02-28T02:00:00","65","ND","ND","ND","ND","ND","0.8","4.4","19.8","96.5","0","0"],
    [33440,"2014-02-28T03:00:00","55","ND","ND","ND","ND","ND","0.1","29.8","19.8","96.4","0","0"],
    [33441,"2014-02-28T04:00:00","60","ND","ND","ND","ND","ND","0.5","45","19.9","95.9","0","0"],
    [33442,"2014-02-28T05:00:00","45","ND","ND","ND","ND","ND","0.2","337.5","19.7","96.2","0","0"],
    [33443,"2014-02-28T06:00:00","58","ND","ND","ND","ND","ND","0.1","41.5","19.9","94.6","0","0"],
    [33444,"2014-02-28T07:00:00","75","ND","ND","ND","ND","ND","0.7","24","19.6","93.8","4.8","0"],
    [33445,"2014-02-28T08:00:00","77","ND","ND","ND","ND","ND","0.3","36","19.6","95.1","17.9","0"],
    [33446,"2014-02-28T09:00:00","114","ND","ND","ND","ND","ND","0.8","49.9","20.8","92.7","314.3","0"],
    [33447,"2014-02-28T10:00:00","84","ND","ND","ND","ND","ND","1.4","44.2","23","80.6","549.3","0"],
    [33448,"2014-02-28T11:00:00","72","ND","ND","ND","ND","ND","1","20.7","24","74.8","402.2","0"],
    [33449,"2014-02-28T12:00:00","42","ND","ND","ND","ND","ND","1.4","57.5","25.3","68.8","640.3","0"],
    [33450,"2014-02-28T13:00:00","22","ND","ND","ND","ND","ND","1","56.4","26.6","63","631.1","0"],
    [33451,"2014-02-28T14:00:00","34","ND","ND","ND","ND","ND","0.2","222.6","27.5","60.3","674.7","0"],
    [33452,"2014-02-28T15:00:00","31","ND","ND","ND","ND","ND","0.4","273.7","28.5","56.7","511.7","0"],
    [33453,"2014-02-28T16:00:00","31","ND","ND","ND","ND","ND","1.2","37.8","27.7","59.6","108.8","0"],
    [33454,"2014-02-28T17:00:00","ND","ND","ND","ND","ND","ND","1.9","263.1","26.6","63.5","67.7","0"],
    [33455,"2014-02-28T18:00:00","ND","ND","ND","ND","ND","ND","0.6","224","26.3","62.1","26.7","0"],
    [33456,"2014-02-28T19:00:00","ND","ND","ND","ND","ND","ND","0.7","289.7","25.9","60.3","0","0"],
    [33457,"2014-02-28T20:00:00","ND","ND","ND","ND","ND","ND","0.2","118.8","26","58.7","0","0"],
    [33458,"2014-02-28T21:00:00","ND","ND","ND","ND","ND","ND","1.7","126.8","23.4","76","0","0.76"],
    [33459,"2014-02-28T22:00:00","ND","ND","ND","ND","ND","ND","0.4","151.1","21.9","88.1","0","0.76"],
    [33460,"2014-02-28T23:00:00","ND","ND","ND","ND","ND","ND","1.2","150.8","21.6","90.3","0","1.52"],
    [33461,"2014-03-01T00:00:00","ND","ND","ND","ND","ND","ND","1.8","179.5","21","93.7","0","3.05"],
    [33462,"2014-03-01T01:00:00","ND","ND","ND","ND","ND","ND","1.5","177.5","20.9","94.2","0","0.25"],
    [33463,"2014-03-01T02:00:00","ND","ND","ND","ND","ND","ND","1.9","180.2","20.6","94.5","0","0.25"],
    [33464,"2014-03-01T03:00:00","ND","ND","ND","ND","ND","ND","1.6","164.3","20.4","95.2","0","0.25"],
    [33465,"2014-03-01T04:00:00","ND","ND","ND","ND","ND","ND","0.9","173.7","20.2","93.1","0","0.25"],
    [33466,"2014-03-01T05:00:00","ND","ND","ND","ND","ND","ND","0.5","167.8","20.3","91.7","0","0"],
    [33467,"2014-03-01T06:00:00","ND","ND","ND","ND","ND","ND","0.3","61.3","20.2","92.5","0","0"],
    [33468,"2014-03-01T07:00:00","ND","ND","ND","ND","ND","ND","0","33","20.2","94.6","0","0"],
    [33469,"2014-03-01T08:00:00","ND","ND","ND","ND","ND","ND","0.1","190.2","20.6","93.6","12.1","0"],
    [33470,"2014-03-01T09:00:00","ND","ND","ND","ND","ND","ND","0.1","102.3","21","90.6","54.4","0"],
    [33471,"2014-03-01T10:00:00","ND","ND","ND","ND","ND","ND","0.3","35.2","21.4","89.6","72.7","0"],
    [33472,"2014-03-01T11:00:00","ND","ND","ND","ND","ND","ND","0.3","48.8","22.2","85.2","198.8","0"],
    [33473,"2014-03-01T12:00:00","ND","ND","ND","ND","ND","ND","0.9","193.7","24","74.8","536.8","0"],
    [33474,"2014-03-01T13:00:00","ND","ND","ND","ND","ND","ND","0.6","119.8","26.2","64","834.6","0"],
    [33475,"2014-03-01T14:00:00","ND","ND","ND","ND","ND","ND","1","26.8","27.4","58.2","598.8","0"],
    [33476,"2014-03-01T15:00:00","ND","ND","ND","ND","ND","ND","1.6","351.1","26.7","58.2","328.8","0"],
    [33477,"2014-03-01T16:00:00","ND","ND","ND","ND","ND","ND","1.3","336.8","27.5","54.2","303","0"],
    [33478,"2014-03-01T17:00:00","ND","ND","ND","ND","ND","ND","0.7","357.4","27.8","53.6","217.7","0"],
    [33479,"2014-03-01T18:00:00","ND","ND","ND","ND","ND","ND","0.5","266.6","26.9","56.4","43.9","0"],
    [33480,"2014-03-01T19:00:00","ND","ND","ND","ND","ND","ND","0.7","123.7","25.9","61.6","0","0"],
    [33481,"2014-03-01T20:00:00","ND","ND","ND","ND","ND","ND","0.5","134.4","24.6","70.6","0","0"],
    [33482,"2014-03-01T21:00:00","ND","ND","ND","ND","ND","ND","0.5","226.2","24.2","72.8","0","0"],
    [33483,"2014-03-01T22:00:00","ND","ND","ND","ND","ND","ND","0.5","144.5","24.2","69","0","0"],
    [33484,"2014-03-01T23:00:00","ND","ND","ND","ND","ND","ND","0.8","337.4","23.3","77.4","0","0"],
    [33485,"2014-03-02T00:00:00","ND","ND","ND","ND","ND","ND","0.3","76.6","23.2","77","0","0"],
    [33486,"2014-03-02T01:00:00","ND","ND","ND","ND","ND","ND","0.2","349.3","22.6","79.4","0","0"],
    [33487,"2014-03-02T02:00:00","ND","ND","ND","ND","ND","ND","0.3","18.9","21.8","83.1","0","0"],
    [33488,"2014-03-02T03:00:00","ND","ND","ND","ND","ND","ND","0.2","323.4","21.2","84.7","0","0"],
    [33489,"2014-03-02T04:00:00","ND","ND","ND","ND","ND","ND","0.1","252.1","21.3","84.8","0","0"],
    [33490,"2014-03-02T05:00:00","ND","ND","ND","ND","ND","ND","0.1","307.1","21.6","84.8","0","0"],
    [33491,"2014-03-02T06:00:00","ND","ND","ND","ND","ND","ND","0.1","284.3","21.5","86.1","0","0"],
    [33492,"2014-03-02T07:00:00","ND","ND","ND","ND","ND","ND","0.8","44.7","21.2","88.4","0","0"],
    [33493,"2014-03-02T08:00:00","ND","ND","ND","ND","ND","ND","0.5","86.2","21.1","88.9","27.3","0"],
    [33494,"2014-03-02T09:00:00","ND","ND","ND","ND","ND","ND","1.9","173.3","22.6","82.1","337.6","0"],
    [33495,"2014-03-02T10:00:00","ND","ND","ND","ND","ND","ND","2","143.5","24.6","70.5","535.1","0"],
    [33496,"2014-03-02T11:00:00","ND","ND","ND","ND","ND","ND","1.7","133.2","26.1","63.1","624.1","0"],
    [33497,"2014-03-02T12:00:00","ND","ND","ND","ND","ND","ND","0.8","47.5","26.6","62.7","431.1","0"],
    [33498,"2014-03-02T13:00:00","ND","ND","ND","ND","ND","ND","1.3","347.4","26.1","65.3","266.4","0"],
    [33499,"2014-03-02T14:00:00","ND","ND","ND","ND","ND","ND","1.1","326.4","26.7","62.2","225.3","2.29"],
    [33500,"2014-03-02T15:00:00","ND","ND","ND","ND","ND","ND","2.3","256.9","22.4","89.2","149.8","11.43"],
    [33501,"2014-03-02T16:00:00","ND","ND","ND","ND","ND","ND","0.6","268.5","26","70.7","338.8","0"],
    [33502,"2014-03-02T17:00:00","ND","ND","ND","ND","ND","ND","0.4","249.8","26.5","63.1","143","0"],
    [33503,"2014-03-02T18:00:00","ND","ND","ND","ND","ND","ND","0.3","210.1","25.8","63.8","32.9","0"],
    [33504,"2014-03-02T19:00:00","ND","ND","ND","ND","ND","ND","0.3","36.7","25.4","62.9","0","0"],
    [33505,"2014-03-02T20:00:00","ND","ND","ND","ND","ND","ND","0.2","66.8","25.1","64.8","0","0"],
    [33506,"2014-03-02T21:00:00","ND","ND","ND","ND","ND","ND","0.1","50.8","24.5","69.4","0","0"],
    [33507,"2014-03-02T22:00:00","ND","ND","ND","ND","ND","ND","0.3","207.1","23.8","71.4","0","0"],
    [33508,"2014-03-02T23:00:00","ND","ND","ND","ND","ND","ND","2.4","185.8","23.7","73.1","0","0"],
    [33509,"2014-03-03T00:00:00","ND","ND","ND","ND","ND","ND","0.7","239.3","23.4","73.1","0","0"],
    [33510,"2014-03-03T01:00:00","ND","ND","ND","ND","ND","ND","1.9","189.4","22.9","80.7","0","0"],
    [33511,"2014-03-03T02:00:00","ND","ND","ND","ND","ND","ND","1.5","187.4","22.5","83.3","0","0"],
    [33512,"2014-03-03T03:00:00","ND","ND","ND","ND","ND","ND","1.8","191.1","22.3","82","0","0"],
    [33513,"2014-03-03T04:00:00","ND","ND","ND","ND","ND","ND","1.3","189.5","21.8","84.3","0","0"],
    [33514,"2014-03-03T05:00:00","ND","ND","ND","ND","ND","ND","1.7","176.1","21.2","86.8","0","0"],
    [33515,"2014-03-03T06:00:00","ND","ND","ND","ND","ND","ND","1.2","185.1","19.8","95.1","0","38.35"],
    [33516,"2014-03-03T07:00:00","ND","ND","ND","ND","ND","ND","0.2","238.6","19.6","98.4","5.3","2.54"],
    [33517,"2014-03-03T08:00:00","ND","ND","ND","ND","ND","ND","0","267.6","20.1","98.2","43.9","0.25"],
    [33518,"2014-03-03T09:00:00","ND","ND","ND","ND","ND","ND","0.1","68.8","21.2","95.3","122.8","0"],
    [33519,"2014-03-03T10:00:00","ND","ND","ND","ND","ND","ND","0.2","109.7","22.6","84.1","225.8","0"],
    [33520,"2014-03-03T11:00:00","ND","ND","ND","ND","ND","ND","0.5","132.9","24.4","73.6","509.1","0"],
    [33521,"2014-03-03T12:00:00","ND","ND","ND","ND","ND","ND","2.7","259.8","24.1","74.4","330.1","0"],
    [33522,"2014-03-03T13:00:00","ND","ND","ND","ND","ND","ND","0.7","212.8","24.9","72.4","377.5","0"],
    [33523,"2014-03-03T14:00:00","ND","ND","ND","ND","ND","ND","0.6","175.2","27.1","60.8","639.9","0"],
    [33524,"2014-03-03T15:00:00","ND","ND","ND","ND","ND","ND","1","176.1","27.8","57.6","374","0"],
    [33525,"2014-03-03T16:00:00","ND","ND","ND","ND","ND","ND","1.6","204.6","26.1","67.9","335.6","0.25"],
    [33526,"2014-03-03T17:00:00","ND","ND","ND","ND","ND","ND","1.5","16","21.6","89.3","69.1","47.5"],
    [33527,"2014-03-03T18:00:00","ND","ND","ND","ND","ND","ND","1.3","1.6","21.4","90.6","68","0.25"],
    [33528,"2014-03-03T19:00:00","ND","ND","ND","ND","ND","ND","0.7","300.9","22.1","84.8","0","0"],
    [33529,"2014-03-03T20:00:00","ND","ND","ND","ND","ND","ND","0.2","101.1","21.7","89.7","0","0"],
    [33530,"2014-03-03T21:00:00","ND","ND","ND","ND","ND","ND","0.4","41.9","21.4","89.1","0","0"],
    [33531,"2014-03-03T22:00:00","ND","ND","ND","ND","ND","ND","0.4","164.3","21","90.8","0","0"],
    [33532,"2014-03-03T23:00:00","ND","ND","ND","ND","ND","ND","0.1","157.1","20.6","93.3","0","0"],
    [33533,"2014-03-04T00:00:00","ND","ND","ND","ND","ND","ND","0.6","207.3","20.6","93.2","0","0"],
    [33534,"2014-03-04T01:00:00","ND","ND","ND","ND","ND","ND","0.1","282.7","20.9","92.4","0","0"],
    [33535,"2014-03-04T02:00:00","ND","ND","ND","ND","ND","ND","0.5","4.8","20.9","91.4","0","0"],
    [33536,"2014-03-04T03:00:00","ND","ND","ND","ND","ND","ND","0.2","52.1","20.5","93.7","0","0"],
    [33537,"2014-03-04T04:00:00","ND","ND","ND","ND","ND","ND","0.2","68.3","20.6","93.2","0","0"],
    [33538,"2014-03-04T05:00:00","ND","ND","ND","ND","ND","ND","0.4","79.7","20.7","92.7","0","0"],
    [33539,"2014-03-04T06:00:00","ND","ND","ND","ND","ND","ND","0.2","65.6","20.7","92.9","0","0"],
    [33540,"2014-03-04T07:00:00","ND","ND","ND","ND","ND","ND","0.7","8.5","20.5","93.6","8.3","0"],
    [33541,"2014-03-04T08:00:00","ND","ND","ND","ND","ND","ND","0.7","356.8","20.9","92.1","73.7","0"],
    [33542,"2014-03-04T09:00:00","ND","ND","ND","ND","ND","ND","0.4","40.8","22","87.7","179.3","0"],
    [33543,"2014-03-04T10:00:00","ND","ND","ND","ND","ND","ND","0.9","77","23.6","77.8","388.3","0"],
    [33544,"2014-03-04T11:00:00","ND","ND","ND","ND","ND","ND","1","45.3","25.3","67.5","648.1","0"],
    [33545,"2014-03-04T12:00:00","ND","ND","ND","ND","ND","ND","0.7","82.2","26.1","63.9","447.3","0"],
    [33546,"2014-03-04T13:00:00","ND","ND","ND","ND","ND","ND","0.6","280.4","27.3","59.4","907","0"],
    [33547,"2014-03-04T14:00:00","ND","ND","ND","ND","ND","ND","0.5","116.3","28.9","52.8","702.6","0"],
    [33548,"2014-03-04T15:00:00","ND","ND","ND","ND","ND","ND","0.5","7.2","29.4","49.5","593.1","0"],
    [33549,"2014-03-04T16:00:00","ND","ND","ND","ND","ND","ND","1.9","273.3","29.1","51.5","320.4","0"],
    [33550,"2014-03-04T17:00:00","ND","ND","ND","ND","ND","ND","2.8","275.2","28.3","51.7","189.7","0"],
    [33551,"2014-03-04T18:00:00","ND","ND","ND","ND","ND","ND","1.4","285.1","28.2","50.6","100","0"],
    [33552,"2014-03-04T19:00:00","ND","ND","ND","ND","ND","ND","0.1","211.1","26.8","54.5","7.4","0"],
    [33553,"2014-03-04T20:00:00","ND","ND","ND","ND","ND","ND","0.3","198.8","26.1","56.8","0","0"],
    [33554,"2014-03-04T21:00:00","ND","ND","ND","ND","ND","ND","1.2","95.6","25.7","59.1","0","0"],
    [33555,"2014-03-04T22:00:00","ND","ND","ND","ND","ND","ND","0.1","296.3","24.5","64.3","0","0"],
    [33556,"2014-03-04T23:00:00","ND","ND","ND","ND","ND","ND","0.7","146.7","23.9","67.2","0","0"],
    [33557,"2014-03-05T00:00:00","ND","ND","ND","ND","ND","ND","0.1","295.7","23.1","71.2","0","0"],
    [33558,"2014-03-05T01:00:00","ND","ND","ND","ND","ND","ND","0.6","54.1","22.7","73.8","0","0"],
    [33559,"2014-03-05T02:00:00","ND","ND","ND","ND","ND","ND","0.3","88.6","22.7","73.1","0","0"],
    [33560,"2014-03-05T03:00:00","ND","ND","ND","ND","ND","ND","0.1","285.1","22.2","77.1","0","0"],
    [33561,"2014-03-05T04:00:00","ND","ND","ND","ND","ND","ND","1.1","124.3","22.3","77.7","0","0"],
    [33562,"2014-03-05T05:00:00","ND","ND","ND","ND","ND","ND","0.1","257.1","21.8","81.8","0","0"],
    [33563,"2014-03-05T06:00:00","ND","ND","ND","ND","ND","ND","0.6","223.8","21.4","84.3","0","0"],
    [33564,"2014-03-05T07:00:00","ND","ND","ND","ND","ND","ND","0.3","209","21.8","83.2","7.3","0"],
    [33565,"2014-03-05T08:00:00","ND","ND","ND","ND","ND","ND","0.3","242.8","22.2","83.1","62.8","0"],
    [33566,"2014-03-05T09:00:00","ND","ND","ND","ND","ND","ND","1.2","162.8","23.1","79.1","151.6","0"],
    [33567,"2014-03-05T10:00:00","ND","ND","ND","ND","ND","ND","1.7","166.6","23.9","72.5","289.3","0"],
    [33568,"2014-03-05T11:00:00","ND","ND","ND","ND","ND","ND","0.9","139.7","25.2","67.8","341.4","0"],
    [33569,"2014-03-05T12:00:00","69","ND","ND","ND","ND","ND","0.4","31.2","24.8","70","111.9","0"],
    [33570,"2014-03-05T13:00:00","62","ND","ND","ND","ND","ND","0.7","343.7","25.1","68.8","140.2","0"],
    [33571,"2014-03-05T14:00:00","55","ND","ND","ND","ND","ND","0.9","212.4","25.8","65","290.7","0"],
    [33572,"2014-03-05T15:00:00","61","ND","ND","ND","ND","ND","1.1","119.4","27.1","60.3","445.6","0"],
    [33573,"2014-03-05T16:00:00","59","ND","ND","ND","ND","ND","1.6","205.3","27.3","60.9","321.5","0"],
    [33574,"2014-03-05T17:00:00","57","ND","ND","ND","ND","ND","1.3","230.8","26.9","61.7","82","0"],
    [33575,"2014-03-05T18:00:00","59","ND","ND","ND","ND","ND","1.5","185.9","27","61.6","68.1","0"],
    [33576,"2014-03-05T19:00:00","62","ND","ND","ND","ND","ND","0.4","255.7","25.5","66.6","0","0"],
    [33577,"2014-03-05T20:00:00","67","ND","ND","ND","ND","ND","0.3","338.6","24.6","69.8","0","0"],
    [33578,"2014-03-05T21:00:00","27","ND","ND","ND","ND","ND","1.3","33.8","23.8","76.5","0","0"],
    [33579,"2014-03-05T22:00:00","49","ND","ND","ND","ND","ND","1.6","348.5","22.3","87.7","0","0"],
    [33580,"2014-03-05T23:00:00","57","ND","ND","ND","ND","ND","1.2","16.6","22","88.9","0","0"],
    [33581,"2014-03-06T00:00:00","37","ND","ND","ND","ND","ND","0.1","303.1","21.7","89.1","0","0"],
    [33582,"2014-03-06T01:00:00","46","ND","ND","ND","ND","ND","0.3","74.3","21.5","89","0","0"],
    [33583,"2014-03-06T02:00:00","48","ND","ND","ND","ND","ND","0.5","146.9","21.6","88.9","0","0"],
    [33584,"2014-03-06T03:00:00","29","ND","ND","ND","ND","ND","0.4","82.9","21.5","89.7","0","0"],
    [33585,"2014-03-06T04:00:00","31","ND","ND","ND","ND","ND","0.6","214.7","21.3","92.1","0","0"],
    [33586,"2014-03-06T05:00:00","29","ND","ND","ND","ND","ND","0.1","257.2","21.3","91.6","0","0"],
    [33587,"2014-03-06T06:00:00","26","ND","ND","ND","ND","ND","0.2","186.3","21.4","90.7","0","0"],
    [33588,"2014-03-06T07:00:00","52","ND","ND","ND","ND","ND","0.2","345.9","21.5","90.5","12.1","0"],
    [33589,"2014-03-06T08:00:00","85","ND","ND","ND","ND","ND","0.5","46.7","21.7","90.3","49.2","0"],
    [33590,"2014-03-06T09:00:00","94","ND","ND","ND","ND","ND","0.2","32.7","23","83.8","258.9","0"],
    [33591,"2014-03-06T10:00:00","88","ND","ND","ND","ND","ND","0.5","118.2","24.9","73.8","361.6","0"],
    [33592,"2014-03-06T11:00:00","63","ND","ND","ND","ND","ND","0.9","171.1","25","75.5","158.8","0.25"],
    [33593,"2014-03-06T12:00:00","48","ND","ND","ND","ND","ND","1.4","274.7","26.1","69.5","522.3","0"],
    [33594,"2014-03-06T13:00:00","48","ND","ND","ND","ND","ND","0.1","96.1","29.1","55.1","783.3","0"],
    [33595,"2014-03-06T14:00:00","57","ND","ND","ND","ND","ND","0.8","15.4","28.9","55.2","399","0"],
    [33596,"2014-03-06T15:00:00","31","ND","ND","ND","ND","ND","1.3","308.2","29","52.3","292.1","0"],
    [33597,"2014-03-06T16:00:00","22","ND","ND","ND","ND","ND","2.5","268.1","29.9","48.2","541.3","0"],
    [33598,"2014-03-06T17:00:00","16","ND","ND","ND","ND","ND","2.6","266.7","29.6","48","308.8","0"],
    [33599,"2014-03-06T18:00:00","23","ND","ND","ND","ND","ND","1.1","283.8","28","51","46.6","0"],
    [33600,"2014-03-06T19:00:00","34","ND","ND","ND","ND","ND","0.6","21.8","27.2","53","0","0"],
    [33601,"2014-03-06T20:00:00","54","ND","ND","ND","ND","ND","1.2","125.1","26.9","55.7","0","0"],
    [33602,"2014-03-06T21:00:00","56","ND","ND","ND","ND","ND","0.9","82.6","25.4","65.3","0","0"],
    [33603,"2014-03-06T22:00:00","53","ND","ND","ND","ND","ND","0.5","186.6","24.8","68.4","0","0"],
    [33604,"2014-03-06T23:00:00","53","ND","ND","ND","ND","ND","0.5","191.6","24.5","71.7","0","0"],
    [33605,"2014-03-07T00:00:00","51","ND","ND","ND","ND","ND","0.4","219.5","23.8","75.4","0","0"],
    [33606,"2014-03-07T01:00:00","43","ND","ND","ND","ND","ND","0.4","319.3","23.3","76.4","0","0"],
    [33607,"2014-03-07T02:00:00","66","ND","ND","ND","ND","ND","0.4","309.9","22.9","78.3","0","0"],
    [33608,"2014-03-07T03:00:00","50","ND","ND","ND","ND","ND","0.5","20.2","22.9","78","0","0"],
    [33609,"2014-03-07T04:00:00","68","ND","ND","ND","ND","ND","0.2","26.8","22.6","82.2","0","0"],
    [33610,"2014-03-07T05:00:00","57","ND","ND","ND","ND","ND","0.5","327.4","21.8","88.3","0","0"],
    [33611,"2014-03-07T06:00:00","61","ND","ND","ND","ND","ND","0.3","271.4","21.8","87.5","0","0"],
    [33612,"2014-03-07T07:00:00","63","ND","ND","ND","ND","ND","0.4","203.8","22.2","84.5","5.5","0"],
    [33613,"2014-03-07T08:00:00","73","ND","ND","ND","ND","ND","1.4","163.7","22.7","82.3","49.9","0"],
    [33614,"2014-03-07T09:00:00","53","ND","ND","ND","ND","ND","1.7","170","22.9","83.9","159.9","0"],
    [33615,"2014-03-07T10:00:00","42","ND","ND","ND","ND","ND","1.8","163.9","23.3","81.1","135.9","0"],
    [33616,"2014-03-07T11:00:00","51","ND","ND","ND","ND","ND","1.3","151.9","24.2","76.7","329.2","0"],
    [33617,"2014-03-07T12:00:00","49","ND","ND","ND","ND","ND","1.5","151.2","26.8","65.3","697.8","0"],
    [33618,"2014-03-07T13:00:00","50","ND","ND","ND","ND","ND","0.3","239","28.5","59","736.3","0"],
    [33619,"2014-03-07T14:00:00","61","ND","ND","ND","ND","ND","0.5","118.7","28.5","57.9","262.9","0"],
    [33620,"2014-03-07T15:00:00","35","ND","ND","ND","ND","ND","2.2","247.7","26.4","64.7","84.1","19.3"],
    [33621,"2014-03-07T16:00:00","14","ND","ND","ND","ND","ND","1.5","216","22.5","86.2","144.1","10.41"],
    [33622,"2014-03-07T17:00:00","14","ND","ND","ND","ND","ND","3.6","252.6","25.3","61.3","82.2","0"],
    [33623,"2014-03-07T18:00:00","38","ND","ND","ND","ND","ND","2.2","107.9","25.1","64.7","21.4","0"],
    [33624,"2014-03-07T19:00:00","29","ND","ND","ND","ND","ND","0.9","139.7","24","69","0","0"],
    [33625,"2014-03-07T20:00:00","36","ND","ND","ND","ND","ND","0.8","144.2","23.3","75.6","0","0"],
    [33626,"2014-03-07T21:00:00","41","ND","ND","ND","ND","ND","0.3","102.7","23.3","73.4","0","0"],
    [33627,"2014-03-07T22:00:00","37","ND","ND","ND","ND","ND","0.3","358.5","22.9","75.7","0","0"],
    [33628,"2014-03-07T23:00:00","32","ND","ND","ND","ND","ND","0.4","122","22.3","84.3","0","0"],
    [33629,"2014-03-08T00:00:00","34","ND","ND","ND","ND","ND","0.4","5.1","21.7","86.9","0","0"],
    [33630,"2014-03-08T01:00:00","48","ND","ND","ND","ND","ND","0.4","164.8","21.5","89.2","0","0.51"],
    [33631,"2014-03-08T02:00:00","25","ND","ND","ND","ND","ND","0.5","140.2","21.1","93.3","0","2.03"],
    [33632,"2014-03-08T03:00:00","26","ND","ND","ND","ND","ND","0.5","146.2","21.1","95.3","0","0"],
    [33633,"2014-03-08T04:00:00","28","ND","ND","ND","ND","ND","0.9","143.1","21.1","94","0","0"],
    [33634,"2014-03-08T05:00:00","35","ND","ND","ND","ND","ND","0.8","124","20.9","93.8","0","1.78"],
    [33635,"2014-03-08T06:00:00","22","ND","ND","ND","ND","ND","0.2","146.5","20.6","96.1","0","9.14"],
    [33636,"2014-03-08T07:00:00","25","ND","ND","ND","ND","ND","0.5","156.1","20.6","97","0","0.25"],
    [33637,"2014-03-08T08:00:00","29","ND","ND","ND","ND","ND","0.6","194.1","20.8","95.5","22.9","0"],
    [33638,"2014-03-08T09:00:00","35","ND","ND","ND","ND","ND","1","169.7","21.4","91.6","152.9","0"],
    [33639,"2014-03-08T10:00:00","33","ND","ND","ND","ND","ND","0.9","160.3","22.6","83.4","237.4","0.25"],
    [33640,"2014-03-08T11:00:00","39","ND","ND","ND","ND","ND","0.2","131.3","24.1","76.2","488.3","0"],
    [33641,"2014-03-08T12:00:00","48","ND","ND","ND","ND","ND","0.1","58.5","25.8","68.9","542.2","0"],
    [33642,"2014-03-08T13:00:00","46","ND","ND","ND","ND","ND","0.3","124.5","26.8","64.6","483.9","0"],
    [33643,"2014-03-08T14:00:00","45","ND","ND","ND","ND","ND","0.6","73.2","27.5","62.1","441.9","0"],
    [33644,"2014-03-08T15:00:00","50","ND","ND","ND","ND","ND","0.6","343.3","27.5","61.8","363.4","0"],
    [33645,"2014-03-08T16:00:00","17","ND","ND","ND","ND","ND","1.7","253.7","27.7","56.8","208.9","0"],
    [33646,"2014-03-08T17:00:00","ND","ND","ND","ND","ND","ND","0.2","313.2","27.8","56.1","234.4","0"],
    [33647,"2014-03-08T18:00:00","ND","ND","ND","ND","ND","ND","1.5","251.6","26.8","57","93.7","0"],
    [33648,"2014-03-08T19:00:00","31","ND","ND","ND","ND","ND","0.1","15.1","25.7","59.3","0","0"],
    [33649,"2014-03-08T20:00:00","35","ND","ND","ND","ND","ND","0.9","94.9","25.4","59.9","0","0"],
    [33650,"2014-03-08T21:00:00","45","ND","ND","ND","ND","ND","0.2","121.9","24.9","63.2","0","0"],
    [33651,"2014-03-08T22:00:00","52","ND","ND","ND","ND","ND","0.6","0.1","24.2","67.5","0","0"],
    [33652,"2014-03-08T23:00:00","38","ND","ND","ND","ND","ND","0.3","282.2","23.5","72","0","0"],
    [33653,"2014-03-09T00:00:00","42","ND","ND","ND","ND","ND","0.3","241.9","23","75.8","0","0"],
    [33654,"2014-03-09T01:00:00","49","ND","ND","ND","ND","ND","0.3","325.9","22.7","78.8","0","0"],
    [33655,"2014-03-09T02:00:00","48","ND","ND","ND","ND","ND","0.5","330.4","22.5","80.2","0","0"],
    [33656,"2014-03-09T03:00:00","35","ND","ND","ND","ND","ND","0.2","261.5","22.5","78.4","0","0"],
    [33657,"2014-03-09T04:00:00","43","ND","ND","ND","ND","ND","0.7","1.3","22.2","80","0","0"],
    [33658,"2014-03-09T05:00:00","34","ND","ND","ND","ND","ND","0.3","96.4","22.1","83","0","0"],
    [33659,"2014-03-09T06:00:00","ND","ND","ND","ND","ND","ND","0.3","214.2","21.3","89.9","0","1.02"],
    [33660,"2014-03-09T07:00:00","ND","ND","ND","ND","ND","ND","0.3","257.2","20.6","94.5","7.5","14.73"],
    [33661,"2014-03-09T08:00:00","17","ND","ND","ND","ND","ND","0.3","188.7","20.7","95.4","59.4","0.25"],
    [33662,"2014-03-09T09:00:00","19","ND","ND","ND","ND","ND","0.5","158.5","21.3","91.4","25.1","0.25"],
    [33663,"2014-03-09T10:00:00","39","ND","ND","ND","ND","ND","1","155","21.7","91.7","145.4","0.25"],
    [33664,"2014-03-09T11:00:00","16","ND","ND","ND","ND","ND","1.7","189.4","22.3","87.7","273.2","0"],
    [33665,"2014-03-09T12:00:00","21","ND","ND","ND","ND","ND","1.4","178.1","23.2","82.4","350.3","0.76"],
    [33666,"2014-03-09T13:00:00","10","ND","ND","ND","ND","ND","0.8","186.8","24.1","76.7","402","0"],
    [33667,"2014-03-09T14:00:00","10","ND","ND","ND","ND","ND","0","226","25.5","69.6","405.5","0"],
    [33668,"2014-03-09T15:00:00","27","ND","ND","ND","ND","ND","1.8","135.7","25.7","70.4","341.9","0"],
    [33669,"2014-03-09T16:00:00","26","ND","ND","ND","ND","ND","2.1","153.8","25.2","70.5","112.2","0"],
    [33670,"2014-03-09T17:00:00","31","ND","ND","ND","ND","ND","1","185.6","24.7","72.2","65.8","0"],
    [33671,"2014-03-09T18:00:00","24","ND","ND","ND","ND","ND","1.7","16.4","23.3","80.1","14.6","0"],
    [33672,"2014-03-09T19:00:00","28","ND","ND","ND","ND","ND","1.1","315","21.7","87.9","0","0.25"],
    [33673,"2014-03-09T20:00:00","28","ND","ND","ND","ND","ND","0.3","85.7","22.3","83.8","0","0"],
    [33674,"2014-03-09T21:00:00","28","ND","ND","ND","ND","ND","1.3","181.2","22","85.6","0","0"],
    [33675,"2014-03-09T22:00:00","19","ND","ND","ND","ND","ND","0.1","214.5","22","84.4","0","0"],
    [33676,"2014-03-09T23:00:00","24","ND","ND","ND","ND","ND","0.2","287.2","22","84.7","0","0"],
    [33677,"2014-03-10T00:00:00","30","ND","ND","ND","ND","ND","0.3","18","21.2","90.9","0","3.05"],
    [33678,"2014-03-10T01:00:00","33","ND","ND","ND","ND","ND","0.8","296.5","20.8","94.1","0","0.25"],
    [33679,"2014-03-10T02:00:00","16","ND","ND","ND","ND","ND","0.6","238","20.5","95","0","8.38"],
    [33680,"2014-03-10T03:00:00","14","ND","ND","ND","ND","ND","0.7","201","20","96.1","0","1.78"],
    [33681,"2014-03-10T04:00:00","ND","ND","ND","ND","ND","ND","0.6","359.4","20","96.1","0","0"],
    [33682,"2014-03-10T05:00:00","ND","ND","ND","ND","ND","ND","0.2","146.1","20.1","95.6","0","0"],
    [33683,"2014-03-10T06:00:00","ND","ND","ND","ND","ND","ND","0.1","280.1","19.9","95.7","0","0"],
    [33684,"2014-03-10T07:00:00","ND","ND","ND","ND","ND","ND","0.3","238","19.5","96.3","13.8","0.25"],
    [33685,"2014-03-10T08:00:00","38","ND","ND","ND","ND","ND","0.1","78.6","20.4","93.5","96.5","0"],
    [33686,"2014-03-10T09:00:00","55","ND","ND","ND","ND","ND","0.3","87.1","21.9","85.7","152.5","0"],
    [33687,"2014-03-10T10:00:00","55","ND","ND","ND","ND","ND","0.8","70.8","22.2","84.9","185.1","0"],
    [33688,"2014-03-10T11:00:00","51","ND","ND","ND","ND","ND","1.5","154.9","24.2","74.4","566.4","0"],
    [33689,"2014-03-10T12:00:00","32","ND","ND","ND","ND","ND","1.4","97.6","26.2","64.7","917.3","0"],
    [33690,"2014-03-10T13:00:00","37","ND","ND","ND","ND","ND","0.6","25.5","26.8","61.5","361.1","0"],
    [33691,"2014-03-10T14:00:00","39","ND","ND","ND","ND","ND","1.6","359.9","27.7","58.9","717.8","0"],
    [33692,"2014-03-10T15:00:00","29","ND","ND","ND","ND","ND","2.1","28.3","28.4","54.3","591.9","0"],
    [33693,"2014-03-10T16:00:00","17","ND","ND","ND","ND","ND","1.5","274.2","29","51.4","447.9","0"],
    [33694,"2014-03-10T17:00:00","20","ND","ND","ND","ND","ND","2.9","281.4","27.8","52.6","185.1","0"],
    [33695,"2014-03-10T18:00:00","29","ND","ND","ND","ND","ND","0.4","32.9","27.3","53.8","55.3","0"],
    [33696,"2014-03-10T19:00:00","28","ND","ND","ND","ND","ND","0.2","284.1","26.7","53.8","0","0"],
    [33697,"2014-03-10T20:00:00","52","ND","ND","ND","ND","ND","0.2","87","25.9","58.9","0","0"],
    [33698,"2014-03-10T21:00:00","69","ND","ND","ND","ND","ND","0.6","223.7","24.5","65.8","0","0"],
    [33699,"2014-03-10T22:00:00","61","ND","ND","ND","ND","ND","0","304.6","23.8","69.6","0","0"],
    [33700,"2014-03-10T23:00:00","30","ND","ND","ND","ND","ND","0.4","271.5","23.8","69.3","0","0"],
    [33701,"2014-03-11T00:00:00","56","ND","ND","ND","ND","ND","0.2","283.1","23.1","75.2","0","0"],
    [33702,"2014-03-11T01:00:00","54","ND","ND","ND","ND","ND","0.4","314.9","22.4","78.7","0","0"],
    [33703,"2014-03-11T02:00:00","105","ND","ND","ND","ND","ND","0.8","17.2","22.2","82.4","0","0"],
    [33704,"2014-03-11T03:00:00","67","ND","ND","ND","ND","ND","0.4","6","21.7","87","0","0"],
    [33705,"2014-03-11T04:00:00","90","ND","ND","ND","ND","ND","0.2","1.1","21.6","85.4","0","0"],
    [33706,"2014-03-11T05:00:00","80","ND","ND","ND","ND","ND","0.1","268.3","21.3","87.3","0","0"],
    [33707,"2014-03-11T06:00:00","81","ND","ND","ND","ND","ND","0.3","342.6","20.9","87.2","0","0"],
    [33708,"2014-03-11T07:00:00","101","ND","ND","ND","ND","ND","0.1","250.9","21.2","86.3","7.6","0"],
    [33709,"2014-03-11T08:00:00","95","ND","ND","ND","ND","ND","0.1","222.9","21.9","83","94.5","0"],
    [33710,"2014-03-11T09:00:00","ND","ND","ND","ND","ND","ND","0.3","162.7","24","74.4","346.3","0"],
    [33711,"2014-03-11T10:00:00","ND","ND","ND","ND","ND","ND","1.7","160.4","24.3","73.9","218.8","0"],
    [33712,"2014-03-11T11:00:00","62","ND","ND","ND","ND","ND","0.5","96.4","25.9","64.6","696","0"],
    [33713,"2014-03-11T12:00:00","50","ND","ND","ND","ND","ND","1.5","166.2","28","54.3","879.9","0"],
    [33714,"2014-03-11T13:00:00","38","ND","ND","ND","ND","ND","1.1","144.7","28.9","51","638.8","0"],
    [33715,"2014-03-11T14:00:00","38","ND","ND","ND","ND","ND","1.5","341.3","28.3","53.2","297.3","0"],
    [33716,"2014-03-11T15:00:00","40","ND","ND","ND","ND","ND","0.5","14.8","28.1","53.6","134.4","0"],
    [33717,"2014-03-11T16:00:00","22","ND","ND","ND","ND","ND","1.3","263.3","28.3","53","210.2","0"],
    [33718,"2014-03-11T17:00:00","38","ND","ND","ND","ND","ND","1","349.7","27.9","52.7","107.8","0"],
    [33719,"2014-03-11T18:00:00","20","ND","ND","ND","ND","ND","0.9","207.7","27.3","54","17.3","0"],
    [33720,"2014-03-11T19:00:00","42","ND","ND","ND","ND","ND","1.1","137.9","26.6","59.2","0","0"],
    [33721,"2014-03-11T20:00:00","61","ND","ND","ND","ND","ND","0.2","260.2","25.8","63.6","0","0"],
    [33722,"2014-03-11T21:00:00","69","ND","ND","ND","ND","ND","0.6","175.3","25.5","65.3","0","0"],
    [33723,"2014-03-11T22:00:00","97","ND","ND","ND","ND","ND","0.8","99.4","25.2","67.1","0","0"],
    [33724,"2014-03-11T23:00:00","44","ND","ND","ND","ND","ND","0.7","119.3","24.4","72.1","0","0"],
    [33725,"2014-03-12T00:00:00","45","ND","ND","ND","ND","ND","0.3","153.4","23.7","78.5","0","0"],
    [33726,"2014-03-12T01:00:00","52","ND","ND","ND","ND","ND","0.2","275.3","23.3","80.9","0","0"],
    [33727,"2014-03-12T02:00:00","55","ND","ND","ND","ND","ND","0.3","102.4","23.5","79.9","0","0"],
    [33728,"2014-03-12T03:00:00","42","ND","ND","ND","ND","ND","0.7","68.6","23","81.2","0","0"],
    [33729,"2014-03-12T04:00:00","43","ND","ND","ND","ND","ND","0.1","283.2","22.5","83","0","0"],
    [33730,"2014-03-12T05:00:00","43","ND","ND","ND","ND","ND","0.3","223.7","22.6","82.2","0","0"],
    [33731,"2014-03-12T06:00:00","38","ND","ND","ND","ND","ND","0.8","234.9","22.3","85.9","0","0"],
    [33732,"2014-03-12T07:00:00","78","ND","ND","ND","ND","ND","0.2","272.5","22.5","84.2","17.1","0"],
    [33733,"2014-03-12T08:00:00","96","ND","ND","ND","ND","ND","0.2","77.4","23.2","82","95.3","0"],
    [33734,"2014-03-12T09:00:00","104","ND","ND","ND","ND","ND","0.7","150.6","24","77.4","127.8","0"],
    [33735,"2014-03-12T10:00:00","63","ND","ND","ND","ND","ND","1.4","140.9","24.8","73.4","263.7","0"],
    [33736,"2014-03-12T11:00:00","ND","ND","ND","ND","ND","ND","0.9","219.3","25.2","72.2","177.3","0"],
    [33737,"2014-03-12T12:00:00","ND","ND","ND","ND","ND","ND","0.9","230.6","26.5","66.4","605.1","0"],
    [33738,"2014-03-12T13:00:00","52","ND","ND","ND","ND","ND","1.5","218.2","27.6","60.8","352.3","0"],
    [33739,"2014-03-12T14:00:00","36","ND","ND","ND","ND","ND","0.7","102.1","27.7","57.9","311.9","0"],
    [33740,"2014-03-12T15:00:00","39","ND","ND","ND","ND","ND","0.1","311.9","22.2","88.4","16.1","20.32"],
    [33741,"2014-03-12T16:00:00","17","ND","ND","ND","ND","ND","1.7","212.9","20.4","95.5","21.9","8.64"],
    [33742,"2014-03-12T17:00:00","31","ND","ND","ND","ND","ND","0.2","109.3","21.9","89.8","44","0.25"],
    [33743,"2014-03-12T18:00:00","56","ND","ND","ND","ND","ND","0.3","46.9","22.4","88.8","22.4","0"],
    [33744,"2014-03-12T19:00:00","71","ND","ND","ND","ND","ND","0.2","171.6","22.5","87.6","0","0"],
    [33745,"2014-03-12T20:00:00","75","ND","ND","ND","ND","ND","0.2","149.5","22.4","90.4","0","0"],
    [33746,"2014-03-12T21:00:00","60","ND","ND","ND","ND","ND","0.4","349.4","22.1","90.8","0","0"],
    [33747,"2014-03-12T22:00:00","66","ND","ND","ND","ND","ND","0.4","247.6","22","93","0","0.51"],
    [33748,"2014-03-12T23:00:00","50","ND","ND","ND","ND","ND","0.2","233.4","21.7","94.3","0","0"],
    [33749,"2014-03-13T00:00:00","37","ND","ND","ND","ND","ND","0.3","271.5","21.4","93.7","0","0.25"],
    [33750,"2014-03-13T01:00:00","32","ND","ND","ND","ND","ND","0.2","271.2","21.2","94.3","0","0"],
    [33751,"2014-03-13T02:00:00","40","ND","ND","ND","ND","ND","0.2","320.1","21","94.1","0","0"],
    [33752,"2014-03-13T03:00:00","39","ND","ND","ND","ND","ND","0.6","0.4","20.9","92.9","0","0"],
    [33753,"2014-03-13T04:00:00","63","ND","ND","ND","ND","ND","0.4","199.9","20.9","93.9","0","0"],
    [33754,"2014-03-13T05:00:00","45","ND","ND","ND","ND","ND","0.4","150.3","21.2","92.6","0","0"],
    [33755,"2014-03-13T06:00:00","54","ND","ND","ND","ND","ND","0.5","343","21.1","92.5","0","0.25"],
    [33756,"2014-03-13T07:00:00","71","ND","ND","ND","ND","ND","0.1","196.3","21.3","92.4","20.8","0"],
    [33757,"2014-03-13T08:00:00","102","ND","ND","ND","ND","ND","0.2","158.6","22.1","90.6","90.7","0"],
    [33758,"2014-03-13T09:00:00","118","ND","ND","ND","ND","ND","0.1","173","23.2","84.5","155.6","0"],
    [33759,"2014-03-13T10:00:00","109","ND","ND","ND","ND","ND","0.3","129.4","24.1","79.5","163.2","0"],
    [33760,"2014-03-13T11:00:00","89","ND","ND","ND","ND","ND","0.6","60.3","25.3","73.7","437.7","0"],
    [33761,"2014-03-13T12:00:00","74","ND","ND","ND","ND","ND","0.7","89.1","27.2","63.7","705","0"],
    [33762,"2014-03-13T13:00:00","51","ND","ND","ND","ND","ND","0.5","340.9","27.9","60.4","418.6","0"],
    [33763,"2014-03-13T14:00:00","48","ND","ND","ND","ND","ND","1.6","18.9","28.4","56.7","491.7","0"],
    [33764,"2014-03-13T15:00:00","62","ND","ND","ND","ND","ND","2.7","16","24.6","67.9","145.5","0"],
    [33765,"2014-03-13T16:00:00","65","ND","ND","ND","ND","ND","0.7","39.5","25.7","68.6","157.2","0"],
    [33766,"2014-03-13T17:00:00","63","ND","ND","ND","ND","ND","0.7","222.2","26.1","67.8","71.1","0"],
    [33767,"2014-03-13T18:00:00","50","ND","ND","ND","ND","ND","1.2","159.7","26.3","62.6","25.3","0"],
    [33768,"2014-03-13T19:00:00","62","ND","ND","ND","ND","ND","0.4","262.5","24.9","69.7","0","0"],
    [33769,"2014-03-13T20:00:00","65","ND","ND","ND","ND","ND","1.3","170.1","24.8","71.2","0","0"],
    [33770,"2014-03-13T21:00:00","85","ND","ND","ND","ND","ND","0.5","216.5","24","79.9","0","0"],
    [33771,"2014-03-13T22:00:00","93","ND","ND","ND","ND","ND","0.6","32.4","23.3","83","0","0"],
    [33772,"2014-03-13T23:00:00","83","ND","ND","ND","ND","ND","0","344.5","22.7","85.4","0","0"],
    [33773,"2014-03-14T00:00:00","57","ND","ND","ND","ND","ND","0.4","214.4","22.1","86.6","0","0"],
    [33774,"2014-03-14T01:00:00","43","ND","ND","ND","ND","ND","0.3","242.5","21.8","86.8","0","0"],
    [33775,"2014-03-14T02:00:00","44","ND","ND","ND","ND","ND","0.3","254.4","21.3","89","0","0"],
    [33776,"2014-03-14T03:00:00","42","ND","ND","ND","ND","ND","0","285.7","21.7","87.4","0","0"],
    [33777,"2014-03-14T04:00:00","61","ND","ND","ND","ND","ND","0.4","296.9","21.7","87.9","0","0"],
    [33778,"2014-03-14T05:00:00","74","ND","ND","ND","ND","ND","0.4","30.6","21.6","88.2","0","0"],
    [33779,"2014-03-14T06:00:00","93","ND","ND","ND","ND","ND","0.3","168.9","21.2","90.5","0","0"],
    [33780,"2014-03-14T07:00:00","99","ND","ND","ND","ND","ND","0.2","16.1","21.1","91.4","26.7","0"],
    [33781,"2014-03-14T08:00:00","125","ND","ND","ND","ND","ND","1.4","168.3","21.9","88.6","58","0"],
    [33782,"2014-03-14T09:00:00","96","ND","ND","ND","ND","ND","1","172.6","22.3","85.2","44.5","0"],
    [33783,"2014-03-14T10:00:00","63","ND","ND","ND","ND","ND","0.7","129","22.7","82.8","202.1","0"],
    [33784,"2014-03-14T11:00:00","52","ND","ND","ND","ND","ND","0.9","68","24.1","73.7","343.9","0"],
    [33785,"2014-03-14T12:00:00","64","ND","ND","ND","ND","ND","0.3","175","26.6","63.1","838","0"],
    [33786,"2014-03-14T13:00:00","40","ND","ND","ND","ND","ND","1.2","123.1","28.6","54.3","900.7","0"],
    [33787,"2014-03-14T14:00:00","36","ND","ND","ND","ND","ND","1.2","113.6","29.2","51.5","634.3","0"],
    [33788,"2014-03-14T15:00:00","41","ND","ND","ND","ND","ND","0.6","354.4","29.8","50.4","598.7","0"],
    [33789,"2014-03-14T16:00:00","37","ND","ND","ND","ND","ND","1","293.3","30.1","50.6","305.9","0"],
    [33790,"2014-03-14T17:00:00","32","ND","ND","ND","ND","ND","1.3","301.1","29.2","52.4","115.2","0"],
    [33791,"2014-03-14T18:00:00","30","ND","ND","ND","ND","ND","0.8","304.2","28.6","54.9","89.8","0"],
    [33792,"2014-03-14T19:00:00","44","ND","ND","ND","ND","ND","0.3","136.1","27.4","56.6","0","0"],
    [33793,"2014-03-14T20:00:00","46","ND","ND","ND","ND","ND","0.3","202.2","26.7","58.5","0","0"],
    [33794,"2014-03-14T21:00:00","74","ND","ND","ND","ND","ND","0.4","182.3","26","62.5","0","0"],
    [33795,"2014-03-14T22:00:00","64","ND","ND","ND","ND","ND","0.4","100.8","25.2","66.5","0","0"],
    [33796,"2014-03-14T23:00:00","60","ND","ND","ND","ND","ND","0.4","175.7","24.5","70.8","0","0"],
    [33797,"2014-03-15T00:00:00","61","ND","ND","ND","ND","ND","0.8","187.1","23.8","73.9","0","0"],
    [33798,"2014-03-15T01:00:00","59","ND","ND","ND","ND","ND","0.4","151.2","23.5","76","0","0"],
    [33799,"2014-03-15T02:00:00","45","ND","ND","ND","ND","ND","0.2","171.9","23.4","76.9","0","0"],
    [33800,"2014-03-15T03:00:00","46","ND","ND","ND","ND","ND","0.2","202.5","22.9","80.3","0","0"],
    [33801,"2014-03-15T04:00:00","50","ND","ND","ND","ND","ND","0.2","253.3","22.6","82.7","0","0"],
    [33802,"2014-03-15T05:00:00","72","ND","ND","ND","ND","ND","0.4","345.1","22.1","84.8","0","0"],
    [33803,"2014-03-15T06:00:00","70","ND","ND","ND","ND","ND","0.4","180.1","21.8","86.3","0","0"],
    [33804,"2014-03-15T07:00:00","75","ND","ND","ND","ND","ND","0.4","275.1","22.3","84.4","6.6","0"],
    [33805,"2014-03-15T08:00:00","77","ND","ND","ND","ND","ND","0.2","77.1","23","80.4","46.3","0"],
    [33806,"2014-03-15T09:00:00","114","ND","ND","ND","ND","ND","0.4","145.3","23.6","79.3","143.6","0"],
    [33807,"2014-03-15T10:00:00","107","ND","ND","ND","ND","ND","1.4","150.8","24.9","72","299.7","0"],
    [33808,"2014-03-15T11:00:00","63","ND","ND","ND","ND","ND","2.1","161.5","26.4","65.8","609.9","0"],
    [33809,"2014-03-15T12:00:00","46","ND","ND","ND","ND","ND","1.2","159.3","27.5","61.5","517.1","0"],
    [33810,"2014-03-15T13:00:00","58","ND","ND","ND","ND","ND","0.6","184.3","28.5","58","502.9","0"],
    [33811,"2014-03-15T14:00:00","63","ND","ND","ND","ND","ND","1.1","72.1","29.3","54.5","600.4","0"],
    [33812,"2014-03-15T15:00:00","37","ND","ND","ND","ND","ND","2.6","262.2","28.3","55.4","154.8","0.25"],
    [33813,"2014-03-15T16:00:00","27","ND","ND","ND","ND","ND","2.3","270.7","27.5","54.7","122.2","0"],
    [33814,"2014-03-15T17:00:00","15","ND","ND","ND","ND","ND","1.5","285.6","27.9","51.4","142.6","0"],
    [33815,"2014-03-15T18:00:00","38","ND","ND","ND","ND","ND","2","105.8","25.1","68.1","12.4","0"],
    [33816,"2014-03-15T19:00:00","28","ND","ND","ND","ND","ND","0.7","108.6","23.1","78.9","0","0"],
    [33817,"2014-03-15T20:00:00","37","ND","ND","ND","ND","ND","0.7","5.4","22.5","84.8","0","1.02"],
    [33818,"2014-03-15T21:00:00","39","ND","ND","ND","ND","ND","0.4","317.6","22","89.3","0","0.76"],
    [33819,"2014-03-15T22:00:00","31","ND","ND","ND","ND","ND","0.5","122.5","22.3","87.6","0","1.02"],
    [33820,"2014-03-15T23:00:00","46","ND","ND","ND","ND","ND","0.9","206.1","21.9","91","0","0"],
    [33821,"2014-03-16T00:00:00","42","ND","ND","ND","ND","ND","1.5","207.7","21.7","90.2","0","0"],
    [33822,"2014-03-16T01:00:00","45","ND","ND","ND","ND","ND","0.7","2.1","21.6","89.6","0","0"],
    [33823,"2014-03-16T02:00:00","55","ND","ND","ND","ND","ND","0.4","11.8","21.2","92.8","0","0"],
    [33824,"2014-03-16T03:00:00","59","ND","ND","ND","ND","ND","0.3","345.9","21.1","92.4","0","0"],
    [33825,"2014-03-16T04:00:00","59","ND","ND","ND","ND","ND","0.1","260.8","21.2","90.9","0","0"],
    [33826,"2014-03-16T05:00:00","46","ND","ND","ND","ND","ND","0.4","243.9","21.2","90.3","0","0"],
    [33827,"2014-03-16T06:00:00","51","ND","ND","ND","ND","ND","0.1","83","21.4","89.9","0","0"],
    [33828,"2014-03-16T07:00:00","70","ND","ND","ND","ND","ND","0.3","30.4","21.2","92.7","6.3","0"],
    [33829,"2014-03-16T08:00:00","77","ND","ND","ND","ND","ND","0.5","68.4","21.7","90.5","76.2","0"],
    [33830,"2014-03-16T09:00:00","76","ND","ND","ND","ND","ND","0.8","78.1","22.5","87.1","212.3","0"],
    [33831,"2014-03-16T10:00:00","72","ND","ND","ND","ND","ND","1.3","133.3","24.6","76.2","592","0"],
    [33832,"2014-03-16T11:00:00","59","ND","ND","ND","ND","ND","1.6","123.9","25.9","67.8","657.6","0"],
    [33833,"2014-03-16T12:00:00","60","ND","ND","ND","ND","ND","0.4","129.7","27.4","60.4","592.8","0"],
    [33834,"2014-03-16T13:00:00","50","ND","ND","ND","ND","ND","0.4","94.8","28.4","56.2","588","0"],
    [33835,"2014-03-16T14:00:00","54","ND","ND","ND","ND","ND","1.1","296","28.6","56.3","444.1","0"],
    [33836,"2014-03-16T15:00:00","23","ND","ND","ND","ND","ND","1","288","30","49.3","649.3","0"],
    [33837,"2014-03-16T16:00:00","12","ND","ND","ND","ND","ND","3.4","281.8","30.3","47.5","594.5","0"],
    [33838,"2014-03-16T17:00:00","26","ND","ND","ND","ND","ND","3.2","296.6","29.3","50.2","349.9","0"],
    [33839,"2014-03-16T18:00:00","13","ND","ND","ND","ND","ND","1.7","294.5","27.7","54.4","73.2","0"],
    [33840,"2014-03-16T19:00:00","23","ND","ND","ND","ND","ND","0.3","326.5","27.2","56.2","0","0"],
    [33841,"2014-03-16T20:00:00","30","ND","ND","ND","ND","ND","1.3","107.9","27.2","56.5","0","0"],
    [33842,"2014-03-16T21:00:00","26","ND","ND","ND","ND","ND","2.1","146.4","26.5","60","0","0"],
    [33843,"2014-03-16T22:00:00","23","ND","ND","ND","ND","ND","2.2","202.8","25.6","65.9","0","0"],
    [33844,"2014-03-16T23:00:00","25","ND","ND","ND","ND","ND","1.3","148.3","25.4","68.8","0","0"],
    [33845,"2014-03-17T00:00:00","48","ND","ND","ND","ND","ND","0.9","133","24.7","74","0","0"],
    [33846,"2014-03-17T01:00:00","25","ND","ND","ND","ND","ND","0.5","73.7","23.5","81.6","0","0"],
    [33847,"2014-03-17T02:00:00","34","ND","ND","ND","ND","ND","0.9","31.1","22.5","86.8","0","0"],
    [33848,"2014-03-17T03:00:00","30","ND","ND","ND","ND","ND","0.3","311","22.5","86.6","0","0"],
    [33849,"2014-03-17T04:00:00","42","ND","ND","ND","ND","ND","0.5","36.9","22.6","85.5","0","0"],
    [33850,"2014-03-17T05:00:00","39","ND","ND","ND","ND","ND","0.7","347.4","22.1","88.4","0","0"],
    [33851,"2014-03-17T06:00:00","51","ND","ND","ND","ND","ND","0.5","20.9","21.8","89.9","0","0"],
    [33852,"2014-03-17T07:00:00","72","ND","ND","ND","ND","ND","0.6","39.4","21.5","90.3","13.1","0"],
    [33853,"2014-03-17T08:00:00","81","ND","ND","ND","ND","ND","1.1","39.8","22.3","86.5","164.7","0"],
    [33854,"2014-03-17T09:00:00","72","ND","ND","ND","ND","ND","1.1","39","23.8","79.9","337.7","0"],
    [33855,"2014-03-17T10:00:00","38","ND","ND","ND","ND","ND","1.7","46","25.6","69.3","623","0"],
    [33856,"2014-03-17T11:00:00","28","ND","ND","ND","ND","ND","1.3","75.3","27.7","58.3","790.4","0"],
    [33857,"2014-03-17T12:00:00","24","ND","ND","ND","ND","ND","1.2","61.8","28.9","54.1","872.2","0"],
    [33858,"2014-03-17T13:00:00","34","ND","ND","ND","ND","ND","1.3","61.1","29.8","52.7","616.8","0"],
    [33859,"2014-03-17T14:00:00","35","ND","ND","ND","ND","ND","0.8","304","30.3","50.8","523.7","0"],
    [33860,"2014-03-17T15:00:00","8","ND","ND","ND","ND","ND","3.3","271.6","30.4","48","607.6","0"],
    [33861,"2014-03-17T16:00:00","18","ND","ND","ND","ND","ND","3","265.5","30.1","47.4","438.9","0"],
    [33862,"2014-03-17T17:00:00","19","ND","ND","ND","ND","ND","2.5","269.6","29.6","47.2","239.1","0"],
    [33863,"2014-03-17T18:00:00","24","ND","ND","ND","ND","ND","1.5","272.8","29","48","70.7","0"],
    [33864,"2014-03-17T19:00:00","21","ND","ND","ND","ND","ND","0.6","294","27.7","51.9","0","0"],
    [33865,"2014-03-17T20:00:00","40","ND","ND","ND","ND","ND","2","230.1","27.1","56.2","0","0"],
    [33866,"2014-03-17T21:00:00","20","ND","ND","ND","ND","ND","2.6","241","26.3","59","0","0"],
    [33867,"2014-03-17T22:00:00","22","ND","ND","ND","ND","ND","0.8","202","26.3","59.1","0","0"],
    [33868,"2014-03-17T23:00:00","17","ND","ND","ND","ND","ND","0.6","93.5","25.5","62.9","0","0"],
    [33869,"2014-03-18T00:00:00","11","ND","ND","ND","ND","ND","0.9","58.5","23.6","75.5","0","0"],
    [33870,"2014-03-18T01:00:00","24","ND","ND","ND","ND","ND","0.2","345.1","22.6","85.3","0","0.25"],
    [33871,"2014-03-18T02:00:00","21","ND","ND","ND","ND","ND","0.3","262.6","22.4","88.5","0","0.25"],
    [33872,"2014-03-18T03:00:00","29","ND","ND","ND","ND","ND","0.4","4.3","22.3","89","0","0"],
    [33873,"2014-03-18T04:00:00","55","ND","ND","ND","ND","ND","0.2","181.5","22.2","89.8","0","0"],
    [33874,"2014-03-18T05:00:00","30","ND","ND","ND","ND","ND","0.4","253.4","22.1","88.2","0","0"],
    [33875,"2014-03-18T06:00:00","23","ND","ND","ND","ND","ND","0.1","274.1","22","86.9","0","0"],
    [33876,"2014-03-18T07:00:00","53","ND","ND","ND","ND","ND","0.1","243.5","22","86.3","23.3","0"],
    [33877,"2014-03-18T08:00:00","106","ND","ND","ND","ND","ND","0.2","76.8","23.2","82.2","156.3","0"],
    [33878,"2014-03-18T09:00:00","48","ND","ND","ND","ND","ND","0.5","73.6","25","72.1","337.5","0"],
    [33879,"2014-03-18T10:00:00","42","ND","ND","ND","ND","ND","0.8","95.8","25.7","69.5","470","0"],
    [33880,"2014-03-18T11:00:00","32","ND","ND","ND","ND","ND","1.5","129.6","27.5","60.8","614.5","0"],
    [33881,"2014-03-18T12:00:00","38","ND","ND","ND","ND","ND","0.8","46.8","28.4","58","627.4","0"],
    [33882,"2014-03-18T13:00:00","37","ND","ND","ND","ND","ND","1.2","33.5","29.3","55","558.6","0"],
    [33883,"2014-03-18T14:00:00","19","ND","ND","ND","ND","ND","1.1","323.9","30.3","49.7","562.4","0"],
    [33884,"2014-03-18T15:00:00","23","ND","ND","ND","ND","ND","2.1","284.2","29.6","50.8","307.5","0"],
    [33885,"2014-03-18T16:00:00","18","ND","ND","ND","ND","ND","1.7","265.4","29.4","50.2","269.4","0"],
    [33886,"2014-03-18T17:00:00","26","ND","ND","ND","ND","ND","1","277.1","28.9","50.2","155.6","0"],
    [33887,"2014-03-18T18:00:00","32","ND","ND","ND","ND","ND","0.5","233.6","28.1","51.6","83.8","0"],
    [33888,"2014-03-18T19:00:00","48","ND","ND","ND","ND","ND","0.6","80.3","27.1","54.7","0","0"],
    [33889,"2014-03-18T20:00:00","24","ND","ND","ND","ND","ND","1.5","172.9","26.2","58.1","0","0"],
    [33890,"2014-03-18T21:00:00","41","ND","ND","ND","ND","ND","1.8","184.3","24.8","66.4","0","0"],
    [33891,"2014-03-18T22:00:00","42","ND","ND","ND","ND","ND","0.4","309.9","24.1","68","0","0"],
    [33892,"2014-03-18T23:00:00","69","ND","ND","ND","ND","ND","0.6","358.5","23.1","75.2","0","0"],
    [33893,"2014-03-19T00:00:00","54","ND","ND","ND","ND","ND","0.5","317.4","22.6","76.5","0","0"],
    [33894,"2014-03-19T01:00:00","51","ND","ND","ND","ND","ND","0.5","297.7","22.9","75.2","0","0"],
    [33895,"2014-03-19T02:00:00","51","ND","ND","ND","ND","ND","0.6","80.4","22.7","77.6","0","0"],
    [33896,"2014-03-19T03:00:00","55","ND","ND","ND","ND","ND","0.5","323.3","22.2","80.4","0","0"],
    [33897,"2014-03-19T04:00:00","48","ND","ND","ND","ND","ND","0.4","332","22.3","78.9","0","0"],
    [33898,"2014-03-19T05:00:00","35","ND","ND","ND","ND","ND","0.3","256.9","21.8","80.9","0","0"],
    [33899,"2014-03-19T06:00:00","32","ND","ND","ND","ND","ND","0.8","247.7","22.2","77.5","0","0"],
    [33900,"2014-03-19T07:00:00","148","ND","ND","ND","ND","ND","0.4","56.7","21.9","81.2","26.8","0"],
    [33901,"2014-03-19T08:00:00","131","ND","ND","ND","ND","ND","0.1","130.9","23.5","75.5","187.9","0"],
    [33902,"2014-03-19T09:00:00","65","ND","ND","ND","ND","ND","0.6","145.4","25.5","65.1","398.1","0"],
    [33903,"2014-03-19T10:00:00","93","ND","ND","ND","ND","ND","1.4","76","26.4","65.3","607.3","0"],
    [33904,"2014-03-19T11:00:00","75","ND","ND","ND","ND","ND","1.1","134.2","27.8","59.1","703.8","0"],
    [33905,"2014-03-19T12:00:00","64","ND","ND","ND","ND","ND","1","46.5","28.8","54.2","632.8","0"],
    [33906,"2014-03-19T13:00:00","42","ND","ND","ND","ND","ND","1.3","78.8","29.4","51.5","471.8","0"],
    [33907,"2014-03-19T14:00:00","42","ND","ND","ND","ND","ND","1","109","30","50.8","399.3","0"],
    [33908,"2014-03-19T15:00:00","49","ND","ND","ND","ND","ND","0.8","54.3","29.5","53.2","257.6","0"],
    [33909,"2014-03-19T16:00:00","49","ND","ND","ND","ND","ND","0.8","77","29.9","52.7","304.3","0"],
    [33910,"2014-03-19T17:00:00","37","ND","ND","ND","ND","ND","1.8","236.8","30.4","50.3","276.4","0"],
    [33911,"2014-03-19T18:00:00","29","ND","ND","ND","ND","ND","2","268.8","28.9","53.8","47","0"],
    [33912,"2014-03-19T19:00:00","42","ND","ND","ND","ND","ND","0.1","238.4","27.6","56.9","0","0"],
    [33913,"2014-03-19T20:00:00","70","ND","ND","ND","ND","ND","0.2","160","27.1","59.1","0","0"],
    [33914,"2014-03-19T21:00:00","91","ND","ND","ND","ND","ND","0.4","58.3","26.5","61.9","0","0"],
    [33915,"2014-03-19T22:00:00","95","ND","ND","ND","ND","ND","1.1","170.9","25.4","67.6","0","0"],
    [33916,"2014-03-19T23:00:00","66","ND","ND","ND","ND","ND","0.2","288.2","25.1","69.3","0","0"],
    [33917,"2014-03-20T00:00:00","41","ND","ND","ND","ND","ND","0.3","144.5","24.5","71.9","0","0"],
    [33918,"2014-03-20T01:00:00","44","ND","ND","ND","ND","ND","0.2","339.9","24","74.9","0","0"],
    [33919,"2014-03-20T02:00:00","47","ND","ND","ND","ND","ND","0.3","286.1","23.9","75","0","0"],
    [33920,"2014-03-20T03:00:00","61","ND","ND","ND","ND","ND","0.5","179.6","24","76.2","0","0"],
    [33921,"2014-03-20T04:00:00","49","ND","ND","ND","ND","ND","0.2","346.9","23","80.5","0","0"],
    [33922,"2014-03-20T05:00:00","64","ND","ND","ND","ND","ND","0.4","294.2","22.8","81.9","0","0"],
    [33923,"2014-03-20T06:00:00","58","ND","ND","ND","ND","ND","0.2","251.7","23.2","80.8","0","0"],
    [33924,"2014-03-20T07:00:00","109","ND","ND","ND","ND","ND","0.7","23.8","23.2","80.8","12.8","0"],
    [33925,"2014-03-20T08:00:00","126","ND","ND","ND","ND","ND","0.7","37.8","23.6","79.9","116","0"],
    [33926,"2014-03-20T09:00:00","109","ND","ND","ND","ND","ND","0.7","109.3","25.5","71.9","387.7","0"],
    [33927,"2014-03-20T10:00:00","77","ND","ND","ND","ND","ND","1.8","136.3","27.5","62.5","587.9","0"],
    [33928,"2014-03-20T11:00:00","54","ND","ND","ND","ND","ND","1.3","148","28.1","58.4","376.5","0"],
    [33929,"2014-03-20T12:00:00","78","ND","ND","ND","ND","ND","0.8","4.8","28.2","59.5","403.5","0"],
    [33930,"2014-03-20T13:00:00","63","ND","ND","ND","ND","ND","1.1","135.2","30.6","50.1","855","0"],
    [33931,"2014-03-20T14:00:00","42","ND","ND","ND","ND","ND","1","305.9","31.4","46.6","470.6","0"],
    [33932,"2014-03-20T15:00:00","25","ND","ND","ND","ND","ND","3.8","262.3","30.8","47.8","465.6","0"],
    [33933,"2014-03-20T16:00:00","28","ND","ND","ND","ND","ND","3.7","257.6","31","46.6","523.3","0"],
    [33934,"2014-03-20T17:00:00","27","ND","ND","ND","ND","ND","3.8","274.1","30.1","48.4","285.4","0"],
    [33935,"2014-03-20T18:00:00","28","ND","ND","ND","ND","ND","2.4","274.1","29.3","50","70.5","0"],
    [33936,"2014-03-20T19:00:00","23","ND","ND","ND","ND","ND","2","275.7","28.6","51.3","0","0"],
    [33937,"2014-03-20T20:00:00","48","ND","ND","ND","ND","ND","1.9","100.7","28","56","0","0"],
    [33938,"2014-03-20T21:00:00","25","ND","ND","ND","ND","ND","1.7","180.2","26.8","59.8","0","0"],
    [33939,"2014-03-20T22:00:00","19","ND","ND","ND","ND","ND","0.5","321.8","26.2","61.8","0","0"],
    [33940,"2014-03-20T23:00:00","37","ND","ND","ND","ND","ND","1.1","90.6","24.9","70.7","0","0"],
    [33941,"2014-03-21T00:00:00","62","ND","ND","ND","ND","ND","0.1","351.9","24.3","74.5","0","0"],
    [33942,"2014-03-21T01:00:00","65","ND","ND","ND","ND","ND","0.4","93.7","24.3","74.4","0","0"],
    [33943,"2014-03-21T02:00:00","49","ND","ND","ND","ND","ND","0.2","182.7","24.1","75","0","0"],
    [33944,"2014-03-21T03:00:00","45","ND","ND","ND","ND","ND","0.3","177.4","24.1","75.4","0","0"],
    [33945,"2014-03-21T04:00:00","49","ND","ND","ND","ND","ND","0.4","311","23.5","78.6","0","0"],
    [33946,"2014-03-21T05:00:00","54","ND","ND","ND","ND","ND","0.6","39.8","23.3","79.7","0","0"],
    [33947,"2014-03-21T06:00:00","69","ND","ND","ND","ND","ND","0.5","27.9","23.2","81.5","0","0"],
    [33948,"2014-03-21T07:00:00","74","ND","ND","ND","ND","ND","0.2","104.9","23.2","81.9","17.8","0"],
    [33949,"2014-03-21T08:00:00","115","ND","ND","ND","ND","ND","0.9","37.3","23.7","80.1","133.1","0"],
    [33950,"2014-03-21T09:00:00","99","ND","ND","ND","ND","ND","0.4","57.7","25","72.3","345.6","0"],
    [33951,"2014-03-21T10:00:00","43","ND","ND","ND","ND","ND","0.2","106.1","27.3","60.2","547.1","0"],
    [33952,"2014-03-21T11:00:00","43","ND","ND","ND","ND","ND","0.5","183.4","28","56.4","538.4","0"],
    [33953,"2014-03-21T12:00:00","57","ND","ND","ND","ND","ND","0.2","264.2","29","53.5","622.9","0"],
    [33954,"2014-03-21T13:00:00","47","ND","ND","ND","ND","ND","0.6","26.2","30.1","50.5","610.9","0"],
    [33955,"2014-03-21T14:00:00","28","ND","ND","ND","ND","ND","1.9","250","30.4","48.7","396.4","0"],
    [33956,"2014-03-21T15:00:00","22","ND","ND","ND","ND","ND","2.7","264.5","30","48.7","279.2","0"],
    [33957,"2014-03-21T16:00:00","17","ND","ND","ND","ND","ND","3.1","263.5","29.7","49.9","302.2","0"],
    [33958,"2014-03-21T17:00:00","28","ND","ND","ND","ND","ND","3","276.1","28.8","51.1","141.6","0"],
    [33959,"2014-03-21T18:00:00","21","ND","ND","ND","ND","ND","1.9","261.7","28.3","52.7","64.9","0"],
    [33960,"2014-03-21T19:00:00","29","ND","ND","ND","ND","ND","2.4","254.7","27.6","54.5","0","0"],
    [33961,"2014-03-21T20:00:00","41","ND","ND","ND","ND","ND","1","120.1","27.1","56.5","0","0"],
    [33962,"2014-03-21T21:00:00","61","ND","ND","ND","ND","ND","0.4","150","26","61.8","0","0"],
    [33963,"2014-03-21T22:00:00","66","ND","ND","ND","ND","ND","0.4","49.3","25.3","65.7","0","0"],
    [33964,"2014-03-21T23:00:00","70","ND","ND","ND","ND","ND","0.1","180.2","24.6","68.6","0","0"],
    [33965,"2014-03-22T00:00:00","71","ND","ND","ND","ND","ND","0.7","15","23.9","73.1","0","0"],
    [33966,"2014-03-22T01:00:00","138","ND","ND","ND","ND","ND","0.4","11.9","23.3","76.4","0","0"],
    [33967,"2014-03-22T02:00:00","61","ND","ND","ND","ND","ND","0.4","285.8","23.2","76.4","0","0"],
    [33968,"2014-03-22T03:00:00","51","ND","ND","ND","ND","ND","0.3","270.6","23.2","77","0","0"],
    [33969,"2014-03-22T04:00:00","44","ND","ND","ND","ND","ND","0.5","263.3","22.9","78.2","0","0"],
    [33970,"2014-03-22T05:00:00","55","ND","ND","ND","ND","ND","0.4","351.2","22.6","78.9","0","0"],
    [33971,"2014-03-22T06:00:00","67","ND","ND","ND","ND","ND","0.2","359.2","22.4","79.8","0","0"],
    [33972,"2014-03-22T07:00:00","107","ND","ND","ND","ND","ND","0.4","53.1","22.5","79.9","8.4","0"],
    [33973,"2014-03-22T08:00:00","118","ND","ND","ND","ND","ND","0.3","180.2","23.4","76.5","128.8","0"],
    [33974,"2014-03-22T09:00:00","106","ND","ND","ND","ND","ND","0.8","113.9","25.5","68.2","304.9","0"],
    [33975,"2014-03-22T10:00:00","50","ND","ND","ND","ND","ND","1.3","147.4","27","60.5","579.6","0"],
    [33976,"2014-03-22T11:00:00","29","ND","ND","ND","ND","ND","1.6","110.9","28","55.7","794.6","0"],
    [33977,"2014-03-22T12:00:00","35","ND","ND","ND","ND","ND","1.3","108.7","29","52.5","752.4","0"],
    [33978,"2014-03-22T13:00:00","39","ND","ND","ND","ND","ND","0.6","73","31","46.6","837.3","0"],
    [33979,"2014-03-22T14:00:00","46","ND","ND","ND","ND","ND","1","78.5","31.7","44.1","719.4","0"],
    [33980,"2014-03-22T15:00:00","50","ND","ND","ND","ND","ND","1.8","359.9","31.3","46.4","301.7","0"],
    [33981,"2014-03-22T16:00:00","32","ND","ND","ND","ND","ND","2.2","282.7","31.6","46.2","479.5","0"],
    [33982,"2014-03-22T17:00:00","27","ND","ND","ND","ND","ND","2.9","277","30.8","47.3","241.8","0"],
    [33983,"2014-03-22T18:00:00","27","ND","ND","ND","ND","ND","2.7","266.9","29.6","48.3","65.1","0"],
    [33984,"2014-03-22T19:00:00","33","ND","ND","ND","ND","ND","0.8","250.5","29","49.8","0","0"],
    [33985,"2014-03-22T20:00:00","62","ND","ND","ND","ND","ND","0.3","7.7","28","53.4","0","0"],
    [33986,"2014-03-22T21:00:00","67","ND","ND","ND","ND","ND","0.5","100.5","27.6","56.3","0","0"],
    [33987,"2014-03-22T22:00:00","56","ND","ND","ND","ND","ND","0.4","215.5","26.8","60.4","0","0"],
    [33988,"2014-03-22T23:00:00","72","ND","ND","ND","ND","ND","0.5","108.3","26.2","64.5","0","0"],
    [33989,"2014-03-23T00:00:00","64","ND","ND","ND","ND","ND","0.8","162.9","25.8","66.7","0","0"],
    [33990,"2014-03-23T01:00:00","40","ND","ND","ND","ND","ND","0.8","154.6","25.2","69.6","0","0"],
    [33991,"2014-03-23T02:00:00","43","ND","ND","ND","ND","ND","0.5","112.9","24.5","72.5","0","0"],
    [33992,"2014-03-23T03:00:00","112","ND","ND","ND","ND","ND","0.5","123.4","24.5","73.3","0","0.76"],
    [33993,"2014-03-23T04:00:00","56","ND","ND","ND","ND","ND","0.8","333.8","22.7","88.2","0","2.29"],
    [33994,"2014-03-23T05:00:00","54","ND","ND","ND","ND","ND","0.3","26.3","22.8","87.5","0","0"],
    [33995,"2014-03-23T06:00:00","31","ND","ND","ND","ND","ND","0.2","335.5","22.7","87.1","0","0"],
    [33996,"2014-03-23T07:00:00","39","ND","ND","ND","ND","ND","0.4","255.9","22.8","89","19.3","0"],
    [33997,"2014-03-23T08:00:00","52","ND","ND","ND","ND","ND","0.2","348.2","24.3","80.1","179.7","0"],
    [33998,"2014-03-23T09:00:00","63","ND","ND","ND","ND","ND","1","77.5","25.5","77","335.8","0"],
    [33999,"2014-03-23T10:00:00","47","ND","ND","ND","ND","ND","1.1","107.3","26.8","66.1","548.7","0"],
    [34000,"2014-03-23T11:00:00","26","ND","ND","ND","ND","ND","0.6","88.1","28.3","58.5","714.7","0"],
    [34001,"2014-03-23T12:00:00","37","ND","ND","ND","ND","ND","1.1","105.8","29.6","54","806.4","0"],
    [34002,"2014-03-23T13:00:00","45","ND","ND","ND","ND","ND","1","36.3","30.4","52.3","667.5","0"],
    [34003,"2014-03-23T14:00:00","30","ND","ND","ND","ND","ND","1","311.5","31","48","665.3","0"],
    [34004,"2014-03-23T15:00:00","26","ND","ND","ND","ND","ND","1.1","4.4","31.7","45.8","539.1","0"],
    [34005,"2014-03-23T16:00:00","18","ND","ND","ND","ND","ND","1.8","287.4","32.1","44.4","512.3","0"],
    [34006,"2014-03-23T17:00:00","11","ND","ND","ND","ND","ND","2.9","269","31.1","47.1","284.3","0"],
    [34007,"2014-03-23T18:00:00","20","ND","ND","ND","ND","ND","4.1","272.8","29.4","49.8","73.8","0"],
    [34008,"2014-03-23T19:00:00","27","ND","ND","ND","ND","ND","1","275.3","28.5","52.7","0","0"],
    [34009,"2014-03-23T20:00:00","42","ND","ND","ND","ND","ND","1.3","85.3","27.5","58","0","0"],
    [34010,"2014-03-23T21:00:00","40","ND","ND","ND","ND","ND","0.8","41.5","25.9","63.4","0","0"],
    [34011,"2014-03-23T22:00:00","26","ND","ND","ND","ND","ND","0.6","54.7","25","71","0","0"],
    [34012,"2014-03-23T23:00:00","28","ND","ND","ND","ND","ND","0.1","346.1","23.9","80","0","2.54"],
    [34013,"2014-03-24T00:00:00","35","ND","ND","ND","ND","ND","0.5","199","23.4","85.4","0","0.25"],
    [34014,"2014-03-24T01:00:00","23","ND","ND","ND","ND","ND","0.3","286.9","23.1","85.6","0","0"],
    [34015,"2014-03-24T02:00:00","62","ND","ND","ND","ND","ND","0.4","354.4","23","85.6","0","0"],
    [34016,"2014-03-24T03:00:00","57","ND","ND","ND","ND","ND","0.5","340.8","23.1","84.1","0","0"],
    [34017,"2014-03-24T04:00:00","49","ND","ND","ND","ND","ND","0.4","279.3","22.9","84.9","0","0"],
    [34018,"2014-03-24T05:00:00","54","ND","ND","ND","ND","ND","0.1","104.8","23","85","0","0"],
    [34019,"2014-03-24T06:00:00","27","ND","ND","ND","ND","ND","0.9","158.5","22.6","86.7","0","0"],
    [34020,"2014-03-24T07:00:00","32","ND","ND","ND","ND","ND","0.1","61.4","22.4","87.1","22","0"],
    [34021,"2014-03-24T08:00:00","58","ND","ND","ND","ND","ND","0.7","81.8","23.1","86.2","80.6","0"],
    [34022,"2014-03-24T09:00:00","74","ND","ND","ND","ND","ND","0.9","5.2","23.3","85.8","105.8","0"],
    [34023,"2014-03-24T10:00:00","70","ND","ND","ND","ND","ND","1","35.2","25.1","78.8","575","0"],
    [34024,"2014-03-24T11:00:00","49","ND","ND","ND","ND","ND","1","337.3","26.9","67.6","554.7","0"],
    [34025,"2014-03-24T12:00:00","29","ND","ND","ND","ND","ND","1.1","87.4","28.5","57.3","640.2","0"],
    [34026,"2014-03-24T13:00:00","17","ND","ND","ND","ND","ND","0.8","269","28.7","54.9","292.7","0"],
    [34027,"2014-03-24T14:00:00","11","ND","ND","ND","ND","ND","3","268.1","29.4","50.5","516.1","0"],
    [34028,"2014-03-24T15:00:00","15","ND","ND","ND","ND","ND","2.9","274.3","29.5","48.8","477.3","0"],
    [34029,"2014-03-24T16:00:00","23","ND","ND","ND","ND","ND","4.8","282.2","28.4","50.9","320.4","0"],
    [34030,"2014-03-24T17:00:00","12","ND","ND","ND","ND","ND","4.3","271.5","27.6","52.8","130.5","0"],
    [34031,"2014-03-24T18:00:00","21","ND","ND","ND","ND","ND","2","278.2","26.5","55.7","26","0"],
    [34032,"2014-03-24T19:00:00","25","ND","ND","ND","ND","ND","1.5","88","24.4","71.5","0","0.76"],
    [34033,"2014-03-24T20:00:00","56","ND","ND","ND","ND","ND","0.6","73.7","22.6","84.6","0","0"],
    [34034,"2014-03-24T21:00:00","24","ND","ND","ND","ND","ND","0.9","296.8","22.1","84.4","0","0"],
    [34035,"2014-03-24T22:00:00","32","ND","ND","ND","ND","ND","0.7","255.5","22.4","83.4","0","0"],
    [34036,"2014-03-24T23:00:00","43","ND","ND","ND","ND","ND","0.4","144.6","22.5","83.4","0","0"],
    [34037,"2014-03-25T00:00:00","33","ND","ND","ND","ND","ND","1.2","159.9","22.3","85.2","0","0"],
    [34038,"2014-03-25T01:00:00","25","ND","ND","ND","ND","ND","0.5","158.7","22.1","85.8","0","0"],
    [34039,"2014-03-25T02:00:00","72","ND","ND","ND","ND","ND","0.9","350.1","21.6","89.3","0","0"],
    [34040,"2014-03-25T03:00:00","61","ND","ND","ND","ND","ND","0.5","357.7","21.4","90.6","0","0"],
    [34041,"2014-03-25T04:00:00","52","ND","ND","ND","ND","ND","0.6","6.4","21","92.9","0","0"],
    [34042,"2014-03-25T05:00:00","59","ND","ND","ND","ND","ND","0.9","14.9","20.7","93.7","0","0"],
    [34043,"2014-03-25T06:00:00","43","ND","ND","ND","ND","ND","0.5","28.2","20.7","93.5","0","0"],
    [34044,"2014-03-25T07:00:00","57","ND","ND","ND","ND","ND","0.6","41.2","20.9","92.3","8.9","0"],
    [34045,"2014-03-25T08:00:00","87","ND","ND","ND","ND","ND","0.9","345.7","21.4","89.2","78.8","0"],
    [34046,"2014-03-25T09:00:00","92","ND","ND","ND","ND","ND","0.3","118.1","22.9","80.1","201.6","0"],
    [34047,"2014-03-25T10:00:00","98","ND","ND","ND","ND","ND","0.4","173.3","24.8","71.8","366.7","0"],
    [34048,"2014-03-25T11:00:00","68","ND","ND","ND","ND","ND","0.4","105.6","26","65.9","325.4","0"],
    [34049,"2014-03-25T12:00:00","51","ND","ND","ND","ND","ND","0.7","90.6","26.2","65.7","326.5","0"],
    [34050,"2014-03-25T13:00:00","54","ND","ND","ND","ND","ND","0.7","163.9","27.8","59.4","803.6","0"],
    [34051,"2014-03-25T14:00:00","68","ND","ND","ND","ND","ND","0.8","115.6","28.8","54.9","600.7","0"],
    [34052,"2014-03-25T15:00:00","61","ND","ND","ND","ND","ND","1.1","97.1","29.9","51.2","388.7","0"],
    [34053,"2014-03-25T16:00:00","64","ND","ND","ND","ND","ND","1.4","357.6","29","54.2","122.4","0"],
    [34054,"2014-03-25T17:00:00","44","ND","ND","ND","ND","ND","1.4","274.6","29.3","52.8","147.7","0"],
    [34055,"2014-03-25T18:00:00","36","ND","ND","ND","ND","ND","0.6","271.9","28.2","55","29.2","0"],
    [34056,"2014-03-25T19:00:00","32","ND","ND","ND","ND","ND","0.3","268.4","27.3","57.3","0","0"],
    [34057,"2014-03-25T20:00:00","51","ND","ND","ND","ND","ND","0.5","256.9","26.9","58.2","0","0"],
    [34058,"2014-03-25T21:00:00","48","ND","ND","ND","ND","ND","2.1","161.6","24.4","73.1","0","2.03"],
    [34059,"2014-03-25T22:00:00","22","ND","ND","ND","ND","ND","0.8","218.6","22.9","80.6","0","0.51"],
    [34060,"2014-03-25T23:00:00","23","ND","ND","ND","ND","ND","0.3","282.4","22.1","88.6","0","1.27"],
    [34061,"2014-03-26T00:00:00","37","ND","ND","ND","ND","ND","0.6","359.5","21.8","91.3","0","0"],
    [34062,"2014-03-26T01:00:00","64","ND","ND","ND","ND","ND","0.7","11.1","21.6","91.6","0","0.25"],
    [34063,"2014-03-26T02:00:00","56","ND","ND","ND","ND","ND","0.4","359.2","21.4","92.4","0","0"],
    [34064,"2014-03-26T03:00:00","57","ND","ND","ND","ND","ND","0.6","35.9","21.1","94","0","0"],
    [34065,"2014-03-26T04:00:00","81","ND","ND","ND","ND","ND","0.5","336.2","21.1","94.2","0","0"],
    [34066,"2014-03-26T05:00:00","181","ND","ND","ND","ND","ND","0.3","16.3","21.1","94.1","0","0"],
    [34067,"2014-03-26T06:00:00","82","ND","ND","ND","ND","ND","0","359.8","21.4","93.1","0","0"],
    [34068,"2014-03-26T07:00:00","82","ND","ND","ND","ND","ND","0.6","41.8","21.5","91.4","7.6","0"],
    [34069,"2014-03-26T08:00:00","86","ND","ND","ND","ND","ND","0.7","47","21.6","91.7","80.1","0"],
    [34070,"2014-03-26T09:00:00","77","ND","ND","ND","ND","ND","1.1","52","22.1","89.6","86.9","0"],
    [34071,"2014-03-26T10:00:00","49","ND","ND","ND","ND","ND","0.4","97.7","22.1","90.4","116.4","4.32"],
    [34072,"2014-03-26T11:00:00","65","ND","ND","ND","ND","ND","0.9","168.9","22.9","89.9","391.3","2.29"],
    [34073,"2014-03-26T12:00:00","56","ND","ND","ND","ND","ND","0.6","192.6","24.5","79.2","388.7","0"],
    [34074,"2014-03-26T13:00:00","46","ND","ND","ND","ND","ND","1.1","148.1","26.1","64.1","235","0"],
    [34075,"2014-03-26T14:00:00","38","ND","ND","ND","ND","ND","2.3","47.7","23.1","77.7","65.7","0"],
    [34076,"2014-03-26T15:00:00","36","ND","ND","ND","ND","ND","1","42.6","22.4","81.5","81.1","0.51"],
    [34077,"2014-03-26T16:00:00","14","ND","ND","ND","ND","ND","0.7","58","22.1","85.5","125.1","0.25"],
    [34078,"2014-03-26T17:00:00","35","ND","ND","ND","ND","ND","2.3","174.3","22.2","85.8","93.3","0"],
    [34079,"2014-03-26T18:00:00","30","ND","ND","ND","ND","ND","2.3","171.1","21.9","84.6","23.7","0"],
    [34080,"2014-03-26T19:00:00","39","ND","ND","ND","ND","ND","1.7","155.7","21.7","84.3","0","0"],
    [34081,"2014-03-26T20:00:00","46","ND","ND","ND","ND","ND","0","106","21.6","86.2","0","0"],
    [34082,"2014-03-26T21:00:00","60","ND","ND","ND","ND","ND","0.5","26.5","21.4","88.1","0","0"],
    [34083,"2014-03-26T22:00:00","57","ND","ND","ND","ND","ND","0.5","118.8","21","88.6","0","0"],
    [34084,"2014-03-26T23:00:00","51","ND","ND","ND","ND","ND","0.2","274.8","20.8","90.1","0","0"],
    [34085,"2014-03-27T00:00:00","69","ND","ND","ND","ND","ND","0.1","288.4","20.5","90.9","0","0"],
    [34086,"2014-03-27T01:00:00","56","ND","ND","ND","ND","ND","0.2","264","20.3","91.5","0","0"],
    [34087,"2014-03-27T02:00:00","78","ND","ND","ND","ND","ND","0","346.5","20","91.3","0","0"],
    [34088,"2014-03-27T03:00:00","55","ND","ND","ND","ND","ND","0.1","207.4","19.7","92.5","0","0"],
    [34089,"2014-03-27T04:00:00","60","ND","ND","ND","ND","ND","0.2","178.3","19.7","93.5","0","0"],
    [34090,"2014-03-27T05:00:00","64","ND","ND","ND","ND","ND","0.2","27.1","19.4","94.1","0","0"],
    [34091,"2014-03-27T06:00:00","71","ND","ND","ND","ND","ND","0.1","354.2","19.2","93.9","0","0"],
    [34092,"2014-03-27T07:00:00","87","ND","ND","ND","ND","ND","0.5","45.9","19","95.6","11.6","0"],
    [34093,"2014-03-27T08:00:00","99","ND","ND","ND","ND","ND","0.1","110.3","19.3","95.8","127.5","0"],
    [34094,"2014-03-27T09:00:00","104","ND","ND","ND","ND","ND","1","112.6","22.2","79.7","360.6","0"],
    [34095,"2014-03-27T10:00:00","90","ND","ND","ND","ND","ND","0.8","95","24.5","70.3","582.2","0"],
    [34096,"2014-03-27T11:00:00","77","ND","ND","ND","ND","ND","1.2","116.4","25.3","69","645.2","0"],
    [34097,"2014-03-27T12:00:00","65","ND","ND","ND","ND","ND","0.8","119.5","26.6","63.2","782.9","0"],
    [34098,"2014-03-27T13:00:00","60","ND","ND","ND","ND","ND","1.5","67.1","28.1","58","774.4","0"],
    [34099,"2014-03-27T14:00:00","59","ND","ND","ND","ND","ND","0.8","51.5","28.7","56.3","638","0"],
    [34100,"2014-03-27T15:00:00","69","ND","ND","ND","ND","ND","0.9","81.3","29.1","55.9","467.8","0"],
    [34101,"2014-03-27T16:00:00","75","ND","ND","ND","ND","ND","0.9","30.4","29.3","55.3","317.2","0"],
    [34102,"2014-03-27T17:00:00","64","ND","ND","ND","ND","ND","0.6","37.4","29.4","54.4","202.8","0"],
    [34103,"2014-03-27T18:00:00","46","ND","ND","ND","ND","ND","0.3","86.4","28.7","55.9","73.8","0"],
    [34104,"2014-03-27T19:00:00","48","ND","ND","ND","ND","ND","0.4","278.3","27.4","59","0","0"],
    [34105,"2014-03-27T20:00:00","54","ND","ND","ND","ND","ND","0.7","236.4","26.2","64.2","0","0"],
    [34106,"2014-03-27T21:00:00","69","ND","ND","ND","ND","ND","0.2","279.9","25","70.6","0","0"],
    [34107,"2014-03-27T22:00:00","70","ND","ND","ND","ND","ND","0.5","96.3","24.8","71.7","0","0"],
    [34108,"2014-03-27T23:00:00","53","ND","ND","ND","ND","ND","0.5","138.8","24","75.8","0","0"],
    [34109,"2014-03-28T00:00:00","51","ND","ND","ND","ND","ND","0.1","269.3","23","80.1","0","0"],
    [34110,"2014-03-28T01:00:00","63","ND","ND","ND","ND","ND","0.1","261.4","22.8","81.9","0","0"],
    [34111,"2014-03-28T02:00:00","57","ND","ND","ND","ND","ND","0.2","310.9","22.5","81.9","0","0"],
    [34112,"2014-03-28T03:00:00","45","ND","ND","ND","ND","ND","0.1","69.6","22.3","81.4","0","0"],
    [34113,"2014-03-28T04:00:00","ND","ND","ND","ND","ND","ND","0.2","13.3","22","83.1","0","0"],
    [34114,"2014-03-28T05:00:00","93","ND","ND","ND","ND","ND","0.3","26.9","21.5","89.2","0","0"],
    [34115,"2014-03-28T06:00:00","88","ND","ND","ND","ND","ND","0.4","323.9","21.2","90.4","0","0"],
    [34116,"2014-03-28T07:00:00","121","ND","ND","ND","ND","ND","0.2","339.6","21.2","90.2","10.8","0"],
    [34117,"2014-03-28T08:00:00","131","ND","ND","ND","ND","ND","0.4","41.9","21.8","87.7","122.4","0"],
    [34118,"2014-03-28T09:00:00","85","ND","ND","ND","ND","ND","0.9","83.6","24.4","74.9","410.7","0"],
    [34119,"2014-03-28T10:00:00","69","ND","ND","ND","ND","ND","1","101.5","26.2","66","543.8","0"],
    [34120,"2014-03-28T11:00:00","57","ND","ND","ND","ND","ND","0.9","121.4","27.9","58.6","781.5","0"],
    [34121,"2014-03-28T12:00:00","68","ND","ND","ND","ND","ND","1.3","102.8","29.6","52.9","857.1","0"],
    [34122,"2014-03-28T13:00:00","62","ND","ND","ND","ND","ND","1.7","108.5","30.9","49","882.8","0"],
    [34123,"2014-03-28T14:00:00","64","ND","ND","ND","ND","ND","0.7","36.6","31.8","47.8","486.3","0"],
    [34124,"2014-03-28T15:00:00","45","ND","ND","ND","ND","ND","0.9","296.2","31.9","47.2","472.4","0"],
    [34125,"2014-03-28T16:00:00","42","ND","ND","ND","ND","ND","3.6","276.3","31.4","47.9","491.2","0"],
    [34126,"2014-03-28T17:00:00","45","ND","ND","ND","ND","ND","3.1","271","30.5","48.3","247.4","0"],
    [34127,"2014-03-28T18:00:00","32","ND","ND","ND","ND","ND","2.1","270.8","29.7","49.9","57.1","0"],
    [34128,"2014-03-28T19:00:00","50","ND","ND","ND","ND","ND","0.5","102.1","29.2","50.9","0","0"],
    [34129,"2014-03-28T20:00:00","53","ND","ND","ND","ND","ND","0.7","56.4","28.2","54.8","0","0"],
    [34130,"2014-03-28T21:00:00","59","ND","ND","ND","ND","ND","0.2","81.8","27.3","58.9","0","0"],
    [34131,"2014-03-28T22:00:00","88","ND","ND","ND","ND","ND","0.6","107.1","26.4","63.3","0","0"],
    [34132,"2014-03-28T23:00:00","82","ND","ND","ND","ND","ND","0.6","96.6","25.7","67.2","0","0"],
    [34133,"2014-03-29T00:00:00","49","ND","ND","ND","ND","ND","0.4","177.1","25.1","69.6","0","0"],
    [34134,"2014-03-29T01:00:00","52","ND","ND","ND","ND","ND","0.2","93.1","24.3","74.1","0","0"],
    [34135,"2014-03-29T02:00:00","50","ND","ND","ND","ND","ND","0.3","269","23.4","78.5","0","0"],
    [34136,"2014-03-29T03:00:00","48","ND","ND","ND","ND","ND","0.6","248.5","23.3","78.7","0","0"],
    [34137,"2014-03-29T04:00:00","27","ND","ND","ND","ND","ND","0","261.9","23.3","78.1","0","0"],
    [34138,"2014-03-29T05:00:00","51","ND","ND","ND","ND","ND","0.7","140.1","23.1","81","0","0"],
    [34139,"2014-03-29T06:00:00","52","ND","ND","ND","ND","ND","0.1","249.5","22.6","83.4","0","0"],
    [34140,"2014-03-29T07:00:00","51","ND","ND","ND","ND","ND","0.4","250.1","22.8","82.7","33.1","0"],
    [34141,"2014-03-29T08:00:00","52","ND","ND","ND","ND","ND","0.5","199.8","24.3","75.6","163","0"],
    [34142,"2014-03-29T09:00:00","59","ND","ND","ND","ND","ND","0.7","133.9","26.3","66.4","423.6","0"],
    [34143,"2014-03-29T10:00:00","55","ND","ND","ND","ND","ND","1.1","120.6","28","59","615.7","0"],
    [34144,"2014-03-29T11:00:00","57","ND","ND","ND","ND","ND","1.3","87.7","28.9","56.3","741.7","0"],
    [34145,"2014-03-29T12:00:00","69","ND","ND","ND","ND","ND","0.6","34.4","30.6","52.2","668.9","0"],
    [34146,"2014-03-29T13:00:00","60","ND","ND","ND","ND","ND","0.9","142.1","31.3","49.5","643.1","0"],
    [34147,"2014-03-29T14:00:00","34","ND","ND","ND","ND","ND","1.2","300.9","31.6","47.2","449.8","0"],
    [34148,"2014-03-29T15:00:00","30","ND","ND","ND","ND","ND","4.4","267.4","31.8","43.7","695.2","0"],
    [34149,"2014-03-29T16:00:00","22","ND","ND","ND","ND","ND","3.6","272.6","31.4","43.6","483","0"],
    [34150,"2014-03-29T17:00:00","25","ND","ND","ND","ND","ND","2.8","268.7","31.1","43.1","256.6","0"],
    [34151,"2014-03-29T18:00:00","18","ND","ND","ND","ND","ND","2.2","270.7","29.5","45.3","36.2","0"],
    [34152,"2014-03-29T19:00:00","35","ND","ND","ND","ND","ND","0.4","120.2","28.7","48.4","0","0"],
    [34153,"2014-03-29T20:00:00","48","ND","ND","ND","ND","ND","0.7","53.2","27.9","51.5","0","0"],
    [34154,"2014-03-29T21:00:00","63","ND","ND","ND","ND","ND","0.2","17.8","27.3","54.3","0","0"],
    [34155,"2014-03-29T22:00:00","57","ND","ND","ND","ND","ND","0.7","103.6","26.2","60","0","0"],
    [34156,"2014-03-29T23:00:00","48","ND","ND","ND","ND","ND","0.6","339.5","25.4","63.6","0","0"],
    [34157,"2014-03-30T00:00:00","59","ND","ND","ND","ND","ND","0.9","167.2","25.1","65","0","0"],
    [34158,"2014-03-30T01:00:00","39","ND","ND","ND","ND","ND","0.2","217.5","24.2","70.4","0","0"],
    [34159,"2014-03-30T02:00:00","38","ND","ND","ND","ND","ND","0.3","259.3","23.9","72.3","0","0"],
    [34160,"2014-03-30T03:00:00","42","ND","ND","ND","ND","ND","0.3","164","23.5","74.9","0","0"],
    [34161,"2014-03-30T04:00:00","43","ND","ND","ND","ND","ND","0.4","159.1","23.3","77.2","0","0"],
    [34162,"2014-03-30T05:00:00","59","ND","ND","ND","ND","ND","0.6","332","22.9","79.4","0","0"],
    [34163,"2014-03-30T06:00:00","56","ND","ND","ND","ND","ND","0.3","338.9","22.5","80.1","0","0"],
    [34164,"2014-03-30T07:00:00","48","ND","ND","ND","ND","ND","0.5","251.3","22.9","78.5","23.7","0"],
    [34165,"2014-03-30T08:00:00","58","ND","ND","ND","ND","ND","0.4","188.9","24","73.5","103.1","0"],
    [34166,"2014-03-30T09:00:00","70","ND","ND","ND","ND","ND","0.4","70.3","24.7","71.8","139.8","0.25"],
    [34167,"2014-03-30T10:00:00","127","ND","ND","ND","ND","ND","0.6","13","25.9","67","396.4","0"],
    [34168,"2014-03-30T11:00:00","48","ND","ND","ND","ND","ND","1.3","65","28","58.2","724","0"],
    [34169,"2014-03-30T12:00:00","26","ND","ND","ND","ND","ND","0.4","70.6","29","52.5","445.7","0"],
    [34170,"2014-03-30T13:00:00","20","ND","ND","ND","ND","ND","0.5","292.1","29.7","48.8","577.9","0"],
    [34171,"2014-03-30T14:00:00","24","ND","ND","ND","ND","ND","5.3","276.9","29.5","45.4","692.8","0"],
    [34172,"2014-03-30T15:00:00","17","ND","ND","ND","ND","ND","5","275.6","28.7","47.5","409.6","0"],
    [34173,"2014-03-30T16:00:00","30","ND","ND","ND","ND","ND","2.8","285.6","28","50.1","274.2","0"],
    [34174,"2014-03-30T17:00:00","19","ND","ND","ND","ND","ND","2.7","254.4","28.1","48.7","175.8","0"],
    [34175,"2014-03-30T18:00:00","18","ND","ND","ND","ND","ND","2.7","235.4","26.9","53.6","47.2","0"],
    [34176,"2014-03-30T19:00:00","27","ND","ND","ND","ND","ND","2.8","237.5","26.1","55.9","0","0"],
    [34177,"2014-03-30T20:00:00","25","ND","ND","ND","ND","ND","1.3","270.1","25.5","57.5","0","0"],
    [34178,"2014-03-30T21:00:00","34","ND","ND","ND","ND","ND","1.5","255","25.3","58.4","0","0"],
    [34179,"2014-03-30T22:00:00","32","ND","ND","ND","ND","ND","0.7","180.7","25.3","57.7","0","0"],
    [34180,"2014-03-30T23:00:00","35","ND","ND","ND","ND","ND","0.4","60.6","24.7","62.2","0","0"],
    [34181,"2014-03-31T00:00:00","44","ND","ND","ND","ND","ND","1.2","162.2","23.8","69.4","0","0"],
    [34182,"2014-03-31T01:00:00","37","ND","ND","ND","ND","ND","0.3","195","23.2","73.3","0","0"],
    [34183,"2014-03-31T02:00:00","26","ND","ND","ND","ND","ND","0.3","264.1","23","73.5","0","0"],
    [34184,"2014-03-31T03:00:00","46","ND","ND","ND","ND","ND","0.6","42","23.1","73.2","0","0"],
    [34185,"2014-03-31T04:00:00","50","ND","ND","ND","ND","ND","0.4","337.9","22.5","76.6","0","0"],
    [34186,"2014-03-31T05:00:00","48","ND","ND","ND","ND","ND","0.4","349.3","22.2","77.8","0","0"],
    [34187,"2014-03-31T06:00:00","60","ND","ND","ND","ND","ND","0.3","28.4","21.9","80.8","0","0"],
    [34188,"2014-03-31T07:00:00","88","ND","ND","ND","ND","ND","0.7","331.9","21.5","82.4","32.8","0"],
    [34189,"2014-03-31T08:00:00","98","ND","ND","ND","ND","ND","0.2","56.9","23.3","74.5","177.9","0"],
    [34190,"2014-03-31T09:00:00","78","ND","ND","ND","ND","ND","1.3","99.6","25.4","64.9","420.8","0"],
    [34191,"2014-03-31T10:00:00","32","ND","ND","ND","ND","ND","0.9","124","26.5","59.3","584.3","0"],
    [34192,"2014-03-31T11:00:00","32","ND","ND","ND","ND","ND","0.7","109.2","27.8","54.3","735.7","0"],
    [34193,"2014-03-31T12:00:00","48","ND","ND","ND","ND","ND","0.9","70.5","29.5","48.6","865.4","0"],
    [34194,"2014-03-31T13:00:00","39","ND","ND","ND","ND","ND","1.1","60.5","30.6","43.5","878.9","0"],
    [34195,"2014-03-31T14:00:00","38","ND","ND","ND","ND","ND","1.1","50.2","31.5","42.4","732.5","0"],
    [34196,"2014-03-31T15:00:00","46","ND","ND","ND","ND","ND","1.3","343.5","32","42.9","620","0"],
    [34197,"2014-03-31T16:00:00","29","ND","ND","ND","ND","ND","4.2","280.4","30.7","46.2","506.3","0"],
    [34198,"2014-03-31T17:00:00","30","ND","ND","ND","ND","ND","3.3","277","30.1","45.7","280.5","0"],
    [34199,"2014-03-31T18:00:00","33","ND","ND","ND","ND","ND","0.8","257.1","29.9","45.2","78.3","0"],
    [34200,"2014-03-31T19:00:00","34","ND","ND","ND","ND","ND","0.4","274.1","28.2","48.2","0","0"],
    [34201,"2014-03-31T20:00:00","68","ND","ND","ND","ND","ND","0.6","73.1","27.7","50.6","0","0"],
    [34202,"2014-03-31T21:00:00","51","ND","ND","ND","ND","ND","0.2","96.6","27","52.9","0","0"],
    [34203,"2014-03-31T22:00:00","153","ND","ND","ND","ND","ND","0.2","96","26.1","58.5","0","0"],
    [34204,"2014-03-31T23:00:00","69","ND","ND","ND","ND","ND","0.7","149.8","25.3","62.4","0","0"],
    [34205,"2014-04-01T00:00:00","47","ND","ND","ND","ND","ND","0.7","188.3","24.4","67.9","0","0"],
    [34206,"2014-04-01T01:00:00","58","ND","ND","ND","ND","ND","0.6","164.6","24.1","70.4","0","0"],
    [34207,"2014-04-01T02:00:00","68","ND","ND","ND","ND","ND","0.7","323.7","23.6","71.4","0","0"],
    [34208,"2014-04-01T03:00:00","63","ND","ND","ND","ND","ND","0.3","220.2","23.9","71.1","0","0"],
    [34209,"2014-04-01T04:00:00","71","ND","ND","ND","ND","ND","0.6","28.2","23.2","74.7","0","0"],
    [34210,"2014-04-01T05:00:00","74","ND","ND","ND","ND","ND","0.6","81.1","22.4","79.6","0","0"],
    [34211,"2014-04-01T06:00:00","73","ND","ND","ND","ND","ND","0.9","346.5","22.2","79.8","0","0"],
    [34212,"2014-04-01T07:00:00","99","ND","ND","ND","ND","ND","0.4","85.7","22.2","80.6","16.8","0"],
    [34213,"2014-04-01T08:00:00","102","ND","ND","ND","ND","ND","0.2","267.2","23.2","75.1","154","0"],
    [34214,"2014-04-01T09:00:00","105","ND","ND","ND","ND","ND","1.1","132.4","25.6","65.6","400.8","0"],
    [34215,"2014-04-01T10:00:00","76","ND","ND","ND","ND","ND","1.7","132.4","27","60.1","627.5","0"],
    [34216,"2014-04-01T11:00:00","67","ND","ND","ND","ND","ND","1.9","102.4","27.7","57.8","672","0"],
    [34217,"2014-04-01T12:00:00","56","ND","ND","ND","ND","ND","0.7","112.4","29","53.1","818.4","0"],
    [34218,"2014-04-01T13:00:00","65","ND","ND","ND","ND","ND","1.2","70.8","30.5","47.9","857.5","0"],
    [34219,"2014-04-01T14:00:00","55","ND","ND","ND","ND","ND","1.3","128.3","31.6","42.2","812.8","0"],
    [34220,"2014-04-01T15:00:00","59","ND","ND","ND","ND","ND","0.6","91.4","32.3","38.9","655.7","0"],
    [34221,"2014-04-01T16:00:00","60","ND","ND","ND","ND","ND","1.3","2","32.9","39.1","463.2","0"],
    [34222,"2014-04-01T17:00:00","53","ND","ND","ND","ND","ND","2.6","269.8","31.9","44.7","270.3","0"],
    [34223,"2014-04-01T18:00:00","49","ND","ND","ND","ND","ND","1.8","263.3","30.4","47.6","54.9","0"],
    [34224,"2014-04-01T19:00:00","55","ND","ND","ND","ND","ND","0.3","29.7","29.1","50.1","0","0"],
    [34225,"2014-04-01T20:00:00","54","ND","ND","ND","ND","ND","0.9","102.2","28.9","51","0","0"],
    [34226,"2014-04-01T21:00:00","66","ND","ND","ND","ND","ND","1.5","144.3","27.8","55.7","0","0"],
    [34227,"2014-04-01T22:00:00","69","ND","ND","ND","ND","ND","0.6","111.5","26.5","61.7","0","0"],
    [34228,"2014-04-01T23:00:00","125","ND","ND","ND","ND","ND","0.4","92.9","25.3","67.5","0","0"],
    [34229,"2014-04-02T00:00:00","87","ND","ND","ND","ND","ND","0.5","293.6","24.5","69.9","0","0"],
    [34230,"2014-04-02T01:00:00","104","ND","ND","ND","ND","ND","0.9","10.5","23.7","74.3","0","0"],
    [34231,"2014-04-02T02:00:00","67","ND","ND","ND","ND","ND","0.5","342.6","22.9","78.7","0","0"],
    [34232,"2014-04-02T03:00:00","73","ND","ND","ND","ND","ND","0.5","13.8","22.6","79.2","0","0"],
    [34233,"2014-04-02T04:00:00","90","ND","ND","ND","ND","ND","0","300.3","22.4","80.8","0","0"],
    [34234,"2014-04-02T05:00:00","8","ND","ND","ND","ND","ND","0.3","226.1","22.4","80.3","0","0"],
    [34235,"2014-04-02T06:00:00","27","ND","ND","ND","ND","ND","0.2","319.7","22","82.1","0","0"],
    [34236,"2014-04-02T07:00:00","117","ND","ND","ND","ND","ND","0.2","11.7","22","82.3","18.7","0"],
    [34237,"2014-04-02T08:00:00","102","ND","ND","ND","ND","ND","0.1","130.2","23.3","76.1","139.7","0"],
    [34238,"2014-04-02T09:00:00","145","ND","ND","ND","ND","ND","1.1","94.2","25.2","69.9","374.6","0"],
    [34239,"2014-04-02T10:00:00","116","ND","ND","ND","ND","ND","1.4","143.7","26.8","62.4","604.2","0"],
    [34240,"2014-04-02T11:00:00","77","ND","ND","ND","ND","ND","1.6","140.9","28.1","56.9","730","0"],
    [34241,"2014-04-02T12:00:00","75","ND","ND","ND","ND","ND","1.4","131.2","30.1","49.7","846.1","0"],
    [34242,"2014-04-02T13:00:00","72","ND","ND","ND","ND","ND","1.4","64.1","30.5","49.3","692.2","0"],
    [34243,"2014-04-02T14:00:00","74","ND","ND","ND","ND","ND","0.9","108.3","32","44.7","632.1","0"],
    [34244,"2014-04-02T15:00:00","57","ND","ND","ND","ND","ND","1.3","272.6","31.2","47.8","485.7","0"],
    [34245,"2014-04-02T16:00:00","44","ND","ND","ND","ND","ND","3.5","269.2","31.2","47.6","466.4","0"],
    [34246,"2014-04-02T17:00:00","40","ND","ND","ND","ND","ND","4.1","271.7","30.2","48.4","264.2","0"],
    [34247,"2014-04-02T18:00:00","30","ND","ND","ND","ND","ND","3.7","271","29","50.3","54.3","0"],
    [34248,"2014-04-02T19:00:00","42","ND","ND","ND","ND","ND","0.6","225.3","28.8","51","0","0"],
    [34249,"2014-04-02T20:00:00","44","ND","ND","ND","ND","ND","1.4","99.8","28.6","52.3","0","0"],
    [34250,"2014-04-02T21:00:00","43","ND","ND","ND","ND","ND","1.4","135.4","27.2","58.4","0","0"],
    [34251,"2014-04-02T22:00:00","29","ND","ND","ND","ND","ND","0.8","252.6","26.9","58.8","0","0"],
    [34252,"2014-04-02T23:00:00","15","ND","ND","ND","ND","ND","1.2","231.8","26.3","60.6","0","0"],
    [34253,"2014-04-03T00:00:00","71","ND","ND","ND","ND","ND","0.7","48.4","25.8","64.1","0","0"],
    [34254,"2014-04-03T01:00:00","49","ND","ND","ND","ND","ND","0.5","133","24.9","70.3","0","0"],
    [34255,"2014-04-03T02:00:00","44","ND","ND","ND","ND","ND","0.3","247.5","24.5","71.6","0","0"],
    [34256,"2014-04-03T03:00:00","60","ND","ND","ND","ND","ND","0.5","343.9","24.1","74.3","0","0"],
    [34257,"2014-04-03T04:00:00","65","ND","ND","ND","ND","ND","0.8","344.2","23.4","78.2","0","0"],
    [34258,"2014-04-03T05:00:00","72","ND","ND","ND","ND","ND","0.4","4.3","23.5","77.9","0","0"],
    [34259,"2014-04-03T06:00:00","53","ND","ND","ND","ND","ND","0.3","164","23.9","76.2","0","0"],
    [34260,"2014-04-03T07:00:00","84","ND","ND","ND","ND","ND","0.7","16.7","23.4","79.1","13.1","0"],
    [34261,"2014-04-03T08:00:00","113","ND","ND","ND","ND","ND","0.2","6.8","23.5","80.1","82.9","0"],
    [34262,"2014-04-03T09:00:00","110","ND","ND","ND","ND","ND","0.9","39.1","24.6","75.3","153","0"],
    [34263,"2014-04-03T10:00:00","80","ND","ND","ND","ND","ND","1.1","28.6","25.6","70.9","327.8","0"],
    [34264,"2014-04-03T11:00:00","84","ND","ND","ND","ND","ND","1.4","51.6","26.9","63.5","392.8","0"],
    [34265,"2014-04-03T12:00:00","57","ND","ND","ND","ND","ND","0.9","41.6","27.5","61.6","419.7","0"],
    [34266,"2014-04-03T13:00:00","60","ND","ND","ND","ND","ND","0.7","7.1","28.6","57","619","0"],
    [34267,"2014-04-03T14:00:00","62","ND","ND","ND","ND","ND","1.5","109.9","29.6","53.9","373.1","0"],
    [34268,"2014-04-03T15:00:00","61","ND","ND","ND","ND","ND","2.8","132.2","29.7","53.4","400.5","0"],
    [34269,"2014-04-03T16:00:00","48","ND","ND","ND","ND","ND","2.5","196.1","25.5","64.9","23.3","0"],
    [34270,"2014-04-03T17:00:00","57","ND","ND","ND","ND","ND","0.3","125.1","25.2","60.8","17","0"],
    [34271,"2014-04-03T18:00:00","68","ND","ND","ND","ND","ND","0.4","24","25.1","62.3","15.7","0"],
    [34272,"2014-04-03T19:00:00","82","ND","ND","ND","ND","ND","0.8","347.9","24.6","64.9","0","0"],
    [34273,"2014-04-03T20:00:00","35","ND","ND","ND","ND","ND","0.7","245","24.5","64.5","0","0"],
    [34274,"2014-04-03T21:00:00","46","ND","ND","ND","ND","ND","0.6","259.5","24.1","66","0","0"],
    [34275,"2014-04-03T22:00:00","48","ND","ND","ND","ND","ND","0.7","11.1","23.7","68.9","0","0"],
    [34276,"2014-04-03T23:00:00","62","ND","ND","ND","ND","ND","0.2","306.8","23","74.8","0","0"],
    [34277,"2014-04-04T00:00:00","50","ND","ND","ND","ND","ND","0.8","251.8","22.5","77.1","0","0"],
    [34278,"2014-04-04T01:00:00","50","ND","ND","ND","ND","ND","0.3","190.2","22.5","80.2","0","0"],
    [34279,"2014-04-04T02:00:00","46","ND","ND","ND","ND","ND","0.6","257.6","22.1","80.1","0","0"],
    [34280,"2014-04-04T03:00:00","28","ND","ND","ND","ND","ND","0.6","261.3","21.7","80.8","0","0"],
    [34281,"2014-04-04T04:00:00","76","ND","ND","ND","ND","ND","0.8","39.6","21.4","82","0","0"],
    [34282,"2014-04-04T05:00:00","55","ND","ND","ND","ND","ND","0.5","38.9","20.1","90.3","0","0"],
    [34283,"2014-04-04T06:00:00","69","ND","ND","ND","ND","ND","0.3","253.3","20.1","91.2","0","0"],
    [34284,"2014-04-04T07:00:00","82","ND","ND","ND","ND","ND","0.4","235.1","20.4","89.6","26.5","0"],
    [34285,"2014-04-04T08:00:00","87","ND","ND","ND","ND","ND","0.1","278.3","22.1","82","195.7","0"],
    [34286,"2014-04-04T09:00:00","106","ND","ND","ND","ND","ND","1.1","71.6","24.6","70.6","433.6","0"],
    [34287,"2014-04-04T10:00:00","81","ND","ND","ND","ND","ND","0.5","74.5","26.1","64.5","508.2","0"],
    [34288,"2014-04-04T11:00:00","66","ND","ND","ND","ND","ND","1.3","102.8","27.9","56.1","765.6","0"],
    [34289,"2014-04-04T12:00:00","56","ND","ND","ND","ND","ND","1.3","97.9","29.5","49.1","822.8","0"],
    [34290,"2014-04-04T13:00:00","61","ND","ND","ND","ND","ND","1.1","42.6","31","44.9","849.9","0"],
    [34291,"2014-04-04T14:00:00","53","ND","ND","ND","ND","ND","1.4","36","31.5","45.4","678","0"],
    [34292,"2014-04-04T15:00:00","20","ND","ND","ND","ND","ND","2.5","292","32.2","44.3","687.3","0"],
    [34293,"2014-04-04T16:00:00","31","ND","ND","ND","ND","ND","4.2","285","31.3","45.5","542.7","0"],
    [34294,"2014-04-04T17:00:00","25","ND","ND","ND","ND","ND","2.4","262.5","30.6","46.1","149.4","0"],
    [34295,"2014-04-04T18:00:00","24","ND","ND","ND","ND","ND","2.3","249.4","30.2","46.7","82.5","0"],
    [34296,"2014-04-04T19:00:00","41","ND","ND","ND","ND","ND","0.6","140.2","29.3","49.9","0","0"],
    [34297,"2014-04-04T20:00:00","56","ND","ND","ND","ND","ND","0.5","284.6","28.1","54.4","0","0"],
    [34298,"2014-04-04T21:00:00","74","ND","ND","ND","ND","ND","1.3","168.9","27.3","58","0","0"],
    [34299,"2014-04-04T22:00:00","61","ND","ND","ND","ND","ND","0.3","72.4","26.4","60.8","0","0"],
    [34300,"2014-04-04T23:00:00","84","ND","ND","ND","ND","ND","0.7","31.5","25.7","64.6","0","0"],
    [34301,"2014-04-05T00:00:00","69","ND","ND","ND","ND","ND","0.6","302.5","25.1","67.7","0","0"],
    [34302,"2014-04-05T01:00:00","66","ND","ND","ND","ND","ND","0.5","355.5","24.6","70.2","0","0"],
    [34303,"2014-04-05T02:00:00","65","ND","ND","ND","ND","ND","0.5","237.5","24.4","70.6","0","0"],
    [34304,"2014-04-05T03:00:00","68","ND","ND","ND","ND","ND","0.6","356.4","23.9","73.6","0","0"],
    [34305,"2014-04-05T04:00:00","72","ND","ND","ND","ND","ND","0.2","68.3","23.3","77.5","0","0"],
    [34306,"2014-04-05T05:00:00","58","ND","ND","ND","ND","ND","0.3","260.1","23.1","77.9","0","0"],
    [34307,"2014-04-05T06:00:00","72","ND","ND","ND","ND","ND","0.4","2.6","23","77.8","0","0"],
    [34308,"2014-04-05T07:00:00","87","ND","ND","ND","ND","ND","0.6","31.1","22.4","82.7","21.4","0"],
    [34309,"2014-04-05T08:00:00","105","ND","ND","ND","ND","ND","0.1","323.9","23.8","76.6","165.3","0"],
    [34310,"2014-04-05T09:00:00","83","ND","ND","ND","ND","ND","1.1","58.4","26","66","320.7","0"],
    [34311,"2014-04-05T10:00:00","81","ND","ND","ND","ND","ND","1.1","63.3","26.5","64.3","454","0"],
    [34312,"2014-04-05T11:00:00","60","ND","ND","ND","ND","ND","0.8","121","28.7","54.9","761.5","0"],
    [34313,"2014-04-05T12:00:00","51","ND","ND","ND","ND","ND","1.1","106.4","30.6","48.9","843.1","0"],
    [34314,"2014-04-05T13:00:00","57","ND","ND","ND","ND","ND","1.2","51.4","31.3","46.8","832.1","0"],
    [34315,"2014-04-05T14:00:00","69","ND","ND","ND","ND","ND","1.4","354.9","32.4","44.5","629.1","0"],
    [34316,"2014-04-05T15:00:00","31","ND","ND","ND","ND","ND","1.8","287","32.8","43.9","579.6","0"],
    [34317,"2014-04-05T16:00:00","30","ND","ND","ND","ND","ND","3.8","265.7","32.2","45.5","375.7","0"],
    [34318,"2014-04-05T17:00:00","28","ND","ND","ND","ND","ND","4.3","276.8","30.1","49.7","176.2","0"],
    [34319,"2014-04-05T18:00:00","27","ND","ND","ND","ND","ND","4.1","276.8","29.4","51.7","54.1","0"],
    [34320,"2014-04-05T19:00:00","26","ND","ND","ND","ND","ND","0.8","257.1","29.6","50.1","0","0"],
    [34321,"2014-04-05T20:00:00","29","ND","ND","ND","ND","ND","2","121","28.4","55.7","0","0"],
    [34322,"2014-04-05T21:00:00","22","ND","ND","ND","ND","ND","2.4","227","27.8","57.6","0","0"],
    [34323,"2014-04-05T22:00:00","32","ND","ND","ND","ND","ND","2.1","208.2","27.3","61","0","0"],
    [34324,"2014-04-05T23:00:00","31","ND","ND","ND","ND","ND","0.7","105.7","26.4","65.6","0","0"],
    [34325,"2014-04-06T00:00:00","36","ND","ND","ND","ND","ND","0.3","295.4","25.6","68","0","0"],
    [34326,"2014-04-06T01:00:00","44","ND","ND","ND","ND","ND","0.7","272.9","25","71","0","0"],
    [34327,"2014-04-06T02:00:00","34","ND","ND","ND","ND","ND","0.6","235","24.5","72.6","0","0"],
    [34328,"2014-04-06T03:00:00","48","ND","ND","ND","ND","ND","0.2","340.4","23.9","75.5","0","0"],
    [34329,"2014-04-06T04:00:00","54","ND","ND","ND","ND","ND","0.8","320.1","23.1","79.7","0","0"],
    [34330,"2014-04-06T05:00:00","79","ND","ND","ND","ND","ND","0.2","307.8","22.8","80.8","0","0"],
    [34331,"2014-04-06T06:00:00","60","ND","ND","ND","ND","ND","0.4","56.3","22.5","81.5","0","0"],
    [34332,"2014-04-06T07:00:00","60","ND","ND","ND","ND","ND","0.3","310.5","22.3","82.6","40.9","0"],
    [34333,"2014-04-06T08:00:00","52","ND","ND","ND","ND","ND","0.1","137.6","24.9","72.2","222.6","0"],
    [34334,"2014-04-06T09:00:00","57","ND","ND","ND","ND","ND","0.7","129.1","26.5","64.8","370.2","0"],
    [34335,"2014-04-06T10:00:00","47","ND","ND","ND","ND","ND","1","80.1","27.7","60.9","471.5","0"],
    [34336,"2014-04-06T11:00:00","ND","ND","ND","ND","ND","ND","ND","ND","ND","ND","ND","ND"],
    [34337,"2014-04-06T12:00:00","ND","ND","ND","ND","ND","ND","1.1","141.5","30.8","48.6","775.8","0"],
    [34338,"2014-04-06T13:00:00","44","ND","ND","ND","ND","ND","0.8","13.7","31.9","45.3","900.8","0"],
    [34339,"2014-04-06T14:00:00","47","ND","ND","ND","ND","ND","1.5","2.9","32.4","44.8","596.6","0"],
    [34340,"2014-04-06T15:00:00","27","ND","ND","ND","ND","ND","1.9","291.3","32.1","44.8","258.3","0"],
    [34341,"2014-04-06T16:00:00","27","ND","ND","ND","ND","ND","3.1","271.5","31.3","47.7","276","0"],
    [34342,"2014-04-06T17:00:00","25","ND","ND","ND","ND","ND","2.4","276.1","31.4","47.2","255","0"],
    [34343,"2014-04-06T18:00:00","17","ND","ND","ND","ND","ND","1.8","266.3","30.1","49.5","61.1","0"],
    [34344,"2014-04-06T19:00:00","23","ND","ND","ND","ND","ND","0.2","54.7","29","51.8","0","0"],
    [34345,"2014-04-06T20:00:00","35","ND","ND","ND","ND","ND","0.7","81.7","28.7","52.8","0","0"],
    [34346,"2014-04-06T21:00:00","41","ND","ND","ND","ND","ND","0.6","85.3","28.5","53.5","0","0"],
    [34347,"2014-04-06T22:00:00","45","ND","ND","ND","ND","ND","1.3","107.2","28","57","0","0"],
    [34348,"2014-04-06T23:00:00","34","ND","ND","ND","ND","ND","0.8","105.2","27.2","61.9","0","0"],
    [34349,"2014-04-07T00:00:00","20","ND","ND","ND","ND","ND","0.7","130.7","26.4","64.8","0","0"],
    [34350,"2014-04-07T01:00:00","22","ND","ND","ND","ND","ND","0.1","146.1","25.8","67.5","0","0"],
    [34351,"2014-04-07T02:00:00","18","ND","ND","ND","ND","ND","0.6","128.6","25.5","68.5","0","0"],
    [34352,"2014-04-07T03:00:00","16","ND","ND","ND","ND","ND","0.8","142.7","24.9","70.2","0","0"],
    [34353,"2014-04-07T04:00:00","23","ND","ND","ND","ND","ND","1","149.4","24.4","73.2","0","0"],
    [34354,"2014-04-07T05:00:00","29","ND","ND","ND","ND","ND","0.9","162.5","24.4","73.7","0","0"],
    [34355,"2014-04-07T06:00:00","38","ND","ND","ND","ND","ND","0.8","88.2","23.8","77.7","0","5.08"],
    [34356,"2014-04-07T07:00:00","23","ND","ND","ND","ND","ND","0.7","238.2","21.7","93.8","23.5","20.83"],
    [34357,"2014-04-07T08:00:00","29","ND","ND","ND","ND","ND","0.8","72.1","23","91.1","231.4","0.25"],
    [34358,"2014-04-07T09:00:00","37","ND","ND","ND","ND","ND","0.4","23.2","24.2","84.2","220.4","0"],
    [34359,"2014-04-07T10:00:00","50","ND","ND","ND","ND","ND","0.7","145.6","25.9","76.4","391.9","0"],
    [34360,"2014-04-07T11:00:00","46","ND","ND","ND","ND","ND","1.1","126.3","27","69","367.1","0"],
    [34361,"2014-04-07T12:00:00","32","ND","ND","ND","ND","ND","0.6","168.5","28.3","62.5","735.3","0"],
    [34362,"2014-04-07T13:00:00","43","ND","ND","ND","ND","ND","1.5","159.4","29.7","56.2","760.9","0"],
    [34363,"2014-04-07T14:00:00","47","ND","ND","ND","ND","ND","0.7","33.2","30.2","54.4","524","0"],
    [34364,"2014-04-07T15:00:00","41","ND","ND","ND","ND","ND","1.8","2.9","28.2","59.4","197.5","0"],
    [34365,"2014-04-07T16:00:00","51","ND","ND","ND","ND","ND","0.3","66.4","30","52.4","294","0"],
    [34366,"2014-04-07T17:00:00","26","ND","ND","ND","ND","ND","2.2","256.2","30.3","49.2","263.8","0"],
    [34367,"2014-04-07T18:00:00","25","ND","ND","ND","ND","ND","1.5","265.4","29.5","48.7","68.7","0"],
    [34368,"2014-04-07T19:00:00","30","ND","ND","ND","ND","ND","0.1","206.4","28.1","53.2","0","0"],
    [34369,"2014-04-07T20:00:00","57","ND","ND","ND","ND","ND","0.6","85.6","27.8","55.9","0","0"],
    [34370,"2014-04-07T21:00:00","56","ND","ND","ND","ND","ND","0.7","118.8","27.2","58.9","0","0"],
    [34371,"2014-04-07T22:00:00","55","ND","ND","ND","ND","ND","0.4","133.7","26.1","63.6","0","0"],
    [34372,"2014-04-07T23:00:00","29","ND","ND","ND","ND","ND","0.3","64.7","24.7","70","0","0"],
    [34373,"2014-04-08T00:00:00","51","ND","ND","ND","ND","ND","0.7","185.2","24.3","72.7","0","0"],
    [34374,"2014-04-08T01:00:00","64","ND","ND","ND","ND","ND","0.3","90.2","24.4","73.1","0","0"],
    [34375,"2014-04-08T02:00:00","ND","ND","ND","ND","ND","ND","0.2","52.3","23.7","75.9","0","0"],
    [34376,"2014-04-08T03:00:00","ND","ND","ND","ND","ND","ND","0.2","246.5","23.6","76.9","0","0"],
    [34377,"2014-04-08T04:00:00","ND","ND","ND","ND","ND","ND","0.2","343.7","23.5","77.8","0","0"],
    [34378,"2014-04-08T05:00:00","ND","ND","ND","ND","ND","ND","0.2","44.1","23.2","78.5","0","0"],
    [34379,"2014-04-08T06:00:00","ND","ND","ND","ND","ND","ND","0.6","21.7","22.8","80.1","0","0"],
    [34380,"2014-04-08T07:00:00","ND","ND","ND","ND","ND","ND","0.2","50.6","22.5","81.5","11.1","0"],
    [34381,"2014-04-08T08:00:00","ND","ND","ND","ND","ND","ND","0.3","348.8","23","80.6","104.1","0"],
    [34382,"2014-04-08T09:00:00","ND","ND","ND","ND","ND","ND","0.6","117.1","25.4","69.4","430.5","0"],
    [34383,"2014-04-08T10:00:00","ND","ND","ND","ND","ND","ND","1.5","124.2","27.3","61","607.2","0"],
    [34384,"2014-04-08T11:00:00","70","ND","ND","ND","ND","ND","1.6","164.5","28.6","57.6","670","0"],
    [34385,"2014-04-08T12:00:00","44","ND","ND","ND","ND","ND","2.5","137.2","30.3","51.7","842.4","0"],
    [34386,"2014-04-08T13:00:00","39","ND","ND","ND","ND","ND","2.1","126.4","31.3","48.5","795.6","0"],
    [34387,"2014-04-08T14:00:00","53","ND","ND","ND","ND","ND","2.1","121.7","31.4","50.3","648.2","0"],
    [34388,"2014-04-08T15:00:00","37","ND","ND","ND","ND","ND","2","239.2","31.9","47.6","553.8","0"],
    [34389,"2014-04-08T16:00:00","58","ND","ND","ND","ND","ND","1.9","336.3","28.4","60.2","184.6","16.51"],
    [34390,"2014-04-08T17:00:00","22","ND","ND","ND","ND","ND","1.6","310.5","22.6","89.9","7.9","9.14"],
    [34391,"2014-04-08T18:00:00","45","ND","ND","ND","ND","ND","1.5","147.2","23.8","86.8","6.4","0"],
    [34392,"2014-04-08T19:00:00","40","ND","ND","ND","ND","ND","2.2","192.5","23.7","78","0","0"],
    [34393,"2014-04-08T20:00:00","52","ND","ND","ND","ND","ND","1.2","213.9","23.7","76.6","0","0"],
    [34394,"2014-04-08T21:00:00","47","ND","ND","ND","ND","ND","0.3","316.7","23.6","77.8","0","0"],
    [34395,"2014-04-08T22:00:00","65","ND","ND","ND","ND","ND","0.7","357.1","22.3","85.4","0","0"],
    [34396,"2014-04-08T23:00:00","64","ND","ND","ND","ND","ND","0.5","345.4","22.3","84.7","0","0"],
    [34397,"2014-04-09T00:00:00","47","ND","ND","ND","ND","ND","0.7","247.8","22.2","85.2","0","0"],
    [34398,"2014-04-09T01:00:00","36","ND","ND","ND","ND","ND","0.3","289","22.2","83","0","0"],
    [34399,"2014-04-09T02:00:00","76","ND","ND","ND","ND","ND","0.2","165.3","21.9","85.7","0","0"],
    [34400,"2014-04-09T03:00:00","119","ND","ND","ND","ND","ND","0.2","341.6","21.6","86.9","0","0"],
    [34401,"2014-04-09T04:00:00","52","ND","ND","ND","ND","ND","0.4","250","21.4","87.8","0","0"],
    [34402,"2014-04-09T05:00:00","88","ND","ND","ND","ND","ND","0.3","283.2","21.3","87.8","0","0"],
    [34403,"2014-04-09T06:00:00","75","ND","ND","ND","ND","ND","0.1","150","21.4","87","0","0"],
    [34404,"2014-04-09T07:00:00","120","ND","ND","ND","ND","ND","0.5","52.1","21.6","86.4","71.9","0"],
    [34405,"2014-04-09T08:00:00","125","ND","ND","ND","ND","ND","0.3","34.4","22.9","81.5","196.3","0"],
    [34406,"2014-04-09T09:00:00","69","ND","ND","ND","ND","ND","0.8","85.6","24.9","72.6","410.5","0"],
    [34407,"2014-04-09T10:00:00","63","ND","ND","ND","ND","ND","1","159.5","26.3","68.4","675","0"],
    [34408,"2014-04-09T11:00:00","58","ND","ND","ND","ND","ND","0.3","149.5","27.6","62.5","641.6","0"],
    [34409,"2014-04-09T12:00:00","70","ND","ND","ND","ND","ND","0.9","96.9","29","57","752.4","0"],
    [34410,"2014-04-09T13:00:00","68","ND","ND","ND","ND","ND","1.6","114","30.1","53","519.1","0"],
    [34411,"2014-04-09T14:00:00","39","ND","ND","ND","ND","ND","1.4","79.5","29.6","54.2","334.7","0"],
    [34412,"2014-04-09T15:00:00","18","ND","ND","ND","ND","ND","1.8","269.5","28.3","57","325.3","0"],
    [34413,"2014-04-09T16:00:00","20","ND","ND","ND","ND","ND","2.1","275.2","29.9","49","414","0"],
    [34414,"2014-04-09T17:00:00","30","ND","ND","ND","ND","ND","1.7","279","28.9","50","101.6","0"],
    [34415,"2014-04-09T18:00:00","29","ND","ND","ND","ND","ND","0.9","206.6","27.6","56.1","9","0"],
    [34416,"2014-04-09T19:00:00","35","ND","ND","ND","ND","ND","0.5","42.4","26.1","63.6","0","0"],
    [34417,"2014-04-09T20:00:00","52","ND","ND","ND","ND","ND","2.1","136.8","26","65.2","0","0"],
    [34418,"2014-04-09T21:00:00","45","ND","ND","ND","ND","ND","2.6","156","24.4","73.4","0","0"],
    [34419,"2014-04-09T22:00:00","34","ND","ND","ND","ND","ND","0.9","178.8","24.1","73.1","0","0"],
    [34420,"2014-04-09T23:00:00","35","ND","ND","ND","ND","ND","0.3","280.8","23.8","75.3","0","0"],
    [34421,"2014-04-10T00:00:00","30","ND","ND","ND","ND","ND","0.3","263.3","23.4","77","0","0"],
    [34422,"2014-04-10T01:00:00","145","ND","ND","ND","ND","ND","0.5","11.3","22.5","80.5","0","0"],
    [34423,"2014-04-10T02:00:00","46","ND","ND","ND","ND","ND","0.5","39.8","22.4","80.2","0","0"],
    [34424,"2014-04-10T03:00:00","47","ND","ND","ND","ND","ND","0.4","314.8","21.7","87.3","0","0"],
    [34425,"2014-04-10T04:00:00","51","ND","ND","ND","ND","ND","0.5","214.2","21.6","86","0","0"],
    [34426,"2014-04-10T05:00:00","48","ND","ND","ND","ND","ND","0.4","315.5","21.4","85.6","0","0"],
    [34427,"2014-04-10T06:00:00","57","ND","ND","ND","ND","ND","0.7","350.5","21.3","85.5","0","0"],
    [34428,"2014-04-10T07:00:00","72","ND","ND","ND","ND","ND","0.5","56.2","21","89.5","14.4","0"],
    [34429,"2014-04-10T08:00:00","87","ND","ND","ND","ND","ND","0.3","44.1","21.7","87.3","86.8","0"],
    [34430,"2014-04-10T09:00:00","111","ND","ND","ND","ND","ND","0.4","81.6","23.8","76.7","361.4","0"],
    [34431,"2014-04-10T10:00:00","48","ND","ND","ND","ND","ND","1.2","103.8","25.7","68.8","619.9","0"],
    [34432,"2014-04-10T11:00:00","34","ND","ND","ND","ND","ND","1.2","121.5","26.9","63.8","591.4","0"],
    [34433,"2014-04-10T12:00:00","42","ND","ND","ND","ND","ND","1","144.8","28.5","56.5","790","0"],
    [34434,"2014-04-10T13:00:00","49","ND","ND","ND","ND","ND","0.4","176","30.2","48.8","826.7","0"],
    [34435,"2014-04-10T14:00:00","57","ND","ND","ND","ND","ND","1.5","77.9","31.2","47.6","787.5","0"],
    [34436,"2014-04-10T15:00:00","53","ND","ND","ND","ND","ND","1.6","40.1","31.5","46.9","644.3","0"],
    [34437,"2014-04-10T16:00:00","41","ND","ND","ND","ND","ND","1.9","342.9","31.8","46.4","504.9","0"],
    [34438,"2014-04-10T17:00:00","31","ND","ND","ND","ND","ND","2.4","276.4","31.3","46.6","287.1","0"],
    [34439,"2014-04-10T18:00:00","26","ND","ND","ND","ND","ND","0.9","285.6","30","47.8","74.3","0"],
    [34440,"2014-04-10T19:00:00","32","ND","ND","ND","ND","ND","0.4","212.7","28.8","50.1","0","0"],
    [34441,"2014-04-10T20:00:00","58","ND","ND","ND","ND","ND","0.6","218.2","27.9","53.9","0","0"],
    [34442,"2014-04-10T21:00:00","69","ND","ND","ND","ND","ND","0.7","189","26.9","58.9","0","0"],
    [34443,"2014-04-10T22:00:00","67","ND","ND","ND","ND","ND","0.1","109.6","26.1","64.9","0","0"],
    [34444,"2014-04-10T23:00:00","33","ND","ND","ND","ND","ND","0.3","137.8","25.2","69.8","0","0"],
    [34445,"2014-04-11T00:00:00","57","ND","ND","ND","ND","ND","0.3","342.3","24.3","73.1","0","0"],
    [34446,"2014-04-11T01:00:00","80","ND","ND","ND","ND","ND","0.1","288.7","23.8","74.8","0","0"],
    [34447,"2014-04-11T02:00:00","66","ND","ND","ND","ND","ND","0.2","316.4","23.3","78","0","0"],
    [34448,"2014-04-11T03:00:00","68","ND","ND","ND","ND","ND","0.3","354.7","23.1","79.8","0","0"],
    [34449,"2014-04-11T04:00:00","63","ND","ND","ND","ND","ND","0.3","325.7","23","80.8","0","0"],
    [34450,"2014-04-11T05:00:00","69","ND","ND","ND","ND","ND","0.4","292.1","22.8","81.6","0","0"],
    [34451,"2014-04-11T06:00:00","78","ND","ND","ND","ND","ND","0.3","303","22.4","82.9","0","0"],
    [34452,"2014-04-11T07:00:00","88","ND","ND","ND","ND","ND","0.2","227.5","22.5","82.1","14.8","0"],
    [34453,"2014-04-11T08:00:00","83","ND","ND","ND","ND","ND","0.2","237.3","23.9","76.7","135.8","0"],
    [34454,"2014-04-11T09:00:00","104","ND","ND","ND","ND","ND","0.6","85.9","25.9","69.2","348.4","0"],
    [34455,"2014-04-11T10:00:00","81","ND","ND","ND","ND","ND","1","108.6","26.9","64.6","483.6","0"],
    [34456,"2014-04-11T11:00:00","70","ND","ND","ND","ND","ND","1","145.3","28.4","58.4","607.9","0"],
    [34457,"2014-04-11T12:00:00","ND","ND","ND","ND","ND","ND","0.8","103.7","29.7","54.4","680.9","0"],
    [34458,"2014-04-11T13:00:00","74","ND","ND","ND","ND","ND","1.5","91.9","30.6","51.1","733.2","0"],
    [34459,"2014-04-11T14:00:00","74","ND","ND","ND","ND","ND","1.2","88.4","31.8","48","749.4","0"],
    [34460,"2014-04-11T15:00:00","65","ND","ND","ND","ND","ND","0.7","316.2","32.3","46.3","596.7","0"],
    [34461,"2014-04-11T16:00:00","37","ND","ND","ND","ND","ND","4.1","265.8","31.5","47","465","0"],
    [34462,"2014-04-11T17:00:00","34","ND","ND","ND","ND","ND","2.5","264.1","31.6","45","296.4","0"],
    [34463,"2014-04-11T18:00:00","28","ND","ND","ND","ND","ND","3.1","263.1","30.1","47.7","85.9","0"],
    [34464,"2014-04-11T19:00:00","31","ND","ND","ND","ND","ND","0.7","271","29.2","50.1","0","0"],
    [34465,"2014-04-11T20:00:00","62","ND","ND","ND","ND","ND","0.8","115.9","28.6","52.9","0","0"],
    [34466,"2014-04-11T21:00:00","76","ND","ND","ND","ND","ND","1.1","81.4","27.9","55.3","0","0"],
    [34467,"2014-04-11T22:00:00","61","ND","ND","ND","ND","ND","1.1","114.5","27.7","55.7","0","0"],
    [34468,"2014-04-11T23:00:00","44","ND","ND","ND","ND","ND","0.8","116.8","26.3","62.6","0","0"],
    [34469,"2014-04-12T00:00:00","123","ND","ND","ND","ND","ND","0.8","158.5","25.4","67.6","0","0"],
    [34470,"2014-04-12T01:00:00","71","ND","ND","ND","ND","ND","0.6","126.3","25","70.2","0","0"],
    [34471,"2014-04-12T02:00:00","56","ND","ND","ND","ND","ND","0.4","243.8","24.7","71.9","0","0"],
    [34472,"2014-04-12T03:00:00","67","ND","ND","ND","ND","ND","0.3","262.9","24.4","74.2","0","0"],
    [34473,"2014-04-12T04:00:00","211","ND","ND","ND","ND","ND","0.6","29.4","24","76.8","0","0"],
    [34474,"2014-04-12T05:00:00","95","ND","ND","ND","ND","ND","0.8","347.3","23.6","79.4","0","0"],
    [34475,"2014-04-12T06:00:00","103","ND","ND","ND","ND","ND","0.8","48.5","23.1","82","0","0"],
    [34476,"2014-04-12T07:00:00","109","ND","ND","ND","ND","ND","0.7","27.1","23.2","81.4","25.9","0"],
    [34477,"2014-04-12T08:00:00","129","ND","ND","ND","ND","ND","0.4","12.4","23.9","78.4","111.8","0"],
    [34478,"2014-04-12T09:00:00","117","ND","ND","ND","ND","ND","0.6","57.4","24.7","75","134.5","0"],
    [34479,"2014-04-12T10:00:00","131","ND","ND","ND","ND","ND","1","53.9","26.8","66.4","513.2","0"],
    [34480,"2014-04-12T11:00:00","64","ND","ND","ND","ND","ND","1.5","73.8","27.8","61.2","572.2","0"],
    [34481,"2014-04-12T12:00:00","56","ND","ND","ND","ND","ND","0.7","204.6","28.8","56.1","325.7","0"],
    [34482,"2014-04-12T13:00:00","46","ND","ND","ND","ND","ND","0.4","110.2","29.3","52.9","318.3","0"],
    [34483,"2014-04-12T14:00:00","22","ND","ND","ND","ND","ND","1.2","272.4","29.4","50","214.8","0"],
    [34484,"2014-04-12T15:00:00","29","ND","ND","ND","ND","ND","2.4","256.1","28.1","56.7","186.2","2.03"],
    [34485,"2014-04-12T16:00:00","98","ND","ND","ND","ND","ND","2.4","248.7","24.9","76.1","139.8","6.1"],
    [34486,"2014-04-12T17:00:00","16","ND","ND","ND","ND","ND","0.5","238.1","27.1","65.9","171.4","0"],
    [34487,"2014-04-12T18:00:00","17","ND","ND","ND","ND","ND","0.3","213.7","27.1","61.2","53","0"],
    [34488,"2014-04-12T19:00:00","29","ND","ND","ND","ND","ND","0.4","280.4","25.9","62.9","0","0"],
    [34489,"2014-04-12T20:00:00","42","ND","ND","ND","ND","ND","0.2","339.6","25.2","66.1","0","0"],
    [34490,"2014-04-12T21:00:00","59","ND","ND","ND","ND","ND","0.2","76.1","24.6","69.5","0","0"],
    [34491,"2014-04-12T22:00:00","66","ND","ND","ND","ND","ND","0.5","195.4","23.6","74.7","0","0"],
    [34492,"2014-04-12T23:00:00","57","ND","ND","ND","ND","ND","0.4","295.2","23.3","74.7","0","0"],
    [34493,"2014-04-13T00:00:00","53","ND","ND","ND","ND","ND","0.3","272.6","22.8","76.7","0","0"],
    [34494,"2014-04-13T01:00:00","55","ND","ND","ND","ND","ND","0.2","31.5","22.3","79.3","0","0"],
    [34495,"2014-04-13T02:00:00","59","ND","ND","ND","ND","ND","0.8","230.4","21.7","82.2","0","0"],
    [34496,"2014-04-13T03:00:00","45","ND","ND","ND","ND","ND","0.4","316.7","21.7","81.5","0","0"],
    [34497,"2014-04-13T04:00:00","101","ND","ND","ND","ND","ND","0.8","11.2","21","83.9","0","0"],
    [34498,"2014-04-13T05:00:00","57","ND","ND","ND","ND","ND","0.3","309.4","20.6","85.3","0","0"],
    [34499,"2014-04-13T06:00:00","53","ND","ND","ND","ND","ND","0","215","21.1","83.6","0","0"],
    [34500,"2014-04-13T07:00:00","65","ND","ND","ND","ND","ND","0.6","32.7","20.7","86.3","29.4","0"],
    [34501,"2014-04-13T08:00:00","104","ND","ND","ND","ND","ND","0.4","110.4","22.7","78.1","209.1","0"],
    [34502,"2014-04-13T09:00:00","79","ND","ND","ND","ND","ND","0.7","121.1","24.9","69.4","437.4","0"],
    [34503,"2014-04-13T10:00:00","55","ND","ND","ND","ND","ND","0.8","102.9","26.1","64.8","525.5","0"],
    [34504,"2014-04-13T11:00:00","53","ND","ND","ND","ND","ND","1.5","117.7","27.6","59.6","775.9","0"],
    [34505,"2014-04-13T12:00:00","55","ND","ND","ND","ND","ND","0.6","136.6","28.7","56","659","0"],
    [34506,"2014-04-13T13:00:00","59","ND","ND","ND","ND","ND","1","23.6","29.8","53","567.8","0"],
    [34507,"2014-04-13T14:00:00","47","ND","ND","ND","ND","ND","1.3","14.3","30.5","49.2","517.4","0"],
    [34508,"2014-04-13T15:00:00","20","ND","ND","ND","ND","ND","3.6","281.9","30.7","46.5","680.2","0"],
    [34509,"2014-04-13T16:00:00","20","ND","ND","ND","ND","ND","2.9","275.3","31.1","45.2","536.2","0"],
    [34510,"2014-04-13T17:00:00","22","ND","ND","ND","ND","ND","2.1","265","30","47.1","177.7","0"],
    [34511,"2014-04-13T18:00:00","21","ND","ND","ND","ND","ND","0.9","230.4","29.5","47.4","60.1","0"],
    [34512,"2014-04-13T19:00:00","19","ND","ND","ND","ND","ND","1.3","253.4","28.4","49.3","0","0"],
    [34513,"2014-04-13T20:00:00","34","ND","ND","ND","ND","ND","1.7","225.4","28","51.4","0","0"],
    [34514,"2014-04-13T21:00:00","23","ND","ND","ND","ND","ND","0.5","167.6","27.6","53.5","0","0"],
    [34515,"2014-04-13T22:00:00","50","ND","ND","ND","ND","ND","0.6","69.9","26.3","60.3","0","0"],
    [34516,"2014-04-13T23:00:00","56","ND","ND","ND","ND","ND","0.6","347.3","24.9","66.5","0","0"],
    [34517,"2014-04-14T00:00:00","71","ND","ND","ND","ND","ND","0.7","8.2","24","71.6","0","0"],
    [34518,"2014-04-14T01:00:00","43","ND","ND","ND","ND","ND","0.7","267.5","23.5","73.7","0","0"],
    [34519,"2014-04-14T02:00:00","66","ND","ND","ND","ND","ND","0.4","268.2","23.4","74.9","0","0"],
    [34520,"2014-04-14T03:00:00","42","ND","ND","ND","ND","ND","0.3","22.9","22.8","77.4","0","0"],
    [34521,"2014-04-14T04:00:00","66","ND","ND","ND","ND","ND","0.5","200.7","22.8","78","0","0"],
    [34522,"2014-04-14T05:00:00","50","ND","ND","ND","ND","ND","0.2","166.1","23","78.3","0","0"],
    [34523,"2014-04-14T06:00:00","58","ND","ND","ND","ND","ND","0.5","286.9","22.7","79.9","0","0"],
    [34524,"2014-04-14T07:00:00","62","ND","ND","ND","ND","ND","0.5","264.7","22.8","79.7","13.3","0"],
    [34525,"2014-04-14T08:00:00","82","ND","ND","ND","ND","ND","0.2","240.6","23.7","76.3","110.5","0"],
    [34526,"2014-04-14T09:00:00","105","ND","ND","ND","ND","ND","0.6","102.1","25.4","68.5","315.5","0"],
    [34527,"2014-04-14T10:00:00","85","ND","ND","ND","ND","ND","0.9","99","26.7","63.2","483.3","0"],
    [34528,"2014-04-14T11:00:00","59","ND","ND","ND","ND","ND","1.6","119.9","28.4","55.2","841","0"],
    [34529,"2014-04-14T12:00:00","41","ND","ND","ND","ND","ND","1.3","122.9","29.2","53.1","716.1","0"],
    [34530,"2014-04-14T13:00:00","62","ND","ND","ND","ND","ND","0.9","95.1","30.8","48.6","816.8","0"],
    [34531,"2014-04-14T14:00:00","39","ND","ND","ND","ND","ND","2.2","280.1","30.8","47.8","403.4","0"],
    [34532,"2014-04-14T15:00:00","24","ND","ND","ND","ND","ND","3.4","283.2","31.5","45.5","705.5","0"],
    [34533,"2014-04-14T16:00:00","35","ND","ND","ND","ND","ND","3.7","274.6","30.7","46.2","308.2","0"],
    [34534,"2014-04-14T17:00:00","27","ND","ND","ND","ND","ND","2.7","272.1","29.6","46.7","72.6","0"],
    [34535,"2014-04-14T18:00:00","29","ND","ND","ND","ND","ND","1.2","241.3","29.4","48.1","63.6","0"],
    [34536,"2014-04-14T19:00:00","63","ND","ND","ND","ND","ND","0.5","128.9","29","49.6","5.6","0"],
    [34537,"2014-04-14T20:00:00","34","ND","ND","ND","ND","ND","1.9","200","28","54.3","0","0"],
    [34538,"2014-04-14T21:00:00","32","ND","ND","ND","ND","ND","2.5","213","26.9","59.6","0","0"],
    [34539,"2014-04-14T22:00:00","21","ND","ND","ND","ND","ND","0.8","280.7","26.3","61.3","0","0"],
    [34540,"2014-04-14T23:00:00","42","ND","ND","ND","ND","ND","0.8","35","25.5","68.2","0","0"],
    [34541,"2014-04-15T00:00:00","67","ND","ND","ND","ND","ND","0.4","200.7","24.6","75","0","0"],
    [34542,"2014-04-15T01:00:00","80","ND","ND","ND","ND","ND","0.5","327.1","24.7","74.4","0","0"],
    [34543,"2014-04-15T02:00:00","84","ND","ND","ND","ND","ND","0.8","337.4","24.3","76.3","0","0"],
    [34544,"2014-04-15T03:00:00","135","ND","ND","ND","ND","ND","0.8","17.8","23.6","79.4","0","0"],
    [34545,"2014-04-15T04:00:00","65","ND","ND","ND","ND","ND","1.3","262.5","23.8","76.2","0","0"],
    [34546,"2014-04-15T05:00:00","46","ND","ND","ND","ND","ND","1.2","84.1","23.9","73.9","0","0"],
    [34547,"2014-04-15T06:00:00","20","ND","ND","ND","ND","ND","1.1","167.3","21.4","89.7","0","19.05"],
    [34548,"2014-04-15T07:00:00","17","ND","ND","ND","ND","ND","0.2","16.4","20.4","96.1","0","7.87"],
    [34549,"2014-04-15T08:00:00","34","ND","ND","ND","ND","ND","1.3","11.8","20.7","95.9","12.7","6.6"],
    [34550,"2014-04-15T09:00:00","36","ND","ND","ND","ND","ND","0.9","48.8","21.1","95.1","179.3","1.02"],
    [34551,"2014-04-15T10:00:00","9","ND","ND","ND","ND","ND","1.8","135","21.8","89.1","144.2","3.3"],
    [34552,"2014-04-15T11:00:00","23","ND","ND","ND","ND","ND","0.7","127","21","95.2","146.7","7.62"],
    [34553,"2014-04-15T12:00:00","62","ND","ND","ND","ND","ND","0.2","66.2","23.5","86.9","755.8","0.25"],
    [34554,"2014-04-15T13:00:00","32","ND","ND","ND","ND","ND","1.2","18.6","25.5","74.5","887.2","0"],
    [34555,"2014-04-15T14:00:00","28","ND","ND","ND","ND","ND","0.5","83.7","27.4","64.4","509.9","0"],
    [34556,"2014-04-15T15:00:00","32","ND","ND","ND","ND","ND","0.9","47.5","27.2","64.7","167","0"],
    [34557,"2014-04-15T16:00:00","27","ND","ND","ND","ND","ND","2.4","353.1","22","88","35.8","6.86"],
    [34558,"2014-04-15T17:00:00","24","ND","ND","ND","ND","ND","2.6","355.2","21.8","87.2","44.7","0.25"],
    [34559,"2014-04-15T18:00:00","29","ND","ND","ND","ND","ND","0.9","26.4","21.6","90.4","5.7","3.56"],
    [34560,"2014-04-15T19:00:00","23","ND","ND","ND","ND","ND","0.5","140.1","21.3","93.6","0","4.32"],
    [34561,"2014-04-15T20:00:00","27","ND","ND","ND","ND","ND","0.8","44.7","20.9","94.9","0","6.1"],
    [34562,"2014-04-15T21:00:00","15","ND","ND","ND","ND","ND","0.1","178.8","20.9","94.6","0","1.78"],
    [34563,"2014-04-15T22:00:00","20","ND","ND","ND","ND","ND","1.5","154","20.9","94.3","0","0.25"],
    [34564,"2014-04-15T23:00:00","20","ND","ND","ND","ND","ND","0.6","158","20.9","93.2","0","0"],
    [34565,"2014-04-16T00:00:00","35","ND","ND","ND","ND","ND","0.1","151.5","20.9","92.5","0","0.51"],
    [34566,"2014-04-16T01:00:00","22","ND","ND","ND","ND","ND","0.4","72.2","20.8","94.5","0","0.25"],
    [34567,"2014-04-16T02:00:00","32","ND","ND","ND","ND","ND","0.6","96","20.6","96.5","0","0.25"],
    [34568,"2014-04-16T03:00:00","20","ND","ND","ND","ND","ND","0.8","128","20.6","94.8","0","0"],
    [34569,"2014-04-16T04:00:00","18","ND","ND","ND","ND","ND","0.3","156.9","20.6","93.7","0","0.25"],
    [34570,"2014-04-16T05:00:00","28","ND","ND","ND","ND","ND","0.4","64.6","20.7","94.4","0","0"],
    [34571,"2014-04-16T06:00:00","27","ND","ND","ND","ND","ND","0.8","96.2","20.4","96.2","0","0.25"],
    [34572,"2014-04-16T07:00:00","32","ND","ND","ND","ND","ND","0.6","129.2","20.6","94.6","5.8","0"],
    [34573,"2014-04-16T08:00:00","43","ND","ND","ND","ND","ND","0.5","137.8","21","92.1","22.1","0"],
    [34574,"2014-04-16T09:00:00","53","ND","ND","ND","ND","ND","1.2","159.8","21.3","89.6","38.2","0"],
    [34575,"2014-04-16T10:00:00","64","ND","ND","ND","ND","ND","0.3","345.9","21.9","87.6","146.6","0"],
    [34576,"2014-04-16T11:00:00","80","ND","ND","ND","ND","ND","0.6","246.8","24","78.7","532.6","0"],
    [34577,"2014-04-16T12:00:00","53","ND","ND","ND","ND","ND","0.9","60.5","25.7","68.3","689.1","0"],
    [34578,"2014-04-16T13:00:00","50","ND","ND","ND","ND","ND","1.1","54.3","26.9","61.7","614.6","0"],
    [34579,"2014-04-16T14:00:00","33","ND","ND","ND","ND","ND","1.3","55.4","27.5","57.6","608.5","0"],
    [34580,"2014-04-16T15:00:00","44","ND","ND","ND","ND","ND","0.9","67.3","28.5","53","485.7","0"],
    [34581,"2014-04-16T16:00:00","46","ND","ND","ND","ND","ND","0.9","37.4","29.2","50.8","454","0"],
    [34582,"2014-04-16T17:00:00","55","ND","ND","ND","ND","ND","1.3","288.7","29.3","47.6","256.9","0"],
    [34583,"2014-04-16T18:00:00","54","ND","ND","ND","ND","ND","1.2","283.2","27.7","56.8","40","0"],
    [34584,"2014-04-16T19:00:00","64","ND","ND","ND","ND","ND","0.2","282.1","26.1","65.6","0","0"],
    [34585,"2014-04-16T20:00:00","68","ND","ND","ND","ND","ND","0.1","335.2","25.5","68.7","0","0"],
    [34586,"2014-04-16T21:00:00","63","ND","ND","ND","ND","ND","0.3","278.4","25.3","67.2","0","0"],
    [34587,"2014-04-16T22:00:00","63","ND","ND","ND","ND","ND","0.2","96","24.7","72.8","0","0"],
    [34588,"2014-04-16T23:00:00","51","ND","ND","ND","ND","ND","0.3","285.7","24","77.3","0","0"],
    [34589,"2014-04-17T00:00:00","59","ND","ND","ND","ND","ND","0","66.8","24","78","0","0"],
    [34590,"2014-04-17T01:00:00","43","ND","ND","ND","ND","ND","0.3","61.1","23.6","80.5","0","0"],
    [34591,"2014-04-17T02:00:00","37","ND","ND","ND","ND","ND","0.4","210.2","23.3","82.4","0","0"],
    [34592,"2014-04-17T03:00:00","35","ND","ND","ND","ND","ND","0.4","188.2","23.2","83.3","0","0"],
    [34593,"2014-04-17T04:00:00","31","ND","ND","ND","ND","ND","1.5","163.1","23.3","80.9","0","0"],
    [34594,"2014-04-17T05:00:00","34","ND","ND","ND","ND","ND","0.4","185.9","22.7","84.6","0","0"],
    [34595,"2014-04-17T06:00:00","40","ND","ND","ND","ND","ND","0.9","18.4","22.2","87.9","0","0"],
    [34596,"2014-04-17T07:00:00","44","ND","ND","ND","ND","ND","0.5","270.5","22.5","86.7","23.2","0"],
    [34597,"2014-04-17T08:00:00","40","ND","ND","ND","ND","ND","0.7","173.7","23.2","82.3","85.2","0"],
    [34598,"2014-04-17T09:00:00","46","ND","ND","ND","ND","ND","1.9","157.1","24.5","75.3","272.1","0"],
    [34599,"2014-04-17T10:00:00","ND","ND","ND","ND","ND","ND","ND","ND","ND","ND","ND","ND"],
    [34600,"2014-04-17T11:00:00","ND","ND","ND","ND","ND","ND","ND","ND","ND","ND","ND","ND"],
    [34601,"2014-04-17T12:00:00","ND","ND","ND","ND","ND","ND","ND","ND","ND","ND","ND","ND"],
    [34602,"2014-04-17T13:00:00","ND","ND","ND","ND","ND","ND","ND","ND","ND","ND","ND","ND"],
    [34603,"2014-04-17T14:00:00","ND","ND","ND","ND","ND","ND","ND","ND","ND","ND","ND","ND"],
    [34604,"2014-04-17T15:00:00","ND","ND","ND","ND","ND","ND","ND","ND","ND","ND","ND","ND"],
    [34605,"2014-04-17T16:00:00","ND","ND","ND","ND","ND","ND","ND","ND","ND","ND","ND","ND"],
    [34606,"2014-04-17T17:00:00","ND","ND","ND","ND","ND","ND","ND","ND","ND","ND","ND","ND"],
    [34607,"2014-04-17T18:00:00","ND","ND","ND","ND","ND","ND","ND","ND","ND","ND","ND","ND"],
    [34608,"2014-04-17T19:00:00","ND","ND","ND","ND","ND","ND","ND","ND","ND","ND","ND","ND"],
    [34609,"2014-04-17T20:00:00","ND","ND","ND","ND","ND","ND","ND","ND","ND","ND","ND","ND"],
    [34610,"2014-04-17T21:00:00","ND","ND","ND","ND","ND","ND","ND","ND","ND","ND","ND","ND"],
    [34611,"2014-04-17T22:00:00","ND","ND","ND","ND","ND","ND","ND","ND","ND","ND","ND","ND"],
    [34612,"2014-04-17T23:00:00","ND","ND","ND","ND","ND","ND","ND","ND","ND","ND","ND","ND"],
    [34613,"2014-04-18T00:00:00","ND","ND","ND","ND","ND","ND","ND","ND","ND","ND","ND","ND"],
    [34614,"2014-04-18T01:00:00","ND","ND","ND","ND","ND","ND","ND","ND","ND","ND","ND","ND"],
    [34615,"2014-04-18T02:00:00","ND","ND","ND","ND","ND","ND","ND","ND","ND","ND","ND","ND"],
    [34616,"2014-04-18T03:00:00","ND","ND","ND","ND","ND","ND","ND","ND","ND","ND","ND","ND"],
    [34617,"2014-04-18T04:00:00","ND","ND","ND","ND","ND","ND","ND","ND","ND","ND","ND","ND"],
    [34618,"2014-04-18T05:00:00","ND","ND","ND","ND","ND","ND","ND","ND","ND","ND","ND","ND"],
    [34619,"2014-04-18T06:00:00","ND","ND","ND","ND","ND","ND","ND","ND","ND","ND","ND","ND"],
    [34620,"2014-04-18T07:00:00","ND","ND","ND","ND","ND","ND","ND","ND","ND","ND","ND","ND"],
    [34621,"2014-04-18T08:00:00","ND","ND","ND","ND","ND","ND","ND","ND","ND","ND","ND","ND"],
    [34622,"2014-04-18T09:00:00","ND","ND","ND","ND","ND","ND","ND","ND","ND","ND","ND","ND"],
    [34623,"2014-04-18T10:00:00","ND","ND","ND","ND","ND","ND","ND","ND","ND","ND","ND","ND"],
    [34624,"2014-04-18T11:00:00","ND","ND","ND","ND","ND","ND","ND","ND","ND","ND","ND","ND"],
    [34625,"2014-04-18T12:00:00","ND","ND","ND","ND","ND","ND","ND","ND","ND","ND","ND","ND"],
    [34626,"2014-04-18T13:00:00","ND","ND","ND","ND","ND","ND","ND","ND","ND","ND","ND","ND"],
    [34627,"2014-04-18T14:00:00","ND","ND","ND","ND","ND","ND","ND","ND","ND","ND","ND","ND"],
    [34628,"2014-04-18T15:00:00","ND","ND","ND","ND","ND","ND","ND","ND","ND","ND","ND","ND"],
    [34629,"2014-04-18T16:00:00","ND","ND","ND","ND","ND","ND","ND","ND","ND","ND","ND","ND"],
    [34630,"2014-04-18T17:00:00","ND","ND","ND","ND","ND","ND","ND","ND","ND","ND","ND","ND"],
    [34631,"2014-04-18T18:00:00","ND","ND","ND","ND","ND","ND","ND","ND","ND","ND","ND","ND"],
    [34632,"2014-04-18T19:00:00","ND","ND","ND","ND","ND","ND","ND","ND","ND","ND","ND","ND"],
    [34633,"2014-04-18T20:00:00","ND","ND","ND","ND","ND","ND","ND","ND","ND","ND","ND","ND"],
    [34634,"2014-04-18T21:00:00","ND","ND","ND","ND","ND","ND","ND","ND","ND","ND","ND","ND"],
    [34635,"2014-04-18T22:00:00","ND","ND","ND","ND","ND","ND","ND","ND","ND","ND","ND","ND"],
    [34636,"2014-04-18T23:00:00","ND","ND","ND","ND","ND","ND","ND","ND","ND","ND","ND","ND"],
    [34637,"2014-04-19T00:00:00","ND","ND","ND","ND","ND","ND","ND","ND","ND","ND","ND","ND"],
    [34638,"2014-04-19T01:00:00","ND","ND","ND","ND","ND","ND","ND","ND","ND","ND","ND","ND"],
    [34639,"2014-04-19T02:00:00","ND","ND","ND","ND","ND","ND","ND","ND","ND","ND","ND","ND"],
    [34640,"2014-04-19T03:00:00","ND","ND","ND","ND","ND","ND","ND","ND","ND","ND","ND","ND"],
    [34641,"2014-04-19T04:00:00","ND","ND","ND","ND","ND","ND","ND","ND","ND","ND","ND","ND"],
    [34642,"2014-04-19T05:00:00","ND","ND","ND","ND","ND","ND","ND","ND","ND","ND","ND","ND"],
    [34643,"2014-04-19T06:00:00","ND","ND","ND","ND","ND","ND","ND","ND","ND","ND","ND","ND"],
    [34644,"2014-04-19T07:00:00","ND","ND","ND","ND","ND","ND","ND","ND","ND","ND","ND","ND"],
    [34645,"2014-04-19T08:00:00","ND","ND","ND","ND","ND","ND","ND","ND","ND","ND","ND","ND"],
    [34646,"2014-04-19T09:00:00","ND","ND","ND","ND","ND","ND","ND","ND","ND","ND","ND","ND"],
    [34647,"2014-04-19T10:00:00","ND","ND","ND","ND","ND","ND","ND","ND","ND","ND","ND","ND"],
    [34648,"2014-04-19T11:00:00","ND","ND","ND","ND","ND","ND","ND","ND","ND","ND","ND","ND"],
    [34649,"2014-04-19T12:00:00","ND","ND","ND","ND","ND","ND","ND","ND","ND","ND","ND","ND"],
    [34650,"2014-04-19T13:00:00","ND","ND","ND","ND","ND","ND","ND","ND","ND","ND","ND","ND"],
    [34651,"2014-04-19T14:00:00","ND","ND","ND","ND","ND","ND","ND","ND","ND","ND","ND","ND"],
    [34652,"2014-04-19T15:00:00","ND","ND","ND","ND","ND","ND","ND","ND","ND","ND","ND","ND"],
    [34653,"2014-04-19T16:00:00","ND","ND","ND","ND","ND","ND","ND","ND","ND","ND","ND","ND"],
    [34654,"2014-04-19T17:00:00","ND","ND","ND","ND","ND","ND","ND","ND","ND","ND","ND","ND"],
    [34655,"2014-04-19T18:00:00","ND","ND","ND","ND","ND","ND","ND","ND","ND","ND","ND","ND"],
    [34656,"2014-04-19T19:00:00","ND","ND","ND","ND","ND","ND","ND","ND","ND","ND","ND","ND"],
    [34657,"2014-04-19T20:00:00","ND","ND","ND","ND","ND","ND","ND","ND","ND","ND","ND","ND"],
    [34658,"2014-04-19T21:00:00","ND","ND","ND","ND","ND","ND","ND","ND","ND","ND","ND","ND"],
    [34659,"2014-04-19T22:00:00","ND","ND","ND","ND","ND","ND","ND","ND","ND","ND","ND","ND"],
    [34660,"2014-04-19T23:00:00","ND","ND","ND","ND","ND","ND","ND","ND","ND","ND","ND","ND"],
    [34661,"2014-04-20T00:00:00","ND","ND","ND","ND","ND","ND","ND","ND","ND","ND","ND","ND"],
    [34662,"2014-04-20T01:00:00","ND","ND","ND","ND","ND","ND","ND","ND","ND","ND","ND","ND"],
    [34663,"2014-04-20T02:00:00","ND","ND","ND","ND","ND","ND","ND","ND","ND","ND","ND","ND"],
    [34664,"2014-04-20T03:00:00","ND","ND","ND","ND","ND","ND","ND","ND","ND","ND","ND","ND"],
    [34665,"2014-04-20T04:00:00","ND","ND","ND","ND","ND","ND","ND","ND","ND","ND","ND","ND"],
    [34666,"2014-04-20T05:00:00","ND","ND","ND","ND","ND","ND","ND","ND","ND","ND","ND","ND"],
    [34667,"2014-04-20T06:00:00","ND","ND","ND","ND","ND","ND","ND","ND","ND","ND","ND","ND"],
    [34668,"2014-04-20T07:00:00","ND","ND","ND","ND","ND","ND","ND","ND","ND","ND","ND","ND"],
    [34669,"2014-04-20T08:00:00","ND","ND","ND","ND","ND","ND","ND","ND","ND","ND","ND","ND"],
    [34670,"2014-04-20T09:00:00","ND","ND","ND","ND","ND","ND","ND","ND","ND","ND","ND","ND"],
    [34671,"2014-04-20T10:00:00","ND","ND","ND","ND","ND","ND","ND","ND","ND","ND","ND","ND"],
    [34672,"2014-04-20T11:00:00","ND","ND","ND","ND","ND","ND","ND","ND","ND","ND","ND","ND"],
    [34673,"2014-04-20T12:00:00","ND","ND","ND","ND","ND","ND","ND","ND","ND","ND","ND","ND"],
    [34674,"2014-04-20T13:00:00","ND","ND","ND","ND","ND","ND","ND","ND","ND","ND","ND","ND"],
    [34675,"2014-04-20T14:00:00","ND","ND","ND","ND","ND","ND","ND","ND","ND","ND","ND","ND"],
    [34676,"2014-04-20T15:00:00","ND","ND","ND","ND","ND","ND","ND","ND","ND","ND","ND","ND"],
    [34677,"2014-04-20T16:00:00","ND","ND","ND","ND","ND","ND","ND","ND","ND","ND","ND","ND"],
    [34678,"2014-04-20T17:00:00","ND","ND","ND","ND","ND","ND","ND","ND","ND","ND","ND","ND"],
    [34679,"2014-04-20T18:00:00","ND","ND","ND","ND","ND","ND","ND","ND","ND","ND","ND","ND"],
    [34680,"2014-04-20T19:00:00","ND","ND","ND","ND","ND","ND","ND","ND","ND","ND","ND","ND"],
    [34681,"2014-04-20T20:00:00","ND","ND","ND","ND","ND","ND","ND","ND","ND","ND","ND","ND"],
    [34682,"2014-04-20T21:00:00","ND","ND","ND","ND","ND","ND","ND","ND","ND","ND","ND","ND"],
    [34683,"2014-04-20T22:00:00","ND","ND","ND","ND","ND","ND","ND","ND","ND","ND","ND","ND"],
    [34684,"2014-04-20T23:00:00","ND","ND","ND","ND","ND","ND","ND","ND","ND","ND","ND","ND"],
    [34685,"2014-04-21T00:00:00","ND","ND","ND","ND","ND","ND","ND","ND","ND","ND","ND","ND"],
    [34686,"2014-04-21T01:00:00","ND","ND","ND","ND","ND","ND","ND","ND","ND","ND","ND","ND"],
    [34687,"2014-04-21T02:00:00","ND","ND","ND","ND","ND","ND","ND","ND","ND","ND","ND","ND"],
    [34688,"2014-04-21T03:00:00","ND","ND","ND","ND","ND","ND","ND","ND","ND","ND","ND","ND"],
    [34689,"2014-04-21T04:00:00","ND","ND","ND","ND","ND","ND","ND","ND","ND","ND","ND","ND"],
    [34690,"2014-04-21T05:00:00","ND","ND","ND","ND","ND","ND","ND","ND","ND","ND","ND","ND"],
    [34691,"2014-04-21T06:00:00","ND","ND","ND","ND","ND","ND","ND","ND","ND","ND","ND","ND"],
    [34692,"2014-04-21T07:00:00","ND","ND","ND","ND","ND","ND","ND","ND","ND","ND","ND","ND"],
    [34693,"2014-04-21T08:00:00","ND","ND","ND","ND","ND","ND","ND","ND","ND","ND","ND","ND"],
    [34694,"2014-04-21T09:00:00","ND","ND","ND","ND","ND","ND","ND","ND","ND","ND","ND","ND"],
    [34695,"2014-04-21T10:00:00","ND","ND","ND","ND","ND","ND","ND","ND","ND","ND","ND","ND"],
    [34696,"2014-04-21T11:00:00","ND","ND","ND","ND","ND","ND","ND","ND","ND","ND","ND","ND"],
    [34697,"2014-04-21T12:00:00","ND","ND","ND","ND","ND","ND","ND","ND","ND","ND","ND","ND"],
    [34698,"2014-04-21T13:00:00","ND","ND","ND","ND","ND","ND","ND","ND","ND","ND","ND","ND"],
    [34699,"2014-04-21T14:00:00","ND","ND","ND","ND","ND","ND","ND","ND","ND","ND","ND","ND"],
    [34700,"2014-04-21T15:00:00","ND","ND","ND","ND","ND","ND","ND","ND","ND","ND","ND","ND"],
    [34701,"2014-04-21T16:00:00","ND","ND","ND","ND","ND","ND","ND","ND","ND","ND","ND","ND"],
    [34702,"2014-04-21T17:00:00","ND","ND","ND","ND","ND","ND","0.7","265.9","27.9","55.8","64","0"],
    [34703,"2014-04-21T18:00:00","27","ND","ND","ND","ND","ND","0.7","256.1","27.7","55.1","25.9","0"],
    [34704,"2014-04-21T19:00:00","54","ND","ND","ND","ND","ND","0.7","127.1","27.4","56.8","0","0"],
    [34705,"2014-04-21T20:00:00","29","ND","ND","ND","ND","ND","1.6","163.6","26.2","61.3","0","0"],
    [34706,"2014-04-21T21:00:00","25","ND","ND","ND","ND","ND","2","225.3","25.7","65.6","0","0"],
    [34707,"2014-04-21T22:00:00","31","ND","ND","ND","ND","ND","0.4","146.8","25.3","67.3","0","0"],
    [34708,"2014-04-21T23:00:00","45","ND","ND","ND","ND","ND","0.9","127.7","24.8","70.1","0","0"],
    [34709,"2014-04-22T00:00:00","36","ND","ND","ND","ND","ND","0.3","168.2","24.3","72.3","0","0"],
    [34710,"2014-04-22T01:00:00","38","ND","ND","ND","ND","ND","0.1","180.5","24.1","72.7","0","0"],
    [34711,"2014-04-22T02:00:00","54","ND","ND","ND","ND","ND","0.5","9.8","23.2","79.6","0","0"],
    [34712,"2014-04-22T03:00:00","59","ND","ND","ND","ND","ND","0.8","258.8","22.9","81.1","0","0"],
    [34713,"2014-04-22T04:00:00","44","ND","ND","ND","ND","ND","0.5","249.6","22.9","80.5","0","0"],
    [34714,"2014-04-22T05:00:00","20","ND","ND","ND","ND","ND","1.3","165","22.9","79","0","0"],
    [34715,"2014-04-22T06:00:00","13","ND","ND","ND","ND","ND","1.6","181.6","22.1","84.4","0","0"],
    [34716,"2014-04-22T07:00:00","21","ND","ND","ND","ND","ND","1.1","166.1","22.2","84.2","28.2","0"],
    [34717,"2014-04-22T08:00:00","25","ND","ND","ND","ND","ND","0.9","114.8","23.1","80.3","165","0"],
    [34718,"2014-04-22T09:00:00","34","ND","ND","ND","ND","ND","0.7","133.9","24.4","74.2","344.2","0"],
    [34719,"2014-04-22T10:00:00","44","ND","ND","ND","ND","ND","0.9","163.6","25.5","69","280.3","0"],
    [34720,"2014-04-22T11:00:00","50","ND","ND","ND","ND","ND","0.9","121.5","26.5","65.9","553","0"],
    [34721,"2014-04-22T12:00:00","55","ND","ND","ND","ND","ND","0.5","285.3","27.5","61.1","394.3","0"],
    [34722,"2014-04-22T13:00:00","63","ND","ND","ND","ND","ND","0.7","112.6","29","54.8","742.4","0"],
    [34723,"2014-04-22T14:00:00","60","ND","ND","ND","ND","ND","0.4","11.3","30.3","50.4","509.1","0"],
    [34724,"2014-04-22T15:00:00","50","ND","ND","ND","ND","ND","0.5","52","31","47.6","546.1","0"],
    [34725,"2014-04-22T16:00:00","58","ND","ND","ND","ND","ND","1.6","33.6","30.1","50.6","138.4","0"],
    [34726,"2014-04-22T17:00:00","43","ND","ND","ND","ND","ND","1.9","22.5","29","54.3","95","0"],
    [34727,"2014-04-22T18:00:00","34","ND","ND","ND","ND","ND","0.9","270","28.9","55.5","49.6","0"],
    [34728,"2014-04-22T19:00:00","40","ND","ND","ND","ND","ND","1.5","231.9","27.4","60.5","0","0"],
    [34729,"2014-04-22T20:00:00","65","ND","ND","ND","ND","ND","0.2","345.8","26.6","64.3","0","0"],
    [34730,"2014-04-22T21:00:00","91","ND","ND","ND","ND","ND","0.1","337.7","26.2","67.3","0","0"],
    [34731,"2014-04-22T22:00:00","114","ND","ND","ND","ND","ND","0.2","226.8","26","69.6","0","0"],
    [34732,"2014-04-22T23:00:00","55","ND","ND","ND","ND","ND","0.7","102.9","26.1","68.1","0","0"],
    [34733,"2014-04-23T00:00:00","13","ND","ND","ND","ND","ND","0.8","113.5","24.8","72.7","0","0"],
    [34734,"2014-04-23T01:00:00","45","ND","ND","ND","ND","ND","0.7","225.3","24.5","76","0","0"],
    [34735,"2014-04-23T02:00:00","27","ND","ND","ND","ND","ND","0.4","274.3","24.3","77.6","0","0"],
    [34736,"2014-04-23T03:00:00","38","ND","ND","ND","ND","ND","0.3","113.6","24","78.4","0","0"],
    [34737,"2014-04-23T04:00:00","38","ND","ND","ND","ND","ND","1.2","152.9","24.1","78.9","0","0"],
    [34738,"2014-04-23T05:00:00","23","ND","ND","ND","ND","ND","0.8","7.2","21.1","96.5","0","51.05"],
    [34739,"2014-04-23T06:00:00","27","ND","ND","ND","ND","ND","1","345.8","19.8","97.8","0","1.78"],
    [34740,"2014-04-23T07:00:00","30","ND","ND","ND","ND","ND","0.4","152.9","20.5","94.8","7.7","1.78"],
    [34741,"2014-04-23T08:00:00","31","ND","ND","ND","ND","ND","0.4","101.9","21.1","93.1","156.2","3.56"],
    [34742,"2014-04-23T09:00:00","37","ND","ND","ND","ND","ND","0.4","140.9","23.7","77.1","518.1","0.25"],
    [34743,"2014-04-23T10:00:00","30","ND","ND","ND","ND","ND","1.1","199.6","25.7","69","608.9","0"],
    [34744,"2014-04-23T11:00:00","34","ND","ND","ND","ND","ND","1.1","166.5","27.2","62.8","691.3","0"],
    [34745,"2014-04-23T12:00:00","38","ND","ND","ND","ND","ND","1","59.7","28.3","60.4","676.9","0"],
    [34746,"2014-04-23T13:00:00","34","ND","ND","ND","ND","ND","1.6","350.3","29","57.5","663.1","0"],
    [34747,"2014-04-23T14:00:00","12","ND","ND","ND","ND","ND","2.7","317.4","29.7","49.5","546.3","0"],
    [34748,"2014-04-23T15:00:00","ND","ND","ND","ND","ND","ND","1.9","42.7","23.4","86.3","67.5","7.37"],
    [34749,"2014-04-23T16:00:00","33","ND","ND","ND","ND","ND","1.7","169","23.9","85.1","43","0"],
    [34750,"2014-04-23T17:00:00","29","ND","ND","ND","ND","ND","2.2","150.3","23.4","82.9","43.8","0"],
    [34751,"2014-04-23T18:00:00","21","ND","ND","ND","ND","ND","2.4","158.5","21.8","86.1","22.1","0"],
    [34752,"2014-04-23T19:00:00","26","ND","ND","ND","ND","ND","2.3","170.6","21.4","87.5","0","0"],
    [34753,"2014-04-23T20:00:00","43","ND","ND","ND","ND","ND","0.6","10.8","21.8","86.3","0","0"],
    [34754,"2014-04-23T21:00:00","48","ND","ND","ND","ND","ND","0.9","43","21.7","87.9","0","0"],
    [34755,"2014-04-23T22:00:00","31","ND","ND","ND","ND","ND","1","15.7","21.2","90.3","0","0"],
    [34756,"2014-04-23T23:00:00","41","ND","ND","ND","ND","ND","0.5","53.6","21.1","91.2","0","0"],
    [34757,"2014-04-24T00:00:00","30","ND","ND","ND","ND","ND","0.3","17.3","21.1","88.8","0","0"],
    [34758,"2014-04-24T01:00:00","64","ND","ND","ND","ND","ND","0.4","256.8","21.1","89.1","0","0"],
    [34759,"2014-04-24T02:00:00","69","ND","ND","ND","ND","ND","0.3","298.1","21.1","91.1","0","0.76"],
    [34760,"2014-04-24T03:00:00","40","ND","ND","ND","ND","ND","0.2","351.8","20.9","93.3","0","3.56"],
    [34761,"2014-04-24T04:00:00","45","ND","ND","ND","ND","ND","0.9","47.9","20.8","95.4","0","0.25"],
    [34762,"2014-04-24T05:00:00","38","ND","ND","ND","ND","ND","0.6","30.4","20.6","97","0","0"],
    [34763,"2014-04-24T06:00:00","50","ND","ND","ND","ND","ND","0.1","315.3","20.6","96.8","0","0"],
    [34764,"2014-04-24T07:00:00","47","ND","ND","ND","ND","ND","0.1","49","20.9","95.7","0","0.25"],
    [34765,"2014-04-24T08:00:00","44","ND","ND","ND","ND","ND","0.7","55.8","20.9","95.1","20.9","0.25"],
    [34766,"2014-04-24T09:00:00","32","ND","ND","ND","ND","ND","0.9","56","21.1","93.8","81.6","0"],
    [34767,"2014-04-24T10:00:00","25","ND","ND","ND","ND","ND","0.6","94","21.9","88.8","142","0.25"],
    [34768,"2014-04-24T11:00:00","37","ND","ND","ND","ND","ND","1","148.9","22.5","85","164","0"],
    [34769,"2014-04-24T12:00:00","37","ND","ND","ND","ND","ND","0.9","126.8","23","82.2","258.2","0"],
    [34770,"2014-04-24T13:00:00","27","ND","ND","ND","ND","ND","1.5","154.6","23.3","80.2","249.6","0"],
    [34771,"2014-04-24T14:00:00","29","ND","ND","ND","ND","ND","2.3","183","23.8","77.3","269.8","0"],
    [34772,"2014-04-24T15:00:00","25","ND","ND","ND","ND","ND","1.9","166.6","23.8","75.5","121","0"],
    [34773,"2014-04-24T16:00:00","32","ND","ND","ND","ND","ND","0.9","156.2","23.6","74.6","77.5","0"],
    [34774,"2014-04-24T17:00:00","48","ND","ND","ND","ND","ND","0.6","53.7","23.3","78.4","38.4","0"],
    [34775,"2014-04-24T18:00:00","71","ND","ND","ND","ND","ND","0.3","327.2","23.1","80","19.1","0"],
    [34776,"2014-04-24T19:00:00","71","ND","ND","ND","ND","ND","0.5","358.4","22.7","82","0","0"],
    [34777,"2014-04-24T20:00:00","87","ND","ND","ND","ND","ND","0.2","39","22.4","84.3","0","0"],
    [34778,"2014-04-24T21:00:00","93","ND","ND","ND","ND","ND","0.2","272.7","21.7","87.5","0","0"],
    [34779,"2014-04-24T22:00:00","59","ND","ND","ND","ND","ND","0.2","275.8","21.3","87.2","0","0"],
    [34780,"2014-04-24T23:00:00","65","ND","ND","ND","ND","ND","0.2","245.8","21.2","86.8","0","0"],
    [34781,"2014-04-25T00:00:00","62","ND","ND","ND","ND","ND","0.2","135.6","21.2","86.3","0","0"],
    [34782,"2014-04-25T01:00:00","69","ND","ND","ND","ND","ND","0.4","189.1","21","88.3","0","0"],
    [34783,"2014-04-25T02:00:00","47","ND","ND","ND","ND","ND","0.8","172.1","20.7","89.5","0","0"],
    [34784,"2014-04-25T03:00:00","37","ND","ND","ND","ND","ND","0.1","201.2","20.7","90.4","0","0"],
    [34785,"2014-04-25T04:00:00","40","ND","ND","ND","ND","ND","0.1","243.6","20.5","91","0","0"],
    [34786,"2014-04-25T05:00:00","33","ND","ND","ND","ND","ND","0.3","147.1","20.4","90.6","0","0"],
    [34787,"2014-04-25T06:00:00","83","ND","ND","ND","ND","ND","0.7","26.1","19.8","93.6","0","0"],
    [34788,"2014-04-25T07:00:00","107","ND","ND","ND","ND","ND","0.8","1.4","19.4","97.5","14.7","0"],
    [34789,"2014-04-25T08:00:00","119","ND","ND","ND","ND","ND","0.7","6.3","20.3","97.4","109.2","0"],
    [34790,"2014-04-25T09:00:00","137","ND","ND","ND","ND","ND","0.4","123.3","22.3","85.6","326.3","0"],
    [34791,"2014-04-25T10:00:00","76","ND","ND","ND","ND","ND","1.1","151.9","25.1","66.9","629.3","0"],
    [34792,"2014-04-25T11:00:00","66","ND","ND","ND","ND","ND","1.6","117.5","26.5","60.7","744.8","0"],
    [34793,"2014-04-25T12:00:00","58","ND","ND","ND","ND","ND","1.4","86.5","27.3","60.7","747.3","0"],
    [34794,"2014-04-25T13:00:00","54","ND","ND","ND","ND","ND","1.5","87.6","28.2","58.4","643","0"],
    [34795,"2014-04-25T14:00:00","53","ND","ND","ND","ND","ND","0.4","108.8","29.2","56.2","572.7","0"],
    [34796,"2014-04-25T15:00:00","79","ND","ND","ND","ND","ND","1.1","24.7","30.1","55.1","519.9","0"],
    [34797,"2014-04-25T16:00:00","32","ND","ND","ND","ND","ND","2.6","268.9","30.6","49.2","509.7","0"],
    [34798,"2014-04-25T17:00:00","11","ND","ND","ND","ND","ND","3.4","274.9","30.1","48.4","290.4","0"],
    [34799,"2014-04-25T18:00:00","19","ND","ND","ND","ND","ND","1.8","273.3","28.9","51.8","68.5","0"],
    [34800,"2014-04-25T19:00:00","24","ND","ND","ND","ND","ND","0.6","128.7","27.9","55.5","0","0"],
    [34801,"2014-04-25T20:00:00","21","ND","ND","ND","ND","ND","1.6","110.6","27.5","57","0","0"],
    [34802,"2014-04-25T21:00:00","34","ND","ND","ND","ND","ND","1","328.1","26.8","58.8","0","0"],
    [34803,"2014-04-25T22:00:00","29","ND","ND","ND","ND","ND","1.4","105.7","25.6","65.7","0","0"],
    [34804,"2014-04-25T23:00:00","17","ND","ND","ND","ND","ND","2.5","182.3","24.2","73.4","0","0"],
    [34805,"2014-04-26T00:00:00","14","ND","ND","ND","ND","ND","0.2","165.5","22.6","87.8","0","22.35"],
    [34806,"2014-04-26T01:00:00","12","ND","ND","ND","ND","ND","0.4","3.8","21","97.9","0","42.16"],
    [34807,"2014-04-26T02:00:00","8","ND","ND","ND","ND","ND","0.3","109.9","20.5","99.3","0","10.92"],
    [34808,"2014-04-26T03:00:00","8","ND","ND","ND","ND","ND","0.7","98.2","20.5","99.1","0","1.52"],
    [34809,"2014-04-26T04:00:00","4","ND","ND","ND","ND","ND","0.1","305.1","20","98.6","0","8.89"],
    [34810,"2014-04-26T05:00:00","6","ND","ND","ND","ND","ND","0.7","38.1","20","98.3","0","1.78"],
    [34811,"2014-04-26T06:00:00","11","ND","ND","ND","ND","ND","0.6","347","19.9","97.7","0","2.03"],
    [34812,"2014-04-26T07:00:00","20","ND","ND","ND","ND","ND","0.3","296.5","20.2","97.2","11.1","0.25"],
    [34813,"2014-04-26T08:00:00","27","ND","ND","ND","ND","ND","0.2","238.3","20.7","96.3","63.4","0"],
    [34814,"2014-04-26T09:00:00","48","ND","ND","ND","ND","ND","0.2","140.7","21.8","91.8","182.7","0"],
    [34815,"2014-04-26T10:00:00","48","ND","ND","ND","ND","ND","0.9","52.6","22.2","89","118","0"],
    [34816,"2014-04-26T11:00:00","52","ND","ND","ND","ND","ND","0.2","2.4","23.4","82.5","464.2","0"],
    [34817,"2014-04-26T12:00:00","46","ND","ND","ND","ND","ND","0.4","108.4","25.9","70.5","861.9","0"],
    [34818,"2014-04-26T13:00:00","49","ND","ND","ND","ND","ND","1","50","27.3","63.7","821.2","0"],
    [34819,"2014-04-26T14:00:00","38","ND","ND","ND","ND","ND","1.5","50.5","27.7","62.4","564","0"],
    [34820,"2014-04-26T15:00:00","28","ND","ND","ND","ND","ND","1.7","19.6","27.1","63.4","271.7","0"],
    [34821,"2014-04-26T16:00:00","30","ND","ND","ND","ND","ND","1.6","35.5","27","63","273.2","0"],
    [34822,"2014-04-26T17:00:00","19","ND","ND","ND","ND","ND","0.9","341","27.7","58.8","270.3","0"],
    [34823,"2014-04-26T18:00:00","15","ND","ND","ND","ND","ND","1.9","227","27.3","58.8","86.7","0"],
    [34824,"2014-04-26T19:00:00","26","ND","ND","ND","ND","ND","0.3","324.4","26.3","61.6","0","0"],
    [34825,"2014-04-26T20:00:00","39","ND","ND","ND","ND","ND","0.5","188.3","25.7","65.6","0","0"],
    [34826,"2014-04-26T21:00:00","38","ND","ND","ND","ND","ND","0.2","280.3","25","68.8","0","0"],
    [34827,"2014-04-26T22:00:00","60","ND","ND","ND","ND","ND","0.7","162.1","24.8","71.3","0","0"],
    [34828,"2014-04-26T23:00:00","59","ND","ND","ND","ND","ND","1.2","157.3","24.6","72","0","0"],
    [34829,"2014-04-27T00:00:00","47","ND","ND","ND","ND","ND","0.5","97.3","23.9","76.3","0","0"],
    [34830,"2014-04-27T01:00:00","42","ND","ND","ND","ND","ND","0.6","141.8","22.9","83.2","0","0"],
    [34831,"2014-04-27T02:00:00","16","ND","ND","ND","ND","ND","1.5","150.9","22","85.8","0","0"],
    [34832,"2014-04-27T03:00:00","17","ND","ND","ND","ND","ND","0.5","141.3","21.8","85.5","0","0"],
    [34833,"2014-04-27T04:00:00","10","ND","ND","ND","ND","ND","0.1","309.7","21.8","86.5","0","0"],
    [34834,"2014-04-27T05:00:00","18","ND","ND","ND","ND","ND","0.3","161.6","21.5","88.3","0","0"],
    [34835,"2014-04-27T06:00:00","38","ND","ND","ND","ND","ND","0.4","22.5","21.5","90","0","0"],
    [34836,"2014-04-27T07:00:00","40","ND","ND","ND","ND","ND","0.1","263.6","21.3","91.7","14.9","0"],
    [34837,"2014-04-27T08:00:00","32","ND","ND","ND","ND","ND","0.1","192.8","21.9","89.5","59.3","0"],
    [34838,"2014-04-27T09:00:00","35","ND","ND","ND","ND","ND","0.5","82.4","23.2","83.3","243.1","0"],
    [34839,"2014-04-27T10:00:00","36","ND","ND","ND","ND","ND","0.5","97.8","24.3","75.8","257","0"],
    [34840,"2014-04-27T11:00:00","18","ND","ND","ND","ND","ND","1.3","133.4","25.5","69","424.3","0"],
    [34841,"2014-04-27T12:00:00","24","ND","ND","ND","ND","ND","0.6","39.8","26.4","65.6","383.4","0"],
    [34842,"2014-04-27T13:00:00","36","ND","ND","ND","ND","ND","0.8","79.2","27.5","62.5","641.7","0"],
    [34843,"2014-04-27T14:00:00","39","ND","ND","ND","ND","ND","0.8","17","28.5","60.2","747","0"],
    [34844,"2014-04-27T15:00:00","30","ND","ND","ND","ND","ND","1.5","48.1","28.6","59.5","456","0"],
    [34845,"2014-04-27T16:00:00","31","ND","ND","ND","ND","ND","1.6","25.4","29.1","57.8","410.9","0"],
    [34846,"2014-04-27T17:00:00","9","ND","ND","ND","ND","ND","1.8","352","29.1","55.2","265.4","0"],
    [34847,"2014-04-27T18:00:00","12","ND","ND","ND","ND","ND","1.2","280","28.4","54.3","55.5","0"],
    [34848,"2014-04-27T19:00:00","27","ND","ND","ND","ND","ND","0.9","55.6","27","60.4","0","0"],
    [34849,"2014-04-27T20:00:00","45","ND","ND","ND","ND","ND","0.3","298.5","26","64.4","0","0"],
    [34850,"2014-04-27T21:00:00","41","ND","ND","ND","ND","ND","1","240.8","25.5","66.3","0","0"],
    [34851,"2014-04-27T22:00:00","39","ND","ND","ND","ND","ND","0.7","109.2","25.5","66.3","0","0"],
    [34852,"2014-04-27T23:00:00","44","ND","ND","ND","ND","ND","1.2","161.8","24.8","71.3","0","0"],
    [34853,"2014-04-28T00:00:00","28","ND","ND","ND","ND","ND","0.7","193.7","24","77","0","0"],
    [34854,"2014-04-28T01:00:00","22","ND","ND","ND","ND","ND","0.7","188.6","23.6","79.3","0","0"],
    [34855,"2014-04-28T02:00:00","24","ND","ND","ND","ND","ND","0.4","343.5","22.9","83.7","0","0"],
    [34856,"2014-04-28T03:00:00","34","ND","ND","ND","ND","ND","0.5","29.5","22.5","84.3","0","0"],
    [34857,"2014-04-28T04:00:00","39","ND","ND","ND","ND","ND","0.2","272.9","21.8","87.6","0","0"],
    [34858,"2014-04-28T05:00:00","35","ND","ND","ND","ND","ND","0.3","342.8","21.5","88.8","0","0"],
    [34859,"2014-04-28T06:00:00","45","ND","ND","ND","ND","ND","0.2","347","21.1","88.6","0","0"],
    [34860,"2014-04-28T07:00:00","88","ND","ND","ND","ND","ND","0.2","93.9","21.4","86.9","26.5","0"],
    [34861,"2014-04-28T08:00:00","116","ND","ND","ND","ND","ND","0.7","39.2","22.6","83.1","178.3","0"],
    [34862,"2014-04-28T09:00:00","76","ND","ND","ND","ND","ND","1.2","42.5","24.2","76.7","354.3","0"],
    [34863,"2014-04-28T10:00:00","39","ND","ND","ND","ND","ND","1.3","43.2","25.7","70.6","643.2","0"],
    [34864,"2014-04-28T11:00:00","32","ND","ND","ND","ND","ND","1.2","41.9","27.6","62.1","792.2","0"],
    [34865,"2014-04-28T12:00:00","37","ND","ND","ND","ND","ND","1.1","88.8","29.5","53.8","860","0"],
    [34866,"2014-04-28T13:00:00","50","ND","ND","ND","ND","ND","0.5","47.2","30.7","50.2","778.9","0"],
    [34867,"2014-04-28T14:00:00","57","ND","ND","ND","ND","ND","0.9","35.8","31.3","49.6","759","0"],
    [34868,"2014-04-28T15:00:00","60","ND","ND","ND","ND","ND","1.3","336.1","31.2","51.2","327.7","0"],
    [34869,"2014-04-28T16:00:00","23","ND","ND","ND","ND","ND","3.1","267.6","31.5","47.9","551.6","0"],
    [34870,"2014-04-28T17:00:00","26","ND","ND","ND","ND","ND","2.8","276.3","30.2","49.6","124","0"],
    [34871,"2014-04-28T18:00:00","32","ND","ND","ND","ND","ND","1.5","288.2","29","53.3","12","0"],
    [34872,"2014-04-28T19:00:00","49","ND","ND","ND","ND","ND","4.6","190.5","25.4","69.8","0","3.81"],
    [34873,"2014-04-28T20:00:00","16","ND","ND","ND","ND","ND","1.9","217.8","22.4","86.1","0","9.14"],
    [34874,"2014-04-28T21:00:00","24","ND","ND","ND","ND","ND","1.3","124.9","22.7","85.1","0","4.32"],
    [34875,"2014-04-28T22:00:00","19","ND","ND","ND","ND","ND","0.8","171.7","21.9","91.4","0","3.81"],
    [34876,"2014-04-28T23:00:00","16","ND","ND","ND","ND","ND","1.4","155.8","21.9","90.7","0","0.25"],
    [34877,"2014-04-29T00:00:00","12","ND","ND","ND","ND","ND","1.4","174.4","21.4","92.1","0","0"],
    [34878,"2014-04-29T01:00:00","12","ND","ND","ND","ND","ND","0.7","173.2","21.6","92.2","0","0"],
    [34879,"2014-04-29T02:00:00","7","ND","ND","ND","ND","ND","1.4","159.2","21.5","89.9","0","0"],
    [34880,"2014-04-29T03:00:00","8","ND","ND","ND","ND","ND","1.6","192.9","21.1","91.3","0","0.25"],
    [34881,"2014-04-29T04:00:00","6","ND","ND","ND","ND","ND","0.2","116","21.3","89.7","0","0"],
    [34882,"2014-04-29T05:00:00","33","ND","ND","ND","ND","ND","1.2","20.5","20.6","94.1","0","0"],
    [34883,"2014-04-29T06:00:00","17","ND","ND","ND","ND","ND","0.8","47.3","20.4","95.8","0","0"],
    [34884,"2014-04-29T07:00:00","57","ND","ND","ND","ND","ND","0.5","38.9","20.4","95.6","5.2","0.76"],
    [34885,"2014-04-29T08:00:00","35","ND","ND","ND","ND","ND","1.4","44.7","20.8","95","79.8","0.25"],
    [34886,"2014-04-29T09:00:00","39","ND","ND","ND","ND","ND","1","356.8","21.9","89.7","180","0"],
    [34887,"2014-04-29T10:00:00","39","ND","ND","ND","ND","ND","0.6","146","23.7","77.1","362.8","0"],
    [34888,"2014-04-29T11:00:00","47","ND","ND","ND","ND","ND","1","149.1","25.6","67.9","675.6","0"],
    [34889,"2014-04-29T12:00:00","36","ND","ND","ND","ND","ND","1.9","131.6","26.7","61.7","635.4","0"],
    [34890,"2014-04-29T13:00:00","31","ND","ND","ND","ND","ND","0.6","109","27","62.9","657.6","0"],
    [34891,"2014-04-29T14:00:00","35","ND","ND","ND","ND","ND","1.2","29.1","27.6","61.9","494.8","0"],
    [34892,"2014-04-29T15:00:00","44","ND","ND","ND","ND","ND","1.4","40.9","28.4","60.4","603.5","0"],
    [34893,"2014-04-29T16:00:00","39","ND","ND","ND","ND","ND","0.9","59.9","28.8","58.5","454.3","0"],
    [34894,"2014-04-29T17:00:00","27","ND","ND","ND","ND","ND","0.8","252","29.4","54.5","284.4","0"],
    [34895,"2014-04-29T18:00:00","22","ND","ND","ND","ND","ND","1.3","248.8","28.3","55.5","49.6","0"],
    [34896,"2014-04-29T19:00:00","56","ND","ND","ND","ND","ND","0.5","150.3","27.1","58.2","0","0"],
    [34897,"2014-04-29T20:00:00","62","ND","ND","ND","ND","ND","0.3","243.2","26.2","62.6","0","0"],
    [34898,"2014-04-29T21:00:00","55","ND","ND","ND","ND","ND","1","94.3","25.4","69","0","0"],
    [34899,"2014-04-29T22:00:00","43","ND","ND","ND","ND","ND","0.5","67.4","23.8","76.9","0","0"],
    [34900,"2014-04-29T23:00:00","43","ND","ND","ND","ND","ND","0.4","228.1","23.5","79.2","0","0"],
    [34901,"2014-04-30T00:00:00","73","ND","ND","ND","ND","ND","0.6","34.7","23.1","81.5","0","0"],
    [34902,"2014-04-30T01:00:00","84","ND","ND","ND","ND","ND","0.5","234.4","22.6","83.8","0","0"],
    [34903,"2014-04-30T02:00:00","49","ND","ND","ND","ND","ND","0.7","162.8","23.1","81.9","0","0"],
    [34904,"2014-04-30T03:00:00","26","ND","ND","ND","ND","ND","0.6","187.1","23.1","83.7","0","0"],
    [34905,"2014-04-30T04:00:00","39","ND","ND","ND","ND","ND","0.3","340.5","22.6","84.9","0","0"],
    [34906,"2014-04-30T05:00:00","48","ND","ND","ND","ND","ND","0.1","5.6","22.2","86","0","0"],
    [34907,"2014-04-30T06:00:00","51","ND","ND","ND","ND","ND","0.6","244.3","21.9","88","0","0"],
    [34908,"2014-04-30T07:00:00","77","ND","ND","ND","ND","ND","0.1","195.6","22.5","85.5","54.7","0"],
    [34909,"2014-04-30T08:00:00","67","ND","ND","ND","ND","ND","1.3","143.6","24.2","75.3","221.7","0"],
    [34910,"2014-04-30T09:00:00","67","ND","ND","ND","ND","ND","1.4","162.6","25","73.8","331.3","0"],
    [34911,"2014-04-30T10:00:00","39","ND","ND","ND","ND","ND","0.5","203.9","26.5","64.9","450.9","0"],
    [34912,"2014-04-30T11:00:00","41","ND","ND","ND","ND","ND","0.7","101.9","27.8","59.9","659","0"],
    [34913,"2014-04-30T12:00:00","46","ND","ND","ND","ND","ND","1","127.9","28.7","56.8","357.3","0"],
    [34914,"2014-04-30T13:00:00","47","ND","ND","ND","ND","ND","0.2","264.6","28.3","59.1","123.8","0"],
    [34915,"2014-04-30T14:00:00","17","ND","ND","ND","ND","ND","1.7","296.9","27.6","58.7","243","0"],
    [34916,"2014-04-30T15:00:00","ND","ND","ND","ND","ND","ND","ND","ND","ND","ND","ND","ND"],
    [34917,"2014-04-30T16:00:00","14","ND","ND","ND","ND","ND","1.7","247","29","51.8","245.9","0"],
    [34918,"2014-04-30T17:00:00","26","ND","ND","ND","ND","ND","0.8","252.8","28.1","53.8","79.1","0"],
    [34919,"2014-04-30T18:00:00","37","ND","ND","ND","ND","ND","1.4","210","27.4","57.8","43.2","0"],
    [34920,"2014-04-30T19:00:00","51","ND","ND","ND","ND","ND","1.4","184.9","25.9","66.5","0","0"],
    [34921,"2014-04-30T20:00:00","87","ND","ND","ND","ND","ND","0.4","31","25.2","70","0","0"],
    [34922,"2014-04-30T21:00:00","100","ND","ND","ND","ND","ND","1","2.1","23.3","81","0","0"],
    [34923,"2014-04-30T22:00:00","158","ND","ND","ND","ND","ND","0.5","26.6","22.5","84.1","0","0"],
    [34924,"2014-04-30T23:00:00","92","ND","ND","ND","ND","ND","0.3","307.3","22.5","83.1","0","0"],
    [34925,"2014-05-01T00:00:00","102","ND","ND","ND","ND","ND","0.6","357.8","22.4","83.6","0","0"],
    [34926,"2014-05-01T01:00:00","157","ND","ND","ND","ND","ND","0.4","162.7","22.3","84.4","0","0"],
    [34927,"2014-05-01T02:00:00","90","ND","ND","ND","ND","ND","0.7","353.4","22.5","81.3","0","0"],
    [34928,"2014-05-01T03:00:00","97","ND","ND","ND","ND","ND","0.3","130.5","22.6","82.7","0","0"],
    [34929,"2014-05-01T04:00:00","115","ND","ND","ND","ND","ND","0.6","28.5","22.5","84.2","0","0"],
    [34930,"2014-05-01T05:00:00","101","ND","ND","ND","ND","ND","0.3","19.5","22.4","85.2","0","0"],
    [34931,"2014-05-01T06:00:00","54","ND","ND","ND","ND","ND","0.3","107.5","22.3","85.3","0","0"],
    [34932,"2014-05-01T07:00:00","58","ND","ND","ND","ND","ND","0.5","33.7","22.2","85.7","28.1","0"],
    [34933,"2014-05-01T08:00:00","64","ND","ND","ND","ND","ND","0.3","163.4","22.8","84.1","159","0"],
    [34934,"2014-05-01T09:00:00","36","ND","ND","ND","ND","ND","1.3","156","24.6","73.1","383.3","0"],
    [34935,"2014-05-01T10:00:00","34","ND","ND","ND","ND","ND","0.7","120.2","25.7","68.2","436.8","0"],
    [34936,"2014-05-01T11:00:00","28","ND","ND","ND","ND","ND","0.8","98","26.9","64.4","504.1","0"],
    [34937,"2014-05-01T12:00:00","26","ND","ND","ND","ND","ND","0.6","123","28","59.8","628","0"],
    [34938,"2014-05-01T13:00:00","37","ND","ND","ND","ND","ND","0.6","90.5","29","55.4","555.4","0"],
    [34939,"2014-05-01T14:00:00","35","ND","ND","ND","ND","ND","1.1","66.9","29.9","53.9","550.8","0"],
    [34940,"2014-05-01T15:00:00","48","ND","ND","ND","ND","ND","0.3","288.4","29.7","54.6","153.1","0"],
    [34941,"2014-05-01T16:00:00","22","ND","ND","ND","ND","ND","1.3","281.9","27","61.2","61.6","0"],
    [34942,"2014-05-01T17:00:00","17","ND","ND","ND","ND","ND","0","8.1","27.9","55.3","86.6","0"],
    [34943,"2014-05-01T18:00:00","23","ND","ND","ND","ND","ND","0.4","337.2","27.3","56.8","15.7","0"],
    [34944,"2014-05-01T19:00:00","20","ND","ND","ND","ND","ND","1.1","118.6","27","57.5","0","0"],
    [34945,"2014-05-01T20:00:00","38","ND","ND","ND","ND","ND","3","178.9","25.6","67.8","0","0.76"],
    [34946,"2014-05-01T21:00:00","20","ND","ND","ND","ND","ND","1.5","200.6","23","87.7","0","1.52"],
    [34947,"2014-05-01T22:00:00","31","ND","ND","ND","ND","ND","0.1","33.8","23.2","86.5","0","0"],
    [34948,"2014-05-01T23:00:00","27","ND","ND","ND","ND","ND","0.5","170.2","22.7","86.4","0","0"],
    [34949,"2014-05-02T00:00:00","25","ND","ND","ND","ND","ND","0.3","187.6","22.4","89.9","0","0.51"],
    [34950,"2014-05-02T01:00:00","8","ND","ND","ND","ND","ND","0.3","212.4","21.9","89.7","0","0"],
    [34951,"2014-05-02T02:00:00","39","ND","ND","ND","ND","ND","0.6","313.5","21.6","91.3","0","0"],
    [34952,"2014-05-02T03:00:00","39","ND","ND","ND","ND","ND","0.4","76.7","21.7","91.1","0","0"],
    [34953,"2014-05-02T04:00:00","35","ND","ND","ND","ND","ND","0.2","133.7","21.6","92.9","0","0"],
    [34954,"2014-05-02T05:00:00","37","ND","ND","ND","ND","ND","0.4","354.4","21.5","93","0","0"],
    [34955,"2014-05-02T06:00:00","48","ND","ND","ND","ND","ND","0","164.3","21.6","93.1","0","1.27"],
    [34956,"2014-05-02T07:00:00","56","ND","ND","ND","ND","ND","0.3","194.4","21.5","94.2","34.4","0.51"],
    [34957,"2014-05-02T08:00:00","62","ND","ND","ND","ND","ND","0.4","138.3","22.6","89.5","132.6","0"],
    [34958,"2014-05-02T09:00:00","61","ND","ND","ND","ND","ND","0.8","144.1","23.6","82.3","185","0"],
    [34959,"2014-05-02T10:00:00","37","ND","ND","ND","ND","ND","0.5","118.6","25.7","71.1","597","0"],
    [34960,"2014-05-02T11:00:00","48","ND","ND","ND","ND","ND","0.6","68.1","26.5","68.8","503.2","0"],
    [34961,"2014-05-02T12:00:00","53","ND","ND","ND","ND","ND","0.5","153.5","26.9","66.3","378.5","0"],
    [34962,"2014-05-02T13:00:00","52","ND","ND","ND","ND","ND","0.7","358.9","27.9","61.3","397.5","0"],
    [34963,"2014-05-02T14:00:00","26","ND","ND","ND","ND","ND","0.4","148.8","28.1","56.4","177.1","0"],
    [34964,"2014-05-02T15:00:00","18","ND","ND","ND","ND","ND","2.4","273.5","27.7","56.1","183.6","0"],
    [34965,"2014-05-02T16:00:00","63","ND","ND","ND","ND","ND","1.7","50.5","25.9","69.1","121","0.25"],
    [34966,"2014-05-02T17:00:00","38","ND","ND","ND","ND","ND","0.7","29.6","24.9","77.8","113.3","0"],
    [34967,"2014-05-02T18:00:00","43","ND","ND","ND","ND","ND","1.1","131.3","25.7","68","63.7","0"],
    [34968,"2014-05-02T19:00:00","57","ND","ND","ND","ND","ND","1.1","138.1","25.5","65.9","0","0"],
    [34969,"2014-05-02T20:00:00","51","ND","ND","ND","ND","ND","1","142.4","25","66.3","0","0"],
    [34970,"2014-05-02T21:00:00","46","ND","ND","ND","ND","ND","0.5","147.2","24.1","72.1","0","0"],
    [34971,"2014-05-02T22:00:00","66","ND","ND","ND","ND","ND","0.4","171.2","23.9","74.6","0","0"],
    [34972,"2014-05-02T23:00:00","61","ND","ND","ND","ND","ND","0.8","143.8","23.7","75","0","0"],
    [34973,"2014-05-03T00:00:00","22","ND","ND","ND","ND","ND","2.1","166.8","22.6","86","0","0"],
    [34974,"2014-05-03T01:00:00","18","ND","ND","ND","ND","ND","1.3","164.8","22.1","87.3","0","0"],
    [34975,"2014-05-03T02:00:00","17","ND","ND","ND","ND","ND","0.8","162.2","22.1","88.6","0","0"],
    [34976,"2014-05-03T03:00:00","24","ND","ND","ND","ND","ND","1.1","157.2","22","89.1","0","0"],
    [34977,"2014-05-03T04:00:00","26","ND","ND","ND","ND","ND","0.4","140.8","21.9","87.5","0","0"],
    [34978,"2014-05-03T05:00:00","16","ND","ND","ND","ND","ND","0.1","168","21.8","86.4","0","0"],
    [34979,"2014-05-03T06:00:00","46","ND","ND","ND","ND","ND","0.7","33.6","21.3","92","0","0"],
    [34980,"2014-05-03T07:00:00","51","ND","ND","ND","ND","ND","0.2","357","21.2","93.3","15","0"],
    [34981,"2014-05-03T08:00:00","93","ND","ND","ND","ND","ND","0.6","45.7","21.6","92","70.3","0"],
    [34982,"2014-05-03T09:00:00","79","ND","ND","ND","ND","ND","0.6","31.1","22.5","86.2","180.3","0"],
    [34983,"2014-05-03T10:00:00","74","ND","ND","ND","ND","ND","0.6","109","24.9","73.8","587.3","0"],
    [34984,"2014-05-03T11:00:00","56","ND","ND","ND","ND","ND","0.9","91.8","26.5","64.9","512.9","0"],
    [34985,"2014-05-03T12:00:00","49","ND","ND","ND","ND","ND","0.2","162.1","27.2","61.3","406.4","0"],
    [34986,"2014-05-03T13:00:00","41","ND","ND","ND","ND","ND","1.4","111.8","27.8","59.6","422.6","0"],
    [34987,"2014-05-03T14:00:00","42","ND","ND","ND","ND","ND","1.3","139.4","28.3","57.5","380.7","0"],
    [34988,"2014-05-03T15:00:00","40","ND","ND","ND","ND","ND","0.3","172","28.6","57.1","357.8","0"],
    [34989,"2014-05-03T16:00:00","48","ND","ND","ND","ND","ND","1.1","271.9","29","56.1","353.1","0"],
    [34990,"2014-05-03T17:00:00","30","ND","ND","ND","ND","ND","1.4","270.7","28.5","55.9","144.3","0"],
    [34991,"2014-05-03T18:00:00","25","ND","ND","ND","ND","ND","0.6","259.9","28","56.4","23.9","0"],
    [34992,"2014-05-03T19:00:00","25","ND","ND","ND","ND","ND","0.5","246.9","27","59.3","0","0"],
    [34993,"2014-05-03T20:00:00","49","ND","ND","ND","ND","ND","0.2","56.9","26.2","62.3","0","0"],
    [34994,"2014-05-03T21:00:00","71","ND","ND","ND","ND","ND","0.6","180.1","25.9","63.3","0","0"],
    [34995,"2014-05-03T22:00:00","54","ND","ND","ND","ND","ND","0.5","76.9","24.7","71.1","0","0"],
    [34996,"2014-05-03T23:00:00","42","ND","ND","ND","ND","ND","0.3","278.3","24","75.1","0","0"],
    [34997,"2014-05-04T00:00:00","42","ND","ND","ND","ND","ND","0.1","206.7","23.9","76.3","0","0"],
    [34998,"2014-05-04T01:00:00","35","ND","ND","ND","ND","ND","0.1","168.5","23.1","81","0","0"],
    [34999,"2014-05-04T02:00:00","44","ND","ND","ND","ND","ND","0.3","246.1","22.4","84.5","0","0"],
    [35000,"2014-05-04T03:00:00","34","ND","ND","ND","ND","ND","0.6","294.3","22.1","84.6","0","0"],
    [35001,"2014-05-04T04:00:00","27","ND","ND","ND","ND","ND","0.5","228.6","22.1","83.7","0","0"],
    [35002,"2014-05-04T05:00:00","48","ND","ND","ND","ND","ND","0.7","7.4","22.3","82.8","0","0"],
    [35003,"2014-05-04T06:00:00","52","ND","ND","ND","ND","ND","0.3","12.3","22","85.3","0","0"],
    [35004,"2014-05-04T07:00:00","53","ND","ND","ND","ND","ND","0.1","35.3","22","86.7","23.9","0"],
    [35005,"2014-05-04T08:00:00","54","ND","ND","ND","ND","ND","0.1","107","23.2","79.9","136.3","0"],
    [35006,"2014-05-04T09:00:00","56","ND","ND","ND","ND","ND","0.8","46.7","24.4","75.5","300.1","0"],
    [35007,"2014-05-04T10:00:00","38","ND","ND","ND","ND","ND","0.8","99.1","25.9","69","504.9","0"],
    [35008,"2014-05-04T11:00:00","38","ND","ND","ND","ND","ND","1.1","129.1","27","62.6","337.3","0"],
    [35009,"2014-05-04T12:00:00","38","ND","ND","ND","ND","ND","0.7","3.9","27.3","61.9","613.1","0"],
    [35010,"2014-05-04T13:00:00","45","ND","ND","ND","ND","ND","1.5","86.2","28.7","58","507.1","0"],
    [35011,"2014-05-04T14:00:00","38","ND","ND","ND","ND","ND","0.7","134.9","28.1","60","151.1","0"],
    [35012,"2014-05-04T15:00:00","31","ND","ND","ND","ND","ND","1.6","278.2","27.6","62.8","253.2","0"],
    [35013,"2014-05-04T16:00:00","11","ND","ND","ND","ND","ND","1.9","259.4","28.9","54.2","338.4","0"],
    [35014,"2014-05-04T17:00:00","20","ND","ND","ND","ND","ND","2","255.7","28.1","54.2","180.2","0"],
    [35015,"2014-05-04T18:00:00","12","ND","ND","ND","ND","ND","2.5","271.4","27.3","55.3","49.2","0"],
    [35016,"2014-05-04T19:00:00","20","ND","ND","ND","ND","ND","0.5","301.4","26.7","56.2","0","0"],
    [35017,"2014-05-04T20:00:00","25","ND","ND","ND","ND","ND","1.7","125.9","25.8","63.3","0","0"],
    [35018,"2014-05-04T21:00:00","24","ND","ND","ND","ND","ND","1.9","167.7","24","71","0","0"],
    [35019,"2014-05-04T22:00:00","29","ND","ND","ND","ND","ND","1.2","176","23.8","73.4","0","0"],
    [35020,"2014-05-04T23:00:00","27","ND","ND","ND","ND","ND","1","156.9","23","78.5","0","0"],
    [35021,"2014-05-05T00:00:00","27","ND","ND","ND","ND","ND","0.6","251.8","22.3","81","0","0"],
    [35022,"2014-05-05T01:00:00","23","ND","ND","ND","ND","ND","0.4","225.9","22.3","77.9","0","0"],
    [35023,"2014-05-05T02:00:00","39","ND","ND","ND","ND","ND","1","18","21","84.9","0","0"],
    [35024,"2014-05-05T03:00:00","43","ND","ND","ND","ND","ND","0.8","347.7","20.3","92.6","0","0"],
    [35025,"2014-05-05T04:00:00","110","ND","ND","ND","ND","ND","0.2","295.3","20.3","92.3","0","0"],
    [35026,"2014-05-05T05:00:00","60","ND","ND","ND","ND","ND","0.2","221.2","20.4","90.5","0","0"],
    [35027,"2014-05-05T06:00:00","68","ND","ND","ND","ND","ND","0.3","281.7","20.4","89.7","0","0"],
    [35028,"2014-05-05T07:00:00","85","ND","ND","ND","ND","ND","0.1","273.5","20.9","88.2","44.9","0"],
    [35029,"2014-05-05T08:00:00","106","ND","ND","ND","ND","ND","0.2","155","22.3","82.3","175.6","0"],
    [35030,"2014-05-05T09:00:00","101","ND","ND","ND","ND","ND","0.8","69.4","24","75.4","395.3","0"],
    [35031,"2014-05-05T10:00:00","58","ND","ND","ND","ND","ND","0.9","80.5","25.1","71.9","363.2","0"],
    [35032,"2014-05-05T11:00:00","69","ND","ND","ND","ND","ND","0.3","358.5","26","68.2","376.8","0"],
    [35033,"2014-05-05T12:00:00","62","ND","ND","ND","ND","ND","1.6","71.5","27.9","60.6","794.1","0"],
    [35034,"2014-05-05T13:00:00","38","ND","ND","ND","ND","ND","1.2","62.1","29.1","55.7","785.1","0"],
    [35035,"2014-05-05T14:00:00","45","ND","ND","ND","ND","ND","0.9","63.9","30.3","52.2","665.4","0"],
    [35036,"2014-05-05T15:00:00","41","ND","ND","ND","ND","ND","1.4","304.4","30.7","50.5","499.5","0"],
    [35037,"2014-05-05T16:00:00","19","ND","ND","ND","ND","ND","2.5","262.8","30.5","48.6","410.9","0"],
    [35038,"2014-05-05T17:00:00","20","ND","ND","ND","ND","ND","1.5","281.4","29.8","49.3","182.4","0"],
    [35039,"2014-05-05T18:00:00","27","ND","ND","ND","ND","ND","1.1","250.2","28.8","51.2","38","0"],
    [35040,"2014-05-05T19:00:00","27","ND","ND","ND","ND","ND","1.1","268","28","52.2","0","0"],
    [35041,"2014-05-05T20:00:00","33","ND","ND","ND","ND","ND","0.5","111.3","27.8","52.6","0","0"],
    [35042,"2014-05-05T21:00:00","30","ND","ND","ND","ND","ND","1.8","175.3","26.8","58.6","0","0"],
    [35043,"2014-05-05T22:00:00","24","ND","ND","ND","ND","ND","0.6","112.8","25","66.9","0","0"],
    [35044,"2014-05-05T23:00:00","58","ND","ND","ND","ND","ND","1","7.6","23.7","72.5","0","0"],
    [35045,"2014-05-06T00:00:00","97","ND","ND","ND","ND","ND","0.4","167.3","23.8","71.3","0","0"],
    [35046,"2014-05-06T01:00:00","43","ND","ND","ND","ND","ND","0.6","128.8","24","70.8","0","0"],
    [35047,"2014-05-06T02:00:00","46","ND","ND","ND","ND","ND","0.7","41.6","23.1","75.7","0","0"],
    [35048,"2014-05-06T03:00:00","41","ND","ND","ND","ND","ND","0.4","21.1","21.9","82.6","0","0"],
    [35049,"2014-05-06T04:00:00","59","ND","ND","ND","ND","ND","0.4","276.8","22","81.2","0","0"],
    [35050,"2014-05-06T05:00:00","56","ND","ND","ND","ND","ND","0.2","130.6","22.5","78.7","0","0"],
    [35051,"2014-05-06T06:00:00","44","ND","ND","ND","ND","ND","0.1","216.1","22.4","80.1","0","0"],
    [35052,"2014-05-06T07:00:00","108","ND","ND","ND","ND","ND","0.5","34.9","22.3","81.7","12.2","0"],
    [35053,"2014-05-06T08:00:00","134","ND","ND","ND","ND","ND","0.5","8.2","22.6","81.3","57.5","0"],
    [35054,"2014-05-06T09:00:00","135","ND","ND","ND","ND","ND","0.2","64.1","23.5","77.4","115.3","0"],
    [35055,"2014-05-06T10:00:00","118","ND","ND","ND","ND","ND","0.9","119.1","24.9","72.5","304.6","0"],
    [35056,"2014-05-06T11:00:00","114","ND","ND","ND","ND","ND","0.4","117.5","26.8","64.4","512.1","0"],
    [35057,"2014-05-06T12:00:00","83","ND","ND","ND","ND","ND","0.8","86.2","28.3","58","507.7","0"],
    [35058,"2014-05-06T13:00:00","48","ND","ND","ND","ND","ND","0.7","195.1","27.8","61.3","101.4","0.51"],
    [35059,"2014-05-06T14:00:00","31","ND","ND","ND","ND","ND","1.6","248.1","24.3","82.8","135.5","5.33"],
    [35060,"2014-05-06T15:00:00","38","ND","ND","ND","ND","ND","1","12.5","25.4","78.7","278","0.25"],
    [35061,"2014-05-06T16:00:00","59","ND","ND","ND","ND","ND","1.7","20.3","26.7","70.3","321.3","0"],
    [35062,"2014-05-06T17:00:00","31","ND","ND","ND","ND","ND","0.8","81.5","26.3","72.1","98.6","0"],
    [35063,"2014-05-06T18:00:00","34","ND","ND","ND","ND","ND","0.9","50.8","24.9","77.6","14.3","0"],
    [35064,"2014-05-06T19:00:00","43","ND","ND","ND","ND","ND","1","222","24.2","82.6","0","0"],
    [35065,"2014-05-06T20:00:00","49","ND","ND","ND","ND","ND","1","179","24.3","80.9","0","0"],
    [35066,"2014-05-06T21:00:00","64","ND","ND","ND","ND","ND","0.5","164.7","24","79.9","0","0"],
    [35067,"2014-05-06T22:00:00","75","ND","ND","ND","ND","ND","0.8","13","23.2","84.4","0","0"],
    [35068,"2014-05-06T23:00:00","56","ND","ND","ND","ND","ND","0.5","318.2","22.2","88.7","0","0"],
    [35069,"2014-05-07T00:00:00","65","ND","ND","ND","ND","ND","0.6","26.8","22.2","88.9","0","0"],
    [35070,"2014-05-07T01:00:00","45","ND","ND","ND","ND","ND","0.6","4.3","21.9","89.4","0","0"],
    [35071,"2014-05-07T02:00:00","57","ND","ND","ND","ND","ND","0.2","259.7","21.9","89.9","0","0"],
    [35072,"2014-05-07T03:00:00","64","ND","ND","ND","ND","ND","0.2","285.4","21.6","91.7","0","0"],
    [35073,"2014-05-07T04:00:00","69","ND","ND","ND","ND","ND","0.4","227.4","21.9","90.4","0","0"],
    [35074,"2014-05-07T05:00:00","61","ND","ND","ND","ND","ND","0.3","269.4","22.1","89.4","0","0"],
    [35075,"2014-05-07T06:00:00","86","ND","ND","ND","ND","ND","0.3","16.3","22","89.9","0","0"],
    [35076,"2014-05-07T07:00:00","76","ND","ND","ND","ND","ND","0.7","57","21.6","92.8","0","10.92"],
    [35077,"2014-05-07T08:00:00","24","ND","ND","ND","ND","ND","0.4","73.6","20.9","97.2","0","14.22"],
    [35078,"2014-05-07T09:00:00","13","ND","ND","ND","ND","ND","0.7","86","20.8","97.6","15.6","5.33"],
    [35079,"2014-05-07T10:00:00","27","ND","ND","ND","ND","ND","0.8","152.6","20.9","97.3","121.7","1.02"],
    [35080,"2014-05-07T11:00:00","26","ND","ND","ND","ND","ND","0.4","114.4","22.4","89.2","419.6","0"],
    [35081,"2014-05-07T12:00:00","30","ND","ND","ND","ND","ND","1.3","156.7","25.1","73.1","842.3","0"],
    [35082,"2014-05-07T13:00:00","36","ND","ND","ND","ND","ND","2.1","160.7","26.4","65.3","708.5","0"],
    [35083,"2014-05-07T14:00:00","32","ND","ND","ND","ND","ND","1.7","182.8","27.5","60","831.6","0"],
    [35084,"2014-05-07T15:00:00","42","ND","ND","ND","ND","ND","1.4","214.5","28.5","57.1","655.9","0"],
    [35085,"2014-05-07T16:00:00","44","ND","ND","ND","ND","ND","1.1","174","28.5","57.8","283.7","0"],
    [35086,"2014-05-07T17:00:00","35","ND","ND","ND","ND","ND","1.8","123.8","26.8","68.3","136.1","6.1"],
    [35087,"2014-05-07T18:00:00","16","ND","ND","ND","ND","ND","0.8","160.9","23.7","83.2","92.4","2.29"],
    [35088,"2014-05-07T19:00:00","31","ND","ND","ND","ND","ND","0.4","198.6","23.5","87.8","0","0"],
    [35089,"2014-05-07T20:00:00","50","ND","ND","ND","ND","ND","0.1","159.2","23.8","89.8","0","0"],
    [35090,"2014-05-07T21:00:00","90","ND","ND","ND","ND","ND","0.1","319.7","23.6","88.6","0","0"],
    [35091,"2014-05-07T22:00:00","65","ND","ND","ND","ND","ND","0.2","102.6","23.6","86.7","0","0"],
    [35092,"2014-05-07T23:00:00","54","ND","ND","ND","ND","ND","0.1","76.3","23.2","82.6","0","0"],
    [35093,"2014-05-08T00:00:00","37","ND","ND","ND","ND","ND","0.4","212.7","22.7","88.6","0","0.25"],
    [35094,"2014-05-08T01:00:00","34","ND","ND","ND","ND","ND","0.6","222.3","22.1","90.5","0","0"],
    [35095,"2014-05-08T02:00:00","39","ND","ND","ND","ND","ND","0.3","230.8","21.7","91","0","0"],
    [35096,"2014-05-08T03:00:00","28","ND","ND","ND","ND","ND","0.2","202.1","21.7","89.9","0","0"],
    [35097,"2014-05-08T04:00:00","28","ND","ND","ND","ND","ND","0.1","273.6","21.9","89.3","0","0"],
    [35098,"2014-05-08T05:00:00","28","ND","ND","ND","ND","ND","0","34.5","21.9","88.7","0","0"],
    [35099,"2014-05-08T06:00:00","52","ND","ND","ND","ND","ND","0.2","322.5","22","87.1","0","0"],
    [35100,"2014-05-08T07:00:00","86","ND","ND","ND","ND","ND","0.2","103.6","22.3","87.5","20","0"],
    [35101,"2014-05-08T08:00:00","92","ND","ND","ND","ND","ND","0.5","2.1","22.7","86.9","62.3","0"],
    [35102,"2014-05-08T09:00:00","71","ND","ND","ND","ND","ND","0.9","61.6","22.7","89.3","59.4","0"],
    [35103,"2014-05-08T10:00:00","52","ND","ND","ND","ND","ND","1.5","40.7","22.7","89.8","127.5","0"],
    [35104,"2014-05-08T11:00:00","55","ND","ND","ND","ND","ND","1.2","20.4","23.6","83.7","298.6","0"],
    [35105,"2014-05-08T12:00:00","45","ND","ND","ND","ND","ND","1","49.8","24.7","78.4","446.8","0"],
    [35106,"2014-05-08T13:00:00","34","ND","ND","ND","ND","ND","1.3","25.1","27.6","61.4","852.7","0"],
    [35107,"2014-05-08T14:00:00","23","ND","ND","ND","ND","ND","0.8","46.1","28.4","55.2","664","0"],
    [35108,"2014-05-08T15:00:00","13","ND","ND","ND","ND","ND","0.9","254.6","29.1","50.3","428.2","0"],
    [35109,"2014-05-08T16:00:00","19","ND","ND","ND","ND","ND","3.6","259.9","28.1","53.2","339.7","0"],
    [35110,"2014-05-08T17:00:00","19","ND","ND","ND","ND","ND","3.5","263.1","26.8","54.7","141.5","0"],
    [35111,"2014-05-08T18:00:00","27","ND","ND","ND","ND","ND","2.7","101.6","25","71.2","44.5","0"],
    [35112,"2014-05-08T19:00:00","35","ND","ND","ND","ND","ND","1.6","107.5","23.3","81.8","0","0"],
    [35113,"2014-05-08T20:00:00","35","ND","ND","ND","ND","ND","1.5","124.1","22.8","82.6","0","0"],
    [35114,"2014-05-08T21:00:00","33","ND","ND","ND","ND","ND","1.1","229.1","22.3","83.5","0","0"],
    [35115,"2014-05-08T22:00:00","22","ND","ND","ND","ND","ND","1","239.2","22.5","81.7","0","0"],
    [35116,"2014-05-08T23:00:00","22","ND","ND","ND","ND","ND","1","195.7","22.8","79.4","0","0"],
    [35117,"2014-05-09T00:00:00","7","ND","ND","ND","ND","ND","1.9","176","21.8","85.8","0","0"],
    [35118,"2014-05-09T01:00:00","6","ND","ND","ND","ND","ND","1.7","169.9","20.8","91.6","0","9.91"],
    [35119,"2014-05-09T02:00:00","3","ND","ND","ND","ND","ND","1.5","166.6","20","96.7","0","10.67"],
    [35120,"2014-05-09T03:00:00","7","ND","ND","ND","ND","ND","1","134.6","19.7","97.2","0","10.16"],
    [35121,"2014-05-09T04:00:00","9","ND","ND","ND","ND","ND","0.3","130.8","19.7","97.9","0","7.87"],
    [35122,"2014-05-09T05:00:00","5","ND","ND","ND","ND","ND","0.5","87.4","19.5","98.2","0","5.08"],
    [35123,"2014-05-09T06:00:00","3","ND","ND","ND","ND","ND","0","61.5","19.5","98.4","0","1.27"],
    [35124,"2014-05-09T07:00:00","11","ND","ND","ND","ND","ND","0.3","209.4","19.8","98.5","12.2","0.51"],
    [35125,"2014-05-09T08:00:00","23","ND","ND","ND","ND","ND","0.3","241.4","20.3","97.7","42.6","0.25"],
    [35126,"2014-05-09T09:00:00","16","ND","ND","ND","ND","ND","0.7","156.8","21.7","87.3","144.3","0"],
    [35127,"2014-05-09T10:00:00","32","ND","ND","ND","ND","ND","0.9","83.6","22.7","85.5","281.7","0"],
    [35128,"2014-05-09T11:00:00","47","ND","ND","ND","ND","ND","1","90.7","23.7","79.6","440.1","0.25"],
    [35129,"2014-05-09T12:00:00","37","ND","ND","ND","ND","ND","0.8","49.3","25.3","69.9","644.6","0"],
    [35130,"2014-05-09T13:00:00","38","ND","ND","ND","ND","ND","0.7","348.8","26.7","64.8","705.4","0"],
    [35131,"2014-05-09T14:00:00","48","ND","ND","ND","ND","ND","1.2","15","26.9","62.6","355","0"],
    [35132,"2014-05-09T15:00:00","26","ND","ND","ND","ND","ND","1.8","325.1","28.1","54.5","443","0"],
    [35133,"2014-05-09T16:00:00","12","ND","ND","ND","ND","ND","2.1","254.5","27.9","54.3","351.4","0"],
    [35134,"2014-05-09T17:00:00","30","ND","ND","ND","ND","ND","4.7","282.2","26.1","59.1","92.5","0"],
    [35135,"2014-05-09T18:00:00","17","ND","ND","ND","ND","ND","1.9","273.1","25.6","59.5","21.8","0"],
    [35136,"2014-05-09T19:00:00","22","ND","ND","ND","ND","ND","1","260.4","25.1","60.8","0","0.25"],
    [35137,"2014-05-09T20:00:00","17","ND","ND","ND","ND","ND","2.9","182.8","21.6","87.9","0","6.86"],
    [35138,"2014-05-09T21:00:00","11","ND","ND","ND","ND","ND","1.6","226.8","19.7","96.4","0","53.34"],
    [35139,"2014-05-09T22:00:00","22","ND","ND","ND","ND","ND","1.6","176.4","20","97.8","0","5.84"],
    [35140,"2014-05-09T23:00:00","20","ND","ND","ND","ND","ND","0.4","8.8","20.4","96.6","0","0.25"],
    [35141,"2014-05-10T00:00:00","26","ND","ND","ND","ND","ND","0.2","282.8","20.6","95.9","0","0"],
    [35142,"2014-05-10T01:00:00","27","ND","ND","ND","ND","ND","0.3","201.6","20.6","95.7","0","0"],
    [35143,"2014-05-10T02:00:00","20","ND","ND","ND","ND","ND","1","163.2","20.8","95.4","0","0"],
    [35144,"2014-05-10T03:00:00","17","ND","ND","ND","ND","ND","1.2","156.7","20.7","94.6","0","0.25"],
    [35145,"2014-05-10T04:00:00","19","ND","ND","ND","ND","ND","0.2","158.1","20.7","94.5","0","0"],
    [35146,"2014-05-10T05:00:00","47","ND","ND","ND","ND","ND","0.5","48.1","20.6","95.3","0","0"],
    [35147,"2014-05-10T06:00:00","42","ND","ND","ND","ND","ND","0.6","40.9","20.5","96","0","0.25"],
    [35148,"2014-05-10T07:00:00","40","ND","ND","ND","ND","ND","0.4","15.5","20.3","96.9","5.7","0.25"],
    [35149,"2014-05-10T08:00:00","44","ND","ND","ND","ND","ND","0.2","19","20.7","95.9","81.5","0"],
    [35150,"2014-05-10T09:00:00","72","ND","ND","ND","ND","ND","0.6","68","21.9","90.6","215.8","0"],
    [35151,"2014-05-10T10:00:00","69","ND","ND","ND","ND","ND","0.6","21","22.7","84.4","228.7","0"],
    [35152,"2014-05-10T11:00:00","71","ND","ND","ND","ND","ND","0.3","177.2","23.7","78.2","235.3","0"],
    [35153,"2014-05-10T12:00:00","69","ND","ND","ND","ND","ND","0.2","251.8","25","71","408.8","0"],
    [35154,"2014-05-10T13:00:00","71","ND","ND","ND","ND","ND","0.4","267.5","26.1","66.7","477.6","0"],
    [35155,"2014-05-10T14:00:00","79","ND","ND","ND","ND","ND","0.3","318.6","26.9","64.5","295.6","0"],
    [35156,"2014-05-10T15:00:00","57","ND","ND","ND","ND","ND","1.5","343.2","26.4","66.5","277.5","0"],
    [35157,"2014-05-10T16:00:00","49","ND","ND","ND","ND","ND","0.5","66.8","27.2","62.7","385.9","0"],
    [35158,"2014-05-10T17:00:00","15","ND","ND","ND","ND","ND","3.6","258.3","26.4","59","84.6","0"],
    [35159,"2014-05-10T18:00:00","14","ND","ND","ND","ND","ND","3.3","269","25.8","59","39.1","0"],
    [35160,"2014-05-10T19:00:00","15","ND","ND","ND","ND","ND","0.7","298.1","25.4","59.4","0","0"],
    [35161,"2014-05-10T20:00:00","21","ND","ND","ND","ND","ND","0.5","115.2","24.9","62.1","0","0"],
    [35162,"2014-05-10T21:00:00","46","ND","ND","ND","ND","ND","1","184.9","24.4","65.9","0","0"],
    [35163,"2014-05-10T22:00:00","20","ND","ND","ND","ND","ND","1","237.9","24.3","64.3","0","0"],
    [35164,"2014-05-10T23:00:00","35","ND","ND","ND","ND","ND","0.6","93.3","24.1","68.3","0","0"],
    [35165,"2014-05-11T00:00:00","47","ND","ND","ND","ND","ND","0.2","91","23.2","77.3","0","0"],
    [35166,"2014-05-11T01:00:00","27","ND","ND","ND","ND","ND","0.7","179.2","22.1","84.5","0","0"],
    [35167,"2014-05-11T02:00:00","15","ND","ND","ND","ND","ND","0.7","176.4","21.7","86.9","0","0"],
    [35168,"2014-05-11T03:00:00","26","ND","ND","ND","ND","ND","0.4","182.4","21.5","88.9","0","0"],
    [35169,"2014-05-11T04:00:00","21","ND","ND","ND","ND","ND","0.9","145.5","21.2","90.9","0","0"],
    [35170,"2014-05-11T05:00:00","10","ND","ND","ND","ND","ND","1.4","152.5","20.8","90.9","0","0"],
    [35171,"2014-05-11T06:00:00","9","ND","ND","ND","ND","ND","2","183.5","20.6","90.5","0","0"],
    [35172,"2014-05-11T07:00:00","33","ND","ND","ND","ND","ND","2","178.9","19.8","95.5","13.3","18.54"],
    [35173,"2014-05-11T08:00:00","11","ND","ND","ND","ND","ND","0.5","194.5","20.2","97.2","74.4","0.25"],
    [35174,"2014-05-11T09:00:00","11","ND","ND","ND","ND","ND","0.5","74.5","21.2","93.3","160.6","0.25"],
    [35175,"2014-05-11T10:00:00","17","ND","ND","ND","ND","ND","0.7","138.9","22.5","83.9","289.7","0"],
    [35176,"2014-05-11T11:00:00","24","ND","ND","ND","ND","ND","1.5","140.1","24.7","71.4","732.5","0"],
    [35177,"2014-05-11T12:00:00","17","ND","ND","ND","ND","ND","1.5","137.6","26.3","63.7","763.6","0"],
    [35178,"2014-05-11T13:00:00","19","ND","ND","ND","ND","ND","1.2","111.1","27.5","57.2","677.4","0"],
    [35179,"2014-05-11T14:00:00","22","ND","ND","ND","ND","ND","0.5","262.9","27.8","55.4","360","0"],
    [35180,"2014-05-11T15:00:00","19","ND","ND","ND","ND","ND","0.7","16.5","28.4","54","533.7","0"],
    [35181,"2014-05-11T16:00:00","19","ND","ND","ND","ND","ND","1.3","19.4","26","68","196.4","8.13"],
    [35182,"2014-05-11T17:00:00","8","ND","ND","ND","ND","ND","0.1","348.1","27.7","62","275.9","0"],
    [35183,"2014-05-11T18:00:00","17","ND","ND","ND","ND","ND","0.8","237.8","27.3","57.1","77.9","0"],
    [35184,"2014-05-11T19:00:00","40","ND","ND","ND","ND","ND","0.3","287.9","25","70.8","0","0"],
    [35185,"2014-05-11T20:00:00","49","ND","ND","ND","ND","ND","0.4","257.2","23.6","77.7","0","0"],
    [35186,"2014-05-11T21:00:00","51","ND","ND","ND","ND","ND","0.2","267","23.1","77.9","0","0"],
    [35187,"2014-05-11T22:00:00","65","ND","ND","ND","ND","ND","0.6","216.4","22.6","79.8","0","0"],
    [35188,"2014-05-11T23:00:00","49","ND","ND","ND","ND","ND","0.3","231.9","21.9","81.9","0","0"],
    [35189,"2014-05-12T00:00:00","40","ND","ND","ND","ND","ND","0.1","279.1","21.1","86.3","0","0"],
    [35190,"2014-05-12T01:00:00","29","ND","ND","ND","ND","ND","0.3","277.6","20.7","87.6","0","0"],
    [35191,"2014-05-12T02:00:00","29","ND","ND","ND","ND","ND","0.3","297.1","20.5","88.5","0","0"],
    [35192,"2014-05-12T03:00:00","38","ND","ND","ND","ND","ND","0.4","249.9","20.2","89.4","0","0"],
    [35193,"2014-05-12T04:00:00","30","ND","ND","ND","ND","ND","0.7","252.1","20.2","90.2","0","0"],
    [35194,"2014-05-12T05:00:00","31","ND","ND","ND","ND","ND","0.3","239","20.4","88.7","0","0"],
    [35195,"2014-05-12T06:00:00","34","ND","ND","ND","ND","ND","0.3","233.5","20.4","86.9","0","0"],
    [35196,"2014-05-12T07:00:00","59","ND","ND","ND","ND","ND","0.2","229.9","20.9","86.3","29.3","0"],
    [35197,"2014-05-12T08:00:00","56","ND","ND","ND","ND","ND","0.2","238.6","22.4","79.8","126.7","0"],
    [35198,"2014-05-12T09:00:00","49","ND","ND","ND","ND","ND","1.5","147.9","24.2","70.9","439.2","0"],
    [35199,"2014-05-12T10:00:00","37","ND","ND","ND","ND","ND","1.9","151.7","25.7","66.5","659.9","0"],
    [35200,"2014-05-12T11:00:00","39","ND","ND","ND","ND","ND","1.3","160.8","27.2","59.8","718.8","0"],
    [35201,"2014-05-12T12:00:00","37","ND","ND","ND","ND","ND","1.2","88.3","28.5","54.5","848","0"],
    [35202,"2014-05-12T13:00:00","39","ND","ND","ND","ND","ND","1.1","53.2","29.4","52.2","774.2","0"],
    [35203,"2014-05-12T14:00:00","45","ND","ND","ND","ND","ND","1.1","55.5","30.1","51.9","621.9","0"],
    [35204,"2014-05-12T15:00:00","56","ND","ND","ND","ND","ND","0.9","350.5","30","52.5","326","0"],
    [35205,"2014-05-12T16:00:00","56","ND","ND","ND","ND","ND","1.7","337.6","28.9","55","292.6","0"],
    [35206,"2014-05-12T17:00:00","27","ND","ND","ND","ND","ND","0.9","279.9","29.7","51.1","200.5","0"],
    [35207,"2014-05-12T18:00:00","29","ND","ND","ND","ND","ND","1","240","28.5","52.9","45.1","0"],
    [35208,"2014-05-12T19:00:00","46","ND","ND","ND","ND","ND","1","265.1","27.5","55","0","0"],
    [35209,"2014-05-12T20:00:00","59","ND","ND","ND","ND","ND","0.5","136.1","27","57.3","0","0"],
    [35210,"2014-05-12T21:00:00","69","ND","ND","ND","ND","ND","0.1","322.1","25.9","63.7","0","0"],
    [35211,"2014-05-12T22:00:00","55","ND","ND","ND","ND","ND","0.8","257.9","24.7","68.8","0","0"],
    [35212,"2014-05-12T23:00:00","82","ND","ND","ND","ND","ND","0.3","75.4","24.1","73","0","0"],
    [35213,"2014-05-13T00:00:00","74","ND","ND","ND","ND","ND","0.1","339.3","23.7","76.3","0","0"],
    [35214,"2014-05-13T01:00:00","61","ND","ND","ND","ND","ND","0.3","284.5","23","79.7","0","0"],
    [35215,"2014-05-13T02:00:00","61","ND","ND","ND","ND","ND","0.2","30.3","22.8","79.6","0","0"],
    [35216,"2014-05-13T03:00:00","53","ND","ND","ND","ND","ND","0","214.6","22.2","82.2","0","0"],
    [35217,"2014-05-13T04:00:00","57","ND","ND","ND","ND","ND","0.3","347.4","21.7","84.5","0","0"],
    [35218,"2014-05-13T05:00:00","81","ND","ND","ND","ND","ND","0.2","64.5","21.7","83.9","0","0"],
    [35219,"2014-05-13T06:00:00","71","ND","ND","ND","ND","ND","0","355.5","21.3","86.3","0","0"],
    [35220,"2014-05-13T07:00:00","140","ND","ND","ND","ND","ND","0.4","33","21.2","87.2","35","0"],
    [35221,"2014-05-13T08:00:00","140","ND","ND","ND","ND","ND","0.3","67.4","23.3","78.3","232.9","0"],
    [35222,"2014-05-13T09:00:00","73","ND","ND","ND","ND","ND","0.8","87.8","25.2","69.7","423","0"],
    [35223,"2014-05-13T10:00:00","82","ND","ND","ND","ND","ND","1","49.7","26.5","64.8","600.5","0"],
    [35224,"2014-05-13T11:00:00","53","ND","ND","ND","ND","ND","0.9","95.1","27.9","60","756.3","0"],
    [35225,"2014-05-13T12:00:00","45","ND","ND","ND","ND","ND","0.8","84.4","28.8","57.3","760.5","0"],
    [35226,"2014-05-13T13:00:00","49","ND","ND","ND","ND","ND","1.2","35.7","29.9","54.6","790.3","0"],
    [35227,"2014-05-13T14:00:00","63","ND","ND","ND","ND","ND","1.4","22","30.7","53.2","741.2","0"],
    [35228,"2014-05-13T15:00:00","58","ND","ND","ND","ND","ND","1.3","59.6","31.2","52.2","592.3","0"],
    [35229,"2014-05-13T16:00:00","44","ND","ND","ND","ND","ND","1","332.7","32","49.2","472.4","0"],
    [35230,"2014-05-13T17:00:00","28","ND","ND","ND","ND","ND","2.8","270.1","31.1","48","258","0"],
    [35231,"2014-05-13T18:00:00","30","ND","ND","ND","ND","ND","2.4","271.6","29.7","51.4","53.5","0"],
    [35232,"2014-05-13T19:00:00","31","ND","ND","ND","ND","ND","1.4","240.8","28.9","54.7","0","0"],
    [35233,"2014-05-13T20:00:00","60","ND","ND","ND","ND","ND","0.8","117.4","28.4","56.6","0","0"],
    [35234,"2014-05-13T21:00:00","47","ND","ND","ND","ND","ND","2.3","158.8","27.3","61.1","0","0"],
    [35235,"2014-05-13T22:00:00","77","ND","ND","ND","ND","ND","0.9","82.5","26.4","65.4","0","0"],
    [35236,"2014-05-13T23:00:00","39","ND","ND","ND","ND","ND","0.8","172.8","26.3","66.4","0","0"],
    [35237,"2014-05-14T00:00:00","28","ND","ND","ND","ND","ND","0.4","260.2","25.1","74.4","0","0"],
    [35238,"2014-05-14T01:00:00","57","ND","ND","ND","ND","ND","0.3","155.5","24.7","75.3","0","0"],
    [35239,"2014-05-14T02:00:00","41","ND","ND","ND","ND","ND","1.1","228.7","24.1","79.8","0","0"],
    [35240,"2014-05-14T03:00:00","39","ND","ND","ND","ND","ND","0.4","93.6","23.8","80.6","0","0"],
    [35241,"2014-05-14T04:00:00","59","ND","ND","ND","ND","ND","0.4","256.2","23.8","80","0","0"],
    [35242,"2014-05-14T05:00:00","46","ND","ND","ND","ND","ND","0.4","237.5","23.5","82.7","0","0"],
    [35243,"2014-05-14T06:00:00","63","ND","ND","ND","ND","ND","0.4","0.3","23.4","82.3","0","0"],
    [35244,"2014-05-14T07:00:00","119","ND","ND","ND","ND","ND","0.4","354.6","23.3","83.6","10.4","0"],
    [35245,"2014-05-14T08:00:00","92","ND","ND","ND","ND","ND","1","40.9","23.5","83.9","101.4","0"],
    [35246,"2014-05-14T09:00:00","51","ND","ND","ND","ND","ND","0.4","89.8","24.7","77.3","275","0"],
    [35247,"2014-05-14T10:00:00","53","ND","ND","ND","ND","ND","1.4","164.9","25.4","72.3","166.4","0"],
    [35248,"2014-05-14T11:00:00","45","ND","ND","ND","ND","ND","0.9","139.1","26","69.3","248.2","0"],
    [35249,"2014-05-14T12:00:00","48","ND","ND","ND","ND","ND","1.2","98.1","26.4","71.7","343.3","0"],
    [35250,"2014-05-14T13:00:00","72","ND","ND","ND","ND","ND","0.9","139.9","27.3","68.3","374.5","0"],
    [35251,"2014-05-14T14:00:00","56","ND","ND","ND","ND","ND","1.4","39.3","27.4","67.9","195.6","0"],
    [35252,"2014-05-14T15:00:00","38","ND","ND","ND","ND","ND","0.9","211.6","27.2","62.2","80.8","0"],
    [35253,"2014-05-14T16:00:00","28","ND","ND","ND","ND","ND","0.7","105.9","27.7","58.7","243.6","0"],
    [35254,"2014-05-14T17:00:00","33","ND","ND","ND","ND","ND","0.3","220.3","27.8","56.9","110.2","0"],
    [35255,"2014-05-14T18:00:00","35","ND","ND","ND","ND","ND","0.5","350.1","27","57.8","38.4","0"],
    [35256,"2014-05-14T19:00:00","26","ND","ND","ND","ND","ND","1.7","240","26.1","60.1","0","0"],
    [35257,"2014-05-14T20:00:00","22","ND","ND","ND","ND","ND","1.3","252.3","25.5","61.5","0","0"],
    [35258,"2014-05-14T21:00:00","50","ND","ND","ND","ND","ND","0.6","88.9","25.2","65.3","0","0"],
    [35259,"2014-05-14T22:00:00","79","ND","ND","ND","ND","ND","0.2","123.1","24","75.2","0","0"],
    [35260,"2014-05-14T23:00:00","41","ND","ND","ND","ND","ND","0.6","235.7","23.3","75.1","0","0"],
    [35261,"2014-05-15T00:00:00","30","ND","ND","ND","ND","ND","0.4","277.2","23","76.1","0","0"],
    [35262,"2014-05-15T01:00:00","31","ND","ND","ND","ND","ND","0.2","288.2","23.3","76.5","0","0"],
    [35263,"2014-05-15T02:00:00","38","ND","ND","ND","ND","ND","0.2","124.4","23.4","76.2","0","0"],
    [35264,"2014-05-15T03:00:00","42","ND","ND","ND","ND","ND","0.4","132.1","22.8","78.2","0","0"],
    [35265,"2014-05-15T04:00:00","31","ND","ND","ND","ND","ND","0.2","251.8","22.1","82.1","0","0"],
    [35266,"2014-05-15T05:00:00","46","ND","ND","ND","ND","ND","0.4","354.2","22","83.7","0","0"],
    [35267,"2014-05-15T06:00:00","34","ND","ND","ND","ND","ND","0.2","302.6","21.5","85.6","0","0"],
    [35268,"2014-05-15T07:00:00","69","ND","ND","ND","ND","ND","0.2","222.8","21.7","84.6","54.1","0"],
    [35269,"2014-05-15T08:00:00","102","ND","ND","ND","ND","ND","0.2","63.3","23.9","75.3","212.2","0"],
    [35270,"2014-05-15T09:00:00","76","ND","ND","ND","ND","ND","0.9","71.3","24.6","75.2","365.4","0"],
    [35271,"2014-05-15T10:00:00","67","ND","ND","ND","ND","ND","0.9","51.6","26.2","67.5","561.5","0"],
    [35272,"2014-05-15T11:00:00","74","ND","ND","ND","ND","ND","0.8","275.5","27.1","63","358.4","0"],
    [35273,"2014-05-15T12:00:00","81","ND","ND","ND","ND","ND","0.1","203.7","28.3","58.3","511.9","0"],
    [35274,"2014-05-15T13:00:00","55","ND","ND","ND","ND","ND","1.4","56.2","29.2","55.2","514.3","0"],
    [35275,"2014-05-15T14:00:00","33","ND","ND","ND","ND","ND","1.2","351","30.5","49.7","739.2","0"],
    [35276,"2014-05-15T15:00:00","27","ND","ND","ND","ND","ND","2.6","265.5","31.1","44.6","646.9","0"],
    [35277,"2014-05-15T16:00:00","17","ND","ND","ND","ND","ND","3.4","274.8","30.7","46","400.3","0"],
    [35278,"2014-05-15T17:00:00","28","ND","ND","ND","ND","ND","2.8","282.7","29.3","48.9","178.9","0"],
    [35279,"2014-05-15T18:00:00","30","ND","ND","ND","ND","ND","0.4","336.5","28.4","52.1","19.2","0"],
    [35280,"2014-05-15T19:00:00","50","ND","ND","ND","ND","ND","0.8","110.8","26.7","63.4","0","0"],
    [35281,"2014-05-15T20:00:00","50","ND","ND","ND","ND","ND","0.7","43.5","26.1","66.2","0","0"],
    [35282,"2014-05-15T21:00:00","39","ND","ND","ND","ND","ND","2","143.1","25.3","69.9","0","0"],
    [35283,"2014-05-15T22:00:00","64","ND","ND","ND","ND","ND","0.8","49.3","23.5","79.9","0","0"],
    [35284,"2014-05-15T23:00:00","78","ND","ND","ND","ND","ND","0.8","348.1","22.8","84.1","0","0"],
    [35285,"2014-05-16T00:00:00","65","ND","ND","ND","ND","ND","1","354.9","22.4","86.3","0","0"],
    [35286,"2014-05-16T01:00:00","87","ND","ND","ND","ND","ND","0.9","4.2","21.9","90.1","0","0.51"],
    [35287,"2014-05-16T02:00:00","48","ND","ND","ND","ND","ND","0.9","39.9","21.4","93.5","0","0"],
    [35288,"2014-05-16T03:00:00","39","ND","ND","ND","ND","ND","0.6","31.4","21.2","93.8","0","0"],
    [35289,"2014-05-16T04:00:00","42","ND","ND","ND","ND","ND","0.2","99.3","21.4","92.5","0","0"],
    [35290,"2014-05-16T05:00:00","48","ND","ND","ND","ND","ND","0.2","352.9","21.4","92.6","0","0"],
    [35291,"2014-05-16T06:00:00","68","ND","ND","ND","ND","ND","0.5","39","21.4","92","0","0"],
    [35292,"2014-05-16T07:00:00","89","ND","ND","ND","ND","ND","0.2","53.4","21.7","90.7","31.7","0"],
    [35293,"2014-05-16T08:00:00","91","ND","ND","ND","ND","ND","0.3","17.9","22.8","86.1","134.9","0"],
    [35294,"2014-05-16T09:00:00","98","ND","ND","ND","ND","ND","1.2","44.7","23.4","83.9","291.8","0"],
    [35295,"2014-05-16T10:00:00","55","ND","ND","ND","ND","ND","0.9","79.5","25.6","71.5","509.8","0"],
    [35296,"2014-05-16T11:00:00","45","ND","ND","ND","ND","ND","1.1","75.9","26.9","64.8","564.9","0"],
    [35297,"2014-05-16T12:00:00","39","ND","ND","ND","ND","ND","0.7","154.3","27.8","60","355.3","0"],
    [35298,"2014-05-16T13:00:00","56","ND","ND","ND","ND","ND","0.6","196.1","28.5","57.5","328.3","0"],
    [35299,"2014-05-16T14:00:00","48","ND","ND","ND","ND","ND","0.7","303.7","28.1","58.3","177.5","0"],
    [35300,"2014-05-16T15:00:00","54","ND","ND","ND","ND","ND","0.8","238.4","28.4","56.8","168.4","0"],
    [35301,"2014-05-16T16:00:00","52","ND","ND","ND","ND","ND","0.8","309.1","27.5","61.6","45.8","0.51"],
    [35302,"2014-05-16T17:00:00","23","ND","ND","ND","ND","ND","0.7","26.2","25.3","70.2","108.4","0.25"],
    [35303,"2014-05-16T18:00:00","56","ND","ND","ND","ND","ND","0.4","51.6","25.9","65.6","44.1","0"],
    [35304,"2014-05-16T19:00:00","69","ND","ND","ND","ND","ND","0.7","79.4","25.2","67.6","0","0"],
    [35305,"2014-05-16T20:00:00","86","ND","ND","ND","ND","ND","0.2","235.8","24.3","72.3","0","0"],
    [35306,"2014-05-16T21:00:00","73","ND","ND","ND","ND","ND","0.2","20","23.6","75.6","0","0"],
    [35307,"2014-05-16T22:00:00","70","ND","ND","ND","ND","ND","0.4","167.3","23.8","73.3","0","0"],
    [35308,"2014-05-16T23:00:00","51","ND","ND","ND","ND","ND","0.5","247.5","23.5","74.6","0","0"],
    [35309,"2014-05-17T00:00:00","41","ND","ND","ND","ND","ND","0.4","313.6","23.2","76.3","0","0"],
    [35310,"2014-05-17T01:00:00","116","ND","ND","ND","ND","ND","0.4","40.2","23.1","78.6","0","0"],
    [35311,"2014-05-17T02:00:00","57","ND","ND","ND","ND","ND","0.9","35.4","22.5","82.5","0","0"],
    [35312,"2014-05-17T03:00:00","34","ND","ND","ND","ND","ND","0.6","154","22.5","79.6","0","0"],
    [35313,"2014-05-17T04:00:00","31","ND","ND","ND","ND","ND","0.7","155.5","22.2","86.1","0","0"],
    [35314,"2014-05-17T05:00:00","38","ND","ND","ND","ND","ND","0.3","292.3","22","86.9","0","0"],
    [35315,"2014-05-17T06:00:00","66","ND","ND","ND","ND","ND","0.5","56.6","21.9","87.3","0","0"],
    [35316,"2014-05-17T07:00:00","63","ND","ND","ND","ND","ND","0.5","331.7","21.7","88.9","14","0"],
    [35317,"2014-05-17T08:00:00","71","ND","ND","ND","ND","ND","0.5","7.6","22.1","87","110.4","0"],
    [35318,"2014-05-17T09:00:00","78","ND","ND","ND","ND","ND","1.1","61.6","23.1","81.9","182.4","0"],
    [35319,"2014-05-17T10:00:00","61","ND","ND","ND","ND","ND","0.8","32.6","23.6","78.1","219.3","0"],
    [35320,"2014-05-17T11:00:00","47","ND","ND","ND","ND","ND","1","82.7","24.5","72.9","304.2","0"],
    [35321,"2014-05-17T12:00:00","40","ND","ND","ND","ND","ND","0.6","66.2","25.9","66.6","562.4","0"],
    [35322,"2014-05-17T13:00:00","63","ND","ND","ND","ND","ND","0.7","50.7","27.3","62","547.8","0"],
    [35323,"2014-05-17T14:00:00","47","ND","ND","ND","ND","ND","1","36.8","28.6","55.4","786.6","0"],
    [35324,"2014-05-17T15:00:00","37","ND","ND","ND","ND","ND","1","50.3","29.7","49.8","578.1","0"],
    [35325,"2014-05-17T16:00:00","30","ND","ND","ND","ND","ND","1.7","163.3","29.3","52.5","194.6","0"],
    [35326,"2014-05-17T17:00:00","29","ND","ND","ND","ND","ND","1.4","250.2","28.7","54.4","122.7","0"],
    [35327,"2014-05-17T18:00:00","21","ND","ND","ND","ND","ND","1.7","265.3","28.4","54.3","73.3","0"],
    [35328,"2014-05-17T19:00:00","31","ND","ND","ND","ND","ND","0.1","79.1","27.7","56.3","0","0"],
    [35329,"2014-05-17T20:00:00","31","ND","ND","ND","ND","ND","1","129.7","26.2","66.3","0","0"],
    [35330,"2014-05-17T21:00:00","45","ND","ND","ND","ND","ND","0.1","148.3","25.6","67.9","0","0"],
    [35331,"2014-05-17T22:00:00","50","ND","ND","ND","ND","ND","0.6","116.9","25.5","71.3","0","0"],
    [35332,"2014-05-17T23:00:00","46","ND","ND","ND","ND","ND","0.8","26.9","24.2","76.1","0","0"],
    [35333,"2014-05-18T00:00:00","25","ND","ND","ND","ND","ND","0.7","169.3","24.1","74.9","0","0"],
    [35334,"2014-05-18T01:00:00","43","ND","ND","ND","ND","ND","1.1","174.4","23.8","76.8","0","0"],
    [35335,"2014-05-18T02:00:00","27","ND","ND","ND","ND","ND","0.8","245","23.3","77.5","0","0"],
    [35336,"2014-05-18T03:00:00","27","ND","ND","ND","ND","ND","0.3","264","22.8","80.1","0","0"],
    [35337,"2014-05-18T04:00:00","26","ND","ND","ND","ND","ND","0.1","270.6","22.5","81.5","0","0"],
    [35338,"2014-05-18T05:00:00","27","ND","ND","ND","ND","ND","0.2","243.1","22.5","81.9","0","0"],
    [35339,"2014-05-18T06:00:00","51","ND","ND","ND","ND","ND","0.6","7.1","22.2","82.9","0","0"],
    [35340,"2014-05-18T07:00:00","51","ND","ND","ND","ND","ND","0.2","277","22.1","85","45.7","0"],
    [35341,"2014-05-18T08:00:00","47","ND","ND","ND","ND","ND","0.8","175.2","23.6","77.7","149","0"],
    [35342,"2014-05-18T09:00:00","47","ND","ND","ND","ND","ND","0.7","108.6","25.5","69","383.6","0"],
    [35343,"2014-05-18T10:00:00","42","ND","ND","ND","ND","ND","0.8","137","26.3","64.6","509.9","0"],
    [35344,"2014-05-18T11:00:00","47","ND","ND","ND","ND","ND","1.3","110.2","28","59","764.9","0"],
    [35345,"2014-05-18T12:00:00","56","ND","ND","ND","ND","ND","1.1","67","28.5","58.6","691.5","0"],
    [35346,"2014-05-18T13:00:00","46","ND","ND","ND","ND","ND","1","96","29.7","53.8","576.6","0"],
    [35347,"2014-05-18T14:00:00","35","ND","ND","ND","ND","ND","0.9","92.6","30.6","52.1","538.1","0"],
    [35348,"2014-05-18T15:00:00","46","ND","ND","ND","ND","ND","1.6","29.5","29.9","54.3","298.5","0"],
    [35349,"2014-05-18T16:00:00","32","ND","ND","ND","ND","ND","1.4","260.1","28.8","55.3","147.5","0"],
    [35350,"2014-05-18T17:00:00","35","ND","ND","ND","ND","ND","1.2","20.6","29.3","53.1","224.8","0"],
    [35351,"2014-05-18T18:00:00","30","ND","ND","ND","ND","ND","0.9","265.8","27.9","55.6","25.7","0"],
    [35352,"2014-05-18T19:00:00","34","ND","ND","ND","ND","ND","0.9","119.7","27.6","55.2","0","0"],
    [35353,"2014-05-18T20:00:00","32","ND","ND","ND","ND","ND","0.9","79.1","27.2","55.6","0","0"],
    [35354,"2014-05-18T21:00:00","53","ND","ND","ND","ND","ND","1.1","112","26.6","60","0","0"],
    [35355,"2014-05-18T22:00:00","41","ND","ND","ND","ND","ND","0.7","144.1","25","68.9","0","0"],
    [35356,"2014-05-18T23:00:00","27","ND","ND","ND","ND","ND","0.4","30.9","24.2","72.7","0","0"],
    [35357,"2014-05-19T00:00:00","41","ND","ND","ND","ND","ND","1.4","215.2","24.3","72.8","0","0"],
    [35358,"2014-05-19T01:00:00","28","ND","ND","ND","ND","ND","0.9","191.1","24.3","71","0","0"],
    [35359,"2014-05-19T02:00:00","23","ND","ND","ND","ND","ND","0.5","24.6","23.3","76.9","0","0"],
    [35360,"2014-05-19T03:00:00","44","ND","ND","ND","ND","ND","0.8","358.2","21.8","85.6","0","0"],
    [35361,"2014-05-19T04:00:00","38","ND","ND","ND","ND","ND","0.3","351.5","21.7","85.2","0","0"],
    [35362,"2014-05-19T05:00:00","46","ND","ND","ND","ND","ND","0.8","25.3","21.1","88.2","0","0"],
    [35363,"2014-05-19T06:00:00","54","ND","ND","ND","ND","ND","0.3","344.3","20.8","89.7","0","0"],
    [35364,"2014-05-19T07:00:00","80","ND","ND","ND","ND","ND","0.5","272.6","20.9","88.8","33.3","0"],
    [35365,"2014-05-19T08:00:00","78","ND","ND","ND","ND","ND","0.2","278.4","22.3","83.9","120","0"],
    [35366,"2014-05-19T09:00:00","133","ND","ND","ND","ND","ND","0.6","58.4","23.7","77","204.9","0"],
    [35367,"2014-05-19T10:00:00","80","ND","ND","ND","ND","ND","0.6","59.7","25.3","70.5","415.5","0"],
    [35368,"2014-05-19T11:00:00","75","ND","ND","ND","ND","ND","0.3","336","26.9","64","646","0"],
    [35369,"2014-05-19T12:00:00","47","ND","ND","ND","ND","ND","0.9","102.1","28.6","56.2","765.6","0"],
    [35370,"2014-05-19T13:00:00","42","ND","ND","ND","ND","ND","0.3","37.9","29.5","53.6","512.5","0"],
    [35371,"2014-05-19T14:00:00","56","ND","ND","ND","ND","ND","0.7","31.6","31","49.2","735.6","0"],
    [35372,"2014-05-19T15:00:00","66","ND","ND","ND","ND","ND","0.7","353.8","31.7","47.6","620.7","0"],
    [35373,"2014-05-19T16:00:00","38","ND","ND","ND","ND","ND","2.2","267.7","31.1","48.7","409.3","0"],
    [35374,"2014-05-19T17:00:00","32","ND","ND","ND","ND","ND","2","262.5","30.4","49.1","121.8","0"],
    [35375,"2014-05-19T18:00:00","52","ND","ND","ND","ND","ND","3.1","225.8","24.9","68.4","11.9","18.03"],
    [35376,"2014-05-19T19:00:00","30","ND","ND","ND","ND","ND","0.5","99.1","24.5","77.8","0","0"],
    [35377,"2014-05-19T20:00:00","45","ND","ND","ND","ND","ND","1.3","59.4","24.5","77.9","0","0.25"],
    [35378,"2014-05-19T21:00:00","38","ND","ND","ND","ND","ND","0.5","13.9","23","88.6","0","0.25"],
    [35379,"2014-05-19T22:00:00","47","ND","ND","ND","ND","ND","0.3","119.6","23.4","87.1","0","0"],
    [35380,"2014-05-19T23:00:00","46","ND","ND","ND","ND","ND","0.2","100.7","23","88.2","0","0"],
    [35381,"2014-05-20T00:00:00","41","ND","ND","ND","ND","ND","0.4","160.4","23","87.6","0","0"],
    [35382,"2014-05-20T01:00:00","30","ND","ND","ND","ND","ND","1.5","178.4","22.8","86.9","0","0"],
    [35383,"2014-05-20T02:00:00","28","ND","ND","ND","ND","ND","0.6","300.9","22.5","87.5","0","0"],
    [35384,"2014-05-20T03:00:00","33","ND","ND","ND","ND","ND","0.1","302.4","22.6","86.8","0","0"],
    [35385,"2014-05-20T04:00:00","26","ND","ND","ND","ND","ND","0.1","305.2","22.4","89.1","0","0.25"],
    [35386,"2014-05-20T05:00:00","36","ND","ND","ND","ND","ND","0.2","101.3","22.3","90.1","0","0"],
    [35387,"2014-05-20T06:00:00","56","ND","ND","ND","ND","ND","0.2","131.9","22.2","92.1","0","0"],
    [35388,"2014-05-20T07:00:00","62","ND","ND","ND","ND","ND","0.2","319.3","22.2","92.4","17.6","0"],
    [35389,"2014-05-20T08:00:00","93","ND","ND","ND","ND","ND","0.9","29.3","22.8","90.3","154","0.25"],
    [35390,"2014-05-20T09:00:00","70","ND","ND","ND","ND","ND","0.9","73.2","24.3","80","432.1","0"],
    [35391,"2014-05-20T10:00:00","56","ND","ND","ND","ND","ND","1","92.4","25.5","74.4","356.5","0"],
    [35392,"2014-05-20T11:00:00","58","ND","ND","ND","ND","ND","0.1","126.6","26","70.7","252.2","0"],
    [35393,"2014-05-20T12:00:00","49","ND","ND","ND","ND","ND","0.4","156.5","27.6","62.6","509.6","0"],
    [35394,"2014-05-20T13:00:00","40","ND","ND","ND","ND","ND","1.5","101.4","27.8","63.5","260.5","0"],
    [35395,"2014-05-20T14:00:00","50","ND","ND","ND","ND","ND","0.9","33.1","27.7","64","309.6","0"],
    [35396,"2014-05-20T15:00:00","47","ND","ND","ND","ND","ND","1.2","39.6","27.8","61.3","186.1","0"],
    [35397,"2014-05-20T16:00:00","27","ND","ND","ND","ND","ND","0.9","247.6","27.3","58","107.8","0"],
    [35398,"2014-05-20T17:00:00","38","ND","ND","ND","ND","ND","0.7","59.1","27.5","55.9","111.6","0"],
    [35399,"2014-05-20T18:00:00","36","ND","ND","ND","ND","ND","1.8","247","26.8","57.6","41.9","0"],
    [35400,"2014-05-20T19:00:00","43","ND","ND","ND","ND","ND","0.2","274.8","26.3","56.2","0","0"],
    [35401,"2014-05-20T20:00:00","50","ND","ND","ND","ND","ND","1","135.7","25.3","62.4","0","0"],
    [35402,"2014-05-20T21:00:00","37","ND","ND","ND","ND","ND","0.8","118.2","23.9","70.4","0","0"],
    [35403,"2014-05-20T22:00:00","49","ND","ND","ND","ND","ND","0.2","140.4","23.5","72.3","0","0"],
    [35404,"2014-05-20T23:00:00","31","ND","ND","ND","ND","ND","0.8","140.5","23.4","71.6","0","0"],
    [35405,"2014-05-21T00:00:00","34","ND","ND","ND","ND","ND","0.6","71.2","22.7","76.8","0","0"],
    [35406,"2014-05-21T01:00:00","35","ND","ND","ND","ND","ND","0.6","211.7","22.1","80.6","0","0"],
    [35407,"2014-05-21T02:00:00","28","ND","ND","ND","ND","ND","0.2","239.5","21.7","83.9","0","0"],
    [35408,"2014-05-21T03:00:00","59","ND","ND","ND","ND","ND","0.4","341.3","21.4","85.1","0","0"],
    [35409,"2014-05-21T04:00:00","52","ND","ND","ND","ND","ND","0.2","11.6","21.4","85","0","0"],
    [35410,"2014-05-21T05:00:00","37","ND","ND","ND","ND","ND","0.5","294.4","21.6","84.2","0","0"],
    [35411,"2014-05-21T06:00:00","57","ND","ND","ND","ND","ND","0.2","318.2","21.6","83.6","0","0"],
    [35412,"2014-05-21T07:00:00","58","ND","ND","ND","ND","ND","0","282.8","22","81.5","34.6","0"],
    [35413,"2014-05-21T08:00:00","66","ND","ND","ND","ND","ND","1.2","46.9","21.7","84.9","90.2","0"],
    [35414,"2014-05-21T09:00:00","56","ND","ND","ND","ND","ND","0.7","105.1","23.3","78.3","368","0"],
    [35415,"2014-05-21T10:00:00","47","ND","ND","ND","ND","ND","0.7","65.6","25.1","69.7","427.1","0"],
    [35416,"2014-05-21T11:00:00","48","ND","ND","ND","ND","ND","0.3","197.8","26.2","63.7","414.7","0"],
    [35417,"2014-05-21T12:00:00","56","ND","ND","ND","ND","ND","0.7","34.9","28","55.5","776.7","0"],
    [35418,"2014-05-21T13:00:00","44","ND","ND","ND","ND","ND","1","97","29.5","50","617.4","0"],
    [35419,"2014-05-21T14:00:00","44","ND","ND","ND","ND","ND","1.4","30.2","30.1","48.6","634.7","0"],
    [35420,"2014-05-21T15:00:00","61","ND","ND","ND","ND","ND","0.9","18.7","30.6","47.1","577.1","0"],
    [35421,"2014-05-21T16:00:00","59","ND","ND","ND","ND","ND","0.9","309.6","30.9","47.5","336","0"],
    [35422,"2014-05-21T17:00:00","50","ND","ND","ND","ND","ND","2.2","293","29.9","50.7","210.7","0"],
    [35423,"2014-05-21T18:00:00","39","ND","ND","ND","ND","ND","1","249.4","29.3","51.6","60.5","0"],
    [35424,"2014-05-21T19:00:00","42","ND","ND","ND","ND","ND","1","235.8","28","55.8","0","0"],
    [35425,"2014-05-21T20:00:00","49","ND","ND","ND","ND","ND","0.4","233.7","26.7","61.6","0","0"],
    [35426,"2014-05-21T21:00:00","64","ND","ND","ND","ND","ND","0.4","263.2","26","65.7","0","0"],
    [35427,"2014-05-21T22:00:00","80","ND","ND","ND","ND","ND","0.2","34.1","25.5","67.9","0","0"],
    [35428,"2014-05-21T23:00:00","80","ND","ND","ND","ND","ND","0.5","264.7","24.3","73.4","0","0"],
    [35429,"2014-05-22T00:00:00","97","ND","ND","ND","ND","ND","0.5","17","23.8","75.1","0","0"],
    [35430,"2014-05-22T01:00:00","88","ND","ND","ND","ND","ND","0.5","323.8","23.1","77.3","0","0"],
    [35431,"2014-05-22T02:00:00","72","ND","ND","ND","ND","ND","0.3","300.8","23","77.5","0","0"],
    [35432,"2014-05-22T03:00:00","67","ND","ND","ND","ND","ND","0.3","38.6","23","77.8","0","0"],
    [35433,"2014-05-22T04:00:00","55","ND","ND","ND","ND","ND","0.6","136.9","22.7","78.9","0","0"],
    [35434,"2014-05-22T05:00:00","47","ND","ND","ND","ND","ND","0.5","189.3","22","82","0","0"],
    [35435,"2014-05-22T06:00:00","61","ND","ND","ND","ND","ND","0.6","280.6","21.5","85","0","0"],
    [35436,"2014-05-22T07:00:00","112","ND","ND","ND","ND","ND","0.3","275","22","82.7","48.8","0"],
    [35437,"2014-05-22T08:00:00","69","ND","ND","ND","ND","ND","0.4","242.2","23.6","75.5","164.7","0"],
    [35438,"2014-05-22T09:00:00","92","ND","ND","ND","ND","ND","1.1","154","24.8","70.3","208.6","0"],
    [35439,"2014-05-22T10:00:00","109","ND","ND","ND","ND","ND","0.5","52.1","25.9","68.3","389.8","0"],
    [35440,"2014-05-22T11:00:00","64","ND","ND","ND","ND","ND","0.9","95.7","27.6","60.8","544","0"],
    [35441,"2014-05-22T12:00:00","58","ND","ND","ND","ND","ND","0.9","51.8","27.6","61.9","310.4","0"],
    [35442,"2014-05-22T13:00:00","67","ND","ND","ND","ND","ND","1.2","311.2","28.9","57.3","710.9","0"],
    [35443,"2014-05-22T14:00:00","46","ND","ND","ND","ND","ND","2.4","279.4","30.5","49.1","714.7","0"],
    [35444,"2014-05-22T15:00:00","29","ND","ND","ND","ND","ND","2.9","275.3","30.8","45.1","626.7","0"],
    [35445,"2014-05-22T16:00:00","46","ND","ND","ND","ND","ND","2","302.9","30.3","46.2","394.5","0"],
    [35446,"2014-05-22T17:00:00","26","ND","ND","ND","ND","ND","3.7","262.7","29.7","46.7","269.6","0"],
    [35447,"2014-05-22T18:00:00","39","ND","ND","ND","ND","ND","1.2","271.4","29.3","45.5","72.1","0"],
    [35448,"2014-05-22T19:00:00","65","ND","ND","ND","ND","ND","0.4","249.2","27.9","50.6","0","0"],
    [35449,"2014-05-22T20:00:00","81","ND","ND","ND","ND","ND","0.6","72.6","26.8","56.1","0","0"],
    [35450,"2014-05-22T21:00:00","58","ND","ND","ND","ND","ND","0.4","51.7","25.5","64.4","0","0"],
    [35451,"2014-05-22T22:00:00","72","ND","ND","ND","ND","ND","0.3","262.8","24.7","67.5","0","0"],
    [35452,"2014-05-22T23:00:00","66","ND","ND","ND","ND","ND","0.7","37.6","23.8","72.3","0","0"],
    [35453,"2014-05-23T00:00:00","66","ND","ND","ND","ND","ND","0.4","194.4","23.2","73.9","0","0"],
    [35454,"2014-05-23T01:00:00","58","ND","ND","ND","ND","ND","0.4","338.6","23.1","74.2","0","0"],
    [35455,"2014-05-23T02:00:00","71","ND","ND","ND","ND","ND","0.7","18.7","22.8","76.3","0","0"],
    [35456,"2014-05-23T03:00:00","63","ND","ND","ND","ND","ND","0.3","82","22.6","78.7","0","0"],
    [35457,"2014-05-23T04:00:00","29","ND","ND","ND","ND","ND","0.4","101.6","22.3","78.6","0","0"],
    [35458,"2014-05-23T05:00:00","38","ND","ND","ND","ND","ND","0.8","216.9","21.9","81","0","0"],
    [35459,"2014-05-23T06:00:00","47","ND","ND","ND","ND","ND","1.3","236.6","21.7","81.1","0","0"],
    [35460,"2014-05-23T07:00:00","121","ND","ND","ND","ND","ND","1","21.5","22","79.1","71.2","0"],
    [35461,"2014-05-23T08:00:00","119","ND","ND","ND","ND","ND","1.5","28.7","22.3","81","164.9","0"],
    [35462,"2014-05-23T09:00:00","85","ND","ND","ND","ND","ND","0.7","122.8","25","70.1","410.4","0"],
    [35463,"2014-05-23T10:00:00","69","ND","ND","ND","ND","ND","1.8","169","25.5","67.1","424.9","0"],
    [35464,"2014-05-23T11:00:00","57","ND","ND","ND","ND","ND","0.6","113.7","26.7","60.1","526.6","0"],
    [35465,"2014-05-23T12:00:00","49","ND","ND","ND","ND","ND","0.9","91.4","28.1","54.4","508.3","0"],
    [35466,"2014-05-23T13:00:00","44","ND","ND","ND","ND","ND","1.5","101","29.2","51.3","630.9","0"],
    [35467,"2014-05-23T14:00:00","52","ND","ND","ND","ND","ND","0.6","152.8","29.9","49.4","400.3","0"],
    [35468,"2014-05-23T15:00:00","51","ND","ND","ND","ND","ND","1.5","0.4","30.2","50.5","477.2","0"],
    [35469,"2014-05-23T16:00:00","42","ND","ND","ND","ND","ND","2.1","322","29.4","51.2","148","0"],
    [35470,"2014-05-23T17:00:00","30","ND","ND","ND","ND","ND","1.7","283.8","28.7","53.1","109.9","0"],
    [35471,"2014-05-23T18:00:00","41","ND","ND","ND","ND","ND","0.5","317","28.1","53.7","31.9","0"],
    [35472,"2014-05-23T19:00:00","63","ND","ND","ND","ND","ND","0.1","19.6","27.3","56.4","0","0"],
    [35473,"2014-05-23T20:00:00","59","ND","ND","ND","ND","ND","1.1","139.3","26.8","60","0","0"],
    [35474,"2014-05-23T21:00:00","59","ND","ND","ND","ND","ND","1.3","164.8","25.9","66.2","0","0"],
    [35475,"2014-05-23T22:00:00","52","ND","ND","ND","ND","ND","2.1","188.7","25.1","69.7","0","0"],
    [35476,"2014-05-23T23:00:00","38","ND","ND","ND","ND","ND","1.1","249.9","24.5","69.2","0","0"],
    [35477,"2014-05-24T00:00:00","59","ND","ND","ND","ND","ND","0.5","48.9","24.2","71","0","0"],
    [35478,"2014-05-24T01:00:00","71","ND","ND","ND","ND","ND","0.3","359.7","22.8","80.6","0","0"],
    [35479,"2014-05-24T02:00:00","45","ND","ND","ND","ND","ND","0.8","167.1","22.5","80.7","0","0"],
    [35480,"2014-05-24T03:00:00","39","ND","ND","ND","ND","ND","0.4","245.9","22.7","79.3","0","0"],
    [35481,"2014-05-24T04:00:00","56","ND","ND","ND","ND","ND","0.4","343","22.7","80","0","0.25"],
    [35482,"2014-05-24T05:00:00","39","ND","ND","ND","ND","ND","0.2","269.3","21.9","88","0","0.76"],
    [35483,"2014-05-24T06:00:00","39","ND","ND","ND","ND","ND","0.9","140.4","21.9","86.8","0","0"],
    [35484,"2014-05-24T07:00:00","41","ND","ND","ND","ND","ND","0.4","147.3","21.7","87.4","41.7","0"],
    [35485,"2014-05-24T08:00:00","51","ND","ND","ND","ND","ND","0.1","173.7","22.8","82.5","162.1","0.25"],
    [35486,"2014-05-24T09:00:00","90","ND","ND","ND","ND","ND","0.7","2","24","78.6","280.9","0"],
    [35487,"2014-05-24T10:00:00","75","ND","ND","ND","ND","ND","0.8","332.9","25.5","71.3","481.3","0"],
    [35488,"2014-05-24T11:00:00","64","ND","ND","ND","ND","ND","1.5","42.4","27","64.8","680.9","0"],
    [35489,"2014-05-24T12:00:00","41","ND","ND","ND","ND","ND","1.8","65.4","28","60.6","774.8","0"],
    [35490,"2014-05-24T13:00:00","44","ND","ND","ND","ND","ND","0.8","46.3","29.7","55.7","685","0"],
    [35491,"2014-05-24T14:00:00","48","ND","ND","ND","ND","ND","1.4","45.4","30","54.5","570.3","0"],
    [35492,"2014-05-24T15:00:00","43","ND","ND","ND","ND","ND","1.6","19","30.5","52.6","558.3","0"],
    [35493,"2014-05-24T16:00:00","23","ND","ND","ND","ND","ND","1.5","288.6","31.1","48","456.5","0"],
    [35494,"2014-05-24T17:00:00","20","ND","ND","ND","ND","ND","2.9","275.4","30.2","49.1","262","0"],
    [35495,"2014-05-24T18:00:00","28","ND","ND","ND","ND","ND","1.1","240.7","29.3","51.2","72.3","0"],
    [35496,"2014-05-24T19:00:00","37","ND","ND","ND","ND","ND","0.9","153.7","28.5","52.9","0","0"],
    [35497,"2014-05-24T20:00:00","35","ND","ND","ND","ND","ND","0.7","217.9","27.4","57.1","0","0"],
    [35498,"2014-05-24T21:00:00","36","ND","ND","ND","ND","ND","0.7","142.2","27","59.2","0","0"],
    [35499,"2014-05-24T22:00:00","46","ND","ND","ND","ND","ND","1","94","26.1","64.9","0","0"],
    [35500,"2014-05-24T23:00:00","46","ND","ND","ND","ND","ND","0.7","327.8","24.9","70.6","0","0"],
    [35501,"2014-05-25T00:00:00","63","ND","ND","ND","ND","ND","1","8","23.7","78.5","0","0"],
    [35502,"2014-05-25T01:00:00","65","ND","ND","ND","ND","ND","0.3","67.6","23.7","77.5","0","0"],
    [35503,"2014-05-25T02:00:00","66","ND","ND","ND","ND","ND","0.4","296.2","23.8","76.7","0","0"],
    [35504,"2014-05-25T03:00:00","53","ND","ND","ND","ND","ND","0.4","341.5","23.2","80.1","0","0"],
    [35505,"2014-05-25T04:00:00","52","ND","ND","ND","ND","ND","0.2","200.9","23.2","79.8","0","0"],
    [35506,"2014-05-25T05:00:00","52","ND","ND","ND","ND","ND","0.2","10.3","23.4","79.5","0","0"],
    [35507,"2014-05-25T06:00:00","65","ND","ND","ND","ND","ND","0.7","9.5","22.7","84.5","0","0"],
    [35508,"2014-05-25T07:00:00","53","ND","ND","ND","ND","ND","0.5","320.9","22.1","87.9","24.3","0"],
    [35509,"2014-05-25T08:00:00","63","ND","ND","ND","ND","ND","0.2","199","22.9","84","91.2","0"],
    [35510,"2014-05-25T09:00:00","76","ND","ND","ND","ND","ND","0.3","201.5","24.7","74.8","205","0"],
    [35511,"2014-05-25T10:00:00","63","ND","ND","ND","ND","ND","0.5","145.7","26.7","65.5","489.2","0"],
    [35512,"2014-05-25T11:00:00","60","ND","ND","ND","ND","ND","0.2","301.9","28","59.4","561.8","0"],
    [35513,"2014-05-25T12:00:00","61","ND","ND","ND","ND","ND","0.7","111","28.9","56.1","534.7","0"],
    [35514,"2014-05-25T13:00:00","59","ND","ND","ND","ND","ND","0.7","171.7","29.5","54.5","442.5","0"],
    [35515,"2014-05-25T14:00:00","53","ND","ND","ND","ND","ND","1.1","329.9","30.7","50","607.4","0"],
    [35516,"2014-05-25T15:00:00","10","ND","ND","ND","ND","ND","1.9","307.2","31.5","43.5","627.1","0"],
    [35517,"2014-05-25T16:00:00","23","ND","ND","ND","ND","ND","2.5","277.9","31.2","43.7","427.3","0"],
    [35518,"2014-05-25T17:00:00","20","ND","ND","ND","ND","ND","2.2","273.3","30.4","45.2","239.8","0"],
    [35519,"2014-05-25T18:00:00","23","ND","ND","ND","ND","ND","0.8","311.9","29.1","48","53.3","0"],
    [35520,"2014-05-25T19:00:00","21","ND","ND","ND","ND","ND","0.2","315.4","28.1","50","0","0"],
    [35521,"2014-05-25T20:00:00","38","ND","ND","ND","ND","ND","0.6","171.8","27.6","52.7","0","0"],
    [35522,"2014-05-25T21:00:00","42","ND","ND","ND","ND","ND","0.3","40.3","26.6","58.6","0","0"],
    [35523,"2014-05-25T22:00:00","33","ND","ND","ND","ND","ND","0.6","139.1","25.6","65.5","0","0"],
    [35524,"2014-05-25T23:00:00","33","ND","ND","ND","ND","ND","0.1","170","24.8","70.3","0","0"],
    [35525,"2014-05-26T00:00:00","26","ND","ND","ND","ND","ND","0.2","247.5","24.3","72","0","0"],
    [35526,"2014-05-26T01:00:00","27","ND","ND","ND","ND","ND","0.3","170.8","23.7","74.3","0","0"],
    [35527,"2014-05-26T02:00:00","36","ND","ND","ND","ND","ND","0.7","159.5","23.5","77","0","0"],
    [35528,"2014-05-26T03:00:00","38","ND","ND","ND","ND","ND","0.3","0.3","22.6","80.8","0","0"],
    [35529,"2014-05-26T04:00:00","33","ND","ND","ND","ND","ND","0.7","233.3","22.6","80.6","0","0"],
    [35530,"2014-05-26T05:00:00","30","ND","ND","ND","ND","ND","0.2","256.6","22.6","81","0","0"],
    [35531,"2014-05-26T06:00:00","49","ND","ND","ND","ND","ND","0.5","328","22.3","81.7","0","0"],
    [35532,"2014-05-26T07:00:00","75","ND","ND","ND","ND","ND","0.3","350.1","22.9","80.4","59.2","0"],
    [35533,"2014-05-26T08:00:00","111","ND","ND","ND","ND","ND","0.6","23.6","24.1","74.7","150.9","0"],
    [35534,"2014-05-26T09:00:00","72","ND","ND","ND","ND","ND","1","41.7","24.8","72","261","0"],
    [35535,"2014-05-26T10:00:00","60","ND","ND","ND","ND","ND","1.1","46.4","25.5","71","382.2","0"],
    [35536,"2014-05-26T11:00:00","64","ND","ND","ND","ND","ND","0.9","57.5","26.3","66.1","294.4","0"],
    [35537,"2014-05-26T12:00:00","73","ND","ND","ND","ND","ND","0.7","39.6","26.6","64.4","218.2","0"],
    [35538,"2014-05-26T13:00:00","73","ND","ND","ND","ND","ND","0.2","26.1","27.1","62.2","207.6","0"],
    [35539,"2014-05-26T14:00:00","97","ND","ND","ND","ND","ND","1.3","145.2","27.9","60.2","279.5","0"],
    [35540,"2014-05-26T15:00:00","101","ND","ND","ND","ND","ND","1","134.1","28","61.6","220.4","0"],
    [35541,"2014-05-26T16:00:00","103","ND","ND","ND","ND","ND","0.9","64.1","28.1","61.9","231.6","0"],
    [35542,"2014-05-26T17:00:00","104","ND","ND","ND","ND","ND","0.6","62.2","28.1","60.6","124.6","0"],
    [35543,"2014-05-26T18:00:00","38","ND","ND","ND","ND","ND","1.1","267.6","27.4","56.8","36","0"],
    [35544,"2014-05-26T19:00:00","59","ND","ND","ND","ND","ND","0.3","278.8","26.4","60.9","0","0"],
    [35545,"2014-05-26T20:00:00","82","ND","ND","ND","ND","ND","0.2","218.2","25.9","62","0","0"],
    [35546,"2014-05-26T21:00:00","63","ND","ND","ND","ND","ND","0.7","261.8","24.6","67.4","0","0"],
    [35547,"2014-05-26T22:00:00","66","ND","ND","ND","ND","ND","0.4","149.1","24.8","66.5","0","0"],
    [35548,"2014-05-26T23:00:00","95","ND","ND","ND","ND","ND","0.3","164.8","23.9","74.6","0","0"],
    [35549,"2014-05-27T00:00:00","61","ND","ND","ND","ND","ND","0.2","4.4","23.3","76.7","0","0"],
    [35550,"2014-05-27T01:00:00","51","ND","ND","ND","ND","ND","0.3","32.5","23.2","78.1","0","0"],
    [35551,"2014-05-27T02:00:00","63","ND","ND","ND","ND","ND","0.3","223.7","22.9","79.4","0","0"],
    [35552,"2014-05-27T03:00:00","48","ND","ND","ND","ND","ND","0.5","9.2","22.7","80.5","0","0"],
    [35553,"2014-05-27T04:00:00","120","ND","ND","ND","ND","ND","0.1","271.1","22.6","81","0","0"],
    [35554,"2014-05-27T05:00:00","85","ND","ND","ND","ND","ND","0.4","47","22.6","82","0","0"],
    [35555,"2014-05-27T06:00:00","88","ND","ND","ND","ND","ND","0.1","173.3","22.3","84.3","0","0"],
    [35556,"2014-05-27T07:00:00","97","ND","ND","ND","ND","ND","0.2","31.3","22.4","82.8","17.8","0"],
    [35557,"2014-05-27T08:00:00","142","ND","ND","ND","ND","ND","0.1","79","22.7","82.5","80.7","0"],
    [35558,"2014-05-27T09:00:00","162","ND","ND","ND","ND","ND","0.9","38.2","23.7","79.4","168.4","0"],
    [35559,"2014-05-27T10:00:00","142","ND","ND","ND","ND","ND","0.6","139.9","25.1","72.6","393","0"],
    [35560,"2014-05-27T11:00:00","99","ND","ND","ND","ND","ND","0.6","196.7","26.6","64.5","438.2","0"],
    [35561,"2014-05-27T12:00:00","61","ND","ND","ND","ND","ND","0.6","121.9","28.3","56.8","536.9","0"],
    [35562,"2014-05-27T13:00:00","97","ND","ND","ND","ND","ND","0.9","54.1","28.7","57.7","334.2","0"],
    [35563,"2014-05-27T14:00:00","82","ND","ND","ND","ND","ND","1.5","32.4","28.4","59.3","320.1","0"],
    [35564,"2014-05-27T15:00:00","105","ND","ND","ND","ND","ND","1.6","35.6","29","56.4","457.6","0"],
    [35565,"2014-05-27T16:00:00","66","ND","ND","ND","ND","ND","1","53.8","29.5","54.1","262.4","0"],
    [35566,"2014-05-27T17:00:00","31","ND","ND","ND","ND","ND","2.3","244.6","28.7","52.9","109.8","0"],
    [35567,"2014-05-27T18:00:00","41","ND","ND","ND","ND","ND","1.1","244.3","28.1","54.4","43.1","0"],
    [35568,"2014-05-27T19:00:00","45","ND","ND","ND","ND","ND","0.4","255.8","27.5","55.7","0","0"],
    [35569,"2014-05-27T20:00:00","34","ND","ND","ND","ND","ND","1.3","230.8","27","56.2","0","0"],
    [35570,"2014-05-27T21:00:00","82","ND","ND","ND","ND","ND","1.4","13.8","25.1","67.8","0","0"],
    [35571,"2014-05-27T22:00:00","44","ND","ND","ND","ND","ND","0.1","111.1","23.3","75.9","0","0"],
    [35572,"2014-05-27T23:00:00","71","ND","ND","ND","ND","ND","0.4","335.9","23.3","76","0","0"],
    [35573,"2014-05-28T00:00:00","95","ND","ND","ND","ND","ND","0.2","350.9","23.3","76.7","0","0"],
    [35574,"2014-05-28T01:00:00","83","ND","ND","ND","ND","ND","0.2","349.3","22.8","79.9","0","0"],
    [35575,"2014-05-28T02:00:00","76","ND","ND","ND","ND","ND","0.2","32","22.6","80.5","0","0"],
    [35576,"2014-05-28T03:00:00","77","ND","ND","ND","ND","ND","0.3","31.1","22.3","82.1","0","0"],
    [35577,"2014-05-28T04:00:00","84","ND","ND","ND","ND","ND","0.1","345.6","22.2","83.2","0","0"],
    [35578,"2014-05-28T05:00:00","90","ND","ND","ND","ND","ND","0.3","30.1","21.9","84.1","0","0"],
    [35579,"2014-05-28T06:00:00","94","ND","ND","ND","ND","ND","0.4","350.2","21.7","84.7","0","0"],
    [35580,"2014-05-28T07:00:00","113","ND","ND","ND","ND","ND","0.3","335.9","22.3","81.5","51.5","0"],
    [35581,"2014-05-28T08:00:00","156","ND","ND","ND","ND","ND","0.4","20.9","23.8","75.6","170.4","0"],
    [35582,"2014-05-28T09:00:00","117","ND","ND","ND","ND","ND","0.9","55.1","25.6","68","309.7","0"],
    [35583,"2014-05-28T10:00:00","73","ND","ND","ND","ND","ND","1.1","51","26.4","65.2","476.9","0"],
    [35584,"2014-05-28T11:00:00","79","ND","ND","ND","ND","ND","0.7","114.8","27.6","60.7","555.9","0"],
    [35585,"2014-05-28T12:00:00","87","ND","ND","ND","ND","ND","1.3","114.6","29.3","55.2","642.9","0"],
    [35586,"2014-05-28T13:00:00","87","ND","ND","ND","ND","ND","1.1","117.7","30","53","325.6","0"],
    [35587,"2014-05-28T14:00:00","57","ND","ND","ND","ND","ND","1.4","292.2","29.2","53.8","190.8","0"],
    [35588,"2014-05-28T15:00:00","58","ND","ND","ND","ND","ND","3.1","260.3","28.2","54.2","112.8","0"],
    [35589,"2014-05-28T16:00:00","23","ND","ND","ND","ND","ND","2.8","257.4","27.4","52.2","121.4","0"],
    [35590,"2014-05-28T17:00:00","55","ND","ND","ND","ND","ND","0.6","69.7","28.5","51.6","138.9","0"],
    [35591,"2014-05-28T18:00:00","40","ND","ND","ND","ND","ND","1.5","235.6","27.8","52.7","40.5","0"],
    [35592,"2014-05-28T19:00:00","50","ND","ND","ND","ND","ND","0.5","165.6","27.3","53.3","0","0"],
    [35593,"2014-05-28T20:00:00","84","ND","ND","ND","ND","ND","0.7","148.7","26.9","56.1","0","0"],
    [35594,"2014-05-28T21:00:00","48","ND","ND","ND","ND","ND","1","88.1","25.9","62.9","0","0"],
    [35595,"2014-05-28T22:00:00","37","ND","ND","ND","ND","ND","1.3","187.2","25.4","66.3","0","0"],
    [35596,"2014-05-28T23:00:00","36","ND","ND","ND","ND","ND","0.6","119.3","25.1","68.8","0","0"],
    [35597,"2014-05-29T00:00:00","72","ND","ND","ND","ND","ND","0.7","5.9","24","76.3","0","0"],
    [35598,"2014-05-29T01:00:00","56","ND","ND","ND","ND","ND","0.8","303.8","23.4","80","0","0"],
    [35599,"2014-05-29T02:00:00","48","ND","ND","ND","ND","ND","0.3","46.8","23.4","79.2","0","0"],
    [35600,"2014-05-29T03:00:00","53","ND","ND","ND","ND","ND","0.4","34.8","23.1","80.5","0","0"],
    [35601,"2014-05-29T04:00:00","48","ND","ND","ND","ND","ND","0.4","344.9","22.7","83.2","0","0"],
    [35602,"2014-05-29T05:00:00","ND","ND","ND","ND","ND","ND","ND","ND","ND","ND","ND","ND"],
    [35603,"2014-05-29T06:00:00","ND","ND","ND","ND","ND","ND","ND","ND","ND","ND","ND","ND"],
    [35604,"2014-05-29T07:00:00","ND","ND","ND","ND","ND","ND","ND","ND","ND","ND","ND","ND"],
    [35605,"2014-05-29T08:00:00","ND","ND","ND","ND","ND","ND","ND","ND","ND","ND","ND","ND"],
    [35606,"2014-05-29T09:00:00","ND","ND","ND","ND","ND","ND","ND","ND","ND","ND","ND","ND"],
    [35607,"2014-05-29T10:00:00","ND","ND","ND","ND","ND","ND","ND","ND","ND","ND","ND","ND"],
    [35608,"2014-05-29T11:00:00","ND","ND","ND","ND","ND","ND","ND","ND","ND","ND","ND","ND"],
    [35609,"2014-05-29T12:00:00","ND","ND","ND","ND","ND","ND","ND","ND","ND","ND","ND","ND"],
    [35610,"2014-05-29T13:00:00","ND","ND","ND","ND","ND","ND","ND","ND","ND","ND","ND","ND"],
    [35611,"2014-05-29T14:00:00","ND","ND","ND","ND","ND","ND","ND","ND","ND","ND","ND","ND"],
    [35612,"2014-05-29T15:00:00","ND","ND","ND","ND","ND","ND","ND","ND","ND","ND","ND","ND"],
    [35613,"2014-05-29T16:00:00","24","ND","ND","ND","ND","ND","0.7","21.8","27.3","58.9","306.9","0"],
    [35614,"2014-05-29T17:00:00","18","ND","ND","ND","ND","ND","2.2","250.5","26.2","61.5","134.8","0"],
    [35615,"2014-05-29T18:00:00","15","ND","ND","ND","ND","ND","0.2","231.4","25.3","60.9","22.5","0"],
    [35616,"2014-05-29T19:00:00","27","ND","ND","ND","ND","ND","1.7","194.1","24.7","63.4","0","0"],
    [35617,"2014-05-29T20:00:00","27","ND","ND","ND","ND","ND","2.4","160","23.1","76.9","0","0"],
    [35618,"2014-05-29T21:00:00","21","ND","ND","ND","ND","ND","1.7","140","21.6","86.7","0","0"],
    [35619,"2014-05-29T22:00:00","16","ND","ND","ND","ND","ND","1.5","154.5","20.7","88.3","0","0"],
    [35620,"2014-05-29T23:00:00","13","ND","ND","ND","ND","ND","0.7","139.2","20.8","88.6","0","0"],
    [35621,"2014-05-30T00:00:00","26","ND","ND","ND","ND","ND","0.2","89.3","20.9","88.2","0","0"],
    [35622,"2014-05-30T01:00:00","44","ND","ND","ND","ND","ND","0.3","326.5","20.9","89.4","0","0"],
    [35623,"2014-05-30T02:00:00","54","ND","ND","ND","ND","ND","0.6","35.9","20.6","91.5","0","0"],
    [35624,"2014-05-30T03:00:00","55","ND","ND","ND","ND","ND","0.7","38.9","20.1","94.1","0","0"],
    [35625,"2014-05-30T04:00:00","48","ND","ND","ND","ND","ND","0.4","66.8","20.2","93.7","0","0"],
    [35626,"2014-05-30T05:00:00","55","ND","ND","ND","ND","ND","0.3","132.5","20.5","92.2","0","0"],
    [35627,"2014-05-30T06:00:00","57","ND","ND","ND","ND","ND","0.4","11.6","20.5","92.1","0","0"],
    [35628,"2014-05-30T07:00:00","88","ND","ND","ND","ND","ND","0.5","24.9","20.5","91.9","13","0"],
    [35629,"2014-05-30T08:00:00","83","ND","ND","ND","ND","ND","0.2","354.5","21","91.5","116.4","0"],
    [35630,"2014-05-30T09:00:00","83","ND","ND","ND","ND","ND","0.5","62.1","22.7","80.7","254.9","0"],
    [35631,"2014-05-30T10:00:00","60","ND","ND","ND","ND","ND","0.6","1.4","24.9","69.3","580.5","0"],
    [35632,"2014-05-30T11:00:00","63","ND","ND","ND","ND","ND","1.1","35.4","26","64.6","558.6","0"],
    [35633,"2014-05-30T12:00:00","50","ND","ND","ND","ND","ND","1.3","87.7","26.5","62.1","379.6","0"],
    [35634,"2014-05-30T13:00:00","56","ND","ND","ND","ND","ND","1","17.5","27.2","59.9","473.6","0"],
    [35635,"2014-05-30T14:00:00","51","ND","ND","ND","ND","ND","1","69.1","28.7","55.2","742","0"],
    [35636,"2014-05-30T15:00:00","46","ND","ND","ND","ND","ND","1","99.1","29.1","54.1","338.3","0"],
    [35637,"2014-05-30T16:00:00","51","ND","ND","ND","ND","ND","1.5","37.4","28.5","55.8","269.8","0"],
    [35638,"2014-05-30T17:00:00","43","ND","ND","ND","ND","ND","0.8","317.1","28.4","56.1","118.2","0"],
    [35639,"2014-05-30T18:00:00","29","ND","ND","ND","ND","ND","1.1","266.5","28.1","58.9","48.3","0"],
    [35640,"2014-05-30T19:00:00","28","ND","ND","ND","ND","ND","1.5","250.5","26.9","61.5","0","0"],
    [35641,"2014-05-30T20:00:00","57","ND","ND","ND","ND","ND","0.6","285.7","25.7","67.7","0","0"],
    [35642,"2014-05-30T21:00:00","68","ND","ND","ND","ND","ND","0.3","108","25.2","70.7","0","0"],
    [35643,"2014-05-30T22:00:00","76","ND","ND","ND","ND","ND","0.4","52.1","24.9","74.7","0","0"],
    [35644,"2014-05-30T23:00:00","71","ND","ND","ND","ND","ND","0.2","32.8","24.3","76.6","0","0"],
    [35645,"2014-05-31T00:00:00","72","ND","ND","ND","ND","ND","0.5","244.3","23.8","82.7","0","0"],
    [35646,"2014-05-31T01:00:00","54","ND","ND","ND","ND","ND","0.3","182.4","23.1","86.6","0","2.54"],
    [35647,"2014-05-31T02:00:00","23","ND","ND","ND","ND","ND","0.4","165.8","22.3","91.2","0","2.29"],
    [35648,"2014-05-31T03:00:00","23","ND","ND","ND","ND","ND","0.2","165.1","22","93.9","0","0.51"],
    [35649,"2014-05-31T04:00:00","44","ND","ND","ND","ND","ND","0.4","218.1","22","94.8","0","0"],
    [35650,"2014-05-31T05:00:00","37","ND","ND","ND","ND","ND","0.2","44.7","21.9","95.4","0","0"],
    [35651,"2014-05-31T06:00:00","32","ND","ND","ND","ND","ND","0.1","99.7","21.7","95.2","0","0"],
    [35652,"2014-05-31T07:00:00","58","ND","ND","ND","ND","ND","0.1","211.2","21.9","95.2","58.5","0"],
    [35653,"2014-05-31T08:00:00","57","ND","ND","ND","ND","ND","0.3","104.2","23.2","90","174.9","0"],
    [35654,"2014-05-31T09:00:00","73","ND","ND","ND","ND","ND","0.6","105.3","23.8","84.5","165.2","0"],
    [35655,"2014-05-31T10:00:00","65","ND","ND","ND","ND","ND","0.5","120.2","25.1","77","346.5","0"],
    [35656,"2014-05-31T11:00:00","48","ND","ND","ND","ND","ND","0.5","90","26.3","70.2","322.2","0"],
    [35657,"2014-05-31T12:00:00","39","ND","ND","ND","ND","ND","0.9","358.3","26.7","66","380.9","0"],
    [35658,"2014-05-31T13:00:00","29","ND","ND","ND","ND","ND","1","21.7","28.5","57.4","687.9","0"],
    [35659,"2014-05-31T14:00:00","32","ND","ND","ND","ND","ND","0.6","66.9","29.8","52.4","719.1","0"],
    [35660,"2014-05-31T15:00:00","44","ND","ND","ND","ND","ND","0.9","297.6","31.2","49.2","594.5","0"],
    [35661,"2014-05-31T16:00:00","31","ND","ND","ND","ND","ND","0.7","201","31.8","47","490","0"],
    [35662,"2014-05-31T17:00:00","20","ND","ND","ND","ND","ND","1","286.5","30.7","49.3","167.6","0"],
    [35663,"2014-05-31T18:00:00","17","ND","ND","ND","ND","ND","1.1","257.5","29.1","53.4","58.2","0"],
    [35664,"2014-05-31T19:00:00","17","ND","ND","ND","ND","ND","0.6","231.3","27.8","56.4","0","0"],
    [35665,"2014-05-31T20:00:00","38","ND","ND","ND","ND","ND","0.9","101.4","27.3","59.1","0","0"],
    [35666,"2014-05-31T21:00:00","53","ND","ND","ND","ND","ND","1.4","138.6","26.6","62.5","0","0"],
    [35667,"2014-05-31T22:00:00","42","ND","ND","ND","ND","ND","0.4","85.4","25.3","69.7","0","0"],
    [35668,"2014-05-31T23:00:00","45","ND","ND","ND","ND","ND","0.8","179.8","24.6","72.7","0","0"],
    [35669,"2014-06-01T00:00:00","39","ND","ND","ND","ND","ND","0.1","159.7","24.2","75.3","0","0"],
    [35670,"2014-06-01T01:00:00","49","ND","ND","ND","ND","ND","0.3","43","23.9","76.4","0","0"],
    [35671,"2014-06-01T02:00:00","42","ND","ND","ND","ND","ND","0.4","326.5","23.2","78.9","0","0"],
    [35672,"2014-06-01T03:00:00","50","ND","ND","ND","ND","ND","0.9","0.3","22.8","82.1","0","0"],
    [35673,"2014-06-01T04:00:00","38","ND","ND","ND","ND","ND","0.2","10.3","22.6","84.1","0","0"],
    [35674,"2014-06-01T05:00:00","36","ND","ND","ND","ND","ND","0.3","158.4","22.8","84.3","0","0"],
    [35675,"2014-06-01T06:00:00","32","ND","ND","ND","ND","ND","0.1","256.4","22.5","85.4","0","0"],
    [35676,"2014-06-01T07:00:00","27","ND","ND","ND","ND","ND","0.7","244.1","22.5","86","27.3","0"],
    [35677,"2014-06-01T08:00:00","39","ND","ND","ND","ND","ND","0.3","155.7","23.4","82.5","94.9","0"],
    [35678,"2014-06-01T09:00:00","44","ND","ND","ND","ND","ND","0.5","146.4","24.8","76","300.7","0"],
    [35679,"2014-06-01T10:00:00","36","ND","ND","ND","ND","ND","0.7","144.4","25.8","69.6","350.6","0"],
    [35680,"2014-06-01T11:00:00","30","ND","ND","ND","ND","ND","0.8","75.6","27.4","63.3","602.2","0"],
    [35681,"2014-06-01T12:00:00","30","ND","ND","ND","ND","ND","1.3","184.7","28.2","59.1","468.7","0"],
    [35682,"2014-06-01T13:00:00","37","ND","ND","ND","ND","ND","0.3","138","29.3","55.5","563","0"],
    [35683,"2014-06-01T14:00:00","35","ND","ND","ND","ND","ND","0.6","22.5","29.8","53.2","368.9","0"],
    [35684,"2014-06-01T15:00:00","7","ND","ND","ND","ND","ND","2.8","258.7","30.6","48.9","602.7","0"],
    [35685,"2014-06-01T16:00:00","15","ND","ND","ND","ND","ND","2.7","261.1","30.6","47.6","452","0"],
    [35686,"2014-06-01T17:00:00","16","ND","ND","ND","ND","ND","2.5","261.7","30.2","48.3","274.4","0"],
    [35687,"2014-06-01T18:00:00","20","ND","ND","ND","ND","ND","1.7","267.9","29.2","50.3","73.1","0"],
    [35688,"2014-06-01T19:00:00","20","ND","ND","ND","ND","ND","0.3","158.6","27.9","55.2","0","0"],
    [35689,"2014-06-01T20:00:00","32","ND","ND","ND","ND","ND","1","45.8","26.4","65.6","0","0"],
    [35690,"2014-06-01T21:00:00","26","ND","ND","ND","ND","ND","1.1","95.7","25.4","70.8","0","0"],
    [35691,"2014-06-01T22:00:00","30","ND","ND","ND","ND","ND","0.8","38","24.8","71.7","0","0"],
    [35692,"2014-06-01T23:00:00","32","ND","ND","ND","ND","ND","0.8","147.3","24.1","74.6","0","0"],
    [35693,"2014-06-02T00:00:00","32","ND","ND","ND","ND","ND","0.6","210.8","24.1","75.4","0","0"],
    [35694,"2014-06-02T01:00:00","42","ND","ND","ND","ND","ND","0.1","239.9","24","76.1","0","0"],
    [35695,"2014-06-02T02:00:00","38","ND","ND","ND","ND","ND","0.6","29.1","23.4","80.8","0","0"],
    [35696,"2014-06-02T03:00:00","27","ND","ND","ND","ND","ND","0.5","57.1","23.1","83.3","0","0"],
    [35697,"2014-06-02T04:00:00","35","ND","ND","ND","ND","ND","0.7","14.2","22.4","86.5","0","0"],
    [35698,"2014-06-02T05:00:00","27","ND","ND","ND","ND","ND","0.7","357.4","22.1","89.2","0","0"],
    [35699,"2014-06-02T06:00:00","23","ND","ND","ND","ND","ND","0.4","127","22","90.5","0","0"],
    [35700,"2014-06-02T07:00:00","12","ND","ND","ND","ND","ND","1.3","141.4","21.6","94.2","0","11.43"],
    [35701,"2014-06-02T08:00:00","12","ND","ND","ND","ND","ND","1","182.4","20.8","98.8","20.3","25.91"],
    [35702,"2014-06-02T09:00:00","9","ND","ND","ND","ND","ND","1.1","172.9","21.3","99.6","119.9","0"],
    [35703,"2014-06-02T10:00:00","8","ND","ND","ND","ND","ND","0.4","149.8","22.9","89.6","192.9","0"],
    [35704,"2014-06-02T11:00:00","27","ND","ND","ND","ND","ND","0.7","46.2","24","82.9","334.5","0.25"],
    [35705,"2014-06-02T12:00:00","18","ND","ND","ND","ND","ND","0.9","170.1","25.6","73","533","0"],
    [35706,"2014-06-02T13:00:00","30","ND","ND","ND","ND","ND","0.8","134.7","27.3","65.9","513","0"],
    [35707,"2014-06-02T14:00:00","28","ND","ND","ND","ND","ND","0.2","2.6","27.6","63.5","305.4","0"],
    [35708,"2014-06-02T15:00:00","16","ND","ND","ND","ND","ND","1","216.2","27.9","59.9","327","0"],
    [35709,"2014-06-02T16:00:00","12","ND","ND","ND","ND","ND","0.9","263.1","28.8","54.9","390.3","0"],
    [35710,"2014-06-02T17:00:00","10","ND","ND","ND","ND","ND","1.5","304.7","28.9","51.9","294.2","0"],
    [35711,"2014-06-02T18:00:00","6","ND","ND","ND","ND","ND","1.1","269.2","27.7","55.5","74.2","0"],
    [35712,"2014-06-02T19:00:00","23","ND","ND","ND","ND","ND","1.1","119.1","26.4","65.7","0","0"],
    [35713,"2014-06-02T20:00:00","19","ND","ND","ND","ND","ND","1.2","164.2","24.7","74.6","0","0"],
    [35714,"2014-06-02T21:00:00","27","ND","ND","ND","ND","ND","0.2","244.7","23.6","80.5","0","0.25"],
    [35715,"2014-06-02T22:00:00","31","ND","ND","ND","ND","ND","0","195.4","23.2","82.9","0","0"],
    [35716,"2014-06-02T23:00:00","29","ND","ND","ND","ND","ND","0.4","300.9","22.9","83.9","0","0"],
    [35717,"2014-06-03T00:00:00","27","ND","ND","ND","ND","ND","0.2","286.3","22.8","84.4","0","0"],
    [35718,"2014-06-03T01:00:00","50","ND","ND","ND","ND","ND","0.2","241.1","22.9","82.6","0","0"],
    [35719,"2014-06-03T02:00:00","28","ND","ND","ND","ND","ND","0.2","75.7","22.6","84.3","0","0.25"],
    [35720,"2014-06-03T03:00:00","40","ND","ND","ND","ND","ND","0.4","324.5","21.7","91.2","0","0"],
    [35721,"2014-06-03T04:00:00","41","ND","ND","ND","ND","ND","0.3","246.6","21.8","92.3","0","0"],
    [35722,"2014-06-03T05:00:00","32","ND","ND","ND","ND","ND","0.5","235.2","21.9","91.4","0","0"],
    [35723,"2014-06-03T06:00:00","62","ND","ND","ND","ND","ND","0.1","112","22","91.2","0","0"],
    [35724,"2014-06-03T07:00:00","63","ND","ND","ND","ND","ND","0.3","13.8","22","89.5","32.2","0"],
    [35725,"2014-06-03T08:00:00","70","ND","ND","ND","ND","ND","0.4","26.2","22.8","86.3","103.3","0"],
    [35726,"2014-06-03T09:00:00","73","ND","ND","ND","ND","ND","1.1","56.8","24.1","81.1","363.6","0"],
    [35727,"2014-06-03T10:00:00","48","ND","ND","ND","ND","ND","0.6","75.7","25.9","69.5","498","0"],
    [35728,"2014-06-03T11:00:00","48","ND","ND","ND","ND","ND","0.6","125.9","26.9","66.2","312.7","0"],
    [35729,"2014-06-03T12:00:00","52","ND","ND","ND","ND","ND","0.9","269.9","27.1","65.9","323.2","0"],
    [35730,"2014-06-03T13:00:00","59","ND","ND","ND","ND","ND","1","15.5","28.1","60.5","388.7","0"],
    [35731,"2014-06-03T14:00:00","32","ND","ND","ND","ND","ND","1.8","3.2","28.3","57.2","379.2","0"],
    [35732,"2014-06-03T15:00:00","7","ND","ND","ND","ND","ND","0.3","273.3","29.3","50.9","451.5","0"],
    [35733,"2014-06-03T16:00:00","8","ND","ND","ND","ND","ND","2","256.2","30.4","48.2","390.2","0"],
    [35734,"2014-06-03T17:00:00","15","ND","ND","ND","ND","ND","2.3","271","29.6","49.7","231.2","0"],
    [35735,"2014-06-03T18:00:00","18","ND","ND","ND","ND","ND","1.5","249.7","28.5","52.3","90.6","0"],
    [35736,"2014-06-03T19:00:00","ND","ND","ND","ND","ND","ND","0.7","228.7","27.7","53.9","0","0"],
    [35737,"2014-06-03T20:00:00","ND","ND","ND","ND","ND","ND","0.5","156.2","26.9","56.9","0","0"],
    [35738,"2014-06-03T21:00:00","37","ND","ND","ND","ND","ND","0.4","79.2","25.2","66.1","0","0"],
    [35739,"2014-06-03T22:00:00","35","ND","ND","ND","ND","ND","0","318","24.2","72.3","0","0"],
    [35740,"2014-06-03T23:00:00","44","ND","ND","ND","ND","ND","0.2","333.4","23.6","74.1","0","0"],
    [35741,"2014-06-04T00:00:00","39","ND","ND","ND","ND","ND","0.3","259.9","23.6","74.5","0","0"],
    [35742,"2014-06-04T01:00:00","48","ND","ND","ND","ND","ND","0.3","301.9","23.5","75","0","0"],
    [35743,"2014-06-04T02:00:00","42","ND","ND","ND","ND","ND","0.2","84.2","23.2","76.8","0","0"],
    [35744,"2014-06-04T03:00:00","36","ND","ND","ND","ND","ND","0.4","251.9","23.1","78.7","0","0"],
    [35745,"2014-06-04T04:00:00","134","ND","ND","ND","ND","ND","0.3","51.1","23.1","78.6","0","0"],
    [35746,"2014-06-04T05:00:00","47","ND","ND","ND","ND","ND","0.2","280.9","22.9","80.1","0","0"],
    [35747,"2014-06-04T06:00:00","45","ND","ND","ND","ND","ND","0.3","275.6","22.8","80.7","0","0"],
    [35748,"2014-06-04T07:00:00","87","ND","ND","ND","ND","ND","0.2","16.8","22.8","82.2","24.8","0"],
    [35749,"2014-06-04T08:00:00","117","ND","ND","ND","ND","ND","0.3","11.1","23.5","79.5","124.7","0"],
    [35750,"2014-06-04T09:00:00","98","ND","ND","ND","ND","ND","0.5","3.3","25.4","70.9","344.1","0"],
    [35751,"2014-06-04T10:00:00","91","ND","ND","ND","ND","ND","1.3","45","26","70.2","305.6","0"],
    [35752,"2014-06-04T11:00:00","73","ND","ND","ND","ND","ND","1","259.5","26","69.5","141.6","0"],
    [35753,"2014-06-04T12:00:00","72","ND","ND","ND","ND","ND","1.1","242.1","26.8","65.9","263.4","0"],
    [35754,"2014-06-04T13:00:00","63","ND","ND","ND","ND","ND","0.4","124.7","28.3","59.5","365.8","0"],
    [35755,"2014-06-04T14:00:00","43","ND","ND","ND","ND","ND","0.3","340.6","28.8","57.6","363.4","0"],
    [35756,"2014-06-04T15:00:00","34","ND","ND","ND","ND","ND","1.1","36.1","29.7","52.6","518.7","0"],
    [35757,"2014-06-04T16:00:00","32","ND","ND","ND","ND","ND","0.7","305.9","29.8","51.9","271.5","0"],
    [35758,"2014-06-04T17:00:00","16","ND","ND","ND","ND","ND","2.5","257.9","29.5","51.4","210.2","0"],
    [35759,"2014-06-04T18:00:00","50","ND","ND","ND","ND","ND","2","245.7","28.6","54","66.4","0"],
    [35760,"2014-06-04T19:00:00","38","ND","ND","ND","ND","ND","0.6","234","27.4","57.6","0","0"],
    [35761,"2014-06-04T20:00:00","40","ND","ND","ND","ND","ND","0.3","105.4","26.5","61","0","0"],
    [35762,"2014-06-04T21:00:00","ND","ND","ND","ND","ND","ND","0.3","255.9","25.8","65.7","0","0"],
    [35763,"2014-06-04T22:00:00","41","ND","ND","ND","ND","ND","0.3","124.2","25","69.9","0","0"],
    [35764,"2014-06-04T23:00:00","45","ND","ND","ND","ND","ND","0.6","200.8","24.8","72.5","0","0"],
    [35765,"2014-06-05T00:00:00","73","ND","ND","ND","ND","ND","0.4","117.5","24.1","75.3","0","0"],
    [35766,"2014-06-05T01:00:00","72","ND","ND","ND","ND","ND","0.3","172.7","23.9","76.5","0","0"],
    [35767,"2014-06-05T02:00:00","45","ND","ND","ND","ND","ND","0.6","23.7","23.4","78.9","0","0"],
    [35768,"2014-06-05T03:00:00","48","ND","ND","ND","ND","ND","0.3","184.6","23.3","79.1","0","0"],
    [35769,"2014-06-05T04:00:00","31","ND","ND","ND","ND","ND","0.2","189.6","23.3","78.2","0","0"],
    [35770,"2014-06-05T05:00:00","36","ND","ND","ND","ND","ND","0.3","7.2","22.4","81.8","0","0"],
    [35771,"2014-06-05T06:00:00","51","ND","ND","ND","ND","ND","0.2","245.4","21.9","85","0","0"],
    [35772,"2014-06-05T07:00:00","73","ND","ND","ND","ND","ND","0.1","290.7","22.1","84.6","30.8","0"],
    [35773,"2014-06-05T08:00:00","125","ND","ND","ND","ND","ND","1","12.6","23.1","78.4","105.9","0"],
    [35774,"2014-06-05T09:00:00","108","ND","ND","ND","ND","ND","1.1","43.7","23.9","77.1","223.5","0"],
    [35775,"2014-06-05T10:00:00","47","ND","ND","ND","ND","ND","1.2","46","24.9","72.3","343.6","0"],
    [35776,"2014-06-05T11:00:00","52","ND","ND","ND","ND","ND","0.8","109.9","26.4","65.1","461.5","0"],
    [35777,"2014-06-05T12:00:00","59","ND","ND","ND","ND","ND","0.6","91.3","28.1","59.5","629.1","0"],
    [35778,"2014-06-05T13:00:00","58","ND","ND","ND","ND","ND","0.8","44.1","29.3","55.7","521.1","0"],
    [35779,"2014-06-05T14:00:00","57","ND","ND","ND","ND","ND","1.1","101.1","29.7","53.9","308.4","0"],
    [35780,"2014-06-05T15:00:00","45","ND","ND","ND","ND","ND","0.7","223.1","29.9","52.7","264.5","0"],
    [35781,"2014-06-05T16:00:00","30","ND","ND","ND","ND","ND","1.4","224.5","30.1","51","254.4","0"],
    [35782,"2014-06-05T17:00:00","16","ND","ND","ND","ND","ND","2.7","253.3","30.1","49.7","244.2","0"],
    [35783,"2014-06-05T18:00:00","23","ND","ND","ND","ND","ND","1.5","258.5","29.1","51.2","35.1","0"],
    [35784,"2014-06-05T19:00:00","17","ND","ND","ND","ND","ND","1","280.7","28","53.9","0","0"],
    [35785,"2014-06-05T20:00:00","45","ND","ND","ND","ND","ND","1.3","27.5","25.9","68.8","0","0"],
    [35786,"2014-06-05T21:00:00","46","ND","ND","ND","ND","ND","0.5","51.9","24.2","83.2","0","0"],
    [35787,"2014-06-05T22:00:00","61","ND","ND","ND","ND","ND","0.3","23.9","24","83.9","0","0"],
    [35788,"2014-06-05T23:00:00","54","ND","ND","ND","ND","ND","0.2","266.6","24.1","83.7","0","0"],
    [35789,"2014-06-06T00:00:00","51","ND","ND","ND","ND","ND","0.7","185.5","24.4","81.9","0","0"],
    [35790,"2014-06-06T01:00:00","44","ND","ND","ND","ND","ND","0.7","193.7","24.1","80.7","0","11.18"],
    [35791,"2014-06-06T02:00:00","37","ND","ND","ND","ND","ND","0.6","352.1","22.6","91.8","0","0.25"],
    [35792,"2014-06-06T03:00:00","47","ND","ND","ND","ND","ND","0.4","260.7","22.5","93.3","0","0.25"],
    [35793,"2014-06-06T04:00:00","56","ND","ND","ND","ND","ND","0.1","326.7","22.6","93","0","0.25"],
    [35794,"2014-06-06T05:00:00","40","ND","ND","ND","ND","ND","0.3","258.9","22.4","93.5","0","0"],
    [35795,"2014-06-06T06:00:00","59","ND","ND","ND","ND","ND","0.3","284.1","22.2","93.5","0","0"],
    [35796,"2014-06-06T07:00:00","59","ND","ND","ND","ND","ND","0.1","347.2","22.5","92.9","36.8","0"],
    [35797,"2014-06-06T08:00:00","93","ND","ND","ND","ND","ND","0.5","29.2","22.7","91.8","69.7","0"],
    [35798,"2014-06-06T09:00:00","96","ND","ND","ND","ND","ND","0.8","41.1","23.8","86","184.7","0"],
    [35799,"2014-06-06T10:00:00","75","ND","ND","ND","ND","ND","0.6","67.2","24.5","80.3","210.1","0"],
    [35800,"2014-06-06T11:00:00","70","ND","ND","ND","ND","ND","0.7","171","25.8","70.5","312.6","0"],
    [35801,"2014-06-06T12:00:00","45","ND","ND","ND","ND","ND","1.1","114","27.5","60.8","625.1","0"],
    [35802,"2014-06-06T13:00:00","47","ND","ND","ND","ND","ND","1.3","139.3","28.7","54.7","500.3","0"],
    [35803,"2014-06-06T14:00:00","45","ND","ND","ND","ND","ND","0.5","86.4","29.1","55.8","451.7","0"],
    [35804,"2014-06-06T15:00:00","73","ND","ND","ND","ND","ND","0.6","283.3","29.9","53.8","428.8","0"],
    [35805,"2014-06-06T16:00:00","54","ND","ND","ND","ND","ND","1","349.2","29.5","55.6","236.6","0"],
    [35806,"2014-06-06T17:00:00","16","ND","ND","ND","ND","ND","1.9","268.7","29.5","53","253","0"],
    [35807,"2014-06-06T18:00:00","20","ND","ND","ND","ND","ND","1.9","225.8","27.8","58.7","30.2","0"],
    [35808,"2014-06-06T19:00:00","88","ND","ND","ND","ND","ND","0.2","149.6","27.3","60.3","0","0"],
    [35809,"2014-06-06T20:00:00","49","ND","ND","ND","ND","ND","0.9","179.7","26.5","62.5","0","0"],
    [35810,"2014-06-06T21:00:00","45","ND","ND","ND","ND","ND","0.6","67.7","26","67.1","0","0"],
    [35811,"2014-06-06T22:00:00","42","ND","ND","ND","ND","ND","0.4","326.6","25.1","72.9","0","0"],
    [35812,"2014-06-06T23:00:00","53","ND","ND","ND","ND","ND","0.2","104.9","24.8","74.2","0","0"],
    [35813,"2014-06-07T00:00:00","48","ND","ND","ND","ND","ND","0.4","205.6","24.6","75.4","0","0"],
    [35814,"2014-06-07T01:00:00","45","ND","ND","ND","ND","ND","0.5","198.5","24.3","77","0","0"],
    [35815,"2014-06-07T02:00:00","47","ND","ND","ND","ND","ND","0.3","273.7","23.9","78.5","0","0"],
    [35816,"2014-06-07T03:00:00","49","ND","ND","ND","ND","ND","0.4","306","23.6","80","0","0"],
    [35817,"2014-06-07T04:00:00","85","ND","ND","ND","ND","ND","0.3","338.2","23.2","82.9","0","0"],
    [35818,"2014-06-07T05:00:00","61","ND","ND","ND","ND","ND","0.7","330.5","22.5","87.6","0","0"],
    [35819,"2014-06-07T06:00:00","80","ND","ND","ND","ND","ND","0.3","49.2","22.5","87.8","0","0"],
    [35820,"2014-06-07T07:00:00","72","ND","ND","ND","ND","ND","0.4","251.3","22.4","88.1","16.1","0"],
    [35821,"2014-06-07T08:00:00","51","ND","ND","ND","ND","ND","0.7","197.2","22.9","86.2","91.7","0"],
    [35822,"2014-06-07T09:00:00","56","ND","ND","ND","ND","ND","0.9","130.1","24.7","75","317.8","0"],
    [35823,"2014-06-07T10:00:00","41","ND","ND","ND","ND","ND","1.7","101.4","26","70.3","445.2","0"],
    [35824,"2014-06-07T11:00:00","35","ND","ND","ND","ND","ND","0.8","100.7","26.2","67.4","367.6","0"],
    [35825,"2014-06-07T12:00:00","43","ND","ND","ND","ND","ND","0.4","209.5","27.7","61","360.1","0"],
    [35826,"2014-06-07T13:00:00","63","ND","ND","ND","ND","ND","0.8","300.2","28.4","58.6","413.5","0"],
    [35827,"2014-06-07T14:00:00","46","ND","ND","ND","ND","ND","0.3","39.3","29.2","54.9","492.4","0"],
    [35828,"2014-06-07T15:00:00","29","ND","ND","ND","ND","ND","0.2","251.3","29.4","52","206.6","0"],
    [35829,"2014-06-07T16:00:00","26","ND","ND","ND","ND","ND","0.3","257.6","27.7","60.3","109.4","0.25"],
    [35830,"2014-06-07T17:00:00","25","ND","ND","ND","ND","ND","0.7","60.7","26.3","68.8","99.7","0.25"],
    [35831,"2014-06-07T18:00:00","38","ND","ND","ND","ND","ND","1.3","37","25.5","69.1","9.7","0"],
    [35832,"2014-06-07T19:00:00","33","ND","ND","ND","ND","ND","1","20.7","23","86.5","0","1.02"],
    [35833,"2014-06-07T20:00:00","ND","ND","ND","ND","ND","ND","0.7","70.3","22.4","92.1","0","1.27"],
    [35834,"2014-06-07T21:00:00","14","ND","ND","ND","ND","ND","0.4","61.3","22.1","92.5","0","0.51"],
    [35835,"2014-06-07T22:00:00","23","ND","ND","ND","ND","ND","1.5","154.7","22.5","91","0","0"],
    [35836,"2014-06-07T23:00:00","21","ND","ND","ND","ND","ND","0.7","171","22.5","89.1","0","0.25"],
    [35837,"2014-06-08T00:00:00","10","ND","ND","ND","ND","ND","0.3","225.5","22.5","89.1","0","0.25"],
    [35838,"2014-06-08T01:00:00","17","ND","ND","ND","ND","ND","0.2","159.9","22.5","87.6","0","0"],
    [35839,"2014-06-08T02:00:00","14","ND","ND","ND","ND","ND","0.2","350.9","22.2","89.2","0","0"],
    [35840,"2014-06-08T03:00:00","24","ND","ND","ND","ND","ND","0.3","18.7","22.1","90.4","0","0"],
    [35841,"2014-06-08T04:00:00","25","ND","ND","ND","ND","ND","0.4","56.8","21.8","92.5","0","0"],
    [35842,"2014-06-08T05:00:00","18","ND","ND","ND","ND","ND","0.3","17.2","21.9","93","0","0"],
    [35843,"2014-06-08T06:00:00","38","ND","ND","ND","ND","ND","0.5","32.1","21.7","94.7","0","0"],
    [35844,"2014-06-08T07:00:00","31","ND","ND","ND","ND","ND","0.8","35.5","21.6","96.1","4.9","7.87"],
    [35845,"2014-06-08T08:00:00","27","ND","ND","ND","ND","ND","0.3","281.2","21.4","98.3","15.9","4.32"],
    [35846,"2014-06-08T09:00:00","18","ND","ND","ND","ND","ND","0.6","0.6","21.3","98.1","60.8","1.02"],
    [35847,"2014-06-08T10:00:00","14","ND","ND","ND","ND","ND","0","175.6","22.4","93.1","273.9","0"],
    [35848,"2014-06-08T11:00:00","18","ND","ND","ND","ND","ND","0.8","110.7","25.3","75.6","734","0"],
    [35849,"2014-06-08T12:00:00","14","ND","ND","ND","ND","ND","0.5","151.3","27.3","63.9","765.8","0"],
    [35850,"2014-06-08T13:00:00","20","ND","ND","ND","ND","ND","0.4","53.5","28.1","60.5","545.2","0"],
    [35851,"2014-06-08T14:00:00","19","ND","ND","ND","ND","ND","1.2","30","28.8","58.7","689.2","0"],
    [35852,"2014-06-08T15:00:00","25","ND","ND","ND","ND","ND","1.2","58.8","29","57.7","374.7","0"],
    [35853,"2014-06-08T16:00:00","17","ND","ND","ND","ND","ND","0.8","10.7","28.6","58.6","209.9","0"],
    [35854,"2014-06-08T17:00:00","153","ND","ND","ND","ND","ND","2.1","252","29","55.8","258.1","0"],
    [35855,"2014-06-08T18:00:00","15","ND","ND","ND","ND","ND","1.3","247.9","28.2","57.6","97.1","0"],
    [35856,"2014-06-08T19:00:00","11","ND","ND","ND","ND","ND","0.7","270.1","26.6","62","0","0"],
    [35857,"2014-06-08T20:00:00","27","ND","ND","ND","ND","ND","0.1","190.8","26.2","65.1","0","0"],
    [35858,"2014-06-08T21:00:00","53","ND","ND","ND","ND","ND","0.7","103.7","26","65","0","0"],
    [35859,"2014-06-08T22:00:00","32","ND","ND","ND","ND","ND","0.6","242.7","25.3","68.7","0","0"],
    [35860,"2014-06-08T23:00:00","32","ND","ND","ND","ND","ND","0.3","129.9","24.7","72.9","0","0"],
    [35861,"2014-06-09T00:00:00","50","ND","ND","ND","ND","ND","0.2","35.2","24.1","75.1","0","0"],
    [35862,"2014-06-09T01:00:00","40","ND","ND","ND","ND","ND","0.3","177.1","23.7","76","0","0"],
    [35863,"2014-06-09T02:00:00","27","ND","ND","ND","ND","ND","0.7","71.1","22.7","83.4","0","0.51"],
    [35864,"2014-06-09T03:00:00","19","ND","ND","ND","ND","ND","0.4","342.8","21.6","92.8","0","2.29"],
    [35865,"2014-06-09T04:00:00","ND","ND","ND","ND","ND","ND","0.9","17.4","21.4","93.9","0","0.25"],
    [35866,"2014-06-09T05:00:00","31","ND","ND","ND","ND","ND","0.1","274.5","21.3","93.4","0","0"],
    [35867,"2014-06-09T06:00:00","37","ND","ND","ND","ND","ND","0.5","226.2","21.2","93.5","0","0"],
    [35868,"2014-06-09T07:00:00","33","ND","ND","ND","ND","ND","0.2","218.8","21.7","91.8","32.1","0"],
    [35869,"2014-06-09T08:00:00","65","ND","ND","ND","ND","ND","0.5","12.5","23","86.3","155.4","0"],
    [35870,"2014-06-09T09:00:00","82","ND","ND","ND","ND","ND","0.6","74.8","24.2","78.9","299","0"],
    [35871,"2014-06-09T10:00:00","55","ND","ND","ND","ND","ND","0.8","137.7","25.8","71","460.2","0"],
    [35872,"2014-06-09T11:00:00","53","ND","ND","ND","ND","ND","1","126.6","26.4","67.6","260.4","0"],
    [35873,"2014-06-09T12:00:00","40","ND","ND","ND","ND","ND","0.7","254.5","26.9","65.7","272.4","0"],
    [35874,"2014-06-09T13:00:00","54","ND","ND","ND","ND","ND","0.7","31.8","27.6","62.2","497.9","0"],
    [35875,"2014-06-09T14:00:00","44","ND","ND","ND","ND","ND","1.3","49.8","29","59","692.6","0"],
    [35876,"2014-06-09T15:00:00","26","ND","ND","ND","ND","ND","1.7","45.8","29.5","55.8","525.3","0"],
    [35877,"2014-06-09T16:00:00","21","ND","ND","ND","ND","ND","1.4","276.7","29.6","51.4","185","0"],
    [35878,"2014-06-09T17:00:00","16","ND","ND","ND","ND","ND","1.6","270.1","28.9","51.9","158.3","0"],
    [35879,"2014-06-09T18:00:00","14","ND","ND","ND","ND","ND","0.8","261.2","28.7","52.5","69.6","0"],
    [35880,"2014-06-09T19:00:00","21","ND","ND","ND","ND","ND","0.7","258.2","26.8","57.4","0","0"],
    [35881,"2014-06-09T20:00:00","64","ND","ND","ND","ND","ND","0.4","97.6","26.3","59.7","0","0"],
    [35882,"2014-06-09T21:00:00","110","ND","ND","ND","ND","ND","0.3","226.4","25.1","66.8","0","0"],
    [35883,"2014-06-09T22:00:00","46","ND","ND","ND","ND","ND","0.5","152.6","24.3","71","0","0"],
    [35884,"2014-06-09T23:00:00","39","ND","ND","ND","ND","ND","0.2","225.7","23.2","76.9","0","0"],
    [35885,"2014-06-10T00:00:00","40","ND","ND","ND","ND","ND","0.3","272.3","22.5","79.8","0","0"],
    [35886,"2014-06-10T01:00:00","35","ND","ND","ND","ND","ND","0.1","200.2","22.6","79.5","0","0"],
    [35887,"2014-06-10T02:00:00","40","ND","ND","ND","ND","ND","0.1","212.5","23","79.1","0","0"],
    [35888,"2014-06-10T03:00:00","142","ND","ND","ND","ND","ND","0.5","32.3","22.4","82.9","0","0"],
    [35889,"2014-06-10T04:00:00","58","ND","ND","ND","ND","ND","0.7","213.8","22.2","84.2","0","0"],
    [35890,"2014-06-10T05:00:00","40","ND","ND","ND","ND","ND","0.2","289.9","22.2","82.8","0","0"],
    [35891,"2014-06-10T06:00:00","74","ND","ND","ND","ND","ND","0.6","11.8","21.9","85.7","0","0"],
    [35892,"2014-06-10T07:00:00","75","ND","ND","ND","ND","ND","0.4","248.9","21.7","87.3","25","0"],
    [35893,"2014-06-10T08:00:00","56","ND","ND","ND","ND","ND","1.1","142.4","24","74.3","163.4","0"],
    [35894,"2014-06-10T09:00:00","83","ND","ND","ND","ND","ND","0.7","75.7","24.8","73.7","296.4","0"],
    [35895,"2014-06-10T10:00:00","81","ND","ND","ND","ND","ND","0.1","69.3","26.6","65.7","441.8","0"],
    [35896,"2014-06-10T11:00:00","78","ND","ND","ND","ND","ND","0.9","65.1","28","61.2","716.6","0"],
    [35897,"2014-06-10T12:00:00","87","ND","ND","ND","ND","ND","0.8","114.5","28.3","58.9","343.6","0"],
    [35898,"2014-06-10T13:00:00","61","ND","ND","ND","ND","ND","1.2","114.7","29.1","54.8","537.3","0"],
    [35899,"2014-06-10T14:00:00","49","ND","ND","ND","ND","ND","0.8","11.6","30.5","51.5","608","0"],
    [35900,"2014-06-10T15:00:00","42","ND","ND","ND","ND","ND","1.1","327.7","31.3","49.7","607.6","0"],
    [35901,"2014-06-10T16:00:00","25","ND","ND","ND","ND","ND","1.1","31.1","31.2","49.4","366.4","0"],
    [35902,"2014-06-10T17:00:00","23","ND","ND","ND","ND","ND","1.9","260.3","30.8","49.2","189","0"],
    [35903,"2014-06-10T18:00:00","27","ND","ND","ND","ND","ND","1.9","250.7","29.3","52.1","39.2","0"],
    [35904,"2014-06-10T19:00:00","49","ND","ND","ND","ND","ND","0.3","80","27.2","67.4","6.4","0"],
    [35905,"2014-06-10T20:00:00","49","ND","ND","ND","ND","ND","0.4","166.5","26.5","68.9","0","0"],
    [35906,"2014-06-10T21:00:00","52","ND","ND","ND","ND","ND","0.4","12.3","25.9","70.4","0","0"],
    [35907,"2014-06-10T22:00:00","55","ND","ND","ND","ND","ND","0.3","24.3","25.6","69.9","0","0"],
    [35908,"2014-06-10T23:00:00","59","ND","ND","ND","ND","ND","0.4","36.3","25","72.3","0","0"],
    [35909,"2014-06-11T00:00:00","52","ND","ND","ND","ND","ND","0.7","39.7","24.1","73","0","0"],
    [35910,"2014-06-11T01:00:00","52","ND","ND","ND","ND","ND","0.7","52.3","23.3","79","0","0"],
    [35911,"2014-06-11T02:00:00","37","ND","ND","ND","ND","ND","0.5","12.6","23","79.9","0","0"],
    [35912,"2014-06-11T03:00:00","37","ND","ND","ND","ND","ND","0.2","268","23","81.9","0","0"],
    [35913,"2014-06-11T04:00:00","33","ND","ND","ND","ND","ND","0.2","164.4","22.6","83.3","0","0"],
    [35914,"2014-06-11T05:00:00","32","ND","ND","ND","ND","ND","0.2","101.2","22.4","83.4","0","0"],
    [35915,"2014-06-11T06:00:00","51","ND","ND","ND","ND","ND","0","209.3","21.6","86.6","0","0"],
    [35916,"2014-06-11T07:00:00","64","ND","ND","ND","ND","ND","0.3","322.2","21.5","86.5","31.8","0"],
    [35917,"2014-06-11T08:00:00","84","ND","ND","ND","ND","ND","0.2","132.6","23","79","146.7","0"],
    [35918,"2014-06-11T09:00:00","89","ND","ND","ND","ND","ND","0.4","133","24.5","72.4","303.2","0"],
    [35919,"2014-06-11T10:00:00","74","ND","ND","ND","ND","ND","1.3","48.8","26.1","67.2","576","0"],
    [35920,"2014-06-11T11:00:00","42","ND","ND","ND","ND","ND","1.5","54.3","27.9","59.9","686.1","0"],
    [35921,"2014-06-11T12:00:00","45","ND","ND","ND","ND","ND","1.6","59.7","29.1","54.8","767.9","0"],
    [35922,"2014-06-11T13:00:00","47","ND","ND","ND","ND","ND","1.8","70.5","30.2","51.4","696.1","0"],
    [35923,"2014-06-11T14:00:00","43","ND","ND","ND","ND","ND","0.3","74","31.8","47.9","708.3","0"],
    [35924,"2014-06-11T15:00:00","46","ND","ND","ND","ND","ND","1.5","22.4","32.2","47","537.6","0"],
    [35925,"2014-06-11T16:00:00","21","ND","ND","ND","ND","ND","2.1","288.1","32.4","43.8","504.7","0"],
    [35926,"2014-06-11T17:00:00","21","ND","ND","ND","ND","ND","2.2","278.8","31.9","45.1","293.7","0"],
    [35927,"2014-06-11T18:00:00","20","ND","ND","ND","ND","ND","1.3","284.6","30.3","47.4","83.8","0"],
    [35928,"2014-06-11T19:00:00","28","ND","ND","ND","ND","ND","0.4","217.3","29.3","49.3","0","0"],
    [35929,"2014-06-11T20:00:00","72","ND","ND","ND","ND","ND","0.4","86.7","28.4","52.6","0","0"],
    [35930,"2014-06-11T21:00:00","55","ND","ND","ND","ND","ND","0.4","171.5","27.7","56.1","0","0"],
    [35931,"2014-06-11T22:00:00","89","ND","ND","ND","ND","ND","0.2","352.7","26.3","62.5","0","0"],
    [35932,"2014-06-11T23:00:00","48","ND","ND","ND","ND","ND","0.1","256.2","25.3","68.3","0","0"],
    [35933,"2014-06-12T00:00:00","93","ND","ND","ND","ND","ND","0.3","121.2","24.8","72.6","0","0"],
    [35934,"2014-06-12T01:00:00","48","ND","ND","ND","ND","ND","0.4","168.2","24.1","76.1","0","0"],
    [35935,"2014-06-12T02:00:00","50","ND","ND","ND","ND","ND","0.4","287","23.2","79.4","0","0"],
    [35936,"2014-06-12T03:00:00","44","ND","ND","ND","ND","ND","0.2","266.1","22.9","81.4","0","0"],
    [35937,"2014-06-12T04:00:00","33","ND","ND","ND","ND","ND","0.3","245.5","23.1","78.6","0","0"],
    [35938,"2014-06-12T05:00:00","36","ND","ND","ND","ND","ND","0.3","41.7","23.5","75.4","0","0"],
    [35939,"2014-06-12T06:00:00","73","ND","ND","ND","ND","ND","1","14.5","22.1","86.1","0","0"],
    [35940,"2014-06-12T07:00:00","92","ND","ND","ND","ND","ND","0.4","310","22.2","85.9","24.2","0"],
    [35941,"2014-06-12T08:00:00","119","ND","ND","ND","ND","ND","1","54.2","23.6","79.1","167.1","0"],
    [35942,"2014-06-12T09:00:00","81","ND","ND","ND","ND","ND","1.1","52.8","25.6","71.2","377.9","0"],
    [35943,"2014-06-12T10:00:00","51","ND","ND","ND","ND","ND","0.6","47.9","27.3","63.6","560.8","0"],
    [35944,"2014-06-12T11:00:00","41","ND","ND","ND","ND","ND","1.4","112.5","28.6","57.7","688.8","0"],
    [35945,"2014-06-12T12:00:00","39","ND","ND","ND","ND","ND","0.7","35","29.8","53","689.6","0"],
    [35946,"2014-06-12T13:00:00","63","ND","ND","ND","ND","ND","1.1","2.2","31.1","50.3","675.1","0"],
    [35947,"2014-06-12T14:00:00","146","ND","ND","ND","ND","ND","1.7","359.9","32.2","46.9","654.7","0"],
    [35948,"2014-06-12T15:00:00","20","ND","ND","ND","ND","ND","2.2","306.2","31.6","46.1","309","0"],
    [35949,"2014-06-12T16:00:00","26","ND","ND","ND","ND","ND","2.3","274","31.2","47.9","318.1","0"],
    [35950,"2014-06-12T17:00:00","16","ND","ND","ND","ND","ND","2.1","261.4","31.2","46.7","190.3","0"],
    [35951,"2014-06-12T18:00:00","22","ND","ND","ND","ND","ND","0.7","257.1","29.8","49.6","22.5","0"],
    [35952,"2014-06-12T19:00:00","22","ND","ND","ND","ND","ND","0.3","246.7","29.1","51.3","0","0"],
    [35953,"2014-06-12T20:00:00","44","ND","ND","ND","ND","ND","0.5","117.3","28.5","53.3","0","0"],
    [35954,"2014-06-12T21:00:00","40","ND","ND","ND","ND","ND","0.1","143.7","27.7","57.5","0","0"],
    [35955,"2014-06-12T22:00:00","86","ND","ND","ND","ND","ND","0.6","59.3","26.2","65.1","0","0"],
    [35956,"2014-06-12T23:00:00","24","ND","ND","ND","ND","ND","0.5","174.4","25.5","68","0","0"],
    [35957,"2014-06-13T00:00:00","40","ND","ND","ND","ND","ND","0.4","176.3","25.2","69.1","0","0"],
    [35958,"2014-06-13T01:00:00","33","ND","ND","ND","ND","ND","0.8","251.1","24.7","70.1","0","0"],
    [35959,"2014-06-13T02:00:00","36","ND","ND","ND","ND","ND","0.3","281.9","24.1","71.5","0","0"],
    [35960,"2014-06-13T03:00:00","17","ND","ND","ND","ND","ND","0.2","268.8","24","72.9","0","0"],
    [35961,"2014-06-13T04:00:00","27","ND","ND","ND","ND","ND","0.5","24.3","23.5","76.9","0","0"],
    [35962,"2014-06-13T05:00:00","46","ND","ND","ND","ND","ND","0.3","295.6","23","81.2","0","0"],
    [35963,"2014-06-13T06:00:00","50","ND","ND","ND","ND","ND","0.4","274.1","23.1","80.1","0","0"],
    [35964,"2014-06-13T07:00:00","76","ND","ND","ND","ND","ND","0.4","324","23.1","79.8","30.9","0"],
    [35965,"2014-06-13T08:00:00","104","ND","ND","ND","ND","ND","0.1","230.1","24.2","76","135.8","0"],
    [35966,"2014-06-13T09:00:00","109","ND","ND","ND","ND","ND","0.8","44.2","25.3","72.6","246.4","0"],
    [35967,"2014-06-13T10:00:00","78","ND","ND","ND","ND","ND","0.9","134.4","26.6","66.5","459.8","0"],
    [35968,"2014-06-13T11:00:00","62","ND","ND","ND","ND","ND","1.3","124.5","28.2","58.2","724","0"],
    [35969,"2014-06-13T12:00:00","47","ND","ND","ND","ND","ND","1.4","90.9","29.5","53.4","523.7","0"],
    [35970,"2014-06-13T13:00:00","68","ND","ND","ND","ND","ND","1.6","95.7","29.3","56.3","381.2","0"],
    [35971,"2014-06-13T14:00:00","ND","ND","ND","ND","ND","ND","ND","ND","ND","ND","ND","ND"],
    [35972,"2014-06-13T15:00:00","ND","ND","ND","ND","ND","ND","ND","ND","ND","ND","ND","ND"],
    [35973,"2014-06-13T16:00:00","ND","ND","ND","ND","ND","ND","ND","ND","ND","ND","ND","ND"],
    [35974,"2014-06-13T17:00:00","ND","ND","ND","ND","ND","ND","ND","ND","ND","ND","ND","ND"],
    [35975,"2014-06-13T18:00:00","ND","ND","ND","ND","ND","ND","ND","ND","ND","ND","ND","ND"],
    [35976,"2014-06-13T19:00:00","ND","ND","ND","ND","ND","ND","ND","ND","ND","ND","ND","ND"],
    [35977,"2014-06-13T20:00:00","ND","ND","ND","ND","ND","ND","ND","ND","ND","ND","ND","ND"],
    [35978,"2014-06-13T21:00:00","ND","ND","ND","ND","ND","ND","ND","ND","ND","ND","ND","ND"],
    [35979,"2014-06-13T22:00:00","ND","ND","ND","ND","ND","ND","ND","ND","ND","ND","ND","ND"],
    [35980,"2014-06-13T23:00:00","ND","ND","ND","ND","ND","ND","ND","ND","ND","ND","ND","ND"],
    [35981,"2014-06-14T00:00:00","ND","ND","ND","ND","ND","ND","ND","ND","ND","ND","ND","ND"],
    [35982,"2014-06-14T01:00:00","ND","ND","ND","ND","ND","ND","ND","ND","ND","ND","ND","ND"],
    [35983,"2014-06-14T02:00:00","ND","ND","ND","ND","ND","ND","ND","ND","ND","ND","ND","ND"],
    [35984,"2014-06-14T03:00:00","ND","ND","ND","ND","ND","ND","ND","ND","ND","ND","ND","ND"],
    [35985,"2014-06-14T04:00:00","ND","ND","ND","ND","ND","ND","ND","ND","ND","ND","ND","ND"],
    [35986,"2014-06-14T05:00:00","ND","ND","ND","ND","ND","ND","ND","ND","ND","ND","ND","ND"],
    [35987,"2014-06-14T06:00:00","ND","ND","ND","ND","ND","ND","ND","ND","ND","ND","ND","ND"],
    [35988,"2014-06-14T07:00:00","ND","ND","ND","ND","ND","ND","ND","ND","ND","ND","ND","ND"],
    [35989,"2014-06-14T08:00:00","ND","ND","ND","ND","ND","ND","ND","ND","ND","ND","ND","ND"],
    [35990,"2014-06-14T09:00:00","ND","ND","ND","ND","ND","ND","ND","ND","ND","ND","ND","ND"],
    [35991,"2014-06-14T10:00:00","ND","ND","ND","ND","ND","ND","ND","ND","ND","ND","ND","ND"],
    [35992,"2014-06-14T11:00:00","ND","ND","ND","ND","ND","ND","ND","ND","ND","ND","ND","ND"],
    [35993,"2014-06-14T12:00:00","ND","ND","ND","ND","ND","ND","ND","ND","ND","ND","ND","ND"],
    [35994,"2014-06-14T13:00:00","ND","ND","ND","ND","ND","ND","ND","ND","ND","ND","ND","ND"],
    [35995,"2014-06-14T14:00:00","ND","ND","ND","ND","ND","ND","ND","ND","ND","ND","ND","ND"],
    [35996,"2014-06-14T15:00:00","ND","ND","ND","ND","ND","ND","ND","ND","ND","ND","ND","ND"],
    [35997,"2014-06-14T16:00:00","ND","ND","ND","ND","ND","ND","ND","ND","ND","ND","ND","ND"],
    [35998,"2014-06-14T17:00:00","ND","ND","ND","ND","ND","ND","ND","ND","ND","ND","ND","ND"],
    [35999,"2014-06-14T18:00:00","ND","ND","ND","ND","ND","ND","ND","ND","ND","ND","ND","ND"],
    [36000,"2014-06-14T19:00:00","ND","ND","ND","ND","ND","ND","ND","ND","ND","ND","ND","ND"],
    [36001,"2014-06-14T20:00:00","ND","ND","ND","ND","ND","ND","ND","ND","ND","ND","ND","ND"],
    [36002,"2014-06-14T21:00:00","ND","ND","ND","ND","ND","ND","ND","ND","ND","ND","ND","ND"],
    [36003,"2014-06-14T22:00:00","ND","ND","ND","ND","ND","ND","ND","ND","ND","ND","ND","ND"],
    [36004,"2014-06-14T23:00:00","ND","ND","ND","ND","ND","ND","ND","ND","ND","ND","ND","ND"],
    [36005,"2014-06-15T00:00:00","ND","ND","ND","ND","ND","ND","ND","ND","ND","ND","ND","ND"],
    [36006,"2014-06-15T01:00:00","ND","ND","ND","ND","ND","ND","ND","ND","ND","ND","ND","ND"],
    [36007,"2014-06-15T02:00:00","ND","ND","ND","ND","ND","ND","ND","ND","ND","ND","ND","ND"],
    [36008,"2014-06-15T03:00:00","ND","ND","ND","ND","ND","ND","ND","ND","ND","ND","ND","ND"],
    [36009,"2014-06-15T04:00:00","ND","ND","ND","ND","ND","ND","ND","ND","ND","ND","ND","ND"],
    [36010,"2014-06-15T05:00:00","ND","ND","ND","ND","ND","ND","ND","ND","ND","ND","ND","ND"],
    [36011,"2014-06-15T06:00:00","ND","ND","ND","ND","ND","ND","ND","ND","ND","ND","ND","ND"],
    [36012,"2014-06-15T07:00:00","ND","ND","ND","ND","ND","ND","ND","ND","ND","ND","ND","ND"],
    [36013,"2014-06-15T08:00:00","ND","ND","ND","ND","ND","ND","ND","ND","ND","ND","ND","ND"],
    [36014,"2014-06-15T09:00:00","ND","ND","ND","ND","ND","ND","ND","ND","ND","ND","ND","ND"],
    [36015,"2014-06-15T10:00:00","ND","ND","ND","ND","ND","ND","ND","ND","ND","ND","ND","ND"],
    [36016,"2014-06-15T11:00:00","ND","ND","ND","ND","ND","ND","ND","ND","ND","ND","ND","ND"],
    [36017,"2014-06-15T12:00:00","ND","ND","ND","ND","ND","ND","ND","ND","ND","ND","ND","ND"],
    [36018,"2014-06-15T13:00:00","ND","ND","ND","ND","ND","ND","ND","ND","ND","ND","ND","ND"],
    [36019,"2014-06-15T14:00:00","ND","ND","ND","ND","ND","ND","ND","ND","ND","ND","ND","ND"],
    [36020,"2014-06-15T15:00:00","ND","ND","ND","ND","ND","ND","ND","ND","ND","ND","ND","ND"],
    [36021,"2014-06-15T16:00:00","ND","ND","ND","ND","ND","ND","ND","ND","ND","ND","ND","ND"],
    [36022,"2014-06-15T17:00:00","ND","ND","ND","ND","ND","ND","ND","ND","ND","ND","ND","ND"],
    [36023,"2014-06-15T18:00:00","ND","ND","ND","ND","ND","ND","ND","ND","ND","ND","ND","ND"],
    [36024,"2014-06-15T19:00:00","ND","ND","ND","ND","ND","ND","ND","ND","ND","ND","ND","ND"],
    [36025,"2014-06-15T20:00:00","ND","ND","ND","ND","ND","ND","ND","ND","ND","ND","ND","ND"],
    [36026,"2014-06-15T21:00:00","ND","ND","ND","ND","ND","ND","ND","ND","ND","ND","ND","ND"],
    [36027,"2014-06-15T22:00:00","ND","ND","ND","ND","ND","ND","ND","ND","ND","ND","ND","ND"],
    [36028,"2014-06-15T23:00:00","ND","ND","ND","ND","ND","ND","ND","ND","ND","ND","ND","ND"],
    [36029,"2014-06-16T00:00:00","ND","ND","ND","ND","ND","ND","ND","ND","ND","ND","ND","ND"],
    [36030,"2014-06-16T01:00:00","ND","ND","ND","ND","ND","ND","ND","ND","ND","ND","ND","ND"],
    [36031,"2014-06-16T02:00:00","ND","ND","ND","ND","ND","ND","ND","ND","ND","ND","ND","ND"],
    [36032,"2014-06-16T03:00:00","ND","ND","ND","ND","ND","ND","ND","ND","ND","ND","ND","ND"],
    [36033,"2014-06-16T04:00:00","ND","ND","ND","ND","ND","ND","ND","ND","ND","ND","ND","ND"],
    [36034,"2014-06-16T05:00:00","ND","ND","ND","ND","ND","ND","ND","ND","ND","ND","ND","ND"],
    [36035,"2014-06-16T06:00:00","ND","ND","ND","ND","ND","ND","ND","ND","ND","ND","ND","ND"],
    [36036,"2014-06-16T07:00:00","ND","ND","ND","ND","ND","ND","ND","ND","ND","ND","ND","ND"],
    [36037,"2014-06-16T08:00:00","ND","ND","ND","ND","ND","ND","ND","ND","ND","ND","ND","ND"],
    [36038,"2014-06-16T09:00:00","ND","ND","ND","ND","ND","ND","ND","ND","ND","ND","ND","ND"],
    [36039,"2014-06-16T10:00:00","ND","ND","ND","ND","ND","ND","ND","ND","ND","ND","ND","ND"],
    [36040,"2014-06-16T11:00:00","ND","ND","ND","ND","ND","ND","ND","ND","ND","ND","ND","ND"],
    [36041,"2014-06-16T12:00:00","ND","ND","ND","ND","ND","ND","ND","ND","ND","ND","ND","ND"],
    [36042,"2014-06-16T13:00:00","ND","ND","ND","ND","ND","ND","ND","ND","ND","ND","ND","ND"],
    [36043,"2014-06-16T14:00:00","ND","ND","ND","ND","ND","ND","ND","ND","ND","ND","ND","ND"],
    [36044,"2014-06-16T15:00:00","ND","ND","ND","ND","ND","ND","ND","ND","ND","ND","ND","ND"],
    [36045,"2014-06-16T16:00:00","ND","ND","ND","ND","ND","ND","ND","ND","ND","ND","ND","ND"],
    [36046,"2014-06-16T17:00:00","ND","ND","ND","ND","ND","ND","ND","ND","ND","ND","ND","ND"],
    [36047,"2014-06-16T18:00:00","ND","ND","ND","ND","ND","ND","ND","ND","ND","ND","ND","ND"],
    [36048,"2014-06-16T19:00:00","ND","ND","ND","ND","ND","ND","ND","ND","ND","ND","ND","ND"],
    [36049,"2014-06-16T20:00:00","ND","ND","ND","ND","ND","ND","ND","ND","ND","ND","ND","ND"],
    [36050,"2014-06-16T21:00:00","ND","ND","ND","ND","ND","ND","ND","ND","ND","ND","ND","ND"],
    [36051,"2014-06-16T22:00:00","ND","ND","ND","ND","ND","ND","ND","ND","ND","ND","ND","ND"],
    [36052,"2014-06-16T23:00:00","ND","ND","ND","ND","ND","ND","ND","ND","ND","ND","ND","ND"],
    [36053,"2014-06-17T00:00:00","ND","ND","ND","ND","ND","ND","ND","ND","ND","ND","ND","ND"],
    [36054,"2014-06-17T01:00:00","ND","ND","ND","ND","ND","ND","ND","ND","ND","ND","ND","ND"],
    [36055,"2014-06-17T02:00:00","ND","ND","ND","ND","ND","ND","ND","ND","ND","ND","ND","ND"],
    [36056,"2014-06-17T03:00:00","ND","ND","ND","ND","ND","ND","ND","ND","ND","ND","ND","ND"],
    [36057,"2014-06-17T04:00:00","ND","ND","ND","ND","ND","ND","ND","ND","ND","ND","ND","ND"],
    [36058,"2014-06-17T05:00:00","ND","ND","ND","ND","ND","ND","ND","ND","ND","ND","ND","ND"],
    [36059,"2014-06-17T06:00:00","ND","ND","ND","ND","ND","ND","ND","ND","ND","ND","ND","ND"],
    [36060,"2014-06-17T07:00:00","ND","ND","ND","ND","ND","ND","ND","ND","ND","ND","ND","ND"],
    [36061,"2014-06-17T08:00:00","ND","ND","ND","ND","ND","ND","ND","ND","ND","ND","ND","ND"],
    [36062,"2014-06-17T09:00:00","ND","ND","ND","ND","ND","ND","ND","ND","ND","ND","ND","ND"],
    [36063,"2014-06-17T10:00:00","ND","ND","ND","ND","ND","ND","ND","ND","ND","ND","ND","ND"],
    [36064,"2014-06-17T11:00:00","ND","ND","ND","ND","ND","ND","ND","ND","ND","ND","ND","ND"],
    [36065,"2014-06-17T12:00:00","ND","ND","ND","ND","ND","ND","ND","ND","ND","ND","ND","ND"],
    [36066,"2014-06-17T13:00:00","ND","ND","ND","ND","ND","ND","ND","ND","ND","ND","ND","ND"],
    [36067,"2014-06-17T14:00:00","ND","ND","ND","ND","ND","ND","ND","ND","ND","ND","ND","ND"],
    [36068,"2014-06-17T15:00:00","ND","ND","ND","ND","ND","ND","ND","ND","ND","ND","ND","ND"],
    [36069,"2014-06-17T16:00:00","ND","ND","ND","ND","ND","ND","ND","ND","ND","ND","ND","ND"],
    [36070,"2014-06-17T17:00:00","ND","ND","ND","ND","ND","ND","ND","ND","ND","ND","ND","ND"],
    [36071,"2014-06-17T18:00:00","ND","ND","ND","ND","ND","ND","ND","ND","ND","ND","ND","ND"],
    [36072,"2014-06-17T19:00:00","ND","ND","ND","ND","ND","ND","ND","ND","ND","ND","ND","ND"],
    [36073,"2014-06-17T20:00:00","ND","ND","ND","ND","ND","ND","ND","ND","ND","ND","ND","ND"],
    [36074,"2014-06-17T21:00:00","ND","ND","ND","ND","ND","ND","ND","ND","ND","ND","ND","ND"],
    [36075,"2014-06-17T22:00:00","ND","ND","ND","ND","ND","ND","ND","ND","ND","ND","ND","ND"],
    [36076,"2014-06-17T23:00:00","ND","ND","ND","ND","ND","ND","ND","ND","ND","ND","ND","ND"],
    [36077,"2014-06-18T00:00:00","ND","ND","ND","ND","ND","ND","ND","ND","ND","ND","ND","ND"],
    [36078,"2014-06-18T01:00:00","ND","ND","ND","ND","ND","ND","ND","ND","ND","ND","ND","ND"],
    [36079,"2014-06-18T02:00:00","ND","ND","ND","ND","ND","ND","ND","ND","ND","ND","ND","ND"],
    [36080,"2014-06-18T03:00:00","ND","ND","ND","ND","ND","ND","ND","ND","ND","ND","ND","ND"],
    [36081,"2014-06-18T04:00:00","ND","ND","ND","ND","ND","ND","ND","ND","ND","ND","ND","ND"],
    [36082,"2014-06-18T05:00:00","ND","ND","ND","ND","ND","ND","ND","ND","ND","ND","ND","ND"],
    [36083,"2014-06-18T06:00:00","ND","ND","ND","ND","ND","ND","ND","ND","ND","ND","ND","ND"],
    [36084,"2014-06-18T07:00:00","ND","ND","ND","ND","ND","ND","ND","ND","ND","ND","ND","ND"],
    [36085,"2014-06-18T08:00:00","ND","ND","ND","ND","ND","ND","ND","ND","ND","ND","ND","ND"],
    [36086,"2014-06-18T09:00:00","ND","ND","ND","ND","ND","ND","ND","ND","ND","ND","ND","ND"],
    [36087,"2014-06-18T10:00:00","ND","ND","ND","ND","ND","ND","ND","ND","ND","ND","ND","ND"],
    [36088,"2014-06-18T11:00:00","ND","ND","ND","ND","ND","ND","ND","ND","ND","ND","ND","ND"],
    [36089,"2014-06-18T12:00:00","ND","ND","ND","ND","ND","ND","ND","ND","ND","ND","ND","ND"],
    [36090,"2014-06-18T13:00:00","ND","ND","ND","ND","ND","ND","ND","ND","ND","ND","ND","ND"],
    [36091,"2014-06-18T14:00:00","ND","ND","ND","ND","ND","ND","ND","ND","ND","ND","ND","ND"],
    [36092,"2014-06-18T15:00:00","ND","ND","ND","ND","ND","ND","ND","ND","ND","ND","ND","ND"],
    [36093,"2014-06-18T16:00:00","ND","ND","ND","ND","ND","ND","ND","ND","ND","ND","ND","ND"],
    [36094,"2014-06-18T17:00:00","ND","ND","ND","ND","ND","ND","ND","ND","ND","ND","ND","ND"],
    [36095,"2014-06-18T18:00:00","ND","ND","ND","ND","ND","ND","ND","ND","ND","ND","ND","ND"],
    [36096,"2014-06-18T19:00:00","ND","ND","ND","ND","ND","ND","ND","ND","ND","ND","ND","ND"],
    [36097,"2014-06-18T20:00:00","ND","ND","ND","ND","ND","ND","ND","ND","ND","ND","ND","ND"],
    [36098,"2014-06-18T21:00:00","ND","ND","ND","ND","ND","ND","ND","ND","ND","ND","ND","ND"],
    [36099,"2014-06-18T22:00:00","ND","ND","ND","ND","ND","ND","ND","ND","ND","ND","ND","ND"],
    [36100,"2014-06-18T23:00:00","ND","ND","ND","ND","ND","ND","ND","ND","ND","ND","ND","ND"],
    [36101,"2014-06-19T00:00:00","ND","ND","ND","ND","ND","ND","ND","ND","ND","ND","ND","ND"],
    [36102,"2014-06-19T01:00:00","ND","ND","ND","ND","ND","ND","ND","ND","ND","ND","ND","ND"],
    [36103,"2014-06-19T02:00:00","ND","ND","ND","ND","ND","ND","ND","ND","ND","ND","ND","ND"],
    [36104,"2014-06-19T03:00:00","ND","ND","ND","ND","ND","ND","ND","ND","ND","ND","ND","ND"],
    [36105,"2014-06-19T04:00:00","ND","ND","ND","ND","ND","ND","ND","ND","ND","ND","ND","ND"],
    [36106,"2014-06-19T05:00:00","ND","ND","ND","ND","ND","ND","ND","ND","ND","ND","ND","ND"],
    [36107,"2014-06-19T06:00:00","ND","ND","ND","ND","ND","ND","ND","ND","ND","ND","ND","ND"],
    [36108,"2014-06-19T07:00:00","ND","ND","ND","ND","ND","ND","ND","ND","ND","ND","ND","ND"],
    [36109,"2014-06-19T08:00:00","ND","ND","ND","ND","ND","ND","ND","ND","ND","ND","ND","ND"],
    [36110,"2014-06-19T09:00:00","ND","ND","ND","ND","ND","ND","ND","ND","ND","ND","ND","ND"],
    [36111,"2014-06-19T10:00:00","ND","ND","ND","ND","ND","ND","ND","ND","ND","ND","ND","ND"],
    [36112,"2014-06-19T11:00:00","ND","ND","ND","ND","ND","ND","ND","ND","ND","ND","ND","ND"],
    [36113,"2014-06-19T12:00:00","ND","ND","ND","ND","ND","ND","ND","ND","ND","ND","ND","ND"],
    [36114,"2014-06-19T13:00:00","ND","ND","ND","ND","ND","ND","ND","ND","ND","ND","ND","ND"],
    [36115,"2014-06-19T14:00:00","ND","ND","ND","ND","ND","ND","ND","ND","ND","ND","ND","ND"],
    [36116,"2014-06-19T15:00:00","ND","ND","ND","ND","ND","ND","ND","ND","ND","ND","ND","ND"],
    [36117,"2014-06-19T16:00:00","ND","ND","ND","ND","ND","ND","ND","ND","ND","ND","ND","ND"],
    [36118,"2014-06-19T17:00:00","ND","ND","ND","ND","ND","ND","ND","ND","ND","ND","ND","ND"],
    [36119,"2014-06-19T18:00:00","ND","ND","ND","ND","ND","ND","ND","ND","ND","ND","ND","ND"],
    [36120,"2014-06-19T19:00:00","ND","ND","ND","ND","ND","ND","ND","ND","ND","ND","ND","ND"],
    [36121,"2014-06-19T20:00:00","ND","ND","ND","ND","ND","ND","ND","ND","ND","ND","ND","ND"],
    [36122,"2014-06-19T21:00:00","ND","ND","ND","ND","ND","ND","ND","ND","ND","ND","ND","ND"],
    [36123,"2014-06-19T22:00:00","ND","ND","ND","ND","ND","ND","ND","ND","ND","ND","ND","ND"],
    [36124,"2014-06-19T23:00:00","ND","ND","ND","ND","ND","ND","ND","ND","ND","ND","ND","ND"],
    [36125,"2014-06-20T00:00:00","ND","ND","ND","ND","ND","ND","ND","ND","ND","ND","ND","ND"],
    [36126,"2014-06-20T01:00:00","ND","ND","ND","ND","ND","ND","ND","ND","ND","ND","ND","ND"],
    [36127,"2014-06-20T02:00:00","ND","ND","ND","ND","ND","ND","ND","ND","ND","ND","ND","ND"],
    [36128,"2014-06-20T03:00:00","ND","ND","ND","ND","ND","ND","ND","ND","ND","ND","ND","ND"],
    [36129,"2014-06-20T04:00:00","ND","ND","ND","ND","ND","ND","ND","ND","ND","ND","ND","ND"],
    [36130,"2014-06-20T05:00:00","ND","ND","ND","ND","ND","ND","ND","ND","ND","ND","ND","ND"],
    [36131,"2014-06-20T06:00:00","ND","ND","ND","ND","ND","ND","ND","ND","ND","ND","ND","ND"],
    [36132,"2014-06-20T07:00:00","ND","ND","ND","ND","ND","ND","ND","ND","ND","ND","ND","ND"],
    [36133,"2014-06-20T08:00:00","ND","ND","ND","ND","ND","ND","ND","ND","ND","ND","ND","ND"],
    [36134,"2014-06-20T09:00:00","ND","ND","ND","ND","ND","ND","ND","ND","ND","ND","ND","ND"],
    [36135,"2014-06-20T10:00:00","ND","ND","ND","ND","ND","ND","ND","ND","ND","ND","ND","ND"],
    [36136,"2014-06-20T11:00:00","ND","ND","ND","ND","ND","ND","ND","ND","ND","ND","ND","ND"],
    [36137,"2014-06-20T12:00:00","ND","ND","ND","ND","ND","ND","ND","ND","ND","ND","ND","ND"],
    [36138,"2014-06-20T13:00:00","ND","ND","ND","ND","ND","ND","ND","ND","ND","ND","ND","ND"],
    [36139,"2014-06-20T14:00:00","ND","ND","ND","ND","ND","ND","ND","ND","ND","ND","ND","ND"],
    [36140,"2014-06-20T15:00:00","ND","ND","ND","ND","ND","ND","ND","ND","ND","ND","ND","ND"],
    [36141,"2014-06-20T16:00:00","ND","ND","ND","ND","ND","ND","ND","ND","ND","ND","ND","ND"],
    [36142,"2014-06-20T17:00:00","ND","ND","ND","ND","ND","ND","ND","ND","ND","ND","ND","ND"],
    [36143,"2014-06-20T18:00:00","ND","ND","ND","ND","ND","ND","ND","ND","ND","ND","ND","ND"],
    [36144,"2014-06-20T19:00:00","ND","ND","ND","ND","ND","ND","ND","ND","ND","ND","ND","ND"],
    [36145,"2014-06-20T20:00:00","ND","ND","ND","ND","ND","ND","ND","ND","ND","ND","ND","ND"],
    [36146,"2014-06-20T21:00:00","ND","ND","ND","ND","ND","ND","ND","ND","ND","ND","ND","ND"],
    [36147,"2014-06-20T22:00:00","ND","ND","ND","ND","ND","ND","ND","ND","ND","ND","ND","ND"],
    [36148,"2014-06-20T23:00:00","ND","ND","ND","ND","ND","ND","ND","ND","ND","ND","ND","ND"],
    [36149,"2014-06-21T00:00:00","ND","ND","ND","ND","ND","ND","ND","ND","ND","ND","ND","ND"],
    [36150,"2014-06-21T01:00:00","ND","ND","ND","ND","ND","ND","ND","ND","ND","ND","ND","ND"],
    [36151,"2014-06-21T02:00:00","ND","ND","ND","ND","ND","ND","ND","ND","ND","ND","ND","ND"],
    [36152,"2014-06-21T03:00:00","ND","ND","ND","ND","ND","ND","ND","ND","ND","ND","ND","ND"],
    [36153,"2014-06-21T04:00:00","ND","ND","ND","ND","ND","ND","ND","ND","ND","ND","ND","ND"],
    [36154,"2014-06-21T05:00:00","ND","ND","ND","ND","ND","ND","ND","ND","ND","ND","ND","ND"],
    [36155,"2014-06-21T06:00:00","ND","ND","ND","ND","ND","ND","ND","ND","ND","ND","ND","ND"],
    [36156,"2014-06-21T07:00:00","ND","ND","ND","ND","ND","ND","ND","ND","ND","ND","ND","ND"],
    [36157,"2014-06-21T08:00:00","ND","ND","ND","ND","ND","ND","ND","ND","ND","ND","ND","ND"],
    [36158,"2014-06-21T09:00:00","ND","ND","ND","ND","ND","ND","ND","ND","ND","ND","ND","ND"],
    [36159,"2014-06-21T10:00:00","ND","ND","ND","ND","ND","ND","ND","ND","ND","ND","ND","ND"],
    [36160,"2014-06-21T11:00:00","ND","ND","ND","ND","ND","ND","ND","ND","ND","ND","ND","ND"],
    [36161,"2014-06-21T12:00:00","ND","ND","ND","ND","ND","ND","ND","ND","ND","ND","ND","ND"],
    [36162,"2014-06-21T13:00:00","ND","ND","ND","ND","ND","ND","ND","ND","ND","ND","ND","ND"],
    [36163,"2014-06-21T14:00:00","ND","ND","ND","ND","ND","ND","ND","ND","ND","ND","ND","ND"],
    [36164,"2014-06-21T15:00:00","ND","ND","ND","ND","ND","ND","ND","ND","ND","ND","ND","ND"],
    [36165,"2014-06-21T16:00:00","ND","ND","ND","ND","ND","ND","ND","ND","ND","ND","ND","ND"],
    [36166,"2014-06-21T17:00:00","ND","ND","ND","ND","ND","ND","ND","ND","ND","ND","ND","ND"],
    [36167,"2014-06-21T18:00:00","ND","ND","ND","ND","ND","ND","ND","ND","ND","ND","ND","ND"],
    [36168,"2014-06-21T19:00:00","ND","ND","ND","ND","ND","ND","ND","ND","ND","ND","ND","ND"],
    [36169,"2014-06-21T20:00:00","ND","ND","ND","ND","ND","ND","ND","ND","ND","ND","ND","ND"],
    [36170,"2014-06-21T21:00:00","ND","ND","ND","ND","ND","ND","ND","ND","ND","ND","ND","ND"],
    [36171,"2014-06-21T22:00:00","ND","ND","ND","ND","ND","ND","ND","ND","ND","ND","ND","ND"],
    [36172,"2014-06-21T23:00:00","ND","ND","ND","ND","ND","ND","ND","ND","ND","ND","ND","ND"],
    [36173,"2014-06-22T00:00:00","ND","ND","ND","ND","ND","ND","ND","ND","ND","ND","ND","ND"],
    [36174,"2014-06-22T01:00:00","ND","ND","ND","ND","ND","ND","ND","ND","ND","ND","ND","ND"],
    [36175,"2014-06-22T02:00:00","ND","ND","ND","ND","ND","ND","ND","ND","ND","ND","ND","ND"],
    [36176,"2014-06-22T03:00:00","ND","ND","ND","ND","ND","ND","ND","ND","ND","ND","ND","ND"],
    [36177,"2014-06-22T04:00:00","ND","ND","ND","ND","ND","ND","ND","ND","ND","ND","ND","ND"],
    [36178,"2014-06-22T05:00:00","ND","ND","ND","ND","ND","ND","ND","ND","ND","ND","ND","ND"],
    [36179,"2014-06-22T06:00:00","ND","ND","ND","ND","ND","ND","ND","ND","ND","ND","ND","ND"],
    [36180,"2014-06-22T07:00:00","ND","ND","ND","ND","ND","ND","ND","ND","ND","ND","ND","ND"],
    [36181,"2014-06-22T08:00:00","ND","ND","ND","ND","ND","ND","ND","ND","ND","ND","ND","ND"],
    [36182,"2014-06-22T09:00:00","ND","ND","ND","ND","ND","ND","ND","ND","ND","ND","ND","ND"],
    [36183,"2014-06-22T10:00:00","ND","ND","ND","ND","ND","ND","ND","ND","ND","ND","ND","ND"],
    [36184,"2014-06-22T11:00:00","ND","ND","ND","ND","ND","ND","ND","ND","ND","ND","ND","ND"],
    [36185,"2014-06-22T12:00:00","ND","ND","ND","ND","ND","ND","ND","ND","ND","ND","ND","ND"],
    [36186,"2014-06-22T13:00:00","ND","ND","ND","ND","ND","ND","ND","ND","ND","ND","ND","ND"],
    [36187,"2014-06-22T14:00:00","ND","ND","ND","ND","ND","ND","ND","ND","ND","ND","ND","ND"],
    [36188,"2014-06-22T15:00:00","ND","ND","ND","ND","ND","ND","ND","ND","ND","ND","ND","ND"],
    [36189,"2014-06-22T16:00:00","ND","ND","ND","ND","ND","ND","ND","ND","ND","ND","ND","ND"],
    [36190,"2014-06-22T17:00:00","ND","ND","ND","ND","ND","ND","ND","ND","ND","ND","ND","ND"],
    [36191,"2014-06-22T18:00:00","ND","ND","ND","ND","ND","ND","ND","ND","ND","ND","ND","ND"],
    [36192,"2014-06-22T19:00:00","ND","ND","ND","ND","ND","ND","ND","ND","ND","ND","ND","ND"],
    [36193,"2014-06-22T20:00:00","ND","ND","ND","ND","ND","ND","ND","ND","ND","ND","ND","ND"],
    [36194,"2014-06-22T21:00:00","ND","ND","ND","ND","ND","ND","ND","ND","ND","ND","ND","ND"],
    [36195,"2014-06-22T22:00:00","ND","ND","ND","ND","ND","ND","ND","ND","ND","ND","ND","ND"],
    [36196,"2014-06-22T23:00:00","ND","ND","ND","ND","ND","ND","ND","ND","ND","ND","ND","ND"],
    [36197,"2014-06-23T00:00:00","ND","ND","ND","ND","ND","ND","ND","ND","ND","ND","ND","ND"],
    [36198,"2014-06-23T01:00:00","ND","ND","ND","ND","ND","ND","ND","ND","ND","ND","ND","ND"],
    [36199,"2014-06-23T02:00:00","ND","ND","ND","ND","ND","ND","ND","ND","ND","ND","ND","ND"],
    [36200,"2014-06-23T03:00:00","ND","ND","ND","ND","ND","ND","ND","ND","ND","ND","ND","ND"],
    [36201,"2014-06-23T04:00:00","ND","ND","ND","ND","ND","ND","ND","ND","ND","ND","ND","ND"],
    [36202,"2014-06-23T05:00:00","ND","ND","ND","ND","ND","ND","ND","ND","ND","ND","ND","ND"],
    [36203,"2014-06-23T06:00:00","ND","ND","ND","ND","ND","ND","ND","ND","ND","ND","ND","ND"],
    [36204,"2014-06-23T07:00:00","ND","ND","ND","ND","ND","ND","ND","ND","ND","ND","ND","ND"],
    [36205,"2014-06-23T08:00:00","ND","ND","ND","ND","ND","ND","ND","ND","ND","ND","ND","ND"],
    [36206,"2014-06-23T09:00:00","ND","ND","ND","ND","ND","ND","ND","ND","ND","ND","ND","ND"],
    [36207,"2014-06-23T10:00:00","ND","ND","ND","ND","ND","ND","ND","ND","ND","ND","ND","ND"],
    [36208,"2014-06-23T11:00:00","ND","ND","ND","ND","ND","ND","ND","ND","ND","ND","ND","ND"],
    [36209,"2014-06-23T12:00:00","ND","ND","ND","ND","ND","ND","ND","ND","ND","ND","ND","ND"],
    [36210,"2014-06-23T13:00:00","ND","ND","ND","ND","ND","ND","ND","ND","ND","ND","ND","ND"],
    [36211,"2014-06-23T14:00:00","ND","ND","ND","ND","ND","ND","ND","ND","ND","ND","ND","ND"],
    [36212,"2014-06-23T15:00:00","ND","ND","ND","ND","ND","ND","ND","ND","ND","ND","ND","ND"],
    [36213,"2014-06-23T16:00:00","ND","ND","ND","ND","ND","ND","ND","ND","ND","ND","ND","ND"],
    [36214,"2014-06-23T17:00:00","ND","ND","ND","ND","ND","ND","ND","ND","ND","ND","ND","ND"],
    [36215,"2014-06-23T18:00:00","ND","ND","ND","ND","ND","ND","ND","ND","ND","ND","ND","ND"],
    [36216,"2014-06-23T19:00:00","ND","ND","ND","ND","ND","ND","ND","ND","ND","ND","ND","ND"],
    [36217,"2014-06-23T20:00:00","ND","ND","ND","ND","ND","ND","ND","ND","ND","ND","ND","ND"],
    [36218,"2014-06-23T21:00:00","ND","ND","ND","ND","ND","ND","ND","ND","ND","ND","ND","ND"],
    [36219,"2014-06-23T22:00:00","ND","ND","ND","ND","ND","ND","ND","ND","ND","ND","ND","ND"],
    [36220,"2014-06-23T23:00:00","ND","ND","ND","ND","ND","ND","ND","ND","ND","ND","ND","ND"],
    [36221,"2014-06-24T00:00:00","ND","ND","ND","ND","ND","ND","ND","ND","ND","ND","ND","ND"],
    [36222,"2014-06-24T01:00:00","ND","ND","ND","ND","ND","ND","ND","ND","ND","ND","ND","ND"],
    [36223,"2014-06-24T02:00:00","ND","ND","ND","ND","ND","ND","ND","ND","ND","ND","ND","ND"],
    [36224,"2014-06-24T03:00:00","ND","ND","ND","ND","ND","ND","ND","ND","ND","ND","ND","ND"],
    [36225,"2014-06-24T04:00:00","ND","ND","ND","ND","ND","ND","ND","ND","ND","ND","ND","ND"],
    [36226,"2014-06-24T05:00:00","ND","ND","ND","ND","ND","ND","ND","ND","ND","ND","ND","ND"],
    [36227,"2014-06-24T06:00:00","ND","ND","ND","ND","ND","ND","ND","ND","ND","ND","ND","ND"],
    [36228,"2014-06-24T07:00:00","ND","ND","ND","ND","ND","ND","ND","ND","ND","ND","ND","ND"],
    [36229,"2014-06-24T08:00:00","ND","ND","ND","ND","ND","ND","ND","ND","ND","ND","ND","ND"],
    [36230,"2014-06-24T09:00:00","ND","ND","ND","ND","ND","ND","ND","ND","ND","ND","ND","ND"],
    [36231,"2014-06-24T10:00:00","ND","ND","ND","ND","ND","ND","ND","ND","ND","ND","ND","ND"],
    [36232,"2014-06-24T11:00:00","ND","ND","ND","ND","ND","ND","ND","ND","ND","ND","ND","ND"],
    [36233,"2014-06-24T12:00:00","ND","ND","ND","ND","ND","ND","ND","ND","ND","ND","ND","ND"],
    [36234,"2014-06-24T13:00:00","ND","ND","ND","ND","ND","ND","ND","ND","ND","ND","ND","ND"],
    [36235,"2014-06-24T14:00:00","ND","ND","ND","ND","ND","ND","ND","ND","ND","ND","ND","ND"],
    [36236,"2014-06-24T15:00:00","ND","ND","ND","ND","ND","ND","ND","ND","ND","ND","ND","ND"],
    [36237,"2014-06-24T16:00:00","ND","ND","ND","ND","ND","ND","ND","ND","ND","ND","ND","ND"],
    [36238,"2014-06-24T17:00:00","ND","ND","ND","ND","ND","ND","ND","ND","ND","ND","ND","ND"],
    [36239,"2014-06-24T18:00:00","ND","ND","ND","ND","ND","ND","ND","ND","ND","ND","ND","ND"],
    [36240,"2014-06-24T19:00:00","ND","ND","ND","ND","ND","ND","ND","ND","ND","ND","ND","ND"],
    [36241,"2014-06-24T20:00:00","ND","ND","ND","ND","ND","ND","ND","ND","ND","ND","ND","ND"],
    [36242,"2014-06-24T21:00:00","ND","ND","ND","ND","ND","ND","ND","ND","ND","ND","ND","ND"],
    [36243,"2014-06-24T22:00:00","ND","ND","ND","ND","ND","ND","ND","ND","ND","ND","ND","ND"],
    [36244,"2014-06-24T23:00:00","ND","ND","ND","ND","ND","ND","ND","ND","ND","ND","ND","ND"],
    [36245,"2014-06-25T00:00:00","ND","ND","ND","ND","ND","ND","ND","ND","ND","ND","ND","ND"],
    [36246,"2014-06-25T01:00:00","ND","ND","ND","ND","ND","ND","ND","ND","ND","ND","ND","ND"],
    [36247,"2014-06-25T02:00:00","ND","ND","ND","ND","ND","ND","ND","ND","ND","ND","ND","ND"],
    [36248,"2014-06-25T03:00:00","ND","ND","ND","ND","ND","ND","ND","ND","ND","ND","ND","ND"],
    [36249,"2014-06-25T04:00:00","ND","ND","ND","ND","ND","ND","ND","ND","ND","ND","ND","ND"],
    [36250,"2014-06-25T05:00:00","ND","ND","ND","ND","ND","ND","ND","ND","ND","ND","ND","ND"],
    [36251,"2014-06-25T06:00:00","ND","ND","ND","ND","ND","ND","ND","ND","ND","ND","ND","ND"],
    [36252,"2014-06-25T07:00:00","ND","ND","ND","ND","ND","ND","ND","ND","ND","ND","ND","ND"],
    [36253,"2014-06-25T08:00:00","ND","ND","ND","ND","ND","ND","ND","ND","ND","ND","ND","ND"],
    [36254,"2014-06-25T09:00:00","ND","ND","ND","ND","ND","ND","ND","ND","ND","ND","ND","ND"],
    [36255,"2014-06-25T10:00:00","ND","ND","ND","ND","ND","ND","ND","ND","ND","ND","ND","ND"],
    [36256,"2014-06-25T11:00:00","ND","ND","ND","ND","ND","ND","ND","ND","ND","ND","ND","ND"],
    [36257,"2014-06-25T12:00:00","ND","ND","ND","ND","ND","ND","ND","ND","ND","ND","ND","ND"],
    [36258,"2014-06-25T13:00:00","ND","ND","ND","ND","ND","ND","ND","ND","ND","ND","ND","ND"],
    [36259,"2014-06-25T14:00:00","ND","ND","ND","ND","ND","ND","ND","ND","ND","ND","ND","ND"],
    [36260,"2014-06-25T15:00:00","ND","ND","ND","ND","ND","ND","ND","ND","ND","ND","ND","ND"],
    [36261,"2014-06-25T16:00:00","ND","ND","ND","ND","ND","ND","ND","ND","ND","ND","ND","ND"],
    [36262,"2014-06-25T17:00:00","19","ND","ND","ND","ND","ND","ND","ND","ND","ND","ND","ND"],
    [36263,"2014-06-25T18:00:00","34","ND","ND","ND","ND","ND","ND","ND","ND","ND","ND","ND"],
    [36264,"2014-06-25T19:00:00","26","ND","ND","ND","ND","ND","ND","ND","ND","ND","ND","ND"],
    [36265,"2014-06-25T20:00:00","41","ND","ND","ND","ND","ND","ND","ND","ND","ND","ND","ND"],
    [36266,"2014-06-25T21:00:00","38","ND","ND","ND","ND","ND","ND","ND","ND","ND","ND","ND"],
    [36267,"2014-06-25T22:00:00","45","ND","ND","ND","ND","ND","ND","ND","ND","ND","ND","ND"],
    [36268,"2014-06-25T23:00:00","33","ND","ND","ND","ND","ND","ND","ND","ND","ND","ND","ND"],
    [36269,"2014-06-26T00:00:00","45","ND","ND","ND","ND","ND","ND","ND","ND","ND","ND","ND"],
    [36270,"2014-06-26T01:00:00","32","ND","ND","ND","ND","ND","ND","ND","ND","ND","ND","ND"],
    [36271,"2014-06-26T02:00:00","36","ND","ND","ND","ND","ND","ND","ND","ND","ND","ND","ND"],
    [36272,"2014-06-26T03:00:00","42","ND","ND","ND","ND","ND","ND","ND","ND","ND","ND","ND"],
    [36273,"2014-06-26T04:00:00","37","ND","ND","ND","ND","ND","ND","ND","ND","ND","ND","ND"],
    [36274,"2014-06-26T05:00:00","24","ND","ND","ND","ND","ND","ND","ND","ND","ND","ND","ND"],
    [36275,"2014-06-26T06:00:00","38","ND","ND","ND","ND","ND","ND","ND","ND","ND","ND","ND"],
    [36276,"2014-06-26T07:00:00","42","ND","ND","ND","ND","ND","ND","ND","ND","ND","ND","ND"],
    [36277,"2014-06-26T08:00:00","68","ND","ND","ND","ND","ND","ND","ND","ND","ND","ND","ND"],
    [36278,"2014-06-26T09:00:00","74","ND","ND","ND","ND","ND","ND","ND","ND","ND","ND","ND"],
    [36279,"2014-06-26T10:00:00","37","ND","ND","ND","ND","ND","ND","ND","ND","ND","ND","ND"],
    [36280,"2014-06-26T11:00:00","46","ND","ND","ND","ND","ND","ND","ND","ND","ND","ND","ND"],
    [36281,"2014-06-26T12:00:00","62","ND","ND","ND","ND","ND","ND","ND","ND","ND","ND","ND"],
    [36282,"2014-06-26T13:00:00","72","ND","ND","ND","ND","ND","ND","ND","ND","ND","ND","ND"],
    [36283,"2014-06-26T14:00:00","52","ND","ND","ND","ND","ND","ND","ND","ND","ND","ND","ND"],
    [36284,"2014-06-26T15:00:00","64","ND","ND","ND","ND","ND","ND","ND","ND","ND","ND","ND"],
    [36285,"2014-06-26T16:00:00","66","ND","ND","ND","ND","ND","ND","ND","ND","ND","ND","ND"],
    [36286,"2014-06-26T17:00:00","38","ND","ND","ND","ND","ND","ND","ND","ND","ND","ND","ND"],
    [36287,"2014-06-26T18:00:00","26","ND","ND","ND","ND","ND","ND","ND","ND","ND","ND","ND"],
    [36288,"2014-06-26T19:00:00","37","ND","ND","ND","ND","ND","ND","ND","ND","ND","ND","ND"],
    [36289,"2014-06-26T20:00:00","51","ND","ND","ND","ND","ND","ND","ND","ND","ND","ND","ND"],
    [36290,"2014-06-26T21:00:00","59","ND","ND","ND","ND","ND","ND","ND","ND","ND","ND","ND"],
    [36291,"2014-06-26T22:00:00","46","ND","ND","ND","ND","ND","ND","ND","ND","ND","ND","ND"],
    [36292,"2014-06-26T23:00:00","54","ND","ND","ND","ND","ND","ND","ND","ND","ND","ND","ND"],
    [36293,"2014-06-27T00:00:00","57","ND","ND","ND","ND","ND","ND","ND","ND","ND","ND","ND"],
    [36294,"2014-06-27T01:00:00","61","ND","ND","ND","ND","ND","ND","ND","ND","ND","ND","ND"],
    [36295,"2014-06-27T02:00:00","48","ND","ND","ND","ND","ND","ND","ND","ND","ND","ND","ND"],
    [36296,"2014-06-27T03:00:00","46","ND","ND","ND","ND","ND","ND","ND","ND","ND","ND","ND"],
    [36297,"2014-06-27T04:00:00","58","ND","ND","ND","ND","ND","ND","ND","ND","ND","ND","ND"],
    [36298,"2014-06-27T05:00:00","66","ND","ND","ND","ND","ND","ND","ND","ND","ND","ND","ND"],
    [36299,"2014-06-27T06:00:00","41","ND","ND","ND","ND","ND","ND","ND","ND","ND","ND","ND"],
    [36300,"2014-06-27T07:00:00","76","ND","ND","ND","ND","ND","ND","ND","ND","ND","ND","ND"],
    [36301,"2014-06-27T08:00:00","78","ND","ND","ND","ND","ND","ND","ND","ND","ND","ND","ND"],
    [36302,"2014-06-27T09:00:00","119","ND","ND","ND","ND","ND","ND","ND","ND","ND","ND","ND"],
    [36303,"2014-06-27T10:00:00","110","ND","ND","ND","ND","ND","ND","ND","ND","ND","ND","ND"],
    [36304,"2014-06-27T11:00:00","67","ND","ND","ND","ND","ND","ND","ND","ND","ND","ND","ND"],
    [36305,"2014-06-27T12:00:00","68","ND","ND","ND","ND","ND","ND","ND","ND","ND","ND","ND"],
    [36306,"2014-06-27T13:00:00","67","ND","ND","ND","ND","ND","ND","ND","ND","ND","ND","ND"],
    [36307,"2014-06-27T14:00:00","72","ND","ND","ND","ND","ND","ND","ND","ND","ND","ND","ND"],
    [36308,"2014-06-27T15:00:00","75","ND","ND","ND","ND","ND","ND","ND","ND","ND","ND","ND"],
    [36309,"2014-06-27T16:00:00","36","ND","ND","ND","ND","ND","ND","ND","ND","ND","ND","ND"],
    [36310,"2014-06-27T17:00:00","25","ND","ND","ND","ND","ND","ND","ND","ND","ND","ND","ND"],
    [36311,"2014-06-27T18:00:00","29","ND","ND","ND","ND","ND","ND","ND","ND","ND","ND","ND"],
    [36312,"2014-06-27T19:00:00","28","ND","ND","ND","ND","ND","ND","ND","ND","ND","ND","ND"],
    [36313,"2014-06-27T20:00:00","31","ND","ND","ND","ND","ND","ND","ND","ND","ND","ND","ND"],
    [36314,"2014-06-27T21:00:00","62","ND","ND","ND","ND","ND","ND","ND","ND","ND","ND","ND"],
    [36315,"2014-06-27T22:00:00","73","ND","ND","ND","ND","ND","ND","ND","ND","ND","ND","ND"],
    [36316,"2014-06-27T23:00:00","92","ND","ND","ND","ND","ND","ND","ND","ND","ND","ND","ND"],
    [36317,"2014-06-28T00:00:00","57","ND","ND","ND","ND","ND","ND","ND","ND","ND","ND","ND"],
    [36318,"2014-06-28T01:00:00","73","ND","ND","ND","ND","ND","ND","ND","ND","ND","ND","ND"],
    [36319,"2014-06-28T02:00:00","62","ND","ND","ND","ND","ND","ND","ND","ND","ND","ND","ND"],
    [36320,"2014-06-28T03:00:00","60","ND","ND","ND","ND","ND","ND","ND","ND","ND","ND","ND"],
    [36321,"2014-06-28T04:00:00","82","ND","ND","ND","ND","ND","ND","ND","ND","ND","ND","ND"],
    [36322,"2014-06-28T05:00:00","75","ND","ND","ND","ND","ND","ND","ND","ND","ND","ND","ND"],
    [36323,"2014-06-28T06:00:00","75","ND","ND","ND","ND","ND","ND","ND","ND","ND","ND","ND"],
    [36324,"2014-06-28T07:00:00","62","ND","ND","ND","ND","ND","ND","ND","ND","ND","ND","ND"],
    [36325,"2014-06-28T08:00:00","80","ND","ND","ND","ND","ND","ND","ND","ND","ND","ND","ND"],
    [36326,"2014-06-28T09:00:00","55","ND","ND","ND","ND","ND","ND","ND","ND","ND","ND","ND"],
    [36327,"2014-06-28T10:00:00","58","ND","ND","ND","ND","ND","ND","ND","ND","ND","ND","ND"],
    [36328,"2014-06-28T11:00:00","45","ND","ND","ND","ND","ND","ND","ND","ND","ND","ND","ND"],
    [36329,"2014-06-28T12:00:00","53","ND","ND","ND","ND","ND","ND","ND","ND","ND","ND","ND"],
    [36330,"2014-06-28T13:00:00","50","ND","ND","ND","ND","ND","ND","ND","ND","ND","ND","ND"],
    [36331,"2014-06-28T14:00:00","50","ND","ND","ND","ND","ND","ND","ND","ND","ND","ND","ND"],
    [36332,"2014-06-28T15:00:00","45","ND","ND","ND","ND","ND","ND","ND","ND","ND","ND","ND"],
    [36333,"2014-06-28T16:00:00","41","ND","ND","ND","ND","ND","ND","ND","ND","ND","ND","ND"],
    [36334,"2014-06-28T17:00:00","43","ND","ND","ND","ND","ND","ND","ND","ND","ND","ND","ND"],
    [36335,"2014-06-28T18:00:00","49","ND","ND","ND","ND","ND","ND","ND","ND","ND","ND","ND"],
    [36336,"2014-06-28T19:00:00","44","ND","ND","ND","ND","ND","ND","ND","ND","ND","ND","ND"],
    [36337,"2014-06-28T20:00:00","57","ND","ND","ND","ND","ND","ND","ND","ND","ND","ND","ND"],
    [36338,"2014-06-28T21:00:00","42","ND","ND","ND","ND","ND","ND","ND","ND","ND","ND","ND"],
    [36339,"2014-06-28T22:00:00","51","ND","ND","ND","ND","ND","ND","ND","ND","ND","ND","ND"],
    [36340,"2014-06-28T23:00:00","67","ND","ND","ND","ND","ND","ND","ND","ND","ND","ND","ND"],
    [36341,"2014-06-29T00:00:00","78","ND","ND","ND","ND","ND","ND","ND","ND","ND","ND","ND"],
    [36342,"2014-06-29T01:00:00","61","ND","ND","ND","ND","ND","ND","ND","ND","ND","ND","ND"],
    [36343,"2014-06-29T02:00:00","62","ND","ND","ND","ND","ND","ND","ND","ND","ND","ND","ND"],
    [36344,"2014-06-29T03:00:00","49","ND","ND","ND","ND","ND","ND","ND","ND","ND","ND","ND"],
    [36345,"2014-06-29T04:00:00","40","ND","ND","ND","ND","ND","ND","ND","ND","ND","ND","ND"],
    [36346,"2014-06-29T05:00:00","47","ND","ND","ND","ND","ND","ND","ND","ND","ND","ND","ND"],
    [36347,"2014-06-29T06:00:00","47","ND","ND","ND","ND","ND","ND","ND","ND","ND","ND","ND"],
    [36348,"2014-06-29T07:00:00","62","ND","ND","ND","ND","ND","ND","ND","ND","ND","ND","ND"],
    [36349,"2014-06-29T08:00:00","76","ND","ND","ND","ND","ND","ND","ND","ND","ND","ND","ND"],
    [36350,"2014-06-29T09:00:00","87","ND","ND","ND","ND","ND","ND","ND","ND","ND","ND","ND"],
    [36351,"2014-06-29T10:00:00","57","ND","ND","ND","ND","ND","ND","ND","ND","ND","ND","ND"],
    [36352,"2014-06-29T11:00:00","67","ND","ND","ND","ND","ND","ND","ND","ND","ND","ND","ND"],
    [36353,"2014-06-29T12:00:00","48","ND","ND","ND","ND","ND","ND","ND","ND","ND","ND","ND"],
    [36354,"2014-06-29T13:00:00","46","ND","ND","ND","ND","ND","ND","ND","ND","ND","ND","ND"],
    [36355,"2014-06-29T14:00:00","43","ND","ND","ND","ND","ND","ND","ND","ND","ND","ND","ND"],
    [36356,"2014-06-29T15:00:00","31","ND","ND","ND","ND","ND","ND","ND","ND","ND","ND","ND"],
    [36357,"2014-06-29T16:00:00","15","ND","ND","ND","ND","ND","ND","ND","ND","ND","ND","ND"],
    [36358,"2014-06-29T17:00:00","20","ND","ND","ND","ND","ND","ND","ND","ND","ND","ND","ND"],
    [36359,"2014-06-29T18:00:00","30","ND","ND","ND","ND","ND","ND","ND","ND","ND","ND","ND"],
    [36360,"2014-06-29T19:00:00","27","ND","ND","ND","ND","ND","ND","ND","ND","ND","ND","ND"],
    [36361,"2014-06-29T20:00:00","27","ND","ND","ND","ND","ND","ND","ND","ND","ND","ND","ND"],
    [36362,"2014-06-29T21:00:00","30","ND","ND","ND","ND","ND","ND","ND","ND","ND","ND","ND"],
    [36363,"2014-06-29T22:00:00","38","ND","ND","ND","ND","ND","ND","ND","ND","ND","ND","ND"],
    [36364,"2014-06-29T23:00:00","27","ND","ND","ND","ND","ND","ND","ND","ND","ND","ND","ND"],
    [36365,"2014-06-30T00:00:00","19","ND","ND","ND","ND","ND","ND","ND","ND","ND","ND","ND"],
    [36366,"2014-06-30T01:00:00","19","ND","ND","ND","ND","ND","ND","ND","ND","ND","ND","ND"],
    [36367,"2014-06-30T02:00:00","24","ND","ND","ND","ND","ND","ND","ND","ND","ND","ND","ND"],
    [36368,"2014-06-30T03:00:00","26","ND","ND","ND","ND","ND","ND","ND","ND","ND","ND","ND"],
    [36369,"2014-06-30T04:00:00","25","ND","ND","ND","ND","ND","ND","ND","ND","ND","ND","ND"],
    [36370,"2014-06-30T05:00:00","30","ND","ND","ND","ND","ND","ND","ND","ND","ND","ND","ND"],
    [36371,"2014-06-30T06:00:00","33","ND","ND","ND","ND","ND","ND","ND","ND","ND","ND","ND"],
    [36372,"2014-06-30T07:00:00","31","ND","ND","ND","ND","ND","ND","ND","ND","ND","ND","ND"],
    [36373,"2014-06-30T08:00:00","67","ND","ND","ND","ND","ND","ND","ND","ND","ND","ND","ND"],
    [36374,"2014-06-30T09:00:00","32","ND","ND","ND","ND","ND","ND","ND","ND","ND","ND","ND"],
    [36375,"2014-06-30T10:00:00","37","ND","ND","ND","ND","ND","ND","ND","ND","ND","ND","ND"],
    [36376,"2014-06-30T11:00:00","41","ND","ND","ND","ND","ND","ND","ND","ND","ND","ND","ND"],
    [36377,"2014-06-30T12:00:00","29","ND","ND","ND","ND","ND","ND","ND","ND","ND","ND","ND"],
    [36378,"2014-06-30T13:00:00","37","ND","ND","ND","ND","ND","ND","ND","ND","ND","ND","ND"],
    [36379,"2014-06-30T14:00:00","37","ND","ND","ND","ND","ND","ND","ND","ND","ND","ND","ND"],
    [36380,"2014-06-30T15:00:00","34","ND","ND","ND","ND","ND","ND","ND","ND","ND","ND","ND"],
    [36381,"2014-06-30T16:00:00","27","ND","ND","ND","ND","ND","ND","ND","ND","ND","ND","ND"],
    [36382,"2014-06-30T17:00:00","29","ND","ND","ND","ND","ND","ND","ND","ND","ND","ND","ND"],
    [36383,"2014-06-30T18:00:00","25","ND","ND","ND","ND","ND","ND","ND","ND","ND","ND","ND"],
    [36384,"2014-06-30T19:00:00","29","ND","ND","ND","ND","ND","ND","ND","ND","ND","ND","ND"],
    [36385,"2014-06-30T20:00:00","19","ND","ND","ND","ND","ND","ND","ND","ND","ND","ND","ND"],
    [36386,"2014-06-30T21:00:00","34","ND","ND","ND","ND","ND","ND","ND","ND","ND","ND","ND"],
    [36387,"2014-06-30T22:00:00","54","ND","ND","ND","ND","ND","ND","ND","ND","ND","ND","ND"],
    [36388,"2014-06-30T23:00:00","ND","ND","ND","ND","ND","ND","ND","ND","ND","ND","ND","ND"],
    [36389,"2014-07-01T00:00:00","ND","ND","ND","ND","ND","ND","ND","ND","ND","ND","ND","ND"],
    [36390,"2014-07-01T01:00:00","26","ND","ND","ND","ND","ND","ND","ND","ND","ND","ND","ND"],
    [36391,"2014-07-01T02:00:00","25","ND","ND","ND","ND","ND","ND","ND","ND","ND","ND","ND"],
    [36392,"2014-07-01T03:00:00","42","ND","ND","ND","ND","ND","ND","ND","ND","ND","ND","ND"],
    [36393,"2014-07-01T04:00:00","50","ND","ND","ND","ND","ND","ND","ND","ND","ND","ND","ND"],
    [36394,"2014-07-01T05:00:00","44","ND","ND","ND","ND","ND","ND","ND","ND","ND","ND","ND"],
    [36395,"2014-07-01T06:00:00","38","ND","ND","ND","ND","ND","ND","ND","ND","ND","ND","ND"],
    [36396,"2014-07-01T07:00:00","65","ND","ND","ND","ND","ND","ND","ND","ND","ND","ND","ND"],
    [36397,"2014-07-01T08:00:00","83","ND","ND","ND","ND","ND","ND","ND","ND","ND","ND","ND"],
    [36398,"2014-07-01T09:00:00","87","ND","ND","ND","ND","ND","ND","ND","ND","ND","ND","ND"],
    [36399,"2014-07-01T10:00:00","68","ND","ND","ND","ND","ND","ND","ND","ND","ND","ND","ND"],
    [36400,"2014-07-01T11:00:00","ND","ND","ND","ND","ND","ND","ND","ND","ND","ND","ND","ND"],
    [36401,"2014-07-01T12:00:00","ND","ND","ND","ND","ND","ND","ND","ND","ND","ND","ND","ND"],
    [36402,"2014-07-01T13:00:00","ND","ND","ND","ND","ND","ND","ND","ND","ND","ND","ND","ND"],
    [36403,"2014-07-01T14:00:00","36","ND","ND","ND","ND","ND","ND","ND","ND","ND","ND","ND"],
    [36404,"2014-07-01T15:00:00","ND","ND","ND","ND","ND","ND","1.5","39.5","29.5","53.9","378.8","0"],
    [36405,"2014-07-01T16:00:00","30","ND","ND","ND","ND","ND","1.7","263.2","31","48.3","387.2","0"],
    [36406,"2014-07-01T17:00:00","25","ND","ND","ND","ND","ND","2.8","258.2","30.3","48.8","225","0"],
    [36407,"2014-07-01T18:00:00","22","ND","ND","ND","ND","ND","1.6","269.5","29.4","49.7","59.6","0"],
    [36408,"2014-07-01T19:00:00","25","ND","ND","ND","ND","ND","1.1","245.8","28.3","52.9","0","0"],
    [36409,"2014-07-01T20:00:00","59","ND","ND","ND","ND","ND","0.5","120.6","27.7","55.2","0","0"],
    [36410,"2014-07-01T21:00:00","58","ND","ND","ND","ND","ND","0.4","160","27.1","57.5","0","0"],
    [36411,"2014-07-01T22:00:00","22","ND","ND","ND","ND","ND","0.7","340.7","26.5","58.8","0","0"],
    [36412,"2014-07-01T23:00:00","75","ND","ND","ND","ND","ND","0.5","69.2","25.6","65.8","0","0"],
    [36413,"2014-07-02T00:00:00","48","ND","ND","ND","ND","ND","0.8","158.2","25.3","65.7","0","0"],
    [36414,"2014-07-02T01:00:00","46","ND","ND","ND","ND","ND","1.3","155.9","24.6","71","0","0"],
    [36415,"2014-07-02T02:00:00","25","ND","ND","ND","ND","ND","1.2","35.9","22.9","82.2","0","3.56"],
    [36416,"2014-07-02T03:00:00","26","ND","ND","ND","ND","ND","0.4","68.5","21.7","91.8","0","1.78"],
    [36417,"2014-07-02T04:00:00","23","ND","ND","ND","ND","ND","0.3","322.5","21.6","93.5","0","0"],
    [36418,"2014-07-02T05:00:00","17","ND","ND","ND","ND","ND","0.4","102.7","21.1","94","0","0.25"],
    [36419,"2014-07-02T06:00:00","20","ND","ND","ND","ND","ND","0.9","30","21","92.8","0","0"],
    [36420,"2014-07-02T07:00:00","47","ND","ND","ND","ND","ND","0.2","252.4","21.6","92.1","12.6","0"],
    [36421,"2014-07-02T08:00:00","45","ND","ND","ND","ND","ND","0.6","51.6","21.6","91","82.7","0"],
    [36422,"2014-07-02T09:00:00","44","ND","ND","ND","ND","ND","1","128.5","22.9","83.4","220.6","0"],
    [36423,"2014-07-02T10:00:00","32","ND","ND","ND","ND","ND","1.7","171.2","23.7","78.1","204.2","0"],
    [36424,"2014-07-02T11:00:00","35","ND","ND","ND","ND","ND","2","163.8","24.3","75.4","286.9","0"],
    [36425,"2014-07-02T12:00:00","38","ND","ND","ND","ND","ND","1.1","163.5","26","67.1","542","0"],
    [36426,"2014-07-02T13:00:00","36","ND","ND","ND","ND","ND","1","150.2","27.6","59.9","572.8","0"],
    [36427,"2014-07-02T14:00:00","30","ND","ND","ND","ND","ND","0.9","96.1","28.2","56.9","427.2","0"],
    [36428,"2014-07-02T15:00:00","35","ND","ND","ND","ND","ND","0.9","233","29.4","52.8","534.9","0"],
    [36429,"2014-07-02T16:00:00","35","ND","ND","ND","ND","ND","0.8","97.6","29.8","52.2","382.9","0"],
    [36430,"2014-07-02T17:00:00","38","ND","ND","ND","ND","ND","1.3","103.2","29.2","54.1","75.9","0"],
    [36431,"2014-07-02T18:00:00","36","ND","ND","ND","ND","ND","1.3","176.4","28.6","54.4","27.6","0"],
    [36432,"2014-07-02T19:00:00","30","ND","ND","ND","ND","ND","0.9","247.8","27.6","58.5","0","0"],
    [36433,"2014-07-02T20:00:00","25","ND","ND","ND","ND","ND","0.9","238.2","26.7","60.3","0","0"],
    [36434,"2014-07-02T21:00:00","38","ND","ND","ND","ND","ND","0.3","252.3","25.6","66.4","0","0"],
    [36435,"2014-07-02T22:00:00","48","ND","ND","ND","ND","ND","0.5","136.7","24.8","71.2","0","0"],
    [36436,"2014-07-02T23:00:00","45","ND","ND","ND","ND","ND","0.3","230","24.1","75.1","0","0"],
    [36437,"2014-07-03T00:00:00","38","ND","ND","ND","ND","ND","0.4","268.2","23.5","77.2","0","0"],
    [36438,"2014-07-03T01:00:00","32","ND","ND","ND","ND","ND","0.2","276.8","23","79","0","0"],
    [36439,"2014-07-03T02:00:00","47","ND","ND","ND","ND","ND","0.2","16.2","22.5","80.7","0","0"],
    [36440,"2014-07-03T03:00:00","68","ND","ND","ND","ND","ND","0.5","31.9","22.1","82","0","0"],
    [36441,"2014-07-03T04:00:00","62","ND","ND","ND","ND","ND","0.2","245.7","21.8","82.9","0","0"],
    [36442,"2014-07-03T05:00:00","51","ND","ND","ND","ND","ND","0.3","143.5","21.9","82.7","0","0"],
    [36443,"2014-07-03T06:00:00","53","ND","ND","ND","ND","ND","0.8","342.6","21.4","84.4","0","0"],
    [36444,"2014-07-03T07:00:00","90","ND","ND","ND","ND","ND","0.3","336.7","21.4","85","30.5","0"],
    [36445,"2014-07-03T08:00:00","133","ND","ND","ND","ND","ND","0.4","126.4","22.7","78.9","92.1","0"],
    [36446,"2014-07-03T09:00:00","82","ND","ND","ND","ND","ND","0.8","113.3","23.8","74.8","260.7","0"],
    [36447,"2014-07-03T10:00:00","74","ND","ND","ND","ND","ND","1.1","119.4","26.1","65.3","526.5","0"],
    [36448,"2014-07-03T11:00:00","48","ND","ND","ND","ND","ND","1.3","99.8","27.6","61.2","674.8","0"],
    [36449,"2014-07-03T12:00:00","45","ND","ND","ND","ND","ND","1.3","137.5","28.8","56","555.9","0"],
    [36450,"2014-07-03T13:00:00","50","ND","ND","ND","ND","ND","1.4","106.8","30","53.1","612.1","0"],
    [36451,"2014-07-03T14:00:00","59","ND","ND","ND","ND","ND","0.4","293.5","30.8","50.8","460.7","0"],
    [36452,"2014-07-03T15:00:00","36","ND","ND","ND","ND","ND","1","249.8","31.5","47.2","501.8","0"],
    [36453,"2014-07-03T16:00:00","24","ND","ND","ND","ND","ND","3.3","271.4","31.4","45.2","474.4","0"],
    [36454,"2014-07-03T17:00:00","23","ND","ND","ND","ND","ND","3.5","267.5","30.6","46.2","273","0"],
    [36455,"2014-07-03T18:00:00","22","ND","ND","ND","ND","ND","2.9","268.7","29.4","48.7","63","0"],
    [36456,"2014-07-03T19:00:00","39","ND","ND","ND","ND","ND","0.7","268.7","28.5","51.9","0","0"],
    [36457,"2014-07-03T20:00:00","40","ND","ND","ND","ND","ND","0.8","128.9","27.9","54.9","0","0"],
    [36458,"2014-07-03T21:00:00","53","ND","ND","ND","ND","ND","1","136.5","26.6","62.1","0","0"],
    [36459,"2014-07-03T22:00:00","34","ND","ND","ND","ND","ND","1","116.8","25.8","66","0","0.76"],
    [36460,"2014-07-03T23:00:00","35","ND","ND","ND","ND","ND","0.4","312.8","23.2","84.8","0","0.76"],
    [36461,"2014-07-04T00:00:00","22","ND","ND","ND","ND","ND","0.4","279.7","22.9","85.8","0","0"],
    [36462,"2014-07-04T01:00:00","16","ND","ND","ND","ND","ND","0.2","285.3","22.5","88.1","0","0"],
    [36463,"2014-07-04T02:00:00","48","ND","ND","ND","ND","ND","0.7","8.1","22.5","84.7","0","0"],
    [36464,"2014-07-04T03:00:00","72","ND","ND","ND","ND","ND","0.8","1.2","22.2","85.2","0","0"],
    [36465,"2014-07-04T04:00:00","86","ND","ND","ND","ND","ND","0.5","40.3","22","85.7","0","0"],
    [36466,"2014-07-04T05:00:00","71","ND","ND","ND","ND","ND","0.4","3.6","22","85.3","0","0"],
    [36467,"2014-07-04T06:00:00","66","ND","ND","ND","ND","ND","0.2","257.3","22.2","83.9","0","0"],
    [36468,"2014-07-04T07:00:00","73","ND","ND","ND","ND","ND","0.2","45.5","22.5","82.9","7.1","0"],
    [36469,"2014-07-04T08:00:00","111","ND","ND","ND","ND","ND","0.5","67.6","22.6","83.2","44.9","0"],
    [36470,"2014-07-04T09:00:00","125","ND","ND","ND","ND","ND","0.2","302.3","23.5","79.2","166.3","0"],
    [36471,"2014-07-04T10:00:00","80","ND","ND","ND","ND","ND","0.8","151.6","25.8","65.8","474.1","0"],
    [36472,"2014-07-04T11:00:00","51","ND","ND","ND","ND","ND","1.1","108.4","27.5","58.7","528.6","0"],
    [36473,"2014-07-04T12:00:00","43","ND","ND","ND","ND","ND","1.2","105.6","28.5","53.7","564.1","0"],
    [36474,"2014-07-04T13:00:00","41","ND","ND","ND","ND","ND","1.2","75.7","28.9","52.7","441.8","0"],
    [36475,"2014-07-04T14:00:00","43","ND","ND","ND","ND","ND","1","80.6","29.2","53","406.8","0"],
    [36476,"2014-07-04T15:00:00","48","ND","ND","ND","ND","ND","0.1","20.2","29.5","52","264.5","0"],
    [36477,"2014-07-04T16:00:00","23","ND","ND","ND","ND","ND","1.6","246.5","30.1","48.3","432.9","0"],
    [36478,"2014-07-04T17:00:00","10","ND","ND","ND","ND","ND","2.2","250.2","29.9","48","244.1","0"],
    [36479,"2014-07-04T18:00:00","12","ND","ND","ND","ND","ND","1.3","258.7","29","50.1","62.1","0"],
    [36480,"2014-07-04T19:00:00","28","ND","ND","ND","ND","ND","0.2","272.3","27.9","52.7","0","0"],
    [36481,"2014-07-04T20:00:00","29","ND","ND","ND","ND","ND","0.2","182.4","27.5","54","0","0"],
    [36482,"2014-07-04T21:00:00","25","ND","ND","ND","ND","ND","1.1","123.2","25.3","71.7","0","0.76"],
    [36483,"2014-07-04T22:00:00","21","ND","ND","ND","ND","ND","0.6","27.1","23.2","84.6","0","0.25"],
    [36484,"2014-07-04T23:00:00","28","ND","ND","ND","ND","ND","0.3","26","23","86.2","0","0.25"],
    [36485,"2014-07-05T00:00:00","29","ND","ND","ND","ND","ND","0.1","217.4","23.1","87.4","0","0"],
    [36486,"2014-07-05T01:00:00","24","ND","ND","ND","ND","ND","0.1","72.1","22.8","87","0","0"],
    [36487,"2014-07-05T02:00:00","23","ND","ND","ND","ND","ND","0.4","62.8","22.3","86.6","0","0"],
    [36488,"2014-07-05T03:00:00","25","ND","ND","ND","ND","ND","0.3","286.4","22","87.9","0","0"],
    [36489,"2014-07-05T04:00:00","44","ND","ND","ND","ND","ND","0.5","329.7","21.5","88.9","0","0"],
    [36490,"2014-07-05T05:00:00","58","ND","ND","ND","ND","ND","0.2","2.1","21.5","87.3","0","0"],
    [36491,"2014-07-05T06:00:00","46","ND","ND","ND","ND","ND","0.3","34","21.4","89.5","0","0"],
    [36492,"2014-07-05T07:00:00","54","ND","ND","ND","ND","ND","0.3","204.8","21.8","87.1","23","0"],
    [36493,"2014-07-05T08:00:00","66","ND","ND","ND","ND","ND","1.6","163.6","23.1","80.5","144.9","0"],
    [36494,"2014-07-05T09:00:00","68","ND","ND","ND","ND","ND","1.2","178.9","23.2","81.5","111.2","0"],
    [36495,"2014-07-05T10:00:00","62","ND","ND","ND","ND","ND","0.3","67","25.1","70.8","438.9","0"],
    [36496,"2014-07-05T11:00:00","51","ND","ND","ND","ND","ND","1","98.5","26.9","62.4","636.2","0"],
    [36497,"2014-07-05T12:00:00","51","ND","ND","ND","ND","ND","1.1","148.8","27.7","59.1","446.2","0"],
    [36498,"2014-07-05T13:00:00","51","ND","ND","ND","ND","ND","0.9","89.3","28.8","56.1","435.3","0"],
    [36499,"2014-07-05T14:00:00","50","ND","ND","ND","ND","ND","0.8","359.8","29.4","54.5","487","0"],
    [36500,"2014-07-05T15:00:00","44","ND","ND","ND","ND","ND","1","20.6","30.1","52.6","417","0"],
    [36501,"2014-07-05T16:00:00","27","ND","ND","ND","ND","ND","1.3","272","30.2","51.1","423.7","0"],
    [36502,"2014-07-05T17:00:00","22","ND","ND","ND","ND","ND","2.8","256.2","30","49.6","266.7","0"],
    [36503,"2014-07-05T18:00:00","18","ND","ND","ND","ND","ND","2","268","28.8","51.7","65.6","0"],
    [36504,"2014-07-05T19:00:00","24","ND","ND","ND","ND","ND","0.8","244.5","27.9","54.2","0","0"],
    [36505,"2014-07-05T20:00:00","39","ND","ND","ND","ND","ND","0.5","80.7","27.3","56.6","0","0"],
    [36506,"2014-07-05T21:00:00","58","ND","ND","ND","ND","ND","0.7","171.4","26.5","60.2","0","0"],
    [36507,"2014-07-05T22:00:00","47","ND","ND","ND","ND","ND","1.1","146.7","25.1","67.8","0","0"],
    [36508,"2014-07-05T23:00:00","43","ND","ND","ND","ND","ND","0.6","158.5","24.7","70.1","0","0"],
    [36509,"2014-07-06T00:00:00","36","ND","ND","ND","ND","ND","0.1","127.4","24.3","71.5","0","0"],
    [36510,"2014-07-06T01:00:00","48","ND","ND","ND","ND","ND","0.5","181.8","23.9","73.7","0","0"],
    [36511,"2014-07-06T02:00:00","57","ND","ND","ND","ND","ND","0.9","2.7","23.5","75.8","0","0"],
    [36512,"2014-07-06T03:00:00","35","ND","ND","ND","ND","ND","0.4","341.4","22.8","79.9","0","0"],
    [36513,"2014-07-06T04:00:00","46","ND","ND","ND","ND","ND","0.3","6.2","22.8","80","0","0"],
    [36514,"2014-07-06T05:00:00","41","ND","ND","ND","ND","ND","0.4","51.3","22.5","81.6","0","0"],
    [36515,"2014-07-06T06:00:00","52","ND","ND","ND","ND","ND","0.3","255.5","22.5","81.8","0","0"],
    [36516,"2014-07-06T07:00:00","49","ND","ND","ND","ND","ND","0.1","156","22.8","80.4","17.4","0"],
    [36517,"2014-07-06T08:00:00","57","ND","ND","ND","ND","ND","0.1","41","23.2","79","44.5","0"],
    [36518,"2014-07-06T09:00:00","62","ND","ND","ND","ND","ND","0.8","171","23.4","80.5","105.5","0"],
    [36519,"2014-07-06T10:00:00","44","ND","ND","ND","ND","ND","1.2","172.8","23.6","83.5","392.7","1.27"],
    [36520,"2014-07-06T11:00:00","31","ND","ND","ND","ND","ND","1.1","150.1","25.7","70.8","523.2","0"],
    [36521,"2014-07-06T12:00:00","23","ND","ND","ND","ND","ND","0.6","181.6","27.6","60","747.9","0"],
    [36522,"2014-07-06T13:00:00","31","ND","ND","ND","ND","ND","0.5","16.9","29.4","52.5","718.3","0"],
    [36523,"2014-07-06T14:00:00","31","ND","ND","ND","ND","ND","0.9","261.5","30","51","336.1","0"],
    [36524,"2014-07-06T15:00:00","28","ND","ND","ND","ND","ND","0.8","311.3","30.1","50","423.6","0"],
    [36525,"2014-07-06T16:00:00","26","ND","ND","ND","ND","ND","0.9","289.2","30.4","48.9","385.1","0"],
    [36526,"2014-07-06T17:00:00","16","ND","ND","ND","ND","ND","3","253.5","30.3","47.7","304","0"],
    [36527,"2014-07-06T18:00:00","25","ND","ND","ND","ND","ND","2.3","250.9","29.1","50.3","82.7","0"],
    [36528,"2014-07-06T19:00:00","19","ND","ND","ND","ND","ND","0.8","225.7","27.8","53.4","0","0"],
    [36529,"2014-07-06T20:00:00","26","ND","ND","ND","ND","ND","1.1","251.2","26.5","57.5","0","0"],
    [36530,"2014-07-06T21:00:00","34","ND","ND","ND","ND","ND","1","101.1","25.9","62.6","0","0"],
    [36531,"2014-07-06T22:00:00","53","ND","ND","ND","ND","ND","0.6","161.3","25.3","67.3","0","0"],
    [36532,"2014-07-06T23:00:00","45","ND","ND","ND","ND","ND","0.2","144.9","24.4","70.1","0","0"],
    [36533,"2014-07-07T00:00:00","38","ND","ND","ND","ND","ND","0.5","177.4","23.7","73.1","0","0"],
    [36534,"2014-07-07T01:00:00","47","ND","ND","ND","ND","ND","0.3","185","23.3","75.8","0","0"],
    [36535,"2014-07-07T02:00:00","46","ND","ND","ND","ND","ND","0.5","29.9","22.9","77","0","0"],
    [36536,"2014-07-07T03:00:00","40","ND","ND","ND","ND","ND","0.3","240","22.7","78.1","0","0"],
    [36537,"2014-07-07T04:00:00","55","ND","ND","ND","ND","ND","0.5","15.1","22.3","79.7","0","0"],
    [36538,"2014-07-07T05:00:00","61","ND","ND","ND","ND","ND","0.1","338.7","21.8","82.2","0","0"],
    [36539,"2014-07-07T06:00:00","56","ND","ND","ND","ND","ND","0.4","278.3","21.9","82","0","0"],
    [36540,"2014-07-07T07:00:00","81","ND","ND","ND","ND","ND","0.3","122.6","21.9","81.9","18.1","0"],
    [36541,"2014-07-07T08:00:00","102","ND","ND","ND","ND","ND","0.3","10.1","22.8","79.1","67.1","0"],
    [36542,"2014-07-07T09:00:00","85","ND","ND","ND","ND","ND","1","118.4","24.7","69.5","367.6","0"],
    [36543,"2014-07-07T10:00:00","61","ND","ND","ND","ND","ND","1.1","128.4","25.9","64.7","350.7","0"],
    [36544,"2014-07-07T11:00:00","51","ND","ND","ND","ND","ND","0.6","183.1","26.8","60.4","398.8","0"],
    [36545,"2014-07-07T12:00:00","52","ND","ND","ND","ND","ND","1.5","154.4","28.1","55.4","535.8","0"],
    [36546,"2014-07-07T13:00:00","56","ND","ND","ND","ND","ND","1.5","115.7","28.6","55","657.8","0"],
    [36547,"2014-07-07T14:00:00","64","ND","ND","ND","ND","ND","1.6","101.7","30.1","51.5","698.2","0"],
    [36548,"2014-07-07T15:00:00","73","ND","ND","ND","ND","ND","0.8","205.2","31.6","47.1","552.8","0"],
    [36549,"2014-07-07T16:00:00","36","ND","ND","ND","ND","ND","2.1","257.8","30.6","47.9","235.1","0"],
    [36550,"2014-07-07T17:00:00","35","ND","ND","ND","ND","ND","2.6","255.3","30.8","46.5","272.7","0"],
    [36551,"2014-07-07T18:00:00","38","ND","ND","ND","ND","ND","1.4","272.4","29.7","48.5","71.3","0"],
    [36552,"2014-07-07T19:00:00","56","ND","ND","ND","ND","ND","0.5","251.5","28","52.9","0","0"],
    [36553,"2014-07-07T20:00:00","53","ND","ND","ND","ND","ND","0.4","151.2","27.7","54","0","0"],
    [36554,"2014-07-07T21:00:00","68","ND","ND","ND","ND","ND","1","114.5","27","58.5","0","0"],
    [36555,"2014-07-07T22:00:00","65","ND","ND","ND","ND","ND","0.8","133.7","25.9","64.7","0","0"],
    [36556,"2014-07-07T23:00:00","55","ND","ND","ND","ND","ND","0.5","169.5","24","79.7","0","3.05"],
    [36557,"2014-07-08T00:00:00","55","ND","ND","ND","ND","ND","0.2","2.7","23.3","86.5","0","0.25"],
    [36558,"2014-07-08T01:00:00","39","ND","ND","ND","ND","ND","0.5","251.9","23.1","88.9","0","0"],
    [36559,"2014-07-08T02:00:00","38","ND","ND","ND","ND","ND","0.4","292.2","23","88.1","0","0"],
    [36560,"2014-07-08T03:00:00","43","ND","ND","ND","ND","ND","0.1","78.8","23.1","87","0","0"],
    [36561,"2014-07-08T04:00:00","37","ND","ND","ND","ND","ND","0.2","82","22.8","88","0","0"],
    [36562,"2014-07-08T05:00:00","48","ND","ND","ND","ND","ND","0.2","333","22.3","89.2","0","0"],
    [36563,"2014-07-08T06:00:00","46","ND","ND","ND","ND","ND","0.1","290.6","21.9","90.2","0","0"],
    [36564,"2014-07-08T07:00:00","67","ND","ND","ND","ND","ND","0.3","49.8","22.2","88.3","48.4","0"],
    [36565,"2014-07-08T08:00:00","84","ND","ND","ND","ND","ND","0.4","137.2","24.1","80.2","202.9","0"],
    [36566,"2014-07-08T09:00:00","78","ND","ND","ND","ND","ND","1.4","131.6","25","75.1","283.1","0"],
    [36567,"2014-07-08T10:00:00","60","ND","ND","ND","ND","ND","0.9","116.2","26.3","68.1","533.5","0"],
    [36568,"2014-07-08T11:00:00","52","ND","ND","ND","ND","ND","1.1","86.3","27.4","61","610.2","0"],
    [36569,"2014-07-08T12:00:00","52","ND","ND","ND","ND","ND","1","85.2","28.7","55.9","624.8","0"],
    [36570,"2014-07-08T13:00:00","52","ND","ND","ND","ND","ND","0.7","43.9","29.6","52.6","641.1","0"],
    [36571,"2014-07-08T14:00:00","43","ND","ND","ND","ND","ND","1.5","120.4","30.9","47.1","660.2","0"],
    [36572,"2014-07-08T15:00:00","51","ND","ND","ND","ND","ND","1.4","76.8","31.6","44.7","477.8","0"],
    [36573,"2014-07-08T16:00:00","51","ND","ND","ND","ND","ND","1.7","17","31.3","45.6","313.4","0"],
    [36574,"2014-07-08T17:00:00","37","ND","ND","ND","ND","ND","1.2","253.5","31.5","45.7","286.8","0"],
    [36575,"2014-07-08T18:00:00","30","ND","ND","ND","ND","ND","1.4","267.8","30.5","48.7","76.6","0"],
    [36576,"2014-07-08T19:00:00","34","ND","ND","ND","ND","ND","1.1","244.5","29.1","52.6","4.8","0"],
    [36577,"2014-07-08T20:00:00","45","ND","ND","ND","ND","ND","0.5","253.4","28.6","53.1","0","0"],
    [36578,"2014-07-08T21:00:00","53","ND","ND","ND","ND","ND","0.2","328.7","28","54.4","0","0"],
    [36579,"2014-07-08T22:00:00","65","ND","ND","ND","ND","ND","0.9","105.7","27.6","55.1","0","0"],
    [36580,"2014-07-08T23:00:00","51","ND","ND","ND","ND","ND","0.2","107.6","26.5","60.5","0","0"],
    [36581,"2014-07-09T00:00:00","46","ND","ND","ND","ND","ND","0.5","190.1","26.2","62.5","0","0"],
    [36582,"2014-07-09T01:00:00","69","ND","ND","ND","ND","ND","0.4","305.1","25.3","65.2","0","0"],
    [36583,"2014-07-09T02:00:00","57","ND","ND","ND","ND","ND","0.5","343.6","24.8","65.4","0","0"],
    [36584,"2014-07-09T03:00:00","77","ND","ND","ND","ND","ND","0.6","347.8","24.1","70.5","0","0"],
    [36585,"2014-07-09T04:00:00","76","ND","ND","ND","ND","ND","0.2","302.7","23.4","70.8","0","0"],
    [36586,"2014-07-09T05:00:00","73","ND","ND","ND","ND","ND","0.2","254.8","22.8","74.1","0","0"],
    [36587,"2014-07-09T06:00:00","58","ND","ND","ND","ND","ND","0.1","254.6","22.4","75.1","0","0"],
    [36588,"2014-07-09T07:00:00","95","ND","ND","ND","ND","ND","0.2","51.2","22.5","73.9","32.7","0"],
    [36589,"2014-07-09T08:00:00","96","ND","ND","ND","ND","ND","1.3","47.3","23.5","71.9","196.7","0"],
    [36590,"2014-07-09T09:00:00","86","ND","ND","ND","ND","ND","0.9","49.6","25.5","64.3","383.7","0"],
    [36591,"2014-07-09T10:00:00","50","ND","ND","ND","ND","ND","1.3","90.6","27.3","56.3","550.5","0"],
    [36592,"2014-07-09T11:00:00","58","ND","ND","ND","ND","ND","0.5","100.1","28.8","50.8","674.7","0"],
    [36593,"2014-07-09T12:00:00","67","ND","ND","ND","ND","ND","0.9","155.5","30.6","45","749.1","0"],
    [36594,"2014-07-09T13:00:00","61","ND","ND","ND","ND","ND","1.5","48.1","32","40.6","696.9","0"],
    [36595,"2014-07-09T14:00:00","53","ND","ND","ND","ND","ND","1.3","46.9","32.8","35.1","580.9","0"],
    [36596,"2014-07-09T15:00:00","58","ND","ND","ND","ND","ND","1.5","11.7","33","37.9","620.9","0"],
    [36597,"2014-07-09T16:00:00","43","ND","ND","ND","ND","ND","1.2","312.9","32.7","41.2","471.3","0"],
    [36598,"2014-07-09T17:00:00","37","ND","ND","ND","ND","ND","1.9","277.8","31.3","45","192.9","0"],
    [36599,"2014-07-09T18:00:00","34","ND","ND","ND","ND","ND","1.1","261","30.2","47.4","71.6","0"],
    [36600,"2014-07-09T19:00:00","40","ND","ND","ND","ND","ND","0.4","237.7","29.2","49.3","0","0"],
    [36601,"2014-07-09T20:00:00","53","ND","ND","ND","ND","ND","0.5","236.9","28.1","52.6","0","0"],
    [36602,"2014-07-09T21:00:00","79","ND","ND","ND","ND","ND","0.8","144","27.5","56.1","0","0"],
    [36603,"2014-07-09T22:00:00","139","ND","ND","ND","ND","ND","0.2","58.5","26.6","62.5","0","0"],
    [36604,"2014-07-09T23:00:00","121","ND","ND","ND","ND","ND","0.7","38.7","26.2","64.2","0","0"],
    [36605,"2014-07-10T00:00:00","140","ND","ND","ND","ND","ND","0.4","300","25.4","68.4","0","0"],
    [36606,"2014-07-10T01:00:00","110","ND","ND","ND","ND","ND","0.1","323.7","25.3","68.7","0","0"],
    [36607,"2014-07-10T02:00:00","71","ND","ND","ND","ND","ND","0.1","18.6","24.6","71.4","0","0"],
    [36608,"2014-07-10T03:00:00","95","ND","ND","ND","ND","ND","0.5","332.4","24","73.1","0","0"],
    [36609,"2014-07-10T04:00:00","79","ND","ND","ND","ND","ND","0.3","338.2","23.6","73.9","0","0"],
    [36610,"2014-07-10T05:00:00","78","ND","ND","ND","ND","ND","0.4","42.9","23.1","75.6","0","0"],
    [36611,"2014-07-10T06:00:00","116","ND","ND","ND","ND","ND","1","13","21.9","83.5","0","0"],
    [36612,"2014-07-10T07:00:00","126","ND","ND","ND","ND","ND","0.6","3","21.9","83","16.2","0"],
    [36613,"2014-07-10T08:00:00","137","ND","ND","ND","ND","ND","0.5","47.4","22.9","76.1","73.1","0"],
    [36614,"2014-07-10T09:00:00","130","ND","ND","ND","ND","ND","0.2","342.4","24.1","70.4","209.8","0"],
    [36615,"2014-07-10T10:00:00","106","ND","ND","ND","ND","ND","1","39.4","25.7","63.7","496.4","0"],
    [36616,"2014-07-10T11:00:00","53","ND","ND","ND","ND","ND","1.1","111.5","27.9","53.5","727.9","0"],
    [36617,"2014-07-10T12:00:00","68","ND","ND","ND","ND","ND","1.4","136.3","29.3","49.7","646.3","0"],
    [36618,"2014-07-10T13:00:00","68","ND","ND","ND","ND","ND","1.5","122.7","29.9","48.8","531.1","0"],
    [36619,"2014-07-10T14:00:00","70","ND","ND","ND","ND","ND","1","95.1","30.6","47","491.5","0"],
    [36620,"2014-07-10T15:00:00","71","ND","ND","ND","ND","ND","1.4","70.9","30.3","47.3","253.6","0"],
    [36621,"2014-07-10T16:00:00","81","ND","ND","ND","ND","ND","1.5","55.1","30.1","47.7","194.9","0"],
    [36622,"2014-07-10T17:00:00","64","ND","ND","ND","ND","ND","1.2","24.4","29.9","49.8","140.8","0"],
    [36623,"2014-07-10T18:00:00","53","ND","ND","ND","ND","ND","0.8","276.2","29.3","49.6","43.9","0"],
    [36624,"2014-07-10T19:00:00","43","ND","ND","ND","ND","ND","1.5","249.2","28.3","51.5","0","0"],
    [36625,"2014-07-10T20:00:00","50","ND","ND","ND","ND","ND","1.4","254.8","27.7","54","0","0"],
    [36626,"2014-07-10T21:00:00","92","ND","ND","ND","ND","ND","0.8","120.3","27.4","56.3","0","0"],
    [36627,"2014-07-10T22:00:00","63","ND","ND","ND","ND","ND","0.4","118.2","26.1","64.4","0","0"],
    [36628,"2014-07-10T23:00:00","58","ND","ND","ND","ND","ND","0.5","106","25.6","66.9","0","0"],
    [36629,"2014-07-11T00:00:00","93","ND","ND","ND","ND","ND","0.7","144.5","24.6","71.5","0","0"],
    [36630,"2014-07-11T01:00:00","89","ND","ND","ND","ND","ND","0.1","232.4","24.3","73.4","0","0"],
    [36631,"2014-07-11T02:00:00","60","ND","ND","ND","ND","ND","0.2","259.1","23.7","75.5","0","0"],
    [36632,"2014-07-11T03:00:00","69","ND","ND","ND","ND","ND","0.1","351.7","23.2","77.7","0","0"],
    [36633,"2014-07-11T04:00:00","53","ND","ND","ND","ND","ND","0.7","152.9","23.1","78.1","0","0"],
    [36634,"2014-07-11T05:00:00","54","ND","ND","ND","ND","ND","0.2","158.3","22.5","81.2","0","0"],
    [36635,"2014-07-11T06:00:00","54","ND","ND","ND","ND","ND","0.4","258.5","21.7","83.6","0","0"],
    [36636,"2014-07-11T07:00:00","67","ND","ND","ND","ND","ND","0.3","279.7","22","82.6","40","0"],
    [36637,"2014-07-11T08:00:00","96","ND","ND","ND","ND","ND","0.2","80.1","24.4","70.6","204","0"],
    [36638,"2014-07-11T09:00:00","136","ND","ND","ND","ND","ND","0.6","131.7","25.8","65.2","319.9","0"],
    [36639,"2014-07-11T10:00:00","111","ND","ND","ND","ND","ND","0.3","63.1","27.2","60.6","439.2","0"],
    [36640,"2014-07-11T11:00:00","75","ND","ND","ND","ND","ND","1.6","123.1","28.3","56.6","579.4","0"],
    [36641,"2014-07-11T12:00:00","78","ND","ND","ND","ND","ND","1.1","90.6","28.9","55","498.3","0"],
    [36642,"2014-07-11T13:00:00","80","ND","ND","ND","ND","ND","1.2","79.2","29.8","52.2","668.4","0"],
    [36643,"2014-07-11T14:00:00","65","ND","ND","ND","ND","ND","1.2","45.2","31.1","46.8","706.5","0"],
    [36644,"2014-07-11T15:00:00","65","ND","ND","ND","ND","ND","0.9","26.7","32.5","41","619.8","0"],
    [36645,"2014-07-11T16:00:00","49","ND","ND","ND","ND","ND","1.5","51.7","32.9","37.9","408.6","0"],
    [36646,"2014-07-11T17:00:00","45","ND","ND","ND","ND","ND","1.9","99.9","32.4","37.5","149.6","0"],
    [36647,"2014-07-11T18:00:00","59","ND","ND","ND","ND","ND","1","131.5","31.7","39.2","40.1","0"],
    [36648,"2014-07-11T19:00:00","77","ND","ND","ND","ND","ND","0.5","88.7","30","48","0","0"],
    [36649,"2014-07-11T20:00:00","80","ND","ND","ND","ND","ND","1.1","256.2","28.6","52.5","0","0"],
    [36650,"2014-07-11T21:00:00","70","ND","ND","ND","ND","ND","0.5","240.4","28.1","54.2","0","0"],
    [36651,"2014-07-11T22:00:00","63","ND","ND","ND","ND","ND","0.6","87.5","27.7","57.2","0","0"],
    [36652,"2014-07-11T23:00:00","83","ND","ND","ND","ND","ND","1.6","134","27.1","59.2","0","0"],
    [36653,"2014-07-12T00:00:00","39","ND","ND","ND","ND","ND","1.2","217.4","26.6","59.4","0","0"],
    [36654,"2014-07-12T01:00:00","63","ND","ND","ND","ND","ND","0.2","354.7","26.1","61.7","0","0"],
    [36655,"2014-07-12T02:00:00","93","ND","ND","ND","ND","ND","0.3","5.8","24.3","71.2","0","0"],
    [36656,"2014-07-12T03:00:00","88","ND","ND","ND","ND","ND","0.1","258.3","23.7","73.4","0","0"],
    [36657,"2014-07-12T04:00:00","59","ND","ND","ND","ND","ND","0.6","262.3","23","74.2","0","0"],
    [36658,"2014-07-12T05:00:00","56","ND","ND","ND","ND","ND","0.3","306.2","22.6","75.4","0","0"],
    [36659,"2014-07-12T06:00:00","84","ND","ND","ND","ND","ND","0.1","300.7","22.3","76.3","0","0"],
    [36660,"2014-07-12T07:00:00","111","ND","ND","ND","ND","ND","0.4","19.5","22","76.2","41.5","0"],
    [36661,"2014-07-12T08:00:00","163","ND","ND","ND","ND","ND","1","45","22.8","73.8","201.8","0"],
    [36662,"2014-07-12T09:00:00","93","ND","ND","ND","ND","ND","0.9","41.4","25.4","61.8","388.4","0"],
    [36663,"2014-07-12T10:00:00","70","ND","ND","ND","ND","ND","1.1","108.5","27.3","52.3","565.5","0"],
    [36664,"2014-07-12T11:00:00","49","ND","ND","ND","ND","ND","0.8","125.3","28.9","43.5","681.1","0"],
    [36665,"2014-07-12T12:00:00","45","ND","ND","ND","ND","ND","0.5","166.2","30.3","39.2","759.1","0"],
    [36666,"2014-07-12T13:00:00","52","ND","ND","ND","ND","ND","0.6","140.7","31.7","36.6","659","0"],
    [36667,"2014-07-12T14:00:00","45","ND","ND","ND","ND","ND","1.9","113.2","32.9","33.6","682.9","0"],
    [36668,"2014-07-12T15:00:00","53","ND","ND","ND","ND","ND","1.2","100.9","33.5","32.6","568.9","0"],
    [36669,"2014-07-12T16:00:00","50","ND","ND","ND","ND","ND","1.9","35.4","33.1","34","310.9","0"],
    [36670,"2014-07-12T17:00:00","44","ND","ND","ND","ND","ND","0.9","10.3","32.1","41.1","163.7","0"],
    [36671,"2014-07-12T18:00:00","46","ND","ND","ND","ND","ND","1.2","260.5","30.8","45.2","32.7","0"],
    [36672,"2014-07-12T19:00:00","49","ND","ND","ND","ND","ND","1.8","241.3","29.4","49","0","0"],
    [36673,"2014-07-12T20:00:00","36","ND","ND","ND","ND","ND","1.2","247.2","28.3","52.3","0","0"],
    [36674,"2014-07-12T21:00:00","67","ND","ND","ND","ND","ND","1.3","131.6","28","54.7","0","0"],
    [36675,"2014-07-12T22:00:00","54","ND","ND","ND","ND","ND","0.1","231.2","27.1","57.1","0","0"],
    [36676,"2014-07-12T23:00:00","53","ND","ND","ND","ND","ND","0.1","318.6","26","62.3","0","0"],
    [36677,"2014-07-13T00:00:00","64","ND","ND","ND","ND","ND","0.2","163.3","25.1","68.1","0","0"],
    [36678,"2014-07-13T01:00:00","62","ND","ND","ND","ND","ND","0","313.9","24.3","72.3","0","0"],
    [36679,"2014-07-13T02:00:00","50","ND","ND","ND","ND","ND","0.5","301","23.5","74.4","0","0"],
    [36680,"2014-07-13T03:00:00","55","ND","ND","ND","ND","ND","0.6","17","23.1","75.6","0","0"],
    [36681,"2014-07-13T04:00:00","50","ND","ND","ND","ND","ND","0.2","331.1","22.9","76.6","0","0"],
    [36682,"2014-07-13T05:00:00","56","ND","ND","ND","ND","ND","0.4","315.4","22.3","78.1","0","0"],
    [36683,"2014-07-13T06:00:00","47","ND","ND","ND","ND","ND","0.4","237.2","22.5","76.1","0","0"],
    [36684,"2014-07-13T07:00:00","48","ND","ND","ND","ND","ND","0.1","257","22.7","74.1","29.8","0"],
    [36685,"2014-07-13T08:00:00","60","ND","ND","ND","ND","ND","0.3","48.2","23.9","68.9","119.4","0"],
    [36686,"2014-07-13T09:00:00","78","ND","ND","ND","ND","ND","1.2","118.5","24.9","64.4","200.7","0"],
    [36687,"2014-07-13T10:00:00","43","ND","ND","ND","ND","ND","0.4","127.8","26","54.6","337","0"],
    [36688,"2014-07-13T11:00:00","32","ND","ND","ND","ND","ND","0.4","87.6","27.8","48.8","428.3","0"],
    [36689,"2014-07-13T12:00:00","42","ND","ND","ND","ND","ND","1","70.5","28.6","47.2","522.5","0"],
    [36690,"2014-07-13T13:00:00","41","ND","ND","ND","ND","ND","1.2","65.7","30","43.9","711.6","0"],
    [36691,"2014-07-13T14:00:00","42","ND","ND","ND","ND","ND","1.7","119.1","31.2","39.9","620.3","0"],
    [36692,"2014-07-13T15:00:00","34","ND","ND","ND","ND","ND","1.6","79.1","31.3","39.8","417.9","0"],
    [36693,"2014-07-13T16:00:00","34","ND","ND","ND","ND","ND","1.9","31","31.4","39","496.4","0"],
    [36694,"2014-07-13T17:00:00","32","ND","ND","ND","ND","ND","1.3","48.4","30.9","40.8","155.9","0"],
    [36695,"2014-07-13T18:00:00","26","ND","ND","ND","ND","ND","1.1","92.4","30.2","42.1","21.2","0"],
    [36696,"2014-07-13T19:00:00","44","ND","ND","ND","ND","ND","0.9","95.6","29.2","43.6","0","0"],
    [36697,"2014-07-13T20:00:00","49","ND","ND","ND","ND","ND","0.3","246.5","28.1","46.4","0","0"],
    [36698,"2014-07-13T21:00:00","42","ND","ND","ND","ND","ND","0.5","277.9","26.4","56.7","0","0"],
    [36699,"2014-07-13T22:00:00","47","ND","ND","ND","ND","ND","0.3","236.4","26","56.2","0","0"],
    [36700,"2014-07-13T23:00:00","69","ND","ND","ND","ND","ND","0.8","136.6","26.3","58.1","0","0"],
    [36701,"2014-07-14T00:00:00","50","ND","ND","ND","ND","ND","0.2","158.9","25.7","60.3","0","0"],
    [36702,"2014-07-14T01:00:00","45","ND","ND","ND","ND","ND","0.7","153.2","25.3","66.1","0","0"],
    [36703,"2014-07-14T02:00:00","55","ND","ND","ND","ND","ND","0.6","170.9","24.9","65.4","0","0"],
    [36704,"2014-07-14T03:00:00","49","ND","ND","ND","ND","ND","0.4","335.4","24","69.4","0","0"],
    [36705,"2014-07-14T04:00:00","37","ND","ND","ND","ND","ND","0.2","262.2","23.6","71.9","0","0"],
    [36706,"2014-07-14T05:00:00","50","ND","ND","ND","ND","ND","0.3","266.5","23.7","73.3","0","0"],
    [36707,"2014-07-14T06:00:00","52","ND","ND","ND","ND","ND","0.7","138.8","23.4","75.8","0","0"],
    [36708,"2014-07-14T07:00:00","73","ND","ND","ND","ND","ND","0.3","152.3","23.4","75.3","26","0"],
    [36709,"2014-07-14T08:00:00","78","ND","ND","ND","ND","ND","0.3","200.5","24.1","71.8","113.5","0"],
    [36710,"2014-07-14T09:00:00","97","ND","ND","ND","ND","ND","0.8","153.9","25.7","65","237.2","0"],
    [36711,"2014-07-14T10:00:00","73","ND","ND","ND","ND","ND","1.6","154.5","26.8","59.7","407.9","0"],
    [36712,"2014-07-14T11:00:00","51","ND","ND","ND","ND","ND","1.9","135.2","27.8","54.9","420.3","0"],
    [36713,"2014-07-14T12:00:00","46","ND","ND","ND","ND","ND","0.8","90.3","29.1","50.4","652.4","0"],
    [36714,"2014-07-14T13:00:00","50","ND","ND","ND","ND","ND","1.7","40.2","29.9","48.9","595.1","0"],
    [36715,"2014-07-14T14:00:00","62","ND","ND","ND","ND","ND","1.3","55.5","30.8","45","545.5","0"],
    [36716,"2014-07-14T15:00:00","56","ND","ND","ND","ND","ND","1.8","69.3","31.3","44.7","389.3","0"],
    [36717,"2014-07-14T16:00:00","55","ND","ND","ND","ND","ND","2.2","44.3","30.9","47.6","280.4","0"],
    [36718,"2014-07-14T17:00:00","25","ND","ND","ND","ND","ND","1.9","251.6","30.2","47.5","99.6","0"],
    [36719,"2014-07-14T18:00:00","33","ND","ND","ND","ND","ND","1.4","242.3","29.2","49.6","28.2","0"],
    [36720,"2014-07-14T19:00:00","34","ND","ND","ND","ND","ND","1","232","28.3","52","0","0"],
    [36721,"2014-07-14T20:00:00","16","ND","ND","ND","ND","ND","2.4","247.9","27.8","53.2","0","0"],
    [36722,"2014-07-14T21:00:00","37","ND","ND","ND","ND","ND","0.9","108.9","28.1","52.2","0","0"],
    [36723,"2014-07-14T22:00:00","31","ND","ND","ND","ND","ND","1","156.4","27.3","56.9","0","0"],
    [36724,"2014-07-14T23:00:00","43","ND","ND","ND","ND","ND","0.4","337.8","26.6","60.5","0","0"],
    [36725,"2014-07-15T00:00:00","55","ND","ND","ND","ND","ND","0.5","104.6","26.2","65.6","0","0"],
    [36726,"2014-07-15T01:00:00","55","ND","ND","ND","ND","ND","0.5","125.9","25.3","69.3","0","0"],
    [36727,"2014-07-15T02:00:00","27","ND","ND","ND","ND","ND","0.6","24","24.7","71.7","0","0"],
    [36728,"2014-07-15T03:00:00","37","ND","ND","ND","ND","ND","0.4","351.2","24.4","72.8","0","0"],
    [36729,"2014-07-15T04:00:00","51","ND","ND","ND","ND","ND","0.5","34.2","23.8","75.8","0","0"],
    [36730,"2014-07-15T05:00:00","43","ND","ND","ND","ND","ND","0.4","263.2","23.8","75.8","0","0"],
    [36731,"2014-07-15T06:00:00","48","ND","ND","ND","ND","ND","0.3","30","23.9","74.9","0","0"],
    [36732,"2014-07-15T07:00:00","59","ND","ND","ND","ND","ND","0.5","23.9","22.7","83.6","24.1","0"],
    [36733,"2014-07-15T08:00:00","80","ND","ND","ND","ND","ND","0.9","122.8","24.3","74.1","223.4","0"],
    [36734,"2014-07-15T09:00:00","88","ND","ND","ND","ND","ND","1","145.2","25.8","67.4","335.9","0"],
    [36735,"2014-07-15T10:00:00","83","ND","ND","ND","ND","ND","0.9","113.8","27.1","61.7","353.5","0"],
    [36736,"2014-07-15T11:00:00","90","ND","ND","ND","ND","ND","1","64.6","27.1","61.6","280.8","0"],
    [36737,"2014-07-15T12:00:00","82","ND","ND","ND","ND","ND","1.3","82.2","28","57.6","371.3","0"],
    [36738,"2014-07-15T13:00:00","67","ND","ND","ND","ND","ND","1.5","76.1","28.5","52.7","332.2","0"],
    [36739,"2014-07-15T14:00:00","80","ND","ND","ND","ND","ND","1.1","38.2","29.6","50","526.2","0"],
    [36740,"2014-07-15T15:00:00","50","ND","ND","ND","ND","ND","1.9","48.3","29.3","52.1","237.4","0"],
    [36741,"2014-07-15T16:00:00","35","ND","ND","ND","ND","ND","1","122.2","29.6","51.1","282.8","0"],
    [36742,"2014-07-15T17:00:00","53","ND","ND","ND","ND","ND","0.2","80.5","30.1","49.9","230","0"],
    [36743,"2014-07-15T18:00:00","50","ND","ND","ND","ND","ND","0.2","304.1","29.6","50.6","73.8","0"],
    [36744,"2014-07-15T19:00:00","43","ND","ND","ND","ND","ND","2.3","250.7","27.9","55.1","0","0"],
    [36745,"2014-07-15T20:00:00","67","ND","ND","ND","ND","ND","0.5","241.4","27.2","57.9","0","0"],
    [36746,"2014-07-15T21:00:00","62","ND","ND","ND","ND","ND","0.6","267.1","26.8","59.6","0","0"],
    [36747,"2014-07-15T22:00:00","61","ND","ND","ND","ND","ND","0.6","118.1","26.4","62.2","0","0"],
    [36748,"2014-07-15T23:00:00","39","ND","ND","ND","ND","ND","0.5","139.4","25.7","65.4","0","0"],
    [36749,"2014-07-16T00:00:00","44","ND","ND","ND","ND","ND","0.2","249.2","24.9","69.2","0","0"],
    [36750,"2014-07-16T01:00:00","56","ND","ND","ND","ND","ND","0.4","83.4","24.7","70.4","0","0"],
    [36751,"2014-07-16T02:00:00","76","ND","ND","ND","ND","ND","0.4","348","23.7","75.3","0","0"],
    [36752,"2014-07-16T03:00:00","53","ND","ND","ND","ND","ND","0.3","284.7","23.5","76","0","0"],
    [36753,"2014-07-16T04:00:00","59","ND","ND","ND","ND","ND","0.3","342.1","23.6","75.5","0","0"],
    [36754,"2014-07-16T05:00:00","69","ND","ND","ND","ND","ND","0.7","41.9","23.1","77.7","0","0"],
    [36755,"2014-07-16T06:00:00","58","ND","ND","ND","ND","ND","0.1","185.8","23.1","78","0","0"],
    [36756,"2014-07-16T07:00:00","78","ND","ND","ND","ND","ND","0.1","292.2","23.1","78.4","33.5","0"],
    [36757,"2014-07-16T08:00:00","115","ND","ND","ND","ND","ND","0.4","14.8","24.5","72.8","154.9","0"],
    [36758,"2014-07-16T09:00:00","117","ND","ND","ND","ND","ND","1.1","81","25.6","68.1","386.1","0"],
    [36759,"2014-07-16T10:00:00","86","ND","ND","ND","ND","ND","1.8","138.9","27","62.9","490.9","0"],
    [36760,"2014-07-16T11:00:00","63","ND","ND","ND","ND","ND","1","92.6","27.9","59.9","440.7","0"],
    [36761,"2014-07-16T12:00:00","47","ND","ND","ND","ND","ND","1.2","123.2","28.9","56.5","596.9","0"],
    [36762,"2014-07-16T13:00:00","48","ND","ND","ND","ND","ND","1.3","137.2","30.4","52","628.2","0"],
    [36763,"2014-07-16T14:00:00","54","ND","ND","ND","ND","ND","0.8","168.4","31.9","46.3","668.1","0"],
    [36764,"2014-07-16T15:00:00","57","ND","ND","ND","ND","ND","1.4","108.1","32.6","44.2","461.5","0"],
    [36765,"2014-07-16T16:00:00","56","ND","ND","ND","ND","ND","0.7","323.7","31.9","46.6","236","0"],
    [36766,"2014-07-16T17:00:00","46","ND","ND","ND","ND","ND","2.3","249.7","30.9","48.7","101.8","0"],
    [36767,"2014-07-16T18:00:00","43","ND","ND","ND","ND","ND","2.8","242","30.4","49.3","94.4","0"],
    [36768,"2014-07-16T19:00:00","79","ND","ND","ND","ND","ND","0.8","240","29.4","49.7","0","0"],
    [36769,"2014-07-16T20:00:00","78","ND","ND","ND","ND","ND","0.4","274","28.6","52","0","0"],
    [36770,"2014-07-16T21:00:00","70","ND","ND","ND","ND","ND","0.2","134.6","27.8","55.3","0","0"],
    [36771,"2014-07-16T22:00:00","98","ND","ND","ND","ND","ND","0.3","63.9","26.8","61","0","0"],
    [36772,"2014-07-16T23:00:00","164","ND","ND","ND","ND","ND","0.2","145.1","26","64.8","0","0"],
    [36773,"2014-07-17T00:00:00","151","ND","ND","ND","ND","ND","0.5","100.6","25.1","69.7","0","0"],
    [36774,"2014-07-17T01:00:00","91","ND","ND","ND","ND","ND","0.4","117.3","24.5","72.4","0","0"],
    [36775,"2014-07-17T02:00:00","73","ND","ND","ND","ND","ND","0.4","221.9","24.3","73.8","0","0"],
    [36776,"2014-07-17T03:00:00","55","ND","ND","ND","ND","ND","0.6","182.1","24.3","73.2","0","0"],
    [36777,"2014-07-17T04:00:00","43","ND","ND","ND","ND","ND","0.3","224.9","24.1","73.8","0","0"],
    [36778,"2014-07-17T05:00:00","60","ND","ND","ND","ND","ND","0.7","177.9","23.5","75.6","0","0"],
    [36779,"2014-07-17T06:00:00","52","ND","ND","ND","ND","ND","0.4","258.3","23","76.1","0","0"],
    [36780,"2014-07-17T07:00:00","89","ND","ND","ND","ND","ND","0.3","35.3","22.9","77","36","0"],
    [36781,"2014-07-17T08:00:00","104","ND","ND","ND","ND","ND","0.5","93.3","23.9","73.1","180.8","0"],
    [36782,"2014-07-17T09:00:00","96","ND","ND","ND","ND","ND","0.6","47.7","25.4","66.6","271.7","0"],
    [36783,"2014-07-17T10:00:00","95","ND","ND","ND","ND","ND","1.3","51","26.9","62.2","468.8","0"],
    [36784,"2014-07-17T11:00:00","39","ND","ND","ND","ND","ND","0.8","103.8","28.3","55.9","617.6","0"],
    [36785,"2014-07-17T12:00:00","60","ND","ND","ND","ND","ND","1.3","110.8","29.7","51.4","601.4","0"],
    [36786,"2014-07-17T13:00:00","64","ND","ND","ND","ND","ND","1.2","37.2","30.7","48.8","588.4","0"],
    [36787,"2014-07-17T14:00:00","69","ND","ND","ND","ND","ND","0.6","27.5","31.5","46.4","423.4","0"],
    [36788,"2014-07-17T15:00:00","69","ND","ND","ND","ND","ND","1.7","11.8","31.5","46.6","262.7","0"],
    [36789,"2014-07-17T16:00:00","50","ND","ND","ND","ND","ND","1","244.8","31","48.6","141","0"],
    [36790,"2014-07-17T17:00:00","49","ND","ND","ND","ND","ND","1.5","257.3","30.5","49.4","105.8","0"],
    [36791,"2014-07-17T18:00:00","43","ND","ND","ND","ND","ND","1.8","243.4","29.6","50.8","53.7","0"],
    [36792,"2014-07-17T19:00:00","38","ND","ND","ND","ND","ND","1.4","243","28.8","51.6","0","0"],
    [36793,"2014-07-17T20:00:00","93","ND","ND","ND","ND","ND","0.7","105.8","28.3","51.3","0","0"],
    [36794,"2014-07-17T21:00:00","59","ND","ND","ND","ND","ND","0.5","122.6","27.7","53.7","0","0"],
    [36795,"2014-07-17T22:00:00","59","ND","ND","ND","ND","ND","0.7","60.9","27.1","58","0","0"],
    [36796,"2014-07-17T23:00:00","80","ND","ND","ND","ND","ND","0.8","147.3","26.7","61.5","0","0"],
    [36797,"2014-07-18T00:00:00","41","ND","ND","ND","ND","ND","1.1","114.6","25.7","66.1","0","0"],
    [36798,"2014-07-18T01:00:00","42","ND","ND","ND","ND","ND","1","176.4","24.9","69.5","0","0"],
    [36799,"2014-07-18T02:00:00","60","ND","ND","ND","ND","ND","0.3","215.5","24.8","71.2","0","0"],
    [36800,"2014-07-18T03:00:00","58","ND","ND","ND","ND","ND","1.1","179.3","24.2","75.1","0","1.52"],
    [36801,"2014-07-18T04:00:00","64","ND","ND","ND","ND","ND","0.3","41.2","23","87.6","0","0.25"],
    [36802,"2014-07-18T05:00:00","46","ND","ND","ND","ND","ND","0.3","299.6","22.6","89.4","0","0"],
    [36803,"2014-07-18T06:00:00","66","ND","ND","ND","ND","ND","0.3","52.1","22.7","88.5","0","0.25"],
    [36804,"2014-07-18T07:00:00","75","ND","ND","ND","ND","ND","0.2","148.9","22.8","87.5","35.7","0"],
    [36805,"2014-07-18T08:00:00","93","ND","ND","ND","ND","ND","0.6","155.6","24","81.9","130.2","0"],
    [36806,"2014-07-18T09:00:00","93","ND","ND","ND","ND","ND","0.9","144.4","25.5","72.6","357","0"],
    [36807,"2014-07-18T10:00:00","63","ND","ND","ND","ND","ND","1.5","123.9","27.2","63.4","535","0"],
    [36808,"2014-07-18T11:00:00","42","ND","ND","ND","ND","ND","0.8","127","28.9","53.8","660.9","0"],
    [36809,"2014-07-18T12:00:00","43","ND","ND","ND","ND","ND","1.2","83.9","30","49.4","728.4","0"],
    [36810,"2014-07-18T13:00:00","38","ND","ND","ND","ND","ND","0.8","101.3","31.2","42.4","617.5","0"],
    [36811,"2014-07-18T14:00:00","35","ND","ND","ND","ND","ND","0.8","63.4","32.9","34.4","712.6","0"],
    [36812,"2014-07-18T15:00:00","28","ND","ND","ND","ND","ND","1.3","56.3","33.7","30.3","616","0"],
    [36813,"2014-07-18T16:00:00","29","ND","ND","ND","ND","ND","1.1","59.1","33.8","30.3","464.6","0"],
    [36814,"2014-07-18T17:00:00","32","ND","ND","ND","ND","ND","2.5","250.9","32.4","38.9","229.3","0"],
    [36815,"2014-07-18T18:00:00","36","ND","ND","ND","ND","ND","2","248.1","31.2","42.6","89.2","0"],
    [36816,"2014-07-18T19:00:00","36","ND","ND","ND","ND","ND","1.8","248.3","29.2","47.5","0","0"],
    [36817,"2014-07-18T20:00:00","66","ND","ND","ND","ND","ND","0.5","132.7","28.8","48.9","0","0"],
    [36818,"2014-07-18T21:00:00","70","ND","ND","ND","ND","ND","0.7","158.1","27.9","52.7","0","0"],
    [36819,"2014-07-18T22:00:00","90","ND","ND","ND","ND","ND","0.7","8.8","26.2","60.8","0","0"],
    [36820,"2014-07-18T23:00:00","82","ND","ND","ND","ND","ND","0.9","172.2","25.4","66.4","0","0"],
    [36821,"2014-07-19T00:00:00","53","ND","ND","ND","ND","ND","0.5","98.4","24.4","71","0","0"],
    [36822,"2014-07-19T01:00:00","62","ND","ND","ND","ND","ND","0.2","314.9","23.5","73.5","0","0"],
    [36823,"2014-07-19T02:00:00","66","ND","ND","ND","ND","ND","0.2","323.4","22.9","76.3","0","0"],
    [36824,"2014-07-19T03:00:00","54","ND","ND","ND","ND","ND","0.3","315.9","22.3","77.6","0","0"],
    [36825,"2014-07-19T04:00:00","74","ND","ND","ND","ND","ND","0.3","205.9","22.4","77.9","0","0"],
    [36826,"2014-07-19T05:00:00","47","ND","ND","ND","ND","ND","0.7","247.6","22.2","75.5","0","0"],
    [36827,"2014-07-19T06:00:00","69","ND","ND","ND","ND","ND","0.1","269.2","21.7","78.3","0","0"],
    [36828,"2014-07-19T07:00:00","119","ND","ND","ND","ND","ND","0.7","15.4","21","82.1","38.9","0"],
    [36829,"2014-07-19T08:00:00","135","ND","ND","ND","ND","ND","0.4","47","23.4","70.3","193","0"],
    [36830,"2014-07-19T09:00:00","90","ND","ND","ND","ND","ND","0.6","106.8","25.1","61.3","379.2","0"],
    [36831,"2014-07-19T10:00:00","80","ND","ND","ND","ND","ND","1.2","105.2","26.6","57.5","545.3","0"],
    [36832,"2014-07-19T11:00:00","61","ND","ND","ND","ND","ND","0.7","121.8","27.9","53.5","672.6","0"],
    [36833,"2014-07-19T12:00:00","61","ND","ND","ND","ND","ND","1.4","106.4","29.7","48.2","753.3","0"],
    [36834,"2014-07-19T13:00:00","ND","ND","ND","ND","ND","ND","1","112","31.6","40.5","648.6","0"],
    [36835,"2014-07-19T14:00:00","48","ND","ND","ND","ND","ND","0.3","23","33.4","32.1","730.3","0"],
    [36836,"2014-07-19T15:00:00","45","ND","ND","ND","ND","ND","1.7","320.4","33.5","33.8","471.6","0"],
    [36837,"2014-07-19T16:00:00","35","ND","ND","ND","ND","ND","3.8","261.2","33","36.4","464.7","0"],
    [36838,"2014-07-19T17:00:00","31","ND","ND","ND","ND","ND","3.1","258.2","32.6","36.7","273.1","0"],
    [36839,"2014-07-19T18:00:00","30","ND","ND","ND","ND","ND","2.3","258.3","30.6","41.8","59.5","0"],
    [36840,"2014-07-19T19:00:00","33","ND","ND","ND","ND","ND","0.5","130.7","29.6","44.6","0","0"],
    [36841,"2014-07-19T20:00:00","47","ND","ND","ND","ND","ND","1.3","147.8","28.8","47.9","0","0"],
    [36842,"2014-07-19T21:00:00","54","ND","ND","ND","ND","ND","0.3","11.9","27.6","52.4","0","0"],
    [36843,"2014-07-19T22:00:00","53","ND","ND","ND","ND","ND","0.6","112.4","26.7","57.8","0","0"],
    [36844,"2014-07-19T23:00:00","43","ND","ND","ND","ND","ND","0.8","83.9","26","61.9","0","0"],
    [36845,"2014-07-20T00:00:00","42","ND","ND","ND","ND","ND","0.4","49.4","24.4","69.3","0","0"],
    [36846,"2014-07-20T01:00:00","46","ND","ND","ND","ND","ND","0.6","314.7","23.8","71.4","0","0"],
    [36847,"2014-07-20T02:00:00","54","ND","ND","ND","ND","ND","0.3","304","23.9","70.8","0","0"],
    [36848,"2014-07-20T03:00:00","51","ND","ND","ND","ND","ND","0.2","158.7","24.2","70","0","0"],
    [36849,"2014-07-20T04:00:00","67","ND","ND","ND","ND","ND","0.7","156.9","23.9","70.2","0","0"],
    [36850,"2014-07-20T05:00:00","54","ND","ND","ND","ND","ND","0.1","237.7","23","71.5","0","0"],
    [36851,"2014-07-20T06:00:00","49","ND","ND","ND","ND","ND","0.4","314.9","22.3","74.4","0","0"],
    [36852,"2014-07-20T07:00:00","58","ND","ND","ND","ND","ND","0.2","203.5","22.8","72.8","50.3","0"],
    [36853,"2014-07-20T08:00:00","75","ND","ND","ND","ND","ND","0.5","55.9","24.1","69.3","175.6","0"],
    [36854,"2014-07-20T09:00:00","81","ND","ND","ND","ND","ND","0.9","62.5","25.9","62","399.8","0"],
    [36855,"2014-07-20T10:00:00","50","ND","ND","ND","ND","ND","1","70.5","27.4","54.2","557.6","0"],
    [36856,"2014-07-20T11:00:00","46","ND","ND","ND","ND","ND","1","83.5","28.8","51.9","660.5","0"],
    [36857,"2014-07-20T12:00:00","45","ND","ND","ND","ND","ND","0.9","48.8","30.1","49.1","646.5","0"],
    [36858,"2014-07-20T13:00:00","52","ND","ND","ND","ND","ND","0","63.6","31.3","45.5","595.2","0"],
    [36859,"2014-07-20T14:00:00","42","ND","ND","ND","ND","ND","1.1","347.1","31.8","44.3","554.7","0"],
    [36860,"2014-07-20T15:00:00","23","ND","ND","ND","ND","ND","2","281.9","31.7","43.3","385.3","0"],
    [36861,"2014-07-20T16:00:00","25","ND","ND","ND","ND","ND","1.8","270.4","31.4","43.5","257.1","0"],
    [36862,"2014-07-20T17:00:00","24","ND","ND","ND","ND","ND","2.7","257","31.2","43.5","242.1","0"],
    [36863,"2014-07-20T18:00:00","19","ND","ND","ND","ND","ND","1.8","257.3","30.2","45","58.8","0"],
    [36864,"2014-07-20T19:00:00","27","ND","ND","ND","ND","ND","0.8","258.4","29.2","47.6","0","0"],
    [36865,"2014-07-20T20:00:00","31","ND","ND","ND","ND","ND","0.7","110","28.8","49.9","0","0"],
    [36866,"2014-07-20T21:00:00","33","ND","ND","ND","ND","ND","0.7","91.7","27.7","53.7","0","0"],
    [36867,"2014-07-20T22:00:00","44","ND","ND","ND","ND","ND","1.2","161.2","27.4","56.5","0","0"],
    [36868,"2014-07-20T23:00:00","43","ND","ND","ND","ND","ND","0.5","311.7","26.2","62.5","0","0"],
    [36869,"2014-07-21T00:00:00","50","ND","ND","ND","ND","ND","0.1","116.9","25.1","68.4","0","0"],
    [36870,"2014-07-21T01:00:00","34","ND","ND","ND","ND","ND","0.2","141.4","25","68.3","0","0"],
    [36871,"2014-07-21T02:00:00","33","ND","ND","ND","ND","ND","0.2","355.2","24.5","70.7","0","0"],
    [36872,"2014-07-21T03:00:00","42","ND","ND","ND","ND","ND","0.5","8.8","23.5","76.1","0","0"],
    [36873,"2014-07-21T04:00:00","32","ND","ND","ND","ND","ND","0.6","294.8","23.1","77.7","0","0"],
    [36874,"2014-07-21T05:00:00","40","ND","ND","ND","ND","ND","1","210.7","23.3","74.9","0","0"],
    [36875,"2014-07-21T06:00:00","40","ND","ND","ND","ND","ND","0.4","260.5","23.2","74.5","0","0"],
    [36876,"2014-07-21T07:00:00","66","ND","ND","ND","ND","ND","0.4","164.3","23","74.8","23.9","0"],
    [36877,"2014-07-21T08:00:00","82","ND","ND","ND","ND","ND","1.2","144.2","23.3","75.5","101.4","0"],
    [36878,"2014-07-21T09:00:00","81","ND","ND","ND","ND","ND","0.6","127.9","24.5","69.8","266.8","0"],
    [36879,"2014-07-21T10:00:00","67","ND","ND","ND","ND","ND","0.6","130.3","26.6","61.2","449.4","0"],
    [36880,"2014-07-21T11:00:00","53","ND","ND","ND","ND","ND","1.4","97.3","27.7","55.5","491.8","0"],
    [36881,"2014-07-21T12:00:00","34","ND","ND","ND","ND","ND","1.5","110.2","28.7","52.5","654.2","0"],
    [36882,"2014-07-21T13:00:00","41","ND","ND","ND","ND","ND","1.7","122.6","29.4","50.6","463.6","0"],
    [36883,"2014-07-21T14:00:00","39","ND","ND","ND","ND","ND","1.1","123.4","30.9","44.4","644.1","0"],
    [36884,"2014-07-21T15:00:00","40","ND","ND","ND","ND","ND","1.4","84.2","31.8","41.7","536.1","0"],
    [36885,"2014-07-21T16:00:00","64","ND","ND","ND","ND","ND","2.3","40.1","31","45.6","242.9","0"],
    [36886,"2014-07-21T17:00:00","38","ND","ND","ND","ND","ND","2","250.8","30","50.3","126.4","0"],
    [36887,"2014-07-21T18:00:00","37","ND","ND","ND","ND","ND","1.2","264.1","29.4","49.9","40.8","0"],
    [36888,"2014-07-21T19:00:00","40","ND","ND","ND","ND","ND","0.7","238.8","28.6","50.9","0","0"],
    [36889,"2014-07-21T20:00:00","59","ND","ND","ND","ND","ND","0.2","132.3","27.8","53.2","0","0"],
    [36890,"2014-07-21T21:00:00","64","ND","ND","ND","ND","ND","1.1","105.3","27.4","55.5","0","0"],
    [36891,"2014-07-21T22:00:00","59","ND","ND","ND","ND","ND","1","132.2","26.5","59.7","0","0"],
    [36892,"2014-07-21T23:00:00","56","ND","ND","ND","ND","ND","0.7","43.6","24.9","68.4","0","0"],
    [36893,"2014-07-22T00:00:00","57","ND","ND","ND","ND","ND","0.1","100.5","24.3","71","0","0"],
    [36894,"2014-07-22T01:00:00","64","ND","ND","ND","ND","ND","0.1","272.3","24.3","71","0","0"],
    [36895,"2014-07-22T02:00:00","52","ND","ND","ND","ND","ND","0.1","246.7","24.2","71.5","0","0"],
    [36896,"2014-07-22T03:00:00","52","ND","ND","ND","ND","ND","1.2","161.1","24.2","73","0","0"],
    [36897,"2014-07-22T04:00:00","60","ND","ND","ND","ND","ND","1.2","165.5","23.8","75.1","0","0"],
    [36898,"2014-07-22T05:00:00","62","ND","ND","ND","ND","ND","0.5","49.9","23.5","76.9","0","0"],
    [36899,"2014-07-22T06:00:00","73","ND","ND","ND","ND","ND","0.1","311.5","23.2","78.7","0","0"],
    [36900,"2014-07-22T07:00:00","63","ND","ND","ND","ND","ND","0.3","318.4","23.2","77.6","34.1","0"],
    [36901,"2014-07-22T08:00:00","122","ND","ND","ND","ND","ND","0.5","88.6","24.4","73.1","162.5","0"],
    [36902,"2014-07-22T09:00:00","89","ND","ND","ND","ND","ND","1.4","119.1","25.7","66.9","293.8","0"],
    [36903,"2014-07-22T10:00:00","62","ND","ND","ND","ND","ND","1.9","139.9","27.3","59.6","550.4","0"],
    [36904,"2014-07-22T11:00:00","43","ND","ND","ND","ND","ND","1.4","128.6","28.5","53.8","555","0"],
    [36905,"2014-07-22T12:00:00","55","ND","ND","ND","ND","ND","1.2","67.4","29.2","52.7","621.3","0"],
    [36906,"2014-07-22T13:00:00","59","ND","ND","ND","ND","ND","1.2","157.7","30.5","47.8","534","0"],
    [36907,"2014-07-22T14:00:00","54","ND","ND","ND","ND","ND","1.6","103.4","30.9","46.2","395.8","0"],
    [36908,"2014-07-22T15:00:00","63","ND","ND","ND","ND","ND","1.7","67.9","30.8","46.7","321.1","0"],
    [36909,"2014-07-22T16:00:00","58","ND","ND","ND","ND","ND","1.8","68.7","31","45.8","383.9","0"],
    [36910,"2014-07-22T17:00:00","65","ND","ND","ND","ND","ND","1.4","22.8","30.6","48.5","133.8","0"],
    [36911,"2014-07-22T18:00:00","36","ND","ND","ND","ND","ND","2.1","259.4","30.1","50","94.7","0"],
    [36912,"2014-07-22T19:00:00","53","ND","ND","ND","ND","ND","0.7","238.9","28.5","53.8","0","0"],
    [36913,"2014-07-22T20:00:00","76","ND","ND","ND","ND","ND","0.2","268.6","27.5","57","0","0"],
    [36914,"2014-07-22T21:00:00","56","ND","ND","ND","ND","ND","0.2","83.1","27.4","55.6","0","0"],
    [36915,"2014-07-22T22:00:00","77","ND","ND","ND","ND","ND","0.7","100.4","26.9","57.3","0","0"],
    [36916,"2014-07-22T23:00:00","44","ND","ND","ND","ND","ND","0.4","74.3","25.3","65.1","0","0"],
    [36917,"2014-07-23T00:00:00","42","ND","ND","ND","ND","ND","0.5","204.1","25.6","63","0","0"],
    [36918,"2014-07-23T01:00:00","50","ND","ND","ND","ND","ND","0.6","10.5","24.7","67.1","0","0"],
    [36919,"2014-07-23T02:00:00","75","ND","ND","ND","ND","ND","0.8","6.8","23.6","75.2","0","0"],
    [36920,"2014-07-23T03:00:00","71","ND","ND","ND","ND","ND","0.5","60.8","23.6","75.5","0","0"],
    [36921,"2014-07-23T04:00:00","74","ND","ND","ND","ND","ND","0.4","220.6","23.5","75.8","0","0"],
    [36922,"2014-07-23T05:00:00","80","ND","ND","ND","ND","ND","0.3","321.7","23.2","75.1","0","0"],
    [36923,"2014-07-23T06:00:00","83","ND","ND","ND","ND","ND","0.7","14.4","23","76.3","0","0"],
    [36924,"2014-07-23T07:00:00","129","ND","ND","ND","ND","ND","0.6","44.1","22.7","78.9","21.6","0"],
    [36925,"2014-07-23T08:00:00","161","ND","ND","ND","ND","ND","0.4","58.6","23.1","77.1","84.2","0"],
    [36926,"2014-07-23T09:00:00","146","ND","ND","ND","ND","ND","0.5","105.3","25","68","266.1","0"],
    [36927,"2014-07-23T10:00:00","106","ND","ND","ND","ND","ND","0.8","72.7","27.1","60.3","497.5","0"],
    [36928,"2014-07-23T11:00:00","63","ND","ND","ND","ND","ND","1.3","84.4","28.5","54.3","675.9","0"],
    [36929,"2014-07-23T12:00:00","58","ND","ND","ND","ND","ND","1","99.1","29.7","50.7","748","0"],
    [36930,"2014-07-23T13:00:00","64","ND","ND","ND","ND","ND","1.1","89.1","31.3","46","601.6","0"],
    [36931,"2014-07-23T14:00:00","89","ND","ND","ND","ND","ND","1.3","40.9","32.2","42.4","532.4","0"],
    [36932,"2014-07-23T15:00:00","52","ND","ND","ND","ND","ND","1.3","296","31.5","45.8","227.3","0"],
    [36933,"2014-07-23T16:00:00","43","ND","ND","ND","ND","ND","3.2","263.1","30.9","47.1","235.1","0"],
    [36934,"2014-07-23T17:00:00","38","ND","ND","ND","ND","ND","2.6","253","30.7","46.8","165.2","0"],
    [36935,"2014-07-23T18:00:00","31","ND","ND","ND","ND","ND","1.8","266.1","29.9","48.8","62.7","0"],
    [36936,"2014-07-23T19:00:00","34","ND","ND","ND","ND","ND","0.1","125.6","29.3","48.8","0","0"],
    [36937,"2014-07-23T20:00:00","65","ND","ND","ND","ND","ND","0.6","95.8","28.7","50.1","0","0"],
    [36938,"2014-07-23T21:00:00","60","ND","ND","ND","ND","ND","0.7","130.9","28","53.2","0","0"],
    [36939,"2014-07-23T22:00:00","69","ND","ND","ND","ND","ND","0.6","35.6","26.5","61","0","0"],
    [36940,"2014-07-23T23:00:00","62","ND","ND","ND","ND","ND","0.4","119.8","25.9","63.7","0","0"],
    [36941,"2014-07-24T00:00:00","39","ND","ND","ND","ND","ND","0.6","171.8","25.1","67.7","0","0"],
    [36942,"2014-07-24T01:00:00","54","ND","ND","ND","ND","ND","1.2","145.3","24.5","71","0","0"],
    [36943,"2014-07-24T02:00:00","45","ND","ND","ND","ND","ND","0.1","206.7","23.8","74.1","0","0"],
    [36944,"2014-07-24T03:00:00","49","ND","ND","ND","ND","ND","0.3","331.7","22.9","77","0","0"],
    [36945,"2014-07-24T04:00:00","77","ND","ND","ND","ND","ND","0.4","330.6","22.4","79.9","0","0"],
    [36946,"2014-07-24T05:00:00","61","ND","ND","ND","ND","ND","0.3","293.6","21.8","81.6","0","0"],
    [36947,"2014-07-24T06:00:00","63","ND","ND","ND","ND","ND","0.2","253.6","21.7","81.7","0","0"],
    [36948,"2014-07-24T07:00:00","117","ND","ND","ND","ND","ND","0.6","19.4","21.6","82.6","37.4","0"],
    [36949,"2014-07-24T08:00:00","132","ND","ND","ND","ND","ND","0.2","127.6","23.2","76.6","183.1","0"],
    [36950,"2014-07-24T09:00:00","116","ND","ND","ND","ND","ND","0.7","91.5","25.1","67.7","353.2","0"],
    [36951,"2014-07-24T10:00:00","102","ND","ND","ND","ND","ND","1.1","66.1","27","61.4","525","0"],
    [36952,"2014-07-24T11:00:00","77","ND","ND","ND","ND","ND","1.2","70.5","28.3","57.1","662","0"],
    [36953,"2014-07-24T12:00:00","84","ND","ND","ND","ND","ND","1.4","93.1","29.6","52.3","733.9","0"],
    [36954,"2014-07-24T13:00:00","81","ND","ND","ND","ND","ND","0.5","53.1","31.1","47.6","728","0"],
    [36955,"2014-07-24T14:00:00","77","ND","ND","ND","ND","ND","1.3","53.5","32.8","41.3","712.9","0"],
    [36956,"2014-07-24T15:00:00","45","ND","ND","ND","ND","ND","0.9","42.5","33","39.4","449.2","0"],
    [36957,"2014-07-24T16:00:00","49","ND","ND","ND","ND","ND","1.7","333","32.9","40.4","399.9","0"],
    [36958,"2014-07-24T17:00:00","45","ND","ND","ND","ND","ND","3.2","256.9","32.5","40.3","295.1","0"],
    [36959,"2014-07-24T18:00:00","45","ND","ND","ND","ND","ND","1.6","257.9","31.5","42.5","99.8","0"],
    [36960,"2014-07-24T19:00:00","50","ND","ND","ND","ND","ND","0.3","265.7","30","46.3","0","0"],
    [36961,"2014-07-24T20:00:00","34","ND","ND","ND","ND","ND","0.5","148.9","29.3","47.3","0","0"],
    [36962,"2014-07-24T21:00:00","56","ND","ND","ND","ND","ND","1.4","150.6","28.5","49.9","0","0"],
    [36963,"2014-07-24T22:00:00","65","ND","ND","ND","ND","ND","0.1","76.5","27.1","56.4","0","0"],
    [36964,"2014-07-24T23:00:00","60","ND","ND","ND","ND","ND","0.3","165.3","26","63.6","0","0"],
    [36965,"2014-07-25T00:00:00","58","ND","ND","ND","ND","ND","0.4","155.6","25.6","65.3","0","0"],
    [36966,"2014-07-25T01:00:00","72","ND","ND","ND","ND","ND","1","180.8","25","67.8","0","0"],
    [36967,"2014-07-25T02:00:00","42","ND","ND","ND","ND","ND","0.7","217.8","24.3","70.5","0","0"],
    [36968,"2014-07-25T03:00:00","47","ND","ND","ND","ND","ND","0.5","221.7","23.8","71.4","0","0"],
    [36969,"2014-07-25T04:00:00","46","ND","ND","ND","ND","ND","0.4","269.3","23.1","74","0","0"],
    [36970,"2014-07-25T05:00:00","47","ND","ND","ND","ND","ND","0.1","246.6","22.7","75.4","0","0"],
    [36971,"2014-07-25T06:00:00","49","ND","ND","ND","ND","ND","0.2","233.9","22.5","76","0","0"],
    [36972,"2014-07-25T07:00:00","102","ND","ND","ND","ND","ND","0.5","25.5","22.8","75.8","52.2","0"],
    [36973,"2014-07-25T08:00:00","132","ND","ND","ND","ND","ND","0.4","47.5","24.9","68.4","213.2","0"],
    [36974,"2014-07-25T09:00:00","143","ND","ND","ND","ND","ND","1.1","60.5","26.2","64.1","351.9","0"],
    [36975,"2014-07-25T10:00:00","80","ND","ND","ND","ND","ND","1.2","126","27.4","59.6","505.7","0"],
    [36976,"2014-07-25T11:00:00","64","ND","ND","ND","ND","ND","1.5","130.3","28.8","53.8","674.1","0"],
    [36977,"2014-07-25T12:00:00","54","ND","ND","ND","ND","ND","1.1","78.4","30.5","48.8","773.9","0"],
    [36978,"2014-07-25T13:00:00","50","ND","ND","ND","ND","ND","1","80.9","32.1","41.1","882.4","0"],
    [36979,"2014-07-25T14:00:00","64","ND","ND","ND","ND","ND","1.4","94.2","33","33.7","625.1","0"],
    [36980,"2014-07-25T15:00:00","49","ND","ND","ND","ND","ND","2.1","308.1","33.1","37.1","593.7","0"],
    [36981,"2014-07-25T16:00:00","39","ND","ND","ND","ND","ND","2.7","287.1","33.3","35.8","491.4","0"],
    [36982,"2014-07-25T17:00:00","24","ND","ND","ND","ND","ND","3.2","263.4","32.5","36","303","0"],
    [36983,"2014-07-25T18:00:00","37","ND","ND","ND","ND","ND","2.4","264.3","31.1","38.6","91.6","0"],
    [36984,"2014-07-25T19:00:00","37","ND","ND","ND","ND","ND","0.5","267.7","29.6","42.5","0","0"],
    [36985,"2014-07-25T20:00:00","55","ND","ND","ND","ND","ND","0.9","119.4","29.3","43.9","0","0"],
    [36986,"2014-07-25T21:00:00","69","ND","ND","ND","ND","ND","0.7","132.4","27.5","53.4","0","0"],
    [36987,"2014-07-25T22:00:00","55","ND","ND","ND","ND","ND","0.4","49.5","26.7","57.2","0","0"],
    [36988,"2014-07-25T23:00:00","56","ND","ND","ND","ND","ND","1.1","157.2","26.2","60","0","0"],
    [36989,"2014-07-26T00:00:00","33","ND","ND","ND","ND","ND","1.1","114.4","25.3","64.5","0","0"],
    [36990,"2014-07-26T01:00:00","123","ND","ND","ND","ND","ND","0.2","113.7","24.4","69.3","0","0"],
    [36991,"2014-07-26T02:00:00","52","ND","ND","ND","ND","ND","0.5","148.1","23.8","72","0","0"],
    [36992,"2014-07-26T03:00:00","52","ND","ND","ND","ND","ND","0.3","117.2","23.7","72.7","0","0"],
    [36993,"2014-07-26T04:00:00","31","ND","ND","ND","ND","ND","0.9","172.6","23.6","73","0","0"],
    [36994,"2014-07-26T05:00:00","40","ND","ND","ND","ND","ND","1.3","141.2","23.4","73.8","0","0"],
    [36995,"2014-07-26T06:00:00","48","ND","ND","ND","ND","ND","0.3","172.3","23.1","75.1","0","0"],
    [36996,"2014-07-26T07:00:00","71","ND","ND","ND","ND","ND","0.9","147.4","23.2","74.9","17.8","0"],
    [36997,"2014-07-26T08:00:00","76","ND","ND","ND","ND","ND","1","126.5","23.6","72.3","98.6","0"],
    [36998,"2014-07-26T09:00:00","78","ND","ND","ND","ND","ND","0.8","163.7","23.7","69.7","130.9","0"],
    [36999,"2014-07-26T10:00:00","78","ND","ND","ND","ND","ND","0.6","178.7","25.2","64.6","254","0"],
    [37000,"2014-07-26T11:00:00","69","ND","ND","ND","ND","ND","1.2","133","27.4","55.4","620.6","0"],
    [37001,"2014-07-26T12:00:00","63","ND","ND","ND","ND","ND","1.9","143.2","28.4","51","632.1","0"],
    [37002,"2014-07-26T13:00:00","65","ND","ND","ND","ND","ND","1.8","134.9","29.7","47.6","642.4","0"],
    [37003,"2014-07-26T14:00:00","58","ND","ND","ND","ND","ND","1.1","162.9","30","47.5","315.5","0"],
    [37004,"2014-07-26T15:00:00","42","ND","ND","ND","ND","ND","0.6","231.2","29.7","47.6","158.8","0"],
    [37005,"2014-07-26T16:00:00","35","ND","ND","ND","ND","ND","2","258.4","29.5","48.2","265.6","0"],
    [37006,"2014-07-26T17:00:00","37","ND","ND","ND","ND","ND","2.5","259","29.6","47.4","243.8","0"],
    [37007,"2014-07-26T18:00:00","25","ND","ND","ND","ND","ND","2.6","267.9","28.5","48.5","89.3","0"],
    [37008,"2014-07-26T19:00:00","24","ND","ND","ND","ND","ND","2.9","277.6","27.3","50.7","0","0"],
    [37009,"2014-07-26T20:00:00","34","ND","ND","ND","ND","ND","0.7","122.8","27.1","52.1","0","0"],
    [37010,"2014-07-26T21:00:00","41","ND","ND","ND","ND","ND","0.5","109.4","26.4","54.7","0","0"],
    [37011,"2014-07-26T22:00:00","61","ND","ND","ND","ND","ND","1.2","135.6","25.6","58.5","0","0"],
    [37012,"2014-07-26T23:00:00","40","ND","ND","ND","ND","ND","0.4","68.3","24.4","63.7","0","0"],
    [37013,"2014-07-27T00:00:00","34","ND","ND","ND","ND","ND","0.8","158.7","23.7","66.8","0","0"],
    [37014,"2014-07-27T01:00:00","38","ND","ND","ND","ND","ND","0.8","161","23.7","66.2","0","0"],
    [37015,"2014-07-27T02:00:00","36","ND","ND","ND","ND","ND","0.5","94.8","23.3","67.9","0","0"],
    [37016,"2014-07-27T03:00:00","44","ND","ND","ND","ND","ND","0.2","209.3","23.2","70.1","0","0"],
    [37017,"2014-07-27T04:00:00","43","ND","ND","ND","ND","ND","0.2","109.3","22.9","73.8","0","0"],
    [37018,"2014-07-27T05:00:00","40","ND","ND","ND","ND","ND","0.1","339.9","22.7","75.1","0","0"],
    [37019,"2014-07-27T06:00:00","53","ND","ND","ND","ND","ND","0.4","52.3","22.3","76.5","0","0"],
    [37020,"2014-07-27T07:00:00","51","ND","ND","ND","ND","ND","0.6","353.9","22.3","77.1","12","0"],
    [37021,"2014-07-27T08:00:00","55","ND","ND","ND","ND","ND","1.1","47","23","72.9","131.7","0"],
    [37022,"2014-07-27T09:00:00","64","ND","ND","ND","ND","ND","1","62","24.2","67.6","237.4","0"],
    [37023,"2014-07-27T10:00:00","46","ND","ND","ND","ND","ND","0.8","84.9","25.9","59.2","544","0"],
    [37024,"2014-07-27T11:00:00","28","ND","ND","ND","ND","ND","1.4","56.3","27.2","55.2","608","0"],
    [37025,"2014-07-27T12:00:00","36","ND","ND","ND","ND","ND","0.9","71.2","28.3","52.1","660.4","0"],
    [37026,"2014-07-27T13:00:00","39","ND","ND","ND","ND","ND","0.3","211.9","29.1","50.1","450.9","0"],
    [37027,"2014-07-27T14:00:00","38","ND","ND","ND","ND","ND","0.4","83.6","29.6","49.6","482.7","0"],
    [37028,"2014-07-27T15:00:00","29","ND","ND","ND","ND","ND","1.4","23.5","30.2","46.3","342.1","0"],
    [37029,"2014-07-27T16:00:00","27","ND","ND","ND","ND","ND","1.1","332.7","30.3","44.3","284.6","0"],
    [37030,"2014-07-27T17:00:00","18","ND","ND","ND","ND","ND","2.5","284.6","29.7","45.9","166.9","0"],
    [37031,"2014-07-27T18:00:00","27","ND","ND","ND","ND","ND","1.6","270.7","29.1","47.3","40.3","0"],
    [37032,"2014-07-27T19:00:00","31","ND","ND","ND","ND","ND","0.2","79.7","28.1","50.2","0","0"],
    [37033,"2014-07-27T20:00:00","39","ND","ND","ND","ND","ND","0.4","137.8","27.4","51.7","0","0"],
    [37034,"2014-07-27T21:00:00","43","ND","ND","ND","ND","ND","0.3","272.6","26.5","55.2","0","0"],
    [37035,"2014-07-27T22:00:00","45","ND","ND","ND","ND","ND","0.7","96.9","25.5","60.7","0","0"],
    [37036,"2014-07-27T23:00:00","42","ND","ND","ND","ND","ND","0.3","23.6","24.5","65.6","0","0"],
    [37037,"2014-07-28T00:00:00","64","ND","ND","ND","ND","ND","0.1","328.6","24.1","66.8","0","0"],
    [37038,"2014-07-28T01:00:00","46","ND","ND","ND","ND","ND","0.1","245","23.9","67.6","0","0"],
    [37039,"2014-07-28T02:00:00","40","ND","ND","ND","ND","ND","0.1","220.5","23","71.8","0","0"],
    [37040,"2014-07-28T03:00:00","40","ND","ND","ND","ND","ND","0.2","290.5","22.4","73.1","0","0"],
    [37041,"2014-07-28T04:00:00","30","ND","ND","ND","ND","ND","0.4","273.1","22.5","73.5","0","0"],
    [37042,"2014-07-28T05:00:00","38","ND","ND","ND","ND","ND","0.2","331.5","22.2","74.6","0","0"],
    [37043,"2014-07-28T06:00:00","75","ND","ND","ND","ND","ND","0.2","63.2","21.7","75.8","0","0"],
    [37044,"2014-07-28T07:00:00","112","ND","ND","ND","ND","ND","0.6","37.3","21.5","78.8","27.2","0"],
    [37045,"2014-07-28T08:00:00","167","ND","ND","ND","ND","ND","0.9","6.5","21.9","80","107","0"],
    [37046,"2014-07-28T09:00:00","135","ND","ND","ND","ND","ND","1.1","56.3","24.3","69.2","329.2","0"],
    [37047,"2014-07-28T10:00:00","57","ND","ND","ND","ND","ND","1","104.7","26.3","59.4","473.9","0"],
    [37048,"2014-07-28T11:00:00","58","ND","ND","ND","ND","ND","1.6","145.9","27.9","54.3","673.1","0"],
    [37049,"2014-07-28T12:00:00","56","ND","ND","ND","ND","ND","1.7","133.6","29.7","48.2","763.4","0"],
    [37050,"2014-07-28T13:00:00","57","ND","ND","ND","ND","ND","1.4","75.2","31.5","42.1","755.1","0"],
    [37051,"2014-07-28T14:00:00","54","ND","ND","ND","ND","ND","1.5","79.9","33","36.6","706.1","0"],
    [37052,"2014-07-28T15:00:00","44","ND","ND","ND","ND","ND","2.8","266.1","32.7","38.9","392.5","0"],
    [37053,"2014-07-28T16:00:00","50","ND","ND","ND","ND","ND","3.9","268.1","32.5","38.4","472.9","0"],
    [37054,"2014-07-28T17:00:00","41","ND","ND","ND","ND","ND","3.6","253.2","31.9","38.1","254.3","0"],
    [37055,"2014-07-28T18:00:00","76","ND","ND","ND","ND","ND","2","255.4","30.6","40.8","66","0"],
    [37056,"2014-07-28T19:00:00","89","ND","ND","ND","ND","ND","0.8","166.3","29.3","45","0","0"],
    [37057,"2014-07-28T20:00:00","73","ND","ND","ND","ND","ND","0.5","158.3","28.5","47.3","0","0"],
    [37058,"2014-07-28T21:00:00","87","ND","ND","ND","ND","ND","0.5","10.9","27.4","52.4","0","0"],
    [37059,"2014-07-28T22:00:00","62","ND","ND","ND","ND","ND","0.5","97.5","26.4","58","0","0"],
    [37060,"2014-07-28T23:00:00","46","ND","ND","ND","ND","ND","0.7","153.7","25.3","63","0","0"],
    [37061,"2014-07-29T00:00:00","66","ND","ND","ND","ND","ND","0.3","334.6","24.5","65.7","0","0"],
    [37062,"2014-07-29T01:00:00","64","ND","ND","ND","ND","ND","0.7","122.7","24.1","70.1","0","0"],
    [37063,"2014-07-29T02:00:00","54","ND","ND","ND","ND","ND","0.2","14.6","23.7","71.6","0","0"],
    [37064,"2014-07-29T03:00:00","65","ND","ND","ND","ND","ND","0.3","245.1","23.3","72.8","0","0"],
    [37065,"2014-07-29T04:00:00","55","ND","ND","ND","ND","ND","0.4","285.1","22.9","73.2","0","0"],
    [37066,"2014-07-29T05:00:00","56","ND","ND","ND","ND","ND","0.3","182.1","22.5","75.2","0","0"],
    [37067,"2014-07-29T06:00:00","74","ND","ND","ND","ND","ND","0.3","302.3","22","77.7","0","0"],
    [37068,"2014-07-29T07:00:00","124","ND","ND","ND","ND","ND","0.5","13","21.9","76.8","39.4","0"],
    [37069,"2014-07-29T08:00:00","158","ND","ND","ND","ND","ND","0.6","64.3","24","69.8","199.8","0"],
    [37070,"2014-07-29T09:00:00","125","ND","ND","ND","ND","ND","0.8","61.1","25.5","64.9","340.3","0"],
    [37071,"2014-07-29T10:00:00","72","ND","ND","ND","ND","ND","0.9","120.8","26.6","60.6","469.3","0"],
    [37072,"2014-07-29T11:00:00","71","ND","ND","ND","ND","ND","1.4","131.2","28","55.1","669.6","0"],
    [37073,"2014-07-29T12:00:00","64","ND","ND","ND","ND","ND","0.8","129.4","29.5","49.4","696.7","0"],
    [37074,"2014-07-29T13:00:00","59","ND","ND","ND","ND","ND","1.1","95","30.6","46","513.5","0"],
    [37075,"2014-07-29T14:00:00","72","ND","ND","ND","ND","ND","0.9","51.4","32","41.7","720.3","0"],
    [37076,"2014-07-29T15:00:00","75","ND","ND","ND","ND","ND","0.8","81.5","32.4","39.4","386.9","0"],
    [37077,"2014-07-29T16:00:00","49","ND","ND","ND","ND","ND","1.5","306.8","31.7","40.5","252","0"],
    [37078,"2014-07-29T17:00:00","60","ND","ND","ND","ND","ND","1.1","348.1","32.9","37.8","293.9","0"],
    [37079,"2014-07-29T18:00:00","41","ND","ND","ND","ND","ND","1.3","264.8","31.5","40.7","95.2","0"],
    [37080,"2014-07-29T19:00:00","43","ND","ND","ND","ND","ND","1.1","252.9","29.6","44.6","0","0"],
    [37081,"2014-07-29T20:00:00","72","ND","ND","ND","ND","ND","0.6","111","28.9","46.7","0","0"],
    [37082,"2014-07-29T21:00:00","68","ND","ND","ND","ND","ND","1.2","167.8","28","49.6","0","0"],
    [37083,"2014-07-29T22:00:00","74","ND","ND","ND","ND","ND","0.6","43.2","25.9","59.7","0","0"],
    [37084,"2014-07-29T23:00:00","59","ND","ND","ND","ND","ND","0.5","197","25.4","61.7","0","0"],
    [37085,"2014-07-30T00:00:00","41","ND","ND","ND","ND","ND","0.3","162.7","24.9","63.7","0","0"],
    [37086,"2014-07-30T01:00:00","69","ND","ND","ND","ND","ND","0.5","4.2","24.3","66.2","0","0"],
    [37087,"2014-07-30T02:00:00","50","ND","ND","ND","ND","ND","0.5","146","23.3","71.5","0","0"],
    [37088,"2014-07-30T03:00:00","29","ND","ND","ND","ND","ND","0.5","201.6","23.4","70.8","0","0"],
    [37089,"2014-07-30T04:00:00","46","ND","ND","ND","ND","ND","0.4","223.8","23.4","70.4","0","0"],
    [37090,"2014-07-30T05:00:00","47","ND","ND","ND","ND","ND","1","130","23.4","69.4","0","0"],
    [37091,"2014-07-30T06:00:00","53","ND","ND","ND","ND","ND","0.6","152.2","22.9","68.2","0","0"],
    [37092,"2014-07-30T07:00:00","69","ND","ND","ND","ND","ND","0.3","204","22.7","69.4","35.3","0"],
    [37093,"2014-07-30T08:00:00","68","ND","ND","ND","ND","ND","0.7","142.3","24.3","60.1","233.2","0"],
    [37094,"2014-07-30T09:00:00","87","ND","ND","ND","ND","ND","1.2","121","26","54.8","432.8","0"],
    [37095,"2014-07-30T10:00:00","57","ND","ND","ND","ND","ND","1.4","118.3","27.6","50.9","616.1","0"],
    [37096,"2014-07-30T11:00:00","46","ND","ND","ND","ND","ND","1","102.2","28.8","48.9","681.2","0"],
    [37097,"2014-07-30T12:00:00","58","ND","ND","ND","ND","ND","1.4","73","30.1","46.7","760.8","0"],
    [37098,"2014-07-30T13:00:00","50","ND","ND","ND","ND","ND","1.1","67.9","31.4","40.8","763.9","0"],
    [37099,"2014-07-30T14:00:00","53","ND","ND","ND","ND","ND","1.1","73.6","32.7","36.2","727.5","0"],
    [37100,"2014-07-30T15:00:00","59","ND","ND","ND","ND","ND","1.4","108.7","33.7","32.6","483.6","0"],
    [37101,"2014-07-30T16:00:00","71","ND","ND","ND","ND","ND","0.8","47.2","33.1","35.7","189.8","0"],
    [37102,"2014-07-30T17:00:00","59","ND","ND","ND","ND","ND","2.3","259.5","31.2","43.6","96.8","0"],
    [37103,"2014-07-30T18:00:00","49","ND","ND","ND","ND","ND","1.3","262.7","30.1","46.7","32.6","0"],
    [37104,"2014-07-30T19:00:00","52","ND","ND","ND","ND","ND","0.9","216.1","29.3","48.5","0","0"],
    [37105,"2014-07-30T20:00:00","87","ND","ND","ND","ND","ND","0.5","124.9","28.5","51.2","0","0"],
    [37106,"2014-07-30T21:00:00","80","ND","ND","ND","ND","ND","0.6","132.3","27.5","55.8","0","0"],
    [37107,"2014-07-30T22:00:00","86","ND","ND","ND","ND","ND","0.7","87.3","26.5","61.4","0","0"],
    [37108,"2014-07-30T23:00:00","92","ND","ND","ND","ND","ND","0.8","169.7","25.8","64.5","0","0"],
    [37109,"2014-07-31T00:00:00","68","ND","ND","ND","ND","ND","0.7","85.8","24.8","69.6","0","0"],
    [37110,"2014-07-31T01:00:00","72","ND","ND","ND","ND","ND","0.2","349.2","23.8","73.1","0","0"],
    [37111,"2014-07-31T02:00:00","64","ND","ND","ND","ND","ND","0.6","16.8","23.2","75.7","0","0"],
    [37112,"2014-07-31T03:00:00","36","ND","ND","ND","ND","ND","0.1","19.6","22.7","77.6","0","0"],
    [37113,"2014-07-31T04:00:00","59","ND","ND","ND","ND","ND","0.3","265.1","22.6","77.5","0","0"],
    [37114,"2014-07-31T05:00:00","61","ND","ND","ND","ND","ND","0.3","295.2","22","79","0","0"],
    [37115,"2014-07-31T06:00:00","56","ND","ND","ND","ND","ND","0.2","255.8","21.7","79.5","0","0"],
    [37116,"2014-07-31T07:00:00","144","ND","ND","ND","ND","ND","0.8","7.6","21.3","80.4","17.3","0"],
    [37117,"2014-07-31T08:00:00","173","ND","ND","ND","ND","ND","1.3","42.9","21","82.1","75.9","0"],
    [37118,"2014-07-31T09:00:00","131","ND","ND","ND","ND","ND","0.7","36.8","21.7","77.7","183","0"],
    [37119,"2014-07-31T10:00:00","ND","ND","ND","ND","ND","ND","0.5","113.5","24.7","64.8","452.6","0"],
    [37120,"2014-07-31T11:00:00","50","ND","ND","ND","ND","ND","1.1","122.2","27.5","52.4","685.4","0"],
    [37121,"2014-07-31T12:00:00","58","ND","ND","ND","ND","ND","1","123.6","29.5","42.7","762.1","0"],
    [37122,"2014-07-31T13:00:00","62","ND","ND","ND","ND","ND","1.4","105.3","31.3","37.7","750.9","0"],
    [37123,"2014-07-31T14:00:00","42","ND","ND","ND","ND","ND","1.6","134","33.1","31.9","731.4","0"],
    [37124,"2014-07-31T15:00:00","61","ND","ND","ND","ND","ND","1.2","64.1","33.9","30.7","553.1","0"],
    [37125,"2014-07-31T16:00:00","115","ND","ND","ND","ND","ND","1.6","298.4","32.4","38.7","169.1","0"],
    [37126,"2014-07-31T17:00:00","245","ND","ND","ND","ND","ND","2.4","255.5","30.7","42.3","89.2","0"],
    [37127,"2014-07-31T18:00:00","163","ND","ND","ND","ND","ND","0.7","206.8","29.9","43.8","41.7","0"],
    [37128,"2014-07-31T19:00:00","102","ND","ND","ND","ND","ND","0.6","144.3","29","45.9","0","0"],
    [37129,"2014-07-31T20:00:00","96","ND","ND","ND","ND","ND","1.3","132.8","28.2","50.9","0","0"],
    [37130,"2014-07-31T21:00:00","95","ND","ND","ND","ND","ND","0.3","174.6","26.7","58.2","0","0"],
    [37131,"2014-07-31T22:00:00","156","ND","ND","ND","ND","ND","0.8","340.4","25.4","62.5","0","0"],
    [37132,"2014-07-31T23:00:00","104","ND","ND","ND","ND","ND","0.3","25.8","24.5","65.5","0","0"],
    [37133,"2014-08-01T00:00:00","127","ND","ND","ND","ND","ND","0.6","0.1","24.1","68","0","0"],
    [37134,"2014-08-01T01:00:00","137","ND","ND","ND","ND","ND","0.3","297.8","23.5","70.2","0","0"],
    [37135,"2014-08-01T02:00:00","94","ND","ND","ND","ND","ND","0.5","31.2","22.9","73.5","0","0"],
    [37136,"2014-08-01T03:00:00","121","ND","ND","ND","ND","ND","0.4","297.1","22.2","75","0","0"],
    [37137,"2014-08-01T04:00:00","129","ND","ND","ND","ND","ND","0.8","348.2","21.9","75.6","0","0"],
    [37138,"2014-08-01T05:00:00","90","ND","ND","ND","ND","ND","0.5","68.8","21.4","78.3","0","0"],
    [37139,"2014-08-01T06:00:00","108","ND","ND","ND","ND","ND","0.2","64.2","21.1","79.6","0","0"],
    [37140,"2014-08-01T07:00:00","124","ND","ND","ND","ND","ND","0.1","230.6","21.3","78.8","46.1","0"],
    [37141,"2014-08-01T08:00:00","142","ND","ND","ND","ND","ND","0.2","112.4","23.1","71.7","127.9","0"],
    [37142,"2014-08-01T09:00:00","208","ND","ND","ND","ND","ND","1.2","40.5","23.9","68.3","249","0"],
    [37143,"2014-08-01T10:00:00","121","ND","ND","ND","ND","ND","0.9","53.1","24.5","65.8","338.1","0"],
    [37144,"2014-08-01T11:00:00","120","ND","ND","ND","ND","ND","0.8","38.2","26.6","56.5","404.5","0"],
    [37145,"2014-08-01T12:00:00","77","ND","ND","ND","ND","ND","1","34.3","28","52.1","449.5","0"],
    [37146,"2014-08-01T13:00:00","79","ND","ND","ND","ND","ND","0.3","169.5","29","49.4","463.8","0"],
    [37147,"2014-08-01T14:00:00","73","ND","ND","ND","ND","ND","1.2","65.7","29.8","47.5","471","0"],
    [37148,"2014-08-01T15:00:00","76","ND","ND","ND","ND","ND","1.2","58.3","30.2","46","360.9","0"],
    [37149,"2014-08-01T16:00:00","53","ND","ND","ND","ND","ND","1.5","60.8","30.5","46.6","349.7","0"],
    [37150,"2014-08-01T17:00:00","52","ND","ND","ND","ND","ND","1.1","269.3","29.7","49.1","160.4","0"],
    [37151,"2014-08-01T18:00:00","42","ND","ND","ND","ND","ND","2.1","265.2","28.6","49.9","52.6","0"],
    [37152,"2014-08-01T19:00:00","38","ND","ND","ND","ND","ND","2.1","251.4","27.7","52.6","0","0"],
    [37153,"2014-08-01T20:00:00","37","ND","ND","ND","ND","ND","2.5","259","27.3","54.2","0","0"],
    [37154,"2014-08-01T21:00:00","60","ND","ND","ND","ND","ND","1.1","116.4","26.5","58.2","0","0"],
    [37155,"2014-08-01T22:00:00","69","ND","ND","ND","ND","ND","0.3","356.2","25.8","60.8","0","0"],
    [37156,"2014-08-01T23:00:00","74","ND","ND","ND","ND","ND","0.8","84.9","24.5","67.3","0","0"],
    [37157,"2014-08-02T00:00:00","54","ND","ND","ND","ND","ND","0.1","205.2","24.1","67.8","0","0"],
    [37158,"2014-08-02T01:00:00","79","ND","ND","ND","ND","ND","0.9","350.1","23.4","72.1","0","0"],
    [37159,"2014-08-02T02:00:00","89","ND","ND","ND","ND","ND","0.9","359.5","22.4","76.9","0","0"],
    [37160,"2014-08-02T03:00:00","72","ND","ND","ND","ND","ND","0.2","233.9","22.3","76.6","0","0"],
    [37161,"2014-08-02T04:00:00","88","ND","ND","ND","ND","ND","0.4","350.7","22.1","76.9","0","0"],
    [37162,"2014-08-02T05:00:00","86","ND","ND","ND","ND","ND","0.4","29.8","21.9","79.6","0","0"],
    [37163,"2014-08-02T06:00:00","77","ND","ND","ND","ND","ND","0.1","207.9","21.5","80.6","0","0"],
    [37164,"2014-08-02T07:00:00","90","ND","ND","ND","ND","ND","0.2","27.6","21.6","79.9","25.4","0"],
    [37165,"2014-08-02T08:00:00","128","ND","ND","ND","ND","ND","0.9","0","21.9","78.8","94.6","0"],
    [37166,"2014-08-02T09:00:00","150","ND","ND","ND","ND","ND","1.2","50.7","23.4","73.1","192.9","0"],
    [37167,"2014-08-02T10:00:00","92","ND","ND","ND","ND","ND","0.6","136","25.2","64","352.8","0"],
    [37168,"2014-08-02T11:00:00","100","ND","ND","ND","ND","ND","0.7","65.3","27","57.6","562.5","0"],
    [37169,"2014-08-02T12:00:00","94","ND","ND","ND","ND","ND","1.2","79.7","27.7","54.9","315.9","0"],
    [37170,"2014-08-02T13:00:00","93","ND","ND","ND","ND","ND","1.4","135.5","28.4","52.6","539.2","0"],
    [37171,"2014-08-02T14:00:00","71","ND","ND","ND","ND","ND","1.2","146.3","29.3","48.7","475.2","0"],
    [37172,"2014-08-02T15:00:00","60","ND","ND","ND","ND","ND","1.5","100.5","29.6","48.2","239.8","0"],
    [37173,"2014-08-02T16:00:00","62","ND","ND","ND","ND","ND","1.4","110.5","29.3","47.7","117","0"],
    [37174,"2014-08-02T17:00:00","55","ND","ND","ND","ND","ND","1.1","114","29.2","47.6","58.8","0"],
    [37175,"2014-08-02T18:00:00","69","ND","ND","ND","ND","ND","0.7","19.3","28.6","50.1","33.5","0"],
    [37176,"2014-08-02T19:00:00","63","ND","ND","ND","ND","ND","0.6","285.5","27.6","52.7","0","0"],
    [37177,"2014-08-02T20:00:00","60","ND","ND","ND","ND","ND","1.4","249.6","26.8","50.8","0","0"],
    [37178,"2014-08-02T21:00:00","58","ND","ND","ND","ND","ND","0.6","265.8","26.1","47.9","0","0"],
    [37179,"2014-08-02T22:00:00","46","ND","ND","ND","ND","ND","0.1","98.7","25.5","49.5","0","0"],
    [37180,"2014-08-02T23:00:00","72","ND","ND","ND","ND","ND","0.5","126.4","24.6","58.7","0","0"],
    [37181,"2014-08-03T00:00:00","68","ND","ND","ND","ND","ND","0.4","193.9","23.4","69.1","0","0"],
    [37182,"2014-08-03T01:00:00","54","ND","ND","ND","ND","ND","0.2","1","22.5","67.3","0","0"],
    [37183,"2014-08-03T02:00:00","30","ND","ND","ND","ND","ND","0.5","145.5","22.3","73.5","0","0"],
    [37184,"2014-08-03T03:00:00","47","ND","ND","ND","ND","ND","0.4","126.6","22.1","69","0","0"],
    [37185,"2014-08-03T04:00:00","57","ND","ND","ND","ND","ND","0.8","155.2","21.9","62.6","0","0"],
    [37186,"2014-08-03T05:00:00","47","ND","ND","ND","ND","ND","0.2","279.2","20.9","69.1","0","0"],
    [37187,"2014-08-03T06:00:00","46","ND","ND","ND","ND","ND","0.2","310.6","20.3","74.5","0","0"],
    [37188,"2014-08-03T07:00:00","56","ND","ND","ND","ND","ND","0.2","340.5","20.3","75.2","22.6","0"],
    [37189,"2014-08-03T08:00:00","86","ND","ND","ND","ND","ND","0.6","39.3","20.8","74.7","90.1","0"],
    [37190,"2014-08-03T09:00:00","91","ND","ND","ND","ND","ND","0.5","65.1","21.8","70.5","171","0"],
    [37191,"2014-08-03T10:00:00","78","ND","ND","ND","ND","ND","0.6","131","24.4","59.3","461.3","0"],
    [37192,"2014-08-03T11:00:00","39","ND","ND","ND","ND","ND","0.6","101.6","26.2","53.5","523.3","0"],
    [37193,"2014-08-03T12:00:00","38","ND","ND","ND","ND","ND","0.4","55.5","27.9","49.9","746.7","0"],
    [37194,"2014-08-03T13:00:00","27","ND","ND","ND","ND","ND","1","157.1","29.5","42.2","808.1","0"],
    [37195,"2014-08-03T14:00:00","ND","ND","ND","ND","ND","ND","1.3","128.5","31.3","34.5","620.1","0"],
    [37196,"2014-08-03T15:00:00","27","ND","ND","ND","ND","ND","1.2","85","31.6","33.6","426.1","0"],
    [37197,"2014-08-03T16:00:00","36","ND","ND","ND","ND","ND","1.8","346.8","30.4","41.1","265","0"],
    [37198,"2014-08-03T17:00:00","37","ND","ND","ND","ND","ND","2.4","254.4","29.9","43.1","173.6","0"],
    [37199,"2014-08-03T18:00:00","28","ND","ND","ND","ND","ND","0.9","284.8","29.5","43.9","93.4","0"],
    [37200,"2014-08-03T19:00:00","36","ND","ND","ND","ND","ND","0.8","241.3","27.6","46.2","0","0"],
    [37201,"2014-08-03T20:00:00","43","ND","ND","ND","ND","ND","0.3","90.6","26.9","48","0","0"],
    [37202,"2014-08-03T21:00:00","57","ND","ND","ND","ND","ND","0.8","127.5","26.5","50.5","0","0"],
    [37203,"2014-08-03T22:00:00","48","ND","ND","ND","ND","ND","1.1","145.8","25.3","57.7","0","0"],
    [37204,"2014-08-03T23:00:00","60","ND","ND","ND","ND","ND","0.5","117.6","24.2","63.1","0","0"],
    [37205,"2014-08-04T00:00:00","39","ND","ND","ND","ND","ND","0.4","73.3","23.3","67.8","0","0"],
    [37206,"2014-08-04T01:00:00","48","ND","ND","ND","ND","ND","0.2","202.5","22.7","70","0","0"],
    [37207,"2014-08-04T02:00:00","50","ND","ND","ND","ND","ND","0.4","355.9","22.1","71.8","0","0"],
    [37208,"2014-08-04T03:00:00","54","ND","ND","ND","ND","ND","0.2","306.1","21.6","74.4","0","0"],
    [37209,"2014-08-04T04:00:00","43","ND","ND","ND","ND","ND","0.1","344.6","22","72","0","0"],
    [37210,"2014-08-04T05:00:00","65","ND","ND","ND","ND","ND","0.9","2.9","20.9","78.3","0","0"],
    [37211,"2014-08-04T06:00:00","51","ND","ND","ND","ND","ND","0.3","312.5","20.7","79.3","0","0"],
    [37212,"2014-08-04T07:00:00","81","ND","ND","ND","ND","ND","0.3","213.3","21.1","77.3","33.5","0"],
    [37213,"2014-08-04T08:00:00","159","ND","ND","ND","ND","ND","0.1","13.5","22.7","71.6","134.7","0"],
    [37214,"2014-08-04T09:00:00","127","ND","ND","ND","ND","ND","1.3","139.8","24.6","63","355.7","0"],
    [37215,"2014-08-04T10:00:00","80","ND","ND","ND","ND","ND","1.7","123.4","26.5","56.2","540.1","0"],
    [37216,"2014-08-04T11:00:00","56","ND","ND","ND","ND","ND","0.7","60.7","27.5","52.9","679.8","0"],
    [37217,"2014-08-04T12:00:00","50","ND","ND","ND","ND","ND","0.9","83.3","29.2","47","733.7","0"],
    [37218,"2014-08-04T13:00:00","67","ND","ND","ND","ND","ND","1.5","135.7","30.8","42.8","764.3","0"],
    [37219,"2014-08-04T14:00:00","76","ND","ND","ND","ND","ND","1.8","32.9","31.4","42.5","554.4","0"],
    [37220,"2014-08-04T15:00:00","43","ND","ND","ND","ND","ND","1.8","263.3","31.5","41","536.2","0"],
    [37221,"2014-08-04T16:00:00","54","ND","ND","ND","ND","ND","3.7","275.7","31.3","41.5","465.8","0"],
    [37222,"2014-08-04T17:00:00","39","ND","ND","ND","ND","ND","3","272.6","30.2","44","192.4","0"],
    [37223,"2014-08-04T18:00:00","38","ND","ND","ND","ND","ND","1.6","275","29.7","44.6","74.2","0"],
    [37224,"2014-08-04T19:00:00","38","ND","ND","ND","ND","ND","0.9","240.9","28.3","48.4","0","0"],
    [37225,"2014-08-04T20:00:00","51","ND","ND","ND","ND","ND","0.5","208.2","27.6","50.6","0","0"],
    [37226,"2014-08-04T21:00:00","61","ND","ND","ND","ND","ND","0.9","96.7","26.8","53.9","0","0"],
    [37227,"2014-08-04T22:00:00","69","ND","ND","ND","ND","ND","0.5","40.1","26","57.4","0","0"],
    [37228,"2014-08-04T23:00:00","62","ND","ND","ND","ND","ND","1","168.6","25.6","59.3","0","0"],
    [37229,"2014-08-05T00:00:00","50","ND","ND","ND","ND","ND","0.8","131.6","24.4","64.6","0","0"],
    [37230,"2014-08-05T01:00:00","31","ND","ND","ND","ND","ND","0.8","171.9","23.4","69.9","0","0"],
    [37231,"2014-08-05T02:00:00","32","ND","ND","ND","ND","ND","0.1","45.9","22.9","72.4","0","0"],
    [37232,"2014-08-05T03:00:00","31","ND","ND","ND","ND","ND","0.4","194.9","22.9","72.9","0","0"],
    [37233,"2014-08-05T04:00:00","43","ND","ND","ND","ND","ND","0.1","162","22.5","74.9","0","0"],
    [37234,"2014-08-05T05:00:00","48","ND","ND","ND","ND","ND","0","340.8","21.9","78.1","0","0"],
    [37235,"2014-08-05T06:00:00","53","ND","ND","ND","ND","ND","0.4","333.6","22.1","77.1","0","0"],
    [37236,"2014-08-05T07:00:00","71","ND","ND","ND","ND","ND","0.1","149.8","22.5","75.7","21.6","0"],
    [37237,"2014-08-05T08:00:00","123","ND","ND","ND","ND","ND","0.6","77.6","23.2","73.5","143.1","0"],
    [37238,"2014-08-05T09:00:00","96","ND","ND","ND","ND","ND","0.7","152.1","24.6","67.2","333","0"],
    [37239,"2014-08-05T10:00:00","66","ND","ND","ND","ND","ND","1.2","143.7","26.1","60.5","503","0"],
    [37240,"2014-08-05T11:00:00","58","ND","ND","ND","ND","ND","2.5","139.3","27.6","55.2","590.1","0"],
    [37241,"2014-08-05T12:00:00","51","ND","ND","ND","ND","ND","1.8","117.2","27.6","54.8","364.3","0"],
    [37242,"2014-08-05T13:00:00","50","ND","ND","ND","ND","ND","0.9","127.6","28.1","52.6","303.2","0"],
    [37243,"2014-08-05T14:00:00","58","ND","ND","ND","ND","ND","1.6","70.3","28","54.7","265.1","0"],
    [37244,"2014-08-05T15:00:00","66","ND","ND","ND","ND","ND","1.5","56.1","27.6","56.7","192.2","0"],
    [37245,"2014-08-05T16:00:00","78","ND","ND","ND","ND","ND","0.9","108.6","27.8","55.8","154.9","0"],
    [37246,"2014-08-05T17:00:00","82","ND","ND","ND","ND","ND","1.2","42.1","27.6","57.3","124.5","0"],
    [37247,"2014-08-05T18:00:00","75","ND","ND","ND","ND","ND","0.5","49.2","27.2","57.7","31.5","0"],
    [37248,"2014-08-05T19:00:00","62","ND","ND","ND","ND","ND","0.8","252.1","26.4","57.6","0","0"],
    [37249,"2014-08-05T20:00:00","88","ND","ND","ND","ND","ND","0.3","300.8","25.9","58.3","0","0"],
    [37250,"2014-08-05T21:00:00","85","ND","ND","ND","ND","ND","0.4","228.4","25.4","60.2","0","0"],
    [37251,"2014-08-05T22:00:00","79","ND","ND","ND","ND","ND","0.5","169.7","25.6","58.6","0","0"],
    [37252,"2014-08-05T23:00:00","51","ND","ND","ND","ND","ND","0.5","69.6","24.4","65.4","0","0"],
    [37253,"2014-08-06T00:00:00","105","ND","ND","ND","ND","ND","0.3","131.8","24","67.5","0","0"],
    [37254,"2014-08-06T01:00:00","87","ND","ND","ND","ND","ND","0.2","189.8","23.8","67.9","0","0"],
    [37255,"2014-08-06T02:00:00","72","ND","ND","ND","ND","ND","0.2","308","23.6","70.2","0","0"],
    [37256,"2014-08-06T03:00:00","81","ND","ND","ND","ND","ND","0.2","68.4","23.7","69.1","0","0"],
    [37257,"2014-08-06T04:00:00","71","ND","ND","ND","ND","ND","0.6","16.6","22.4","76.2","0","0"],
    [37258,"2014-08-06T05:00:00","65","ND","ND","ND","ND","ND","0.3","266.2","22.2","76.7","0","0"],
    [37259,"2014-08-06T06:00:00","70","ND","ND","ND","ND","ND","0.2","311.6","22.4","75.4","0","0"],
    [37260,"2014-08-06T07:00:00","108","ND","ND","ND","ND","ND","0.7","57.7","22.6","74.1","6.8","0"],
    [37261,"2014-08-06T08:00:00","110","ND","ND","ND","ND","ND","0.5","37.5","22.8","74.7","75.1","0"],
    [37262,"2014-08-06T09:00:00","127","ND","ND","ND","ND","ND","0.4","92","24.4","68.8","317.2","0"],
    [37263,"2014-08-06T10:00:00","104","ND","ND","ND","ND","ND","1.2","122.2","26.5","61.6","521.4","0"],
    [37264,"2014-08-06T11:00:00","68","ND","ND","ND","ND","ND","1.4","140.9","27.4","56.2","538.5","0"],
    [37265,"2014-08-06T12:00:00","57","ND","ND","ND","ND","ND","0.4","126.7","28.3","52.8","338","0"],
    [37266,"2014-08-06T13:00:00","66","ND","ND","ND","ND","ND","1.4","141.9","29.5","48.9","522.5","0"],
    [37267,"2014-08-06T14:00:00","66","ND","ND","ND","ND","ND","1.6","18.1","28.7","51.1","255.9","0"],
    [37268,"2014-08-06T15:00:00","ND","ND","ND","ND","ND","ND","2","108.3","30.3","45.7","519.2","0"],
    [37269,"2014-08-06T16:00:00","24","ND","ND","ND","ND","ND","3","257","28.8","48.1","153","0"],
    [37270,"2014-08-06T17:00:00","31","ND","ND","ND","ND","ND","3.2","255.4","28.7","48.2","164.4","0"],
    [37271,"2014-08-06T18:00:00","32","ND","ND","ND","ND","ND","2","243.9","28","49.2","60.5","0"],
    [37272,"2014-08-06T19:00:00","59","ND","ND","ND","ND","ND","0.2","114.4","27.4","50.7","0","0"],
    [37273,"2014-08-06T20:00:00","57","ND","ND","ND","ND","ND","1.2","96.2","26.6","54","0","0"],
    [37274,"2014-08-06T21:00:00","50","ND","ND","ND","ND","ND","0.3","128.6","26.2","55.9","0","0"],
    [37275,"2014-08-06T22:00:00","66","ND","ND","ND","ND","ND","0.8","77.1","25.4","59.9","0","0"],
    [37276,"2014-08-06T23:00:00","98","ND","ND","ND","ND","ND","0.6","145.5","24.5","64.8","0","0"],
    [37277,"2014-08-07T00:00:00","64","ND","ND","ND","ND","ND","0.8","69.6","23.7","67.7","0","0"],
    [37278,"2014-08-07T01:00:00","39","ND","ND","ND","ND","ND","0.3","133.6","22.9","72.2","0","0"],
    [37279,"2014-08-07T02:00:00","39","ND","ND","ND","ND","ND","1.5","133.8","22.7","75.9","0","0"],
    [37280,"2014-08-07T03:00:00","43","ND","ND","ND","ND","ND","0.6","182.7","21.3","87.6","0","0.51"],
    [37281,"2014-08-07T04:00:00","33","ND","ND","ND","ND","ND","0.9","174.6","21.2","89.2","0","0.25"],
    [37282,"2014-08-07T05:00:00","34","ND","ND","ND","ND","ND","0.2","259.6","21.3","88.9","0","0"],
    [37283,"2014-08-07T06:00:00","39","ND","ND","ND","ND","ND","0.5","213.2","21.5","87.4","0","0"],
    [37284,"2014-08-07T07:00:00","34","ND","ND","ND","ND","ND","0.2","112.1","21.6","86.3","6.7","0"],
    [37285,"2014-08-07T08:00:00","67","ND","ND","ND","ND","ND","0.4","39.1","21.4","90.1","66.3","0"],
    [37286,"2014-08-07T09:00:00","77","ND","ND","ND","ND","ND","0.4","172.4","23","81.9","330.1","0"],
    [37287,"2014-08-07T10:00:00","45","ND","ND","ND","ND","ND","1.2","106","25.6","64.5","602.4","0"],
    [37288,"2014-08-07T11:00:00","42","ND","ND","ND","ND","ND","1.6","106.1","26.6","59.9","553.4","0"],
    [37289,"2014-08-07T12:00:00","36","ND","ND","ND","ND","ND","1.2","103.2","27.7","55.2","771.5","0"],
    [37290,"2014-08-07T13:00:00","44","ND","ND","ND","ND","ND","1.2","79.1","29","50.6","752.3","0"],
    [37291,"2014-08-07T14:00:00","48","ND","ND","ND","ND","ND","0.3","84.2","31","44.1","794.7","0"],
    [37292,"2014-08-07T15:00:00","44","ND","ND","ND","ND","ND","1.2","75.6","31.1","43.1","312","0"],
    [37293,"2014-08-07T16:00:00","34","ND","ND","ND","ND","ND","2.3","262.5","30.4","45.4","325","0.25"],
    [37294,"2014-08-07T17:00:00","28","ND","ND","ND","ND","ND","3.5","255.5","30","46.7","284.5","0"],
    [37295,"2014-08-07T18:00:00","57","ND","ND","ND","ND","ND","3.3","249.1","28","50.9","24.2","0"],
    [37296,"2014-08-07T19:00:00","36","ND","ND","ND","ND","ND","1.4","242.5","23.6","74.4","0","17.02"],
    [37297,"2014-08-07T20:00:00","20","ND","ND","ND","ND","ND","0.5","263.8","23.4","73.4","0","0.25"],
    [37298,"2014-08-07T21:00:00","31","ND","ND","ND","ND","ND","0.3","49.5","23.1","76.3","0","0"],
    [37299,"2014-08-07T22:00:00","36","ND","ND","ND","ND","ND","0.6","262.5","22.4","80.5","0","0"],
    [37300,"2014-08-07T23:00:00","41","ND","ND","ND","ND","ND","0.2","274.3","22","82.6","0","0"],
    [37301,"2014-08-08T00:00:00","40","ND","ND","ND","ND","ND","0.4","330.4","21.8","80.8","0","0"],
    [37302,"2014-08-08T01:00:00","80","ND","ND","ND","ND","ND","0.3","345.1","21.4","82.8","0","0"],
    [37303,"2014-08-08T02:00:00","64","ND","ND","ND","ND","ND","0.3","306.7","21.3","82.5","0","0"],
    [37304,"2014-08-08T03:00:00","52","ND","ND","ND","ND","ND","0.1","22.7","21.2","83.5","0","0"],
    [37305,"2014-08-08T04:00:00","57","ND","ND","ND","ND","ND","0.5","276.9","21.1","83.8","0","0"],
    [37306,"2014-08-08T05:00:00","55","ND","ND","ND","ND","ND","0.4","268.1","20.9","84.2","0","0"],
    [37307,"2014-08-08T06:00:00","57","ND","ND","ND","ND","ND","0.2","245.7","21.1","82.1","0","0"],
    [37308,"2014-08-08T07:00:00","81","ND","ND","ND","ND","ND","0.4","281.9","21.3","80.9","29.1","0"],
    [37309,"2014-08-08T08:00:00","97","ND","ND","ND","ND","ND","0.6","71.5","22.6","74.9","135","0"],
    [37310,"2014-08-08T09:00:00","81","ND","ND","ND","ND","ND","0.6","40.4","23.2","70.9","190.1","0"],
    [37311,"2014-08-08T10:00:00","62","ND","ND","ND","ND","ND","0.8","66.8","24.7","64.9","468.3","0"],
    [37312,"2014-08-08T11:00:00","60","ND","ND","ND","ND","ND","1.2","117.2","26.4","57.7","693.4","0"],
    [37313,"2014-08-08T12:00:00","48","ND","ND","ND","ND","ND","1.1","103.1","28.4","50.8","879.2","0"],
    [37314,"2014-08-08T13:00:00","41","ND","ND","ND","ND","ND","1.7","93.2","28.8","49.6","425.4","0"],
    [37315,"2014-08-08T14:00:00","34","ND","ND","ND","ND","ND","1.2","80.6","29.1","48.9","577.3","0"],
    [37316,"2014-08-08T15:00:00","48","ND","ND","ND","ND","ND","1.6","61.3","30.3","46.2","634","0"],
    [37317,"2014-08-08T16:00:00","40","ND","ND","ND","ND","ND","1.2","345.5","30.2","45.5","223.2","0"],
    [37318,"2014-08-08T17:00:00","21","ND","ND","ND","ND","ND","2.3","261.6","29.5","47.6","143.1","0"],
    [37319,"2014-08-08T18:00:00","33","ND","ND","ND","ND","ND","0.8","269.5","29.1","47.7","75.5","0"],
    [37320,"2014-08-08T19:00:00","35","ND","ND","ND","ND","ND","0.4","261","27.8","50.1","0","0"],
    [37321,"2014-08-08T20:00:00","36","ND","ND","ND","ND","ND","0.4","185.6","27.5","50","0","0"],
    [37322,"2014-08-08T21:00:00","48","ND","ND","ND","ND","ND","0.9","94.2","27.2","52.3","0","0"],
    [37323,"2014-08-08T22:00:00","40","ND","ND","ND","ND","ND","0.6","148.9","25.9","61","0","0"],
    [37324,"2014-08-08T23:00:00","46","ND","ND","ND","ND","ND","0.6","277.8","25.2","64.7","0","0"],
    [37325,"2014-08-09T00:00:00","48","ND","ND","ND","ND","ND","0.2","258.5","24.7","66.9","0","0"],
    [37326,"2014-08-09T01:00:00","65","ND","ND","ND","ND","ND","0.5","124.1","24.5","68.7","0","0"],
    [37327,"2014-08-09T02:00:00","46","ND","ND","ND","ND","ND","0.1","357.1","24","71.4","0","0"],
    [37328,"2014-08-09T03:00:00","43","ND","ND","ND","ND","ND","0.5","96.3","24","71.3","0","0"],
    [37329,"2014-08-09T04:00:00","35","ND","ND","ND","ND","ND","0.6","169.6","22","87.9","0","7.62"],
    [37330,"2014-08-09T05:00:00","25","ND","ND","ND","ND","ND","0.5","291.8","21.5","89.7","0","0"],
    [37331,"2014-08-09T06:00:00","33","ND","ND","ND","ND","ND","0.3","32","21.4","90.5","0","2.29"],
    [37332,"2014-08-09T07:00:00","54","ND","ND","ND","ND","ND","0.3","304.2","21.3","92.5","32.4","3.3"],
    [37333,"2014-08-09T08:00:00","46","ND","ND","ND","ND","ND","0.9","221.9","22","90.4","149.9","0"],
    [37334,"2014-08-09T09:00:00","41","ND","ND","ND","ND","ND","0.2","219","23.5","79.7","286.3","0"],
    [37335,"2014-08-09T10:00:00","46","ND","ND","ND","ND","ND","0.8","84.1","25.4","69.8","543.3","0"],
    [37336,"2014-08-09T11:00:00","26","ND","ND","ND","ND","ND","1.1","105.3","26.7","61.1","457.1","0"],
    [37337,"2014-08-09T12:00:00","28","ND","ND","ND","ND","ND","1.4","135.6","27.3","56.8","372.6","0"],
    [37338,"2014-08-09T13:00:00","35","ND","ND","ND","ND","ND","1.1","124","27.8","54.2","391","0"],
    [37339,"2014-08-09T14:00:00","43","ND","ND","ND","ND","ND","1","129.4","29","51.6","661.4","0"],
    [37340,"2014-08-09T15:00:00","40","ND","ND","ND","ND","ND","0.8","202.8","30.3","46.7","445.3","0"],
    [37341,"2014-08-09T16:00:00","38","ND","ND","ND","ND","ND","0.7","67.3","30.4","45.9","322","0"],
    [37342,"2014-08-09T17:00:00","14","ND","ND","ND","ND","ND","1.9","261.3","30.7","44.3","359.5","0"],
    [37343,"2014-08-09T18:00:00","27","ND","ND","ND","ND","ND","2.7","258.6","29.2","48","120.7","0"],
    [37344,"2014-08-09T19:00:00","30","ND","ND","ND","ND","ND","0.8","234","27.4","52.8","0","0"],
    [37345,"2014-08-09T20:00:00","42","ND","ND","ND","ND","ND","1","107.6","27","54.3","0","0"],
    [37346,"2014-08-09T21:00:00","44","ND","ND","ND","ND","ND","0.8","95.5","26.3","57.4","0","0"],
    [37347,"2014-08-09T22:00:00","56","ND","ND","ND","ND","ND","1","112.5","25.6","60.6","0","0"],
    [37348,"2014-08-09T23:00:00","42","ND","ND","ND","ND","ND","0.5","169.7","24.9","64.3","0","0"],
    [37349,"2014-08-10T00:00:00","41","ND","ND","ND","ND","ND","0.3","25.5","24.5","66.6","0","0"],
    [37350,"2014-08-10T01:00:00","39","ND","ND","ND","ND","ND","0.5","45.1","23.9","70.8","0","0"],
    [37351,"2014-08-10T02:00:00","43","ND","ND","ND","ND","ND","0.3","57.4","23.4","73.9","0","0"],
    [37352,"2014-08-10T03:00:00","32","ND","ND","ND","ND","ND","0.2","298.8","22.6","77.2","0","0"],
    [37353,"2014-08-10T04:00:00","37","ND","ND","ND","ND","ND","0.5","222.8","22.5","77.8","0","0"],
    [37354,"2014-08-10T05:00:00","38","ND","ND","ND","ND","ND","0.2","282.7","22.4","78.5","0","0"],
    [37355,"2014-08-10T06:00:00","56","ND","ND","ND","ND","ND","0.8","21.3","21.8","81.2","0","0"],
    [37356,"2014-08-10T07:00:00","53","ND","ND","ND","ND","ND","0.3","333","21.8","80.6","24.9","0"],
    [37357,"2014-08-10T08:00:00","56","ND","ND","ND","ND","ND","0.2","56.3","22.4","77.6","72.4","0"],
    [37358,"2014-08-10T09:00:00","60","ND","ND","ND","ND","ND","0.3","152.6","24.4","69.4","377.3","0"],
    [37359,"2014-08-10T10:00:00","50","ND","ND","ND","ND","ND","1.2","126","25.9","61.9","477","0"],
    [37360,"2014-08-10T11:00:00","38","ND","ND","ND","ND","ND","1.3","130.3","27.1","57.2","662.6","0"],
    [37361,"2014-08-10T12:00:00","38","ND","ND","ND","ND","ND","1.4","66.1","28.3","53.2","697.1","0"],
    [37362,"2014-08-10T13:00:00","30","ND","ND","ND","ND","ND","1.7","72.1","28.6","52.7","473.6","0"],
    [37363,"2014-08-10T14:00:00","33","ND","ND","ND","ND","ND","1.2","58.1","29.9","49.5","659.3","0"],
    [37364,"2014-08-10T15:00:00","12","ND","ND","ND","ND","ND","2","5.8","30.4","44.7","551.4","0"],
    [37365,"2014-08-10T16:00:00","13","ND","ND","ND","ND","ND","1.9","327.4","30.9","43.2","484.3","0"],
    [37366,"2014-08-10T17:00:00","37","ND","ND","ND","ND","ND","3.4","269.9","29.9","44.7","298.8","0"],
    [37367,"2014-08-10T18:00:00","38","ND","ND","ND","ND","ND","2.5","263.8","28.9","46.5","97.2","0"],
    [37368,"2014-08-10T19:00:00","126","ND","ND","ND","ND","ND","3.2","276.2","27.8","48.3","0","0"],
    [37369,"2014-08-10T20:00:00","100","ND","ND","ND","ND","ND","1.1","321.1","27.4","49.9","0","0"],
    [37370,"2014-08-10T21:00:00","24","ND","ND","ND","ND","ND","1","163.7","26.9","52","0","0"],
    [37371,"2014-08-10T22:00:00","32","ND","ND","ND","ND","ND","2.7","195.1","25.3","62.3","0","0"],
    [37372,"2014-08-10T23:00:00","17","ND","ND","ND","ND","ND","1.3","199.2","24.8","63","0","0"],
    [37373,"2014-08-11T00:00:00","27","ND","ND","ND","ND","ND","1.6","168","23.7","70.2","0","0"],
    [37374,"2014-08-11T01:00:00","19","ND","ND","ND","ND","ND","0.2","216.7","22.9","76.1","0","0"],
    [37375,"2014-08-11T02:00:00","36","ND","ND","ND","ND","ND","0.4","265","22.7","75.1","0","0"],
    [37376,"2014-08-11T03:00:00","36","ND","ND","ND","ND","ND","0.7","38.9","22.4","78.3","0","0"],
    [37377,"2014-08-11T04:00:00","81","ND","ND","ND","ND","ND","0.6","33.8","21.5","84.5","0","0"],
    [37378,"2014-08-11T05:00:00","48","ND","ND","ND","ND","ND","0.4","4.9","21.7","83.9","0","0"],
    [37379,"2014-08-11T06:00:00","60","ND","ND","ND","ND","ND","0.3","187.5","21.6","82.7","0","0"],
    [37380,"2014-08-11T07:00:00","59","ND","ND","ND","ND","ND","0.2","194.5","22.1","79.7","11.6","0"],
    [37381,"2014-08-11T08:00:00","67","ND","ND","ND","ND","ND","0.2","109.7","22.6","77.7","67.9","0"],
    [37382,"2014-08-11T09:00:00","90","ND","ND","ND","ND","ND","0.8","61.8","23.2","77.1","195","0"],
    [37383,"2014-08-11T10:00:00","38","ND","ND","ND","ND","ND","1.3","109","24.5","69.5","401.9","0"],
    [37384,"2014-08-11T11:00:00","36","ND","ND","ND","ND","ND","1.8","135.9","26.3","61.1","657.4","0"],
    [37385,"2014-08-11T12:00:00","37","ND","ND","ND","ND","ND","0.9","109","27.7","55.5","693.4","0"],
    [37386,"2014-08-11T13:00:00","38","ND","ND","ND","ND","ND","1.2","278.9","28.7","51.3","445.2","0"],
    [37387,"2014-08-11T14:00:00","37","ND","ND","ND","ND","ND","1","26.5","29.8","47.5","602.9","0"],
    [37388,"2014-08-11T15:00:00","41","ND","ND","ND","ND","ND","1.2","297.2","30.2","45.7","247.7","0"],
    [37389,"2014-08-11T16:00:00","29","ND","ND","ND","ND","ND","3.4","258.8","30.3","45.1","371.5","0"],
    [37390,"2014-08-11T17:00:00","44","ND","ND","ND","ND","ND","2.2","271.3","29","48","106","0"],
    [37391,"2014-08-11T18:00:00","37","ND","ND","ND","ND","ND","1.7","268.2","27.9","50.2","42.5","0"],
    [37392,"2014-08-11T19:00:00","44","ND","ND","ND","ND","ND","1.5","294.9","27.3","50.6","0","0"],
    [37393,"2014-08-11T20:00:00","38","ND","ND","ND","ND","ND","0.5","326.4","26.4","56.7","0","0"],
    [37394,"2014-08-11T21:00:00","61","ND","ND","ND","ND","ND","0.8","106.5","25.4","63.7","0","0"],
    [37395,"2014-08-11T22:00:00","12","ND","ND","ND","ND","ND","1.8","231.7","25.4","59","0","0"],
    [37396,"2014-08-11T23:00:00","44","ND","ND","ND","ND","ND","1","10.6","24.2","66.7","0","0"],
    [37397,"2014-08-12T00:00:00","32","ND","ND","ND","ND","ND","0.1","199.9","23.7","69.5","0","0"],
    [37398,"2014-08-12T01:00:00","31","ND","ND","ND","ND","ND","0.4","257.9","23.2","72.1","0","0"],
    [37399,"2014-08-12T02:00:00","27","ND","ND","ND","ND","ND","0.1","333.9","22.9","72.9","0","0"],
    [37400,"2014-08-12T03:00:00","35","ND","ND","ND","ND","ND","0.3","120.1","23","74.2","0","0"],
    [37401,"2014-08-12T04:00:00","47","ND","ND","ND","ND","ND","0.7","40.1","22.1","78.8","0","0"],
    [37402,"2014-08-12T05:00:00","41","ND","ND","ND","ND","ND","0.4","279.5","22","78.9","0","0"],
    [37403,"2014-08-12T06:00:00","61","ND","ND","ND","ND","ND","0.4","348.6","21.7","80.2","0","0"],
    [37404,"2014-08-12T07:00:00","87","ND","ND","ND","ND","ND","0.2","46.8","22","79","8.1","0"],
    [37405,"2014-08-12T08:00:00","101","ND","ND","ND","ND","ND","0.6","53.2","22.2","77.8","89.1","0"],
    [37406,"2014-08-12T09:00:00","93","ND","ND","ND","ND","ND","0.8","53.8","23.3","73.1","267","0"],
    [37407,"2014-08-12T10:00:00","57","ND","ND","ND","ND","ND","1.2","113.8","25.1","65.7","452.6","0"],
    [37408,"2014-08-12T11:00:00","28","ND","ND","ND","ND","ND","0.9","123.5","26.6","57.6","594.7","0"],
    [37409,"2014-08-12T12:00:00","41","ND","ND","ND","ND","ND","1.5","133.2","27.9","53.9","630.6","0"],
    [37410,"2014-08-12T13:00:00","52","ND","ND","ND","ND","ND","1.3","68.6","28.5","53.4","581.6","0"],
    [37411,"2014-08-12T14:00:00","58","ND","ND","ND","ND","ND","1","59.6","28.5","53.2","305.5","0"],
    [37412,"2014-08-12T15:00:00","53","ND","ND","ND","ND","ND","0.9","98.7","28.8","52.5","215.1","0"],
    [37413,"2014-08-12T16:00:00","31","ND","ND","ND","ND","ND","2","245.9","29","50.9","377.2","0"],
    [37414,"2014-08-12T17:00:00","28","ND","ND","ND","ND","ND","1.2","312.9","29.7","46.7","312","0"],
    [37415,"2014-08-12T18:00:00","27","ND","ND","ND","ND","ND","1.9","250.6","28.4","49.7","25.7","0"],
    [37416,"2014-08-12T19:00:00","34","ND","ND","ND","ND","ND","1","252.3","27.4","52.3","0","0"],
    [37417,"2014-08-12T20:00:00","52","ND","ND","ND","ND","ND","0.6","257.8","26.7","54.3","0","0"],
    [37418,"2014-08-12T21:00:00","54","ND","ND","ND","ND","ND","0.4","109.7","26.1","59.4","0","0"],
    [37419,"2014-08-12T22:00:00","52","ND","ND","ND","ND","ND","0.8","88.3","24.9","68","0","0"],
    [37420,"2014-08-12T23:00:00","37","ND","ND","ND","ND","ND","0.5","204.7","24.9","67","0","0"],
    [37421,"2014-08-13T00:00:00","35","ND","ND","ND","ND","ND","0.5","77.6","24.6","65.9","0","0"],
    [37422,"2014-08-13T01:00:00","44","ND","ND","ND","ND","ND","0.5","87","23.9","67.7","0","0"],
    [37423,"2014-08-13T02:00:00","38","ND","ND","ND","ND","ND","0.4","166.8","23.5","70.5","0","0"],
    [37424,"2014-08-13T03:00:00","38","ND","ND","ND","ND","ND","0.4","310.1","23.2","71.9","0","0"],
    [37425,"2014-08-13T04:00:00","48","ND","ND","ND","ND","ND","0.9","43.7","22.5","75.3","0","0"],
    [37426,"2014-08-13T05:00:00","56","ND","ND","ND","ND","ND","0.6","355.1","21.5","79.6","0","0"],
    [37427,"2014-08-13T06:00:00","59","ND","ND","ND","ND","ND","0.6","13.1","21.7","77.8","0","0"],
    [37428,"2014-08-13T07:00:00","94","ND","ND","ND","ND","ND","0.3","58.8","22.1","75.7","34.9","0"],
    [37429,"2014-08-13T08:00:00","132","ND","ND","ND","ND","ND","0.8","32.2","22.6","71.2","94.1","0"],
    [37430,"2014-08-13T09:00:00","71","ND","ND","ND","ND","ND","1","91.4","23","69.6","205.3","0"],
    [37431,"2014-08-13T10:00:00","57","ND","ND","ND","ND","ND","0.9","103.9","25.2","64.3","609.4","0"],
    [37432,"2014-08-13T11:00:00","44","ND","ND","ND","ND","ND","1.6","98.5","26.6","59.3","427.9","0"],
    [37433,"2014-08-13T12:00:00","29","ND","ND","ND","ND","ND","1.3","122","27.5","56.5","443.9","0"],
    [37434,"2014-08-13T13:00:00","42","ND","ND","ND","ND","ND","1","154.4","29","50.7","758.9","0"],
    [37435,"2014-08-13T14:00:00","56","ND","ND","ND","ND","ND","1.4","122.9","30.1","47.5","741.9","0"],
    [37436,"2014-08-13T15:00:00","62","ND","ND","ND","ND","ND","1.5","59.6","30.5","46.3","384.3","0"],
    [37437,"2014-08-13T16:00:00","36","ND","ND","ND","ND","ND","1.6","338.9","29.7","47.2","144.5","0"],
    [37438,"2014-08-13T17:00:00","31","ND","ND","ND","ND","ND","2.5","276","29.9","46.1","272.4","0"],
    [37439,"2014-08-13T18:00:00","22","ND","ND","ND","ND","ND","2.1","251.3","29.1","47.5","66.1","0"],
    [37440,"2014-08-13T19:00:00","31","ND","ND","ND","ND","ND","1.2","242.1","27.6","50.6","0","0"],
    [37441,"2014-08-13T20:00:00","31","ND","ND","ND","ND","ND","1.2","244.9","27.2","51.9","0","0"],
    [37442,"2014-08-13T21:00:00","36","ND","ND","ND","ND","ND","1","79","26.1","59.8","0","0"],
    [37443,"2014-08-13T22:00:00","28","ND","ND","ND","ND","ND","0.3","124.2","24.8","67.6","0","0"],
    [37444,"2014-08-13T23:00:00","33","ND","ND","ND","ND","ND","0.9","48.1","23.7","73.1","0","0"],
    [37445,"2014-08-14T00:00:00","39","ND","ND","ND","ND","ND","0.5","40.7","22.8","78.7","0","0"],
    [37446,"2014-08-14T01:00:00","28","ND","ND","ND","ND","ND","0.4","60.8","22.6","79.7","0","0"],
    [37447,"2014-08-14T02:00:00","25","ND","ND","ND","ND","ND","0.1","51.2","22.7","79.1","0","0"],
    [37448,"2014-08-14T03:00:00","39","ND","ND","ND","ND","ND","0.1","316.5","22.7","79.4","0","0"],
    [37449,"2014-08-14T04:00:00","31","ND","ND","ND","ND","ND","0.1","203.4","22.6","78.7","0","0"],
    [37450,"2014-08-14T05:00:00","56","ND","ND","ND","ND","ND","0.7","30.1","21.6","84.8","0","0"],
    [37451,"2014-08-14T06:00:00","55","ND","ND","ND","ND","ND","0.3","286.5","21.3","86","0","0"],
    [37452,"2014-08-14T07:00:00","72","ND","ND","ND","ND","ND","0.6","344.8","21.4","84.3","29.7","0"],
    [37453,"2014-08-14T08:00:00","92","ND","ND","ND","ND","ND","0.4","99.7","22.7","79.6","189.8","0"],
    [37454,"2014-08-14T09:00:00","65","ND","ND","ND","ND","ND","1","105","24.8","69.5","420.2","0"],
    [37455,"2014-08-14T10:00:00","41","ND","ND","ND","ND","ND","1.5","118.4","25.8","63.4","555","0"],
    [37456,"2014-08-14T11:00:00","39","ND","ND","ND","ND","ND","1.4","109","27.5","54.9","704","0"],
    [37457,"2014-08-14T12:00:00","54","ND","ND","ND","ND","ND","0.8","64.8","28.7","49.8","656.8","0"],
    [37458,"2014-08-14T13:00:00","45","ND","ND","ND","ND","ND","0.9","63.1","30","44.3","734.8","0"],
    [37459,"2014-08-14T14:00:00","62","ND","ND","ND","ND","ND","2.1","122.5","31.2","39.2","717.4","0"],
    [37460,"2014-08-14T15:00:00","43","ND","ND","ND","ND","ND","1.4","136.6","32.4","34.6","485.2","0"],
    [37461,"2014-08-14T16:00:00","38","ND","ND","ND","ND","ND","0.7","140.8","33.1","30.5","410.5","0"],
    [37462,"2014-08-14T17:00:00","44","ND","ND","ND","ND","ND","1.4","15.9","33.1","31.8","272.6","0"],
    [37463,"2014-08-14T18:00:00","49","ND","ND","ND","ND","ND","1.4","277.6","32","37.1","91.4","0"],
    [37464,"2014-08-14T19:00:00","64","ND","ND","ND","ND","ND","1.3","256.2","29.5","43.8","0","0"],
    [37465,"2014-08-14T20:00:00","107","ND","ND","ND","ND","ND","0.6","277","28","48.3","0","0"],
    [37466,"2014-08-14T21:00:00","110","ND","ND","ND","ND","ND","0.2","126.6","27.2","51.2","0","0"],
    [37467,"2014-08-14T22:00:00","80","ND","ND","ND","ND","ND","0.1","144.8","26.3","56.9","0","0"],
    [37468,"2014-08-14T23:00:00","80","ND","ND","ND","ND","ND","0.3","108.8","25.4","62.5","0","0"],
    [37469,"2014-08-15T00:00:00","80","ND","ND","ND","ND","ND","0.3","175.3","24.7","65.8","0","0"],
    [37470,"2014-08-15T01:00:00","53","ND","ND","ND","ND","ND","0.2","108.9","24","68.8","0","0"],
    [37471,"2014-08-15T02:00:00","47","ND","ND","ND","ND","ND","0.5","260","23.2","70.9","0","0"],
    [37472,"2014-08-15T03:00:00","49","ND","ND","ND","ND","ND","0.1","316.3","22.6","73.4","0","0"],
    [37473,"2014-08-15T04:00:00","65","ND","ND","ND","ND","ND","0.2","305.7","22.1","75.5","0","0"],
    [37474,"2014-08-15T05:00:00","39","ND","ND","ND","ND","ND","0.2","309.2","21.7","76.4","0","0"],
    [37475,"2014-08-15T06:00:00","81","ND","ND","ND","ND","ND","0.2","20.5","21.3","78.6","0","0"],
    [37476,"2014-08-15T07:00:00","76","ND","ND","ND","ND","ND","0.3","284.8","21.3","76.6","44.2","0"],
    [37477,"2014-08-15T08:00:00","168","ND","ND","ND","ND","ND","0.7","63.7","23.6","68.2","199.5","0"],
    [37478,"2014-08-15T09:00:00","112","ND","ND","ND","ND","ND","1.5","130.1","25.1","60.2","391.8","0"],
    [37479,"2014-08-15T10:00:00","59","ND","ND","ND","ND","ND","1.2","82.2","26.8","55","578.5","0"],
    [37480,"2014-08-15T11:00:00","48","ND","ND","ND","ND","ND","0.5","152.4","28.2","51.1","704.3","0"],
    [37481,"2014-08-15T12:00:00","57","ND","ND","ND","ND","ND","1.4","142.7","30.2","44.4","784.4","0"],
    [37482,"2014-08-15T13:00:00","56","ND","ND","ND","ND","ND","1.3","137.2","32.1","36.8","767.1","0"],
    [37483,"2014-08-15T14:00:00","36","ND","ND","ND","ND","ND","1.9","182.6","33.3","30.8","730.4","0"],
    [37484,"2014-08-15T15:00:00","31","ND","ND","ND","ND","ND","0.3","211.3","34.5","28.7","640.8","0"],
    [37485,"2014-08-15T16:00:00","44","ND","ND","ND","ND","ND","3.1","270.9","33.3","36.6","440.2","0"],
    [37486,"2014-08-15T17:00:00","32","ND","ND","ND","ND","ND","3.1","255.5","32.5","37.9","228.1","0"],
    [37487,"2014-08-15T18:00:00","56","ND","ND","ND","ND","ND","2.7","254.7","30.6","40.9","36.6","0"],
    [37488,"2014-08-15T19:00:00","75","ND","ND","ND","ND","ND","0.4","145.8","29.7","44.1","0","0"],
    [37489,"2014-08-15T20:00:00","59","ND","ND","ND","ND","ND","0.2","178.1","28.8","48","0","0"],
    [37490,"2014-08-15T21:00:00","51","ND","ND","ND","ND","ND","0.5","332.1","28.4","49.4","0","0"],
    [37491,"2014-08-15T22:00:00","65","ND","ND","ND","ND","ND","1.6","104.2","27.7","53.9","0","0"],
    [37492,"2014-08-15T23:00:00","67","ND","ND","ND","ND","ND","0.7","94.5","25.4","65.4","0","0"],
    [37493,"2014-08-16T00:00:00","56","ND","ND","ND","ND","ND","0.7","145.7","24.8","68.4","0","0"],
    [37494,"2014-08-16T01:00:00","57","ND","ND","ND","ND","ND","0.3","276.6","24.3","69.2","0","0"],
    [37495,"2014-08-16T02:00:00","58","ND","ND","ND","ND","ND","0.4","213.8","24.2","70.5","0","0"],
    [37496,"2014-08-16T03:00:00","61","ND","ND","ND","ND","ND","0.2","265.5","24.3","70.5","0","0"],
    [37497,"2014-08-16T04:00:00","75","ND","ND","ND","ND","ND","0.9","357.3","23.3","75.4","0","0"],
    [37498,"2014-08-16T05:00:00","74","ND","ND","ND","ND","ND","0.6","2.4","22.5","79.2","0","0"],
    [37499,"2014-08-16T06:00:00","90","ND","ND","ND","ND","ND","0.6","17.6","22.4","79.1","0","0"],
    [37500,"2014-08-16T07:00:00","107","ND","ND","ND","ND","ND","0.5","309","22.6","78.3","32","0"],
    [37501,"2014-08-16T08:00:00","134","ND","ND","ND","ND","ND","0.5","34.6","23.7","73.4","127.8","0"],
    [37502,"2014-08-16T09:00:00","106","ND","ND","ND","ND","ND","0.9","82.5","25.2","66.3","388.3","0"],
    [37503,"2014-08-16T10:00:00","75","ND","ND","ND","ND","ND","1.1","97.5","26.8","58.9","486.1","0"],
    [37504,"2014-08-16T11:00:00","60","ND","ND","ND","ND","ND","1.4","96.9","27.6","55.8","417.4","0"],
    [37505,"2014-08-16T12:00:00","56","ND","ND","ND","ND","ND","1.2","121.7","28.5","51.9","519.8","0"],
    [37506,"2014-08-16T13:00:00","69","ND","ND","ND","ND","ND","1","100.8","30.4","45.1","757.6","0"],
    [37507,"2014-08-16T14:00:00","59","ND","ND","ND","ND","ND","1.6","133.9","31.8","39.5","591.2","0"],
    [37508,"2014-08-16T15:00:00","59","ND","ND","ND","ND","ND","0.8","151.5","32.8","34.6","458","0"],
    [37509,"2014-08-16T16:00:00","ND","ND","ND","ND","ND","ND","1.8","120.5","33.7","31","331.9","0"],
    [37510,"2014-08-16T17:00:00","ND","ND","ND","ND","ND","ND","1.5","338","31.9","39.4","126.8","0"],
    [37511,"2014-08-16T18:00:00","ND","ND","ND","ND","ND","ND","0.5","316.5","31.3","42.3","70.1","0"],
    [37512,"2014-08-16T19:00:00","ND","ND","ND","ND","ND","ND","2.2","247.4","29.1","48.7","0","0"],
    [37513,"2014-08-16T20:00:00","ND","ND","ND","ND","ND","ND","0.1","207","28.7","49.3","0","0"],
    [37514,"2014-08-16T21:00:00","ND","ND","ND","ND","ND","ND","0.2","99.6","28","52","0","0"],
    [37515,"2014-08-16T22:00:00","ND","ND","ND","ND","ND","ND","0.9","165","27.7","52.7","0","0"],
    [37516,"2014-08-16T23:00:00","ND","ND","ND","ND","ND","ND","0.9","7.5","25.5","65.1","0","0"],
    [37517,"2014-08-17T00:00:00","ND","ND","ND","ND","ND","ND","0.3","135.2","24.9","67.6","0","0"],
    [37518,"2014-08-17T01:00:00","ND","ND","ND","ND","ND","ND","0.2","289.3","24.6","68.6","0","0"],
    [37519,"2014-08-17T02:00:00","ND","ND","ND","ND","ND","ND","0.4","18.8","24","72.3","0","0"],
    [37520,"2014-08-17T03:00:00","ND","ND","ND","ND","ND","ND","0.6","244.3","24.2","69.8","0","0"],
    [37521,"2014-08-17T04:00:00","ND","ND","ND","ND","ND","ND","0.1","34.1","24.2","70.4","0","0"],
    [37522,"2014-08-17T05:00:00","ND","ND","ND","ND","ND","ND","0.9","138.9","24","72.2","0","0"],
    [37523,"2014-08-17T06:00:00","ND","ND","ND","ND","ND","ND","0.9","174","23.8","67.7","0","0"],
    [37524,"2014-08-17T07:00:00","ND","ND","ND","ND","ND","ND","0.2","198.4","23.7","69.3","52.5","0"],
    [37525,"2014-08-17T08:00:00","ND","ND","ND","ND","ND","ND","0.3","131","25.4","61.9","183.3","0"],
    [37526,"2014-08-17T09:00:00","ND","ND","ND","ND","ND","ND","0.9","127.4","26.8","55.3","351.5","0"],
    [37527,"2014-08-17T10:00:00","ND","ND","ND","ND","ND","ND","1.8","130.8","27.4","53","315.2","0"],
    [37528,"2014-08-17T11:00:00","65","ND","ND","ND","ND","ND","0.8","112.1","27.9","52.7","318.2","0"],
    [37529,"2014-08-17T12:00:00","70","ND","ND","ND","ND","ND","0.8","116.1","29","49.8","431.5","0"],
    [37530,"2014-08-17T13:00:00","74","ND","ND","ND","ND","ND","1.7","121.1","29.5","48.4","330.7","0"],
    [37531,"2014-08-17T14:00:00","62","ND","ND","ND","ND","ND","0.8","71","29.5","49","241.5","0"],
    [37532,"2014-08-17T15:00:00","64","ND","ND","ND","ND","ND","1","78.3","29.9","47.5","366.7","0"],
    [37533,"2014-08-17T16:00:00","55","ND","ND","ND","ND","ND","1.6","107.4","30","46.1","323.8","0"],
    [37534,"2014-08-17T17:00:00","52","ND","ND","ND","ND","ND","1","297.1","30.5","44.4","242.2","0"],
    [37535,"2014-08-17T18:00:00","41","ND","ND","ND","ND","ND","2","256.5","29.3","47.1","80.4","0"],
    [37536,"2014-08-17T19:00:00","39","ND","ND","ND","ND","ND","0.5","205.9","28.3","49.3","0","0"],
    [37537,"2014-08-17T20:00:00","30","ND","ND","ND","ND","ND","1.6","252.5","27.4","52","0","0"],
    [37538,"2014-08-17T21:00:00","40","ND","ND","ND","ND","ND","0.7","108.7","27","54","0","0"],
    [37539,"2014-08-17T22:00:00","44","ND","ND","ND","ND","ND","0.5","152.1","25.4","62.5","0","0"],
    [37540,"2014-08-17T23:00:00","63","ND","ND","ND","ND","ND","0.3","231.9","24.6","65.4","0","0"],
    [37541,"2014-08-18T00:00:00","39","ND","ND","ND","ND","ND","0.4","122","24.2","69","0","0"],
    [37542,"2014-08-18T01:00:00","38","ND","ND","ND","ND","ND","0.6","174.5","23.9","71","0","0"],
    [37543,"2014-08-18T02:00:00","30","ND","ND","ND","ND","ND","0.4","261.2","23.6","71.1","0","0"],
    [37544,"2014-08-18T03:00:00","48","ND","ND","ND","ND","ND","0.7","16.5","23.1","73.9","0","0"],
    [37545,"2014-08-18T04:00:00","61","ND","ND","ND","ND","ND","0.2","178","22.6","76.8","0","0"],
    [37546,"2014-08-18T05:00:00","40","ND","ND","ND","ND","ND","1","207.4","22.5","76.2","0","0"],
    [37547,"2014-08-18T06:00:00","41","ND","ND","ND","ND","ND","0.5","182.6","22.7","69.6","0","0"],
    [37548,"2014-08-18T07:00:00","48","ND","ND","ND","ND","ND","0.2","271.9","22.8","71.2","23.5","0"],
    [37549,"2014-08-18T08:00:00","56","ND","ND","ND","ND","ND","0.5","46.9","23.7","66.9","111.6","0"],
    [37550,"2014-08-18T09:00:00","68","ND","ND","ND","ND","ND","0.3","93.8","24.4","62.5","198.5","0"],
    [37551,"2014-08-18T10:00:00","63","ND","ND","ND","ND","ND","1.1","135.4","26.2","55.3","505.9","0"],
    [37552,"2014-08-18T11:00:00","50","ND","ND","ND","ND","ND","1.5","106.2","27.6","49.3","526.1","0"],
    [37553,"2014-08-18T12:00:00","59","ND","ND","ND","ND","ND","0.9","80.5","29.1","46.3","727.1","0"],
    [37554,"2014-08-18T13:00:00","53","ND","ND","ND","ND","ND","1.2","47.8","30","42.8","794.2","0"],
    [37555,"2014-08-18T14:00:00","48","ND","ND","ND","ND","ND","1.3","99.9","31.4","38.5","657.6","0"],
    [37556,"2014-08-18T15:00:00","44","ND","ND","ND","ND","ND","2.1","103","31.7","36.8","454.1","0"],
    [37557,"2014-08-18T16:00:00","ND","ND","ND","ND","ND","ND","ND","ND","ND","ND","ND","ND"],
    [37558,"2014-08-18T17:00:00","31","ND","ND","ND","ND","ND","1.4","299.8","30.4","45.2","186.5","0"],
    [37559,"2014-08-18T18:00:00","ND","ND","ND","ND","ND","ND","ND","ND","ND","ND","ND","ND"],
    [37560,"2014-08-18T19:00:00","ND","ND","ND","ND","ND","ND","ND","ND","ND","ND","ND","ND"],
    [37561,"2014-08-18T20:00:00","ND","ND","ND","ND","ND","ND","ND","ND","ND","ND","ND","ND"],
    [37562,"2014-08-18T21:00:00","ND","ND","ND","ND","ND","ND","ND","ND","ND","ND","ND","ND"],
    [37563,"2014-08-18T22:00:00","ND","ND","ND","ND","ND","ND","ND","ND","ND","ND","ND","ND"],
    [37564,"2014-08-18T23:00:00","ND","ND","ND","ND","ND","ND","ND","ND","ND","ND","ND","ND"],
    [37565,"2014-08-19T00:00:00","ND","ND","ND","ND","ND","ND","ND","ND","ND","ND","ND","ND"],
    [37566,"2014-08-19T01:00:00","ND","ND","ND","ND","ND","ND","ND","ND","ND","ND","ND","ND"],
    [37567,"2014-08-19T02:00:00","ND","ND","ND","ND","ND","ND","ND","ND","ND","ND","ND","ND"],
    [37568,"2014-08-19T03:00:00","ND","ND","ND","ND","ND","ND","ND","ND","ND","ND","ND","ND"],
    [37569,"2014-08-19T04:00:00","ND","ND","ND","ND","ND","ND","ND","ND","ND","ND","ND","ND"],
    [37570,"2014-08-19T05:00:00","ND","ND","ND","ND","ND","ND","ND","ND","ND","ND","ND","ND"],
    [37571,"2014-08-19T06:00:00","ND","ND","ND","ND","ND","ND","ND","ND","ND","ND","ND","ND"],
    [37572,"2014-08-19T07:00:00","ND","ND","ND","ND","ND","ND","ND","ND","ND","ND","ND","ND"],
    [37573,"2014-08-19T08:00:00","ND","ND","ND","ND","ND","ND","ND","ND","ND","ND","ND","ND"],
    [37574,"2014-08-19T09:00:00","ND","ND","ND","ND","ND","ND","ND","ND","ND","ND","ND","ND"],
    [37575,"2014-08-19T10:00:00","ND","ND","ND","ND","ND","ND","ND","ND","ND","ND","ND","ND"],
    [37576,"2014-08-19T11:00:00","ND","ND","ND","ND","ND","ND","ND","ND","ND","ND","ND","ND"],
    [37577,"2014-08-19T12:00:00","ND","ND","ND","ND","ND","ND","ND","ND","ND","ND","ND","ND"],
    [37578,"2014-08-19T13:00:00","ND","ND","ND","ND","ND","ND","ND","ND","ND","ND","ND","ND"],
    [37579,"2014-08-19T14:00:00","ND","ND","ND","ND","ND","ND","ND","ND","ND","ND","ND","ND"],
    [37580,"2014-08-19T15:00:00","22","ND","ND","ND","ND","ND","1.8","120.3","33.4","23.8","563.8","0"],
    [37581,"2014-08-19T16:00:00","34","ND","ND","ND","ND","ND","1.2","153.5","33","24.4","178.5","0"],
    [37582,"2014-08-19T17:00:00","53","ND","ND","ND","ND","ND","1.5","207.7","31.9","28.4","70.3","0"],
    [37583,"2014-08-19T18:00:00","35","ND","ND","ND","ND","ND","2.3","259.2","29.9","38.9","40.8","0"],
    [37584,"2014-08-19T19:00:00","37","ND","ND","ND","ND","ND","2.7","251.1","28.4","43","0","0"],
    [37585,"2014-08-19T20:00:00","29","ND","ND","ND","ND","ND","0.3","226.3","27.8","45.1","0","0"],
    [37586,"2014-08-19T21:00:00","61","ND","ND","ND","ND","ND","1","95.4","26.8","50.2","0","0"],
    [37587,"2014-08-19T22:00:00","116","ND","ND","ND","ND","ND","0.7","113.9","26.4","53.1","0","0"],
    [37588,"2014-08-19T23:00:00","45","ND","ND","ND","ND","ND","0.3","117.1","25.6","57.9","0","0"],
    [37589,"2014-08-20T00:00:00","59","ND","ND","ND","ND","ND","0.6","162","24.7","63.3","0","0"],
    [37590,"2014-08-20T01:00:00","50","ND","ND","ND","ND","ND","0.3","173.7","23.6","68.8","0","0"],
    [37591,"2014-08-20T02:00:00","36","ND","ND","ND","ND","ND","0.5","213.4","23","68.2","0","0"],
    [37592,"2014-08-20T03:00:00","36","ND","ND","ND","ND","ND","0.3","178.8","23.4","58.5","0","0"],
    [37593,"2014-08-20T04:00:00","95","ND","ND","ND","ND","ND","0.6","29.3","22.6","64.5","0","0"],
    [37594,"2014-08-20T05:00:00","100","ND","ND","ND","ND","ND","0.6","273.4","21.4","73.7","0","0"],
    [37595,"2014-08-20T06:00:00","64","ND","ND","ND","ND","ND","0.2","3.3","21.1","70.9","0","0"],
    [37596,"2014-08-20T07:00:00","96","ND","ND","ND","ND","ND","0.3","271.3","21.1","71.4","36","0"],
    [37597,"2014-08-20T08:00:00","117","ND","ND","ND","ND","ND","0.4","127.7","23.1","63.3","208.5","0"],
    [37598,"2014-08-20T09:00:00","144","ND","ND","ND","ND","ND","1.6","96.3","24.9","53.1","402.3","0"],
    [37599,"2014-08-20T10:00:00","52","ND","ND","ND","ND","ND","1.4","112.5","26.8","40.6","591.4","0"],
    [37600,"2014-08-20T11:00:00","53","ND","ND","ND","ND","ND","1.2","98.1","28.2","38.7","719.4","0"],
    [37601,"2014-08-20T12:00:00","43","ND","ND","ND","ND","ND","1","99.7","29.6","35.2","811.6","0"],
    [37602,"2014-08-20T13:00:00","45","ND","ND","ND","ND","ND","1.8","106.2","31.2","31.7","817.8","0"],
    [37603,"2014-08-20T14:00:00","38","ND","ND","ND","ND","ND","1.7","40.1","31.6","31.4","535.6","0"],
    [37604,"2014-08-20T15:00:00","61","ND","ND","ND","ND","ND","1.2","47","32.2","31.3","551.1","0"],
    [37605,"2014-08-20T16:00:00","46","ND","ND","ND","ND","ND","1.1","14.8","32.1","34.6","368.5","0"],
    [37606,"2014-08-20T17:00:00","39","ND","ND","ND","ND","ND","1.4","267.1","31.1","40","181.3","0"],
    [37607,"2014-08-20T18:00:00","46","ND","ND","ND","ND","ND","2.9","252","28.8","46.5","16.4","0.25"],
    [37608,"2014-08-20T19:00:00","40","ND","ND","ND","ND","ND","1.1","260.7","28.6","45.4","1.4","0"],
    [37609,"2014-08-20T20:00:00","74","ND","ND","ND","ND","ND","0.6","102.4","27.7","46.9","0","0"],
    [37610,"2014-08-20T21:00:00","49","ND","ND","ND","ND","ND","1","158.2","27.3","47.4","0","0"],
    [37611,"2014-08-20T22:00:00","58","ND","ND","ND","ND","ND","0.7","97.7","25.8","58.9","0","0"],
    [37612,"2014-08-20T23:00:00","57","ND","ND","ND","ND","ND","0.5","117.6","25.4","61.9","0","0"],
    [37613,"2014-08-21T00:00:00","39","ND","ND","ND","ND","ND","0.3","153.2","24.8","63.5","0","0"],
    [37614,"2014-08-21T01:00:00","37","ND","ND","ND","ND","ND","0.2","136.1","24.5","64.3","0","0"],
    [37615,"2014-08-21T02:00:00","33","ND","ND","ND","ND","ND","0.5","106.1","24","67.3","0","0"],
    [37616,"2014-08-21T03:00:00","46","ND","ND","ND","ND","ND","0.2","267.3","23.5","68.4","0","0"],
    [37617,"2014-08-21T04:00:00","79","ND","ND","ND","ND","ND","0.7","2.1","22.8","71.9","0","0"],
    [37618,"2014-08-21T05:00:00","63","ND","ND","ND","ND","ND","0.4","116.8","22.6","72.9","0","0"],
    [37619,"2014-08-21T06:00:00","76","ND","ND","ND","ND","ND","0.4","153.6","22","70.7","0.4","0"],
    [37620,"2014-08-21T07:00:00","132","ND","ND","ND","ND","ND","0.8","24.4","21.7","73.6","46.9","0"],
    [37621,"2014-08-21T08:00:00","150","ND","ND","ND","ND","ND","1.3","49.1","22.7","65.6","213.4","0"],
    [37622,"2014-08-21T09:00:00","105","ND","ND","ND","ND","ND","1","66.7","24.7","55.9","390.4","0"],
    [37623,"2014-08-21T10:00:00","63","ND","ND","ND","ND","ND","1.7","126.5","26.4","44.4","589.9","0"],
    [37624,"2014-08-21T11:00:00","41","ND","ND","ND","ND","ND","2.1","150.2","28.1","37.9","751.8","0"],
    [37625,"2014-08-21T12:00:00","43","ND","ND","ND","ND","ND","1.7","124.9","29.8","34.6","755.3","0"],
    [37626,"2014-08-21T13:00:00","38","ND","ND","ND","ND","ND","1.8","91.4","30.7","31.4","659.9","0"],
    [37627,"2014-08-21T14:00:00","58","ND","ND","ND","ND","ND","2.2","58","30.8","36.5","590.1","0"],
    [37628,"2014-08-21T15:00:00","87","ND","ND","ND","ND","ND","2.9","15","30.1","44.2","304.3","0"],
    [37629,"2014-08-21T16:00:00","45","ND","ND","ND","ND","ND","1.3","338.2","30.4","43.6","270.2","0"],
    [37630,"2014-08-21T17:00:00","32","ND","ND","ND","ND","ND","3","256.4","30.4","43.3","303.2","0"],
    [37631,"2014-08-21T18:00:00","44","ND","ND","ND","ND","ND","2.3","265.4","28.9","45.3","47.2","0"],
    [37632,"2014-08-21T19:00:00","51","ND","ND","ND","ND","ND","2.3","269.5","28.2","46.2","0","0"],
    [37633,"2014-08-21T20:00:00","56","ND","ND","ND","ND","ND","0.1","173.3","27.8","48.1","0","0"],
    [37634,"2014-08-21T21:00:00","42","ND","ND","ND","ND","ND","1","100.1","26.5","54.3","0","0"],
    [37635,"2014-08-21T22:00:00","51","ND","ND","ND","ND","ND","0.5","106.6","25.7","58.7","0","0"],
    [37636,"2014-08-21T23:00:00","41","ND","ND","ND","ND","ND","0.9","115.7","25","61.2","0","0"],
    [37637,"2014-08-22T00:00:00","48","ND","ND","ND","ND","ND","0.8","147","24.4","64.1","0","0"],
    [37638,"2014-08-22T01:00:00","38","ND","ND","ND","ND","ND","0.6","109.4","23.4","68.5","0","0"],
    [37639,"2014-08-22T02:00:00","49","ND","ND","ND","ND","ND","1.3","159.8","23.1","70.6","0","0"],
    [37640,"2014-08-22T03:00:00","60","ND","ND","ND","ND","ND","0.6","170.4","22.8","71.5","0","0"],
    [37641,"2014-08-22T04:00:00","59","ND","ND","ND","ND","ND","0.6","271.1","22.3","72.5","0","0"],
    [37642,"2014-08-22T05:00:00","66","ND","ND","ND","ND","ND","0.4","166.1","22.5","71.2","0","0"],
    [37643,"2014-08-22T06:00:00","109","ND","ND","ND","ND","ND","0.7","18.8","21.9","73.9","0","0"],
    [37644,"2014-08-22T07:00:00","115","ND","ND","ND","ND","ND","1.1","26.1","20.8","80.2","42.4","0"],
    [37645,"2014-08-22T08:00:00","136","ND","ND","ND","ND","ND","0.6","56.4","22","75.3","194.1","0"],
    [37646,"2014-08-22T09:00:00","155","ND","ND","ND","ND","ND","0.6","131.7","23.7","67.8","211.4","0"],
    [37647,"2014-08-22T10:00:00","145","ND","ND","ND","ND","ND","1","106","25.2","62.5","385.9","0"],
    [37648,"2014-08-22T11:00:00","108","ND","ND","ND","ND","ND","1","102.2","26.7","57","659.8","0"],
    [37649,"2014-08-22T12:00:00","102","ND","ND","ND","ND","ND","0.5","60.9","28.8","50.2","654.9","0"],
    [37650,"2014-08-22T13:00:00","85","ND","ND","ND","ND","ND","0.4","86.7","29.7","47.4","445.2","0"],
    [37651,"2014-08-22T14:00:00","52","ND","ND","ND","ND","ND","2","268.9","29.4","45.5","250","0"],
    [37652,"2014-08-22T15:00:00","52","ND","ND","ND","ND","ND","4","264.7","29.3","45.2","337.2","0"],
    [37653,"2014-08-22T16:00:00","35","ND","ND","ND","ND","ND","3.2","254.9","29.4","44.7","268.1","0"],
    [37654,"2014-08-22T17:00:00","33","ND","ND","ND","ND","ND","3.2","253","29.3","45.2","252.2","0"],
    [37655,"2014-08-22T18:00:00","39","ND","ND","ND","ND","ND","2.9","259.1","28.4","47.3","96.6","0"],
    [37656,"2014-08-22T19:00:00","34","ND","ND","ND","ND","ND","1.5","279.8","27.6","48.6","0","0"],
    [37657,"2014-08-22T20:00:00","49","ND","ND","ND","ND","ND","0.6","98.5","27.3","50.1","0","0"],
    [37658,"2014-08-22T21:00:00","52","ND","ND","ND","ND","ND","0.9","89.6","26.6","53.5","0","0"],
    [37659,"2014-08-22T22:00:00","52","ND","ND","ND","ND","ND","0.8","121.2","26.2","55.5","0","0"],
    [37660,"2014-08-22T23:00:00","42","ND","ND","ND","ND","ND","1.2","107","25.8","57.4","0","0"],
    [37661,"2014-08-23T00:00:00","41","ND","ND","ND","ND","ND","1.7","136.3","24.9","61.4","0","0"],
    [37662,"2014-08-23T01:00:00","59","ND","ND","ND","ND","ND","1","96","24.1","65.4","0","0"],
    [37663,"2014-08-23T02:00:00","36","ND","ND","ND","ND","ND","0.4","327.1","23.9","66.7","0","0"],
    [37664,"2014-08-23T03:00:00","45","ND","ND","ND","ND","ND","0.8","122.2","23.9","67.2","0","0"],
    [37665,"2014-08-23T04:00:00","46","ND","ND","ND","ND","ND","1","102.2","23.6","68.5","0","0"],
    [37666,"2014-08-23T05:00:00","34","ND","ND","ND","ND","ND","0.2","261.2","21.3","85.6","0","8.13"],
    [37667,"2014-08-23T06:00:00","40","ND","ND","ND","ND","ND","0.3","227.5","21.5","87.2","0","0"],
    [37668,"2014-08-23T07:00:00","40","ND","ND","ND","ND","ND","0.2","15.1","21.7","86.7","13.9","0"],
    [37669,"2014-08-23T08:00:00","77","ND","ND","ND","ND","ND","0.6","33.3","21.9","85.2","72.3","0"],
    [37670,"2014-08-23T09:00:00","78","ND","ND","ND","ND","ND","0.4","23.5","23","79.5","108.3","0"],
    [37671,"2014-08-23T10:00:00","93","ND","ND","ND","ND","ND","1","27.2","24.3","72.1","502.4","0"],
    [37672,"2014-08-23T11:00:00","51","ND","ND","ND","ND","ND","0.8","53.5","26.6","60","709.3","0"],
    [37673,"2014-08-23T12:00:00","39","ND","ND","ND","ND","ND","0.9","108.4","28","52.4","660.6","0"],
    [37674,"2014-08-23T13:00:00","51","ND","ND","ND","ND","ND","0.4","85","29","50.1","425.2","0"],
    [37675,"2014-08-23T14:00:00","76","ND","ND","ND","ND","ND","1.7","54.7","29.4","49.5","468.5","0"],
    [37676,"2014-08-23T15:00:00","50","ND","ND","ND","ND","ND","1.5","33.5","29.6","48.7","405.5","0"],
    [37677,"2014-08-23T16:00:00","21","ND","ND","ND","ND","ND","2.5","253","29.6","46.2","310.8","0"],
    [37678,"2014-08-23T17:00:00","25","ND","ND","ND","ND","ND","3.4","255.6","29.5","46.5","291.3","0"],
    [37679,"2014-08-23T18:00:00","22","ND","ND","ND","ND","ND","1.5","266.2","28.3","47.9","48.8","0"],
    [37680,"2014-08-23T19:00:00","28","ND","ND","ND","ND","ND","1.1","237.9","26.9","51.5","0","0"],
    [37681,"2014-08-23T20:00:00","31","ND","ND","ND","ND","ND","0.8","82.7","26.6","52.2","0","0"],
    [37682,"2014-08-23T21:00:00","47","ND","ND","ND","ND","ND","1.1","102.8","26","56.5","0","0"],
    [37683,"2014-08-23T22:00:00","49","ND","ND","ND","ND","ND","0.8","157.8","24.8","62.7","0","0"],
    [37684,"2014-08-23T23:00:00","39","ND","ND","ND","ND","ND","0.5","165.4","24.1","65.7","0","0"],
    [37685,"2014-08-24T00:00:00","51","ND","ND","ND","ND","ND","0.1","335.5","24","66.4","0","0"],
    [37686,"2014-08-24T01:00:00","59","ND","ND","ND","ND","ND","0.9","131","24.1","66.2","0","0"],
    [37687,"2014-08-24T02:00:00","58","ND","ND","ND","ND","ND","0.7","143.3","23.7","67.8","0","0"],
    [37688,"2014-08-24T03:00:00","54","ND","ND","ND","ND","ND","1.4","148.9","23.2","69.9","0","0"],
    [37689,"2014-08-24T04:00:00","46","ND","ND","ND","ND","ND","0.8","143.4","22.9","71.1","0","0"],
    [37690,"2014-08-24T05:00:00","48","ND","ND","ND","ND","ND","0.5","178.3","22.7","72.4","0","0"],
    [37691,"2014-08-24T06:00:00","42","ND","ND","ND","ND","ND","0.5","182.4","22.4","73.6","0","0"],
    [37692,"2014-08-24T07:00:00","52","ND","ND","ND","ND","ND","0.5","199.9","22.6","72.9","30.7","0"],
    [37693,"2014-08-24T08:00:00","57","ND","ND","ND","ND","ND","0.4","113.5","23.8","68.4","154.6","0"],
    [37694,"2014-08-24T09:00:00","60","ND","ND","ND","ND","ND","0.8","130.6","25.5","61.5","406.7","0"],
    [37695,"2014-08-24T10:00:00","56","ND","ND","ND","ND","ND","0.8","86.1","26.9","56.1","585.8","0"],
    [37696,"2014-08-24T11:00:00","52","ND","ND","ND","ND","ND","1.2","77.2","28","52.8","723.5","0"],
    [37697,"2014-08-24T12:00:00","50","ND","ND","ND","ND","ND","1.1","53.5","29.2","49","662.7","0"],
    [37698,"2014-08-24T13:00:00","50","ND","ND","ND","ND","ND","1.1","54.9","30.7","45.3","613.5","0"],
    [37699,"2014-08-24T14:00:00","44","ND","ND","ND","ND","ND","1.1","7.5","31.3","43.5","550.5","0"],
    [37700,"2014-08-24T15:00:00","24","ND","ND","ND","ND","ND","2.5","265.6","31.1","43.7","517","0"],
    [37701,"2014-08-24T16:00:00","20","ND","ND","ND","ND","ND","3.7","257.5","31.1","43.3","466.4","0"],
    [37702,"2014-08-24T17:00:00","29","ND","ND","ND","ND","ND","3.7","272","29.8","45.7","188.8","0"],
    [37703,"2014-08-24T18:00:00","28","ND","ND","ND","ND","ND","1.7","283.6","29","46.8","74.7","0"],
    [37704,"2014-08-24T19:00:00","47","ND","ND","ND","ND","ND","1.9","263.3","28","48.4","0","0"],
    [37705,"2014-08-24T20:00:00","30","ND","ND","ND","ND","ND","0.5","116.7","27.5","51.2","0","0"],
    [37706,"2014-08-24T21:00:00","44","ND","ND","ND","ND","ND","0.9","106.4","27","54","0","0"],
    [37707,"2014-08-24T22:00:00","46","ND","ND","ND","ND","ND","0.9","117.5","25.3","62.4","0","0"],
    [37708,"2014-08-24T23:00:00","43","ND","ND","ND","ND","ND","0.5","148.3","24.5","66.5","0","0"],
    [37709,"2014-08-25T00:00:00","48","ND","ND","ND","ND","ND","0.6","197.2","24.1","68.6","0","0"],
    [37710,"2014-08-25T01:00:00","36","ND","ND","ND","ND","ND","0.4","58.3","23.6","69.8","0","0"],
    [37711,"2014-08-25T02:00:00","41","ND","ND","ND","ND","ND","0.3","63.1","23.1","73.4","0","0"],
    [37712,"2014-08-25T03:00:00","72","ND","ND","ND","ND","ND","0.8","17.6","22.6","75.8","0","0"],
    [37713,"2014-08-25T04:00:00","60","ND","ND","ND","ND","ND","0.4","50.8","22.2","78.1","0","0"],
    [37714,"2014-08-25T05:00:00","68","ND","ND","ND","ND","ND","0.6","358.2","22.2","77.8","0","0"],
    [37715,"2014-08-25T06:00:00","66","ND","ND","ND","ND","ND","0.2","292.7","22.2","77.2","0","0"],
    [37716,"2014-08-25T07:00:00","72","ND","ND","ND","ND","ND","0.3","230.7","22.6","75.4","14.8","0"],
    [37717,"2014-08-25T08:00:00","95","ND","ND","ND","ND","ND","0.5","96.1","23.2","73.5","29.1","0"],
    [37718,"2014-08-25T09:00:00","67","ND","ND","ND","ND","ND","0.9","175.1","21.8","83.7","24.9","24.89"],
    [37719,"2014-08-25T10:00:00","40","ND","ND","ND","ND","ND","0.9","206.6","21.7","92.1","136.2","0.51"],
    [37720,"2014-08-25T11:00:00","83","ND","ND","ND","ND","ND","0.9","339.7","23.6","81.8","246.8","0"],
    [37721,"2014-08-25T12:00:00","83","ND","ND","ND","ND","ND","1.1","110.6","25.2","72.5","441.2","0"],
    [37722,"2014-08-25T13:00:00","77","ND","ND","ND","ND","ND","2","114.4","27.4","61.2","615.9","0"],
    [37723,"2014-08-25T14:00:00","44","ND","ND","ND","ND","ND","1","249.8","27.1","58","217.9","0"],
    [37724,"2014-08-25T15:00:00","22","ND","ND","ND","ND","ND","3.5","251","27.3","53.1","438.6","0"],
    [37725,"2014-08-25T16:00:00","23","ND","ND","ND","ND","ND","1.8","236.9","28.4","49.3","340.4","0"],
    [37726,"2014-08-25T17:00:00","38","ND","ND","ND","ND","ND","0.7","345.7","27.4","50.5","65.6","0"],
    [37727,"2014-08-25T18:00:00","29","ND","ND","ND","ND","ND","0.9","85.6","26.8","52.4","25.6","0"],
    [37728,"2014-08-25T19:00:00","49","ND","ND","ND","ND","ND","1.4","27.1","24.4","68","0","0"],
    [37729,"2014-08-25T20:00:00","44","ND","ND","ND","ND","ND","0.5","60.2","23.5","74.5","0","0"],
    [37730,"2014-08-25T21:00:00","39","ND","ND","ND","ND","ND","1.3","208.7","24.1","68.8","0","0"],
    [37731,"2014-08-25T22:00:00","61","ND","ND","ND","ND","ND","0.5","118.8","23.8","72","0","0"],
    [37732,"2014-08-25T23:00:00","61","ND","ND","ND","ND","ND","0.7","20","22.4","81.8","0","0"],
    [37733,"2014-08-26T00:00:00","46","ND","ND","ND","ND","ND","0.3","116.6","22.2","83.5","0","0"],
    [37734,"2014-08-26T01:00:00","57","ND","ND","ND","ND","ND","0.5","20.1","21.9","85.2","0","0"],
    [37735,"2014-08-26T02:00:00","64","ND","ND","ND","ND","ND","0.3","353.3","21.6","85.8","0","0"],
    [37736,"2014-08-26T03:00:00","49","ND","ND","ND","ND","ND","0.6","52.5","21.4","86.6","0","0"],
    [37737,"2014-08-26T04:00:00","101","ND","ND","ND","ND","ND","0.6","47.8","20.8","91.2","0","0"],
    [37738,"2014-08-26T05:00:00","42","ND","ND","ND","ND","ND","0.2","125.5","20.8","90.2","0","0"],
    [37739,"2014-08-26T06:00:00","48","ND","ND","ND","ND","ND","0.2","23.3","20.7","90","0","0"],
    [37740,"2014-08-26T07:00:00","66","ND","ND","ND","ND","ND","0.3","358.2","20.8","89.8","14.7","0"],
    [37741,"2014-08-26T08:00:00","90","ND","ND","ND","ND","ND","0.3","21.8","21.4","86.6","56.6","0"],
    [37742,"2014-08-26T09:00:00","120","ND","ND","ND","ND","ND","0.8","42.9","22.5","81.8","259","0"],
    [37743,"2014-08-26T10:00:00","98","ND","ND","ND","ND","ND","0.8","106.4","25","69.7","510.3","0"],
    [37744,"2014-08-26T11:00:00","74","ND","ND","ND","ND","ND","1.1","115.1","27","60.8","699.7","0"],
    [37745,"2014-08-26T12:00:00","68","ND","ND","ND","ND","ND","0.9","97.6","27.8","56.4","558.2","0"],
    [37746,"2014-08-26T13:00:00","73","ND","ND","ND","ND","ND","0.7","171.7","28.2","54.4","232.1","0"],
    [37747,"2014-08-26T14:00:00","34","ND","ND","ND","ND","ND","3.4","259.1","28","52","345.2","0"],
    [37748,"2014-08-26T15:00:00","45","ND","ND","ND","ND","ND","2.3","244.8","29.4","47.4","527.5","0"],
    [37749,"2014-08-26T16:00:00","31","ND","ND","ND","ND","ND","2.3","268.1","29.1","47.6","284.6","0"],
    [37750,"2014-08-26T17:00:00","30","ND","ND","ND","ND","ND","3","262.3","27.9","49.6","170.4","0"],
    [37751,"2014-08-26T18:00:00","27","ND","ND","ND","ND","ND","2.6","261.6","27.2","50.9","62.5","0"],
    [37752,"2014-08-26T19:00:00","19","ND","ND","ND","ND","ND","2.8","282.7","26.5","51.9","0","0"],
    [37753,"2014-08-26T20:00:00","21","ND","ND","ND","ND","ND","0.4","347","26.1","54.5","0","0"],
    [37754,"2014-08-26T21:00:00","27","ND","ND","ND","ND","ND","0.2","333.3","26","55.1","0","0"],
    [37755,"2014-08-26T22:00:00","47","ND","ND","ND","ND","ND","1.2","21.2","23.8","69.7","0","1.02"],
    [37756,"2014-08-26T23:00:00","29","ND","ND","ND","ND","ND","0.5","133.9","21.3","87.7","0","1.02"],
    [37757,"2014-08-27T00:00:00","36","ND","ND","ND","ND","ND","0.5","19.9","21.1","90.3","0","0.51"],
    [37758,"2014-08-27T01:00:00","35","ND","ND","ND","ND","ND","0.8","126.8","21.3","90.3","0","0.25"],
    [37759,"2014-08-27T02:00:00","34","ND","ND","ND","ND","ND","0.9","166","21.2","91","0","0"],
    [37760,"2014-08-27T03:00:00","33","ND","ND","ND","ND","ND","0.7","181.9","21.1","91.3","0","0"],
    [37761,"2014-08-27T04:00:00","38","ND","ND","ND","ND","ND","0.4","104.7","21.3","91","0","0"],
    [37762,"2014-08-27T05:00:00","28","ND","ND","ND","ND","ND","0.3","36","21","90.5","0","0"],
    [37763,"2014-08-27T06:00:00","48","ND","ND","ND","ND","ND","0.3","30.7","20.7","93.5","0","0"],
    [37764,"2014-08-27T07:00:00","59","ND","ND","ND","ND","ND","0.6","1.9","20.8","93.1","9.1","0"],
    [37765,"2014-08-27T08:00:00","59","ND","ND","ND","ND","ND","0.9","55.6","20.9","92.8","34.9","0"],
    [37766,"2014-08-27T09:00:00","53","ND","ND","ND","ND","ND","0.4","96.8","21.5","88.2","48.3","0"],
    [37767,"2014-08-27T10:00:00","43","ND","ND","ND","ND","ND","0.2","202.7","22.3","82.9","165.9","0"],
    [37768,"2014-08-27T11:00:00","66","ND","ND","ND","ND","ND","1","164.5","23.9","74.6","483.2","0"],
    [37769,"2014-08-27T12:00:00","59","ND","ND","ND","ND","ND","0.9","136.9","25.3","66.8","375.1","0"],
    [37770,"2014-08-27T13:00:00","61","ND","ND","ND","ND","ND","0.4","123.3","26.1","62.7","397.4","0"],
    [37771,"2014-08-27T14:00:00","63","ND","ND","ND","ND","ND","0.5","115","27.3","57.5","459.5","0"],
    [37772,"2014-08-27T15:00:00","53","ND","ND","ND","ND","ND","1.3","81.8","27.6","56.5","325.9","0"],
    [37773,"2014-08-27T16:00:00","53","ND","ND","ND","ND","ND","0.5","21.9","28","55.1","326.4","0"],
    [37774,"2014-08-27T17:00:00","50","ND","ND","ND","ND","ND","0.4","340.6","27.6","55.2","116.7","0"],
    [37775,"2014-08-27T18:00:00","22","ND","ND","ND","ND","ND","1.7","263.8","26.7","55.2","38.7","0"],
    [37776,"2014-08-27T19:00:00","27","ND","ND","ND","ND","ND","0.5","238.9","26","56.2","0","0"],
    [37777,"2014-08-27T20:00:00","45","ND","ND","ND","ND","ND","0.4","201.5","25.3","57.9","0","0"],
    [37778,"2014-08-27T21:00:00","53","ND","ND","ND","ND","ND","0","60.5","24.8","59.8","0","0"],
    [37779,"2014-08-27T22:00:00","44","ND","ND","ND","ND","ND","1.3","188.8","24.2","60.4","0","0"],
    [37780,"2014-08-27T23:00:00","81","ND","ND","ND","ND","ND","0.1","241.7","23.6","63.2","0","0"],
    [37781,"2014-08-28T00:00:00","56","ND","ND","ND","ND","ND","0.6","80.1","23.3","66","0","0"],
    [37782,"2014-08-28T01:00:00","38","ND","ND","ND","ND","ND","0.4","146","22","74.4","0","0"],
    [37783,"2014-08-28T02:00:00","27","ND","ND","ND","ND","ND","0.8","166.5","21.9","75.5","0","0"],
    [37784,"2014-08-28T03:00:00","34","ND","ND","ND","ND","ND","0.2","176.6","21.9","76.5","0","0"],
    [37785,"2014-08-28T04:00:00","68","ND","ND","ND","ND","ND","0.2","275.2","21.8","77.1","0","0"],
    [37786,"2014-08-28T05:00:00","41","ND","ND","ND","ND","ND","0.1","332.4","21.5","77.2","0","0"],
    [37787,"2014-08-28T06:00:00","36","ND","ND","ND","ND","ND","0.3","254.7","21.5","79.4","0","0"],
    [37788,"2014-08-28T07:00:00","55","ND","ND","ND","ND","ND","0.2","39.5","21.9","78","21.7","0"],
    [37789,"2014-08-28T08:00:00","96","ND","ND","ND","ND","ND","1.1","63","22.5","76.2","128.2","0"],
    [37790,"2014-08-28T09:00:00","72","ND","ND","ND","ND","ND","0.6","86.2","23.5","73.6","311.6","0"],
    [37791,"2014-08-28T10:00:00","86","ND","ND","ND","ND","ND","0.9","88.6","25.1","65","465.4","0"],
    [37792,"2014-08-28T11:00:00","57","ND","ND","ND","ND","ND","0.8","103.2","26.5","58.1","543.1","0"],
    [37793,"2014-08-28T12:00:00","49","ND","ND","ND","ND","ND","0.3","89.4","27.4","54.8","595.7","0"],
    [37794,"2014-08-28T13:00:00","57","ND","ND","ND","ND","ND","1","253.2","28.8","49.9","658.5","0"],
    [37795,"2014-08-28T14:00:00","58","ND","ND","ND","ND","ND","1.1","101.7","29.2","48.7","386.8","0"],
    [37796,"2014-08-28T15:00:00","35","ND","ND","ND","ND","ND","0.7","267.9","29.1","48.2","189","0"],
    [37797,"2014-08-28T16:00:00","25","ND","ND","ND","ND","ND","3.4","253.4","28.8","49.3","359.9","0"],
    [37798,"2014-08-28T17:00:00","ND","ND","ND","ND","ND","ND","4.2","258.8","25.4","63.3","29","17.02"],
    [37799,"2014-08-28T18:00:00","74","ND","ND","ND","ND","ND","1.4","332.3","20.9","90.6","13.9","18.29"],
    [37800,"2014-08-28T19:00:00","52","ND","ND","ND","ND","ND","0.5","56.6","22.2","86.8","0","0"],
    [37801,"2014-08-28T20:00:00","51","ND","ND","ND","ND","ND","0.4","15.6","22.2","83.9","0","0.25"],
    [37802,"2014-08-28T21:00:00","66","ND","ND","ND","ND","ND","0.3","288.5","21.9","86.8","0","0"],
    [37803,"2014-08-28T22:00:00","86","ND","ND","ND","ND","ND","0.3","308.6","21.6","88.9","0","0.25"],
    [37804,"2014-08-28T23:00:00","72","ND","ND","ND","ND","ND","0.5","257.3","21.3","90.9","0","0"],
    [37805,"2014-08-29T00:00:00","54","ND","ND","ND","ND","ND","0.5","227.2","21.5","86.4","0","0"],
    [37806,"2014-08-29T01:00:00","41","ND","ND","ND","ND","ND","0.3","328.9","21.3","83.4","0","0"],
    [37807,"2014-08-29T02:00:00","72","ND","ND","ND","ND","ND","0.2","15.3","20.8","87.9","0","0"],
    [37808,"2014-08-29T03:00:00","39","ND","ND","ND","ND","ND","0.1","234.7","20.1","89.3","0","0"],
    [37809,"2014-08-29T04:00:00","63","ND","ND","ND","ND","ND","0.3","355.4","19.6","90.3","0","0"],
    [37810,"2014-08-29T05:00:00","66","ND","ND","ND","ND","ND","0.3","30.1","19.5","90.9","0","0"],
    [37811,"2014-08-29T06:00:00","90","ND","ND","ND","ND","ND","0.6","22.9","19.4","93.6","0","0"],
    [37812,"2014-08-29T07:00:00","96","ND","ND","ND","ND","ND","0.1","346.5","19.3","95.2","47.7","0"],
    [37813,"2014-08-29T08:00:00","104","ND","ND","ND","ND","ND","0.3","44.5","21.4","86.5","209.6","0"],
    [37814,"2014-08-29T09:00:00","104","ND","ND","ND","ND","ND","1.1","46.1","22.6","78.8","309.8","0"],
    [37815,"2014-08-29T10:00:00","65","ND","ND","ND","ND","ND","0.7","68.5","24.5","68.8","617.9","0"],
    [37816,"2014-08-29T11:00:00","39","ND","ND","ND","ND","ND","0.7","108.6","26.6","59.7","747.4","0"],
    [37817,"2014-08-29T12:00:00","41","ND","ND","ND","ND","ND","0.9","120.1","28.1","52.5","817.4","0"],
    [37818,"2014-08-29T13:00:00","47","ND","ND","ND","ND","ND","1.5","113.6","29.7","47.3","702","0"],
    [37819,"2014-08-29T14:00:00","41","ND","ND","ND","ND","ND","1.1","103.5","30.9","42.7","756.4","0"],
    [37820,"2014-08-29T15:00:00","58","ND","ND","ND","ND","ND","0.6","48.8","32.3","35.3","593.7","0"],
    [37821,"2014-08-29T16:00:00","48","ND","ND","ND","ND","ND","1.2","15.7","32.5","36.4","467.7","0"],
    [37822,"2014-08-29T17:00:00","37","ND","ND","ND","ND","ND","2.2","259.7","31.7","41.6","269.1","0"],
    [37823,"2014-08-29T18:00:00","44","ND","ND","ND","ND","ND","2.9","250.6","29.7","45.9","63.9","0"],
    [37824,"2014-08-29T19:00:00","63","ND","ND","ND","ND","ND","0.6","157.8","28.5","46.9","0","0"],
    [37825,"2014-08-29T20:00:00","69","ND","ND","ND","ND","ND","0.4","99.3","27.5","51.1","0","0"],
    [37826,"2014-08-29T21:00:00","95","ND","ND","ND","ND","ND","0.8","119","26.7","55.4","0","0"],
    [37827,"2014-08-29T22:00:00","85","ND","ND","ND","ND","ND","0.3","78.9","25.4","61.5","0","0"],
    [37828,"2014-08-29T23:00:00","83","ND","ND","ND","ND","ND","0.7","95.5","24.6","65.7","0","0"],
    [37829,"2014-08-30T00:00:00","62","ND","ND","ND","ND","ND","0.7","167.5","23.9","69.3","0","0"],
    [37830,"2014-08-30T01:00:00","43","ND","ND","ND","ND","ND","0.5","146.7","22.9","74.2","0","0"],
    [37831,"2014-08-30T02:00:00","42","ND","ND","ND","ND","ND","0.4","215.3","22.4","76","0","0"],
    [37832,"2014-08-30T03:00:00","47","ND","ND","ND","ND","ND","0.4","259.7","21.7","77.8","0","0"],
    [37833,"2014-08-30T04:00:00","43","ND","ND","ND","ND","ND","0.6","231.2","21.7","75.8","0","0"],
    [37834,"2014-08-30T05:00:00","47","ND","ND","ND","ND","ND","0.4","9.1","21.6","76.2","0","0"],
    [37835,"2014-08-30T06:00:00","76","ND","ND","ND","ND","ND","0.3","353","20.2","84.7","0","0"],
    [37836,"2014-08-30T07:00:00","77","ND","ND","ND","ND","ND","0.1","308.8","20.3","83.9","14.7","0"],
    [37837,"2014-08-30T08:00:00","146","ND","ND","ND","ND","ND","0.3","56.6","22.1","76.6","152.2","0"],
    [37838,"2014-08-30T09:00:00","119","ND","ND","ND","ND","ND","0.9","70.6","24.4","66.4","424.6","0"],
    [37839,"2014-08-30T10:00:00","73","ND","ND","ND","ND","ND","1","117.9","26.2","58.7","589.9","0"],
    [37840,"2014-08-30T11:00:00","51","ND","ND","ND","ND","ND","1","72","27.6","54.2","747.5","0"],
    [37841,"2014-08-30T12:00:00","56","ND","ND","ND","ND","ND","0.9","79.5","29.6","47.4","826.8","0"],
    [37842,"2014-08-30T13:00:00","51","ND","ND","ND","ND","ND","1.5","51.8","30.8","43.1","847.9","0"],
    [37843,"2014-08-30T14:00:00","46","ND","ND","ND","ND","ND","1.1","96.7","32.4","34.3","785.9","0"],
    [37844,"2014-08-30T15:00:00","33","ND","ND","ND","ND","ND","1.4","75.5","33.8","28.6","659.3","0"],
    [37845,"2014-08-30T16:00:00","38","ND","ND","ND","ND","ND","1.6","355.6","33.7","30.9","485.5","0"],
    [37846,"2014-08-30T17:00:00","28","ND","ND","ND","ND","ND","2.3","285.8","33","34.8","288.6","0"],
    [37847,"2014-08-30T18:00:00","33","ND","ND","ND","ND","ND","1.8","246.3","31.3","38.7","81.4","0"],
    [37848,"2014-08-30T19:00:00","59","ND","ND","ND","ND","ND","0.4","129.8","29.3","44","0","0"],
    [37849,"2014-08-30T20:00:00","54","ND","ND","ND","ND","ND","0.6","98.1","28.4","46.8","0","0"],
    [37850,"2014-08-30T21:00:00","67","ND","ND","ND","ND","ND","1.2","112.3","27.8","50.4","0","0"],
    [37851,"2014-08-30T22:00:00","69","ND","ND","ND","ND","ND","0.1","52.6","26","57.5","0","0"],
    [37852,"2014-08-30T23:00:00","51","ND","ND","ND","ND","ND","0.4","95.5","24.8","64.1","0","0"],
    [37853,"2014-08-31T00:00:00","41","ND","ND","ND","ND","ND","0.4","129.3","23.9","68.4","0","0"],
    [37854,"2014-08-31T01:00:00","47","ND","ND","ND","ND","ND","0.3","259.3","22.9","72.3","0","0"],
    [37855,"2014-08-31T02:00:00","74","ND","ND","ND","ND","ND","0.6","13.5","21.9","77.5","0","0"],
    [37856,"2014-08-31T03:00:00","65","ND","ND","ND","ND","ND","0.9","256","21.5","78.5","0","0"],
    [37857,"2014-08-31T04:00:00","55","ND","ND","ND","ND","ND","0.4","247.4","21.4","77.7","0","0"],
    [37858,"2014-08-31T05:00:00","55","ND","ND","ND","ND","ND","0.1","268.1","21.2","78.8","0","0"],
    [37859,"2014-08-31T06:00:00","68","ND","ND","ND","ND","ND","0","335.1","20.7","80.4","0","0"],
    [37860,"2014-08-31T07:00:00","59","ND","ND","ND","ND","ND","0.1","257.6","20.9","79.2","53.4","0"],
    [37861,"2014-08-31T08:00:00","69","ND","ND","ND","ND","ND","0.4","157.9","23","65.4","197.9","0"],
    [37862,"2014-08-31T09:00:00","77","ND","ND","ND","ND","ND","0.8","102","24.9","58.4","432.2","0"],
    [37863,"2014-08-31T10:00:00","73","ND","ND","ND","ND","ND","0.8","104.3","26.5","54.6","615.8","0"],
    [37864,"2014-08-31T11:00:00","49","ND","ND","ND","ND","ND","1.2","80.1","28.1","49.4","755.7","0"],
    [37865,"2014-08-31T12:00:00","48","ND","ND","ND","ND","ND","0.5","69.4","29.8","45.5","817.5","0"],
    [37866,"2014-08-31T13:00:00","56","ND","ND","ND","ND","ND","1.4","92","31.4","40.6","843.4","0"],
    [37867,"2014-08-31T14:00:00","49","ND","ND","ND","ND","ND","1.2","41.9","32.9","37.7","803.9","0"],
    [37868,"2014-08-31T15:00:00","38","ND","ND","ND","ND","ND","2.2","290.1","33.2","38.5","640.2","0"],
    [37869,"2014-08-31T16:00:00","31","ND","ND","ND","ND","ND","3","272.7","33","36.8","490.5","0"],
    [37870,"2014-08-31T17:00:00","24","ND","ND","ND","ND","ND","2.7","257.4","32.7","36.5","287.4","0"],
    [37871,"2014-08-31T18:00:00","24","ND","ND","ND","ND","ND","1.2","248.1","31.4","38.1","81.1","0"],
    [37872,"2014-08-31T19:00:00","36","ND","ND","ND","ND","ND","0.3","168.1","29.7","41.9","0","0"],
    [37873,"2014-08-31T20:00:00","31","ND","ND","ND","ND","ND","0.8","150.6","28.8","45.7","0","0"],
    [37874,"2014-08-31T21:00:00","29","ND","ND","ND","ND","ND","0.4","255.9","27.6","50.3","0","0"],
    [37875,"2014-08-31T22:00:00","57","ND","ND","ND","ND","ND","0.2","59.6","25.8","60.8","0","0"],
    [37876,"2014-08-31T23:00:00","42","ND","ND","ND","ND","ND","0.3","230.3","25.1","63.8","0","0"],
    [37877,"2014-09-01T00:00:00","42","ND","ND","ND","ND","ND","0.4","168.5","24.6","65.6","0","0"],
    [37878,"2014-09-01T01:00:00","48","ND","ND","ND","ND","ND","0.3","148.6","23.8","71.2","0","0"],
    [37879,"2014-09-01T02:00:00","36","ND","ND","ND","ND","ND","0.5","171.5","23.2","73.2","0","0"],
    [37880,"2014-09-01T03:00:00","42","ND","ND","ND","ND","ND","0.4","191","22.7","75.2","0","0"],
    [37881,"2014-09-01T04:00:00","35","ND","ND","ND","ND","ND","0.4","294","21.9","77.7","0","0"],
    [37882,"2014-09-01T05:00:00","38","ND","ND","ND","ND","ND","0.2","205.6","21.6","78.7","0","0"],
    [37883,"2014-09-01T06:00:00","67","ND","ND","ND","ND","ND","0.5","19","21.1","80.6","0","0"],
    [37884,"2014-09-01T07:00:00","103","ND","ND","ND","ND","ND","0.6","347.7","20.5","83.3","44.9","0"],
    [37885,"2014-09-01T08:00:00","143","ND","ND","ND","ND","ND","0.3","57.1","22.9","73","219","0"],
    [37886,"2014-09-01T09:00:00","121","ND","ND","ND","ND","ND","0.5","102.4","25.2","64","411.4","0"],
    [37887,"2014-09-01T10:00:00","58","ND","ND","ND","ND","ND","1","126.3","26.7","56.6","592.1","0"],
    [37888,"2014-09-01T11:00:00","62","ND","ND","ND","ND","ND","0.9","52.6","28.4","51.9","688.4","0"],
    [37889,"2014-09-01T12:00:00","75","ND","ND","ND","ND","ND","1.5","39.2","29.4","50.2","751.3","0"],
    [37890,"2014-09-01T13:00:00","73","ND","ND","ND","ND","ND","1.4","51.3","31.1","46.7","818.8","0"],
    [37891,"2014-09-01T14:00:00","42","ND","ND","ND","ND","ND","4.1","263.7","32.1","41.6","786","0"],
    [37892,"2014-09-01T15:00:00","87","ND","ND","ND","ND","ND","5","267.6","31.5","42.1","622.3","0"],
    [37893,"2014-09-01T16:00:00","38","ND","ND","ND","ND","ND","3.4","276.4","31.6","41.1","440.7","0"],
    [37894,"2014-09-01T17:00:00","39","ND","ND","ND","ND","ND","2.8","275.1","30.9","41.4","232","0"],
    [37895,"2014-09-01T18:00:00","34","ND","ND","ND","ND","ND","2","284.9","29.6","43.7","52","0"],
    [37896,"2014-09-01T19:00:00","42","ND","ND","ND","ND","ND","0.6","85.1","28.8","46.6","0","0"],
    [37897,"2014-09-01T20:00:00","33","ND","ND","ND","ND","ND","0.3","68.8","28.2","49.7","0","0"],
    [37898,"2014-09-01T21:00:00","34","ND","ND","ND","ND","ND","1.2","116.3","27.6","53.5","0","0"],
    [37899,"2014-09-01T22:00:00","39","ND","ND","ND","ND","ND","0.9","112.9","26.6","59.2","0","0"],
    [37900,"2014-09-01T23:00:00","31","ND","ND","ND","ND","ND","0.7","132.4","25.3","65.7","0","0"],
    [37901,"2014-09-02T00:00:00","27","ND","ND","ND","ND","ND","0.4","92.3","24.6","68.7","0","0"],
    [37902,"2014-09-02T01:00:00","29","ND","ND","ND","ND","ND","0.4","352.2","23.7","72.9","0","0"],
    [37903,"2014-09-02T02:00:00","34","ND","ND","ND","ND","ND","0.2","347.9","23.3","73.8","0","0"],
    [37904,"2014-09-02T03:00:00","45","ND","ND","ND","ND","ND","0.3","143.2","23.3","74.3","0","0"],
    [37905,"2014-09-02T04:00:00","40","ND","ND","ND","ND","ND","0.6","161","23.4","74.3","0","0"],
    [37906,"2014-09-02T05:00:00","67","ND","ND","ND","ND","ND","1.1","3.3","22.6","79","0","0"],
    [37907,"2014-09-02T06:00:00","67","ND","ND","ND","ND","ND","0.3","327.4","22.2","80.6","0","0"],
    [37908,"2014-09-02T07:00:00","80","ND","ND","ND","ND","ND","0.4","217.6","22.6","78.9","34","0"],
    [37909,"2014-09-02T08:00:00","98","ND","ND","ND","ND","ND","0.8","164","23.9","72.7","95.5","0"],
    [37910,"2014-09-02T09:00:00","ND","ND","ND","ND","ND","ND","ND","ND","ND","ND","ND","ND"],
    [37911,"2014-09-02T10:00:00","ND","ND","ND","ND","ND","ND","ND","ND","ND","ND","ND","ND"],
    [37912,"2014-09-02T11:00:00","ND","ND","ND","ND","ND","ND","1.1","57.2","27.3","59.9","530.1","0"],
    [37913,"2014-09-02T12:00:00","56","ND","ND","ND","ND","ND","1.8","44.1","28.7","54.1","686.1","0"],
    [37914,"2014-09-02T13:00:00","28","ND","ND","ND","ND","ND","2.1","73.4","30","49.9","638.1","0"],
    [37915,"2014-09-02T14:00:00","23","ND","ND","ND","ND","ND","1.1","36.8","29.9","49.5","308.7","0"],
    [37916,"2014-09-02T15:00:00","31","ND","ND","ND","ND","ND","1.6","259.9","29.9","48.1","199.6","0"],
    [37917,"2014-09-02T16:00:00","61","ND","ND","ND","ND","ND","1.5","287.2","24.2","76.3","87","16.26"],
    [37918,"2014-09-02T17:00:00","16","ND","ND","ND","ND","ND","0.2","50.8","25.8","67.6","100.7","0"],
    [37919,"2014-09-02T18:00:00","27","ND","ND","ND","ND","ND","0.6","133.5","26.3","62.5","13.1","0"],
    [37920,"2014-09-02T19:00:00","73","ND","ND","ND","ND","ND","0.2","297.5","25.7","64.3","0","0"],
    [37921,"2014-09-02T20:00:00","38","ND","ND","ND","ND","ND","3.4","172.9","23.9","68.4","0","0"],
    [37922,"2014-09-02T21:00:00","39","ND","ND","ND","ND","ND","0.1","239.9","22","84.7","0","4.06"],
    [37923,"2014-09-02T22:00:00","35","ND","ND","ND","ND","ND","0.3","239","21.7","88.9","0","0.25"],
    [37924,"2014-09-02T23:00:00","52","ND","ND","ND","ND","ND","0.7","296.7","21.6","89","0","0"],
    [37925,"2014-09-03T00:00:00","50","ND","ND","ND","ND","ND","0.3","142.3","22","87","0","0"],
    [37926,"2014-09-03T01:00:00","81","ND","ND","ND","ND","ND","0.3","199.4","21.8","88.4","0","0"],
    [37927,"2014-09-03T02:00:00","65","ND","ND","ND","ND","ND","0.3","46.2","21.5","89.4","0","0"],
    [37928,"2014-09-03T03:00:00","81","ND","ND","ND","ND","ND","0.2","281","21.1","91.9","0","0"],
    [37929,"2014-09-03T04:00:00","68","ND","ND","ND","ND","ND","0.3","243.4","21","91.7","0","0"],
    [37930,"2014-09-03T05:00:00","79","ND","ND","ND","ND","ND","0.5","34","20.8","91.6","0","0"],
    [37931,"2014-09-03T06:00:00","87","ND","ND","ND","ND","ND","0.7","25.6","20.5","89.7","0","0"],
    [37932,"2014-09-03T07:00:00","103","ND","ND","ND","ND","ND","1.5","357.4","20.1","94.1","18.6","0"],
    [37933,"2014-09-03T08:00:00","77","ND","ND","ND","ND","ND","1","16","20.9","88.4","138.4","0"],
    [37934,"2014-09-03T09:00:00","75","ND","ND","ND","ND","ND","1.6","61.8","23","78.6","468.8","0"],
    [37935,"2014-09-03T10:00:00","57","ND","ND","ND","ND","ND","1.4","99.8","25","69.8","594","0"],
    [37936,"2014-09-03T11:00:00","59","ND","ND","ND","ND","ND","1.1","117.9","26.5","62","752","0"],
    [37937,"2014-09-03T12:00:00","57","ND","ND","ND","ND","ND","0.9","127.6","27.8","55.4","677.3","0"],
    [37938,"2014-09-03T13:00:00","51","ND","ND","ND","ND","ND","1.3","88","29","52.3","612.8","0"],
    [37939,"2014-09-03T14:00:00","65","ND","ND","ND","ND","ND","1","53.9","29.6","51.4","368.2","0"],
    [37940,"2014-09-03T15:00:00","35","ND","ND","ND","ND","ND","1.8","292.7","29.4","49.9","287.9","0"],
    [37941,"2014-09-03T16:00:00","33","ND","ND","ND","ND","ND","2.7","259.5","29.1","50.3","211","0"],
    [37942,"2014-09-03T17:00:00","22","ND","ND","ND","ND","ND","2.8","253.1","29.6","47.3","314.9","0"],
    [37943,"2014-09-03T18:00:00","21","ND","ND","ND","ND","ND","2.7","264.6","28.7","47.8","78.8","0"],
    [37944,"2014-09-03T19:00:00","40","ND","ND","ND","ND","ND","0.6","102.3","27.7","51.5","0","0"],
    [37945,"2014-09-03T20:00:00","58","ND","ND","ND","ND","ND","0.5","124.1","27","54.6","0","0"],
    [37946,"2014-09-03T21:00:00","64","ND","ND","ND","ND","ND","0.8","94.2","26.8","56.2","0","0"],
    [37947,"2014-09-03T22:00:00","57","ND","ND","ND","ND","ND","1.2","160.1","26.2","60.2","0","0"],
    [37948,"2014-09-03T23:00:00","49","ND","ND","ND","ND","ND","1","99.3","25","67.4","0","0"],
    [37949,"2014-09-04T00:00:00","27","ND","ND","ND","ND","ND","0.8","150.9","24.5","69.9","0","0"],
    [37950,"2014-09-04T01:00:00","36","ND","ND","ND","ND","ND","0.6","43","23.7","75.5","0","2.54"],
    [37951,"2014-09-04T02:00:00","29","ND","ND","ND","ND","ND","0.1","215.7","22.3","88.6","0","0.25"],
    [37952,"2014-09-04T03:00:00","47","ND","ND","ND","ND","ND","0.8","36","22","89.2","0","0"],
    [37953,"2014-09-04T04:00:00","72","ND","ND","ND","ND","ND","0.3","255.9","22","87.9","0","0"],
    [37954,"2014-09-04T05:00:00","63","ND","ND","ND","ND","ND","0.1","120.9","22.2","88.2","0","0"],
    [37955,"2014-09-04T06:00:00","69","ND","ND","ND","ND","ND","0.3","24.3","22","88.3","0","0.25"],
    [37956,"2014-09-04T07:00:00","81","ND","ND","ND","ND","ND","0.1","185.2","22.2","87.2","30.1","0"],
    [37957,"2014-09-04T08:00:00","67","ND","ND","ND","ND","ND","1.5","50.7","22.1","86.8","124.5","0"],
    [37958,"2014-09-04T09:00:00","66","ND","ND","ND","ND","ND","1.1","48.6","23.4","79.1","319.3","0"],
    [37959,"2014-09-04T10:00:00","64","ND","ND","ND","ND","ND","0.9","78","25.9","68.3","604.4","0"],
    [37960,"2014-09-04T11:00:00","47","ND","ND","ND","ND","ND","0.9","71","27.3","60.9","697.3","0"],
    [37961,"2014-09-04T12:00:00","43","ND","ND","ND","ND","ND","0.8","95.6","28.8","54","647","0"],
    [37962,"2014-09-04T13:00:00","42","ND","ND","ND","ND","ND","1.6","88.6","29.2","52.6","447","0"],
    [37963,"2014-09-04T14:00:00","51","ND","ND","ND","ND","ND","1.1","33.1","30.7","48.5","758","0"],
    [37964,"2014-09-04T15:00:00","42","ND","ND","ND","ND","ND","1.4","74.2","31.1","46.5","548.6","0"],
    [37965,"2014-09-04T16:00:00","42","ND","ND","ND","ND","ND","1.9","49.5","30.1","49.2","136.7","0"],
    [37966,"2014-09-04T17:00:00","27","ND","ND","ND","ND","ND","2.4","264.2","30.2","48","241.1","0"],
    [37967,"2014-09-04T18:00:00","25","ND","ND","ND","ND","ND","1","291.7","29.1","48.4","47.6","0"],
    [37968,"2014-09-04T19:00:00","45","ND","ND","ND","ND","ND","0.3","143.6","28.4","46.7","0","0"],
    [37969,"2014-09-04T20:00:00","62","ND","ND","ND","ND","ND","0.4","109.2","27.5","48","0","0"],
    [37970,"2014-09-04T21:00:00","49","ND","ND","ND","ND","ND","0.7","104.7","27","49.6","0","0"],
    [37971,"2014-09-04T22:00:00","54","ND","ND","ND","ND","ND","0.5","142.2","25.8","57","0","0"],
    [37972,"2014-09-04T23:00:00","54","ND","ND","ND","ND","ND","0.4","204.8","24.6","63.1","0","0"],
    [37973,"2014-09-05T00:00:00","56","ND","ND","ND","ND","ND","0.1","158.9","23.9","65.7","0","0"],
    [37974,"2014-09-05T01:00:00","56","ND","ND","ND","ND","ND","0.5","184.5","23.5","67.9","0","0"],
    [37975,"2014-09-05T02:00:00","55","ND","ND","ND","ND","ND","1","168.3","23.1","71.3","0","0"],
    [37976,"2014-09-05T03:00:00","58","ND","ND","ND","ND","ND","1.1","211.7","22.6","74.3","0","0"],
    [37977,"2014-09-05T04:00:00","46","ND","ND","ND","ND","ND","0.2","261.2","22","76.7","0","0"],
    [37978,"2014-09-05T05:00:00","60","ND","ND","ND","ND","ND","0.4","280.5","22.1","76.4","0","0"],
    [37979,"2014-09-05T06:00:00","81","ND","ND","ND","ND","ND","0.2","9.2","22","77.1","0","0"],
    [37980,"2014-09-05T07:00:00","122","ND","ND","ND","ND","ND","0.6","45.6","21.9","77.9","57.6","0"],
    [37981,"2014-09-05T08:00:00","173","ND","ND","ND","ND","ND","0.6","46.1","23.5","72.4","215.9","0"],
    [37982,"2014-09-05T09:00:00","101","ND","ND","ND","ND","ND","1","83.2","25.3","64.6","444.6","0"],
    [37983,"2014-09-05T10:00:00","101","ND","ND","ND","ND","ND","1.4","66.6","26.6","60.1","571.4","0"],
    [37984,"2014-09-05T11:00:00","ND","ND","ND","ND","ND","ND","1.6","80.4","27.6","56.6","590.4","0"],
    [37985,"2014-09-05T12:00:00","42","ND","ND","ND","ND","ND","1","120.2","28.7","52.4","653.2","0"],
    [37986,"2014-09-05T13:00:00","72","ND","ND","ND","ND","ND","1.6","41","30.4","47.6","856.6","0"],
    [37987,"2014-09-05T14:00:00","44","ND","ND","ND","ND","ND","2.6","46.5","30.7","46.5","647.2","0"],
    [37988,"2014-09-05T15:00:00","49","ND","ND","ND","ND","ND","3.1","41.5","31","47.1","672.1","0"],
    [37989,"2014-09-05T16:00:00","33","ND","ND","ND","ND","ND","1.9","41.9","31.7","42.7","402.1","0"],
    [37990,"2014-09-05T17:00:00","25","ND","ND","ND","ND","ND","1","274.7","31.8","41.5","305.1","0"],
    [37991,"2014-09-05T18:00:00","29","ND","ND","ND","ND","ND","1.1","275.3","30.1","45.2","78.4","0"],
    [37992,"2014-09-05T19:00:00","45","ND","ND","ND","ND","ND","0.1","41.9","28.7","47.2","0","0"],
    [37993,"2014-09-05T20:00:00","45","ND","ND","ND","ND","ND","0.1","189","28.1","48.4","0","0"],
    [37994,"2014-09-05T21:00:00","69","ND","ND","ND","ND","ND","1.4","140.3","26.8","54.9","0","0"],
    [37995,"2014-09-05T22:00:00","75","ND","ND","ND","ND","ND","0.3","86.1","26.1","58.6","0","0"],
    [37996,"2014-09-05T23:00:00","76","ND","ND","ND","ND","ND","0.7","104.8","25.6","62.4","0","0"],
    [37997,"2014-09-06T00:00:00","64","ND","ND","ND","ND","ND","0.4","45.4","24.9","66","0","0"],
    [37998,"2014-09-06T01:00:00","170","ND","ND","ND","ND","ND","0.3","5.4","24.3","69.7","0","0"],
    [37999,"2014-09-06T02:00:00","71","ND","ND","ND","ND","ND","0.6","144.6","24.1","69.1","0","0"],
    [38000,"2014-09-06T03:00:00","61","ND","ND","ND","ND","ND","0.4","163.9","24.1","69.3","0","0"],
    [38001,"2014-09-06T04:00:00","55","ND","ND","ND","ND","ND","0.4","152.1","24","69.5","0","0"],
    [38002,"2014-09-06T05:00:00","62","ND","ND","ND","ND","ND","0.6","162.5","23.8","69.5","0","0"],
    [38003,"2014-09-06T06:00:00","88","ND","ND","ND","ND","ND","0.2","18.2","23.3","73.1","0","0"],
    [38004,"2014-09-06T07:00:00","124","ND","ND","ND","ND","ND","0.5","84.7","23","76.3","52.6","0"],
    [38005,"2014-09-06T08:00:00","132","ND","ND","ND","ND","ND","0.4","63.7","24.2","71.2","222","0"],
    [38006,"2014-09-06T09:00:00","118","ND","ND","ND","ND","ND","1.5","45.8","25.6","65","396.4","0"],
    [38007,"2014-09-06T10:00:00","68","ND","ND","ND","ND","ND","1","107.2","26.9","59.1","563.5","0"],
    [38008,"2014-09-06T11:00:00","49","ND","ND","ND","ND","ND","0.9","55","28.8","50.3","730.4","0"],
    [38009,"2014-09-06T12:00:00","55","ND","ND","ND","ND","ND","1.5","58.2","30","48.5","771.6","0"],
    [38010,"2014-09-06T13:00:00","44","ND","ND","ND","ND","ND","1.8","37.1","30.5","47.7","528.3","0"],
    [38011,"2014-09-06T14:00:00","29","ND","ND","ND","ND","ND","1.2","23.2","31","47.3","598.2","0"],
    [38012,"2014-09-06T15:00:00","35","ND","ND","ND","ND","ND","2.5","267.1","30.5","46.6","254.4","0"],
    [38013,"2014-09-06T16:00:00","37","ND","ND","ND","ND","ND","1.9","265.2","30.7","45","267.9","0"],
    [38014,"2014-09-06T17:00:00","29","ND","ND","ND","ND","ND","0.3","255.2","30.9","44.3","178.4","0"],
    [38015,"2014-09-06T18:00:00","27","ND","ND","ND","ND","ND","2.8","255.3","29.2","47.5","46.7","0"],
    [38016,"2014-09-06T19:00:00","30","ND","ND","ND","ND","ND","0.7","244.3","28.8","48.4","0","0"],
    [38017,"2014-09-06T20:00:00","31","ND","ND","ND","ND","ND","0.6","242.1","28.3","50.6","0","0"],
    [38018,"2014-09-06T21:00:00","54","ND","ND","ND","ND","ND","1","123.7","27.5","54.4","0","0"],
    [38019,"2014-09-06T22:00:00","55","ND","ND","ND","ND","ND","0.8","73","26.6","58.9","0","0"],
    [38020,"2014-09-06T23:00:00","37","ND","ND","ND","ND","ND","0.4","164.3","25.5","63.4","0","0"],
    [38021,"2014-09-07T00:00:00","48","ND","ND","ND","ND","ND","0.2","195.6","25.2","65.2","0","0"],
    [38022,"2014-09-07T01:00:00","69","ND","ND","ND","ND","ND","0.6","95","24.6","68.4","0","0"],
    [38023,"2014-09-07T02:00:00","46","ND","ND","ND","ND","ND","0.7","130.9","23.8","72.5","0","0"],
    [38024,"2014-09-07T03:00:00","49","ND","ND","ND","ND","ND","1.2","184.3","23.5","73.7","0","0"],
    [38025,"2014-09-07T04:00:00","54","ND","ND","ND","ND","ND","0.2","340.1","23.2","75.1","0","0"],
    [38026,"2014-09-07T05:00:00","78","ND","ND","ND","ND","ND","0.4","294.5","22.4","79.4","0","0"],
    [38027,"2014-09-07T06:00:00","62","ND","ND","ND","ND","ND","0.1","286.7","22.4","78.9","0","0"],
    [38028,"2014-09-07T07:00:00","54","ND","ND","ND","ND","ND","0.1","275.5","22.8","77.5","28.3","0"],
    [38029,"2014-09-07T08:00:00","100","ND","ND","ND","ND","ND","0.9","36.6","23.5","75.1","125.7","0"],
    [38030,"2014-09-07T09:00:00","96","ND","ND","ND","ND","ND","1","47.7","24.7","69.9","297.4","0"],
    [38031,"2014-09-07T10:00:00","68","ND","ND","ND","ND","ND","0.7","13.7","25.7","66.2","352.3","0"],
    [38032,"2014-09-07T11:00:00","68","ND","ND","ND","ND","ND","0.5","48.8","26.9","61.1","391.5","0"],
    [38033,"2014-09-07T12:00:00","53","ND","ND","ND","ND","ND","1.3","51","28.4","54.9","693.6","0"],
    [38034,"2014-09-07T13:00:00","37","ND","ND","ND","ND","ND","1.1","30.1","29.8","47.8","608.7","0"],
    [38035,"2014-09-07T14:00:00","49","ND","ND","ND","ND","ND","1.6","83.2","30.9","45.2","686.7","0"],
    [38036,"2014-09-07T15:00:00","38","ND","ND","ND","ND","ND","1.3","41.7","31.4","42.7","529.2","0"],
    [38037,"2014-09-07T16:00:00","29","ND","ND","ND","ND","ND","1.3","29.3","31","44.3","181.4","0"],
    [38038,"2014-09-07T17:00:00","21","ND","ND","ND","ND","ND","0.6","348","30.4","47.2","122.2","0"],
    [38039,"2014-09-07T18:00:00","26","ND","ND","ND","ND","ND","1.2","268","29.5","49.1","36.7","0"],
    [38040,"2014-09-07T19:00:00","29","ND","ND","ND","ND","ND","0.9","228.3","28.8","49.7","0","0"],
    [38041,"2014-09-07T20:00:00","38","ND","ND","ND","ND","ND","0.3","200.9","28.4","50","0","0"],
    [38042,"2014-09-07T21:00:00","47","ND","ND","ND","ND","ND","0.8","54.9","27.4","54.8","0","0"],
    [38043,"2014-09-07T22:00:00","47","ND","ND","ND","ND","ND","0.4","60.8","26.3","62","0","0"],
    [38044,"2014-09-07T23:00:00","46","ND","ND","ND","ND","ND","0.1","234","26.1","61.9","0","0"],
    [38045,"2014-09-08T00:00:00","43","ND","ND","ND","ND","ND","0.4","148.7","26.2","62.1","0","0"],
    [38046,"2014-09-08T01:00:00","65","ND","ND","ND","ND","ND","0.7","53.5","25.1","67.8","0","0"],
    [38047,"2014-09-08T02:00:00","26","ND","ND","ND","ND","ND","0.9","172.1","25.1","67.8","0","0"],
    [38048,"2014-09-08T03:00:00","26","ND","ND","ND","ND","ND","0.5","127.4","24.6","70.4","0","0"],
    [38049,"2014-09-08T04:00:00","49","ND","ND","ND","ND","ND","1","147.8","24.3","70","0","0"],
    [38050,"2014-09-08T05:00:00","48","ND","ND","ND","ND","ND","0.6","140.8","23.4","76.4","0","0"],
    [38051,"2014-09-08T06:00:00","52","ND","ND","ND","ND","ND","0.7","209.5","23.6","73.7","0","0"],
    [38052,"2014-09-08T07:00:00","61","ND","ND","ND","ND","ND","0.2","290.4","23.8","72.4","35.8","0"],
    [38053,"2014-09-08T08:00:00","117","ND","ND","ND","ND","ND","0.8","67.4","24","73.7","81","0"],
    [38054,"2014-09-08T09:00:00","112","ND","ND","ND","ND","ND","1.1","64.9","24.6","70.5","170.3","0"],
    [38055,"2014-09-08T10:00:00","80","ND","ND","ND","ND","ND","0.7","78.7","25.9","62.3","352.1","0"],
    [38056,"2014-09-08T11:00:00","63","ND","ND","ND","ND","ND","0.8","113.3","27.4","56.4","590.7","0"],
    [38057,"2014-09-08T12:00:00","54","ND","ND","ND","ND","ND","1.3","38.9","28.8","51.7","550.5","0"],
    [38058,"2014-09-08T13:00:00","39","ND","ND","ND","ND","ND","1.9","76.1","29.8","50.5","748.5","0"],
    [38059,"2014-09-08T14:00:00","41","ND","ND","ND","ND","ND","1.1","49.8","31.1","43.7","594.1","0"],
    [38060,"2014-09-08T15:00:00","45","ND","ND","ND","ND","ND","1.4","33.5","31.7","40.6","438.7","0"],
    [38061,"2014-09-08T16:00:00","59","ND","ND","ND","ND","ND","2.2","12","30.9","46.3","316.1","0"],
    [38062,"2014-09-08T17:00:00","38","ND","ND","ND","ND","ND","1.2","354.9","30.4","47.2","208.4","0"],
    [38063,"2014-09-08T18:00:00","35","ND","ND","ND","ND","ND","2.4","240","28.9","51.8","63.1","0"],
    [38064,"2014-09-08T19:00:00","30","ND","ND","ND","ND","ND","1.2","236.8","27.8","54.1","0","0"],
    [38065,"2014-09-08T20:00:00","37","ND","ND","ND","ND","ND","0.8","255","27.4","54.3","0","0"],
    [38066,"2014-09-08T21:00:00","50","ND","ND","ND","ND","ND","0.4","104.6","27.2","54.9","0","0"],
    [38067,"2014-09-08T22:00:00","48","ND","ND","ND","ND","ND","0.5","90.9","26.9","55.4","0","0"],
    [38068,"2014-09-08T23:00:00","58","ND","ND","ND","ND","ND","1","119.6","26","61","0","0"],
    [38069,"2014-09-09T00:00:00","48","ND","ND","ND","ND","ND","0.7","69.9","24.5","68.2","0","0"],
    [38070,"2014-09-09T01:00:00","45","ND","ND","ND","ND","ND","0.3","355.5","24","69.9","0","0"],
    [38071,"2014-09-09T02:00:00","61","ND","ND","ND","ND","ND","0.1","285.5","23.2","73.2","0","0"],
    [38072,"2014-09-09T03:00:00","42","ND","ND","ND","ND","ND","0.1","286.3","22.6","74.2","0","0"],
    [38073,"2014-09-09T04:00:00","42","ND","ND","ND","ND","ND","0.4","258.1","22.3","75.7","0","0"],
    [38074,"2014-09-09T05:00:00","41","ND","ND","ND","ND","ND","0.2","264.3","21.9","78","0","0"],
    [38075,"2014-09-09T06:00:00","80","ND","ND","ND","ND","ND","0.5","6.1","21.3","80.5","0","0"],
    [38076,"2014-09-09T07:00:00","118","ND","ND","ND","ND","ND","0.5","355.9","21.3","80.3","55.2","0"],
    [38077,"2014-09-09T08:00:00","161","ND","ND","ND","ND","ND","0.7","43.6","23.6","69.9","225","0"],
    [38078,"2014-09-09T09:00:00","103","ND","ND","ND","ND","ND","0.9","94.3","25.4","61","432.7","0"],
    [38079,"2014-09-09T10:00:00","73","ND","ND","ND","ND","ND","1.4","97.8","27.1","55.3","605.5","0"],
    [38080,"2014-09-09T11:00:00","71","ND","ND","ND","ND","ND","1.1","96.9","28.4","51.2","736.7","0"],
    [38081,"2014-09-09T12:00:00","66","ND","ND","ND","ND","ND","1.2","107.3","30.2","46.5","802.8","0"],
    [38082,"2014-09-09T13:00:00","66","ND","ND","ND","ND","ND","1","337.1","31.6","42.4","801.3","0"],
    [38083,"2014-09-09T14:00:00","39","ND","ND","ND","ND","ND","0.6","332.3","32.1","40.2","453.3","0"],
    [38084,"2014-09-09T15:00:00","40","ND","ND","ND","ND","ND","3.9","268","31.1","42","415.5","0"],
    [38085,"2014-09-09T16:00:00","35","ND","ND","ND","ND","ND","4.4","264.4","31.4","39.5","426","0"],
    [38086,"2014-09-09T17:00:00","36","ND","ND","ND","ND","ND","3.3","273.9","30.4","40.7","140","0"],
    [38087,"2014-09-09T18:00:00","30","ND","ND","ND","ND","ND","3.2","267.7","29.2","45","23.6","0"],
    [38088,"2014-09-09T19:00:00","45","ND","ND","ND","ND","ND","1.2","267.5","28.7","46.4","0","0"],
    [38089,"2014-09-09T20:00:00","59","ND","ND","ND","ND","ND","0.8","92.6","28.4","47.9","0","0"],
    [38090,"2014-09-09T21:00:00","41","ND","ND","ND","ND","ND","1.2","186.4","27.3","52.6","0","0"],
    [38091,"2014-09-09T22:00:00","17","ND","ND","ND","ND","ND","2.1","248.2","26.8","54.1","0","0"],
    [38092,"2014-09-09T23:00:00","39","ND","ND","ND","ND","ND","1.6","93.6","25.7","61.1","0","0"],
    [38093,"2014-09-10T00:00:00","38","ND","ND","ND","ND","ND","1.1","176.7","24.6","66.5","0","0"],
    [38094,"2014-09-10T01:00:00","28","ND","ND","ND","ND","ND","0.7","144.5","24.1","69.6","0","0"],
    [38095,"2014-09-10T02:00:00","48","ND","ND","ND","ND","ND","1.8","181.6","23.5","71.7","0","0"],
    [38096,"2014-09-10T03:00:00","42","ND","ND","ND","ND","ND","1","212.3","23.4","71.1","0","0"],
    [38097,"2014-09-10T04:00:00","40","ND","ND","ND","ND","ND","0.4","200.4","23.4","71.3","0","0"],
    [38098,"2014-09-10T05:00:00","52","ND","ND","ND","ND","ND","0.3","192.2","23.4","70.8","0","0"],
    [38099,"2014-09-10T06:00:00","91","ND","ND","ND","ND","ND","0.9","5.6","22.6","77.2","0","0"],
    [38100,"2014-09-10T07:00:00","128","ND","ND","ND","ND","ND","0.3","48.3","22.3","79.1","48.1","0"],
    [38101,"2014-09-10T08:00:00","159","ND","ND","ND","ND","ND","0.3","4.1","23.4","73.6","117.7","0"],
    [38102,"2014-09-10T09:00:00","155","ND","ND","ND","ND","ND","0.9","55","24.9","67.3","387.7","0"],
    [38103,"2014-09-10T10:00:00","74","ND","ND","ND","ND","ND","1.1","65.8","26.6","60.5","480.7","0"],
    [38104,"2014-09-10T11:00:00","68","ND","ND","ND","ND","ND","0.3","58.6","27.9","56.5","576.3","0"],
    [38105,"2014-09-10T12:00:00","64","ND","ND","ND","ND","ND","1","105.1","29.1","51.4","455","0"],
    [38106,"2014-09-10T13:00:00","53","ND","ND","ND","ND","ND","1.3","36.8","29.3","51","351.5","0"],
    [38107,"2014-09-10T14:00:00","20","ND","ND","ND","ND","ND","0.8","269.1","29.9","46.6","285.7","0"],
    [38108,"2014-09-10T15:00:00","20","ND","ND","ND","ND","ND","2.5","252.6","29.4","47.8","197.4","0"],
    [38109,"2014-09-10T16:00:00","23","ND","ND","ND","ND","ND","2.5","244.8","28.7","50.1","134.2","0"],
    [38110,"2014-09-10T17:00:00","25","ND","ND","ND","ND","ND","2.4","257.2","28.4","50.1","141.1","0"],
    [38111,"2014-09-10T18:00:00","17","ND","ND","ND","ND","ND","2.1","253.3","28","49.8","55.3","0"],
    [38112,"2014-09-10T19:00:00","26","ND","ND","ND","ND","ND","0.4","200.6","27.1","52.1","0","0"],
    [38113,"2014-09-10T20:00:00","48","ND","ND","ND","ND","ND","0.7","96.5","26.9","53.5","0","0"],
    [38114,"2014-09-10T21:00:00","54","ND","ND","ND","ND","ND","1","126.7","26.8","54.8","0","0"],
    [38115,"2014-09-10T22:00:00","37","ND","ND","ND","ND","ND","0.7","137.6","25.9","58.9","0","0"],
    [38116,"2014-09-10T23:00:00","60","ND","ND","ND","ND","ND","0.9","80.2","25.3","63.2","0","0"],
    [38117,"2014-09-11T00:00:00","39","ND","ND","ND","ND","ND","0.6","80.7","24.5","66.9","0","0"],
    [38118,"2014-09-11T01:00:00","45","ND","ND","ND","ND","ND","0.3","68.3","24.5","66.9","0","0"],
    [38119,"2014-09-11T02:00:00","44","ND","ND","ND","ND","ND","0.9","23.8","24","69.9","0","0"],
    [38120,"2014-09-11T03:00:00","54","ND","ND","ND","ND","ND","0.5","246.7","22.8","78.4","0","6.35"],
    [38121,"2014-09-11T04:00:00","33","ND","ND","ND","ND","ND","0.4","233.4","22.1","86.5","0","0"],
    [38122,"2014-09-11T05:00:00","67","ND","ND","ND","ND","ND","0.8","35.3","22.2","83.9","0","0"],
    [38123,"2014-09-11T06:00:00","44","ND","ND","ND","ND","ND","0.8","333.2","21.6","87.4","0","0.25"],
    [38124,"2014-09-11T07:00:00","44","ND","ND","ND","ND","ND","0.3","300.5","21.9","87.7","41.8","0"],
    [38125,"2014-09-11T08:00:00","88","ND","ND","ND","ND","ND","0.2","113.2","23","81.4","87.5","0"],
    [38126,"2014-09-11T09:00:00","104","ND","ND","ND","ND","ND","0.6","131.7","23.8","77.6","144.1","0"],
    [38127,"2014-09-11T10:00:00","96","ND","ND","ND","ND","ND","0.2","3.9","24.2","74.3","229","0"],
    [38128,"2014-09-11T11:00:00","80","ND","ND","ND","ND","ND","0.7","118.1","26.2","64.1","518.9","0"],
    [38129,"2014-09-11T12:00:00","68","ND","ND","ND","ND","ND","0.1","29.5","27.4","58.7","420.8","0"],
    [38130,"2014-09-11T13:00:00","37","ND","ND","ND","ND","ND","0.1","258.1","28.1","54.2","366.6","0"],
    [38131,"2014-09-11T14:00:00","16","ND","ND","ND","ND","ND","2.5","251.6","28.9","48.9","521.2","0"],
    [38132,"2014-09-11T15:00:00","18","ND","ND","ND","ND","ND","3.8","270.1","28.7","49.2","417.1","0"],
    [38133,"2014-09-11T16:00:00","16","ND","ND","ND","ND","ND","4.1","277.7","28.5","47.8","507.6","0"],
    [38134,"2014-09-11T17:00:00","28","ND","ND","ND","ND","ND","4.6","276","27.5","47.9","202.6","0"],
    [38135,"2014-09-11T18:00:00","15","ND","ND","ND","ND","ND","1.6","272.6","27.1","48.8","56.8","0"],
    [38136,"2014-09-11T19:00:00","44","ND","ND","ND","ND","ND","0.8","284.2","26","52.9","0","0"],
    [38137,"2014-09-11T20:00:00","43","ND","ND","ND","ND","ND","0.5","63.9","25.7","54.1","0","0"],
    [38138,"2014-09-11T21:00:00","24","ND","ND","ND","ND","ND","0.9","143.3","25.9","52.6","0","0"],
    [38139,"2014-09-11T22:00:00","15","ND","ND","ND","ND","ND","0.6","184.5","25.3","54.3","0","0"],
    [38140,"2014-09-11T23:00:00","30","ND","ND","ND","ND","ND","0.6","182.4","24.7","58.9","0","0"],
    [38141,"2014-09-12T00:00:00","30","ND","ND","ND","ND","ND","1.4","206.9","24.3","62.9","0","0"],
    [38142,"2014-09-12T01:00:00","43","ND","ND","ND","ND","ND","0.3","96","23.9","66.4","0","0"],
    [38143,"2014-09-12T02:00:00","25","ND","ND","ND","ND","ND","1.2","50.3","22.8","71.5","0","0"],
    [38144,"2014-09-12T03:00:00","39","ND","ND","ND","ND","ND","0.6","83.5","22.1","77.2","0","0"],
    [38145,"2014-09-12T04:00:00","31","ND","ND","ND","ND","ND","1.6","164.1","21.8","79.8","0","0"],
    [38146,"2014-09-12T05:00:00","15","ND","ND","ND","ND","ND","0.7","226.8","21.1","83.5","0","0"],
    [38147,"2014-09-12T06:00:00","31","ND","ND","ND","ND","ND","0.4","228.4","21.2","81.4","0","0"],
    [38148,"2014-09-12T07:00:00","ND","ND","ND","ND","ND","ND","ND","ND","ND","ND","ND","ND"],
    [38149,"2014-09-12T08:00:00","55","ND","ND","ND","ND","ND","ND","ND","ND","ND","ND","ND"],
    [38150,"2014-09-12T09:00:00","64","ND","ND","ND","ND","ND","1.2","154.7","22.9","76","189.8","0"],
    [38151,"2014-09-12T10:00:00","ND","ND","ND","ND","ND","ND","ND","ND","ND","ND","ND","ND"],
    [38152,"2014-09-12T11:00:00","ND","ND","ND","ND","ND","ND","ND","ND","ND","ND","ND","ND"],
    [38153,"2014-09-12T12:00:00","ND","ND","ND","ND","ND","ND","ND","ND","ND","ND","ND","ND"],
    [38154,"2014-09-12T13:00:00","ND","ND","ND","ND","ND","ND","ND","ND","ND","ND","ND","ND"],
    [38155,"2014-09-12T14:00:00","ND","ND","ND","ND","ND","ND","ND","ND","ND","ND","ND","ND"],
    [38156,"2014-09-12T15:00:00","ND","ND","ND","ND","ND","ND","ND","ND","ND","ND","ND","ND"],
    [38157,"2014-09-12T16:00:00","ND","ND","ND","ND","ND","ND","ND","ND","ND","ND","ND","ND"],
    [38158,"2014-09-12T17:00:00","ND","ND","ND","ND","ND","ND","ND","ND","ND","ND","ND","ND"],
    [38159,"2014-09-12T18:00:00","ND","ND","ND","ND","ND","ND","ND","ND","ND","ND","ND","ND"],
    [38160,"2014-09-12T19:00:00","ND","ND","ND","ND","ND","ND","ND","ND","ND","ND","ND","ND"],
    [38161,"2014-09-12T20:00:00","ND","ND","ND","ND","ND","ND","ND","ND","ND","ND","ND","ND"],
    [38162,"2014-09-12T21:00:00","ND","ND","ND","ND","ND","ND","ND","ND","ND","ND","ND","ND"],
    [38163,"2014-09-12T22:00:00","ND","ND","ND","ND","ND","ND","ND","ND","ND","ND","ND","ND"],
    [38164,"2014-09-12T23:00:00","ND","ND","ND","ND","ND","ND","ND","ND","ND","ND","ND","ND"],
    [38165,"2014-09-13T00:00:00","ND","ND","ND","ND","ND","ND","ND","ND","ND","ND","ND","ND"],
    [38166,"2014-09-13T01:00:00","ND","ND","ND","ND","ND","ND","ND","ND","ND","ND","ND","ND"],
    [38167,"2014-09-13T02:00:00","ND","ND","ND","ND","ND","ND","ND","ND","ND","ND","ND","ND"],
    [38168,"2014-09-13T03:00:00","ND","ND","ND","ND","ND","ND","ND","ND","ND","ND","ND","ND"],
    [38169,"2014-09-13T04:00:00","ND","ND","ND","ND","ND","ND","ND","ND","ND","ND","ND","ND"],
    [38170,"2014-09-13T05:00:00","ND","ND","ND","ND","ND","ND","ND","ND","ND","ND","ND","ND"],
    [38171,"2014-09-13T06:00:00","ND","ND","ND","ND","ND","ND","ND","ND","ND","ND","ND","ND"],
    [38172,"2014-09-13T07:00:00","ND","ND","ND","ND","ND","ND","ND","ND","ND","ND","ND","ND"],
    [38173,"2014-09-13T08:00:00","ND","ND","ND","ND","ND","ND","ND","ND","ND","ND","ND","ND"],
    [38174,"2014-09-13T09:00:00","ND","ND","ND","ND","ND","ND","ND","ND","ND","ND","ND","ND"],
    [38175,"2014-09-13T10:00:00","ND","ND","ND","ND","ND","ND","ND","ND","ND","ND","ND","ND"],
    [38176,"2014-09-13T11:00:00","ND","ND","ND","ND","ND","ND","ND","ND","ND","ND","ND","ND"],
    [38177,"2014-09-13T12:00:00","ND","ND","ND","ND","ND","ND","ND","ND","ND","ND","ND","ND"],
    [38178,"2014-09-13T13:00:00","ND","ND","ND","ND","ND","ND","ND","ND","ND","ND","ND","ND"],
    [38179,"2014-09-13T14:00:00","ND","ND","ND","ND","ND","ND","ND","ND","ND","ND","ND","ND"],
    [38180,"2014-09-13T15:00:00","ND","ND","ND","ND","ND","ND","ND","ND","ND","ND","ND","ND"],
    [38181,"2014-09-13T16:00:00","ND","ND","ND","ND","ND","ND","ND","ND","ND","ND","ND","ND"],
    [38182,"2014-09-13T17:00:00","ND","ND","ND","ND","ND","ND","ND","ND","ND","ND","ND","ND"],
    [38183,"2014-09-13T18:00:00","ND","ND","ND","ND","ND","ND","ND","ND","ND","ND","ND","ND"],
    [38184,"2014-09-13T19:00:00","ND","ND","ND","ND","ND","ND","ND","ND","ND","ND","ND","ND"],
    [38185,"2014-09-13T20:00:00","ND","ND","ND","ND","ND","ND","ND","ND","ND","ND","ND","ND"],
    [38186,"2014-09-13T21:00:00","ND","ND","ND","ND","ND","ND","ND","ND","ND","ND","ND","ND"],
    [38187,"2014-09-13T22:00:00","ND","ND","ND","ND","ND","ND","ND","ND","ND","ND","ND","ND"],
    [38188,"2014-09-13T23:00:00","ND","ND","ND","ND","ND","ND","ND","ND","ND","ND","ND","ND"],
    [38189,"2014-09-14T00:00:00","ND","ND","ND","ND","ND","ND","ND","ND","ND","ND","ND","ND"],
    [38190,"2014-09-14T01:00:00","ND","ND","ND","ND","ND","ND","ND","ND","ND","ND","ND","ND"],
    [38191,"2014-09-14T02:00:00","ND","ND","ND","ND","ND","ND","ND","ND","ND","ND","ND","ND"],
    [38192,"2014-09-14T03:00:00","ND","ND","ND","ND","ND","ND","ND","ND","ND","ND","ND","ND"],
    [38193,"2014-09-14T04:00:00","ND","ND","ND","ND","ND","ND","ND","ND","ND","ND","ND","ND"],
    [38194,"2014-09-14T05:00:00","ND","ND","ND","ND","ND","ND","ND","ND","ND","ND","ND","ND"],
    [38195,"2014-09-14T06:00:00","ND","ND","ND","ND","ND","ND","ND","ND","ND","ND","ND","ND"],
    [38196,"2014-09-14T07:00:00","ND","ND","ND","ND","ND","ND","ND","ND","ND","ND","ND","ND"],
    [38197,"2014-09-14T08:00:00","ND","ND","ND","ND","ND","ND","ND","ND","ND","ND","ND","ND"],
    [38198,"2014-09-14T09:00:00","ND","ND","ND","ND","ND","ND","ND","ND","ND","ND","ND","ND"],
    [38199,"2014-09-14T10:00:00","ND","ND","ND","ND","ND","ND","ND","ND","ND","ND","ND","ND"],
    [38200,"2014-09-14T11:00:00","ND","ND","ND","ND","ND","ND","ND","ND","ND","ND","ND","ND"],
    [38201,"2014-09-14T12:00:00","ND","ND","ND","ND","ND","ND","ND","ND","ND","ND","ND","ND"],
    [38202,"2014-09-14T13:00:00","ND","ND","ND","ND","ND","ND","ND","ND","ND","ND","ND","ND"],
    [38203,"2014-09-14T14:00:00","ND","ND","ND","ND","ND","ND","ND","ND","ND","ND","ND","ND"],
    [38204,"2014-09-14T15:00:00","ND","ND","ND","ND","ND","ND","ND","ND","ND","ND","ND","ND"],
    [38205,"2014-09-14T16:00:00","ND","ND","ND","ND","ND","ND","ND","ND","ND","ND","ND","ND"],
    [38206,"2014-09-14T17:00:00","ND","ND","ND","ND","ND","ND","ND","ND","ND","ND","ND","ND"],
    [38207,"2014-09-14T18:00:00","ND","ND","ND","ND","ND","ND","ND","ND","ND","ND","ND","ND"],
    [38208,"2014-09-14T19:00:00","ND","ND","ND","ND","ND","ND","ND","ND","ND","ND","ND","ND"],
    [38209,"2014-09-14T20:00:00","ND","ND","ND","ND","ND","ND","ND","ND","ND","ND","ND","ND"],
    [38210,"2014-09-14T21:00:00","ND","ND","ND","ND","ND","ND","ND","ND","ND","ND","ND","ND"],
    [38211,"2014-09-14T22:00:00","ND","ND","ND","ND","ND","ND","ND","ND","ND","ND","ND","ND"],
    [38212,"2014-09-14T23:00:00","ND","ND","ND","ND","ND","ND","ND","ND","ND","ND","ND","ND"],
    [38213,"2014-09-15T00:00:00","ND","ND","ND","ND","ND","ND","ND","ND","ND","ND","ND","ND"],
    [38214,"2014-09-15T01:00:00","ND","ND","ND","ND","ND","ND","ND","ND","ND","ND","ND","ND"],
    [38215,"2014-09-15T02:00:00","ND","ND","ND","ND","ND","ND","ND","ND","ND","ND","ND","ND"],
    [38216,"2014-09-15T03:00:00","ND","ND","ND","ND","ND","ND","ND","ND","ND","ND","ND","ND"],
    [38217,"2014-09-15T04:00:00","ND","ND","ND","ND","ND","ND","ND","ND","ND","ND","ND","ND"],
    [38218,"2014-09-15T05:00:00","ND","ND","ND","ND","ND","ND","ND","ND","ND","ND","ND","ND"],
    [38219,"2014-09-15T06:00:00","ND","ND","ND","ND","ND","ND","ND","ND","ND","ND","ND","ND"],
    [38220,"2014-09-15T07:00:00","ND","ND","ND","ND","ND","ND","ND","ND","ND","ND","ND","ND"],
    [38221,"2014-09-15T08:00:00","ND","ND","ND","ND","ND","ND","ND","ND","ND","ND","ND","ND"],
    [38222,"2014-09-15T09:00:00","ND","ND","ND","ND","ND","ND","ND","ND","ND","ND","ND","ND"],
    [38223,"2014-09-15T10:00:00","ND","ND","ND","ND","ND","ND","ND","ND","ND","ND","ND","ND"],
    [38224,"2014-09-15T11:00:00","26","ND","ND","ND","ND","ND","0.9","104.2","25.5","66.4","374","0"],
    [38225,"2014-09-15T12:00:00","48","ND","ND","ND","ND","ND","1.4","37.8","26.2","64","568.3","0"],
    [38226,"2014-09-15T13:00:00","50","ND","ND","ND","ND","ND","1.6","33.6","26.2","63.7","563","0"],
    [38227,"2014-09-15T14:00:00","48","ND","ND","ND","ND","ND","1.6","33.6","26.2","63.7","563","0"],
    [38228,"2014-09-15T15:00:00","51","ND","ND","ND","ND","ND","1.6","33.6","26.2","63.7","563","0"],
    [38229,"2014-09-15T16:00:00","15","ND","ND","ND","ND","ND","1.6","33.6","26.2","63.7","563","0"],
    [38230,"2014-09-15T17:00:00","13","ND","ND","ND","ND","ND","1.6","33.6","26.2","63.7","563","0"],
    [38231,"2014-09-15T18:00:00","16","ND","ND","ND","ND","ND","1.6","33.6","26.2","63.7","563","0"],
    [38232,"2014-09-15T19:00:00","24","ND","ND","ND","ND","ND","1.6","33.6","26.2","63.7","563","0"],
    [38233,"2014-09-15T20:00:00","46","ND","ND","ND","ND","ND","1.6","33.6","26.2","63.7","563","0"],
    [38234,"2014-09-15T21:00:00","35","ND","ND","ND","ND","ND","1.6","33.6","26.2","63.7","563","0"],
    [38235,"2014-09-15T22:00:00","41","ND","ND","ND","ND","ND","1.6","33.6","26.2","63.7","563","0"],
    [38236,"2014-09-15T23:00:00","52","ND","ND","ND","ND","ND","1.6","33.6","26.2","63.7","563","0"],
    [38237,"2014-09-16T00:00:00","45","ND","ND","ND","ND","ND","1.6","33.6","26.2","63.7","563","0"],
    [38238,"2014-09-16T01:00:00","43","ND","ND","ND","ND","ND","1.6","33.6","26.2","63.7","563","0"],
    [38239,"2014-09-16T02:00:00","38","ND","ND","ND","ND","ND","1.6","33.6","26.2","63.7","563","0"],
    [38240,"2014-09-16T03:00:00","33","ND","ND","ND","ND","ND","1.6","33.6","26.2","63.7","563","0"],
    [38241,"2014-09-16T04:00:00","37","ND","ND","ND","ND","ND","1.6","33.6","26.2","63.7","563","0"],
    [38242,"2014-09-16T05:00:00","49","ND","ND","ND","ND","ND","1.6","33.6","26.2","63.7","563","0"],
    [38243,"2014-09-16T06:00:00","55","ND","ND","ND","ND","ND","1.6","33.6","26.2","63.7","563","0"],
    [38244,"2014-09-16T07:00:00","60","ND","ND","ND","ND","ND","1.6","33.6","26.2","63.7","563","0"],
    [38245,"2014-09-16T08:00:00","46","ND","ND","ND","ND","ND","1.6","33.6","26.2","63.7","563","0"],
    [38246,"2014-09-16T09:00:00","73","ND","ND","ND","ND","ND","1.6","33.6","26.2","63.7","563","0"],
    [38247,"2014-09-16T10:00:00","68","ND","ND","ND","ND","ND","1.6","33.6","26.2","63.7","563","0"],
    [38248,"2014-09-16T11:00:00","42","ND","ND","ND","ND","ND","1.6","33.6","26.2","63.7","563","0"],
    [38249,"2014-09-16T12:00:00","53","ND","ND","ND","ND","ND","1.6","33.6","26.2","63.7","563","0"],
    [38250,"2014-09-16T13:00:00","55","ND","ND","ND","ND","ND","1.6","33.6","26.2","63.7","563","0"],
    [38251,"2014-09-16T14:00:00","71","ND","ND","ND","ND","ND","1.6","33.6","26.2","63.7","563","0"],
    [38252,"2014-09-16T15:00:00","37","ND","ND","ND","ND","ND","1.6","33.6","26.2","63.7","563","0"],
    [38253,"2014-09-16T16:00:00","48","ND","ND","ND","ND","ND","1.6","33.6","26.2","63.7","563","0"],
    [38254,"2014-09-16T17:00:00","36","ND","ND","ND","ND","ND","1.6","33.6","26.2","63.7","563","0"],
    [38255,"2014-09-16T18:00:00","27","ND","ND","ND","ND","ND","1.6","33.6","26.2","63.7","563","0"],
    [38256,"2014-09-16T19:00:00","ND","ND","ND","ND","ND","ND","1.6","34","26.2","63.8","559.7","0"],
    [38257,"2014-09-16T20:00:00","34","ND","ND","ND","ND","ND","2","250.3","23.4","75","0","4.32"],
    [38258,"2014-09-16T21:00:00","45","ND","ND","ND","ND","ND","0.7","80.8","23.9","77.1","0","0"],
    [38259,"2014-09-16T22:00:00","46","ND","ND","ND","ND","ND","1.5","190.8","23.4","74.7","0","0"],
    [38260,"2014-09-16T23:00:00","66","ND","ND","ND","ND","ND","0.3","51.1","23.8","71.5","0","0"],
    [38261,"2014-09-17T00:00:00","45","ND","ND","ND","ND","ND","0.5","151.7","22.8","76.9","0","0"],
    [38262,"2014-09-17T01:00:00","40","ND","ND","ND","ND","ND","0.2","229.5","22.7","76","0","0"],
    [38263,"2014-09-17T02:00:00","46","ND","ND","ND","ND","ND","0.5","195.4","22.2","78.3","0","0"],
    [38264,"2014-09-17T03:00:00","33","ND","ND","ND","ND","ND","0.2","308.4","21.7","79.6","0","0"],
    [38265,"2014-09-17T04:00:00","45","ND","ND","ND","ND","ND","0.4","202","21.4","81.2","0","0"],
    [38266,"2014-09-17T05:00:00","29","ND","ND","ND","ND","ND","0.2","246.8","21.3","80.8","0","0"],
    [38267,"2014-09-17T06:00:00","55","ND","ND","ND","ND","ND","0.2","259.2","21.5","80.2","0","0"],
    [38268,"2014-09-17T07:00:00","86","ND","ND","ND","ND","ND","0.5","40.6","21.6","80.7","27.9","0"],
    [38269,"2014-09-17T08:00:00","99","ND","ND","ND","ND","ND","1.3","36.5","21.4","81.8","103.4","0"],
    [38270,"2014-09-17T09:00:00","72","ND","ND","ND","ND","ND","1","51.9","22.3","77.7","193.1","0"],
    [38271,"2014-09-17T10:00:00","50","ND","ND","ND","ND","ND","0.6","24.9","24.2","67.6","414.6","0"],
    [38272,"2014-09-17T11:00:00","38","ND","ND","ND","ND","ND","0.7","53.4","26.4","58.9","722.4","0"],
    [38273,"2014-09-17T12:00:00","42","ND","ND","ND","ND","ND","1","76.3","27.7","54.9","574.9","0"],
    [38274,"2014-09-17T13:00:00","43","ND","ND","ND","ND","ND","1.3","76.9","28.7","52.3","618","0"],
    [38275,"2014-09-17T14:00:00","38","ND","ND","ND","ND","ND","1.2","65.9","29.2","51.3","362.3","0"],
    [38276,"2014-09-17T15:00:00","46","ND","ND","ND","ND","ND","0.5","16.1","30.6","47","646.2","0"],
    [38277,"2014-09-17T16:00:00","22","ND","ND","ND","ND","ND","2.4","280.9","30.3","43.6","239.7","0"],
    [38278,"2014-09-17T17:00:00","27","ND","ND","ND","ND","ND","3.3","272.7","29","45.8","145.1","0"],
    [38279,"2014-09-17T18:00:00","29","ND","ND","ND","ND","ND","3.9","279","27.8","49.4","39","0"],
    [38280,"2014-09-17T19:00:00","32","ND","ND","ND","ND","ND","0.4","249.9","27.3","49.8","0","0"],
    [38281,"2014-09-17T20:00:00","44","ND","ND","ND","ND","ND","1.2","303.5","26.6","51.5","0","0"],
    [38282,"2014-09-17T21:00:00","57","ND","ND","ND","ND","ND","0.8","111","26.1","54.8","0","0"],
    [38283,"2014-09-17T22:00:00","69","ND","ND","ND","ND","ND","0.2","55.1","25.3","58","0","0"],
    [38284,"2014-09-17T23:00:00","43","ND","ND","ND","ND","ND","0.6","100.3","25.2","57.3","0","0"],
    [38285,"2014-09-18T00:00:00","43","ND","ND","ND","ND","ND","0.7","33.4","23.7","64.5","0","0"],
    [38286,"2014-09-18T01:00:00","50","ND","ND","ND","ND","ND","0.4","155","23.1","68.4","0","0"],
    [38287,"2014-09-18T02:00:00","44","ND","ND","ND","ND","ND","0.7","233.6","22.9","69.7","0","0"],
    [38288,"2014-09-18T03:00:00","39","ND","ND","ND","ND","ND","1.7","193.5","22.9","72.2","0","0"],
    [38289,"2014-09-18T04:00:00","24","ND","ND","ND","ND","ND","1","138.9","22.4","75.6","0","0"],
    [38290,"2014-09-18T05:00:00","26","ND","ND","ND","ND","ND","1.2","143","21.7","80.3","0","0"],
    [38291,"2014-09-18T06:00:00","21","ND","ND","ND","ND","ND","0.8","156","21.3","82.7","0","0"],
    [38292,"2014-09-18T07:00:00","50","ND","ND","ND","ND","ND","0.8","354.4","21.1","84.1","10.5","0"],
    [38293,"2014-09-18T08:00:00","49","ND","ND","ND","ND","ND","1.1","26.1","20.8","88.4","51.1","0.76"],
    [38294,"2014-09-18T09:00:00","64","ND","ND","ND","ND","ND","1.2","32.4","20.8","91.8","103.8","0.51"],
    [38295,"2014-09-18T10:00:00","24","ND","ND","ND","ND","ND","1.1","36.6","21.4","88.7","161.5","0.25"],
    [38296,"2014-09-18T11:00:00","40","ND","ND","ND","ND","ND","1.2","52.4","22.6","81","326.8","0"],
    [38297,"2014-09-18T12:00:00","35","ND","ND","ND","ND","ND","1.3","68.7","23.9","72","455.6","0"],
    [38298,"2014-09-18T13:00:00","23","ND","ND","ND","ND","ND","2","48.4","25.8","61.8","642.9","0"],
    [38299,"2014-09-18T14:00:00","27","ND","ND","ND","ND","ND","1.4","96.8","26.5","57.5","632.7","0"],
    [38300,"2014-09-18T15:00:00","31","ND","ND","ND","ND","ND","1.6","153.1","27.9","50.4","676","0"],
    [38301,"2014-09-18T16:00:00","40","ND","ND","ND","ND","ND","1","140.8","28.2","50","331","0.25"],
    [38302,"2014-09-18T17:00:00","40","ND","ND","ND","ND","ND","1.2","97.7","28","51.6","102.7","0"],
    [38303,"2014-09-18T18:00:00","34","ND","ND","ND","ND","ND","0.8","70.5","27.6","53.9","51.3","0"],
    [38304,"2014-09-18T19:00:00","59","ND","ND","ND","ND","ND","0.3","356.6","26.5","58","0","0"],
    [38305,"2014-09-18T20:00:00","51","ND","ND","ND","ND","ND","1.1","257.9","25.3","61.7","0","0"],
    [38306,"2014-09-18T21:00:00","44","ND","ND","ND","ND","ND","0.4","273.1","24.8","64.1","0","0"],
    [38307,"2014-09-18T22:00:00","60","ND","ND","ND","ND","ND","0.6","89.8","24.6","65.1","0","0"],
    [38308,"2014-09-18T23:00:00","58","ND","ND","ND","ND","ND","0.4","225.3","23.9","69","0","0"],
    [38309,"2014-09-19T00:00:00","54","ND","ND","ND","ND","ND","0.7","140.4","24.1","68.9","0","0"],
    [38310,"2014-09-19T01:00:00","47","ND","ND","ND","ND","ND","0.6","42.1","23.1","74.9","0","0"],
    [38311,"2014-09-19T02:00:00","52","ND","ND","ND","ND","ND","0.4","156.7","22.5","77.5","0","0"],
    [38312,"2014-09-19T03:00:00","57","ND","ND","ND","ND","ND","0.2","163.2","22.6","76.5","0","0"],
    [38313,"2014-09-19T04:00:00","55","ND","ND","ND","ND","ND","0.3","37.7","22.5","77","0","0"],
    [38314,"2014-09-19T05:00:00","56","ND","ND","ND","ND","ND","0.1","13.7","22.2","78.8","0","0"],
    [38315,"2014-09-19T06:00:00","74","ND","ND","ND","ND","ND","0.7","358.9","22.1","79.8","0","0"],
    [38316,"2014-09-19T07:00:00","82","ND","ND","ND","ND","ND","0.2","90.8","22.4","78.9","68.7","0"],
    [38317,"2014-09-19T08:00:00","114","ND","ND","ND","ND","ND","0.4","82.8","23.3","75.1","143.6","0"],
    [38318,"2014-09-19T09:00:00","92","ND","ND","ND","ND","ND","0.2","318.8","24.5","69.9","317.6","0"],
    [38319,"2014-09-19T10:00:00","67","ND","ND","ND","ND","ND","0.7","138.9","26.4","60.1","472.9","0"],
    [38320,"2014-09-19T11:00:00","57","ND","ND","ND","ND","ND","0.8","132.5","27.9","53.7","476","0"],
    [38321,"2014-09-19T12:00:00","71","ND","ND","ND","ND","ND","1.2","100","28.9","51","736.6","0"],
    [38322,"2014-09-19T13:00:00","48","ND","ND","ND","ND","ND","2.2","84","29.9","47.7","766.4","0"],
    [38323,"2014-09-19T14:00:00","42","ND","ND","ND","ND","ND","0.8","67.6","30.5","45.3","433.1","0"],
    [38324,"2014-09-19T15:00:00","35","ND","ND","ND","ND","ND","4.8","268.7","30","46.4","524","0"],
    [38325,"2014-09-19T16:00:00","34","ND","ND","ND","ND","ND","4.3","270","28.9","47.2","345","0"],
    [38326,"2014-09-19T17:00:00","24","ND","ND","ND","ND","ND","4.5","272.1","27.9","48","117.7","0"],
    [38327,"2014-09-19T18:00:00","23","ND","ND","ND","ND","ND","2.9","272.4","27.6","48.1","34.5","0"],
    [38328,"2014-09-19T19:00:00","44","ND","ND","ND","ND","ND","1.1","96.1","27.2","50.8","0","0"],
    [38329,"2014-09-19T20:00:00","44","ND","ND","ND","ND","ND","2.7","196.7","25.6","60.2","0","0"],
    [38330,"2014-09-19T21:00:00","33","ND","ND","ND","ND","ND","2.6","197.2","24.6","66","0","0"],
    [38331,"2014-09-19T22:00:00","41","ND","ND","ND","ND","ND","2.7","171.8","23.9","71.3","0","0"],
    [38332,"2014-09-19T23:00:00","21","ND","ND","ND","ND","ND","1.5","194.6","23","76.1","0","0"],
    [38333,"2014-09-20T00:00:00","24","ND","ND","ND","ND","ND","1.4","169.3","23","75.4","0","0"],
    [38334,"2014-09-20T01:00:00","26","ND","ND","ND","ND","ND","1.8","185.2","22.7","76.9","0","0"],
    [38335,"2014-09-20T02:00:00","21","ND","ND","ND","ND","ND","1.3","174.6","22.9","75.2","0","0"],
    [38336,"2014-09-20T03:00:00","54","ND","ND","ND","ND","ND","1","78.3","22.2","81","0","0"],
    [38337,"2014-09-20T04:00:00","67","ND","ND","ND","ND","ND","0.9","18","21","89.9","0","0"],
    [38338,"2014-09-20T05:00:00","60","ND","ND","ND","ND","ND","0.7","346.5","21.1","89.6","0","0"],
    [38339,"2014-09-20T06:00:00","60","ND","ND","ND","ND","ND","1","43","21.3","88.5","0","0"],
    [38340,"2014-09-20T07:00:00","41","ND","ND","ND","ND","ND","0.9","42.4","20.9","91.7","11","0"],
    [38341,"2014-09-20T08:00:00","57","ND","ND","ND","ND","ND","0.3","299.5","21.1","92.2","23.2","2.54"],
    [38342,"2014-09-20T09:00:00","37","ND","ND","ND","ND","ND","0.6","34.3","20.6","93.8","43","16.51"],
    [38343,"2014-09-20T10:00:00","28","ND","ND","ND","ND","ND","0.4","60.5","20","92.4","108.1","3.56"],
    [38344,"2014-09-20T11:00:00","28","ND","ND","ND","ND","ND","0.8","132.8","20.6","91.6","133.8","4.57"],
    [38345,"2014-09-20T12:00:00","35","ND","ND","ND","ND","ND","0.5","104.2","21.1","90.6","298","0.76"],
    [38346,"2014-09-20T13:00:00","31","ND","ND","ND","ND","ND","0.4","147.3","22.9","75.7","415.7","0"],
    [38347,"2014-09-20T14:00:00","36","ND","ND","ND","ND","ND","0.5","140.2","24","70.3","348.5","0"],
    [38348,"2014-09-20T15:00:00","40","ND","ND","ND","ND","ND","1.5","160.1","24.8","67.5","352.2","0"],
    [38349,"2014-09-20T16:00:00","48","ND","ND","ND","ND","ND","1.7","173.4","25.3","67.5","246.1","0"],
    [38350,"2014-09-20T17:00:00","42","ND","ND","ND","ND","ND","0.7","174.2","25.7","64.2","159.6","0"],
    [38351,"2014-09-20T18:00:00","42","ND","ND","ND","ND","ND","0.4","152.2","25.8","63.5","45.4","0"],
    [38352,"2014-09-20T19:00:00","42","ND","ND","ND","ND","ND","1","145.7","24.7","69.8","0","0"],
    [38353,"2014-09-20T20:00:00","66","ND","ND","ND","ND","ND","0.3","289.1","23.7","76.1","0","0"],
    [38354,"2014-09-20T21:00:00","67","ND","ND","ND","ND","ND","0.5","17.3","23.3","78","0","0"],
    [38355,"2014-09-20T22:00:00","56","ND","ND","ND","ND","ND","0.3","247.1","23.1","78.7","0","0"],
    [38356,"2014-09-20T23:00:00","57","ND","ND","ND","ND","ND","1.2","238.6","22.7","80.7","0","0"],
    [38357,"2014-09-21T00:00:00","30","ND","ND","ND","ND","ND","0.8","238.7","22.8","77.2","0","0"],
    [38358,"2014-09-21T01:00:00","45","ND","ND","ND","ND","ND","0.5","204.3","22.7","78.4","0","0"],
    [38359,"2014-09-21T02:00:00","45","ND","ND","ND","ND","ND","0.4","338.1","22.5","79","0","0"],
    [38360,"2014-09-21T03:00:00","52","ND","ND","ND","ND","ND","0.6","11.4","21.8","83.9","0","0"],
    [38361,"2014-09-21T04:00:00","60","ND","ND","ND","ND","ND","0.2","322.8","21.7","84.5","0","0"],
    [38362,"2014-09-21T05:00:00","59","ND","ND","ND","ND","ND","0.5","30.6","21.5","86.5","0","0"],
    [38363,"2014-09-21T06:00:00","53","ND","ND","ND","ND","ND","0.5","26.1","20.7","91.6","0","0"],
    [38364,"2014-09-21T07:00:00","58","ND","ND","ND","ND","ND","0.2","56.9","20.9","91.2","26.9","0"],
    [38365,"2014-09-21T08:00:00","86","ND","ND","ND","ND","ND","0.4","34.9","21.7","86.9","96.2","0"],
    [38366,"2014-09-21T09:00:00","84","ND","ND","ND","ND","ND","0.3","89.1","23.2","80.4","320.3","0"],
    [38367,"2014-09-21T10:00:00","68","ND","ND","ND","ND","ND","1.5","63","25.6","68.1","657.7","0"],
    [38368,"2014-09-21T11:00:00","34","ND","ND","ND","ND","ND","1.3","77","26.8","61.2","647.5","0"],
    [38369,"2014-09-21T12:00:00","37","ND","ND","ND","ND","ND","1.3","94.7","27.7","58.1","520.5","0"],
    [38370,"2014-09-21T13:00:00","33","ND","ND","ND","ND","ND","0.7","48.8","28.4","54.1","750.1","0"],
    [38371,"2014-09-21T14:00:00","39","ND","ND","ND","ND","ND","0.9","153.9","30.1","47.5","756.2","0"],
    [38372,"2014-09-21T15:00:00","32","ND","ND","ND","ND","ND","0.6","21.9","31.3","43.5","673.6","0"],
    [38373,"2014-09-21T16:00:00","36","ND","ND","ND","ND","ND","1.4","6.6","31.2","44.8","375.6","0"],
    [38374,"2014-09-21T17:00:00","37","ND","ND","ND","ND","ND","1.3","346.2","29.6","48.6","96.1","0"],
    [38375,"2014-09-21T18:00:00","26","ND","ND","ND","ND","ND","2.3","249.2","27.6","55.2","25.6","0"],
    [38376,"2014-09-21T19:00:00","34","ND","ND","ND","ND","ND","1","103","27.3","55.7","0","0"],
    [38377,"2014-09-21T20:00:00","26","ND","ND","ND","ND","ND","0.1","38.7","26.6","57.6","0","0"],
    [38378,"2014-09-21T21:00:00","42","ND","ND","ND","ND","ND","1.1","160.1","26.1","60.2","0","0"],
    [38379,"2014-09-21T22:00:00","43","ND","ND","ND","ND","ND","0.9","166","25.1","65","0","0"],
    [38380,"2014-09-21T23:00:00","29","ND","ND","ND","ND","ND","0.5","138.8","24.7","68.8","0","0"],
    [38381,"2014-09-22T00:00:00","30","ND","ND","ND","ND","ND","0.5","126.3","23.8","73.7","0","0"],
    [38382,"2014-09-22T01:00:00","34","ND","ND","ND","ND","ND","0.3","148.2","23.4","75.8","0","0"],
    [38383,"2014-09-22T02:00:00","36","ND","ND","ND","ND","ND","0.8","137.9","23.4","76.5","0","0"],
    [38384,"2014-09-22T03:00:00","28","ND","ND","ND","ND","ND","0.2","40.7","22.6","79","0","0"],
    [38385,"2014-09-22T04:00:00","33","ND","ND","ND","ND","ND","1.1","166.5","23","77.2","0","0"],
    [38386,"2014-09-22T05:00:00","22","ND","ND","ND","ND","ND","1","161","21.9","87","0","1.52"],
    [38387,"2014-09-22T06:00:00","23","ND","ND","ND","ND","ND","1.8","152","21.5","88.4","0","0.51"],
    [38388,"2014-09-22T07:00:00","18","ND","ND","ND","ND","ND","2.1","166.3","19.6","92.1","6.9","5.08"],
    [38389,"2014-09-22T08:00:00","29","ND","ND","ND","ND","ND","0.8","132.7","19.8","94.8","34.4","6.35"],
    [38390,"2014-09-22T09:00:00","18","ND","ND","ND","ND","ND","1.1","147.9","20.1","93.6","80.2","0.76"],
    [38391,"2014-09-22T10:00:00","25","ND","ND","ND","ND","ND","1.2","200.9","21.2","88.7","385.3","0.25"],
    [38392,"2014-09-22T11:00:00","25","ND","ND","ND","ND","ND","0.8","145.9","24.4","70.9","801.3","0"],
    [38393,"2014-09-22T12:00:00","34","ND","ND","ND","ND","ND","0.8","182.3","26.2","59.5","706.8","0"],
    [38394,"2014-09-22T13:00:00","24","ND","ND","ND","ND","ND","1","117.9","27.6","53.4","761.7","0"],
    [38395,"2014-09-22T14:00:00","29","ND","ND","ND","ND","ND","1.3","66.4","28.4","51.2","472.4","0.25"],
    [38396,"2014-09-22T15:00:00","36","ND","ND","ND","ND","ND","1.8","37.7","26.2","61.5","121.8","0"],
    [38397,"2014-09-22T16:00:00","43","ND","ND","ND","ND","ND","0.9","32.5","26.8","58.1","263.5","0"],
    [38398,"2014-09-22T17:00:00","35","ND","ND","ND","ND","ND","1.3","78.9","24.4","70.6","34.9","0"],
    [38399,"2014-09-22T18:00:00","41","ND","ND","ND","ND","ND","3.1","186.4","22.4","76.9","8.7","1.02"],
    [38400,"2014-09-22T19:00:00","17","ND","ND","ND","ND","ND","2","194.2","20.8","86.8","0","7.87"],
    [38401,"2014-09-22T20:00:00","19","ND","ND","ND","ND","ND","1.4","152.3","20.3","89.8","0","3.56"],
    [38402,"2014-09-22T21:00:00","19","ND","ND","ND","ND","ND","0.6","132.5","20.3","88.4","0","2.54"],
    [38403,"2014-09-22T22:00:00","19","ND","ND","ND","ND","ND","0.2","262.8","20","91.2","0","0.25"],
    [38404,"2014-09-22T23:00:00","20","ND","ND","ND","ND","ND","0.4","246.3","20.1","92","0","0"],
    [38405,"2014-09-23T00:00:00","27","ND","ND","ND","ND","ND","1.1","125.5","20","92.2","0","0.25"],
    [38406,"2014-09-23T01:00:00","24","ND","ND","ND","ND","ND","0.4","71.4","19.5","93.9","0","0"],
    [38407,"2014-09-23T02:00:00","38","ND","ND","ND","ND","ND","0.5","40.2","19.3","93.7","0","0"],
    [38408,"2014-09-23T03:00:00","34","ND","ND","ND","ND","ND","0.1","255.4","19.3","92.7","0","0"],
    [38409,"2014-09-23T04:00:00","36","ND","ND","ND","ND","ND","0.1","338.5","19.1","93.7","0","0"],
    [38410,"2014-09-23T05:00:00","48","ND","ND","ND","ND","ND","0.4","278.5","19","92.4","0","0"],
    [38411,"2014-09-23T06:00:00","49","ND","ND","ND","ND","ND","0.3","190.2","19.1","92.3","0","0"],
    [38412,"2014-09-23T07:00:00","69","ND","ND","ND","ND","ND","0.8","82.8","19","93.8","22","0"],
    [38413,"2014-09-23T08:00:00","85","ND","ND","ND","ND","ND","0.7","44.6","18.6","96.3","37.9","0"],
    [38414,"2014-09-23T09:00:00","102","ND","ND","ND","ND","ND","0.7","137.5","19.4","93.3","119.2","0"],
    [38415,"2014-09-23T10:00:00","84","ND","ND","ND","ND","ND","1.6","116.3","21","83.6","337.4","0"],
    [38416,"2014-09-23T11:00:00","85","ND","ND","ND","ND","ND","1.2","138.9","22.8","73.8","726.8","0"],
    [38417,"2014-09-23T12:00:00","82","ND","ND","ND","ND","ND","1.1","94.3","24.8","65.7","835.8","0"],
    [38418,"2014-09-23T13:00:00","67","ND","ND","ND","ND","ND","0.5","114.5","26.9","57.5","824.7","0"],
    [38419,"2014-09-23T14:00:00","55","ND","ND","ND","ND","ND","1.2","57.3","28.3","52.6","771.2","0"],
    [38420,"2014-09-23T15:00:00","48","ND","ND","ND","ND","ND","1","58.3","29.3","51.7","492.8","0"],
    [38421,"2014-09-23T16:00:00","43","ND","ND","ND","ND","ND","0.2","34.2","29.5","50.7","264.9","0"],
    [38422,"2014-09-23T17:00:00","35","ND","ND","ND","ND","ND","2.8","262.4","28.7","51.2","159.3","0"],
    [38423,"2014-09-23T18:00:00","24","ND","ND","ND","ND","ND","2.8","249.3","27.8","53.9","51.1","0"],
    [38424,"2014-09-23T19:00:00","37","ND","ND","ND","ND","ND","0.8","192.5","27.2","56.3","0","0"],
    [38425,"2014-09-23T20:00:00","32","ND","ND","ND","ND","ND","0.4","187.2","26.8","57.9","0","0"],
    [38426,"2014-09-23T21:00:00","58","ND","ND","ND","ND","ND","0.3","74.5","26.2","61.2","0","0"],
    [38427,"2014-09-23T22:00:00","43","ND","ND","ND","ND","ND","1.2","112.2","25.9","62.9","0","0"],
    [38428,"2014-09-23T23:00:00","45","ND","ND","ND","ND","ND","0.5","154.4","24.9","68.3","0","0"],
    [38429,"2014-09-24T00:00:00","29","ND","ND","ND","ND","ND","0.3","148.6","24.3","70.9","0","0"],
    [38430,"2014-09-24T01:00:00","35","ND","ND","ND","ND","ND","0.5","159.6","23.5","74.7","0","0"],
    [38431,"2014-09-24T02:00:00","40","ND","ND","ND","ND","ND","0.6","123.1","22.8","77.3","0","0"],
    [38432,"2014-09-24T03:00:00","39","ND","ND","ND","ND","ND","0.5","24.7","22.3","81.1","0","0"],
    [38433,"2014-09-24T04:00:00","53","ND","ND","ND","ND","ND","0.6","1","22.3","81.8","0","0"],
    [38434,"2014-09-24T05:00:00","57","ND","ND","ND","ND","ND","0.6","18.9","21.6","86.2","0","0.25"],
    [38435,"2014-09-24T06:00:00","48","ND","ND","ND","ND","ND","0.6","30.5","21","91.9","0","0.25"],
    [38436,"2014-09-24T07:00:00","43","ND","ND","ND","ND","ND","0.2","194.6","21","92.1","23.5","0"],
    [38437,"2014-09-24T08:00:00","90","ND","ND","ND","ND","ND","0.2","311.7","22.6","84.4","220.4","0"],
    [38438,"2014-09-24T09:00:00","71","ND","ND","ND","ND","ND","0.8","82.7","25.1","70.4","469.5","0"],
    [38439,"2014-09-24T10:00:00","35","ND","ND","ND","ND","ND","1.5","91.2","26.6","61.2","659.3","0"],
    [38440,"2014-09-24T11:00:00","26","ND","ND","ND","ND","ND","1","100.1","27.9","55.3","710.7","0"],
    [38441,"2014-09-24T12:00:00","24","ND","ND","ND","ND","ND","1","107.8","29.2","51","877.5","0"],
    [38442,"2014-09-24T13:00:00","43","ND","ND","ND","ND","ND","1.5","86.7","30.1","49.5","725","0"],
    [38443,"2014-09-24T14:00:00","24","ND","ND","ND","ND","ND","1.6","28.7","30.8","48.3","696.3","0"],
    [38444,"2014-09-24T15:00:00","30","ND","ND","ND","ND","ND","2","67.8","31","47.6","474.8","0"],
    [38445,"2014-09-24T16:00:00","31","ND","ND","ND","ND","ND","1","44.3","30.9","47.3","248.3","0"],
    [38446,"2014-09-24T17:00:00","31","ND","ND","ND","ND","ND","0.7","275.6","30.9","47","203.6","0"],
    [38447,"2014-09-24T18:00:00","28","ND","ND","ND","ND","ND","1.2","304.6","29.9","49.7","58.2","0"],
    [38448,"2014-09-24T19:00:00","36","ND","ND","ND","ND","ND","0.5","237.5","28.4","52.5","0","0"],
    [38449,"2014-09-24T20:00:00","55","ND","ND","ND","ND","ND","0.2","129.2","27.8","53.7","0","0"],
    [38450,"2014-09-24T21:00:00","41","ND","ND","ND","ND","ND","0.9","132.5","26.8","58.8","0","0"],
    [38451,"2014-09-24T22:00:00","57","ND","ND","ND","ND","ND","0.4","94","25.4","67.3","0","0"],
    [38452,"2014-09-24T23:00:00","64","ND","ND","ND","ND","ND","0.2","198.1","25.2","68.7","0","0"],
    [38453,"2014-09-25T00:00:00","64","ND","ND","ND","ND","ND","0.1","111.9","24.6","71.4","0","0"],
    [38454,"2014-09-25T01:00:00","45","ND","ND","ND","ND","ND","1.1","165.7","24","74.3","0","0"],
    [38455,"2014-09-25T02:00:00","49","ND","ND","ND","ND","ND","0.5","160.8","23.8","76.1","0","0"],
    [38456,"2014-09-25T03:00:00","56","ND","ND","ND","ND","ND","0.4","326","23.6","76.5","0","0"],
    [38457,"2014-09-25T04:00:00","61","ND","ND","ND","ND","ND","0.1","114","23.4","78.8","0","0"],
    [38458,"2014-09-25T05:00:00","63","ND","ND","ND","ND","ND","0.5","29","22.7","82.1","0","0"],
    [38459,"2014-09-25T06:00:00","67","ND","ND","ND","ND","ND","0.2","198.1","22.8","82.3","0","0"],
    [38460,"2014-09-25T07:00:00","74","ND","ND","ND","ND","ND","0.5","54","23.3","77.8","10.7","0"],
    [38461,"2014-09-25T08:00:00","48","ND","ND","ND","ND","ND","0.7","331.6","21.2","90","13.3","24.38"],
    [38462,"2014-09-25T09:00:00","26","ND","ND","ND","ND","ND","0.4","257.3","21.5","90.4","84.4","0"],
    [38463,"2014-09-25T10:00:00","48","ND","ND","ND","ND","ND","0.8","165.7","23.9","76.8","297.5","0"],
    [38464,"2014-09-25T11:00:00","35","ND","ND","ND","ND","ND","1.3","107.2","26.1","62.6","432.7","0"],
    [38465,"2014-09-25T12:00:00","38","ND","ND","ND","ND","ND","0.7","119.8","27.2","58.6","637.1","0"],
    [38466,"2014-09-25T13:00:00","30","ND","ND","ND","ND","ND","1","8.4","28.7","50","676.6","0"],
    [38467,"2014-09-25T14:00:00","23","ND","ND","ND","ND","ND","3.1","283.5","28.7","48.4","521.8","0"],
    [38468,"2014-09-25T15:00:00","18","ND","ND","ND","ND","ND","3","284.7","29.2","44.9","507.5","0"],
    [38469,"2014-09-25T16:00:00","17","ND","ND","ND","ND","ND","2.3","281.8","29.5","44.4","377.4","0"],
    [38470,"2014-09-25T17:00:00","20","ND","ND","ND","ND","ND","2.1","287.9","27.8","48.2","120.4","0"],
    [38471,"2014-09-25T18:00:00","40","ND","ND","ND","ND","ND","0.5","107.8","27.1","51.7","37.8","0"],
    [38472,"2014-09-25T19:00:00","76","ND","ND","ND","ND","ND","0.5","327.1","26","56.7","0","0"],
    [38473,"2014-09-25T20:00:00","76","ND","ND","ND","ND","ND","0.4","214","25.3","59.4","0","0"],
    [38474,"2014-09-25T21:00:00","49","ND","ND","ND","ND","ND","1","104","24.5","61.4","0","0"],
    [38475,"2014-09-25T22:00:00","53","ND","ND","ND","ND","ND","1","271","23.4","65.8","0","0"],
    [38476,"2014-09-25T23:00:00","46","ND","ND","ND","ND","ND","0.7","271.3","22.6","72","0","0"],
    [38477,"2014-09-26T00:00:00","29","ND","ND","ND","ND","ND","0.3","290.8","22","73.8","0","0"],
    [38478,"2014-09-26T01:00:00","57","ND","ND","ND","ND","ND","0.4","21.2","22","70.5","0","0"],
    [38479,"2014-09-26T02:00:00","66","ND","ND","ND","ND","ND","0.6","337","20.6","75.4","0","0"],
    [38480,"2014-09-26T03:00:00","69","ND","ND","ND","ND","ND","0.3","293.4","20.4","77.3","0","0"],
    [38481,"2014-09-26T04:00:00","50","ND","ND","ND","ND","ND","0.2","256","20.2","78.6","0","0"],
    [38482,"2014-09-26T05:00:00","56","ND","ND","ND","ND","ND","0.4","238.4","20.1","79.7","0","0"],
    [38483,"2014-09-26T06:00:00","85","ND","ND","ND","ND","ND","0.2","236.4","20.2","78.9","0","0"],
    [38484,"2014-09-26T07:00:00","122","ND","ND","ND","ND","ND","0.3","343.7","20.2","78.4","58.6","0"],
    [38485,"2014-09-26T08:00:00","152","ND","ND","ND","ND","ND","0.5","39","22.3","72.3","224.7","0"],
    [38486,"2014-09-26T09:00:00","94","ND","ND","ND","ND","ND","0.7","82.9","24.7","62.2","440.5","0"],
    [38487,"2014-09-26T10:00:00","64","ND","ND","ND","ND","ND","1.9","122.9","26.1","56.9","540.2","0"],
    [38488,"2014-09-26T11:00:00","55","ND","ND","ND","ND","ND","0.9","113.4","27.6","51.7","715.7","0"],
    [38489,"2014-09-26T12:00:00","59","ND","ND","ND","ND","ND","1","75.4","28.8","48.5","831.5","0"],
    [38490,"2014-09-26T13:00:00","63","ND","ND","ND","ND","ND","0.7","352.7","30.4","45","760.8","0.25"],
    [38491,"2014-09-26T14:00:00","46","ND","ND","ND","ND","ND","1.3","336.5","30.8","42.8","561.7","0"],
    [38492,"2014-09-26T15:00:00","25","ND","ND","ND","ND","ND","2.3","283.5","31.3","40.1","588.3","0"],
    [38493,"2014-09-26T16:00:00","16","ND","ND","ND","ND","ND","2.5","273.8","31.4","41.1","469","0"],
    [38494,"2014-09-26T17:00:00","16","ND","ND","ND","ND","ND","3.1","283.2","30.2","43.6","260.1","0"],
    [38495,"2014-09-26T18:00:00","38","ND","ND","ND","ND","ND","1.1","298.2","29.1","45.3","64.1","0"],
    [38496,"2014-09-26T19:00:00","58","ND","ND","ND","ND","ND","0.3","258.8","28","47.9","0","0"],
    [38497,"2014-09-26T20:00:00","82","ND","ND","ND","ND","ND","0.2","287.5","26.9","52.2","0","0"],
    [38498,"2014-09-26T21:00:00","57","ND","ND","ND","ND","ND","0.3","118.8","26.1","54.6","0","0"],
    [38499,"2014-09-26T22:00:00","74","ND","ND","ND","ND","ND","1","137.1","25.5","60.1","0","0"],
    [38500,"2014-09-26T23:00:00","101","ND","ND","ND","ND","ND","0.4","3.8","24.6","64.8","0","0"],
    [38501,"2014-09-27T00:00:00","54","ND","ND","ND","ND","ND","0.9","167.9","23.7","69.5","0","0"],
    [38502,"2014-09-27T01:00:00","63","ND","ND","ND","ND","ND","0.7","141.2","22.9","73.2","0","0"],
    [38503,"2014-09-27T02:00:00","54","ND","ND","ND","ND","ND","0.4","103.8","22.4","76","0","0"],
    [38504,"2014-09-27T03:00:00","68","ND","ND","ND","ND","ND","0.6","218.8","22","78.1","0","0"],
    [38505,"2014-09-27T04:00:00","58","ND","ND","ND","ND","ND","0.3","263.3","22.1","76.5","0","0"],
    [38506,"2014-09-27T05:00:00","89","ND","ND","ND","ND","ND","0.6","17.7","21.8","79.3","0","0"],
    [38507,"2014-09-27T06:00:00","70","ND","ND","ND","ND","ND","0.2","259.8","21.6","80","0","0"],
    [38508,"2014-09-27T07:00:00","105","ND","ND","ND","ND","ND","0.5","55.4","21.9","78.8","51.7","0"],
    [38509,"2014-09-27T08:00:00","103","ND","ND","ND","ND","ND","0.1","106","23.8","70.7","261.2","0"],
    [38510,"2014-09-27T09:00:00","123","ND","ND","ND","ND","ND","1.5","101.2","25","67.6","430.6","0"],
    [38511,"2014-09-27T10:00:00","86","ND","ND","ND","ND","ND","0.7","130.3","26.5","60.3","573.5","0"],
    [38512,"2014-09-27T11:00:00","68","ND","ND","ND","ND","ND","1","144.2","28.3","53.8","680.4","0"],
    [38513,"2014-09-27T12:00:00","65","ND","ND","ND","ND","ND","1.3","88.8","29.5","50.1","824.8","0"],
    [38514,"2014-09-27T13:00:00","80","ND","ND","ND","ND","ND","1.3","11.8","30.8","46","804.4","0"],
    [38515,"2014-09-27T14:00:00","68","ND","ND","ND","ND","ND","1.7","19.9","31.5","45","676.8","0"],
    [38516,"2014-09-27T15:00:00","47","ND","ND","ND","ND","ND","3.8","278.9","31.3","44.9","632.8","0"],
    [38517,"2014-09-27T16:00:00","28","ND","ND","ND","ND","ND","4.1","272.3","31","44.1","456.8","0"],
    [38518,"2014-09-27T17:00:00","22","ND","ND","ND","ND","ND","3.3","264.9","30.5","44","257.3","0"],
    [38519,"2014-09-27T18:00:00","31","ND","ND","ND","ND","ND","2.8","267.5","29.6","45.1","51","0"],
    [38520,"2014-09-27T19:00:00","27","ND","ND","ND","ND","ND","0.7","126.5","28.8","49.8","0","0"],
    [38521,"2014-09-27T20:00:00","26","ND","ND","ND","ND","ND","1.3","224.5","28","52.8","0","0"],
    [38522,"2014-09-27T21:00:00","29","ND","ND","ND","ND","ND","2","217.5","27.3","54.9","0","0"],
    [38523,"2014-09-27T22:00:00","54","ND","ND","ND","ND","ND","1","27.2","25.1","70.9","0","0"],
    [38524,"2014-09-27T23:00:00","34","ND","ND","ND","ND","ND","1.1","30.9","23.7","79.3","0","0"],
    [38525,"2014-09-28T00:00:00","29","ND","ND","ND","ND","ND","0.6","48.6","22.6","86.5","0","2.03"],
    [38526,"2014-09-28T01:00:00","38","ND","ND","ND","ND","ND","0.4","334.9","22.5","89.8","0","0"],
    [38527,"2014-09-28T02:00:00","27","ND","ND","ND","ND","ND","0.4","291.2","22.1","89.9","0","0"],
    [38528,"2014-09-28T03:00:00","22","ND","ND","ND","ND","ND","0.3","234.4","21.8","89.2","0","0"],
    [38529,"2014-09-28T04:00:00","30","ND","ND","ND","ND","ND","0.3","313.4","21.3","88.8","0","0"],
    [38530,"2014-09-28T05:00:00","30","ND","ND","ND","ND","ND","0.4","282","21","88.9","0","0"],
    [38531,"2014-09-28T06:00:00","42","ND","ND","ND","ND","ND","0.2","44.3","21","86.7","0","0"],
    [38532,"2014-09-28T07:00:00","64","ND","ND","ND","ND","ND","0.9","29.2","20.3","88.7","38.8","0.25"],
    [38533,"2014-09-28T08:00:00","64","ND","ND","ND","ND","ND","0.5","329.1","22.2","83.3","251.6","0"],
    [38534,"2014-09-28T09:00:00","39","ND","ND","ND","ND","ND","0.9","73","24.9","70.5","478.7","0"],
    [38535,"2014-09-28T10:00:00","42","ND","ND","ND","ND","ND","1.3","52.4","26.3","64.9","623.9","0"],
    [38536,"2014-09-28T11:00:00","41","ND","ND","ND","ND","ND","1.3","45","28","58.9","770.8","0"],
    [38537,"2014-09-28T12:00:00","52","ND","ND","ND","ND","ND","1.2","48.6","29.6","53.2","837.3","0"],
    [38538,"2014-09-28T13:00:00","47","ND","ND","ND","ND","ND","1.3","52.2","31.2","48.4","750.7","0"],
    [38539,"2014-09-28T14:00:00","20","ND","ND","ND","ND","ND","1.5","330","32.1","40.4","689.6","0"],
    [38540,"2014-09-28T15:00:00","9","ND","ND","ND","ND","ND","3.7","267.5","32.1","40.2","653.8","0"],
    [38541,"2014-09-28T16:00:00","13","ND","ND","ND","ND","ND","3.7","275.2","31.8","41.4","465.4","0"],
    [38542,"2014-09-28T17:00:00","26","ND","ND","ND","ND","ND","3.2","260.9","30.7","43.6","187","0"],
    [38543,"2014-09-28T18:00:00","22","ND","ND","ND","ND","ND","0.5","253.8","29.6","45.8","22.7","0"],
    [38544,"2014-09-28T19:00:00","26","ND","ND","ND","ND","ND","0.4","85.8","28.8","48.4","0","0"],
    [38545,"2014-09-28T20:00:00","40","ND","ND","ND","ND","ND","1.1","129.9","28.4","50.2","0","0"],
    [38546,"2014-09-28T21:00:00","35","ND","ND","ND","ND","ND","1.1","134.2","27.3","56.7","0","0"],
    [38547,"2014-09-28T22:00:00","38","ND","ND","ND","ND","ND","0.5","198.9","26.8","58.8","0","0"],
    [38548,"2014-09-28T23:00:00","20","ND","ND","ND","ND","ND","0.6","89.5","26","63.5","0","0"],
    [38549,"2014-09-29T00:00:00","37","ND","ND","ND","ND","ND","0.8","173.3","25.1","67.7","0","0"],
    [38550,"2014-09-29T01:00:00","42","ND","ND","ND","ND","ND","0.7","152.6","24.8","69.1","0","0"],
    [38551,"2014-09-29T02:00:00","48","ND","ND","ND","ND","ND","0.5","65.8","24.7","69.6","0","0"],
    [38552,"2014-09-29T03:00:00","56","ND","ND","ND","ND","ND","0.3","120.2","23.7","74.5","0","0"],
    [38553,"2014-09-29T04:00:00","68","ND","ND","ND","ND","ND","0.2","310.9","23.3","77","0","0"],
    [38554,"2014-09-29T05:00:00","50","ND","ND","ND","ND","ND","0.2","132.8","23","77.8","0","0"],
    [38555,"2014-09-29T06:00:00","59","ND","ND","ND","ND","ND","0.3","228.6","22.5","79.5","0","0"],
    [38556,"2014-09-29T07:00:00","65","ND","ND","ND","ND","ND","0.6","256.7","22.7","78.9","78.7","0"],
    [38557,"2014-09-29T08:00:00","68","ND","ND","ND","ND","ND","1.4","134.6","25.1","66.4","261","0"],
    [38558,"2014-09-29T09:00:00","73","ND","ND","ND","ND","ND","1.3","116.7","26.2","61.8","435.5","0"],
    [38559,"2014-09-29T10:00:00","39","ND","ND","ND","ND","ND","1.1","110.3","27.7","55.7","624","0"],
    [38560,"2014-09-29T11:00:00","47","ND","ND","ND","ND","ND","1.2","91.6","29.3","51.2","776.2","0"],
    [38561,"2014-09-29T12:00:00","49","ND","ND","ND","ND","ND","0.8","118.3","30.6","46.5","847.9","0"],
    [38562,"2014-09-29T13:00:00","50","ND","ND","ND","ND","ND","1.1","95.6","32.1","40.6","851.4","0"],
    [38563,"2014-09-29T14:00:00","40","ND","ND","ND","ND","ND","0.9","35.1","33.2","37.1","641.6","0"],
    [38564,"2014-09-29T15:00:00","41","ND","ND","ND","ND","ND","2.8","264.5","31.4","43.2","283.6","0"],
    [38565,"2014-09-29T16:00:00","33","ND","ND","ND","ND","ND","3.6","251.1","30.7","43.6","307.6","0"],
    [38566,"2014-09-29T17:00:00","27","ND","ND","ND","ND","ND","2.2","254","30.5","42.3","193.6","0"],
    [38567,"2014-09-29T18:00:00","28","ND","ND","ND","ND","ND","1","245.8","29.5","44.3","35.2","0"],
    [38568,"2014-09-29T19:00:00","28","ND","ND","ND","ND","ND","1","238.2","28.1","47.7","0","0"],
    [38569,"2014-09-29T20:00:00","31","ND","ND","ND","ND","ND","0.4","92.5","27.4","49.3","0","0"],
    [38570,"2014-09-29T21:00:00","58","ND","ND","ND","ND","ND","0.5","326.1","26.7","53.4","0","0"],
    [38571,"2014-09-29T22:00:00","50","ND","ND","ND","ND","ND","0.8","122.3","25.1","62.5","0","0"],
    [38572,"2014-09-29T23:00:00","58","ND","ND","ND","ND","ND","0.8","168","24.8","63.4","0","0"],
    [38573,"2014-09-30T00:00:00","50","ND","ND","ND","ND","ND","0.9","156.1","24.1","67.7","0","0"],
    [38574,"2014-09-30T01:00:00","38","ND","ND","ND","ND","ND","0.3","323.5","22.8","71.8","0","0"],
    [38575,"2014-09-30T02:00:00","51","ND","ND","ND","ND","ND","0.3","352.1","22","75.7","0","0"],
    [38576,"2014-09-30T03:00:00","45","ND","ND","ND","ND","ND","0.3","308","21.6","76.6","0","0"],
    [38577,"2014-09-30T04:00:00","33","ND","ND","ND","ND","ND","0.1","268.9","21.5","76.6","0","0"],
    [38578,"2014-09-30T05:00:00","59","ND","ND","ND","ND","ND","0.2","148.4","21.2","79.2","0","0"],
    [38579,"2014-09-30T06:00:00","87","ND","ND","ND","ND","ND","0.8","351.3","20.1","83.7","0","0"],
    [38580,"2014-09-30T07:00:00","77","ND","ND","ND","ND","ND","0.1","36.7","20.7","82.3","67.3","0"],
    [38581,"2014-09-30T08:00:00","114","ND","ND","ND","ND","ND","0.8","66.7","22.5","76","278.3","0"],
    [38582,"2014-09-30T09:00:00","102","ND","ND","ND","ND","ND","0.8","94.7","24.5","65.6","450.7","0"],
    [38583,"2014-09-30T10:00:00","88","ND","ND","ND","ND","ND","1.1","112.2","26.6","59.1","578.3","0"],
    [38584,"2014-09-30T11:00:00","49","ND","ND","ND","ND","ND","1.1","91.5","28","54","741.2","0"],
    [38585,"2014-09-30T12:00:00","47","ND","ND","ND","ND","ND","1","127.3","29.8","47","803.2","0"],
    [38586,"2014-09-30T13:00:00","52","ND","ND","ND","ND","ND","0.5","30.3","31.1","40.3","651.7","0"],
    [38587,"2014-09-30T14:00:00","47","ND","ND","ND","ND","ND","1.2","249","33.3","30.1","793.9","0"],
    [38588,"2014-09-30T15:00:00","30","ND","ND","ND","ND","ND","1.5","151.6","34.8","23.4","669.2","0"],
    [38589,"2014-09-30T16:00:00","38","ND","ND","ND","ND","ND","1.8","252.4","34","28.1","462.3","0"],
    [38590,"2014-09-30T17:00:00","26","ND","ND","ND","ND","ND","3.4","265.7","32.3","34.9","256","0"],
    [38591,"2014-09-30T18:00:00","35","ND","ND","ND","ND","ND","1.1","250.3","31.1","36.2","55","0"],
    [38592,"2014-09-30T19:00:00","ND","ND","ND","ND","ND","ND","0.9","125.2","29.5","42.2","0","0"],
    [38593,"2014-09-30T20:00:00","58","ND","ND","ND","ND","ND","0.3","156.4","28.7","45","0","0"],
    [38594,"2014-09-30T21:00:00","71","ND","ND","ND","ND","ND","1.2","95.4","27.9","50.2","0","0"],
    [38595,"2014-09-30T22:00:00","70","ND","ND","ND","ND","ND","0.4","50.5","26.1","59.5","0","0"],
    [38596,"2014-09-30T23:00:00","62","ND","ND","ND","ND","ND","0.5","134","25","65.2","0","0"],
    [38597,"2014-10-01T00:00:00","56","ND","ND","ND","ND","ND","0.7","136.4","24.2","69.2","0","0"],
    [38598,"2014-10-01T01:00:00","69","ND","ND","ND","ND","ND","0.4","165.3","23.6","72","0","0"],
    [38599,"2014-10-01T02:00:00","58","ND","ND","ND","ND","ND","0.2","326.1","23","73.7","0","0"],
    [38600,"2014-10-01T03:00:00","69","ND","ND","ND","ND","ND","0.6","155.6","23","73.1","0","0"],
    [38601,"2014-10-01T04:00:00","64","ND","ND","ND","ND","ND","0.2","304.5","22.4","76","0","0"],
    [38602,"2014-10-01T05:00:00","79","ND","ND","ND","ND","ND","0.3","1.3","21.8","78.7","0","0"],
    [38603,"2014-10-01T06:00:00","76","ND","ND","ND","ND","ND","0.2","273.8","21.4","79.5","0","0"],
    [38604,"2014-10-01T07:00:00","100","ND","ND","ND","ND","ND","0.2","204","21.8","77.3","57.3","0"],
    [38605,"2014-10-01T08:00:00","140","ND","ND","ND","ND","ND","0.9","54.6","24.2","68","243.4","0"],
    [38606,"2014-10-01T09:00:00","117","ND","ND","ND","ND","ND","0.9","123.9","25.6","61.1","446","0"],
    [38607,"2014-10-01T10:00:00","78","ND","ND","ND","ND","ND","1","92","27.4","54.9","617.8","0"],
    [38608,"2014-10-01T11:00:00","65","ND","ND","ND","ND","ND","1.3","81.9","28.8","51.8","725.7","0"],
    [38609,"2014-10-01T12:00:00","73","ND","ND","ND","ND","ND","1.5","90.4","30.2","48.9","815.6","0"],
    [38610,"2014-10-01T13:00:00","63","ND","ND","ND","ND","ND","1.4","69.5","32.3","40.3","912.1","0"],
    [38611,"2014-10-01T14:00:00","30","ND","ND","ND","ND","ND","1.2","116","33","31.6","670.7","0"],
    [38612,"2014-10-01T15:00:00","31","ND","ND","ND","ND","ND","1.4","114.2","33.5","31.8","659.2","0"],
    [38613,"2014-10-01T16:00:00","38","ND","ND","ND","ND","ND","1.2","128.2","33.6","29.4","402","0"],
    [38614,"2014-10-01T17:00:00","42","ND","ND","ND","ND","ND","2.4","288","32.2","38.2","227.9","0"],
    [38615,"2014-10-01T18:00:00","50","ND","ND","ND","ND","ND","2.3","251.3","30.7","41.8","48.9","0"],
    [38616,"2014-10-01T19:00:00","77","ND","ND","ND","ND","ND","0.7","235.5","29.6","41.9","0","0"],
    [38617,"2014-10-01T20:00:00","71","ND","ND","ND","ND","ND","0.3","250.8","28.2","46.3","0","0"],
    [38618,"2014-10-01T21:00:00","71","ND","ND","ND","ND","ND","0.3","240.1","27.4","48","0","0"],
    [38619,"2014-10-01T22:00:00","137","ND","ND","ND","ND","ND","1","156.6","26.9","53.8","0","0"],
    [38620,"2014-10-01T23:00:00","114","ND","ND","ND","ND","ND","0.3","63.2","25.6","62.5","0","0"],
    [38621,"2014-10-02T00:00:00","82","ND","ND","ND","ND","ND","1","157","24.7","67.6","0","0"],
    [38622,"2014-10-02T01:00:00","67","ND","ND","ND","ND","ND","1.1","143.9","24.6","67.2","0","0"],
    [38623,"2014-10-02T02:00:00","80","ND","ND","ND","ND","ND","1.1","156.1","24.6","64.7","0","0"],
    [38624,"2014-10-02T03:00:00","83","ND","ND","ND","ND","ND","0.8","197.5","24.5","65.2","0","0"],
    [38625,"2014-10-02T04:00:00","74","ND","ND","ND","ND","ND","0.5","257.2","23.7","67.4","0","0"],
    [38626,"2014-10-02T05:00:00","68","ND","ND","ND","ND","ND","0.2","319.6","23.4","68","0","0"],
    [38627,"2014-10-02T06:00:00","99","ND","ND","ND","ND","ND","0.5","91","23.5","70.1","0","0"],
    [38628,"2014-10-02T07:00:00","101","ND","ND","ND","ND","ND","0.2","269","23.4","69.8","33.5","0"],
    [38629,"2014-10-02T08:00:00","153","ND","ND","ND","ND","ND","0.5","17.1","24.4","65.6","90.2","0"],
    [38630,"2014-10-02T09:00:00","153","ND","ND","ND","ND","ND","1","48.5","24.6","65.4","136.5","0"],
    [38631,"2014-10-02T10:00:00","115","ND","ND","ND","ND","ND","0.9","38.5","25.7","60.7","344.2","0"],
    [38632,"2014-10-02T11:00:00","78","ND","ND","ND","ND","ND","1.6","102.5","27.6","57","593.1","0"],
    [38633,"2014-10-02T12:00:00","78","ND","ND","ND","ND","ND","0.7","104.6","29","53.8","716.4","0"],
    [38634,"2014-10-02T13:00:00","69","ND","ND","ND","ND","ND","1.9","152.2","30.1","49.6","466.6","0"],
    [38635,"2014-10-02T14:00:00","67","ND","ND","ND","ND","ND","0.7","95.4","30.1","50.9","359.8","0"],
    [38636,"2014-10-02T15:00:00","61","ND","ND","ND","ND","ND","0.5","3.9","29.9","51","206.1","0"],
    [38637,"2014-10-02T16:00:00","36","ND","ND","ND","ND","ND","2.6","255.8","29.7","48.6","219.4","0"],
    [38638,"2014-10-02T17:00:00","41","ND","ND","ND","ND","ND","2.3","267.8","29.2","48.8","92.6","0"],
    [38639,"2014-10-02T18:00:00","34","ND","ND","ND","ND","ND","1.9","261.1","28.6","48","25.7","0"],
    [38640,"2014-10-02T19:00:00","42","ND","ND","ND","ND","ND","0.6","214.5","27.9","49.7","0","0"],
    [38641,"2014-10-02T20:00:00","60","ND","ND","ND","ND","ND","0.9","120","27.3","51.8","0","0"],
    [38642,"2014-10-02T21:00:00","74","ND","ND","ND","ND","ND","0.2","102","26.5","55","0","0"],
    [38643,"2014-10-02T22:00:00","62","ND","ND","ND","ND","ND","0.8","94.1","25","64.1","0","0"],
    [38644,"2014-10-02T23:00:00","68","ND","ND","ND","ND","ND","0.8","155.4","24","69.7","0","0"],
    [38645,"2014-10-03T00:00:00","68","ND","ND","ND","ND","ND","0.2","53","24.3","68.8","0","0"],
    [38646,"2014-10-03T01:00:00","53","ND","ND","ND","ND","ND","0.3","336.4","24.2","69.2","0","0"],
    [38647,"2014-10-03T02:00:00","65","ND","ND","ND","ND","ND","0.4","118.8","24.2","69.4","0","0"],
    [38648,"2014-10-03T03:00:00","56","ND","ND","ND","ND","ND","0.2","132.3","23.6","73.4","0","0"],
    [38649,"2014-10-03T04:00:00","44","ND","ND","ND","ND","ND","0.5","86.9","23.2","75.2","0","0"],
    [38650,"2014-10-03T05:00:00","57","ND","ND","ND","ND","ND","0.8","8.7","22.6","78.5","0","0"],
    [38651,"2014-10-03T06:00:00","100","ND","ND","ND","ND","ND","0.5","68.3","22.3","80.6","0","0"],
    [38652,"2014-10-03T07:00:00","102","ND","ND","ND","ND","ND","0.7","38.2","22.4","80","48.1","0"],
    [38653,"2014-10-03T08:00:00","105","ND","ND","ND","ND","ND","0.5","31.8","23.3","75.8","153.4","0"],
    [38654,"2014-10-03T09:00:00","106","ND","ND","ND","ND","ND","1","133.5","25.4","65.8","365.5","0"],
    [38655,"2014-10-03T10:00:00","81","ND","ND","ND","ND","ND","2.1","153.4","26.7","60","526.7","0"],
    [38656,"2014-10-03T11:00:00","60","ND","ND","ND","ND","ND","1.7","133.7","28.3","53.1","684.7","0"],
    [38657,"2014-10-03T12:00:00","39","ND","ND","ND","ND","ND","2.5","132.1","29.8","45.8","780.2","0"],
    [38658,"2014-10-03T13:00:00","38","ND","ND","ND","ND","ND","1.8","144.9","31","41.4","737.7","0"],
    [38659,"2014-10-03T14:00:00","34","ND","ND","ND","ND","ND","1.4","152.4","31.5","38.8","619.2","0"],
    [38660,"2014-10-03T15:00:00","36","ND","ND","ND","ND","ND","1.5","225.5","32","39.9","543.6","0"],
    [38661,"2014-10-03T16:00:00","37","ND","ND","ND","ND","ND","2.8","272.1","30.7","43.4","230.8","0"],
    [38662,"2014-10-03T17:00:00","57","ND","ND","ND","ND","ND","0.3","17.9","28.2","58.7","154.6","1.02"],
    [38663,"2014-10-03T18:00:00","35","ND","ND","ND","ND","ND","0.2","95.8","26.1","68.9","16.5","0.25"],
    [38664,"2014-10-03T19:00:00","61","ND","ND","ND","ND","ND","0.1","1.2","26.2","63.8","0","0"],
    [38665,"2014-10-03T20:00:00","86","ND","ND","ND","ND","ND","0.6","131.7","25.9","62.8","0","0"],
    [38666,"2014-10-03T21:00:00","61","ND","ND","ND","ND","ND","0.6","103.4","25.8","62.1","0","0"],
    [38667,"2014-10-03T22:00:00","69","ND","ND","ND","ND","ND","0.3","59.7","25","64.7","0","0"],
    [38668,"2014-10-03T23:00:00","72","ND","ND","ND","ND","ND","0.8","356.7","24.1","68.5","0","0"],
    [38669,"2014-10-04T00:00:00","98","ND","ND","ND","ND","ND","0.1","289.6","23.3","72","0","0"],
    [38670,"2014-10-04T01:00:00","59","ND","ND","ND","ND","ND","0.8","168.4","23.5","71.6","0","0"],
    [38671,"2014-10-04T02:00:00","37","ND","ND","ND","ND","ND","0.3","110.4","23.2","71.4","0","0"],
    [38672,"2014-10-04T03:00:00","35","ND","ND","ND","ND","ND","0.4","183.5","22.9","72.5","0","0"],
    [38673,"2014-10-04T04:00:00","44","ND","ND","ND","ND","ND","0.1","28.7","22.7","73.8","0","0"],
    [38674,"2014-10-04T05:00:00","52","ND","ND","ND","ND","ND","0.4","94.8","22.2","77.7","0","0"],
    [38675,"2014-10-04T06:00:00","57","ND","ND","ND","ND","ND","0.4","7.8","21.8","80.6","0","0"],
    [38676,"2014-10-04T07:00:00","66","ND","ND","ND","ND","ND","0.7","126.4","22.1","79.5","57.6","0"],
    [38677,"2014-10-04T08:00:00","54","ND","ND","ND","ND","ND","0.6","139.7","23.4","78.8","258.3","0"],
    [38678,"2014-10-04T09:00:00","56","ND","ND","ND","ND","ND","0.5","195.1","25.5","66.1","464.8","0"],
    [38679,"2014-10-04T10:00:00","51","ND","ND","ND","ND","ND","1.6","137.8","27.3","57","641","0"],
    [38680,"2014-10-04T11:00:00","34","ND","ND","ND","ND","ND","1.6","95.5","28.5","52.8","756.1","0"],
    [38681,"2014-10-04T12:00:00","50","ND","ND","ND","ND","ND","0.7","93.2","30.2","48.2","827.5","0"],
    [38682,"2014-10-04T13:00:00","57","ND","ND","ND","ND","ND","0.6","112.3","31.3","45","628","0"],
    [38683,"2014-10-04T14:00:00","30","ND","ND","ND","ND","ND","0.8","310.8","31.9","42.5","707.1","0"],
    [38684,"2014-10-04T15:00:00","29","ND","ND","ND","ND","ND","4.5","268","31.9","42.1","656.5","0"],
    [38685,"2014-10-04T16:00:00","45","ND","ND","ND","ND","ND","3.7","265.3","31.6","42.2","445.4","0"],
    [38686,"2014-10-04T17:00:00","26","ND","ND","ND","ND","ND","3.8","267","29.9","45.9","115.7","0"],
    [38687,"2014-10-04T18:00:00","17","ND","ND","ND","ND","ND","2.5","270.9","29.5","45.8","16.2","0"],
    [38688,"2014-10-04T19:00:00","24","ND","ND","ND","ND","ND","0.3","95.1","28.9","48.7","0","0"],
    [38689,"2014-10-04T20:00:00","16","ND","ND","ND","ND","ND","0.8","97.1","28.1","51.8","0","0"],
    [38690,"2014-10-04T21:00:00","23","ND","ND","ND","ND","ND","1.2","186.9","27.4","55.1","0","0"],
    [38691,"2014-10-04T22:00:00","17","ND","ND","ND","ND","ND","0.8","106.2","26.6","58.5","0","0"],
    [38692,"2014-10-04T23:00:00","39","ND","ND","ND","ND","ND","1.3","3.7","25.8","63.4","0","0"],
    [38693,"2014-10-05T00:00:00","36","ND","ND","ND","ND","ND","1.1","53.2","24.5","72.7","0","0"],
    [38694,"2014-10-05T01:00:00","23","ND","ND","ND","ND","ND","1","127.1","23.8","77.9","0","0"],
    [38695,"2014-10-05T02:00:00","30","ND","ND","ND","ND","ND","0.4","64.8","23.4","80.9","0","0"],
    [38696,"2014-10-05T03:00:00","22","ND","ND","ND","ND","ND","1.1","103","22.7","86.2","0","0"],
    [38697,"2014-10-05T04:00:00","19","ND","ND","ND","ND","ND","0.8","121","22.2","87.6","0","0"],
    [38698,"2014-10-05T05:00:00","24","ND","ND","ND","ND","ND","0.6","125.7","22.3","87","0","0"],
    [38699,"2014-10-05T06:00:00","23","ND","ND","ND","ND","ND","0.4","134.1","22.2","87.5","0","0"],
    [38700,"2014-10-05T07:00:00","37","ND","ND","ND","ND","ND","0.5","32.5","22.2","88.6","44.7","0"],
    [38701,"2014-10-05T08:00:00","49","ND","ND","ND","ND","ND","0.8","40.1","22.8","86.8","117.3","0"],
    [38702,"2014-10-05T09:00:00","53","ND","ND","ND","ND","ND","0.5","82.8","23.9","80.1","263.3","0"],
    [38703,"2014-10-05T10:00:00","48","ND","ND","ND","ND","ND","1.1","81.7","26","68.5","647.1","0"],
    [38704,"2014-10-05T11:00:00","44","ND","ND","ND","ND","ND","0.8","120.3","27.9","58.7","747","0"],
    [38705,"2014-10-05T12:00:00","39","ND","ND","ND","ND","ND","1.1","95.4","29.2","52","735.1","0"],
    [38706,"2014-10-05T13:00:00","37","ND","ND","ND","ND","ND","1.3","87.2","30.9","46.7","800.4","0"],
    [38707,"2014-10-05T14:00:00","31","ND","ND","ND","ND","ND","0.7","1.5","31.6","44.9","506","0"],
    [38708,"2014-10-05T15:00:00","15","ND","ND","ND","ND","ND","3.8","273.6","30.5","46.9","399.8","0"],
    [38709,"2014-10-05T16:00:00","12","ND","ND","ND","ND","ND","3.4","283.5","30.6","45.1","315","0"],
    [38710,"2014-10-05T17:00:00","18","ND","ND","ND","ND","ND","1.6","313.1","29.5","48.6","213","0"],
    [38711,"2014-10-05T18:00:00","21","ND","ND","ND","ND","ND","1.1","101.1","28.9","50","38.6","0"],
    [38712,"2014-10-05T19:00:00","25","ND","ND","ND","ND","ND","0.8","151.7","28.1","53","0","0"],
    [38713,"2014-10-05T20:00:00","10","ND","ND","ND","ND","ND","2","204.4","26.9","57.4","0","0"],
    [38714,"2014-10-05T21:00:00","13","ND","ND","ND","ND","ND","1.1","105.9","26.4","59.6","0","0"],
    [38715,"2014-10-05T22:00:00","30","ND","ND","ND","ND","ND","1.1","60.9","25.6","65.1","0","0"],
    [38716,"2014-10-05T23:00:00","38","ND","ND","ND","ND","ND","0.5","59.7","24.8","70.1","0","0"],
    [38717,"2014-10-06T00:00:00","31","ND","ND","ND","ND","ND","0.9","162.3","24.7","69.6","0","0"],
    [38718,"2014-10-06T01:00:00","26","ND","ND","ND","ND","ND","0.9","164.7","24.6","70.2","0","0"],
    [38719,"2014-10-06T02:00:00","18","ND","ND","ND","ND","ND","0.8","141.1","24","73","0","0"],
    [38720,"2014-10-06T03:00:00","30","ND","ND","ND","ND","ND","0.9","145.1","23.3","79.7","0","0"],
    [38721,"2014-10-06T04:00:00","33","ND","ND","ND","ND","ND","0.8","145.4","22.9","80.7","0","0"],
    [38722,"2014-10-06T05:00:00","28","ND","ND","ND","ND","ND","1.3","163.2","22.5","82.1","0","0"],
    [38723,"2014-10-06T06:00:00","27","ND","ND","ND","ND","ND","1.1","176","22.3","83.6","0","0"],
    [38724,"2014-10-06T07:00:00","34","ND","ND","ND","ND","ND","1.6","156.5","22.3","83.6","24.9","0"],
    [38725,"2014-10-06T08:00:00","45","ND","ND","ND","ND","ND","1.4","166.5","22.7","81.6","147.9","0"],
    [38726,"2014-10-06T09:00:00","38","ND","ND","ND","ND","ND","1.8","138.6","25.2","68","438.6","0"],
    [38727,"2014-10-06T10:00:00","29","ND","ND","ND","ND","ND","2.1","143.5","26.9","59.9","644.1","0"],
    [38728,"2014-10-06T11:00:00","28","ND","ND","ND","ND","ND","2.3","134.7","28.6","53","802.7","0"],
    [38729,"2014-10-06T12:00:00","39","ND","ND","ND","ND","ND","2.1","74.5","28.7","54.7","602.4","0"],
    [38730,"2014-10-06T13:00:00","44","ND","ND","ND","ND","ND","1.9","51.8","29.2","54","724.8","0"],
    [38731,"2014-10-06T14:00:00","38","ND","ND","ND","ND","ND","1.2","315.2","30.2","50.1","496.2","0"],
    [38732,"2014-10-06T15:00:00","40","ND","ND","ND","ND","ND","4.7","271","30.5","46.3","678.6","0"],
    [38733,"2014-10-06T16:00:00","20","ND","ND","ND","ND","ND","4","260.4","30","46.4","398.5","0"],
    [38734,"2014-10-06T17:00:00","21","ND","ND","ND","ND","ND","3","264.3","29.7","45.7","180.1","0"],
    [38735,"2014-10-06T18:00:00","22","ND","ND","ND","ND","ND","3.2","269.2","29","45.7","33.1","0"],
    [38736,"2014-10-06T19:00:00","43","ND","ND","ND","ND","ND","0.7","58.2","28.1","49.1","0","0"],
    [38737,"2014-10-06T20:00:00","25","ND","ND","ND","ND","ND","1","210.5","27.3","53","0","0"],
    [38738,"2014-10-06T21:00:00","19","ND","ND","ND","ND","ND","1.7","238.5","26.5","57.1","0","0"],
    [38739,"2014-10-06T22:00:00","38","ND","ND","ND","ND","ND","0.3","177.3","23.9","76.3","0","1.02"],
    [38740,"2014-10-06T23:00:00","30","ND","ND","ND","ND","ND","0.3","81.8","23.6","77.1","0","0"],
    [38741,"2014-10-07T00:00:00","35","ND","ND","ND","ND","ND","0.6","150.4","23.6","78.7","0","0"],
    [38742,"2014-10-07T01:00:00","35","ND","ND","ND","ND","ND","0.3","190.6","23.4","78.7","0","0"],
    [38743,"2014-10-07T02:00:00","30","ND","ND","ND","ND","ND","0.2","151.2","23.5","76.9","0","0"],
    [38744,"2014-10-07T03:00:00","40","ND","ND","ND","ND","ND","0.3","115.8","23.4","75.6","0","0"],
    [38745,"2014-10-07T04:00:00","26","ND","ND","ND","ND","ND","0.6","162.6","23","77","0","0"],
    [38746,"2014-10-07T05:00:00","36","ND","ND","ND","ND","ND","0.3","305.2","22.5","80.2","0","0"],
    [38747,"2014-10-07T06:00:00","50","ND","ND","ND","ND","ND","1","34.1","22.2","83.6","0","0"],
    [38748,"2014-10-07T07:00:00","42","ND","ND","ND","ND","ND","0.7","65.3","22.1","86.3","18","0"],
    [38749,"2014-10-07T08:00:00","33","ND","ND","ND","ND","ND","1.7","44.2","22.1","86.3","139.6","0"],
    [38750,"2014-10-07T09:00:00","38","ND","ND","ND","ND","ND","1.2","53.7","23.2","81.3","218.7","0"],
    [38751,"2014-10-07T10:00:00","46","ND","ND","ND","ND","ND","1","73.2","24.4","74.9","348.2","0"],
    [38752,"2014-10-07T11:00:00","47","ND","ND","ND","ND","ND","1.2","134.7","26.6","63.3","620.2","0"],
    [38753,"2014-10-07T12:00:00","39","ND","ND","ND","ND","ND","0.9","76","27.5","58.6","351.5","0"],
    [38754,"2014-10-07T13:00:00","39","ND","ND","ND","ND","ND","1.2","52.6","28.6","55","559.5","0"],
    [38755,"2014-10-07T14:00:00","28","ND","ND","ND","ND","ND","1.7","46.9","28.9","53.5","423","0"],
    [38756,"2014-10-07T15:00:00","16","ND","ND","ND","ND","ND","0.9","218.3","29.7","49.4","522.3","0"],
    [38757,"2014-10-07T16:00:00","21","ND","ND","ND","ND","ND","3.2","264.9","30.2","45.8","463.2","0"],
    [38758,"2014-10-07T17:00:00","ND","ND","ND","ND","ND","ND","3.5","272.5","29.7","47.4","336.9","0"],
    [38759,"2014-10-07T18:00:00","18","ND","ND","ND","ND","ND","2.5","263.2","28.4","50.2","62.7","0"],
    [38760,"2014-10-07T19:00:00","37","ND","ND","ND","ND","ND","0.6","164.8","27.7","51.7","0","0"],
    [38761,"2014-10-07T20:00:00","20","ND","ND","ND","ND","ND","0.5","234.5","27.3","53.4","0","0"],
    [38762,"2014-10-07T21:00:00","24","ND","ND","ND","ND","ND","3.9","174.5","24.8","68","0","0"],
    [38763,"2014-10-07T22:00:00","16","ND","ND","ND","ND","ND","2.6","182.8","23","80.5","0","0.76"],
    [38764,"2014-10-07T23:00:00","16","ND","ND","ND","ND","ND","1.8","160.4","21.7","89.6","0","4.83"],
    [38765,"2014-10-08T00:00:00","13","ND","ND","ND","ND","ND","0.4","175.4","21.6","92.6","0","1.52"],
    [38766,"2014-10-08T01:00:00","39","ND","ND","ND","ND","ND","0.8","52","21.2","94.6","0","0.76"],
    [38767,"2014-10-08T02:00:00","22","ND","ND","ND","ND","ND","0.8","52.5","20.8","96.2","0","0.25"],
    [38768,"2014-10-08T03:00:00","26","ND","ND","ND","ND","ND","0.9","44.5","20.7","96.3","0","0"],
    [38769,"2014-10-08T04:00:00","45","ND","ND","ND","ND","ND","1","39.9","20.8","96.2","0","1.52"],
    [38770,"2014-10-08T05:00:00","28","ND","ND","ND","ND","ND","1.5","37.6","20.6","97","0","0.51"],
    [38771,"2014-10-08T06:00:00","19","ND","ND","ND","ND","ND","0.8","9.5","20.4","96.3","0","0.25"],
    [38772,"2014-10-08T07:00:00","16","ND","ND","ND","ND","ND","0.1","113.5","20.4","94.6","12","0.76"],
    [38773,"2014-10-08T08:00:00","23","ND","ND","ND","ND","ND","0.7","137.6","20.9","92.2","53","0"],
    [38774,"2014-10-08T09:00:00","33","ND","ND","ND","ND","ND","0.8","137.5","21.9","86.2","166.7","0"],
    [38775,"2014-10-08T10:00:00","42","ND","ND","ND","ND","ND","1.5","155.3","23","79.7","300.4","0"],
    [38776,"2014-10-08T11:00:00","37","ND","ND","ND","ND","ND","1.4","152.8","24.2","72.5","381.5","0"],
    [38777,"2014-10-08T12:00:00","35","ND","ND","ND","ND","ND","0.8","107.5","24.9","68.5","272.4","0"],
    [38778,"2014-10-08T13:00:00","36","ND","ND","ND","ND","ND","0.8","146.8","25","69.2","178.6","0"],
    [38779,"2014-10-08T14:00:00","39","ND","ND","ND","ND","ND","0.5","198.4","25.8","67.4","488.1","0"],
    [38780,"2014-10-08T15:00:00","45","ND","ND","ND","ND","ND","1.3","18.2","26.2","64.5","130.5","0"],
    [38781,"2014-10-08T16:00:00","30","ND","ND","ND","ND","ND","0.7","96.2","25.7","67.5","76.5","0"],
    [38782,"2014-10-08T17:00:00","46","ND","ND","ND","ND","ND","0.9","205.4","25.5","62.7","93.1","0"],
    [38783,"2014-10-08T18:00:00","27","ND","ND","ND","ND","ND","1","242.6","25.2","59.2","16.7","0"],
    [38784,"2014-10-08T19:00:00","28","ND","ND","ND","ND","ND","0.3","192.3","25","60.7","0","0"],
    [38785,"2014-10-08T20:00:00","42","ND","ND","ND","ND","ND","1.7","132.2","24.7","64.1","0","0"],
    [38786,"2014-10-08T21:00:00","30","ND","ND","ND","ND","ND","1.4","114.9","23.4","73.9","0","0"],
    [38787,"2014-10-08T22:00:00","33","ND","ND","ND","ND","ND","1.9","153.3","21.7","85.8","0","0"],
    [38788,"2014-10-08T23:00:00","21","ND","ND","ND","ND","ND","1.3","145.5","21.6","87.9","0","0"],
    [38789,"2014-10-09T00:00:00","20","ND","ND","ND","ND","ND","1.8","157.6","21.5","86.9","0","0"],
    [38790,"2014-10-09T01:00:00","18","ND","ND","ND","ND","ND","1.9","169.8","21.3","87","0","0"],
    [38791,"2014-10-09T02:00:00","22","ND","ND","ND","ND","ND","1.6","152.2","21.1","89.3","0","0"],
    [38792,"2014-10-09T03:00:00","24","ND","ND","ND","ND","ND","0.7","117.3","20.9","90.2","0","0"],
    [38793,"2014-10-09T04:00:00","35","ND","ND","ND","ND","ND","1.2","45.1","20.1","91.7","0","0"],
    [38794,"2014-10-09T05:00:00","22","ND","ND","ND","ND","ND","1.5","42.5","19.7","92","0","0"],
    [38795,"2014-10-09T06:00:00","22","ND","ND","ND","ND","ND","1","43.2","19.8","91.3","0","0"],
    [38796,"2014-10-09T07:00:00","29","ND","ND","ND","ND","ND","0.5","52.9","20","89.4","4.8","0"],
    [38797,"2014-10-09T08:00:00","41","ND","ND","ND","ND","ND","0.6","45.6","20.3","88","23.4","0"],
    [38798,"2014-10-09T09:00:00","36","ND","ND","ND","ND","ND","1.1","164.2","20.3","90.6","83.9","0"],
    [38799,"2014-10-09T10:00:00","35","ND","ND","ND","ND","ND","2.3","151.7","21.6","83.6","299.6","0"],
    [38800,"2014-10-09T11:00:00","43","ND","ND","ND","ND","ND","1.9","161.5","22.6","76.3","314.4","0"],
    [38801,"2014-10-09T12:00:00","40","ND","ND","ND","ND","ND","0.5","111.1","24","69.2","344.8","0"],
    [38802,"2014-10-09T13:00:00","62","ND","ND","ND","ND","ND","0.8","8","24.8","66.7","327","0"],
    [38803,"2014-10-09T14:00:00","56","ND","ND","ND","ND","ND","1.8","40","24.9","67.3","373.4","0"],
    [38804,"2014-10-09T15:00:00","29","ND","ND","ND","ND","ND","2.2","26.4","25.3","61.7","353.5","0"],
    [38805,"2014-10-09T16:00:00","41","ND","ND","ND","ND","ND","1.9","22.6","25.5","62.7","206.8","0"],
    [38806,"2014-10-09T17:00:00","37","ND","ND","ND","ND","ND","2.1","35.6","25.2","66.1","88.2","0"],
    [38807,"2014-10-09T18:00:00","50","ND","ND","ND","ND","ND","2","37.5","24.8","68.4","16.7","0"],
    [38808,"2014-10-09T19:00:00","44","ND","ND","ND","ND","ND","1.1","35.9","24","72.1","0","0"],
    [38809,"2014-10-09T20:00:00","55","ND","ND","ND","ND","ND","0.3","40.4","23.6","74.6","0","0"],
    [38810,"2014-10-09T21:00:00","49","ND","ND","ND","ND","ND","0.4","62.7","23.3","76.4","0","0"],
    [38811,"2014-10-09T22:00:00","53","ND","ND","ND","ND","ND","0.5","119.2","23.2","76.3","0","0"],
    [38812,"2014-10-09T23:00:00","75","ND","ND","ND","ND","ND","0.7","117.7","23.2","77.4","0","0"],
    [38813,"2014-10-10T00:00:00","22","ND","ND","ND","ND","ND","1.5","264.5","21.6","83.4","0","2.03"],
    [38814,"2014-10-10T01:00:00","6","ND","ND","ND","ND","ND","0.2","242.3","21","89.3","0","0.25"],
    [38815,"2014-10-10T02:00:00","13","ND","ND","ND","ND","ND","0.5","239.9","21","91","0","0"],
    [38816,"2014-10-10T03:00:00","18","ND","ND","ND","ND","ND","0.5","198","21.1","90.7","0","0.25"],
    [38817,"2014-10-10T04:00:00","17","ND","ND","ND","ND","ND","0.6","249.7","20.8","92.3","0","0.25"],
    [38818,"2014-10-10T05:00:00","20","ND","ND","ND","ND","ND","0.2","208.9","20.9","90.9","0","0"],
    [38819,"2014-10-10T06:00:00","27","ND","ND","ND","ND","ND","0.1","288.4","20.9","90.5","0","0"],
    [38820,"2014-10-10T07:00:00","41","ND","ND","ND","ND","ND","0.2","315.4","20.8","92.1","10.5","0.25"],
    [38821,"2014-10-10T08:00:00","34","ND","ND","ND","ND","ND","0","197","21","91.1","32.8","0"],
    [38822,"2014-10-10T09:00:00","48","ND","ND","ND","ND","ND","0.2","168","21.6","87.5","82.9","0"],
    [38823,"2014-10-10T10:00:00","51","ND","ND","ND","ND","ND","0.1","257.5","22.4","83.2","137.8","0"],
    [38824,"2014-10-10T11:00:00","63","ND","ND","ND","ND","ND","0.7","134.7","23.8","76.2","353.7","0"],
    [38825,"2014-10-10T12:00:00","58","ND","ND","ND","ND","ND","0.8","138.5","24.9","69.3","309.9","0"],
    [38826,"2014-10-10T13:00:00","54","ND","ND","ND","ND","ND","0.7","102.3","25.7","64.7","423.2","0"],
    [38827,"2014-10-10T14:00:00","60","ND","ND","ND","ND","ND","0.4","77.3","26.9","59.7","469.1","0"],
    [38828,"2014-10-10T15:00:00","63","ND","ND","ND","ND","ND","1.7","254.3","26.8","58.5","206.7","0"],
    [38829,"2014-10-10T16:00:00","63","ND","ND","ND","ND","ND","3","251.7","25.9","63.3","88","0"],
    [38830,"2014-10-10T17:00:00","56","ND","ND","ND","ND","ND","1.3","257.7","25.6","64.4","57.8","0"],
    [38831,"2014-10-10T18:00:00","75","ND","ND","ND","ND","ND","0.8","282.7","25.8","62.4","21.9","0"],
    [38832,"2014-10-10T19:00:00","38","ND","ND","ND","ND","ND","1","290.7","25.3","62","0","0"],
    [38833,"2014-10-10T20:00:00","39","ND","ND","ND","ND","ND","0.2","61.2","25.1","64","0","0"],
    [38834,"2014-10-10T21:00:00","48","ND","ND","ND","ND","ND","0.4","85.6","24.5","69.2","0","0"],
    [38835,"2014-10-10T22:00:00","45","ND","ND","ND","ND","ND","0.2","85.5","23.9","73.3","0","0"],
    [38836,"2014-10-10T23:00:00","50","ND","ND","ND","ND","ND","0.1","354.2","23.1","79.2","0","0"],
    [38837,"2014-10-11T00:00:00","50","ND","ND","ND","ND","ND","0.1","340.7","22.9","80.2","0","0"],
    [38838,"2014-10-11T01:00:00","67","ND","ND","ND","ND","ND","0.3","337.9","22.1","83.2","0","0"],
    [38839,"2014-10-11T02:00:00","62","ND","ND","ND","ND","ND","0.4","244.2","22.2","82.7","0","0"],
    [38840,"2014-10-11T03:00:00","37","ND","ND","ND","ND","ND","0.6","145.5","22.5","80","0","0"],
    [38841,"2014-10-11T04:00:00","39","ND","ND","ND","ND","ND","0.5","138.5","22.5","80.3","0","0"],
    [38842,"2014-10-11T05:00:00","23","ND","ND","ND","ND","ND","1.9","173.6","21.7","86.3","0","0"],
    [38843,"2014-10-11T06:00:00","9","ND","ND","ND","ND","ND","0.9","187.5","21.1","91","0","0"],
    [38844,"2014-10-11T07:00:00","27","ND","ND","ND","ND","ND","1.1","155.6","21.4","89.6","22.4","0"],
    [38845,"2014-10-11T08:00:00","35","ND","ND","ND","ND","ND","0.9","154.6","22","87.4","114.1","0"],
    [38846,"2014-10-11T09:00:00","56","ND","ND","ND","ND","ND","0.8","150.3","23.3","80.5","320.6","0"],
    [38847,"2014-10-11T10:00:00","70","ND","ND","ND","ND","ND","1.4","134.4","26.1","65","608.8","0"],
    [38848,"2014-10-11T11:00:00","47","ND","ND","ND","ND","ND","1.5","112.1","26.8","63.4","474.3","0"],
    [38849,"2014-10-11T12:00:00","52","ND","ND","ND","ND","ND","0.9","108.9","27.3","61.9","568.7","0"],
    [38850,"2014-10-11T13:00:00","50","ND","ND","ND","ND","ND","0.9","117.7","28.3","57.7","336.4","0"],
    [38851,"2014-10-11T14:00:00","48","ND","ND","ND","ND","ND","1.5","288.8","27.7","58.6","92.1","0"],
    [38852,"2014-10-11T15:00:00","ND","ND","ND","ND","ND","ND","2.6","271.6","21.2","83","5.9","27.94"],
    [38853,"2014-10-11T16:00:00","14","ND","ND","ND","ND","ND","2.4","204.9","20.7","90.8","11.8","10.41"],
    [38854,"2014-10-11T17:00:00","22","ND","ND","ND","ND","ND","0.9","190.3","21.6","88.5","27.4","2.03"],
    [38855,"2014-10-11T18:00:00","27","ND","ND","ND","ND","ND","0.2","329.5","21.7","89.8","10.2","0.25"],
    [38856,"2014-10-11T19:00:00","40","ND","ND","ND","ND","ND","0.1","103.4","21.2","90.1","0","0"],
    [38857,"2014-10-11T20:00:00","63","ND","ND","ND","ND","ND","0.3","350.1","21.1","91.4","0","0.25"],
    [38858,"2014-10-11T21:00:00","72","ND","ND","ND","ND","ND","0.1","43.7","21","90.4","0","0"],
    [38859,"2014-10-11T22:00:00","61","ND","ND","ND","ND","ND","0.2","244.9","21","92.5","0","0"],
    [38860,"2014-10-11T23:00:00","70","ND","ND","ND","ND","ND","0.2","349.4","21","91.8","0","0"],
    [38861,"2014-10-12T00:00:00","68","ND","ND","ND","ND","ND","0","0","21","92.1","0","0"],
    [38862,"2014-10-12T01:00:00","54","ND","ND","ND","ND","ND","0.2","277.8","20.8","92.1","0","0"],
    [38863,"2014-10-12T02:00:00","40","ND","ND","ND","ND","ND","0.4","206.4","20.6","92.4","0","0"],
    [38864,"2014-10-12T03:00:00","43","ND","ND","ND","ND","ND","0.1","295.2","20.6","92.3","0","0.25"],
    [38865,"2014-10-12T04:00:00","30","ND","ND","ND","ND","ND","0.2","184.2","20.1","89.5","0","0"],
    [38866,"2014-10-12T05:00:00","36","ND","ND","ND","ND","ND","0","0","19.7","91.3","0","0"],
    [38867,"2014-10-12T06:00:00","52","ND","ND","ND","ND","ND","0","0","19.2","93.9","0","0"],
    [38868,"2014-10-12T07:00:00","59","ND","ND","ND","ND","ND","0.1","198","19.3","94.7","48.5","0"],
    [38869,"2014-10-12T08:00:00","50","ND","ND","ND","ND","ND","0.3","47.7","21.1","86.8","207.1","0"],
    [38870,"2014-10-12T09:00:00","58","ND","ND","ND","ND","ND","1.1","37.6","22.5","79.6","232.5","0"],
    [38871,"2014-10-12T10:00:00","53","ND","ND","ND","ND","ND","0.7","80.1","23.2","77.7","345.9","0"],
    [38872,"2014-10-12T11:00:00","48","ND","ND","ND","ND","ND","0.6","77.8","24.7","72","496.9","0"],
    [38873,"2014-10-12T12:00:00","49","ND","ND","ND","ND","ND","0.8","107.5","26.6","64","763.8","0"],
    [38874,"2014-10-12T13:00:00","62","ND","ND","ND","ND","ND","0.8","96.1","28.2","58.3","714.6","0"],
    [38875,"2014-10-12T14:00:00","58","ND","ND","ND","ND","ND","1.4","46.1","28.5","56.7","456.4","0"],
    [38876,"2014-10-12T15:00:00","43","ND","ND","ND","ND","ND","1.2","57.1","29.3","53.5","576.9","0"],
    [38877,"2014-10-12T16:00:00","42","ND","ND","ND","ND","ND","1.2","125.1","30","51.1","310.4","0"],
    [38878,"2014-10-12T17:00:00","50","ND","ND","ND","ND","ND","1.2","142.8","28.9","54","89.5","0"],
    [38879,"2014-10-12T18:00:00","50","ND","ND","ND","ND","ND","0.4","155.9","28.6","54.9","33.1","0"],
    [38880,"2014-10-12T19:00:00","66","ND","ND","ND","ND","ND","0.7","261.9","27","63.3","0","0"],
    [38881,"2014-10-12T20:00:00","76","ND","ND","ND","ND","ND","0.6","252.6","25.9","67.2","0","0"],
    [38882,"2014-10-12T21:00:00","61","ND","ND","ND","ND","ND","0.1","265.2","25.3","69.3","0","0"],
    [38883,"2014-10-12T22:00:00","69","ND","ND","ND","ND","ND","0.6","143.2","25.2","68.8","0","0"],
    [38884,"2014-10-12T23:00:00","61","ND","ND","ND","ND","ND","0.8","177.5","24.1","75.5","0","0"],
    [38885,"2014-10-13T00:00:00","62","ND","ND","ND","ND","ND","0.3","40.1","23.8","77.2","0","0"],
    [38886,"2014-10-13T01:00:00","62","ND","ND","ND","ND","ND","0.2","121.3","23","81.4","0","0"],
    [38887,"2014-10-13T02:00:00","47","ND","ND","ND","ND","ND","0.9","169.1","22.6","81.9","0","0"],
    [38888,"2014-10-13T03:00:00","45","ND","ND","ND","ND","ND","0.8","158.9","22.5","81.8","0","0"],
    [38889,"2014-10-13T04:00:00","43","ND","ND","ND","ND","ND","0","19.1","22.5","82.1","0","0"],
    [38890,"2014-10-13T05:00:00","35","ND","ND","ND","ND","ND","0.4","17.4","21.9","86.2","0","0"],
    [38891,"2014-10-13T06:00:00","38","ND","ND","ND","ND","ND","0.2","329.6","21.7","90.1","0","1.78"],
    [38892,"2014-10-13T07:00:00","32","ND","ND","ND","ND","ND","0.7","340.5","21.5","91.4","50","0"],
    [38893,"2014-10-13T08:00:00","31","ND","ND","ND","ND","ND","0.6","109.3","22.6","85.7","175","0"],
    [38894,"2014-10-13T09:00:00","55","ND","ND","ND","ND","ND","1.1","38.9","23","85","226.5","0"],
    [38895,"2014-10-13T10:00:00","53","ND","ND","ND","ND","ND","0.6","103.7","24.5","75.6","389.1","0"],
    [38896,"2014-10-13T11:00:00","43","ND","ND","ND","ND","ND","0.7","114.1","26.7","64","642.4","0"],
    [38897,"2014-10-13T12:00:00","32","ND","ND","ND","ND","ND","0.9","119.5","28.3","56","725.4","0"],
    [38898,"2014-10-13T13:00:00","44","ND","ND","ND","ND","ND","0.4","15.8","29.4","52.1","543.9","0"],
    [38899,"2014-10-13T14:00:00","43","ND","ND","ND","ND","ND","0.9","70.7","29.6","51","374.8","0"],
    [38900,"2014-10-13T15:00:00","34","ND","ND","ND","ND","ND","1.1","50.8","29.8","49.4","349.3","0"],
    [38901,"2014-10-13T16:00:00","35","ND","ND","ND","ND","ND","2.4","20.8","28.9","55.9","214","0"],
    [38902,"2014-10-13T17:00:00","25","ND","ND","ND","ND","ND","1.5","334.9","27.6","57.9","31.8","0"],
    [38903,"2014-10-13T18:00:00","28","ND","ND","ND","ND","ND","2.8","247.9","26.2","60.4","9.2","0"],
    [38904,"2014-10-13T19:00:00","21","ND","ND","ND","ND","ND","1.2","231.4","23.3","78","0","1.78"],
    [38905,"2014-10-13T20:00:00","28","ND","ND","ND","ND","ND","0.5","227.2","22.9","85.2","0","0.76"],
    [38906,"2014-10-13T21:00:00","29","ND","ND","ND","ND","ND","0.3","266.3","22.7","88.5","0","0"],
    [38907,"2014-10-13T22:00:00","27","ND","ND","ND","ND","ND","0.4","277.8","22.7","88.1","0","0"],
    [38908,"2014-10-13T23:00:00","37","ND","ND","ND","ND","ND","0.6","150","23","86.4","0","0.25"],
    [38909,"2014-10-14T00:00:00","48","ND","ND","ND","ND","ND","0.2","298.6","22.7","86.7","0","0"],
    [38910,"2014-10-14T01:00:00","50","ND","ND","ND","ND","ND","0.1","270.8","22.5","86.6","0","0"],
    [38911,"2014-10-14T02:00:00","46","ND","ND","ND","ND","ND","0.4","8.5","22.2","88.2","0","0"],
    [38912,"2014-10-14T03:00:00","70","ND","ND","ND","ND","ND","0.3","27.3","21.8","87.5","0","0"],
    [38913,"2014-10-14T04:00:00","46","ND","ND","ND","ND","ND","0.1","115","21.9","87.2","0","0"],
    [38914,"2014-10-14T05:00:00","65","ND","ND","ND","ND","ND","0.1","25","21.9","87.8","0","0"],
    [38915,"2014-10-14T06:00:00","64","ND","ND","ND","ND","ND","0.4","62.4","21.7","87.8","0","0"],
    [38916,"2014-10-14T07:00:00","63","ND","ND","ND","ND","ND","0.3","140.2","21.9","85.8","19.2","0"],
    [38917,"2014-10-14T08:00:00","92","ND","ND","ND","ND","ND","0.4","111.3","23.2","80.6","199.5","0"],
    [38918,"2014-10-14T09:00:00","66","ND","ND","ND","ND","ND","1.3","93.7","24.9","70.5","387.8","0"],
    [38919,"2014-10-14T10:00:00","49","ND","ND","ND","ND","ND","0.8","98.6","26.4","64.7","643.4","0"],
    [38920,"2014-10-14T11:00:00","51","ND","ND","ND","ND","ND","1","117.7","27.8","58.8","712.4","0"],
    [38921,"2014-10-14T12:00:00","43","ND","ND","ND","ND","ND","1.4","108.9","28.9","53.9","750.9","0"],
    [38922,"2014-10-14T13:00:00","44","ND","ND","ND","ND","ND","0.7","110.5","30","48.7","677.8","0"],
    [38923,"2014-10-14T14:00:00","45","ND","ND","ND","ND","ND","0.5","54.9","31","45.9","570.1","0"],
    [38924,"2014-10-14T15:00:00","47","ND","ND","ND","ND","ND","0.5","70.3","30.9","46","308.8","0"],
    [38925,"2014-10-14T16:00:00","38","ND","ND","ND","ND","ND","0.8","47","30.4","47.8","158.6","0"],
    [38926,"2014-10-14T17:00:00","42","ND","ND","ND","ND","ND","1.2","1.3","29.9","49.2","150","0"],
    [38927,"2014-10-14T18:00:00","44","ND","ND","ND","ND","ND","1.2","261.5","29","52","33.3","0"],
    [38928,"2014-10-14T19:00:00","27","ND","ND","ND","ND","ND","2","243.9","27.7","55","0","0"],
    [38929,"2014-10-14T20:00:00","48","ND","ND","ND","ND","ND","0.9","248.7","27.3","56.6","0","0"],
    [38930,"2014-10-14T21:00:00","49","ND","ND","ND","ND","ND","0.8","170.3","26.8","58.7","0","0"],
    [38931,"2014-10-14T22:00:00","57","ND","ND","ND","ND","ND","0.5","118.9","25.5","66.8","0","0"],
    [38932,"2014-10-14T23:00:00","67","ND","ND","ND","ND","ND","0.2","48.6","24.8","70.8","0","0"],
    [38933,"2014-10-15T00:00:00","47","ND","ND","ND","ND","ND","0.7","171.9","24.2","72.6","0","0"],
    [38934,"2014-10-15T01:00:00","41","ND","ND","ND","ND","ND","0.4","176.3","23.6","75.8","0","0"],
    [38935,"2014-10-15T02:00:00","37","ND","ND","ND","ND","ND","0.6","194.2","23.3","77.7","0","0"],
    [38936,"2014-10-15T03:00:00","48","ND","ND","ND","ND","ND","0.3","198.6","22.9","80.5","0","0"],
    [38937,"2014-10-15T04:00:00","41","ND","ND","ND","ND","ND","0.5","228.4","22.5","82.2","0","0"],
    [38938,"2014-10-15T05:00:00","ND","ND","ND","ND","ND","ND","0.3","93.4","22.7","81.3","0","0"],
    [38939,"2014-10-15T06:00:00","69","ND","ND","ND","ND","ND","0.2","266.8","22.7","81.5","0","0"],
    [38940,"2014-10-15T07:00:00","119","ND","ND","ND","ND","ND","0.4","72.7","22.6","82.9","38.8","0"],
    [38941,"2014-10-15T08:00:00","120","ND","ND","ND","ND","ND","0.3","111.8","23.5","79.3","155.2","0"],
    [38942,"2014-10-15T09:00:00","124","ND","ND","ND","ND","ND","1.2","128.7","24.9","72.8","279.2","0"],
    [38943,"2014-10-15T10:00:00","ND","ND","ND","ND","ND","ND","0.6","89.7","26.2","66.5","413.8","0"],
    [38944,"2014-10-15T11:00:00","86","ND","ND","ND","ND","ND","1.3","45.1","27.2","63.3","515.8","0"],
    [38945,"2014-10-15T12:00:00","77","ND","ND","ND","ND","ND","0.6","36.9","28.6","57.9","747","0"],
    [38946,"2014-10-15T13:00:00","52","ND","ND","ND","ND","ND","1.3","62.5","29.4","54.6","495.4","0"],
    [38947,"2014-10-15T14:00:00","44","ND","ND","ND","ND","ND","1.3","349.6","29.1","54.6","324.3","0"],
    [38948,"2014-10-15T15:00:00","42","ND","ND","ND","ND","ND","1.2","15.1","30.1","50","409.7","0"],
    [38949,"2014-10-15T16:00:00","31","ND","ND","ND","ND","ND","1.1","269.7","30.3","48.9","229.7","0"],
    [38950,"2014-10-15T17:00:00","25","ND","ND","ND","ND","ND","2.2","257.8","29.2","50.7","111.2","0"],
    [38951,"2014-10-15T18:00:00","28","ND","ND","ND","ND","ND","2.3","247.3","27.9","53.3","14.3","0"],
    [38952,"2014-10-15T19:00:00","38","ND","ND","ND","ND","ND","0.7","255","27.2","55.6","0","0"],
    [38953,"2014-10-15T20:00:00","49","ND","ND","ND","ND","ND","0.8","124.8","27.3","55.1","0","0"],
    [38954,"2014-10-15T21:00:00","49","ND","ND","ND","ND","ND","0.7","114.7","26.9","57.2","0","0"],
    [38955,"2014-10-15T22:00:00","32","ND","ND","ND","ND","ND","0.9","98.6","25.2","65.1","0","0"],
    [38956,"2014-10-15T23:00:00","25","ND","ND","ND","ND","ND","0.8","113.8","24.1","68.8","0","0"],
    [38957,"2014-10-16T00:00:00","41","ND","ND","ND","ND","ND","0.6","113.9","23.4","71.9","0","0"],
    [38958,"2014-10-16T01:00:00","38","ND","ND","ND","ND","ND","0.7","220.8","23","74.5","0","0"],
    [38959,"2014-10-16T02:00:00","44","ND","ND","ND","ND","ND","0.3","203","23.2","74.5","0","0"],
    [38960,"2014-10-16T03:00:00","53","ND","ND","ND","ND","ND","0.2","67.7","22.6","77.4","0","0"],
    [38961,"2014-10-16T04:00:00","48","ND","ND","ND","ND","ND","0.4","150.5","22.3","78.8","0","0"],
    [38962,"2014-10-16T05:00:00","70","ND","ND","ND","ND","ND","0.2","21.3","21.2","83.3","0","0"],
    [38963,"2014-10-16T06:00:00","64","ND","ND","ND","ND","ND","0.7","250.5","21.6","81.6","0","0"],
    [38964,"2014-10-16T07:00:00","64","ND","ND","ND","ND","ND","0.1","263.2","21.9","80.4","37.6","0"],
    [38965,"2014-10-16T08:00:00","104","ND","ND","ND","ND","ND","1","110.7","23.8","72.5","231.4","0"],
    [38966,"2014-10-16T09:00:00","101","ND","ND","ND","ND","ND","1.1","94.7","25.1","68.2","424.6","0"],
    [38967,"2014-10-16T10:00:00","66","ND","ND","ND","ND","ND","1.7","135.5","27","58.2","610.3","0"],
    [38968,"2014-10-16T11:00:00","48","ND","ND","ND","ND","ND","1.2","97.9","28.6","52.5","727.8","0"],
    [38969,"2014-10-16T12:00:00","56","ND","ND","ND","ND","ND","1.6","92.8","29.9","49.4","597.6","0"],
    [38970,"2014-10-16T13:00:00","60","ND","ND","ND","ND","ND","0.9","68.6","30.2","47.8","497","0"],
    [38971,"2014-10-16T14:00:00","53","ND","ND","ND","ND","ND","1.2","343.5","30.8","45.9","517.9","0"],
    [38972,"2014-10-16T15:00:00","39","ND","ND","ND","ND","ND","1","273.6","30.7","46.7","173.7","0"],
    [38973,"2014-10-16T16:00:00","40","ND","ND","ND","ND","ND","2.7","258.4","30.8","46.4","426.4","0"],
    [38974,"2014-10-16T17:00:00","33","ND","ND","ND","ND","ND","3.1","272.2","29.6","47.9","143.9","0"],
    [38975,"2014-10-16T18:00:00","36","ND","ND","ND","ND","ND","1.7","272.5","28.9","47.7","20.8","0"],
    [38976,"2014-10-16T19:00:00","47","ND","ND","ND","ND","ND","0.6","224.9","28.1","51.2","0","0"],
    [38977,"2014-10-16T20:00:00","51","ND","ND","ND","ND","ND","1.1","83.6","26.6","57.6","0","0"],
    [38978,"2014-10-16T21:00:00","35","ND","ND","ND","ND","ND","0.8","57","24.6","69.2","0","0"],
    [38979,"2014-10-16T22:00:00","55","ND","ND","ND","ND","ND","0.4","62.1","24.1","71.2","0","0"],
    [38980,"2014-10-16T23:00:00","77","ND","ND","ND","ND","ND","0.5","119.7","24.4","69.7","0","0"],
    [38981,"2014-10-17T00:00:00","50","ND","ND","ND","ND","ND","0.7","120.7","23.9","71.6","0","0"],
    [38982,"2014-10-17T01:00:00","32","ND","ND","ND","ND","ND","1.3","178.9","23.5","73","0","0"],
    [38983,"2014-10-17T02:00:00","51","ND","ND","ND","ND","ND","1.1","161.5","23.1","75.6","0","0"],
    [38984,"2014-10-17T03:00:00","47","ND","ND","ND","ND","ND","0.7","254.2","22.8","76.9","0","0"],
    [38985,"2014-10-17T04:00:00","38","ND","ND","ND","ND","ND","0.5","259.6","22.4","78","0","0"],
    [38986,"2014-10-17T05:00:00","63","ND","ND","ND","ND","ND","0.5","333.6","22","80.6","0","0"],
    [38987,"2014-10-17T06:00:00","82","ND","ND","ND","ND","ND","0.2","317.3","21.6","82.9","0","0"],
    [38988,"2014-10-17T07:00:00","117","ND","ND","ND","ND","ND","1","31.4","21.7","83.5","64.8","0"],
    [38989,"2014-10-17T08:00:00","127","ND","ND","ND","ND","ND","0.9","17.6","23.2","78.5","246.7","0"],
    [38990,"2014-10-17T09:00:00","70","ND","ND","ND","ND","ND","1.2","45.8","25","69.2","441.9","0"],
    [38991,"2014-10-17T10:00:00","58","ND","ND","ND","ND","ND","1.2","49","26.5","62.4","634.8","0"],
    [38992,"2014-10-17T11:00:00","55","ND","ND","ND","ND","ND","0.9","40.2","28","57.4","624.1","0"],
    [38993,"2014-10-17T12:00:00","65","ND","ND","ND","ND","ND","1.8","41.6","28.6","55","576","0"],
    [38994,"2014-10-17T13:00:00","54","ND","ND","ND","ND","ND","1.8","42.5","29.3","52.9","405.6","0"],
    [38995,"2014-10-17T14:00:00","31","ND","ND","ND","ND","ND","1.9","6.7","30.6","45.4","628.4","0"],
    [38996,"2014-10-17T15:00:00","35","ND","ND","ND","ND","ND","2.8","282.3","30.5","44.3","433.9","0"],
    [38997,"2014-10-17T16:00:00","24","ND","ND","ND","ND","ND","3.4","271.6","29.7","46.4","278.4","0"],
    [38998,"2014-10-17T17:00:00","21","ND","ND","ND","ND","ND","3.4","267.5","29.2","46.9","185.5","0"],
    [38999,"2014-10-17T18:00:00","24","ND","ND","ND","ND","ND","2.8","263.5","28.2","49.4","11.6","0"],
    [39000,"2014-10-17T19:00:00","22","ND","ND","ND","ND","ND","0.8","238.3","26.2","59.6","0","0.25"],
    [39001,"2014-10-17T20:00:00","48","ND","ND","ND","ND","ND","1.9","82.8","25.7","59.6","0","0"],
    [39002,"2014-10-17T21:00:00","59","ND","ND","ND","ND","ND","1.3","133.3","24.8","63.3","0","0"],
    [39003,"2014-10-17T22:00:00","64","ND","ND","ND","ND","ND","1.7","154.6","24","69.8","0","0"],
    [39004,"2014-10-17T23:00:00","41","ND","ND","ND","ND","ND","1.4","189.3","23.3","75","0","0"],
    [39005,"2014-10-18T00:00:00","20","ND","ND","ND","ND","ND","2.1","195.1","21.6","87.3","0","4.57"],
    [39006,"2014-10-18T01:00:00","11","ND","ND","ND","ND","ND","0.7","186.2","21.4","85.4","0","1.52"],
    [39007,"2014-10-18T02:00:00","14","ND","ND","ND","ND","ND","0.5","176","21.3","88.1","0","0.25"],
    [39008,"2014-10-18T03:00:00","22","ND","ND","ND","ND","ND","1","157.9","21.1","89.6","0","1.27"],
    [39009,"2014-10-18T04:00:00","18","ND","ND","ND","ND","ND","1.1","173.2","20.5","92.6","0","0.25"],
    [39010,"2014-10-18T05:00:00","13","ND","ND","ND","ND","ND","0.6","168.5","20.6","89.7","0","0.25"],
    [39011,"2014-10-18T06:00:00","16","ND","ND","ND","ND","ND","0","254.4","20.7","90.5","0","0.25"],
    [39012,"2014-10-18T07:00:00","59","ND","ND","ND","ND","ND","1","55.6","20.5","93.7","9","0.76"],
    [39013,"2014-10-18T08:00:00","32","ND","ND","ND","ND","ND","1","15.1","20.5","95.2","52.5","0.25"],
    [39014,"2014-10-18T09:00:00","43","ND","ND","ND","ND","ND","0.8","16.3","21","91.2","133","0"],
    [39015,"2014-10-18T10:00:00","47","ND","ND","ND","ND","ND","0.5","86.5","22.9","80.2","405.7","0"],
    [39016,"2014-10-18T11:00:00","44","ND","ND","ND","ND","ND","0.3","174.7","24.6","67.9","375","0"],
    [39017,"2014-10-18T12:00:00","32","ND","ND","ND","ND","ND","1.4","64.6","25.7","62.9","679.4","0"],
    [39018,"2014-10-18T13:00:00","29","ND","ND","ND","ND","ND","1.6","67.7","27.4","56.5","819.2","0"],
    [39019,"2014-10-18T14:00:00","15","ND","ND","ND","ND","ND","1.4","59.8","28.6","51.2","767.4","0"],
    [39020,"2014-10-18T15:00:00","25","ND","ND","ND","ND","ND","1.8","44.6","28.5","54.1","410.5","0"],
    [39021,"2014-10-18T16:00:00","22","ND","ND","ND","ND","ND","1.7","26.4","29","51.7","386.4","0"],
    [39022,"2014-10-18T17:00:00","31","ND","ND","ND","ND","ND","2.4","37","28","53.1","86.1","0"],
    [39023,"2014-10-18T18:00:00","29","ND","ND","ND","ND","ND","0.7","275.4","27.1","57.4","15.2","0"],
    [39024,"2014-10-18T19:00:00","35","ND","ND","ND","ND","ND","0.4","290.3","26.5","59.2","0","0"],
    [39025,"2014-10-18T20:00:00","44","ND","ND","ND","ND","ND","0.7","168.5","26.4","60.4","0","0"],
    [39026,"2014-10-18T21:00:00","30","ND","ND","ND","ND","ND","0.7","158.4","24.7","74.3","0","0"],
    [39027,"2014-10-18T22:00:00","22","ND","ND","ND","ND","ND","0.5","168.2","24.4","72.6","0","0"],
    [39028,"2014-10-18T23:00:00","27","ND","ND","ND","ND","ND","0.3","118.7","24.4","71.1","0","0"],
    [39029,"2014-10-19T00:00:00","38","ND","ND","ND","ND","ND","0.8","346.3","23","80.5","0","3.3"],
    [39030,"2014-10-19T01:00:00","15","ND","ND","ND","ND","ND","0.2","264.5","21.5","90.3","0","1.78"],
    [39031,"2014-10-19T02:00:00","25","ND","ND","ND","ND","ND","0.9","135.7","21.7","88.8","0","0.76"],
    [39032,"2014-10-19T03:00:00","13","ND","ND","ND","ND","ND","1.2","165.5","20.8","89.4","0","4.32"],
    [39033,"2014-10-19T04:00:00","11","ND","ND","ND","ND","ND","0.6","156.1","20.5","93.3","0","5.08"],
    [39034,"2014-10-19T05:00:00","14","ND","ND","ND","ND","ND","2.4","136.6","20","94.6","0","3.3"],
    [39035,"2014-10-19T06:00:00","15","ND","ND","ND","ND","ND","1.2","129.8","19.5","94.3","0","1.27"],
    [39036,"2014-10-19T07:00:00","17","ND","ND","ND","ND","ND","0.1","103","19.5","94","12.1","0.25"],
    [39037,"2014-10-19T08:00:00","18","ND","ND","ND","ND","ND","0.6","6.8","19.9","94.4","72.6","0.25"],
    [39038,"2014-10-19T09:00:00","32","ND","ND","ND","ND","ND","0.5","47.5","20.8","92","195.9","0"],
    [39039,"2014-10-19T10:00:00","30","ND","ND","ND","ND","ND","0.4","134.4","22.6","82.4","344.1","0"],
    [39040,"2014-10-19T11:00:00","34","ND","ND","ND","ND","ND","1","155.4","24.4","69.5","552.2","0"],
    [39041,"2014-10-19T12:00:00","28","ND","ND","ND","ND","ND","0.6","45.3","25.6","65.6","549.4","0"],
    [39042,"2014-10-19T13:00:00","22","ND","ND","ND","ND","ND","1.7","46.2","26.3","62.9","724","0"],
    [39043,"2014-10-19T14:00:00","21","ND","ND","ND","ND","ND","1","353.4","26.8","58.5","423.5","0"],
    [39044,"2014-10-19T15:00:00","31","ND","ND","ND","ND","ND","1.3","48.6","27.1","57.1","419","0"],
    [39045,"2014-10-19T16:00:00","28","ND","ND","ND","ND","ND","1.9","43.8","27.7","56.9","368.7","0"],
    [39046,"2014-10-19T17:00:00","13","ND","ND","ND","ND","ND","0.7","341.4","27.6","54.3","185.4","0"],
    [39047,"2014-10-19T18:00:00","21","ND","ND","ND","ND","ND","0.8","244.1","27","54.8","25.6","0"],
    [39048,"2014-10-19T19:00:00","19","ND","ND","ND","ND","ND","0.9","64.6","25.7","62.8","0","0"],
    [39049,"2014-10-19T20:00:00","17","ND","ND","ND","ND","ND","0.7","66.2","24.6","67.8","0","0"],
    [39050,"2014-10-19T21:00:00","24","ND","ND","ND","ND","ND","0.6","42.4","24.2","70.3","0","0"],
    [39051,"2014-10-19T22:00:00","28","ND","ND","ND","ND","ND","0.4","352.5","23.8","74.6","0","0"],
    [39052,"2014-10-19T23:00:00","29","ND","ND","ND","ND","ND","0.7","228.7","23","81.3","0","0"],
    [39053,"2014-10-20T00:00:00","26","ND","ND","ND","ND","ND","0.3","304.1","22.7","83.7","0","0"],
    [39054,"2014-10-20T01:00:00","34","ND","ND","ND","ND","ND","0.4","9","22.3","86.7","0","0"],
    [39055,"2014-10-20T02:00:00","32","ND","ND","ND","ND","ND","0.5","337.1","22","88.2","0","0"],
    [39056,"2014-10-20T03:00:00","41","ND","ND","ND","ND","ND","0.5","253.1","22.1","86.7","0","0"],
    [39057,"2014-10-20T04:00:00","33","ND","ND","ND","ND","ND","0.7","354","21.9","88.9","0","0"],
    [39058,"2014-10-20T05:00:00","44","ND","ND","ND","ND","ND","0.2","21.1","21.6","92.5","0","0"],
    [39059,"2014-10-20T06:00:00","47","ND","ND","ND","ND","ND","0","280.4","21.5","93","0","0"],
    [39060,"2014-10-20T07:00:00","59","ND","ND","ND","ND","ND","0.7","44.1","21.6","92.5","15.4","0"],
    [39061,"2014-10-20T08:00:00","70","ND","ND","ND","ND","ND","0.1","27.3","21.9","90.8","63.2","0.25"],
    [39062,"2014-10-20T09:00:00","85","ND","ND","ND","ND","ND","1.1","58.9","23","85.6","219.7","0.25"],
    [39063,"2014-10-20T10:00:00","78","ND","ND","ND","ND","ND","0.8","86.1","24.8","74.6","497","0"],
    [39064,"2014-10-20T11:00:00","60","ND","ND","ND","ND","ND","0.8","51.9","26.8","64.2","626.5","0"],
    [39065,"2014-10-20T12:00:00","43","ND","ND","ND","ND","ND","1.4","113.8","27.9","57.3","543.1","0"],
    [39066,"2014-10-20T13:00:00","53","ND","ND","ND","ND","ND","0.8","80.8","28.6","55","483.5","0"],
    [39067,"2014-10-20T14:00:00","43","ND","ND","ND","ND","ND","1.9","9.1","29.1","52.6","588","0"],
    [39068,"2014-10-20T15:00:00","27","ND","ND","ND","ND","ND","0.2","329.9","30.1","47.7","587.7","0"],
    [39069,"2014-10-20T16:00:00","29","ND","ND","ND","ND","ND","2.2","241.3","27.8","58.4","61.6","0"],
    [39070,"2014-10-20T17:00:00","26","ND","ND","ND","ND","ND","2.6","199.8","22.5","83.3","10.5","32.51"],
    [39071,"2014-10-20T18:00:00","24","ND","ND","ND","ND","ND","2.7","186.8","21.1","84.4","0","0"],
    [39072,"2014-10-20T19:00:00","33","ND","ND","ND","ND","ND","0.5","265.7","21.4","85.8","0","1.78"],
    [39073,"2014-10-20T20:00:00","46","ND","ND","ND","ND","ND","0.6","219.1","20.9","90.8","0","4.06"],
    [39074,"2014-10-20T21:00:00","48","ND","ND","ND","ND","ND","0.9","167.2","20.5","92.4","0","0.51"],
    [39075,"2014-10-20T22:00:00","28","ND","ND","ND","ND","ND","0.3","232","20.7","91.3","0","0"],
    [39076,"2014-10-20T23:00:00","47","ND","ND","ND","ND","ND","0.2","181.8","21.1","91.4","0","0"],
    [39077,"2014-10-21T00:00:00","38","ND","ND","ND","ND","ND","0.6","132.5","20.9","92.7","0","0.25"],
    [39078,"2014-10-21T01:00:00","38","ND","ND","ND","ND","ND","0.6","169.3","20.4","93","0","0"],
    [39079,"2014-10-21T02:00:00","29","ND","ND","ND","ND","ND","0.2","161.2","20.3","93.1","0","0"],
    [39080,"2014-10-21T03:00:00","55","ND","ND","ND","ND","ND","0.2","31.3","20.4","94","0","0"],
    [39081,"2014-10-21T04:00:00","56","ND","ND","ND","ND","ND","0.6","34.4","20","94.9","0","0"],
    [39082,"2014-10-21T05:00:00","79","ND","ND","ND","ND","ND","0.4","19.3","19.8","95.9","0","0"],
    [39083,"2014-10-21T06:00:00","118","ND","ND","ND","ND","ND","0.4","284.8","19.7","95.4","0","0"],
    [39084,"2014-10-21T07:00:00","107","ND","ND","ND","ND","ND","0.3","242","19.9","95","54.9","0"],
    [39085,"2014-10-21T08:00:00","141","ND","ND","ND","ND","ND","0.3","185.5","21.1","89.7","152.6","0"],
    [39086,"2014-10-21T09:00:00","126","ND","ND","ND","ND","ND","0.8","62.7","23.2","79.3","452.6","0"],
    [39087,"2014-10-21T10:00:00","59","ND","ND","ND","ND","ND","1","84.3","25.3","65.4","642.9","0"],
    [39088,"2014-10-21T11:00:00","24","ND","ND","ND","ND","ND","1.4","42.3","26.3","61","622.3","0"],
    [39089,"2014-10-21T12:00:00","33","ND","ND","ND","ND","ND","0.9","78","27.7","56.4","731.4","0"],
    [39090,"2014-10-21T13:00:00","37","ND","ND","ND","ND","ND","0.4","66.5","29.3","50.4","749.4","0"],
    [39091,"2014-10-21T14:00:00","28","ND","ND","ND","ND","ND","1.1","75.6","30.2","45.6","741.7","0"],
    [39092,"2014-10-21T15:00:00","29","ND","ND","ND","ND","ND","1","86.1","31.1","42.2","589.3","0"],
    [39093,"2014-10-21T16:00:00","27","ND","ND","ND","ND","ND","0.6","55.7","31.3","41.9","259.9","0"],
    [39094,"2014-10-21T17:00:00","38","ND","ND","ND","ND","ND","1","107.6","31.1","42","184.6","0"],
    [39095,"2014-10-21T18:00:00","57","ND","ND","ND","ND","ND","1.1","250.9","29.2","50.9","33.7","0"],
    [39096,"2014-10-21T19:00:00","66","ND","ND","ND","ND","ND","0.1","151.4","27.8","56.2","0","0"],
    [39097,"2014-10-21T20:00:00","96","ND","ND","ND","ND","ND","0.6","238.5","27.1","59.7","0","0"],
    [39098,"2014-10-21T21:00:00","79","ND","ND","ND","ND","ND","0.3","31.2","26.4","62.3","0","0"],
    [39099,"2014-10-21T22:00:00","70","ND","ND","ND","ND","ND","0.7","166.7","25.3","69.3","0","0"],
    [39100,"2014-10-21T23:00:00","58","ND","ND","ND","ND","ND","0.1","60.7","24.9","71.7","0","0"],
    [39101,"2014-10-22T00:00:00","74","ND","ND","ND","ND","ND","0.4","326.7","24.3","73.7","0","0"],
    [39102,"2014-10-22T01:00:00","69","ND","ND","ND","ND","ND","0.4","31","23.4","79.6","0","0"],
    [39103,"2014-10-22T02:00:00","64","ND","ND","ND","ND","ND","0.3","254.3","23.2","78.9","0","0"],
    [39104,"2014-10-22T03:00:00","44","ND","ND","ND","ND","ND","0.1","3","23.1","78.9","0","0"],
    [39105,"2014-10-22T04:00:00","78","ND","ND","ND","ND","ND","0.4","34","22.5","83.8","0","0"],
    [39106,"2014-10-22T05:00:00","71","ND","ND","ND","ND","ND","0.3","351.1","22","86.1","0","0"],
    [39107,"2014-10-22T06:00:00","80","ND","ND","ND","ND","ND","0.4","48.2","22.3","84.6","0","0"],
    [39108,"2014-10-22T07:00:00","103","ND","ND","ND","ND","ND","0.3","53.6","22.4","85.1","71.6","0"],
    [39109,"2014-10-22T08:00:00","93","ND","ND","ND","ND","ND","0.4","327.3","24.2","75.5","233.7","0"],
    [39110,"2014-10-22T09:00:00","111","ND","ND","ND","ND","ND","1","116.8","25.6","67.8","318.4","0"],
    [39111,"2014-10-22T10:00:00","112","ND","ND","ND","ND","ND","0.8","106.4","26.9","63.1","516","0"],
    [39112,"2014-10-22T11:00:00","67","ND","ND","ND","ND","ND","1.4","117","27.8","58.9","436.7","0"],
    [39113,"2014-10-22T12:00:00","51","ND","ND","ND","ND","ND","0.4","90.3","27.8","58.2","221.8","0"],
    [39114,"2014-10-22T13:00:00","29","ND","ND","ND","ND","ND","3","261.5","28","55.3","496.3","0"],
    [39115,"2014-10-22T14:00:00","29","ND","ND","ND","ND","ND","2.5","261.7","26.7","61.1","179.3","6.35"],
    [39116,"2014-10-22T15:00:00","23","ND","ND","ND","ND","ND","0.8","325.5","23.1","80.2","40.3","7.87"],
    [39117,"2014-10-22T16:00:00","70","ND","ND","ND","ND","ND","0.5","36.2","22.8","85.3","38.7","1.27"],
    [39118,"2014-10-22T17:00:00","33","ND","ND","ND","ND","ND","2.1","26.6","21.5","89.1","17.7","1.02"],
    [39119,"2014-10-22T18:00:00","36","ND","ND","ND","ND","ND","1.9","21.6","20.3","94.2","4.5","2.79"],
    [39120,"2014-10-22T19:00:00","41","ND","ND","ND","ND","ND","0.4","254.2","20.6","94.6","0","0"],
    [39121,"2014-10-22T20:00:00","31","ND","ND","ND","ND","ND","1.7","166.7","21.1","92.2","0","1.27"],
    [39122,"2014-10-22T21:00:00","20","ND","ND","ND","ND","ND","2.1","158.5","20.6","94.3","0","0.76"],
    [39123,"2014-10-22T22:00:00","22","ND","ND","ND","ND","ND","1.5","140.1","20.6","93.4","0","1.02"],
    [39124,"2014-10-22T23:00:00","13","ND","ND","ND","ND","ND","0.9","150.5","20.4","93.9","0","1.27"],
    [39125,"2014-10-23T00:00:00","13","ND","ND","ND","ND","ND","0.2","28.5","20.3","94.8","0","1.27"],
    [39126,"2014-10-23T01:00:00","29","ND","ND","ND","ND","ND","0.5","45.5","20","96.3","0","0.51"],
    [39127,"2014-10-23T02:00:00","30","ND","ND","ND","ND","ND","0.6","60.8","19.7","97.1","0","0"],
    [39128,"2014-10-23T03:00:00","16","ND","ND","ND","ND","ND","0.2","83.9","19.7","97","0","0.25"],
    [39129,"2014-10-23T04:00:00","25","ND","ND","ND","ND","ND","0.9","90.3","19.8","96.6","0","0"],
    [39130,"2014-10-23T05:00:00","28","ND","ND","ND","ND","ND","0.7","45.8","19.6","97.1","0","0"],
    [39131,"2014-10-23T06:00:00","32","ND","ND","ND","ND","ND","0.5","79.6","19.7","97.2","0","0"],
    [39132,"2014-10-23T07:00:00","26","ND","ND","ND","ND","ND","0.6","56.1","19.7","96.7","39","0"],
    [39133,"2014-10-23T08:00:00","78","ND","ND","ND","ND","ND","0.4","69.4","21.1","91.5","234.2","0"],
    [39134,"2014-10-23T09:00:00","37","ND","ND","ND","ND","ND","0.8","92.8","21.8","83.2","171.3","0"],
    [39135,"2014-10-23T10:00:00","45","ND","ND","ND","ND","ND","0.7","99.6","23.6","74.8","549.6","0"],
    [39136,"2014-10-23T11:00:00","50","ND","ND","ND","ND","ND","1.1","71.7","24.4","71.2","250.4","0"],
    [39137,"2014-10-23T12:00:00","44","ND","ND","ND","ND","ND","0.6","65.7","25.7","66.3","593.9","0"],
    [39138,"2014-10-23T13:00:00","45","ND","ND","ND","ND","ND","1.6","55.3","27","61.9","696.8","0"],
    [39139,"2014-10-23T14:00:00","38","ND","ND","ND","ND","ND","0.9","21.8","28","57.6","354.5","0"],
    [39140,"2014-10-23T15:00:00","19","ND","ND","ND","ND","ND","1","16.3","29.3","47.7","489.8","0"],
    [39141,"2014-10-23T16:00:00","21","ND","ND","ND","ND","ND","1","243.9","28.9","48.9","118.9","0"],
    [39142,"2014-10-23T17:00:00","43","ND","ND","ND","ND","ND","2.2","146.7","26.1","65.4","39.7","0"],
    [39143,"2014-10-23T18:00:00","58","ND","ND","ND","ND","ND","0.6","148","24.5","71.7","8.8","0"],
    [39144,"2014-10-23T19:00:00","124","ND","ND","ND","ND","ND","0","258.6","24.4","72.7","0","0"],
    [39145,"2014-10-23T20:00:00","117","ND","ND","ND","ND","ND","0.5","144","24.7","70.1","0","0"],
    [39146,"2014-10-23T21:00:00","97","ND","ND","ND","ND","ND","0.1","143.5","24.7","69.5","0","0"],
    [39147,"2014-10-23T22:00:00","117","ND","ND","ND","ND","ND","0.1","17.9","24.1","75","0","0"],
    [39148,"2014-10-23T23:00:00","81","ND","ND","ND","ND","ND","0.1","154.8","23.1","80.1","0","0"],
    [39149,"2014-10-24T00:00:00","72","ND","ND","ND","ND","ND","0.3","280.4","22.2","83.2","0","0"],
    [39150,"2014-10-24T01:00:00","77","ND","ND","ND","ND","ND","0","327","21.9","85.1","0","0"],
    [39151,"2014-10-24T02:00:00","83","ND","ND","ND","ND","ND","0","69.2","21.7","85.7","0","0"],
    [39152,"2014-10-24T03:00:00","77","ND","ND","ND","ND","ND","0.1","72.3","21.1","86.7","0","0"],
    [39153,"2014-10-24T04:00:00","63","ND","ND","ND","ND","ND","0.1","133.3","20.7","87.3","0","0"],
    [39154,"2014-10-24T05:00:00","81","ND","ND","ND","ND","ND","0.4","26.7","20.9","87.5","0","0"],
    [39155,"2014-10-24T06:00:00","87","ND","ND","ND","ND","ND","0.1","161.7","21","86.7","0","0"],
    [39156,"2014-10-24T07:00:00","59","ND","ND","ND","ND","ND","0.2","115.1","21.5","83.2","49.2","0"],
    [39157,"2014-10-24T08:00:00","62","ND","ND","ND","ND","ND","0.1","90.1","22.7","77.4","152.2","0"],
    [39158,"2014-10-24T09:00:00","63","ND","ND","ND","ND","ND","0.7","89.7","24.3","71.5","416.4","0"],
    [39159,"2014-10-24T10:00:00","62","ND","ND","ND","ND","ND","1.4","127.8","26.4","63.9","639.2","0"],
    [39160,"2014-10-24T11:00:00","74","ND","ND","ND","ND","ND","2.1","137.2","27.1","61.9","424.4","0"],
    [39161,"2014-10-24T12:00:00","49","ND","ND","ND","ND","ND","0.8","115.9","27.4","58.9","302.7","0"],
    [39162,"2014-10-24T13:00:00","68","ND","ND","ND","ND","ND","0.9","271.5","28.2","56.2","484.6","0"],
    [39163,"2014-10-24T14:00:00","38","ND","ND","ND","ND","ND","1.4","326.4","29.5","51.5","673.3","0"],
    [39164,"2014-10-24T15:00:00","39","ND","ND","ND","ND","ND","1.5","332.7","29.6","48.3","447.5","0"],
    [39165,"2014-10-24T16:00:00","17","ND","ND","ND","ND","ND","2.5","265.1","29.7","47.7","363.8","0"],
    [39166,"2014-10-24T17:00:00","20","ND","ND","ND","ND","ND","2.5","273.6","28.1","51.4","104.8","0"],
    [39167,"2014-10-24T18:00:00","47","ND","ND","ND","ND","ND","3.2","169.6","25.8","65.1","9.9","0"],
    [39168,"2014-10-24T19:00:00","39","ND","ND","ND","ND","ND","3.1","174.6","24.4","73.1","0","0"],
    [39169,"2014-10-24T20:00:00","60","ND","ND","ND","ND","ND","1.8","141.8","23.4","79.3","0","0"],
    [39170,"2014-10-24T21:00:00","47","ND","ND","ND","ND","ND","1.1","148","22.7","80.9","0","0"],
    [39171,"2014-10-24T22:00:00","76","ND","ND","ND","ND","ND","0.5","27.6","22.8","81.2","0","0"],
    [39172,"2014-10-24T23:00:00","77","ND","ND","ND","ND","ND","0.6","36.2","22.4","84.1","0","0"],
    [39173,"2014-10-25T00:00:00","87","ND","ND","ND","ND","ND","0.3","307.8","22.1","85.7","0","0"],
    [39174,"2014-10-25T01:00:00","103","ND","ND","ND","ND","ND","0.4","33.6","21.9","86.2","0","0"],
    [39175,"2014-10-25T02:00:00","114","ND","ND","ND","ND","ND","0.3","140.4","22.2","84.9","0","0"],
    [39176,"2014-10-25T03:00:00","ND","ND","ND","ND","ND","ND","1.7","148.7","21.7","87.9","0","0"],
    [39177,"2014-10-25T04:00:00","ND","ND","ND","ND","ND","ND","2.2","164.5","21.2","90.2","0","0"],
    [39178,"2014-10-25T05:00:00","ND","ND","ND","ND","ND","ND","1.4","176.9","21.3","88.9","0","0"],
    [39179,"2014-10-25T06:00:00","ND","ND","ND","ND","ND","ND","1.2","160","21.4","88.2","0","0"],
    [39180,"2014-10-25T07:00:00","ND","ND","ND","ND","ND","ND","0.8","144.2","21.5","88.1","18.9","0"],
    [39181,"2014-10-25T08:00:00","25","ND","ND","ND","ND","ND","0.4","34.5","22","87.2","83.5","0"],
    [39182,"2014-10-25T09:00:00","13","ND","ND","ND","ND","ND","0.9","39.8","22.5","85.6","160.1","0"],
    [39183,"2014-10-25T10:00:00","ND","ND","ND","ND","ND","ND","1.9","152.1","25.2","68","727.6","0"],
    [39184,"2014-10-25T11:00:00","ND","ND","ND","ND","ND","ND","2.1","152","26.6","59.8","818.1","0"],
    [39185,"2014-10-25T12:00:00","176","ND","ND","ND","ND","ND","2.2","141.9","27.8","53.9","801.4","0"],
    [39186,"2014-10-25T13:00:00","20","ND","ND","ND","ND","ND","2","139.6","28.9","50.1","768.6","0"],
    [39187,"2014-10-25T14:00:00","20","ND","ND","ND","ND","ND","0.4","184.4","29.9","46.2","595.5","0"],
    [39188,"2014-10-25T15:00:00","31","ND","ND","ND","ND","ND","1","282.8","28.6","50.9","151.2","0"],
    [39189,"2014-10-25T16:00:00","16","ND","ND","ND","ND","ND","1.6","255","25.2","70.9","95.1","0.51"],
    [39190,"2014-10-25T17:00:00","16","ND","ND","ND","ND","ND","0.6","196.7","27.2","59.4","123.6","0"],
    [39191,"2014-10-25T18:00:00","22","ND","ND","ND","ND","ND","0.5","265.5","26.7","58.6","20.8","0"],
    [39192,"2014-10-25T19:00:00","17","ND","ND","ND","ND","ND","1.1","299.7","26.1","56.8","0","0"],
    [39193,"2014-10-25T20:00:00","32","ND","ND","ND","ND","ND","0.9","153.1","26","57.8","0","0"],
    [39194,"2014-10-25T21:00:00","30","ND","ND","ND","ND","ND","0.2","264.4","25.3","61.1","0","0"],
    [39195,"2014-10-25T22:00:00","31","ND","ND","ND","ND","ND","0.3","177.9","24.7","65.1","0","0"],
    [39196,"2014-10-25T23:00:00","44","ND","ND","ND","ND","ND","0.4","85.4","23.9","69.3","0","0"],
    [39197,"2014-10-26T00:00:00","39","ND","ND","ND","ND","ND","0.6","134.3","23.2","75.5","0","0"],
    [39198,"2014-10-26T01:00:00","32","ND","ND","ND","ND","ND","0.4","40.4","22.5","79","0","0"],
    [39199,"2014-10-26T02:00:00","30","ND","ND","ND","ND","ND","0.5","27.1","22.2","78.9","0","0"],
    [39200,"2014-10-26T03:00:00","22","ND","ND","ND","ND","ND","0.7","60.3","22.1","76.8","0","0"],
    [39201,"2014-10-26T04:00:00","23","ND","ND","ND","ND","ND","0.5","14.6","21.9","79.7","0","0.25"],
    [39202,"2014-10-26T05:00:00","24","ND","ND","ND","ND","ND","0.6","302.9","21.1","87.6","0","0"],
    [39203,"2014-10-26T06:00:00","15","ND","ND","ND","ND","ND","0.7","60.3","20.5","91.4","0","2.03"],
    [39204,"2014-10-26T07:00:00","10","ND","ND","ND","ND","ND","0.2","46.3","20.3","93.1","4.5","6.86"],
    [39205,"2014-10-26T08:00:00","20","ND","ND","ND","ND","ND","0.4","67","19.9","96.2","13.8","29.72"],
    [39206,"2014-10-26T09:00:00","11","ND","ND","ND","ND","ND","0.8","17.3","19.8","97.9","26.7","11.43"],
    [39207,"2014-10-26T10:00:00","14","ND","ND","ND","ND","ND","0.9","2.5","19.9","97.9","52.8","11.68"],
    [39208,"2014-10-26T11:00:00","13","ND","ND","ND","ND","ND","1.2","13.8","19.8","97","100.8","7.87"],
    [39209,"2014-10-26T12:00:00","12","ND","ND","ND","ND","ND","0.5","52.9","20.3","94.7","133.6","4.57"],
    [39210,"2014-10-26T13:00:00","13","ND","ND","ND","ND","ND","0.9","33.7","21.1","94.1","276.1","1.02"],
    [39211,"2014-10-26T14:00:00","23","ND","ND","ND","ND","ND","1.1","319.1","22","85.7","400.6","0.76"],
    [39212,"2014-10-26T15:00:00","ND","ND","ND","ND","ND","ND","ND","ND","ND","ND","ND","ND"],
    [39213,"2014-10-26T16:00:00","10","ND","ND","ND","ND","ND","ND","ND","ND","ND","ND","ND"],
    [39214,"2014-10-26T17:00:00","21","ND","ND","ND","ND","ND","1","2.4","23.5","68.2","86.5","0"],
    [39215,"2014-10-26T18:00:00","33","ND","ND","ND","ND","ND","1","21.4","23.2","70.2","18.1","0"],
    [39216,"2014-10-26T19:00:00","48","ND","ND","ND","ND","ND","0.4","351","22.3","80.6","0","0"],
    [39217,"2014-10-26T20:00:00","27","ND","ND","ND","ND","ND","0.5","51.8","21.9","83","0","0"],
    [39218,"2014-10-26T21:00:00","37","ND","ND","ND","ND","ND","0.3","111.7","21.8","82.2","0","0"],
    [39219,"2014-10-26T22:00:00","37","ND","ND","ND","ND","ND","0.3","255.1","21.6","84.1","0","0"],
    [39220,"2014-10-26T23:00:00","28","ND","ND","ND","ND","ND","0.5","223.5","21.5","82.8","0","0"],
    [39221,"2014-10-27T00:00:00","30","ND","ND","ND","ND","ND","0.1","357.2","21.2","83.3","0","0"],
    [39222,"2014-10-27T01:00:00","38","ND","ND","ND","ND","ND","0.6","8.5","20.3","88.7","0","0"],
    [39223,"2014-10-27T02:00:00","34","ND","ND","ND","ND","ND","0.2","186","20.2","90","0","0"],
    [39224,"2014-10-27T03:00:00","35","ND","ND","ND","ND","ND","0.1","47.2","20.2","89.8","0","0"],
    [39225,"2014-10-27T04:00:00","27","ND","ND","ND","ND","ND","0.2","339.6","20","89.8","0","0"],
    [39226,"2014-10-27T05:00:00","38","ND","ND","ND","ND","ND","0.3","75.9","19.8","90.3","0","0"],
    [39227,"2014-10-27T06:00:00","49","ND","ND","ND","ND","ND","0.2","48.9","19.5","92.8","0","0"],
    [39228,"2014-10-27T07:00:00","70","ND","ND","ND","ND","ND","0.1","54.2","19.7","93","31.2","0"],
    [39229,"2014-10-27T08:00:00","91","ND","ND","ND","ND","ND","0.3","50.8","20.4","89.1","93.2","0"],
    [39230,"2014-10-27T09:00:00","68","ND","ND","ND","ND","ND","0.5","89.5","21.9","80.5","229.8","0"],
    [39231,"2014-10-27T10:00:00","35","ND","ND","ND","ND","ND","1","65.6","23.4","72.9","422.3","0"],
    [39232,"2014-10-27T11:00:00","52","ND","ND","ND","ND","ND","0.7","119.6","24.7","65.3","536.7","0"],
    [39233,"2014-10-27T12:00:00","30","ND","ND","ND","ND","ND","1.2","110.3","26.2","58.8","635","0"],
    [39234,"2014-10-27T13:00:00","50","ND","ND","ND","ND","ND","1.4","111.6","27.5","55.8","755.2","0"],
    [39235,"2014-10-27T14:00:00","39","ND","ND","ND","ND","ND","1.1","42.3","27.9","54.9","536","0"],
    [39236,"2014-10-27T15:00:00","39","ND","ND","ND","ND","ND","1.2","57.5","28.7","53.6","512.6","0"],
    [39237,"2014-10-27T16:00:00","ND","ND","ND","ND","ND","ND","1.5","42.4","28.6","53.8","236","0"],
    [39238,"2014-10-27T17:00:00","39","ND","ND","ND","ND","ND","0.1","104.3","28.2","54.6","94.5","0"],
    [39239,"2014-10-27T18:00:00","30","ND","ND","ND","ND","ND","0.7","304.7","27.2","55.4","31.4","0"],
    [39240,"2014-10-27T19:00:00","54","ND","ND","ND","ND","ND","1.1","126.2","26.7","56.4","0","0"],
    [39241,"2014-10-27T20:00:00","65","ND","ND","ND","ND","ND","0.5","277.6","25.5","62.8","0","0"],
    [39242,"2014-10-27T21:00:00","60","ND","ND","ND","ND","ND","1.2","132.2","24.9","65.8","0","0"],
    [39243,"2014-10-27T22:00:00","68","ND","ND","ND","ND","ND","0.7","149.8","23.8","71.5","0","0"],
    [39244,"2014-10-27T23:00:00","50","ND","ND","ND","ND","ND","0.7","190.5","23.2","74.2","0","0"],
    [39245,"2014-10-28T00:00:00","41","ND","ND","ND","ND","ND","0.2","86.9","22.9","73.8","0","0"],
    [39246,"2014-10-28T01:00:00","47","ND","ND","ND","ND","ND","0.2","6.1","22.2","79.2","0","0"],
    [39247,"2014-10-28T02:00:00","24","ND","ND","ND","ND","ND","0.3","170.3","21.5","81.2","0","0"],
    [39248,"2014-10-28T03:00:00","45","ND","ND","ND","ND","ND","0.4","166.8","21.4","82.5","0","0"],
    [39249,"2014-10-28T04:00:00","42","ND","ND","ND","ND","ND","0.4","262.5","20.8","86.5","0","0"],
    [39250,"2014-10-28T05:00:00","42","ND","ND","ND","ND","ND","0.4","253.1","20.3","88.5","0","0"],
    [39251,"2014-10-28T06:00:00","51","ND","ND","ND","ND","ND","0","208","20.5","87.5","0","0"],
    [39252,"2014-10-28T07:00:00","105","ND","ND","ND","ND","ND","0.6","18.5","21.2","84.9","52","0"],
    [39253,"2014-10-28T08:00:00","138","ND","ND","ND","ND","ND","0.7","358","21.7","84.6","127.1","0"],
    [39254,"2014-10-28T09:00:00","104","ND","ND","ND","ND","ND","0.5","148","24.2","71.5","396.4","0"],
    [39255,"2014-10-28T10:00:00","64","ND","ND","ND","ND","ND","1","154.2","26.8","59.4","620.4","0"],
    [39256,"2014-10-28T11:00:00","48","ND","ND","ND","ND","ND","1.4","121.9","27.9","56.3","556.6","0"],
    [39257,"2014-10-28T12:00:00","47","ND","ND","ND","ND","ND","0.7","271.6","28.6","53.4","515.5","0"],
    [39258,"2014-10-28T13:00:00","29","ND","ND","ND","ND","ND","2.1","268.1","28.4","53.6","361","0"],
    [39259,"2014-10-28T14:00:00","20","ND","ND","ND","ND","ND","1.5","340.4","29.2","49.3","418.8","0"],
    [39260,"2014-10-28T15:00:00","18","ND","ND","ND","ND","ND","1.9","19.1","30.4","45.9","624.9","0"],
    [39261,"2014-10-28T16:00:00","24","ND","ND","ND","ND","ND","1.4","37.9","30.5","46","241.4","0"],
    [39262,"2014-10-28T17:00:00","37","ND","ND","ND","ND","ND","1.9","125.9","29.2","50.3","76.6","0"],
    [39263,"2014-10-28T18:00:00","57","ND","ND","ND","ND","ND","1.8","165.9","28","53.5","16.4","0"],
    [39264,"2014-10-28T19:00:00","59","ND","ND","ND","ND","ND","0.5","81.1","26.4","64.5","0","0"],
    [39265,"2014-10-28T20:00:00","64","ND","ND","ND","ND","ND","0.1","38.5","25.9","66.3","0","0"],
    [39266,"2014-10-28T21:00:00","90","ND","ND","ND","ND","ND","1.1","132","25.8","67.5","0","0"],
    [39267,"2014-10-28T22:00:00","51","ND","ND","ND","ND","ND","0.7","4.7","24.2","74.9","0","0"],
    [39268,"2014-10-28T23:00:00","64","ND","ND","ND","ND","ND","0.5","281.3","23.3","79.1","0","0"],
    [39269,"2014-10-29T00:00:00","46","ND","ND","ND","ND","ND","0.3","314.3","23.1","78.8","0","0"],
    [39270,"2014-10-29T01:00:00","61","ND","ND","ND","ND","ND","0.3","26.5","23.1","79.4","0","0"],
    [39271,"2014-10-29T02:00:00","70","ND","ND","ND","ND","ND","0.3","340.6","22.7","81.4","0","0"],
    [39272,"2014-10-29T03:00:00","58","ND","ND","ND","ND","ND","0.2","234","22.9","79.9","0","0"],
    [39273,"2014-10-29T04:00:00","47","ND","ND","ND","ND","ND","0.2","184.3","22.8","79.8","0","0"],
    [39274,"2014-10-29T05:00:00","40","ND","ND","ND","ND","ND","1.2","166.8","22.7","81.3","0","0"],
    [39275,"2014-10-29T06:00:00","39","ND","ND","ND","ND","ND","0.8","194.6","22","84.7","0","0"],
    [39276,"2014-10-29T07:00:00","56","ND","ND","ND","ND","ND","0.9","176.7","22.5","81","35.3","0"],
    [39277,"2014-10-29T08:00:00","75","ND","ND","ND","ND","ND","0.7","39.1","23.5","75.8","95.5","0"],
    [39278,"2014-10-29T09:00:00","72","ND","ND","ND","ND","ND","0.8","38.9","23.6","77.1","117.1","0"],
    [39279,"2014-10-29T10:00:00","52","ND","ND","ND","ND","ND","0.7","140.9","25.7","65.3","522.8","0"],
    [39280,"2014-10-29T11:00:00","56","ND","ND","ND","ND","ND","1","24.1","27.7","58.8","765.2","0"],
    [39281,"2014-10-29T12:00:00","45","ND","ND","ND","ND","ND","1","46.4","28.8","54.9","564","0"],
    [39282,"2014-10-29T13:00:00","47","ND","ND","ND","ND","ND","1.2","45.3","29.7","52","402.1","0"],
    [39283,"2014-10-29T14:00:00","42","ND","ND","ND","ND","ND","0.9","55.8","26.1","69.6","136.4","11.94"],
    [39284,"2014-10-29T15:00:00","39","ND","ND","ND","ND","ND","0.2","164.2","28.1","61.6","513.1","0"],
    [39285,"2014-10-29T16:00:00","19","ND","ND","ND","ND","ND","0.4","25.5","30.8","47.4","412.1","0"],
    [39286,"2014-10-29T17:00:00","38","ND","ND","ND","ND","ND","0.8","110.9","29.1","53.9","75.3","0"],
    [39287,"2014-10-29T18:00:00","42","ND","ND","ND","ND","ND","0.4","127","27.9","56.1","13.7","0"],
    [39288,"2014-10-29T19:00:00","45","ND","ND","ND","ND","ND","0.2","151.3","27","57.4","0","0"],
    [39289,"2014-10-29T20:00:00","70","ND","ND","ND","ND","ND","0.5","103.5","26.6","59.8","0","0"],
    [39290,"2014-10-29T21:00:00","55","ND","ND","ND","ND","ND","0.2","202.4","25.4","70.1","0","0"],
    [39291,"2014-10-29T22:00:00","54","ND","ND","ND","ND","ND","0.8","171.6","24.9","72.5","0","0"],
    [39292,"2014-10-29T23:00:00","41","ND","ND","ND","ND","ND","0.9","71.5","24.1","75","0","0"],
    [39293,"2014-10-30T00:00:00","37","ND","ND","ND","ND","ND","0.3","336.5","23.4","77.1","0","0"],
    [39294,"2014-10-30T01:00:00","31","ND","ND","ND","ND","ND","0.4","164","23.4","77.5","0","0"],
    [39295,"2014-10-30T02:00:00","49","ND","ND","ND","ND","ND","1.1","169.1","23.2","80.5","0","0"],
    [39296,"2014-10-30T03:00:00","7","ND","ND","ND","ND","ND","2","170.6","22.1","85.6","0","0"],
    [39297,"2014-10-30T04:00:00","18","ND","ND","ND","ND","ND","0.5","207.5","21.9","87.3","0","0"],
    [39298,"2014-10-30T05:00:00","14","ND","ND","ND","ND","ND","0.7","180.9","21.9","84.5","0","0"],
    [39299,"2014-10-30T06:00:00","16","ND","ND","ND","ND","ND","0.1","0.9","21.8","85.2","0","0"],
    [39300,"2014-10-30T07:00:00","59","ND","ND","ND","ND","ND","0.4","32.5","22.3","84","75.4","0"],
    [39301,"2014-10-30T08:00:00","59","ND","ND","ND","ND","ND","1","108.3","23.8","76.5","256.3","0.25"],
    [39302,"2014-10-30T09:00:00","46","ND","ND","ND","ND","ND","1.7","148.6","24.8","71.7","421.6","0"],
    [39303,"2014-10-30T10:00:00","38","ND","ND","ND","ND","ND","1.5","135.1","26.1","67.1","557.3","0"],
    [39304,"2014-10-30T11:00:00","39","ND","ND","ND","ND","ND","1.1","144.9","27.9","60.4","731.6","0"],
    [39305,"2014-10-30T12:00:00","42","ND","ND","ND","ND","ND","0.8","256.8","26.6","65.8","126.2","4.57"],
    [39306,"2014-10-30T13:00:00","29","ND","ND","ND","ND","ND","1.5","196","24.2","82.5","123.4","0.51"],
    [39307,"2014-10-30T14:00:00","17","ND","ND","ND","ND","ND","1.3","158.5","25.7","70.7","266.1","0"],
    [39308,"2014-10-30T15:00:00","26","ND","ND","ND","ND","ND","2.7","277.1","27.4","59.4","289.9","0"],
    [39309,"2014-10-30T16:00:00","15","ND","ND","ND","ND","ND","0.9","229.8","28.1","48.4","168.1","0"],
    [39310,"2014-10-30T17:00:00","21","ND","ND","ND","ND","ND","1.5","234.6","27.2","51.1","107.9","0"],
    [39311,"2014-10-30T18:00:00","33","ND","ND","ND","ND","ND","0.4","113.7","26.2","60.1","24.6","0"],
    [39312,"2014-10-30T19:00:00","40","ND","ND","ND","ND","ND","0.7","223.5","24.9","66.4","0","0"],
    [39313,"2014-10-30T20:00:00","78","ND","ND","ND","ND","ND","1","114.4","25.1","65.5","0","0"],
    [39314,"2014-10-30T21:00:00","63","ND","ND","ND","ND","ND","0.3","225.4","24.2","72","0","0"],
    [39315,"2014-10-30T22:00:00","57","ND","ND","ND","ND","ND","0.2","287.5","23.8","71.3","0","0"],
    [39316,"2014-10-30T23:00:00","73","ND","ND","ND","ND","ND","0.2","253","23.7","73.1","0","0"],
    [39317,"2014-10-31T00:00:00","50","ND","ND","ND","ND","ND","0.4","25.4","23.1","79.1","0","0"],
    [39318,"2014-10-31T01:00:00","63","ND","ND","ND","ND","ND","1.2","14.9","21.7","89.6","0","8.64"],
    [39319,"2014-10-31T02:00:00","21","ND","ND","ND","ND","ND","0.4","298.3","20.3","96.3","0","37.08"],
    [39320,"2014-10-31T03:00:00","14","ND","ND","ND","ND","ND","1","186.5","20","97.8","0","3.56"],
    [39321,"2014-10-31T04:00:00","16","ND","ND","ND","ND","ND","0.4","143.5","19.6","96.8","0","3.56"],
    [39322,"2014-10-31T05:00:00","16","ND","ND","ND","ND","ND","0.1","104.7","19.8","96.5","0","2.79"],
    [39323,"2014-10-31T06:00:00","23","ND","ND","ND","ND","ND","1.2","31.8","19.6","96.6","0","0.25"],
    [39324,"2014-10-31T07:00:00","31","ND","ND","ND","ND","ND","1.2","32.9","19.8","96.9","22.7","0"],
    [39325,"2014-10-31T08:00:00","26","ND","ND","ND","ND","ND","0.5","356.2","20.5","94","117.6","0.25"],
    [39326,"2014-10-31T09:00:00","34","ND","ND","ND","ND","ND","1.2","102.8","21.7","87.2","185.7","0"],
    [39327,"2014-10-31T10:00:00","24","ND","ND","ND","ND","ND","0.9","102.4","22.2","82.5","163.3","0"],
    [39328,"2014-10-31T11:00:00","17","ND","ND","ND","ND","ND","0.7","108.5","22.7","78.9","125.5","0"],
    [39329,"2014-10-31T12:00:00","21","ND","ND","ND","ND","ND","0.7","253.2","23.7","74.7","487.6","0"],
    [39330,"2014-10-31T13:00:00","48","ND","ND","ND","ND","ND","0.4","111.5","25.8","65.7","583.5","0"],
    [39331,"2014-10-31T14:00:00","48","ND","ND","ND","ND","ND","0.9","111.3","26.6","61.6","347.9","0"],
    [39332,"2014-10-31T15:00:00","42","ND","ND","ND","ND","ND","0.7","42.9","27.2","60.6","488.1","0"],
    [39333,"2014-10-31T16:00:00","51","ND","ND","ND","ND","ND","1.7","26.1","26.7","61.7","148.5","0"],
    [39334,"2014-10-31T17:00:00","61","ND","ND","ND","ND","ND","1","17.3","26.1","62.8","49.6","0"],
    [39335,"2014-10-31T18:00:00","62","ND","ND","ND","ND","ND","0.4","254","25.6","64.7","5.9","0"],
    [39336,"2014-10-31T19:00:00","14","ND","ND","ND","ND","ND","1.6","259.9","23.7","74.9","0","0.25"],
    [39337,"2014-10-31T20:00:00","63","ND","ND","ND","ND","ND","0.3","257.8","23.6","76","0","0"],
    [39338,"2014-10-31T21:00:00","61","ND","ND","ND","ND","ND","0.8","235.5","22.8","78","0","0.25"],
    [39339,"2014-10-31T22:00:00","80","ND","ND","ND","ND","ND","0.2","15.5","22.8","78.3","0","0"],
    [39340,"2014-10-31T23:00:00","54","ND","ND","ND","ND","ND","0.1","97.2","22.1","82.4","0","0"],
    [39341,"2014-11-01T00:00:00","90","ND","ND","ND","ND","ND","0.1","319.1","21.3","86.1","0","0"],
    [39342,"2014-11-01T01:00:00","72","ND","ND","ND","ND","ND","0.2","249.9","20.9","88.1","0","0"],
    [39343,"2014-11-01T02:00:00","61","ND","ND","ND","ND","ND","0.3","252.6","20.7","88.8","0","0"],
    [39344,"2014-11-01T03:00:00","55","ND","ND","ND","ND","ND","0.4","51.9","21.1","87.2","0","0"],
    [39345,"2014-11-01T04:00:00","43","ND","ND","ND","ND","ND","0.2","82.6","20.4","88.7","0","0"],
    [39346,"2014-11-01T05:00:00","46","ND","ND","ND","ND","ND","0.3","76.6","20.5","88.9","0","0"],
    [39347,"2014-11-01T06:00:00","50","ND","ND","ND","ND","ND","0.8","156.8","20.7","88","0","0"],
    [39348,"2014-11-01T07:00:00","78","ND","ND","ND","ND","ND","0.3","37.7","20.8","89.2","60.4","0"],
    [39349,"2014-11-01T08:00:00","98","ND","ND","ND","ND","ND","0.5","133.4","22.5","81.3","241.5","0"],
    [39350,"2014-11-01T09:00:00","60","ND","ND","ND","ND","ND","1.8","161.4","23.8","73.1","342.2","0"],
    [39351,"2014-11-01T10:00:00","59","ND","ND","ND","ND","ND","0.7","105.3","24.7","69.7","308.1","0"],
    [39352,"2014-11-01T11:00:00","86","ND","ND","ND","ND","ND","0.7","93.7","26.1","64.9","582.4","0"],
    [39353,"2014-11-01T12:00:00","80","ND","ND","ND","ND","ND","1.5","55.2","27.5","60.5","664.8","0"],
    [39354,"2014-11-01T13:00:00","61","ND","ND","ND","ND","ND","0.9","24.6","28.3","56.6","522.4","0"],
    [39355,"2014-11-01T14:00:00","52","ND","ND","ND","ND","ND","1.2","67.7","29.1","53.9","423","0"],
    [39356,"2014-11-01T15:00:00","29","ND","ND","ND","ND","ND","0.8","314.4","30.1","49.2","560.9","0"],
    [39357,"2014-11-01T16:00:00","18","ND","ND","ND","ND","ND","1.2","341.6","30.5","45.2","396.7","0"],
    [39358,"2014-11-01T17:00:00","11","ND","ND","ND","ND","ND","1.9","288.5","29.8","47.6","202.3","0"],
    [39359,"2014-11-01T18:00:00","17","ND","ND","ND","ND","ND","0.6","264.5","28.1","52.3","20.5","0"],
    [39360,"2014-11-01T19:00:00","26","ND","ND","ND","ND","ND","0.5","215.2","26.9","54.9","0","0"],
    [39361,"2014-11-01T20:00:00","50","ND","ND","ND","ND","ND","0.5","196.5","26.3","57.9","0","0"],
    [39362,"2014-11-01T21:00:00","40","ND","ND","ND","ND","ND","0.5","155.6","25.8","60.9","0","0"],
    [39363,"2014-11-01T22:00:00","52","ND","ND","ND","ND","ND","0.7","179.3","24.9","67.3","0","0"],
    [39364,"2014-11-01T23:00:00","53","ND","ND","ND","ND","ND","0.4","41.8","24.5","70.4","0","0"],
    [39365,"2014-11-02T00:00:00","49","ND","ND","ND","ND","ND","0.6","226.4","24.2","72.2","0","0"],
    [39366,"2014-11-02T01:00:00","45","ND","ND","ND","ND","ND","0.2","123.8","24.1","73.4","0","0"],
    [39367,"2014-11-02T02:00:00","48","ND","ND","ND","ND","ND","0.6","55.1","23.2","80","0","0"],
    [39368,"2014-11-02T03:00:00","37","ND","ND","ND","ND","ND","0.9","12.8","21.5","90.1","0","8.13"],
    [39369,"2014-11-02T04:00:00","19","ND","ND","ND","ND","ND","0.4","184.8","21","95.6","0","8.89"],
    [39370,"2014-11-02T05:00:00","30","ND","ND","ND","ND","ND","0.6","18.8","21.1","96.9","0","3.81"],
    [39371,"2014-11-02T06:00:00","29","ND","ND","ND","ND","ND","0.6","40.2","20.9","97.4","0","0.25"],
    [39372,"2014-11-02T07:00:00","24","ND","ND","ND","ND","ND","0.6","83.9","20.7","97.4","24.3","0"],
    [39373,"2014-11-02T08:00:00","35","ND","ND","ND","ND","ND","0.4","17.2","21.5","95.4","119.4","0"],
    [39374,"2014-11-02T09:00:00","56","ND","ND","ND","ND","ND","0.4","106.3","22.9","86.6","240.5","0"],
    [39375,"2014-11-02T10:00:00","53","ND","ND","ND","ND","ND","0.8","31.4","24.3","79.1","439.7","0"],
    [39376,"2014-11-02T11:00:00","21","ND","ND","ND","ND","ND","1.5","48.2","25.6","71.5","440.5","0"],
    [39377,"2014-11-02T12:00:00","17","ND","ND","ND","ND","ND","1.3","69.1","26","69.6","423.5","0"],
    [39378,"2014-11-02T13:00:00","21","ND","ND","ND","ND","ND","0.9","16.5","26.8","65.9","519.3","0"],
    [39379,"2014-11-02T14:00:00","33","ND","ND","ND","ND","ND","0.9","134.8","27.7","61.3","298.9","0"],
    [39380,"2014-11-02T15:00:00","34","ND","ND","ND","ND","ND","0.4","154.5","28","60.2","282.5","0"],
    [39381,"2014-11-02T16:00:00","17","ND","ND","ND","ND","ND","1.2","57.3","27.4","61.9","105.1","0"],
    [39382,"2014-11-02T17:00:00","27","ND","ND","ND","ND","ND","0.9","43.6","27.2","61.8","91.2","0"],
    [39383,"2014-11-02T18:00:00","32","ND","ND","ND","ND","ND","0.7","298.7","26.6","66.3","22.5","0"],
    [39384,"2014-11-02T19:00:00","42","ND","ND","ND","ND","ND","0.3","268","25.2","73.2","0","0"],
    [39385,"2014-11-02T20:00:00","54","ND","ND","ND","ND","ND","0.7","244.5","24.6","74.1","0","0"],
    [39386,"2014-11-02T21:00:00","67","ND","ND","ND","ND","ND","0.2","38.5","24.1","76","0","0"],
    [39387,"2014-11-02T22:00:00","62","ND","ND","ND","ND","ND","0.6","161.3","23.7","75.4","0","0"],
    [39388,"2014-11-02T23:00:00","65","ND","ND","ND","ND","ND","0.8","147.7","23.6","79.9","0","0"],
    [39389,"2014-11-03T00:00:00","71","ND","ND","ND","ND","ND","0.5","168.3","22.8","84.5","0","0"],
    [39390,"2014-11-03T01:00:00","64","ND","ND","ND","ND","ND","0.2","63.6","22.4","85.3","0","0"],
    [39391,"2014-11-03T02:00:00","66","ND","ND","ND","ND","ND","0.2","313","22.1","87.1","0","0"],
    [39392,"2014-11-03T03:00:00","62","ND","ND","ND","ND","ND","0.1","90.7","21.9","87.9","0","0"],
    [39393,"2014-11-03T04:00:00","57","ND","ND","ND","ND","ND","0.1","166.9","21.3","89.3","0","0"],
    [39394,"2014-11-03T05:00:00","68","ND","ND","ND","ND","ND","0.2","58.9","21.1","90.6","0","0"],
    [39395,"2014-11-03T06:00:00","80","ND","ND","ND","ND","ND","0.3","164.4","21.2","90.1","0","0"],
    [39396,"2014-11-03T07:00:00","101","ND","ND","ND","ND","ND","0.4","35.8","21.1","89.7","56.1","0"],
    [39397,"2014-11-03T08:00:00","80","ND","ND","ND","ND","ND","0.5","62.1","22.2","83.9","172.4","0"],
    [39398,"2014-11-03T09:00:00","60","ND","ND","ND","ND","ND","0.6","142.9","24.5","73.1","375.9","0"],
    [39399,"2014-11-03T10:00:00","42","ND","ND","ND","ND","ND","1","112.3","26.3","65.8","563.4","0"],
    [39400,"2014-11-03T11:00:00","54","ND","ND","ND","ND","ND","1.2","117.6","27.7","61.3","764.4","0"],
    [39401,"2014-11-03T12:00:00","53","ND","ND","ND","ND","ND","0.9","102.4","29.2","55.6","809.5","0"],
    [39402,"2014-11-03T13:00:00","45","ND","ND","ND","ND","ND","1","39.8","29.9","52.3","650","0"],
    [39403,"2014-11-03T14:00:00","60","ND","ND","ND","ND","ND","1","24.6","30.4","51.2","421.1","0"],
    [39404,"2014-11-03T15:00:00","25","ND","ND","ND","ND","ND","2","301.1","30.8","48.7","510.6","0"],
    [39405,"2014-11-03T16:00:00","26","ND","ND","ND","ND","ND","3.3","275.4","30.2","47.8","343.5","0"],
    [39406,"2014-11-03T17:00:00","15","ND","ND","ND","ND","ND","2.5","269.3","29.5","47.6","196","0"],
    [39407,"2014-11-03T18:00:00","14","ND","ND","ND","ND","ND","1.5","278.1","28.6","48.9","23.1","0"],
    [39408,"2014-11-03T19:00:00","38","ND","ND","ND","ND","ND","0.9","91.2","27.6","52.9","0","0"],
    [39409,"2014-11-03T20:00:00","48","ND","ND","ND","ND","ND","1.1","136.8","26.5","59.5","0","0"],
    [39410,"2014-11-03T21:00:00","39","ND","ND","ND","ND","ND","0.3","142.5","25.4","65.2","0","0"],
    [39411,"2014-11-03T22:00:00","56","ND","ND","ND","ND","ND","0.4","342.2","24.8","68.3","0","0"],
    [39412,"2014-11-03T23:00:00","38","ND","ND","ND","ND","ND","1.4","136.4","25","67.3","0","0"],
    [39413,"2014-11-04T00:00:00","33","ND","ND","ND","ND","ND","0.3","129","24.4","70.1","0","0"],
    [39414,"2014-11-04T01:00:00","26","ND","ND","ND","ND","ND","0.2","145.2","23.8","73.9","0","0"],
    [39415,"2014-11-04T02:00:00","27","ND","ND","ND","ND","ND","0.5","102.1","22.9","80.2","0","0"],
    [39416,"2014-11-04T03:00:00","24","ND","ND","ND","ND","ND","0.8","159.2","22.9","80.5","0","0"],
    [39417,"2014-11-04T04:00:00","17","ND","ND","ND","ND","ND","0.9","181.8","23","79.9","0","0"],
    [39418,"2014-11-04T05:00:00","23","ND","ND","ND","ND","ND","1.9","183","23","79.4","0","0"],
    [39419,"2014-11-04T06:00:00","24","ND","ND","ND","ND","ND","0.5","169.9","22.9","80.9","0","0"],
    [39420,"2014-11-04T07:00:00","32","ND","ND","ND","ND","ND","1.1","326.8","21.5","93","9.3","25.4"],
    [39421,"2014-11-04T08:00:00","33","ND","ND","ND","ND","ND","0.6","177.1","21.6","93.9","48","0.76"],
    [39422,"2014-11-04T09:00:00","28","ND","ND","ND","ND","ND","0.4","198.2","22.6","89.8","133.6","0.25"],
    [39423,"2014-11-04T10:00:00","20","ND","ND","ND","ND","ND","1.2","159.2","24.5","76.8","431.9","0"],
    [39424,"2014-11-04T11:00:00","45","ND","ND","ND","ND","ND","0.7","104.4","26.3","68.8","554.2","0"],
    [39425,"2014-11-04T12:00:00","47","ND","ND","ND","ND","ND","0.5","51.6","27.5","63.3","503.8","0"],
    [39426,"2014-11-04T13:00:00","40","ND","ND","ND","ND","ND","1.4","51.9","28.1","60.1","546.4","0"],
    [39427,"2014-11-04T14:00:00","33","ND","ND","ND","ND","ND","0.2","39.8","28.7","55.6","409.2","0"],
    [39428,"2014-11-04T15:00:00","23","ND","ND","ND","ND","ND","2.9","259.5","28.7","52.6","358.4","0"],
    [39429,"2014-11-04T16:00:00","20","ND","ND","ND","ND","ND","2.9","259.2","28.1","53.3","238.3","0"],
    [39430,"2014-11-04T17:00:00","20","ND","ND","ND","ND","ND","1.9","254.9","27.6","54.9","125.8","0"],
    [39431,"2014-11-04T18:00:00","27","ND","ND","ND","ND","ND","1.1","246.8","26.9","56.4","28.3","0"],
    [39432,"2014-11-04T19:00:00","41","ND","ND","ND","ND","ND","0.2","74.3","26","59.4","0","0"],
    [39433,"2014-11-04T20:00:00","47","ND","ND","ND","ND","ND","1.8","137.6","25.9","60.4","0","0"],
    [39434,"2014-11-04T21:00:00","47","ND","ND","ND","ND","ND","1","49.1","24.8","66.6","0","0"],
    [39435,"2014-11-04T22:00:00","37","ND","ND","ND","ND","ND","0.5","294.5","24.7","67.7","0","0"],
    [39436,"2014-11-04T23:00:00","35","ND","ND","ND","ND","ND","0.9","45.3","23.5","76.5","0","0"],
    [39437,"2014-11-05T00:00:00","19","ND","ND","ND","ND","ND","0.7","199.5","23","80.4","0","0"],
    [39438,"2014-11-05T01:00:00","20","ND","ND","ND","ND","ND","2.1","148","22.6","84.2","0","0"],
    [39439,"2014-11-05T02:00:00","21","ND","ND","ND","ND","ND","2","162.1","21.9","87.8","0","0"],
    [39440,"2014-11-05T03:00:00","5","ND","ND","ND","ND","ND","0.9","168.4","21.9","87.6","0","0"],
    [39441,"2014-11-05T04:00:00","15","ND","ND","ND","ND","ND","0.9","142.8","22","86.7","0","0"],
    [39442,"2014-11-05T05:00:00","18","ND","ND","ND","ND","ND","0.3","50.7","21.8","88.6","0","0"],
    [39443,"2014-11-05T06:00:00","24","ND","ND","ND","ND","ND","1.2","137.1","21.8","88.6","0","0"],
    [39444,"2014-11-05T07:00:00","36","ND","ND","ND","ND","ND","1.2","143.9","21.6","88.7","11.4","0"],
    [39445,"2014-11-05T08:00:00","58","ND","ND","ND","ND","ND","0.2","30.2","21.9","88.4","72.5","0"],
    [39446,"2014-11-05T09:00:00","77","ND","ND","ND","ND","ND","0.7","105.5","23.2","82","222.8","0"],
    [39447,"2014-11-05T10:00:00","28","ND","ND","ND","ND","ND","2.8","143.7","24.2","75","309.9","0"],
    [39448,"2014-11-05T11:00:00","22","ND","ND","ND","ND","ND","1.1","131.2","25.9","68.1","633.3","0"],
    [39449,"2014-11-05T12:00:00","35","ND","ND","ND","ND","ND","0.7","279","27.1","61.8","568.8","0"],
    [39450,"2014-11-05T13:00:00","33","ND","ND","ND","ND","ND","0.5","82.7","29.2","53.5","713.1","0"],
    [39451,"2014-11-05T14:00:00","45","ND","ND","ND","ND","ND","0.5","15.7","29.1","54.5","264.6","0"],
    [39452,"2014-11-05T15:00:00","22","ND","ND","ND","ND","ND","3.1","265.6","30.2","48","646.2","0"],
    [39453,"2014-11-05T16:00:00","23","ND","ND","ND","ND","ND","4","281.1","28.9","50.8","372.3","0"],
    [39454,"2014-11-05T17:00:00","22","ND","ND","ND","ND","ND","3.6","248.3","27.9","54.1","96.6","0"],
    [39455,"2014-11-05T18:00:00","28","ND","ND","ND","ND","ND","0.5","181.5","27.5","55.6","23.4","0"],
    [39456,"2014-11-05T19:00:00","36","ND","ND","ND","ND","ND","0.5","276.9","27","57.2","0","0"],
    [39457,"2014-11-05T20:00:00","44","ND","ND","ND","ND","ND","1.5","124","26.8","58.5","0","0"],
    [39458,"2014-11-05T21:00:00","32","ND","ND","ND","ND","ND","0.5","296.2","26","62.1","0","0"],
    [39459,"2014-11-05T22:00:00","41","ND","ND","ND","ND","ND","0.7","139.2","25.6","63.7","0","0"],
    [39460,"2014-11-05T23:00:00","29","ND","ND","ND","ND","ND","1.3","198.5","24.5","72.1","0","0"],
    [39461,"2014-11-06T00:00:00","59","ND","ND","ND","ND","ND","0.6","340.4","23.8","77.3","0","0"],
    [39462,"2014-11-06T01:00:00","65","ND","ND","ND","ND","ND","1.2","346.6","23","83.4","0","0"],
    [39463,"2014-11-06T02:00:00","59","ND","ND","ND","ND","ND","0.5","24.8","22.6","85.3","0","0"],
    [39464,"2014-11-06T03:00:00","48","ND","ND","ND","ND","ND","0.3","150.8","22.5","85.5","0","0"],
    [39465,"2014-11-06T04:00:00","25","ND","ND","ND","ND","ND","0.2","251.1","22.3","86.5","0","0.25"],
    [39466,"2014-11-06T05:00:00","53","ND","ND","ND","ND","ND","0.6","39.2","21.8","91.4","0","0.25"],
    [39467,"2014-11-06T06:00:00","31","ND","ND","ND","ND","ND","0.3","79.6","21.6","92.8","0","0"],
    [39468,"2014-11-06T07:00:00","52","ND","ND","ND","ND","ND","0.2","318.1","21.8","89.1","38.2","0"],
    [39469,"2014-11-06T08:00:00","76","ND","ND","ND","ND","ND","0.8","107.1","23.1","83","192.8","0"],
    [39470,"2014-11-06T09:00:00","31","ND","ND","ND","ND","ND","1.2","96.6","24.8","74.4","502","0"],
    [39471,"2014-11-06T10:00:00","52","ND","ND","ND","ND","ND","0.7","346","26.1","67.4","529","0"],
    [39472,"2014-11-06T11:00:00","42","ND","ND","ND","ND","ND","0.3","135.6","27.4","60.1","459.5","0"],
    [39473,"2014-11-06T12:00:00","44","ND","ND","ND","ND","ND","1.3","184.6","28.7","54.6","560.7","0"],
    [39474,"2014-11-06T13:00:00","44","ND","ND","ND","ND","ND","0.7","133.7","30","51.1","814.9","0"],
    [39475,"2014-11-06T14:00:00","46","ND","ND","ND","ND","ND","0.6","35.9","30.5","49.9","485.1","0"],
    [39476,"2014-11-06T15:00:00","37","ND","ND","ND","ND","ND","2.6","280","29.1","54.7","179","0"],
    [39477,"2014-11-06T16:00:00","29","ND","ND","ND","ND","ND","1.9","257.4","29","53.7","160.1","0"],
    [39478,"2014-11-06T17:00:00","ND","ND","ND","ND","ND","ND","2.2","274.8","28.5","53","65.2","0"],
    [39479,"2014-11-06T18:00:00","15","ND","ND","ND","ND","ND","2.1","282","27.8","53.9","15.5","0"],
    [39480,"2014-11-06T19:00:00","27","ND","ND","ND","ND","ND","0.2","291.7","27.6","54.2","0","0"],
    [39481,"2014-11-06T20:00:00","46","ND","ND","ND","ND","ND","1.8","107.2","27.6","55.6","0","0"],
    [39482,"2014-11-06T21:00:00","40","ND","ND","ND","ND","ND","0.6","99.3","26.8","58.9","0","0"],
    [39483,"2014-11-06T22:00:00","37","ND","ND","ND","ND","ND","1.3","51.5","26.1","62.8","0","0"],
    [39484,"2014-11-06T23:00:00","35","ND","ND","ND","ND","ND","1.5","192.7","25.1","69.7","0","0"],
    [39485,"2014-11-07T00:00:00","26","ND","ND","ND","ND","ND","0.5","180","24.2","75.6","0","0"],
    [39486,"2014-11-07T01:00:00","26","ND","ND","ND","ND","ND","0.3","251.2","23.6","79.7","0","0"],
    [39487,"2014-11-07T02:00:00","48","ND","ND","ND","ND","ND","0.7","13.9","22.9","80.7","0","0"],
    [39488,"2014-11-07T03:00:00","73","ND","ND","ND","ND","ND","0.3","330.6","22.3","84","0","0"],
    [39489,"2014-11-07T04:00:00","57","ND","ND","ND","ND","ND","0.4","249.6","22.3","84","0","0"],
    [39490,"2014-11-07T05:00:00","58","ND","ND","ND","ND","ND","0.2","323","22.4","81.9","0","0"],
    [39491,"2014-11-07T06:00:00","101","ND","ND","ND","ND","ND","0.7","22","22.5","82","0","0"],
    [39492,"2014-11-07T07:00:00","92","ND","ND","ND","ND","ND","0.5","51.2","22.9","80.7","64.6","0"],
    [39493,"2014-11-07T08:00:00","47","ND","ND","ND","ND","ND","1.2","129.7","24.8","71.1","309.4","0"],
    [39494,"2014-11-07T09:00:00","25","ND","ND","ND","ND","ND","1.4","125.1","25.9","65.5","411.9","0"],
    [39495,"2014-11-07T10:00:00","32","ND","ND","ND","ND","ND","0.4","213.2","26.6","64","305.6","0"],
    [39496,"2014-11-07T11:00:00","44","ND","ND","ND","ND","ND","1","248.7","27.1","61.7","239.5","0"],
    [39497,"2014-11-07T12:00:00","45","ND","ND","ND","ND","ND","0.8","81.8","29.1","54.3","793","0"],
    [39498,"2014-11-07T13:00:00","41","ND","ND","ND","ND","ND","1.2","34.3","30.1","51.2","634.5","0"],
    [39499,"2014-11-07T14:00:00","26","ND","ND","ND","ND","ND","1.3","61.1","30.3","50","316.8","0"],
    [39500,"2014-11-07T15:00:00","36","ND","ND","ND","ND","ND","1.2","10.6","30.6","49.2","312.7","0"],
    [39501,"2014-11-07T16:00:00","33","ND","ND","ND","ND","ND","2.3","292.4","31.1","46.4","396.1","0"],
    [39502,"2014-11-07T17:00:00","31","ND","ND","ND","ND","ND","3","275.8","30.2","47.3","154.4","0"],
    [39503,"2014-11-07T18:00:00","30","ND","ND","ND","ND","ND","0.7","303.9","28.8","50.7","14.4","0"],
    [39504,"2014-11-07T19:00:00","71","ND","ND","ND","ND","ND","0.3","182.3","28.1","53.3","0","0"],
    [39505,"2014-11-07T20:00:00","60","ND","ND","ND","ND","ND","0.2","350.3","27.4","56","0","0"],
    [39506,"2014-11-07T21:00:00","49","ND","ND","ND","ND","ND","1.1","122.6","27.1","57.6","0","0"],
    [39507,"2014-11-07T22:00:00","64","ND","ND","ND","ND","ND","0.4","131.7","26.4","62.4","0","0"],
    [39508,"2014-11-07T23:00:00","47","ND","ND","ND","ND","ND","0.9","73.1","25.2","68.7","0","0"],
    [39509,"2014-11-08T00:00:00","65","ND","ND","ND","ND","ND","0.4","49.6","24.5","73.3","0","0"],
    [39510,"2014-11-08T01:00:00","59","ND","ND","ND","ND","ND","0.5","64","24.1","75.5","0","0"],
    [39511,"2014-11-08T02:00:00","41","ND","ND","ND","ND","ND","0.5","182.7","23.9","76","0","0"],
    [39512,"2014-11-08T03:00:00","31","ND","ND","ND","ND","ND","1.4","159.5","23.8","78","0","0"],
    [39513,"2014-11-08T04:00:00","29","ND","ND","ND","ND","ND","0.8","129.9","22.9","86.1","0","0"],
    [39514,"2014-11-08T05:00:00","20","ND","ND","ND","ND","ND","1.5","162.3","22.3","91","0","5.59"],
    [39515,"2014-11-08T06:00:00","19","ND","ND","ND","ND","ND","1.7","154.2","21.9","94.5","0","5.33"],
    [39516,"2014-11-08T07:00:00","14","ND","ND","ND","ND","ND","1.1","206.8","21.4","93.9","12.3","5.84"],
    [39517,"2014-11-08T08:00:00","22","ND","ND","ND","ND","ND","0.1","43.6","21.6","94","16","6.35"],
    [39518,"2014-11-08T09:00:00","27","ND","ND","ND","ND","ND","0.6","307.1","21.1","91.2","35.2","4.83"],
    [39519,"2014-11-08T10:00:00","37","ND","ND","ND","ND","ND","0.4","7.1","21","89.4","66.3","3.56"],
    [39520,"2014-11-08T11:00:00","28","ND","ND","ND","ND","ND","0.3","181.5","21.5","87","135.6","0.76"],
    [39521,"2014-11-08T12:00:00","42","ND","ND","ND","ND","ND","0.6","164.6","23.1","79.1","347.8","0"],
    [39522,"2014-11-08T13:00:00","33","ND","ND","ND","ND","ND","0.9","133.8","25.5","64","549.5","0"],
    [39523,"2014-11-08T14:00:00","38","ND","ND","ND","ND","ND","1.2","106.6","26.5","62.3","396.8","0"],
    [39524,"2014-11-08T15:00:00","34","ND","ND","ND","ND","ND","0.4","181.6","27.2","58.7","434.4","0"],
    [39525,"2014-11-08T16:00:00","46","ND","ND","ND","ND","ND","0.2","184.1","28","55.5","377.5","0"],
    [39526,"2014-11-08T17:00:00","28","ND","ND","ND","ND","ND","0.5","127.1","28.1","53.7","184.8","0"],
    [39527,"2014-11-08T18:00:00","33","ND","ND","ND","ND","ND","0.9","63.2","27.1","55.5","23.6","0"],
    [39528,"2014-11-08T19:00:00","74","ND","ND","ND","ND","ND","0.2","312.3","26.2","63.9","0","0"],
    [39529,"2014-11-08T20:00:00","51","ND","ND","ND","ND","ND","1.1","248.4","25.2","66.6","0","0"],
    [39530,"2014-11-08T21:00:00","55","ND","ND","ND","ND","ND","0.3","137.4","25","68.1","0","0"],
    [39531,"2014-11-08T22:00:00","64","ND","ND","ND","ND","ND","0.5","214.1","24.4","71.1","0","0"],
    [39532,"2014-11-08T23:00:00","61","ND","ND","ND","ND","ND","0.6","139.5","23.9","74.2","0","0"],
    [39533,"2014-11-09T00:00:00","51","ND","ND","ND","ND","ND","0","260","23","79.2","0","0"],
    [39534,"2014-11-09T01:00:00","51","ND","ND","ND","ND","ND","0.3","188.6","23","78.2","0","0"],
    [39535,"2014-11-09T02:00:00","39","ND","ND","ND","ND","ND","0.1","268.3","22.8","77.1","0","0"],
    [39536,"2014-11-09T03:00:00","40","ND","ND","ND","ND","ND","0.6","150.4","22.5","79.3","0","0"],
    [39537,"2014-11-09T04:00:00","50","ND","ND","ND","ND","ND","0.4","31.2","22.1","82.4","0","0"],
    [39538,"2014-11-09T05:00:00","38","ND","ND","ND","ND","ND","0.5","8.4","21.2","87.3","0","0"],
    [39539,"2014-11-09T06:00:00","38","ND","ND","ND","ND","ND","0.3","226.6","20.9","88.8","0","0"],
    [39540,"2014-11-09T07:00:00","51","ND","ND","ND","ND","ND","0.4","246.5","21.3","87.1","34.9","0"],
    [39541,"2014-11-09T08:00:00","50","ND","ND","ND","ND","ND","0.4","98.3","22.5","80.6","155.2","0"],
    [39542,"2014-11-09T09:00:00","62","ND","ND","ND","ND","ND","0.6","60.3","24.9","69.7","405.1","0"],
    [39543,"2014-11-09T10:00:00","44","ND","ND","ND","ND","ND","0.9","60.7","26.4","64.1","581.1","0"],
    [39544,"2014-11-09T11:00:00","46","ND","ND","ND","ND","ND","0.8","73.2","28.1","58.1","728.2","0"],
    [39545,"2014-11-09T12:00:00","42","ND","ND","ND","ND","ND","0.9","78","28.4","56.5","444.9","0"],
    [39546,"2014-11-09T13:00:00","40","ND","ND","ND","ND","ND","0.6","14.4","29","54.2","322.1","0"],
    [39547,"2014-11-09T14:00:00","27","ND","ND","ND","ND","ND","1.6","277.7","28.5","52.8","136.4","0"],
    [39548,"2014-11-09T15:00:00","16","ND","ND","ND","ND","ND","2.6","276.6","29.5","49.3","544","0"],
    [39549,"2014-11-09T16:00:00","13","ND","ND","ND","ND","ND","1","240.7","30.5","46.7","436.8","0"],
    [39550,"2014-11-09T17:00:00","13","ND","ND","ND","ND","ND","1.7","283.5","29.4","49.3","248.2","0"],
    [39551,"2014-11-09T18:00:00","11","ND","ND","ND","ND","ND","2.3","240.6","27.3","53.8","10.1","0"],
    [39552,"2014-11-09T19:00:00","26","ND","ND","ND","ND","ND","3.1","178.2","25.8","64","0","0"],
    [39553,"2014-11-09T20:00:00","31","ND","ND","ND","ND","ND","1.5","145.9","24.7","66.9","0","0"],
    [39554,"2014-11-09T21:00:00","35","ND","ND","ND","ND","ND","1.2","95.9","24","70.3","0","0"],
    [39555,"2014-11-09T22:00:00","24","ND","ND","ND","ND","ND","0.6","338.6","22.3","81.8","0","0"],
    [39556,"2014-11-09T23:00:00","22","ND","ND","ND","ND","ND","0.4","292.1","23","78.2","0","0"],
    [39557,"2014-11-10T00:00:00","21","ND","ND","ND","ND","ND","0.8","129.1","23.3","76.8","0","0"],
    [39558,"2014-11-10T01:00:00","38","ND","ND","ND","ND","ND","1.4","152.8","22.6","82","0","0"],
    [39559,"2014-11-10T02:00:00","38","ND","ND","ND","ND","ND","1.1","152.4","21.9","84.8","0","0"],
    [39560,"2014-11-10T03:00:00","24","ND","ND","ND","ND","ND","1.1","154.4","21.5","88.6","0","0"],
    [39561,"2014-11-10T04:00:00","23","ND","ND","ND","ND","ND","1.3","150.3","21.5","90.1","0","0"],
    [39562,"2014-11-10T05:00:00","12","ND","ND","ND","ND","ND","1.5","146.6","21.5","89.2","0","0"],
    [39563,"2014-11-10T06:00:00","23","ND","ND","ND","ND","ND","2.3","147.7","20.8","92.1","0","3.56"],
    [39564,"2014-11-10T07:00:00","17","ND","ND","ND","ND","ND","2.1","132","20.1","94.7","5.1","6.1"],
    [39565,"2014-11-10T08:00:00","19","ND","ND","ND","ND","ND","1.4","140.5","19.4","94.9","17.7","4.57"],
    [39566,"2014-11-10T09:00:00","22","ND","ND","ND","ND","ND","0.8","166.3","19.6","95","71.3","3.56"],
    [39567,"2014-11-10T10:00:00","38","ND","ND","ND","ND","ND","0.6","163.2","20.7","92.5","208.1","0.76"],
    [39568,"2014-11-10T11:00:00","28","ND","ND","ND","ND","ND","0.2","174.8","22.9","84","477.9","0"],
    [39569,"2014-11-10T12:00:00","18","ND","ND","ND","ND","ND","0.3","19.2","25.9","65.9","825.4","0"],
    [39570,"2014-11-10T13:00:00","25","ND","ND","ND","ND","ND","1.1","21.5","27.2","57.3","635.2","0"],
    [39571,"2014-11-10T14:00:00","21","ND","ND","ND","ND","ND","1.2","9.3","27.6","54.9","343.2","0"],
    [39572,"2014-11-10T15:00:00","10","ND","ND","ND","ND","ND","0.6","299.2","28.4","48.8","378.4","0"],
    [39573,"2014-11-10T16:00:00","20","ND","ND","ND","ND","ND","2.7","253","27.4","53.1","175.6","0"],
    [39574,"2014-11-10T17:00:00","26","ND","ND","ND","ND","ND","0.1","339.4","27.2","53.2","69","0"],
    [39575,"2014-11-10T18:00:00","27","ND","ND","ND","ND","ND","0.5","215.7","26.5","53.7","13.3","0"],
    [39576,"2014-11-10T19:00:00","67","ND","ND","ND","ND","ND","0.8","156.2","25.8","56.1","0","0"],
    [39577,"2014-11-10T20:00:00","51","ND","ND","ND","ND","ND","0.6","209.5","25.2","59.3","0","0"],
    [39578,"2014-11-10T21:00:00","43","ND","ND","ND","ND","ND","1.5","173.9","24.7","64.3","0","0"],
    [39579,"2014-11-10T22:00:00","37","ND","ND","ND","ND","ND","1.1","173.9","24","72.4","0","0"],
    [39580,"2014-11-10T23:00:00","47","ND","ND","ND","ND","ND","0.7","342.9","23.3","74.7","0","0"],
    [39581,"2014-11-11T00:00:00","79","ND","ND","ND","ND","ND","0.5","348.8","22.8","80","0","0"],
    [39582,"2014-11-11T01:00:00","65","ND","ND","ND","ND","ND","0.5","20.3","22.5","82.2","0","0"],
    [39583,"2014-11-11T02:00:00","40","ND","ND","ND","ND","ND","0.8","23.7","21.9","85.7","0","0"],
    [39584,"2014-11-11T03:00:00","32","ND","ND","ND","ND","ND","0.2","346.8","21.8","86.6","0","0"],
    [39585,"2014-11-11T04:00:00","50","ND","ND","ND","ND","ND","0.7","28.2","21.4","86","0","0"],
    [39586,"2014-11-11T05:00:00","27","ND","ND","ND","ND","ND","0.7","34.4","20.9","88.5","0","0"],
    [39587,"2014-11-11T06:00:00","39","ND","ND","ND","ND","ND","0.7","47.6","20.9","90.5","0","0"],
    [39588,"2014-11-11T07:00:00","38","ND","ND","ND","ND","ND","0.8","168.5","21","90.5","9.8","8.64"],
    [39589,"2014-11-11T08:00:00","20","ND","ND","ND","ND","ND","0.5","183.1","20.2","97","21.4","32.51"],
    [39590,"2014-11-11T09:00:00","21","ND","ND","ND","ND","ND","1.1","173.7","20","99.3","36.6","49.28"],
    [39591,"2014-11-11T10:00:00","18","ND","ND","ND","ND","ND","1.3","158.9","20.3","100","253.7","2.79"],
    [39592,"2014-11-11T11:00:00","17","ND","ND","ND","ND","ND","1","149.4","22.3","93.6","502.8","0"],
    [39593,"2014-11-11T12:00:00","21","ND","ND","ND","ND","ND","0.8","163.2","25.2","69.5","615.9","0"],
    [39594,"2014-11-11T13:00:00","33","ND","ND","ND","ND","ND","0.7","199.5","27.1","62","773.8","0"],
    [39595,"2014-11-11T14:00:00","39","ND","ND","ND","ND","ND","0.3","320.2","27.1","60.5","267","0"],
    [39596,"2014-11-11T15:00:00","44","ND","ND","ND","ND","ND","1.7","356","25.8","66.4","149.3","0"],
    [39597,"2014-11-11T16:00:00","30","ND","ND","ND","ND","ND","0.8","24.9","26.8","61.1","255.7","0"],
    [39598,"2014-11-11T17:00:00","34","ND","ND","ND","ND","ND","1","93.6","26.9","62","138.4","0"],
    [39599,"2014-11-11T18:00:00","44","ND","ND","ND","ND","ND","0.3","43.7","26.1","59.9","13.5","0"],
    [39600,"2014-11-11T19:00:00","63","ND","ND","ND","ND","ND","0.7","153.4","25.6","62.4","0","0"],
    [39601,"2014-11-11T20:00:00","31","ND","ND","ND","ND","ND","0.5","148.2","24.9","65.2","0","0"],
    [39602,"2014-11-11T21:00:00","32","ND","ND","ND","ND","ND","1.3","268.1","23.9","69.9","0","0.25"],
    [39603,"2014-11-11T22:00:00","7","ND","ND","ND","ND","ND","2.1","194.7","22.2","84.2","0","0.51"],
    [39604,"2014-11-11T23:00:00","18","ND","ND","ND","ND","ND","0.9","170.6","22.3","86.3","0","0"],
    [39605,"2014-11-12T00:00:00","13","ND","ND","ND","ND","ND","2.1","161.3","21.7","86.9","0","0"],
    [39606,"2014-11-12T01:00:00","6","ND","ND","ND","ND","ND","1.1","163.4","20.9","92.6","0","3.3"],
    [39607,"2014-11-12T02:00:00","8","ND","ND","ND","ND","ND","1.1","157.2","20.6","95.5","0","0.25"],
    [39608,"2014-11-12T03:00:00","6","ND","ND","ND","ND","ND","0.8","173.6","20.6","95.9","0","0"],
    [39609,"2014-11-12T04:00:00","3","ND","ND","ND","ND","ND","0.4","304.3","20.4","95.9","0","11.18"],
    [39610,"2014-11-12T05:00:00","3","ND","ND","ND","ND","ND","0.3","35.7","20","97.3","0","18.03"],
    [39611,"2014-11-12T06:00:00","7","ND","ND","ND","ND","ND","0.9","52.4","19.8","98.4","0","3.3"],
    [39612,"2014-11-12T07:00:00","16","ND","ND","ND","ND","ND","1.1","358.4","19.6","98.8","11.6","1.52"],
    [39613,"2014-11-12T08:00:00","30","ND","ND","ND","ND","ND","0.5","17.6","20","98.7","65.9","0.76"],
    [39614,"2014-11-12T09:00:00","37","ND","ND","ND","ND","ND","0.5","160.7","21.1","96.5","202","0"],
    [39615,"2014-11-12T10:00:00","25","ND","ND","ND","ND","ND","1","136.6","23.8","76.4","367","0"],
    [39616,"2014-11-12T11:00:00","30","ND","ND","ND","ND","ND","2.4","150.7","25","67.6","439.5","0"],
    [39617,"2014-11-12T12:00:00","ND","ND","ND","ND","ND","ND","1.7","129.7","25.1","69.9","366.6","0"],
    [39618,"2014-11-12T13:00:00","28","ND","ND","ND","ND","ND","1.2","165","25.2","67.8","247.6","0"],
    [39619,"2014-11-12T14:00:00","26","ND","ND","ND","ND","ND","0.2","150","25.2","67.3","183.3","0"],
    [39620,"2014-11-12T15:00:00","35","ND","ND","ND","ND","ND","0.2","258.4","25.3","68.1","203.4","0"],
    [39621,"2014-11-12T16:00:00","13","ND","ND","ND","ND","ND","0.4","135.7","25.9","60.6","134.5","0"],
    [39622,"2014-11-12T17:00:00","42","ND","ND","ND","ND","ND","1","21.1","25.1","63.5","71.9","0"],
    [39623,"2014-11-12T18:00:00","19","ND","ND","ND","ND","ND","0.5","225.3","24.5","62.8","13.5","0"],
    [39624,"2014-11-12T19:00:00","48","ND","ND","ND","ND","ND","0.1","264.8","23.6","69.5","0","0"],
    [39625,"2014-11-12T20:00:00","73","ND","ND","ND","ND","ND","0.5","203.5","23.1","74.3","0","0"],
    [39626,"2014-11-12T21:00:00","63","ND","ND","ND","ND","ND","0.8","189.8","23.1","71.5","0","0"],
    [39627,"2014-11-12T22:00:00","55","ND","ND","ND","ND","ND","0.7","347.4","22.3","77","0","0"],
    [39628,"2014-11-12T23:00:00","51","ND","ND","ND","ND","ND","0.5","235.5","21.8","79.3","0","0"],
    [39629,"2014-11-13T00:00:00","43","ND","ND","ND","ND","ND","0.2","269.6","21.6","79.5","0","0"],
    [39630,"2014-11-13T01:00:00","165","ND","ND","ND","ND","ND","0.3","321.5","21","82.9","0","0"],
    [39631,"2014-11-13T02:00:00","42","ND","ND","ND","ND","ND","0.2","232.8","20.6","85.2","0","0"],
    [39632,"2014-11-13T03:00:00","48","ND","ND","ND","ND","ND","0.2","100.3","20.5","86.4","0","0"],
    [39633,"2014-11-13T04:00:00","37","ND","ND","ND","ND","ND","0.4","236.3","20.3","87.6","0","0"],
    [39634,"2014-11-13T05:00:00","56","ND","ND","ND","ND","ND","0.2","36.5","20.6","84.7","0","0"],
    [39635,"2014-11-13T06:00:00","54","ND","ND","ND","ND","ND","0.5","350.6","19.9","90.7","0","0"],
    [39636,"2014-11-13T07:00:00","78","ND","ND","ND","ND","ND","0.3","235.3","19.9","90.2","53.6","0"],
    [39637,"2014-11-13T08:00:00","89","ND","ND","ND","ND","ND","0.4","138.6","21.7","82.8","168.2","0"],
    [39638,"2014-11-13T09:00:00","78","ND","ND","ND","ND","ND","1.2","179.8","23.3","74.5","337","0"],
    [39639,"2014-11-13T10:00:00","49","ND","ND","ND","ND","ND","0.9","166.3","25.3","63.9","517.1","0"],
    [39640,"2014-11-13T11:00:00","39","ND","ND","ND","ND","ND","0.9","101.2","26.1","60","406.6","0"],
    [39641,"2014-11-13T12:00:00","43","ND","ND","ND","ND","ND","0.7","26.2","26.2","60.5","261.9","0"],
    [39642,"2014-11-13T13:00:00","40","ND","ND","ND","ND","ND","1","161.2","25.2","67.8","93.4","0.25"],
    [39643,"2014-11-13T14:00:00","49","ND","ND","ND","ND","ND","0.7","7.8","23.4","80","103.8","2.29"],
    [39644,"2014-11-13T15:00:00","59","ND","ND","ND","ND","ND","1","350.9","23.4","79.7","149.7","0.76"],
    [39645,"2014-11-13T16:00:00","41","ND","ND","ND","ND","ND","0.6","39.2","22.7","78.9","114.8","0.76"],
    [39646,"2014-11-13T17:00:00","20","ND","ND","ND","ND","ND","0.2","193.1","23.2","77.8","62","0.25"],
    [39647,"2014-11-13T18:00:00","30","ND","ND","ND","ND","ND","0.2","63.8","22.9","78.2","10.3","0"],
    [39648,"2014-11-13T19:00:00","32","ND","ND","ND","ND","ND","0.6","203.3","22.8","72.2","0","0.25"],
    [39649,"2014-11-13T20:00:00","27","ND","ND","ND","ND","ND","0.7","243.2","22.4","72.8","0","0"],
    [39650,"2014-11-13T21:00:00","43","ND","ND","ND","ND","ND","0.3","266.5","22.2","75.9","0","0"],
    [39651,"2014-11-13T22:00:00","54","ND","ND","ND","ND","ND","0.5","7.1","21.9","80.7","0","0"],
    [39652,"2014-11-13T23:00:00","56","ND","ND","ND","ND","ND","1","5.4","21.3","87.7","0","0"],
    [39653,"2014-11-14T00:00:00","54","ND","ND","ND","ND","ND","0","342.5","21.1","87.4","0","0"],
    [39654,"2014-11-14T01:00:00","53","ND","ND","ND","ND","ND","0.2","187","21","87.3","0","0"],
    [39655,"2014-11-14T02:00:00","47","ND","ND","ND","ND","ND","0.5","14.3","20.7","88.4","0","0"],
    [39656,"2014-11-14T03:00:00","52","ND","ND","ND","ND","ND","0.7","1.6","20.4","92.6","0","0"],
    [39657,"2014-11-14T04:00:00","50","ND","ND","ND","ND","ND","0.1","262.3","20.2","93.6","0","0"],
    [39658,"2014-11-14T05:00:00","81","ND","ND","ND","ND","ND","0","341.6","20.2","93.2","0","0"],
    [39659,"2014-11-14T06:00:00","51","ND","ND","ND","ND","ND","0.2","261.6","20","92.5","0","0"],
    [39660,"2014-11-14T07:00:00","87","ND","ND","ND","ND","ND","0.1","213.7","20.3","91.1","18.4","0"],
    [39661,"2014-11-14T08:00:00","110","ND","ND","ND","ND","ND","0.3","131","21.5","84.8","138.6","0"],
    [39662,"2014-11-14T09:00:00","74","ND","ND","ND","ND","ND","1.4","40.4","22.7","78.8","300.2","0"],
    [39663,"2014-11-14T10:00:00","58","ND","ND","ND","ND","ND","0.9","98.1","24.5","71.3","584.8","0"],
    [39664,"2014-11-14T11:00:00","63","ND","ND","ND","ND","ND","1.5","139.8","25.9","64.3","518.1","0"],
    [39665,"2014-11-14T12:00:00","48","ND","ND","ND","ND","ND","0.7","118.7","26.4","62.3","386.5","0"],
    [39666,"2014-11-14T13:00:00","56","ND","ND","ND","ND","ND","0.6","120.1","27.7","57.7","610.6","0"],
    [39667,"2014-11-14T14:00:00","53","ND","ND","ND","ND","ND","0.6","132.2","28.3","55.2","455.8","0"],
    [39668,"2014-11-14T15:00:00","45","ND","ND","ND","ND","ND","1.7","57.8","26.4","65.7","176.5","0"],
    [39669,"2014-11-14T16:00:00","41","ND","ND","ND","ND","ND","1","113.5","27.8","58.1","296","0"],
    [39670,"2014-11-14T17:00:00","17","ND","ND","ND","ND","ND","1.5","236.2","28.5","50.9","263.9","0"],
    [39671,"2014-11-14T18:00:00","23","ND","ND","ND","ND","ND","2.3","249.8","27","53.8","32.6","0"],
    [39672,"2014-11-14T19:00:00","30","ND","ND","ND","ND","ND","1.9","256.6","25.8","59.4","0","0"],
    [39673,"2014-11-14T20:00:00","64","ND","ND","ND","ND","ND","1.2","245.3","25.4","62.1","0","0"],
    [39674,"2014-11-14T21:00:00","59","ND","ND","ND","ND","ND","0.2","187.4","24.9","65.7","0","0"],
    [39675,"2014-11-14T22:00:00","73","ND","ND","ND","ND","ND","0.5","167.8","24.1","70.7","0","0"],
    [39676,"2014-11-14T23:00:00","62","ND","ND","ND","ND","ND","0.6","157.7","23.7","73.6","0","0"],
    [39677,"2014-11-15T00:00:00","61","ND","ND","ND","ND","ND","0.4","68.5","22.9","76.7","0","0"],
    [39678,"2014-11-15T01:00:00","74","ND","ND","ND","ND","ND","0.6","21.7","22.6","80.5","0","0"],
    [39679,"2014-11-15T02:00:00","35","ND","ND","ND","ND","ND","0.3","31.5","22.1","83.9","0","0"],
    [39680,"2014-11-15T03:00:00","35","ND","ND","ND","ND","ND","0.3","186.3","22.2","82.6","0","0"],
    [39681,"2014-11-15T04:00:00","39","ND","ND","ND","ND","ND","0.2","88.5","21.8","85","0","0"],
    [39682,"2014-11-15T05:00:00","63","ND","ND","ND","ND","ND","0.4","11.6","21.2","89","0","0"],
    [39683,"2014-11-15T06:00:00","37","ND","ND","ND","ND","ND","0.6","38.8","20.7","89.7","0","0"],
    [39684,"2014-11-15T07:00:00","59","ND","ND","ND","ND","ND","0.3","260","20.8","88.7","15.1","0"],
    [39685,"2014-11-15T08:00:00","59","ND","ND","ND","ND","ND","0.4","50.7","21.6","86.4","66.8","0"],
    [39686,"2014-11-15T09:00:00","ND","ND","ND","ND","ND","ND","0.3","52.8","22.8","81.3","160.8","0"],
    [39687,"2014-11-15T10:00:00","ND","ND","ND","ND","ND","ND","1.5","55.5","24.1","74.2","464","0"],
    [39688,"2014-11-15T11:00:00","ND","ND","ND","ND","ND","ND","1.1","97","26.1","63.8","720.4","0"],
    [39689,"2014-11-15T12:00:00","ND","ND","ND","ND","ND","ND","1.4","86","27.6","56.9","815.9","0"],
    [39690,"2014-11-15T13:00:00","ND","ND","ND","ND","ND","ND","0.8","78.3","28.7","51.4","761.9","0"],
    [39691,"2014-11-15T14:00:00","ND","ND","ND","ND","ND","ND","1.7","286.3","29","49.9","489.3","0"],
    [39692,"2014-11-15T15:00:00","ND","ND","ND","ND","ND","ND","2.8","271.3","29.4","48.4","477.5","0"],
    [39693,"2014-11-15T16:00:00","ND","ND","ND","ND","ND","ND","3.6","271.4","29.5","46.6","438.9","0"],
    [39694,"2014-11-15T17:00:00","ND","ND","ND","ND","ND","ND","1.2","329.6","29.1","47.3","204.1","0"],
    [39695,"2014-11-15T18:00:00","ND","ND","ND","ND","ND","ND","1","273","27.6","50.6","18","0"],
    [39696,"2014-11-15T19:00:00","ND","ND","ND","ND","ND","ND","0.4","156.4","27","52.5","0","0"],
    [39697,"2014-11-15T20:00:00","ND","ND","ND","ND","ND","ND","2.6","180","25.6","61.8","0","0"],
    [39698,"2014-11-15T21:00:00","ND","ND","ND","ND","ND","ND","3.2","154.1","23.9","71.2","0","0"],
    [39699,"2014-11-15T22:00:00","ND","ND","ND","ND","ND","ND","2.6","179.6","21.9","84.4","0","4.83"],
    [39700,"2014-11-15T23:00:00","ND","ND","ND","ND","ND","ND","0.1","250.8","21","91.6","0","1.78"],
    [39701,"2014-11-16T00:00:00","ND","ND","ND","ND","ND","ND","0.5","41.3","21.1","90.6","0","0.25"],
    [39702,"2014-11-16T01:00:00","ND","ND","ND","ND","ND","ND","1.1","0","20.8","93.8","0","0"],
    [39703,"2014-11-16T02:00:00","ND","ND","ND","ND","ND","ND","0.6","351","20.2","95.8","0","0"],
    [39704,"2014-11-16T03:00:00","ND","ND","ND","ND","ND","ND","0.3","42","20.2","95.6","0","0"],
    [39705,"2014-11-16T04:00:00","ND","ND","ND","ND","ND","ND","0.7","24.8","19.7","96.2","0","0"],
    [39706,"2014-11-16T05:00:00","ND","ND","ND","ND","ND","ND","0.6","16.7","19.7","96.9","0","0"],
    [39707,"2014-11-16T06:00:00","ND","ND","ND","ND","ND","ND","0.7","288.6","19.9","96.1","0","0"],
    [39708,"2014-11-16T07:00:00","ND","ND","ND","ND","ND","ND","0.7","207.4","20.2","92.9","53.1","0"],
    [39709,"2014-11-16T08:00:00","ND","ND","ND","ND","ND","ND","0.7","84.3","21.8","83.3","167.4","0"],
    [39710,"2014-11-16T09:00:00","ND","ND","ND","ND","ND","ND","0.9","41.7","22.7","78.5","304.2","0"],
    [39711,"2014-11-16T10:00:00","ND","ND","ND","ND","ND","ND","1","111.4","24.7","69.4","461","0"],
    [39712,"2014-11-16T11:00:00","ND","ND","ND","ND","ND","ND","1.3","91.3","25.2","68.9","522.6","0"],
    [39713,"2014-11-16T12:00:00","ND","ND","ND","ND","ND","ND","1.3","126","26.1","65.1","424.1","0"],
    [39714,"2014-11-16T13:00:00","ND","ND","ND","ND","ND","ND","0.5","149","26.2","64.8","340.7","0"],
    [39715,"2014-11-16T14:00:00","ND","ND","ND","ND","ND","ND","1","70.9","27.6","59.4","636.5","0"],
    [39716,"2014-11-16T15:00:00","ND","ND","ND","ND","ND","ND","1.1","70.5","28.2","56.3","460.3","0"],
    [39717,"2014-11-16T16:00:00","ND","ND","ND","ND","ND","ND","1.1","324.4","28.2","56.2","307.8","0"],
    [39718,"2014-11-16T17:00:00","ND","ND","ND","ND","ND","ND","1.2","332.6","27.9","56.6","150.6","0"],
    [39719,"2014-11-16T18:00:00","ND","ND","ND","ND","ND","ND","1.1","251","27.1","57.5","28.2","0"],
    [39720,"2014-11-16T19:00:00","ND","ND","ND","ND","ND","ND","0.8","249.3","25.6","64.2","0","0"],
    [39721,"2014-11-16T20:00:00","ND","ND","ND","ND","ND","ND","0.3","273.4","24.5","69.8","0","0"],
    [39722,"2014-11-16T21:00:00","ND","ND","ND","ND","ND","ND","0.3","260.4","24.4","68.2","0","0"],
    [39723,"2014-11-16T22:00:00","ND","ND","ND","ND","ND","ND","0.5","133.6","23.7","73","0","0"],
    [39724,"2014-11-16T23:00:00","ND","ND","ND","ND","ND","ND","0","313.5","23.2","77.2","0","0"],
    [39725,"2014-11-17T00:00:00","ND","ND","ND","ND","ND","ND","0.2","152.3","23.2","77.4","0","0"],
    [39726,"2014-11-17T01:00:00","ND","ND","ND","ND","ND","ND","0.4","11.9","22.8","80.2","0","0"],
    [39727,"2014-11-17T02:00:00","ND","ND","ND","ND","ND","ND","0.4","321.6","21.6","86.7","0","0"],
    [39728,"2014-11-17T03:00:00","ND","ND","ND","ND","ND","ND","0.3","273.6","21.3","86.1","0","0"],
    [39729,"2014-11-17T04:00:00","ND","ND","ND","ND","ND","ND","0.4","315.5","21.2","84.9","0","0"],
    [39730,"2014-11-17T05:00:00","ND","ND","ND","ND","ND","ND","0.2","303.5","21.5","83.5","0","0"],
    [39731,"2014-11-17T06:00:00","ND","ND","ND","ND","ND","ND","0.3","31.2","21.2","85.7","0","0"],
    [39732,"2014-11-17T07:00:00","ND","ND","ND","ND","ND","ND","0.4","133.9","21.3","87.2","33.8","0"],
    [39733,"2014-11-17T08:00:00","ND","ND","ND","ND","ND","ND","0.3","113","22.3","83.6","159","0"],
    [39734,"2014-11-17T09:00:00","ND","ND","ND","ND","ND","ND","0.6","122.6","24.8","70.8","401.1","0"],
    [39735,"2014-11-17T10:00:00","ND","ND","ND","ND","ND","ND","1.1","111.1","26.3","63","601.1","0"],
    [39736,"2014-11-17T11:00:00","ND","ND","ND","ND","ND","ND","1.1","144.4","27.5","57.6","500.6","0"],
    [39737,"2014-11-17T12:00:00","ND","ND","ND","ND","ND","ND","1.2","77","27.9","58","536.4","0"],
    [39738,"2014-11-17T13:00:00","ND","ND","ND","ND","ND","ND","1.3","80.3","28.3","56.3","472.6","0"],
    [39739,"2014-11-17T14:00:00","ND","ND","ND","ND","ND","ND","0.6","321.1","29.5","52.3","439.2","0"],
    [39740,"2014-11-17T15:00:00","ND","ND","ND","ND","ND","ND","1","13.1","29","53.6","171.7","0"],
    [39741,"2014-11-17T16:00:00","ND","ND","ND","ND","ND","ND","0.4","280.5","28.2","57.7","235.9","1.02"],
    [39742,"2014-11-17T17:00:00","ND","ND","ND","ND","ND","ND","0.5","167.2","25.7","76.1","33.5","0.25"],
    [39743,"2014-11-17T18:00:00","ND","ND","ND","ND","ND","ND","1.1","282.1","26","65.5","4.1","0"],
    [39744,"2014-11-17T19:00:00","ND","ND","ND","ND","ND","ND","0.5","47.3","25.7","63.2","0","0"],
    [39745,"2014-11-17T20:00:00","ND","ND","ND","ND","ND","ND","0.9","127.3","25.1","67.9","0","0"],
    [39746,"2014-11-17T21:00:00","ND","ND","ND","ND","ND","ND","0.1","110.6","24.8","68.5","0","0"],
    [39747,"2014-11-17T22:00:00","ND","ND","ND","ND","ND","ND","1.1","135.5","24","71.6","0","0"],
    [39748,"2014-11-17T23:00:00","ND","ND","ND","ND","ND","ND","0.8","14.9","23.1","74.7","0","0"],
    [39749,"2014-11-18T00:00:00","ND","ND","ND","ND","ND","ND","0.9","356.2","22.3","82","0","0.25"],
    [39750,"2014-11-18T01:00:00","ND","ND","ND","ND","ND","ND","0.3","344.2","21.7","84.8","0","0"],
    [39751,"2014-11-18T02:00:00","ND","ND","ND","ND","ND","ND","0.3","265.9","21.3","85.4","0","0"],
    [39752,"2014-11-18T03:00:00","ND","ND","ND","ND","ND","ND","0.3","17.1","21.1","85.4","0","0"],
    [39753,"2014-11-18T04:00:00","ND","ND","ND","ND","ND","ND","0.1","260.9","20.9","85.8","0","0"],
    [39754,"2014-11-18T05:00:00","ND","ND","ND","ND","ND","ND","0.3","23.5","20.9","85.8","0","0"],
    [39755,"2014-11-18T06:00:00","ND","ND","ND","ND","ND","ND","0.1","321.5","20.2","88.1","0","0"],
    [39756,"2014-11-18T07:00:00","ND","ND","ND","ND","ND","ND","0.4","163.6","20.9","85.9","32.8","0"],
    [39757,"2014-11-18T08:00:00","ND","ND","ND","ND","ND","ND","1.2","140.8","22.6","75.9","142","0"],
    [39758,"2014-11-18T09:00:00","ND","ND","ND","ND","ND","ND","1.4","104.7","24.1","73.7","463.9","0"],
    [39759,"2014-11-18T10:00:00","ND","ND","ND","ND","ND","ND","1.6","85.3","25.4","67.7","605.4","0"],
    [39760,"2014-11-18T11:00:00","ND","ND","ND","ND","ND","ND","0.9","129","26.2","60.2","433.1","0"],
    [39761,"2014-11-18T12:00:00","ND","ND","ND","ND","ND","ND","0.9","231.4","27.4","56.5","527.1","0"],
    [39762,"2014-11-18T13:00:00","ND","ND","ND","ND","ND","ND","0.1","85.9","28.5","52.6","503.2","0"],
    [39763,"2014-11-18T14:00:00","ND","ND","ND","ND","ND","ND","0.8","296.8","29.9","47.6","597.8","0"],
    [39764,"2014-11-18T15:00:00","ND","ND","ND","ND","ND","ND","1.3","319.5","28.1","53.8","161.7","0"],
    [39765,"2014-11-18T16:00:00","ND","ND","ND","ND","ND","ND","0.8","354.5","29.9","47","381","0"],
    [39766,"2014-11-18T17:00:00","44","ND","ND","ND","ND","ND","1","313.6","28.2","50.9","62.1","0"],
    [39767,"2014-11-18T18:00:00","26","ND","ND","ND","ND","ND","2.3","285.8","27.2","53.1","7.7","0"],
    [39768,"2014-11-18T19:00:00","27","ND","ND","ND","ND","ND","2","280.1","26.5","53.4","0","0"],
    [39769,"2014-11-18T20:00:00","21","ND","ND","ND","ND","ND","1.6","132.3","26.4","53.4","0","0"],
    [39770,"2014-11-18T21:00:00","29","ND","ND","ND","ND","ND","1.6","108.5","25.7","58.7","0","0"],
    [39771,"2014-11-18T22:00:00","26","ND","ND","ND","ND","ND","0.9","119.1","25","63.2","0","0"],
    [39772,"2014-11-18T23:00:00","17","ND","ND","ND","ND","ND","0.4","110.3","23.4","75.2","0","0"],
    [39773,"2014-11-19T00:00:00","28","ND","ND","ND","ND","ND","0.3","125.8","23.4","76","0","0"],
    [39774,"2014-11-19T01:00:00","25","ND","ND","ND","ND","ND","1","54.5","22.7","79.6","0","0"],
    [39775,"2014-11-19T02:00:00","32","ND","ND","ND","ND","ND","0.3","68.9","21.1","93.1","0","18.54"],
    [39776,"2014-11-19T03:00:00","26","ND","ND","ND","ND","ND","0.5","55.4","20.7","96.7","0","9.65"],
    [39777,"2014-11-19T04:00:00","8","ND","ND","ND","ND","ND","1.9","174.9","20.3","97.4","0","5.08"],
    [39778,"2014-11-19T05:00:00","4","ND","ND","ND","ND","ND","1.8","175.8","19.6","97.8","0","20.07"],
    [39779,"2014-11-19T06:00:00","ND","ND","ND","ND","ND","ND","1.9","167","19.3","98.6","0","4.83"],
    [39780,"2014-11-19T07:00:00","4","ND","ND","ND","ND","ND","1.5","152.5","19.4","98","10.1","3.05"],
    [39781,"2014-11-19T08:00:00","7","ND","ND","ND","ND","ND","1.1","167.3","19.5","97.2","19.5","1.27"],
    [39782,"2014-11-19T09:00:00","23","ND","ND","ND","ND","ND","0.1","35.1","19.9","96.4","83.3","1.52"],
    [39783,"2014-11-19T10:00:00","13","ND","ND","ND","ND","ND","0.2","149.6","20.6","93.9","172.9","0.25"],
    [39784,"2014-11-19T11:00:00","31","ND","ND","ND","ND","ND","0.7","75.2","21.2","90.1","124","0.25"],
    [39785,"2014-11-19T12:00:00","29","ND","ND","ND","ND","ND","0.1","154.1","21.1","91.3","148.4","0.76"],
    [39786,"2014-11-19T13:00:00","27","ND","ND","ND","ND","ND","1.3","175.3","22.1","84.4","310.5","0.25"],
    [39787,"2014-11-19T14:00:00","25","ND","ND","ND","ND","ND","1.9","158.6","22.7","79","184.3","0"],
    [39788,"2014-11-19T15:00:00","13","ND","ND","ND","ND","ND","1.1","240.1","22.8","77.8","236.5","0"],
    [39789,"2014-11-19T16:00:00","26","ND","ND","ND","ND","ND","0.4","29.2","24.1","71.5","275.3","0"],
    [39790,"2014-11-19T17:00:00","45","ND","ND","ND","ND","ND","1.3","52.7","24.1","71.1","153.3","0"],
    [39791,"2014-11-19T18:00:00","78","ND","ND","ND","ND","ND","1","29.9","23.3","75.8","20.3","0"],
    [39792,"2014-11-19T19:00:00","89","ND","ND","ND","ND","ND","0.4","263.2","22.6","82.6","0","0"],
    [39793,"2014-11-19T20:00:00","89","ND","ND","ND","ND","ND","0.4","278.1","22.2","85.1","0","0"],
    [39794,"2014-11-19T21:00:00","75","ND","ND","ND","ND","ND","0.4","246.5","21.6","86.7","0","0"],
    [39795,"2014-11-19T22:00:00","61","ND","ND","ND","ND","ND","0.4","247.4","21.3","84.1","0","0"],
    [39796,"2014-11-19T23:00:00","59","ND","ND","ND","ND","ND","0.2","195.3","20.7","85","0","0"],
    [39797,"2014-11-20T00:00:00","107","ND","ND","ND","ND","ND","0.3","23.6","20.3","89.1","0","0"],
    [39798,"2014-11-20T01:00:00","107","ND","ND","ND","ND","ND","0.6","341.7","19.6","91.9","0","0"],
    [39799,"2014-11-20T02:00:00","94","ND","ND","ND","ND","ND","0.1","190.7","19.5","92.6","0","0"],
    [39800,"2014-11-20T03:00:00","77","ND","ND","ND","ND","ND","0","0","19.6","93.1","0","0"],
    [39801,"2014-11-20T04:00:00","60","ND","ND","ND","ND","ND","0.1","139.2","19.4","93.1","0","0"],
    [39802,"2014-11-20T05:00:00","84","ND","ND","ND","ND","ND","0.1","357.6","19.3","93.8","0","0"],
    [39803,"2014-11-20T06:00:00","92","ND","ND","ND","ND","ND","0.2","11.5","19","95.3","0","0"],
    [39804,"2014-11-20T07:00:00","116","ND","ND","ND","ND","ND","0.4","34.6","19.3","94.9","67.4","0"],
    [39805,"2014-11-20T08:00:00","155","ND","ND","ND","ND","ND","0.4","73.5","20.6","89.9","185.6","0"],
    [39806,"2014-11-20T09:00:00","121","ND","ND","ND","ND","ND","1.2","55.5","22.9","77.8","455.9","0"],
    [39807,"2014-11-20T10:00:00","64","ND","ND","ND","ND","ND","1.4","49.8","23.9","73.8","509.5","0"],
    [39808,"2014-11-20T11:00:00","82","ND","ND","ND","ND","ND","0.5","32.9","24.9","69.6","454","0"],
    [39809,"2014-11-20T12:00:00","83","ND","ND","ND","ND","ND","0.6","43.4","25.4","67.2","337.2","0"],
    [39810,"2014-11-20T13:00:00","56","ND","ND","ND","ND","ND","0.7","106.7","27.3","58.4","666","0"],
    [39811,"2014-11-20T14:00:00","51","ND","ND","ND","ND","ND","0.6","234.1","26.6","65.2","149.6","0"],
    [39812,"2014-11-20T15:00:00","51","ND","ND","ND","ND","ND","0.9","172.1","27.1","60.9","280","0"],
    [39813,"2014-11-20T16:00:00","38","ND","ND","ND","ND","ND","0.4","86.5","28.1","54","245.5","0"],
    [39814,"2014-11-20T17:00:00","18","ND","ND","ND","ND","ND","2.3","271.5","27.2","52.5","91.7","0"],
    [39815,"2014-11-20T18:00:00","14","ND","ND","ND","ND","ND","2.3","288.7","26.2","54.9","31.2","0"],
    [39816,"2014-11-20T19:00:00","49","ND","ND","ND","ND","ND","0.3","294.1","25.3","58.8","0","0"],
    [39817,"2014-11-20T20:00:00","102","ND","ND","ND","ND","ND","0.6","146.1","24.6","64.1","0","0"],
    [39818,"2014-11-20T21:00:00","61","ND","ND","ND","ND","ND","0.9","225.3","23.5","70","0","0"],
    [39819,"2014-11-20T22:00:00","62","ND","ND","ND","ND","ND","0.3","233.9","23.4","69.5","0","0"],
    [39820,"2014-11-20T23:00:00","84","ND","ND","ND","ND","ND","0.1","286.7","22.7","76.2","0","0"],
    [39821,"2014-11-21T00:00:00","82","ND","ND","ND","ND","ND","0.7","357.1","21.7","82.6","0","0"],
    [39822,"2014-11-21T01:00:00","72","ND","ND","ND","ND","ND","0","0","21.9","82.1","0","0"],
    [39823,"2014-11-21T02:00:00","87","ND","ND","ND","ND","ND","0","264","22","82.4","0","0"],
    [39824,"2014-11-21T03:00:00","51","ND","ND","ND","ND","ND","0.3","40","21.3","86","0","0"],
    [39825,"2014-11-21T04:00:00","66","ND","ND","ND","ND","ND","0.3","164.1","21","87.8","0","0"],
    [39826,"2014-11-21T05:00:00","70","ND","ND","ND","ND","ND","0.2","294.9","21.4","85.9","0","0"],
    [39827,"2014-11-21T06:00:00","90","ND","ND","ND","ND","ND","0.1","272.3","21.4","85.2","0","0"],
    [39828,"2014-11-21T07:00:00","81","ND","ND","ND","ND","ND","0.2","193.4","21.5","85.4","16.7","0"],
    [39829,"2014-11-21T08:00:00","138","ND","ND","ND","ND","ND","0.2","56","22.3","82.6","88","0"],
    [39830,"2014-11-21T09:00:00","77","ND","ND","ND","ND","ND","1.3","187.2","23.5","74.2","225.9","0"],
    [39831,"2014-11-21T10:00:00","22","ND","ND","ND","ND","ND","2.6","175.1","25.5","63.6","594.6","0"],
    [39832,"2014-11-21T11:00:00","35","ND","ND","ND","ND","ND","2.2","145.2","27.2","58.4","745.9","0"],
    [39833,"2014-11-21T12:00:00","37","ND","ND","ND","ND","ND","2","333.1","23.5","81.2","107.7","10.16"],
    [39834,"2014-11-21T13:00:00","33","ND","ND","ND","ND","ND","0.4","280.7","23.4","87.1","293.3","0.76"],
    [39835,"2014-11-21T14:00:00","36","ND","ND","ND","ND","ND","0.4","326","27.4","64.5","754.6","0.25"],
    [39836,"2014-11-21T15:00:00","39","ND","ND","ND","ND","ND","0.8","273.6","28.7","55.3","530.4","0"],
    [39837,"2014-11-21T16:00:00","24","ND","ND","ND","ND","ND","2.6","271.9","28.6","50","308.5","0"],
    [39838,"2014-11-21T17:00:00","18","ND","ND","ND","ND","ND","1.3","268.7","28.2","49.5","185.3","0"],
    [39839,"2014-11-21T18:00:00","22","ND","ND","ND","ND","ND","0.7","152.4","26.4","56.8","28.3","0"],
    [39840,"2014-11-21T19:00:00","34","ND","ND","ND","ND","ND","0.5","159.5","23.9","70.3","0","0"],
    [39841,"2014-11-21T20:00:00","51","ND","ND","ND","ND","ND","0.2","182.9","23.7","72","0","0"],
    [39842,"2014-11-21T21:00:00","90","ND","ND","ND","ND","ND","0.3","281.5","23.5","73.1","0","0"],
    [39843,"2014-11-21T22:00:00","77","ND","ND","ND","ND","ND","0.3","92.3","23.8","71.2","0","0"],
    [39844,"2014-11-21T23:00:00","114","ND","ND","ND","ND","ND","0.9","332.1","23","77","0","0"],
    [39845,"2014-11-22T00:00:00","77","ND","ND","ND","ND","ND","0.3","261.8","22.4","80.7","0","0"],
    [39846,"2014-11-22T01:00:00","18","ND","ND","ND","ND","ND","0.6","195.8","22.1","80.9","0","0"],
    [39847,"2014-11-22T02:00:00","32","ND","ND","ND","ND","ND","0.2","191.1","21.3","83.8","0","0"],
    [39848,"2014-11-22T03:00:00","28","ND","ND","ND","ND","ND","0.6","167.5","21.4","83.1","0","0"],
    [39849,"2014-11-22T04:00:00","36","ND","ND","ND","ND","ND","0.2","21.9","21.3","85.7","0","0"],
    [39850,"2014-11-22T05:00:00","65","ND","ND","ND","ND","ND","0.2","39.7","21.2","86.9","0","0"],
    [39851,"2014-11-22T06:00:00","41","ND","ND","ND","ND","ND","0.7","151.4","21.5","86.3","0","0"],
    [39852,"2014-11-22T07:00:00","68","ND","ND","ND","ND","ND","0.4","35","21.3","88.5","36.5","0"],
    [39853,"2014-11-22T08:00:00","74","ND","ND","ND","ND","ND","0.4","63.6","21.9","87.3","161.6","0"],
    [39854,"2014-11-22T09:00:00","62","ND","ND","ND","ND","ND","1.8","135.1","23.8","73.5","433.6","0"],
    [39855,"2014-11-22T10:00:00","48","ND","ND","ND","ND","ND","2.1","141.2","25.1","67.1","593.5","0"],
    [39856,"2014-11-22T11:00:00","38","ND","ND","ND","ND","ND","1.8","151.8","26.5","60.9","727.6","0"],
    [39857,"2014-11-22T12:00:00","37","ND","ND","ND","ND","ND","1.5","127.4","27.6","56.4","526.3","0"],
    [39858,"2014-11-22T13:00:00","48","ND","ND","ND","ND","ND","1.6","344.6","24.7","72.1","98.4","6.6"],
    [39859,"2014-11-22T14:00:00","25","ND","ND","ND","ND","ND","0.8","282.6","23.7","82.8","281.2","0.51"],
    [39860,"2014-11-22T15:00:00","18","ND","ND","ND","ND","ND","0.8","113.7","28.1","55","568.5","0"],
    [39861,"2014-11-22T16:00:00","8","ND","ND","ND","ND","ND","0.4","280.3","29.1","48.9","462.1","0"],
    [39862,"2014-11-22T17:00:00","10","ND","ND","ND","ND","ND","2.1","291.2","28.1","49.9","218.8","0"],
    [39863,"2014-11-22T18:00:00","10","ND","ND","ND","ND","ND","2.8","266.8","26.4","55.4","15.6","0"],
    [39864,"2014-11-22T19:00:00","9","ND","ND","ND","ND","ND","1","285.5","25.6","57.9","0","0"],
    [39865,"2014-11-22T20:00:00","34","ND","ND","ND","ND","ND","1.7","96.3","25","62.9","0","0"],
    [39866,"2014-11-22T21:00:00","16","ND","ND","ND","ND","ND","0.7","69.8","23.9","70.1","0","0"],
    [39867,"2014-11-22T22:00:00","35","ND","ND","ND","ND","ND","0.4","249.8","23.2","74.6","0","0"],
    [39868,"2014-11-22T23:00:00","21","ND","ND","ND","ND","ND","0.8","282.7","23.1","72.5","0","0"],
    [39869,"2014-11-23T00:00:00","36","ND","ND","ND","ND","ND","0.1","146","22.9","74.2","0","0"],
    [39870,"2014-11-23T01:00:00","28","ND","ND","ND","ND","ND","0.2","11.1","22.2","79","0","0"],
    [39871,"2014-11-23T02:00:00","44","ND","ND","ND","ND","ND","1","6.8","21.7","81.5","0","0"],
    [39872,"2014-11-23T03:00:00","63","ND","ND","ND","ND","ND","0.6","358.9","21.6","86.1","0","0"],
    [39873,"2014-11-23T04:00:00","53","ND","ND","ND","ND","ND","0.2","61.6","21.6","87.3","0","0"],
    [39874,"2014-11-23T05:00:00","43","ND","ND","ND","ND","ND","0.4","351.6","21.5","88","0","0"],
    [39875,"2014-11-23T06:00:00","32","ND","ND","ND","ND","ND","0.1","164.6","21.6","86.7","0","0"],
    [39876,"2014-11-23T07:00:00","41","ND","ND","ND","ND","ND","0.2","134.8","21.8","86.7","5.3","0"],
    [39877,"2014-11-23T08:00:00","56","ND","ND","ND","ND","ND","0.9","351.1","21.7","87.8","31.7","0"],
    [39878,"2014-11-23T09:00:00","62","ND","ND","ND","ND","ND","0.5","46.1","22.8","83.4","352","0"],
    [39879,"2014-11-23T10:00:00","54","ND","ND","ND","ND","ND","1.5","133.6","25.4","68.1","492","0"],
    [39880,"2014-11-23T11:00:00","55","ND","ND","ND","ND","ND","0.7","86","26.2","64.4","361.9","0"],
    [39881,"2014-11-23T12:00:00","38","ND","ND","ND","ND","ND","0.4","61.6","27.5","59.4","650.5","0"],
    [39882,"2014-11-23T13:00:00","43","ND","ND","ND","ND","ND","0.7","105","28.9","53.3","764.8","0"],
    [39883,"2014-11-23T14:00:00","45","ND","ND","ND","ND","ND","0.8","32.8","29.1","53.4","487.2","0"],
    [39884,"2014-11-23T15:00:00","39","ND","ND","ND","ND","ND","1.3","10.4","29.2","53.5","315.8","0"],
    [39885,"2014-11-23T16:00:00","17","ND","ND","ND","ND","ND","1.3","338.6","28.8","53.3","77.4","0"],
    [39886,"2014-11-23T17:00:00","12","ND","ND","ND","ND","ND","0.9","290.4","29.3","51.8","175","0"],
    [39887,"2014-11-23T18:00:00","23","ND","ND","ND","ND","ND","0.9","265.5","28.1","55.2","31.5","0"],
    [39888,"2014-11-23T19:00:00","37","ND","ND","ND","ND","ND","0.1","235.1","26.7","60.3","0","0"],
    [39889,"2014-11-23T20:00:00","65","ND","ND","ND","ND","ND","0.1","310.6","25.6","66.2","0","0"],
    [39890,"2014-11-23T21:00:00","48","ND","ND","ND","ND","ND","0.6","140.7","25.5","64.2","0","0"],
    [39891,"2014-11-23T22:00:00","46","ND","ND","ND","ND","ND","0.8","163.5","24.2","72.2","0","0"],
    [39892,"2014-11-23T23:00:00","57","ND","ND","ND","ND","ND","0.2","191.9","23.5","76.8","0","0"],
    [39893,"2014-11-24T00:00:00","45","ND","ND","ND","ND","ND","0","285.8","22.7","80.3","0","0"],
    [39894,"2014-11-24T01:00:00","39","ND","ND","ND","ND","ND","0.1","255.9","22.4","81.7","0","0"],
    [39895,"2014-11-24T02:00:00","33","ND","ND","ND","ND","ND","0.4","235.3","22.1","82.9","0","0"],
    [39896,"2014-11-24T03:00:00","38","ND","ND","ND","ND","ND","0.4","51.5","21.9","83.4","0","0"],
    [39897,"2014-11-24T04:00:00","51","ND","ND","ND","ND","ND","0.3","340.8","21.3","86.2","0","0"],
    [39898,"2014-11-24T05:00:00","40","ND","ND","ND","ND","ND","0","267.6","21.6","85.8","0","0"],
    [39899,"2014-11-24T06:00:00","53","ND","ND","ND","ND","ND","0.2","287","21.4","86.7","0","0"],
    [39900,"2014-11-24T07:00:00","127","ND","ND","ND","ND","ND","0.4","41","21.3","86","29.1","0"],
    [39901,"2014-11-24T08:00:00","165","ND","ND","ND","ND","ND","0.2","29.9","22.8","80.1","126.2","0"],
    [39902,"2014-11-24T09:00:00","87","ND","ND","ND","ND","ND","0.4","96.4","25","69.2","321.5","0"],
    [39903,"2014-11-24T10:00:00","86","ND","ND","ND","ND","ND","0.6","84.7","26.7","63.4","410.4","0"],
    [39904,"2014-11-24T11:00:00","90","ND","ND","ND","ND","ND","1.4","87.4","27.5","62","419.9","0"],
    [39905,"2014-11-24T12:00:00","73","ND","ND","ND","ND","ND","0.6","44.5","28.1","59.5","419.8","0"],
    [39906,"2014-11-24T13:00:00","65","ND","ND","ND","ND","ND","1","15.7","29.2","55.3","606.6","0"],
    [39907,"2014-11-24T14:00:00","48","ND","ND","ND","ND","ND","1.5","30.9","29.8","53.1","357.4","0"],
    [39908,"2014-11-24T15:00:00","25","ND","ND","ND","ND","ND","2.7","252.2","30.3","47.9","405.8","0"],
    [39909,"2014-11-24T16:00:00","21","ND","ND","ND","ND","ND","3.1","268.9","30.4","46.4","363.9","0"],
    [39910,"2014-11-24T17:00:00","25","ND","ND","ND","ND","ND","2.2","269.3","28.7","50.3","47.6","0"],
    [39911,"2014-11-24T18:00:00","49","ND","ND","ND","ND","ND","0.5","259.5","27.9","53.9","13.7","0"],
    [39912,"2014-11-24T19:00:00","36","ND","ND","ND","ND","ND","0.2","325","27.2","56","0","0"],
    [39913,"2014-11-24T20:00:00","79","ND","ND","ND","ND","ND","0.8","86.9","26.7","59.6","0","0"],
    [39914,"2014-11-24T21:00:00","82","ND","ND","ND","ND","ND","1.4","174.8","26","63","0","0"],
    [39915,"2014-11-24T22:00:00","20","ND","ND","ND","ND","ND","2.3","227.7","25.7","64.7","0","0"],
    [39916,"2014-11-24T23:00:00","25","ND","ND","ND","ND","ND","0.4","153.9","25.3","64.9","0","0"],
    [39917,"2014-11-25T00:00:00","41","ND","ND","ND","ND","ND","0.6","77.7","24.3","70.2","0","0"],
    [39918,"2014-11-25T01:00:00","80","ND","ND","ND","ND","ND","0.6","132.5","22.8","81.9","0","0"],
    [39919,"2014-11-25T02:00:00","124","ND","ND","ND","ND","ND","0.2","256.5","22.8","82.3","0","0"],
    [39920,"2014-11-25T03:00:00","94","ND","ND","ND","ND","ND","0.2","23","22.5","83.5","0","0"],
    [39921,"2014-11-25T04:00:00","80","ND","ND","ND","ND","ND","0.4","335.7","22.2","83.9","0","0"],
    [39922,"2014-11-25T05:00:00","96","ND","ND","ND","ND","ND","0.2","157.1","22.6","82.6","0","0"],
    [39923,"2014-11-25T06:00:00","87","ND","ND","ND","ND","ND","0.1","129.6","22.7","81.2","0","0"],
    [39924,"2014-11-25T07:00:00","119","ND","ND","ND","ND","ND","0.4","356.4","22.4","82.4","16.8","0"],
    [39925,"2014-11-25T08:00:00","118","ND","ND","ND","ND","ND","0","67.4","23.8","76.4","123.7","0"],
    [39926,"2014-11-25T09:00:00","148","ND","ND","ND","ND","ND","0.5","56.9","24.5","74.5","199.1","0"],
    [39927,"2014-11-25T10:00:00","101","ND","ND","ND","ND","ND","0.7","70.7","25.3","72.7","149.9","0"],
    [39928,"2014-11-25T11:00:00","58","ND","ND","ND","ND","ND","0.5","149","25.6","70.7","213.9","0"],
    [39929,"2014-11-25T12:00:00","59","ND","ND","ND","ND","ND","0.7","88.3","27.7","62.9","630.5","0"],
    [39930,"2014-11-25T13:00:00","53","ND","ND","ND","ND","ND","0.7","327.9","27.8","59.6","221.2","0"],
    [39931,"2014-11-25T14:00:00","21","ND","ND","ND","ND","ND","2.3","287.1","27.5","56.7","246","0"],
    [39932,"2014-11-25T15:00:00","21","ND","ND","ND","ND","ND","2.4","267.1","27.2","55.9","304.3","0"],
    [39933,"2014-11-25T16:00:00","11","ND","ND","ND","ND","ND","2.2","284.1","27.9","51.1","269.3","0"],
    [39934,"2014-11-25T17:00:00","28","ND","ND","ND","ND","ND","0.2","300.9","27.3","51.7","106","0"],
    [39935,"2014-11-25T18:00:00","32","ND","ND","ND","ND","ND","1.1","226.4","26.7","53.7","28.1","0"],
    [39936,"2014-11-25T19:00:00","31","ND","ND","ND","ND","ND","2.3","243.1","25.1","61.2","0","0"],
    [39937,"2014-11-25T20:00:00","39","ND","ND","ND","ND","ND","2.2","170.3","23.1","76.1","0","0"],
    [39938,"2014-11-25T21:00:00","39","ND","ND","ND","ND","ND","1.2","154.9","22.9","76.8","0","0"],
    [39939,"2014-11-25T22:00:00","33","ND","ND","ND","ND","ND","0.3","292.1","23.1","77.3","0","0"],
    [39940,"2014-11-25T23:00:00","32","ND","ND","ND","ND","ND","0.5","168.8","23.2","76.7","0","0"],
    [39941,"2014-11-26T00:00:00","17","ND","ND","ND","ND","ND","0.7","161.6","22.6","79.4","0","0"],
    [39942,"2014-11-26T01:00:00","17","ND","ND","ND","ND","ND","0.6","100.8","22.3","83.7","0","0"],
    [39943,"2014-11-26T02:00:00","22","ND","ND","ND","ND","ND","1","153.9","21.4","90.3","0","2.03"],
    [39944,"2014-11-26T03:00:00","8","ND","ND","ND","ND","ND","1","158.6","20.7","95.2","0","4.32"],
    [39945,"2014-11-26T04:00:00","4","ND","ND","ND","ND","ND","0.4","177.4","20.6","96.4","0","1.52"],
    [39946,"2014-11-26T05:00:00","5","ND","ND","ND","ND","ND","1","143.2","20.7","95","0","0.25"],
    [39947,"2014-11-26T06:00:00","6","ND","ND","ND","ND","ND","0.8","140.5","20.6","94.6","0","0.76"],
    [39948,"2014-11-26T07:00:00","8","ND","ND","ND","ND","ND","1","159.7","20.7","95.1","8.6","0.25"],
    [39949,"2014-11-26T08:00:00","10","ND","ND","ND","ND","ND","1.2","192","20.7","95","38.8","0"],
    [39950,"2014-11-26T09:00:00","11","ND","ND","ND","ND","ND","0.8","148.5","21.8","87.3","207.5","0"],
    [39951,"2014-11-26T10:00:00","31","ND","ND","ND","ND","ND","1.1","161.4","23.3","78.8","233.4","0"],
    [39952,"2014-11-26T11:00:00","42","ND","ND","ND","ND","ND","1.4","139.1","24.3","75.1","389.8","0"],
    [39953,"2014-11-26T12:00:00","37","ND","ND","ND","ND","ND","1","161.7","25.6","66.9","553.1","0"],
    [39954,"2014-11-26T13:00:00","36","ND","ND","ND","ND","ND","1","105.6","26","65.1","276.8","0"],
    [39955,"2014-11-26T14:00:00","39","ND","ND","ND","ND","ND","1.7","239.9","24.3","73.1","52.4","0"],
    [39956,"2014-11-26T15:00:00","23","ND","ND","ND","ND","ND","0.7","223.9","21.7","88.6","24.7","2.54"],
    [39957,"2014-11-26T16:00:00","30","ND","ND","ND","ND","ND","1.1","354","21.2","93.9","41.1","7.11"],
    [39958,"2014-11-26T17:00:00","35","ND","ND","ND","ND","ND","0.2","246.4","22","91","59.5","0.25"],
    [39959,"2014-11-26T18:00:00","31","ND","ND","ND","ND","ND","0.3","101.1","22.6","85.1","23.6","0"],
    [39960,"2014-11-26T19:00:00","45","ND","ND","ND","ND","ND","0.5","160.4","22.4","89.6","0","0"],
    [39961,"2014-11-26T20:00:00","45","ND","ND","ND","ND","ND","0.2","154.5","22.2","87.9","0","0"],
    [39962,"2014-11-26T21:00:00","49","ND","ND","ND","ND","ND","1.5","175.8","22","88.7","0","0"],
    [39963,"2014-11-26T22:00:00","34","ND","ND","ND","ND","ND","1.4","176.6","21.9","90.2","0","0"],
    [39964,"2014-11-26T23:00:00","37","ND","ND","ND","ND","ND","1.4","163.3","21.8","88.7","0","0"],
    [39965,"2014-11-27T00:00:00","17","ND","ND","ND","ND","ND","1.5","142.7","21.4","90.7","0","0"],
    [39966,"2014-11-27T01:00:00","8","ND","ND","ND","ND","ND","1.5","150.9","20.7","92.9","0","0.51"],
    [39967,"2014-11-27T02:00:00","7","ND","ND","ND","ND","ND","1.5","182","20.1","94.3","0","2.79"],
    [39968,"2014-11-27T03:00:00","4","ND","ND","ND","ND","ND","0.8","209.6","20","95.7","0","2.54"],
    [39969,"2014-11-27T04:00:00","2","ND","ND","ND","ND","ND","0.1","168.8","20.1","95.8","0","0.25"],
    [39970,"2014-11-27T05:00:00","23","ND","ND","ND","ND","ND","0.1","47.6","20.1","96.2","0","0"],
    [39971,"2014-11-27T06:00:00","20","ND","ND","ND","ND","ND","0.1","160.8","20.1","96.9","0","0"],
    [39972,"2014-11-27T07:00:00","53","ND","ND","ND","ND","ND","0.1","14.7","20.1","96.6","19.8","0"],
    [39973,"2014-11-27T08:00:00","63","ND","ND","ND","ND","ND","0.5","52.9","20.7","95","89.6","0"],
    [39974,"2014-11-27T09:00:00","73","ND","ND","ND","ND","ND","0.4","74.4","21.4","91","197.8","0"],
    [39975,"2014-11-27T10:00:00","61","ND","ND","ND","ND","ND","0.5","82.4","22.7","82.2","289.4","0"],
    [39976,"2014-11-27T11:00:00","61","ND","ND","ND","ND","ND","0.6","73.1","24.4","74.2","592.8","0"],
    [39977,"2014-11-27T12:00:00","46","ND","ND","ND","ND","ND","0.5","94.4","26.2","63.6","758.2","0"],
    [39978,"2014-11-27T13:00:00","38","ND","ND","ND","ND","ND","1.1","31.4","27.5","56.6","739.4","0"],
    [39979,"2014-11-27T14:00:00","20","ND","ND","ND","ND","ND","1.2","52.6","28.1","54.9","540.4","0"],
    [39980,"2014-11-27T15:00:00","26","ND","ND","ND","ND","ND","1.2","55.9","28.8","53.4","484.7","0"],
    [39981,"2014-11-27T16:00:00","27","ND","ND","ND","ND","ND","1.2","72.5","29.2","52.2","382","0"],
    [39982,"2014-11-27T17:00:00","36","ND","ND","ND","ND","ND","0.9","74.6","29.2","52.6","170.8","0"],
    [39983,"2014-11-27T18:00:00","71","ND","ND","ND","ND","ND","0.9","262.7","27.5","62.2","13.1","0"],
    [39984,"2014-11-27T19:00:00","59","ND","ND","ND","ND","ND","0.6","174.4","26.6","64.8","0","0"],
    [39985,"2014-11-27T20:00:00","85","ND","ND","ND","ND","ND","0.5","301.3","25.4","69.9","0","0"],
    [39986,"2014-11-27T21:00:00","104","ND","ND","ND","ND","ND","0.1","267.5","24.6","73.8","0","0"],
    [39987,"2014-11-27T22:00:00","93","ND","ND","ND","ND","ND","0.4","4.8","23.9","75.9","0","0"],
    [39988,"2014-11-27T23:00:00","61","ND","ND","ND","ND","ND","0.1","291.7","23.1","79.5","0","0"],
    [39989,"2014-11-28T00:00:00","52","ND","ND","ND","ND","ND","0","219.8","22.4","83.3","0","0"],
    [39990,"2014-11-28T01:00:00","52","ND","ND","ND","ND","ND","0.1","259.2","21.9","85.7","0","0"],
    [39991,"2014-11-28T02:00:00","44","ND","ND","ND","ND","ND","0.1","193.9","21.7","86.3","0","0"],
    [39992,"2014-11-28T03:00:00","50","ND","ND","ND","ND","ND","0","253.4","21.3","88.5","0","0"],
    [39993,"2014-11-28T04:00:00","51","ND","ND","ND","ND","ND","0.1","213","21.1","89.2","0","0"],
    [39994,"2014-11-28T05:00:00","71","ND","ND","ND","ND","ND","0.2","348.1","21.6","87.1","0","0"],
    [39995,"2014-11-28T06:00:00","92","ND","ND","ND","ND","ND","0.2","198","21.5","87.6","0","0"],
    [39996,"2014-11-28T07:00:00","146","ND","ND","ND","ND","ND","0.3","39.5","21.7","87.8","32.7","0"],
    [39997,"2014-11-28T08:00:00","143","ND","ND","ND","ND","ND","0.7","25.2","22.7","83.6","119","0"],
    [39998,"2014-11-28T09:00:00","95","ND","ND","ND","ND","ND","1.3","46.6","24.1","77.4","385.4","0"],
    [39999,"2014-11-28T10:00:00","57","ND","ND","ND","ND","ND","1","76.5","26.3","67.8","575.6","0"],
    [40000,"2014-11-28T11:00:00","53","ND","ND","ND","ND","ND","0.6","110.2","28.2","59.9","696.1","0"],
    [40001,"2014-11-28T12:00:00","57","ND","ND","ND","ND","ND","0.5","135.3","28.8","56.5","501","0"],
    [40002,"2014-11-28T13:00:00","42","ND","ND","ND","ND","ND","0.8","35.4","29.2","55.5","470.3","0"],
    [40003,"2014-11-28T14:00:00","59","ND","ND","ND","ND","ND","0.8","4.6","30.3","52.3","549.7","0"],
    [40004,"2014-11-28T15:00:00","27","ND","ND","ND","ND","ND","0.4","1.4","31.4","47.5","540.8","0"],
    [40005,"2014-11-28T16:00:00","20","ND","ND","ND","ND","ND","1.6","298.3","31.2","46.1","408.2","0"],
    [40006,"2014-11-28T17:00:00","15","ND","ND","ND","ND","ND","2.3","289.3","30.5","47.9","210.4","0"],
    [40007,"2014-11-28T18:00:00","33","ND","ND","ND","ND","ND","0.6","343.9","28.8","52.6","27.5","0"],
    [40008,"2014-11-28T19:00:00","44","ND","ND","ND","ND","ND","0.2","253.6","27.9","54.9","0","0"],
    [40009,"2014-11-28T20:00:00","122","ND","ND","ND","ND","ND","0.9","128.5","27.8","55","0","0"],
    [40010,"2014-11-28T21:00:00","65","ND","ND","ND","ND","ND","1.2","118.4","26.6","62.6","0","0"],
    [40011,"2014-11-28T22:00:00","60","ND","ND","ND","ND","ND","0.6","175.9","25.3","70.3","0","0"],
    [40012,"2014-11-28T23:00:00","60","ND","ND","ND","ND","ND","0.2","238.1","24.5","73.9","0","0"],
    [40013,"2014-11-29T00:00:00","53","ND","ND","ND","ND","ND","0.1","289.3","23.8","77.3","0","0"],
    [40014,"2014-11-29T01:00:00","55","ND","ND","ND","ND","ND","0","283.8","23.6","78.9","0","0"],
    [40015,"2014-11-29T02:00:00","59","ND","ND","ND","ND","ND","0.3","73.6","23.2","81.4","0","0"],
    [40016,"2014-11-29T03:00:00","50","ND","ND","ND","ND","ND","0.2","208.5","22.9","83.3","0","0"],
    [40017,"2014-11-29T04:00:00","74","ND","ND","ND","ND","ND","0.3","35.8","22.7","84.2","0","0"],
    [40018,"2014-11-29T05:00:00","75","ND","ND","ND","ND","ND","0.4","281.4","22.5","85.5","0","0"],
    [40019,"2014-11-29T06:00:00","56","ND","ND","ND","ND","ND","0.2","173.1","22.5","84.6","0","0"],
    [40020,"2014-11-29T07:00:00","98","ND","ND","ND","ND","ND","0.6","27.2","22.4","85.8","20.4","0"],
    [40021,"2014-11-29T08:00:00","125","ND","ND","ND","ND","ND","0.3","43.4","22.7","85.1","106.3","0"],
    [40022,"2014-11-29T09:00:00","94","ND","ND","ND","ND","ND","1","119.8","25.3","72.1","391.5","0"],
    [40023,"2014-11-29T10:00:00","59","ND","ND","ND","ND","ND","2.3","164.4","26.5","65.5","505.3","0"],
    [40024,"2014-11-29T11:00:00","50","ND","ND","ND","ND","ND","1.8","155","28.2","58.6","688.5","0"],
    [40025,"2014-11-29T12:00:00","68","ND","ND","ND","ND","ND","1.2","75.3","29.7","53.9","755.5","0"],
    [40026,"2014-11-29T13:00:00","79","ND","ND","ND","ND","ND","1.6","70.2","30.5","53.5","727.6","0"],
    [40027,"2014-11-29T14:00:00","68","ND","ND","ND","ND","ND","1.5","48.5","31.1","52.1","507.7","0"],
    [40028,"2014-11-29T15:00:00","26","ND","ND","ND","ND","ND","1.8","281.3","31.4","48.4","405.1","0"],
    [40029,"2014-11-29T16:00:00","15","ND","ND","ND","ND","ND","2.4","276.1","30.6","48.3","275.8","0"],
    [40030,"2014-11-29T17:00:00","23","ND","ND","ND","ND","ND","1","270.9","30.1","47.9","156.2","0"],
    [40031,"2014-11-29T18:00:00","23","ND","ND","ND","ND","ND","0.7","254.7","29.2","51.2","30.3","0"],
    [40032,"2014-11-29T19:00:00","69","ND","ND","ND","ND","ND","0.6","95","28.1","54.8","0","0"],
    [40033,"2014-11-29T20:00:00","71","ND","ND","ND","ND","ND","1","123.8","27.6","57","0","0"],
    [40034,"2014-11-29T21:00:00","76","ND","ND","ND","ND","ND","1","167.6","26.7","61.6","0","0"],
    [40035,"2014-11-29T22:00:00","61","ND","ND","ND","ND","ND","0.8","78.1","25.4","68.9","0","0"],
    [40036,"2014-11-29T23:00:00","46","ND","ND","ND","ND","ND","0.3","338.3","24.9","71.2","0","0"],
    [40037,"2014-11-30T00:00:00","86","ND","ND","ND","ND","ND","0.6","352.3","24","75.9","0","0"],
    [40038,"2014-11-30T01:00:00","61","ND","ND","ND","ND","ND","0.3","327.6","23.5","79.1","0","0"],
    [40039,"2014-11-30T02:00:00","35","ND","ND","ND","ND","ND","0.3","318.7","23.5","77.3","0","0"],
    [40040,"2014-11-30T03:00:00","44","ND","ND","ND","ND","ND","0.3","181.7","23.8","76.1","0","0"],
    [40041,"2014-11-30T04:00:00","59","ND","ND","ND","ND","ND","0.4","337.4","23","80.8","0","0"],
    [40042,"2014-11-30T05:00:00","36","ND","ND","ND","ND","ND","0.6","216.7","23.1","80.6","0","0"],
    [40043,"2014-11-30T06:00:00","46","ND","ND","ND","ND","ND","1.2","198.4","23.4","80.3","0","0"],
    [40044,"2014-11-30T07:00:00","34","ND","ND","ND","ND","ND","0.2","171.7","23.7","78.2","20.7","0"],
    [40045,"2014-11-30T08:00:00","65","ND","ND","ND","ND","ND","0.7","18.8","24","79","86.9","0"],
    [40046,"2014-11-30T09:00:00","92","ND","ND","ND","ND","ND","0.5","77.6","24.2","79.6","111.4","0"],
    [40047,"2014-11-30T10:00:00","84","ND","ND","ND","ND","ND","0.3","307.7","25.6","73.4","277.8","0"],
    [40048,"2014-11-30T11:00:00","50","ND","ND","ND","ND","ND","0.2","174.6","27.2","64.2","521.9","0"],
    [40049,"2014-11-30T12:00:00","49","ND","ND","ND","ND","ND","1","127.7","28.4","59.3","450.3","0"],
    [40050,"2014-11-30T13:00:00","59","ND","ND","ND","ND","ND","1.5","135.5","28.5","59.3","274","0"],
    [40051,"2014-11-30T14:00:00","58","ND","ND","ND","ND","ND","0.3","39.3","28.6","59.4","293.7","0"],
    [40052,"2014-11-30T15:00:00","56","ND","ND","ND","ND","ND","0.7","33.6","28.9","59.1","324.7","0"],
    [40053,"2014-11-30T16:00:00","58","ND","ND","ND","ND","ND","1.1","39.8","28.7","61","164.1","0"],
    [40054,"2014-11-30T17:00:00","56","ND","ND","ND","ND","ND","0.8","75.9","28.8","61.3","113","0"],
    [40055,"2014-11-30T18:00:00","38","ND","ND","ND","ND","ND","0.1","279.9","28.1","59.8","8.9","0"],
    [40056,"2014-11-30T19:00:00","37","ND","ND","ND","ND","ND","0.3","349.8","27.2","60.7","0","0"],
    [40057,"2014-11-30T20:00:00","42","ND","ND","ND","ND","ND","0.2","303.4","26.4","64.9","0","0"],
    [40058,"2014-11-30T21:00:00","46","ND","ND","ND","ND","ND","0.2","240.6","25.8","67.6","0","0"],
    [40059,"2014-11-30T22:00:00","49","ND","ND","ND","ND","ND","0.4","126.4","25.3","69.2","0","0"],
    [40060,"2014-11-30T23:00:00","54","ND","ND","ND","ND","ND","0.5","38.8","25","72.4","0","0"],
    [40061,"2014-12-01T00:00:00","33","ND","ND","ND","ND","ND","0.4","224.3","24.4","75.4","0","0"],
    [40062,"2014-12-01T01:00:00","39","ND","ND","ND","ND","ND","0.3","204.1","23.8","77.9","0","0"],
    [40063,"2014-12-01T02:00:00","27","ND","ND","ND","ND","ND","0.3","43","23.6","79.7","0","0"],
    [40064,"2014-12-01T03:00:00","38","ND","ND","ND","ND","ND","0.4","13.4","23.2","82","0","0"],
    [40065,"2014-12-01T04:00:00","51","ND","ND","ND","ND","ND","0.1","291.5","23.1","83.7","0","0"],
    [40066,"2014-12-01T05:00:00","48","ND","ND","ND","ND","ND","0.2","279.9","23","84.4","0","0"],
    [40067,"2014-12-01T06:00:00","68","ND","ND","ND","ND","ND","0.3","24.6","22.9","85.9","0","0"],
    [40068,"2014-12-01T07:00:00","153","ND","ND","ND","ND","ND","0.5","65.3","22.7","84.8","17.9","0"],
    [40069,"2014-12-01T08:00:00","101","ND","ND","ND","ND","ND","0.2","125","23.4","82.7","76.8","0"],
    [40070,"2014-12-01T09:00:00","92","ND","ND","ND","ND","ND","0.4","167.5","25","75.7","280.7","0"],
    [40071,"2014-12-01T10:00:00","59","ND","ND","ND","ND","ND","0.9","106.5","26.9","65.1","518.7","0"],
    [40072,"2014-12-01T11:00:00","58","ND","ND","ND","ND","ND","0.8","87.9","28.3","59.8","668","0"],
    [40073,"2014-12-01T12:00:00","58","ND","ND","ND","ND","ND","0.6","78","29.5","55.2","688","0"],
    [40074,"2014-12-01T13:00:00","72","ND","ND","ND","ND","ND","0.8","353.4","30.2","53","556.2","0"],
    [40075,"2014-12-01T14:00:00","67","ND","ND","ND","ND","ND","0.7","17.5","30.7","51.4","464.8","0"],
    [40076,"2014-12-01T15:00:00","19","ND","ND","ND","ND","ND","1.6","281.1","31.2","46.5","349.4","0"],
    [40077,"2014-12-01T16:00:00","17","ND","ND","ND","ND","ND","2.7","269.8","30.8","46.7","296.5","0"],
    [40078,"2014-12-01T17:00:00","25","ND","ND","ND","ND","ND","2.5","274.8","30.4","47.1","172.6","0"],
    [40079,"2014-12-01T18:00:00","33","ND","ND","ND","ND","ND","0.8","237.5","29.4","49","25.9","0"],
    [40080,"2014-12-01T19:00:00","49","ND","ND","ND","ND","ND","0.3","125","28.4","52.3","0","0"],
    [40081,"2014-12-01T20:00:00","97","ND","ND","ND","ND","ND","0.4","115","27.5","56.1","0","0"],
    [40082,"2014-12-01T21:00:00","63","ND","ND","ND","ND","ND","0.5","70","26.4","63.2","0","0"],
    [40083,"2014-12-01T22:00:00","60","ND","ND","ND","ND","ND","0.6","180.7","25.2","69.8","0","0"],
    [40084,"2014-12-01T23:00:00","39","ND","ND","ND","ND","ND","0.4","129.1","24.6","73","0","0"],
    [40085,"2014-12-02T00:00:00","54","ND","ND","ND","ND","ND","0.2","194.7","24","75.2","0","0"],
    [40086,"2014-12-02T01:00:00","31","ND","ND","ND","ND","ND","0.2","262.2","24","75.1","0","0"],
    [40087,"2014-12-02T02:00:00","65","ND","ND","ND","ND","ND","0.3","92","23.4","78.2","0","0"],
    [40088,"2014-12-02T03:00:00","74","ND","ND","ND","ND","ND","0.4","39","22.8","81.5","0","0"],
    [40089,"2014-12-02T04:00:00","57","ND","ND","ND","ND","ND","0.4","208.6","22.6","83","0","0"],
    [40090,"2014-12-02T05:00:00","45","ND","ND","ND","ND","ND","0.1","34.5","22.7","82.8","0","0"],
    [40091,"2014-12-02T06:00:00","51","ND","ND","ND","ND","ND","0.6","164.7","22.6","83","0","0"],
    [40092,"2014-12-02T07:00:00","65","ND","ND","ND","ND","ND","0.7","171.1","22.9","81.9","46.8","0"],
    [40093,"2014-12-02T08:00:00","60","ND","ND","ND","ND","ND","1","157.7","24.7","73.5","212.7","0"],
    [40094,"2014-12-02T09:00:00","52","ND","ND","ND","ND","ND","0.9","157.7","26.1","66.3","369","0"],
    [40095,"2014-12-02T10:00:00","62","ND","ND","ND","ND","ND","0.6","91","27.5","61.6","457.6","0"],
    [40096,"2014-12-02T11:00:00","59","ND","ND","ND","ND","ND","1.2","52.9","27.9","60.7","440.1","0"],
    [40097,"2014-12-02T12:00:00","70","ND","ND","ND","ND","ND","1.3","55.9","29.2","56.5","682.8","0"],
    [40098,"2014-12-02T13:00:00","52","ND","ND","ND","ND","ND","1.3","66.4","30.5","53","739.8","0"],
    [40099,"2014-12-02T14:00:00","48","ND","ND","ND","ND","ND","1.1","57.9","31","51.2","460.7","0"],
    [40100,"2014-12-02T15:00:00","46","ND","ND","ND","ND","ND","0.8","3.1","31.4","48.7","291.2","0"],
    [40101,"2014-12-02T16:00:00","35","ND","ND","ND","ND","ND","1.4","273.1","31.2","47.9","257.2","0"],
    [40102,"2014-12-02T17:00:00","37","ND","ND","ND","ND","ND","2.7","280","30.7","47.4","196.4","0"],
    [40103,"2014-12-02T18:00:00","30","ND","ND","ND","ND","ND","1.6","260.4","29.2","49.9","31.4","0"],
    [40104,"2014-12-02T19:00:00","40","ND","ND","ND","ND","ND","0.9","106.4","28.5","51.6","0","0"],
    [40105,"2014-12-02T20:00:00","88","ND","ND","ND","ND","ND","1.2","121.5","27.9","53.9","0","0"],
    [40106,"2014-12-02T21:00:00","75","ND","ND","ND","ND","ND","0.6","88.2","26.6","60.4","0","0"],
    [40107,"2014-12-02T22:00:00","53","ND","ND","ND","ND","ND","0.7","95.8","25.2","68.1","0","0"],
    [40108,"2014-12-02T23:00:00","61","ND","ND","ND","ND","ND","0.4","7.2","24.5","71.7","0","0"],
    [40109,"2014-12-03T00:00:00","61","ND","ND","ND","ND","ND","0.4","304","24","74.2","0","0"],
    [40110,"2014-12-03T01:00:00","92","ND","ND","ND","ND","ND","0.4","60.6","23.8","75.2","0","0"],
    [40111,"2014-12-03T02:00:00","57","ND","ND","ND","ND","ND","0.8","19.3","23.1","78.5","0","0"],
    [40112,"2014-12-03T03:00:00","32","ND","ND","ND","ND","ND","0.1","155.1","23","78.8","0","0"],
    [40113,"2014-12-03T04:00:00","45","ND","ND","ND","ND","ND","0.3","152.3","23","79.5","0","0"],
    [40114,"2014-12-03T05:00:00","46","ND","ND","ND","ND","ND","0.2","156.1","23","80.6","0","0"],
    [40115,"2014-12-03T06:00:00","66","ND","ND","ND","ND","ND","0.5","0.4","22.6","82.8","0","0"],
    [40116,"2014-12-03T07:00:00","94","ND","ND","ND","ND","ND","0.2","185.9","22.3","84.4","42","0"],
    [40117,"2014-12-03T08:00:00","115","ND","ND","ND","ND","ND","0.9","56.8","24.1","77.2","225.5","0"],
    [40118,"2014-12-03T09:00:00","105","ND","ND","ND","ND","ND","1.1","70.1","25.2","72.5","391","0"],
    [40119,"2014-12-03T10:00:00","77","ND","ND","ND","ND","ND","1","86.7","26.7","65.7","569.5","0"],
    [40120,"2014-12-03T11:00:00","86","ND","ND","ND","ND","ND","0.6","114.2","28","60.2","615.5","0"],
    [40121,"2014-12-03T12:00:00","72","ND","ND","ND","ND","ND","0.7","91.9","29.5","53.5","696.1","0"],
    [40122,"2014-12-03T13:00:00","77","ND","ND","ND","ND","ND","0.7","18.4","30.8","49.5","655.9","0"],
    [40123,"2014-12-03T14:00:00","84","ND","ND","ND","ND","ND","0.8","354","31","48.1","356.6","0"],
    [40124,"2014-12-03T15:00:00","35","ND","ND","ND","ND","ND","2.9","275","30.7","47.3","423","0"],
    [40125,"2014-12-03T16:00:00","41","ND","ND","ND","ND","ND","3.7","268","30","48.3","273.9","0"],
    [40126,"2014-12-03T17:00:00","20","ND","ND","ND","ND","ND","3.4","275.9","29.2","48.8","101.5","0"],
    [40127,"2014-12-03T18:00:00","30","ND","ND","ND","ND","ND","3.7","273.7","28.2","51.1","16.6","0"],
    [40128,"2014-12-03T19:00:00","55","ND","ND","ND","ND","ND","0.8","109.3","28","51.5","0","0"],
    [40129,"2014-12-03T20:00:00","29","ND","ND","ND","ND","ND","1.4","106.1","27.7","53.2","0","0"],
    [40130,"2014-12-03T21:00:00","53","ND","ND","ND","ND","ND","1.4","132.6","26.8","58.1","0","0"],
    [40131,"2014-12-03T22:00:00","30","ND","ND","ND","ND","ND","0.8","19.6","25.3","65.1","0","0"],
    [40132,"2014-12-03T23:00:00","38","ND","ND","ND","ND","ND","0.2","70.1","24.9","66.8","0","0"],
    [40133,"2014-12-04T00:00:00","27","ND","ND","ND","ND","ND","0.3","60.7","25.1","65.6","0","0"],
    [40134,"2014-12-04T01:00:00","107","ND","ND","ND","ND","ND","0.5","120.6","23.9","72.5","0","0"],
    [40135,"2014-12-04T02:00:00","32","ND","ND","ND","ND","ND","1","214.5","23.6","74.6","0","0"],
    [40136,"2014-12-04T03:00:00","41","ND","ND","ND","ND","ND","0.9","217","23.6","75.5","0","0"],
    [40137,"2014-12-04T04:00:00","46","ND","ND","ND","ND","ND","0.5","155.6","23.5","76.4","0","0"],
    [40138,"2014-12-04T05:00:00","48","ND","ND","ND","ND","ND","0.2","56.4","23.2","77.7","0","0"],
    [40139,"2014-12-04T06:00:00","72","ND","ND","ND","ND","ND","0.5","38.5","22.7","80.3","0","0"],
    [40140,"2014-12-04T07:00:00","77","ND","ND","ND","ND","ND","0.4","72.1","23.1","78.6","42.6","0"],
    [40141,"2014-12-04T08:00:00","80","ND","ND","ND","ND","ND","0.3","161.3","23.8","75.4","107.3","0"],
    [40142,"2014-12-04T09:00:00","122","ND","ND","ND","ND","ND","0.5","60.8","25.3","70.3","287.5","0"],
    [40143,"2014-12-04T10:00:00","80","ND","ND","ND","ND","ND","1.4","120.4","26","67","465","0"],
    [40144,"2014-12-04T11:00:00","65","ND","ND","ND","ND","ND","0.7","117.9","27.4","60.5","498.3","0"],
    [40145,"2014-12-04T12:00:00","67","ND","ND","ND","ND","ND","0.7","89.5","28.8","54","617.2","0"],
    [40146,"2014-12-04T13:00:00","58","ND","ND","ND","ND","ND","0.8","35.6","30","50.1","462","0"],
    [40147,"2014-12-04T14:00:00","55","ND","ND","ND","ND","ND","1.7","356.1","30","48.2","387.1","0"],
    [40148,"2014-12-04T15:00:00","27","ND","ND","ND","ND","ND","0.9","261.4","30.1","47.4","234.5","0"],
    [40149,"2014-12-04T16:00:00","27","ND","ND","ND","ND","ND","2.9","268.3","29.9","47.9","366.6","0"],
    [40150,"2014-12-04T17:00:00","27","ND","ND","ND","ND","ND","2","276.9","29.6","46.8","197.5","0"],
    [40151,"2014-12-04T18:00:00","27","ND","ND","ND","ND","ND","2.9","277.6","28","50.6","19.9","0"],
    [40152,"2014-12-04T19:00:00","22","ND","ND","ND","ND","ND","0.5","148.4","27.6","51.8","0","0"],
    [40153,"2014-12-04T20:00:00","61","ND","ND","ND","ND","ND","2","171.1","26.8","57.7","0","0"],
    [40154,"2014-12-04T21:00:00","34","ND","ND","ND","ND","ND","2.2","186.3","25.5","65.9","0","0"],
    [40155,"2014-12-04T22:00:00","17","ND","ND","ND","ND","ND","2.1","173","23.6","78.2","0","1.02"],
    [40156,"2014-12-04T23:00:00","12","ND","ND","ND","ND","ND","0.2","27.1","22.7","85.2","0","0"],
    [40157,"2014-12-05T00:00:00","36","ND","ND","ND","ND","ND","1","351.9","21.6","91.5","0","1.02"],
    [40158,"2014-12-05T01:00:00","18","ND","ND","ND","ND","ND","0.4","319.4","21.4","93.2","0","0.25"],
    [40159,"2014-12-05T02:00:00","18","ND","ND","ND","ND","ND","0.4","240.3","21.7","89.2","0","0"],
    [40160,"2014-12-05T03:00:00","33","ND","ND","ND","ND","ND","0.4","39.3","21.7","90","0","0"],
    [40161,"2014-12-05T04:00:00","45","ND","ND","ND","ND","ND","0.9","354.2","21.4","93.2","0","0.25"],
    [40162,"2014-12-05T05:00:00","51","ND","ND","ND","ND","ND","0.2","104.7","21.3","93.8","0","0"],
    [40163,"2014-12-05T06:00:00","62","ND","ND","ND","ND","ND","0.4","317.3","21.4","93.2","0","0"],
    [40164,"2014-12-05T07:00:00","56","ND","ND","ND","ND","ND","0.7","194.4","21.9","90.6","70.9","0"],
    [40165,"2014-12-05T08:00:00","24","ND","ND","ND","ND","ND","0.8","140.5","23.8","73.7","191.4","0"],
    [40166,"2014-12-05T09:00:00","31","ND","ND","ND","ND","ND","0.5","143.1","24.2","71.6","141","0"],
    [40167,"2014-12-05T10:00:00","45","ND","ND","ND","ND","ND","0.6","127.5","24.9","72","293.5","0"],
    [40168,"2014-12-05T11:00:00","59","ND","ND","ND","ND","ND","0.6","48.9","26","68.6","473.6","0"],
    [40169,"2014-12-05T12:00:00","50","ND","ND","ND","ND","ND","0.4","320.2","27.5","60.8","665.4","0"],
    [40170,"2014-12-05T13:00:00","34","ND","ND","ND","ND","ND","0.3","166.5","28.8","53.5","407.4","0"],
    [40171,"2014-12-05T14:00:00","19","ND","ND","ND","ND","ND","ND","ND","ND","ND","ND","ND"],
    [40172,"2014-12-05T15:00:00","36","ND","ND","ND","ND","ND","1.3","57.3","25.8","67.8","100.9","0"],
    [40173,"2014-12-05T16:00:00","29","ND","ND","ND","ND","ND","0.9","62.5","24.1","79.2","69.6","0"],
    [40174,"2014-12-05T17:00:00","33","ND","ND","ND","ND","ND","1.5","144.6","24.6","77.7","48.1","0"],
    [40175,"2014-12-05T18:00:00","44","ND","ND","ND","ND","ND","2.9","162.9","23.5","79.1","19.7","0"],
    [40176,"2014-12-05T19:00:00","42","ND","ND","ND","ND","ND","1.9","166.7","22.9","74.7","0","0"],
    [40177,"2014-12-05T20:00:00","32","ND","ND","ND","ND","ND","1.5","193","22.6","76.9","0","0"],
    [40178,"2014-12-05T21:00:00","50","ND","ND","ND","ND","ND","0.3","300.5","22.8","75.5","0","0"],
    [40179,"2014-12-05T22:00:00","54","ND","ND","ND","ND","ND","0.5","40.2","22.7","77.4","0","0"],
    [40180,"2014-12-05T23:00:00","57","ND","ND","ND","ND","ND","0.7","83.5","22.2","82","0","0"],
    [40181,"2014-12-06T00:00:00","31","ND","ND","ND","ND","ND","0.4","177.3","21.4","87.1","0","0"],
    [40182,"2014-12-06T01:00:00","37","ND","ND","ND","ND","ND","1.1","196.2","21.4","85.7","0","0"],
    [40183,"2014-12-06T02:00:00","45","ND","ND","ND","ND","ND","0.4","292.6","21.1","86","0","0"],
    [40184,"2014-12-06T03:00:00","42","ND","ND","ND","ND","ND","0.3","272.2","21.3","84.6","0","0"],
    [40185,"2014-12-06T04:00:00","47","ND","ND","ND","ND","ND","0.2","183.4","20.9","86.4","0","0"],
    [40186,"2014-12-06T05:00:00","42","ND","ND","ND","ND","ND","0.2","114.8","20.9","86.7","0","0"],
    [40187,"2014-12-06T06:00:00","69","ND","ND","ND","ND","ND","0.1","184.9","20.4","90.3","0","0"],
    [40188,"2014-12-06T07:00:00","75","ND","ND","ND","ND","ND","0.2","264.5","20.3","90.4","47.7","0"],
    [40189,"2014-12-06T08:00:00","82","ND","ND","ND","ND","ND","0.4","64.2","22.5","81.2","174.5","0"],
    [40190,"2014-12-06T09:00:00","92","ND","ND","ND","ND","ND","0.9","136.3","24.1","72.5","371.3","0"],
    [40191,"2014-12-06T10:00:00","65","ND","ND","ND","ND","ND","1.4","123.1","25.5","65.2","514.7","0"],
    [40192,"2014-12-06T11:00:00","55","ND","ND","ND","ND","ND","1.4","86.6","26.6","61.6","588.9","0"],
    [40193,"2014-12-06T12:00:00","52","ND","ND","ND","ND","ND","0.6","44.4","26.8","60.8","300.8","0"],
    [40194,"2014-12-06T13:00:00","54","ND","ND","ND","ND","ND","1.4","24.4","28.2","55.8","606","0"],
    [40195,"2014-12-06T14:00:00","41","ND","ND","ND","ND","ND","1.1","32.7","29","53.2","564.6","0"],
    [40196,"2014-12-06T15:00:00","20","ND","ND","ND","ND","ND","2.1","259.8","30.4","45.8","591.3","0"],
    [40197,"2014-12-06T16:00:00","10","ND","ND","ND","ND","ND","3.3","250.1","30.4","44.9","435.3","0"],
    [40198,"2014-12-06T17:00:00","9","ND","ND","ND","ND","ND","2.2","266.7","28.8","48.3","129.7","0"],
    [40199,"2014-12-06T18:00:00","23","ND","ND","ND","ND","ND","0.2","270.1","27.6","52.3","27.5","0"],
    [40200,"2014-12-06T19:00:00","42","ND","ND","ND","ND","ND","0.2","102.7","26.7","55.4","0","0"],
    [40201,"2014-12-06T20:00:00","44","ND","ND","ND","ND","ND","1.1","95.9","25.9","60.6","0","0"],
    [40202,"2014-12-06T21:00:00","66","ND","ND","ND","ND","ND","1.1","108.6","25.1","65.1","0","0"],
    [40203,"2014-12-06T22:00:00","54","ND","ND","ND","ND","ND","1.1","142","24.7","67.5","0","0"],
    [40204,"2014-12-06T23:00:00","37","ND","ND","ND","ND","ND","1.3","141.2","23.5","76","0","0"],
    [40205,"2014-12-07T00:00:00","38","ND","ND","ND","ND","ND","1.4","158.5","23.2","77.7","0","0"],
    [40206,"2014-12-07T01:00:00","37","ND","ND","ND","ND","ND","0.5","158.2","22.9","81.1","0","0"],
    [40207,"2014-12-07T02:00:00","48","ND","ND","ND","ND","ND","0.4","354.7","22.6","82.1","0","0"],
    [40208,"2014-12-07T03:00:00","89","ND","ND","ND","ND","ND","0.7","6.5","21.9","85.8","0","0"],
    [40209,"2014-12-07T04:00:00","69","ND","ND","ND","ND","ND","0.2","10.2","22.1","84.5","0","0"],
    [40210,"2014-12-07T05:00:00","45","ND","ND","ND","ND","ND","0.4","54.1","22.3","82.2","0","0"],
    [40211,"2014-12-07T06:00:00","63","ND","ND","ND","ND","ND","0.6","88.6","22.1","85.6","0","0"],
    [40212,"2014-12-07T07:00:00","46","ND","ND","ND","ND","ND","0.5","170.4","21.9","89.1","36","0"],
    [40213,"2014-12-07T08:00:00","31","ND","ND","ND","ND","ND","1.2","156.4","23.1","79.8","161.5","0"],
    [40214,"2014-12-07T09:00:00","33","ND","ND","ND","ND","ND","2.2","152","24.8","69.5","448.4","0"],
    [40215,"2014-12-07T10:00:00","27","ND","ND","ND","ND","ND","1.1","155.8","25.1","68.4","190.6","0"],
    [40216,"2014-12-07T11:00:00","29","ND","ND","ND","ND","ND","0.5","359.6","24.9","71.5","158.3","0"],
    [40217,"2014-12-07T12:00:00","42","ND","ND","ND","ND","ND","1.1","1.9","25.4","71.2","329.4","0"],
    [40218,"2014-12-07T13:00:00","44","ND","ND","ND","ND","ND","1.2","50.6","27.1","62.9","570.3","0"],
    [40219,"2014-12-07T14:00:00","42","ND","ND","ND","ND","ND","2.3","31.4","26.9","63.1","313.9","0"],
    [40220,"2014-12-07T15:00:00","19","ND","ND","ND","ND","ND","1.2","339.3","27.9","56","361","0"],
    [40221,"2014-12-07T16:00:00","13","ND","ND","ND","ND","ND","0.3","249.3","28.5","53.4","303.7","0"],
    [40222,"2014-12-07T17:00:00","10","ND","ND","ND","ND","ND","0.8","243.5","28.6","51.5","164.7","0"],
    [40223,"2014-12-07T18:00:00","19","ND","ND","ND","ND","ND","0.5","130.4","27.3","54.1","25.3","0"],
    [40224,"2014-12-07T19:00:00","26","ND","ND","ND","ND","ND","0.8","179.7","26.2","56.5","0","0"],
    [40225,"2014-12-07T20:00:00","47","ND","ND","ND","ND","ND","0.4","351.7","25.2","62.4","0","0"],
    [40226,"2014-12-07T21:00:00","56","ND","ND","ND","ND","ND","0.1","332.2","24.5","65.7","0","0"],
    [40227,"2014-12-07T22:00:00","76","ND","ND","ND","ND","ND","0.2","86.3","23.6","70.7","0","0"],
    [40228,"2014-12-07T23:00:00","76","ND","ND","ND","ND","ND","0.1","348.8","23","73.6","0","0"],
    [40229,"2014-12-08T00:00:00","109","ND","ND","ND","ND","ND","0.1","110.8","23.2","73.7","0","0"],
    [40230,"2014-12-08T01:00:00","69","ND","ND","ND","ND","ND","0.3","88","22.9","74.9","0","0"],
    [40231,"2014-12-08T02:00:00","29","ND","ND","ND","ND","ND","0.5","96.3","22.5","76.3","0","0"],
    [40232,"2014-12-08T03:00:00","16","ND","ND","ND","ND","ND","0.2","139","21.9","79.2","0","0"],
    [40233,"2014-12-08T04:00:00","46","ND","ND","ND","ND","ND","0.1","278.1","21.3","82.6","0","0"],
    [40234,"2014-12-08T05:00:00","30","ND","ND","ND","ND","ND","0.6","27.7","21.1","83.8","0","0"],
    [40235,"2014-12-08T06:00:00","43","ND","ND","ND","ND","ND","0.5","36","20.8","85.5","0","0"],
    [40236,"2014-12-08T07:00:00","59","ND","ND","ND","ND","ND","0.1","285.1","21.2","83.4","20","0"],
    [40237,"2014-12-08T08:00:00","59","ND","ND","ND","ND","ND","0.2","48.1","22.7","77.9","135.1","0"],
    [40238,"2014-12-08T09:00:00","73","ND","ND","ND","ND","ND","0.6","82.7","24","72.2","260","0"],
    [40239,"2014-12-08T10:00:00","56","ND","ND","ND","ND","ND","0.9","139.4","25.4","66.1","384.2","0"],
    [40240,"2014-12-08T11:00:00","43","ND","ND","ND","ND","ND","0.7","128.8","27.1","60.2","581.9","0"],
    [40241,"2014-12-08T12:00:00","27","ND","ND","ND","ND","ND","1.4","107.2","28.3","54.9","694.6","0"],
    [40242,"2014-12-08T13:00:00","23","ND","ND","ND","ND","ND","0.9","63.5","29.1","51.9","451.3","0"],
    [40243,"2014-12-08T14:00:00","21","ND","ND","ND","ND","ND","1.4","273.5","30.1","48.1","673.8","0"],
    [40244,"2014-12-08T15:00:00","34","ND","ND","ND","ND","ND","1.4","272.5","31.1","45.7","618.3","0"],
    [40245,"2014-12-08T16:00:00","26","ND","ND","ND","ND","ND","3.4","276.7","30.3","48.3","411.8","0"],
    [40246,"2014-12-08T17:00:00","14","ND","ND","ND","ND","ND","1.6","282","29.8","48","180.7","0"],
    [40247,"2014-12-08T18:00:00","26","ND","ND","ND","ND","ND","1.4","284.4","28.6","50.5","44.9","0"],
    [40248,"2014-12-08T19:00:00","31","ND","ND","ND","ND","ND","0.7","114.6","27.7","52.1","0","0"],
    [40249,"2014-12-08T20:00:00","20","ND","ND","ND","ND","ND","0.4","70.9","27.2","54.1","0","0"],
    [40250,"2014-12-08T21:00:00","45","ND","ND","ND","ND","ND","0.5","114.2","26.8","56.7","0","0"],
    [40251,"2014-12-08T22:00:00","39","ND","ND","ND","ND","ND","1.6","119.6","26","61.3","0","0"],
    [40252,"2014-12-08T23:00:00","32","ND","ND","ND","ND","ND","1","306.2","25.2","65.3","0","0"],
    [40253,"2014-12-09T00:00:00","31","ND","ND","ND","ND","ND","1.3","27.7","24.8","67.2","0","0"],
    [40254,"2014-12-09T01:00:00","24","ND","ND","ND","ND","ND","0.7","31.4","23.3","79.6","0","0"],
    [40255,"2014-12-09T02:00:00","45","ND","ND","ND","ND","ND","0.9","356.7","22.3","87.3","0","0"],
    [40256,"2014-12-09T03:00:00","28","ND","ND","ND","ND","ND","0.3","85.3","22.5","84.5","0","0"],
    [40257,"2014-12-09T04:00:00","27","ND","ND","ND","ND","ND","0.4","60.8","22.1","84.9","0","0"],
    [40258,"2014-12-09T05:00:00","23","ND","ND","ND","ND","ND","0.4","90.2","22.1","84.4","0","0"],
    [40259,"2014-12-09T06:00:00","36","ND","ND","ND","ND","ND","0.3","24.3","21.9","85.4","0","0"],
    [40260,"2014-12-09T07:00:00","69","ND","ND","ND","ND","ND","0.5","40.4","21.8","86.8","11.4","0"],
    [40261,"2014-12-09T08:00:00","65","ND","ND","ND","ND","ND","0.8","44.3","22.8","80.5","130.7","0"],
    [40262,"2014-12-09T09:00:00","48","ND","ND","ND","ND","ND","0.4","98.6","24.1","75.7","367.4","0"],
    [40263,"2014-12-09T10:00:00","47","ND","ND","ND","ND","ND","1.8","140.8","25.4","68.2","223.8","0"],
    [40264,"2014-12-09T11:00:00","22","ND","ND","ND","ND","ND","2.4","195.8","24.1","75.3","120.6","2.54"],
    [40265,"2014-12-09T12:00:00","13","ND","ND","ND","ND","ND","1.4","195.5","21.9","92.6","207.7","20.07"],
    [40266,"2014-12-09T13:00:00","15","ND","ND","ND","ND","ND","2.2","158.5","24.7","76.4","590.7","0"],
    [40267,"2014-12-09T14:00:00","15","ND","ND","ND","ND","ND","1.7","165.2","25.6","69.8","279.2","0"],
    [40268,"2014-12-09T15:00:00","20","ND","ND","ND","ND","ND","1.5","319.4","23.3","81.2","34.8","13.72"],
    [40269,"2014-12-09T16:00:00","25","ND","ND","ND","ND","ND","1.1","353.3","21","93.3","30.6","11.18"],
    [40270,"2014-12-09T17:00:00","27","ND","ND","ND","ND","ND","1.5","48.8","20.9","94.9","74.6","0.76"],
    [40271,"2014-12-09T18:00:00","9","ND","ND","ND","ND","ND","0.6","59.1","20.6","94.2","21.8","0"],
    [40272,"2014-12-09T19:00:00","26","ND","ND","ND","ND","ND","0.1","14.6","20.9","91.8","0","0"],
    [40273,"2014-12-09T20:00:00","34","ND","ND","ND","ND","ND","0.2","262.4","20.9","92.7","0","0"],
    [40274,"2014-12-09T21:00:00","37","ND","ND","ND","ND","ND","0.3","243.6","20.8","93","0","0"],
    [40275,"2014-12-09T22:00:00","46","ND","ND","ND","ND","ND","0.5","239.8","20.8","93.1","0","0"],
    [40276,"2014-12-09T23:00:00","61","ND","ND","ND","ND","ND","0.2","47.2","20.9","92.4","0","0"],
    [40277,"2014-12-10T00:00:00","52","ND","ND","ND","ND","ND","0.4","23.5","20.5","94.1","0","0"],
    [40278,"2014-12-10T01:00:00","39","ND","ND","ND","ND","ND","0","241.5","20.6","94.2","0","0"],
    [40279,"2014-12-10T02:00:00","72","ND","ND","ND","ND","ND","0.4","250","20.5","93.5","0","0"],
    [40280,"2014-12-10T03:00:00","63","ND","ND","ND","ND","ND","0.2","7.1","20.5","92.6","0","0"],
    [40281,"2014-12-10T04:00:00","83","ND","ND","ND","ND","ND","0.6","44.4","20.1","94.1","0","0"],
    [40282,"2014-12-10T05:00:00","52","ND","ND","ND","ND","ND","0.2","43.6","20.1","94.7","0","0"],
    [40283,"2014-12-10T06:00:00","61","ND","ND","ND","ND","ND","0.2","180.5","20.3","94.5","0","0"],
    [40284,"2014-12-10T07:00:00","89","ND","ND","ND","ND","ND","0.4","39.4","20.4","94.2","29.2","0"],
    [40285,"2014-12-10T08:00:00","73","ND","ND","ND","ND","ND","0.7","38.5","21","90.7","121","0"],
    [40286,"2014-12-10T09:00:00","109","ND","ND","ND","ND","ND","1.1","49.2","21.7","86.1","178.3","0"],
    [40287,"2014-12-10T10:00:00","41","ND","ND","ND","ND","ND","0.8","56.3","22.9","77.9","351.3","0"],
    [40288,"2014-12-10T11:00:00","51","ND","ND","ND","ND","ND","0.9","110.6","24.6","68.9","570.5","0"],
    [40289,"2014-12-10T12:00:00","56","ND","ND","ND","ND","ND","0.9","144.2","26","63.4","468","0"],
    [40290,"2014-12-10T13:00:00","59","ND","ND","ND","ND","ND","0.8","101.5","27.3","58","642","0"],
    [40291,"2014-12-10T14:00:00","69","ND","ND","ND","ND","ND","0.5","280.4","27.6","57.5","426.7","0"],
    [40292,"2014-12-10T15:00:00","21","ND","ND","ND","ND","ND","2.5","242.4","28.6","52.2","590.6","0"],
    [40293,"2014-12-10T16:00:00","6","ND","ND","ND","ND","ND","2","235.6","29.1","49","449.9","0"],
    [40294,"2014-12-10T17:00:00","9","ND","ND","ND","ND","ND","2.6","265.7","27.1","54.7","81.5","0"],
    [40295,"2014-12-10T18:00:00","19","ND","ND","ND","ND","ND","2","256.9","26.1","58.2","19.2","0"],
    [40296,"2014-12-10T19:00:00","22","ND","ND","ND","ND","ND","0.6","230.1","25.9","59.1","0","0"],
    [40297,"2014-12-10T20:00:00","65","ND","ND","ND","ND","ND","1.2","58.4","25.3","64.1","0","0"],
    [40298,"2014-12-10T21:00:00","34","ND","ND","ND","ND","ND","1.8","350.6","22.1","82.1","0","19.81"],
    [40299,"2014-12-10T22:00:00","16","ND","ND","ND","ND","ND","1.8","297.4","20.1","91.3","0","8.89"],
    [40300,"2014-12-10T23:00:00","22","ND","ND","ND","ND","ND","0.6","93.3","20.5","90.4","0","1.02"],
    [40301,"2014-12-11T00:00:00","21","ND","ND","ND","ND","ND","0.4","52.9","20","89.6","0","0"],
    [40302,"2014-12-11T01:00:00","27","ND","ND","ND","ND","ND","0.5","14.1","20","92.1","0","0.25"],
    [40303,"2014-12-11T02:00:00","38","ND","ND","ND","ND","ND","0.6","344.4","20.3","91.8","0","0"],
    [40304,"2014-12-11T03:00:00","12","ND","ND","ND","ND","ND","1.3","36.1","19.7","94.2","0","0"],
    [40305,"2014-12-11T04:00:00","80","ND","ND","ND","ND","ND","0.3","44.8","19.7","95.2","0","0"],
    [40306,"2014-12-11T05:00:00","57","ND","ND","ND","ND","ND","0.1","191.4","20","95.1","0","0"],
    [40307,"2014-12-11T06:00:00","32","ND","ND","ND","ND","ND","0.4","50.1","19.9","94.8","0","0"],
    [40308,"2014-12-11T07:00:00","31","ND","ND","ND","ND","ND","0.7","50.3","19.9","95.1","9.1","0"],
    [40309,"2014-12-11T08:00:00","19","ND","ND","ND","ND","ND","1.3","46.1","19.8","96.5","44.1","0.51"],
    [40310,"2014-12-11T09:00:00","13","ND","ND","ND","ND","ND","1.1","50","20.3","95.6","144.2","0.25"],
    [40311,"2014-12-11T10:00:00","26","ND","ND","ND","ND","ND","0.4","7.4","21.4","87.9","185.6","0"],
    [40312,"2014-12-11T11:00:00","26","ND","ND","ND","ND","ND","0.6","36.4","22.7","79.2","238.9","0"],
    [40313,"2014-12-11T12:00:00","22","ND","ND","ND","ND","ND","1","39.8","23.7","75.1","362","0"],
    [40314,"2014-12-11T13:00:00","35","ND","ND","ND","ND","ND","0.9","1","24.8","70.3","400.9","0"],
    [40315,"2014-12-11T14:00:00","26","ND","ND","ND","ND","ND","0.7","11.4","25.5","65.3","309.2","0"],
    [40316,"2014-12-11T15:00:00","45","ND","ND","ND","ND","ND","1","15.7","25.7","64.5","242.3","0"],
    [40317,"2014-12-11T16:00:00","39","ND","ND","ND","ND","ND","0.3","342.9","26.3","63.5","258.3","0"],
    [40318,"2014-12-11T17:00:00","54","ND","ND","ND","ND","ND","0.7","293.7","26.3","62.1","135.4","0"],
    [40319,"2014-12-11T18:00:00","66","ND","ND","ND","ND","ND","0.8","297.2","25.6","66","19","0"],
    [40320,"2014-12-11T19:00:00","74","ND","ND","ND","ND","ND","0.8","322.7","24.7","70.8","0","0"],
    [40321,"2014-12-11T20:00:00","71","ND","ND","ND","ND","ND","0.5","260.8","23.9","73.2","0","0"],
    [40322,"2014-12-11T21:00:00","53","ND","ND","ND","ND","ND","0.2","263.7","23.3","74.7","0","0"],
    [40323,"2014-12-11T22:00:00","58","ND","ND","ND","ND","ND","0.1","68.1","23.2","77.2","0","0"],
    [40324,"2014-12-11T23:00:00","73","ND","ND","ND","ND","ND","0.6","231","22.5","81.9","0","0"],
    [40325,"2014-12-12T00:00:00","59","ND","ND","ND","ND","ND","0","264.7","21.9","84","0","0"],
    [40326,"2014-12-12T01:00:00","43","ND","ND","ND","ND","ND","0.2","258.4","21.7","84.9","0","0"],
    [40327,"2014-12-12T02:00:00","69","ND","ND","ND","ND","ND","0.4","2.1","21.8","85.5","0","0"],
    [40328,"2014-12-12T03:00:00","45","ND","ND","ND","ND","ND","0.2","320.5","21.5","87.8","0","0"],
    [40329,"2014-12-12T04:00:00","152","ND","ND","ND","ND","ND","0.1","348.1","21.6","87.9","0","0"],
    [40330,"2014-12-12T05:00:00","79","ND","ND","ND","ND","ND","0.1","282.7","21.6","87.4","0","0"],
    [40331,"2014-12-12T06:00:00","73","ND","ND","ND","ND","ND","0.4","164.5","21.6","87.6","0","0"],
    [40332,"2014-12-12T07:00:00","33","ND","ND","ND","ND","ND","0.3","112","21.1","92.9","7.9","7.87"],
    [40333,"2014-12-12T08:00:00","59","ND","ND","ND","ND","ND","0.3","147.9","21.1","95.9","85.3","1.02"],
    [40334,"2014-12-12T09:00:00","53","ND","ND","ND","ND","ND","0.1","144.3","22.2","91.1","202.8","0.25"],
    [40335,"2014-12-12T10:00:00","55","ND","ND","ND","ND","ND","0.5","216","23.7","81.7","316.9","0"],
    [40336,"2014-12-12T11:00:00","38","ND","ND","ND","ND","ND","1.2","152.6","26.2","66.6","670.7","0"],
    [40337,"2014-12-12T12:00:00","44","ND","ND","ND","ND","ND","1.2","142.4","27.3","62.3","654.2","0"],
    [40338,"2014-12-12T13:00:00","37","ND","ND","ND","ND","ND","0.2","31.1","28.3","57.9","517.7","0"],
    [40339,"2014-12-12T14:00:00","51","ND","ND","ND","ND","ND","0.7","37.2","29.2","55.3","608.2","0"],
    [40340,"2014-12-12T15:00:00","60","ND","ND","ND","ND","ND","0.6","29.1","29.6","52.8","378.9","0"],
    [40341,"2014-12-12T16:00:00","23","ND","ND","ND","ND","ND","1.4","315.3","29.6","50.1","339","0"],
    [40342,"2014-12-12T17:00:00","21","ND","ND","ND","ND","ND","1.7","283.3","28.9","51.5","188.7","0"],
    [40343,"2014-12-12T18:00:00","67","ND","ND","ND","ND","ND","0.5","353.5","27.4","55.7","30.8","0"],
    [40344,"2014-12-12T19:00:00","37","ND","ND","ND","ND","ND","1.4","143.4","26.1","63.2","0","0"],
    [40345,"2014-12-12T20:00:00","56","ND","ND","ND","ND","ND","2.2","165.1","25.3","67.2","0","0"],
    [40346,"2014-12-12T21:00:00","35","ND","ND","ND","ND","ND","3","169.1","24.1","70.5","0","0"],
    [40347,"2014-12-12T22:00:00","36","ND","ND","ND","ND","ND","0.2","244","23.9","72.5","0","0"],
    [40348,"2014-12-12T23:00:00","84","ND","ND","ND","ND","ND","0.5","54.2","23.1","78.6","0","0"],
    [40349,"2014-12-13T00:00:00","72","ND","ND","ND","ND","ND","0.8","28","21.9","85.6","0","0"],
    [40350,"2014-12-13T01:00:00","37","ND","ND","ND","ND","ND","0.9","54","21.1","90.3","0","3.81"],
    [40351,"2014-12-13T02:00:00","12","ND","ND","ND","ND","ND","2.4","160.8","20.4","93.9","0","3.3"],
    [40352,"2014-12-13T03:00:00","7","ND","ND","ND","ND","ND","2.3","163.5","19.8","94.3","0","2.29"],
    [40353,"2014-12-13T04:00:00","5","ND","ND","ND","ND","ND","0.5","86.2","19.4","95.5","0","3.3"],
    [40354,"2014-12-13T05:00:00","7","ND","ND","ND","ND","ND","0.3","357.6","19.4","95.8","0","0.76"],
    [40355,"2014-12-13T06:00:00","17","ND","ND","ND","ND","ND","0.2","297.5","19.5","96.1","0","0"],
    [40356,"2014-12-13T07:00:00","26","ND","ND","ND","ND","ND","0.2","106.6","19.8","95.2","20.4","0.25"],
    [40357,"2014-12-13T08:00:00","46","ND","ND","ND","ND","ND","0.3","108.7","20.7","92.3","144","0"],
    [40358,"2014-12-13T09:00:00","49","ND","ND","ND","ND","ND","0.6","185.1","21.3","86.9","152.7","0"],
    [40359,"2014-12-13T10:00:00","44","ND","ND","ND","ND","ND","0.2","105.9","23.3","74.5","427.4","0"],
    [40360,"2014-12-13T11:00:00","40","ND","ND","ND","ND","ND","0.7","94.2","25.3","64","636","0"],
    [40361,"2014-12-13T12:00:00","29","ND","ND","ND","ND","ND","1.3","51.7","26.3","60.4","770.8","0"],
    [40362,"2014-12-13T13:00:00","27","ND","ND","ND","ND","ND","1.7","32.3","27.2","58.5","722.2","0"],
    [40363,"2014-12-13T14:00:00","18","ND","ND","ND","ND","ND","1.2","57.2","28","53.3","413.1","0"],
    [40364,"2014-12-13T15:00:00","12","ND","ND","ND","ND","ND","2.4","240.6","26.8","54.3","129.9","0"],
    [40365,"2014-12-13T16:00:00","ND","ND","ND","ND","ND","ND","3.5","268.8","25.9","54.1","70","0"],
    [40366,"2014-12-13T17:00:00","15","ND","ND","ND","ND","ND","2.5","259.6","24.5","56.5","46.3","0"],
    [40367,"2014-12-13T18:00:00","29","ND","ND","ND","ND","ND","1.9","132.9","22.5","80.4","16.3","0.25"],
    [40368,"2014-12-13T19:00:00","14","ND","ND","ND","ND","ND","0.5","65.8","21.1","89.5","0","0.51"],
    [40369,"2014-12-13T20:00:00","13","ND","ND","ND","ND","ND","0.5","152.2","20.9","90.4","0","3.56"],
    [40370,"2014-12-13T21:00:00","14","ND","ND","ND","ND","ND","0.6","212.7","20.7","92","0","0.76"],
    [40371,"2014-12-13T22:00:00","9","ND","ND","ND","ND","ND","0.2","246.5","20.7","91.6","0","0"],
    [40372,"2014-12-13T23:00:00","22","ND","ND","ND","ND","ND","0.3","44.3","20.6","91.8","0","0.25"],
    [40373,"2014-12-14T00:00:00","62","ND","ND","ND","ND","ND","0.9","117.5","20.5","93.8","0","0"],
    [40374,"2014-12-14T01:00:00","24","ND","ND","ND","ND","ND","0.4","82.3","20.2","93.2","0","0"],
    [40375,"2014-12-14T02:00:00","13","ND","ND","ND","ND","ND","0.1","233.5","20.1","93.3","0","0"],
    [40376,"2014-12-14T03:00:00","25","ND","ND","ND","ND","ND","0.2","113","20.2","93","0","0"],
    [40377,"2014-12-14T04:00:00","13","ND","ND","ND","ND","ND","0.5","146.6","20.1","91.6","0","0"],
    [40378,"2014-12-14T05:00:00","39","ND","ND","ND","ND","ND","0.7","14.3","20","94.1","0","0"],
    [40379,"2014-12-14T06:00:00","23","ND","ND","ND","ND","ND","0.8","44.9","19.7","95.8","0","0"],
    [40380,"2014-12-14T07:00:00","22","ND","ND","ND","ND","ND","0.7","54","19.8","96.6","0","0.25"],
    [40381,"2014-12-14T08:00:00","30","ND","ND","ND","ND","ND","0.3","51.9","19.9","96.3","19.3","0"],
    [40382,"2014-12-14T09:00:00","35","ND","ND","ND","ND","ND","0.1","123.8","20.9","91.7","180.3","0"],
    [40383,"2014-12-14T10:00:00","36","ND","ND","ND","ND","ND","0.2","20.3","22.1","83","195.7","0"],
    [40384,"2014-12-14T11:00:00","33","ND","ND","ND","ND","ND","0.3","233.8","23.8","74.1","565.8","0"],
    [40385,"2014-12-14T12:00:00","41","ND","ND","ND","ND","ND","0.5","99.4","25.8","63.4","589.9","0"],
    [40386,"2014-12-14T13:00:00","24","ND","ND","ND","ND","ND","1.1","79.1","26.6","59.4","593.4","0"],
    [40387,"2014-12-14T14:00:00","26","ND","ND","ND","ND","ND","0.8","96.2","27.6","55.6","654","0"],
    [40388,"2014-12-14T15:00:00","23","ND","ND","ND","ND","ND","1","23.6","27.7","55.4","364.2","0"],
    [40389,"2014-12-14T16:00:00","26","ND","ND","ND","ND","ND","1.4","311.3","27.4","57","220.1","0"],
    [40390,"2014-12-14T17:00:00","27","ND","ND","ND","ND","ND","0.7","259.6","26.8","57.9","67.3","0"],
    [40391,"2014-12-14T18:00:00","9","ND","ND","ND","ND","ND","0.8","274.8","26","58.4","16.3","0"],
    [40392,"2014-12-14T19:00:00","43","ND","ND","ND","ND","ND","0.7","158","25.8","60.3","0","0"],
    [40393,"2014-12-14T20:00:00","24","ND","ND","ND","ND","ND","0.2","334","25","61.6","0","0"],
    [40394,"2014-12-14T21:00:00","45","ND","ND","ND","ND","ND","0.6","104","24.4","64.7","0","0"],
    [40395,"2014-12-14T22:00:00","55","ND","ND","ND","ND","ND","0.5","153.9","23.3","72.5","0","0"],
    [40396,"2014-12-14T23:00:00","34","ND","ND","ND","ND","ND","0.3","91.8","22.2","75.8","0","0"],
    [40397,"2014-12-15T00:00:00","50","ND","ND","ND","ND","ND","0.2","43.6","21.5","80","0","0"],
    [40398,"2014-12-15T01:00:00","70","ND","ND","ND","ND","ND","0.4","14.7","20.8","83.3","0","0"],
    [40399,"2014-12-15T02:00:00","46","ND","ND","ND","ND","ND","0.2","220.4","20.6","85.1","0","0"],
    [40400,"2014-12-15T03:00:00","37","ND","ND","ND","ND","ND","0.2","253.5","20.2","87.8","0","0"],
    [40401,"2014-12-15T04:00:00","45","ND","ND","ND","ND","ND","0","102.6","20.3","87.6","0","0"],
    [40402,"2014-12-15T05:00:00","40","ND","ND","ND","ND","ND","0","145.9","20","87.9","0","0"],
    [40403,"2014-12-15T06:00:00","50","ND","ND","ND","ND","ND","0.1","270.1","19.7","89.3","0","0"],
    [40404,"2014-12-15T07:00:00","70","ND","ND","ND","ND","ND","0.1","231.1","19.7","90.3","21.4","0"],
    [40405,"2014-12-15T08:00:00","70","ND","ND","ND","ND","ND","0.2","141.9","21.4","81.6","180.1","0"],
    [40406,"2014-12-15T09:00:00","73","ND","ND","ND","ND","ND","0.8","168.8","23.9","67.6","384.9","0"],
    [40407,"2014-12-15T10:00:00","69","ND","ND","ND","ND","ND","1.3","143.8","25.4","62.3","543.9","0"],
    [40408,"2014-12-15T11:00:00","58","ND","ND","ND","ND","ND","1.1","140.8","26.6","57.9","679.6","0"],
    [40409,"2014-12-15T12:00:00","56","ND","ND","ND","ND","ND","0.9","84.1","28","53.3","724.9","0"],
    [40410,"2014-12-15T13:00:00","67","ND","ND","ND","ND","ND","1.5","18","28.3","51.8","615.3","0"],
    [40411,"2014-12-15T14:00:00","63","ND","ND","ND","ND","ND","1.4","47.7","29.3","49.8","612.2","0"],
    [40412,"2014-12-15T15:00:00","48","ND","ND","ND","ND","ND","1.4","57.4","29.3","49.7","366.9","0"],
    [40413,"2014-12-15T16:00:00","30","ND","ND","ND","ND","ND","1.7","283.6","29.7","48.4","359.4","0"],
    [40414,"2014-12-15T17:00:00","18","ND","ND","ND","ND","ND","2.3","266.4","29.2","48.1","221.9","0"],
    [40415,"2014-12-15T18:00:00","30","ND","ND","ND","ND","ND","0.7","275.1","27.8","51.5","26.6","0"],
    [40416,"2014-12-15T19:00:00","69","ND","ND","ND","ND","ND","0.2","239.2","26.6","55.8","0","0"],
    [40417,"2014-12-15T20:00:00","62","ND","ND","ND","ND","ND","0.2","200.6","25.7","58.8","0","0"],
    [40418,"2014-12-15T21:00:00","71","ND","ND","ND","ND","ND","0.4","138","24.9","63","0","0"],
    [40419,"2014-12-15T22:00:00","85","ND","ND","ND","ND","ND","0.4","188.3","23.9","68.3","0","0"],
    [40420,"2014-12-15T23:00:00","70","ND","ND","ND","ND","ND","0.2","265.2","22.7","72.8","0","0"],
    [40421,"2014-12-16T00:00:00","85","ND","ND","ND","ND","ND","0.3","270.6","22.4","75.8","0","0"],
    [40422,"2014-12-16T01:00:00","100","ND","ND","ND","ND","ND","0.8","345.8","22.4","76.6","0","0"],
    [40423,"2014-12-16T02:00:00","83","ND","ND","ND","ND","ND","0.7","37","21.9","79.6","0","0"],
    [40424,"2014-12-16T03:00:00","69","ND","ND","ND","ND","ND","0.1","184.4","21.9","80.7","0","0"],
    [40425,"2014-12-16T04:00:00","69","ND","ND","ND","ND","ND","0.1","353","21.7","81.1","0","0"],
    [40426,"2014-12-16T05:00:00","62","ND","ND","ND","ND","ND","0.1","269.1","21.4","83.8","0","0"],
    [40427,"2014-12-16T06:00:00","81","ND","ND","ND","ND","ND","0.2","285.2","20.9","84.4","0","0"],
    [40428,"2014-12-16T07:00:00","101","ND","ND","ND","ND","ND","0.1","245.7","20.9","84.6","30.8","0"],
    [40429,"2014-12-16T08:00:00","206","ND","ND","ND","ND","ND","0.3","327.4","22.4","79.4","103.3","0"],
    [40430,"2014-12-16T09:00:00","122","ND","ND","ND","ND","ND","0.1","16.7","23.7","73.6","278.1","0"],
    [40431,"2014-12-16T10:00:00","116","ND","ND","ND","ND","ND","0.6","92.7","25.4","66.6","408.9","0"],
    [40432,"2014-12-16T11:00:00","61","ND","ND","ND","ND","ND","1","101.7","26.5","63","500.6","0"],
    [40433,"2014-12-16T12:00:00","60","ND","ND","ND","ND","ND","0.5","172.9","27.7","56.8","492.8","0"],
    [40434,"2014-12-16T13:00:00","68","ND","ND","ND","ND","ND","0.8","76.2","28.2","55.4","432.2","0"],
    [40435,"2014-12-16T14:00:00","71","ND","ND","ND","ND","ND","0.6","66.3","28.7","53.7","433.2","0"],
    [40436,"2014-12-16T15:00:00","72","ND","ND","ND","ND","ND","0.8","14.5","29","53.8","329.5","0"],
    [40437,"2014-12-16T16:00:00","69","ND","ND","ND","ND","ND","1.5","3.9","29","53.5","312.4","0"],
    [40438,"2014-12-16T17:00:00","32","ND","ND","ND","ND","ND","0.6","282.1","29.3","50.4","223.5","0"],
    [40439,"2014-12-16T18:00:00","20","ND","ND","ND","ND","ND","1.9","254.5","27.6","54.1","28.8","0"],
    [40440,"2014-12-16T19:00:00","64","ND","ND","ND","ND","ND","0.6","214.6","26.8","56.7","0","0"],
    [40441,"2014-12-16T20:00:00","60","ND","ND","ND","ND","ND","0.6","256.3","25.9","60.6","0","0"],
    [40442,"2014-12-16T21:00:00","75","ND","ND","ND","ND","ND","0.1","82.7","25.4","63.1","0","0"],
    [40443,"2014-12-16T22:00:00","95","ND","ND","ND","ND","ND","0.2","263.6","24.5","69.2","0","0"],
    [40444,"2014-12-16T23:00:00","64","ND","ND","ND","ND","ND","0.6","76.8","24","72.2","0","0"],
    [40445,"2014-12-17T00:00:00","42","ND","ND","ND","ND","ND","0.2","263.6","23.8","73.6","0","0.51"],
    [40446,"2014-12-17T01:00:00","21","ND","ND","ND","ND","ND","2.8","232.7","21.3","89.9","0","17.53"],
    [40447,"2014-12-17T02:00:00","20","ND","ND","ND","ND","ND","0.6","294.7","21.9","86.1","0","0"],
    [40448,"2014-12-17T03:00:00","48","ND","ND","ND","ND","ND","0.4","348.7","21.5","89","0","0"],
    [40449,"2014-12-17T04:00:00","33","ND","ND","ND","ND","ND","0.7","249.1","21.3","91.5","0","0.25"],
    [40450,"2014-12-17T05:00:00","28","ND","ND","ND","ND","ND","0.2","241.6","21","90.9","0","0"],
    [40451,"2014-12-17T06:00:00","33","ND","ND","ND","ND","ND","0.3","273.4","21","91.1","0","0"],
    [40452,"2014-12-17T07:00:00","48","ND","ND","ND","ND","ND","0","0","21.4","91.9","14","0"],
    [40453,"2014-12-17T08:00:00","66","ND","ND","ND","ND","ND","0.3","194.4","22.2","89.2","72.4","0"],
    [40454,"2014-12-17T09:00:00","78","ND","ND","ND","ND","ND","0.7","132.4","23","83.9","116.9","0"],
    [40455,"2014-12-17T10:00:00","86","ND","ND","ND","ND","ND","0.8","161.2","24.5","76.2","395.2","0"],
    [40456,"2014-12-17T11:00:00","75","ND","ND","ND","ND","ND","1.2","133.5","26.7","64.9","623.3","0"],
    [40457,"2014-12-17T12:00:00","67","ND","ND","ND","ND","ND","0.5","283.4","27","63.3","202.3","0"],
    [40458,"2014-12-17T13:00:00","29","ND","ND","ND","ND","ND","2.1","254.9","26.1","65","226.8","0"],
    [40459,"2014-12-17T14:00:00","21","ND","ND","ND","ND","ND","2","252.8","27.2","57.4","267","0"],
    [40460,"2014-12-17T15:00:00","28","ND","ND","ND","ND","ND","3.8","286.1","27.3","52.1","439.3","0"],
    [40461,"2014-12-17T16:00:00","21","ND","ND","ND","ND","ND","4.1","287.6","27.8","48.6","363.4","0"],
    [40462,"2014-12-17T17:00:00","33","ND","ND","ND","ND","ND","1.2","282.8","27.2","51.8","63.1","0"],
    [40463,"2014-12-17T18:00:00","19","ND","ND","ND","ND","ND","2.1","246.9","25.9","57.6","12.3","0"],
    [40464,"2014-12-17T19:00:00","42","ND","ND","ND","ND","ND","3.2","215.7","24.1","70.9","0","0"],
    [40465,"2014-12-17T20:00:00","32","ND","ND","ND","ND","ND","1.9","178.7","23.8","70.9","0","0"],
    [40466,"2014-12-17T21:00:00","38","ND","ND","ND","ND","ND","1.5","174.5","24","69.4","0","0"],
    [40467,"2014-12-17T22:00:00","30","ND","ND","ND","ND","ND","0.5","16.3","23.3","74.5","0","0"],
    [40468,"2014-12-17T23:00:00","35","ND","ND","ND","ND","ND","0.6","18.4","21.9","85","0","0"],
    [40469,"2014-12-18T00:00:00","95","ND","ND","ND","ND","ND","0.5","26.3","21.6","86.1","0","0"],
    [40470,"2014-12-18T01:00:00","65","ND","ND","ND","ND","ND","0.3","20.6","21.5","86.5","0","0"],
    [40471,"2014-12-18T02:00:00","48","ND","ND","ND","ND","ND","0.3","35.9","21.4","87.6","0","0"],
    [40472,"2014-12-18T03:00:00","49","ND","ND","ND","ND","ND","0.1","209.7","21.5","87.2","0","0"],
    [40473,"2014-12-18T04:00:00","47","ND","ND","ND","ND","ND","0.5","109.1","21.6","86.9","0","0"],
    [40474,"2014-12-18T05:00:00","49","ND","ND","ND","ND","ND","0.3","62.8","21.2","88.8","0","0"],
    [40475,"2014-12-18T06:00:00","50","ND","ND","ND","ND","ND","0.4","113","21","89.4","0","0"],
    [40476,"2014-12-18T07:00:00","48","ND","ND","ND","ND","ND","0.1","103.3","21","89.3","33.9","0"],
    [40477,"2014-12-18T08:00:00","89","ND","ND","ND","ND","ND","0.5","58.5","22.4","83.9","154.5","0"],
    [40478,"2014-12-18T09:00:00","71","ND","ND","ND","ND","ND","1.1","53","23.2","79.7","222.2","0"],
    [40479,"2014-12-18T10:00:00","48","ND","ND","ND","ND","ND","0.8","73.6","24.5","73","439","0"],
    [40480,"2014-12-18T11:00:00","32","ND","ND","ND","ND","ND","0.7","145.8","26.5","61.7","592.2","0"],
    [40481,"2014-12-18T12:00:00","35","ND","ND","ND","ND","ND","0.4","127.5","27.3","57.9","466","0"],
    [40482,"2014-12-18T13:00:00","37","ND","ND","ND","ND","ND","0.8","16.4","27.9","55.6","502.2","0"],
    [40483,"2014-12-18T14:00:00","50","ND","ND","ND","ND","ND","0.9","327.7","29.2","51.1","627.4","0"],
    [40484,"2014-12-18T15:00:00","41","ND","ND","ND","ND","ND","1.9","19.6","29.5","49.9","400.3","0"],
    [40485,"2014-12-18T16:00:00","33","ND","ND","ND","ND","ND","0.2","191.1","29.2","50.8","312.1","0"],
    [40486,"2014-12-18T17:00:00","9","ND","ND","ND","ND","ND","1.6","266","29.6","47","255.6","0"],
    [40487,"2014-12-18T18:00:00","23","ND","ND","ND","ND","ND","0.9","250.1","28.2","51","50.4","0"],
    [40488,"2014-12-18T19:00:00","29","ND","ND","ND","ND","ND","0.5","158.4","26.8","54.1","0","0"],
    [40489,"2014-12-18T20:00:00","57","ND","ND","ND","ND","ND","0.6","135.5","26","57.7","0","0"],
    [40490,"2014-12-18T21:00:00","48","ND","ND","ND","ND","ND","0.4","150.1","25.2","61.7","0","0"],
    [40491,"2014-12-18T22:00:00","43","ND","ND","ND","ND","ND","0.3","106.3","24.2","69.6","0","0"],
    [40492,"2014-12-18T23:00:00","47","ND","ND","ND","ND","ND","0.1","177","23.4","74.6","0","0"],
    [40493,"2014-12-19T00:00:00","48","ND","ND","ND","ND","ND","0.2","22.8","23","76.1","0","0"],
    [40494,"2014-12-19T01:00:00","50","ND","ND","ND","ND","ND","0.1","109.3","22.4","78.8","0","0"],
    [40495,"2014-12-19T02:00:00","45","ND","ND","ND","ND","ND","0.1","306.5","21.7","81.8","0","0"],
    [40496,"2014-12-19T03:00:00","40","ND","ND","ND","ND","ND","0.2","249.6","21.3","84.5","0","0"],
    [40497,"2014-12-19T04:00:00","49","ND","ND","ND","ND","ND","0","3.3","21.1","85.5","0","0"],
    [40498,"2014-12-19T05:00:00","60","ND","ND","ND","ND","ND","0","205.4","21.5","83.9","0","0"],
    [40499,"2014-12-19T06:00:00","54","ND","ND","ND","ND","ND","0.3","189.1","21.6","83.8","0","0"],
    [40500,"2014-12-19T07:00:00","44","ND","ND","ND","ND","ND","0.2","215.3","21.7","81.5","6.4","0"],
    [40501,"2014-12-19T08:00:00","98","ND","ND","ND","ND","ND","0.4","84.5","22","83.5","79.2","0"],
    [40502,"2014-12-19T09:00:00","97","ND","ND","ND","ND","ND","1.2","176.1","23.6","74.9","315.9","0"],
    [40503,"2014-12-19T10:00:00","44","ND","ND","ND","ND","ND","0.3","140.5","25.8","63.5","543.4","0"],
    [40504,"2014-12-19T11:00:00","42","ND","ND","ND","ND","ND","1.5","148","27.9","55.8","679.6","0"],
    [40505,"2014-12-19T12:00:00","56","ND","ND","ND","ND","ND","0.4","71.9","28.5","54.9","348","0"],
    [40506,"2014-12-19T13:00:00","66","ND","ND","ND","ND","ND","0.9","55.3","28.1","57.2","240.6","0"],
    [40507,"2014-12-19T14:00:00","65","ND","ND","ND","ND","ND","1.1","35.1","28.9","54.4","341.1","0"],
    [40508,"2014-12-19T15:00:00","29","ND","ND","ND","ND","ND","1.7","261.7","30","49.2","502.4","0"],
    [40509,"2014-12-19T16:00:00","21","ND","ND","ND","ND","ND","3.1","262.1","29.9","47","416.5","0"],
    [40510,"2014-12-19T17:00:00","22","ND","ND","ND","ND","ND","2.2","270.4","29.2","48.3","196.5","0"],
    [40511,"2014-12-19T18:00:00","32","ND","ND","ND","ND","ND","0.2","270.5","27.7","51","40.1","0"],
    [40512,"2014-12-19T19:00:00","69","ND","ND","ND","ND","ND","0.4","99.4","27.1","53.3","0","0"],
    [40513,"2014-12-19T20:00:00","104","ND","ND","ND","ND","ND","0.7","141.7","26.5","55.3","0","0"],
    [40514,"2014-12-19T21:00:00","51","ND","ND","ND","ND","ND","0.4","79.5","25.4","60.4","0","0"],
    [40515,"2014-12-19T22:00:00","59","ND","ND","ND","ND","ND","0.3","44.5","24.6","64.7","0","0"],
    [40516,"2014-12-19T23:00:00","53","ND","ND","ND","ND","ND","0.4","102.6","23.8","68.5","0","0"],
    [40517,"2014-12-20T00:00:00","42","ND","ND","ND","ND","ND","0.5","158.5","23.1","72.4","0","0"],
    [40518,"2014-12-20T01:00:00","32","ND","ND","ND","ND","ND","0.3","232.7","22.9","73.4","0","0"],
    [40519,"2014-12-20T02:00:00","45","ND","ND","ND","ND","ND","0.7","25.7","22.5","76.8","0","0"],
    [40520,"2014-12-20T03:00:00","42","ND","ND","ND","ND","ND","0.2","259.9","21.6","81.4","0","0"],
    [40521,"2014-12-20T04:00:00","46","ND","ND","ND","ND","ND","0.3","60.3","21.5","81.5","0","0"],
    [40522,"2014-12-20T05:00:00","58","ND","ND","ND","ND","ND","0.4","224.8","21.4","81.9","0","0"],
    [40523,"2014-12-20T06:00:00","69","ND","ND","ND","ND","ND","0.4","39.2","21.3","81.7","0","0"],
    [40524,"2014-12-20T07:00:00","109","ND","ND","ND","ND","ND","0.2","36.9","21.1","83.1","32.1","0"],
    [40525,"2014-12-20T08:00:00","75","ND","ND","ND","ND","ND","0.4","166.6","22.7","75.7","147.4","0"],
    [40526,"2014-12-20T09:00:00","75","ND","ND","ND","ND","ND","0.4","93.9","24.5","67.6","236.5","0"],
    [40527,"2014-12-20T10:00:00","109","ND","ND","ND","ND","ND","1.4","24.2","25.3","68.5","408.1","0"],
    [40528,"2014-12-20T11:00:00","89","ND","ND","ND","ND","ND","0.7","14.8","26.8","63.4","481.8","0"],
    [40529,"2014-12-20T12:00:00","90","ND","ND","ND","ND","ND","0.4","294.4","27.9","58.4","511.6","0"],
    [40530,"2014-12-20T13:00:00","82","ND","ND","ND","ND","ND","0.7","30.9","28.9","53.7","498","0"],
    [40531,"2014-12-20T14:00:00","52","ND","ND","ND","ND","ND","1.8","311.1","28.2","55.8","178.9","0"],
    [40532,"2014-12-20T15:00:00","28","ND","ND","ND","ND","ND","2.1","270.8","28.9","50.2","453.1","0"],
    [40533,"2014-12-20T16:00:00","28","ND","ND","ND","ND","ND","2.2","267.3","29.1","48.7","372","0"],
    [40534,"2014-12-20T17:00:00","25","ND","ND","ND","ND","ND","1.6","255.4","28.5","48.8","160.8","0"],
    [40535,"2014-12-20T18:00:00","34","ND","ND","ND","ND","ND","0.5","240","27.3","51.9","23.8","0"],
    [40536,"2014-12-20T19:00:00","23","ND","ND","ND","ND","ND","0.5","294.4","26.4","55","0","0"],
    [40537,"2014-12-20T20:00:00","63","ND","ND","ND","ND","ND","0.9","183","26","57.6","0","0"],
    [40538,"2014-12-20T21:00:00","35","ND","ND","ND","ND","ND","0.8","203.5","25.3","59.7","0","0"],
    [40539,"2014-12-20T22:00:00","47","ND","ND","ND","ND","ND","0.2","107.2","24.6","65.6","0","0"],
    [40540,"2014-12-20T23:00:00","47","ND","ND","ND","ND","ND","0.8","132.5","24.2","71.7","0","0"],
    [40541,"2014-12-21T00:00:00","56","ND","ND","ND","ND","ND","0.7","305.7","23.6","73.7","0","0"],
    [40542,"2014-12-21T01:00:00","55","ND","ND","ND","ND","ND","0.7","21.9","22.7","77.3","0","0"],
    [40543,"2014-12-21T02:00:00","59","ND","ND","ND","ND","ND","0.3","34.9","22.1","81.8","0","0"],
    [40544,"2014-12-21T03:00:00","64","ND","ND","ND","ND","ND","0.3","36.5","22.1","81.1","0","0"],
    [40545,"2014-12-21T04:00:00","80","ND","ND","ND","ND","ND","0.5","10.6","21.5","84.1","0","0"],
    [40546,"2014-12-21T05:00:00","63","ND","ND","ND","ND","ND","0.6","81.7","21.6","83.7","0","0"],
    [40547,"2014-12-21T06:00:00","47","ND","ND","ND","ND","ND","0.1","261.7","21.3","84.3","0","0"],
    [40548,"2014-12-21T07:00:00","64","ND","ND","ND","ND","ND","0.4","216","21.6","83.4","16.3","0"],
    [40549,"2014-12-21T08:00:00","47","ND","ND","ND","ND","ND","0.2","240.6","22.4","78.4","72.9","0"],
    [40550,"2014-12-21T09:00:00","49","ND","ND","ND","ND","ND","0.6","270.9","23.4","71.7","187.7","0"],
    [40551,"2014-12-21T10:00:00","70","ND","ND","ND","ND","ND","0.6","61.1","25.4","65.5","511.9","0"],
    [40552,"2014-12-21T11:00:00","53","ND","ND","ND","ND","ND","1.6","104.6","27","60","644.7","0"],
    [40553,"2014-12-21T12:00:00","50","ND","ND","ND","ND","ND","0.7","180.6","27.7","57.2","387.6","0"],
    [40554,"2014-12-21T13:00:00","65","ND","ND","ND","ND","ND","0.2","18.5","28.5","54.9","494.3","0"],
    [40555,"2014-12-21T14:00:00","57","ND","ND","ND","ND","ND","0.1","332.3","29.4","52","436.6","0"],
    [40556,"2014-12-21T15:00:00","29","ND","ND","ND","ND","ND","3.3","288.2","28.1","54.3","128.6","0"],
    [40557,"2014-12-21T16:00:00","22","ND","ND","ND","ND","ND","1.3","295.7","28.8","51.1","298","0"],
    [40558,"2014-12-21T17:00:00","29","ND","ND","ND","ND","ND","0.9","285.2","28.6","51","129.5","0"],
    [40559,"2014-12-21T18:00:00","20","ND","ND","ND","ND","ND","0.6","253.6","27.5","53.1","23.8","0"],
    [40560,"2014-12-21T19:00:00","25","ND","ND","ND","ND","ND","0.9","133.6","27","53.8","0","0"],
    [40561,"2014-12-21T20:00:00","24","ND","ND","ND","ND","ND","0.9","94.9","25.9","59.6","0","0"],
    [40562,"2014-12-21T21:00:00","43","ND","ND","ND","ND","ND","3.2","176","23.9","76.1","0","0"],
    [40563,"2014-12-21T22:00:00","35","ND","ND","ND","ND","ND","1.9","167.4","23.4","77.5","0","0"],
    [40564,"2014-12-21T23:00:00","36","ND","ND","ND","ND","ND","0.3","195.3","23","79","0","0"],
    [40565,"2014-12-22T00:00:00","95","ND","ND","ND","ND","ND","1.3","33.7","22.6","79","0","0"],
    [40566,"2014-12-22T01:00:00","77","ND","ND","ND","ND","ND","0.3","111.8","22.4","82","0","0"],
    [40567,"2014-12-22T02:00:00","48","ND","ND","ND","ND","ND","0.2","20.1","22.3","82.3","0","0"],
    [40568,"2014-12-22T03:00:00","45","ND","ND","ND","ND","ND","0.3","30.1","22.1","84.3","0","0"],
    [40569,"2014-12-22T04:00:00","39","ND","ND","ND","ND","ND","0.3","44.4","21.7","87.4","0","0"],
    [40570,"2014-12-22T05:00:00","56","ND","ND","ND","ND","ND","0.4","0.2","21.2","89.4","0","0"],
    [40571,"2014-12-22T06:00:00","63","ND","ND","ND","ND","ND","0.1","41.6","21","90.3","0","0"],
    [40572,"2014-12-22T07:00:00","82","ND","ND","ND","ND","ND","0.2","306","20.9","89.2","14.6","0"],
    [40573,"2014-12-22T08:00:00","107","ND","ND","ND","ND","ND","0.6","42.1","21.7","85.4","66.8","0"],
    [40574,"2014-12-22T09:00:00","106","ND","ND","ND","ND","ND","0.9","15","23","81.8","273.4","0"],
    [40575,"2014-12-22T10:00:00","81","ND","ND","ND","ND","ND","0.5","115.3","25.4","68","467.4","0"],
    [40576,"2014-12-22T11:00:00","72","ND","ND","ND","ND","ND","0.7","73.4","26.9","62.6","533.1","0"],
    [40577,"2014-12-22T12:00:00","71","ND","ND","ND","ND","ND","0.7","81.7","28","57.1","675.2","0"],
    [40578,"2014-12-22T13:00:00","83","ND","ND","ND","ND","ND","0.9","36.7","29","53.9","514.1","0"],
    [40579,"2014-12-22T14:00:00","82","ND","ND","ND","ND","ND","0.8","108.7","29.9","50.4","413.2","0"],
    [40580,"2014-12-22T15:00:00","75","ND","ND","ND","ND","ND","0.5","91.7","30.7","48.1","477.4","0"],
    [40581,"2014-12-22T16:00:00","87","ND","ND","ND","ND","ND","0.7","61","30.8","48.1","312.5","0"],
    [40582,"2014-12-22T17:00:00","73","ND","ND","ND","ND","ND","0.9","3.3","30.1","50.1","146.2","0"],
    [40583,"2014-12-22T18:00:00","57","ND","ND","ND","ND","ND","1.1","283.4","28.9","54.1","35.6","0"],
    [40584,"2014-12-22T19:00:00","51","ND","ND","ND","ND","ND","0.2","187.3","27.9","55","0","0"],
    [40585,"2014-12-22T20:00:00","86","ND","ND","ND","ND","ND","0.5","244.9","27","58.1","0","0"],
    [40586,"2014-12-22T21:00:00","111","ND","ND","ND","ND","ND","0.6","92.8","26.1","62.7","0","0"],
    [40587,"2014-12-22T22:00:00","58","ND","ND","ND","ND","ND","0.4","141.1","24.8","70.2","0","0"],
    [40588,"2014-12-22T23:00:00","66","ND","ND","ND","ND","ND","0.2","237.2","24.2","73.2","0","0"],
    [40589,"2014-12-23T00:00:00","69","ND","ND","ND","ND","ND","0.2","220.3","24.2","73.9","0","0"],
    [40590,"2014-12-23T01:00:00","70","ND","ND","ND","ND","ND","0.6","37.9","23.1","78.3","0","0"],
    [40591,"2014-12-23T02:00:00","24","ND","ND","ND","ND","ND","0.3","139.5","22.8","79.3","0","0"],
    [40592,"2014-12-23T03:00:00","30","ND","ND","ND","ND","ND","0.8","160.4","22.9","78.4","0","0"],
    [40593,"2014-12-23T04:00:00","42","ND","ND","ND","ND","ND","0.4","154.9","22.8","79.8","0","0"],
    [40594,"2014-12-23T05:00:00","40","ND","ND","ND","ND","ND","0.1","245.7","22.3","83.1","0","0"],
    [40595,"2014-12-23T06:00:00","73","ND","ND","ND","ND","ND","0.3","23.4","21.9","83.9","0","0"],
    [40596,"2014-12-23T07:00:00","111","ND","ND","ND","ND","ND","0.3","356.3","21.6","83.6","22.2","0"],
    [40597,"2014-12-23T08:00:00","123","ND","ND","ND","ND","ND","0.2","40.3","23","78.7","111.8","0"],
    [40598,"2014-12-23T09:00:00","132","ND","ND","ND","ND","ND","0.9","54.4","24.2","75.6","315.2","0"],
    [40599,"2014-12-23T10:00:00","82","ND","ND","ND","ND","ND","0.4","26.9","25.8","67.6","397.1","0"],
    [40600,"2014-12-23T11:00:00","60","ND","ND","ND","ND","ND","0.7","106.8","27","61.1","302","0"],
    [40601,"2014-12-23T12:00:00","51","ND","ND","ND","ND","ND","0.7","27","28","57.6","568.8","0"],
    [40602,"2014-12-23T13:00:00","56","ND","ND","ND","ND","ND","0.9","155.7","29.6","51.3","719.8","0"],
    [40603,"2014-12-23T14:00:00","72","ND","ND","ND","ND","ND","0.2","63.5","30.4","48.9","398.2","0"],
    [40604,"2014-12-23T15:00:00","59","ND","ND","ND","ND","ND","0.8","344.2","29.9","50.2","164.9","0"],
    [40605,"2014-12-23T16:00:00","40","ND","ND","ND","ND","ND","1.8","274.6","30.3","47.7","254.1","0"],
    [40606,"2014-12-23T17:00:00","36","ND","ND","ND","ND","ND","2.6","278.5","30","47.9","211.5","0"],
    [40607,"2014-12-23T18:00:00","43","ND","ND","ND","ND","ND","0.5","277.4","29","49.7","44.9","0"],
    [40608,"2014-12-23T19:00:00","37","ND","ND","ND","ND","ND","0.4","17.2","27.5","51.4","0","0"],
    [40609,"2014-12-23T20:00:00","113","ND","ND","ND","ND","ND","0.8","76.4","27.2","52.8","0","0"],
    [40610,"2014-12-23T21:00:00","74","ND","ND","ND","ND","ND","1","121.4","26","59.4","0","0"],
    [40611,"2014-12-23T22:00:00","57","ND","ND","ND","ND","ND","0.4","191","24.7","67.1","0","0"],
    [40612,"2014-12-23T23:00:00","64","ND","ND","ND","ND","ND","0.2","330.7","24.1","68.4","0","0"],
    [40613,"2014-12-24T00:00:00","79","ND","ND","ND","ND","ND","0.4","327.1","23.2","74.2","0","0"],
    [40614,"2014-12-24T01:00:00","74","ND","ND","ND","ND","ND","0.3","238.6","22.7","76.1","0","0"],
    [40615,"2014-12-24T02:00:00","57","ND","ND","ND","ND","ND","0.4","263.7","22.3","78","0","0"],
    [40616,"2014-12-24T03:00:00","37","ND","ND","ND","ND","ND","0.2","312.1","21.8","80","0","0"],
    [40617,"2014-12-24T04:00:00","40","ND","ND","ND","ND","ND","0.2","303.8","21.6","81.1","0","0"],
    [40618,"2014-12-24T05:00:00","78","ND","ND","ND","ND","ND","0.4","35","20.8","85.9","0","0"],
    [40619,"2014-12-24T06:00:00","68","ND","ND","ND","ND","ND","0.4","338.9","20.5","86.4","0","0"],
    [40620,"2014-12-24T07:00:00","69","ND","ND","ND","ND","ND","0.3","194.1","20.8","84.8","27.8","0"],
    [40621,"2014-12-24T08:00:00","99","ND","ND","ND","ND","ND","0.4","139.8","23.3","75.6","172.7","0"],
    [40622,"2014-12-24T09:00:00","101","ND","ND","ND","ND","ND","1.3","151.6","25","68.2","352.2","0"],
    [40623,"2014-12-24T10:00:00","42","ND","ND","ND","ND","ND","1.8","127.9","26.6","60.6","536.2","0"],
    [40624,"2014-12-24T11:00:00","40","ND","ND","ND","ND","ND","0.8","111.6","27.6","57.5","533.2","0"],
    [40625,"2014-12-24T12:00:00","65","ND","ND","ND","ND","ND","0.6","60.5","28.6","55.8","525.7","0"],
    [40626,"2014-12-24T13:00:00","45","ND","ND","ND","ND","ND","0.7","314.2","28.8","54.7","258.3","0"],
    [40627,"2014-12-24T14:00:00","12","ND","ND","ND","ND","ND","2.4","246","29.6","49.4","413.6","0"],
    [40628,"2014-12-24T15:00:00","11","ND","ND","ND","ND","ND","2.4","247.8","30.1","46.8","389.1","0"],
    [40629,"2014-12-24T16:00:00","7","ND","ND","ND","ND","ND","2.4","267.9","30.1","46.2","249.5","0"],
    [40630,"2014-12-24T17:00:00","21","ND","ND","ND","ND","ND","1.8","259.7","29.9","46.4","185.2","0"],
    [40631,"2014-12-24T18:00:00","16","ND","ND","ND","ND","ND","1.6","265.4","28.9","47.2","69.1","0"],
    [40632,"2014-12-24T19:00:00","21","ND","ND","ND","ND","ND","0.5","94.9","27.6","48.4","0","0"],
    [40633,"2014-12-24T20:00:00","39","ND","ND","ND","ND","ND","0.5","113","27.1","51.2","0","0"],
    [40634,"2014-12-24T21:00:00","35","ND","ND","ND","ND","ND","0.2","247.2","26.1","57.4","0","0"],
    [40635,"2014-12-24T22:00:00","51","ND","ND","ND","ND","ND","0.5","147.2","25.7","62","0","0"],
    [40636,"2014-12-24T23:00:00","60","ND","ND","ND","ND","ND","0.1","251.5","24.7","67","0","0"],
    [40637,"2014-12-25T00:00:00","48","ND","ND","ND","ND","ND","0.1","17.9","24.3","69.3","0","0"],
    [40638,"2014-12-25T01:00:00","55","ND","ND","ND","ND","ND","0.5","341.9","23.9","73.4","0","0"],
    [40639,"2014-12-25T02:00:00","53","ND","ND","ND","ND","ND","0.2","332.9","23.4","75.7","0","0"],
    [40640,"2014-12-25T03:00:00","64","ND","ND","ND","ND","ND","0.3","283.3","23.4","75.8","0","0"],
    [40641,"2014-12-25T04:00:00","57","ND","ND","ND","ND","ND","0.2","20.4","23.3","76.4","0","0"],
    [40642,"2014-12-25T05:00:00","51","ND","ND","ND","ND","ND","0.3","345.1","22.7","79.4","0","0"],
    [40643,"2014-12-25T06:00:00","48","ND","ND","ND","ND","ND","0.7","275.7","22.6","80.4","0","0"],
    [40644,"2014-12-25T07:00:00","44","ND","ND","ND","ND","ND","0.3","291.8","22.2","82.5","14.2","0"],
    [40645,"2014-12-25T08:00:00","39","ND","ND","ND","ND","ND","0.1","39.9","23.1","79.2","76.7","0"],
    [40646,"2014-12-25T09:00:00","58","ND","ND","ND","ND","ND","0.9","60.6","24.7","71.9","274.9","0"],
    [40647,"2014-12-25T10:00:00","42","ND","ND","ND","ND","ND","0.8","81.3","26.1","65.9","571.8","0"],
    [40648,"2014-12-25T11:00:00","34","ND","ND","ND","ND","ND","0.9","67.4","27.9","59.2","685.2","0"],
    [40649,"2014-12-25T12:00:00","26","ND","ND","ND","ND","ND","1.1","65.4","28.9","55.9","686.7","0"],
    [40650,"2014-12-25T13:00:00","20","ND","ND","ND","ND","ND","1.1","174.7","29.5","53.3","591.1","0"],
    [40651,"2014-12-25T14:00:00","16","ND","ND","ND","ND","ND","0.8","39.7","29.4","52.4","261.7","0"],
    [40652,"2014-12-25T15:00:00","5","ND","ND","ND","ND","ND","1.5","260.2","29.5","50.6","227.4","0"],
    [40653,"2014-12-25T16:00:00","4","ND","ND","ND","ND","ND","2.3","250.2","30.4","48.1","505.3","0"],
    [40654,"2014-12-25T17:00:00","3","ND","ND","ND","ND","ND","2.4","285.9","29.5","49.5","234.4","0"],
    [40655,"2014-12-25T18:00:00","10","ND","ND","ND","ND","ND","1.8","241.1","27.9","54.2","15.8","0"],
    [40656,"2014-12-25T19:00:00","15","ND","ND","ND","ND","ND","0.7","124.3","27.5","55.1","0","0"],
    [40657,"2014-12-25T20:00:00","22","ND","ND","ND","ND","ND","0.4","72.6","26.3","59.4","0","0"],
    [40658,"2014-12-25T21:00:00","32","ND","ND","ND","ND","ND","0.7","168.9","25.5","64.1","0","0"],
    [40659,"2014-12-25T22:00:00","36","ND","ND","ND","ND","ND","0.9","192.3","24.5","68.7","0","0"],
    [40660,"2014-12-25T23:00:00","21","ND","ND","ND","ND","ND","0.9","205.2","24.2","67.1","0","0"],
    [40661,"2014-12-26T00:00:00","65","ND","ND","ND","ND","ND","0.7","349.5","23","74.4","0","0"],
    [40662,"2014-12-26T01:00:00","36","ND","ND","ND","ND","ND","0.1","344.6","22.6","76.7","0","0"],
    [40663,"2014-12-26T02:00:00","42","ND","ND","ND","ND","ND","0.9","358.6","22.5","79","0","0"],
    [40664,"2014-12-26T03:00:00","48","ND","ND","ND","ND","ND","0.2","21.4","22.3","81","0","0"],
    [40665,"2014-12-26T04:00:00","77","ND","ND","ND","ND","ND","0.3","7","22.1","81.7","0","0"],
    [40666,"2014-12-26T05:00:00","51","ND","ND","ND","ND","ND","0.3","74.7","22.2","83.2","0","0"],
    [40667,"2014-12-26T06:00:00","69","ND","ND","ND","ND","ND","0.3","332.3","22","83.8","0","0"],
    [40668,"2014-12-26T07:00:00","95","ND","ND","ND","ND","ND","0.2","7.9","22.1","84.3","12.5","0"],
    [40669,"2014-12-26T08:00:00","122","ND","ND","ND","ND","ND","0.6","32.2","22.8","81.9","95.9","0"],
    [40670,"2014-12-26T09:00:00","75","ND","ND","ND","ND","ND","1","55.2","23.7","78.5","302.3","0"],
    [40671,"2014-12-26T10:00:00","48","ND","ND","ND","ND","ND","0.7","122","26","67.1","536.4","0"],
    [40672,"2014-12-26T11:00:00","40","ND","ND","ND","ND","ND","0.4","115.6","27.5","60.6","623.2","0"],
    [40673,"2014-12-26T12:00:00","48","ND","ND","ND","ND","ND","1","48.8","28.6","56.6","564","0"],
    [40674,"2014-12-26T13:00:00","42","ND","ND","ND","ND","ND","1.1","37","29.6","53.4","596.4","0"],
    [40675,"2014-12-26T14:00:00","38","ND","ND","ND","ND","ND","0.9","340.9","30","51.4","414.6","0"],
    [40676,"2014-12-26T15:00:00","29","ND","ND","ND","ND","ND","2.6","271.4","30.8","47.2","571.2","0"],
    [40677,"2014-12-26T16:00:00","11","ND","ND","ND","ND","ND","3.3","274.3","30","48.2","320.6","0"],
    [40678,"2014-12-26T17:00:00","19","ND","ND","ND","ND","ND","2.7","276.1","29.4","49.5","123","0"],
    [40679,"2014-12-26T18:00:00","24","ND","ND","ND","ND","ND","0.6","247.9","28.7","51.4","26.2","0"],
    [40680,"2014-12-26T19:00:00","57","ND","ND","ND","ND","ND","0.4","92.7","28.2","52.5","0","0"],
    [40681,"2014-12-26T20:00:00","33","ND","ND","ND","ND","ND","0.5","222.4","27.9","53.5","0","0"],
    [40682,"2014-12-26T21:00:00","39","ND","ND","ND","ND","ND","0.7","99.8","26.9","57.7","0","0"],
    [40683,"2014-12-26T22:00:00","48","ND","ND","ND","ND","ND","0.7","162.7","26","62.8","0","0"],
    [40684,"2014-12-26T23:00:00","48","ND","ND","ND","ND","ND","0.4","67.3","25.2","67.5","0","0"],
    [40685,"2014-12-27T00:00:00","47","ND","ND","ND","ND","ND","0.3","150.1","25.2","68.2","0","0"],
    [40686,"2014-12-27T01:00:00","27","ND","ND","ND","ND","ND","0.5","141.7","24.8","70.3","0","0"],
    [40687,"2014-12-27T02:00:00","43","ND","ND","ND","ND","ND","0.9","164.4","24.3","73.4","0","0"],
    [40688,"2014-12-27T03:00:00","38","ND","ND","ND","ND","ND","0.2","143.8","24","74.5","0","0"],
    [40689,"2014-12-27T04:00:00","66","ND","ND","ND","ND","ND","0.7","350","23.5","78.3","0","0"],
    [40690,"2014-12-27T05:00:00","104","ND","ND","ND","ND","ND","0.4","33.1","22.2","88.1","0","1.52"],
    [40691,"2014-12-27T06:00:00","98","ND","ND","ND","ND","ND","0.1","278.1","22.2","90.9","0","0"],
    [40692,"2014-12-27T07:00:00","95","ND","ND","ND","ND","ND","0.3","52.7","22.2","89.5","14.1","0"],
    [40693,"2014-12-27T08:00:00","103","ND","ND","ND","ND","ND","0.5","143.6","22.6","87.1","88.8","0"],
    [40694,"2014-12-27T09:00:00","100","ND","ND","ND","ND","ND","0.5","48.5","24.3","78.6","274.3","0"],
    [40695,"2014-12-27T10:00:00","94","ND","ND","ND","ND","ND","1","81.7","26.2","68.3","524","0"],
    [40696,"2014-12-27T11:00:00","37","ND","ND","ND","ND","ND","0.5","98.4","27.8","59.6","625","0"],
    [40697,"2014-12-27T12:00:00","47","ND","ND","ND","ND","ND","0.9","158.9","29.2","54","683.6","0"],
    [40698,"2014-12-27T13:00:00","57","ND","ND","ND","ND","ND","0.3","211.4","29.8","52.5","519","0"],
    [40699,"2014-12-27T14:00:00","29","ND","ND","ND","ND","ND","0.5","18.3","30.5","48.8","608.5","0"],
    [40700,"2014-12-27T15:00:00","20","ND","ND","ND","ND","ND","1.3","351.1","30.1","48.8","153.8","0"],
    [40701,"2014-12-27T16:00:00","20","ND","ND","ND","ND","ND","2","287.3","30.3","47.2","272.1","0"],
    [40702,"2014-12-27T17:00:00","20","ND","ND","ND","ND","ND","2.1","260.9","29.9","48.9","127.2","0"],
    [40703,"2014-12-27T18:00:00","25","ND","ND","ND","ND","ND","1.7","248.4","29","50.5","40.3","0"],
    [40704,"2014-12-27T19:00:00","27","ND","ND","ND","ND","ND","0.5","178.1","28.2","52.1","0","0"],
    [40705,"2014-12-27T20:00:00","44","ND","ND","ND","ND","ND","0.2","56.1","27.4","55.4","0","0"],
    [40706,"2014-12-27T21:00:00","37","ND","ND","ND","ND","ND","0.8","139.3","27.4","55.7","0","0"],
    [40707,"2014-12-27T22:00:00","44","ND","ND","ND","ND","ND","0.5","69.6","26.4","61.3","0","0"],
    [40708,"2014-12-27T23:00:00","36","ND","ND","ND","ND","ND","0.3","57.9","25.2","67.8","0","0"],
    [40709,"2014-12-28T00:00:00","41","ND","ND","ND","ND","ND","0.3","12.3","24.6","70.9","0","0"],
    [40710,"2014-12-28T01:00:00","40","ND","ND","ND","ND","ND","0.6","353.2","24.1","73","0","0"],
    [40711,"2014-12-28T02:00:00","53","ND","ND","ND","ND","ND","0.3","61.5","23.6","75.9","0","0"],
    [40712,"2014-12-28T03:00:00","38","ND","ND","ND","ND","ND","0.3","324.8","23.2","77.4","0","0"],
    [40713,"2014-12-28T04:00:00","56","ND","ND","ND","ND","ND","0.1","332.6","23","78.4","0","0"],
    [40714,"2014-12-28T05:00:00","51","ND","ND","ND","ND","ND","0.2","285.9","22.9","78.7","0","0"],
    [40715,"2014-12-28T06:00:00","62","ND","ND","ND","ND","ND","0.1","357.3","22.9","78.7","0","0"],
    [40716,"2014-12-28T07:00:00","78","ND","ND","ND","ND","ND","0.4","25.8","22.3","80.1","7.6","0"],
    [40717,"2014-12-28T08:00:00","62","ND","ND","ND","ND","ND","0.3","49.6","23","77.9","94.3","0"],
    [40718,"2014-12-28T09:00:00","73","ND","ND","ND","ND","ND","0.9","103.5","25.3","69.9","345.6","0"],
    [40719,"2014-12-28T10:00:00","58","ND","ND","ND","ND","ND","0.7","82.8","27","63.8","552.6","0"],
    [40720,"2014-12-28T11:00:00","39","ND","ND","ND","ND","ND","1.3","114.3","28.3","56.9","743.1","0"],
    [40721,"2014-12-28T12:00:00","42","ND","ND","ND","ND","ND","0.6","169.8","29.6","51.6","619.1","0"],
    [40722,"2014-12-28T13:00:00","38","ND","ND","ND","ND","ND","1.1","51.1","30.1","50.2","538.1","0"],
    [40723,"2014-12-28T14:00:00","22","ND","ND","ND","ND","ND","1.4","293.4","30.6","47.8","621.8","0"],
    [40724,"2014-12-28T15:00:00","21","ND","ND","ND","ND","ND","1.4","295.2","30.4","47.3","171","0"],
    [40725,"2014-12-28T16:00:00","22","ND","ND","ND","ND","ND","3.1","280","30.8","45.2","418.8","0"],
    [40726,"2014-12-28T17:00:00","13","ND","ND","ND","ND","ND","3","282.1","30.3","46.2","235.9","0"],
    [40727,"2014-12-28T18:00:00","15","ND","ND","ND","ND","ND","1.5","264.7","29.4","47.9","58.2","0"],
    [40728,"2014-12-28T19:00:00","53","ND","ND","ND","ND","ND","0.7","244.7","28.2","51.3","0","0"],
    [40729,"2014-12-28T20:00:00","44","ND","ND","ND","ND","ND","0.3","86.5","27.8","52.8","0","0"],
    [40730,"2014-12-28T21:00:00","32","ND","ND","ND","ND","ND","1.1","81.1","26.8","58.3","0","0"],
    [40731,"2014-12-28T22:00:00","33","ND","ND","ND","ND","ND","1","291.3","26","62.9","0","0"],
    [40732,"2014-12-28T23:00:00","38","ND","ND","ND","ND","ND","0.9","310.1","25","66.8","0","0"],
    [40733,"2014-12-29T00:00:00","35","ND","ND","ND","ND","ND","0.5","73.5","24.5","69.8","0","0"],
    [40734,"2014-12-29T01:00:00","40","ND","ND","ND","ND","ND","0.1","341.2","24.3","71.2","0","0"],
    [40735,"2014-12-29T02:00:00","39","ND","ND","ND","ND","ND","0.1","2.3","24.1","72.1","0","0"],
    [40736,"2014-12-29T03:00:00","54","ND","ND","ND","ND","ND","0.5","4.2","22.9","79.3","0","0"],
    [40737,"2014-12-29T04:00:00","54","ND","ND","ND","ND","ND","0.5","279.3","22.7","79.9","0","0"],
    [40738,"2014-12-29T05:00:00","36","ND","ND","ND","ND","ND","0.1","285.2","22.3","80.4","0","0"],
    [40739,"2014-12-29T06:00:00","44","ND","ND","ND","ND","ND","0.3","350.2","22.2","80.6","0","0"],
    [40740,"2014-12-29T07:00:00","90","ND","ND","ND","ND","ND","0.3","19.9","22.5","80.3","23.3","0"],
    [40741,"2014-12-29T08:00:00","153","ND","ND","ND","ND","ND","0.6","46.9","23.6","76.1","107.8","0"],
    [40742,"2014-12-29T09:00:00","96","ND","ND","ND","ND","ND","1.2","40","23.8","76.1","228.2","0"],
    [40743,"2014-12-29T10:00:00","85","ND","ND","ND","ND","ND","0.5","29.5","26.2","66.3","563","0"],
    [40744,"2014-12-29T11:00:00","72","ND","ND","ND","ND","ND","0.8","114.6","28","58.5","644.4","0"],
    [40745,"2014-12-29T12:00:00","73","ND","ND","ND","ND","ND","1","137.8","28.8","55","541.7","0"],
    [40746,"2014-12-29T13:00:00","79","ND","ND","ND","ND","ND","0.5","73.6","30","50.7","637.4","0"],
    [40747,"2014-12-29T14:00:00","56","ND","ND","ND","ND","ND","1.1","290.2","31.2","45.9","625.8","0"],
    [40748,"2014-12-29T15:00:00","68","ND","ND","ND","ND","ND","1.3","13.2","31.3","45.5","422.3","0"],
    [40749,"2014-12-29T16:00:00","17","ND","ND","ND","ND","ND","2.7","282.8","30.2","46.9","176.7","0"],
    [40750,"2014-12-29T17:00:00","22","ND","ND","ND","ND","ND","2.9","271.1","30.2","46.5","230.1","0"],
    [40751,"2014-12-29T18:00:00","24","ND","ND","ND","ND","ND","2","279.5","28.8","48.7","27","0"],
    [40752,"2014-12-29T19:00:00","29","ND","ND","ND","ND","ND","0.7","93.8","28.1","51.2","0","0"],
    [40753,"2014-12-29T20:00:00","57","ND","ND","ND","ND","ND","1","133.3","27.6","53.4","0","0"],
    [40754,"2014-12-29T21:00:00","20","ND","ND","ND","ND","ND","2.7","182.9","26.7","58.3","0","0"],
    [40755,"2014-12-29T22:00:00","28","ND","ND","ND","ND","ND","0.4","220.5","25.6","61.8","0","0"],
    [40756,"2014-12-29T23:00:00","27","ND","ND","ND","ND","ND","0.1","297.7","24.7","66.2","0","0"],
    [40757,"2014-12-30T00:00:00","35","ND","ND","ND","ND","ND","0.4","254.4","24","69.6","0","0"],
    [40758,"2014-12-30T01:00:00","53","ND","ND","ND","ND","ND","0.5","350.1","23.3","73.9","0","0"],
    [40759,"2014-12-30T02:00:00","49","ND","ND","ND","ND","ND","0.5","264.9","22.4","78.9","0","0"],
    [40760,"2014-12-30T03:00:00","35","ND","ND","ND","ND","ND","0.4","265.2","22.3","78.7","0","0"],
    [40761,"2014-12-30T04:00:00","38","ND","ND","ND","ND","ND","0.7","235.4","22.9","76","0","0"],
    [40762,"2014-12-30T05:00:00","30","ND","ND","ND","ND","ND","0.5","283.4","22.4","77","0","0"],
    [40763,"2014-12-30T06:00:00","51","ND","ND","ND","ND","ND","0.5","23.7","22.1","78.8","0","0"],
    [40764,"2014-12-30T07:00:00","69","ND","ND","ND","ND","ND","0.4","276.2","22.2","79.7","27.7","0"],
    [40765,"2014-12-30T08:00:00","51","ND","ND","ND","ND","ND","0.6","114","24","72","164","0"],
    [40766,"2014-12-30T09:00:00","64","ND","ND","ND","ND","ND","0.9","172.6","25.5","65.8","348.3","0"],
    [40767,"2014-12-30T10:00:00","36","ND","ND","ND","ND","ND","2.3","137.2","26.5","62.6","496.1","0"],
    [40768,"2014-12-30T11:00:00","33","ND","ND","ND","ND","ND","1.9","144.8","27.8","57.9","687","0"],
    [40769,"2014-12-30T12:00:00","23","ND","ND","ND","ND","ND","0.8","159","28.8","52.7","577.6","0"],
    [40770,"2014-12-30T13:00:00","36","ND","ND","ND","ND","ND","0.7","209.6","29.9","49.2","517","0"],
    [40771,"2014-12-30T14:00:00","39","ND","ND","ND","ND","ND","1.2","141.3","30.8","45.4","755.2","0"],
    [40772,"2014-12-30T15:00:00","47","ND","ND","ND","ND","ND","0.7","9.9","31","45","375","0"],
    [40773,"2014-12-30T16:00:00","52","ND","ND","ND","ND","ND","1","352.1","31.6","44.5","391.4","0"],
    [40774,"2014-12-30T17:00:00","37","ND","ND","ND","ND","ND","0.7","316.4","30.7","47.5","184.2","0"],
    [40775,"2014-12-30T18:00:00","28","ND","ND","ND","ND","ND","1","280.8","29.6","49.5","54.1","0"],
    [40776,"2014-12-30T19:00:00","27","ND","ND","ND","ND","ND","1.3","242.5","28","52.5","0","0"],
    [40777,"2014-12-30T20:00:00","53","ND","ND","ND","ND","ND","0.2","216.9","27.5","54.9","0","0"],
    [40778,"2014-12-30T21:00:00","48","ND","ND","ND","ND","ND","0.6","122.7","27","56","0","0"],
    [40779,"2014-12-30T22:00:00","63","ND","ND","ND","ND","ND","0.8","119.7","25.9","61.6","0","0"],
    [40780,"2014-12-30T23:00:00","37","ND","ND","ND","ND","ND","0.1","130.1","24.5","68.5","0","0"],
    [40781,"2014-12-31T00:00:00","77","ND","ND","ND","ND","ND","0.6","16.7","24.1","69.8","0","0"],
    [40782,"2014-12-31T01:00:00","45","ND","ND","ND","ND","ND","0.1","276.9","23.6","71","0","0"],
    [40783,"2014-12-31T02:00:00","53","ND","ND","ND","ND","ND","0.6","20","23.3","72.6","0","0"],
    [40784,"2014-12-31T03:00:00","48","ND","ND","ND","ND","ND","0.1","27.5","22.8","76.7","0","0"],
    [40785,"2014-12-31T04:00:00","41","ND","ND","ND","ND","ND","0.3","345","22.6","76.6","0","0"],
    [40786,"2014-12-31T05:00:00","71","ND","ND","ND","ND","ND","0.6","17.9","22.4","79","0","0"],
    [40787,"2014-12-31T06:00:00","87","ND","ND","ND","ND","ND","0.2","350.3","22.2","81.2","0","0"],
    [40788,"2014-12-31T07:00:00","74","ND","ND","ND","ND","ND","0.2","276","22.4","80","19.9","0"],
    [40789,"2014-12-31T08:00:00","101","ND","ND","ND","ND","ND","0.4","36","23.6","75.8","128.9","0"],
    [40790,"2014-12-31T09:00:00","86","ND","ND","ND","ND","ND","0.8","141.4","24.7","69.6","221.2","0"],
    [40791,"2014-12-31T10:00:00","82","ND","ND","ND","ND","ND","0.9","130.4","26.4","63.6","437.1","0"],
    [40792,"2014-12-31T11:00:00","49","ND","ND","ND","ND","ND","1","121.7","27.9","57.4","628.7","0"],
    [40793,"2014-12-31T12:00:00","55","ND","ND","ND","ND","ND","1.3","149","29.1","53.3","692.8","0"],
    [40794,"2014-12-31T13:00:00","45","ND","ND","ND","ND","ND","1.1","113.9","30.2","50.5","490.6","0"],
    [40795,"2014-12-31T14:00:00","47","ND","ND","ND","ND","ND","0.6","8.2","30.7","48.1","561.1","0"],
    [40796,"2014-12-31T15:00:00","17","ND","ND","ND","ND","ND","1.2","295.3","30.8","45.6","366.9","0"],
    [40797,"2014-12-31T16:00:00","13","ND","ND","ND","ND","ND","3.2","284.5","30.9","45.1","442.5","0"],
    [40798,"2014-12-31T17:00:00","17","ND","ND","ND","ND","ND","2.4","278.7","30.5","45","230.4","0"],
    [40799,"2014-12-31T18:00:00","19","ND","ND","ND","ND","ND","0.4","230.1","30","45.6","63.5","0"],
    [40800,"2014-12-31T19:00:00","26","ND","ND","ND","ND","ND","0.9","244.9","28.3","49.6","0","0"],
    [40801,"2014-12-31T20:00:00","65","ND","ND","ND","ND","ND","0.6","139.7","27.6","51.5","0","0"],
    [40802,"2014-12-31T21:00:00","49","ND","ND","ND","ND","ND","0.4","118.5","27","54.7","0","0"],
    [40803,"2014-12-31T22:00:00","56","ND","ND","ND","ND","ND","0.1","229.7","25.8","60.3","0","0"],
    [40804,"2014-12-31T23:00:00","44","ND","ND","ND","ND","ND","0.9","344.5","24.2","68.1","0","0"],
    [40805,"2015-01-01T00:00:00","31","ND","ND","ND","ND","ND","0.5","343.1","23.5","71","0","0"],
    [40806,"2015-01-01T01:00:00","105","ND","ND","ND","ND","ND","0.4","276.4","23","72.6","0","0"],
    [40807,"2015-01-01T02:00:00","54","ND","ND","ND","ND","ND","0.1","349.2","22.6","74.2","0","0"],
    [40808,"2015-01-01T03:00:00","59","ND","ND","ND","ND","ND","0.5","30.8","22.2","76.6","0","0"],
    [40809,"2015-01-01T04:00:00","53","ND","ND","ND","ND","ND","0.2","26","22.1","77.2","0","0"],
    [40810,"2015-01-01T05:00:00","51","ND","ND","ND","ND","ND","0.4","252.6","22.2","77.1","0","0"],
    [40811,"2015-01-01T06:00:00","52","ND","ND","ND","ND","ND","0.2","356.2","22.3","77.3","0","0"],
    [40812,"2015-01-01T07:00:00","56","ND","ND","ND","ND","ND","0.5","1","22.1","79.8","15.2","0"],
    [40813,"2015-01-01T08:00:00","55","ND","ND","ND","ND","ND","0.9","24.8","22.5","78.7","75.3","0"],
    [40814,"2015-01-01T09:00:00","61","ND","ND","ND","ND","ND","0.5","10.8","23.7","74.6","234.8","0"],
    [40815,"2015-01-01T10:00:00","58","ND","ND","ND","ND","ND","0.3","30.5","25","68.5","246.3","0"],
    [40816,"2015-01-01T11:00:00","54","ND","ND","ND","ND","ND","0.8","357","26.1","64.8","544.7","0"],
    [40817,"2015-01-01T12:00:00","37","ND","ND","ND","ND","ND","1.4","47.1","28.1","56.5","748.1","0"],
    [40818,"2015-01-01T13:00:00","28","ND","ND","ND","ND","ND","1.8","56","29.6","51.7","744.4","0"],
    [40819,"2015-01-01T14:00:00","22","ND","ND","ND","ND","ND","1.8","50.4","30.5","49.3","498.7","0"],
    [40820,"2015-01-01T15:00:00","13","ND","ND","ND","ND","ND","1.3","324.1","31.1","43.8","435.9","0"],
    [40821,"2015-01-01T16:00:00","11","ND","ND","ND","ND","ND","1.6","303.7","31.6","42.5","349.3","0"],
    [40822,"2015-01-01T17:00:00","17","ND","ND","ND","ND","ND","2.9","262.5","31.1","44","257.1","0"],
    [40823,"2015-01-01T18:00:00","3","ND","ND","ND","ND","ND","1.6","262.5","29.9","46.3","66.7","0"],
    [40824,"2015-01-01T19:00:00","22","ND","ND","ND","ND","ND","0.3","185.5","28.8","47.9","0","0"],
    [40825,"2015-01-01T20:00:00","18","ND","ND","ND","ND","ND","0.1","203.7","27.7","50.8","0","0"],
    [40826,"2015-01-01T21:00:00","36","ND","ND","ND","ND","ND","0.7","153.6","27.2","54","0","0"],
    [40827,"2015-01-01T22:00:00","46","ND","ND","ND","ND","ND","0.8","148.9","25.8","61.7","0","0"],
    [40828,"2015-01-01T23:00:00","37","ND","ND","ND","ND","ND","0","82.3","24.7","67.3","0","0"],
    [40829,"2015-01-02T00:00:00","36","ND","ND","ND","ND","ND","0.1","257.3","24","70.3","0","0"],
    [40830,"2015-01-02T01:00:00","17","ND","ND","ND","ND","ND","0.2","227.7","23.2","73","0","0"],
    [40831,"2015-01-02T02:00:00","19","ND","ND","ND","ND","ND","0.2","212.9","23.1","73.4","0","0"],
    [40832,"2015-01-02T03:00:00","16","ND","ND","ND","ND","ND","0.3","264.9","22.4","77.4","0","0"],
    [40833,"2015-01-02T04:00:00","16","ND","ND","ND","ND","ND","0.3","15.3","21.8","79.3","0","0"],
    [40834,"2015-01-02T05:00:00","21","ND","ND","ND","ND","ND","0","273.6","21.6","79.9","0","0"],
    [40835,"2015-01-02T06:00:00","33","ND","ND","ND","ND","ND","0.3","352.4","21.2","81.6","0","0"],
    [40836,"2015-01-02T07:00:00","78","ND","ND","ND","ND","ND","0.7","351.5","20.8","84.8","27.3","0"],
    [40837,"2015-01-02T08:00:00","126","ND","ND","ND","ND","ND","0.7","33.9","22","80.1","180.6","0"],
    [40838,"2015-01-02T09:00:00","53","ND","ND","ND","ND","ND","0.4","16.9","24","71.8","314.5","0"],
    [40839,"2015-01-02T10:00:00","67","ND","ND","ND","ND","ND","0.7","95.8","26.3","63.5","540.1","0"],
    [40840,"2015-01-02T11:00:00","42","ND","ND","ND","ND","ND","1.2","66.1","27.8","56.6","668","0"],
    [40841,"2015-01-02T12:00:00","24","ND","ND","ND","ND","ND","1.3","49.5","28.9","52.6","719.6","0"],
    [40842,"2015-01-02T13:00:00","21","ND","ND","ND","ND","ND","1.1","68.3","30.4","48.6","756.1","0"],
    [40843,"2015-01-02T14:00:00","39","ND","ND","ND","ND","ND","0.9","37.8","31.4","46.8","623","0.25"],
    [40844,"2015-01-02T15:00:00","31","ND","ND","ND","ND","ND","1.6","24.1","30.9","47.3","215.2","0"],
    [40845,"2015-01-02T16:00:00","21","ND","ND","ND","ND","ND","2.3","266.9","30.9","46.7","246.8","0"],
    [40846,"2015-01-02T17:00:00","22","ND","ND","ND","ND","ND","2.4","271.2","30.9","46.2","232.3","0"],
    [40847,"2015-01-02T18:00:00","22","ND","ND","ND","ND","ND","1.1","278.1","29.6","48.7","46","0"],
    [40848,"2015-01-02T19:00:00","27","ND","ND","ND","ND","ND","0.5","80.3","28.5","50.8","0","0"],
    [40849,"2015-01-02T20:00:00","30","ND","ND","ND","ND","ND","0.2","191.9","28","52.8","0","0"],
    [40850,"2015-01-02T21:00:00","50","ND","ND","ND","ND","ND","0.3","39.4","26.8","58.1","0","0"],
    [40851,"2015-01-02T22:00:00","52","ND","ND","ND","ND","ND","0.4","117.6","25.9","62.7","0","0"],
    [40852,"2015-01-02T23:00:00","54","ND","ND","ND","ND","ND","0.5","139.8","25.3","65.3","0","0"],
    [40853,"2015-01-03T00:00:00","24","ND","ND","ND","ND","ND","0.3","171.1","24.5","69.4","0","0"],
    [40854,"2015-01-03T01:00:00","23","ND","ND","ND","ND","ND","0.4","166.4","24.1","71.9","0","0"],
    [40855,"2015-01-03T02:00:00","17","ND","ND","ND","ND","ND","0.6","157.7","23.5","74","0","0"],
    [40856,"2015-01-03T03:00:00","21","ND","ND","ND","ND","ND","0.8","161.8","23.6","73.7","0","0"],
    [40857,"2015-01-03T04:00:00","19","ND","ND","ND","ND","ND","0.3","44.8","23.1","75.8","0","0"],
    [40858,"2015-01-03T05:00:00","25","ND","ND","ND","ND","ND","0.1","291.8","22.4","78.8","0","0"],
    [40859,"2015-01-03T06:00:00","22","ND","ND","ND","ND","ND","0.4","252.5","22.1","80.9","0","0"],
    [40860,"2015-01-03T07:00:00","63","ND","ND","ND","ND","ND","0.4","8.7","21.8","82.3","24.2","0"],
    [40861,"2015-01-03T08:00:00","81","ND","ND","ND","ND","ND","0.7","39.8","22.9","77.6","165.9","0"],
    [40862,"2015-01-03T09:00:00","65","ND","ND","ND","ND","ND","1.3","47.1","24.4","71.4","356.9","0"],
    [40863,"2015-01-03T10:00:00","32","ND","ND","ND","ND","ND","0.9","101.3","26.3","62.5","537.6","0"],
    [40864,"2015-01-03T11:00:00","31","ND","ND","ND","ND","ND","0.8","46.9","27.9","55.8","668.6","0"],
    [40865,"2015-01-03T12:00:00","26","ND","ND","ND","ND","ND","1.1","70.1","29.2","51.5","771.3","0"],
    [40866,"2015-01-03T13:00:00","34","ND","ND","ND","ND","ND","1.1","38.9","30.3","48.7","619.7","0"],
    [40867,"2015-01-03T14:00:00","29","ND","ND","ND","ND","ND","1","6","30.8","47.6","517.1","0"],
    [40868,"2015-01-03T15:00:00","30","ND","ND","ND","ND","ND","0.7","287","31.3","45.6","499.7","0"],
    [40869,"2015-01-03T16:00:00","15","ND","ND","ND","ND","ND","2.9","281.2","31.5","44.2","447.4","0"],
    [40870,"2015-01-03T17:00:00","21","ND","ND","ND","ND","ND","3.8","277.2","30.4","46.5","202.8","0"],
    [40871,"2015-01-03T18:00:00","22","ND","ND","ND","ND","ND","2.4","256.5","29.4","48.2","42.3","0"],
    [40872,"2015-01-03T19:00:00","33","ND","ND","ND","ND","ND","0.3","239.1","28.7","49.9","0","0"],
    [40873,"2015-01-03T20:00:00","58","ND","ND","ND","ND","ND","0.7","71.8","27.8","53.1","0","0"],
    [40874,"2015-01-03T21:00:00","65","ND","ND","ND","ND","ND","0","202.1","26.8","57.3","0","0"],
    [40875,"2015-01-03T22:00:00","66","ND","ND","ND","ND","ND","0.6","116.4","26.1","61.5","0","0"],
    [40876,"2015-01-03T23:00:00","107","ND","ND","ND","ND","ND","0.5","61","24.7","68.1","0","0"],
    [40877,"2015-01-04T00:00:00","49","ND","ND","ND","ND","ND","0","174.6","24.4","70","0","0"],
    [40878,"2015-01-04T01:00:00","44","ND","ND","ND","ND","ND","0.5","151","24.3","71.6","0","0"],
    [40879,"2015-01-04T02:00:00","47","ND","ND","ND","ND","ND","0.4","47.2","23.5","75.1","0","0"],
    [40880,"2015-01-04T03:00:00","34","ND","ND","ND","ND","ND","0.4","157.4","22.8","77.7","0","0"],
    [40881,"2015-01-04T04:00:00","37","ND","ND","ND","ND","ND","0.7","222.9","22.6","78.4","0","0"],
    [40882,"2015-01-04T05:00:00","35","ND","ND","ND","ND","ND","1.2","184.5","22.8","76.8","0","0"],
    [40883,"2015-01-04T06:00:00","36","ND","ND","ND","ND","ND","0.5","1.7","22","80.3","0","0"],
    [40884,"2015-01-04T07:00:00","61","ND","ND","ND","ND","ND","0.3","313.7","21.2","84.7","17.8","0"],
    [40885,"2015-01-04T08:00:00","65","ND","ND","ND","ND","ND","0.6","45.9","22.8","78.8","161","0"],
    [40886,"2015-01-04T09:00:00","53","ND","ND","ND","ND","ND","0.4","69.3","24.5","70.9","346","0"],
    [40887,"2015-01-04T10:00:00","40","ND","ND","ND","ND","ND","1.2","66.6","26.3","63.1","531.7","0"],
    [40888,"2015-01-04T11:00:00","26","ND","ND","ND","ND","ND","0.9","103.6","27.8","57.8","636.2","0"],
    [40889,"2015-01-04T12:00:00","36","ND","ND","ND","ND","ND","1.2","133.3","29.2","52.7","696.1","0"],
    [40890,"2015-01-04T13:00:00","46","ND","ND","ND","ND","ND","0.6","56.7","29.9","50.7","689.3","0"],
    [40891,"2015-01-04T14:00:00","23","ND","ND","ND","ND","ND","1.1","276.1","31.3","46.3","649.9","0"],
    [40892,"2015-01-04T15:00:00","18","ND","ND","ND","ND","ND","2.1","250.7","32.2","42.4","634.4","0"],
    [40893,"2015-01-04T16:00:00","15","ND","ND","ND","ND","ND","3.9","273.1","31.2","43.2","436.7","0"],
    [40894,"2015-01-04T17:00:00","21","ND","ND","ND","ND","ND","2.8","270.6","30.7","43.1","189.5","0"],
    [40895,"2015-01-04T18:00:00","21","ND","ND","ND","ND","ND","0.3","35","29.8","44.8","38.5","0"],
    [40896,"2015-01-04T19:00:00","21","ND","ND","ND","ND","ND","0.5","122.1","28.7","48.2","0","0"],
    [40897,"2015-01-04T20:00:00","20","ND","ND","ND","ND","ND","0.7","95.3","27.8","51.9","0","0"],
    [40898,"2015-01-04T21:00:00","52","ND","ND","ND","ND","ND","0.7","95.8","27.3","55.7","0","0"],
    [40899,"2015-01-04T22:00:00","35","ND","ND","ND","ND","ND","0.8","112.4","25.7","63.3","0","0"],
    [40900,"2015-01-04T23:00:00","27","ND","ND","ND","ND","ND","0.2","50.6","24.9","67.5","0","0"],
    [40901,"2015-01-05T00:00:00","31","ND","ND","ND","ND","ND","0.4","162.3","24.5","69.6","0","0"],
    [40902,"2015-01-05T01:00:00","16","ND","ND","ND","ND","ND","0.9","183.3","24","72.4","0","0"],
    [40903,"2015-01-05T02:00:00","15","ND","ND","ND","ND","ND","0.6","140.5","23.7","74.4","0","0"],
    [40904,"2015-01-05T03:00:00","22","ND","ND","ND","ND","ND","0.1","30.5","23.3","76.2","0","0"],
    [40905,"2015-01-05T04:00:00","22","ND","ND","ND","ND","ND","0.7","155.3","23","77.5","0","0"],
    [40906,"2015-01-05T05:00:00","17","ND","ND","ND","ND","ND","0.2","349.5","22.5","79.5","0","0"],
    [40907,"2015-01-05T06:00:00","53","ND","ND","ND","ND","ND","0.6","29","22.4","80.7","0","0"],
    [40908,"2015-01-05T07:00:00","63","ND","ND","ND","ND","ND","0.4","17.1","22.5","79.6","9.9","0"],
    [40909,"2015-01-05T08:00:00","65","ND","ND","ND","ND","ND","0.5","272.9","23","77.7","81.1","0"],
    [40910,"2015-01-05T09:00:00","117","ND","ND","ND","ND","ND","0.5","42.2","25.2","68.2","338.9","0"],
    [40911,"2015-01-05T10:00:00","68","ND","ND","ND","ND","ND","1.4","90.7","26.9","61.8","563.8","0"],
    [40912,"2015-01-05T11:00:00","38","ND","ND","ND","ND","ND","1","53.8","27.9","57.3","699.1","0"],
    [40913,"2015-01-05T12:00:00","61","ND","ND","ND","ND","ND","1.2","61.3","29.1","53.1","738.7","0"],
    [40914,"2015-01-05T13:00:00","36","ND","ND","ND","ND","ND","1.2","58.7","30.5","46.9","771.2","0"],
    [40915,"2015-01-05T14:00:00","34","ND","ND","ND","ND","ND","0.9","16.3","31.1","45.5","578.7","0"],
    [40916,"2015-01-05T15:00:00","26","ND","ND","ND","ND","ND","2.3","266.1","31","45.3","359.4","0"],
    [40917,"2015-01-05T16:00:00","21","ND","ND","ND","ND","ND","3.1","255","31.6","43.5","438.3","0"],
    [40918,"2015-01-05T17:00:00","19","ND","ND","ND","ND","ND","1.8","294","31","43.8","239.7","0"],
    [40919,"2015-01-05T18:00:00","18","ND","ND","ND","ND","ND","1.3","261.1","29.6","47.2","55.2","0"],
    [40920,"2015-01-05T19:00:00","21","ND","ND","ND","ND","ND","1.1","238.8","27.9","50.7","0","0"],
    [40921,"2015-01-05T20:00:00","42","ND","ND","ND","ND","ND","0.6","173.5","27.6","51.2","0","0"],
    [40922,"2015-01-05T21:00:00","74","ND","ND","ND","ND","ND","0.4","194.1","26.7","55.4","0","0"],
    [40923,"2015-01-05T22:00:00","61","ND","ND","ND","ND","ND","0.7","167.5","25.8","60.5","0","0"],
    [40924,"2015-01-05T23:00:00","43","ND","ND","ND","ND","ND","0.6","314.8","24.6","64.3","0","0"],
    [40925,"2015-01-06T00:00:00","68","ND","ND","ND","ND","ND","0.4","347.7","23.8","69","0","0"],
    [40926,"2015-01-06T01:00:00","39","ND","ND","ND","ND","ND","0.1","293.3","23.1","71.5","0","0"],
    [40927,"2015-01-06T02:00:00","42","ND","ND","ND","ND","ND","0.4","22.3","22.5","73.9","0","0"],
    [40928,"2015-01-06T03:00:00","29","ND","ND","ND","ND","ND","0.5","358.6","21.5","80.9","0","0"],
    [40929,"2015-01-06T04:00:00","36","ND","ND","ND","ND","ND","0","320.8","21.4","80.9","0","0"],
    [40930,"2015-01-06T05:00:00","35","ND","ND","ND","ND","ND","0.3","241.7","21.3","80.2","0","0"],
    [40931,"2015-01-06T06:00:00","28","ND","ND","ND","ND","ND","0","266.3","21.7","79.7","0","0"],
    [40932,"2015-01-06T07:00:00","116","ND","ND","ND","ND","ND","0.6","8.3","21.1","83.4","19.3","0"],
    [40933,"2015-01-06T08:00:00","131","ND","ND","ND","ND","ND","0.3","21","22.4","79.1","154","0"],
    [40934,"2015-01-06T09:00:00","126","ND","ND","ND","ND","ND","0.4","100.6","24.3","69.9","336.1","0"],
    [40935,"2015-01-06T10:00:00","79","ND","ND","ND","ND","ND","1.1","48.4","25.9","63.7","517.5","0"],
    [40936,"2015-01-06T11:00:00","67","ND","ND","ND","ND","ND","1.2","50.4","27.1","59.1","569.7","0"],
    [40937,"2015-01-06T12:00:00","63","ND","ND","ND","ND","ND","0.9","129.8","28.3","54.2","542.3","0"],
    [40938,"2015-01-06T13:00:00","ND","ND","ND","ND","ND","ND","0.9","73.2","29.8","50.1","735.5","0"],
    [40939,"2015-01-06T14:00:00","ND","ND","ND","ND","ND","ND","1.2","64.4","31","46.8","683.1","0"],
    [40940,"2015-01-06T15:00:00","ND","ND","ND","ND","ND","ND","2.5","262.6","31.5","42.7","561.5","0"],
    [40941,"2015-01-06T16:00:00","ND","ND","ND","ND","ND","ND","4.1","272.2","30.8","43.8","440.7","0"],
    [40942,"2015-01-06T17:00:00","ND","ND","ND","ND","ND","ND","4.2","271.6","29.7","46.1","235.8","0"],
    [40943,"2015-01-06T18:00:00","ND","ND","ND","ND","ND","ND","2.4","265.5","29.1","46.3","56.4","0"],
    [40944,"2015-01-06T19:00:00","ND","ND","ND","ND","ND","ND","0.6","118.4","28.4","47.8","0","0"],
    [40945,"2015-01-06T20:00:00","ND","ND","ND","ND","ND","ND","0.4","142","27.5","50.7","0","0"],
    [40946,"2015-01-06T21:00:00","ND","ND","ND","ND","ND","ND","0.3","219.1","26.4","55.4","0","0"],
    [40947,"2015-01-06T22:00:00","ND","ND","ND","ND","ND","ND","0.6","96.9","25.4","61.9","0","0"],
    [40948,"2015-01-06T23:00:00","ND","ND","ND","ND","ND","ND","0.4","149.7","25.3","62.7","0","0"],
    [40949,"2015-01-07T00:00:00","ND","ND","ND","ND","ND","ND","0.5","126","24","69.8","0","0"],
    [40950,"2015-01-07T01:00:00","ND","ND","ND","ND","ND","ND","0.1","137.5","23.3","72.9","0","0"],
    [40951,"2015-01-07T02:00:00","ND","ND","ND","ND","ND","ND","0.1","342.6","22.3","76","0","0"],
    [40952,"2015-01-07T03:00:00","ND","ND","ND","ND","ND","ND","0.1","344.8","21.9","78.2","0","0"],
    [40953,"2015-01-07T04:00:00","ND","ND","ND","ND","ND","ND","0.2","256.9","21.4","80.4","0","0"],
    [40954,"2015-01-07T05:00:00","ND","ND","ND","ND","ND","ND","0.4","168.6","21.4","81","0","0"],
    [40955,"2015-01-07T06:00:00","ND","ND","ND","ND","ND","ND","0.4","24.4","20.6","83.1","0","0"],
    [40956,"2015-01-07T07:00:00","ND","ND","ND","ND","ND","ND","0.5","359.8","20.4","82.6","19.2","0"],
    [40957,"2015-01-07T08:00:00","ND","ND","ND","ND","ND","ND","0.6","34.2","21.8","78.1","156.9","0"],
    [40958,"2015-01-07T09:00:00","ND","ND","ND","ND","ND","ND","0.9","72.8","23.7","70.4","336.1","0"],
    [40959,"2015-01-07T10:00:00","ND","ND","ND","ND","ND","ND","1","100.2","25.7","62.5","505.1","0"],
    [40960,"2015-01-07T11:00:00","ND","ND","ND","ND","ND","ND","1.3","117.4","26.9","56.4","522.8","0"],
    [40961,"2015-01-07T12:00:00","ND","ND","ND","ND","ND","ND","1.1","87","28.1","52.8","626.2","0"],
    [40962,"2015-01-07T13:00:00","ND","ND","ND","ND","ND","ND","0.8","75.7","29.5","48.3","725.7","0"],
    [40963,"2015-01-07T14:00:00","ND","ND","ND","ND","ND","ND","0.6","69.1","30.2","46.9","519.8","0"],
    [40964,"2015-01-07T15:00:00","ND","ND","ND","ND","ND","ND","1","292.4","30.5","44.8","301","0"],
    [40965,"2015-01-07T16:00:00","ND","ND","ND","ND","ND","ND","3.7","269.6","30.7","43.2","427.3","0"],
    [40966,"2015-01-07T17:00:00","ND","ND","ND","ND","ND","ND","3.5","269.5","29.6","44.7","208.7","0"],
    [40967,"2015-01-07T18:00:00","ND","ND","ND","ND","ND","ND","0.6","282","28.7","46.8","28.5","0"],
    [40968,"2015-01-07T19:00:00","ND","ND","ND","ND","ND","ND","0.4","239.6","28.3","47.1","0","0"],
    [40969,"2015-01-07T20:00:00","ND","ND","ND","ND","ND","ND","0.5","134.7","27.5","50.3","0","0"],
    [40970,"2015-01-07T21:00:00","ND","ND","ND","ND","ND","ND","0.1","44.2","26.6","53.2","0","0"],
    [40971,"2015-01-07T22:00:00","ND","ND","ND","ND","ND","ND","1.1","121.4","25.4","60.3","0","0"],
    [40972,"2015-01-07T23:00:00","ND","ND","ND","ND","ND","ND","0.5","140.4","24.5","65","0","0"],
    [40973,"2015-01-08T00:00:00","ND","ND","ND","ND","ND","ND","0","164.1","24.3","66.5","0","0"],
    [40974,"2015-01-08T01:00:00","ND","ND","ND","ND","ND","ND","0.3","88.7","23.4","71.2","0","0"],
    [40975,"2015-01-08T02:00:00","ND","ND","ND","ND","ND","ND","0.9","170.8","22.8","73.9","0","0"],
    [40976,"2015-01-08T03:00:00","ND","ND","ND","ND","ND","ND","0.2","288.4","22.7","74.8","0","0"],
    [40977,"2015-01-08T04:00:00","ND","ND","ND","ND","ND","ND","0.3","359.7","22.5","76.1","0","0"],
    [40978,"2015-01-08T05:00:00","ND","ND","ND","ND","ND","ND","0.1","322.2","22.2","78.1","0","0"],
    [40979,"2015-01-08T06:00:00","ND","ND","ND","ND","ND","ND","0.6","336.3","21.8","79.5","0","0"],
    [40980,"2015-01-08T07:00:00","ND","ND","ND","ND","ND","ND","0.2","256.5","21.7","79.9","31.7","0"],
    [40981,"2015-01-08T08:00:00","ND","ND","ND","ND","ND","ND","0.3","48.9","22.7","76.3","91.3","0"],
    [40982,"2015-01-08T09:00:00","ND","ND","ND","ND","ND","ND","0.9","66.8","24.3","68.9","329.5","0"],
    [40983,"2015-01-08T10:00:00","ND","ND","ND","ND","ND","ND","1.2","44.9","25.8","62.7","498","0"],
    [40984,"2015-01-08T11:00:00","ND","ND","ND","ND","ND","ND","1","67.4","27.2","56.8","660.3","0"],
    [40985,"2015-01-08T12:00:00","ND","ND","ND","ND","ND","ND","1","66.6","28.8","51.4","635.7","0"],
    [40986,"2015-01-08T13:00:00","ND","ND","ND","ND","ND","ND","1.3","61","29.6","50.1","601.6","0"],
    [40987,"2015-01-08T14:00:00","ND","ND","ND","ND","ND","ND","1.4","44.1","29.6","50.3","354.1","0"],
    [40988,"2015-01-08T15:00:00","ND","ND","ND","ND","ND","ND","0.9","71","29.9","49.3","365","0"],
    [40989,"2015-01-08T16:00:00","ND","ND","ND","ND","ND","ND","1.1","268.2","30.1","48.3","203.6","0"],
    [40990,"2015-01-08T17:00:00","ND","ND","ND","ND","ND","ND","2.5","256","29.5","48.5","106.1","0"],
    [40991,"2015-01-08T18:00:00","ND","ND","ND","ND","ND","ND","1.2","277.3","28.8","49.6","27.8","0"],
    [40992,"2015-01-08T19:00:00","ND","ND","ND","ND","ND","ND","1.9","249.2","27.8","53.1","0","0"],
    [40993,"2015-01-08T20:00:00","ND","ND","ND","ND","ND","ND","1.3","248","27.6","53.5","0","0"],
    [40994,"2015-01-08T21:00:00","ND","ND","ND","ND","ND","ND","0.4","113.1","27.5","54.5","0","0"],
    [40995,"2015-01-08T22:00:00","ND","ND","ND","ND","ND","ND","0.7","128.5","27","57.7","0","0"],
    [40996,"2015-01-08T23:00:00","ND","ND","ND","ND","ND","ND","0.4","118.3","26.3","62.5","0","0"],
    [40997,"2015-01-09T00:00:00","ND","ND","ND","ND","ND","ND","0.4","78.6","25.6","65.8","0","0"],
    [40998,"2015-01-09T01:00:00","ND","ND","ND","ND","ND","ND","0.1","332.2","25.1","68.4","0","0"],
    [40999,"2015-01-09T02:00:00","ND","ND","ND","ND","ND","ND","0.7","24.4","24.5","71.4","0","0"],
    [41000,"2015-01-09T03:00:00","ND","ND","ND","ND","ND","ND","0.4","335.4","24.1","74.3","0","0"],
    [41001,"2015-01-09T04:00:00","ND","ND","ND","ND","ND","ND","0.5","353.3","23.6","76.5","0","0"],
    [41002,"2015-01-09T05:00:00","ND","ND","ND","ND","ND","ND","0.2","285.1","23.6","76.2","0","0"],
    [41003,"2015-01-09T06:00:00","ND","ND","ND","ND","ND","ND","0.2","4.1","23.5","76.4","0","0"],
    [41004,"2015-01-09T07:00:00","ND","ND","ND","ND","ND","ND","0.4","17.6","23.6","75","12.1","0"],
    [41005,"2015-01-09T08:00:00","ND","ND","ND","ND","ND","ND","0.5","45.6","24.2","73.8","115.8","0"],
    [41006,"2015-01-09T09:00:00","ND","ND","ND","ND","ND","ND","1.1","94","25.7","67.6","273.1","0"],
    [41007,"2015-01-09T10:00:00","ND","ND","ND","ND","ND","ND","1.2","111.5","27.3","60.3","495.7","0"],
    [41008,"2015-01-09T11:00:00","ND","ND","ND","ND","ND","ND","1","126","28.7","54.6","671","0"],
    [41009,"2015-01-09T12:00:00","ND","ND","ND","ND","ND","ND","0.7","69.1","29.3","52.9","527.7","0"],
    [41010,"2015-01-09T13:00:00","ND","ND","ND","ND","ND","ND","0.8","340.4","30.2","49.8","397.1","0"],
    [41011,"2015-01-09T14:00:00","ND","ND","ND","ND","ND","ND","1","51.9","30.1","50.3","288.1","0"],
    [41012,"2015-01-09T15:00:00","ND","ND","ND","ND","ND","ND","1.5","9.5","30.8","47.5","469.8","0"],
    [41013,"2015-01-09T16:00:00","ND","ND","ND","ND","ND","ND","1.6","286.2","30.9","46.7","286.1","0"],
    [41014,"2015-01-09T17:00:00","ND","ND","ND","ND","ND","ND","1.4","294.6","30.9","46.5","291.6","0"],
    [41015,"2015-01-09T18:00:00","ND","ND","ND","ND","ND","ND","0.5","296.9","30.2","48.3","86.1","0"],
    [41016,"2015-01-09T19:00:00","ND","ND","ND","ND","ND","ND","0.6","302.1","28.4","52.1","0","0"],
    [41017,"2015-01-09T20:00:00","ND","ND","ND","ND","ND","ND","0.7","103.3","27.8","53.2","0","0"],
    [41018,"2015-01-09T21:00:00","ND","ND","ND","ND","ND","ND","0.4","87.3","27.4","54.6","0","0"],
    [41019,"2015-01-09T22:00:00","ND","ND","ND","ND","ND","ND","1.9","120.1","27.3","56.2","0","0"],
    [41020,"2015-01-09T23:00:00","ND","ND","ND","ND","ND","ND","0.6","51.8","25.7","64.7","0","0"],
    [41021,"2015-01-10T00:00:00","ND","ND","ND","ND","ND","ND","0.2","27.6","25.6","65.4","0","0"],
    [41022,"2015-01-10T01:00:00","ND","ND","ND","ND","ND","ND","0.7","43.1","25.2","68.4","0","0"],
    [41023,"2015-01-10T02:00:00","ND","ND","ND","ND","ND","ND","0.7","32.9","24.2","73.5","0","0"],
    [41024,"2015-01-10T03:00:00","ND","ND","ND","ND","ND","ND","1.1","169.1","24.3","73.1","0","0"],
    [41025,"2015-01-10T04:00:00","ND","ND","ND","ND","ND","ND","0.5","126.2","24.3","72.8","0","0"],
    [41026,"2015-01-10T05:00:00","ND","ND","ND","ND","ND","ND","0.4","162.5","23.8","74.7","0","0"],
    [41027,"2015-01-10T06:00:00","ND","ND","ND","ND","ND","ND","1.1","31.7","23.2","81","0","0"],
    [41028,"2015-01-10T07:00:00","ND","ND","ND","ND","ND","ND","0.8","1.9","22.4","86.2","17.1","0"],
    [41029,"2015-01-10T08:00:00","ND","ND","ND","ND","ND","ND","0","216.8","23.4","81.8","82.6","0"],
    [41030,"2015-01-10T09:00:00","ND","ND","ND","ND","ND","ND","0.3","84.3","26","68.4","336.5","0"],
    [41031,"2015-01-10T10:00:00","ND","ND","ND","ND","ND","ND","1.2","86.3","27.4","62.7","430.6","0"],
    [41032,"2015-01-10T11:00:00","ND","ND","ND","ND","ND","ND","1.2","110.1","28.6","57.9","678.1","0"],
    [41033,"2015-01-10T12:00:00","ND","ND","ND","ND","ND","ND","1.3","64.7","29.5","53.5","612.6","0"],
    [41034,"2015-01-10T13:00:00","ND","ND","ND","ND","ND","ND","0.1","340.7","30.6","49.6","419.5","0"],
    [41035,"2015-01-10T14:00:00","ND","ND","ND","ND","ND","ND","2.3","251.3","31","45.6","334.5","0"],
    [41036,"2015-01-10T15:00:00","ND","ND","ND","ND","ND","ND","2.7","255.1","32","41.7","571","0"],
    [41037,"2015-01-10T16:00:00","ND","ND","ND","ND","ND","ND","2.9","259.9","31.7","42","386.5","0"],
    [41038,"2015-01-10T17:00:00","ND","ND","ND","ND","ND","ND","2.4","256","30.8","44.8","132.7","0"],
    [41039,"2015-01-10T18:00:00","ND","ND","ND","ND","ND","ND","0.9","243.1","30.2","45.9","61.3","0"],
    [41040,"2015-01-10T19:00:00","ND","ND","ND","ND","ND","ND","0.8","232","28.4","51.1","0","0"],
    [41041,"2015-01-10T20:00:00","ND","ND","ND","ND","ND","ND","0.6","250","27.4","54.1","0","0"],
    [41042,"2015-01-10T21:00:00","ND","ND","ND","ND","ND","ND","0.2","270.9","26.6","56.8","0","0"],
    [41043,"2015-01-10T22:00:00","ND","ND","ND","ND","ND","ND","0.7","133.1","26","60.3","0","0"],
    [41044,"2015-01-10T23:00:00","ND","ND","ND","ND","ND","ND","0.2","40","24.8","66","0","0"],
    [41045,"2015-01-11T00:00:00","ND","ND","ND","ND","ND","ND","0.2","306.3","24.2","68.6","0","0"],
    [41046,"2015-01-11T01:00:00","ND","ND","ND","ND","ND","ND","1.1","9.9","23.2","74","0","0"],
    [41047,"2015-01-11T02:00:00","ND","ND","ND","ND","ND","ND","0.2","43.4","22.7","76.7","0","0"],
    [41048,"2015-01-11T03:00:00","ND","ND","ND","ND","ND","ND","0.4","153.6","23","75.8","0","0"],
    [41049,"2015-01-11T04:00:00","ND","ND","ND","ND","ND","ND","0.9","163.6","22.5","78.5","0","0"],
    [41050,"2015-01-11T05:00:00","ND","ND","ND","ND","ND","ND","0.4","184.5","22.2","78.9","0","0"],
    [41051,"2015-01-11T06:00:00","ND","ND","ND","ND","ND","ND","0.5","274.6","21.9","79.9","0","0"],
    [41052,"2015-01-11T07:00:00","ND","ND","ND","ND","ND","ND","0.3","144.6","22.2","77.6","17.4","0"],
    [41053,"2015-01-11T08:00:00","ND","ND","ND","ND","ND","ND","0.8","13.5","22.5","79.8","143","0"],
    [41054,"2015-01-11T09:00:00","ND","ND","ND","ND","ND","ND","0.7","78.9","24.5","69.7","339.8","0"],
    [41055,"2015-01-11T10:00:00","ND","ND","ND","ND","ND","ND","1.3","123.9","26.5","61.9","472.7","0"],
    [41056,"2015-01-11T11:00:00","ND","ND","ND","ND","ND","ND","0.9","75.2","27.6","57.6","619.1","0"],
    [41057,"2015-01-11T12:00:00","ND","ND","ND","ND","ND","ND","1.5","103.5","28.7","55.4","541.8","0"],
    [41058,"2015-01-11T13:00:00","ND","ND","ND","ND","ND","ND","1.4","106.8","29.5","53.5","467.9","0"],
    [41059,"2015-01-11T14:00:00","ND","ND","ND","ND","ND","ND","1.2","59.3","29.9","53.1","412.3","0"],
    [41060,"2015-01-11T15:00:00","ND","ND","ND","ND","ND","ND","1.2","56","30.6","50.8","329.3","0"],
    [41061,"2015-01-11T16:00:00","ND","ND","ND","ND","ND","ND","0.6","272.3","30.5","49.3","184.7","0"],
    [41062,"2015-01-11T17:00:00","ND","ND","ND","ND","ND","ND","2","248.9","30.1","49.6","140.3","0"],
    [41063,"2015-01-11T18:00:00","ND","ND","ND","ND","ND","ND","2.6","244.1","29","52","47.3","0"],
    [41064,"2015-01-11T19:00:00","ND","ND","ND","ND","ND","ND","0.9","248.1","28","54.5","0","0"],
    [41065,"2015-01-11T20:00:00","ND","ND","ND","ND","ND","ND","0.1","159.7","27.6","55.5","0","0"],
    [41066,"2015-01-11T21:00:00","ND","ND","ND","ND","ND","ND","0.4","129.8","26.6","60.3","0","0"],
    [41067,"2015-01-11T22:00:00","ND","ND","ND","ND","ND","ND","0.4","65.2","25.5","66.7","0","0"],
    [41068,"2015-01-11T23:00:00","ND","ND","ND","ND","ND","ND","0.4","206.2","24.8","70.3","0","0"],
    [41069,"2015-01-12T00:00:00","ND","ND","ND","ND","ND","ND","0.6","354","24.2","72.3","0","0"],
    [41070,"2015-01-12T01:00:00","ND","ND","ND","ND","ND","ND","0.7","184.2","24.3","72.2","0","0"],
    [41071,"2015-01-12T02:00:00","ND","ND","ND","ND","ND","ND","0.2","82.6","23.8","74","0","0"],
    [41072,"2015-01-12T03:00:00","ND","ND","ND","ND","ND","ND","0.8","189","23.1","76.9","0","0"],
    [41073,"2015-01-12T04:00:00","ND","ND","ND","ND","ND","ND","1.1","212.5","23.3","75.9","0","0"],
    [41074,"2015-01-12T05:00:00","ND","ND","ND","ND","ND","ND","0.3","223.6","23","77","0","0"],
    [41075,"2015-01-12T06:00:00","ND","ND","ND","ND","ND","ND","0.3","20.8","22.4","79.4","0","0"],
    [41076,"2015-01-12T07:00:00","ND","ND","ND","ND","ND","ND","1.1","20.6","21.8","82.9","10.6","0"],
    [41077,"2015-01-12T08:00:00","ND","ND","ND","ND","ND","ND","0.4","1.2","22.7","79.9","93.7","0"],
    [41078,"2015-01-12T09:00:00","ND","ND","ND","ND","ND","ND","1","133.5","24.8","69.8","300.9","0"],
    [41079,"2015-01-12T10:00:00","ND","ND","ND","ND","ND","ND","1.3","129.1","26.1","62.8","511.7","0"],
    [41080,"2015-01-12T11:00:00","ND","ND","ND","ND","ND","ND","0.8","133.1","28","55.9","647.4","0"],
    [41081,"2015-01-12T12:00:00","ND","ND","ND","ND","ND","ND","1.7","121.2","29.5","52","710.2","0"],
    [41082,"2015-01-12T13:00:00","ND","ND","ND","ND","ND","ND","1.5","117.9","30.8","47.8","692.8","0"],
    [41083,"2015-01-12T14:00:00","ND","ND","ND","ND","ND","ND","1","116.3","31.3","45.9","405.9","0"],
    [41084,"2015-01-12T15:00:00","ND","ND","ND","ND","ND","ND","0.9","30","32.6","41.9","651.2","0"],
    [41085,"2015-01-12T16:00:00","ND","ND","ND","ND","ND","ND","1.7","280.4","31.7","44.3","278.7","0"],
    [41086,"2015-01-12T17:00:00","ND","ND","ND","ND","ND","ND","3.6","281.4","30.9","46.1","252.7","0"],
    [41087,"2015-01-12T18:00:00","ND","ND","ND","ND","ND","ND","2.6","268.5","29.7","48.5","56.6","0"],
    [41088,"2015-01-12T19:00:00","ND","ND","ND","ND","ND","ND","0.2","87.4","29","49.6","0","0"],
    [41089,"2015-01-12T20:00:00","ND","ND","ND","ND","ND","ND","0.2","112.5","28.1","51.9","0","0"],
    [41090,"2015-01-12T21:00:00","ND","ND","ND","ND","ND","ND","0.9","94","27.7","55.1","0","0"],
    [41091,"2015-01-12T22:00:00","ND","ND","ND","ND","ND","ND","0.6","136.8","26.4","61.3","0","0"],
    [41092,"2015-01-12T23:00:00","ND","ND","ND","ND","ND","ND","0.5","105.3","25.7","65.1","0","0"],
    [41093,"2015-01-13T00:00:00","ND","ND","ND","ND","ND","ND","0.3","328.9","24.9","68.5","0","0"],
    [41094,"2015-01-13T01:00:00","ND","ND","ND","ND","ND","ND","0.3","34.7","24.4","71.9","0","0"],
    [41095,"2015-01-13T02:00:00","ND","ND","ND","ND","ND","ND","0.3","67.7","23.9","74.2","0","0"],
    [41096,"2015-01-13T03:00:00","ND","ND","ND","ND","ND","ND","0.4","143.9","23.6","75.2","0","0"],
    [41097,"2015-01-13T04:00:00","ND","ND","ND","ND","ND","ND","0.5","153.1","23.3","76.4","0","0"],
    [41098,"2015-01-13T05:00:00","ND","ND","ND","ND","ND","ND","0.3","304.2","23.1","77.7","0","0"],
    [41099,"2015-01-13T06:00:00","ND","ND","ND","ND","ND","ND","0.6","49","22.6","80.6","0","0"],
    [41100,"2015-01-13T07:00:00","ND","ND","ND","ND","ND","ND","0.3","278","22.7","80.4","25.6","0"],
    [41101,"2015-01-13T08:00:00","ND","ND","ND","ND","ND","ND","1","133.3","24","73.5","114.8","0"],
    [41102,"2015-01-13T09:00:00","ND","ND","ND","ND","ND","ND","1.6","112.7","25.5","66.6","360.3","0"],
    [41103,"2015-01-13T10:00:00","ND","ND","ND","ND","ND","ND","1","122.2","27.1","61.2","562.5","0"],
    [41104,"2015-01-13T11:00:00","ND","ND","ND","ND","ND","ND","1.3","103.8","28.3","57","631.2","0"],
    [41105,"2015-01-13T12:00:00","ND","ND","ND","ND","ND","ND","1","90.8","28.9","54.6","469.2","0"],
    [41106,"2015-01-13T13:00:00","ND","ND","ND","ND","ND","ND","1.1","52.1","30.2","51.5","616.6","0"],
    [41107,"2015-01-13T14:00:00","ND","ND","ND","ND","ND","ND","0.9","60.5","31.2","47.8","512","0"],
    [41108,"2015-01-13T15:00:00","ND","ND","ND","ND","ND","ND","3.8","272.6","31.5","44.6","546.7","0"],
    [41109,"2015-01-13T16:00:00","ND","ND","ND","ND","ND","ND","5","278.9","30.4","47.3","451.4","0"],
    [41110,"2015-01-13T17:00:00","ND","ND","ND","ND","ND","ND","6.6","278.3","29.2","50.6","221.1","0"],
    [41111,"2015-01-13T18:00:00","ND","ND","ND","ND","ND","ND","4.8","276.6","28.9","50","84.7","0"],
    [41112,"2015-01-13T19:00:00","ND","ND","ND","ND","ND","ND","1.7","269.6","28.6","50.7","0","0"],
    [41113,"2015-01-13T20:00:00","ND","ND","ND","ND","ND","ND","1.7","175.7","27.9","53.8","0","0"],
    [41114,"2015-01-13T21:00:00","ND","ND","ND","ND","ND","ND","0.4","89","27.2","56.5","0","0"],
    [41115,"2015-01-13T22:00:00","ND","ND","ND","ND","ND","ND","0.8","88.3","26.8","58","0","0"],
    [41116,"2015-01-13T23:00:00","ND","ND","ND","ND","ND","ND","1.2","145.5","26","62.7","0","0"],
    [41117,"2015-01-14T00:00:00","ND","ND","ND","ND","ND","ND","0.1","85.4","25.3","65.6","0","0"],
    [41118,"2015-01-14T01:00:00","ND","ND","ND","ND","ND","ND","0.9","209.8","25","67.1","0","0"],
    [41119,"2015-01-14T02:00:00","ND","ND","ND","ND","ND","ND","0.6","138.9","24.6","68.5","0","0"],
    [41120,"2015-01-14T03:00:00","ND","ND","ND","ND","ND","ND","0.9","200.1","24.5","68.7","0","0"],
    [41121,"2015-01-14T04:00:00","ND","ND","ND","ND","ND","ND","1.6","174.3","24.2","72.2","0","0"],
    [41122,"2015-01-14T05:00:00","ND","ND","ND","ND","ND","ND","0.2","261.9","24.1","73.8","0","0"],
    [41123,"2015-01-14T06:00:00","ND","ND","ND","ND","ND","ND","0.4","346.3","23.2","77.5","0","0"],
    [41124,"2015-01-14T07:00:00","ND","ND","ND","ND","ND","ND","0.6","117.3","23.7","76.2","39.2","0"],
    [41125,"2015-01-14T08:00:00","ND","ND","ND","ND","ND","ND","0.5","350.3","23.8","76.5","29.4","0"],
    [41126,"2015-01-14T09:00:00","ND","ND","ND","ND","ND","ND","1.1","185.9","23.4","81.6","46.9","0"],
    [41127,"2015-01-14T10:00:00","51","ND","ND","ND","ND","ND","0.7","256","24","80.8","247.4","0"],
    [41128,"2015-01-14T11:00:00","32","ND","ND","ND","ND","ND","1.3","103.5","27.1","59.8","627","0"],
    [41129,"2015-01-14T12:00:00","23","ND","ND","ND","ND","ND","0.7","114.9","28","56.3","361.4","0"],
    [41130,"2015-01-14T13:00:00","30","ND","ND","ND","ND","ND","1.1","244","28.1","55.2","310.9","0"],
    [41131,"2015-01-14T14:00:00","33","ND","ND","ND","ND","ND","0.6","188.9","29.9","49","669.5","0"],
    [41132,"2015-01-14T15:00:00","32","ND","ND","ND","ND","ND","1.3","236.7","31.3","44.3","504.4","0"],
    [41133,"2015-01-14T16:00:00","32","ND","ND","ND","ND","ND","1.8","250.6","31.2","45","300.9","0"],
    [41134,"2015-01-14T17:00:00","30","ND","ND","ND","ND","ND","3.4","276.3","29.4","50.3","140.7","0"],
    [41135,"2015-01-14T18:00:00","24","ND","ND","ND","ND","ND","2.5","281.5","28.2","52.4","49.8","0"],
    [41136,"2015-01-14T19:00:00","31","ND","ND","ND","ND","ND","1","118.9","28","52.6","0","0"],
    [41137,"2015-01-14T20:00:00","46","ND","ND","ND","ND","ND","1.1","108.2","27.6","54.5","0","0"],
    [41138,"2015-01-14T21:00:00","29","ND","ND","ND","ND","ND","1.5","179","27.2","55.8","0","0"],
    [41139,"2015-01-14T22:00:00","12","ND","ND","ND","ND","ND","2.5","187.3","26.5","59.8","0","0"],
    [41140,"2015-01-14T23:00:00","10","ND","ND","ND","ND","ND","1.4","221.7","25.7","63.7","0","0"],
    [41141,"2015-01-15T00:00:00","19","ND","ND","ND","ND","ND","0.4","314","25.7","62.1","0","0"],
    [41142,"2015-01-15T01:00:00","9","ND","ND","ND","ND","ND","0.6","28.3","25.3","64.7","0","0"],
    [41143,"2015-01-15T02:00:00","38","ND","ND","ND","ND","ND","1","112.3","23.9","76.6","0","4.83"],
    [41144,"2015-01-15T03:00:00","30","ND","ND","ND","ND","ND","1.2","297.8","21.5","94","0","22.86"],
    [41145,"2015-01-15T04:00:00","9","ND","ND","ND","ND","ND","ND","ND","ND","ND","ND","50.8"],
    [41146,"2015-01-15T05:00:00","5","ND","ND","ND","ND","ND","ND","ND","ND","ND","ND","12.95"],
    [41147,"2015-01-15T06:00:00","8","ND","ND","ND","ND","ND","ND","ND","ND","ND","ND","13.97"],
    [41148,"2015-01-15T07:00:00","8","ND","ND","ND","ND","ND","ND","ND","ND","ND","ND","1.52"],
    [41149,"2015-01-15T08:00:00","21","ND","ND","ND","ND","ND","ND","ND","ND","ND","ND","2.03"],
    [41150,"2015-01-15T09:00:00","19","ND","ND","ND","ND","ND","ND","ND","ND","ND","ND","1.52"],
    [41151,"2015-01-15T10:00:00","12","ND","ND","ND","ND","ND","ND","ND","ND","ND","ND","0"],
    [41152,"2015-01-15T11:00:00","29","ND","ND","ND","ND","ND","ND","ND","ND","ND","ND","0"],
    [41153,"2015-01-15T12:00:00","32","ND","ND","ND","ND","ND","ND","ND","ND","ND","ND","0"],
    [41154,"2015-01-15T13:00:00","41","ND","ND","ND","ND","ND","ND","ND","ND","ND","ND","0"],
    [41155,"2015-01-15T14:00:00","30","ND","ND","ND","ND","ND","ND","ND","ND","ND","ND","0"],
    [41156,"2015-01-15T15:00:00","26","ND","ND","ND","ND","ND","ND","ND","ND","ND","ND","0"],
    [41157,"2015-01-15T16:00:00","21","ND","ND","ND","ND","ND","ND","ND","ND","ND","ND","0"],
    [41158,"2015-01-15T17:00:00","38","ND","ND","ND","ND","ND","ND","ND","ND","ND","ND","0"],
    [41159,"2015-01-15T18:00:00","38","ND","ND","ND","ND","ND","ND","ND","ND","ND","ND","0"],
    [41160,"2015-01-15T19:00:00","37","ND","ND","ND","ND","ND","ND","ND","ND","ND","ND","0"],
    [41161,"2015-01-15T20:00:00","28","ND","ND","ND","ND","ND","ND","ND","ND","ND","ND","0"],
    [41162,"2015-01-15T21:00:00","70","ND","ND","ND","ND","ND","ND","ND","ND","ND","ND","0"],
    [41163,"2015-01-15T22:00:00","58","ND","ND","ND","ND","ND","ND","ND","ND","ND","ND","0"],
    [41164,"2015-01-15T23:00:00","50","ND","ND","ND","ND","ND","ND","ND","ND","ND","ND","0"],
    [41165,"2015-01-16T00:00:00","46","ND","ND","ND","ND","ND","ND","ND","ND","ND","ND","0"],
    [41166,"2015-01-16T01:00:00","44","ND","ND","ND","ND","ND","ND","ND","ND","ND","ND","0"],
    [41167,"2015-01-16T02:00:00","29","ND","ND","ND","ND","ND","ND","ND","ND","ND","ND","0"],
    [41168,"2015-01-16T03:00:00","29","ND","ND","ND","ND","ND","ND","ND","ND","ND","ND","0"],
    [41169,"2015-01-16T04:00:00","121","ND","ND","ND","ND","ND","ND","ND","ND","ND","ND","0"],
    [41170,"2015-01-16T05:00:00","70","ND","ND","ND","ND","ND","ND","ND","ND","ND","ND","0"],
    [41171,"2015-01-16T06:00:00","42","ND","ND","ND","ND","ND","ND","ND","ND","ND","ND","0"],
    [41172,"2015-01-16T07:00:00","91","ND","ND","ND","ND","ND","ND","ND","ND","ND","ND","0"],
    [41173,"2015-01-16T08:00:00","101","ND","ND","ND","ND","ND","ND","ND","ND","ND","ND","0"],
    [41174,"2015-01-16T09:00:00","87","ND","ND","ND","ND","ND","ND","ND","ND","ND","ND","0"],
    [41175,"2015-01-16T10:00:00","50","ND","ND","ND","ND","ND","ND","ND","ND","ND","ND","0"],
    [41176,"2015-01-16T11:00:00","78","ND","ND","ND","ND","ND","ND","ND","ND","ND","ND","0"],
    [41177,"2015-01-16T12:00:00","59","ND","ND","ND","ND","ND","ND","ND","ND","ND","ND","0"],
    [41178,"2015-01-16T13:00:00","46","ND","ND","ND","ND","ND","ND","ND","ND","ND","ND","0"],
    [41179,"2015-01-16T14:00:00","54","ND","ND","ND","ND","ND","ND","ND","ND","ND","ND","0"],
    [41180,"2015-01-16T15:00:00","27","ND","ND","ND","ND","ND","ND","ND","ND","ND","ND","0"],
    [41181,"2015-01-16T16:00:00","24","ND","ND","ND","ND","ND","ND","ND","ND","ND","ND","0"],
    [41182,"2015-01-16T17:00:00","15","ND","ND","ND","ND","ND","ND","ND","ND","ND","ND","0"],
    [41183,"2015-01-16T18:00:00","35","ND","ND","ND","ND","ND","ND","ND","ND","ND","ND","0"],
    [41184,"2015-01-16T19:00:00","45","ND","ND","ND","ND","ND","ND","ND","ND","ND","ND","0"],
    [41185,"2015-01-16T20:00:00","57","ND","ND","ND","ND","ND","ND","ND","ND","ND","ND","0"],
    [41186,"2015-01-16T21:00:00","78","ND","ND","ND","ND","ND","ND","ND","ND","ND","ND","0"],
    [41187,"2015-01-16T22:00:00","47","ND","ND","ND","ND","ND","ND","ND","ND","ND","ND","0"],
    [41188,"2015-01-16T23:00:00","32","ND","ND","ND","ND","ND","ND","ND","ND","ND","ND","0"],
    [41189,"2015-01-17T00:00:00","94","ND","ND","ND","ND","ND","ND","ND","ND","ND","ND","0"],
    [41190,"2015-01-17T01:00:00","76","ND","ND","ND","ND","ND","ND","ND","ND","ND","ND","0"],
    [41191,"2015-01-17T02:00:00","71","ND","ND","ND","ND","ND","ND","ND","ND","ND","ND","0"],
    [41192,"2015-01-17T03:00:00","47","ND","ND","ND","ND","ND","ND","ND","ND","ND","ND","0"],
    [41193,"2015-01-17T04:00:00","40","ND","ND","ND","ND","ND","ND","ND","ND","ND","ND","0"],
    [41194,"2015-01-17T05:00:00","64","ND","ND","ND","ND","ND","ND","ND","ND","ND","ND","0"],
    [41195,"2015-01-17T06:00:00","61","ND","ND","ND","ND","ND","ND","ND","ND","ND","ND","0"],
    [41196,"2015-01-17T07:00:00","67","ND","ND","ND","ND","ND","ND","ND","ND","ND","ND","0"],
    [41197,"2015-01-17T08:00:00","90","ND","ND","ND","ND","ND","ND","ND","ND","ND","ND","0"],
    [41198,"2015-01-17T09:00:00","102","ND","ND","ND","ND","ND","ND","ND","ND","ND","ND","0"],
    [41199,"2015-01-17T10:00:00","36","ND","ND","ND","ND","ND","ND","ND","ND","ND","ND","0.25"],
    [41200,"2015-01-17T11:00:00","49","ND","ND","ND","ND","ND","ND","ND","ND","ND","ND","0"],
    [41201,"2015-01-17T12:00:00","34","ND","ND","ND","ND","ND","ND","ND","ND","ND","ND","0"],
    [41202,"2015-01-17T13:00:00","34","ND","ND","ND","ND","ND","ND","ND","ND","ND","ND","0"],
    [41203,"2015-01-17T14:00:00","25","ND","ND","ND","ND","ND","ND","ND","ND","ND","ND","1.78"],
    [41204,"2015-01-17T15:00:00","12","ND","ND","ND","ND","ND","ND","ND","ND","ND","ND","0.25"],
    [41205,"2015-01-17T16:00:00","6","ND","ND","ND","ND","ND","ND","ND","ND","ND","ND","0"],
    [41206,"2015-01-17T17:00:00","15","ND","ND","ND","ND","ND","ND","ND","ND","ND","ND","0"],
    [41207,"2015-01-17T18:00:00","13","ND","ND","ND","ND","ND","ND","ND","ND","ND","ND","0"],
    [41208,"2015-01-17T19:00:00","25","ND","ND","ND","ND","ND","ND","ND","ND","ND","ND","0"],
    [41209,"2015-01-17T20:00:00","21","ND","ND","ND","ND","ND","ND","ND","ND","ND","ND","0"],
    [41210,"2015-01-17T21:00:00","18","ND","ND","ND","ND","ND","ND","ND","ND","ND","ND","8.89"],
    [41211,"2015-01-17T22:00:00","6","ND","ND","ND","ND","ND","ND","ND","ND","ND","ND","16"],
    [41212,"2015-01-17T23:00:00","4","ND","ND","ND","ND","ND","ND","ND","ND","ND","ND","6.86"],
    [41213,"2015-01-18T00:00:00","1","ND","ND","ND","ND","ND","ND","ND","ND","ND","ND","4.83"],
    [41214,"2015-01-18T01:00:00","1","ND","ND","ND","ND","ND","ND","ND","ND","ND","ND","4.83"],
    [41215,"2015-01-18T02:00:00","2","ND","ND","ND","ND","ND","ND","ND","ND","ND","ND","0.25"],
    [41216,"2015-01-18T03:00:00","4","ND","ND","ND","ND","ND","ND","ND","ND","ND","ND","0"],
    [41217,"2015-01-18T04:00:00","4","ND","ND","ND","ND","ND","ND","ND","ND","ND","ND","0.25"],
    [41218,"2015-01-18T05:00:00","7","ND","ND","ND","ND","ND","ND","ND","ND","ND","ND","0"],
    [41219,"2015-01-18T06:00:00","21","ND","ND","ND","ND","ND","ND","ND","ND","ND","ND","0"],
    [41220,"2015-01-18T07:00:00","21","ND","ND","ND","ND","ND","ND","ND","ND","ND","ND","0"],
    [41221,"2015-01-18T08:00:00","19","ND","ND","ND","ND","ND","ND","ND","ND","ND","ND","0"],
    [41222,"2015-01-18T09:00:00","32","ND","ND","ND","ND","ND","ND","ND","ND","ND","ND","0"],
    [41223,"2015-01-18T10:00:00","32","ND","ND","ND","ND","ND","ND","ND","ND","ND","ND","0"],
    [41224,"2015-01-18T11:00:00","27","ND","ND","ND","ND","ND","ND","ND","ND","ND","ND","0"],
    [41225,"2015-01-18T12:00:00","23","ND","ND","ND","ND","ND","ND","ND","ND","ND","ND","0"],
    [41226,"2015-01-18T13:00:00","10","ND","ND","ND","ND","ND","ND","ND","ND","ND","ND","0"],
    [41227,"2015-01-18T14:00:00","14","ND","ND","ND","ND","ND","ND","ND","ND","ND","ND","0"],
    [41228,"2015-01-18T15:00:00","17","ND","ND","ND","ND","ND","ND","ND","ND","ND","ND","0"],
    [41229,"2015-01-18T16:00:00","27","ND","ND","ND","ND","ND","ND","ND","ND","ND","ND","0"],
    [41230,"2015-01-18T17:00:00","23","ND","ND","ND","ND","ND","ND","ND","ND","ND","ND","0"],
    [41231,"2015-01-18T18:00:00","23","ND","ND","ND","ND","ND","ND","ND","ND","ND","ND","0"],
    [41232,"2015-01-18T19:00:00","ND","ND","ND","ND","ND","ND","ND","ND","ND","ND","ND","0"],
    [41233,"2015-01-18T20:00:00","ND","ND","ND","ND","ND","ND","ND","ND","ND","ND","ND","0"],
    [41234,"2015-01-18T21:00:00","21","ND","ND","ND","ND","ND","ND","ND","ND","ND","ND","0.25"],
    [41235,"2015-01-18T22:00:00","29","ND","ND","ND","ND","ND","ND","ND","ND","ND","ND","0"],
    [41236,"2015-01-18T23:00:00","33","ND","ND","ND","ND","ND","ND","ND","ND","ND","ND","0"],
    [41237,"2015-01-19T00:00:00","54","ND","ND","ND","ND","ND","ND","ND","ND","ND","ND","0"],
    [41238,"2015-01-19T01:00:00","186","ND","ND","ND","ND","ND","ND","ND","ND","ND","ND","0"],
    [41239,"2015-01-19T02:00:00","34","ND","ND","ND","ND","ND","ND","ND","ND","ND","ND","0"],
    [41240,"2015-01-19T03:00:00","42","ND","ND","ND","ND","ND","ND","ND","ND","ND","ND","0"],
    [41241,"2015-01-19T04:00:00","61","ND","ND","ND","ND","ND","ND","ND","ND","ND","ND","0"],
    [41242,"2015-01-19T05:00:00","41","ND","ND","ND","ND","ND","ND","ND","ND","ND","ND","0"],
    [41243,"2015-01-19T06:00:00","50","ND","ND","ND","ND","ND","ND","ND","ND","ND","ND","0"],
    [41244,"2015-01-19T07:00:00","93","ND","ND","ND","ND","ND","ND","ND","ND","ND","ND","0"],
    [41245,"2015-01-19T08:00:00","80","ND","ND","ND","ND","ND","ND","ND","ND","ND","ND","0"],
    [41246,"2015-01-19T09:00:00","87","ND","ND","ND","ND","ND","ND","ND","ND","ND","ND","0"],
    [41247,"2015-01-19T10:00:00","80","ND","ND","ND","ND","ND","ND","ND","ND","ND","ND","0"],
    [41248,"2015-01-19T11:00:00","53","ND","ND","ND","ND","ND","ND","ND","ND","ND","ND","0"],
    [41249,"2015-01-19T12:00:00","49","ND","ND","ND","ND","ND","ND","ND","ND","ND","ND","0"],
    [41250,"2015-01-19T13:00:00","50","ND","ND","ND","ND","ND","ND","ND","ND","ND","ND","0"],
    [41251,"2015-01-19T14:00:00","25","ND","ND","ND","ND","ND","ND","ND","ND","ND","ND","0"],
    [41252,"2015-01-19T15:00:00","27","ND","ND","ND","ND","ND","ND","ND","ND","ND","ND","0"],
    [41253,"2015-01-19T16:00:00","ND","ND","ND","ND","ND","ND","ND","ND","ND","ND","ND","0"],
    [41254,"2015-01-19T17:00:00","28","ND","ND","ND","ND","ND","ND","ND","ND","ND","ND","0"],
    [41255,"2015-01-19T18:00:00","50","ND","ND","ND","ND","ND","ND","ND","ND","ND","ND","0"],
    [41256,"2015-01-19T19:00:00","71","ND","ND","ND","ND","ND","ND","ND","ND","ND","ND","0"],
    [41257,"2015-01-19T20:00:00","32","ND","ND","ND","ND","ND","ND","ND","ND","ND","ND","0"],
    [41258,"2015-01-19T21:00:00","45","ND","ND","ND","ND","ND","ND","ND","ND","ND","ND","0"],
    [41259,"2015-01-19T22:00:00","38","ND","ND","ND","ND","ND","ND","ND","ND","ND","ND","0"],
    [41260,"2015-01-19T23:00:00","47","ND","ND","ND","ND","ND","ND","ND","ND","ND","ND","0"],
    [41261,"2015-01-20T00:00:00","37","ND","ND","ND","ND","ND","ND","ND","ND","ND","ND","0"],
    [41262,"2015-01-20T01:00:00","47","ND","ND","ND","ND","ND","ND","ND","ND","ND","ND","0"],
    [41263,"2015-01-20T02:00:00","48","ND","ND","ND","ND","ND","ND","ND","ND","ND","ND","0"],
    [41264,"2015-01-20T03:00:00","38","ND","ND","ND","ND","ND","ND","ND","ND","ND","ND","0"],
    [41265,"2015-01-20T04:00:00","46","ND","ND","ND","ND","ND","ND","ND","ND","ND","ND","0"],
    [41266,"2015-01-20T05:00:00","38","ND","ND","ND","ND","ND","ND","ND","ND","ND","ND","0"],
    [41267,"2015-01-20T06:00:00","18","ND","ND","ND","ND","ND","ND","ND","ND","ND","ND","0"],
    [41268,"2015-01-20T07:00:00","66","ND","ND","ND","ND","ND","ND","ND","ND","ND","ND","0"],
    [41269,"2015-01-20T08:00:00","100","ND","ND","ND","ND","ND","ND","ND","ND","ND","ND","0"],
    [41270,"2015-01-20T09:00:00","75","ND","ND","ND","ND","ND","ND","ND","ND","ND","ND","0"],
    [41271,"2015-01-20T10:00:00","82","ND","ND","ND","ND","ND","ND","ND","ND","ND","ND","0"],
    [41272,"2015-01-20T11:00:00","52","ND","ND","ND","ND","ND","ND","ND","ND","ND","ND","0"],
    [41273,"2015-01-20T12:00:00","45","ND","ND","ND","ND","ND","ND","ND","ND","ND","ND","0"],
    [41274,"2015-01-20T13:00:00","63","ND","ND","ND","ND","ND","ND","ND","ND","ND","ND","0"],
    [41275,"2015-01-20T14:00:00","54","ND","ND","ND","ND","ND","ND","ND","ND","ND","ND","0"],
    [41276,"2015-01-20T15:00:00","30","ND","ND","ND","ND","ND","ND","ND","ND","ND","ND","0"],
    [41277,"2015-01-20T16:00:00","26","ND","ND","ND","ND","ND","ND","ND","ND","ND","ND","0"],
    [41278,"2015-01-20T17:00:00","28","ND","ND","ND","ND","ND","ND","ND","ND","ND","ND","0"],
    [41279,"2015-01-20T18:00:00","22","ND","ND","ND","ND","ND","ND","ND","ND","ND","ND","0"],
    [41280,"2015-01-20T19:00:00","28","ND","ND","ND","ND","ND","ND","ND","ND","ND","ND","0"],
    [41281,"2015-01-20T20:00:00","31","ND","ND","ND","ND","ND","ND","ND","ND","ND","ND","0"],
    [41282,"2015-01-20T21:00:00","48","ND","ND","ND","ND","ND","ND","ND","ND","ND","ND","0"],
    [41283,"2015-01-20T22:00:00","17","ND","ND","ND","ND","ND","ND","ND","ND","ND","ND","0"],
    [41284,"2015-01-20T23:00:00","17","ND","ND","ND","ND","ND","ND","ND","ND","ND","ND","0"],
    [41285,"2015-01-21T00:00:00","33","ND","ND","ND","ND","ND","ND","ND","ND","ND","ND","0"],
    [41286,"2015-01-21T01:00:00","66","ND","ND","ND","ND","ND","ND","ND","ND","ND","ND","0"],
    [41287,"2015-01-21T02:00:00","45","ND","ND","ND","ND","ND","ND","ND","ND","ND","ND","0"],
    [41288,"2015-01-21T03:00:00","34","ND","ND","ND","ND","ND","ND","ND","ND","ND","ND","0"],
    [41289,"2015-01-21T04:00:00","45","ND","ND","ND","ND","ND","ND","ND","ND","ND","ND","0"],
    [41290,"2015-01-21T05:00:00","44","ND","ND","ND","ND","ND","ND","ND","ND","ND","ND","0"],
    [41291,"2015-01-21T06:00:00","52","ND","ND","ND","ND","ND","ND","ND","ND","ND","ND","0"],
    [41292,"2015-01-21T07:00:00","68","ND","ND","ND","ND","ND","ND","ND","ND","ND","ND","0"],
    [41293,"2015-01-21T08:00:00","90","ND","ND","ND","ND","ND","ND","ND","ND","ND","ND","0"],
    [41294,"2015-01-21T09:00:00","56","ND","ND","ND","ND","ND","ND","ND","ND","ND","ND","0"],
    [41295,"2015-01-21T10:00:00","27","ND","ND","ND","ND","ND","ND","ND","ND","ND","ND","0"],
    [41296,"2015-01-21T11:00:00","31","ND","ND","ND","ND","ND","ND","ND","ND","ND","ND","0"],
    [41297,"2015-01-21T12:00:00","29","ND","ND","ND","ND","ND","ND","ND","ND","ND","ND","0"],
    [41298,"2015-01-21T13:00:00","18","ND","ND","ND","ND","ND","ND","ND","ND","ND","ND","0"],
    [41299,"2015-01-21T14:00:00","45","ND","ND","ND","ND","ND","ND","ND","ND","ND","ND","0"],
    [41300,"2015-01-21T15:00:00","44","ND","ND","ND","ND","ND","ND","ND","ND","ND","ND","0"],
    [41301,"2015-01-21T16:00:00","36","ND","ND","ND","ND","ND","ND","ND","ND","ND","ND","0"],
    [41302,"2015-01-21T17:00:00","11","ND","ND","ND","ND","ND","ND","ND","ND","ND","ND","0"],
    [41303,"2015-01-21T18:00:00","33","ND","ND","ND","ND","ND","ND","ND","ND","ND","ND","0"],
    [41304,"2015-01-21T19:00:00","16","ND","ND","ND","ND","ND","ND","ND","ND","ND","ND","0"],
    [41305,"2015-01-21T20:00:00","53","ND","ND","ND","ND","ND","ND","ND","ND","ND","ND","0"],
    [41306,"2015-01-21T21:00:00","44","ND","ND","ND","ND","ND","ND","ND","ND","ND","ND","0"],
    [41307,"2015-01-21T22:00:00","31","ND","ND","ND","ND","ND","ND","ND","ND","ND","ND","0"],
    [41308,"2015-01-21T23:00:00","18","ND","ND","ND","ND","ND","ND","ND","ND","ND","ND","0"],
    [41309,"2015-01-22T00:00:00","31","ND","ND","ND","ND","ND","ND","ND","ND","ND","ND","0"],
    [41310,"2015-01-22T01:00:00","34","ND","ND","ND","ND","ND","ND","ND","ND","ND","ND","0"],
    [41311,"2015-01-22T02:00:00","38","ND","ND","ND","ND","ND","ND","ND","ND","ND","ND","0"],
    [41312,"2015-01-22T03:00:00","14","ND","ND","ND","ND","ND","ND","ND","ND","ND","ND","0"],
    [41313,"2015-01-22T04:00:00","9","ND","ND","ND","ND","ND","ND","ND","ND","ND","ND","0"],
    [41314,"2015-01-22T05:00:00","8","ND","ND","ND","ND","ND","ND","ND","ND","ND","ND","0.25"],
    [41315,"2015-01-22T06:00:00","5","ND","ND","ND","ND","ND","ND","ND","ND","ND","ND","0.25"],
    [41316,"2015-01-22T07:00:00","4","ND","ND","ND","ND","ND","ND","ND","ND","ND","ND","1.78"],
    [41317,"2015-01-22T08:00:00","12","ND","ND","ND","ND","ND","ND","ND","ND","ND","ND","8.89"],
    [41318,"2015-01-22T09:00:00","6","ND","ND","ND","ND","ND","ND","ND","ND","ND","ND","2.54"],
    [41319,"2015-01-22T10:00:00","7","ND","ND","ND","ND","ND","ND","ND","ND","ND","ND","0.25"],
    [41320,"2015-01-22T11:00:00","20","ND","ND","ND","ND","ND","ND","ND","ND","ND","ND","0"],
    [41321,"2015-01-22T12:00:00","33","ND","ND","ND","ND","ND","ND","ND","ND","ND","ND","0"],
    [41322,"2015-01-22T13:00:00","38","ND","ND","ND","ND","ND","ND","ND","ND","ND","ND","0"],
    [41323,"2015-01-22T14:00:00","21","ND","ND","ND","ND","ND","ND","ND","ND","ND","ND","0"],
    [41324,"2015-01-22T15:00:00","21","ND","ND","ND","ND","ND","ND","ND","ND","ND","ND","0"],
    [41325,"2015-01-22T16:00:00","29","ND","ND","ND","ND","ND","ND","ND","ND","ND","ND","0"],
    [41326,"2015-01-22T17:00:00","14","ND","ND","ND","ND","ND","ND","ND","ND","ND","ND","0"],
    [41327,"2015-01-22T18:00:00","17","ND","ND","ND","ND","ND","ND","ND","ND","ND","ND","0"],
    [41328,"2015-01-22T19:00:00","37","ND","ND","ND","ND","ND","ND","ND","ND","ND","ND","0"],
    [41329,"2015-01-22T20:00:00","31","ND","ND","ND","ND","ND","ND","ND","ND","ND","ND","0"],
    [41330,"2015-01-22T21:00:00","26","ND","ND","ND","ND","ND","ND","ND","ND","ND","ND","0"],
    [41331,"2015-01-22T22:00:00","28","ND","ND","ND","ND","ND","ND","ND","ND","ND","ND","0"],
    [41332,"2015-01-22T23:00:00","27","ND","ND","ND","ND","ND","ND","ND","ND","ND","ND","0"],
    [41333,"2015-01-23T00:00:00","24","ND","ND","ND","ND","ND","ND","ND","ND","ND","ND","0"],
    [41334,"2015-01-23T01:00:00","22","ND","ND","ND","ND","ND","ND","ND","ND","ND","ND","0"],
    [41335,"2015-01-23T02:00:00","51","ND","ND","ND","ND","ND","ND","ND","ND","ND","ND","0"],
    [41336,"2015-01-23T03:00:00","55","ND","ND","ND","ND","ND","ND","ND","ND","ND","ND","0"],
    [41337,"2015-01-23T04:00:00","41","ND","ND","ND","ND","ND","ND","ND","ND","ND","ND","0"],
    [41338,"2015-01-23T05:00:00","52","ND","ND","ND","ND","ND","ND","ND","ND","ND","ND","0"],
    [41339,"2015-01-23T06:00:00","49","ND","ND","ND","ND","ND","ND","ND","ND","ND","ND","0"],
    [41340,"2015-01-23T07:00:00","62","ND","ND","ND","ND","ND","ND","ND","ND","ND","ND","0"],
    [41341,"2015-01-23T08:00:00","92","ND","ND","ND","ND","ND","ND","ND","ND","ND","ND","0"],
    [41342,"2015-01-23T09:00:00","43","ND","ND","ND","ND","ND","ND","ND","ND","ND","ND","0"],
    [41343,"2015-01-23T10:00:00","29","ND","ND","ND","ND","ND","ND","ND","ND","ND","ND","0"],
    [41344,"2015-01-23T11:00:00","35","ND","ND","ND","ND","ND","ND","ND","ND","ND","ND","0"],
    [41345,"2015-01-23T12:00:00","41","ND","ND","ND","ND","ND","ND","ND","ND","ND","ND","0"],
    [41346,"2015-01-23T13:00:00","38","ND","ND","ND","ND","ND","ND","ND","ND","ND","ND","0"],
    [41347,"2015-01-23T14:00:00","36","ND","ND","ND","ND","ND","ND","ND","ND","ND","ND","0"],
    [41348,"2015-01-23T15:00:00","27","ND","ND","ND","ND","ND","ND","ND","ND","ND","ND","0"],
    [41349,"2015-01-23T16:00:00","36","ND","ND","ND","ND","ND","ND","ND","ND","ND","ND","0"],
    [41350,"2015-01-23T17:00:00","53","ND","ND","ND","ND","ND","ND","ND","ND","ND","ND","0"],
    [41351,"2015-01-23T18:00:00","44","ND","ND","ND","ND","ND","ND","ND","ND","ND","ND","0"],
    [41352,"2015-01-23T19:00:00","35","ND","ND","ND","ND","ND","ND","ND","ND","ND","ND","0"],
    [41353,"2015-01-23T20:00:00","79","ND","ND","ND","ND","ND","ND","ND","ND","ND","ND","0"],
    [41354,"2015-01-23T21:00:00","53","ND","ND","ND","ND","ND","ND","ND","ND","ND","ND","0"],
    [41355,"2015-01-23T22:00:00","61","ND","ND","ND","ND","ND","ND","ND","ND","ND","ND","0"],
    [41356,"2015-01-23T23:00:00","18","ND","ND","ND","ND","ND","ND","ND","ND","ND","ND","0"],
    [41357,"2015-01-24T00:00:00","29","ND","ND","ND","ND","ND","ND","ND","ND","ND","ND","0"],
    [41358,"2015-01-24T01:00:00","46","ND","ND","ND","ND","ND","ND","ND","ND","ND","ND","0"],
    [41359,"2015-01-24T02:00:00","24","ND","ND","ND","ND","ND","ND","ND","ND","ND","ND","0"],
    [41360,"2015-01-24T03:00:00","41","ND","ND","ND","ND","ND","ND","ND","ND","ND","ND","0"],
    [41361,"2015-01-24T04:00:00","42","ND","ND","ND","ND","ND","ND","ND","ND","ND","ND","0"],
    [41362,"2015-01-24T05:00:00","43","ND","ND","ND","ND","ND","ND","ND","ND","ND","ND","0"],
    [41363,"2015-01-24T06:00:00","44","ND","ND","ND","ND","ND","ND","ND","ND","ND","ND","0"],
    [41364,"2015-01-24T07:00:00","73","ND","ND","ND","ND","ND","ND","ND","ND","ND","ND","0"],
    [41365,"2015-01-24T08:00:00","84","ND","ND","ND","ND","ND","ND","ND","ND","ND","ND","0"],
    [41366,"2015-01-24T09:00:00","99","ND","ND","ND","ND","ND","ND","ND","ND","ND","ND","0"],
    [41367,"2015-01-24T10:00:00","96","ND","ND","ND","ND","ND","ND","ND","ND","ND","ND","0"],
    [41368,"2015-01-24T11:00:00","76","ND","ND","ND","ND","ND","ND","ND","ND","ND","ND","0"],
    [41369,"2015-01-24T12:00:00","49","ND","ND","ND","ND","ND","ND","ND","ND","ND","ND","0"],
    [41370,"2015-01-24T13:00:00","33","ND","ND","ND","ND","ND","ND","ND","ND","ND","ND","0"],
    [41371,"2015-01-24T14:00:00","22","ND","ND","ND","ND","ND","ND","ND","ND","ND","ND","0"],
    [41372,"2015-01-24T15:00:00","26","ND","ND","ND","ND","ND","ND","ND","ND","ND","ND","0"],
    [41373,"2015-01-24T16:00:00","40","ND","ND","ND","ND","ND","ND","ND","ND","ND","ND","0"],
    [41374,"2015-01-24T17:00:00","33","ND","ND","ND","ND","ND","ND","ND","ND","ND","ND","0"],
    [41375,"2015-01-24T18:00:00","34","ND","ND","ND","ND","ND","ND","ND","ND","ND","ND","0"],
    [41376,"2015-01-24T19:00:00","32","ND","ND","ND","ND","ND","ND","ND","ND","ND","ND","0"],
    [41377,"2015-01-24T20:00:00","57","ND","ND","ND","ND","ND","ND","ND","ND","ND","ND","0"],
    [41378,"2015-01-24T21:00:00","44","ND","ND","ND","ND","ND","ND","ND","ND","ND","ND","0"],
    [41379,"2015-01-24T22:00:00","49","ND","ND","ND","ND","ND","ND","ND","ND","ND","ND","0"],
    [41380,"2015-01-24T23:00:00","52","ND","ND","ND","ND","ND","ND","ND","ND","ND","ND","0"],
    [41381,"2015-01-25T00:00:00","44","ND","ND","ND","ND","ND","ND","ND","ND","ND","ND","0"],
    [41382,"2015-01-25T01:00:00","52","ND","ND","ND","ND","ND","ND","ND","ND","ND","ND","0"],
    [41383,"2015-01-25T02:00:00","48","ND","ND","ND","ND","ND","ND","ND","ND","ND","ND","0"],
    [41384,"2015-01-25T03:00:00","34","ND","ND","ND","ND","ND","ND","ND","ND","ND","ND","0"],
    [41385,"2015-01-25T04:00:00","35","ND","ND","ND","ND","ND","ND","ND","ND","ND","ND","0"],
    [41386,"2015-01-25T05:00:00","47","ND","ND","ND","ND","ND","ND","ND","ND","ND","ND","0"],
    [41387,"2015-01-25T06:00:00","46","ND","ND","ND","ND","ND","ND","ND","ND","ND","ND","0"],
    [41388,"2015-01-25T07:00:00","45","ND","ND","ND","ND","ND","ND","ND","ND","ND","ND","0"],
    [41389,"2015-01-25T08:00:00","66","ND","ND","ND","ND","ND","ND","ND","ND","ND","ND","0"],
    [41390,"2015-01-25T09:00:00","68","ND","ND","ND","ND","ND","ND","ND","ND","ND","ND","0"],
    [41391,"2015-01-25T10:00:00","64","ND","ND","ND","ND","ND","ND","ND","ND","ND","ND","0"],
    [41392,"2015-01-25T11:00:00","34","ND","ND","ND","ND","ND","ND","ND","ND","ND","ND","0"],
    [41393,"2015-01-25T12:00:00","29","ND","ND","ND","ND","ND","ND","ND","ND","ND","ND","0"],
    [41394,"2015-01-25T13:00:00","34","ND","ND","ND","ND","ND","ND","ND","ND","ND","ND","0"],
    [41395,"2015-01-25T14:00:00","46","ND","ND","ND","ND","ND","ND","ND","ND","ND","ND","0"],
    [41396,"2015-01-25T15:00:00","20","ND","ND","ND","ND","ND","ND","ND","ND","ND","ND","0"],
    [41397,"2015-01-25T16:00:00","7","ND","ND","ND","ND","ND","ND","ND","ND","ND","ND","0"],
    [41398,"2015-01-25T17:00:00","24","ND","ND","ND","ND","ND","ND","ND","ND","ND","ND","0"],
    [41399,"2015-01-25T18:00:00","17","ND","ND","ND","ND","ND","ND","ND","ND","ND","ND","0"],
    [41400,"2015-01-25T19:00:00","27","ND","ND","ND","ND","ND","ND","ND","ND","ND","ND","0"],
    [41401,"2015-01-25T20:00:00","50","ND","ND","ND","ND","ND","ND","ND","ND","ND","ND","0"],
    [41402,"2015-01-25T21:00:00","56","ND","ND","ND","ND","ND","ND","ND","ND","ND","ND","0"],
    [41403,"2015-01-25T22:00:00","31","ND","ND","ND","ND","ND","ND","ND","ND","ND","ND","0"],
    [41404,"2015-01-25T23:00:00","39","ND","ND","ND","ND","ND","ND","ND","ND","ND","ND","0"],
    [41405,"2015-01-26T00:00:00","211","ND","ND","ND","ND","ND","ND","ND","ND","ND","ND","0"],
    [41406,"2015-01-26T01:00:00","60","ND","ND","ND","ND","ND","ND","ND","ND","ND","ND","0"],
    [41407,"2015-01-26T02:00:00","33","ND","ND","ND","ND","ND","ND","ND","ND","ND","ND","0"],
    [41408,"2015-01-26T03:00:00","36","ND","ND","ND","ND","ND","ND","ND","ND","ND","ND","0"],
    [41409,"2015-01-26T04:00:00","33","ND","ND","ND","ND","ND","ND","ND","ND","ND","ND","0"],
    [41410,"2015-01-26T05:00:00","34","ND","ND","ND","ND","ND","ND","ND","ND","ND","ND","0"],
    [41411,"2015-01-26T06:00:00","45","ND","ND","ND","ND","ND","ND","ND","ND","ND","ND","0"],
    [41412,"2015-01-26T07:00:00","58","ND","ND","ND","ND","ND","ND","ND","ND","ND","ND","0"],
    [41413,"2015-01-26T08:00:00","129","ND","ND","ND","ND","ND","ND","ND","ND","ND","ND","0"],
    [41414,"2015-01-26T09:00:00","90","ND","ND","ND","ND","ND","ND","ND","ND","ND","ND","0"],
    [41415,"2015-01-26T10:00:00","72","ND","ND","ND","ND","ND","ND","ND","ND","ND","ND","0"],
    [41416,"2015-01-26T11:00:00","82","ND","ND","ND","ND","ND","ND","ND","ND","ND","ND","0"],
    [41417,"2015-01-26T12:00:00","49","ND","ND","ND","ND","ND","ND","ND","ND","ND","ND","0"],
    [41418,"2015-01-26T13:00:00","60","ND","ND","ND","ND","ND","ND","ND","ND","ND","ND","0"],
    [41419,"2015-01-26T14:00:00","58","ND","ND","ND","ND","ND","ND","ND","ND","ND","ND","0"],
    [41420,"2015-01-26T15:00:00","37","ND","ND","ND","ND","ND","ND","ND","ND","ND","ND","0"],
    [41421,"2015-01-26T16:00:00","7","ND","ND","ND","ND","ND","ND","ND","ND","ND","ND","0"],
    [41422,"2015-01-26T17:00:00","27","ND","ND","ND","ND","ND","ND","ND","ND","ND","ND","0"],
    [41423,"2015-01-26T18:00:00","22","ND","ND","ND","ND","ND","ND","ND","ND","ND","ND","0"],
    [41424,"2015-01-26T19:00:00","73","ND","ND","ND","ND","ND","ND","ND","ND","ND","ND","0"],
    [41425,"2015-01-26T20:00:00","48","ND","ND","ND","ND","ND","ND","ND","ND","ND","ND","0"],
    [41426,"2015-01-26T21:00:00","47","ND","ND","ND","ND","ND","ND","ND","ND","ND","ND","0"],
    [41427,"2015-01-26T22:00:00","14","ND","ND","ND","ND","ND","ND","ND","ND","ND","ND","0"],
    [41428,"2015-01-26T23:00:00","36","ND","ND","ND","ND","ND","ND","ND","ND","ND","ND","0"],
    [41429,"2015-01-27T00:00:00","26","ND","ND","ND","ND","ND","ND","ND","ND","ND","ND","0"],
    [41430,"2015-01-27T01:00:00","103","ND","ND","ND","ND","ND","ND","ND","ND","ND","ND","0"],
    [41431,"2015-01-27T02:00:00","28","ND","ND","ND","ND","ND","ND","ND","ND","ND","ND","0"],
    [41432,"2015-01-27T03:00:00","22","ND","ND","ND","ND","ND","ND","ND","ND","ND","ND","0"],
    [41433,"2015-01-27T04:00:00","49","ND","ND","ND","ND","ND","ND","ND","ND","ND","ND","0"],
    [41434,"2015-01-27T05:00:00","59","ND","ND","ND","ND","ND","ND","ND","ND","ND","ND","0"],
    [41435,"2015-01-27T06:00:00","66","ND","ND","ND","ND","ND","ND","ND","ND","ND","ND","0"],
    [41436,"2015-01-27T07:00:00","78","ND","ND","ND","ND","ND","ND","ND","ND","ND","ND","0"],
    [41437,"2015-01-27T08:00:00","72","ND","ND","ND","ND","ND","ND","ND","ND","ND","ND","0"],
    [41438,"2015-01-27T09:00:00","92","ND","ND","ND","ND","ND","ND","ND","ND","ND","ND","0"],
    [41439,"2015-01-27T10:00:00","44","ND","ND","ND","ND","ND","ND","ND","ND","ND","ND","0"],
    [41440,"2015-01-27T11:00:00","49","ND","ND","ND","ND","ND","ND","ND","ND","ND","ND","0"],
    [41441,"2015-01-27T12:00:00","38","ND","ND","ND","ND","ND","ND","ND","ND","ND","ND","0"],
    [41442,"2015-01-27T13:00:00","26","ND","ND","ND","ND","ND","ND","ND","ND","ND","ND","0"],
    [41443,"2015-01-27T14:00:00","11","ND","ND","ND","ND","ND","ND","ND","ND","ND","ND","0"],
    [41444,"2015-01-27T15:00:00","15","ND","ND","ND","ND","ND","ND","ND","ND","ND","ND","0"],
    [41445,"2015-01-27T16:00:00","20","ND","ND","ND","ND","ND","ND","ND","ND","ND","ND","0"],
    [41446,"2015-01-27T17:00:00","20","ND","ND","ND","ND","ND","ND","ND","ND","ND","ND","0"],
    [41447,"2015-01-27T18:00:00","42","ND","ND","ND","ND","ND","ND","ND","ND","ND","ND","0"],
    [41448,"2015-01-27T19:00:00","18","ND","ND","ND","ND","ND","ND","ND","ND","ND","ND","0"],
    [41449,"2015-01-27T20:00:00","46","ND","ND","ND","ND","ND","ND","ND","ND","ND","ND","0"],
    [41450,"2015-01-27T21:00:00","86","ND","ND","ND","ND","ND","ND","ND","ND","ND","ND","0"],
    [41451,"2015-01-27T22:00:00","66","ND","ND","ND","ND","ND","ND","ND","ND","ND","ND","0"],
    [41452,"2015-01-27T23:00:00","48","ND","ND","ND","ND","ND","ND","ND","ND","ND","ND","0"],
    [41453,"2015-01-28T00:00:00","84","ND","ND","ND","ND","ND","ND","ND","ND","ND","ND","0"],
    [41454,"2015-01-28T01:00:00","98","ND","ND","ND","ND","ND","ND","ND","ND","ND","ND","0"],
    [41455,"2015-01-28T02:00:00","55","ND","ND","ND","ND","ND","ND","ND","ND","ND","ND","0"],
    [41456,"2015-01-28T03:00:00","48","ND","ND","ND","ND","ND","ND","ND","ND","ND","ND","0"],
    [41457,"2015-01-28T04:00:00","49","ND","ND","ND","ND","ND","ND","ND","ND","ND","ND","0"],
    [41458,"2015-01-28T05:00:00","155","ND","ND","ND","ND","ND","ND","ND","ND","ND","ND","0"],
    [41459,"2015-01-28T06:00:00","93","ND","ND","ND","ND","ND","ND","ND","ND","ND","ND","0"],
    [41460,"2015-01-28T07:00:00","97","ND","ND","ND","ND","ND","ND","ND","ND","ND","ND","0"],
    [41461,"2015-01-28T08:00:00","103","ND","ND","ND","ND","ND","ND","ND","ND","ND","ND","0"],
    [41462,"2015-01-28T09:00:00","104","ND","ND","ND","ND","ND","ND","ND","ND","ND","ND","0"],
    [41463,"2015-01-28T10:00:00","82","ND","ND","ND","ND","ND","ND","ND","ND","ND","ND","0"],
    [41464,"2015-01-28T11:00:00","73","ND","ND","ND","ND","ND","ND","ND","ND","ND","ND","0"],
    [41465,"2015-01-28T12:00:00","61","ND","ND","ND","ND","ND","ND","ND","ND","ND","ND","0"],
    [41466,"2015-01-28T13:00:00","44","ND","ND","ND","ND","ND","ND","ND","ND","ND","ND","0"],
    [41467,"2015-01-28T14:00:00","52","ND","ND","ND","ND","ND","ND","ND","ND","ND","ND","0"],
    [41468,"2015-01-28T15:00:00","49","ND","ND","ND","ND","ND","ND","ND","ND","ND","ND","0"],
    [41469,"2015-01-28T16:00:00","47","ND","ND","ND","ND","ND","ND","ND","ND","ND","ND","0"],
    [41470,"2015-01-28T17:00:00","22","ND","ND","ND","ND","ND","ND","ND","ND","ND","ND","0"],
    [41471,"2015-01-28T18:00:00","32","ND","ND","ND","ND","ND","ND","ND","ND","ND","ND","0"],
    [41472,"2015-01-28T19:00:00","50","ND","ND","ND","ND","ND","ND","ND","ND","ND","ND","0"],
    [41473,"2015-01-28T20:00:00","41","ND","ND","ND","ND","ND","ND","ND","ND","ND","ND","0"],
    [41474,"2015-01-28T21:00:00","73","ND","ND","ND","ND","ND","ND","ND","ND","ND","ND","0"],
    [41475,"2015-01-28T22:00:00","65","ND","ND","ND","ND","ND","ND","ND","ND","ND","ND","0"],
    [41476,"2015-01-28T23:00:00","55","ND","ND","ND","ND","ND","ND","ND","ND","ND","ND","0"],
    [41477,"2015-01-29T00:00:00","226","ND","ND","ND","ND","ND","ND","ND","ND","ND","ND","0"],
    [41478,"2015-01-29T01:00:00","78","ND","ND","ND","ND","ND","ND","ND","ND","ND","ND","0"],
    [41479,"2015-01-29T02:00:00","87","ND","ND","ND","ND","ND","ND","ND","ND","ND","ND","0"],
    [41480,"2015-01-29T03:00:00","59","ND","ND","ND","ND","ND","ND","ND","ND","ND","ND","0"],
    [41481,"2015-01-29T04:00:00","80","ND","ND","ND","ND","ND","ND","ND","ND","ND","ND","0"],
    [41482,"2015-01-29T05:00:00","56","ND","ND","ND","ND","ND","ND","ND","ND","ND","ND","0"],
    [41483,"2015-01-29T06:00:00","53","ND","ND","ND","ND","ND","ND","ND","ND","ND","ND","0"],
    [41484,"2015-01-29T07:00:00","75","ND","ND","ND","ND","ND","ND","ND","ND","ND","ND","0"],
    [41485,"2015-01-29T08:00:00","78","ND","ND","ND","ND","ND","ND","ND","ND","ND","ND","0"],
    [41486,"2015-01-29T09:00:00","69","ND","ND","ND","ND","ND","ND","ND","ND","ND","ND","0"],
    [41487,"2015-01-29T10:00:00","48","ND","ND","ND","ND","ND","ND","ND","ND","ND","ND","0"],
    [41488,"2015-01-29T11:00:00","45","ND","ND","ND","ND","ND","ND","ND","ND","ND","ND","0"],
    [41489,"2015-01-29T12:00:00","43","ND","ND","ND","ND","ND","ND","ND","ND","ND","ND","0"],
    [41490,"2015-01-29T13:00:00","52","ND","ND","ND","ND","ND","ND","ND","ND","ND","ND","0"],
    [41491,"2015-01-29T14:00:00","81","ND","ND","ND","ND","ND","ND","ND","ND","ND","ND","0"],
    [41492,"2015-01-29T15:00:00","76","ND","ND","ND","ND","ND","ND","ND","ND","ND","ND","0"],
    [41493,"2015-01-29T16:00:00","43","ND","ND","ND","ND","ND","ND","ND","ND","ND","ND","0"],
    [41494,"2015-01-29T17:00:00","34","ND","ND","ND","ND","ND","ND","ND","ND","ND","ND","0"],
    [41495,"2015-01-29T18:00:00","29","ND","ND","ND","ND","ND","ND","ND","ND","ND","ND","0"],
    [41496,"2015-01-29T19:00:00","37","ND","ND","ND","ND","ND","ND","ND","ND","ND","ND","0"],
    [41497,"2015-01-29T20:00:00","76","ND","ND","ND","ND","ND","ND","ND","ND","ND","ND","0"],
    [41498,"2015-01-29T21:00:00","34","ND","ND","ND","ND","ND","ND","ND","ND","ND","ND","0"],
    [41499,"2015-01-29T22:00:00","44","ND","ND","ND","ND","ND","ND","ND","ND","ND","ND","0"],
    [41500,"2015-01-29T23:00:00","38","ND","ND","ND","ND","ND","ND","ND","ND","ND","ND","0"],
    [41501,"2015-01-30T00:00:00","44","ND","ND","ND","ND","ND","ND","ND","ND","ND","ND","0"],
    [41502,"2015-01-30T01:00:00","26","ND","ND","ND","ND","ND","ND","ND","ND","ND","ND","0"],
    [41503,"2015-01-30T02:00:00","17","ND","ND","ND","ND","ND","ND","ND","ND","ND","ND","0"],
    [41504,"2015-01-30T03:00:00","43","ND","ND","ND","ND","ND","ND","ND","ND","ND","ND","0"],
    [41505,"2015-01-30T04:00:00","37","ND","ND","ND","ND","ND","ND","ND","ND","ND","ND","0"],
    [41506,"2015-01-30T05:00:00","38","ND","ND","ND","ND","ND","ND","ND","ND","ND","ND","0"],
    [41507,"2015-01-30T06:00:00","54","ND","ND","ND","ND","ND","ND","ND","ND","ND","ND","0"],
    [41508,"2015-01-30T07:00:00","76","ND","ND","ND","ND","ND","ND","ND","ND","ND","ND","0"],
    [41509,"2015-01-30T08:00:00","87","ND","ND","ND","ND","ND","ND","ND","ND","ND","ND","0"],
    [41510,"2015-01-30T09:00:00","105","ND","ND","ND","ND","ND","ND","ND","ND","ND","ND","0"],
    [41511,"2015-01-30T10:00:00","84","ND","ND","ND","ND","ND","ND","ND","ND","ND","ND","0"],
    [41512,"2015-01-30T11:00:00","28","ND","ND","ND","ND","ND","ND","ND","ND","ND","ND","0"],
    [41513,"2015-01-30T12:00:00","53","ND","ND","ND","ND","ND","ND","ND","ND","ND","ND","0"],
    [41514,"2015-01-30T13:00:00","39","ND","ND","ND","ND","ND","ND","ND","ND","ND","ND","0"],
    [41515,"2015-01-30T14:00:00","37","ND","ND","ND","ND","ND","ND","ND","ND","ND","ND","0"],
    [41516,"2015-01-30T15:00:00","31","ND","ND","ND","ND","ND","ND","ND","ND","ND","ND","0"],
    [41517,"2015-01-30T16:00:00","19","ND","ND","ND","ND","ND","ND","ND","ND","ND","ND","0.51"],
    [41518,"2015-01-30T17:00:00","16","ND","ND","ND","ND","ND","ND","ND","ND","ND","ND","0"],
    [41519,"2015-01-30T18:00:00","19","ND","ND","ND","ND","ND","ND","ND","ND","ND","ND","0"],
    [41520,"2015-01-30T19:00:00","18","ND","ND","ND","ND","ND","ND","ND","ND","ND","ND","0"],
    [41521,"2015-01-30T20:00:00","30","ND","ND","ND","ND","ND","ND","ND","ND","ND","ND","0"],
    [41522,"2015-01-30T21:00:00","44","ND","ND","ND","ND","ND","ND","ND","ND","ND","ND","0"],
    [41523,"2015-01-30T22:00:00","13","ND","ND","ND","ND","ND","ND","ND","ND","ND","ND","0"],
    [41524,"2015-01-30T23:00:00","12","ND","ND","ND","ND","ND","ND","ND","ND","ND","ND","0"],
    [41525,"2015-01-31T00:00:00","20","ND","ND","ND","ND","ND","ND","ND","ND","ND","ND","0"],
    [41526,"2015-01-31T01:00:00","48","ND","ND","ND","ND","ND","ND","ND","ND","ND","ND","0"],
    [41527,"2015-01-31T02:00:00","31","ND","ND","ND","ND","ND","ND","ND","ND","ND","ND","0"],
    [41528,"2015-01-31T03:00:00","37","ND","ND","ND","ND","ND","ND","ND","ND","ND","ND","0"],
    [41529,"2015-01-31T04:00:00","52","ND","ND","ND","ND","ND","ND","ND","ND","ND","ND","0"],
    [41530,"2015-01-31T05:00:00","32","ND","ND","ND","ND","ND","ND","ND","ND","ND","ND","0"],
    [41531,"2015-01-31T06:00:00","31","ND","ND","ND","ND","ND","ND","ND","ND","ND","ND","0"],
    [41532,"2015-01-31T07:00:00","35","ND","ND","ND","ND","ND","ND","ND","ND","ND","ND","0"],
    [41533,"2015-01-31T08:00:00","36","ND","ND","ND","ND","ND","ND","ND","ND","ND","ND","0"],
    [41534,"2015-01-31T09:00:00","38","ND","ND","ND","ND","ND","ND","ND","ND","ND","ND","0"],
    [41535,"2015-01-31T10:00:00","34","ND","ND","ND","ND","ND","ND","ND","ND","ND","ND","0"],
    [41536,"2015-01-31T11:00:00","36","ND","ND","ND","ND","ND","ND","ND","ND","ND","ND","0"],
    [41537,"2015-01-31T12:00:00","30","ND","ND","ND","ND","ND","ND","ND","ND","ND","ND","0"],
    [41538,"2015-01-31T13:00:00","39","ND","ND","ND","ND","ND","ND","ND","ND","ND","ND","0"],
    [41539,"2015-01-31T14:00:00","50","ND","ND","ND","ND","ND","ND","ND","ND","ND","ND","0"],
    [41540,"2015-01-31T15:00:00","66","ND","ND","ND","ND","ND","ND","ND","ND","ND","ND","0"],
    [41541,"2015-01-31T16:00:00","26","ND","ND","ND","ND","ND","ND","ND","ND","ND","ND","0"],
    [41542,"2015-01-31T17:00:00","22","ND","ND","ND","ND","ND","ND","ND","ND","ND","ND","0"],
    [41543,"2015-01-31T18:00:00","23","ND","ND","ND","ND","ND","ND","ND","ND","ND","ND","0"],
    [41544,"2015-01-31T19:00:00","17","ND","ND","ND","ND","ND","ND","ND","ND","ND","ND","0"],
    [41545,"2015-01-31T20:00:00","42","ND","ND","ND","ND","ND","ND","ND","ND","ND","ND","0"],
    [41546,"2015-01-31T21:00:00","55","ND","ND","ND","ND","ND","ND","ND","ND","ND","ND","1.27"],
    [41547,"2015-01-31T22:00:00","45","ND","ND","ND","ND","ND","ND","ND","ND","ND","ND","0"],
    [41548,"2015-01-31T23:00:00","49","ND","ND","ND","ND","ND","ND","ND","ND","ND","ND","0"],
    [41549,"2015-02-01T00:00:00","52","ND","ND","ND","ND","ND","ND","ND","ND","ND","ND","0"],
    [41550,"2015-02-01T01:00:00","44","ND","ND","ND","ND","ND","ND","ND","ND","ND","ND","0"],
    [41551,"2015-02-01T02:00:00","57","ND","ND","ND","ND","ND","ND","ND","ND","ND","ND","0"],
    [41552,"2015-02-01T03:00:00","48","ND","ND","ND","ND","ND","ND","ND","ND","ND","ND","0.25"],
    [41553,"2015-02-01T04:00:00","27","ND","ND","ND","ND","ND","ND","ND","ND","ND","ND","0"],
    [41554,"2015-02-01T05:00:00","15","ND","ND","ND","ND","ND","ND","ND","ND","ND","ND","0"],
    [41555,"2015-02-01T06:00:00","25","ND","ND","ND","ND","ND","ND","ND","ND","ND","ND","0"],
    [41556,"2015-02-01T07:00:00","32","ND","ND","ND","ND","ND","ND","ND","ND","ND","ND","0"],
    [41557,"2015-02-01T08:00:00","18","ND","ND","ND","ND","ND","ND","ND","ND","ND","ND","0"],
    [41558,"2015-02-01T09:00:00","15","ND","ND","ND","ND","ND","ND","ND","ND","ND","ND","0"],
    [41559,"2015-02-01T10:00:00","17","ND","ND","ND","ND","ND","ND","ND","ND","ND","ND","0"],
    [41560,"2015-02-01T11:00:00","28","ND","ND","ND","ND","ND","ND","ND","ND","ND","ND","0"],
    [41561,"2015-02-01T12:00:00","28","ND","ND","ND","ND","ND","ND","ND","ND","ND","ND","0"],
    [41562,"2015-02-01T13:00:00","27","ND","ND","ND","ND","ND","ND","ND","ND","ND","ND","0"],
    [41563,"2015-02-01T14:00:00","34","ND","ND","ND","ND","ND","ND","ND","ND","ND","ND","0"],
    [41564,"2015-02-01T15:00:00","29","ND","ND","ND","ND","ND","ND","ND","ND","ND","ND","0"],
    [41565,"2015-02-01T16:00:00","25","ND","ND","ND","ND","ND","ND","ND","ND","ND","ND","0"],
    [41566,"2015-02-01T17:00:00","13","ND","ND","ND","ND","ND","ND","ND","ND","ND","ND","0"],
    [41567,"2015-02-01T18:00:00","13","ND","ND","ND","ND","ND","ND","ND","ND","ND","ND","0"],
    [41568,"2015-02-01T19:00:00","23","ND","ND","ND","ND","ND","ND","ND","ND","ND","ND","0"],
    [41569,"2015-02-01T20:00:00","28","ND","ND","ND","ND","ND","ND","ND","ND","ND","ND","0"],
    [41570,"2015-02-01T21:00:00","44","ND","ND","ND","ND","ND","ND","ND","ND","ND","ND","0"],
    [41571,"2015-02-01T22:00:00","30","ND","ND","ND","ND","ND","ND","ND","ND","ND","ND","0"],
    [41572,"2015-02-01T23:00:00","50","ND","ND","ND","ND","ND","ND","ND","ND","ND","ND","0"],
    [41573,"2015-02-02T00:00:00","31","ND","ND","ND","ND","ND","ND","ND","ND","ND","ND","0"],
    [41574,"2015-02-02T01:00:00","19","ND","ND","ND","ND","ND","ND","ND","ND","ND","ND","0"],
    [41575,"2015-02-02T02:00:00","18","ND","ND","ND","ND","ND","ND","ND","ND","ND","ND","0"],
    [41576,"2015-02-02T03:00:00","24","ND","ND","ND","ND","ND","ND","ND","ND","ND","ND","0"],
    [41577,"2015-02-02T04:00:00","29","ND","ND","ND","ND","ND","ND","ND","ND","ND","ND","0"],
    [41578,"2015-02-02T05:00:00","42","ND","ND","ND","ND","ND","ND","ND","ND","ND","ND","0"],
    [41579,"2015-02-02T06:00:00","76","ND","ND","ND","ND","ND","ND","ND","ND","ND","ND","0"],
    [41580,"2015-02-02T07:00:00","75","ND","ND","ND","ND","ND","ND","ND","ND","ND","ND","0"],
    [41581,"2015-02-02T08:00:00","65","ND","ND","ND","ND","ND","ND","ND","ND","ND","ND","0"],
    [41582,"2015-02-02T09:00:00","55","ND","ND","ND","ND","ND","ND","ND","ND","ND","ND","0"],
    [41583,"2015-02-02T10:00:00","46","ND","ND","ND","ND","ND","ND","ND","ND","ND","ND","0"],
    [41584,"2015-02-02T11:00:00","35","ND","ND","ND","ND","ND","ND","ND","ND","ND","ND","0"],
    [41585,"2015-02-02T12:00:00","48","ND","ND","ND","ND","ND","ND","ND","ND","ND","ND","0"],
    [41586,"2015-02-02T13:00:00","62","ND","ND","ND","ND","ND","ND","ND","ND","ND","ND","0"],
    [41587,"2015-02-02T14:00:00","61","ND","ND","ND","ND","ND","ND","ND","ND","ND","ND","0"],
    [41588,"2015-02-02T15:00:00","38","ND","ND","ND","ND","ND","ND","ND","ND","ND","ND","0"],
    [41589,"2015-02-02T16:00:00","33","ND","ND","ND","ND","ND","ND","ND","ND","ND","ND","0"],
    [41590,"2015-02-02T17:00:00","33","ND","ND","ND","ND","ND","ND","ND","ND","ND","ND","0"],
    [41591,"2015-02-02T18:00:00","27","ND","ND","ND","ND","ND","ND","ND","ND","ND","ND","0"],
    [41592,"2015-02-02T19:00:00","32","ND","ND","ND","ND","ND","ND","ND","ND","ND","ND","0"],
    [41593,"2015-02-02T20:00:00","39","ND","ND","ND","ND","ND","ND","ND","ND","ND","ND","0"],
    [41594,"2015-02-02T21:00:00","71","ND","ND","ND","ND","ND","ND","ND","ND","ND","ND","0"],
    [41595,"2015-02-02T22:00:00","48","ND","ND","ND","ND","ND","ND","ND","ND","ND","ND","0"],
    [41596,"2015-02-02T23:00:00","17","ND","ND","ND","ND","ND","ND","ND","ND","ND","ND","0"],
    [41597,"2015-02-03T00:00:00","21","ND","ND","ND","ND","ND","ND","ND","ND","ND","ND","0"],
    [41598,"2015-02-03T01:00:00","23","ND","ND","ND","ND","ND","ND","ND","ND","ND","ND","0"],
    [41599,"2015-02-03T02:00:00","28","ND","ND","ND","ND","ND","ND","ND","ND","ND","ND","0"],
    [41600,"2015-02-03T03:00:00","24","ND","ND","ND","ND","ND","ND","ND","ND","ND","ND","0"],
    [41601,"2015-02-03T04:00:00","38","ND","ND","ND","ND","ND","ND","ND","ND","ND","ND","0"],
    [41602,"2015-02-03T05:00:00","59","ND","ND","ND","ND","ND","ND","ND","ND","ND","ND","0"],
    [41603,"2015-02-03T06:00:00","62","ND","ND","ND","ND","ND","ND","ND","ND","ND","ND","0"],
    [41604,"2015-02-03T07:00:00","59","ND","ND","ND","ND","ND","ND","ND","ND","ND","ND","0"],
    [41605,"2015-02-03T08:00:00","52","ND","ND","ND","ND","ND","ND","ND","ND","ND","ND","0"],
    [41606,"2015-02-03T09:00:00","38","ND","ND","ND","ND","ND","ND","ND","ND","ND","ND","0"],
    [41607,"2015-02-03T10:00:00","70","ND","ND","ND","ND","ND","ND","ND","ND","ND","ND","0"],
    [41608,"2015-02-03T11:00:00","49","ND","ND","ND","ND","ND","ND","ND","ND","ND","ND","0"],
    [41609,"2015-02-03T12:00:00","25","ND","ND","ND","ND","ND","ND","ND","ND","ND","ND","0"],
    [41610,"2015-02-03T13:00:00","17","ND","ND","ND","ND","ND","ND","ND","ND","ND","ND","0"],
    [41611,"2015-02-03T14:00:00","37","ND","ND","ND","ND","ND","ND","ND","ND","ND","ND","0"],
    [41612,"2015-02-03T15:00:00","38","ND","ND","ND","ND","ND","ND","ND","ND","ND","ND","0"],
    [41613,"2015-02-03T16:00:00","60","ND","ND","ND","ND","ND","ND","ND","ND","ND","ND","0"],
    [41614,"2015-02-03T17:00:00","29","ND","ND","ND","ND","ND","ND","ND","ND","ND","ND","0"],
    [41615,"2015-02-03T18:00:00","36","ND","ND","ND","ND","ND","ND","ND","ND","ND","ND","0"],
    [41616,"2015-02-03T19:00:00","30","ND","ND","ND","ND","ND","ND","ND","ND","ND","ND","0"],
    [41617,"2015-02-03T20:00:00","37","ND","ND","ND","ND","ND","ND","ND","ND","ND","ND","0"],
    [41618,"2015-02-03T21:00:00","70","ND","ND","ND","ND","ND","ND","ND","ND","ND","ND","0"],
    [41619,"2015-02-03T22:00:00","60","ND","ND","ND","ND","ND","ND","ND","ND","ND","ND","0"],
    [41620,"2015-02-03T23:00:00","31","ND","ND","ND","ND","ND","ND","ND","ND","ND","ND","0"],
    [41621,"2015-02-04T00:00:00","47","ND","ND","ND","ND","ND","ND","ND","ND","ND","ND","0"],
    [41622,"2015-02-04T01:00:00","35","ND","ND","ND","ND","ND","ND","ND","ND","ND","ND","0"],
    [41623,"2015-02-04T02:00:00","40","ND","ND","ND","ND","ND","ND","ND","ND","ND","ND","0"],
    [41624,"2015-02-04T03:00:00","27","ND","ND","ND","ND","ND","ND","ND","ND","ND","ND","0"],
    [41625,"2015-02-04T04:00:00","26","ND","ND","ND","ND","ND","ND","ND","ND","ND","ND","0"],
    [41626,"2015-02-04T05:00:00","29","ND","ND","ND","ND","ND","ND","ND","ND","ND","ND","0"],
    [41627,"2015-02-04T06:00:00","31","ND","ND","ND","ND","ND","ND","ND","ND","ND","ND","0"],
    [41628,"2015-02-04T07:00:00","94","ND","ND","ND","ND","ND","ND","ND","ND","ND","ND","0"],
    [41629,"2015-02-04T08:00:00","102","ND","ND","ND","ND","ND","ND","ND","ND","ND","ND","0"],
    [41630,"2015-02-04T09:00:00","103","ND","ND","ND","ND","ND","ND","ND","ND","ND","ND","0"],
    [41631,"2015-02-04T10:00:00","66","ND","ND","ND","ND","ND","ND","ND","ND","ND","ND","0"],
    [41632,"2015-02-04T11:00:00","53","ND","ND","ND","ND","ND","ND","ND","ND","ND","ND","0"],
    [41633,"2015-02-04T12:00:00","42","ND","ND","ND","ND","ND","ND","ND","ND","ND","ND","0"],
    [41634,"2015-02-04T13:00:00","36","ND","ND","ND","ND","ND","ND","ND","ND","ND","ND","0"],
    [41635,"2015-02-04T14:00:00","51","ND","ND","ND","ND","ND","ND","ND","ND","ND","ND","0"],
    [41636,"2015-02-04T15:00:00","39","ND","ND","ND","ND","ND","ND","ND","ND","ND","ND","0"],
    [41637,"2015-02-04T16:00:00","57","ND","ND","ND","ND","ND","ND","ND","ND","ND","ND","0"],
    [41638,"2015-02-04T17:00:00","40","ND","ND","ND","ND","ND","ND","ND","ND","ND","ND","0"],
    [41639,"2015-02-04T18:00:00","38","ND","ND","ND","ND","ND","ND","ND","ND","ND","ND","0"],
    [41640,"2015-02-04T19:00:00","41","ND","ND","ND","ND","ND","ND","ND","ND","ND","ND","0"],
    [41641,"2015-02-04T20:00:00","66","ND","ND","ND","ND","ND","ND","ND","ND","ND","ND","0"],
    [41642,"2015-02-04T21:00:00","54","ND","ND","ND","ND","ND","ND","ND","ND","ND","ND","0"],
    [41643,"2015-02-04T22:00:00","45","ND","ND","ND","ND","ND","ND","ND","ND","ND","ND","0"],
    [41644,"2015-02-04T23:00:00","42","ND","ND","ND","ND","ND","ND","ND","ND","ND","ND","0"],
    [41645,"2015-02-05T00:00:00","36","ND","ND","ND","ND","ND","ND","ND","ND","ND","ND","0"],
    [41646,"2015-02-05T01:00:00","37","ND","ND","ND","ND","ND","ND","ND","ND","ND","ND","0"],
    [41647,"2015-02-05T02:00:00","26","ND","ND","ND","ND","ND","ND","ND","ND","ND","ND","0"],
    [41648,"2015-02-05T03:00:00","27","ND","ND","ND","ND","ND","ND","ND","ND","ND","ND","0"],
    [41649,"2015-02-05T04:00:00","37","ND","ND","ND","ND","ND","ND","ND","ND","ND","ND","0"],
    [41650,"2015-02-05T05:00:00","34","ND","ND","ND","ND","ND","ND","ND","ND","ND","ND","0"],
    [41651,"2015-02-05T06:00:00","45","ND","ND","ND","ND","ND","ND","ND","ND","ND","ND","0"],
    [41652,"2015-02-05T07:00:00","79","ND","ND","ND","ND","ND","ND","ND","ND","ND","ND","0"],
    [41653,"2015-02-05T08:00:00","93","ND","ND","ND","ND","ND","ND","ND","ND","ND","ND","0"],
    [41654,"2015-02-05T09:00:00","112","ND","ND","ND","ND","ND","ND","ND","ND","ND","ND","0"],
    [41655,"2015-02-05T10:00:00","108","ND","ND","ND","ND","ND","ND","ND","ND","ND","ND","0"],
    [41656,"2015-02-05T11:00:00","146","ND","ND","ND","ND","ND","ND","ND","ND","ND","ND","0"],
    [41657,"2015-02-05T12:00:00","103","ND","ND","ND","ND","ND","ND","ND","ND","ND","ND","0"],
    [41658,"2015-02-05T13:00:00","45","ND","ND","ND","ND","ND","ND","ND","ND","ND","ND","0"],
    [41659,"2015-02-05T14:00:00","34","ND","ND","ND","ND","ND","ND","ND","ND","ND","ND","0"],
    [41660,"2015-02-05T15:00:00","26","ND","ND","ND","ND","ND","ND","ND","ND","ND","ND","0"],
    [41661,"2015-02-05T16:00:00","22","ND","ND","ND","ND","ND","ND","ND","ND","ND","ND","0"],
    [41662,"2015-02-05T17:00:00","21","ND","ND","ND","ND","ND","ND","ND","ND","ND","ND","0"],
    [41663,"2015-02-05T18:00:00","26","ND","ND","ND","ND","ND","ND","ND","ND","ND","ND","0"],
    [41664,"2015-02-05T19:00:00","42","ND","ND","ND","ND","ND","ND","ND","ND","ND","ND","0"],
    [41665,"2015-02-05T20:00:00","57","ND","ND","ND","ND","ND","ND","ND","ND","ND","ND","0"],
    [41666,"2015-02-05T21:00:00","43","ND","ND","ND","ND","ND","ND","ND","ND","ND","ND","0"],
    [41667,"2015-02-05T22:00:00","26","ND","ND","ND","ND","ND","ND","ND","ND","ND","ND","0"],
    [41668,"2015-02-05T23:00:00","31","ND","ND","ND","ND","ND","ND","ND","ND","ND","ND","0"],
    [41669,"2015-02-06T00:00:00","16","ND","ND","ND","ND","ND","ND","ND","ND","ND","ND","0"],
    [41670,"2015-02-06T01:00:00","20","ND","ND","ND","ND","ND","ND","ND","ND","ND","ND","0"],
    [41671,"2015-02-06T02:00:00","62","ND","ND","ND","ND","ND","ND","ND","ND","ND","ND","0"],
    [41672,"2015-02-06T03:00:00","19","ND","ND","ND","ND","ND","ND","ND","ND","ND","ND","0"],
    [41673,"2015-02-06T04:00:00","36","ND","ND","ND","ND","ND","ND","ND","ND","ND","ND","0"],
    [41674,"2015-02-06T05:00:00","60","ND","ND","ND","ND","ND","ND","ND","ND","ND","ND","0"],
    [41675,"2015-02-06T06:00:00","48","ND","ND","ND","ND","ND","ND","ND","ND","ND","ND","0"],
    [41676,"2015-02-06T07:00:00","70","ND","ND","ND","ND","ND","ND","ND","ND","ND","ND","0"],
    [41677,"2015-02-06T08:00:00","60","ND","ND","ND","ND","ND","ND","ND","ND","ND","ND","0"],
    [41678,"2015-02-06T09:00:00","46","ND","ND","ND","ND","ND","ND","ND","ND","ND","ND","0"],
    [41679,"2015-02-06T10:00:00","57","ND","ND","ND","ND","ND","ND","ND","ND","ND","ND","0"],
    [41680,"2015-02-06T11:00:00","38","ND","ND","ND","ND","ND","ND","ND","ND","ND","ND","0"],
    [41681,"2015-02-06T12:00:00","44","ND","ND","ND","ND","ND","ND","ND","ND","ND","ND","0"],
    [41682,"2015-02-06T13:00:00","47","ND","ND","ND","ND","ND","ND","ND","ND","ND","ND","0"],
    [41683,"2015-02-06T14:00:00","66","ND","ND","ND","ND","ND","ND","ND","ND","ND","ND","0"],
    [41684,"2015-02-06T15:00:00","41","ND","ND","ND","ND","ND","ND","ND","ND","ND","ND","0"],
    [41685,"2015-02-06T16:00:00","ND","ND","ND","ND","ND","ND","ND","ND","ND","ND","ND","0"],
    [41686,"2015-02-06T17:00:00","38","ND","ND","ND","ND","ND","ND","ND","ND","ND","ND","0"],
    [41687,"2015-02-06T18:00:00","ND","ND","ND","ND","ND","ND","ND","ND","ND","ND","ND","0"],
    [41688,"2015-02-06T19:00:00","ND","ND","ND","ND","ND","ND","ND","ND","ND","ND","ND","0"],
    [41689,"2015-02-06T20:00:00","ND","ND","ND","ND","ND","ND","ND","ND","ND","ND","ND","0"],
    [41690,"2015-02-06T21:00:00","ND","ND","ND","ND","ND","ND","ND","ND","ND","ND","ND","0"],
    [41691,"2015-02-06T22:00:00","ND","ND","ND","ND","ND","ND","ND","ND","ND","ND","ND","0"],
    [41692,"2015-02-06T23:00:00","ND","ND","ND","ND","ND","ND","ND","ND","ND","ND","ND","0"],
    [41693,"2015-02-07T00:00:00","ND","ND","ND","ND","ND","ND","ND","ND","ND","ND","ND","0"],
    [41694,"2015-02-07T01:00:00","ND","ND","ND","ND","ND","ND","ND","ND","ND","ND","ND","0"],
    [41695,"2015-02-07T02:00:00","ND","ND","ND","ND","ND","ND","ND","ND","ND","ND","ND","0"],
    [41696,"2015-02-07T03:00:00","ND","ND","ND","ND","ND","ND","ND","ND","ND","ND","ND","0"],
    [41697,"2015-02-07T04:00:00","ND","ND","ND","ND","ND","ND","ND","ND","ND","ND","ND","0"],
    [41698,"2015-02-07T05:00:00","ND","ND","ND","ND","ND","ND","ND","ND","ND","ND","ND","0"],
    [41699,"2015-02-07T06:00:00","ND","ND","ND","ND","ND","ND","ND","ND","ND","ND","ND","0"],
    [41700,"2015-02-07T07:00:00","ND","ND","ND","ND","ND","ND","ND","ND","ND","ND","ND","0"],
    [41701,"2015-02-07T08:00:00","ND","ND","ND","ND","ND","ND","ND","ND","ND","ND","ND","15.75"],
    [41702,"2015-02-07T09:00:00","ND","ND","ND","ND","ND","ND","ND","ND","ND","ND","ND","9.65"],
    [41703,"2015-02-07T10:00:00","ND","ND","ND","ND","ND","ND","ND","ND","ND","ND","ND","3.05"],
    [41704,"2015-02-07T11:00:00","ND","ND","ND","ND","ND","ND","ND","ND","ND","ND","ND","0"],
    [41705,"2015-02-07T12:00:00","18","ND","ND","ND","ND","ND","ND","ND","ND","ND","ND","0"],
    [41706,"2015-02-07T13:00:00","21","ND","ND","ND","ND","ND","ND","ND","ND","ND","ND","0"],
    [41707,"2015-02-07T14:00:00","ND","ND","ND","ND","ND","ND","ND","ND","ND","ND","ND","19.56"],
    [41708,"2015-02-07T15:00:00","ND","ND","ND","ND","ND","ND","ND","ND","ND","ND","ND","28.7"],
    [41709,"2015-02-07T16:00:00","ND","ND","ND","ND","ND","ND","ND","ND","ND","ND","ND","0"],
    [41710,"2015-02-07T17:00:00","ND","ND","ND","ND","ND","ND","ND","ND","ND","ND","ND","0.25"],
    [41711,"2015-02-07T18:00:00","ND","ND","ND","ND","ND","ND","ND","ND","ND","ND","ND","0"],
    [41712,"2015-02-07T19:00:00","ND","ND","ND","ND","ND","ND","ND","ND","ND","ND","ND","0"],
    [41713,"2015-02-07T20:00:00","ND","ND","ND","ND","ND","ND","ND","ND","ND","ND","ND","0"],
    [41714,"2015-02-07T21:00:00","ND","ND","ND","ND","ND","ND","ND","ND","ND","ND","ND","0"],
    [41715,"2015-02-07T22:00:00","ND","ND","ND","ND","ND","ND","ND","ND","ND","ND","ND","0"],
    [41716,"2015-02-07T23:00:00","ND","ND","ND","ND","ND","ND","ND","ND","ND","ND","ND","0"],
    [41717,"2015-02-08T00:00:00","45","ND","ND","ND","ND","ND","ND","ND","ND","ND","ND","0"],
    [41718,"2015-02-08T01:00:00","ND","ND","ND","ND","ND","ND","ND","ND","ND","ND","ND","0"],
    [41719,"2015-02-08T02:00:00","ND","ND","ND","ND","ND","ND","ND","ND","ND","ND","ND","0"],
    [41720,"2015-02-08T03:00:00","ND","ND","ND","ND","ND","ND","ND","ND","ND","ND","ND","0"],
    [41721,"2015-02-08T04:00:00","ND","ND","ND","ND","ND","ND","ND","ND","ND","ND","ND","5.33"],
    [41722,"2015-02-08T05:00:00","ND","ND","ND","ND","ND","ND","ND","ND","ND","ND","ND","8.89"],
    [41723,"2015-02-08T06:00:00","ND","ND","ND","ND","ND","ND","ND","ND","ND","ND","ND","3.81"],
    [41724,"2015-02-08T07:00:00","ND","ND","ND","ND","ND","ND","ND","ND","ND","ND","ND","1.02"],
    [41725,"2015-02-08T08:00:00","ND","ND","ND","ND","ND","ND","ND","ND","ND","ND","ND","2.03"],
    [41726,"2015-02-08T09:00:00","ND","ND","ND","ND","ND","ND","ND","ND","ND","ND","ND","2.03"],
    [41727,"2015-02-08T10:00:00","ND","ND","ND","ND","ND","ND","ND","ND","ND","ND","ND","0"],
    [41728,"2015-02-08T11:00:00","ND","ND","ND","ND","ND","ND","ND","ND","ND","ND","ND","0"],
    [41729,"2015-02-08T12:00:00","15","ND","ND","ND","ND","ND","ND","ND","ND","ND","ND","0"],
    [41730,"2015-02-08T13:00:00","8","ND","ND","ND","ND","ND","ND","ND","ND","ND","ND","0.25"],
    [41731,"2015-02-08T14:00:00","10","ND","ND","ND","ND","ND","ND","ND","ND","ND","ND","0"],
    [41732,"2015-02-08T15:00:00","7","ND","ND","ND","ND","ND","ND","ND","ND","ND","ND","0"],
    [41733,"2015-02-08T16:00:00","3","ND","ND","ND","ND","ND","ND","ND","ND","ND","ND","0"],
    [41734,"2015-02-08T17:00:00","1","ND","ND","ND","ND","ND","ND","ND","ND","ND","ND","0"],
    [41735,"2015-02-08T18:00:00","9","ND","ND","ND","ND","ND","ND","ND","ND","ND","ND","0"],
    [41736,"2015-02-08T19:00:00","5","ND","ND","ND","ND","ND","ND","ND","ND","ND","ND","0"],
    [41737,"2015-02-08T20:00:00","ND","ND","ND","ND","ND","ND","ND","ND","ND","ND","ND","0"],
    [41738,"2015-02-08T21:00:00","5","ND","ND","ND","ND","ND","ND","ND","ND","ND","ND","0.25"],
    [41739,"2015-02-08T22:00:00","10","ND","ND","ND","ND","ND","ND","ND","ND","ND","ND","0"],
    [41740,"2015-02-08T23:00:00","16","ND","ND","ND","ND","ND","ND","ND","ND","ND","ND","0"],
    [41741,"2015-02-09T00:00:00","10","ND","ND","ND","ND","ND","ND","ND","ND","ND","ND","0"],
    [41742,"2015-02-09T01:00:00","6","ND","ND","ND","ND","ND","ND","ND","ND","ND","ND","0.76"],
    [41743,"2015-02-09T02:00:00","7","ND","ND","ND","ND","ND","ND","ND","ND","ND","ND","1.27"],
    [41744,"2015-02-09T03:00:00","3","ND","ND","ND","ND","ND","ND","ND","ND","ND","ND","3.56"],
    [41745,"2015-02-09T04:00:00","ND","ND","ND","ND","ND","ND","ND","ND","ND","ND","ND","0.25"],
    [41746,"2015-02-09T05:00:00","ND","ND","ND","ND","ND","ND","ND","ND","ND","ND","ND","0"],
    [41747,"2015-02-09T06:00:00","ND","ND","ND","ND","ND","ND","ND","ND","ND","ND","ND","0"],
    [41748,"2015-02-09T07:00:00","ND","ND","ND","ND","ND","ND","ND","ND","ND","ND","ND","0.25"],
    [41749,"2015-02-09T08:00:00","ND","ND","ND","ND","ND","ND","ND","ND","ND","ND","ND","0"],
    [41750,"2015-02-09T09:00:00","ND","ND","ND","ND","ND","ND","ND","ND","ND","ND","ND","0"],
    [41751,"2015-02-09T10:00:00","ND","ND","ND","ND","ND","ND","ND","ND","ND","ND","ND","0"],
    [41752,"2015-02-09T11:00:00","ND","ND","ND","ND","ND","ND","ND","ND","ND","ND","ND","0"],
    [41753,"2015-02-09T12:00:00","ND","ND","ND","ND","ND","ND","ND","ND","ND","ND","ND","0"],
    [41754,"2015-02-09T13:00:00","24","ND","ND","ND","ND","ND","ND","ND","ND","ND","ND","0"],
    [41755,"2015-02-09T14:00:00","ND","ND","ND","ND","ND","ND","ND","ND","ND","ND","ND","0"],
    [41756,"2015-02-09T15:00:00","30","ND","ND","ND","ND","ND","ND","ND","ND","ND","ND","0"],
    [41757,"2015-02-09T16:00:00","31","ND","ND","ND","ND","ND","ND","ND","ND","ND","ND","0"],
    [41758,"2015-02-09T17:00:00","24","ND","ND","ND","ND","ND","ND","ND","ND","ND","ND","0"],
    [41759,"2015-02-09T18:00:00","ND","ND","ND","ND","ND","ND","ND","ND","ND","ND","ND","0"],
    [41760,"2015-02-09T19:00:00","13","ND","ND","ND","ND","ND","ND","ND","ND","ND","ND","0"],
    [41761,"2015-02-09T20:00:00","10","ND","ND","ND","ND","ND","ND","ND","ND","ND","ND","0"],
    [41762,"2015-02-09T21:00:00","48","ND","ND","ND","ND","ND","ND","ND","ND","ND","ND","0"],
    [41763,"2015-02-09T22:00:00","39","ND","ND","ND","ND","ND","ND","ND","ND","ND","ND","0"],
    [41764,"2015-02-09T23:00:00","19","ND","ND","ND","ND","ND","ND","ND","ND","ND","ND","0"],
    [41765,"2015-02-10T00:00:00","58","ND","ND","ND","ND","ND","ND","ND","ND","ND","ND","0"],
    [41766,"2015-02-10T01:00:00","40","ND","ND","ND","ND","ND","ND","ND","ND","ND","ND","0"],
    [41767,"2015-02-10T02:00:00","15","ND","ND","ND","ND","ND","ND","ND","ND","ND","ND","4.32"],
    [41768,"2015-02-10T03:00:00","18","ND","ND","ND","ND","ND","ND","ND","ND","ND","ND","0.25"],
    [41769,"2015-02-10T04:00:00","1","ND","ND","ND","ND","ND","ND","ND","ND","ND","ND","0"],
    [41770,"2015-02-10T05:00:00","16","ND","ND","ND","ND","ND","ND","ND","ND","ND","ND","0"],
    [41771,"2015-02-10T06:00:00","27","ND","ND","ND","ND","ND","ND","ND","ND","ND","ND","0"],
    [41772,"2015-02-10T07:00:00","28","ND","ND","ND","ND","ND","ND","ND","ND","ND","ND","0.25"],
    [41773,"2015-02-10T08:00:00","25","ND","ND","ND","ND","ND","ND","ND","ND","ND","ND","0"],
    [41774,"2015-02-10T09:00:00","23","ND","ND","ND","ND","ND","ND","ND","ND","ND","ND","0"],
    [41775,"2015-02-10T10:00:00","22","ND","ND","ND","ND","ND","ND","ND","ND","ND","ND","0"],
    [41776,"2015-02-10T11:00:00","13","ND","ND","ND","ND","ND","ND","ND","ND","ND","ND","0"],
    [41777,"2015-02-10T12:00:00","10","ND","ND","ND","ND","ND","ND","ND","ND","ND","ND","0"],
    [41778,"2015-02-10T13:00:00","17","ND","ND","ND","ND","ND","ND","ND","ND","ND","ND","0"],
    [41779,"2015-02-10T14:00:00","14","ND","ND","ND","ND","ND","ND","ND","ND","ND","ND","0"],
    [41780,"2015-02-10T15:00:00","22","ND","ND","ND","ND","ND","ND","ND","ND","ND","ND","0"],
    [41781,"2015-02-10T16:00:00","13","ND","ND","ND","ND","ND","ND","ND","ND","ND","ND","0"],
    [41782,"2015-02-10T17:00:00","29","ND","ND","ND","ND","ND","ND","ND","ND","ND","ND","0"],
    [41783,"2015-02-10T18:00:00","21","ND","ND","ND","ND","ND","ND","ND","ND","ND","ND","0"],
    [41784,"2015-02-10T19:00:00","23","ND","ND","ND","ND","ND","ND","ND","ND","ND","ND","0"],
    [41785,"2015-02-10T20:00:00","57","ND","ND","ND","ND","ND","ND","ND","ND","ND","ND","0"],
    [41786,"2015-02-10T21:00:00","36","ND","ND","ND","ND","ND","ND","ND","ND","ND","ND","0"],
    [41787,"2015-02-10T22:00:00","54","ND","ND","ND","ND","ND","ND","ND","ND","ND","ND","0"],
    [41788,"2015-02-10T23:00:00","50","ND","ND","ND","ND","ND","ND","ND","ND","ND","ND","0"],
    [41789,"2015-02-11T00:00:00","56","ND","ND","ND","ND","ND","ND","ND","ND","ND","ND","0"],
    [41790,"2015-02-11T01:00:00","35","ND","ND","ND","ND","ND","ND","ND","ND","ND","ND","0"],
    [41791,"2015-02-11T02:00:00","51","ND","ND","ND","ND","ND","ND","ND","ND","ND","ND","0"],
    [41792,"2015-02-11T03:00:00","43","ND","ND","ND","ND","ND","ND","ND","ND","ND","ND","0"],
    [41793,"2015-02-11T04:00:00","47","ND","ND","ND","ND","ND","ND","ND","ND","ND","ND","0"],
    [41794,"2015-02-11T05:00:00","33","ND","ND","ND","ND","ND","ND","ND","ND","ND","ND","0"],
    [41795,"2015-02-11T06:00:00","38","ND","ND","ND","ND","ND","ND","ND","ND","ND","ND","0"],
    [41796,"2015-02-11T07:00:00","75","ND","ND","ND","ND","ND","ND","ND","ND","ND","ND","0"],
    [41797,"2015-02-11T08:00:00","64","ND","ND","ND","ND","ND","ND","ND","ND","ND","ND","0"],
    [41798,"2015-02-11T09:00:00","79","ND","ND","ND","ND","ND","ND","ND","ND","ND","ND","0"],
    [41799,"2015-02-11T10:00:00","121","ND","ND","ND","ND","ND","ND","ND","ND","ND","ND","0"],
    [41800,"2015-02-11T11:00:00","67","ND","ND","ND","ND","ND","ND","ND","ND","ND","ND","0"],
    [41801,"2015-02-11T12:00:00","57","ND","ND","ND","ND","ND","ND","ND","ND","ND","ND","0"],
    [41802,"2015-02-11T13:00:00","51","ND","ND","ND","ND","ND","ND","ND","ND","ND","ND","0"],
    [41803,"2015-02-11T14:00:00","46","ND","ND","ND","ND","ND","ND","ND","ND","ND","ND","0"],
    [41804,"2015-02-11T15:00:00","56","ND","ND","ND","ND","ND","ND","ND","ND","ND","ND","0"],
    [41805,"2015-02-11T16:00:00","44","ND","ND","ND","ND","ND","ND","ND","ND","ND","ND","0"],
    [41806,"2015-02-11T17:00:00","25","ND","ND","ND","ND","ND","ND","ND","ND","ND","ND","0"],
    [41807,"2015-02-11T18:00:00","28","ND","ND","ND","ND","ND","ND","ND","ND","ND","ND","0"],
    [41808,"2015-02-11T19:00:00","34","ND","ND","ND","ND","ND","ND","ND","ND","ND","ND","0"],
    [41809,"2015-02-11T20:00:00","27","ND","ND","ND","ND","ND","ND","ND","ND","ND","ND","0"],
    [41810,"2015-02-11T21:00:00","44","ND","ND","ND","ND","ND","ND","ND","ND","ND","ND","0"],
    [41811,"2015-02-11T22:00:00","49","ND","ND","ND","ND","ND","ND","ND","ND","ND","ND","0"],
    [41812,"2015-02-11T23:00:00","44","ND","ND","ND","ND","ND","ND","ND","ND","ND","ND","0"],
    [41813,"2015-02-12T00:00:00","40","ND","ND","ND","ND","ND","ND","ND","ND","ND","ND","0"],
    [41814,"2015-02-12T01:00:00","37","ND","ND","ND","ND","ND","ND","ND","ND","ND","ND","0"],
    [41815,"2015-02-12T02:00:00","22","ND","ND","ND","ND","ND","ND","ND","ND","ND","ND","0"],
    [41816,"2015-02-12T03:00:00","34","ND","ND","ND","ND","ND","ND","ND","ND","ND","ND","0"],
    [41817,"2015-02-12T04:00:00","33","ND","ND","ND","ND","ND","ND","ND","ND","ND","ND","0"],
    [41818,"2015-02-12T05:00:00","37","ND","ND","ND","ND","ND","ND","ND","ND","ND","ND","0"],
    [41819,"2015-02-12T06:00:00","62","ND","ND","ND","ND","ND","ND","ND","ND","ND","ND","1.78"],
    [41820,"2015-02-12T07:00:00","64","ND","ND","ND","ND","ND","ND","ND","ND","ND","ND","0.25"],
    [41821,"2015-02-12T08:00:00","49","ND","ND","ND","ND","ND","ND","ND","ND","ND","ND","0.25"],
    [41822,"2015-02-12T09:00:00","77","ND","ND","ND","ND","ND","ND","ND","ND","ND","ND","0"],
    [41823,"2015-02-12T10:00:00","76","ND","ND","ND","ND","ND","ND","ND","ND","ND","ND","0"],
    [41824,"2015-02-12T11:00:00","57","ND","ND","ND","ND","ND","ND","ND","ND","ND","ND","0"],
    [41825,"2015-02-12T12:00:00","48","ND","ND","ND","ND","ND","ND","ND","ND","ND","ND","0"],
    [41826,"2015-02-12T13:00:00","48","ND","ND","ND","ND","ND","ND","ND","ND","ND","ND","0"],
    [41827,"2015-02-12T14:00:00","57","ND","ND","ND","ND","ND","ND","ND","ND","ND","ND","0"],
    [41828,"2015-02-12T15:00:00","ND","ND","ND","ND","ND","ND","ND","ND","ND","ND","ND","0"],
    [41829,"2015-02-12T16:00:00","33","ND","ND","ND","ND","ND","ND","ND","ND","ND","ND","0"],
    [41830,"2015-02-12T17:00:00","38","ND","ND","ND","ND","ND","ND","ND","ND","ND","ND","0"],
    [41831,"2015-02-12T18:00:00","29","ND","ND","ND","ND","ND","ND","ND","ND","ND","ND","0"],
    [41832,"2015-02-12T19:00:00","34","ND","ND","ND","ND","ND","ND","ND","ND","ND","ND","0"],
    [41833,"2015-02-12T20:00:00","48","ND","ND","ND","ND","ND","ND","ND","ND","ND","ND","0"],
    [41834,"2015-02-12T21:00:00","67","ND","ND","ND","ND","ND","ND","ND","ND","ND","ND","0"],
    [41835,"2015-02-12T22:00:00","59","ND","ND","ND","ND","ND","ND","ND","ND","ND","ND","0"],
    [41836,"2015-02-12T23:00:00","73","ND","ND","ND","ND","ND","ND","ND","ND","ND","ND","0"],
    [41837,"2015-02-13T00:00:00","72","ND","ND","ND","ND","ND","ND","ND","ND","ND","ND","0"],
    [41838,"2015-02-13T01:00:00","57","ND","ND","ND","ND","ND","ND","ND","ND","ND","ND","0"],
    [41839,"2015-02-13T02:00:00","69","ND","ND","ND","ND","ND","ND","ND","ND","ND","ND","0"],
    [41840,"2015-02-13T03:00:00","48","ND","ND","ND","ND","ND","ND","ND","ND","ND","ND","0"],
    [41841,"2015-02-13T04:00:00","43","ND","ND","ND","ND","ND","ND","ND","ND","ND","ND","0"],
    [41842,"2015-02-13T05:00:00","40","ND","ND","ND","ND","ND","ND","ND","ND","ND","ND","0"],
    [41843,"2015-02-13T06:00:00","38","ND","ND","ND","ND","ND","ND","ND","ND","ND","ND","0"],
    [41844,"2015-02-13T07:00:00","49","ND","ND","ND","ND","ND","ND","ND","ND","ND","ND","0"],
    [41845,"2015-02-13T08:00:00","84","ND","ND","ND","ND","ND","ND","ND","ND","ND","ND","0"],
    [41846,"2015-02-13T09:00:00","85","ND","ND","ND","ND","ND","ND","ND","ND","ND","ND","0"],
    [41847,"2015-02-13T10:00:00","70","ND","ND","ND","ND","ND","ND","ND","ND","ND","ND","0"],
    [41848,"2015-02-13T11:00:00","48","ND","ND","ND","ND","ND","ND","ND","ND","ND","ND","0"],
    [41849,"2015-02-13T12:00:00","67","ND","ND","ND","ND","ND","ND","ND","ND","ND","ND","0"],
    [41850,"2015-02-13T13:00:00","ND","ND","ND","ND","ND","ND","ND","ND","ND","ND","ND","0"],
    [41851,"2015-02-13T14:00:00","ND","ND","ND","ND","ND","ND","ND","ND","ND","ND","ND","0"],
    [41852,"2015-02-13T15:00:00","70","ND","ND","ND","ND","ND","ND","ND","ND","ND","ND","0"],
    [41853,"2015-02-13T16:00:00","45","ND","ND","ND","ND","ND","ND","ND","ND","ND","ND","0"],
    [41854,"2015-02-13T17:00:00","ND","ND","ND","ND","ND","ND","ND","ND","ND","ND","ND","0"],
    [41855,"2015-02-13T18:00:00","40","ND","ND","ND","ND","ND","ND","ND","ND","ND","ND","0"],
    [41856,"2015-02-13T19:00:00","34","ND","ND","ND","ND","ND","ND","ND","ND","ND","ND","0"],
    [41857,"2015-02-13T20:00:00","79","ND","ND","ND","ND","ND","ND","ND","ND","ND","ND","0"],
    [41858,"2015-02-13T21:00:00","ND","ND","ND","ND","ND","ND","ND","ND","ND","ND","ND","0"],
    [41859,"2015-02-13T22:00:00","59","ND","ND","ND","ND","ND","ND","ND","ND","ND","ND","0"],
    [41860,"2015-02-13T23:00:00","60","ND","ND","ND","ND","ND","ND","ND","ND","ND","ND","0"],
    [41861,"2015-02-14T00:00:00","56","ND","ND","ND","ND","ND","ND","ND","ND","ND","ND","0"],
    [41862,"2015-02-14T01:00:00","55","ND","ND","ND","ND","ND","ND","ND","ND","ND","ND","0"],
    [41863,"2015-02-14T02:00:00","50","ND","ND","ND","ND","ND","ND","ND","ND","ND","ND","0"],
    [41864,"2015-02-14T03:00:00","47","ND","ND","ND","ND","ND","ND","ND","ND","ND","ND","0"],
    [41865,"2015-02-14T04:00:00","38","ND","ND","ND","ND","ND","ND","ND","ND","ND","ND","0"],
    [41866,"2015-02-14T05:00:00","61","ND","ND","ND","ND","ND","ND","ND","ND","ND","ND","0"],
    [41867,"2015-02-14T06:00:00","64","ND","ND","ND","ND","ND","ND","ND","ND","ND","ND","0"],
    [41868,"2015-02-14T07:00:00","113","ND","ND","ND","ND","ND","ND","ND","ND","ND","ND","0"],
    [41869,"2015-02-14T08:00:00","128","ND","ND","ND","ND","ND","ND","ND","ND","ND","ND","0"],
    [41870,"2015-02-14T09:00:00","109","ND","ND","ND","ND","ND","ND","ND","ND","ND","ND","0"],
    [41871,"2015-02-14T10:00:00","99","ND","ND","ND","ND","ND","ND","ND","ND","ND","ND","0"],
    [41872,"2015-02-14T11:00:00","104","ND","ND","ND","ND","ND","ND","ND","ND","ND","ND","0"],
    [41873,"2015-02-14T12:00:00","ND","ND","ND","ND","ND","ND","ND","ND","ND","ND","ND","0"],
    [41874,"2015-02-14T13:00:00","ND","ND","ND","ND","ND","ND","ND","ND","ND","ND","ND","0"],
    [41875,"2015-02-14T14:00:00","46","ND","ND","ND","ND","ND","ND","ND","ND","ND","ND","0"],
    [41876,"2015-02-14T15:00:00","41","ND","ND","ND","ND","ND","ND","ND","ND","ND","ND","0"],
    [41877,"2015-02-14T16:00:00","25","ND","ND","ND","ND","ND","ND","ND","ND","ND","ND","0"],
    [41878,"2015-02-14T17:00:00","27","ND","ND","ND","ND","ND","ND","ND","ND","ND","ND","0"],
    [41879,"2015-02-14T18:00:00","27","ND","ND","ND","ND","ND","ND","ND","ND","ND","ND","0"],
    [41880,"2015-02-14T19:00:00","25","ND","ND","ND","ND","ND","ND","ND","ND","ND","ND","0"],
    [41881,"2015-02-14T20:00:00","43","ND","ND","ND","ND","ND","ND","ND","ND","ND","ND","0"],
    [41882,"2015-02-14T21:00:00","55","ND","ND","ND","ND","ND","ND","ND","ND","ND","ND","0"],
    [41883,"2015-02-14T22:00:00","74","ND","ND","ND","ND","ND","ND","ND","ND","ND","ND","0"],
    [41884,"2015-02-14T23:00:00","66","ND","ND","ND","ND","ND","ND","ND","ND","ND","ND","0"],
    [41885,"2015-02-15T00:00:00","63","ND","ND","ND","ND","ND","ND","ND","ND","ND","ND","0"],
    [41886,"2015-02-15T01:00:00","53","ND","ND","ND","ND","ND","ND","ND","ND","ND","ND","0"],
    [41887,"2015-02-15T02:00:00","43","ND","ND","ND","ND","ND","ND","ND","ND","ND","ND","0"],
    [41888,"2015-02-15T03:00:00","57","ND","ND","ND","ND","ND","ND","ND","ND","ND","ND","0"],
    [41889,"2015-02-15T04:00:00","42","ND","ND","ND","ND","ND","ND","ND","ND","ND","ND","0"],
    [41890,"2015-02-15T05:00:00","48","ND","ND","ND","ND","ND","ND","ND","ND","ND","ND","0"],
    [41891,"2015-02-15T06:00:00","52","ND","ND","ND","ND","ND","ND","ND","ND","ND","ND","0"],
    [41892,"2015-02-15T07:00:00","59","ND","ND","ND","ND","ND","ND","ND","ND","ND","ND","0"],
    [41893,"2015-02-15T08:00:00","56","ND","ND","ND","ND","ND","ND","ND","ND","ND","ND","0"],
    [41894,"2015-02-15T09:00:00","68","ND","ND","ND","ND","ND","ND","ND","ND","ND","ND","0"],
    [41895,"2015-02-15T10:00:00","56","ND","ND","ND","ND","ND","ND","ND","ND","ND","ND","0"],
    [41896,"2015-02-15T11:00:00","52","ND","ND","ND","ND","ND","ND","ND","ND","ND","ND","0"],
    [41897,"2015-02-15T12:00:00","45","ND","ND","ND","ND","ND","ND","ND","ND","ND","ND","0"],
    [41898,"2015-02-15T13:00:00","54","ND","ND","ND","ND","ND","ND","ND","ND","ND","ND","0"],
    [41899,"2015-02-15T14:00:00","44","ND","ND","ND","ND","ND","ND","ND","ND","ND","ND","0"],
    [41900,"2015-02-15T15:00:00","31","ND","ND","ND","ND","ND","ND","ND","ND","ND","ND","0"],
    [41901,"2015-02-15T16:00:00","14","ND","ND","ND","ND","ND","ND","ND","ND","ND","ND","0"],
    [41902,"2015-02-15T17:00:00","17","ND","ND","ND","ND","ND","ND","ND","ND","ND","ND","0"],
    [41903,"2015-02-15T18:00:00","15","ND","ND","ND","ND","ND","ND","ND","ND","ND","ND","0"],
    [41904,"2015-02-15T19:00:00","16","ND","ND","ND","ND","ND","ND","ND","ND","ND","ND","0"],
    [41905,"2015-02-15T20:00:00","17","ND","ND","ND","ND","ND","ND","ND","ND","ND","ND","0"],
    [41906,"2015-02-15T21:00:00","28","ND","ND","ND","ND","ND","ND","ND","ND","ND","ND","0"],
    [41907,"2015-02-15T22:00:00","23","ND","ND","ND","ND","ND","ND","ND","ND","ND","ND","1.02"],
    [41908,"2015-02-15T23:00:00","30","ND","ND","ND","ND","ND","ND","ND","ND","ND","ND","0.25"],
    [41909,"2015-02-16T00:00:00","21","ND","ND","ND","ND","ND","ND","ND","ND","ND","ND","0"],
    [41910,"2015-02-16T01:00:00","31","ND","ND","ND","ND","ND","ND","ND","ND","ND","ND","0"],
    [41911,"2015-02-16T02:00:00","45","ND","ND","ND","ND","ND","ND","ND","ND","ND","ND","0"],
    [41912,"2015-02-16T03:00:00","27","ND","ND","ND","ND","ND","ND","ND","ND","ND","ND","0"],
    [41913,"2015-02-16T04:00:00","28","ND","ND","ND","ND","ND","ND","ND","ND","ND","ND","0"],
    [41914,"2015-02-16T05:00:00","24","ND","ND","ND","ND","ND","ND","ND","ND","ND","ND","0"],
    [41915,"2015-02-16T06:00:00","38","ND","ND","ND","ND","ND","ND","ND","ND","ND","ND","0"],
    [41916,"2015-02-16T07:00:00","54","ND","ND","ND","ND","ND","ND","ND","ND","ND","ND","0"],
    [41917,"2015-02-16T08:00:00","84","ND","ND","ND","ND","ND","ND","ND","ND","ND","ND","0"],
    [41918,"2015-02-16T09:00:00","84","ND","ND","ND","ND","ND","ND","ND","ND","ND","ND","0"],
    [41919,"2015-02-16T10:00:00","113","ND","ND","ND","ND","ND","ND","ND","ND","ND","ND","0"],
    [41920,"2015-02-16T11:00:00","ND","ND","ND","ND","ND","ND","ND","ND","ND","ND","ND","0"],
    [41921,"2015-02-16T12:00:00","44","ND","ND","ND","ND","ND","ND","ND","ND","ND","ND","0"],
    [41922,"2015-02-16T13:00:00","46","ND","ND","ND","ND","ND","ND","ND","ND","ND","ND","0"],
    [41923,"2015-02-16T14:00:00","50","ND","ND","ND","ND","ND","ND","ND","ND","ND","ND","0"],
    [41924,"2015-02-16T15:00:00","49","ND","ND","ND","ND","ND","ND","ND","ND","ND","ND","0"],
    [41925,"2015-02-16T16:00:00","28","ND","ND","ND","ND","ND","ND","ND","ND","ND","ND","0"],
    [41926,"2015-02-16T17:00:00","26","ND","ND","ND","ND","ND","ND","ND","ND","ND","ND","0"],
    [41927,"2015-02-16T18:00:00","28","ND","ND","ND","ND","ND","ND","ND","ND","ND","ND","0"],
    [41928,"2015-02-16T19:00:00","35","ND","ND","ND","ND","ND","ND","ND","ND","ND","ND","0"],
    [41929,"2015-02-16T20:00:00","32","ND","ND","ND","ND","ND","ND","ND","ND","ND","ND","0"],
    [41930,"2015-02-16T21:00:00","69","ND","ND","ND","ND","ND","ND","ND","ND","ND","ND","0"],
    [41931,"2015-02-16T22:00:00","39","ND","ND","ND","ND","ND","ND","ND","ND","ND","ND","0"],
    [41932,"2015-02-16T23:00:00","47","ND","ND","ND","ND","ND","ND","ND","ND","ND","ND","0"],
    [41933,"2015-02-17T00:00:00","72","ND","ND","ND","ND","ND","ND","ND","ND","ND","ND","0"],
    [41934,"2015-02-17T01:00:00","64","ND","ND","ND","ND","ND","ND","ND","ND","ND","ND","0"],
    [41935,"2015-02-17T02:00:00","52","ND","ND","ND","ND","ND","ND","ND","ND","ND","ND","0"],
    [41936,"2015-02-17T03:00:00","37","ND","ND","ND","ND","ND","ND","ND","ND","ND","ND","0"],
    [41937,"2015-02-17T04:00:00","40","ND","ND","ND","ND","ND","ND","ND","ND","ND","ND","0"],
    [41938,"2015-02-17T05:00:00","53","ND","ND","ND","ND","ND","ND","ND","ND","ND","ND","0"],
    [41939,"2015-02-17T06:00:00","ND","ND","ND","ND","ND","ND","ND","ND","ND","ND","ND","0"],
    [41940,"2015-02-17T07:00:00","84","ND","ND","ND","ND","ND","ND","ND","ND","ND","ND","0"],
    [41941,"2015-02-17T08:00:00","65","ND","ND","ND","ND","ND","ND","ND","ND","ND","ND","0"],
    [41942,"2015-02-17T09:00:00","44","ND","ND","ND","ND","ND","ND","ND","ND","ND","ND","0"],
    [41943,"2015-02-17T10:00:00","ND","ND","ND","ND","ND","ND","ND","ND","ND","ND","ND","0"],
    [41944,"2015-02-17T11:00:00","ND","ND","ND","ND","ND","ND","ND","ND","ND","ND","ND","0"],
    [41945,"2015-02-17T12:00:00","48","ND","ND","ND","ND","ND","ND","ND","ND","ND","ND","0"],
    [41946,"2015-02-17T13:00:00","57","ND","ND","ND","ND","ND","ND","ND","ND","ND","ND","0"],
    [41947,"2015-02-17T14:00:00","31","ND","ND","ND","ND","ND","ND","ND","ND","ND","ND","0"],
    [41948,"2015-02-17T15:00:00","13","ND","ND","ND","ND","ND","ND","ND","ND","ND","ND","0"],
    [41949,"2015-02-17T16:00:00","18","ND","ND","ND","ND","ND","ND","ND","ND","ND","ND","0"],
    [41950,"2015-02-17T17:00:00","24","ND","ND","ND","ND","ND","ND","ND","ND","ND","ND","0"],
    [41951,"2015-02-17T18:00:00","19","ND","ND","ND","ND","ND","ND","ND","ND","ND","ND","0"],
    [41952,"2015-02-17T19:00:00","24","ND","ND","ND","ND","ND","ND","ND","ND","ND","ND","0"],
    [41953,"2015-02-17T20:00:00","40","ND","ND","ND","ND","ND","ND","ND","ND","ND","ND","0"],
    [41954,"2015-02-17T21:00:00","46","ND","ND","ND","ND","ND","ND","ND","ND","ND","ND","0"],
    [41955,"2015-02-17T22:00:00","33","ND","ND","ND","ND","ND","ND","ND","ND","ND","ND","0"],
    [41956,"2015-02-17T23:00:00","38","ND","ND","ND","ND","ND","ND","ND","ND","ND","ND","0"],
    [41957,"2015-02-18T00:00:00","37","ND","ND","ND","ND","ND","ND","ND","ND","ND","ND","0"],
    [41958,"2015-02-18T01:00:00","41","ND","ND","ND","ND","ND","ND","ND","ND","ND","ND","0"],
    [41959,"2015-02-18T02:00:00","36","ND","ND","ND","ND","ND","ND","ND","ND","ND","ND","0"],
    [41960,"2015-02-18T03:00:00","40","ND","ND","ND","ND","ND","ND","ND","ND","ND","ND","0"],
    [41961,"2015-02-18T04:00:00","29","ND","ND","ND","ND","ND","ND","ND","ND","ND","ND","0"],
    [41962,"2015-02-18T05:00:00","ND","ND","ND","ND","ND","ND","ND","ND","ND","ND","ND","0"],
    [41963,"2015-02-18T06:00:00","67","ND","ND","ND","ND","ND","ND","ND","ND","ND","ND","0"],
    [41964,"2015-02-18T07:00:00","ND","ND","ND","ND","ND","ND","ND","ND","ND","ND","ND","0"],
    [41965,"2015-02-18T08:00:00","ND","ND","ND","ND","ND","ND","ND","ND","ND","ND","ND","0"],
    [41966,"2015-02-18T09:00:00","ND","ND","ND","ND","ND","ND","ND","ND","ND","ND","ND","0"],
    [41967,"2015-02-18T10:00:00","ND","ND","ND","ND","ND","ND","ND","ND","ND","ND","ND","0"],
    [41968,"2015-02-18T11:00:00","ND","ND","ND","ND","ND","ND","ND","ND","ND","ND","ND","0"],
    [41969,"2015-02-18T12:00:00","ND","ND","ND","ND","ND","ND","ND","ND","ND","ND","ND","0"],
    [41970,"2015-02-18T13:00:00","ND","ND","ND","ND","ND","ND","ND","ND","ND","ND","ND","0"],
    [41971,"2015-02-18T14:00:00","ND","ND","ND","ND","ND","ND","ND","ND","ND","ND","ND","0"],
    [41972,"2015-02-18T15:00:00","8","ND","ND","ND","ND","ND","ND","ND","ND","ND","ND","0"],
    [41973,"2015-02-18T16:00:00","12","ND","ND","ND","ND","ND","ND","ND","ND","ND","ND","0"],
    [41974,"2015-02-18T17:00:00","21","ND","ND","ND","ND","ND","ND","ND","ND","ND","ND","0"],
    [41975,"2015-02-18T18:00:00","23","ND","ND","ND","ND","ND","ND","ND","ND","ND","ND","0"],
    [41976,"2015-02-18T19:00:00","21","ND","ND","ND","ND","ND","ND","ND","ND","ND","ND","0"],
    [41977,"2015-02-18T20:00:00","35","ND","ND","ND","ND","ND","ND","ND","ND","ND","ND","0"],
    [41978,"2015-02-18T21:00:00","49","ND","ND","ND","ND","ND","ND","ND","ND","ND","ND","0"],
    [41979,"2015-02-18T22:00:00","37","ND","ND","ND","ND","ND","ND","ND","ND","ND","ND","0"],
    [41980,"2015-02-18T23:00:00","ND","ND","ND","ND","ND","ND","ND","ND","ND","ND","ND","0"],
    [41981,"2015-02-19T00:00:00","ND","ND","ND","ND","ND","ND","ND","ND","ND","ND","ND","0"],
    [41982,"2015-02-19T01:00:00","27","ND","ND","ND","ND","ND","ND","ND","ND","ND","ND","0"],
    [41983,"2015-02-19T02:00:00","ND","ND","ND","ND","ND","ND","ND","ND","ND","ND","ND","0"],
    [41984,"2015-02-19T03:00:00","ND","ND","ND","ND","ND","ND","ND","ND","ND","ND","ND","0"],
    [41985,"2015-02-19T04:00:00","ND","ND","ND","ND","ND","ND","ND","ND","ND","ND","ND","0"],
    [41986,"2015-02-19T05:00:00","ND","ND","ND","ND","ND","ND","ND","ND","ND","ND","ND","0"],
    [41987,"2015-02-19T06:00:00","ND","ND","ND","ND","ND","ND","ND","ND","ND","ND","ND","0"],
    [41988,"2015-02-19T07:00:00","ND","ND","ND","ND","ND","ND","ND","ND","ND","ND","ND","0"],
    [41989,"2015-02-19T08:00:00","ND","ND","ND","ND","ND","ND","ND","ND","ND","ND","ND","0"],
    [41990,"2015-02-19T09:00:00","ND","ND","ND","ND","ND","ND","ND","ND","ND","ND","ND","0"],
    [41991,"2015-02-19T10:00:00","ND","ND","ND","ND","ND","ND","ND","ND","ND","ND","ND","0"],
    [41992,"2015-02-19T11:00:00","ND","ND","ND","ND","ND","ND","ND","ND","ND","ND","ND","0"],
    [41993,"2015-02-19T12:00:00","ND","ND","ND","ND","ND","ND","ND","ND","ND","ND","ND","0"],
    [41994,"2015-02-19T13:00:00","ND","ND","ND","ND","ND","ND","ND","ND","ND","ND","ND","0"],
    [41995,"2015-02-19T14:00:00","53","ND","ND","ND","ND","ND","ND","ND","ND","ND","ND","0"],
    [41996,"2015-02-19T15:00:00","53","ND","ND","ND","ND","ND","ND","ND","ND","ND","ND","0"],
    [41997,"2015-02-19T16:00:00","ND","ND","ND","ND","ND","ND","ND","ND","ND","ND","ND","0"],
    [41998,"2015-02-19T17:00:00","28","ND","ND","ND","ND","ND","ND","ND","ND","ND","ND","0"],
    [41999,"2015-02-19T18:00:00","22","ND","ND","ND","ND","ND","ND","ND","ND","ND","ND","0"],
    [42000,"2015-02-19T19:00:00","32","ND","ND","ND","ND","ND","ND","ND","ND","ND","ND","0"],
    [42001,"2015-02-19T20:00:00","80","ND","ND","ND","ND","ND","ND","ND","ND","ND","ND","0"],
    [42002,"2015-02-19T21:00:00","68","ND","ND","ND","ND","ND","ND","ND","ND","ND","ND","0"],
    [42003,"2015-02-19T22:00:00","47","ND","ND","ND","ND","ND","ND","ND","ND","ND","ND","0"],
    [42004,"2015-02-19T23:00:00","33","ND","ND","ND","ND","ND","ND","ND","ND","ND","ND","0"],
    [42005,"2015-02-20T00:00:00","28","ND","ND","ND","ND","ND","ND","ND","ND","ND","ND","0"],
    [42006,"2015-02-20T01:00:00","48","ND","ND","ND","ND","ND","ND","ND","ND","ND","ND","0"],
    [42007,"2015-02-20T02:00:00","36","ND","ND","ND","ND","ND","ND","ND","ND","ND","ND","0"],
    [42008,"2015-02-20T03:00:00","14","ND","ND","ND","ND","ND","ND","ND","ND","ND","ND","0"],
    [42009,"2015-02-20T04:00:00","22","ND","ND","ND","ND","ND","ND","ND","ND","ND","ND","0"],
    [42010,"2015-02-20T05:00:00","24","ND","ND","ND","ND","ND","ND","ND","ND","ND","ND","0"],
    [42011,"2015-02-20T06:00:00","27","ND","ND","ND","ND","ND","ND","ND","ND","ND","ND","0"],
    [42012,"2015-02-20T07:00:00","49","ND","ND","ND","ND","ND","ND","ND","ND","ND","ND","0"],
    [42013,"2015-02-20T08:00:00","50","ND","ND","ND","ND","ND","ND","ND","ND","ND","ND","0"],
    [42014,"2015-02-20T09:00:00","58","ND","ND","ND","ND","ND","ND","ND","ND","ND","ND","0"],
    [42015,"2015-02-20T10:00:00","60","ND","ND","ND","ND","ND","ND","ND","ND","ND","ND","0"],
    [42016,"2015-02-20T11:00:00","48","ND","ND","ND","ND","ND","ND","ND","ND","ND","ND","0"],
    [42017,"2015-02-20T12:00:00","31","ND","ND","ND","ND","ND","ND","ND","ND","ND","ND","0"],
    [42018,"2015-02-20T13:00:00","42","ND","ND","ND","ND","ND","ND","ND","ND","ND","ND","0"],
    [42019,"2015-02-20T14:00:00","58","ND","ND","ND","ND","ND","ND","ND","ND","ND","ND","0"],
    [42020,"2015-02-20T15:00:00","45","ND","ND","ND","ND","ND","ND","ND","ND","ND","ND","0"],
    [42021,"2015-02-20T16:00:00","58","ND","ND","ND","ND","ND","ND","ND","ND","ND","ND","0"],
    [42022,"2015-02-20T17:00:00","39","ND","ND","ND","ND","ND","ND","ND","ND","ND","ND","0"],
    [42023,"2015-02-20T18:00:00","19","ND","ND","ND","ND","ND","ND","ND","ND","ND","ND","0"],
    [42024,"2015-02-20T19:00:00","30","ND","ND","ND","ND","ND","ND","ND","ND","ND","ND","0"],
    [42025,"2015-02-20T20:00:00","51","ND","ND","ND","ND","ND","ND","ND","ND","ND","ND","0"],
    [42026,"2015-02-20T21:00:00","55","ND","ND","ND","ND","ND","ND","ND","ND","ND","ND","0"],
    [42027,"2015-02-20T22:00:00","44","ND","ND","ND","ND","ND","ND","ND","ND","ND","ND","0"],
    [42028,"2015-02-20T23:00:00","29","ND","ND","ND","ND","ND","ND","ND","ND","ND","ND","0"],
    [42029,"2015-02-21T00:00:00","29","ND","ND","ND","ND","ND","ND","ND","ND","ND","ND","0"],
    [42030,"2015-02-21T01:00:00","25","ND","ND","ND","ND","ND","ND","ND","ND","ND","ND","0"],
    [42031,"2015-02-21T02:00:00","35","ND","ND","ND","ND","ND","ND","ND","ND","ND","ND","0"],
    [42032,"2015-02-21T03:00:00","46","ND","ND","ND","ND","ND","ND","ND","ND","ND","ND","0"],
    [42033,"2015-02-21T04:00:00","51","ND","ND","ND","ND","ND","ND","ND","ND","ND","ND","0"],
    [42034,"2015-02-21T05:00:00","59","ND","ND","ND","ND","ND","ND","ND","ND","ND","ND","0"],
    [42035,"2015-02-21T06:00:00","81","ND","ND","ND","ND","ND","ND","ND","ND","ND","ND","0"],
    [42036,"2015-02-21T07:00:00","136","ND","ND","ND","ND","ND","ND","ND","ND","ND","ND","0"],
    [42037,"2015-02-21T08:00:00","125","ND","ND","ND","ND","ND","ND","ND","ND","ND","ND","0"],
    [42038,"2015-02-21T09:00:00","103","ND","ND","ND","ND","ND","ND","ND","ND","ND","ND","0"],
    [42039,"2015-02-21T10:00:00","73","ND","ND","ND","ND","ND","ND","ND","ND","ND","ND","0"],
    [42040,"2015-02-21T11:00:00","54","ND","ND","ND","ND","ND","ND","ND","ND","ND","ND","0"],
    [42041,"2015-02-21T12:00:00","42","ND","ND","ND","ND","ND","ND","ND","ND","ND","ND","0"],
    [42042,"2015-02-21T13:00:00","39","ND","ND","ND","ND","ND","ND","ND","ND","ND","ND","0"],
    [42043,"2015-02-21T14:00:00","40","ND","ND","ND","ND","ND","ND","ND","ND","ND","ND","0"],
    [42044,"2015-02-21T15:00:00","48","ND","ND","ND","ND","ND","ND","ND","ND","ND","ND","0"],
    [42045,"2015-02-21T16:00:00","33","ND","ND","ND","ND","ND","ND","ND","ND","ND","ND","0"],
    [42046,"2015-02-21T17:00:00","33","ND","ND","ND","ND","ND","ND","ND","ND","ND","ND","0"],
    [42047,"2015-02-21T18:00:00","32","ND","ND","ND","ND","ND","ND","ND","ND","ND","ND","0"],
    [42048,"2015-02-21T19:00:00","33","ND","ND","ND","ND","ND","ND","ND","ND","ND","ND","0"],
    [42049,"2015-02-21T20:00:00","34","ND","ND","ND","ND","ND","ND","ND","ND","ND","ND","0"],
    [42050,"2015-02-21T21:00:00","58","ND","ND","ND","ND","ND","ND","ND","ND","ND","ND","0"],
    [42051,"2015-02-21T22:00:00","80","ND","ND","ND","ND","ND","ND","ND","ND","ND","ND","0"],
    [42052,"2015-02-21T23:00:00","48","ND","ND","ND","ND","ND","ND","ND","ND","ND","ND","0"],
    [42053,"2015-02-22T00:00:00","52","ND","ND","ND","ND","ND","ND","ND","ND","ND","ND","0"],
    [42054,"2015-02-22T01:00:00","41","ND","ND","ND","ND","ND","ND","ND","ND","ND","ND","0"],
    [42055,"2015-02-22T02:00:00","51","ND","ND","ND","ND","ND","ND","ND","ND","ND","ND","0"],
    [42056,"2015-02-22T03:00:00","54","ND","ND","ND","ND","ND","ND","ND","ND","ND","ND","0"],
    [42057,"2015-02-22T04:00:00","69","ND","ND","ND","ND","ND","ND","ND","ND","ND","ND","0"],
    [42058,"2015-02-22T05:00:00","57","ND","ND","ND","ND","ND","ND","ND","ND","ND","ND","0"],
    [42059,"2015-02-22T06:00:00","57","ND","ND","ND","ND","ND","ND","ND","ND","ND","ND","0"],
    [42060,"2015-02-22T07:00:00","64","ND","ND","ND","ND","ND","ND","ND","ND","ND","ND","0"],
    [42061,"2015-02-22T08:00:00","54","ND","ND","ND","ND","ND","ND","ND","ND","ND","ND","0"],
    [42062,"2015-02-22T09:00:00","63","ND","ND","ND","ND","ND","ND","ND","ND","ND","ND","0"],
    [42063,"2015-02-22T10:00:00","52","ND","ND","ND","ND","ND","ND","ND","ND","ND","ND","0.25"],
    [42064,"2015-02-22T11:00:00","51","ND","ND","ND","ND","ND","ND","ND","ND","ND","ND","0"],
    [42065,"2015-02-22T12:00:00","54","ND","ND","ND","ND","ND","ND","ND","ND","ND","ND","0"],
    [42066,"2015-02-22T13:00:00","42","ND","ND","ND","ND","ND","ND","ND","ND","ND","ND","0"],
    [42067,"2015-02-22T14:00:00","38","ND","ND","ND","ND","ND","ND","ND","ND","ND","ND","0"],
    [42068,"2015-02-22T15:00:00","42","ND","ND","ND","ND","ND","ND","ND","ND","ND","ND","0"],
    [42069,"2015-02-22T16:00:00","40","ND","ND","ND","ND","ND","ND","ND","ND","ND","ND","0"],
    [42070,"2015-02-22T17:00:00","39","ND","ND","ND","ND","ND","ND","ND","ND","ND","ND","0"],
    [42071,"2015-02-22T18:00:00","36","ND","ND","ND","ND","ND","ND","ND","ND","ND","ND","0"],
    [42072,"2015-02-22T19:00:00","29","ND","ND","ND","ND","ND","ND","ND","ND","ND","ND","0"],
    [42073,"2015-02-22T20:00:00","41","ND","ND","ND","ND","ND","ND","ND","ND","ND","ND","0"],
    [42074,"2015-02-22T21:00:00","56","ND","ND","ND","ND","ND","ND","ND","ND","ND","ND","0"],
    [42075,"2015-02-22T22:00:00","46","ND","ND","ND","ND","ND","ND","ND","ND","ND","ND","0"],
    [42076,"2015-02-22T23:00:00","58","ND","ND","ND","ND","ND","ND","ND","ND","ND","ND","0"],
    [42077,"2015-02-23T00:00:00","39","ND","ND","ND","ND","ND","ND","ND","ND","ND","ND","0"],
    [42078,"2015-02-23T01:00:00","49","ND","ND","ND","ND","ND","ND","ND","ND","ND","ND","0"],
    [42079,"2015-02-23T02:00:00","36","ND","ND","ND","ND","ND","ND","ND","ND","ND","ND","0"],
    [42080,"2015-02-23T03:00:00","40","ND","ND","ND","ND","ND","ND","ND","ND","ND","ND","0"],
    [42081,"2015-02-23T04:00:00","41","ND","ND","ND","ND","ND","ND","ND","ND","ND","ND","0"],
    [42082,"2015-02-23T05:00:00","53","ND","ND","ND","ND","ND","ND","ND","ND","ND","ND","0"],
    [42083,"2015-02-23T06:00:00","63","ND","ND","ND","ND","ND","ND","ND","ND","ND","ND","0"],
    [42084,"2015-02-23T07:00:00","78","ND","ND","ND","ND","ND","ND","ND","ND","ND","ND","0"],
    [42085,"2015-02-23T08:00:00","117","ND","ND","ND","ND","ND","ND","ND","ND","ND","ND","0"],
    [42086,"2015-02-23T09:00:00","107","ND","ND","ND","ND","ND","ND","ND","ND","ND","ND","0"],
    [42087,"2015-02-23T10:00:00","96","ND","ND","ND","ND","ND","ND","ND","ND","ND","ND","0"],
    [42088,"2015-02-23T11:00:00","68","ND","ND","ND","ND","ND","ND","ND","ND","ND","ND","0"],
    [42089,"2015-02-23T12:00:00","79","ND","ND","ND","ND","ND","ND","ND","ND","ND","ND","0"],
    [42090,"2015-02-23T13:00:00","81","ND","ND","ND","ND","ND","ND","ND","ND","ND","ND","0"],
    [42091,"2015-02-23T14:00:00","41","ND","ND","ND","ND","ND","ND","ND","ND","ND","ND","0"],
    [42092,"2015-02-23T15:00:00","ND","ND","ND","ND","ND","ND","ND","ND","ND","ND","ND","0"],
    [42093,"2015-02-23T16:00:00","19","ND","ND","ND","ND","ND","ND","ND","ND","ND","ND","0"],
    [42094,"2015-02-23T17:00:00","24","ND","ND","ND","ND","ND","ND","ND","ND","ND","ND","0"],
    [42095,"2015-02-23T18:00:00","30","ND","ND","ND","ND","ND","ND","ND","ND","ND","ND","0"],
    [42096,"2015-02-23T19:00:00","33","ND","ND","ND","ND","ND","ND","ND","ND","ND","ND","0"],
    [42097,"2015-02-23T20:00:00","100","ND","ND","ND","ND","ND","ND","ND","ND","ND","ND","0"],
    [42098,"2015-02-23T21:00:00","60","ND","ND","ND","ND","ND","ND","ND","ND","ND","ND","0"],
    [42099,"2015-02-23T22:00:00","54","ND","ND","ND","ND","ND","ND","ND","ND","ND","ND","0"],
    [42100,"2015-02-23T23:00:00","55","ND","ND","ND","ND","ND","ND","ND","ND","ND","ND","0"],
    [42101,"2015-02-24T00:00:00","61","ND","ND","ND","ND","ND","ND","ND","ND","ND","ND","0"],
    [42102,"2015-02-24T01:00:00","62","ND","ND","ND","ND","ND","ND","ND","ND","ND","ND","0"],
    [42103,"2015-02-24T02:00:00","43","ND","ND","ND","ND","ND","ND","ND","ND","ND","ND","0"],
    [42104,"2015-02-24T03:00:00","59","ND","ND","ND","ND","ND","ND","ND","ND","ND","ND","0"],
    [42105,"2015-02-24T04:00:00","51","ND","ND","ND","ND","ND","ND","ND","ND","ND","ND","0"],
    [42106,"2015-02-24T05:00:00","32","ND","ND","ND","ND","ND","ND","ND","ND","ND","ND","0"],
    [42107,"2015-02-24T06:00:00","58","ND","ND","ND","ND","ND","ND","ND","ND","ND","ND","0"],
    [42108,"2015-02-24T07:00:00","67","ND","ND","ND","ND","ND","ND","ND","ND","ND","ND","0"],
    [42109,"2015-02-24T08:00:00","77","ND","ND","ND","ND","ND","ND","ND","ND","ND","ND","0"],
    [42110,"2015-02-24T09:00:00","67","ND","ND","ND","ND","ND","ND","ND","ND","ND","ND","0"],
    [42111,"2015-02-24T10:00:00","55","ND","ND","ND","ND","ND","ND","ND","ND","ND","ND","0"],
    [42112,"2015-02-24T11:00:00","64","ND","ND","ND","ND","ND","ND","ND","ND","ND","ND","0"],
    [42113,"2015-02-24T12:00:00","57","ND","ND","ND","ND","ND","ND","ND","ND","ND","ND","0"],
    [42114,"2015-02-24T13:00:00","73","ND","ND","ND","ND","ND","ND","ND","ND","ND","ND","0"],
    [42115,"2015-02-24T14:00:00","28","ND","ND","ND","ND","ND","ND","ND","ND","ND","ND","0"],
    [42116,"2015-02-24T15:00:00","20","ND","ND","ND","ND","ND","ND","ND","ND","ND","ND","0"],
    [42117,"2015-02-24T16:00:00","31","ND","ND","ND","ND","ND","ND","ND","ND","ND","ND","0"],
    [42118,"2015-02-24T17:00:00","27","ND","ND","ND","ND","ND","ND","ND","ND","ND","ND","0"],
    [42119,"2015-02-24T18:00:00","18","ND","ND","ND","ND","ND","ND","ND","ND","ND","ND","0"],
    [42120,"2015-02-24T19:00:00","34","ND","ND","ND","ND","ND","ND","ND","ND","ND","ND","0"],
    [42121,"2015-02-24T20:00:00","56","ND","ND","ND","ND","ND","ND","ND","ND","ND","ND","0"],
    [42122,"2015-02-24T21:00:00","48","ND","ND","ND","ND","ND","ND","ND","ND","ND","ND","0"],
    [42123,"2015-02-24T22:00:00","56","ND","ND","ND","ND","ND","ND","ND","ND","ND","ND","0"],
    [42124,"2015-02-24T23:00:00","54","ND","ND","ND","ND","ND","ND","ND","ND","ND","ND","0"],
    [42125,"2015-02-25T00:00:00","35","ND","ND","ND","ND","ND","ND","ND","ND","ND","ND","0"],
    [42126,"2015-02-25T01:00:00","72","ND","ND","ND","ND","ND","ND","ND","ND","ND","ND","0"],
    [42127,"2015-02-25T02:00:00","52","ND","ND","ND","ND","ND","ND","ND","ND","ND","ND","0"],
    [42128,"2015-02-25T03:00:00","43","ND","ND","ND","ND","ND","ND","ND","ND","ND","ND","0"],
    [42129,"2015-02-25T04:00:00","34","ND","ND","ND","ND","ND","ND","ND","ND","ND","ND","0"],
    [42130,"2015-02-25T05:00:00","37","ND","ND","ND","ND","ND","ND","ND","ND","ND","ND","0"],
    [42131,"2015-02-25T06:00:00","41","ND","ND","ND","ND","ND","ND","ND","ND","ND","ND","0"],
    [42132,"2015-02-25T07:00:00","76","ND","ND","ND","ND","ND","ND","ND","ND","ND","ND","0"],
    [42133,"2015-02-25T08:00:00","114","ND","ND","ND","ND","ND","ND","ND","ND","ND","ND","0"],
    [42134,"2015-02-25T09:00:00","86","ND","ND","ND","ND","ND","ND","ND","ND","ND","ND","0"],
    [42135,"2015-02-25T10:00:00","64","ND","ND","ND","ND","ND","ND","ND","ND","ND","ND","0"],
    [42136,"2015-02-25T11:00:00","50","ND","ND","ND","ND","ND","ND","ND","ND","ND","ND","0"],
    [42137,"2015-02-25T12:00:00","49","ND","ND","ND","ND","ND","ND","ND","ND","ND","ND","0"],
    [42138,"2015-02-25T13:00:00","64","ND","ND","ND","ND","ND","ND","ND","ND","ND","ND","0"],
    [42139,"2015-02-25T14:00:00","58","ND","ND","ND","ND","ND","ND","ND","ND","ND","ND","0"],
    [42140,"2015-02-25T15:00:00","42","ND","ND","ND","ND","ND","ND","ND","ND","ND","ND","0"],
    [42141,"2015-02-25T16:00:00","28","ND","ND","ND","ND","ND","ND","ND","ND","ND","ND","0"],
    [42142,"2015-02-25T17:00:00","23","ND","ND","ND","ND","ND","ND","ND","ND","ND","ND","0"],
    [42143,"2015-02-25T18:00:00","27","ND","ND","ND","ND","ND","ND","ND","ND","ND","ND","0"],
    [42144,"2015-02-25T19:00:00","28","ND","ND","ND","ND","ND","ND","ND","ND","ND","ND","0"],
    [42145,"2015-02-25T20:00:00","40","ND","ND","ND","ND","ND","ND","ND","ND","ND","ND","0"],
    [42146,"2015-02-25T21:00:00","43","ND","ND","ND","ND","ND","ND","ND","ND","ND","ND","0"],
    [42147,"2015-02-25T22:00:00","48","ND","ND","ND","ND","ND","ND","ND","ND","ND","ND","0"],
    [42148,"2015-02-25T23:00:00","62","ND","ND","ND","ND","ND","ND","ND","ND","ND","ND","0"],
    [42149,"2015-02-26T00:00:00","48","ND","ND","ND","ND","ND","ND","ND","ND","ND","ND","0"],
    [42150,"2015-02-26T01:00:00","45","ND","ND","ND","ND","ND","ND","ND","ND","ND","ND","0"],
    [42151,"2015-02-26T02:00:00","58","ND","ND","ND","ND","ND","ND","ND","ND","ND","ND","0"],
    [42152,"2015-02-26T03:00:00","65","ND","ND","ND","ND","ND","ND","ND","ND","ND","ND","0"],
    [42153,"2015-02-26T04:00:00","67","ND","ND","ND","ND","ND","ND","ND","ND","ND","ND","0"],
    [42154,"2015-02-26T05:00:00","58","ND","ND","ND","ND","ND","ND","ND","ND","ND","ND","0"],
    [42155,"2015-02-26T06:00:00","71","ND","ND","ND","ND","ND","ND","ND","ND","ND","ND","0"],
    [42156,"2015-02-26T07:00:00","105","ND","ND","ND","ND","ND","ND","ND","ND","ND","ND","0"],
    [42157,"2015-02-26T08:00:00","112","ND","ND","ND","ND","ND","ND","ND","ND","ND","ND","0"],
    [42158,"2015-02-26T09:00:00","104","ND","ND","ND","ND","ND","ND","ND","ND","ND","ND","0"],
    [42159,"2015-02-26T10:00:00","91","ND","ND","ND","ND","ND","ND","ND","ND","ND","ND","0"],
    [42160,"2015-02-26T11:00:00","55","ND","ND","ND","ND","ND","ND","ND","ND","ND","ND","0"],
    [42161,"2015-02-26T12:00:00","61","ND","ND","ND","ND","ND","ND","ND","ND","ND","ND","0"],
    [42162,"2015-02-26T13:00:00","73","ND","ND","ND","ND","ND","ND","ND","ND","ND","ND","0"],
    [42163,"2015-02-26T14:00:00","ND","ND","ND","ND","ND","ND","ND","ND","ND","ND","ND","0"],
    [42164,"2015-02-26T15:00:00","40","ND","ND","ND","ND","ND","ND","ND","ND","ND","ND","0"],
    [42165,"2015-02-26T16:00:00","ND","ND","ND","ND","ND","ND","ND","ND","ND","ND","ND","ND"],
    [42166,"2015-02-26T17:00:00","ND","ND","ND","ND","ND","ND","ND","ND","ND","ND","ND","ND"],
    [42167,"2015-02-26T18:00:00","55","ND","ND","ND","ND","ND","ND","ND","ND","ND","ND","0"],
    [42168,"2015-02-26T19:00:00","63","ND","ND","ND","ND","ND","ND","ND","ND","ND","ND","0"],
    [42169,"2015-02-26T20:00:00","39","ND","ND","ND","ND","ND","ND","ND","ND","ND","ND","0"],
    [42170,"2015-02-26T21:00:00","ND","ND","ND","ND","ND","ND","ND","ND","ND","ND","ND","0"],
    [42171,"2015-02-26T22:00:00","44","ND","ND","ND","ND","ND","ND","ND","ND","ND","ND","0"],
    [42172,"2015-02-26T23:00:00","46","ND","ND","ND","ND","ND","ND","ND","ND","ND","ND","0"],
    [42173,"2015-02-27T00:00:00","84","ND","ND","ND","ND","ND","ND","ND","ND","ND","ND","6.35"],
    [42174,"2015-02-27T01:00:00","36","ND","ND","ND","ND","ND","ND","ND","ND","ND","ND","2.29"],
    [42175,"2015-02-27T02:00:00","27","ND","ND","ND","ND","ND","ND","ND","ND","ND","ND","0.51"],
    [42176,"2015-02-27T03:00:00","30","ND","ND","ND","ND","ND","ND","ND","ND","ND","ND","1.02"],
    [42177,"2015-02-27T04:00:00","38","ND","ND","ND","ND","ND","ND","ND","ND","ND","ND","0.25"],
    [42178,"2015-02-27T05:00:00","40","ND","ND","ND","ND","ND","ND","ND","ND","ND","ND","0.25"],
    [42179,"2015-02-27T06:00:00","36","ND","ND","ND","ND","ND","ND","ND","ND","ND","ND","0.51"],
    [42180,"2015-02-27T07:00:00","41","ND","ND","ND","ND","ND","ND","ND","ND","ND","ND","0"],
    [42181,"2015-02-27T08:00:00","60","ND","ND","ND","ND","ND","ND","ND","ND","ND","ND","0"],
    [42182,"2015-02-27T09:00:00","78","ND","ND","ND","ND","ND","ND","ND","ND","ND","ND","0.25"],
    [42183,"2015-02-27T10:00:00","52","ND","ND","ND","ND","ND","ND","ND","ND","ND","ND","0"],
    [42184,"2015-02-27T11:00:00","50","ND","ND","ND","ND","ND","ND","ND","ND","ND","ND","0"],
    [42185,"2015-02-27T12:00:00","60","ND","ND","ND","ND","ND","ND","ND","ND","ND","ND","0"],
    [42186,"2015-02-27T13:00:00","60","ND","ND","ND","ND","ND","ND","ND","ND","ND","ND","0"],
    [42187,"2015-02-27T14:00:00","41","ND","ND","ND","ND","ND","ND","ND","ND","ND","ND","0"],
    [42188,"2015-02-27T15:00:00","25","ND","ND","ND","ND","ND","ND","ND","ND","ND","ND","0"],
    [42189,"2015-02-27T16:00:00","23","ND","ND","ND","ND","ND","ND","ND","ND","ND","ND","0"],
    [42190,"2015-02-27T17:00:00","ND","ND","ND","ND","ND","ND","ND","ND","ND","ND","ND","0"],
    [42191,"2015-02-27T18:00:00","12","ND","ND","ND","ND","ND","ND","ND","ND","ND","ND","0"],
    [42192,"2015-02-27T19:00:00","38","ND","ND","ND","ND","ND","ND","ND","ND","ND","ND","0"],
    [42193,"2015-02-27T20:00:00","41","ND","ND","ND","ND","ND","ND","ND","ND","ND","ND","0"],
    [42194,"2015-02-27T21:00:00","36","ND","ND","ND","ND","ND","ND","ND","ND","ND","ND","0"],
    [42195,"2015-02-27T22:00:00","56","ND","ND","ND","ND","ND","ND","ND","ND","ND","ND","0"],
    [42196,"2015-02-27T23:00:00","57","ND","ND","ND","ND","ND","ND","ND","ND","ND","ND","0"],
    [42197,"2015-02-28T00:00:00","59","ND","ND","ND","ND","ND","ND","ND","ND","ND","ND","0"],
    [42198,"2015-02-28T01:00:00","60","ND","ND","ND","ND","ND","ND","ND","ND","ND","ND","0"],
    [42199,"2015-02-28T02:00:00","86","ND","ND","ND","ND","ND","ND","ND","ND","ND","ND","0"],
    [42200,"2015-02-28T03:00:00","74","ND","ND","ND","ND","ND","ND","ND","ND","ND","ND","0"],
    [42201,"2015-02-28T04:00:00","75","ND","ND","ND","ND","ND","ND","ND","ND","ND","ND","0"],
    [42202,"2015-02-28T05:00:00","80","ND","ND","ND","ND","ND","ND","ND","ND","ND","ND","0"],
    [42203,"2015-02-28T06:00:00","73","ND","ND","ND","ND","ND","ND","ND","ND","ND","ND","0"],
    [42204,"2015-02-28T07:00:00","92","ND","ND","ND","ND","ND","ND","ND","ND","ND","ND","0"],
    [42205,"2015-02-28T08:00:00","117","ND","ND","ND","ND","ND","ND","ND","ND","ND","ND","0"],
    [42206,"2015-02-28T09:00:00","129","ND","ND","ND","ND","ND","ND","ND","ND","ND","ND","0"],
    [42207,"2015-02-28T10:00:00","71","ND","ND","ND","ND","ND","ND","ND","ND","ND","ND","0"],
    [42208,"2015-02-28T11:00:00","63","ND","ND","ND","ND","ND","ND","ND","ND","ND","ND","0"],
    [42209,"2015-02-28T12:00:00","58","ND","ND","ND","ND","ND","ND","ND","ND","ND","ND","0"],
    [42210,"2015-02-28T13:00:00","47","ND","ND","ND","ND","ND","ND","ND","ND","ND","ND","0"],
    [42211,"2015-02-28T14:00:00","57","ND","ND","ND","ND","ND","ND","ND","ND","ND","ND","0"],
    [42212,"2015-02-28T15:00:00","32","ND","ND","ND","ND","ND","ND","ND","ND","ND","ND","0"],
    [42213,"2015-02-28T16:00:00","17","ND","ND","ND","ND","ND","ND","ND","ND","ND","ND","0"],
    [42214,"2015-02-28T17:00:00","16","ND","ND","ND","ND","ND","ND","ND","ND","ND","ND","0"],
    [42215,"2015-02-28T18:00:00","18","ND","ND","ND","ND","ND","ND","ND","ND","ND","ND","0"],
    [42216,"2015-02-28T19:00:00","22","ND","ND","ND","ND","ND","ND","ND","ND","ND","ND","0"],
    [42217,"2015-02-28T20:00:00","31","ND","ND","ND","ND","ND","ND","ND","ND","ND","ND","0"],
    [42218,"2015-02-28T21:00:00","45","ND","ND","ND","ND","ND","ND","ND","ND","ND","ND","0"],
    [42219,"2015-02-28T22:00:00","45","ND","ND","ND","ND","ND","ND","ND","ND","ND","ND","0"],
    [42220,"2015-02-28T23:00:00","58","ND","ND","ND","ND","ND","ND","ND","ND","ND","ND","0"],
    [42221,"2015-03-01T00:00:00","43","ND","ND","ND","ND","ND","ND","ND","ND","ND","ND","0"],
    [42222,"2015-03-01T01:00:00","50","ND","ND","ND","ND","ND","ND","ND","ND","ND","ND","0"],
    [42223,"2015-03-01T02:00:00","36","ND","ND","ND","ND","ND","ND","ND","ND","ND","ND","0"],
    [42224,"2015-03-01T03:00:00","47","ND","ND","ND","ND","ND","ND","ND","ND","ND","ND","0"],
    [42225,"2015-03-01T04:00:00","52","ND","ND","ND","ND","ND","ND","ND","ND","ND","ND","0"],
    [42226,"2015-03-01T05:00:00","39","ND","ND","ND","ND","ND","ND","ND","ND","ND","ND","0.51"],
    [42227,"2015-03-01T06:00:00","30","ND","ND","ND","ND","ND","ND","ND","ND","ND","ND","22.1"],
    [42228,"2015-03-01T07:00:00","27","ND","ND","ND","ND","ND","ND","ND","ND","ND","ND","2.29"],
    [42229,"2015-03-01T08:00:00","14","ND","ND","ND","ND","ND","ND","ND","ND","ND","ND","0.51"],
    [42230,"2015-03-01T09:00:00","15","ND","ND","ND","ND","ND","ND","ND","ND","ND","ND","0.25"],
    [42231,"2015-03-01T10:00:00","17","ND","ND","ND","ND","ND","ND","ND","ND","ND","ND","0"],
    [42232,"2015-03-01T11:00:00","20","ND","ND","ND","ND","ND","ND","ND","ND","ND","ND","0"],
    [42233,"2015-03-01T12:00:00","28","ND","ND","ND","ND","ND","ND","ND","ND","ND","ND","0"],
    [42234,"2015-03-01T13:00:00","25","ND","ND","ND","ND","ND","ND","ND","ND","ND","ND","0"],
    [42235,"2015-03-01T14:00:00","10","ND","ND","ND","ND","ND","ND","ND","ND","ND","ND","0"],
    [42236,"2015-03-01T15:00:00","9","ND","ND","ND","ND","ND","ND","ND","ND","ND","ND","0"],
    [42237,"2015-03-01T16:00:00","16","ND","ND","ND","ND","ND","ND","ND","ND","ND","ND","0"],
    [42238,"2015-03-01T17:00:00","10","ND","ND","ND","ND","ND","ND","ND","ND","ND","ND","0"],
    [42239,"2015-03-01T18:00:00","22","ND","ND","ND","ND","ND","ND","ND","ND","ND","ND","1.02"],
    [42240,"2015-03-01T19:00:00","15","ND","ND","ND","ND","ND","ND","ND","ND","ND","ND","6.1"],
    [42241,"2015-03-01T20:00:00","10","ND","ND","ND","ND","ND","ND","ND","ND","ND","ND","7.37"],
    [42242,"2015-03-01T21:00:00","12","ND","ND","ND","ND","ND","ND","ND","ND","ND","ND","2.54"],
    [42243,"2015-03-01T22:00:00","11","ND","ND","ND","ND","ND","ND","ND","ND","ND","ND","0.25"],
    [42244,"2015-03-01T23:00:00","14","ND","ND","ND","ND","ND","ND","ND","ND","ND","ND","0"],
    [42245,"2015-03-02T00:00:00","25","ND","ND","ND","ND","ND","ND","ND","ND","ND","ND","0"],
    [42246,"2015-03-02T01:00:00","23","ND","ND","ND","ND","ND","ND","ND","ND","ND","ND","0"],
    [42247,"2015-03-02T02:00:00","36","ND","ND","ND","ND","ND","ND","ND","ND","ND","ND","0.25"],
    [42248,"2015-03-02T03:00:00","41","ND","ND","ND","ND","ND","ND","ND","ND","ND","ND","0"],
    [42249,"2015-03-02T04:00:00","42","ND","ND","ND","ND","ND","ND","ND","ND","ND","ND","0"],
    [42250,"2015-03-02T05:00:00","45","ND","ND","ND","ND","ND","ND","ND","ND","ND","ND","0"],
    [42251,"2015-03-02T06:00:00","49","ND","ND","ND","ND","ND","ND","ND","ND","ND","ND","0"],
    [42252,"2015-03-02T07:00:00","44","ND","ND","ND","ND","ND","ND","ND","ND","ND","ND","0"],
    [42253,"2015-03-02T08:00:00","37","ND","ND","ND","ND","ND","ND","ND","ND","ND","ND","0.25"],
    [42254,"2015-03-02T09:00:00","80","ND","ND","ND","ND","ND","ND","ND","ND","ND","ND","0"],
    [42255,"2015-03-02T10:00:00","62","ND","ND","ND","ND","ND","ND","ND","ND","ND","ND","0"],
    [42256,"2015-03-02T11:00:00","47","ND","ND","ND","ND","ND","ND","ND","ND","ND","ND","0"],
    [42257,"2015-03-02T12:00:00","51","ND","ND","ND","ND","ND","ND","ND","ND","ND","ND","0"],
    [42258,"2015-03-02T13:00:00","47","ND","ND","ND","ND","ND","ND","ND","ND","ND","ND","0"],
    [42259,"2015-03-02T14:00:00","51","ND","ND","ND","ND","ND","ND","ND","ND","ND","ND","0"],
    [42260,"2015-03-02T15:00:00","53","ND","ND","ND","ND","ND","ND","ND","ND","ND","ND","0"],
    [42261,"2015-03-02T16:00:00","53","ND","ND","ND","ND","ND","ND","ND","ND","ND","ND","0"],
    [42262,"2015-03-02T17:00:00","20","ND","ND","ND","ND","ND","ND","ND","ND","ND","ND","0"],
    [42263,"2015-03-02T18:00:00","30","ND","ND","ND","ND","ND","ND","ND","ND","ND","ND","0"],
    [42264,"2015-03-02T19:00:00","26","ND","ND","ND","ND","ND","ND","ND","ND","ND","ND","0"],
    [42265,"2015-03-02T20:00:00","34","ND","ND","ND","ND","ND","ND","ND","ND","ND","ND","0"],
    [42266,"2015-03-02T21:00:00","59","ND","ND","ND","ND","ND","ND","ND","ND","ND","ND","0"],
    [42267,"2015-03-02T22:00:00","60","ND","ND","ND","ND","ND","ND","ND","ND","ND","ND","0"],
    [42268,"2015-03-02T23:00:00","35","ND","ND","ND","ND","ND","ND","ND","ND","ND","ND","0"],
    [42269,"2015-03-03T00:00:00","39","ND","ND","ND","ND","ND","ND","ND","ND","ND","ND","0"],
    [42270,"2015-03-03T01:00:00","55","ND","ND","ND","ND","ND","ND","ND","ND","ND","ND","0"],
    [42271,"2015-03-03T02:00:00","35","ND","ND","ND","ND","ND","ND","ND","ND","ND","ND","0"],
    [42272,"2015-03-03T03:00:00","24","ND","ND","ND","ND","ND","ND","ND","ND","ND","ND","0"],
    [42273,"2015-03-03T04:00:00","36","ND","ND","ND","ND","ND","ND","ND","ND","ND","ND","0"],
    [42274,"2015-03-03T05:00:00","30","ND","ND","ND","ND","ND","ND","ND","ND","ND","ND","0"],
    [42275,"2015-03-03T06:00:00","36","ND","ND","ND","ND","ND","ND","ND","ND","ND","ND","0"],
    [42276,"2015-03-03T07:00:00","48","ND","ND","ND","ND","ND","ND","ND","ND","ND","ND","0.25"],
    [42277,"2015-03-03T08:00:00","50","ND","ND","ND","ND","ND","ND","ND","ND","ND","ND","0"],
    [42278,"2015-03-03T09:00:00","55","ND","ND","ND","ND","ND","ND","ND","ND","ND","ND","0"],
    [42279,"2015-03-03T10:00:00","58","ND","ND","ND","ND","ND","ND","ND","ND","ND","ND","0"],
    [42280,"2015-03-03T11:00:00","46","ND","ND","ND","ND","ND","ND","ND","ND","ND","ND","0"],
    [42281,"2015-03-03T12:00:00","47","ND","ND","ND","ND","ND","ND","ND","ND","ND","ND","0"],
    [42282,"2015-03-03T13:00:00","29","ND","ND","ND","ND","ND","ND","ND","ND","ND","ND","0"],
    [42283,"2015-03-03T14:00:00","39","ND","ND","ND","ND","ND","ND","ND","ND","ND","ND","0"],
    [42284,"2015-03-03T15:00:00","28","ND","ND","ND","ND","ND","ND","ND","ND","ND","ND","0"],
    [42285,"2015-03-03T16:00:00","16","ND","ND","ND","ND","ND","ND","ND","ND","ND","ND","0"],
    [42286,"2015-03-03T17:00:00","15","ND","ND","ND","ND","ND","ND","ND","ND","ND","ND","0"],
    [42287,"2015-03-03T18:00:00","16","ND","ND","ND","ND","ND","ND","ND","ND","ND","ND","0"],
    [42288,"2015-03-03T19:00:00","20","ND","ND","ND","ND","ND","ND","ND","ND","ND","ND","0"],
    [42289,"2015-03-03T20:00:00","38","ND","ND","ND","ND","ND","ND","ND","ND","ND","ND","0"],
    [42290,"2015-03-03T21:00:00","46","ND","ND","ND","ND","ND","ND","ND","ND","ND","ND","0"],
    [42291,"2015-03-03T22:00:00","31","ND","ND","ND","ND","ND","ND","ND","ND","ND","ND","0"],
    [42292,"2015-03-03T23:00:00","24","ND","ND","ND","ND","ND","ND","ND","ND","ND","ND","0"],
    [42293,"2015-03-04T00:00:00","16","ND","ND","ND","ND","ND","ND","ND","ND","ND","ND","0"],
    [42294,"2015-03-04T01:00:00","19","ND","ND","ND","ND","ND","ND","ND","ND","ND","ND","0"],
    [42295,"2015-03-04T02:00:00","6","ND","ND","ND","ND","ND","ND","ND","ND","ND","ND","0"],
    [42296,"2015-03-04T03:00:00","6","ND","ND","ND","ND","ND","ND","ND","ND","ND","ND","0"],
    [42297,"2015-03-04T04:00:00","4","ND","ND","ND","ND","ND","ND","ND","ND","ND","ND","0"],
    [42298,"2015-03-04T05:00:00","4","ND","ND","ND","ND","ND","ND","ND","ND","ND","ND","0"],
    [42299,"2015-03-04T06:00:00","11","ND","ND","ND","ND","ND","ND","ND","ND","ND","ND","0"],
    [42300,"2015-03-04T07:00:00","10","ND","ND","ND","ND","ND","ND","ND","ND","ND","ND","1.02"],
    [42301,"2015-03-04T08:00:00","6","ND","ND","ND","ND","ND","ND","ND","ND","ND","ND","3.3"],
    [42302,"2015-03-04T09:00:00","20","ND","ND","ND","ND","ND","ND","ND","ND","ND","ND","1.52"],
    [42303,"2015-03-04T10:00:00","28","ND","ND","ND","ND","ND","ND","ND","ND","ND","ND","0.25"],
    [42304,"2015-03-04T11:00:00","18","ND","ND","ND","ND","ND","ND","ND","ND","ND","ND","0"],
    [42305,"2015-03-04T12:00:00","26","ND","ND","ND","ND","ND","ND","ND","ND","ND","ND","0"],
    [42306,"2015-03-04T13:00:00","20","ND","ND","ND","ND","ND","ND","ND","ND","ND","ND","0"],
    [42307,"2015-03-04T14:00:00","29","ND","ND","ND","ND","ND","ND","ND","ND","ND","ND","0"],
    [42308,"2015-03-04T15:00:00","25","ND","ND","ND","ND","ND","ND","ND","ND","ND","ND","0"],
    [42309,"2015-03-04T16:00:00","22","ND","ND","ND","ND","ND","ND","ND","ND","ND","ND","0"],
    [42310,"2015-03-04T17:00:00","17","ND","ND","ND","ND","ND","ND","ND","ND","ND","ND","0"],
    [42311,"2015-03-04T18:00:00","20","ND","ND","ND","ND","ND","ND","ND","ND","ND","ND","0"],
    [42312,"2015-03-04T19:00:00","27","ND","ND","ND","ND","ND","ND","ND","ND","ND","ND","0"],
    [42313,"2015-03-04T20:00:00","27","ND","ND","ND","ND","ND","ND","ND","ND","ND","ND","0"],
    [42314,"2015-03-04T21:00:00","52","ND","ND","ND","ND","ND","ND","ND","ND","ND","ND","0"],
    [42315,"2015-03-04T22:00:00","30","ND","ND","ND","ND","ND","ND","ND","ND","ND","ND","0"],
    [42316,"2015-03-04T23:00:00","42","ND","ND","ND","ND","ND","ND","ND","ND","ND","ND","0"],
    [42317,"2015-03-05T00:00:00","32","ND","ND","ND","ND","ND","ND","ND","ND","ND","ND","0"],
    [42318,"2015-03-05T01:00:00","41","ND","ND","ND","ND","ND","ND","ND","ND","ND","ND","0"],
    [42319,"2015-03-05T02:00:00","39","ND","ND","ND","ND","ND","ND","ND","ND","ND","ND","0"],
    [42320,"2015-03-05T03:00:00","39","ND","ND","ND","ND","ND","ND","ND","ND","ND","ND","0"],
    [42321,"2015-03-05T04:00:00","29","ND","ND","ND","ND","ND","ND","ND","ND","ND","ND","0"],
    [42322,"2015-03-05T05:00:00","32","ND","ND","ND","ND","ND","ND","ND","ND","ND","ND","0"],
    [42323,"2015-03-05T06:00:00","58","ND","ND","ND","ND","ND","ND","ND","ND","ND","ND","0"],
    [42324,"2015-03-05T07:00:00","80","ND","ND","ND","ND","ND","ND","ND","ND","ND","ND","0"],
    [42325,"2015-03-05T08:00:00","119","ND","ND","ND","ND","ND","ND","ND","ND","ND","ND","0"],
    [42326,"2015-03-05T09:00:00","64","ND","ND","ND","ND","ND","ND","ND","ND","ND","ND","0"],
    [42327,"2015-03-05T10:00:00","54","ND","ND","ND","ND","ND","ND","ND","ND","ND","ND","0"],
    [42328,"2015-03-05T11:00:00","45","ND","ND","ND","ND","ND","ND","ND","ND","ND","ND","0"],
    [42329,"2015-03-05T12:00:00","48","ND","ND","ND","ND","ND","ND","ND","ND","ND","ND","0"],
    [42330,"2015-03-05T13:00:00","49","ND","ND","ND","ND","ND","ND","ND","ND","ND","ND","0"],
    [42331,"2015-03-05T14:00:00","56","ND","ND","ND","ND","ND","ND","ND","ND","ND","ND","0"],
    [42332,"2015-03-05T15:00:00","34","ND","ND","ND","ND","ND","ND","ND","ND","ND","ND","0"],
    [42333,"2015-03-05T16:00:00","16","ND","ND","ND","ND","ND","ND","ND","ND","ND","ND","0"],
    [42334,"2015-03-05T17:00:00","24","ND","ND","ND","ND","ND","ND","ND","ND","ND","ND","0"],
    [42335,"2015-03-05T18:00:00","20","ND","ND","ND","ND","ND","ND","ND","ND","ND","ND","0"],
    [42336,"2015-03-05T19:00:00","48","ND","ND","ND","ND","ND","ND","ND","ND","ND","ND","0"],
    [42337,"2015-03-05T20:00:00","33","ND","ND","ND","ND","ND","ND","ND","ND","ND","ND","0"],
    [42338,"2015-03-05T21:00:00","22","ND","ND","ND","ND","ND","ND","ND","ND","ND","ND","0"],
    [42339,"2015-03-05T22:00:00","38","ND","ND","ND","ND","ND","ND","ND","ND","ND","ND","0"],
    [42340,"2015-03-05T23:00:00","72","ND","ND","ND","ND","ND","ND","ND","ND","ND","ND","0"],
    [42341,"2015-03-06T00:00:00","49","ND","ND","ND","ND","ND","ND","ND","ND","ND","ND","0"],
    [42342,"2015-03-06T01:00:00","45","ND","ND","ND","ND","ND","ND","ND","ND","ND","ND","0"],
    [42343,"2015-03-06T02:00:00","37","ND","ND","ND","ND","ND","ND","ND","ND","ND","ND","0"],
    [42344,"2015-03-06T03:00:00","40","ND","ND","ND","ND","ND","ND","ND","ND","ND","ND","0"],
    [42345,"2015-03-06T04:00:00","43","ND","ND","ND","ND","ND","ND","ND","ND","ND","ND","0"],
    [42346,"2015-03-06T05:00:00","37","ND","ND","ND","ND","ND","ND","ND","ND","ND","ND","0"],
    [42347,"2015-03-06T06:00:00","69","ND","ND","ND","ND","ND","ND","ND","ND","ND","ND","0"],
    [42348,"2015-03-06T07:00:00","67","ND","ND","ND","ND","ND","ND","ND","ND","ND","ND","0"],
    [42349,"2015-03-06T08:00:00","95","ND","ND","ND","ND","ND","ND","ND","ND","ND","ND","0"],
    [42350,"2015-03-06T09:00:00","106","ND","ND","ND","ND","ND","ND","ND","ND","ND","ND","0"],
    [42351,"2015-03-06T10:00:00","ND","ND","ND","ND","ND","ND","ND","ND","ND","ND","ND","0"],
    [42352,"2015-03-06T11:00:00","56","ND","ND","ND","ND","ND","ND","ND","ND","ND","ND","0"],
    [42353,"2015-03-06T12:00:00","43","ND","ND","ND","ND","ND","ND","ND","ND","ND","ND","0"],
    [42354,"2015-03-06T13:00:00","46","ND","ND","ND","ND","ND","ND","ND","ND","ND","ND","0"],
    [42355,"2015-03-06T14:00:00","ND","ND","ND","ND","ND","ND","ND","ND","ND","ND","ND","0.51"],
    [42356,"2015-03-06T15:00:00","ND","ND","ND","ND","ND","ND","ND","ND","ND","ND","ND","0"],
    [42357,"2015-03-06T16:00:00","16","ND","ND","ND","ND","ND","ND","ND","ND","ND","ND","0"],
    [42358,"2015-03-06T17:00:00","25","ND","ND","ND","ND","ND","ND","ND","ND","ND","ND","0"],
    [42359,"2015-03-06T18:00:00","21","ND","ND","ND","ND","ND","ND","ND","ND","ND","ND","0"],
    [42360,"2015-03-06T19:00:00","48","ND","ND","ND","ND","ND","ND","ND","ND","ND","ND","0"],
    [42361,"2015-03-06T20:00:00","32","ND","ND","ND","ND","ND","ND","ND","ND","ND","ND","4.06"],
    [42362,"2015-03-06T21:00:00","42","ND","ND","ND","ND","ND","ND","ND","ND","ND","ND","3.56"],
    [42363,"2015-03-06T22:00:00","38","ND","ND","ND","ND","ND","ND","ND","ND","ND","ND","0.25"],
    [42364,"2015-03-06T23:00:00","26","ND","ND","ND","ND","ND","ND","ND","ND","ND","ND","0"],
    [42365,"2015-03-07T00:00:00","21","ND","ND","ND","ND","ND","ND","ND","ND","ND","ND","0"],
    [42366,"2015-03-07T01:00:00","28","ND","ND","ND","ND","ND","ND","ND","ND","ND","ND","0.25"],
    [42367,"2015-03-07T02:00:00","36","ND","ND","ND","ND","ND","ND","ND","ND","ND","ND","0"],
    [42368,"2015-03-07T03:00:00","52","ND","ND","ND","ND","ND","ND","ND","ND","ND","ND","0"],
    [42369,"2015-03-07T04:00:00","35","ND","ND","ND","ND","ND","ND","ND","ND","ND","ND","0"],
    [42370,"2015-03-07T05:00:00","42","ND","ND","ND","ND","ND","ND","ND","ND","ND","ND","0"],
    [42371,"2015-03-07T06:00:00","48","ND","ND","ND","ND","ND","ND","ND","ND","ND","ND","0"],
    [42372,"2015-03-07T07:00:00","64","ND","ND","ND","ND","ND","ND","ND","ND","ND","ND","0"],
    [42373,"2015-03-07T08:00:00","85","ND","ND","ND","ND","ND","ND","ND","ND","ND","ND","0"],
    [42374,"2015-03-07T09:00:00","66","ND","ND","ND","ND","ND","ND","ND","ND","ND","ND","0"],
    [42375,"2015-03-07T10:00:00","29","ND","ND","ND","ND","ND","ND","ND","ND","ND","ND","0"],
    [42376,"2015-03-07T11:00:00","43","ND","ND","ND","ND","ND","ND","ND","ND","ND","ND","0"],
    [42377,"2015-03-07T12:00:00","ND","ND","ND","ND","ND","ND","ND","ND","ND","ND","ND","0"],
    [42378,"2015-03-07T13:00:00","34","ND","ND","ND","ND","ND","ND","ND","ND","ND","ND","0"],
    [42379,"2015-03-07T14:00:00","46","ND","ND","ND","ND","ND","ND","ND","ND","ND","ND","0"],
    [42380,"2015-03-07T15:00:00","33","ND","ND","ND","ND","ND","ND","ND","ND","ND","ND","0"],
    [42381,"2015-03-07T16:00:00","31","ND","ND","ND","ND","ND","ND","ND","ND","ND","ND","0"],
    [42382,"2015-03-07T17:00:00","21","ND","ND","ND","ND","ND","ND","ND","ND","ND","ND","0"],
    [42383,"2015-03-07T18:00:00","25","ND","ND","ND","ND","ND","ND","ND","ND","ND","ND","0"],
    [42384,"2015-03-07T19:00:00","37","ND","ND","ND","ND","ND","ND","ND","ND","ND","ND","0"],
    [42385,"2015-03-07T20:00:00","37","ND","ND","ND","ND","ND","ND","ND","ND","ND","ND","0"],
    [42386,"2015-03-07T21:00:00","49","ND","ND","ND","ND","ND","ND","ND","ND","ND","ND","0"],
    [42387,"2015-03-07T22:00:00","60","ND","ND","ND","ND","ND","ND","ND","ND","ND","ND","0"],
    [42388,"2015-03-07T23:00:00","59","ND","ND","ND","ND","ND","ND","ND","ND","ND","ND","0"],
    [42389,"2015-03-08T00:00:00","63","ND","ND","ND","ND","ND","ND","ND","ND","ND","ND","0"],
    [42390,"2015-03-08T01:00:00","94","ND","ND","ND","ND","ND","ND","ND","ND","ND","ND","0"],
    [42391,"2015-03-08T02:00:00","35","ND","ND","ND","ND","ND","ND","ND","ND","ND","ND","0"],
    [42392,"2015-03-08T03:00:00","39","ND","ND","ND","ND","ND","ND","ND","ND","ND","ND","0"],
    [42393,"2015-03-08T04:00:00","39","ND","ND","ND","ND","ND","ND","ND","ND","ND","ND","0"],
    [42394,"2015-03-08T05:00:00","39","ND","ND","ND","ND","ND","ND","ND","ND","ND","ND","0"],
    [42395,"2015-03-08T06:00:00","58","ND","ND","ND","ND","ND","ND","ND","ND","ND","ND","1.02"],
    [42396,"2015-03-08T07:00:00","56","ND","ND","ND","ND","ND","ND","ND","ND","ND","ND","0.25"],
    [42397,"2015-03-08T08:00:00","72","ND","ND","ND","ND","ND","ND","ND","ND","ND","ND","0"],
    [42398,"2015-03-08T09:00:00","83","ND","ND","ND","ND","ND","ND","ND","ND","ND","ND","0"],
    [42399,"2015-03-08T10:00:00","68","ND","ND","ND","ND","ND","ND","ND","ND","ND","ND","0"],
    [42400,"2015-03-08T11:00:00","29","ND","ND","ND","ND","ND","ND","ND","ND","ND","ND","0"],
    [42401,"2015-03-08T12:00:00","46","ND","ND","ND","ND","ND","ND","ND","ND","ND","ND","0"],
    [42402,"2015-03-08T13:00:00","53","ND","ND","ND","ND","ND","ND","ND","ND","ND","ND","0"],
    [42403,"2015-03-08T14:00:00","57","ND","ND","ND","ND","ND","ND","ND","ND","ND","ND","0"],
    [42404,"2015-03-08T15:00:00","52","ND","ND","ND","ND","ND","ND","ND","ND","ND","ND","0"],
    [42405,"2015-03-08T16:00:00","39","ND","ND","ND","ND","ND","ND","ND","ND","ND","ND","0"],
    [42406,"2015-03-08T17:00:00","34","ND","ND","ND","ND","ND","ND","ND","ND","ND","ND","0"],
    [42407,"2015-03-08T18:00:00","30","ND","ND","ND","ND","ND","ND","ND","ND","ND","ND","0"],
    [42408,"2015-03-08T19:00:00","37","ND","ND","ND","ND","ND","ND","ND","ND","ND","ND","0"],
    [42409,"2015-03-08T20:00:00","39","ND","ND","ND","ND","ND","ND","ND","ND","ND","ND","0"],
    [42410,"2015-03-08T21:00:00","48","ND","ND","ND","ND","ND","ND","ND","ND","ND","ND","0"],
    [42411,"2015-03-08T22:00:00","35","ND","ND","ND","ND","ND","ND","ND","ND","ND","ND","0"],
    [42412,"2015-03-08T23:00:00","41","ND","ND","ND","ND","ND","ND","ND","ND","ND","ND","0"],
    [42413,"2015-03-09T00:00:00","73","ND","ND","ND","ND","ND","ND","ND","ND","ND","ND","0"],
    [42414,"2015-03-09T01:00:00","76","ND","ND","ND","ND","ND","ND","ND","ND","ND","ND","0"],
    [42415,"2015-03-09T02:00:00","38","ND","ND","ND","ND","ND","ND","ND","ND","ND","ND","0"],
    [42416,"2015-03-09T03:00:00","43","ND","ND","ND","ND","ND","ND","ND","ND","ND","ND","0"],
    [42417,"2015-03-09T04:00:00","44","ND","ND","ND","ND","ND","ND","ND","ND","ND","ND","0"],
    [42418,"2015-03-09T05:00:00","35","ND","ND","ND","ND","ND","ND","ND","ND","ND","ND","0"],
    [42419,"2015-03-09T06:00:00","61","ND","ND","ND","ND","ND","ND","ND","ND","ND","ND","0"],
    [42420,"2015-03-09T07:00:00","74","ND","ND","ND","ND","ND","ND","ND","ND","ND","ND","0"],
    [42421,"2015-03-09T08:00:00","73","ND","ND","ND","ND","ND","ND","ND","ND","ND","ND","0"],
    [42422,"2015-03-09T09:00:00","59","ND","ND","ND","ND","ND","ND","ND","ND","ND","ND","0"],
    [42423,"2015-03-09T10:00:00","43","ND","ND","ND","ND","ND","ND","ND","ND","ND","ND","0"],
    [42424,"2015-03-09T11:00:00","43","ND","ND","ND","ND","ND","ND","ND","ND","ND","ND","0"],
    [42425,"2015-03-09T12:00:00","54","ND","ND","ND","ND","ND","ND","ND","ND","ND","ND","0"],
    [42426,"2015-03-09T13:00:00","50","ND","ND","ND","ND","ND","ND","ND","ND","ND","ND","0"],
    [42427,"2015-03-09T14:00:00","35","ND","ND","ND","ND","ND","ND","ND","ND","ND","ND","0"],
    [42428,"2015-03-09T15:00:00","31","ND","ND","ND","ND","ND","ND","ND","ND","ND","ND","0"],
    [42429,"2015-03-09T16:00:00","15","ND","ND","ND","ND","ND","ND","ND","ND","ND","ND","0"],
    [42430,"2015-03-09T17:00:00","32","ND","ND","ND","ND","ND","ND","ND","ND","ND","ND","0"],
    [42431,"2015-03-09T18:00:00","26","ND","ND","ND","ND","ND","ND","ND","ND","ND","ND","0"],
    [42432,"2015-03-09T19:00:00","17","ND","ND","ND","ND","ND","ND","ND","ND","ND","ND","0"],
    [42433,"2015-03-09T20:00:00","17","ND","ND","ND","ND","ND","ND","ND","ND","ND","ND","0"],
    [42434,"2015-03-09T21:00:00","41","ND","ND","ND","ND","ND","ND","ND","ND","ND","ND","0"],
    [42435,"2015-03-09T22:00:00","45","ND","ND","ND","ND","ND","ND","ND","ND","ND","ND","0"],
    [42436,"2015-03-09T23:00:00","83","ND","ND","ND","ND","ND","ND","ND","ND","ND","ND","0"],
    [42437,"2015-03-10T00:00:00","44","ND","ND","ND","ND","ND","ND","ND","ND","ND","ND","0"],
    [42438,"2015-03-10T01:00:00","26","ND","ND","ND","ND","ND","ND","ND","ND","ND","ND","0"],
    [42439,"2015-03-10T02:00:00","15","ND","ND","ND","ND","ND","ND","ND","ND","ND","ND","0"],
    [42440,"2015-03-10T03:00:00","27","ND","ND","ND","ND","ND","ND","ND","ND","ND","ND","0"],
    [42441,"2015-03-10T04:00:00","40","ND","ND","ND","ND","ND","ND","ND","ND","ND","ND","0"],
    [42442,"2015-03-10T05:00:00","41","ND","ND","ND","ND","ND","ND","ND","ND","ND","ND","0"],
    [42443,"2015-03-10T06:00:00","53","ND","ND","ND","ND","ND","ND","ND","ND","ND","ND","0"],
    [42444,"2015-03-10T07:00:00","60","ND","ND","ND","ND","ND","ND","ND","ND","ND","ND","0"],
    [42445,"2015-03-10T08:00:00","70","ND","ND","ND","ND","ND","ND","ND","ND","ND","ND","0"],
    [42446,"2015-03-10T09:00:00","91","ND","ND","ND","ND","ND","ND","ND","ND","ND","ND","0"],
    [42447,"2015-03-10T10:00:00","64","ND","ND","ND","ND","ND","ND","ND","ND","ND","ND","0"],
    [42448,"2015-03-10T11:00:00","41","ND","ND","ND","ND","ND","ND","ND","ND","ND","ND","0"],
    [42449,"2015-03-10T12:00:00","59","ND","ND","ND","ND","ND","ND","ND","ND","ND","ND","0"],
    [42450,"2015-03-10T13:00:00","63","ND","ND","ND","ND","ND","ND","ND","ND","ND","ND","0"],
    [42451,"2015-03-10T14:00:00","65","ND","ND","ND","ND","ND","ND","ND","ND","ND","ND","0"],
    [42452,"2015-03-10T15:00:00","52","ND","ND","ND","ND","ND","ND","ND","ND","ND","ND","0"],
    [42453,"2015-03-10T16:00:00","37","ND","ND","ND","ND","ND","ND","ND","ND","ND","ND","0"],
    [42454,"2015-03-10T17:00:00","36","ND","ND","ND","ND","ND","ND","ND","ND","ND","ND","0"],
    [42455,"2015-03-10T18:00:00","23","ND","ND","ND","ND","ND","ND","ND","ND","ND","ND","0"],
    [42456,"2015-03-10T19:00:00","31","ND","ND","ND","ND","ND","ND","ND","ND","ND","ND","0"],
    [42457,"2015-03-10T20:00:00","44","ND","ND","ND","ND","ND","ND","ND","ND","ND","ND","0"],
    [42458,"2015-03-10T21:00:00","55","ND","ND","ND","ND","ND","ND","ND","ND","ND","ND","0"],
    [42459,"2015-03-10T22:00:00","47","ND","ND","ND","ND","ND","ND","ND","ND","ND","ND","0"],
    [42460,"2015-03-10T23:00:00","42","ND","ND","ND","ND","ND","ND","ND","ND","ND","ND","0"],
    [42461,"2015-03-11T00:00:00","26","ND","ND","ND","ND","ND","ND","ND","ND","ND","ND","0"],
    [42462,"2015-03-11T01:00:00","27","ND","ND","ND","ND","ND","ND","ND","ND","ND","ND","0"],
    [42463,"2015-03-11T02:00:00","17","ND","ND","ND","ND","ND","ND","ND","ND","ND","ND","0"],
    [42464,"2015-03-11T03:00:00","16","ND","ND","ND","ND","ND","ND","ND","ND","ND","ND","0"],
    [42465,"2015-03-11T04:00:00","26","ND","ND","ND","ND","ND","ND","ND","ND","ND","ND","0"],
    [42466,"2015-03-11T05:00:00","29","ND","ND","ND","ND","ND","ND","ND","ND","ND","ND","0"],
    [42467,"2015-03-11T06:00:00","40","ND","ND","ND","ND","ND","ND","ND","ND","ND","ND","0"],
    [42468,"2015-03-11T07:00:00","52","ND","ND","ND","ND","ND","ND","ND","ND","ND","ND","0"],
    [42469,"2015-03-11T08:00:00","45","ND","ND","ND","ND","ND","ND","ND","ND","ND","ND","0"],
    [42470,"2015-03-11T09:00:00","61","ND","ND","ND","ND","ND","ND","ND","ND","ND","ND","0"],
    [42471,"2015-03-11T10:00:00","53","ND","ND","ND","ND","ND","ND","ND","ND","ND","ND","0"],
    [42472,"2015-03-11T11:00:00","43","ND","ND","ND","ND","ND","ND","ND","ND","ND","ND","0"],
    [42473,"2015-03-11T12:00:00","34","ND","ND","ND","ND","ND","ND","ND","ND","ND","ND","0"],
    [42474,"2015-03-11T13:00:00","41","ND","ND","ND","ND","ND","ND","ND","ND","ND","ND","0"],
    [42475,"2015-03-11T14:00:00","41","ND","ND","ND","ND","ND","ND","ND","ND","ND","ND","0"],
    [42476,"2015-03-11T15:00:00","48","ND","ND","ND","ND","ND","ND","ND","ND","ND","ND","0"],
    [42477,"2015-03-11T16:00:00","30","ND","ND","ND","ND","ND","ND","ND","ND","ND","ND","0"],
    [42478,"2015-03-11T17:00:00","28","ND","ND","ND","ND","ND","ND","ND","ND","ND","ND","0"],
    [42479,"2015-03-11T18:00:00","34","ND","ND","ND","ND","ND","ND","ND","ND","ND","ND","0"],
    [42480,"2015-03-11T19:00:00","37","ND","ND","ND","ND","ND","ND","ND","ND","ND","ND","0"],
    [42481,"2015-03-11T20:00:00","67","ND","ND","ND","ND","ND","ND","ND","ND","ND","ND","0"],
    [42482,"2015-03-11T21:00:00","64","ND","ND","ND","ND","ND","ND","ND","ND","ND","ND","0"],
    [42483,"2015-03-11T22:00:00","39","ND","ND","ND","ND","ND","ND","ND","ND","ND","ND","0"],
    [42484,"2015-03-11T23:00:00","30","ND","ND","ND","ND","ND","ND","ND","ND","ND","ND","0"],
    [42485,"2015-03-12T00:00:00","24","ND","ND","ND","ND","ND","ND","ND","ND","ND","ND","0"],
    [42486,"2015-03-12T01:00:00","26","ND","ND","ND","ND","ND","ND","ND","ND","ND","ND","0"],
    [42487,"2015-03-12T02:00:00","26","ND","ND","ND","ND","ND","ND","ND","ND","ND","ND","0"],
    [42488,"2015-03-12T03:00:00","36","ND","ND","ND","ND","ND","ND","ND","ND","ND","ND","0"],
    [42489,"2015-03-12T04:00:00","27","ND","ND","ND","ND","ND","ND","ND","ND","ND","ND","0"],
    [42490,"2015-03-12T05:00:00","18","ND","ND","ND","ND","ND","ND","ND","ND","ND","ND","0"],
    [42491,"2015-03-12T06:00:00","32","ND","ND","ND","ND","ND","ND","ND","ND","ND","ND","0"],
    [42492,"2015-03-12T07:00:00","50","ND","ND","ND","ND","ND","ND","ND","ND","ND","ND","0"],
    [42493,"2015-03-12T08:00:00","92","ND","ND","ND","ND","ND","ND","ND","ND","ND","ND","0"],
    [42494,"2015-03-12T09:00:00","70","ND","ND","ND","ND","ND","ND","ND","ND","ND","ND","0"],
    [42495,"2015-03-12T10:00:00","49","ND","ND","ND","ND","ND","ND","ND","ND","ND","ND","0"],
    [42496,"2015-03-12T11:00:00","38","ND","ND","ND","ND","ND","ND","ND","ND","ND","ND","0"],
    [42497,"2015-03-12T12:00:00","43","ND","ND","ND","ND","ND","ND","ND","ND","ND","ND","0"],
    [42498,"2015-03-12T13:00:00","30","ND","ND","ND","ND","ND","ND","ND","ND","ND","ND","0"],
    [42499,"2015-03-12T14:00:00","26","ND","ND","ND","ND","ND","ND","ND","ND","ND","ND","0"],
    [42500,"2015-03-12T15:00:00","27","ND","ND","ND","ND","ND","ND","ND","ND","ND","ND","0"],
    [42501,"2015-03-12T16:00:00","33","ND","ND","ND","ND","ND","ND","ND","ND","ND","ND","0"],
    [42502,"2015-03-12T17:00:00","23","ND","ND","ND","ND","ND","ND","ND","ND","ND","ND","0"],
    [42503,"2015-03-12T18:00:00","20","ND","ND","ND","ND","ND","ND","ND","ND","ND","ND","0"],
    [42504,"2015-03-12T19:00:00","34","ND","ND","ND","ND","ND","ND","ND","ND","ND","ND","0"],
    [42505,"2015-03-12T20:00:00","22","ND","ND","ND","ND","ND","ND","ND","ND","ND","ND","0"],
    [42506,"2015-03-12T21:00:00","37","ND","ND","ND","ND","ND","ND","ND","ND","ND","ND","0"],
    [42507,"2015-03-12T22:00:00","16","ND","ND","ND","ND","ND","ND","ND","ND","ND","ND","0"],
    [42508,"2015-03-12T23:00:00","46","ND","ND","ND","ND","ND","ND","ND","ND","ND","ND","0"],
    [42509,"2015-03-13T00:00:00","49","ND","ND","ND","ND","ND","ND","ND","ND","ND","ND","0"],
    [42510,"2015-03-13T01:00:00","69","ND","ND","ND","ND","ND","ND","ND","ND","ND","ND","0"],
    [42511,"2015-03-13T02:00:00","65","ND","ND","ND","ND","ND","ND","ND","ND","ND","ND","0"],
    [42512,"2015-03-13T03:00:00","64","ND","ND","ND","ND","ND","ND","ND","ND","ND","ND","0"],
    [42513,"2015-03-13T04:00:00","56","ND","ND","ND","ND","ND","ND","ND","ND","ND","ND","0"],
    [42514,"2015-03-13T05:00:00","61","ND","ND","ND","ND","ND","ND","ND","ND","ND","ND","0"],
    [42515,"2015-03-13T06:00:00","75","ND","ND","ND","ND","ND","ND","ND","ND","ND","ND","0"],
    [42516,"2015-03-13T07:00:00","88","ND","ND","ND","ND","ND","ND","ND","ND","ND","ND","0"],
    [42517,"2015-03-13T08:00:00","80","ND","ND","ND","ND","ND","ND","ND","ND","ND","ND","0"],
    [42518,"2015-03-13T09:00:00","123","ND","ND","ND","ND","ND","ND","ND","ND","ND","ND","0"],
    [42519,"2015-03-13T10:00:00","47","ND","ND","ND","ND","ND","ND","ND","ND","ND","ND","0"],
    [42520,"2015-03-13T11:00:00","45","ND","ND","ND","ND","ND","ND","ND","ND","ND","ND","0"],
    [42521,"2015-03-13T12:00:00","44","ND","ND","ND","ND","ND","ND","ND","ND","ND","ND","0"],
    [42522,"2015-03-13T13:00:00","61","ND","ND","ND","ND","ND","ND","ND","ND","ND","ND","0"],
    [42523,"2015-03-13T14:00:00","42","ND","ND","ND","ND","ND","ND","ND","ND","ND","ND","0"],
    [42524,"2015-03-13T15:00:00","22","ND","ND","ND","ND","ND","ND","ND","ND","ND","ND","0"],
    [42525,"2015-03-13T16:00:00","32","ND","ND","ND","ND","ND","ND","ND","ND","ND","ND","0"],
    [42526,"2015-03-13T17:00:00","29","ND","ND","ND","ND","ND","ND","ND","ND","ND","ND","0"],
    [42527,"2015-03-13T18:00:00","15","ND","ND","ND","ND","ND","ND","ND","ND","ND","ND","0"],
    [42528,"2015-03-13T19:00:00","35","ND","ND","ND","ND","ND","ND","ND","ND","ND","ND","0"],
    [42529,"2015-03-13T20:00:00","17","ND","ND","ND","ND","ND","ND","ND","ND","ND","ND","0"],
    [42530,"2015-03-13T21:00:00","28","ND","ND","ND","ND","ND","ND","ND","ND","ND","ND","6.35"],
    [42531,"2015-03-13T22:00:00","19","ND","ND","ND","ND","ND","ND","ND","ND","ND","ND","5.59"],
    [42532,"2015-03-13T23:00:00","8","ND","ND","ND","ND","ND","ND","ND","ND","ND","ND","1.52"],
    [42533,"2015-03-14T00:00:00","21","ND","ND","ND","ND","ND","ND","ND","ND","ND","ND","5.59"],
    [42534,"2015-03-14T01:00:00","18","ND","ND","ND","ND","ND","ND","ND","ND","ND","ND","1.02"],
    [42535,"2015-03-14T02:00:00","10","ND","ND","ND","ND","ND","ND","ND","ND","ND","ND","0.76"],
    [42536,"2015-03-14T03:00:00","8","ND","ND","ND","ND","ND","ND","ND","ND","ND","ND","0"],
    [42537,"2015-03-14T04:00:00","7","ND","ND","ND","ND","ND","ND","ND","ND","ND","ND","0"],
    [42538,"2015-03-14T05:00:00","22","ND","ND","ND","ND","ND","ND","ND","ND","ND","ND","0"],
    [42539,"2015-03-14T06:00:00","20","ND","ND","ND","ND","ND","ND","ND","ND","ND","ND","0"],
    [42540,"2015-03-14T07:00:00","34","ND","ND","ND","ND","ND","ND","ND","ND","ND","ND","0.25"],
    [42541,"2015-03-14T08:00:00","56","ND","ND","ND","ND","ND","ND","ND","ND","ND","ND","0"],
    [42542,"2015-03-14T09:00:00","75","ND","ND","ND","ND","ND","ND","ND","ND","ND","ND","0"],
    [42543,"2015-03-14T10:00:00","55","ND","ND","ND","ND","ND","ND","ND","ND","ND","ND","0"],
    [42544,"2015-03-14T11:00:00","35","ND","ND","ND","ND","ND","ND","ND","ND","ND","ND","0"],
    [42545,"2015-03-14T12:00:00","42","ND","ND","ND","ND","ND","ND","ND","ND","ND","ND","0"],
    [42546,"2015-03-14T13:00:00","21","ND","ND","ND","ND","ND","ND","ND","ND","ND","ND","0"],
    [42547,"2015-03-14T14:00:00","23","ND","ND","ND","ND","ND","ND","ND","ND","ND","ND","0"],
    [42548,"2015-03-14T15:00:00","20","ND","ND","ND","ND","ND","ND","ND","ND","ND","ND","0"],
    [42549,"2015-03-14T16:00:00","24","ND","ND","ND","ND","ND","ND","ND","ND","ND","ND","0"],
    [42550,"2015-03-14T17:00:00","16","ND","ND","ND","ND","ND","ND","ND","ND","ND","ND","0"],
    [42551,"2015-03-14T18:00:00","27","ND","ND","ND","ND","ND","ND","ND","ND","ND","ND","0"],
    [42552,"2015-03-14T19:00:00","20","ND","ND","ND","ND","ND","ND","ND","ND","ND","ND","0"],
    [42553,"2015-03-14T20:00:00","26","ND","ND","ND","ND","ND","ND","ND","ND","ND","ND","0"],
    [42554,"2015-03-14T21:00:00","19","ND","ND","ND","ND","ND","ND","ND","ND","ND","ND","0"],
    [42555,"2015-03-14T22:00:00","34","ND","ND","ND","ND","ND","ND","ND","ND","ND","ND","0"],
    [42556,"2015-03-14T23:00:00","26","ND","ND","ND","ND","ND","ND","ND","ND","ND","ND","0"],
    [42557,"2015-03-15T00:00:00","36","ND","ND","ND","ND","ND","ND","ND","ND","ND","ND","0"],
    [42558,"2015-03-15T01:00:00","44","ND","ND","ND","ND","ND","ND","ND","ND","ND","ND","0"],
    [42559,"2015-03-15T02:00:00","51","ND","ND","ND","ND","ND","ND","ND","ND","ND","ND","0"],
    [42560,"2015-03-15T03:00:00","48","ND","ND","ND","ND","ND","ND","ND","ND","ND","ND","0"],
    [42561,"2015-03-15T04:00:00","57","ND","ND","ND","ND","ND","ND","ND","ND","ND","ND","0"],
    [42562,"2015-03-15T05:00:00","44","ND","ND","ND","ND","ND","ND","ND","ND","ND","ND","0"],
    [42563,"2015-03-15T06:00:00","33","ND","ND","ND","ND","ND","ND","ND","ND","ND","ND","0"],
    [42564,"2015-03-15T07:00:00","44","ND","ND","ND","ND","ND","ND","ND","ND","ND","ND","0"],
    [42565,"2015-03-15T08:00:00","62","ND","ND","ND","ND","ND","ND","ND","ND","ND","ND","0"],
    [42566,"2015-03-15T09:00:00","66","ND","ND","ND","ND","ND","ND","ND","ND","ND","ND","0"],
    [42567,"2015-03-15T10:00:00","68","ND","ND","ND","ND","ND","ND","ND","ND","ND","ND","0"],
    [42568,"2015-03-15T11:00:00","48","ND","ND","ND","ND","ND","ND","ND","ND","ND","ND","0"],
    [42569,"2015-03-15T12:00:00","39","ND","ND","ND","ND","ND","ND","ND","ND","ND","ND","0"],
    [42570,"2015-03-15T13:00:00","39","ND","ND","ND","ND","ND","ND","ND","ND","ND","ND","0"],
    [42571,"2015-03-15T14:00:00","30","ND","ND","ND","ND","ND","ND","ND","ND","ND","ND","0"],
    [42572,"2015-03-15T15:00:00","32","ND","ND","ND","ND","ND","ND","ND","ND","ND","ND","0"],
    [42573,"2015-03-15T16:00:00","30","ND","ND","ND","ND","ND","ND","ND","ND","ND","ND","0"],
    [42574,"2015-03-15T17:00:00","24","ND","ND","ND","ND","ND","ND","ND","ND","ND","ND","0"],
    [42575,"2015-03-15T18:00:00","22","ND","ND","ND","ND","ND","ND","ND","ND","ND","ND","0"],
    [42576,"2015-03-15T19:00:00","29","ND","ND","ND","ND","ND","ND","ND","ND","ND","ND","0"],
    [42577,"2015-03-15T20:00:00","30","ND","ND","ND","ND","ND","ND","ND","ND","ND","ND","0"],
    [42578,"2015-03-15T21:00:00","34","ND","ND","ND","ND","ND","ND","ND","ND","ND","ND","0"],
    [42579,"2015-03-15T22:00:00","39","ND","ND","ND","ND","ND","ND","ND","ND","ND","ND","0"],
    [42580,"2015-03-15T23:00:00","37","ND","ND","ND","ND","ND","ND","ND","ND","ND","ND","0"],
    [42581,"2015-03-16T00:00:00","9","ND","ND","ND","ND","ND","ND","ND","ND","ND","ND","0"],
    [42582,"2015-03-16T01:00:00","33","ND","ND","ND","ND","ND","ND","ND","ND","ND","ND","0"],
    [42583,"2015-03-16T02:00:00","6","ND","ND","ND","ND","ND","ND","ND","ND","ND","ND","0"],
    [42584,"2015-03-16T03:00:00","29","ND","ND","ND","ND","ND","ND","ND","ND","ND","ND","0"],
    [42585,"2015-03-16T04:00:00","36","ND","ND","ND","ND","ND","ND","ND","ND","ND","ND","0.25"],
    [42586,"2015-03-16T05:00:00","9","ND","ND","ND","ND","ND","ND","ND","ND","ND","ND","15.49"],
    [42587,"2015-03-16T06:00:00","19","ND","ND","ND","ND","ND","ND","ND","ND","ND","ND","0.25"],
    [42588,"2015-03-16T07:00:00","19","ND","ND","ND","ND","ND","ND","ND","ND","ND","ND","5.08"],
    [42589,"2015-03-16T08:00:00","18","ND","ND","ND","ND","ND","ND","ND","ND","ND","ND","8.64"],
    [42590,"2015-03-16T09:00:00","20","ND","ND","ND","ND","ND","ND","ND","ND","ND","ND","1.52"],
    [42591,"2015-03-16T10:00:00","14","ND","ND","ND","ND","ND","ND","ND","ND","ND","ND","0.51"],
    [42592,"2015-03-16T11:00:00","ND","ND","ND","ND","ND","ND","ND","ND","ND","ND","ND","0"],
    [42593,"2015-03-16T12:00:00","29","ND","ND","ND","ND","ND","ND","ND","ND","ND","ND","0"],
    [42594,"2015-03-16T13:00:00","35","ND","ND","ND","ND","ND","ND","ND","ND","ND","ND","0"],
    [42595,"2015-03-16T14:00:00","25","ND","ND","ND","ND","ND","ND","ND","ND","ND","ND","0"],
    [42596,"2015-03-16T15:00:00","18","ND","ND","ND","ND","ND","ND","ND","ND","ND","ND","0"],
    [42597,"2015-03-16T16:00:00","26","ND","ND","ND","ND","ND","ND","ND","ND","ND","ND","0"],
    [42598,"2015-03-16T17:00:00","12","ND","ND","ND","ND","ND","ND","ND","ND","ND","ND","0"],
    [42599,"2015-03-16T18:00:00","35","ND","ND","ND","ND","ND","ND","ND","ND","ND","ND","0"],
    [42600,"2015-03-16T19:00:00","34","ND","ND","ND","ND","ND","ND","ND","ND","ND","ND","0"],
    [42601,"2015-03-16T20:00:00","32","ND","ND","ND","ND","ND","ND","ND","ND","ND","ND","0"],
    [42602,"2015-03-16T21:00:00","54","ND","ND","ND","ND","ND","ND","ND","ND","ND","ND","0"],
    [42603,"2015-03-16T22:00:00","44","ND","ND","ND","ND","ND","ND","ND","ND","ND","ND","0"],
    [42604,"2015-03-16T23:00:00","28","ND","ND","ND","ND","ND","ND","ND","ND","ND","ND","0"],
    [42605,"2015-03-17T00:00:00","31","ND","ND","ND","ND","ND","ND","ND","ND","ND","ND","0"],
    [42606,"2015-03-17T01:00:00","36","ND","ND","ND","ND","ND","ND","ND","ND","ND","ND","0"],
    [42607,"2015-03-17T02:00:00","36","ND","ND","ND","ND","ND","ND","ND","ND","ND","ND","0"],
    [42608,"2015-03-17T03:00:00","44","ND","ND","ND","ND","ND","ND","ND","ND","ND","ND","0"],
    [42609,"2015-03-17T04:00:00","59","ND","ND","ND","ND","ND","ND","ND","ND","ND","ND","0"],
    [42610,"2015-03-17T05:00:00","52","ND","ND","ND","ND","ND","ND","ND","ND","ND","ND","0"],
    [42611,"2015-03-17T06:00:00","56","ND","ND","ND","ND","ND","ND","ND","ND","ND","ND","0"],
    [42612,"2015-03-17T07:00:00","46","ND","ND","ND","ND","ND","ND","ND","ND","ND","ND","0.25"],
    [42613,"2015-03-17T08:00:00","61","ND","ND","ND","ND","ND","ND","ND","ND","ND","ND","0"],
    [42614,"2015-03-17T09:00:00","72","ND","ND","ND","ND","ND","ND","ND","ND","ND","ND","0"],
    [42615,"2015-03-17T10:00:00","60","ND","ND","ND","ND","ND","ND","ND","ND","ND","ND","0"],
    [42616,"2015-03-17T11:00:00","31","ND","ND","ND","ND","ND","ND","ND","ND","ND","ND","0"],
    [42617,"2015-03-17T12:00:00","28","ND","ND","ND","ND","ND","ND","ND","ND","ND","ND","0"],
    [42618,"2015-03-17T13:00:00","43","ND","ND","ND","ND","ND","ND","ND","ND","ND","ND","0"],
    [42619,"2015-03-17T14:00:00","31","ND","ND","ND","ND","ND","ND","ND","ND","ND","ND","0"],
    [42620,"2015-03-17T15:00:00","14","ND","ND","ND","ND","ND","ND","ND","ND","ND","ND","0"],
    [42621,"2015-03-17T16:00:00","20","ND","ND","ND","ND","ND","ND","ND","ND","ND","ND","0"],
    [42622,"2015-03-17T17:00:00","23","ND","ND","ND","ND","ND","ND","ND","ND","ND","ND","0"],
    [42623,"2015-03-17T18:00:00","16","ND","ND","ND","ND","ND","ND","ND","ND","ND","ND","0"],
    [42624,"2015-03-17T19:00:00","29","ND","ND","ND","ND","ND","ND","ND","ND","ND","ND","0"],
    [42625,"2015-03-17T20:00:00","30","ND","ND","ND","ND","ND","ND","ND","ND","ND","ND","0"],
    [42626,"2015-03-17T21:00:00","45","ND","ND","ND","ND","ND","ND","ND","ND","ND","ND","0"],
    [42627,"2015-03-17T22:00:00","42","ND","ND","ND","ND","ND","ND","ND","ND","ND","ND","0"],
    [42628,"2015-03-17T23:00:00","24","ND","ND","ND","ND","ND","ND","ND","ND","ND","ND","2.79"],
    [42629,"2015-03-18T00:00:00","14","ND","ND","ND","ND","ND","ND","ND","ND","ND","ND","2.54"],
    [42630,"2015-03-18T01:00:00","9","ND","ND","ND","ND","ND","ND","ND","ND","ND","ND","4.32"],
    [42631,"2015-03-18T02:00:00","5","ND","ND","ND","ND","ND","ND","ND","ND","ND","ND","6.1"],
    [42632,"2015-03-18T03:00:00","6","ND","ND","ND","ND","ND","ND","ND","ND","ND","ND","1.27"],
    [42633,"2015-03-18T04:00:00","5","ND","ND","ND","ND","ND","ND","ND","ND","ND","ND","0"],
    [42634,"2015-03-18T05:00:00","5","ND","ND","ND","ND","ND","ND","ND","ND","ND","ND","0"],
    [42635,"2015-03-18T06:00:00","18","ND","ND","ND","ND","ND","ND","ND","ND","ND","ND","0"],
    [42636,"2015-03-18T07:00:00","29","ND","ND","ND","ND","ND","ND","ND","ND","ND","ND","0"],
    [42637,"2015-03-18T08:00:00","30","ND","ND","ND","ND","ND","ND","ND","ND","ND","ND","0"],
    [42638,"2015-03-18T09:00:00","38","ND","ND","ND","ND","ND","ND","ND","ND","ND","ND","0.25"],
    [42639,"2015-03-18T10:00:00","47","ND","ND","ND","ND","ND","ND","ND","ND","ND","ND","0"],
    [42640,"2015-03-18T11:00:00","35","ND","ND","ND","ND","ND","ND","ND","ND","ND","ND","0"],
    [42641,"2015-03-18T12:00:00","28","ND","ND","ND","ND","ND","ND","ND","ND","ND","ND","0"],
    [42642,"2015-03-18T13:00:00","25","ND","ND","ND","ND","ND","ND","ND","ND","ND","ND","0"],
    [42643,"2015-03-18T14:00:00","21","ND","ND","ND","ND","ND","ND","ND","ND","ND","ND","0"],
    [42644,"2015-03-18T15:00:00","21","ND","ND","ND","ND","ND","ND","ND","ND","ND","ND","0"],
    [42645,"2015-03-18T16:00:00","8","ND","ND","ND","ND","ND","ND","ND","ND","ND","ND","0"],
    [42646,"2015-03-18T17:00:00","13","ND","ND","ND","ND","ND","ND","ND","ND","ND","ND","0"],
    [42647,"2015-03-18T18:00:00","17","ND","ND","ND","ND","ND","ND","ND","ND","ND","ND","0"],
    [42648,"2015-03-18T19:00:00","19","ND","ND","ND","ND","ND","ND","ND","ND","ND","ND","0"],
    [42649,"2015-03-18T20:00:00","57","ND","ND","ND","ND","ND","ND","ND","ND","ND","ND","0"],
    [42650,"2015-03-18T21:00:00","47","ND","ND","ND","ND","ND","ND","ND","ND","ND","ND","0"],
    [42651,"2015-03-18T22:00:00","38","ND","ND","ND","ND","ND","ND","ND","ND","ND","ND","0"],
    [42652,"2015-03-18T23:00:00","45","ND","ND","ND","ND","ND","ND","ND","ND","ND","ND","0"],
    [42653,"2015-03-19T00:00:00","55","ND","ND","ND","ND","ND","ND","ND","ND","ND","ND","0"],
    [42654,"2015-03-19T01:00:00","60","ND","ND","ND","ND","ND","ND","ND","ND","ND","ND","0"],
    [42655,"2015-03-19T02:00:00","78","ND","ND","ND","ND","ND","ND","ND","ND","ND","ND","0"],
    [42656,"2015-03-19T03:00:00","61","ND","ND","ND","ND","ND","ND","ND","ND","ND","ND","0"],
    [42657,"2015-03-19T04:00:00","46","ND","ND","ND","ND","ND","ND","ND","ND","ND","ND","0"],
    [42658,"2015-03-19T05:00:00","34","ND","ND","ND","ND","ND","ND","ND","ND","ND","ND","0"],
    [42659,"2015-03-19T06:00:00","37","ND","ND","ND","ND","ND","ND","ND","ND","ND","ND","0"],
    [42660,"2015-03-19T07:00:00","73","ND","ND","ND","ND","ND","ND","ND","ND","ND","ND","0"],
    [42661,"2015-03-19T08:00:00","84","ND","ND","ND","ND","ND","ND","ND","ND","ND","ND","0"],
    [42662,"2015-03-19T09:00:00","114","ND","ND","ND","ND","ND","ND","ND","ND","ND","ND","0"],
    [42663,"2015-03-19T10:00:00","87","ND","ND","ND","ND","ND","ND","ND","ND","ND","ND","0"],
    [42664,"2015-03-19T11:00:00","58","ND","ND","ND","ND","ND","ND","ND","ND","ND","ND","0"],
    [42665,"2015-03-19T12:00:00","29","ND","ND","ND","ND","ND","ND","ND","ND","ND","ND","0"],
    [42666,"2015-03-19T13:00:00","35","ND","ND","ND","ND","ND","ND","ND","ND","ND","ND","0"],
    [42667,"2015-03-19T14:00:00","36","ND","ND","ND","ND","ND","ND","ND","ND","ND","ND","0"],
    [42668,"2015-03-19T15:00:00","31","ND","ND","ND","ND","ND","ND","ND","ND","ND","ND","0"],
    [42669,"2015-03-19T16:00:00","28","ND","ND","ND","ND","ND","ND","ND","ND","ND","ND","0"],
    [42670,"2015-03-19T17:00:00","38","ND","ND","ND","ND","ND","ND","ND","ND","ND","ND","0"],
    [42671,"2015-03-19T18:00:00","60","ND","ND","ND","ND","ND","ND","ND","ND","ND","ND","0"],
    [42672,"2015-03-19T19:00:00","32","ND","ND","ND","ND","ND","ND","ND","ND","ND","ND","0"],
    [42673,"2015-03-19T20:00:00","31","ND","ND","ND","ND","ND","ND","ND","ND","ND","ND","0"],
    [42674,"2015-03-19T21:00:00","30","ND","ND","ND","ND","ND","ND","ND","ND","ND","ND","0"],
    [42675,"2015-03-19T22:00:00","26","ND","ND","ND","ND","ND","ND","ND","ND","ND","ND","0"],
    [42676,"2015-03-19T23:00:00","32","ND","ND","ND","ND","ND","ND","ND","ND","ND","ND","0"],
    [42677,"2015-03-20T00:00:00","25","ND","ND","ND","ND","ND","ND","ND","ND","ND","ND","0"],
    [42678,"2015-03-20T01:00:00","17","ND","ND","ND","ND","ND","ND","ND","ND","ND","ND","0"],
    [42679,"2015-03-20T02:00:00","13","ND","ND","ND","ND","ND","ND","ND","ND","ND","ND","0"],
    [42680,"2015-03-20T03:00:00","18","ND","ND","ND","ND","ND","ND","ND","ND","ND","ND","0"],
    [42681,"2015-03-20T04:00:00","28","ND","ND","ND","ND","ND","ND","ND","ND","ND","ND","0"],
    [42682,"2015-03-20T05:00:00","38","ND","ND","ND","ND","ND","ND","ND","ND","ND","ND","0"],
    [42683,"2015-03-20T06:00:00","31","ND","ND","ND","ND","ND","ND","ND","ND","ND","ND","0"],
    [42684,"2015-03-20T07:00:00","79","ND","ND","ND","ND","ND","ND","ND","ND","ND","ND","0"],
    [42685,"2015-03-20T08:00:00","69","ND","ND","ND","ND","ND","ND","ND","ND","ND","ND","0"],
    [42686,"2015-03-20T09:00:00","96","ND","ND","ND","ND","ND","ND","ND","ND","ND","ND","0"],
    [42687,"2015-03-20T10:00:00","55","ND","ND","ND","ND","ND","ND","ND","ND","ND","ND","0"],
    [42688,"2015-03-20T11:00:00","53","ND","ND","ND","ND","ND","ND","ND","ND","ND","ND","0"],
    [42689,"2015-03-20T12:00:00","34","ND","ND","ND","ND","ND","ND","ND","ND","ND","ND","0"],
    [42690,"2015-03-20T13:00:00","32","ND","ND","ND","ND","ND","ND","ND","ND","ND","ND","0"],
    [42691,"2015-03-20T14:00:00","28","ND","ND","ND","ND","ND","ND","ND","ND","ND","ND","0"],
    [42692,"2015-03-20T15:00:00","29","ND","ND","ND","ND","ND","ND","ND","ND","ND","ND","0"],
    [42693,"2015-03-20T16:00:00","14","ND","ND","ND","ND","ND","ND","ND","ND","ND","ND","0"],
    [42694,"2015-03-20T17:00:00","11","ND","ND","ND","ND","ND","ND","ND","ND","ND","ND","0"],
    [42695,"2015-03-20T18:00:00","43","ND","ND","ND","ND","ND","ND","ND","ND","ND","ND","0"],
    [42696,"2015-03-20T19:00:00","9","ND","ND","ND","ND","ND","ND","ND","ND","ND","ND","0"],
    [42697,"2015-03-20T20:00:00","23","ND","ND","ND","ND","ND","ND","ND","ND","ND","ND","0"],
    [42698,"2015-03-20T21:00:00","23","ND","ND","ND","ND","ND","ND","ND","ND","ND","ND","0.51"],
    [42699,"2015-03-20T22:00:00","33","ND","ND","ND","ND","ND","ND","ND","ND","ND","ND","0"],
    [42700,"2015-03-20T23:00:00","34","ND","ND","ND","ND","ND","ND","ND","ND","ND","ND","0"],
    [42701,"2015-03-21T00:00:00","23","ND","ND","ND","ND","ND","ND","ND","ND","ND","ND","0"],
    [42702,"2015-03-21T01:00:00","25","ND","ND","ND","ND","ND","ND","ND","ND","ND","ND","0"],
    [42703,"2015-03-21T02:00:00","28","ND","ND","ND","ND","ND","ND","ND","ND","ND","ND","0"],
    [42704,"2015-03-21T03:00:00","18","ND","ND","ND","ND","ND","ND","ND","ND","ND","ND","0"],
    [42705,"2015-03-21T04:00:00","9","ND","ND","ND","ND","ND","ND","ND","ND","ND","ND","0"],
    [42706,"2015-03-21T05:00:00","5","ND","ND","ND","ND","ND","ND","ND","ND","ND","ND","0"],
    [42707,"2015-03-21T06:00:00","19","ND","ND","ND","ND","ND","ND","ND","ND","ND","ND","0"],
    [42708,"2015-03-21T07:00:00","43","ND","ND","ND","ND","ND","ND","ND","ND","ND","ND","0"],
    [42709,"2015-03-21T08:00:00","59","ND","ND","ND","ND","ND","ND","ND","ND","ND","ND","0"],
    [42710,"2015-03-21T09:00:00","34","ND","ND","ND","ND","ND","ND","ND","ND","ND","ND","0"],
    [42711,"2015-03-21T10:00:00","21","ND","ND","ND","ND","ND","ND","ND","ND","ND","ND","0"],
    [42712,"2015-03-21T11:00:00","36","ND","ND","ND","ND","ND","ND","ND","ND","ND","ND","0"],
    [42713,"2015-03-21T12:00:00","44","ND","ND","ND","ND","ND","ND","ND","ND","ND","ND","0"],
    [42714,"2015-03-21T13:00:00","48","ND","ND","ND","ND","ND","ND","ND","ND","ND","ND","0"],
    [42715,"2015-03-21T14:00:00","54","ND","ND","ND","ND","ND","ND","ND","ND","ND","ND","0"],
    [42716,"2015-03-21T15:00:00","63","ND","ND","ND","ND","ND","ND","ND","ND","ND","ND","0"],
    [42717,"2015-03-21T16:00:00","13","ND","ND","ND","ND","ND","ND","ND","ND","ND","ND","0"],
    [42718,"2015-03-21T17:00:00","18","ND","ND","ND","ND","ND","ND","ND","ND","ND","ND","0"],
    [42719,"2015-03-21T18:00:00","14","ND","ND","ND","ND","ND","ND","ND","ND","ND","ND","0"],
    [42720,"2015-03-21T19:00:00","12","ND","ND","ND","ND","ND","ND","ND","ND","ND","ND","0"],
    [42721,"2015-03-21T20:00:00","52","ND","ND","ND","ND","ND","ND","ND","ND","ND","ND","0"],
    [42722,"2015-03-21T21:00:00","51","ND","ND","ND","ND","ND","ND","ND","ND","ND","ND","0"],
    [42723,"2015-03-21T22:00:00","63","ND","ND","ND","ND","ND","ND","ND","ND","ND","ND","0"],
    [42724,"2015-03-21T23:00:00","55","ND","ND","ND","ND","ND","ND","ND","ND","ND","ND","0"],
    [42725,"2015-03-22T00:00:00","46","ND","ND","ND","ND","ND","ND","ND","ND","ND","ND","0"],
    [42726,"2015-03-22T01:00:00","51","ND","ND","ND","ND","ND","ND","ND","ND","ND","ND","0"],
    [42727,"2015-03-22T02:00:00","47","ND","ND","ND","ND","ND","ND","ND","ND","ND","ND","0"],
    [42728,"2015-03-22T03:00:00","37","ND","ND","ND","ND","ND","ND","ND","ND","ND","ND","0"],
    [42729,"2015-03-22T04:00:00","31","ND","ND","ND","ND","ND","ND","ND","ND","ND","ND","0"],
    [42730,"2015-03-22T05:00:00","71","ND","ND","ND","ND","ND","ND","ND","ND","ND","ND","0"],
    [42731,"2015-03-22T06:00:00","41","ND","ND","ND","ND","ND","ND","ND","ND","ND","ND","0"],
    [42732,"2015-03-22T07:00:00","40","ND","ND","ND","ND","ND","ND","ND","ND","ND","ND","0"],
    [42733,"2015-03-22T08:00:00","77","ND","ND","ND","ND","ND","ND","ND","ND","ND","ND","0"],
    [42734,"2015-03-22T09:00:00","64","ND","ND","ND","ND","ND","ND","ND","ND","ND","ND","0"],
    [42735,"2015-03-22T10:00:00","54","ND","ND","ND","ND","ND","ND","ND","ND","ND","ND","0"],
    [42736,"2015-03-22T11:00:00","30","ND","ND","ND","ND","ND","ND","ND","ND","ND","ND","0"],
    [42737,"2015-03-22T12:00:00","38","ND","ND","ND","ND","ND","ND","ND","ND","ND","ND","0"],
    [42738,"2015-03-22T13:00:00","33","ND","ND","ND","ND","ND","ND","ND","ND","ND","ND","0"],
    [42739,"2015-03-22T14:00:00","32","ND","ND","ND","ND","ND","ND","ND","ND","ND","ND","0"],
    [42740,"2015-03-22T15:00:00","40","ND","ND","ND","ND","ND","ND","ND","ND","ND","ND","1.52"],
    [42741,"2015-03-22T16:00:00","15","ND","ND","ND","ND","ND","ND","ND","ND","ND","ND","0.25"],
    [42742,"2015-03-22T17:00:00","8","ND","ND","ND","ND","ND","ND","ND","ND","ND","ND","0"],
    [42743,"2015-03-22T18:00:00","10","ND","ND","ND","ND","ND","ND","ND","ND","ND","ND","0"],
    [42744,"2015-03-22T19:00:00","22","ND","ND","ND","ND","ND","ND","ND","ND","ND","ND","0"],
    [42745,"2015-03-22T20:00:00","58","ND","ND","ND","ND","ND","ND","ND","ND","ND","ND","0"],
    [42746,"2015-03-22T21:00:00","51","ND","ND","ND","ND","ND","ND","ND","ND","ND","ND","0"],
    [42747,"2015-03-22T22:00:00","44","ND","ND","ND","ND","ND","ND","ND","ND","ND","ND","0"],
    [42748,"2015-03-22T23:00:00","38","ND","ND","ND","ND","ND","ND","ND","ND","ND","ND","0"],
    [42749,"2015-03-23T00:00:00","56","ND","ND","ND","ND","ND","ND","ND","ND","ND","ND","0"],
    [42750,"2015-03-23T01:00:00","34","ND","ND","ND","ND","ND","ND","ND","ND","ND","ND","0"],
    [42751,"2015-03-23T02:00:00","38","ND","ND","ND","ND","ND","ND","ND","ND","ND","ND","0"],
    [42752,"2015-03-23T03:00:00","29","ND","ND","ND","ND","ND","ND","ND","ND","ND","ND","0"],
    [42753,"2015-03-23T04:00:00","30","ND","ND","ND","ND","ND","ND","ND","ND","ND","ND","0"],
    [42754,"2015-03-23T05:00:00","51","ND","ND","ND","ND","ND","ND","ND","ND","ND","ND","0"],
    [42755,"2015-03-23T06:00:00","51","ND","ND","ND","ND","ND","ND","ND","ND","ND","ND","0"],
    [42756,"2015-03-23T07:00:00","52","ND","ND","ND","ND","ND","ND","ND","ND","ND","ND","0"],
    [42757,"2015-03-23T08:00:00","51","ND","ND","ND","ND","ND","ND","ND","ND","ND","ND","0"],
    [42758,"2015-03-23T09:00:00","50","ND","ND","ND","ND","ND","ND","ND","ND","ND","ND","0"],
    [42759,"2015-03-23T10:00:00","41","ND","ND","ND","ND","ND","ND","ND","ND","ND","ND","0"],
    [42760,"2015-03-23T11:00:00","33","ND","ND","ND","ND","ND","ND","ND","ND","ND","ND","0"],
    [42761,"2015-03-23T12:00:00","19","ND","ND","ND","ND","ND","ND","ND","ND","ND","ND","0"],
    [42762,"2015-03-23T13:00:00","28","ND","ND","ND","ND","ND","ND","ND","ND","ND","ND","0"],
    [42763,"2015-03-23T14:00:00","35","ND","ND","ND","ND","ND","ND","ND","ND","ND","ND","0"],
    [42764,"2015-03-23T15:00:00","27","ND","ND","ND","ND","ND","ND","ND","ND","ND","ND","0"],
    [42765,"2015-03-23T16:00:00","15","ND","ND","ND","ND","ND","ND","ND","ND","ND","ND","0"],
    [42766,"2015-03-23T17:00:00","17","ND","ND","ND","ND","ND","ND","ND","ND","ND","ND","0"],
    [42767,"2015-03-23T18:00:00","26","ND","ND","ND","ND","ND","ND","ND","ND","ND","ND","0"],
    [42768,"2015-03-23T19:00:00","30","ND","ND","ND","ND","ND","ND","ND","ND","ND","ND","0"],
    [42769,"2015-03-23T20:00:00","27","ND","ND","ND","ND","ND","ND","ND","ND","ND","ND","0"],
    [42770,"2015-03-23T21:00:00","26","ND","ND","ND","ND","ND","ND","ND","ND","ND","ND","0"],
    [42771,"2015-03-23T22:00:00","26","ND","ND","ND","ND","ND","ND","ND","ND","ND","ND","0"],
    [42772,"2015-03-23T23:00:00","37","ND","ND","ND","ND","ND","ND","ND","ND","ND","ND","0"],
    [42773,"2015-03-24T00:00:00","45","ND","ND","ND","ND","ND","ND","ND","ND","ND","ND","0"],
    [42774,"2015-03-24T01:00:00","47","ND","ND","ND","ND","ND","ND","ND","ND","ND","ND","0"],
    [42775,"2015-03-24T02:00:00","45","ND","ND","ND","ND","ND","ND","ND","ND","ND","ND","0"],
    [42776,"2015-03-24T03:00:00","41","ND","ND","ND","ND","ND","ND","ND","ND","ND","ND","0"],
    [42777,"2015-03-24T04:00:00","42","ND","ND","ND","ND","ND","ND","ND","ND","ND","ND","0"],
    [42778,"2015-03-24T05:00:00","38","ND","ND","ND","ND","ND","ND","ND","ND","ND","ND","0"],
    [42779,"2015-03-24T06:00:00","48","ND","ND","ND","ND","ND","ND","ND","ND","ND","ND","0"],
    [42780,"2015-03-24T07:00:00","70","ND","ND","ND","ND","ND","ND","ND","ND","ND","ND","0"],
    [42781,"2015-03-24T08:00:00","93","ND","ND","ND","ND","ND","ND","ND","ND","ND","ND","0"],
    [42782,"2015-03-24T09:00:00","82","ND","ND","ND","ND","ND","ND","ND","ND","ND","ND","0"],
    [42783,"2015-03-24T10:00:00","40","ND","ND","ND","ND","ND","ND","ND","ND","ND","ND","0"],
    [42784,"2015-03-24T11:00:00","29","ND","ND","ND","ND","ND","ND","ND","ND","ND","ND","0"],
    [42785,"2015-03-24T12:00:00","33","ND","ND","ND","ND","ND","ND","ND","ND","ND","ND","0"],
    [42786,"2015-03-24T13:00:00","32","ND","ND","ND","ND","ND","ND","ND","ND","ND","ND","0"],
    [42787,"2015-03-24T14:00:00","40","ND","ND","ND","ND","ND","ND","ND","ND","ND","ND","0"],
    [42788,"2015-03-24T15:00:00","43","ND","ND","ND","ND","ND","ND","ND","ND","ND","ND","0"],
    [42789,"2015-03-24T16:00:00","34","ND","ND","ND","ND","ND","ND","ND","ND","ND","ND","0"],
    [42790,"2015-03-24T17:00:00","31","ND","ND","ND","ND","ND","ND","ND","ND","ND","ND","0"],
    [42791,"2015-03-24T18:00:00","28","ND","ND","ND","ND","ND","ND","ND","ND","ND","ND","0"],
    [42792,"2015-03-24T19:00:00","46","ND","ND","ND","ND","ND","ND","ND","ND","ND","ND","0"],
    [42793,"2015-03-24T20:00:00","48","ND","ND","ND","ND","ND","ND","ND","ND","ND","ND","0"],
    [42794,"2015-03-24T21:00:00","53","ND","ND","ND","ND","ND","ND","ND","ND","ND","ND","0"],
    [42795,"2015-03-24T22:00:00","43","ND","ND","ND","ND","ND","ND","ND","ND","ND","ND","0"],
    [42796,"2015-03-24T23:00:00","32","ND","ND","ND","ND","ND","ND","ND","ND","ND","ND","0"],
    [42797,"2015-03-25T00:00:00","38","ND","ND","ND","ND","ND","ND","ND","ND","ND","ND","0"],
    [42798,"2015-03-25T01:00:00","49","ND","ND","ND","ND","ND","ND","ND","ND","ND","ND","0"],
    [42799,"2015-03-25T02:00:00","23","ND","ND","ND","ND","ND","ND","ND","ND","ND","ND","0"],
    [42800,"2015-03-25T03:00:00","28","ND","ND","ND","ND","ND","ND","ND","ND","ND","ND","0"],
    [42801,"2015-03-25T04:00:00","29","ND","ND","ND","ND","ND","ND","ND","ND","ND","ND","0"],
    [42802,"2015-03-25T05:00:00","24","ND","ND","ND","ND","ND","ND","ND","ND","ND","ND","0"],
    [42803,"2015-03-25T06:00:00","74","ND","ND","ND","ND","ND","ND","ND","ND","ND","ND","0"],
    [42804,"2015-03-25T07:00:00","83","ND","ND","ND","ND","ND","ND","ND","ND","ND","ND","0"],
    [42805,"2015-03-25T08:00:00","69","ND","ND","ND","ND","ND","ND","ND","ND","ND","ND","0"],
    [42806,"2015-03-25T09:00:00","72","ND","ND","ND","ND","ND","ND","ND","ND","ND","ND","0"],
    [42807,"2015-03-25T10:00:00","60","ND","ND","ND","ND","ND","ND","ND","ND","ND","ND","0"],
    [42808,"2015-03-25T11:00:00","42","ND","ND","ND","ND","ND","ND","ND","ND","ND","ND","0"],
    [42809,"2015-03-25T12:00:00","53","ND","ND","ND","ND","ND","ND","ND","ND","ND","ND","0"],
    [42810,"2015-03-25T13:00:00","48","ND","ND","ND","ND","ND","ND","ND","ND","ND","ND","0"],
    [42811,"2015-03-25T14:00:00","26","ND","ND","ND","ND","ND","ND","ND","ND","ND","ND","0"],
    [42812,"2015-03-25T15:00:00","27","ND","ND","ND","ND","ND","ND","ND","ND","ND","ND","0"],
    [42813,"2015-03-25T16:00:00","18","ND","ND","ND","ND","ND","ND","ND","ND","ND","ND","0"],
    [42814,"2015-03-25T17:00:00","16","ND","ND","ND","ND","ND","ND","ND","ND","ND","ND","0"],
    [42815,"2015-03-25T18:00:00","34","ND","ND","ND","ND","ND","ND","ND","ND","ND","ND","0"],
    [42816,"2015-03-25T19:00:00","44","ND","ND","ND","ND","ND","ND","ND","ND","ND","ND","0"],
    [42817,"2015-03-25T20:00:00","41","ND","ND","ND","ND","ND","ND","ND","ND","ND","ND","6.6"],
    [42818,"2015-03-25T21:00:00","17","ND","ND","ND","ND","ND","ND","ND","ND","ND","ND","0.25"],
    [42819,"2015-03-25T22:00:00","29","ND","ND","ND","ND","ND","ND","ND","ND","ND","ND","0.25"],
    [42820,"2015-03-25T23:00:00","38","ND","ND","ND","ND","ND","ND","ND","ND","ND","ND","0"],
    [42821,"2015-03-26T00:00:00","31","ND","ND","ND","ND","ND","ND","ND","ND","ND","ND","0"],
    [42822,"2015-03-26T01:00:00","25","ND","ND","ND","ND","ND","ND","ND","ND","ND","ND","0"],
    [42823,"2015-03-26T02:00:00","27","ND","ND","ND","ND","ND","ND","ND","ND","ND","ND","0"],
    [42824,"2015-03-26T03:00:00","31","ND","ND","ND","ND","ND","ND","ND","ND","ND","ND","0"],
    [42825,"2015-03-26T04:00:00","34","ND","ND","ND","ND","ND","ND","ND","ND","ND","ND","0"],
    [42826,"2015-03-26T05:00:00","45","ND","ND","ND","ND","ND","ND","ND","ND","ND","ND","0.25"],
    [42827,"2015-03-26T06:00:00","37","ND","ND","ND","ND","ND","ND","ND","ND","ND","ND","0"],
    [42828,"2015-03-26T07:00:00","40","ND","ND","ND","ND","ND","ND","ND","ND","ND","ND","0"],
    [42829,"2015-03-26T08:00:00","59","ND","ND","ND","ND","ND","ND","ND","ND","ND","ND","0"],
    [42830,"2015-03-26T09:00:00","66","ND","ND","ND","ND","ND","ND","ND","ND","ND","ND","0"],
    [42831,"2015-03-26T10:00:00","30","ND","ND","ND","ND","ND","ND","ND","ND","ND","ND","0"],
    [42832,"2015-03-26T11:00:00","26","ND","ND","ND","ND","ND","ND","ND","ND","ND","ND","0"],
    [42833,"2015-03-26T12:00:00","34","ND","ND","ND","ND","ND","ND","ND","ND","ND","ND","0"],
    [42834,"2015-03-26T13:00:00","24","ND","ND","ND","ND","ND","ND","ND","ND","ND","ND","0"],
    [42835,"2015-03-26T14:00:00","37","ND","ND","ND","ND","ND","ND","ND","ND","ND","ND","0"],
    [42836,"2015-03-26T15:00:00","27","ND","ND","ND","ND","ND","ND","ND","ND","ND","ND","0"],
    [42837,"2015-03-26T16:00:00","19","ND","ND","ND","ND","ND","ND","ND","ND","ND","ND","0"],
    [42838,"2015-03-26T17:00:00","25","ND","ND","ND","ND","ND","ND","ND","ND","ND","ND","0"],
    [42839,"2015-03-26T18:00:00","25","ND","ND","ND","ND","ND","ND","ND","ND","ND","ND","0"],
    [42840,"2015-03-26T19:00:00","35","ND","ND","ND","ND","ND","ND","ND","ND","ND","ND","0"],
    [42841,"2015-03-26T20:00:00","59","ND","ND","ND","ND","ND","ND","ND","ND","ND","ND","0"],
    [42842,"2015-03-26T21:00:00","71","ND","ND","ND","ND","ND","ND","ND","ND","ND","ND","0"],
    [42843,"2015-03-26T22:00:00","35","ND","ND","ND","ND","ND","ND","ND","ND","ND","ND","0"],
    [42844,"2015-03-26T23:00:00","29","ND","ND","ND","ND","ND","ND","ND","ND","ND","ND","0"],
    [42845,"2015-03-27T00:00:00","30","ND","ND","ND","ND","ND","ND","ND","ND","ND","ND","0"],
    [42846,"2015-03-27T01:00:00","49","ND","ND","ND","ND","ND","ND","ND","ND","ND","ND","0"],
    [42847,"2015-03-27T02:00:00","45","ND","ND","ND","ND","ND","ND","ND","ND","ND","ND","0"],
    [42848,"2015-03-27T03:00:00","53","ND","ND","ND","ND","ND","ND","ND","ND","ND","ND","0"],
    [42849,"2015-03-27T04:00:00","74","ND","ND","ND","ND","ND","ND","ND","ND","ND","ND","0"],
    [42850,"2015-03-27T05:00:00","51","ND","ND","ND","ND","ND","ND","ND","ND","ND","ND","0"],
    [42851,"2015-03-27T06:00:00","46","ND","ND","ND","ND","ND","ND","ND","ND","ND","ND","0"],
    [42852,"2015-03-27T07:00:00","58","ND","ND","ND","ND","ND","ND","ND","ND","ND","ND","0"],
    [42853,"2015-03-27T08:00:00","78","ND","ND","ND","ND","ND","ND","ND","ND","ND","ND","0"],
    [42854,"2015-03-27T09:00:00","101","ND","ND","ND","ND","ND","ND","ND","ND","ND","ND","0"],
    [42855,"2015-03-27T10:00:00","79","ND","ND","ND","ND","ND","ND","ND","ND","ND","ND","0"],
    [42856,"2015-03-27T11:00:00","62","ND","ND","ND","ND","ND","ND","ND","ND","ND","ND","0"],
    [42857,"2015-03-27T12:00:00","45","ND","ND","ND","ND","ND","ND","ND","ND","ND","ND","0"],
    [42858,"2015-03-27T13:00:00","45","ND","ND","ND","ND","ND","ND","ND","ND","ND","ND","0"],
    [42859,"2015-03-27T14:00:00","53","ND","ND","ND","ND","ND","ND","ND","ND","ND","ND","0"],
    [42860,"2015-03-27T15:00:00","55","ND","ND","ND","ND","ND","ND","ND","ND","ND","ND","0"],
    [42861,"2015-03-27T16:00:00","44","ND","ND","ND","ND","ND","ND","ND","ND","ND","ND","0"],
    [42862,"2015-03-27T17:00:00","24","ND","ND","ND","ND","ND","ND","ND","ND","ND","ND","0"],
    [42863,"2015-03-27T18:00:00","35","ND","ND","ND","ND","ND","ND","ND","ND","ND","ND","0"],
    [42864,"2015-03-27T19:00:00","38","ND","ND","ND","ND","ND","ND","ND","ND","ND","ND","0"],
    [42865,"2015-03-27T20:00:00","68","ND","ND","ND","ND","ND","ND","ND","ND","ND","ND","0"],
    [42866,"2015-03-27T21:00:00","57","ND","ND","ND","ND","ND","ND","ND","ND","ND","ND","0"],
    [42867,"2015-03-27T22:00:00","56","ND","ND","ND","ND","ND","ND","ND","ND","ND","ND","0"],
    [42868,"2015-03-27T23:00:00","48","ND","ND","ND","ND","ND","ND","ND","ND","ND","ND","0"],
    [42869,"2015-03-28T00:00:00","50","ND","ND","ND","ND","ND","ND","ND","ND","ND","ND","0"],
    [42870,"2015-03-28T01:00:00","22","ND","ND","ND","ND","ND","ND","ND","ND","ND","ND","0"],
    [42871,"2015-03-28T02:00:00","40","ND","ND","ND","ND","ND","ND","ND","ND","ND","ND","0"],
    [42872,"2015-03-28T03:00:00","44","ND","ND","ND","ND","ND","ND","ND","ND","ND","ND","0"],
    [42873,"2015-03-28T04:00:00","59","ND","ND","ND","ND","ND","ND","ND","ND","ND","ND","0"],
    [42874,"2015-03-28T05:00:00","46","ND","ND","ND","ND","ND","ND","ND","ND","ND","ND","0"],
    [42875,"2015-03-28T06:00:00","47","ND","ND","ND","ND","ND","ND","ND","ND","ND","ND","0"],
    [42876,"2015-03-28T07:00:00","58","ND","ND","ND","ND","ND","ND","ND","ND","ND","ND","0"],
    [42877,"2015-03-28T08:00:00","107","ND","ND","ND","ND","ND","ND","ND","ND","ND","ND","0"],
    [42878,"2015-03-28T09:00:00","68","ND","ND","ND","ND","ND","ND","ND","ND","ND","ND","0"],
    [42879,"2015-03-28T10:00:00","36","ND","ND","ND","ND","ND","ND","ND","ND","ND","ND","0"],
    [42880,"2015-03-28T11:00:00","31","ND","ND","ND","ND","ND","ND","ND","ND","ND","ND","0"],
    [42881,"2015-03-28T12:00:00","41","ND","ND","ND","ND","ND","ND","ND","ND","ND","ND","0"],
    [42882,"2015-03-28T13:00:00","48","ND","ND","ND","ND","ND","ND","ND","ND","ND","ND","0"],
    [42883,"2015-03-28T14:00:00","40","ND","ND","ND","ND","ND","ND","ND","ND","ND","ND","2.29"],
    [42884,"2015-03-28T15:00:00","17","ND","ND","ND","ND","ND","ND","ND","ND","ND","ND","0"],
    [42885,"2015-03-28T16:00:00","3","ND","ND","ND","ND","ND","ND","ND","ND","ND","ND","0"],
    [42886,"2015-03-28T17:00:00","12","ND","ND","ND","ND","ND","ND","ND","ND","ND","ND","0"],
    [42887,"2015-03-28T18:00:00","24","ND","ND","ND","ND","ND","ND","ND","ND","ND","ND","0"],
    [42888,"2015-03-28T19:00:00","28","ND","ND","ND","ND","ND","ND","ND","ND","ND","ND","0"],
    [42889,"2015-03-28T20:00:00","38","ND","ND","ND","ND","ND","ND","ND","ND","ND","ND","0"],
    [42890,"2015-03-28T21:00:00","21","ND","ND","ND","ND","ND","ND","ND","ND","ND","ND","0"],
    [42891,"2015-03-28T22:00:00","16","ND","ND","ND","ND","ND","ND","ND","ND","ND","ND","0"],
    [42892,"2015-03-28T23:00:00","8","ND","ND","ND","ND","ND","ND","ND","ND","ND","ND","0"],
    [42893,"2015-03-29T00:00:00","20","ND","ND","ND","ND","ND","ND","ND","ND","ND","ND","0"],
    [42894,"2015-03-29T01:00:00","31","ND","ND","ND","ND","ND","ND","ND","ND","ND","ND","0"],
    [42895,"2015-03-29T02:00:00","34","ND","ND","ND","ND","ND","ND","ND","ND","ND","ND","0"],
    [42896,"2015-03-29T03:00:00","22","ND","ND","ND","ND","ND","ND","ND","ND","ND","ND","0"],
    [42897,"2015-03-29T04:00:00","23","ND","ND","ND","ND","ND","ND","ND","ND","ND","ND","0"],
    [42898,"2015-03-29T05:00:00","20","ND","ND","ND","ND","ND","ND","ND","ND","ND","ND","2.54"],
    [42899,"2015-03-29T06:00:00","16","ND","ND","ND","ND","ND","ND","ND","ND","ND","ND","2.79"],
    [42900,"2015-03-29T07:00:00","13","ND","ND","ND","ND","ND","ND","ND","ND","ND","ND","1.27"],
    [42901,"2015-03-29T08:00:00","19","ND","ND","ND","ND","ND","ND","ND","ND","ND","ND","0.76"],
    [42902,"2015-03-29T09:00:00","ND","ND","ND","ND","ND","ND","ND","ND","ND","ND","ND","2.29"],
    [42903,"2015-03-29T10:00:00","9","ND","ND","ND","ND","ND","ND","ND","ND","ND","ND","0.25"],
    [42904,"2015-03-29T11:00:00","14","ND","ND","ND","ND","ND","ND","ND","ND","ND","ND","0"],
    [42905,"2015-03-29T12:00:00","26","ND","ND","ND","ND","ND","ND","ND","ND","ND","ND","0"],
    [42906,"2015-03-29T13:00:00","2","ND","ND","ND","ND","ND","ND","ND","ND","ND","ND","0"],
    [42907,"2015-03-29T14:00:00","7","ND","ND","ND","ND","ND","ND","ND","ND","ND","ND","0"],
    [42908,"2015-03-29T15:00:00","16","ND","ND","ND","ND","ND","ND","ND","ND","ND","ND","0"],
    [42909,"2015-03-29T16:00:00","23","ND","ND","ND","ND","ND","ND","ND","ND","ND","ND","0"],
    [42910,"2015-03-29T17:00:00","13","ND","ND","ND","ND","ND","ND","ND","ND","ND","ND","0"],
    [42911,"2015-03-29T18:00:00","19","ND","ND","ND","ND","ND","ND","ND","ND","ND","ND","0"],
    [42912,"2015-03-29T19:00:00","29","ND","ND","ND","ND","ND","ND","ND","ND","ND","ND","0"],
    [42913,"2015-03-29T20:00:00","27","ND","ND","ND","ND","ND","ND","ND","ND","ND","ND","0"],
    [42914,"2015-03-29T21:00:00","34","ND","ND","ND","ND","ND","ND","ND","ND","ND","ND","0"],
    [42915,"2015-03-29T22:00:00","25","ND","ND","ND","ND","ND","ND","ND","ND","ND","ND","0"],
    [42916,"2015-03-29T23:00:00","35","ND","ND","ND","ND","ND","ND","ND","ND","ND","ND","0"],
    [42917,"2015-03-30T00:00:00","46","ND","ND","ND","ND","ND","ND","ND","ND","ND","ND","0"],
    [42918,"2015-03-30T01:00:00","36","ND","ND","ND","ND","ND","ND","ND","ND","ND","ND","0"],
    [42919,"2015-03-30T02:00:00","47","ND","ND","ND","ND","ND","ND","ND","ND","ND","ND","0"],
    [42920,"2015-03-30T03:00:00","38","ND","ND","ND","ND","ND","ND","ND","ND","ND","ND","0"],
    [42921,"2015-03-30T04:00:00","35","ND","ND","ND","ND","ND","ND","ND","ND","ND","ND","0"],
    [42922,"2015-03-30T05:00:00","36","ND","ND","ND","ND","ND","ND","ND","ND","ND","ND","0"],
    [42923,"2015-03-30T06:00:00","39","ND","ND","ND","ND","ND","ND","ND","ND","ND","ND","0"],
    [42924,"2015-03-30T07:00:00","42","ND","ND","ND","ND","ND","ND","ND","ND","ND","ND","0"],
    [42925,"2015-03-30T08:00:00","44","ND","ND","ND","ND","ND","ND","ND","ND","ND","ND","0"],
    [42926,"2015-03-30T09:00:00","59","ND","ND","ND","ND","ND","ND","ND","ND","ND","ND","0"],
    [42927,"2015-03-30T10:00:00","40","ND","ND","ND","ND","ND","ND","ND","ND","ND","ND","0"],
    [42928,"2015-03-30T11:00:00","37","ND","ND","ND","ND","ND","ND","ND","ND","ND","ND","0"],
    [42929,"2015-03-30T12:00:00","43","ND","ND","ND","ND","ND","ND","ND","ND","ND","ND","0"],
    [42930,"2015-03-30T13:00:00","38","ND","ND","ND","ND","ND","ND","ND","ND","ND","ND","0"],
    [42931,"2015-03-30T14:00:00","39","ND","ND","ND","ND","ND","ND","ND","ND","ND","ND","0"],
    [42932,"2015-03-30T15:00:00","24","ND","ND","ND","ND","ND","ND","ND","ND","ND","ND","29.97"],
    [42933,"2015-03-30T16:00:00","27","ND","ND","ND","ND","ND","ND","ND","ND","ND","ND","5.33"],
    [42934,"2015-03-30T17:00:00","34","ND","ND","ND","ND","ND","ND","ND","ND","ND","ND","0.76"],
    [42935,"2015-03-30T18:00:00","42","ND","ND","ND","ND","ND","ND","ND","ND","ND","ND","1.52"],
    [42936,"2015-03-30T19:00:00","35","ND","ND","ND","ND","ND","ND","ND","ND","ND","ND","0.25"],
    [42937,"2015-03-30T20:00:00","36","ND","ND","ND","ND","ND","ND","ND","ND","ND","ND","0"],
    [42938,"2015-03-30T21:00:00","32","ND","ND","ND","ND","ND","ND","ND","ND","ND","ND","0"],
    [42939,"2015-03-30T22:00:00","51","ND","ND","ND","ND","ND","ND","ND","ND","ND","ND","0"],
    [42940,"2015-03-30T23:00:00","39","ND","ND","ND","ND","ND","ND","ND","ND","ND","ND","0"],
    [42941,"2015-03-31T00:00:00","62","ND","ND","ND","ND","ND","ND","ND","ND","ND","ND","0"],
    [42942,"2015-03-31T01:00:00","59","ND","ND","ND","ND","ND","ND","ND","ND","ND","ND","0"],
    [42943,"2015-03-31T02:00:00","58","ND","ND","ND","ND","ND","ND","ND","ND","ND","ND","0"],
    [42944,"2015-03-31T03:00:00","38","ND","ND","ND","ND","ND","ND","ND","ND","ND","ND","0"],
    [42945,"2015-03-31T04:00:00","35","ND","ND","ND","ND","ND","ND","ND","ND","ND","ND","0"],
    [42946,"2015-03-31T05:00:00","33","ND","ND","ND","ND","ND","ND","ND","ND","ND","ND","0"],
    [42947,"2015-03-31T06:00:00","37","ND","ND","ND","ND","ND","ND","ND","ND","ND","ND","0"],
    [42948,"2015-03-31T07:00:00","104","ND","ND","ND","ND","ND","ND","ND","ND","ND","ND","0"],
    [42949,"2015-03-31T08:00:00","97","ND","ND","ND","ND","ND","ND","ND","ND","ND","ND","0"],
    [42950,"2015-03-31T09:00:00","101","ND","ND","ND","ND","ND","ND","ND","ND","ND","ND","0"],
    [42951,"2015-03-31T10:00:00","58","ND","ND","ND","ND","ND","ND","ND","ND","ND","ND","0"],
    [42952,"2015-03-31T11:00:00","41","ND","ND","ND","ND","ND","ND","ND","ND","ND","ND","0"],
    [42953,"2015-03-31T12:00:00","33","ND","ND","ND","ND","ND","ND","ND","ND","ND","ND","0"],
    [42954,"2015-03-31T13:00:00","31","ND","ND","ND","ND","ND","ND","ND","ND","ND","ND","0"],
    [42955,"2015-03-31T14:00:00","36","ND","ND","ND","ND","ND","ND","ND","ND","ND","ND","0"],
    [42956,"2015-03-31T15:00:00","38","ND","ND","ND","ND","ND","ND","ND","ND","ND","ND","0"],
    [42957,"2015-03-31T16:00:00","45","ND","ND","ND","ND","ND","ND","ND","ND","ND","ND","0"],
    [42958,"2015-03-31T17:00:00","35","ND","ND","ND","ND","ND","ND","ND","ND","ND","ND","0"],
    [42959,"2015-03-31T18:00:00","31","ND","ND","ND","ND","ND","ND","ND","ND","ND","ND","0"],
    [42960,"2015-03-31T19:00:00","42","ND","ND","ND","ND","ND","ND","ND","ND","ND","ND","0"],
    [42961,"2015-03-31T20:00:00","51","ND","ND","ND","ND","ND","ND","ND","ND","ND","ND","0"],
    [42962,"2015-03-31T21:00:00","56","ND","ND","ND","ND","ND","ND","ND","ND","ND","ND","0"],
    [42963,"2015-03-31T22:00:00","56","ND","ND","ND","ND","ND","ND","ND","ND","ND","ND","0"],
    [42964,"2015-03-31T23:00:00","63","ND","ND","ND","ND","ND","ND","ND","ND","ND","ND","0"],
    [42965,"2015-04-01T00:00:00","65","ND","ND","ND","ND","ND","ND","ND","ND","ND","ND","0"],
    [42966,"2015-04-01T01:00:00","59","ND","ND","ND","ND","ND","ND","ND","ND","ND","ND","0"],
    [42967,"2015-04-01T02:00:00","42","ND","ND","ND","ND","ND","ND","ND","ND","ND","ND","0"],
    [42968,"2015-04-01T03:00:00","26","ND","ND","ND","ND","ND","ND","ND","ND","ND","ND","0"],
    [42969,"2015-04-01T04:00:00","49","ND","ND","ND","ND","ND","ND","ND","ND","ND","ND","0"],
    [42970,"2015-04-01T05:00:00","45","ND","ND","ND","ND","ND","ND","ND","ND","ND","ND","0"],
    [42971,"2015-04-01T06:00:00","44","ND","ND","ND","ND","ND","ND","ND","ND","ND","ND","0"],
    [42972,"2015-04-01T07:00:00","67","ND","ND","ND","ND","ND","ND","ND","ND","ND","ND","0"],
    [42973,"2015-04-01T08:00:00","104","ND","ND","ND","ND","ND","ND","ND","ND","ND","ND","0"],
    [42974,"2015-04-01T09:00:00","73","ND","ND","ND","ND","ND","ND","ND","ND","ND","ND","0"],
    [42975,"2015-04-01T10:00:00","31","ND","ND","ND","ND","ND","ND","ND","ND","ND","ND","0"],
    [42976,"2015-04-01T11:00:00","33","ND","ND","ND","ND","ND","ND","ND","ND","ND","ND","0"],
    [42977,"2015-04-01T12:00:00","29","ND","ND","ND","ND","ND","ND","ND","ND","ND","ND","0"],
    [42978,"2015-04-01T13:00:00","43","ND","ND","ND","ND","ND","ND","ND","ND","ND","ND","0"],
    [42979,"2015-04-01T14:00:00","26","ND","ND","ND","ND","ND","ND","ND","ND","ND","ND","0"],
    [42980,"2015-04-01T15:00:00","29","ND","ND","ND","ND","ND","ND","ND","ND","ND","ND","0"],
    [42981,"2015-04-01T16:00:00","21","ND","ND","ND","ND","ND","ND","ND","ND","ND","ND","0"],
    [42982,"2015-04-01T17:00:00","13","ND","ND","ND","ND","ND","ND","ND","ND","ND","ND","0"],
    [42983,"2015-04-01T18:00:00","28","ND","ND","ND","ND","ND","ND","ND","ND","ND","ND","0"],
    [42984,"2015-04-01T19:00:00","ND","ND","ND","ND","ND","ND","ND","ND","ND","ND","ND","0"],
    [42985,"2015-04-01T20:00:00","29","ND","ND","ND","ND","ND","ND","ND","ND","ND","ND","0"],
    [42986,"2015-04-01T21:00:00","17","ND","ND","ND","ND","ND","ND","ND","ND","ND","ND","0"],
    [42987,"2015-04-01T22:00:00","10","ND","ND","ND","ND","ND","ND","ND","ND","ND","ND","0"],
    [42988,"2015-04-01T23:00:00","17","ND","ND","ND","ND","ND","ND","ND","ND","ND","ND","0"],
    [42989,"2015-04-02T00:00:00","25","ND","ND","ND","ND","ND","ND","ND","ND","ND","ND","0"],
    [42990,"2015-04-02T01:00:00","13","ND","ND","ND","ND","ND","ND","ND","ND","ND","ND","0"],
    [42991,"2015-04-02T02:00:00","27","ND","ND","ND","ND","ND","ND","ND","ND","ND","ND","0"],
    [42992,"2015-04-02T03:00:00","26","ND","ND","ND","ND","ND","ND","ND","ND","ND","ND","0"],
    [42993,"2015-04-02T04:00:00","32","ND","ND","ND","ND","ND","ND","ND","ND","ND","ND","0"],
    [42994,"2015-04-02T05:00:00","34","ND","ND","ND","ND","ND","ND","ND","ND","ND","ND","0"],
    [42995,"2015-04-02T06:00:00","41","ND","ND","ND","ND","ND","ND","ND","ND","ND","ND","0"],
    [42996,"2015-04-02T07:00:00","45","ND","ND","ND","ND","ND","ND","ND","ND","ND","ND","0"],
    [42997,"2015-04-02T08:00:00","31","ND","ND","ND","ND","ND","ND","ND","ND","ND","ND","0"],
    [42998,"2015-04-02T09:00:00","50","ND","ND","ND","ND","ND","ND","ND","ND","ND","ND","0"],
    [42999,"2015-04-02T10:00:00","45","ND","ND","ND","ND","ND","ND","ND","ND","ND","ND","0"],
    [43000,"2015-04-02T11:00:00","30","ND","ND","ND","ND","ND","ND","ND","ND","ND","ND","0"],
    [43001,"2015-04-02T12:00:00","29","ND","ND","ND","ND","ND","ND","ND","ND","ND","ND","0"],
    [43002,"2015-04-02T13:00:00","21","ND","ND","ND","ND","ND","ND","ND","ND","ND","ND","0"],
    [43003,"2015-04-02T14:00:00","23","ND","ND","ND","ND","ND","ND","ND","ND","ND","ND","0"],
    [43004,"2015-04-02T15:00:00","16","ND","ND","ND","ND","ND","ND","ND","ND","ND","ND","0"],
    [43005,"2015-04-02T16:00:00","15","ND","ND","ND","ND","ND","ND","ND","ND","ND","ND","0"],
    [43006,"2015-04-02T17:00:00","17","ND","ND","ND","ND","ND","ND","ND","ND","ND","ND","0"],
    [43007,"2015-04-02T18:00:00","21","ND","ND","ND","ND","ND","ND","ND","ND","ND","ND","0"],
    [43008,"2015-04-02T19:00:00","17","ND","ND","ND","ND","ND","ND","ND","ND","ND","ND","0"],
    [43009,"2015-04-02T20:00:00","18","ND","ND","ND","ND","ND","ND","ND","ND","ND","ND","0"],
    [43010,"2015-04-02T21:00:00","32","ND","ND","ND","ND","ND","ND","ND","ND","ND","ND","0"],
    [43011,"2015-04-02T22:00:00","24","ND","ND","ND","ND","ND","ND","ND","ND","ND","ND","0"],
    [43012,"2015-04-02T23:00:00","29","ND","ND","ND","ND","ND","ND","ND","ND","ND","ND","0"],
    [43013,"2015-04-03T00:00:00","50","ND","ND","ND","ND","ND","ND","ND","ND","ND","ND","0"],
    [43014,"2015-04-03T01:00:00","48","ND","ND","ND","ND","ND","ND","ND","ND","ND","ND","0"],
    [43015,"2015-04-03T02:00:00","29","ND","ND","ND","ND","ND","ND","ND","ND","ND","ND","0"],
    [43016,"2015-04-03T03:00:00","27","ND","ND","ND","ND","ND","ND","ND","ND","ND","ND","0"],
    [43017,"2015-04-03T04:00:00","27","ND","ND","ND","ND","ND","ND","ND","ND","ND","ND","0"],
    [43018,"2015-04-03T05:00:00","19","ND","ND","ND","ND","ND","ND","ND","ND","ND","ND","0"],
    [43019,"2015-04-03T06:00:00","25","ND","ND","ND","ND","ND","ND","ND","ND","ND","ND","0"],
    [43020,"2015-04-03T07:00:00","31","ND","ND","ND","ND","ND","ND","ND","ND","ND","ND","0"],
    [43021,"2015-04-03T08:00:00","31","ND","ND","ND","ND","ND","ND","ND","ND","ND","ND","0"],
    [43022,"2015-04-03T09:00:00","18","ND","ND","ND","ND","ND","ND","ND","ND","ND","ND","0"],
    [43023,"2015-04-03T10:00:00","28","ND","ND","ND","ND","ND","ND","ND","ND","ND","ND","0"],
    [43024,"2015-04-03T11:00:00","40","ND","ND","ND","ND","ND","ND","ND","ND","ND","ND","0"],
    [43025,"2015-04-03T12:00:00","26","ND","ND","ND","ND","ND","ND","ND","ND","ND","ND","0"],
    [43026,"2015-04-03T13:00:00","27","ND","ND","ND","ND","ND","ND","ND","ND","ND","ND","0"],
    [43027,"2015-04-03T14:00:00","37","ND","ND","ND","ND","ND","ND","ND","ND","ND","ND","0"],
    [43028,"2015-04-03T15:00:00","18","ND","ND","ND","ND","ND","ND","ND","ND","ND","ND","0"],
    [43029,"2015-04-03T16:00:00","30","ND","ND","ND","ND","ND","ND","ND","ND","ND","ND","0"],
    [43030,"2015-04-03T17:00:00","17","ND","ND","ND","ND","ND","ND","ND","ND","ND","ND","0"],
    [43031,"2015-04-03T18:00:00","4","ND","ND","ND","ND","ND","ND","ND","ND","ND","ND","1.02"],
    [43032,"2015-04-03T19:00:00","6","ND","ND","ND","ND","ND","ND","ND","ND","ND","ND","1.02"],
    [43033,"2015-04-03T20:00:00","13","ND","ND","ND","ND","ND","ND","ND","ND","ND","ND","1.52"],
    [43034,"2015-04-03T21:00:00","11","ND","ND","ND","ND","ND","ND","ND","ND","ND","ND","0.51"],
    [43035,"2015-04-03T22:00:00","10","ND","ND","ND","ND","ND","ND","ND","ND","ND","ND","0"],
    [43036,"2015-04-03T23:00:00","9","ND","ND","ND","ND","ND","ND","ND","ND","ND","ND","0"],
    [43037,"2015-04-04T00:00:00","12","ND","ND","ND","ND","ND","ND","ND","ND","ND","ND","0"],
    [43038,"2015-04-04T01:00:00","19","ND","ND","ND","ND","ND","ND","ND","ND","ND","ND","0"],
    [43039,"2015-04-04T02:00:00","15","ND","ND","ND","ND","ND","ND","ND","ND","ND","ND","0"],
    [43040,"2015-04-04T03:00:00","15","ND","ND","ND","ND","ND","ND","ND","ND","ND","ND","0"],
    [43041,"2015-04-04T04:00:00","15","ND","ND","ND","ND","ND","ND","ND","ND","ND","ND","0"],
    [43042,"2015-04-04T05:00:00","12","ND","ND","ND","ND","ND","ND","ND","ND","ND","ND","0"],
    [43043,"2015-04-04T06:00:00","20","ND","ND","ND","ND","ND","ND","ND","ND","ND","ND","0"],
    [43044,"2015-04-04T07:00:00","22","ND","ND","ND","ND","ND","ND","ND","ND","ND","ND","0"],
    [43045,"2015-04-04T08:00:00","38","ND","ND","ND","ND","ND","ND","ND","ND","ND","ND","0"],
    [43046,"2015-04-04T09:00:00","36","ND","ND","ND","ND","ND","ND","ND","ND","ND","ND","0"],
    [43047,"2015-04-04T10:00:00","29","ND","ND","ND","ND","ND","ND","ND","ND","ND","ND","0"],
    [43048,"2015-04-04T11:00:00","43","ND","ND","ND","ND","ND","ND","ND","ND","ND","ND","0"],
    [43049,"2015-04-04T12:00:00","43","ND","ND","ND","ND","ND","ND","ND","ND","ND","ND","0"],
    [43050,"2015-04-04T13:00:00","34","ND","ND","ND","ND","ND","ND","ND","ND","ND","ND","0"],
    [43051,"2015-04-04T14:00:00","28","ND","ND","ND","ND","ND","ND","ND","ND","ND","ND","0"],
    [43052,"2015-04-04T15:00:00","18","ND","ND","ND","ND","ND","ND","ND","ND","ND","ND","0"],
    [43053,"2015-04-04T16:00:00","13","ND","ND","ND","ND","ND","ND","ND","ND","ND","ND","0"],
    [43054,"2015-04-04T17:00:00","14","ND","ND","ND","ND","ND","ND","ND","ND","ND","ND","0"],
    [43055,"2015-04-04T18:00:00","24","ND","ND","ND","ND","ND","ND","ND","ND","ND","ND","0"],
    [43056,"2015-04-04T19:00:00","38","ND","ND","ND","ND","ND","ND","ND","ND","ND","ND","0"],
    [43057,"2015-04-04T20:00:00","40","ND","ND","ND","ND","ND","ND","ND","ND","ND","ND","0"],
    [43058,"2015-04-04T21:00:00","59","ND","ND","ND","ND","ND","ND","ND","ND","ND","ND","0"],
    [43059,"2015-04-04T22:00:00","50","ND","ND","ND","ND","ND","ND","ND","ND","ND","ND","0"],
    [43060,"2015-04-04T23:00:00","39","ND","ND","ND","ND","ND","ND","ND","ND","ND","ND","0"],
    [43061,"2015-04-05T00:00:00","22","ND","ND","ND","ND","ND","ND","ND","ND","ND","ND","0"],
    [43062,"2015-04-05T01:00:00","23","ND","ND","ND","ND","ND","ND","ND","ND","ND","ND","0"],
    [43063,"2015-04-05T02:00:00","25","ND","ND","ND","ND","ND","ND","ND","ND","ND","ND","0"],
    [43064,"2015-04-05T03:00:00","22","ND","ND","ND","ND","ND","ND","ND","ND","ND","ND","0"],
    [43065,"2015-04-05T04:00:00","24","ND","ND","ND","ND","ND","ND","ND","ND","ND","ND","0"],
    [43066,"2015-04-05T05:00:00","27","ND","ND","ND","ND","ND","ND","ND","ND","ND","ND","0"],
    [43067,"2015-04-05T06:00:00","30","ND","ND","ND","ND","ND","ND","ND","ND","ND","ND","0"],
    [43068,"2015-04-05T07:00:00","24","ND","ND","ND","ND","ND","ND","ND","ND","ND","ND","0"],
    [43069,"2015-04-05T08:00:00","35","ND","ND","ND","ND","ND","ND","ND","ND","ND","ND","0"],
    [43070,"2015-04-05T09:00:00","44","ND","ND","ND","ND","ND","ND","ND","ND","ND","ND","0"],
    [43071,"2015-04-05T10:00:00","30","ND","ND","ND","ND","ND","ND","ND","ND","ND","ND","0"],
    [43072,"2015-04-05T11:00:00","29","ND","ND","ND","ND","ND","ND","ND","ND","ND","ND","0"],
    [43073,"2015-04-05T12:00:00","36","ND","ND","ND","ND","ND","ND","ND","ND","ND","ND","0"],
    [43074,"2015-04-05T13:00:00","41","ND","ND","ND","ND","ND","ND","ND","ND","ND","ND","0"],
    [43075,"2015-04-05T14:00:00","36","ND","ND","ND","ND","ND","ND","ND","ND","ND","ND","0"],
    [43076,"2015-04-05T15:00:00","17","ND","ND","ND","ND","ND","ND","ND","ND","ND","ND","0"],
    [43077,"2015-04-05T16:00:00","12","ND","ND","ND","ND","ND","ND","ND","ND","ND","ND","0"],
    [43078,"2015-04-05T17:00:00","17","ND","ND","ND","ND","ND","ND","ND","ND","ND","ND","0"],
    [43079,"2015-04-05T18:00:00","18","ND","ND","ND","ND","ND","ND","ND","ND","ND","ND","0"],
    [43080,"2015-04-05T19:00:00","22","ND","ND","ND","ND","ND","ND","ND","ND","ND","ND","0"],
    [43081,"2015-04-05T20:00:00","34","ND","ND","ND","ND","ND","ND","ND","ND","ND","ND","0"],
    [43082,"2015-04-05T21:00:00","28","ND","ND","ND","ND","ND","ND","ND","ND","ND","ND","0"],
    [43083,"2015-04-05T22:00:00","27","ND","ND","ND","ND","ND","ND","ND","ND","ND","ND","0"],
    [43084,"2015-04-05T23:00:00","26","ND","ND","ND","ND","ND","ND","ND","ND","ND","ND","0"],
    [43085,"2015-04-06T00:00:00","23","ND","ND","ND","ND","ND","ND","ND","ND","ND","ND","0"],
    [43086,"2015-04-06T01:00:00","22","ND","ND","ND","ND","ND","ND","ND","ND","ND","ND","0"],
    [43087,"2015-04-06T02:00:00","35","ND","ND","ND","ND","ND","ND","ND","ND","ND","ND","0"],
    [43088,"2015-04-06T03:00:00","33","ND","ND","ND","ND","ND","ND","ND","ND","ND","ND","0"],
    [43089,"2015-04-06T04:00:00","31","ND","ND","ND","ND","ND","ND","ND","ND","ND","ND","0"],
    [43090,"2015-04-06T05:00:00","30","ND","ND","ND","ND","ND","ND","ND","ND","ND","ND","0"],
    [43091,"2015-04-06T06:00:00","60","ND","ND","ND","ND","ND","ND","ND","ND","ND","ND","0"],
    [43092,"2015-04-06T07:00:00","64","ND","ND","ND","ND","ND","ND","ND","ND","ND","ND","0"],
    [43093,"2015-04-06T08:00:00","78","ND","ND","ND","ND","ND","ND","ND","ND","ND","ND","0"],
    [43094,"2015-04-06T09:00:00","80","ND","ND","ND","ND","ND","ND","ND","ND","ND","ND","0"],
    [43095,"2015-04-06T10:00:00","49","ND","ND","ND","ND","ND","ND","ND","ND","ND","ND","0"],
    [43096,"2015-04-06T11:00:00","30","ND","ND","ND","ND","ND","ND","ND","ND","ND","ND","0"],
    [43097,"2015-04-06T12:00:00","38","ND","ND","ND","ND","ND","ND","ND","ND","ND","ND","0"],
    [43098,"2015-04-06T13:00:00","41","ND","ND","ND","ND","ND","ND","ND","ND","ND","ND","0"],
    [43099,"2015-04-06T14:00:00","51","ND","ND","ND","ND","ND","ND","ND","ND","ND","ND","0"],
    [43100,"2015-04-06T15:00:00","46","ND","ND","ND","ND","ND","ND","ND","ND","ND","ND","0"],
    [43101,"2015-04-06T16:00:00","53","ND","ND","ND","ND","ND","ND","ND","ND","ND","ND","0"],
    [43102,"2015-04-06T17:00:00","44","ND","ND","ND","ND","ND","ND","ND","ND","ND","ND","0"],
    [43103,"2015-04-06T18:00:00","40","ND","ND","ND","ND","ND","ND","ND","ND","ND","ND","0"],
    [43104,"2015-04-06T19:00:00","44","ND","ND","ND","ND","ND","ND","ND","ND","ND","ND","0"],
    [43105,"2015-04-06T20:00:00","70","ND","ND","ND","ND","ND","ND","ND","ND","ND","ND","0"],
    [43106,"2015-04-06T21:00:00","55","ND","ND","ND","ND","ND","ND","ND","ND","ND","ND","0"],
    [43107,"2015-04-06T22:00:00","55","ND","ND","ND","ND","ND","ND","ND","ND","ND","ND","0"],
    [43108,"2015-04-06T23:00:00","27","ND","ND","ND","ND","ND","ND","ND","ND","ND","ND","0"],
    [43109,"2015-04-07T00:00:00","32","ND","ND","ND","ND","ND","ND","ND","ND","ND","ND","0"],
    [43110,"2015-04-07T01:00:00","31","ND","ND","ND","ND","ND","ND","ND","ND","ND","ND","0"],
    [43111,"2015-04-07T02:00:00","33","ND","ND","ND","ND","ND","ND","ND","ND","ND","ND","0"],
    [43112,"2015-04-07T03:00:00","30","ND","ND","ND","ND","ND","ND","ND","ND","ND","ND","0"],
    [43113,"2015-04-07T04:00:00","25","ND","ND","ND","ND","ND","ND","ND","ND","ND","ND","0"],
    [43114,"2015-04-07T05:00:00","39","ND","ND","ND","ND","ND","ND","ND","ND","ND","ND","0"],
    [43115,"2015-04-07T06:00:00","26","ND","ND","ND","ND","ND","ND","ND","ND","ND","ND","0"],
    [43116,"2015-04-07T07:00:00","78","ND","ND","ND","ND","ND","ND","ND","ND","ND","ND","0"],
    [43117,"2015-04-07T08:00:00","81","ND","ND","ND","ND","ND","ND","ND","ND","ND","ND","0"],
    [43118,"2015-04-07T09:00:00","50","ND","ND","ND","ND","ND","ND","ND","ND","ND","ND","0"],
    [43119,"2015-04-07T10:00:00","39","ND","ND","ND","ND","ND","ND","ND","ND","ND","ND","0"],
    [43120,"2015-04-07T11:00:00","43","ND","ND","ND","ND","ND","ND","ND","ND","ND","ND","0"],
    [43121,"2015-04-07T12:00:00","44","ND","ND","ND","ND","ND","ND","ND","ND","ND","ND","0"],
    [43122,"2015-04-07T13:00:00","48","ND","ND","ND","ND","ND","ND","ND","ND","ND","ND","0"],
    [43123,"2015-04-07T14:00:00","37","ND","ND","ND","ND","ND","ND","ND","ND","ND","ND","0"],
    [43124,"2015-04-07T15:00:00","34","ND","ND","ND","ND","ND","ND","ND","ND","ND","ND","0"],
    [43125,"2015-04-07T16:00:00","36","ND","ND","ND","ND","ND","ND","ND","ND","ND","ND","0"],
    [43126,"2015-04-07T17:00:00","37","ND","ND","ND","ND","ND","ND","ND","ND","ND","ND","0"],
    [43127,"2015-04-07T18:00:00","35","ND","ND","ND","ND","ND","ND","ND","ND","ND","ND","0"],
    [43128,"2015-04-07T19:00:00","25","ND","ND","ND","ND","ND","ND","ND","ND","ND","ND","0"],
    [43129,"2015-04-07T20:00:00","24","ND","ND","ND","ND","ND","ND","ND","ND","ND","ND","4.32"],
    [43130,"2015-04-07T21:00:00","13","ND","ND","ND","ND","ND","ND","ND","ND","ND","ND","8.89"],
    [43131,"2015-04-07T22:00:00","16","ND","ND","ND","ND","ND","ND","ND","ND","ND","ND","0.76"],
    [43132,"2015-04-07T23:00:00","27","ND","ND","ND","ND","ND","ND","ND","ND","ND","ND","0"],
    [43133,"2015-04-08T00:00:00","31","ND","ND","ND","ND","ND","ND","ND","ND","ND","ND","0.25"],
    [43134,"2015-04-08T01:00:00","28","ND","ND","ND","ND","ND","ND","ND","ND","ND","ND","0"],
    [43135,"2015-04-08T02:00:00","14","ND","ND","ND","ND","ND","ND","ND","ND","ND","ND","0"],
    [43136,"2015-04-08T03:00:00","22","ND","ND","ND","ND","ND","ND","ND","ND","ND","ND","0"],
    [43137,"2015-04-08T04:00:00","17","ND","ND","ND","ND","ND","ND","ND","ND","ND","ND","0"],
    [43138,"2015-04-08T05:00:00","16","ND","ND","ND","ND","ND","ND","ND","ND","ND","ND","0"],
    [43139,"2015-04-08T06:00:00","30","ND","ND","ND","ND","ND","ND","ND","ND","ND","ND","0"],
    [43140,"2015-04-08T07:00:00","71","ND","ND","ND","ND","ND","ND","ND","ND","ND","ND","0"],
    [43141,"2015-04-08T08:00:00","52","ND","ND","ND","ND","ND","ND","ND","ND","ND","ND","0"],
    [43142,"2015-04-08T09:00:00","27","ND","ND","ND","ND","ND","ND","ND","ND","ND","ND","0"],
    [43143,"2015-04-08T10:00:00","27","ND","ND","ND","ND","ND","ND","ND","ND","ND","ND","0"],
    [43144,"2015-04-08T11:00:00","27","ND","ND","ND","ND","ND","ND","ND","ND","ND","ND","0"],
    [43145,"2015-04-08T12:00:00","34","ND","ND","ND","ND","ND","ND","ND","ND","ND","ND","0"],
    [43146,"2015-04-08T13:00:00","ND","ND","ND","ND","ND","ND","ND","ND","ND","ND","ND","32.77"],
    [43147,"2015-04-08T14:00:00","16","ND","ND","ND","ND","ND","ND","ND","ND","ND","ND","2.54"],
    [43148,"2015-04-08T15:00:00","26","ND","ND","ND","ND","ND","ND","ND","ND","ND","ND","4.06"],
    [43149,"2015-04-08T16:00:00","36","ND","ND","ND","ND","ND","ND","ND","ND","ND","ND","0"],
    [43150,"2015-04-08T17:00:00","39","ND","ND","ND","ND","ND","ND","ND","ND","ND","ND","0"],
    [43151,"2015-04-08T18:00:00","30","ND","ND","ND","ND","ND","ND","ND","ND","ND","ND","0"],
    [43152,"2015-04-08T19:00:00","67","ND","ND","ND","ND","ND","ND","ND","ND","ND","ND","0"],
    [43153,"2015-04-08T20:00:00","48","ND","ND","ND","ND","ND","ND","ND","ND","ND","ND","0"],
    [43154,"2015-04-08T21:00:00","38","ND","ND","ND","ND","ND","ND","ND","ND","ND","ND","0"],
    [43155,"2015-04-08T22:00:00","91","ND","ND","ND","ND","ND","ND","ND","ND","ND","ND","0"],
    [43156,"2015-04-08T23:00:00","60","ND","ND","ND","ND","ND","ND","ND","ND","ND","ND","0"],
    [43157,"2015-04-09T00:00:00","50","ND","ND","ND","ND","ND","ND","ND","ND","ND","ND","0"],
    [43158,"2015-04-09T01:00:00","37","ND","ND","ND","ND","ND","ND","ND","ND","ND","ND","0"],
    [43159,"2015-04-09T02:00:00","40","ND","ND","ND","ND","ND","ND","ND","ND","ND","ND","0"],
    [43160,"2015-04-09T03:00:00","40","ND","ND","ND","ND","ND","ND","ND","ND","ND","ND","0"],
    [43161,"2015-04-09T04:00:00","44","ND","ND","ND","ND","ND","ND","ND","ND","ND","ND","0"],
    [43162,"2015-04-09T05:00:00","40","ND","ND","ND","ND","ND","ND","ND","ND","ND","ND","0"],
    [43163,"2015-04-09T06:00:00","62","ND","ND","ND","ND","ND","ND","ND","ND","ND","ND","0"],
    [43164,"2015-04-09T07:00:00","70","ND","ND","ND","ND","ND","ND","ND","ND","ND","ND","0"],
    [43165,"2015-04-09T08:00:00","108","ND","ND","ND","ND","ND","ND","ND","ND","ND","ND","0"],
    [43166,"2015-04-09T09:00:00","89","ND","ND","ND","ND","ND","ND","ND","ND","ND","ND","0"],
    [43167,"2015-04-09T10:00:00","61","ND","ND","ND","ND","ND","ND","ND","ND","ND","ND","0"],
    [43168,"2015-04-09T11:00:00","48","ND","ND","ND","ND","ND","ND","ND","ND","ND","ND","0"],
    [43169,"2015-04-09T12:00:00","50","ND","ND","ND","ND","ND","ND","ND","ND","ND","ND","0"],
    [43170,"2015-04-09T13:00:00","47","ND","ND","ND","ND","ND","ND","ND","ND","ND","ND","0"],
    [43171,"2015-04-09T14:00:00","51","ND","ND","ND","ND","ND","ND","ND","ND","ND","ND","0"],
    [43172,"2015-04-09T15:00:00","60","ND","ND","ND","ND","ND","ND","ND","ND","ND","ND","0"],
    [43173,"2015-04-09T16:00:00","52","ND","ND","ND","ND","ND","ND","ND","ND","ND","ND","0"],
    [43174,"2015-04-09T17:00:00","28","ND","ND","ND","ND","ND","ND","ND","ND","ND","ND","0"],
    [43175,"2015-04-09T18:00:00","32","ND","ND","ND","ND","ND","ND","ND","ND","ND","ND","0"],
    [43176,"2015-04-09T19:00:00","31","ND","ND","ND","ND","ND","ND","ND","ND","ND","ND","0"],
    [43177,"2015-04-09T20:00:00","63","ND","ND","ND","ND","ND","ND","ND","ND","ND","ND","0"],
    [43178,"2015-04-09T21:00:00","38","ND","ND","ND","ND","ND","ND","ND","ND","ND","ND","0"],
    [43179,"2015-04-09T22:00:00","ND","ND","ND","ND","ND","ND","ND","ND","ND","ND","ND","0"],
    [43180,"2015-04-09T23:00:00","56","ND","ND","ND","ND","ND","ND","ND","ND","ND","ND","0"],
    [43181,"2015-04-10T00:00:00","36","ND","ND","ND","ND","ND","ND","ND","ND","ND","ND","0"],
    [43182,"2015-04-10T01:00:00","34","ND","ND","ND","ND","ND","ND","ND","ND","ND","ND","0"],
    [43183,"2015-04-10T02:00:00","35","ND","ND","ND","ND","ND","ND","ND","ND","ND","ND","0"],
    [43184,"2015-04-10T03:00:00","43","ND","ND","ND","ND","ND","ND","ND","ND","ND","ND","0"],
    [43185,"2015-04-10T04:00:00","39","ND","ND","ND","ND","ND","ND","ND","ND","ND","ND","0"],
    [43186,"2015-04-10T05:00:00","44","ND","ND","ND","ND","ND","ND","ND","ND","ND","ND","0"],
    [43187,"2015-04-10T06:00:00","87","ND","ND","ND","ND","ND","ND","ND","ND","ND","ND","0"],
    [43188,"2015-04-10T07:00:00","109","ND","ND","ND","ND","ND","ND","ND","ND","ND","ND","0"],
    [43189,"2015-04-10T08:00:00","117","ND","ND","ND","ND","ND","ND","ND","ND","ND","ND","0"],
    [43190,"2015-04-10T09:00:00","101","ND","ND","ND","ND","ND","ND","ND","ND","ND","ND","0"],
    [43191,"2015-04-10T10:00:00","77","ND","ND","ND","ND","ND","ND","ND","ND","ND","ND","0"],
    [43192,"2015-04-10T11:00:00","40","ND","ND","ND","ND","ND","ND","ND","ND","ND","ND","0"],
    [43193,"2015-04-10T12:00:00","51","ND","ND","ND","ND","ND","ND","ND","ND","ND","ND","0"],
    [43194,"2015-04-10T13:00:00","63","ND","ND","ND","ND","ND","ND","ND","ND","ND","ND","0"],
    [43195,"2015-04-10T14:00:00","67","ND","ND","ND","ND","ND","ND","ND","ND","ND","ND","0"],
    [43196,"2015-04-10T15:00:00","60","ND","ND","ND","ND","ND","ND","ND","ND","ND","ND","0"],
    [43197,"2015-04-10T16:00:00","68","ND","ND","ND","ND","ND","ND","ND","ND","ND","ND","0"],
    [43198,"2015-04-10T17:00:00","53","ND","ND","ND","ND","ND","ND","ND","ND","ND","ND","0"],
    [43199,"2015-04-10T18:00:00","39","ND","ND","ND","ND","ND","ND","ND","ND","ND","ND","0"],
    [43200,"2015-04-10T19:00:00","35","ND","ND","ND","ND","ND","ND","ND","ND","ND","ND","0"],
    [43201,"2015-04-10T20:00:00","28","ND","ND","ND","ND","ND","ND","ND","ND","ND","ND","0"],
    [43202,"2015-04-10T21:00:00","48","ND","ND","ND","ND","ND","ND","ND","ND","ND","ND","0"],
    [43203,"2015-04-10T22:00:00","48","ND","ND","ND","ND","ND","ND","ND","ND","ND","ND","0"],
    [43204,"2015-04-10T23:00:00","ND","ND","ND","ND","ND","ND","ND","ND","ND","ND","ND","0"],
    [43205,"2015-04-11T00:00:00","6","ND","ND","ND","ND","ND","ND","ND","ND","ND","ND","3.05"],
    [43206,"2015-04-11T01:00:00","ND","ND","ND","ND","ND","ND","ND","ND","ND","ND","ND","ND"],
    [43207,"2015-04-11T02:00:00","ND","ND","ND","ND","ND","ND","ND","ND","ND","ND","ND","0"],
    [43208,"2015-04-11T03:00:00","56","ND","ND","ND","ND","ND","ND","ND","ND","ND","ND","0"],
    [43209,"2015-04-11T04:00:00","43","ND","ND","ND","ND","ND","ND","ND","ND","ND","ND","0.25"],
    [43210,"2015-04-11T05:00:00","41","ND","ND","ND","ND","ND","ND","ND","ND","ND","ND","0"],
    [43211,"2015-04-11T06:00:00","47","ND","ND","ND","ND","ND","ND","ND","ND","ND","ND","0"],
    [43212,"2015-04-11T07:00:00","50","ND","ND","ND","ND","ND","ND","ND","ND","ND","ND","0"],
    [43213,"2015-04-11T08:00:00","56","ND","ND","ND","ND","ND","ND","ND","ND","ND","ND","0"],
    [43214,"2015-04-11T09:00:00","90","ND","ND","ND","ND","ND","ND","ND","ND","ND","ND","0"],
    [43215,"2015-04-11T10:00:00","97","ND","ND","ND","ND","ND","ND","ND","ND","ND","ND","0"],
    [43216,"2015-04-11T11:00:00","64","ND","ND","ND","ND","ND","ND","ND","ND","ND","ND","0"],
    [43217,"2015-04-11T12:00:00","34","ND","ND","ND","ND","ND","ND","ND","ND","ND","ND","0"],
    [43218,"2015-04-11T13:00:00","26","ND","ND","ND","ND","ND","ND","ND","ND","ND","ND","0"],
    [43219,"2015-04-11T14:00:00","37","ND","ND","ND","ND","ND","ND","ND","ND","ND","ND","0"],
    [43220,"2015-04-11T15:00:00","16","ND","ND","ND","ND","ND","ND","ND","ND","ND","ND","0"],
    [43221,"2015-04-11T16:00:00","10","ND","ND","ND","ND","ND","ND","ND","ND","ND","ND","0"],
    [43222,"2015-04-11T17:00:00","18","ND","ND","ND","ND","ND","ND","ND","ND","ND","ND","0"],
    [43223,"2015-04-11T18:00:00","24","ND","ND","ND","ND","ND","ND","ND","ND","ND","ND","0"],
    [43224,"2015-04-11T19:00:00","34","ND","ND","ND","ND","ND","ND","ND","ND","ND","ND","0"],
    [43225,"2015-04-11T20:00:00","26","ND","ND","ND","ND","ND","ND","ND","ND","ND","ND","0"],
    [43226,"2015-04-11T21:00:00","23","ND","ND","ND","ND","ND","ND","ND","ND","ND","ND","0"],
    [43227,"2015-04-11T22:00:00","42","ND","ND","ND","ND","ND","ND","ND","ND","ND","ND","0"],
    [43228,"2015-04-11T23:00:00","59","ND","ND","ND","ND","ND","ND","ND","ND","ND","ND","0"],
    [43229,"2015-04-12T00:00:00","47","ND","ND","ND","ND","ND","ND","ND","ND","ND","ND","0"],
    [43230,"2015-04-12T01:00:00","54","ND","ND","ND","ND","ND","ND","ND","ND","ND","ND","0"],
    [43231,"2015-04-12T02:00:00","40","ND","ND","ND","ND","ND","ND","ND","ND","ND","ND","0"],
    [43232,"2015-04-12T03:00:00","60","ND","ND","ND","ND","ND","ND","ND","ND","ND","ND","0"],
    [43233,"2015-04-12T04:00:00","52","ND","ND","ND","ND","ND","ND","ND","ND","ND","ND","0"],
    [43234,"2015-04-12T05:00:00","45","ND","ND","ND","ND","ND","ND","ND","ND","ND","ND","0"],
    [43235,"2015-04-12T06:00:00","45","ND","ND","ND","ND","ND","ND","ND","ND","ND","ND","0"],
    [43236,"2015-04-12T07:00:00","38","ND","ND","ND","ND","ND","ND","ND","ND","ND","ND","0"],
    [43237,"2015-04-12T08:00:00","43","ND","ND","ND","ND","ND","ND","ND","ND","ND","ND","0"],
    [43238,"2015-04-12T09:00:00","24","ND","ND","ND","ND","ND","ND","ND","ND","ND","ND","0"],
    [43239,"2015-04-12T10:00:00","34","ND","ND","ND","ND","ND","ND","ND","ND","ND","ND","0"],
    [43240,"2015-04-12T11:00:00","37","ND","ND","ND","ND","ND","ND","ND","ND","ND","ND","0"],
    [43241,"2015-04-12T12:00:00","24","ND","ND","ND","ND","ND","ND","ND","ND","ND","ND","0"],
    [43242,"2015-04-12T13:00:00","27","ND","ND","ND","ND","ND","ND","ND","ND","ND","ND","0"],
    [43243,"2015-04-12T14:00:00","43","ND","ND","ND","ND","ND","ND","ND","ND","ND","ND","0"],
    [43244,"2015-04-12T15:00:00","33","ND","ND","ND","ND","ND","ND","ND","ND","ND","ND","0"],
    [43245,"2015-04-12T16:00:00","39","ND","ND","ND","ND","ND","ND","ND","ND","ND","ND","0"],
    [43246,"2015-04-12T17:00:00","24","ND","ND","ND","ND","ND","ND","ND","ND","ND","ND","0"],
    [43247,"2015-04-12T18:00:00","25","ND","ND","ND","ND","ND","ND","ND","ND","ND","ND","0"],
    [43248,"2015-04-12T19:00:00","19","ND","ND","ND","ND","ND","ND","ND","ND","ND","ND","0"],
    [43249,"2015-04-12T20:00:00","26","ND","ND","ND","ND","ND","ND","ND","ND","ND","ND","0"],
    [43250,"2015-04-12T21:00:00","40","ND","ND","ND","ND","ND","ND","ND","ND","ND","ND","0"],
    [43251,"2015-04-12T22:00:00","28","ND","ND","ND","ND","ND","ND","ND","ND","ND","ND","0"],
    [43252,"2015-04-12T23:00:00","34","ND","ND","ND","ND","ND","ND","ND","ND","ND","ND","0"],
    [43253,"2015-04-13T00:00:00","34","ND","ND","ND","ND","ND","ND","ND","ND","ND","ND","0"],
    [43254,"2015-04-13T01:00:00","51","ND","ND","ND","ND","ND","ND","ND","ND","ND","ND","0"],
    [43255,"2015-04-13T02:00:00","38","ND","ND","ND","ND","ND","ND","ND","ND","ND","ND","0"],
    [43256,"2015-04-13T03:00:00","43","ND","ND","ND","ND","ND","ND","ND","ND","ND","ND","0"],
    [43257,"2015-04-13T04:00:00","45","ND","ND","ND","ND","ND","ND","ND","ND","ND","ND","0"],
    [43258,"2015-04-13T05:00:00","55","ND","ND","ND","ND","ND","ND","ND","ND","ND","ND","0"],
    [43259,"2015-04-13T06:00:00","62","ND","ND","ND","ND","ND","ND","ND","ND","ND","ND","0"],
    [43260,"2015-04-13T07:00:00","61","ND","ND","ND","ND","ND","ND","ND","ND","ND","ND","0"],
    [43261,"2015-04-13T08:00:00","56","ND","ND","ND","ND","ND","ND","ND","ND","ND","ND","0"],
    [43262,"2015-04-13T09:00:00","74","ND","ND","ND","ND","ND","ND","ND","ND","ND","ND","0"],
    [43263,"2015-04-13T10:00:00","56","ND","ND","ND","ND","ND","ND","ND","ND","ND","ND","0"],
    [43264,"2015-04-13T11:00:00","37","ND","ND","ND","ND","ND","ND","ND","ND","ND","ND","0"],
    [43265,"2015-04-13T12:00:00","52","ND","ND","ND","ND","ND","ND","ND","ND","ND","ND","0"],
    [43266,"2015-04-13T13:00:00","39","ND","ND","ND","ND","ND","ND","ND","ND","ND","ND","0"],
    [43267,"2015-04-13T14:00:00","27","ND","ND","ND","ND","ND","ND","ND","ND","ND","ND","0"],
    [43268,"2015-04-13T15:00:00","17","ND","ND","ND","ND","ND","ND","ND","ND","ND","ND","0"],
    [43269,"2015-04-13T16:00:00","21","ND","ND","ND","ND","ND","ND","ND","ND","ND","ND","0"],
    [43270,"2015-04-13T17:00:00","22","ND","ND","ND","ND","ND","ND","ND","ND","ND","ND","0"],
    [43271,"2015-04-13T18:00:00","14","ND","ND","ND","ND","ND","ND","ND","ND","ND","ND","0"],
    [43272,"2015-04-13T19:00:00","20","ND","ND","ND","ND","ND","ND","ND","ND","ND","ND","0"],
    [43273,"2015-04-13T20:00:00","22","ND","ND","ND","ND","ND","ND","ND","ND","ND","ND","0"],
    [43274,"2015-04-13T21:00:00","49","ND","ND","ND","ND","ND","ND","ND","ND","ND","ND","0"],
    [43275,"2015-04-13T22:00:00","60","ND","ND","ND","ND","ND","ND","ND","ND","ND","ND","0"],
    [43276,"2015-04-13T23:00:00","53","ND","ND","ND","ND","ND","ND","ND","ND","ND","ND","0"],
    [43277,"2015-04-14T00:00:00","35","ND","ND","ND","ND","ND","ND","ND","ND","ND","ND","0"],
    [43278,"2015-04-14T01:00:00","41","ND","ND","ND","ND","ND","ND","ND","ND","ND","ND","0"],
    [43279,"2015-04-14T02:00:00","33","ND","ND","ND","ND","ND","ND","ND","ND","ND","ND","4.32"],
    [43280,"2015-04-14T03:00:00","23","ND","ND","ND","ND","ND","ND","ND","ND","ND","ND","17.02"],
    [43281,"2015-04-14T04:00:00","11","ND","ND","ND","ND","ND","ND","ND","ND","ND","ND","1.78"],
    [43282,"2015-04-14T05:00:00","19","ND","ND","ND","ND","ND","ND","ND","ND","ND","ND","0"],
    [43283,"2015-04-14T06:00:00","20","ND","ND","ND","ND","ND","ND","ND","ND","ND","ND","0"],
    [43284,"2015-04-14T07:00:00","27","ND","ND","ND","ND","ND","ND","ND","ND","ND","ND","0"],
    [43285,"2015-04-14T08:00:00","20","ND","ND","ND","ND","ND","ND","ND","ND","ND","ND","0"],
    [43286,"2015-04-14T09:00:00","38","ND","ND","ND","ND","ND","ND","ND","ND","ND","ND","0"],
    [43287,"2015-04-14T10:00:00","39","ND","ND","ND","ND","ND","ND","ND","ND","ND","ND","0"],
    [43288,"2015-04-14T11:00:00","61","ND","ND","ND","ND","ND","ND","ND","ND","ND","ND","0"],
    [43289,"2015-04-14T12:00:00","33","ND","ND","ND","ND","ND","ND","ND","ND","ND","ND","0"],
    [43290,"2015-04-14T13:00:00","29","ND","ND","ND","ND","ND","ND","ND","ND","ND","ND","0"],
    [43291,"2015-04-14T14:00:00","42","ND","ND","ND","ND","ND","ND","ND","ND","ND","ND","0"],
    [43292,"2015-04-14T15:00:00","38","ND","ND","ND","ND","ND","ND","ND","ND","ND","ND","0"],
    [43293,"2015-04-14T16:00:00","42","ND","ND","ND","ND","ND","ND","ND","ND","ND","ND","0"],
    [43294,"2015-04-14T17:00:00","34","ND","ND","ND","ND","ND","ND","ND","ND","ND","ND","0"],
    [43295,"2015-04-14T18:00:00","25","ND","ND","ND","ND","ND","ND","ND","ND","ND","ND","0"],
    [43296,"2015-04-14T19:00:00","23","ND","ND","ND","ND","ND","ND","ND","ND","ND","ND","0"],
    [43297,"2015-04-14T20:00:00","41","ND","ND","ND","ND","ND","ND","ND","ND","ND","ND","0"],
    [43298,"2015-04-14T21:00:00","59","ND","ND","ND","ND","ND","ND","ND","ND","ND","ND","0"],
    [43299,"2015-04-14T22:00:00","50","ND","ND","ND","ND","ND","ND","ND","ND","ND","ND","0"],
    [43300,"2015-04-14T23:00:00","59","ND","ND","ND","ND","ND","ND","ND","ND","ND","ND","0"],
    [43301,"2015-04-15T00:00:00","21","ND","ND","ND","ND","ND","ND","ND","ND","ND","ND","0"],
    [43302,"2015-04-15T01:00:00","21","ND","ND","ND","ND","ND","ND","ND","ND","ND","ND","0"],
    [43303,"2015-04-15T02:00:00","16","ND","ND","ND","ND","ND","ND","ND","ND","ND","ND","0"],
    [43304,"2015-04-15T03:00:00","37","ND","ND","ND","ND","ND","ND","ND","ND","ND","ND","0"],
    [43305,"2015-04-15T04:00:00","31","ND","ND","ND","ND","ND","ND","ND","ND","ND","ND","0"],
    [43306,"2015-04-15T05:00:00","27","ND","ND","ND","ND","ND","ND","ND","ND","ND","ND","0"],
    [43307,"2015-04-15T06:00:00","19","ND","ND","ND","ND","ND","ND","ND","ND","ND","ND","0"],
    [43308,"2015-04-15T07:00:00","15","ND","ND","ND","ND","ND","ND","ND","ND","ND","ND","0"],
    [43309,"2015-04-15T08:00:00","34","ND","ND","ND","ND","ND","ND","ND","ND","ND","ND","0"],
    [43310,"2015-04-15T09:00:00","36","ND","ND","ND","ND","ND","ND","ND","ND","ND","ND","0"],
    [43311,"2015-04-15T10:00:00","30","ND","ND","ND","ND","ND","ND","ND","ND","ND","ND","0"],
    [43312,"2015-04-15T11:00:00","31","ND","ND","ND","ND","ND","ND","ND","ND","ND","ND","0"],
    [43313,"2015-04-15T12:00:00","30","ND","ND","ND","ND","ND","ND","ND","ND","ND","ND","0"],
    [43314,"2015-04-15T13:00:00","23","ND","ND","ND","ND","ND","ND","ND","ND","ND","ND","0"],
    [43315,"2015-04-15T14:00:00","33","ND","ND","ND","ND","ND","ND","ND","ND","ND","ND","0"],
    [43316,"2015-04-15T15:00:00","38","ND","ND","ND","ND","ND","ND","ND","ND","ND","ND","0"],
    [43317,"2015-04-15T16:00:00","23","ND","ND","ND","ND","ND","ND","ND","ND","ND","ND","0"],
    [43318,"2015-04-15T17:00:00","ND","ND","ND","ND","ND","ND","ND","ND","ND","ND","ND","0"],
    [43319,"2015-04-15T18:00:00","11","ND","ND","ND","ND","ND","ND","ND","ND","ND","ND","0"],
    [43320,"2015-04-15T19:00:00","32","ND","ND","ND","ND","ND","ND","ND","ND","ND","ND","0"],
    [43321,"2015-04-15T20:00:00","23","ND","ND","ND","ND","ND","ND","ND","ND","ND","ND","0"],
    [43322,"2015-04-15T21:00:00","14","ND","ND","ND","ND","ND","ND","ND","ND","ND","ND","0"],
    [43323,"2015-04-15T22:00:00","25","ND","ND","ND","ND","ND","ND","ND","ND","ND","ND","0"],
    [43324,"2015-04-15T23:00:00","21","ND","ND","ND","ND","ND","ND","ND","ND","ND","ND","0"],
    [43325,"2015-04-16T00:00:00","28","ND","ND","ND","ND","ND","ND","ND","ND","ND","ND","29.21"],
    [43326,"2015-04-16T01:00:00","13","ND","ND","ND","ND","ND","ND","ND","ND","ND","ND","18.03"],
    [43327,"2015-04-16T02:00:00","7","ND","ND","ND","ND","ND","ND","ND","ND","ND","ND","7.11"],
    [43328,"2015-04-16T03:00:00","ND","ND","ND","ND","ND","ND","ND","ND","ND","ND","ND","2.54"],
    [43329,"2015-04-16T04:00:00","ND","ND","ND","ND","ND","ND","ND","ND","ND","ND","ND","1.27"],
    [43330,"2015-04-16T05:00:00","ND","ND","ND","ND","ND","ND","ND","ND","ND","ND","ND","0.51"],
    [43331,"2015-04-16T06:00:00","5","ND","ND","ND","ND","ND","ND","ND","ND","ND","ND","0.25"],
    [43332,"2015-04-16T07:00:00","32","ND","ND","ND","ND","ND","ND","ND","ND","ND","ND","0.25"],
    [43333,"2015-04-16T08:00:00","28","ND","ND","ND","ND","ND","ND","ND","ND","ND","ND","0.25"],
    [43334,"2015-04-16T09:00:00","23","ND","ND","ND","ND","ND","ND","ND","ND","ND","ND","0"],
    [43335,"2015-04-16T10:00:00","32","ND","ND","ND","ND","ND","ND","ND","ND","ND","ND","0"],
    [43336,"2015-04-16T11:00:00","32","ND","ND","ND","ND","ND","ND","ND","ND","ND","ND","0"],
    [43337,"2015-04-16T12:00:00","26","ND","ND","ND","ND","ND","ND","ND","ND","ND","ND","0"],
    [43338,"2015-04-16T13:00:00","21","ND","ND","ND","ND","ND","ND","ND","ND","ND","ND","0"],
    [43339,"2015-04-16T14:00:00","ND","ND","ND","ND","ND","ND","ND","ND","ND","ND","ND","0"],
    [43340,"2015-04-16T15:00:00","19","ND","ND","ND","ND","ND","ND","ND","ND","ND","ND","0"],
    [43341,"2015-04-16T16:00:00","12","ND","ND","ND","ND","ND","ND","ND","ND","ND","ND","0"],
    [43342,"2015-04-16T17:00:00","9","ND","ND","ND","ND","ND","ND","ND","ND","ND","ND","0"],
    [43343,"2015-04-16T18:00:00","12","ND","ND","ND","ND","ND","ND","ND","ND","ND","ND","0"],
    [43344,"2015-04-16T19:00:00","18","ND","ND","ND","ND","ND","ND","ND","ND","ND","ND","0"],
    [43345,"2015-04-16T20:00:00","52","ND","ND","ND","ND","ND","ND","ND","ND","ND","ND","0"],
    [43346,"2015-04-16T21:00:00","17","ND","ND","ND","ND","ND","ND","ND","ND","ND","ND","0"],
    [43347,"2015-04-16T22:00:00","34","ND","ND","ND","ND","ND","ND","ND","ND","ND","ND","0"],
    [43348,"2015-04-16T23:00:00","19","ND","ND","ND","ND","ND","ND","ND","ND","ND","ND","0"],
    [43349,"2015-04-17T00:00:00","25","ND","ND","ND","ND","ND","ND","ND","ND","ND","ND","0"],
    [43350,"2015-04-17T01:00:00","2","ND","ND","ND","ND","ND","ND","ND","ND","ND","ND","0"],
    [43351,"2015-04-17T02:00:00","35","ND","ND","ND","ND","ND","ND","ND","ND","ND","ND","0"],
    [43352,"2015-04-17T03:00:00","ND","ND","ND","ND","ND","ND","ND","ND","ND","ND","ND","15.49"],
    [43353,"2015-04-17T04:00:00","12","ND","ND","ND","ND","ND","ND","ND","ND","ND","ND","22.61"],
    [43354,"2015-04-17T05:00:00","6","ND","ND","ND","ND","ND","ND","ND","ND","ND","ND","26.67"],
    [43355,"2015-04-17T06:00:00","ND","ND","ND","ND","ND","ND","ND","ND","ND","ND","ND","3.3"],
    [43356,"2015-04-17T07:00:00","3","ND","ND","ND","ND","ND","ND","ND","ND","ND","ND","0.25"],
    [43357,"2015-04-17T08:00:00","7","ND","ND","ND","ND","ND","ND","ND","ND","ND","ND","0.51"],
    [43358,"2015-04-17T09:00:00","6","ND","ND","ND","ND","ND","ND","ND","ND","ND","ND","0"],
    [43359,"2015-04-17T10:00:00","6","ND","ND","ND","ND","ND","ND","ND","ND","ND","ND","0"],
    [43360,"2015-04-17T11:00:00","ND","ND","ND","ND","ND","ND","ND","ND","ND","ND","ND","1.52"],
    [43361,"2015-04-17T12:00:00","23","ND","ND","ND","ND","ND","ND","ND","ND","ND","ND","0"],
    [43362,"2015-04-17T13:00:00","27","ND","ND","ND","ND","ND","ND","ND","ND","ND","ND","0"],
    [43363,"2015-04-17T14:00:00","13","ND","ND","ND","ND","ND","ND","ND","ND","ND","ND","0"],
    [43364,"2015-04-17T15:00:00","31","ND","ND","ND","ND","ND","ND","ND","ND","ND","ND","0"],
    [43365,"2015-04-17T16:00:00","36","ND","ND","ND","ND","ND","ND","ND","ND","ND","ND","0"],
    [43366,"2015-04-17T17:00:00","26","ND","ND","ND","ND","ND","ND","ND","ND","ND","ND","0"],
    [43367,"2015-04-17T18:00:00","38","ND","ND","ND","ND","ND","ND","ND","ND","ND","ND","0"],
    [43368,"2015-04-17T19:00:00","57","ND","ND","ND","ND","ND","ND","ND","ND","ND","ND","0"],
    [43369,"2015-04-17T20:00:00","58","ND","ND","ND","ND","ND","ND","ND","ND","ND","ND","0"],
    [43370,"2015-04-17T21:00:00","54","ND","ND","ND","ND","ND","ND","ND","ND","ND","ND","0"],
    [43371,"2015-04-17T22:00:00","74","ND","ND","ND","ND","ND","ND","ND","ND","ND","ND","0"],
    [43372,"2015-04-17T23:00:00","61","ND","ND","ND","ND","ND","ND","ND","ND","ND","ND","0"],
    [43373,"2015-04-18T00:00:00","60","ND","ND","ND","ND","ND","ND","ND","ND","ND","ND","0"],
    [43374,"2015-04-18T01:00:00","55","ND","ND","ND","ND","ND","ND","ND","ND","ND","ND","0"],
    [43375,"2015-04-18T02:00:00","51","ND","ND","ND","ND","ND","ND","ND","ND","ND","ND","0"],
    [43376,"2015-04-18T03:00:00","53","ND","ND","ND","ND","ND","ND","ND","ND","ND","ND","0"],
    [43377,"2015-04-18T04:00:00","63","ND","ND","ND","ND","ND","ND","ND","ND","ND","ND","0"],
    [43378,"2015-04-18T05:00:00","58","ND","ND","ND","ND","ND","ND","ND","ND","ND","ND","0"],
    [43379,"2015-04-18T06:00:00","73","ND","ND","ND","ND","ND","ND","ND","ND","ND","ND","0"],
    [43380,"2015-04-18T07:00:00","103","ND","ND","ND","ND","ND","ND","ND","ND","ND","ND","0"],
    [43381,"2015-04-18T08:00:00","95","ND","ND","ND","ND","ND","ND","ND","ND","ND","ND","0"],
    [43382,"2015-04-18T09:00:00","55","ND","ND","ND","ND","ND","ND","ND","ND","ND","ND","0"],
    [43383,"2015-04-18T10:00:00","50","ND","ND","ND","ND","ND","ND","ND","ND","ND","ND","0"],
    [43384,"2015-04-18T11:00:00","48","ND","ND","ND","ND","ND","ND","ND","ND","ND","ND","0"],
    [43385,"2015-04-18T12:00:00","36","ND","ND","ND","ND","ND","ND","ND","ND","ND","ND","0"],
    [43386,"2015-04-18T13:00:00","27","ND","ND","ND","ND","ND","ND","ND","ND","ND","ND","0"],
    [43387,"2015-04-18T14:00:00","31","ND","ND","ND","ND","ND","ND","ND","ND","ND","ND","0"],
    [43388,"2015-04-18T15:00:00","39","ND","ND","ND","ND","ND","ND","ND","ND","ND","ND","0"],
    [43389,"2015-04-18T16:00:00","24","ND","ND","ND","ND","ND","ND","ND","ND","ND","ND","0"],
    [43390,"2015-04-18T17:00:00","23","ND","ND","ND","ND","ND","ND","ND","ND","ND","ND","0"],
    [43391,"2015-04-18T18:00:00","18","ND","ND","ND","ND","ND","ND","ND","ND","ND","ND","0"],
    [43392,"2015-04-18T19:00:00","26","ND","ND","ND","ND","ND","ND","ND","ND","ND","ND","0"],
    [43393,"2015-04-18T20:00:00","34","ND","ND","ND","ND","ND","ND","ND","ND","ND","ND","0"],
    [43394,"2015-04-18T21:00:00","42","ND","ND","ND","ND","ND","ND","ND","ND","ND","ND","0"],
    [43395,"2015-04-18T22:00:00","60","ND","ND","ND","ND","ND","ND","ND","ND","ND","ND","0"],
    [43396,"2015-04-18T23:00:00","64","ND","ND","ND","ND","ND","ND","ND","ND","ND","ND","0"],
    [43397,"2015-04-19T00:00:00","66","ND","ND","ND","ND","ND","ND","ND","ND","ND","ND","0"],
    [43398,"2015-04-19T01:00:00","39","ND","ND","ND","ND","ND","ND","ND","ND","ND","ND","2.03"],
    [43399,"2015-04-19T02:00:00","21","ND","ND","ND","ND","ND","ND","ND","ND","ND","ND","1.27"],
    [43400,"2015-04-19T03:00:00","13","ND","ND","ND","ND","ND","ND","ND","ND","ND","ND","4.32"],
    [43401,"2015-04-19T04:00:00","7","ND","ND","ND","ND","ND","ND","ND","ND","ND","ND","6.35"],
    [43402,"2015-04-19T05:00:00","3","ND","ND","ND","ND","ND","ND","ND","ND","ND","ND","12.7"],
    [43403,"2015-04-19T06:00:00","3","ND","ND","ND","ND","ND","ND","ND","ND","ND","ND","7.11"],
    [43404,"2015-04-19T07:00:00","6","ND","ND","ND","ND","ND","ND","ND","ND","ND","ND","2.54"],
    [43405,"2015-04-19T08:00:00","8","ND","ND","ND","ND","ND","ND","ND","ND","ND","ND","0.51"],
    [43406,"2015-04-19T09:00:00","16","ND","ND","ND","ND","ND","ND","ND","ND","ND","ND","0"],
    [43407,"2015-04-19T10:00:00","11","ND","ND","ND","ND","ND","ND","ND","ND","ND","ND","0"],
    [43408,"2015-04-19T11:00:00","22","ND","ND","ND","ND","ND","ND","ND","ND","ND","ND","0"],
    [43409,"2015-04-19T12:00:00","8","ND","ND","ND","ND","ND","ND","ND","ND","ND","ND","0"],
    [43410,"2015-04-19T13:00:00","10","ND","ND","ND","ND","ND","ND","ND","ND","ND","ND","0"],
    [43411,"2015-04-19T14:00:00","14","ND","ND","ND","ND","ND","ND","ND","ND","ND","ND","0"],
    [43412,"2015-04-19T15:00:00","12","ND","ND","ND","ND","ND","ND","ND","ND","ND","ND","0"],
    [43413,"2015-04-19T16:00:00","6","ND","ND","ND","ND","ND","ND","ND","ND","ND","ND","0"],
    [43414,"2015-04-19T17:00:00","4","ND","ND","ND","ND","ND","ND","ND","ND","ND","ND","0"],
    [43415,"2015-04-19T18:00:00","19","ND","ND","ND","ND","ND","ND","ND","ND","ND","ND","0"],
    [43416,"2015-04-19T19:00:00","33","ND","ND","ND","ND","ND","ND","ND","ND","ND","ND","0"],
    [43417,"2015-04-19T20:00:00","38","ND","ND","ND","ND","ND","ND","ND","ND","ND","ND","0"],
    [43418,"2015-04-19T21:00:00","36","ND","ND","ND","ND","ND","ND","ND","ND","ND","ND","0"],
    [43419,"2015-04-19T22:00:00","46","ND","ND","ND","ND","ND","ND","ND","ND","ND","ND","0"],
    [43420,"2015-04-19T23:00:00","41","ND","ND","ND","ND","ND","ND","ND","ND","ND","ND","0"],
    [43421,"2015-04-20T00:00:00","35","ND","ND","ND","ND","ND","ND","ND","ND","ND","ND","0"],
    [43422,"2015-04-20T01:00:00","34","ND","ND","ND","ND","ND","ND","ND","ND","ND","ND","0"],
    [43423,"2015-04-20T02:00:00","36","ND","ND","ND","ND","ND","ND","ND","ND","ND","ND","0"],
    [43424,"2015-04-20T03:00:00","41","ND","ND","ND","ND","ND","ND","ND","ND","ND","ND","0"],
    [43425,"2015-04-20T04:00:00","28","ND","ND","ND","ND","ND","ND","ND","ND","ND","ND","0"],
    [43426,"2015-04-20T05:00:00","29","ND","ND","ND","ND","ND","ND","ND","ND","ND","ND","0"],
    [43427,"2015-04-20T06:00:00","26","ND","ND","ND","ND","ND","ND","ND","ND","ND","ND","0"],
    [43428,"2015-04-20T07:00:00","40","ND","ND","ND","ND","ND","ND","ND","ND","ND","ND","0"],
    [43429,"2015-04-20T08:00:00","103","ND","ND","ND","ND","ND","ND","ND","ND","ND","ND","0"],
    [43430,"2015-04-20T09:00:00","68","ND","ND","ND","ND","ND","ND","ND","ND","ND","ND","0"],
    [43431,"2015-04-20T10:00:00","32","ND","ND","ND","ND","ND","ND","ND","ND","ND","ND","0"],
    [43432,"2015-04-20T11:00:00","40","ND","ND","ND","ND","ND","ND","ND","ND","ND","ND","0"],
    [43433,"2015-04-20T12:00:00","34","ND","ND","ND","ND","ND","ND","ND","ND","ND","ND","0"],
    [43434,"2015-04-20T13:00:00","51","ND","ND","ND","ND","ND","ND","ND","ND","ND","ND","0"],
    [43435,"2015-04-20T14:00:00","39","ND","ND","ND","ND","ND","ND","ND","ND","ND","ND","0"],
    [43436,"2015-04-20T15:00:00","37","ND","ND","ND","ND","ND","ND","ND","ND","ND","ND","0"],
    [43437,"2015-04-20T16:00:00","31","ND","ND","ND","ND","ND","ND","ND","ND","ND","ND","0"],
    [43438,"2015-04-20T17:00:00","43","ND","ND","ND","ND","ND","ND","ND","ND","ND","ND","0"],
    [43439,"2015-04-20T18:00:00","12","ND","ND","ND","ND","ND","ND","ND","ND","ND","ND","0"],
    [43440,"2015-04-20T19:00:00","67","ND","ND","ND","ND","ND","ND","ND","ND","ND","ND","0"],
    [43441,"2015-04-20T20:00:00","48","ND","ND","ND","ND","ND","ND","ND","ND","ND","ND","0.76"],
    [43442,"2015-04-20T21:00:00","16","ND","ND","ND","ND","ND","ND","ND","ND","ND","ND","5.84"],
    [43443,"2015-04-20T22:00:00","5","ND","ND","ND","ND","ND","ND","ND","ND","ND","ND","0.25"],
    [43444,"2015-04-20T23:00:00","4","ND","ND","ND","ND","ND","ND","ND","ND","ND","ND","11.68"],
    [43445,"2015-04-21T00:00:00","14","ND","ND","ND","ND","ND","ND","ND","ND","ND","ND","1.78"],
    [43446,"2015-04-21T01:00:00","16","ND","ND","ND","ND","ND","ND","ND","ND","ND","ND","1.52"],
    [43447,"2015-04-21T02:00:00","18","ND","ND","ND","ND","ND","ND","ND","ND","ND","ND","0"],
    [43448,"2015-04-21T03:00:00","14","ND","ND","ND","ND","ND","ND","ND","ND","ND","ND","0.25"],
    [43449,"2015-04-21T04:00:00","14","ND","ND","ND","ND","ND","ND","ND","ND","ND","ND","0"],
    [43450,"2015-04-21T05:00:00","46","ND","ND","ND","ND","ND","ND","ND","ND","ND","ND","0"],
    [43451,"2015-04-21T06:00:00","41","ND","ND","ND","ND","ND","ND","ND","ND","ND","ND","0"],
    [43452,"2015-04-21T07:00:00","76","ND","ND","ND","ND","ND","ND","ND","ND","ND","ND","0"],
    [43453,"2015-04-21T08:00:00","87","ND","ND","ND","ND","ND","ND","ND","ND","ND","ND","0"],
    [43454,"2015-04-21T09:00:00","76","ND","ND","ND","ND","ND","ND","ND","ND","ND","ND","0"],
    [43455,"2015-04-21T10:00:00","36","ND","ND","ND","ND","ND","ND","ND","ND","ND","ND","0"],
    [43456,"2015-04-21T11:00:00","26","ND","ND","ND","ND","ND","ND","ND","ND","ND","ND","0"],
    [43457,"2015-04-21T12:00:00","24","ND","ND","ND","ND","ND","ND","ND","ND","ND","ND","0"],
    [43458,"2015-04-21T13:00:00","21","ND","ND","ND","ND","ND","ND","ND","ND","ND","ND","0"],
    [43459,"2015-04-21T14:00:00","23","ND","ND","ND","ND","ND","ND","ND","ND","ND","ND","0"],
    [43460,"2015-04-21T15:00:00","28","ND","ND","ND","ND","ND","ND","ND","ND","ND","ND","0"],
    [43461,"2015-04-21T16:00:00","32","ND","ND","ND","ND","ND","ND","ND","ND","ND","ND","0"],
    [43462,"2015-04-21T17:00:00","38","ND","ND","ND","ND","ND","ND","ND","ND","ND","ND","0"],
    [43463,"2015-04-21T18:00:00","43","ND","ND","ND","ND","ND","ND","ND","ND","ND","ND","0"],
    [43464,"2015-04-21T19:00:00","51","ND","ND","ND","ND","ND","ND","ND","ND","ND","ND","0"],
    [43465,"2015-04-21T20:00:00","64","ND","ND","ND","ND","ND","ND","ND","ND","ND","ND","0"],
    [43466,"2015-04-21T21:00:00","55","ND","ND","ND","ND","ND","ND","ND","ND","ND","ND","0"],
    [43467,"2015-04-21T22:00:00","69","ND","ND","ND","ND","ND","ND","ND","ND","ND","ND","0"],
    [43468,"2015-04-21T23:00:00","76","ND","ND","ND","ND","ND","ND","ND","ND","ND","ND","0"],
    [43469,"2015-04-22T00:00:00","70","ND","ND","ND","ND","ND","ND","ND","ND","ND","ND","0"],
    [43470,"2015-04-22T01:00:00","67","ND","ND","ND","ND","ND","ND","ND","ND","ND","ND","0"],
    [43471,"2015-04-22T02:00:00","57","ND","ND","ND","ND","ND","ND","ND","ND","ND","ND","0"],
    [43472,"2015-04-22T03:00:00","59","ND","ND","ND","ND","ND","ND","ND","ND","ND","ND","0"],
    [43473,"2015-04-22T04:00:00","44","ND","ND","ND","ND","ND","ND","ND","ND","ND","ND","0"],
    [43474,"2015-04-22T05:00:00","35","ND","ND","ND","ND","ND","ND","ND","ND","ND","ND","0"],
    [43475,"2015-04-22T06:00:00","85","ND","ND","ND","ND","ND","ND","ND","ND","ND","ND","0"],
    [43476,"2015-04-22T07:00:00","80","ND","ND","ND","ND","ND","ND","ND","ND","ND","ND","0"],
    [43477,"2015-04-22T08:00:00","96","ND","ND","ND","ND","ND","ND","ND","ND","ND","ND","0"],
    [43478,"2015-04-22T09:00:00","47","ND","ND","ND","ND","ND","ND","ND","ND","ND","ND","0"],
    [43479,"2015-04-22T10:00:00","40","ND","ND","ND","ND","ND","ND","ND","ND","ND","ND","0"],
    [43480,"2015-04-22T11:00:00","55","ND","ND","ND","ND","ND","ND","ND","ND","ND","ND","0"],
    [43481,"2015-04-22T12:00:00","67","ND","ND","ND","ND","ND","ND","ND","ND","ND","ND","0"],
    [43482,"2015-04-22T13:00:00","60","ND","ND","ND","ND","ND","ND","ND","ND","ND","ND","0"],
    [43483,"2015-04-22T14:00:00","45","ND","ND","ND","ND","ND","ND","ND","ND","ND","ND","0"],
    [43484,"2015-04-22T15:00:00","38","ND","ND","ND","ND","ND","ND","ND","ND","ND","ND","0"],
    [43485,"2015-04-22T16:00:00","20","ND","ND","ND","ND","ND","ND","ND","ND","ND","ND","0"],
    [43486,"2015-04-22T17:00:00","19","ND","ND","ND","ND","ND","ND","ND","ND","ND","ND","0"],
    [43487,"2015-04-22T18:00:00","18","ND","ND","ND","ND","ND","ND","ND","ND","ND","ND","0"],
    [43488,"2015-04-22T19:00:00","26","ND","ND","ND","ND","ND","ND","ND","ND","ND","ND","0"],
    [43489,"2015-04-22T20:00:00","46","ND","ND","ND","ND","ND","ND","ND","ND","ND","ND","0"],
    [43490,"2015-04-22T21:00:00","45","ND","ND","ND","ND","ND","ND","ND","ND","ND","ND","0"],
    [43491,"2015-04-22T22:00:00","41","ND","ND","ND","ND","ND","ND","ND","ND","ND","ND","0"],
    [43492,"2015-04-22T23:00:00","59","ND","ND","ND","ND","ND","ND","ND","ND","ND","ND","0"],
    [43493,"2015-04-23T00:00:00","56","ND","ND","ND","ND","ND","ND","ND","ND","ND","ND","0"],
    [43494,"2015-04-23T01:00:00","44","ND","ND","ND","ND","ND","ND","ND","ND","ND","ND","0"],
    [43495,"2015-04-23T02:00:00","54","ND","ND","ND","ND","ND","ND","ND","ND","ND","ND","0"],
    [43496,"2015-04-23T03:00:00","45","ND","ND","ND","ND","ND","ND","ND","ND","ND","ND","0"],
    [43497,"2015-04-23T04:00:00","44","ND","ND","ND","ND","ND","ND","ND","ND","ND","ND","0"],
    [43498,"2015-04-23T05:00:00","89","ND","ND","ND","ND","ND","ND","ND","ND","ND","ND","0"],
    [43499,"2015-04-23T06:00:00","67","ND","ND","ND","ND","ND","ND","ND","ND","ND","ND","0"],
    [43500,"2015-04-23T07:00:00","103","ND","ND","ND","ND","ND","ND","ND","ND","ND","ND","0"],
    [43501,"2015-04-23T08:00:00","104","ND","ND","ND","ND","ND","ND","ND","ND","ND","ND","0"],
    [43502,"2015-04-23T09:00:00","114","ND","ND","ND","ND","ND","ND","ND","ND","ND","ND","0"],
    [43503,"2015-04-23T10:00:00","89","ND","ND","ND","ND","ND","ND","ND","ND","ND","ND","0"],
    [43504,"2015-04-23T11:00:00","62","ND","ND","ND","ND","ND","ND","ND","ND","ND","ND","0"],
    [43505,"2015-04-23T12:00:00","51","ND","ND","ND","ND","ND","ND","ND","ND","ND","ND","0"],
    [43506,"2015-04-23T13:00:00","48","ND","ND","ND","ND","ND","ND","ND","ND","ND","ND","0"],
    [43507,"2015-04-23T14:00:00","47","ND","ND","ND","ND","ND","ND","ND","ND","ND","ND","0"],
    [43508,"2015-04-23T15:00:00","57","ND","ND","ND","ND","ND","ND","ND","ND","ND","ND","0"],
    [43509,"2015-04-23T16:00:00","44","ND","ND","ND","ND","ND","ND","ND","ND","ND","ND","0"],
    [43510,"2015-04-23T17:00:00","61","ND","ND","ND","ND","ND","ND","ND","ND","ND","ND","0"],
    [43511,"2015-04-23T18:00:00","45","ND","ND","ND","ND","ND","ND","ND","ND","ND","ND","0"],
    [43512,"2015-04-23T19:00:00","67","ND","ND","ND","ND","ND","ND","ND","ND","ND","ND","0"],
    [43513,"2015-04-23T20:00:00","63","ND","ND","ND","ND","ND","ND","ND","ND","ND","ND","0"],
    [43514,"2015-04-23T21:00:00","52","ND","ND","ND","ND","ND","ND","ND","ND","ND","ND","0"],
    [43515,"2015-04-23T22:00:00","34","ND","ND","ND","ND","ND","ND","ND","ND","ND","ND","0"],
    [43516,"2015-04-23T23:00:00","80","ND","ND","ND","ND","ND","ND","ND","ND","ND","ND","0"],
    [43517,"2015-04-24T00:00:00","75","ND","ND","ND","ND","ND","ND","ND","ND","ND","ND","0"],
    [43518,"2015-04-24T01:00:00","63","ND","ND","ND","ND","ND","ND","ND","ND","ND","ND","0"],
    [43519,"2015-04-24T02:00:00","45","ND","ND","ND","ND","ND","ND","ND","ND","ND","ND","0"],
    [43520,"2015-04-24T03:00:00","43","ND","ND","ND","ND","ND","ND","ND","ND","ND","ND","0"],
    [43521,"2015-04-24T04:00:00","ND","ND","ND","ND","ND","ND","ND","ND","ND","ND","ND","1.52"],
    [43522,"2015-04-24T05:00:00","28","ND","ND","ND","ND","ND","ND","ND","ND","ND","ND","0.25"],
    [43523,"2015-04-24T06:00:00","78","ND","ND","ND","ND","ND","ND","ND","ND","ND","ND","0"],
    [43524,"2015-04-24T07:00:00","93","ND","ND","ND","ND","ND","ND","ND","ND","ND","ND","0"],
    [43525,"2015-04-24T08:00:00","64","ND","ND","ND","ND","ND","ND","ND","ND","ND","ND","0"],
    [43526,"2015-04-24T09:00:00","89","ND","ND","ND","ND","ND","ND","ND","ND","ND","ND","0"],
    [43527,"2015-04-24T10:00:00","100","ND","ND","ND","ND","ND","ND","ND","ND","ND","ND","0"],
    [43528,"2015-04-24T11:00:00","81","ND","ND","ND","ND","ND","ND","ND","ND","ND","ND","0"],
    [43529,"2015-04-24T12:00:00","62","ND","ND","ND","ND","ND","ND","ND","ND","ND","ND","0"],
    [43530,"2015-04-24T13:00:00","59","ND","ND","ND","ND","ND","ND","ND","ND","ND","ND","0"],
    [43531,"2015-04-24T14:00:00","43","ND","ND","ND","ND","ND","ND","ND","ND","ND","ND","0"],
    [43532,"2015-04-24T15:00:00","23","ND","ND","ND","ND","ND","ND","ND","ND","ND","ND","0"],
    [43533,"2015-04-24T16:00:00","28","ND","ND","ND","ND","ND","ND","ND","ND","ND","ND","0.25"],
    [43534,"2015-04-24T17:00:00","20","ND","ND","ND","ND","ND","ND","ND","ND","ND","ND","0"],
    [43535,"2015-04-24T18:00:00","14","ND","ND","ND","ND","ND","ND","ND","ND","ND","ND","0"],
    [43536,"2015-04-24T19:00:00","16","ND","ND","ND","ND","ND","ND","ND","ND","ND","ND","0"],
    [43537,"2015-04-24T20:00:00","71","ND","ND","ND","ND","ND","ND","ND","ND","ND","ND","0"],
    [43538,"2015-04-24T21:00:00","39","ND","ND","ND","ND","ND","ND","ND","ND","ND","ND","0"],
    [43539,"2015-04-24T22:00:00","55","ND","ND","ND","ND","ND","ND","ND","ND","ND","ND","0"],
    [43540,"2015-04-24T23:00:00","61","ND","ND","ND","ND","ND","ND","ND","ND","ND","ND","0"],
    [43541,"2015-04-25T00:00:00","44","ND","ND","ND","ND","ND","ND","ND","ND","ND","ND","0"],
    [43542,"2015-04-25T01:00:00","61","ND","ND","ND","ND","ND","ND","ND","ND","ND","ND","0"],
    [43543,"2015-04-25T02:00:00","68","ND","ND","ND","ND","ND","ND","ND","ND","ND","ND","0"],
    [43544,"2015-04-25T03:00:00","47","ND","ND","ND","ND","ND","ND","ND","ND","ND","ND","0"],
    [43545,"2015-04-25T04:00:00","111","ND","ND","ND","ND","ND","ND","ND","ND","ND","ND","0"],
    [43546,"2015-04-25T05:00:00","50","ND","ND","ND","ND","ND","ND","ND","ND","ND","ND","0"],
    [43547,"2015-04-25T06:00:00","72","ND","ND","ND","ND","ND","ND","ND","ND","ND","ND","0"],
    [43548,"2015-04-25T07:00:00","65","ND","ND","ND","ND","ND","ND","ND","ND","ND","ND","0"],
    [43549,"2015-04-25T08:00:00","122","ND","ND","ND","ND","ND","ND","ND","ND","ND","ND","0"],
    [43550,"2015-04-25T09:00:00","111","ND","ND","ND","ND","ND","ND","ND","ND","ND","ND","0"],
    [43551,"2015-04-25T10:00:00","99","ND","ND","ND","ND","ND","ND","ND","ND","ND","ND","0"],
    [43552,"2015-04-25T11:00:00","81","ND","ND","ND","ND","ND","ND","ND","ND","ND","ND","0"],
    [43553,"2015-04-25T12:00:00","68","ND","ND","ND","ND","ND","ND","ND","ND","ND","ND","0"],
    [43554,"2015-04-25T13:00:00","38","ND","ND","ND","ND","ND","ND","ND","ND","ND","ND","0"],
    [43555,"2015-04-25T14:00:00","25","ND","ND","ND","ND","ND","ND","ND","ND","ND","ND","0"],
    [43556,"2015-04-25T15:00:00","17","ND","ND","ND","ND","ND","ND","ND","ND","ND","ND","0"],
    [43557,"2015-04-25T16:00:00","19","ND","ND","ND","ND","ND","ND","ND","ND","ND","ND","0"],
    [43558,"2015-04-25T17:00:00","13","ND","ND","ND","ND","ND","ND","ND","ND","ND","ND","0"],
    [43559,"2015-04-25T18:00:00","18","ND","ND","ND","ND","ND","ND","ND","ND","ND","ND","0"],
    [43560,"2015-04-25T19:00:00","25","ND","ND","ND","ND","ND","ND","ND","ND","ND","ND","0"],
    [43561,"2015-04-25T20:00:00","37","ND","ND","ND","ND","ND","ND","ND","ND","ND","ND","0"],
    [43562,"2015-04-25T21:00:00","56","ND","ND","ND","ND","ND","ND","ND","ND","ND","ND","0"],
    [43563,"2015-04-25T22:00:00","31","ND","ND","ND","ND","ND","ND","ND","ND","ND","ND","0"],
    [43564,"2015-04-25T23:00:00","36","ND","ND","ND","ND","ND","ND","ND","ND","ND","ND","0"],
    [43565,"2015-04-26T00:00:00","86","ND","ND","ND","ND","ND","ND","ND","ND","ND","ND","0"],
    [43566,"2015-04-26T01:00:00","70","ND","ND","ND","ND","ND","ND","ND","ND","ND","ND","0"],
    [43567,"2015-04-26T02:00:00","47","ND","ND","ND","ND","ND","ND","ND","ND","ND","ND","0"],
    [43568,"2015-04-26T03:00:00","31","ND","ND","ND","ND","ND","ND","ND","ND","ND","ND","0"],
    [43569,"2015-04-26T04:00:00","59","ND","ND","ND","ND","ND","ND","ND","ND","ND","ND","0"],
    [43570,"2015-04-26T05:00:00","47","ND","ND","ND","ND","ND","ND","ND","ND","ND","ND","0"],
    [43571,"2015-04-26T06:00:00","58","ND","ND","ND","ND","ND","ND","ND","ND","ND","ND","0"],
    [43572,"2015-04-26T07:00:00","49","ND","ND","ND","ND","ND","ND","ND","ND","ND","ND","0"],
    [43573,"2015-04-26T08:00:00","74","ND","ND","ND","ND","ND","ND","ND","ND","ND","ND","0"],
    [43574,"2015-04-26T09:00:00","62","ND","ND","ND","ND","ND","ND","ND","ND","ND","ND","0"],
    [43575,"2015-04-26T10:00:00","44","ND","ND","ND","ND","ND","ND","ND","ND","ND","ND","0"],
    [43576,"2015-04-26T11:00:00","41","ND","ND","ND","ND","ND","ND","ND","ND","ND","ND","0"],
    [43577,"2015-04-26T12:00:00","49","ND","ND","ND","ND","ND","ND","ND","ND","ND","ND","0"],
    [43578,"2015-04-26T13:00:00","39","ND","ND","ND","ND","ND","ND","ND","ND","ND","ND","0"],
    [43579,"2015-04-26T14:00:00","32","ND","ND","ND","ND","ND","ND","ND","ND","ND","ND","0"],
    [43580,"2015-04-26T15:00:00","40","ND","ND","ND","ND","ND","ND","ND","ND","ND","ND","0"],
    [43581,"2015-04-26T16:00:00","37","ND","ND","ND","ND","ND","ND","ND","ND","ND","ND","0"],
    [43582,"2015-04-26T17:00:00","38","ND","ND","ND","ND","ND","ND","ND","ND","ND","ND","0"],
    [43583,"2015-04-26T18:00:00","40","ND","ND","ND","ND","ND","ND","ND","ND","ND","ND","0"],
    [43584,"2015-04-26T19:00:00","39","ND","ND","ND","ND","ND","ND","ND","ND","ND","ND","0"],
    [43585,"2015-04-26T20:00:00","48","ND","ND","ND","ND","ND","ND","ND","ND","ND","ND","0"],
    [43586,"2015-04-26T21:00:00","34","ND","ND","ND","ND","ND","ND","ND","ND","ND","ND","0"],
    [43587,"2015-04-26T22:00:00","48","ND","ND","ND","ND","ND","ND","ND","ND","ND","ND","0"],
    [43588,"2015-04-26T23:00:00","48","ND","ND","ND","ND","ND","ND","ND","ND","ND","ND","0"],
    [43589,"2015-04-27T00:00:00","45","ND","ND","ND","ND","ND","ND","ND","ND","ND","ND","0"],
    [43590,"2015-04-27T01:00:00","51","ND","ND","ND","ND","ND","ND","ND","ND","ND","ND","0"],
    [43591,"2015-04-27T02:00:00","45","ND","ND","ND","ND","ND","ND","ND","ND","ND","ND","0"],
    [43592,"2015-04-27T03:00:00","32","ND","ND","ND","ND","ND","ND","ND","ND","ND","ND","0"],
    [43593,"2015-04-27T04:00:00","34","ND","ND","ND","ND","ND","ND","ND","ND","ND","ND","0"],
    [43594,"2015-04-27T05:00:00","62","ND","ND","ND","ND","ND","ND","ND","ND","ND","ND","0"],
    [43595,"2015-04-27T06:00:00","68","ND","ND","ND","ND","ND","ND","ND","ND","ND","ND","0"],
    [43596,"2015-04-27T07:00:00","116","ND","ND","ND","ND","ND","ND","ND","ND","ND","ND","0"],
    [43597,"2015-04-27T08:00:00","117","ND","ND","ND","ND","ND","ND","ND","ND","ND","ND","0"],
    [43598,"2015-04-27T09:00:00","89","ND","ND","ND","ND","ND","ND","ND","ND","ND","ND","0"],
    [43599,"2015-04-27T10:00:00","100","ND","ND","ND","ND","ND","ND","ND","ND","ND","ND","0"],
    [43600,"2015-04-27T11:00:00","82","ND","ND","ND","ND","ND","ND","ND","ND","ND","ND","0"],
    [43601,"2015-04-27T12:00:00","59","ND","ND","ND","ND","ND","ND","ND","ND","ND","ND","0"],
    [43602,"2015-04-27T13:00:00","62","ND","ND","ND","ND","ND","ND","ND","ND","ND","ND","0"],
    [43603,"2015-04-27T14:00:00","82","ND","ND","ND","ND","ND","ND","ND","ND","ND","ND","0"],
    [43604,"2015-04-27T15:00:00","52","ND","ND","ND","ND","ND","ND","ND","ND","ND","ND","0"],
    [43605,"2015-04-27T16:00:00","36","ND","ND","ND","ND","ND","ND","ND","ND","ND","ND","0"],
    [43606,"2015-04-27T17:00:00","29","ND","ND","ND","ND","ND","ND","ND","ND","ND","ND","0"],
    [43607,"2015-04-27T18:00:00","39","ND","ND","ND","ND","ND","ND","ND","ND","ND","ND","0"],
    [43608,"2015-04-27T19:00:00","42","ND","ND","ND","ND","ND","ND","ND","ND","ND","ND","0"],
    [43609,"2015-04-27T20:00:00","42","ND","ND","ND","ND","ND","ND","ND","ND","ND","ND","0"],
    [43610,"2015-04-27T21:00:00","38","ND","ND","ND","ND","ND","ND","ND","ND","ND","ND","0"],
    [43611,"2015-04-27T22:00:00","68","ND","ND","ND","ND","ND","ND","ND","ND","ND","ND","0"],
    [43612,"2015-04-27T23:00:00","51","ND","ND","ND","ND","ND","ND","ND","ND","ND","ND","0"],
    [43613,"2015-04-28T00:00:00","64","ND","ND","ND","ND","ND","ND","ND","ND","ND","ND","0"],
    [43614,"2015-04-28T01:00:00","55","ND","ND","ND","ND","ND","ND","ND","ND","ND","ND","0"],
    [43615,"2015-04-28T02:00:00","43","ND","ND","ND","ND","ND","ND","ND","ND","ND","ND","0"],
    [43616,"2015-04-28T03:00:00","54","ND","ND","ND","ND","ND","ND","ND","ND","ND","ND","0"],
    [43617,"2015-04-28T04:00:00","74","ND","ND","ND","ND","ND","ND","ND","ND","ND","ND","0"],
    [43618,"2015-04-28T05:00:00","58","ND","ND","ND","ND","ND","ND","ND","ND","ND","ND","0"],
    [43619,"2015-04-28T06:00:00","56","ND","ND","ND","ND","ND","ND","ND","ND","ND","ND","0"],
    [43620,"2015-04-28T07:00:00","107","ND","ND","ND","ND","ND","ND","ND","ND","ND","ND","0"],
    [43621,"2015-04-28T08:00:00","111","ND","ND","ND","ND","ND","ND","ND","ND","ND","ND","0"],
    [43622,"2015-04-28T09:00:00","88","ND","ND","ND","ND","ND","ND","ND","ND","ND","ND","0"],
    [43623,"2015-04-28T10:00:00","58","ND","ND","ND","ND","ND","ND","ND","ND","ND","ND","0"],
    [43624,"2015-04-28T11:00:00","66","ND","ND","ND","ND","ND","ND","ND","ND","ND","ND","0"],
    [43625,"2015-04-28T12:00:00","70","ND","ND","ND","ND","ND","ND","ND","ND","ND","ND","0"],
    [43626,"2015-04-28T13:00:00","74","ND","ND","ND","ND","ND","ND","ND","ND","ND","ND","0"],
    [43627,"2015-04-28T14:00:00","56","ND","ND","ND","ND","ND","ND","ND","ND","ND","ND","0"],
    [43628,"2015-04-28T15:00:00","46","ND","ND","ND","ND","ND","ND","ND","ND","ND","ND","0"],
    [43629,"2015-04-28T16:00:00","30","ND","ND","ND","ND","ND","ND","ND","ND","ND","ND","0"],
    [43630,"2015-04-28T17:00:00","35","ND","ND","ND","ND","ND","ND","ND","ND","ND","ND","0"],
    [43631,"2015-04-28T18:00:00","29","ND","ND","ND","ND","ND","ND","ND","ND","ND","ND","0"],
    [43632,"2015-04-28T19:00:00","32","ND","ND","ND","ND","ND","ND","ND","ND","ND","ND","0"],
    [43633,"2015-04-28T20:00:00","80","ND","ND","ND","ND","ND","ND","ND","ND","ND","ND","0"],
    [43634,"2015-04-28T21:00:00","58","ND","ND","ND","ND","ND","ND","ND","ND","ND","ND","0"],
    [43635,"2015-04-28T22:00:00","80","ND","ND","ND","ND","ND","ND","ND","ND","ND","ND","0"],
    [43636,"2015-04-28T23:00:00","36","ND","ND","ND","ND","ND","ND","ND","ND","ND","ND","0"],
    [43637,"2015-04-29T00:00:00","74","ND","ND","ND","ND","ND","ND","ND","ND","ND","ND","0"],
    [43638,"2015-04-29T01:00:00","50","ND","ND","ND","ND","ND","ND","ND","ND","ND","ND","0"],
    [43639,"2015-04-29T02:00:00","39","ND","ND","ND","ND","ND","ND","ND","ND","ND","ND","0"],
    [43640,"2015-04-29T03:00:00","48","ND","ND","ND","ND","ND","ND","ND","ND","ND","ND","0"],
    [43641,"2015-04-29T04:00:00","50","ND","ND","ND","ND","ND","ND","ND","ND","ND","ND","0"],
    [43642,"2015-04-29T05:00:00","41","ND","ND","ND","ND","ND","ND","ND","ND","ND","ND","0"],
    [43643,"2015-04-29T06:00:00","81","ND","ND","ND","ND","ND","ND","ND","ND","ND","ND","0"],
    [43644,"2015-04-29T07:00:00","116","ND","ND","ND","ND","ND","ND","ND","ND","ND","ND","0"],
    [43645,"2015-04-29T08:00:00","102","ND","ND","ND","ND","ND","ND","ND","ND","ND","ND","0"],
    [43646,"2015-04-29T09:00:00","87","ND","ND","ND","ND","ND","ND","ND","ND","ND","ND","0"],
    [43647,"2015-04-29T10:00:00","79","ND","ND","ND","ND","ND","ND","ND","ND","ND","ND","0"],
    [43648,"2015-04-29T11:00:00","65","ND","ND","ND","ND","ND","ND","ND","ND","ND","ND","0"],
    [43649,"2015-04-29T12:00:00","56","ND","ND","ND","ND","ND","ND","ND","ND","ND","ND","0"],
    [43650,"2015-04-29T13:00:00","68","ND","ND","ND","ND","ND","ND","ND","ND","ND","ND","0"],
    [43651,"2015-04-29T14:00:00","57","ND","ND","ND","ND","ND","ND","ND","ND","ND","ND","0"],
    [43652,"2015-04-29T15:00:00","61","ND","ND","ND","ND","ND","ND","ND","ND","ND","ND","0"],
    [43653,"2015-04-29T16:00:00","44","ND","ND","ND","ND","ND","ND","ND","ND","ND","ND","0"],
    [43654,"2015-04-29T17:00:00","34","ND","ND","ND","ND","ND","ND","ND","ND","ND","ND","0"],
    [43655,"2015-04-29T18:00:00","42","ND","ND","ND","ND","ND","ND","ND","ND","ND","ND","0"],
    [43656,"2015-04-29T19:00:00","44","ND","ND","ND","ND","ND","ND","ND","ND","ND","ND","0"],
    [43657,"2015-04-29T20:00:00","33","ND","ND","ND","ND","ND","ND","ND","ND","ND","ND","0"],
    [43658,"2015-04-29T21:00:00","70","ND","ND","ND","ND","ND","ND","ND","ND","ND","ND","0"],
    [43659,"2015-04-29T22:00:00","51","ND","ND","ND","ND","ND","ND","ND","ND","ND","ND","0"],
    [43660,"2015-04-29T23:00:00","146","ND","ND","ND","ND","ND","ND","ND","ND","ND","ND","0"],
    [43661,"2015-04-30T00:00:00","143","ND","ND","ND","ND","ND","ND","ND","ND","ND","ND","0"],
    [43662,"2015-04-30T01:00:00","75","ND","ND","ND","ND","ND","ND","ND","ND","ND","ND","0"],
    [43663,"2015-04-30T02:00:00","65","ND","ND","ND","ND","ND","ND","ND","ND","ND","ND","0"],
    [43664,"2015-04-30T03:00:00","59","ND","ND","ND","ND","ND","ND","ND","ND","ND","ND","0"],
    [43665,"2015-04-30T04:00:00","70","ND","ND","ND","ND","ND","ND","ND","ND","ND","ND","0"],
    [43666,"2015-04-30T05:00:00","56","ND","ND","ND","ND","ND","ND","ND","ND","ND","ND","0"],
    [43667,"2015-04-30T06:00:00","94","ND","ND","ND","ND","ND","ND","ND","ND","ND","ND","0"],
    [43668,"2015-04-30T07:00:00","107","ND","ND","ND","ND","ND","ND","ND","ND","ND","ND","0"],
    [43669,"2015-04-30T08:00:00","94","ND","ND","ND","ND","ND","ND","ND","ND","ND","ND","0"],
    [43670,"2015-04-30T09:00:00","145","ND","ND","ND","ND","ND","ND","ND","ND","ND","ND","0"],
    [43671,"2015-04-30T10:00:00","97","ND","ND","ND","ND","ND","ND","ND","ND","ND","ND","0"],
    [43672,"2015-04-30T11:00:00","71","ND","ND","ND","ND","ND","ND","ND","ND","ND","ND","0"],
    [43673,"2015-04-30T12:00:00","55","ND","ND","ND","ND","ND","ND","ND","ND","ND","ND","0"],
    [43674,"2015-04-30T13:00:00","54","ND","ND","ND","ND","ND","ND","ND","ND","ND","ND","0"],
    [43675,"2015-04-30T14:00:00","53","ND","ND","ND","ND","ND","ND","ND","ND","ND","ND","0"],
    [43676,"2015-04-30T15:00:00","42","ND","ND","ND","ND","ND","ND","ND","ND","ND","ND","0"],
    [43677,"2015-04-30T16:00:00","48","ND","ND","ND","ND","ND","ND","ND","ND","ND","ND","0"],
    [43678,"2015-04-30T17:00:00","27","ND","ND","ND","ND","ND","ND","ND","ND","ND","ND","0"],
    [43679,"2015-04-30T18:00:00","29","ND","ND","ND","ND","ND","ND","ND","ND","ND","ND","0"],
    [43680,"2015-04-30T19:00:00","20","ND","ND","ND","ND","ND","ND","ND","ND","ND","ND","0"],
    [43681,"2015-04-30T20:00:00","65","ND","ND","ND","ND","ND","ND","ND","ND","ND","ND","0"],
    [43682,"2015-04-30T21:00:00","55","ND","ND","ND","ND","ND","ND","ND","ND","ND","ND","0"],
    [43683,"2015-04-30T22:00:00","51","ND","ND","ND","ND","ND","ND","ND","ND","ND","ND","0"],
    [43684,"2015-04-30T23:00:00","67","ND","ND","ND","ND","ND","ND","ND","ND","ND","ND","0"],
    [43685,"2015-05-01T00:00:00","36","ND","ND","ND","ND","ND","ND","ND","ND","ND","ND","0"],
    [43686,"2015-05-01T01:00:00","46","ND","ND","ND","ND","ND","ND","ND","ND","ND","ND","0"],
    [43687,"2015-05-01T02:00:00","35","ND","ND","ND","ND","ND","ND","ND","ND","ND","ND","0"],
    [43688,"2015-05-01T03:00:00","35","ND","ND","ND","ND","ND","ND","ND","ND","ND","ND","0"],
    [43689,"2015-05-01T04:00:00","32","ND","ND","ND","ND","ND","ND","ND","ND","ND","ND","0"],
    [43690,"2015-05-01T05:00:00","30","ND","ND","ND","ND","ND","ND","ND","ND","ND","ND","0"],
    [43691,"2015-05-01T06:00:00","17","ND","ND","ND","ND","ND","ND","ND","ND","ND","ND","0"],
    [43692,"2015-05-01T07:00:00","52","ND","ND","ND","ND","ND","ND","ND","ND","ND","ND","0"],
    [43693,"2015-05-01T08:00:00","42","ND","ND","ND","ND","ND","ND","ND","ND","ND","ND","0"],
    [43694,"2015-05-01T09:00:00","31","ND","ND","ND","ND","ND","ND","ND","ND","ND","ND","0"],
    [43695,"2015-05-01T10:00:00","21","ND","ND","ND","ND","ND","ND","ND","ND","ND","ND","0"],
    [43696,"2015-05-01T11:00:00","25","ND","ND","ND","ND","ND","ND","ND","ND","ND","ND","0"],
    [43697,"2015-05-01T12:00:00","21","ND","ND","ND","ND","ND","ND","ND","ND","ND","ND","0"],
    [43698,"2015-05-01T13:00:00","25","ND","ND","ND","ND","ND","ND","ND","ND","ND","ND","0"],
    [43699,"2015-05-01T14:00:00","42","ND","ND","ND","ND","ND","ND","ND","ND","ND","ND","0"],
    [43700,"2015-05-01T15:00:00","36","ND","ND","ND","ND","ND","ND","ND","ND","ND","ND","0"],
    [43701,"2015-05-01T16:00:00","38","ND","ND","ND","ND","ND","ND","ND","ND","ND","ND","0"],
    [43702,"2015-05-01T17:00:00","35","ND","ND","ND","ND","ND","ND","ND","ND","ND","ND","0"],
    [43703,"2015-05-01T18:00:00","34","ND","ND","ND","ND","ND","ND","ND","ND","ND","ND","0"],
    [43704,"2015-05-01T19:00:00","50","ND","ND","ND","ND","ND","ND","ND","ND","ND","ND","0"],
    [43705,"2015-05-01T20:00:00","40","ND","ND","ND","ND","ND","ND","ND","ND","ND","ND","0"],
    [43706,"2015-05-01T21:00:00","54","ND","ND","ND","ND","ND","ND","ND","ND","ND","ND","0"],
    [43707,"2015-05-01T22:00:00","90","ND","ND","ND","ND","ND","ND","ND","ND","ND","ND","0"],
    [43708,"2015-05-01T23:00:00","69","ND","ND","ND","ND","ND","ND","ND","ND","ND","ND","0"],
    [43709,"2015-05-02T00:00:00","54","ND","ND","ND","ND","ND","ND","ND","ND","ND","ND","0"],
    [43710,"2015-05-02T01:00:00","39","ND","ND","ND","ND","ND","ND","ND","ND","ND","ND","0"],
    [43711,"2015-05-02T02:00:00","46","ND","ND","ND","ND","ND","ND","ND","ND","ND","ND","0"],
    [43712,"2015-05-02T03:00:00","37","ND","ND","ND","ND","ND","ND","ND","ND","ND","ND","0"],
    [43713,"2015-05-02T04:00:00","20","ND","ND","ND","ND","ND","ND","ND","ND","ND","ND","0"],
    [43714,"2015-05-02T05:00:00","55","ND","ND","ND","ND","ND","ND","ND","ND","ND","ND","0"],
    [43715,"2015-05-02T06:00:00","68","ND","ND","ND","ND","ND","ND","ND","ND","ND","ND","0"],
    [43716,"2015-05-02T07:00:00","68","ND","ND","ND","ND","ND","ND","ND","ND","ND","ND","0"],
    [43717,"2015-05-02T08:00:00","117","ND","ND","ND","ND","ND","ND","ND","ND","ND","ND","0"],
    [43718,"2015-05-02T09:00:00","125","ND","ND","ND","ND","ND","ND","ND","ND","ND","ND","0"],
    [43719,"2015-05-02T10:00:00","62","ND","ND","ND","ND","ND","ND","ND","ND","ND","ND","0"],
    [43720,"2015-05-02T11:00:00","64","ND","ND","ND","ND","ND","ND","ND","ND","ND","ND","0"],
    [43721,"2015-05-02T12:00:00","49","ND","ND","ND","ND","ND","ND","ND","ND","ND","ND","0"],
    [43722,"2015-05-02T13:00:00","61","ND","ND","ND","ND","ND","ND","ND","ND","ND","ND","0"],
    [43723,"2015-05-02T14:00:00","49","ND","ND","ND","ND","ND","ND","ND","ND","ND","ND","0"],
    [43724,"2015-05-02T15:00:00","37","ND","ND","ND","ND","ND","ND","ND","ND","ND","ND","0"],
    [43725,"2015-05-02T16:00:00","16","ND","ND","ND","ND","ND","ND","ND","ND","ND","ND","0"],
    [43726,"2015-05-02T17:00:00","16","ND","ND","ND","ND","ND","ND","ND","ND","ND","ND","0"],
    [43727,"2015-05-02T18:00:00","20","ND","ND","ND","ND","ND","ND","ND","ND","ND","ND","0"],
    [43728,"2015-05-02T19:00:00","27","ND","ND","ND","ND","ND","ND","ND","ND","ND","ND","0"],
    [43729,"2015-05-02T20:00:00","17","ND","ND","ND","ND","ND","ND","ND","ND","ND","ND","0"],
    [43730,"2015-05-02T21:00:00","18","ND","ND","ND","ND","ND","ND","ND","ND","ND","ND","0"],
    [43731,"2015-05-02T22:00:00","46","ND","ND","ND","ND","ND","ND","ND","ND","ND","ND","0"],
    [43732,"2015-05-02T23:00:00","51","ND","ND","ND","ND","ND","ND","ND","ND","ND","ND","0"],
    [43733,"2015-05-03T00:00:00","41","ND","ND","ND","ND","ND","ND","ND","ND","ND","ND","0"],
    [43734,"2015-05-03T01:00:00","48","ND","ND","ND","ND","ND","ND","ND","ND","ND","ND","0"],
    [43735,"2015-05-03T02:00:00","44","ND","ND","ND","ND","ND","ND","ND","ND","ND","ND","0"],
    [43736,"2015-05-03T03:00:00","42","ND","ND","ND","ND","ND","ND","ND","ND","ND","ND","0"],
    [43737,"2015-05-03T04:00:00","34","ND","ND","ND","ND","ND","ND","ND","ND","ND","ND","0"],
    [43738,"2015-05-03T05:00:00","37","ND","ND","ND","ND","ND","ND","ND","ND","ND","ND","0"],
    [43739,"2015-05-03T06:00:00","44","ND","ND","ND","ND","ND","ND","ND","ND","ND","ND","24.89"],
    [43740,"2015-05-03T07:00:00","6","ND","ND","ND","ND","ND","ND","ND","ND","ND","ND","8.89"],
    [43741,"2015-05-03T08:00:00","2","ND","ND","ND","ND","ND","ND","ND","ND","ND","ND","2.29"],
    [43742,"2015-05-03T09:00:00","7","ND","ND","ND","ND","ND","ND","ND","ND","ND","ND","0.25"],
    [43743,"2015-05-03T10:00:00","7","ND","ND","ND","ND","ND","ND","ND","ND","ND","ND","0"],
    [43744,"2015-05-03T11:00:00","6","ND","ND","ND","ND","ND","ND","ND","ND","ND","ND","0"],
    [43745,"2015-05-03T12:00:00","11","ND","ND","ND","ND","ND","ND","ND","ND","ND","ND","0"],
    [43746,"2015-05-03T13:00:00","7","ND","ND","ND","ND","ND","ND","ND","ND","ND","ND","0"],
    [43747,"2015-05-03T14:00:00","17","ND","ND","ND","ND","ND","ND","ND","ND","ND","ND","0"],
    [43748,"2015-05-03T15:00:00","15","ND","ND","ND","ND","ND","ND","ND","ND","ND","ND","0"],
    [43749,"2015-05-03T16:00:00","19","ND","ND","ND","ND","ND","ND","ND","ND","ND","ND","0"],
    [43750,"2015-05-03T17:00:00","20","ND","ND","ND","ND","ND","ND","ND","ND","ND","ND","0"],
    [43751,"2015-05-03T18:00:00","20","ND","ND","ND","ND","ND","ND","ND","ND","ND","ND","0"],
    [43752,"2015-05-03T19:00:00","15","ND","ND","ND","ND","ND","ND","ND","ND","ND","ND","0"],
    [43753,"2015-05-03T20:00:00","30","ND","ND","ND","ND","ND","ND","ND","ND","ND","ND","0"],
    [43754,"2015-05-03T21:00:00","25","ND","ND","ND","ND","ND","ND","ND","ND","ND","ND","0"],
    [43755,"2015-05-03T22:00:00","38","ND","ND","ND","ND","ND","ND","ND","ND","ND","ND","0"],
    [43756,"2015-05-03T23:00:00","42","ND","ND","ND","ND","ND","ND","ND","ND","ND","ND","0"],
    [43757,"2015-05-04T00:00:00","40","ND","ND","ND","ND","ND","ND","ND","ND","ND","ND","0"],
    [43758,"2015-05-04T01:00:00","59","ND","ND","ND","ND","ND","ND","ND","ND","ND","ND","0"],
    [43759,"2015-05-04T02:00:00","32","ND","ND","ND","ND","ND","ND","ND","ND","ND","ND","0"],
    [43760,"2015-05-04T03:00:00","36","ND","ND","ND","ND","ND","ND","ND","ND","ND","ND","0"],
    [43761,"2015-05-04T04:00:00","32","ND","ND","ND","ND","ND","ND","ND","ND","ND","ND","0"],
    [43762,"2015-05-04T05:00:00","35","ND","ND","ND","ND","ND","ND","ND","ND","ND","ND","0"],
    [43763,"2015-05-04T06:00:00","42","ND","ND","ND","ND","ND","ND","ND","ND","ND","ND","0"],
    [43764,"2015-05-04T07:00:00","79","ND","ND","ND","ND","ND","ND","ND","ND","ND","ND","0"],
    [43765,"2015-05-04T08:00:00","83","ND","ND","ND","ND","ND","ND","ND","ND","ND","ND","0"],
    [43766,"2015-05-04T09:00:00","74","ND","ND","ND","ND","ND","ND","ND","ND","ND","ND","0"],
    [43767,"2015-05-04T10:00:00","49","ND","ND","ND","ND","ND","ND","ND","ND","ND","ND","0"],
    [43768,"2015-05-04T11:00:00","35","ND","ND","ND","ND","ND","ND","ND","ND","ND","ND","0"],
    [43769,"2015-05-04T12:00:00","22","ND","ND","ND","ND","ND","ND","ND","ND","ND","ND","0"],
    [43770,"2015-05-04T13:00:00","30","ND","ND","ND","ND","ND","ND","ND","ND","ND","ND","0"],
    [43771,"2015-05-04T14:00:00","50","ND","ND","ND","ND","ND","ND","ND","ND","ND","ND","0"],
    [43772,"2015-05-04T15:00:00","45","ND","ND","ND","ND","ND","ND","ND","ND","ND","ND","0"],
    [43773,"2015-05-04T16:00:00","25","ND","ND","ND","ND","ND","ND","ND","ND","ND","ND","0"],
    [43774,"2015-05-04T17:00:00","11","ND","ND","ND","ND","ND","ND","ND","ND","ND","ND","0"],
    [43775,"2015-05-04T18:00:00","18","ND","ND","ND","ND","ND","ND","ND","ND","ND","ND","0"],
    [43776,"2015-05-04T19:00:00","38","ND","ND","ND","ND","ND","ND","ND","ND","ND","ND","0"],
    [43777,"2015-05-04T20:00:00","45","ND","ND","ND","ND","ND","ND","ND","ND","ND","ND","0"],
    [43778,"2015-05-04T21:00:00","25","ND","ND","ND","ND","ND","ND","ND","ND","ND","ND","0"],
    [43779,"2015-05-04T22:00:00","82","ND","ND","ND","ND","ND","ND","ND","ND","ND","ND","0"],
    [43780,"2015-05-04T23:00:00","54","ND","ND","ND","ND","ND","ND","ND","ND","ND","ND","0"],
    [43781,"2015-05-05T00:00:00","40","ND","ND","ND","ND","ND","ND","ND","ND","ND","ND","0"],
    [43782,"2015-05-05T01:00:00","63","ND","ND","ND","ND","ND","ND","ND","ND","ND","ND","0"],
    [43783,"2015-05-05T02:00:00","50","ND","ND","ND","ND","ND","ND","ND","ND","ND","ND","0"],
    [43784,"2015-05-05T03:00:00","42","ND","ND","ND","ND","ND","ND","ND","ND","ND","ND","0"],
    [43785,"2015-05-05T04:00:00","82","ND","ND","ND","ND","ND","ND","ND","ND","ND","ND","0"],
    [43786,"2015-05-05T05:00:00","48","ND","ND","ND","ND","ND","ND","ND","ND","ND","ND","0"],
    [43787,"2015-05-05T06:00:00","60","ND","ND","ND","ND","ND","ND","ND","ND","ND","ND","0"],
    [43788,"2015-05-05T07:00:00","102","ND","ND","ND","ND","ND","ND","ND","ND","ND","ND","0"],
    [43789,"2015-05-05T08:00:00","142","ND","ND","ND","ND","ND","ND","ND","ND","ND","ND","0"],
    [43790,"2015-05-05T09:00:00","105","ND","ND","ND","ND","ND","ND","ND","ND","ND","ND","0"],
    [43791,"2015-05-05T10:00:00","47","ND","ND","ND","ND","ND","ND","ND","ND","ND","ND","0"],
    [43792,"2015-05-05T11:00:00","36","ND","ND","ND","ND","ND","ND","ND","ND","ND","ND","0"],
    [43793,"2015-05-05T12:00:00","38","ND","ND","ND","ND","ND","ND","ND","ND","ND","ND","0"],
    [43794,"2015-05-05T13:00:00","38","ND","ND","ND","ND","ND","ND","ND","ND","ND","ND","0"],
    [43795,"2015-05-05T14:00:00","45","ND","ND","ND","ND","ND","ND","ND","ND","ND","ND","0"],
    [43796,"2015-05-05T15:00:00","65","ND","ND","ND","ND","ND","ND","ND","ND","ND","ND","0"],
    [43797,"2015-05-05T16:00:00","51","ND","ND","ND","ND","ND","ND","ND","ND","ND","ND","0"],
    [43798,"2015-05-05T17:00:00","17","ND","ND","ND","ND","ND","ND","ND","ND","ND","ND","0"],
    [43799,"2015-05-05T18:00:00","26","ND","ND","ND","ND","ND","ND","ND","ND","ND","ND","0"],
    [43800,"2015-05-05T19:00:00","32","ND","ND","ND","ND","ND","ND","ND","ND","ND","ND","0"],
    [43801,"2015-05-05T20:00:00","42","ND","ND","ND","ND","ND","ND","ND","ND","ND","ND","0"],
    [43802,"2015-05-05T21:00:00","37","ND","ND","ND","ND","ND","ND","ND","ND","ND","ND","0"],
    [43803,"2015-05-05T22:00:00","32","ND","ND","ND","ND","ND","ND","ND","ND","ND","ND","0"],
    [43804,"2015-05-05T23:00:00","31","ND","ND","ND","ND","ND","ND","ND","ND","ND","ND","0"],
    [43805,"2015-05-06T00:00:00","66","ND","ND","ND","ND","ND","ND","ND","ND","ND","ND","0"],
    [43806,"2015-05-06T01:00:00","45","ND","ND","ND","ND","ND","ND","ND","ND","ND","ND","0"],
    [43807,"2015-05-06T02:00:00","51","ND","ND","ND","ND","ND","ND","ND","ND","ND","ND","0"],
    [43808,"2015-05-06T03:00:00","47","ND","ND","ND","ND","ND","ND","ND","ND","ND","ND","0"],
    [43809,"2015-05-06T04:00:00","48","ND","ND","ND","ND","ND","ND","ND","ND","ND","ND","0"],
    [43810,"2015-05-06T05:00:00","40","ND","ND","ND","ND","ND","ND","ND","ND","ND","ND","0"],
    [43811,"2015-05-06T06:00:00","77","ND","ND","ND","ND","ND","ND","ND","ND","ND","ND","1.78"],
    [43812,"2015-05-06T07:00:00","14","ND","ND","ND","ND","ND","ND","ND","ND","ND","ND","64.77"],
    [43813,"2015-05-06T08:00:00","11","ND","ND","ND","ND","ND","ND","ND","ND","ND","ND","6.35"],
    [43814,"2015-05-06T09:00:00","49","ND","ND","ND","ND","ND","ND","ND","ND","ND","ND","0.25"],
    [43815,"2015-05-06T10:00:00","49","ND","ND","ND","ND","ND","ND","ND","ND","ND","ND","0"],
    [43816,"2015-05-06T11:00:00","35","ND","ND","ND","ND","ND","ND","ND","ND","ND","ND","0"],
    [43817,"2015-05-06T12:00:00","54","ND","ND","ND","ND","ND","ND","ND","ND","ND","ND","0"],
    [43818,"2015-05-06T13:00:00","51","ND","ND","ND","ND","ND","ND","ND","ND","ND","ND","0"],
    [43819,"2015-05-06T14:00:00","56","ND","ND","ND","ND","ND","ND","ND","ND","ND","ND","0"],
    [43820,"2015-05-06T15:00:00","42","ND","ND","ND","ND","ND","ND","ND","ND","ND","ND","0"],
    [43821,"2015-05-06T16:00:00","54","ND","ND","ND","ND","ND","ND","ND","ND","ND","ND","0"],
    [43822,"2015-05-06T17:00:00","43","ND","ND","ND","ND","ND","ND","ND","ND","ND","ND","0"],
    [43823,"2015-05-06T18:00:00","ND","ND","ND","ND","ND","ND","ND","ND","ND","ND","ND","7.87"],
    [43824,"2015-05-06T19:00:00","20","ND","ND","ND","ND","ND","ND","ND","ND","ND","ND","2.29"],
    [43825,"2015-05-06T20:00:00","31","ND","ND","ND","ND","ND","ND","ND","ND","ND","ND","0"],
    [43826,"2015-05-06T21:00:00","47","ND","ND","ND","ND","ND","ND","ND","ND","ND","ND","0.25"],
    [43827,"2015-05-06T22:00:00","38","ND","ND","ND","ND","ND","ND","ND","ND","ND","ND","0.25"],
    [43828,"2015-05-06T23:00:00","40","ND","ND","ND","ND","ND","ND","ND","ND","ND","ND","0"],
    [43829,"2015-05-07T00:00:00","54","ND","ND","ND","ND","ND","ND","ND","ND","ND","ND","0"],
    [43830,"2015-05-07T01:00:00","39","ND","ND","ND","ND","ND","ND","ND","ND","ND","ND","0"],
    [43831,"2015-05-07T02:00:00","43","ND","ND","ND","ND","ND","ND","ND","ND","ND","ND","0"],
    [43832,"2015-05-07T03:00:00","ND","ND","ND","ND","ND","ND","ND","ND","ND","ND","ND","0"],
    [43833,"2015-05-07T04:00:00","ND","ND","ND","ND","ND","ND","ND","ND","ND","ND","ND","0"],
    [43834,"2015-05-07T05:00:00","48","ND","ND","ND","ND","ND","ND","ND","ND","ND","ND","0"],
    [43835,"2015-05-07T06:00:00","66","ND","ND","ND","ND","ND","ND","ND","ND","ND","ND","0"],
    [43836,"2015-05-07T07:00:00","76","ND","ND","ND","ND","ND","ND","ND","ND","ND","ND","0"],
    [43837,"2015-05-07T08:00:00","88","ND","ND","ND","ND","ND","ND","ND","ND","ND","ND","0"],
    [43838,"2015-05-07T09:00:00","57","ND","ND","ND","ND","ND","ND","ND","ND","ND","ND","0"],
    [43839,"2015-05-07T10:00:00","65","ND","ND","ND","ND","ND","ND","ND","ND","ND","ND","0"],
    [43840,"2015-05-07T11:00:00","47","ND","ND","ND","ND","ND","ND","ND","ND","ND","ND","0"],
    [43841,"2015-05-07T12:00:00","49","ND","ND","ND","ND","ND","ND","ND","ND","ND","ND","0"],
    [43842,"2015-05-07T13:00:00","57","ND","ND","ND","ND","ND","ND","ND","ND","ND","ND","0"],
    [43843,"2015-05-07T14:00:00","59","ND","ND","ND","ND","ND","ND","ND","ND","ND","ND","0"],
    [43844,"2015-05-07T15:00:00","36","ND","ND","ND","ND","ND","ND","ND","ND","ND","ND","0"],
    [43845,"2015-05-07T16:00:00","ND","ND","ND","ND","ND","ND","ND","ND","ND","ND","ND","0"],
    [43846,"2015-05-07T17:00:00","17","ND","ND","ND","ND","ND","ND","ND","ND","ND","ND","0"],
    [43847,"2015-05-07T18:00:00","26","ND","ND","ND","ND","ND","ND","ND","ND","ND","ND","0"],
    [43848,"2015-05-07T19:00:00","21","ND","ND","ND","ND","ND","ND","ND","ND","ND","ND","0"],
    [43849,"2015-05-07T20:00:00","96","ND","ND","ND","ND","ND","ND","ND","ND","ND","ND","0"],
    [43850,"2015-05-07T21:00:00","75","ND","ND","ND","ND","ND","ND","ND","ND","ND","ND","0"],
    [43851,"2015-05-07T22:00:00","54","ND","ND","ND","ND","ND","ND","ND","ND","ND","ND","0"],
    [43852,"2015-05-07T23:00:00","65","ND","ND","ND","ND","ND","ND","ND","ND","ND","ND","0"],
    [43853,"2015-05-08T00:00:00","50","ND","ND","ND","ND","ND","ND","ND","ND","ND","ND","0"],
    [43854,"2015-05-08T01:00:00","43","ND","ND","ND","ND","ND","ND","ND","ND","ND","ND","0"],
    [43855,"2015-05-08T02:00:00","37","ND","ND","ND","ND","ND","ND","ND","ND","ND","ND","0"],
    [43856,"2015-05-08T03:00:00","76","ND","ND","ND","ND","ND","ND","ND","ND","ND","ND","0"],
    [43857,"2015-05-08T04:00:00","76","ND","ND","ND","ND","ND","ND","ND","ND","ND","ND","0"],
    [43858,"2015-05-08T05:00:00","69","ND","ND","ND","ND","ND","ND","ND","ND","ND","ND","0"],
    [43859,"2015-05-08T06:00:00","72","ND","ND","ND","ND","ND","ND","ND","ND","ND","ND","0"],
    [43860,"2015-05-08T07:00:00","85","ND","ND","ND","ND","ND","ND","ND","ND","ND","ND","0"],
    [43861,"2015-05-08T08:00:00","130","ND","ND","ND","ND","ND","ND","ND","ND","ND","ND","0"],
    [43862,"2015-05-08T09:00:00","115","ND","ND","ND","ND","ND","ND","ND","ND","ND","ND","0"],
    [43863,"2015-05-08T10:00:00","72","ND","ND","ND","ND","ND","ND","ND","ND","ND","ND","0"],
    [43864,"2015-05-08T11:00:00","75","ND","ND","ND","ND","ND","ND","ND","ND","ND","ND","0"],
    [43865,"2015-05-08T12:00:00","54","ND","ND","ND","ND","ND","ND","ND","ND","ND","ND","0"],
    [43866,"2015-05-08T13:00:00","72","ND","ND","ND","ND","ND","ND","ND","ND","ND","ND","0"],
    [43867,"2015-05-08T14:00:00","66","ND","ND","ND","ND","ND","ND","ND","ND","ND","ND","0"],
    [43868,"2015-05-08T15:00:00","61","ND","ND","ND","ND","ND","ND","ND","ND","ND","ND","0"],
    [43869,"2015-05-08T16:00:00","38","ND","ND","ND","ND","ND","ND","ND","ND","ND","ND","0"],
    [43870,"2015-05-08T17:00:00","50","ND","ND","ND","ND","ND","ND","ND","ND","ND","ND","0"],
    [43871,"2015-05-08T18:00:00","82","ND","ND","ND","ND","ND","ND","ND","ND","ND","ND","0"],
    [43872,"2015-05-08T19:00:00","40","ND","ND","ND","ND","ND","ND","ND","ND","ND","ND","0"],
    [43873,"2015-05-08T20:00:00","54","ND","ND","ND","ND","ND","ND","ND","ND","ND","ND","0"],
    [43874,"2015-05-08T21:00:00","58","ND","ND","ND","ND","ND","ND","ND","ND","ND","ND","0"],
    [43875,"2015-05-08T22:00:00","92","ND","ND","ND","ND","ND","ND","ND","ND","ND","ND","0"],
    [43876,"2015-05-08T23:00:00","79","ND","ND","ND","ND","ND","ND","ND","ND","ND","ND","0"],
    [43877,"2015-05-09T00:00:00","106","ND","ND","ND","ND","ND","ND","ND","ND","ND","ND","0"],
    [43878,"2015-05-09T01:00:00","79","ND","ND","ND","ND","ND","ND","ND","ND","ND","ND","0"],
    [43879,"2015-05-09T02:00:00","68","ND","ND","ND","ND","ND","ND","ND","ND","ND","ND","0"],
    [43880,"2015-05-09T03:00:00","87","ND","ND","ND","ND","ND","ND","ND","ND","ND","ND","0"],
    [43881,"2015-05-09T04:00:00","66","ND","ND","ND","ND","ND","ND","ND","ND","ND","ND","0"],
    [43882,"2015-05-09T05:00:00","35","ND","ND","ND","ND","ND","ND","ND","ND","ND","ND","0"],
    [43883,"2015-05-09T06:00:00","43","ND","ND","ND","ND","ND","ND","ND","ND","ND","ND","0"],
    [43884,"2015-05-09T07:00:00","71","ND","ND","ND","ND","ND","ND","ND","ND","ND","ND","0"],
    [43885,"2015-05-09T08:00:00","131","ND","ND","ND","ND","ND","ND","ND","ND","ND","ND","0"],
    [43886,"2015-05-09T09:00:00","ND","ND","ND","ND","ND","ND","ND","ND","ND","ND","ND","0"],
    [43887,"2015-05-09T10:00:00","48","ND","ND","ND","ND","ND","ND","ND","ND","ND","ND","0"],
    [43888,"2015-05-09T11:00:00","60","ND","ND","ND","ND","ND","ND","ND","ND","ND","ND","0"],
    [43889,"2015-05-09T12:00:00","56","ND","ND","ND","ND","ND","ND","ND","ND","ND","ND","0"],
    [43890,"2015-05-09T13:00:00","70","ND","ND","ND","ND","ND","ND","ND","ND","ND","ND","0"],
    [43891,"2015-05-09T14:00:00","76","ND","ND","ND","ND","ND","ND","ND","ND","ND","ND","0"],
    [43892,"2015-05-09T15:00:00","63","ND","ND","ND","ND","ND","ND","ND","ND","ND","ND","0"],
    [43893,"2015-05-09T16:00:00","32","ND","ND","ND","ND","ND","ND","ND","ND","ND","ND","0"],
    [43894,"2015-05-09T17:00:00","23","ND","ND","ND","ND","ND","ND","ND","ND","ND","ND","0"],
    [43895,"2015-05-09T18:00:00","19","ND","ND","ND","ND","ND","ND","ND","ND","ND","ND","0"],
    [43896,"2015-05-09T19:00:00","44","ND","ND","ND","ND","ND","ND","ND","ND","ND","ND","0"],
    [43897,"2015-05-09T20:00:00","44","ND","ND","ND","ND","ND","ND","ND","ND","ND","ND","0"],
    [43898,"2015-05-09T21:00:00","58","ND","ND","ND","ND","ND","ND","ND","ND","ND","ND","0"],
    [43899,"2015-05-09T22:00:00","46","ND","ND","ND","ND","ND","ND","ND","ND","ND","ND","0"],
    [43900,"2015-05-09T23:00:00","51","ND","ND","ND","ND","ND","ND","ND","ND","ND","ND","0"],
    [43901,"2015-05-10T00:00:00","29","ND","ND","ND","ND","ND","ND","ND","ND","ND","ND","0"],
    [43902,"2015-05-10T01:00:00","33","ND","ND","ND","ND","ND","ND","ND","ND","ND","ND","0"],
    [43903,"2015-05-10T02:00:00","35","ND","ND","ND","ND","ND","ND","ND","ND","ND","ND","0"],
    [43904,"2015-05-10T03:00:00","31","ND","ND","ND","ND","ND","ND","ND","ND","ND","ND","0"],
    [43905,"2015-05-10T04:00:00","27","ND","ND","ND","ND","ND","ND","ND","ND","ND","ND","2.54"],
    [43906,"2015-05-10T05:00:00","15","ND","ND","ND","ND","ND","ND","ND","ND","ND","ND","0"],
    [43907,"2015-05-10T06:00:00","18","ND","ND","ND","ND","ND","ND","ND","ND","ND","ND","0.25"],
    [43908,"2015-05-10T07:00:00","29","ND","ND","ND","ND","ND","ND","ND","ND","ND","ND","0"],
    [43909,"2015-05-10T08:00:00","28","ND","ND","ND","ND","ND","ND","ND","ND","ND","ND","0"],
    [43910,"2015-05-10T09:00:00","26","ND","ND","ND","ND","ND","ND","ND","ND","ND","ND","0"],
    [43911,"2015-05-10T10:00:00","36","ND","ND","ND","ND","ND","ND","ND","ND","ND","ND","0"],
    [43912,"2015-05-10T11:00:00","49","ND","ND","ND","ND","ND","ND","ND","ND","ND","ND","0"],
    [43913,"2015-05-10T12:00:00","46","ND","ND","ND","ND","ND","ND","ND","ND","ND","ND","0"],
    [43914,"2015-05-10T13:00:00","54","ND","ND","ND","ND","ND","ND","ND","ND","ND","ND","0"],
    [43915,"2015-05-10T14:00:00","46","ND","ND","ND","ND","ND","ND","ND","ND","ND","ND","0"],
    [43916,"2015-05-10T15:00:00","42","ND","ND","ND","ND","ND","ND","ND","ND","ND","ND","0"],
    [43917,"2015-05-10T16:00:00","22","ND","ND","ND","ND","ND","ND","ND","ND","ND","ND","0"],
    [43918,"2015-05-10T17:00:00","21","ND","ND","ND","ND","ND","ND","ND","ND","ND","ND","0"],
    [43919,"2015-05-10T18:00:00","26","ND","ND","ND","ND","ND","ND","ND","ND","ND","ND","0"],
    [43920,"2015-05-10T19:00:00","26","ND","ND","ND","ND","ND","ND","ND","ND","ND","ND","0"],
    [43921,"2015-05-10T20:00:00","39","ND","ND","ND","ND","ND","ND","ND","ND","ND","ND","0"],
    [43922,"2015-05-10T21:00:00","44","ND","ND","ND","ND","ND","ND","ND","ND","ND","ND","0"],
    [43923,"2015-05-10T22:00:00","33","ND","ND","ND","ND","ND","ND","ND","ND","ND","ND","0"],
    [43924,"2015-05-10T23:00:00","38","ND","ND","ND","ND","ND","ND","ND","ND","ND","ND","0"],
    [43925,"2015-05-11T00:00:00","41","ND","ND","ND","ND","ND","ND","ND","ND","ND","ND","0"],
    [43926,"2015-05-11T01:00:00","29","ND","ND","ND","ND","ND","ND","ND","ND","ND","ND","0"],
    [43927,"2015-05-11T02:00:00","35","ND","ND","ND","ND","ND","ND","ND","ND","ND","ND","0"],
    [43928,"2015-05-11T03:00:00","35","ND","ND","ND","ND","ND","ND","ND","ND","ND","ND","0"],
    [43929,"2015-05-11T04:00:00","23","ND","ND","ND","ND","ND","ND","ND","ND","ND","ND","0"],
    [43930,"2015-05-11T05:00:00","30","ND","ND","ND","ND","ND","ND","ND","ND","ND","ND","0"],
    [43931,"2015-05-11T06:00:00","33","ND","ND","ND","ND","ND","ND","ND","ND","ND","ND","0"],
    [43932,"2015-05-11T07:00:00","59","ND","ND","ND","ND","ND","ND","ND","ND","ND","ND","0"],
    [43933,"2015-05-11T08:00:00","94","ND","ND","ND","ND","ND","ND","ND","ND","ND","ND","0"],
    [43934,"2015-05-11T09:00:00","120","ND","ND","ND","ND","ND","ND","ND","ND","ND","ND","0"],
    [43935,"2015-05-11T10:00:00","98","ND","ND","ND","ND","ND","ND","ND","ND","ND","ND","0"],
    [43936,"2015-05-11T11:00:00","69","ND","ND","ND","ND","ND","ND","ND","ND","ND","ND","0"],
    [43937,"2015-05-11T12:00:00","54","ND","ND","ND","ND","ND","ND","ND","ND","ND","ND","0"],
    [43938,"2015-05-11T13:00:00","58","ND","ND","ND","ND","ND","ND","ND","ND","ND","ND","0"],
    [43939,"2015-05-11T14:00:00","44","ND","ND","ND","ND","ND","ND","ND","ND","ND","ND","0"],
    [43940,"2015-05-11T15:00:00","32","ND","ND","ND","ND","ND","ND","ND","ND","ND","ND","0"],
    [43941,"2015-05-11T16:00:00","28","ND","ND","ND","ND","ND","ND","ND","ND","ND","ND","0"],
    [43942,"2015-05-11T17:00:00","22","ND","ND","ND","ND","ND","ND","ND","ND","ND","ND","0"],
    [43943,"2015-05-11T18:00:00","18","ND","ND","ND","ND","ND","ND","ND","ND","ND","ND","0"],
    [43944,"2015-05-11T19:00:00","27","ND","ND","ND","ND","ND","ND","ND","ND","ND","ND","0"],
    [43945,"2015-05-11T20:00:00","54","ND","ND","ND","ND","ND","ND","ND","ND","ND","ND","0"],
    [43946,"2015-05-11T21:00:00","81","ND","ND","ND","ND","ND","ND","ND","ND","ND","ND","0"],
    [43947,"2015-05-11T22:00:00","43","ND","ND","ND","ND","ND","ND","ND","ND","ND","ND","0"],
    [43948,"2015-05-11T23:00:00","45","ND","ND","ND","ND","ND","ND","ND","ND","ND","ND","0"],
    [43949,"2015-05-12T00:00:00","39","ND","ND","ND","ND","ND","ND","ND","ND","ND","ND","0"],
    [43950,"2015-05-12T01:00:00","94","ND","ND","ND","ND","ND","ND","ND","ND","ND","ND","0"],
    [43951,"2015-05-12T02:00:00","62","ND","ND","ND","ND","ND","ND","ND","ND","ND","ND","0"],
    [43952,"2015-05-12T03:00:00","65","ND","ND","ND","ND","ND","ND","ND","ND","ND","ND","0"],
    [43953,"2015-05-12T04:00:00","69","ND","ND","ND","ND","ND","ND","ND","ND","ND","ND","0"],
    [43954,"2015-05-12T05:00:00","53","ND","ND","ND","ND","ND","ND","ND","ND","ND","ND","0"],
    [43955,"2015-05-12T06:00:00","78","ND","ND","ND","ND","ND","ND","ND","ND","ND","ND","0"],
    [43956,"2015-05-12T07:00:00","94","ND","ND","ND","ND","ND","ND","ND","ND","ND","ND","0"],
    [43957,"2015-05-12T08:00:00","77","ND","ND","ND","ND","ND","ND","ND","ND","ND","ND","0"],
    [43958,"2015-05-12T09:00:00","59","ND","ND","ND","ND","ND","ND","ND","ND","ND","ND","0"],
    [43959,"2015-05-12T10:00:00","92","ND","ND","ND","ND","ND","ND","ND","ND","ND","ND","0"],
    [43960,"2015-05-12T11:00:00","49","ND","ND","ND","ND","ND","ND","ND","ND","ND","ND","0"],
    [43961,"2015-05-12T12:00:00","66","ND","ND","ND","ND","ND","ND","ND","ND","ND","ND","0"],
    [43962,"2015-05-12T13:00:00","ND","ND","ND","ND","ND","ND","ND","ND","ND","ND","ND","0"],
    [43963,"2015-05-12T14:00:00","56","ND","ND","ND","ND","ND","ND","ND","ND","ND","ND","0"],
    [43964,"2015-05-12T15:00:00","62","ND","ND","ND","ND","ND","ND","ND","ND","ND","ND","0"],
    [43965,"2015-05-12T16:00:00","37","ND","ND","ND","ND","ND","ND","ND","ND","ND","ND","0"],
    [43966,"2015-05-12T17:00:00","41","ND","ND","ND","ND","ND","ND","ND","ND","ND","ND","0"],
    [43967,"2015-05-12T18:00:00","38","ND","ND","ND","ND","ND","ND","ND","ND","ND","ND","0"],
    [43968,"2015-05-12T19:00:00","38","ND","ND","ND","ND","ND","ND","ND","ND","ND","ND","0"],
    [43969,"2015-05-12T20:00:00","38","ND","ND","ND","ND","ND","ND","ND","ND","ND","ND","0"],
    [43970,"2015-05-12T21:00:00","ND","ND","ND","ND","ND","ND","ND","ND","ND","ND","ND","0"],
    [43971,"2015-05-12T22:00:00","66","ND","ND","ND","ND","ND","ND","ND","ND","ND","ND","0"],
    [43972,"2015-05-12T23:00:00","70","ND","ND","ND","ND","ND","ND","ND","ND","ND","ND","0"],
    [43973,"2015-05-13T00:00:00","58","ND","ND","ND","ND","ND","ND","ND","ND","ND","ND","0"],
    [43974,"2015-05-13T01:00:00","73","ND","ND","ND","ND","ND","ND","ND","ND","ND","ND","0"],
    [43975,"2015-05-13T02:00:00","68","ND","ND","ND","ND","ND","ND","ND","ND","ND","ND","0"],
    [43976,"2015-05-13T03:00:00","62","ND","ND","ND","ND","ND","ND","ND","ND","ND","ND","0"],
    [43977,"2015-05-13T04:00:00","60","ND","ND","ND","ND","ND","ND","ND","ND","ND","ND","0"],
    [43978,"2015-05-13T05:00:00","60","ND","ND","ND","ND","ND","ND","ND","ND","ND","ND","0"],
    [43979,"2015-05-13T06:00:00","98","ND","ND","ND","ND","ND","ND","ND","ND","ND","ND","0"],
    [43980,"2015-05-13T07:00:00","92","ND","ND","ND","ND","ND","ND","ND","ND","ND","ND","0"],
    [43981,"2015-05-13T08:00:00","90","ND","ND","ND","ND","ND","ND","ND","ND","ND","ND","0"],
    [43982,"2015-05-13T09:00:00","85","ND","ND","ND","ND","ND","ND","ND","ND","ND","ND","0"],
    [43983,"2015-05-13T10:00:00","119","ND","ND","ND","ND","ND","ND","ND","ND","ND","ND","0"],
    [43984,"2015-05-13T11:00:00","ND","ND","ND","ND","ND","ND","ND","ND","ND","ND","ND","0"],
    [43985,"2015-05-13T12:00:00","ND","ND","ND","ND","ND","ND","ND","ND","ND","ND","ND","0"],
    [43986,"2015-05-13T13:00:00","ND","ND","ND","ND","ND","ND","ND","ND","ND","ND","ND","0"],
    [43987,"2015-05-13T14:00:00","67","ND","ND","ND","ND","ND","ND","ND","ND","ND","ND","0"],
    [43988,"2015-05-13T15:00:00","58","ND","ND","ND","ND","ND","ND","ND","ND","ND","ND","0"],
    [43989,"2015-05-13T16:00:00","39","ND","ND","ND","ND","ND","ND","ND","ND","ND","ND","0"],
    [43990,"2015-05-13T17:00:00","34","ND","ND","ND","ND","ND","ND","ND","ND","ND","ND","0"],
    [43991,"2015-05-13T18:00:00","17","ND","ND","ND","ND","ND","ND","ND","ND","ND","ND","0"],
    [43992,"2015-05-13T19:00:00","28","ND","ND","ND","ND","ND","ND","ND","ND","ND","ND","0"],
    [43993,"2015-05-13T20:00:00","67","ND","ND","ND","ND","ND","ND","ND","ND","ND","ND","0"],
    [43994,"2015-05-13T21:00:00","50","ND","ND","ND","ND","ND","ND","ND","ND","ND","ND","0"],
    [43995,"2015-05-13T22:00:00","66","ND","ND","ND","ND","ND","ND","ND","ND","ND","ND","0"],
    [43996,"2015-05-13T23:00:00","33","ND","ND","ND","ND","ND","ND","ND","ND","ND","ND","0"],
    [43997,"2015-05-14T00:00:00","40","ND","ND","ND","ND","ND","ND","ND","ND","ND","ND","0"],
    [43998,"2015-05-14T01:00:00","26","ND","ND","ND","ND","ND","ND","ND","ND","ND","ND","0"],
    [43999,"2015-05-14T02:00:00","23","ND","ND","ND","ND","ND","ND","ND","ND","ND","ND","0"],
    [44000,"2015-05-14T03:00:00","44","ND","ND","ND","ND","ND","ND","ND","ND","ND","ND","0"],
    [44001,"2015-05-14T04:00:00","59","ND","ND","ND","ND","ND","ND","ND","ND","ND","ND","0"],
    [44002,"2015-05-14T05:00:00","58","ND","ND","ND","ND","ND","ND","ND","ND","ND","ND","0"],
    [44003,"2015-05-14T06:00:00","62","ND","ND","ND","ND","ND","ND","ND","ND","ND","ND","0"],
    [44004,"2015-05-14T07:00:00","68","ND","ND","ND","ND","ND","ND","ND","ND","ND","ND","0"],
    [44005,"2015-05-14T08:00:00","90","ND","ND","ND","ND","ND","ND","ND","ND","ND","ND","0"],
    [44006,"2015-05-14T09:00:00","181","ND","ND","ND","ND","ND","ND","ND","ND","ND","ND","0"],
    [44007,"2015-05-14T10:00:00","105","ND","ND","ND","ND","ND","ND","ND","ND","ND","ND","0"],
    [44008,"2015-05-14T11:00:00","78","ND","ND","ND","ND","ND","ND","ND","ND","ND","ND","0"],
    [44009,"2015-05-14T12:00:00","104","ND","ND","ND","ND","ND","ND","ND","ND","ND","ND","0"],
    [44010,"2015-05-14T13:00:00","57","ND","ND","ND","ND","ND","ND","ND","ND","ND","ND","0"],
    [44011,"2015-05-14T14:00:00","74","ND","ND","ND","ND","ND","ND","ND","ND","ND","ND","0"],
    [44012,"2015-05-14T15:00:00","48","ND","ND","ND","ND","ND","ND","ND","ND","ND","ND","0"],
    [44013,"2015-05-14T16:00:00","36","ND","ND","ND","ND","ND","ND","ND","ND","ND","ND","0"],
    [44014,"2015-05-14T17:00:00","30","ND","ND","ND","ND","ND","ND","ND","ND","ND","ND","0"],
    [44015,"2015-05-14T18:00:00","33","ND","ND","ND","ND","ND","ND","ND","ND","ND","ND","0"],
    [44016,"2015-05-14T19:00:00","48","ND","ND","ND","ND","ND","ND","ND","ND","ND","ND","0"],
    [44017,"2015-05-14T20:00:00","41","ND","ND","ND","ND","ND","ND","ND","ND","ND","ND","0"],
    [44018,"2015-05-14T21:00:00","53","ND","ND","ND","ND","ND","ND","ND","ND","ND","ND","0"],
    [44019,"2015-05-14T22:00:00","59","ND","ND","ND","ND","ND","ND","ND","ND","ND","ND","0"],
    [44020,"2015-05-14T23:00:00","49","ND","ND","ND","ND","ND","ND","ND","ND","ND","ND","0"],
    [44021,"2015-05-15T00:00:00","27","ND","ND","ND","ND","ND","ND","ND","ND","ND","ND","0.51"],
    [44022,"2015-05-15T01:00:00","25","ND","ND","ND","ND","ND","ND","ND","ND","ND","ND","19.56"],
    [44023,"2015-05-15T02:00:00","14","ND","ND","ND","ND","ND","ND","ND","ND","ND","ND","0.51"],
    [44024,"2015-05-15T03:00:00","33","ND","ND","ND","ND","ND","ND","ND","ND","ND","ND","0"],
    [44025,"2015-05-15T04:00:00","31","ND","ND","ND","ND","ND","ND","ND","ND","ND","ND","0.25"],
    [44026,"2015-05-15T05:00:00","36","ND","ND","ND","ND","ND","ND","ND","ND","ND","ND","0"],
    [44027,"2015-05-15T06:00:00","43","ND","ND","ND","ND","ND","ND","ND","ND","ND","ND","0"],
    [44028,"2015-05-15T07:00:00","54","ND","ND","ND","ND","ND","ND","ND","ND","ND","ND","0"],
    [44029,"2015-05-15T08:00:00","70","ND","ND","ND","ND","ND","ND","ND","ND","ND","ND","0"],
    [44030,"2015-05-15T09:00:00","68","ND","ND","ND","ND","ND","ND","ND","ND","ND","ND","0"],
    [44031,"2015-05-15T10:00:00","ND","ND","ND","ND","ND","ND","ND","ND","ND","ND","ND","ND"],
    [44032,"2015-05-15T11:00:00","ND","ND","ND","ND","ND","ND","ND","ND","ND","ND","ND","ND"],
    [44033,"2015-05-15T12:00:00","ND","ND","ND","ND","ND","ND","ND","ND","ND","ND","ND","ND"],
    [44034,"2015-05-15T13:00:00","ND","ND","ND","ND","ND","ND","ND","ND","ND","ND","ND","ND"],
    [44035,"2015-05-15T14:00:00","ND","ND","ND","ND","ND","ND","ND","ND","ND","ND","ND","ND"],
    [44036,"2015-05-15T15:00:00","ND","ND","ND","ND","ND","ND","ND","ND","ND","ND","ND","ND"],
    [44037,"2015-05-15T16:00:00","ND","ND","ND","ND","ND","ND","ND","ND","ND","ND","ND","0"],
    [44038,"2015-05-15T17:00:00","ND","ND","ND","ND","ND","ND","ND","ND","ND","ND","ND","ND"],
    [44039,"2015-05-15T18:00:00","ND","ND","ND","ND","ND","ND","ND","ND","ND","ND","ND","0"],
    [44040,"2015-05-15T19:00:00","ND","ND","ND","ND","ND","ND","ND","ND","ND","ND","ND","0"],
    [44041,"2015-05-15T20:00:00","ND","ND","ND","ND","ND","ND","ND","ND","ND","ND","ND","0"],
    [44042,"2015-05-15T21:00:00","ND","ND","ND","ND","ND","ND","ND","ND","ND","ND","ND","0"],
    [44043,"2015-05-15T22:00:00","ND","ND","ND","ND","ND","ND","ND","ND","ND","ND","ND","0"],
    [44044,"2015-05-15T23:00:00","ND","ND","ND","ND","ND","ND","ND","ND","ND","ND","ND","0"],
    [44045,"2015-05-16T00:00:00","ND","ND","ND","ND","ND","ND","ND","ND","ND","ND","ND","0"],
    [44046,"2015-05-16T01:00:00","ND","ND","ND","ND","ND","ND","ND","ND","ND","ND","ND","0"],
    [44047,"2015-05-16T02:00:00","ND","ND","ND","ND","ND","ND","ND","ND","ND","ND","ND","0"],
    [44048,"2015-05-16T03:00:00","ND","ND","ND","ND","ND","ND","ND","ND","ND","ND","ND","0"],
    [44049,"2015-05-16T04:00:00","ND","ND","ND","ND","ND","ND","ND","ND","ND","ND","ND","0"],
    [44050,"2015-05-16T05:00:00","ND","ND","ND","ND","ND","ND","ND","ND","ND","ND","ND","6.1"],
    [44051,"2015-05-16T06:00:00","ND","ND","ND","ND","ND","ND","ND","ND","ND","ND","ND","0"],
    [44052,"2015-05-16T07:00:00","ND","ND","ND","ND","ND","ND","ND","ND","ND","ND","ND","0"],
    [44053,"2015-05-16T08:00:00","ND","ND","ND","ND","ND","ND","ND","ND","ND","ND","ND","0"],
    [44054,"2015-05-16T09:00:00","ND","ND","ND","ND","ND","ND","ND","ND","ND","ND","ND","0.25"],
    [44055,"2015-05-16T10:00:00","ND","ND","ND","ND","ND","ND","ND","ND","ND","ND","ND","0"],
    [44056,"2015-05-16T11:00:00","ND","ND","ND","ND","ND","ND","ND","ND","ND","ND","ND","0"],
    [44057,"2015-05-16T12:00:00","ND","ND","ND","ND","ND","ND","ND","ND","ND","ND","ND","0"],
    [44058,"2015-05-16T13:00:00","ND","ND","ND","ND","ND","ND","ND","ND","ND","ND","ND","0"],
    [44059,"2015-05-16T14:00:00","ND","ND","ND","ND","ND","ND","ND","ND","ND","ND","ND","0"],
    [44060,"2015-05-16T15:00:00","ND","ND","ND","ND","ND","ND","ND","ND","ND","ND","ND","0"],
    [44061,"2015-05-16T16:00:00","ND","ND","ND","ND","ND","ND","ND","ND","ND","ND","ND","0"],
    [44062,"2015-05-16T17:00:00","ND","ND","ND","ND","ND","ND","ND","ND","ND","ND","ND","0"],
    [44063,"2015-05-16T18:00:00","ND","ND","ND","ND","ND","ND","ND","ND","ND","ND","ND","0"],
    [44064,"2015-05-16T19:00:00","ND","ND","ND","ND","ND","ND","ND","ND","ND","ND","ND","0"],
    [44065,"2015-05-16T20:00:00","ND","ND","ND","ND","ND","ND","ND","ND","ND","ND","ND","0"],
    [44066,"2015-05-16T21:00:00","ND","ND","ND","ND","ND","ND","ND","ND","ND","ND","ND","0"],
    [44067,"2015-05-16T22:00:00","ND","ND","ND","ND","ND","ND","ND","ND","ND","ND","ND","0"],
    [44068,"2015-05-16T23:00:00","ND","ND","ND","ND","ND","ND","ND","ND","ND","ND","ND","0"],
    [44069,"2015-05-17T00:00:00","ND","ND","ND","ND","ND","ND","ND","ND","ND","ND","ND","0"],
    [44070,"2015-05-17T01:00:00","ND","ND","ND","ND","ND","ND","ND","ND","ND","ND","ND","0"],
    [44071,"2015-05-17T02:00:00","ND","ND","ND","ND","ND","ND","ND","ND","ND","ND","ND","0.25"],
    [44072,"2015-05-17T03:00:00","ND","ND","ND","ND","ND","ND","ND","ND","ND","ND","ND","0"],
    [44073,"2015-05-17T04:00:00","ND","ND","ND","ND","ND","ND","ND","ND","ND","ND","ND","0.25"],
    [44074,"2015-05-17T05:00:00","ND","ND","ND","ND","ND","ND","ND","ND","ND","ND","ND","1.02"],
    [44075,"2015-05-17T06:00:00","ND","ND","ND","ND","ND","ND","ND","ND","ND","ND","ND","0.25"],
    [44076,"2015-05-17T07:00:00","ND","ND","ND","ND","ND","ND","ND","ND","ND","ND","ND","0"],
    [44077,"2015-05-17T08:00:00","ND","ND","ND","ND","ND","ND","ND","ND","ND","ND","ND","0.51"],
    [44078,"2015-05-17T09:00:00","ND","ND","ND","ND","ND","ND","ND","ND","ND","ND","ND","0"],
    [44079,"2015-05-17T10:00:00","ND","ND","ND","ND","ND","ND","ND","ND","ND","ND","ND","0"],
    [44080,"2015-05-17T11:00:00","ND","ND","ND","ND","ND","ND","ND","ND","ND","ND","ND","0"],
    [44081,"2015-05-17T12:00:00","ND","ND","ND","ND","ND","ND","ND","ND","ND","ND","ND","0"],
    [44082,"2015-05-17T13:00:00","ND","ND","ND","ND","ND","ND","ND","ND","ND","ND","ND","0"],
    [44083,"2015-05-17T14:00:00","ND","ND","ND","ND","ND","ND","ND","ND","ND","ND","ND","0"],
    [44084,"2015-05-17T15:00:00","ND","ND","ND","ND","ND","ND","ND","ND","ND","ND","ND","0"],
    [44085,"2015-05-17T16:00:00","ND","ND","ND","ND","ND","ND","ND","ND","ND","ND","ND","0"],
    [44086,"2015-05-17T17:00:00","ND","ND","ND","ND","ND","ND","ND","ND","ND","ND","ND","0"],
    [44087,"2015-05-17T18:00:00","ND","ND","ND","ND","ND","ND","ND","ND","ND","ND","ND","0"],
    [44088,"2015-05-17T19:00:00","ND","ND","ND","ND","ND","ND","ND","ND","ND","ND","ND","0"],
    [44089,"2015-05-17T20:00:00","ND","ND","ND","ND","ND","ND","ND","ND","ND","ND","ND","0"],
    [44090,"2015-05-17T21:00:00","ND","ND","ND","ND","ND","ND","ND","ND","ND","ND","ND","0"],
    [44091,"2015-05-17T22:00:00","ND","ND","ND","ND","ND","ND","ND","ND","ND","ND","ND","0"],
    [44092,"2015-05-17T23:00:00","ND","ND","ND","ND","ND","ND","ND","ND","ND","ND","ND","0"],
    [44093,"2015-05-18T00:00:00","ND","ND","ND","ND","ND","ND","ND","ND","ND","ND","ND","0"],
    [44094,"2015-05-18T01:00:00","ND","ND","ND","ND","ND","ND","ND","ND","ND","ND","ND","0"],
    [44095,"2015-05-18T02:00:00","ND","ND","ND","ND","ND","ND","ND","ND","ND","ND","ND","0"],
    [44096,"2015-05-18T03:00:00","ND","ND","ND","ND","ND","ND","ND","ND","ND","ND","ND","0"],
    [44097,"2015-05-18T04:00:00","ND","ND","ND","ND","ND","ND","ND","ND","ND","ND","ND","0"],
    [44098,"2015-05-18T05:00:00","ND","ND","ND","ND","ND","ND","ND","ND","ND","ND","ND","4.06"],
    [44099,"2015-05-18T06:00:00","ND","ND","ND","ND","ND","ND","ND","ND","ND","ND","ND","0.25"],
    [44100,"2015-05-18T07:00:00","ND","ND","ND","ND","ND","ND","ND","ND","ND","ND","ND","0"],
    [44101,"2015-05-18T08:00:00","ND","ND","ND","ND","ND","ND","ND","ND","ND","ND","ND","0"],
    [44102,"2015-05-18T09:00:00","ND","ND","ND","ND","ND","ND","ND","ND","ND","ND","ND","0"],
    [44103,"2015-05-18T10:00:00","ND","ND","ND","ND","ND","ND","ND","ND","ND","ND","ND","0"],
    [44104,"2015-05-18T11:00:00","ND","ND","ND","ND","ND","ND","ND","ND","ND","ND","ND","0"],
    [44105,"2015-05-18T12:00:00","ND","ND","ND","ND","ND","ND","ND","ND","ND","ND","ND","0"],
    [44106,"2015-05-18T13:00:00","ND","ND","ND","ND","ND","ND","ND","ND","ND","ND","ND","0.25"],
    [44107,"2015-05-18T14:00:00","ND","ND","ND","ND","ND","ND","ND","ND","ND","ND","ND","0"],
    [44108,"2015-05-18T15:00:00","ND","ND","ND","ND","ND","ND","ND","ND","ND","ND","ND","0"],
    [44109,"2015-05-18T16:00:00","ND","ND","ND","ND","ND","ND","ND","ND","ND","ND","ND","0"],
    [44110,"2015-05-18T17:00:00","ND","ND","ND","ND","ND","ND","ND","ND","ND","ND","ND","0"],
    [44111,"2015-05-18T18:00:00","ND","ND","ND","ND","ND","ND","ND","ND","ND","ND","ND","0"],
    [44112,"2015-05-18T19:00:00","ND","ND","ND","ND","ND","ND","ND","ND","ND","ND","ND","0"],
    [44113,"2015-05-18T20:00:00","ND","ND","ND","ND","ND","ND","ND","ND","ND","ND","ND","0"],
    [44114,"2015-05-18T21:00:00","ND","ND","ND","ND","ND","ND","ND","ND","ND","ND","ND","0"],
    [44115,"2015-05-18T22:00:00","ND","ND","ND","ND","ND","ND","ND","ND","ND","ND","ND","0"],
    [44116,"2015-05-18T23:00:00","ND","ND","ND","ND","ND","ND","ND","ND","ND","ND","ND","0"],
    [44117,"2015-05-19T00:00:00","ND","ND","ND","ND","ND","ND","ND","ND","ND","ND","ND","0"],
    [44118,"2015-05-19T01:00:00","ND","ND","ND","ND","ND","ND","ND","ND","ND","ND","ND","0"],
    [44119,"2015-05-19T02:00:00","ND","ND","ND","ND","ND","ND","ND","ND","ND","ND","ND","0"],
    [44120,"2015-05-19T03:00:00","ND","ND","ND","ND","ND","ND","ND","ND","ND","ND","ND","0"],
    [44121,"2015-05-19T04:00:00","ND","ND","ND","ND","ND","ND","ND","ND","ND","ND","ND","0"],
    [44122,"2015-05-19T05:00:00","ND","ND","ND","ND","ND","ND","ND","ND","ND","ND","ND","0"],
    [44123,"2015-05-19T06:00:00","ND","ND","ND","ND","ND","ND","ND","ND","ND","ND","ND","0"],
    [44124,"2015-05-19T07:00:00","ND","ND","ND","ND","ND","ND","ND","ND","ND","ND","ND","0"],
    [44125,"2015-05-19T08:00:00","ND","ND","ND","ND","ND","ND","ND","ND","ND","ND","ND","0"],
    [44126,"2015-05-19T09:00:00","ND","ND","ND","ND","ND","ND","ND","ND","ND","ND","ND","0"],
    [44127,"2015-05-19T10:00:00","ND","ND","ND","ND","ND","ND","ND","ND","ND","ND","ND","0"],
    [44128,"2015-05-19T11:00:00","ND","ND","ND","ND","ND","ND","ND","ND","ND","ND","ND","0"],
    [44129,"2015-05-19T12:00:00","ND","ND","ND","ND","ND","ND","ND","ND","ND","ND","ND","0"],
    [44130,"2015-05-19T13:00:00","ND","ND","ND","ND","ND","ND","ND","ND","ND","ND","ND","0"],
    [44131,"2015-05-19T14:00:00","ND","ND","ND","ND","ND","ND","ND","ND","ND","ND","ND","0"],
    [44132,"2015-05-19T15:00:00","ND","ND","ND","ND","ND","ND","ND","ND","ND","ND","ND","0"],
    [44133,"2015-05-19T16:00:00","ND","ND","ND","ND","ND","ND","ND","ND","ND","ND","ND","0"],
    [44134,"2015-05-19T17:00:00","ND","ND","ND","ND","ND","ND","ND","ND","ND","ND","ND","0"],
    [44135,"2015-05-19T18:00:00","ND","ND","ND","ND","ND","ND","ND","ND","ND","ND","ND","0"],
    [44136,"2015-05-19T19:00:00","ND","ND","ND","ND","ND","ND","ND","ND","ND","ND","ND","0"],
    [44137,"2015-05-19T20:00:00","ND","ND","ND","ND","ND","ND","ND","ND","ND","ND","ND","0"],
    [44138,"2015-05-19T21:00:00","ND","ND","ND","ND","ND","ND","ND","ND","ND","ND","ND","0"],
    [44139,"2015-05-19T22:00:00","ND","ND","ND","ND","ND","ND","ND","ND","ND","ND","ND","0"],
    [44140,"2015-05-19T23:00:00","ND","ND","ND","ND","ND","ND","ND","ND","ND","ND","ND","0"],
    [44141,"2015-05-20T00:00:00","ND","ND","ND","ND","ND","ND","ND","ND","ND","ND","ND","0"],
    [44142,"2015-05-20T01:00:00","ND","ND","ND","ND","ND","ND","ND","ND","ND","ND","ND","0"],
    [44143,"2015-05-20T02:00:00","ND","ND","ND","ND","ND","ND","ND","ND","ND","ND","ND","0"],
    [44144,"2015-05-20T03:00:00","ND","ND","ND","ND","ND","ND","ND","ND","ND","ND","ND","0"],
    [44145,"2015-05-20T04:00:00","ND","ND","ND","ND","ND","ND","ND","ND","ND","ND","ND","0"],
    [44146,"2015-05-20T05:00:00","ND","ND","ND","ND","ND","ND","ND","ND","ND","ND","ND","0"],
    [44147,"2015-05-20T06:00:00","ND","ND","ND","ND","ND","ND","ND","ND","ND","ND","ND","0"],
    [44148,"2015-05-20T07:00:00","ND","ND","ND","ND","ND","ND","ND","ND","ND","ND","ND","0"],
    [44149,"2015-05-20T08:00:00","ND","ND","ND","ND","ND","ND","ND","ND","ND","ND","ND","0"],
    [44150,"2015-05-20T09:00:00","ND","ND","ND","ND","ND","ND","ND","ND","ND","ND","ND","0"],
    [44151,"2015-05-20T10:00:00","ND","ND","ND","ND","ND","ND","ND","ND","ND","ND","ND","0"],
    [44152,"2015-05-20T11:00:00","ND","ND","ND","ND","ND","ND","ND","ND","ND","ND","ND","0"],
    [44153,"2015-05-20T12:00:00","ND","ND","ND","ND","ND","ND","ND","ND","ND","ND","ND","0"],
    [44154,"2015-05-20T13:00:00","ND","ND","ND","ND","ND","ND","ND","ND","ND","ND","ND","0"],
    [44155,"2015-05-20T14:00:00","ND","ND","ND","ND","ND","ND","ND","ND","ND","ND","ND","0"],
    [44156,"2015-05-20T15:00:00","ND","ND","ND","ND","ND","ND","ND","ND","ND","ND","ND","0"],
    [44157,"2015-05-20T16:00:00","ND","ND","ND","ND","ND","ND","ND","ND","ND","ND","ND","0"],
    [44158,"2015-05-20T17:00:00","ND","ND","ND","ND","ND","ND","ND","ND","ND","ND","ND","0"],
    [44159,"2015-05-20T18:00:00","ND","ND","ND","ND","ND","ND","ND","ND","ND","ND","ND","0"],
    [44160,"2015-05-20T19:00:00","ND","ND","ND","ND","ND","ND","ND","ND","ND","ND","ND","0"],
    [44161,"2015-05-20T20:00:00","ND","ND","ND","ND","ND","ND","ND","ND","ND","ND","ND","0"],
    [44162,"2015-05-20T21:00:00","ND","ND","ND","ND","ND","ND","ND","ND","ND","ND","ND","0"],
    [44163,"2015-05-20T22:00:00","ND","ND","ND","ND","ND","ND","ND","ND","ND","ND","ND","0"],
    [44164,"2015-05-20T23:00:00","ND","ND","ND","ND","ND","ND","ND","ND","ND","ND","ND","0"],
    [44165,"2015-05-21T00:00:00","ND","ND","ND","ND","ND","ND","ND","ND","ND","ND","ND","0"],
    [44166,"2015-05-21T01:00:00","ND","ND","ND","ND","ND","ND","ND","ND","ND","ND","ND","0"],
    [44167,"2015-05-21T02:00:00","ND","ND","ND","ND","ND","ND","ND","ND","ND","ND","ND","0"],
    [44168,"2015-05-21T03:00:00","ND","ND","ND","ND","ND","ND","ND","ND","ND","ND","ND","0"],
    [44169,"2015-05-21T04:00:00","ND","ND","ND","ND","ND","ND","ND","ND","ND","ND","ND","0"],
    [44170,"2015-05-21T05:00:00","ND","ND","ND","ND","ND","ND","ND","ND","ND","ND","ND","0"],
    [44171,"2015-05-21T06:00:00","ND","ND","ND","ND","ND","ND","ND","ND","ND","ND","ND","0"],
    [44172,"2015-05-21T07:00:00","ND","ND","ND","ND","ND","ND","ND","ND","ND","ND","ND","0"],
    [44173,"2015-05-21T08:00:00","ND","ND","ND","ND","ND","ND","ND","ND","ND","ND","ND","0"],
    [44174,"2015-05-21T09:00:00","ND","ND","ND","ND","ND","ND","ND","ND","ND","ND","ND","0"],
    [44175,"2015-05-21T10:00:00","ND","ND","ND","ND","ND","ND","ND","ND","ND","ND","ND","ND"],
    [44176,"2015-05-21T11:00:00","ND","ND","ND","ND","ND","ND","ND","ND","ND","ND","ND","ND"],
    [44177,"2015-05-21T12:00:00","22.1","ND","ND","ND","ND","ND","ND","ND","ND","ND","ND","0"],
    [44178,"2015-05-21T13:00:00","23","ND","ND","ND","ND","5.97","ND","ND","ND","ND","ND","0"],
    [44179,"2015-05-21T14:00:00","10.4","ND","ND","ND","ND","9.85","ND","ND","ND","ND","ND","0"],
    [44180,"2015-05-21T15:00:00","11.6","ND","ND","ND","ND","3.99","ND","ND","ND","ND","ND","0"],
    [44181,"2015-05-21T16:00:00","13.8","ND","ND","ND","ND","8.84","ND","ND","ND","ND","ND","0.51"],
    [44182,"2015-05-21T17:00:00","19.8","ND","ND","ND","ND","3.53","ND","ND","ND","ND","ND","0"],
    [44183,"2015-05-21T18:00:00","32.6","ND","ND","ND","ND","4.88","ND","ND","ND","ND","ND","0"],
    [44184,"2015-05-21T19:00:00","35","ND","ND","ND","ND","3.69","ND","ND","ND","ND","ND","0"],
    [44185,"2015-05-21T20:00:00","39.9","ND","ND","ND","ND","3.22","ND","ND","ND","ND","ND","0"],
    [44186,"2015-05-21T21:00:00","49.7","ND","ND","ND","ND","5.46","ND","ND","ND","ND","ND","0"],
    [44187,"2015-05-21T22:00:00","39.3","ND","ND","ND","ND","5.02","ND","ND","ND","ND","ND","0"],
    [44188,"2015-05-21T23:00:00","32.5","ND","ND","ND","ND","4.73","ND","ND","ND","ND","ND","0"],
    [44189,"2015-05-22T00:00:00","22.1","ND","ND","ND","ND","3.00","ND","ND","ND","ND","ND","0"],
    [44190,"2015-05-22T01:00:00","19.7","ND","ND","ND","ND","3.22","ND","ND","ND","ND","ND","0"],
    [44191,"2015-05-22T02:00:00","41","ND","ND","ND","ND","3.25","ND","ND","ND","ND","ND","0"],
    [44192,"2015-05-22T03:00:00","34.8","ND","ND","ND","ND","2.34","ND","ND","ND","ND","ND","0"],
    [44193,"2015-05-22T04:00:00","34.3","ND","ND","ND","ND","3.71","ND","ND","ND","ND","ND","0"],
    [44194,"2015-05-22T05:00:00","39.1","ND","ND","ND","ND","7.90","ND","ND","ND","ND","ND","0"],
    [44195,"2015-05-22T06:00:00","44","ND","ND","ND","ND","5.78","ND","ND","ND","ND","ND","0"],
    [44196,"2015-05-22T07:00:00","52.1","ND","ND","ND","ND","7.76","ND","ND","ND","ND","ND","0"],
    [44197,"2015-05-22T08:00:00","57.6","ND","ND","ND","ND","6.47","ND","ND","ND","ND","ND","0"],
    [44198,"2015-05-22T09:00:00","60.4","ND","ND","ND","ND","4.89","ND","ND","ND","ND","ND","0"],
    [44199,"2015-05-22T10:00:00","41","ND","ND","ND","ND","4.86","ND","ND","ND","ND","ND","0"],
    [44200,"2015-05-22T11:00:00","43.6","ND","ND","ND","ND","5.27","ND","ND","ND","ND","ND","0"],
    [44201,"2015-05-22T12:00:00","32.1","ND","ND","ND","ND","4.81","ND","ND","ND","ND","ND","0"],
    [44202,"2015-05-22T13:00:00","28","ND","ND","ND","ND","3.61","ND","ND","ND","ND","ND","0"],
    [44203,"2015-05-22T14:00:00","25.1","ND","ND","ND","ND","4.61","ND","ND","ND","ND","ND","0"],
    [44204,"2015-05-22T15:00:00","37.3","ND","ND","ND","ND","3.82","ND","ND","ND","ND","ND","0"],
    [44205,"2015-05-22T16:00:00","45.2","ND","ND","ND","ND","2.82","ND","ND","ND","ND","ND","0"],
    [44206,"2015-05-22T17:00:00","41.5","ND","ND","ND","ND","2.66","ND","ND","ND","ND","ND","0"],
    [44207,"2015-05-22T18:00:00","31.4","ND","ND","ND","ND","2.19","ND","ND","ND","ND","ND","0"],
    [44208,"2015-05-22T19:00:00","35.4","ND","ND","ND","ND","1.73","ND","ND","ND","ND","ND","0"],
    [44209,"2015-05-22T20:00:00","35.1","ND","ND","ND","ND","3.30","ND","ND","ND","ND","ND","0"],
    [44210,"2015-05-22T21:00:00","29.9","ND","ND","ND","ND","2.48","ND","ND","ND","ND","ND","0"],
    [44211,"2015-05-22T22:00:00","49.3","ND","ND","ND","ND","4.04","ND","ND","ND","ND","ND","0"],
    [44212,"2015-05-22T23:00:00","60.9","ND","ND","ND","ND","6.01","ND","ND","ND","ND","ND","0"],
    [44213,"2015-05-23T00:00:00","50.5","ND","ND","ND","ND","5.38","ND","ND","ND","ND","ND","0"],
    [44214,"2015-05-23T01:00:00","ND","ND","ND","ND","ND","4.78","ND","ND","ND","ND","ND","0"],
    [44215,"2015-05-23T02:00:00","ND","ND","ND","ND","ND","3.76","ND","ND","ND","ND","ND","0"],
    [44216,"2015-05-23T03:00:00","ND","ND","ND","ND","ND","3.28","ND","ND","ND","ND","ND","0"],
    [44217,"2015-05-23T04:00:00","ND","ND","ND","ND","ND","2.15","ND","ND","ND","ND","ND","0"],
    [44218,"2015-05-23T05:00:00","ND","ND","ND","ND","ND","2.12","ND","ND","ND","ND","ND","0"],
    [44219,"2015-05-23T06:00:00","ND","ND","ND","ND","ND","4.07","ND","ND","ND","ND","ND","0"],
    [44220,"2015-05-23T07:00:00","ND","ND","ND","ND","ND","5.77","ND","ND","ND","ND","ND","0"],
    [44221,"2015-05-23T08:00:00","ND","ND","ND","ND","ND","8.38","ND","ND","ND","ND","ND","0"],
    [44222,"2015-05-23T09:00:00","ND","ND","ND","ND","ND","3.18","ND","ND","ND","ND","ND","0"],
    [44223,"2015-05-23T10:00:00","ND","ND","ND","ND","ND","3.92","ND","ND","ND","ND","ND","0"],
    [44224,"2015-05-23T11:00:00","ND","ND","ND","ND","ND","3.78","ND","ND","ND","ND","ND","0"],
    [44225,"2015-05-23T12:00:00","ND","ND","ND","ND","ND","6.76","ND","ND","ND","ND","ND","0"],
    [44226,"2015-05-23T13:00:00","ND","ND","ND","ND","ND","6.83","ND","ND","ND","ND","ND","0"],
    [44227,"2015-05-23T14:00:00","ND","ND","ND","ND","ND","3.19","ND","ND","ND","ND","ND","0"],
    [44228,"2015-05-23T15:00:00","ND","ND","ND","ND","ND","5.80","ND","ND","ND","ND","ND","0"],
    [44229,"2015-05-23T16:00:00","ND","ND","ND","ND","ND","3.79","ND","ND","ND","ND","ND","0"],
    [44230,"2015-05-23T17:00:00","ND","ND","ND","ND","ND","3.48","ND","ND","ND","ND","ND","0"],
    [44231,"2015-05-23T18:00:00","ND","ND","ND","ND","ND","4.78","ND","ND","ND","ND","ND","0"],
    [44232,"2015-05-23T19:00:00","ND","ND","ND","ND","ND","1.42","ND","ND","ND","ND","ND","0"],
    [44233,"2015-05-23T20:00:00","ND","ND","ND","ND","ND","2.56","ND","ND","ND","ND","ND","0"],
    [44234,"2015-05-23T21:00:00","ND","ND","ND","ND","ND","2.79","ND","ND","ND","ND","ND","0"],
    [44235,"2015-05-23T22:00:00","ND","ND","ND","ND","ND","2.75","ND","ND","ND","ND","ND","0"],
    [44236,"2015-05-23T23:00:00","ND","ND","ND","ND","ND","1.14","ND","ND","ND","ND","ND","0"],
    [44237,"2015-05-24T00:00:00","ND","ND","ND","ND","ND","4.28","ND","ND","ND","ND","ND","0"],
    [44238,"2015-05-24T01:00:00","ND","ND","ND","ND","ND","2.73","ND","ND","ND","ND","ND","0"],
    [44239,"2015-05-24T02:00:00","ND","ND","ND","ND","ND","2.13","ND","ND","ND","ND","ND","0"],
    [44240,"2015-05-24T03:00:00","ND","ND","ND","ND","ND","3.23","ND","ND","ND","ND","ND","0"],
    [44241,"2015-05-24T04:00:00","ND","ND","ND","ND","ND","2.27","ND","ND","ND","ND","ND","0"],
    [44242,"2015-05-24T05:00:00","ND","ND","ND","ND","ND","3.09","ND","ND","ND","ND","ND","0"],
    [44243,"2015-05-24T06:00:00","ND","ND","ND","ND","ND","3.92","ND","ND","ND","ND","ND","0"],
    [44244,"2015-05-24T07:00:00","ND","ND","ND","ND","ND","2.26","ND","ND","ND","ND","ND","0"],
    [44245,"2015-05-24T08:00:00","ND","ND","ND","ND","ND","2.65","ND","ND","ND","ND","ND","0"],
    [44246,"2015-05-24T09:00:00","ND","ND","ND","ND","ND","3.35","ND","ND","ND","ND","ND","0"],
    [44247,"2015-05-24T10:00:00","ND","ND","ND","ND","ND","2.73","ND","ND","ND","ND","ND","0"],
    [44248,"2015-05-24T11:00:00","ND","ND","ND","ND","ND","2.33","ND","ND","ND","ND","ND","0"],
    [44249,"2015-05-24T12:00:00","ND","ND","ND","ND","ND","2.87","ND","ND","ND","ND","ND","0"],
    [44250,"2015-05-24T13:00:00","ND","ND","ND","ND","ND","2.43","ND","ND","ND","ND","ND","0"],
    [44251,"2015-05-24T14:00:00","ND","ND","ND","ND","ND","2.09","ND","ND","ND","ND","ND","0"],
    [44252,"2015-05-24T15:00:00","ND","ND","ND","ND","ND","2.38","ND","ND","ND","ND","ND","0"],
    [44253,"2015-05-24T16:00:00","ND","ND","ND","ND","ND","2.12","ND","ND","ND","ND","ND","0"],
    [44254,"2015-05-24T17:00:00","ND","ND","ND","ND","ND","4.17","ND","ND","ND","ND","ND","0"],
    [44255,"2015-05-24T18:00:00","ND","ND","ND","ND","ND","2.86","ND","ND","ND","ND","ND","0"],
    [44256,"2015-05-24T19:00:00","ND","ND","ND","ND","ND","2.43","ND","ND","ND","ND","ND","0"],
    [44257,"2015-05-24T20:00:00","ND","ND","ND","ND","ND","3.11","ND","ND","ND","ND","ND","0"],
    [44258,"2015-05-24T21:00:00","ND","ND","ND","ND","ND","1.70","ND","ND","ND","ND","ND","0"],
    [44259,"2015-05-24T22:00:00","ND","ND","ND","ND","ND","3.47","ND","ND","ND","ND","ND","0"],
    [44260,"2015-05-24T23:00:00","ND","ND","ND","ND","ND","3.89","ND","ND","ND","ND","ND","0"],
    [44261,"2015-05-25T00:00:00","ND","ND","ND","ND","ND","2.55","ND","ND","ND","ND","ND","0"],
    [44262,"2015-05-25T01:00:00","ND","ND","ND","ND","ND","2.43","ND","ND","ND","ND","ND","0"],
    [44263,"2015-05-25T02:00:00","ND","ND","ND","ND","ND","3.71","ND","ND","ND","ND","ND","0"],
    [44264,"2015-05-25T03:00:00","ND","ND","ND","ND","ND","3.68","ND","ND","ND","ND","ND","0"],
    [44265,"2015-05-25T04:00:00","ND","ND","ND","ND","ND","3.22","ND","ND","ND","ND","ND","0"],
    [44266,"2015-05-25T05:00:00","ND","ND","ND","ND","ND","3.51","ND","ND","ND","ND","ND","0"],
    [44267,"2015-05-25T06:00:00","ND","ND","ND","ND","ND","1.71","ND","ND","ND","ND","ND","0"],
    [44268,"2015-05-25T07:00:00","ND","ND","ND","ND","ND","2.91","ND","ND","ND","ND","ND","4.57"],
    [44269,"2015-05-25T08:00:00","ND","ND","ND","ND","ND","1.20","ND","ND","ND","ND","ND","0"],
    [44270,"2015-05-25T09:00:00","ND","ND","ND","ND","ND","1.67","ND","ND","ND","ND","ND","0"],
    [44271,"2015-05-25T10:00:00","ND","ND","ND","ND","ND","2.70","ND","ND","ND","ND","ND","0"],
    [44272,"2015-05-25T11:00:00","ND","ND","ND","ND","ND","5.45","ND","ND","ND","ND","ND","0"],
    [44273,"2015-05-25T12:00:00","ND","ND","ND","ND","ND","2.63","ND","ND","ND","ND","ND","0"],
    [44274,"2015-05-25T13:00:00","ND","ND","ND","ND","ND","2.40","ND","ND","ND","ND","ND","0"],
    [44275,"2015-05-25T14:00:00","ND","ND","ND","ND","ND","4.73","ND","ND","ND","ND","ND","0"],
    [44276,"2015-05-25T15:00:00","ND","ND","ND","ND","ND","3.28","ND","ND","ND","ND","ND","0"],
    [44277,"2015-05-25T16:00:00","ND","ND","ND","ND","ND","5.74","ND","ND","ND","ND","ND","0"],
    [44278,"2015-05-25T17:00:00","ND","ND","ND","ND","ND","3.65","ND","ND","ND","ND","ND","0"],
    [44279,"2015-05-25T18:00:00","ND","ND","ND","ND","ND","2.36","ND","ND","ND","ND","ND","0"],
    [44280,"2015-05-25T19:00:00","ND","ND","ND","ND","ND","3.07","ND","ND","ND","ND","ND","0"],
    [44281,"2015-05-25T20:00:00","ND","ND","ND","ND","ND","2.70","ND","ND","ND","ND","ND","0"],
    [44282,"2015-05-25T21:00:00","ND","ND","ND","ND","ND","3.18","ND","ND","ND","ND","ND","0"],
    [44283,"2015-05-25T22:00:00","ND","ND","ND","ND","ND","3.55","ND","ND","ND","ND","ND","0"],
    [44284,"2015-05-25T23:00:00","ND","ND","ND","ND","ND","2.56","ND","ND","ND","ND","ND","0"],
    [44285,"2015-05-26T00:00:00","ND","ND","ND","ND","ND","2.83","ND","ND","ND","ND","ND","0"],
    [44286,"2015-05-26T01:00:00","ND","ND","ND","ND","ND","3.21","ND","ND","ND","ND","ND","0"],
    [44287,"2015-05-26T02:00:00","ND","ND","ND","ND","ND","3.99","ND","ND","ND","ND","ND","0"],
    [44288,"2015-05-26T03:00:00","ND","ND","ND","ND","ND","3.78","ND","ND","ND","ND","ND","0"],
    [44289,"2015-05-26T04:00:00","ND","ND","ND","ND","ND","3.69","ND","ND","ND","ND","ND","0"],
    [44290,"2015-05-26T05:00:00","ND","ND","ND","ND","ND","2.87","ND","ND","ND","ND","ND","0"],
    [44291,"2015-05-26T06:00:00","ND","ND","ND","ND","ND","3.61","ND","ND","ND","ND","ND","0"],
    [44292,"2015-05-26T07:00:00","ND","ND","ND","ND","ND","4.01","ND","ND","ND","ND","ND","0"],
    [44293,"2015-05-26T08:00:00","ND","ND","ND","ND","ND","2.80","ND","ND","ND","ND","ND","0"],
    [44294,"2015-05-26T09:00:00","ND","ND","ND","ND","ND","3.40","ND","ND","ND","ND","ND","0"],
    [44295,"2015-05-26T10:00:00","ND","ND","ND","ND","ND","2.52","ND","ND","ND","ND","ND","0"],
    [44296,"2015-05-26T11:00:00","ND","ND","ND","ND","ND","3.85","ND","ND","ND","ND","ND","0"],
    [44297,"2015-05-26T12:00:00","ND","ND","ND","ND","ND","3.01","ND","ND","ND","ND","ND","0"],
    [44298,"2015-05-26T13:00:00","ND","ND","ND","ND","ND","3.74","ND","ND","ND","ND","ND","0"],
    [44299,"2015-05-26T14:00:00","ND","ND","ND","ND","ND","3.50","ND","ND","ND","ND","ND","0"],
    [44300,"2015-05-26T15:00:00","ND","ND","ND","ND","ND","4.67","ND","ND","ND","ND","ND","0"],
    [44301,"2015-05-26T16:00:00","ND","ND","ND","ND","ND","4.49","ND","ND","ND","ND","ND","0"],
    [44302,"2015-05-26T17:00:00","ND","ND","ND","ND","ND","4.64","ND","ND","ND","ND","ND","0"],
    [44303,"2015-05-26T18:00:00","ND","ND","ND","ND","ND","2.82","ND","ND","ND","ND","ND","0"],
    [44304,"2015-05-26T19:00:00","ND","ND","ND","ND","ND","4.78","ND","ND","ND","ND","ND","0"],
    [44305,"2015-05-26T20:00:00","ND","ND","ND","ND","ND","2.37","ND","ND","ND","ND","ND","0"],
    [44306,"2015-05-26T21:00:00","ND","ND","ND","ND","ND","1.83","ND","ND","ND","ND","ND","0"],
    [44307,"2015-05-26T22:00:00","ND","ND","ND","ND","ND","4.31","ND","ND","ND","ND","ND","0"],
    [44308,"2015-05-26T23:00:00","ND","ND","ND","ND","ND","3.88","ND","ND","ND","ND","ND","0"],
    [44309,"2015-05-27T00:00:00","ND","ND","ND","ND","ND","2.75","ND","ND","ND","ND","ND","0"],
    [44310,"2015-05-27T01:00:00","ND","ND","ND","ND","ND","3.55","ND","ND","ND","ND","ND","0"],
    [44311,"2015-05-27T02:00:00","ND","ND","ND","ND","ND","2.52","ND","ND","ND","ND","ND","0"],
    [44312,"2015-05-27T03:00:00","ND","ND","ND","ND","ND","3.48","ND","ND","ND","ND","ND","0"],
    [44313,"2015-05-27T04:00:00","ND","ND","ND","ND","ND","3.50","ND","ND","ND","ND","ND","0"],
    [44314,"2015-05-27T05:00:00","ND","ND","ND","ND","ND","2.51","ND","ND","ND","ND","ND","0"],
    [44315,"2015-05-27T06:00:00","ND","ND","ND","ND","ND","2.93","ND","ND","ND","ND","ND","0"],
    [44316,"2015-05-27T07:00:00","ND","ND","ND","ND","ND","3.09","ND","ND","ND","ND","ND","0"],
    [44317,"2015-05-27T08:00:00","ND","ND","ND","ND","ND","4.11","ND","ND","ND","ND","ND","0"],
    [44318,"2015-05-27T09:00:00","ND","ND","ND","ND","ND","6.50","ND","ND","ND","ND","ND","0"],
    [44319,"2015-05-27T10:00:00","ND","ND","ND","ND","ND","4.81","ND","ND","ND","ND","ND","0"],
    [44320,"2015-05-27T11:00:00","ND","ND","ND","ND","ND","4.11","ND","ND","ND","ND","ND","0"],
    [44321,"2015-05-27T12:00:00","ND","ND","ND","ND","ND","3.74","ND","ND","ND","ND","ND","0"],
    [44322,"2015-05-27T13:00:00","ND","ND","ND","ND","ND","2.68","ND","ND","ND","ND","ND","0"],
    [44323,"2015-05-27T14:00:00","ND","ND","ND","ND","ND","5.34","ND","ND","ND","ND","ND","0"],
    [44324,"2015-05-27T15:00:00","ND","ND","ND","ND","ND","2.51","ND","ND","ND","ND","ND","0"],
    [44325,"2015-05-27T16:00:00","ND","ND","ND","ND","ND","5.14","ND","ND","ND","ND","ND","0"],
    [44326,"2015-05-27T17:00:00","ND","ND","ND","ND","ND","3.32","ND","ND","ND","ND","ND","0"],
    [44327,"2015-05-27T18:00:00","ND","ND","ND","ND","ND","3.96","ND","ND","ND","ND","ND","2.54"],
    [44328,"2015-05-27T19:00:00","ND","ND","ND","ND","ND","2.37","ND","ND","ND","ND","ND","11.68"],
    [44329,"2015-05-27T20:00:00","ND","ND","ND","ND","ND","2.54","ND","ND","ND","ND","ND","1.02"],
    [44330,"2015-05-27T21:00:00","ND","ND","ND","ND","ND","5.51","ND","ND","ND","ND","ND","0.25"],
    [44331,"2015-05-27T22:00:00","ND","ND","ND","ND","ND","8.95","ND","ND","ND","ND","ND","0"],
    [44332,"2015-05-27T23:00:00","ND","ND","ND","ND","ND","3.35","ND","ND","ND","ND","ND","0"],
    [44333,"2015-05-28T00:00:00","ND","ND","ND","ND","ND","2.77","ND","ND","ND","ND","ND","0"],
    [44334,"2015-05-28T01:00:00","ND","ND","ND","ND","ND","3.67","ND","ND","ND","ND","ND","0.25"],
    [44335,"2015-05-28T02:00:00","ND","ND","ND","ND","ND","4.35","ND","ND","ND","ND","ND","0.25"],
    [44336,"2015-05-28T03:00:00","ND","ND","ND","ND","ND","2.73","ND","ND","ND","ND","ND","0"],
    [44337,"2015-05-28T04:00:00","ND","ND","ND","ND","ND","2.70","ND","ND","ND","ND","ND","0"],
    [44338,"2015-05-28T05:00:00","ND","ND","ND","ND","ND","5.17","ND","ND","ND","ND","ND","0"],
    [44339,"2015-05-28T06:00:00","ND","ND","ND","ND","ND","3.88","ND","ND","ND","ND","ND","0"],
    [44340,"2015-05-28T07:00:00","ND","ND","ND","ND","ND","4.17","ND","ND","ND","ND","ND","0.25"],
    [44341,"2015-05-28T08:00:00","ND","ND","ND","ND","ND","6.82","ND","ND","ND","ND","ND","8.64"],
    [44342,"2015-05-28T09:00:00","ND","ND","ND","ND","ND","3.85","ND","ND","ND","ND","ND","1.27"],
    [44343,"2015-05-28T10:00:00","ND","ND","ND","ND","ND","3.04","ND","ND","ND","ND","ND","4.06"],
    [44344,"2015-05-28T11:00:00","ND","ND","ND","ND","ND","4.68","ND","ND","ND","ND","ND","0"],
    [44345,"2015-05-28T12:00:00","ND","ND","ND","ND","ND","3.21","ND","ND","ND","ND","ND","0"],
    [44346,"2015-05-28T13:00:00","ND","ND","ND","ND","ND","1.99","ND","ND","ND","ND","ND","0"],
    [44347,"2015-05-28T14:00:00","ND","ND","ND","ND","ND","2.43","ND","ND","ND","ND","ND","0"],
    [44348,"2015-05-28T15:00:00","ND","ND","ND","ND","ND","3.23","ND","ND","ND","ND","ND","0"],
    [44349,"2015-05-28T16:00:00","ND","ND","ND","ND","ND","3.21","ND","ND","ND","ND","ND","0"],
    [44350,"2015-05-28T17:00:00","ND","ND","ND","ND","ND","3.93","ND","ND","ND","ND","ND","0"],
    [44351,"2015-05-28T18:00:00","ND","ND","ND","ND","ND","2.51","ND","ND","ND","ND","ND","0"],
    [44352,"2015-05-28T19:00:00","ND","ND","ND","ND","ND","3.90","ND","ND","ND","ND","ND","0"],
    [44353,"2015-05-28T20:00:00","ND","ND","ND","ND","ND","2.63","ND","ND","ND","ND","ND","0"],
    [44354,"2015-05-28T21:00:00","ND","ND","ND","ND","ND","3.47","ND","ND","ND","ND","ND","0"],
    [44355,"2015-05-28T22:00:00","ND","ND","ND","ND","ND","3.30","ND","ND","ND","ND","ND","0"],
    [44356,"2015-05-28T23:00:00","ND","ND","ND","ND","ND","3.36","ND","ND","ND","ND","ND","0"],
    [44357,"2015-05-29T00:00:00","ND","ND","ND","ND","ND","2.26","ND","ND","ND","ND","ND","0"],
    [44358,"2015-05-29T01:00:00","ND","ND","ND","ND","ND","2.84","ND","ND","ND","ND","ND","0"],
    [44359,"2015-05-29T02:00:00","ND","ND","ND","ND","ND","3.12","ND","ND","ND","ND","ND","0"],
    [44360,"2015-05-29T03:00:00","ND","ND","ND","ND","ND","2.55","ND","ND","ND","ND","ND","0"],
    [44361,"2015-05-29T04:00:00","ND","ND","ND","ND","ND","3.85","ND","ND","ND","ND","ND","0"],
    [44362,"2015-05-29T05:00:00","ND","ND","ND","ND","ND","2.52","ND","ND","ND","ND","ND","0"],
    [44363,"2015-05-29T06:00:00","ND","ND","ND","ND","ND","2.44","ND","ND","ND","ND","ND","0"],
    [44364,"2015-05-29T07:00:00","ND","ND","ND","ND","ND","2.47","ND","ND","ND","ND","ND","0"],
    [44365,"2015-05-29T08:00:00","ND","ND","ND","ND","ND","3.26","ND","ND","ND","ND","ND","0.25"],
    [44366,"2015-05-29T09:00:00","ND","ND","ND","ND","ND","4.39","ND","ND","ND","ND","ND","4.57"],
    [44367,"2015-05-29T10:00:00","37","ND","ND","ND","ND","2.48","ND","ND","ND","ND","ND","2.54"],
    [44368,"2015-05-29T11:00:00","0.6","ND","ND","ND","ND","3.86","ND","ND","ND","ND","ND","0"],
    [44369,"2015-05-29T12:00:00","2.2","ND","ND","ND","ND","2.91","ND","ND","ND","ND","ND","0"],
    [44370,"2015-05-29T13:00:00","18.4","ND","ND","ND","ND","5.13","ND","ND","ND","ND","ND","0"],
    [44371,"2015-05-29T14:00:00","17.3","ND","ND","ND","ND","3.26","ND","ND","ND","ND","ND","0"],
    [44372,"2015-05-29T15:00:00","18.8","ND","ND","ND","ND","1.91","ND","ND","ND","ND","ND","0"],
    [44373,"2015-05-29T16:00:00","33.6","ND","ND","ND","ND","2.75","ND","ND","ND","ND","ND","0"],
    [44374,"2015-05-29T17:00:00","38.7","ND","ND","ND","ND","2.41","ND","ND","ND","ND","ND","0"],
    [44375,"2015-05-29T18:00:00","44.9","ND","ND","ND","ND","1.53","ND","ND","ND","ND","ND","0"],
    [44376,"2015-05-29T19:00:00","48.1","ND","ND","ND","ND","3.36","ND","ND","ND","ND","ND","0"],
    [44377,"2015-05-29T20:00:00","57","ND","ND","ND","ND","3.33","ND","ND","ND","ND","ND","0"],
    [44378,"2015-05-29T21:00:00","62.2","ND","ND","ND","ND","4.13","ND","ND","ND","ND","ND","0"],
    [44379,"2015-05-29T22:00:00","68.3","ND","ND","ND","ND","5.23","ND","ND","ND","ND","ND","0"],
    [44380,"2015-05-29T23:00:00","72.2","ND","ND","ND","ND","2.94","ND","ND","ND","ND","ND","0"],
    [44381,"2015-05-30T00:00:00","56.8","ND","ND","ND","ND","3.47","ND","ND","ND","ND","ND","0"],
    [44382,"2015-05-30T01:00:00","42.1","ND","ND","ND","ND","5.07","ND","ND","ND","ND","ND","0"],
    [44383,"2015-05-30T02:00:00","34.2","ND","ND","ND","ND","4.99","ND","ND","ND","ND","ND","0"],
    [44384,"2015-05-30T03:00:00","38.2","ND","ND","ND","ND","4.10","ND","ND","ND","ND","ND","0"],
    [44385,"2015-05-30T04:00:00","35.8","ND","ND","ND","ND","3.09","ND","ND","ND","ND","ND","0"],
    [44386,"2015-05-30T05:00:00","36.9","ND","ND","ND","ND","3.99","ND","ND","ND","ND","ND","0"],
    [44387,"2015-05-30T06:00:00","41.5","ND","ND","ND","ND","3.61","ND","ND","ND","ND","ND","0"],
    [44388,"2015-05-30T07:00:00","53.7","ND","ND","ND","ND","3.65","ND","ND","ND","ND","ND","0"],
    [44389,"2015-05-30T08:00:00","75.6","ND","ND","ND","ND","3.35","ND","ND","ND","ND","ND","0"],
    [44390,"2015-05-30T09:00:00","89","ND","ND","ND","ND","3.40","ND","ND","ND","ND","ND","0"],
    [44391,"2015-05-30T10:00:00","76.8","ND","ND","ND","ND","2.97","ND","ND","ND","ND","ND","0"],
    [44392,"2015-05-30T11:00:00","51.5","ND","ND","ND","ND","1.60","ND","ND","ND","ND","ND","0"],
    [44393,"2015-05-30T12:00:00","35.8","ND","ND","ND","ND","3.28","ND","ND","ND","ND","ND","0"],
    [44394,"2015-05-30T13:00:00","41","ND","ND","ND","ND","3.96","ND","ND","ND","ND","ND","0"],
    [44395,"2015-05-30T14:00:00","49.8","ND","ND","ND","ND","4.71","ND","ND","ND","ND","ND","0"],
    [44396,"2015-05-30T15:00:00","11.9","ND","ND","ND","ND","4.29","ND","ND","ND","ND","ND","0"],
    [44397,"2015-05-30T16:00:00","39","ND","ND","ND","ND","3.18","ND","ND","ND","ND","ND","0"],
    [44398,"2015-05-30T17:00:00","28.7","ND","ND","ND","ND","2.59","ND","ND","ND","ND","ND","0"],
    [44399,"2015-05-30T18:00:00","15.7","ND","ND","ND","ND","3.54","ND","ND","ND","ND","ND","0"],
    [44400,"2015-05-30T19:00:00","20.6","ND","ND","ND","ND","1.62","ND","ND","ND","ND","ND","0"],
    [44401,"2015-05-30T20:00:00","31.9","ND","ND","ND","ND","1.17","ND","ND","ND","ND","ND","0"],
    [44402,"2015-05-30T21:00:00","49.2","ND","ND","ND","ND","3.09","ND","ND","ND","ND","ND","0"],
    [44403,"2015-05-30T22:00:00","57.5","ND","ND","ND","ND","2.76","ND","ND","ND","ND","ND","0"],
    [44404,"2015-05-30T23:00:00","53.8","ND","ND","ND","ND","2.44","ND","ND","ND","ND","ND","0"],
    [44405,"2015-05-31T00:00:00","50.2","ND","ND","ND","ND","2.59","ND","ND","ND","ND","ND","0"],
    [44406,"2015-05-31T01:00:00","49.7","ND","ND","ND","ND","2.44","ND","ND","ND","ND","ND","0"],
    [44407,"2015-05-31T02:00:00","70.1","ND","ND","ND","ND","5.02","ND","ND","ND","ND","ND","0"],
    [44408,"2015-05-31T03:00:00","41.2","ND","ND","ND","ND","1.95","ND","ND","ND","ND","ND","0"],
    [44409,"2015-05-31T04:00:00","23.2","ND","ND","ND","ND","3.50","ND","ND","ND","ND","ND","0"],
    [44410,"2015-05-31T05:00:00","32.6","ND","ND","ND","ND","4.57","ND","ND","ND","ND","ND","0"],
    [44411,"2015-05-31T06:00:00","27.5","ND","ND","ND","ND","3.96","ND","ND","ND","ND","ND","0"],
    [44412,"2015-05-31T07:00:00","33.9","ND","ND","ND","ND","3.12","ND","ND","ND","ND","ND","0"],
    [44413,"2015-05-31T08:00:00","34.8","ND","ND","ND","ND","2.72","ND","ND","ND","ND","ND","0"],
    [44414,"2015-05-31T09:00:00","37.8","ND","ND","ND","ND","3.32","ND","ND","ND","ND","ND","0"],
    [44415,"2015-05-31T10:00:00","38.1","ND","ND","ND","ND","1.85","ND","ND","ND","ND","ND","0"],
    [44416,"2015-05-31T11:00:00","27.5","ND","ND","ND","ND","2.87","ND","ND","ND","ND","ND","0"],
    [44417,"2015-05-31T12:00:00","26.9","ND","ND","ND","ND","2.56","ND","ND","ND","ND","ND","0"],
    [44418,"2015-05-31T13:00:00","25.8","ND","ND","ND","ND","4.03","ND","ND","ND","ND","ND","0"],
    [44419,"2015-05-31T14:00:00","27.1","ND","ND","ND","ND","3.32","ND","ND","ND","ND","ND","0"],
    [44420,"2015-05-31T15:00:00","23.6","ND","ND","ND","ND","1.91","ND","ND","ND","ND","ND","0"],
    [44421,"2015-05-31T16:00:00","10.9","ND","ND","ND","ND","2.59","ND","ND","ND","ND","ND","0"],
    [44422,"2015-05-31T17:00:00","16.8","ND","ND","ND","ND","3.11","ND","ND","ND","ND","ND","0"],
    [44423,"2015-05-31T18:00:00","12.1","ND","ND","ND","ND","1.94","ND","ND","ND","ND","ND","0"],
    [44424,"2015-05-31T19:00:00","18","ND","ND","ND","ND","2.72","ND","ND","ND","ND","ND","0"],
    [44425,"2015-05-31T20:00:00","20.4","ND","ND","ND","ND","2.37","ND","ND","ND","ND","ND","0"],
    [44426,"2015-05-31T21:00:00","25.5","ND","ND","ND","ND","3.00","ND","ND","ND","ND","ND","0"],
    [44427,"2015-05-31T22:00:00","18.6","ND","ND","ND","ND","1.70","ND","ND","ND","ND","ND","0"],
    [44428,"2015-05-31T23:00:00","18.6","ND","ND","ND","ND","1.99","ND","ND","ND","ND","ND","0"],
    [44429,"2015-06-01T00:00:00","10.4","ND","ND","ND","ND","2.10","ND","ND","ND","ND","ND","0"],
    [44430,"2015-06-01T01:00:00","15.7","ND","ND","ND","ND","4.74","ND","ND","ND","ND","ND","0"],
    [44431,"2015-06-01T02:00:00","17.9","ND","ND","ND","ND","2.20","ND","ND","ND","ND","ND","0"],
    [44432,"2015-06-01T03:00:00","16","ND","ND","ND","ND","2.72","ND","ND","ND","ND","ND","0"],
    [44433,"2015-06-01T04:00:00","29.1","ND","ND","ND","ND","3.21","ND","ND","ND","ND","ND","0.51"],
    [44434,"2015-06-01T05:00:00","25.9","ND","ND","ND","ND","4.63","ND","ND","ND","ND","ND","9.14"],
    [44435,"2015-06-01T06:00:00","25.3","ND","ND","ND","ND","2.76","ND","ND","ND","ND","ND","0.25"],
    [44436,"2015-06-01T07:00:00","29.8","ND","ND","ND","ND","2.69","ND","ND","ND","ND","ND","0"],
    [44437,"2015-06-01T08:00:00","30.7","ND","ND","ND","ND","2.62","ND","ND","ND","ND","ND","0"],
    [44438,"2015-06-01T09:00:00","37.3","ND","ND","ND","ND","4.63","ND","ND","ND","ND","ND","0"],
    [44439,"2015-06-01T10:00:00","36.8","ND","ND","ND","ND","4.59","ND","ND","ND","ND","ND","0"],
    [44440,"2015-06-01T11:00:00","44.7","ND","ND","ND","ND","4.81","ND","ND","ND","ND","ND","0"],
    [44441,"2015-06-01T12:00:00","43.8","ND","ND","ND","ND","3.55","ND","ND","ND","ND","ND","0"],
    [44442,"2015-06-01T13:00:00","38.9","ND","ND","ND","ND","3.55","ND","ND","ND","ND","ND","0"],
    [44443,"2015-06-01T14:00:00","32.7","ND","ND","ND","ND","2.75","ND","ND","ND","ND","ND","0"],
    [44444,"2015-06-01T15:00:00","43.5","ND","ND","ND","ND","3.30","ND","ND","ND","ND","ND","0"],
    [44445,"2015-06-01T16:00:00","54.7","ND","ND","ND","ND","3.43","ND","ND","ND","ND","ND","0"],
    [44446,"2015-06-01T17:00:00","39.4","ND","ND","ND","ND","2.36","ND","ND","ND","ND","ND","0"],
    [44447,"2015-06-01T18:00:00","32.4","ND","ND","ND","ND","2.43","ND","ND","ND","ND","ND","0"],
    [44448,"2015-06-01T19:00:00","48.1","ND","ND","ND","ND","3.37","ND","ND","ND","ND","ND","0"],
    [44449,"2015-06-01T20:00:00","48","ND","ND","ND","ND","3.61","ND","ND","ND","ND","ND","0"],
    [44450,"2015-06-01T21:00:00","40.9","ND","ND","ND","ND","3.21","ND","ND","ND","ND","ND","0"],
    [44451,"2015-06-01T22:00:00","40.8","ND","ND","ND","ND","2.08","ND","ND","ND","ND","ND","0"],
    [44452,"2015-06-01T23:00:00","41.9","ND","ND","ND","ND","4.39","ND","ND","ND","ND","ND","0"],
    [44453,"2015-06-02T00:00:00","35.1","ND","ND","ND","ND","3.12","ND","ND","ND","ND","ND","0"],
    [44454,"2015-06-02T01:00:00","24","ND","ND","ND","ND","2.40","ND","ND","ND","ND","ND","0"],
    [44455,"2015-06-02T02:00:00","26.3","ND","ND","ND","ND","2.90","ND","ND","ND","ND","ND","0"],
    [44456,"2015-06-02T03:00:00","47.4","ND","ND","ND","ND","3.61","ND","ND","ND","ND","ND","0"],
    [44457,"2015-06-02T04:00:00","50","ND","ND","ND","ND","2.31","ND","ND","ND","ND","ND","0"],
    [44458,"2015-06-02T05:00:00","55.9","ND","ND","ND","ND","3.57","ND","ND","ND","ND","ND","0"],
    [44459,"2015-06-02T06:00:00","55.5","ND","ND","ND","ND","2.58","ND","ND","ND","ND","ND","0"],
    [44460,"2015-06-02T07:00:00","76.7","ND","ND","ND","ND","3.72","ND","ND","ND","ND","ND","0"],
    [44461,"2015-06-02T08:00:00","93","ND","ND","ND","ND","3.18","ND","ND","ND","ND","ND","0"],
    [44462,"2015-06-02T09:00:00","71.3","ND","ND","ND","ND","4.13","ND","ND","ND","ND","ND","0"],
    [44463,"2015-06-02T10:00:00","51.4","ND","ND","ND","ND","2.91","ND","ND","ND","ND","ND","0"],
    [44464,"2015-06-02T11:00:00","33.7","ND","ND","ND","ND","4.00","ND","ND","ND","ND","ND","0"],
    [44465,"2015-06-02T12:00:00","40.8","ND","ND","ND","ND","2.96","ND","ND","ND","ND","ND","0"],
    [44466,"2015-06-02T13:00:00","34.6","ND","ND","ND","ND","2.58","ND","ND","ND","ND","ND","0"],
    [44467,"2015-06-02T14:00:00","40.1","ND","ND","ND","ND","2.56","ND","ND","ND","ND","ND","0"],
    [44468,"2015-06-02T15:00:00","30.5","ND","ND","ND","ND","2.59","ND","ND","ND","ND","ND","0"],
    [44469,"2015-06-02T16:00:00","27","ND","ND","ND","ND","3.32","ND","ND","ND","ND","ND","0"],
    [44470,"2015-06-02T17:00:00","29.8","ND","ND","ND","ND","2.69","ND","ND","ND","ND","ND","0"],
    [44471,"2015-06-02T18:00:00","42.1","ND","ND","ND","ND","2.09","ND","ND","ND","ND","ND","0"],
    [44472,"2015-06-02T19:00:00","38.4","ND","ND","ND","ND","2.77","ND","ND","ND","ND","ND","0"],
    [44473,"2015-06-02T20:00:00","42.6","ND","ND","ND","ND","3.40","ND","ND","ND","ND","ND","0"],
    [44474,"2015-06-02T21:00:00","38.6","ND","ND","ND","ND","3.60","ND","ND","ND","ND","ND","0"],
    [44475,"2015-06-02T22:00:00","38.8","ND","ND","ND","ND","3.42","ND","ND","ND","ND","ND","0"],
    [44476,"2015-06-02T23:00:00","50.2","ND","ND","ND","ND","3.62","ND","ND","ND","ND","ND","0"],
    [44477,"2015-06-03T00:00:00","50.4","ND","ND","ND","ND","3.05","ND","ND","ND","ND","ND","0"],
    [44478,"2015-06-03T01:00:00","38","ND","ND","ND","ND","3.47","ND","ND","ND","ND","ND","0"],
    [44479,"2015-06-03T02:00:00","33.5","ND","ND","ND","ND","3.22","ND","ND","ND","ND","ND","0"],
    [44480,"2015-06-03T03:00:00","38.7","ND","ND","ND","ND","3.65","ND","ND","ND","ND","ND","0"],
    [44481,"2015-06-03T04:00:00","35.7","ND","ND","ND","ND","3.46","ND","ND","ND","ND","ND","0"],
    [44482,"2015-06-03T05:00:00","32","ND","ND","ND","ND","2.87","ND","ND","ND","ND","ND","0"],
    [44483,"2015-06-03T06:00:00","33.4","ND","ND","ND","ND","2.23","ND","ND","ND","ND","ND","0"],
    [44484,"2015-06-03T07:00:00","41.8","ND","ND","ND","ND","2.04","ND","ND","ND","ND","ND","0"],
    [44485,"2015-06-03T08:00:00","73","ND","ND","ND","ND","4.88","ND","ND","ND","ND","ND","0"],
    [44486,"2015-06-03T09:00:00","96.6","ND","ND","ND","ND","4.15","ND","ND","ND","ND","ND","0"],
    [44487,"2015-06-03T10:00:00","72.7","ND","ND","ND","ND","6.16","ND","ND","ND","ND","ND","0"],
    [44488,"2015-06-03T11:00:00","65.4","ND","ND","ND","ND","11.19","ND","ND","ND","ND","ND","0"],
    [44489,"2015-06-03T12:00:00","58.4","ND","ND","ND","ND","2.20","ND","ND","ND","ND","ND","0"],
    [44490,"2015-06-03T13:00:00","36.8","ND","ND","ND","ND","3.94","ND","ND","ND","ND","ND","0"],
    [44491,"2015-06-03T14:00:00","32.3","ND","ND","ND","ND","7.74","ND","ND","ND","ND","ND","0"],
    [44492,"2015-06-03T15:00:00","38.3","ND","ND","ND","ND","5.91","ND","ND","ND","ND","ND","0"],
    [44493,"2015-06-03T16:00:00","36.7","ND","ND","ND","ND","5.51","ND","ND","ND","ND","ND","0"],
    [44494,"2015-06-03T17:00:00","34.6","ND","ND","ND","ND","2.17","ND","ND","ND","ND","ND","0"],
    [44495,"2015-06-03T18:00:00","30.5","ND","ND","ND","ND","3.35","ND","ND","ND","ND","ND","0"],
    [44496,"2015-06-03T19:00:00","25.1","ND","ND","ND","ND","2.72","ND","ND","ND","ND","ND","0"],
    [44497,"2015-06-03T20:00:00","29.7","ND","ND","ND","ND","2.91","ND","ND","ND","ND","ND","0"],
    [44498,"2015-06-03T21:00:00","28.4","ND","ND","ND","ND","3.48","ND","ND","ND","ND","ND","0"],
    [44499,"2015-06-03T22:00:00","36","ND","ND","ND","ND","4.00","ND","ND","ND","ND","ND","0"],
    [44500,"2015-06-03T23:00:00","30.2","ND","ND","ND","ND","6.65","ND","ND","ND","ND","ND","0"],
    [44501,"2015-06-04T00:00:00","30.3","ND","ND","ND","ND","3.30","ND","ND","ND","ND","ND","0"],
    [44502,"2015-06-04T01:00:00","39.3","ND","ND","ND","ND","2.62","ND","ND","ND","ND","ND","0"],
    [44503,"2015-06-04T02:00:00","31.9","ND","ND","ND","ND","2.50","ND","ND","ND","ND","ND","0"],
    [44504,"2015-06-04T03:00:00","43.8","ND","ND","ND","ND","4.81","ND","ND","ND","ND","ND","0"],
    [44505,"2015-06-04T04:00:00","39.6","ND","ND","ND","ND","2.70","ND","ND","ND","ND","ND","0"],
    [44506,"2015-06-04T05:00:00","33.1","ND","ND","ND","ND","3.57","ND","ND","ND","ND","ND","0"],
    [44507,"2015-06-04T06:00:00","39","ND","ND","ND","ND","3.43","ND","ND","ND","ND","ND","1.78"],
    [44508,"2015-06-04T07:00:00","47.9","ND","ND","ND","ND","2.69","ND","ND","ND","ND","ND","0.76"],
    [44509,"2015-06-04T08:00:00","50.8","ND","ND","ND","ND","3.83","ND","ND","ND","ND","ND","0"],
    [44510,"2015-06-04T09:00:00","43.8","ND","ND","ND","ND","2.17","ND","ND","ND","ND","ND","0"],
    [44511,"2015-06-04T10:00:00","61.3","ND","ND","ND","ND","4.80","ND","ND","ND","ND","ND","0"],
    [44512,"2015-06-04T11:00:00","54","ND","ND","ND","ND","3.96","ND","ND","ND","ND","ND","0"],
    [44513,"2015-06-04T12:00:00","44.4","ND","ND","ND","ND","8.53","ND","ND","ND","ND","ND","0"],
    [44514,"2015-06-04T13:00:00","41","ND","ND","ND","ND","4.95","ND","ND","ND","ND","ND","0"],
    [44515,"2015-06-04T14:00:00","43.7","ND","ND","ND","ND","5.66","ND","ND","ND","ND","ND","0"],
    [44516,"2015-06-04T15:00:00","41","ND","ND","ND","ND","6.34","ND","ND","ND","ND","ND","0"],
    [44517,"2015-06-04T16:00:00","37","ND","ND","ND","ND","2.93","ND","ND","ND","ND","ND","0"],
    [44518,"2015-06-04T17:00:00","27.3","ND","ND","ND","ND","1.17","ND","ND","ND","ND","ND","0"],
    [44519,"2015-06-04T18:00:00","24","ND","ND","ND","ND","2.33","ND","ND","ND","ND","ND","0"],
    [44520,"2015-06-04T19:00:00","28.9","ND","ND","ND","ND","2.20","ND","ND","ND","ND","ND","0"],
    [44521,"2015-06-04T20:00:00","26","ND","ND","ND","ND","2.70","ND","ND","ND","ND","ND","0"],
    [44522,"2015-06-04T21:00:00","24.2","ND","ND","ND","ND","2.10","ND","ND","ND","ND","ND","0"],
    [44523,"2015-06-04T22:00:00","11.8","ND","ND","ND","ND","3.33","ND","ND","ND","ND","ND","0"],
    [44524,"2015-06-04T23:00:00","15.1","ND","ND","ND","ND","3.08","ND","ND","ND","ND","ND","0"],
    [44525,"2015-06-05T00:00:00","28.4","ND","ND","ND","ND","3.57","ND","ND","ND","ND","ND","0"],
    [44526,"2015-06-05T01:00:00","31.1","ND","ND","ND","ND","3.67","ND","ND","ND","ND","ND","0"],
    [44527,"2015-06-05T02:00:00","41.7","ND","ND","ND","ND","3.19","ND","ND","ND","ND","ND","0"],
    [44528,"2015-06-05T03:00:00","33.3","ND","ND","ND","ND","1.91","ND","ND","ND","ND","ND","0"],
    [44529,"2015-06-05T04:00:00","30.4","ND","ND","ND","ND","2.29","ND","ND","ND","ND","ND","0"],
    [44530,"2015-06-05T05:00:00","29.9","ND","ND","ND","ND","2.72","ND","ND","ND","ND","ND","0"],
    [44531,"2015-06-05T06:00:00","22.6","ND","ND","ND","ND","2.66","ND","ND","ND","ND","ND","6.6"],
    [44532,"2015-06-05T07:00:00","22.6","ND","ND","ND","ND","2.51","ND","ND","ND","ND","ND","0.25"],
    [44533,"2015-06-05T08:00:00","32.7","ND","ND","ND","ND","3.30","ND","ND","ND","ND","ND","0"],
    [44534,"2015-06-05T09:00:00","37.8","ND","ND","ND","ND","3.51","ND","ND","ND","ND","ND","0"],
    [44535,"2015-06-05T10:00:00","51.5","ND","ND","ND","ND","2.19","ND","ND","ND","ND","ND","0"],
    [44536,"2015-06-05T11:00:00","63.2","ND","ND","ND","ND","3.11","ND","ND","ND","ND","ND","0"],
    [44537,"2015-06-05T12:00:00","60","ND","ND","ND","ND","2.23","ND","ND","ND","ND","ND","0"],
    [44538,"2015-06-05T13:00:00","40.3","ND","ND","ND","ND","4.91","ND","ND","ND","ND","ND","0"],
    [44539,"2015-06-05T14:00:00","28.7","ND","ND","ND","ND","4.49","ND","ND","ND","ND","ND","0"],
    [44540,"2015-06-05T15:00:00","35.9","ND","ND","ND","ND","4.24","ND","ND","ND","ND","ND","0"],
    [44541,"2015-06-05T16:00:00","34.7","ND","ND","ND","ND","5.16","ND","ND","ND","ND","ND","0"],
    [44542,"2015-06-05T17:00:00","23.2","ND","ND","ND","ND","3.35","ND","ND","ND","ND","ND","0"],
    [44543,"2015-06-05T18:00:00","24.9","ND","ND","ND","ND","2.34","ND","ND","ND","ND","ND","0"],
    [44544,"2015-06-05T19:00:00","25.3","ND","ND","ND","ND","2.30","ND","ND","ND","ND","ND","0"],
    [44545,"2015-06-05T20:00:00","22.8","ND","ND","ND","ND","2.15","ND","ND","ND","ND","ND","0"],
    [44546,"2015-06-05T21:00:00","32.8","ND","ND","ND","ND","2.84","ND","ND","ND","ND","ND","0"],
    [44547,"2015-06-05T22:00:00","35.1","ND","ND","ND","ND","3.15","ND","ND","ND","ND","ND","0"],
    [44548,"2015-06-05T23:00:00","35.4","ND","ND","ND","ND","2.94","ND","ND","ND","ND","ND","0"],
    [44549,"2015-06-06T00:00:00","35.6","ND","ND","ND","ND","1.98","ND","ND","ND","ND","ND","0"],
    [44550,"2015-06-06T01:00:00","32.6","ND","ND","ND","ND","1.80","ND","ND","ND","ND","ND","0"],
    [44551,"2015-06-06T02:00:00","32.1","ND","ND","ND","ND","1.67","ND","ND","ND","ND","ND","0"],
    [44552,"2015-06-06T03:00:00","30.2","ND","ND","ND","ND","2.87","ND","ND","ND","ND","ND","0"],
    [44553,"2015-06-06T04:00:00","27.8","ND","ND","ND","ND","2.76","ND","ND","ND","ND","ND","3.05"],
    [44554,"2015-06-06T05:00:00","22","ND","ND","ND","ND","1.94","ND","ND","ND","ND","ND","0"],
    [44555,"2015-06-06T06:00:00","15.8","ND","ND","ND","ND","3.09","ND","ND","ND","ND","ND","0.25"],
    [44556,"2015-06-06T07:00:00","22.1","ND","ND","ND","ND","1.98","ND","ND","ND","ND","ND","1.27"],
    [44557,"2015-06-06T08:00:00","22.6","ND","ND","ND","ND","3.09","ND","ND","ND","ND","ND","0"],
    [44558,"2015-06-06T09:00:00","40.4","ND","ND","ND","ND","3.39","ND","ND","ND","ND","ND","0"],
    [44559,"2015-06-06T10:00:00","40.7","ND","ND","ND","ND","2.45","ND","ND","ND","ND","ND","0"],
    [44560,"2015-06-06T11:00:00","31.5","ND","ND","ND","ND","3.30","ND","ND","ND","ND","ND","0"],
    [44561,"2015-06-06T12:00:00","28","ND","ND","ND","ND","2.19","ND","ND","ND","ND","ND","0"],
    [44562,"2015-06-06T13:00:00","33","ND","ND","ND","ND","2.70","ND","ND","ND","ND","ND","0"],
    [44563,"2015-06-06T14:00:00","35.1","ND","ND","ND","ND","3.93","ND","ND","ND","ND","ND","0"],
    [44564,"2015-06-06T15:00:00","31.9","ND","ND","ND","ND","3.48","ND","ND","ND","ND","ND","0"],
    [44565,"2015-06-06T16:00:00","23.2","ND","ND","ND","ND","2.69","ND","ND","ND","ND","ND","0"],
    [44566,"2015-06-06T17:00:00","21.3","ND","ND","ND","ND","2.27","ND","ND","ND","ND","ND","0"],
    [44567,"2015-06-06T18:00:00","14.2","ND","ND","ND","ND","2.15","ND","ND","ND","ND","ND","0"],
    [44568,"2015-06-06T19:00:00","16.6","ND","ND","ND","ND","2.61","ND","ND","ND","ND","ND","0"],
    [44569,"2015-06-06T20:00:00","25.8","ND","ND","ND","ND","1.63","ND","ND","ND","ND","ND","0"],
    [44570,"2015-06-06T21:00:00","34.9","ND","ND","ND","ND","1.30","ND","ND","ND","ND","ND","0"],
    [44571,"2015-06-06T22:00:00","31.4","ND","ND","ND","ND","2.62","ND","ND","ND","ND","ND","0"],
    [44572,"2015-06-06T23:00:00","28.5","ND","ND","ND","ND","4.01","ND","ND","ND","ND","ND","0"],
    [44573,"2015-06-07T00:00:00","26.3","ND","ND","ND","ND","2.65","ND","ND","ND","ND","ND","0"],
    [44574,"2015-06-07T01:00:00","32.9","ND","ND","ND","ND","3.02","ND","ND","ND","ND","ND","0"],
    [44575,"2015-06-07T02:00:00","43.4","ND","ND","ND","ND","2.93","ND","ND","ND","ND","ND","0"],
    [44576,"2015-06-07T03:00:00","28.6","ND","ND","ND","ND","2.16","ND","ND","ND","ND","ND","0"],
    [44577,"2015-06-07T04:00:00","25.9","ND","ND","ND","ND","2.83","ND","ND","ND","ND","ND","0"],
    [44578,"2015-06-07T05:00:00","30.6","ND","ND","ND","ND","2.54","ND","ND","ND","ND","ND","0"],
    [44579,"2015-06-07T06:00:00","26.5","ND","ND","ND","ND","2.54","ND","ND","ND","ND","ND","0"],
    [44580,"2015-06-07T07:00:00","28.5","ND","ND","ND","ND","2.63","ND","ND","ND","ND","ND","0"],
    [44581,"2015-06-07T08:00:00","25.2","ND","ND","ND","ND","3.23","ND","ND","ND","ND","ND","0"],
    [44582,"2015-06-07T09:00:00","39.1","ND","ND","ND","ND","3.57","ND","ND","ND","ND","ND","0"],
    [44583,"2015-06-07T10:00:00","47","ND","ND","ND","ND","4.01","ND","ND","ND","ND","ND","0"],
    [44584,"2015-06-07T11:00:00","42.6","ND","ND","ND","ND","2.40","ND","ND","ND","ND","ND","0"],
    [44585,"2015-06-07T12:00:00","37.5","ND","ND","ND","ND","1.90","ND","ND","ND","ND","ND","0"],
    [44586,"2015-06-07T13:00:00","28.8","ND","ND","ND","ND","2.62","ND","ND","ND","ND","ND","0"],
    [44587,"2015-06-07T14:00:00","27.9","ND","ND","ND","ND","2.66","ND","ND","ND","ND","ND","0"],
    [44588,"2015-06-07T15:00:00","22.6","ND","ND","ND","ND","2.24","ND","ND","ND","ND","ND","0"],
    [44589,"2015-06-07T16:00:00","15.7","ND","ND","ND","ND","1.52","ND","ND","ND","ND","ND","0"],
    [44590,"2015-06-07T17:00:00","14.6","ND","ND","ND","ND","2.34","ND","ND","ND","ND","ND","0"],
    [44591,"2015-06-07T18:00:00","10.7","ND","ND","ND","ND","2.26","ND","ND","ND","ND","ND","0"],
    [44592,"2015-06-07T19:00:00","14.7","ND","ND","ND","ND","3.16","ND","ND","ND","ND","ND","0"],
    [44593,"2015-06-07T20:00:00","18.2","ND","ND","ND","ND","1.84","ND","ND","ND","ND","ND","0"],
    [44594,"2015-06-07T21:00:00","14.9","ND","ND","ND","ND","3.82","ND","ND","ND","ND","ND","0"],
    [44595,"2015-06-07T22:00:00","12.8","ND","ND","ND","ND","2.36","ND","ND","ND","ND","ND","0"],
    [44596,"2015-06-07T23:00:00","17.7","ND","ND","ND","ND","3.18","ND","ND","ND","ND","ND","0"],
    [44597,"2015-06-08T00:00:00","7.9","ND","ND","ND","ND","2.59","ND","ND","ND","ND","ND","0.51"],
    [44598,"2015-06-08T01:00:00","16.8","ND","ND","ND","ND","2.75","ND","ND","ND","ND","ND","0"],
    [44599,"2015-06-08T02:00:00","23.4","ND","ND","ND","ND","3.33","ND","ND","ND","ND","ND","0"],
    [44600,"2015-06-08T03:00:00","18.7","ND","ND","ND","ND","2.59","ND","ND","ND","ND","ND","0"],
    [44601,"2015-06-08T04:00:00","14.9","ND","ND","ND","ND","1.67","ND","ND","ND","ND","ND","0"],
    [44602,"2015-06-08T05:00:00","22.8","ND","ND","ND","ND","2.40","ND","ND","ND","ND","ND","0"],
    [44603,"2015-06-08T06:00:00","28","ND","ND","ND","ND","3.01","ND","ND","ND","ND","ND","0"],
    [44604,"2015-06-08T07:00:00","26.8","ND","ND","ND","ND","2.76","ND","ND","ND","ND","ND","0"],
    [44605,"2015-06-08T08:00:00","27.8","ND","ND","ND","ND","3.00","ND","ND","ND","ND","ND","0"],
    [44606,"2015-06-08T09:00:00","32.6","ND","ND","ND","ND","2.59","ND","ND","ND","ND","ND","0"],
    [44607,"2015-06-08T10:00:00","38.7","ND","ND","ND","ND","2.97","ND","ND","ND","ND","ND","0"],
    [44608,"2015-06-08T11:00:00","44.1","ND","ND","ND","ND","4.10","ND","ND","ND","ND","ND","0"],
    [44609,"2015-06-08T12:00:00","42","ND","ND","ND","ND","2.83","ND","ND","ND","ND","ND","0"],
    [44610,"2015-06-08T13:00:00","28.1","ND","ND","ND","ND","2.34","ND","ND","ND","ND","ND","0"],
    [44611,"2015-06-08T14:00:00","17.9","ND","ND","ND","ND","2.29","ND","ND","ND","ND","ND","0"],
    [44612,"2015-06-08T15:00:00","9","ND","ND","ND","ND","2.50","ND","ND","ND","ND","ND","0"],
    [44613,"2015-06-08T16:00:00","9.6","ND","ND","ND","ND","2.33","ND","ND","ND","ND","ND","0"],
    [44614,"2015-06-08T17:00:00","18.5","ND","ND","ND","ND","1.73","ND","ND","ND","ND","ND","0"],
    [44615,"2015-06-08T18:00:00","11.4","ND","ND","ND","ND","2.37","ND","ND","ND","ND","ND","0"],
    [44616,"2015-06-08T19:00:00","9.8","ND","ND","ND","ND","3.39","ND","ND","ND","ND","ND","0"],
    [44617,"2015-06-08T20:00:00","14","ND","ND","ND","ND","2.55","ND","ND","ND","ND","ND","0"],
    [44618,"2015-06-08T21:00:00","21.1","ND","ND","ND","ND","1.90","ND","ND","ND","ND","ND","0"],
    [44619,"2015-06-08T22:00:00","12.9","ND","ND","ND","ND","2.90","ND","ND","ND","ND","ND","0"],
    [44620,"2015-06-08T23:00:00","19.6","ND","ND","ND","ND","2.04","ND","ND","ND","ND","ND","0"],
    [44621,"2015-06-09T00:00:00","19.4","ND","ND","ND","ND","2.76","ND","ND","ND","ND","ND","0"],
    [44622,"2015-06-09T01:00:00","18","ND","ND","ND","ND","3.23","ND","ND","ND","ND","ND","0"],
    [44623,"2015-06-09T02:00:00","18.8","ND","ND","ND","ND","2.79","ND","ND","ND","ND","ND","0"],
    [44624,"2015-06-09T03:00:00","25.7","ND","ND","ND","ND","3.26","ND","ND","ND","ND","ND","0"],
    [44625,"2015-06-09T04:00:00","31.1","ND","ND","ND","ND","3.08","ND","ND","ND","ND","ND","0"],
    [44626,"2015-06-09T05:00:00","26.1","ND","ND","ND","ND","3.04","ND","ND","ND","ND","ND","0"],
    [44627,"2015-06-09T06:00:00","32.9","ND","ND","ND","ND","4.91","ND","ND","ND","ND","ND","0.25"],
    [44628,"2015-06-09T07:00:00","32.9","ND","ND","ND","ND","4.57","ND","ND","ND","ND","ND","1.02"],
    [44629,"2015-06-09T08:00:00","33.2","ND","ND","ND","ND","2.37","ND","ND","ND","ND","ND","0"],
    [44630,"2015-06-09T09:00:00","49.3","ND","ND","ND","ND","7.88","ND","ND","ND","ND","ND","0"],
    [44631,"2015-06-09T10:00:00","59.5","ND","ND","ND","ND","6.15","ND","ND","ND","ND","ND","0"],
    [44632,"2015-06-09T11:00:00","39.5","ND","ND","ND","ND","8.11","ND","ND","ND","ND","ND","0"],
    [44633,"2015-06-09T12:00:00","36.8","ND","ND","ND","ND","2.96","ND","ND","ND","ND","ND","0"],
    [44634,"2015-06-09T13:00:00","30.1","ND","ND","ND","ND","7.65","ND","ND","ND","ND","ND","0"],
    [44635,"2015-06-09T14:00:00","27.1","ND","ND","ND","ND","4.53","ND","ND","ND","ND","ND","0"],
    [44636,"2015-06-09T15:00:00","27.7","ND","ND","ND","ND","7.05","ND","ND","ND","ND","ND","0"],
    [44637,"2015-06-09T16:00:00","32","ND","ND","ND","ND","2.91","ND","ND","ND","ND","ND","0"],
    [44638,"2015-06-09T17:00:00","24.9","ND","ND","ND","ND","3.05","ND","ND","ND","ND","ND","0"],
    [44639,"2015-06-09T18:00:00","23.3","ND","ND","ND","ND","3.00","ND","ND","ND","ND","ND","0"],
    [44640,"2015-06-09T19:00:00","28.9","ND","ND","ND","ND","2.86","ND","ND","ND","ND","ND","0"],
    [44641,"2015-06-09T20:00:00","29.6","ND","ND","ND","ND","2.17","ND","ND","ND","ND","ND","0"],
    [44642,"2015-06-09T21:00:00","26.1","ND","ND","ND","ND","1.77","ND","ND","ND","ND","ND","0"],
    [44643,"2015-06-09T22:00:00","29.7","ND","ND","ND","ND","2.97","ND","ND","ND","ND","ND","0"],
    [44644,"2015-06-09T23:00:00","24.1","ND","ND","ND","ND","2.73","ND","ND","ND","ND","ND","0"],
    [44645,"2015-06-10T00:00:00","16.7","ND","ND","ND","ND","3.12","ND","ND","ND","ND","ND","0"],
    [44646,"2015-06-10T01:00:00","13.4","ND","ND","ND","ND","1.80","ND","ND","ND","ND","ND","0"],
    [44647,"2015-06-10T02:00:00","10.6","ND","ND","ND","ND","2.52","ND","ND","ND","ND","ND","0"],
    [44648,"2015-06-10T03:00:00","13.4","ND","ND","ND","ND","3.08","ND","ND","ND","ND","ND","0"],
    [44649,"2015-06-10T04:00:00","11.8","ND","ND","ND","ND","2.58","ND","ND","ND","ND","ND","0"],
    [44650,"2015-06-10T05:00:00","13.8","ND","ND","ND","ND","3.51","ND","ND","ND","ND","ND","0"],
    [44651,"2015-06-10T06:00:00","8.9","ND","ND","ND","ND","3.21","ND","ND","ND","ND","ND","0"],
    [44652,"2015-06-10T07:00:00","8.1","ND","ND","ND","ND","3.14","ND","ND","ND","ND","ND","0"],
    [44653,"2015-06-10T08:00:00","45.7","ND","ND","ND","ND","2.65","ND","ND","ND","ND","ND","0"],
    [44654,"2015-06-10T09:00:00","77","ND","ND","ND","ND","6.97","ND","ND","ND","ND","ND","0"],
    [44655,"2015-06-10T10:00:00","52.6","ND","ND","ND","ND","4.47","ND","ND","ND","ND","ND","0"],
    [44656,"2015-06-10T11:00:00","53.6","ND","ND","ND","ND","7.05","ND","ND","ND","ND","ND","0"],
    [44657,"2015-06-10T12:00:00","39.3","ND","ND","ND","ND","7.15","ND","ND","ND","ND","ND","0"],
    [44658,"2015-06-10T13:00:00","27","ND","ND","ND","ND","4.63","ND","ND","ND","ND","ND","0"],
    [44659,"2015-06-10T14:00:00","24.7","ND","ND","ND","ND","4.13","ND","ND","ND","ND","ND","0"],
    [44660,"2015-06-10T15:00:00","28.3","ND","ND","ND","ND","9.67","ND","ND","ND","ND","ND","0"],
    [44661,"2015-06-10T16:00:00","28.2","ND","ND","ND","ND","3.94","ND","ND","ND","ND","ND","0"],
    [44662,"2015-06-10T17:00:00","31.1","ND","ND","ND","ND","3.78","ND","ND","ND","ND","ND","0"],
    [44663,"2015-06-10T18:00:00","31","ND","ND","ND","ND","1.95","ND","ND","ND","ND","ND","0"],
    [44664,"2015-06-10T19:00:00","37.3","ND","ND","ND","ND","2.02","ND","ND","ND","ND","ND","0"],
    [44665,"2015-06-10T20:00:00","27.1","ND","ND","ND","ND","1.99","ND","ND","ND","ND","ND","0"],
    [44666,"2015-06-10T21:00:00","55.9","ND","ND","ND","ND","3.00","ND","ND","ND","ND","ND","0"],
    [44667,"2015-06-10T22:00:00","59.3","ND","ND","ND","ND","2.58","ND","ND","ND","ND","ND","0"],
    [44668,"2015-06-10T23:00:00","51.5","ND","ND","ND","ND","4.50","ND","ND","ND","ND","ND","0"],
    [44669,"2015-06-11T00:00:00","29.6","ND","ND","ND","ND","3.39","ND","ND","ND","ND","ND","0"],
    [44670,"2015-06-11T01:00:00","30.2","ND","ND","ND","ND","4.13","ND","ND","ND","ND","ND","0"],
    [44671,"2015-06-11T02:00:00","26.4","ND","ND","ND","ND","3.97","ND","ND","ND","ND","ND","0"],
    [44672,"2015-06-11T03:00:00","41.4","ND","ND","ND","ND","3.28","ND","ND","ND","ND","ND","0"],
    [44673,"2015-06-11T04:00:00","52.5","ND","ND","ND","ND","2.17","ND","ND","ND","ND","ND","0"],
    [44674,"2015-06-11T05:00:00","47.9","ND","ND","ND","ND","4.25","ND","ND","ND","ND","ND","0"],
    [44675,"2015-06-11T06:00:00","36.1","ND","ND","ND","ND","3.23","ND","ND","ND","ND","ND","0"],
    [44676,"2015-06-11T07:00:00","57.7","ND","ND","ND","ND","3.57","ND","ND","ND","ND","ND","0"],
    [44677,"2015-06-11T08:00:00","114.6","ND","ND","ND","ND","3.93","ND","ND","ND","ND","ND","0"],
    [44678,"2015-06-11T09:00:00","95.8","ND","ND","ND","ND","5.46","ND","ND","ND","ND","ND","0"],
    [44679,"2015-06-11T10:00:00","69.6","ND","ND","ND","ND","3.55","ND","ND","ND","ND","ND","0"],
    [44680,"2015-06-11T11:00:00","52.3","ND","ND","ND","ND","3.36","ND","ND","ND","ND","ND","0"],
    [44681,"2015-06-11T12:00:00","37.7","ND","ND","ND","ND","2.23","ND","ND","ND","ND","ND","0"],
    [44682,"2015-06-11T13:00:00","39.9","ND","ND","ND","ND","3.81","ND","ND","ND","ND","ND","0"],
    [44683,"2015-06-11T14:00:00","32.4","ND","ND","ND","ND","5.13","ND","ND","ND","ND","ND","0"],
    [44684,"2015-06-11T15:00:00","33.9","ND","ND","ND","ND","6.90","ND","ND","ND","ND","ND","0"],
    [44685,"2015-06-11T16:00:00","32.3","ND","ND","ND","ND","3.22","ND","ND","ND","ND","ND","0"],
    [44686,"2015-06-11T17:00:00","38.4","ND","ND","ND","ND","3.89","ND","ND","ND","ND","ND","0"],
    [44687,"2015-06-11T18:00:00","39","ND","ND","ND","ND","3.23","ND","ND","ND","ND","ND","0"],
    [44688,"2015-06-11T19:00:00","26.3","ND","ND","ND","ND","3.44","ND","ND","ND","ND","ND","0"],
    [44689,"2015-06-11T20:00:00","25.7","ND","ND","ND","ND","3.11","ND","ND","ND","ND","ND","0"],
    [44690,"2015-06-11T21:00:00","27","ND","ND","ND","ND","2.83","ND","ND","ND","ND","ND","0"],
    [44691,"2015-06-11T22:00:00","52.8","ND","ND","ND","ND","3.02","ND","ND","ND","ND","ND","0"],
    [44692,"2015-06-11T23:00:00","37.2","ND","ND","ND","ND","2.05","ND","ND","ND","ND","ND","0"],
    [44693,"2015-06-12T00:00:00","22","ND","ND","ND","ND","2.01","ND","ND","ND","ND","ND","0"],
    [44694,"2015-06-12T01:00:00","33.6","ND","ND","ND","ND","3.60","ND","ND","ND","ND","ND","0"],
    [44695,"2015-06-12T02:00:00","61.3","ND","ND","ND","ND","2.02","ND","ND","ND","ND","ND","0"],
    [44696,"2015-06-12T03:00:00","58.6","ND","ND","ND","ND","3.64","ND","ND","ND","ND","ND","0"],
    [44697,"2015-06-12T04:00:00","104","ND","ND","ND","ND","2.68","ND","ND","ND","ND","ND","0"],
    [44698,"2015-06-12T05:00:00","79","ND","ND","ND","ND","3.08","ND","ND","ND","ND","ND","0"],
    [44699,"2015-06-12T06:00:00","77.7","ND","ND","ND","ND","2.96","ND","ND","ND","ND","ND","0"],
    [44700,"2015-06-12T07:00:00","78.7","ND","ND","ND","ND","4.31","ND","ND","ND","ND","ND","0"],
    [44701,"2015-06-12T08:00:00","63.4","ND","ND","ND","ND","2.26","ND","ND","ND","ND","ND","0"],
    [44702,"2015-06-12T09:00:00","78.2","ND","ND","ND","ND","3.90","ND","ND","ND","ND","ND","0"],
    [44703,"2015-06-12T10:00:00","84.4","ND","ND","ND","ND","3.88","ND","ND","ND","ND","ND","0"],
    [44704,"2015-06-12T11:00:00","53","ND","ND","ND","ND","1.70","ND","ND","ND","ND","ND","0"],
    [44705,"2015-06-12T12:00:00","37.8","ND","ND","ND","ND","2.50","ND","ND","ND","ND","ND","0"],
    [44706,"2015-06-12T13:00:00","36.9","ND","ND","ND","ND","2.98","ND","ND","ND","ND","ND","0"],
    [44707,"2015-06-12T14:00:00","35.2","ND","ND","ND","ND","3.32","ND","ND","ND","ND","ND","0"],
    [44708,"2015-06-12T15:00:00","30.4","ND","ND","ND","ND","5.44","ND","ND","ND","ND","ND","0"],
    [44709,"2015-06-12T16:00:00","25.5","ND","ND","ND","ND","2.10","ND","ND","ND","ND","ND","0"],
    [44710,"2015-06-12T17:00:00","17.3","ND","ND","ND","ND","4.06","ND","ND","ND","ND","ND","0"],
    [44711,"2015-06-12T18:00:00","18.4","ND","ND","ND","ND","2.22","ND","ND","ND","ND","ND","0"],
    [44712,"2015-06-12T19:00:00","26.5","ND","ND","ND","ND","2.02","ND","ND","ND","ND","ND","0"],
    [44713,"2015-06-12T20:00:00","24.3","ND","ND","ND","ND","2.09","ND","ND","ND","ND","ND","0"],
    [44714,"2015-06-12T21:00:00","29.4","ND","ND","ND","ND","3.32","ND","ND","ND","ND","ND","0"],
    [44715,"2015-06-12T22:00:00","29.9","ND","ND","ND","ND","1.73","ND","ND","ND","ND","ND","0"],
    [44716,"2015-06-12T23:00:00","21.2","ND","ND","ND","ND","2.20","ND","ND","ND","ND","ND","0"],
    [44717,"2015-06-13T00:00:00","13.6","ND","ND","ND","ND","2.73","ND","ND","ND","ND","ND","0"],
    [44718,"2015-06-13T01:00:00","34.5","ND","ND","ND","ND","6.01","ND","ND","ND","ND","ND","0"],
    [44719,"2015-06-13T02:00:00","65","ND","ND","ND","ND","5.74","ND","ND","ND","ND","ND","0"],
    [44720,"2015-06-13T03:00:00","43.2","ND","ND","ND","ND","4.34","ND","ND","ND","ND","ND","0"],
    [44721,"2015-06-13T04:00:00","43.6","ND","ND","ND","ND","2.87","ND","ND","ND","ND","ND","0"],
    [44722,"2015-06-13T05:00:00","53.8","ND","ND","ND","ND","5.07","ND","ND","ND","ND","ND","0"],
    [44723,"2015-06-13T06:00:00","52.4","ND","ND","ND","ND","3.61","ND","ND","ND","ND","ND","0"],
    [44724,"2015-06-13T07:00:00","74.1","ND","ND","ND","ND","3.36","ND","ND","ND","ND","ND","0"],
    [44725,"2015-06-13T08:00:00","87.3","ND","ND","ND","ND","3.18","ND","ND","ND","ND","ND","0"],
    [44726,"2015-06-13T09:00:00","90.2","ND","ND","ND","ND","2.54","ND","ND","ND","ND","ND","0"],
    [44727,"2015-06-13T10:00:00","90.4","ND","ND","ND","ND","4.99","ND","ND","ND","ND","ND","0"],
    [44728,"2015-06-13T11:00:00","57.9","ND","ND","ND","ND","4.99","ND","ND","ND","ND","ND","0"],
    [44729,"2015-06-13T12:00:00","45.9","ND","ND","ND","ND","5.58","ND","ND","ND","ND","ND","0"],
    [44730,"2015-06-13T13:00:00","36.8","ND","ND","ND","ND","3.85","ND","ND","ND","ND","ND","0"],
    [44731,"2015-06-13T14:00:00","29","ND","ND","ND","ND","2.90","ND","ND","ND","ND","ND","0"],
    [44732,"2015-06-13T15:00:00","39.8","ND","ND","ND","ND","2.96","ND","ND","ND","ND","ND","0"],
    [44733,"2015-06-13T16:00:00","45.2","ND","ND","ND","ND","1.83","ND","ND","ND","ND","ND","0"],
    [44734,"2015-06-13T17:00:00","41.1","ND","ND","ND","ND","2.75","ND","ND","ND","ND","ND","0"],
    [44735,"2015-06-13T18:00:00","45.5","ND","ND","ND","ND","3.01","ND","ND","ND","ND","ND","0"],
    [44736,"2015-06-13T19:00:00","50.7","ND","ND","ND","ND","3.22","ND","ND","ND","ND","ND","0"],
    [44737,"2015-06-13T20:00:00","55.5","ND","ND","ND","ND","3.08","ND","ND","ND","ND","ND","0"],
    [44738,"2015-06-13T21:00:00","46.8","ND","ND","ND","ND","2.04","ND","ND","ND","ND","ND","0"],
    [44739,"2015-06-13T22:00:00","50.6","ND","ND","ND","ND","4.46","ND","ND","ND","ND","ND","0"],
    [44740,"2015-06-13T23:00:00","46.2","ND","ND","ND","ND","4.28","ND","ND","ND","ND","ND","0"],
    [44741,"2015-06-14T00:00:00","48.4","ND","ND","ND","ND","2.77","ND","ND","ND","ND","ND","0"],
    [44742,"2015-06-14T01:00:00","48.6","ND","ND","ND","ND","2.87","ND","ND","ND","ND","ND","0"],
    [44743,"2015-06-14T02:00:00","45.5","ND","ND","ND","ND","5.63","ND","ND","ND","ND","ND","0"],
    [44744,"2015-06-14T03:00:00","33.7","ND","ND","ND","ND","3.25","ND","ND","ND","ND","ND","0"],
    [44745,"2015-06-14T04:00:00","42.1","ND","ND","ND","ND","3.64","ND","ND","ND","ND","ND","0"],
    [44746,"2015-06-14T05:00:00","42.4","ND","ND","ND","ND","2.59","ND","ND","ND","ND","ND","0"],
    [44747,"2015-06-14T06:00:00","49.3","ND","ND","ND","ND","4.27","ND","ND","ND","ND","ND","0"],
    [44748,"2015-06-14T07:00:00","61.6","ND","ND","ND","ND","3.58","ND","ND","ND","ND","ND","0"],
    [44749,"2015-06-14T08:00:00","63.1","ND","ND","ND","ND","3.07","ND","ND","ND","ND","ND","0"],
    [44750,"2015-06-14T09:00:00","61.8","ND","ND","ND","ND","3.01","ND","ND","ND","ND","ND","0"],
    [44751,"2015-06-14T10:00:00","55","ND","ND","ND","ND","4.11","ND","ND","ND","ND","ND","0"],
    [44752,"2015-06-14T11:00:00","37.6","ND","ND","ND","ND","3.09","ND","ND","ND","ND","ND","0"],
    [44753,"2015-06-14T12:00:00","42","ND","ND","ND","ND","3.35","ND","ND","ND","ND","ND","0"],
    [44754,"2015-06-14T13:00:00","45.6","ND","ND","ND","ND","3.85","ND","ND","ND","ND","ND","0"],
    [44755,"2015-06-14T14:00:00","42.1","ND","ND","ND","ND","3.72","ND","ND","ND","ND","ND","0"],
    [44756,"2015-06-14T15:00:00","33.9","ND","ND","ND","ND","3.44","ND","ND","ND","ND","ND","0"],
    [44757,"2015-06-14T16:00:00","31.1","ND","ND","ND","ND","2.41","ND","ND","ND","ND","ND","0"],
    [44758,"2015-06-14T17:00:00","23.3","ND","ND","ND","ND","2.02","ND","ND","ND","ND","ND","0"],
    [44759,"2015-06-14T18:00:00","14.5","ND","ND","ND","ND","1.69","ND","ND","ND","ND","ND","0"],
    [44760,"2015-06-14T19:00:00","17.3","ND","ND","ND","ND","2.77","ND","ND","ND","ND","ND","0"],
    [44761,"2015-06-14T20:00:00","23","ND","ND","ND","ND","2.08","ND","ND","ND","ND","ND","0"],
    [44762,"2015-06-14T21:00:00","19.3","ND","ND","ND","ND","2.06","ND","ND","ND","ND","ND","0"],
    [44763,"2015-06-14T22:00:00","22.1","ND","ND","ND","ND","2.70","ND","ND","ND","ND","ND","0"],
    [44764,"2015-06-14T23:00:00","22.9","ND","ND","ND","ND","1.69","ND","ND","ND","ND","ND","0"],
    [44765,"2015-06-15T00:00:00","25.3","ND","ND","ND","ND","3.39","ND","ND","ND","ND","ND","0"],
    [44766,"2015-06-15T01:00:00","24.3","ND","ND","ND","ND","3.32","ND","ND","ND","ND","ND","0"],
    [44767,"2015-06-15T02:00:00","23.5","ND","ND","ND","ND","2.30","ND","ND","ND","ND","ND","0"],
    [44768,"2015-06-15T03:00:00","34.9","ND","ND","ND","ND","1.76","ND","ND","ND","ND","ND","0"],
    [44769,"2015-06-15T04:00:00","37.4","ND","ND","ND","ND","2.02","ND","ND","ND","ND","ND","0"],
    [44770,"2015-06-15T05:00:00","33.3","ND","ND","ND","ND","2.04","ND","ND","ND","ND","ND","0"],
    [44771,"2015-06-15T06:00:00","35.6","ND","ND","ND","ND","2.36","ND","ND","ND","ND","ND","0"],
    [44772,"2015-06-15T07:00:00","47.6","ND","ND","ND","ND","2.19","ND","ND","ND","ND","ND","0"],
    [44773,"2015-06-15T08:00:00","47.7","ND","ND","ND","ND","4.01","ND","ND","ND","ND","ND","0"],
    [44774,"2015-06-15T09:00:00","51.3","ND","ND","ND","ND","2.58","ND","ND","ND","ND","ND","0"],
    [44775,"2015-06-15T10:00:00","42.7","ND","ND","ND","ND","2.65","ND","ND","ND","ND","ND","0"],
    [44776,"2015-06-15T11:00:00","33","ND","ND","ND","ND","2.20","ND","ND","ND","ND","ND","0"],
    [44777,"2015-06-15T12:00:00","30.3","ND","ND","ND","ND","2.48","ND","ND","ND","ND","ND","0"],
    [44778,"2015-06-15T13:00:00","28","ND","ND","ND","ND","1.94","ND","ND","ND","ND","ND","0"],
    [44779,"2015-06-15T14:00:00","32.2","ND","ND","ND","ND","1.70","ND","ND","ND","ND","ND","0"],
    [44780,"2015-06-15T15:00:00","26.7","ND","ND","ND","ND","2.45","ND","ND","ND","ND","ND","0"],
    [44781,"2015-06-15T16:00:00","24.7","ND","ND","ND","ND","2.98","ND","ND","ND","ND","ND","0"],
    [44782,"2015-06-15T17:00:00","24.5","ND","ND","ND","ND","1.91","ND","ND","ND","ND","ND","0"],
    [44783,"2015-06-15T18:00:00","18.9","ND","ND","ND","ND","1.35","ND","ND","ND","ND","ND","0"],
    [44784,"2015-06-15T19:00:00","20.5","ND","ND","ND","ND","1.70","ND","ND","ND","ND","ND","1.78"],
    [44785,"2015-06-15T20:00:00","15.9","ND","ND","ND","ND","2.37","ND","ND","ND","ND","ND","0"],
    [44786,"2015-06-15T21:00:00","16.1","ND","ND","ND","ND","3.01","ND","ND","ND","ND","ND","0"],
    [44787,"2015-06-15T22:00:00","20","ND","ND","ND","ND","2.27","ND","ND","ND","ND","ND","0"],
    [44788,"2015-06-15T23:00:00","20.4","ND","ND","ND","ND","1.44","ND","ND","ND","ND","ND","0"],
    [44789,"2015-06-16T00:00:00","24.3","ND","ND","ND","ND","1.77","ND","ND","ND","ND","ND","0"],
    [44790,"2015-06-16T01:00:00","40.3","ND","ND","ND","ND","2.97","ND","ND","ND","ND","ND","0"],
    [44791,"2015-06-16T02:00:00","46.4","ND","ND","ND","ND","3.68","ND","ND","ND","ND","ND","0"],
    [44792,"2015-06-16T03:00:00","41.4","ND","ND","ND","ND","4.92","ND","ND","ND","ND","ND","0"],
    [44793,"2015-06-16T04:00:00","37","ND","ND","ND","ND","3.01","ND","ND","ND","ND","ND","0"],
    [44794,"2015-06-16T05:00:00","34.6","ND","ND","ND","ND","3.32","ND","ND","ND","ND","ND","0"],
    [44795,"2015-06-16T06:00:00","31.9","ND","ND","ND","ND","2.96","ND","ND","ND","ND","ND","0"],
    [44796,"2015-06-16T07:00:00","34.3","ND","ND","ND","ND","1.81","ND","ND","ND","ND","ND","0"],
    [44797,"2015-06-16T08:00:00","64","ND","ND","ND","ND","3.08","ND","ND","ND","ND","ND","0"],
    [44798,"2015-06-16T09:00:00","64.4","ND","ND","ND","ND","2.20","ND","ND","ND","ND","ND","0"],
    [44799,"2015-06-16T10:00:00","57.4","ND","ND","ND","ND","3.18","ND","ND","ND","ND","ND","0"],
    [44800,"2015-06-16T11:00:00","44.3","ND","ND","ND","ND","4.25","ND","ND","ND","ND","ND","0"],
    [44801,"2015-06-16T12:00:00","47.1","ND","ND","ND","ND","3.21","ND","ND","ND","ND","ND","0"],
    [44802,"2015-06-16T13:00:00","57.5","ND","ND","ND","ND","3.39","ND","ND","ND","ND","ND","0"],
    [44803,"2015-06-16T14:00:00","55.3","ND","ND","ND","ND","1.52","ND","ND","ND","ND","ND","0"],
    [44804,"2015-06-16T15:00:00","44.5","ND","ND","ND","ND","3.18","ND","ND","ND","ND","ND","0"],
    [44805,"2015-06-16T16:00:00","38.8","ND","ND","ND","ND","2.37","ND","ND","ND","ND","ND","0"],
    [44806,"2015-06-16T17:00:00","27.6","ND","ND","ND","ND","3.02","ND","ND","ND","ND","ND","0"],
    [44807,"2015-06-16T18:00:00","22.6","ND","ND","ND","ND","1.98","ND","ND","ND","ND","ND","0"],
    [44808,"2015-06-16T19:00:00","40.8","ND","ND","ND","ND","2.01","ND","ND","ND","ND","ND","0"],
    [44809,"2015-06-16T20:00:00","67.1","ND","ND","ND","ND","2.04","ND","ND","ND","ND","ND","0"],
    [44810,"2015-06-16T21:00:00","63.3","ND","ND","ND","ND","1.90","ND","ND","ND","ND","ND","0"],
    [44811,"2015-06-16T22:00:00","43.6","ND","ND","ND","ND","3.32","ND","ND","ND","ND","ND","0"],
    [44812,"2015-06-16T23:00:00","23.8","ND","ND","ND","ND","2.19","ND","ND","ND","ND","ND","0"],
    [44813,"2015-06-17T00:00:00","21.3","ND","ND","ND","ND","3.39","ND","ND","ND","ND","ND","0"],
    [44814,"2015-06-17T01:00:00","29.6","ND","ND","ND","ND","3.37","ND","ND","ND","ND","ND","0"],
    [44815,"2015-06-17T02:00:00","46","ND","ND","ND","ND","2.93","ND","ND","ND","ND","ND","0"],
    [44816,"2015-06-17T03:00:00","51.3","ND","ND","ND","ND","2.12","ND","ND","ND","ND","ND","0"],
    [44817,"2015-06-17T04:00:00","55.9","ND","ND","ND","ND","2.50","ND","ND","ND","ND","ND","0"],
    [44818,"2015-06-17T05:00:00","58.8","ND","ND","ND","ND","1.94","ND","ND","ND","ND","ND","0"],
    [44819,"2015-06-17T06:00:00","52.3","ND","ND","ND","ND","2.26","ND","ND","ND","ND","ND","0"],
    [44820,"2015-06-17T07:00:00","66","ND","ND","ND","ND","2.56","ND","ND","ND","ND","ND","0"],
    [44821,"2015-06-17T08:00:00","95.9","ND","ND","ND","ND","3.86","ND","ND","ND","ND","ND","0"],
    [44822,"2015-06-17T09:00:00","101.8","ND","ND","ND","ND","3.43","ND","ND","ND","ND","ND","0"],
    [44823,"2015-06-17T10:00:00","81.4","ND","ND","ND","ND","2.79","ND","ND","ND","ND","ND","0"],
    [44824,"2015-06-17T11:00:00","59.6","ND","ND","ND","ND","2.86","ND","ND","ND","ND","ND","0"],
    [44825,"2015-06-17T12:00:00","36.6","ND","ND","ND","ND","3.57","ND","ND","ND","ND","ND","0"],
    [44826,"2015-06-17T13:00:00","24.1","ND","ND","ND","ND","1.73","ND","ND","ND","ND","ND","0"],
    [44827,"2015-06-17T14:00:00","34.6","ND","ND","ND","ND","3.16","ND","ND","ND","ND","ND","0"],
    [44828,"2015-06-17T15:00:00","36.8","ND","ND","ND","ND","1.87","ND","ND","ND","ND","ND","0"],
    [44829,"2015-06-17T16:00:00","42.2","ND","ND","ND","ND","4.07","ND","ND","ND","ND","ND","0"],
    [44830,"2015-06-17T17:00:00","25.8","ND","ND","ND","ND","2.04","ND","ND","ND","ND","ND","0"],
    [44831,"2015-06-17T18:00:00","15.5","ND","ND","ND","ND","2.50","ND","ND","ND","ND","ND","0"],
    [44832,"2015-06-17T19:00:00","24.3","ND","ND","ND","ND","2.10","ND","ND","ND","ND","ND","0"],
    [44833,"2015-06-17T20:00:00","33.1","ND","ND","ND","ND","3.05","ND","ND","ND","ND","ND","0"],
    [44834,"2015-06-17T21:00:00","34.6","ND","ND","ND","ND","2.89","ND","ND","ND","ND","ND","0"],
    [44835,"2015-06-17T22:00:00","42.2","ND","ND","ND","ND","3.36","ND","ND","ND","ND","ND","0"],
    [44836,"2015-06-17T23:00:00","42.2","ND","ND","ND","ND","3.15","ND","ND","ND","ND","ND","0"],
    [44837,"2015-06-18T00:00:00","54.7","ND","ND","ND","ND","2.82","ND","ND","ND","ND","ND","0"],
    [44838,"2015-06-18T01:00:00","51.5","ND","ND","ND","ND","2.65","ND","ND","ND","ND","ND","0"],
    [44839,"2015-06-18T02:00:00","71.3","ND","ND","ND","ND","2.98","ND","ND","ND","ND","ND","0"],
    [44840,"2015-06-18T03:00:00","56.1","ND","ND","ND","ND","3.89","ND","ND","ND","ND","ND","0"],
    [44841,"2015-06-18T04:00:00","62.2","ND","ND","ND","ND","3.71","ND","ND","ND","ND","ND","0"],
    [44842,"2015-06-18T05:00:00","45.4","ND","ND","ND","ND","3.19","ND","ND","ND","ND","ND","0"],
    [44843,"2015-06-18T06:00:00","40.9","ND","ND","ND","ND","2.22","ND","ND","ND","ND","ND","0"],
    [44844,"2015-06-18T07:00:00","49","ND","ND","ND","ND","3.29","ND","ND","ND","ND","ND","0"],
    [44845,"2015-06-18T08:00:00","40.9","ND","ND","ND","ND","1.94","ND","ND","ND","ND","ND","0"],
    [44846,"2015-06-18T09:00:00","53.7","ND","ND","ND","ND","3.39","ND","ND","ND","ND","ND","0"],
    [44847,"2015-06-18T10:00:00","75.4","ND","ND","ND","ND","2.97","ND","ND","ND","ND","ND","0"],
    [44848,"2015-06-18T11:00:00","62","ND","ND","ND","ND","3.69","ND","ND","ND","ND","ND","0"],
    [44849,"2015-06-18T12:00:00","51.7","ND","ND","ND","ND","2.22","ND","ND","ND","ND","ND","0"],
    [44850,"2015-06-18T13:00:00","56.8","ND","ND","ND","ND","3.19","ND","ND","ND","ND","ND","0"],
    [44851,"2015-06-18T14:00:00","37.4","ND","ND","ND","ND","2.51","ND","ND","ND","ND","ND","0"],
    [44852,"2015-06-18T15:00:00","32.9","ND","ND","ND","ND","2.15","ND","ND","ND","ND","ND","0"],
    [44853,"2015-06-18T16:00:00","15.4","ND","ND","ND","ND","3.40","ND","ND","ND","ND","ND","0"],
    [44854,"2015-06-18T17:00:00","28.2","ND","ND","ND","ND","2.27","ND","ND","ND","ND","ND","0"],
    [44855,"2015-06-18T18:00:00","34.2","ND","ND","ND","ND","2.69","ND","ND","ND","ND","ND","0"],
    [44856,"2015-06-18T19:00:00","34.8","ND","ND","ND","ND","2.75","ND","ND","ND","ND","ND","0"],
    [44857,"2015-06-18T20:00:00","38.4","ND","ND","ND","ND","3.57","ND","ND","ND","ND","ND","0"],
    [44858,"2015-06-18T21:00:00","53.4","ND","ND","ND","ND","2.48","ND","ND","ND","ND","ND","0"],
    [44859,"2015-06-18T22:00:00","44.2","ND","ND","ND","ND","2.96","ND","ND","ND","ND","ND","0"],
    [44860,"2015-06-18T23:00:00","40","ND","ND","ND","ND","3.16","ND","ND","ND","ND","ND","0"],
    [44861,"2015-06-19T00:00:00","34.8","ND","ND","ND","ND","3.35","ND","ND","ND","ND","ND","0"],
    [44862,"2015-06-19T01:00:00","23.7","ND","ND","ND","ND","1.62","ND","ND","ND","ND","ND","0"],
    [44863,"2015-06-19T02:00:00","36.9","ND","ND","ND","ND","3.18","ND","ND","ND","ND","ND","0"],
    [44864,"2015-06-19T03:00:00","52.6","ND","ND","ND","ND","2.30","ND","ND","ND","ND","ND","0"],
    [44865,"2015-06-19T04:00:00","62.4","ND","ND","ND","ND","2.91","ND","ND","ND","ND","ND","0"],
    [44866,"2015-06-19T05:00:00","66.6","ND","ND","ND","ND","3.43","ND","ND","ND","ND","ND","0"],
    [44867,"2015-06-19T06:00:00","77.1","ND","ND","ND","ND","4.25","ND","ND","ND","ND","ND","0"],
    [44868,"2015-06-19T07:00:00","89.8","ND","ND","ND","ND","3.32","ND","ND","ND","ND","ND","0"],
    [44869,"2015-06-19T08:00:00","118.3","ND","ND","ND","ND","2.87","ND","ND","ND","ND","ND","0"],
    [44870,"2015-06-19T09:00:00","159.9","ND","ND","ND","ND","4.15","ND","ND","ND","ND","ND","0"],
    [44871,"2015-06-19T10:00:00","97.7","ND","ND","ND","ND","3.50","ND","ND","ND","ND","ND","0"],
    [44872,"2015-06-19T11:00:00","56.2","ND","ND","ND","ND","5.67","ND","ND","ND","ND","ND","0"],
    [44873,"2015-06-19T12:00:00","45.8","ND","ND","ND","ND","3.96","ND","ND","ND","ND","ND","0"],
    [44874,"2015-06-19T13:00:00","40.6","ND","ND","ND","ND","5.06","ND","ND","ND","ND","ND","0"],
    [44875,"2015-06-19T14:00:00","33.5","ND","ND","ND","ND","3.61","ND","ND","ND","ND","ND","0"],
    [44876,"2015-06-19T15:00:00","37.2","ND","ND","ND","ND","10.23","ND","ND","ND","ND","ND","0"],
    [44877,"2015-06-19T16:00:00","33","ND","ND","ND","ND","3.57","ND","ND","ND","ND","ND","0"],
    [44878,"2015-06-19T17:00:00","32.8","ND","ND","ND","ND","2.65","ND","ND","ND","ND","ND","0"],
    [44879,"2015-06-19T18:00:00","20.1","ND","ND","ND","ND","2.90","ND","ND","ND","ND","ND","0"],
    [44880,"2015-06-19T19:00:00","21.8","ND","ND","ND","ND","2.43","ND","ND","ND","ND","ND","0"],
    [44881,"2015-06-19T20:00:00","38.6","ND","ND","ND","ND","2.62","ND","ND","ND","ND","ND","0"],
    [44882,"2015-06-19T21:00:00","50.3","ND","ND","ND","ND","3.62","ND","ND","ND","ND","ND","0"],
    [44883,"2015-06-19T22:00:00","47.3","ND","ND","ND","ND","3.75","ND","ND","ND","ND","ND","0"],
    [44884,"2015-06-19T23:00:00","50.1","ND","ND","ND","ND","2.34","ND","ND","ND","ND","ND","0"],
    [44885,"2015-06-20T00:00:00","46.5","ND","ND","ND","ND","3.09","ND","ND","ND","ND","ND","0"],
    [44886,"2015-06-20T01:00:00","37","ND","ND","ND","ND","3.12","ND","ND","ND","ND","ND","0"],
    [44887,"2015-06-20T02:00:00","43","ND","ND","ND","ND","3.23","ND","ND","ND","ND","ND","0"],
    [44888,"2015-06-20T03:00:00","44.1","ND","ND","ND","ND","4.36","ND","ND","ND","ND","ND","0"],
    [44889,"2015-06-20T04:00:00","47.6","ND","ND","ND","ND","4.15","ND","ND","ND","ND","ND","0"],
    [44890,"2015-06-20T05:00:00","51.8","ND","ND","ND","ND","3.57","ND","ND","ND","ND","ND","0"],
    [44891,"2015-06-20T06:00:00","54.7","ND","ND","ND","ND","3.55","ND","ND","ND","ND","ND","0"],
    [44892,"2015-06-20T07:00:00","76","ND","ND","ND","ND","4.29","ND","ND","ND","ND","ND","0"],
    [44893,"2015-06-20T08:00:00","95.5","ND","ND","ND","ND","4.21","ND","ND","ND","ND","ND","0"],
    [44894,"2015-06-20T09:00:00","108.7","ND","ND","ND","ND","3.16","ND","ND","ND","ND","ND","0"],
    [44895,"2015-06-20T10:00:00","79.7","ND","ND","ND","ND","4.11","ND","ND","ND","ND","ND","0"],
    [44896,"2015-06-20T11:00:00","58.7","ND","ND","ND","ND","3.09","ND","ND","ND","ND","ND","0"],
    [44897,"2015-06-20T12:00:00","53.5","ND","ND","ND","ND","3.22","ND","ND","ND","ND","ND","0"],
    [44898,"2015-06-20T13:00:00","39","ND","ND","ND","ND","4.15","ND","ND","ND","ND","ND","0"],
    [44899,"2015-06-20T14:00:00","37.3","ND","ND","ND","ND","4.42","ND","ND","ND","ND","ND","0"],
    [44900,"2015-06-20T15:00:00","35.4","ND","ND","ND","ND","2.75","ND","ND","ND","ND","ND","0"],
    [44901,"2015-06-20T16:00:00","40.3","ND","ND","ND","ND","3.48","ND","ND","ND","ND","ND","0"],
    [44902,"2015-06-20T17:00:00","31","ND","ND","ND","ND","4.85","ND","ND","ND","ND","ND","0"],
    [44903,"2015-06-20T18:00:00","34","ND","ND","ND","ND","3.40","ND","ND","ND","ND","ND","0"],
    [44904,"2015-06-20T19:00:00","31.7","ND","ND","ND","ND","4.73","ND","ND","ND","ND","ND","0"],
    [44905,"2015-06-20T20:00:00","28.6","ND","ND","ND","ND","4.67","ND","ND","ND","ND","ND","0"],
    [44906,"2015-06-20T21:00:00","35.2","ND","ND","ND","ND","3.36","ND","ND","ND","ND","ND","0"],
    [44907,"2015-06-20T22:00:00","45","ND","ND","ND","ND","3.93","ND","ND","ND","ND","ND","0"],
    [44908,"2015-06-20T23:00:00","36.1","ND","ND","ND","ND","2.38","ND","ND","ND","ND","ND","0"],
    [44909,"2015-06-21T00:00:00","35.1","ND","ND","ND","ND","3.76","ND","ND","ND","ND","ND","0"],
    [44910,"2015-06-21T01:00:00","26.1","ND","ND","ND","ND","2.37","ND","ND","ND","ND","ND","0"],
    [44911,"2015-06-21T02:00:00","25","ND","ND","ND","ND","2.08","ND","ND","ND","ND","ND","0"],
    [44912,"2015-06-21T03:00:00","29.8","ND","ND","ND","ND","1.25","ND","ND","ND","ND","ND","0"],
    [44913,"2015-06-21T04:00:00","32.1","ND","ND","ND","ND","2.43","ND","ND","ND","ND","ND","0"],
    [44914,"2015-06-21T05:00:00","30.1","ND","ND","ND","ND","2.34","ND","ND","ND","ND","ND","0"],
    [44915,"2015-06-21T06:00:00","38.2","ND","ND","ND","ND","2.66","ND","ND","ND","ND","ND","0"],
    [44916,"2015-06-21T07:00:00","38.6","ND","ND","ND","ND","3.97","ND","ND","ND","ND","ND","0"],
    [44917,"2015-06-21T08:00:00","41.7","ND","ND","ND","ND","4.88","ND","ND","ND","ND","ND","0"],
    [44918,"2015-06-21T09:00:00","47.3","ND","ND","ND","ND","2.75","ND","ND","ND","ND","ND","0"],
    [44919,"2015-06-21T10:00:00","48.8","ND","ND","ND","ND","5.83","ND","ND","ND","ND","ND","0"],
    [44920,"2015-06-21T11:00:00","37.3","ND","ND","ND","ND","3.25","ND","ND","ND","ND","ND","0"],
    [44921,"2015-06-21T12:00:00","33.7","ND","ND","ND","ND","3.90","ND","ND","ND","ND","ND","0"],
    [44922,"2015-06-21T13:00:00","24.7","ND","ND","ND","ND","2.98","ND","ND","ND","ND","ND","0"],
    [44923,"2015-06-21T14:00:00","33.2","ND","ND","ND","ND","5.16","ND","ND","ND","ND","ND","0"],
    [44924,"2015-06-21T15:00:00","27","ND","ND","ND","ND","1.80","ND","ND","ND","ND","ND","0"],
    [44925,"2015-06-21T16:00:00","19.5","ND","ND","ND","ND","4.32","ND","ND","ND","ND","ND","0"],
    [44926,"2015-06-21T17:00:00","19.3","ND","ND","ND","ND","2.70","ND","ND","ND","ND","ND","0"],
    [44927,"2015-06-21T18:00:00","16.3","ND","ND","ND","ND","5.05","ND","ND","ND","ND","ND","0"],
    [44928,"2015-06-21T19:00:00","17","ND","ND","ND","ND","3.51","ND","ND","ND","ND","ND","0"],
    [44929,"2015-06-21T20:00:00","20.1","ND","ND","ND","ND","4.00","ND","ND","ND","ND","ND","0"],
    [44930,"2015-06-21T21:00:00","19.9","ND","ND","ND","ND","4.42","ND","ND","ND","ND","ND","0"],
    [44931,"2015-06-21T22:00:00","24.9","ND","ND","ND","ND","4.49","ND","ND","ND","ND","ND","0"],
    [44932,"2015-06-21T23:00:00","18.9","ND","ND","ND","ND","4.88","ND","ND","ND","ND","ND","0"],
    [44933,"2015-06-22T00:00:00","34.6","ND","ND","ND","ND","3.83","ND","ND","ND","ND","ND","8.89"],
    [44934,"2015-06-22T01:00:00","41.2","ND","ND","ND","ND","1.88","ND","ND","ND","ND","ND","0"],
    [44935,"2015-06-22T02:00:00","43.8","ND","ND","ND","ND","3.30","ND","ND","ND","ND","ND","0"],
    [44936,"2015-06-22T03:00:00","48.2","ND","ND","ND","ND","4.80","ND","ND","ND","ND","ND","0"],
    [44937,"2015-06-22T04:00:00","73","ND","ND","ND","ND","2.33","ND","ND","ND","ND","ND","0.25"],
    [44938,"2015-06-22T05:00:00","23.3","ND","ND","ND","ND","3.26","ND","ND","ND","ND","ND","0"],
    [44939,"2015-06-22T06:00:00","20.5","ND","ND","ND","ND","3.42","ND","ND","ND","ND","ND","0"],
    [44940,"2015-06-22T07:00:00","26.7","ND","ND","ND","ND","3.85","ND","ND","ND","ND","ND","0"],
    [44941,"2015-06-22T08:00:00","45.7","ND","ND","ND","ND","4.91","ND","ND","ND","ND","ND","0"],
    [44942,"2015-06-22T09:00:00","66.1","ND","ND","ND","ND","4.00","ND","ND","ND","ND","ND","0"],
    [44943,"2015-06-22T10:00:00","60.4","ND","ND","ND","ND","4.06","ND","ND","ND","ND","ND","0"],
    [44944,"2015-06-22T11:00:00","35.4","ND","ND","ND","ND","4.31","ND","ND","ND","ND","ND","0"],
    [44945,"2015-06-22T12:00:00","33","ND","ND","ND","ND","3.00","ND","ND","ND","ND","ND","0"],
    [44946,"2015-06-22T13:00:00","35.5","ND","ND","ND","ND","6.02","ND","ND","ND","ND","ND","0"],
    [44947,"2015-06-22T14:00:00","33.2","ND","ND","ND","ND","4.68","ND","ND","ND","ND","ND","0"],
    [44948,"2015-06-22T15:00:00","26","ND","ND","ND","ND","3.75","ND","ND","ND","ND","ND","0"],
    [44949,"2015-06-22T16:00:00","28.9","ND","ND","ND","ND","3.26","ND","ND","ND","ND","ND","0"],
    [44950,"2015-06-22T17:00:00","25.8","ND","ND","ND","ND","3.04","ND","ND","ND","ND","ND","0"],
    [44951,"2015-06-22T18:00:00","29.8","ND","ND","ND","ND","3.35","ND","ND","ND","ND","ND","0"],
    [44952,"2015-06-22T19:00:00","31.8","ND","ND","ND","ND","4.61","ND","ND","ND","ND","ND","0"],
    [44953,"2015-06-22T20:00:00","31.6","ND","ND","ND","ND","4.74","ND","ND","ND","ND","ND","0"],
    [44954,"2015-06-22T21:00:00","23.7","ND","ND","ND","ND","4.46","ND","ND","ND","ND","ND","0"],
    [44955,"2015-06-22T22:00:00","32.3","ND","ND","ND","ND","5.35","ND","ND","ND","ND","ND","0"],
    [44956,"2015-06-22T23:00:00","45.7","ND","ND","ND","ND","5.24","ND","ND","ND","ND","ND","0"],
    [44957,"2015-06-23T00:00:00","63.9","ND","ND","ND","ND","6.11","ND","ND","ND","ND","ND","0"],
    [44958,"2015-06-23T01:00:00","51.9","ND","ND","ND","ND","4.39","ND","ND","ND","ND","ND","0"],
    [44959,"2015-06-23T02:00:00","56.1","ND","ND","ND","ND","3.75","ND","ND","ND","ND","ND","0"],
    [44960,"2015-06-23T03:00:00","48.9","ND","ND","ND","ND","3.90","ND","ND","ND","ND","ND","0"],
    [44961,"2015-06-23T04:00:00","41.1","ND","ND","ND","ND","5.39","ND","ND","ND","ND","ND","0"],
    [44962,"2015-06-23T05:00:00","45.3","ND","ND","ND","ND","8.14","ND","ND","ND","ND","ND","0"],
    [44963,"2015-06-23T06:00:00","47.6","ND","ND","ND","ND","2.89","ND","ND","ND","ND","ND","0"],
    [44964,"2015-06-23T07:00:00","52.9","ND","ND","ND","ND","4.25","ND","ND","ND","ND","ND","0"],
    [44965,"2015-06-23T08:00:00","94.9","ND","ND","ND","ND","6.76","ND","ND","ND","ND","ND","0"],
    [44966,"2015-06-23T09:00:00","122.1","ND","ND","ND","ND","3.75","ND","ND","ND","ND","ND","0"],
    [44967,"2015-06-23T10:00:00","62.9","ND","ND","ND","ND","2.97","ND","ND","ND","ND","ND","0"],
    [44968,"2015-06-23T11:00:00","43.5","ND","ND","ND","ND","2.91","ND","ND","ND","ND","ND","0"],
    [44969,"2015-06-23T12:00:00","36.7","ND","ND","ND","ND","2.80","ND","ND","ND","ND","ND","0"],
    [44970,"2015-06-23T13:00:00","36.4","ND","ND","ND","ND","2.51","ND","ND","ND","ND","ND","0"],
    [44971,"2015-06-23T14:00:00","38.3","ND","ND","ND","ND","4.71","ND","ND","ND","ND","ND","0"],
    [44972,"2015-06-23T15:00:00","37.3","ND","ND","ND","ND","2.05","ND","ND","ND","ND","ND","0"],
    [44973,"2015-06-23T16:00:00","41","ND","ND","ND","ND","4.56","ND","ND","ND","ND","ND","0"],
    [44974,"2015-06-23T17:00:00","41.9","ND","ND","ND","ND","4.70","ND","ND","ND","ND","ND","0"],
    [44975,"2015-06-23T18:00:00","37.9","ND","ND","ND","ND","3.99","ND","ND","ND","ND","ND","0"],
    [44976,"2015-06-23T19:00:00","34.3","ND","ND","ND","ND","4.54","ND","ND","ND","ND","ND","0"],
    [44977,"2015-06-23T20:00:00","31.3","ND","ND","ND","ND","3.54","ND","ND","ND","ND","ND","0"],
    [44978,"2015-06-23T21:00:00","26.3","ND","ND","ND","ND","4.34","ND","ND","ND","ND","ND","0"],
    [44979,"2015-06-23T22:00:00","21","ND","ND","ND","ND","3.11","ND","ND","ND","ND","ND","0"],
    [44980,"2015-06-23T23:00:00","20.6","ND","ND","ND","ND","4.84","ND","ND","ND","ND","ND","0"],
    [44981,"2015-06-24T00:00:00","24","ND","ND","ND","ND","3.33","ND","ND","ND","ND","ND","0"],
    [44982,"2015-06-24T01:00:00","35.4","ND","ND","ND","ND","2.51","ND","ND","ND","ND","ND","0"],
    [44983,"2015-06-24T02:00:00","34.2","ND","ND","ND","ND","2.31","ND","ND","ND","ND","ND","0"],
    [44984,"2015-06-24T03:00:00","33.4","ND","ND","ND","ND","2.59","ND","ND","ND","ND","ND","0"],
    [44985,"2015-06-24T04:00:00","27.5","ND","ND","ND","ND","3.19","ND","ND","ND","ND","ND","0"],
    [44986,"2015-06-24T05:00:00","47.8","ND","ND","ND","ND","3.67","ND","ND","ND","ND","ND","0"],
    [44987,"2015-06-24T06:00:00","55.7","ND","ND","ND","ND","4.49","ND","ND","ND","ND","ND","0"],
    [44988,"2015-06-24T07:00:00","51.2","ND","ND","ND","ND","4.22","ND","ND","ND","ND","ND","0"],
    [44989,"2015-06-24T08:00:00","80.8","ND","ND","ND","ND","5.66","ND","ND","ND","ND","ND","0"],
    [44990,"2015-06-24T09:00:00","134.7","ND","ND","ND","ND","3.62","ND","ND","ND","ND","ND","0"],
    [44991,"2015-06-24T10:00:00","98.8","ND","ND","ND","ND","3.97","ND","ND","ND","ND","ND","0"],
    [44992,"2015-06-24T11:00:00","70","ND","ND","ND","ND","3.99","ND","ND","ND","ND","ND","0"],
    [44993,"2015-06-24T12:00:00","54.5","ND","ND","ND","ND","3.37","ND","ND","ND","ND","ND","0"],
    [44994,"2015-06-24T13:00:00","58.3","ND","ND","ND","ND","2.87","ND","ND","ND","ND","ND","0"],
    [44995,"2015-06-24T14:00:00","39.8","ND","ND","ND","ND","1.62","ND","ND","ND","ND","ND","0"],
    [44996,"2015-06-24T15:00:00","19.3","ND","ND","ND","ND","2.09","ND","ND","ND","ND","ND","0"],
    [44997,"2015-06-24T16:00:00","14.7","ND","ND","ND","ND","3.89","ND","ND","ND","ND","ND","0"],
    [44998,"2015-06-24T17:00:00","24.9","ND","ND","ND","ND","3.72","ND","ND","ND","ND","ND","0"],
    [44999,"2015-06-24T18:00:00","24.3","ND","ND","ND","ND","1.66","ND","ND","ND","ND","ND","0"],
    [45000,"2015-06-24T19:00:00","25.5","ND","ND","ND","ND","2.54","ND","ND","ND","ND","ND","0"],
    [45001,"2015-06-24T20:00:00","21.2","ND","ND","ND","ND","4.68","ND","ND","ND","ND","ND","0"],
    [45002,"2015-06-24T21:00:00","16.8","ND","ND","ND","ND","1.91","ND","ND","ND","ND","ND","0"],
    [45003,"2015-06-24T22:00:00","38.5","ND","ND","ND","ND","2.29","ND","ND","ND","ND","ND","0"],
    [45004,"2015-06-24T23:00:00","36.5","ND","ND","ND","ND","3.65","ND","ND","ND","ND","ND","0"],
    [45005,"2015-06-25T00:00:00","39.5","ND","ND","ND","ND","4.38","ND","ND","ND","ND","ND","0"],
    [45006,"2015-06-25T01:00:00","25.1","ND","ND","ND","ND","3.92","ND","ND","ND","ND","ND","0"],
    [45007,"2015-06-25T02:00:00","56","ND","ND","ND","ND","2.70","ND","ND","ND","ND","ND","0"],
    [45008,"2015-06-25T03:00:00","69.2","ND","ND","ND","ND","4.63","ND","ND","ND","ND","ND","0"],
    [45009,"2015-06-25T04:00:00","48.5","ND","ND","ND","ND","3.51","ND","ND","ND","ND","ND","0"],
    [45010,"2015-06-25T05:00:00","41.2","ND","ND","ND","ND","3.64","ND","ND","ND","ND","ND","0"],
    [45011,"2015-06-25T06:00:00","68.1","ND","ND","ND","ND","3.37","ND","ND","ND","ND","ND","0"],
    [45012,"2015-06-25T07:00:00","96.6","ND","ND","ND","ND","2.66","ND","ND","ND","ND","ND","0"],
    [45013,"2015-06-25T08:00:00","98","ND","ND","ND","ND","2.91","ND","ND","ND","ND","ND","0"],
    [45014,"2015-06-25T09:00:00","128.1","ND","ND","ND","ND","5.03","ND","ND","ND","ND","ND","0"],
    [45015,"2015-06-25T10:00:00","120.4","ND","ND","ND","ND","6.62","ND","ND","ND","ND","ND","0"],
    [45016,"2015-06-25T11:00:00","64","ND","ND","ND","ND","3.90","ND","ND","ND","ND","ND","0"],
    [45017,"2015-06-25T12:00:00","44.3","ND","ND","ND","ND","3.74","ND","ND","ND","ND","ND","0"],
    [45018,"2015-06-25T13:00:00","33.7","ND","ND","ND","ND","4.28","ND","ND","ND","ND","ND","0"],
    [45019,"2015-06-25T14:00:00","30.8","ND","ND","ND","ND","2.55","ND","ND","ND","ND","ND","0"],
    [45020,"2015-06-25T15:00:00","38.8","ND","ND","ND","ND","3.60","ND","ND","ND","ND","ND","0"],
    [45021,"2015-06-25T16:00:00","39.8","ND","ND","ND","ND","4.54","ND","ND","ND","ND","ND","0"],
    [45022,"2015-06-25T17:00:00","43.5","ND","ND","ND","ND","4.06","ND","ND","ND","ND","ND","0"],
    [45023,"2015-06-25T18:00:00","50.3","ND","ND","ND","ND","3.69","ND","ND","ND","ND","ND","0"],
    [45024,"2015-06-25T19:00:00","68.9","ND","ND","ND","ND","2.48","ND","ND","ND","ND","ND","0"],
    [45025,"2015-06-25T20:00:00","39.6","ND","ND","ND","ND","3.04","ND","ND","ND","ND","ND","0"],
    [45026,"2015-06-25T21:00:00","36.2","ND","ND","ND","ND","3.74","ND","ND","ND","ND","ND","0"],
    [45027,"2015-06-25T22:00:00","46.9","ND","ND","ND","ND","2.75","ND","ND","ND","ND","ND","0"],
    [45028,"2015-06-25T23:00:00","44.4","ND","ND","ND","ND","3.42","ND","ND","ND","ND","ND","0"],
    [45029,"2015-06-26T00:00:00","38.1","ND","ND","ND","ND","5.41","ND","ND","ND","ND","ND","0"],
    [45030,"2015-06-26T01:00:00","ND","ND","ND","ND","ND","2.58","ND","ND","ND","ND","ND","0"],
    [45031,"2015-06-26T02:00:00","ND","ND","ND","ND","ND","3.86","ND","ND","ND","ND","ND","0"],
    [45032,"2015-06-26T03:00:00","ND","ND","ND","ND","ND","4.56","ND","ND","ND","ND","ND","0"],
    [45033,"2015-06-26T04:00:00","ND","ND","ND","ND","ND","6.83","ND","ND","ND","ND","ND","0"],
    [45034,"2015-06-26T05:00:00","ND","ND","ND","ND","ND","3.81","ND","ND","ND","ND","ND","0"],
    [45035,"2015-06-26T06:00:00","ND","ND","ND","ND","ND","3.68","ND","ND","ND","ND","ND","0"],
    [45036,"2015-06-26T07:00:00","ND","ND","ND","ND","ND","3.11","ND","ND","ND","ND","ND","0"],
    [45037,"2015-06-26T08:00:00","ND","ND","ND","ND","ND","4.78","ND","ND","ND","ND","ND","0"],
    [45038,"2015-06-26T09:00:00","ND","ND","ND","ND","ND","2.97","ND","ND","ND","ND","ND","0"],
    [45039,"2015-06-26T10:00:00","ND","ND","ND","ND","ND","3.14","ND","ND","ND","ND","ND","0"],
    [45040,"2015-06-26T11:00:00","ND","ND","ND","ND","ND","2.96","ND","ND","ND","ND","ND","0"],
    [45041,"2015-06-26T12:00:00","ND","ND","ND","ND","ND","3.51","ND","ND","ND","ND","ND","0"],
    [45042,"2015-06-26T13:00:00","ND","ND","ND","ND","ND","4.10","ND","ND","ND","ND","ND","0"],
    [45043,"2015-06-26T14:00:00","ND","ND","ND","ND","ND","2.37","ND","ND","ND","ND","ND","0"],
    [45044,"2015-06-26T15:00:00","ND","ND","ND","ND","ND","3.00","ND","ND","ND","ND","ND","0"],
    [45045,"2015-06-26T16:00:00","ND","ND","ND","ND","ND","4.40","ND","ND","ND","ND","ND","0"],
    [45046,"2015-06-26T17:00:00","ND","ND","ND","ND","ND","2.24","ND","ND","ND","ND","ND","0"],
    [45047,"2015-06-26T18:00:00","ND","ND","ND","ND","ND","3.81","ND","ND","ND","ND","ND","0"],
    [45048,"2015-06-26T19:00:00","ND","ND","ND","ND","ND","4.35","ND","ND","ND","ND","ND","0"],
    [45049,"2015-06-26T20:00:00","ND","ND","ND","ND","ND","3.07","ND","ND","ND","ND","ND","0"],
    [45050,"2015-06-26T21:00:00","ND","ND","ND","ND","ND","1.60","ND","ND","ND","ND","ND","0"],
    [45051,"2015-06-26T22:00:00","ND","ND","ND","ND","ND","3.67","ND","ND","ND","ND","ND","0"],
    [45052,"2015-06-26T23:00:00","ND","ND","ND","ND","ND","3.46","ND","ND","ND","ND","ND","0"],
    [45053,"2015-06-27T00:00:00","ND","ND","ND","ND","ND","3.69","ND","ND","ND","ND","ND","0"],
    [45054,"2015-06-27T01:00:00","ND","ND","ND","ND","ND","5.65","ND","ND","ND","ND","ND","0"],
    [45055,"2015-06-27T02:00:00","ND","ND","ND","ND","ND","2.80","ND","ND","ND","ND","ND","0"],
    [45056,"2015-06-27T03:00:00","ND","ND","ND","ND","ND","3.04","ND","ND","ND","ND","ND","0"],
    [45057,"2015-06-27T04:00:00","ND","ND","ND","ND","ND","3.90","ND","ND","ND","ND","ND","0"],
    [45058,"2015-06-27T05:00:00","ND","ND","ND","ND","ND","2.76","ND","ND","ND","ND","ND","0"],
    [45059,"2015-06-27T06:00:00","ND","ND","ND","ND","ND","3.51","ND","ND","ND","ND","ND","0"],
    [45060,"2015-06-27T07:00:00","ND","ND","ND","ND","ND","3.94","ND","ND","ND","ND","ND","0"],
    [45061,"2015-06-27T08:00:00","ND","ND","ND","ND","ND","5.28","ND","ND","ND","ND","ND","0"],
    [45062,"2015-06-27T09:00:00","ND","ND","ND","ND","ND","4.14","ND","ND","ND","ND","ND","0"],
    [45063,"2015-06-27T10:00:00","ND","ND","ND","ND","ND","4.47","ND","ND","ND","ND","ND","0"],
    [45064,"2015-06-27T11:00:00","ND","ND","ND","ND","ND","3.46","ND","ND","ND","ND","ND","0"],
    [45065,"2015-06-27T12:00:00","ND","ND","ND","ND","ND","3.62","ND","ND","ND","ND","ND","0"],
    [45066,"2015-06-27T13:00:00","ND","ND","ND","ND","ND","2.34","ND","ND","ND","ND","ND","0"],
    [45067,"2015-06-27T14:00:00","ND","ND","ND","ND","ND","3.11","ND","ND","ND","ND","ND","0"],
    [45068,"2015-06-27T15:00:00","ND","ND","ND","ND","ND","2.96","ND","ND","ND","ND","ND","0"],
    [45069,"2015-06-27T16:00:00","ND","ND","ND","ND","ND","4.13","ND","ND","ND","ND","ND","0"],
    [45070,"2015-06-27T17:00:00","ND","ND","ND","ND","ND","4.95","ND","ND","ND","ND","ND","0"],
    [45071,"2015-06-27T18:00:00","ND","ND","ND","ND","ND","2.36","ND","ND","ND","ND","ND","0"],
    [45072,"2015-06-27T19:00:00","ND","ND","ND","ND","ND","3.82","ND","ND","ND","ND","ND","0"],
    [45073,"2015-06-27T20:00:00","ND","ND","ND","ND","ND","1.94","ND","ND","ND","ND","ND","0"],
    [45074,"2015-06-27T21:00:00","ND","ND","ND","ND","ND","3.21","ND","ND","ND","ND","ND","0"],
    [45075,"2015-06-27T22:00:00","ND","ND","ND","ND","ND","3.92","ND","ND","ND","ND","ND","0"],
    [45076,"2015-06-27T23:00:00","ND","ND","ND","ND","ND","3.25","ND","ND","ND","ND","ND","0"],
    [45077,"2015-06-28T00:00:00","ND","ND","ND","ND","ND","4.60","ND","ND","ND","ND","ND","0"],
    [45078,"2015-06-28T01:00:00","ND","ND","ND","ND","ND","4.57","ND","ND","ND","ND","ND","0"],
    [45079,"2015-06-28T02:00:00","ND","ND","ND","ND","ND","3.44","ND","ND","ND","ND","ND","0"],
    [45080,"2015-06-28T03:00:00","ND","ND","ND","ND","ND","2.84","ND","ND","ND","ND","ND","0"],
    [45081,"2015-06-28T04:00:00","ND","ND","ND","ND","ND","4.52","ND","ND","ND","ND","ND","0"],
    [45082,"2015-06-28T05:00:00","ND","ND","ND","ND","ND","4.49","ND","ND","ND","ND","ND","0"],
    [45083,"2015-06-28T06:00:00","ND","ND","ND","ND","ND","3.21","ND","ND","ND","ND","ND","0"],
    [45084,"2015-06-28T07:00:00","ND","ND","ND","ND","ND","4.18","ND","ND","ND","ND","ND","0"],
    [45085,"2015-06-28T08:00:00","ND","ND","ND","ND","ND","2.94","ND","ND","ND","ND","ND","0"],
    [45086,"2015-06-28T09:00:00","ND","ND","ND","ND","ND","2.91","ND","ND","ND","ND","ND","0"],
    [45087,"2015-06-28T10:00:00","ND","ND","ND","ND","ND","4.04","ND","ND","ND","ND","ND","0"],
    [45088,"2015-06-28T11:00:00","ND","ND","ND","ND","ND","2.45","ND","ND","ND","ND","ND","0"],
    [45089,"2015-06-28T12:00:00","ND","ND","ND","ND","ND","3.35","ND","ND","ND","ND","ND","0"],
    [45090,"2015-06-28T13:00:00","ND","ND","ND","ND","ND","3.43","ND","ND","ND","ND","ND","0"],
    [45091,"2015-06-28T14:00:00","ND","ND","ND","ND","ND","2.55","ND","ND","ND","ND","ND","0"],
    [45092,"2015-06-28T15:00:00","ND","ND","ND","ND","ND","2.19","ND","ND","ND","ND","ND","0"],
    [45093,"2015-06-28T16:00:00","ND","ND","ND","ND","ND","3.76","ND","ND","ND","ND","ND","0"],
    [45094,"2015-06-28T17:00:00","ND","ND","ND","ND","ND","2.82","ND","ND","ND","ND","ND","0"],
    [45095,"2015-06-28T18:00:00","ND","ND","ND","ND","ND","3.26","ND","ND","ND","ND","ND","0"],
    [45096,"2015-06-28T19:00:00","ND","ND","ND","ND","ND","2.29","ND","ND","ND","ND","ND","0"],
    [45097,"2015-06-28T20:00:00","ND","ND","ND","ND","ND","2.17","ND","ND","ND","ND","ND","0"],
    [45098,"2015-06-28T21:00:00","ND","ND","ND","ND","ND","2.83","ND","ND","ND","ND","ND","0"],
    [45099,"2015-06-28T22:00:00","ND","ND","ND","ND","ND","2.77","ND","ND","ND","ND","ND","0.51"],
    [45100,"2015-06-28T23:00:00","ND","ND","ND","ND","ND","2.38","ND","ND","ND","ND","ND","0"],
    [45101,"2015-06-29T00:00:00","ND","ND","ND","ND","ND","2.52","ND","ND","ND","ND","ND","0"],
    [45102,"2015-06-29T01:00:00","ND","ND","ND","ND","ND","3.81","ND","ND","ND","ND","ND","0.51"],
    [45103,"2015-06-29T02:00:00","ND","ND","ND","ND","ND","2.94","ND","ND","ND","ND","ND","0"],
    [45104,"2015-06-29T03:00:00","ND","ND","ND","ND","ND","2.61","ND","ND","ND","ND","ND","0"],
    [45105,"2015-06-29T04:00:00","ND","ND","ND","ND","ND","2.12","ND","ND","ND","ND","ND","0"],
    [45106,"2015-06-29T05:00:00","ND","ND","ND","ND","ND","3.32","ND","ND","ND","ND","ND","0"],
    [45107,"2015-06-29T06:00:00","ND","ND","ND","ND","ND","4.11","ND","ND","ND","ND","ND","0"],
    [45108,"2015-06-29T07:00:00","ND","ND","ND","ND","ND","3.32","ND","ND","ND","ND","ND","0"],
    [45109,"2015-06-29T08:00:00","ND","ND","ND","ND","ND","4.56","ND","ND","ND","ND","ND","0"],
    [45110,"2015-06-29T09:00:00","ND","ND","ND","ND","ND","3.37","ND","ND","ND","ND","ND","0"],
    [45111,"2015-06-29T10:00:00","ND","ND","ND","ND","ND","4.08","ND","ND","ND","ND","ND","0"],
    [45112,"2015-06-29T11:00:00","ND","ND","ND","ND","ND","3.61","ND","ND","ND","ND","ND","0"],
    [45113,"2015-06-29T12:00:00","ND","ND","ND","ND","ND","3.54","ND","ND","ND","ND","ND","0"],
    [45114,"2015-06-29T13:00:00","ND","ND","ND","ND","ND","3.62","ND","ND","ND","ND","ND","0"],
    [45115,"2015-06-29T14:00:00","ND","ND","ND","ND","ND","2.22","ND","ND","ND","ND","ND","0"],
    [45116,"2015-06-29T15:00:00","ND","ND","ND","ND","ND","2.33","ND","ND","ND","ND","ND","0"],
    [45117,"2015-06-29T16:00:00","ND","ND","ND","ND","ND","2.41","ND","ND","ND","ND","ND","0"],
    [45118,"2015-06-29T17:00:00","ND","ND","ND","ND","ND","2.12","ND","ND","ND","ND","ND","0"],
    [45119,"2015-06-29T18:00:00","ND","ND","ND","ND","ND","3.42","ND","ND","ND","ND","ND","0"],
    [45120,"2015-06-29T19:00:00","ND","ND","ND","ND","ND","3.18","ND","ND","ND","ND","ND","0"],
    [45121,"2015-06-29T20:00:00","ND","ND","ND","ND","ND","1.39","ND","ND","ND","ND","ND","0"],
    [45122,"2015-06-29T21:00:00","ND","ND","ND","ND","ND","4.03","ND","ND","ND","ND","ND","0"],
    [45123,"2015-06-29T22:00:00","ND","ND","ND","ND","ND","3.65","ND","ND","ND","ND","ND","0"],
    [45124,"2015-06-29T23:00:00","ND","ND","ND","ND","ND","2.91","ND","ND","ND","ND","ND","0"],
    [45125,"2015-06-30T00:00:00","ND","ND","ND","ND","ND","4.52","ND","ND","ND","ND","ND","0"],
    [45126,"2015-06-30T01:00:00","ND","ND","ND","ND","ND","3.85","ND","ND","ND","ND","ND","0"],
    [45127,"2015-06-30T02:00:00","ND","ND","ND","ND","ND","3.11","ND","ND","ND","ND","ND","0"],
    [45128,"2015-06-30T03:00:00","ND","ND","ND","ND","ND","3.30","ND","ND","ND","ND","ND","0"],
    [45129,"2015-06-30T04:00:00","ND","ND","ND","ND","ND","4.07","ND","ND","ND","ND","ND","0"],
    [45130,"2015-06-30T05:00:00","ND","ND","ND","ND","ND","4.18","ND","ND","ND","ND","ND","0"],
    [45131,"2015-06-30T06:00:00","ND","ND","ND","ND","ND","3.22","ND","ND","ND","ND","ND","0"],
    [45132,"2015-06-30T07:00:00","ND","ND","ND","ND","ND","5.44","ND","ND","ND","ND","ND","0"],
    [45133,"2015-06-30T08:00:00","ND","ND","ND","ND","ND","3.18","ND","ND","ND","ND","ND","0"],
    [45134,"2015-06-30T09:00:00","ND","ND","ND","ND","ND","4.18","ND","ND","ND","ND","ND","0"],
    [45135,"2015-06-30T10:00:00","ND","ND","ND","ND","ND","2.75","ND","ND","ND","ND","ND","0"],
    [45136,"2015-06-30T11:00:00","ND","ND","ND","ND","ND","3.67","ND","ND","ND","ND","ND","0"],
    [45137,"2015-06-30T12:00:00","ND","ND","ND","ND","ND","3.07","ND","ND","ND","ND","ND","0"],
    [45138,"2015-06-30T13:00:00","ND","ND","ND","ND","ND","3.54","ND","ND","ND","ND","ND","0"],
    [45139,"2015-06-30T14:00:00","ND","ND","ND","ND","ND","3.23","ND","ND","ND","ND","ND","0"],
    [45140,"2015-06-30T15:00:00","ND","ND","ND","ND","ND","3.51","ND","ND","ND","ND","ND","0"],
    [45141,"2015-06-30T16:00:00","ND","ND","ND","ND","ND","2.45","ND","ND","ND","ND","ND","0"],
    [45142,"2015-06-30T17:00:00","ND","ND","ND","ND","ND","4.27","ND","ND","ND","ND","ND","0"],
    [45143,"2015-06-30T18:00:00","ND","ND","ND","ND","ND","1.95","ND","ND","ND","ND","ND","0"],
    [45144,"2015-06-30T19:00:00","ND","ND","ND","ND","ND","3.28","ND","ND","ND","ND","ND","0"],
    [45145,"2015-06-30T20:00:00","ND","ND","ND","ND","ND","3.78","ND","ND","ND","ND","ND","0"],
    [45146,"2015-06-30T21:00:00","ND","ND","ND","ND","ND","2.70","ND","ND","ND","ND","ND","0"],
    [45147,"2015-06-30T22:00:00","ND","ND","ND","ND","ND","2.17","ND","ND","ND","ND","ND","0"],
    [45148,"2015-06-30T23:00:00","ND","ND","ND","ND","ND","4.06","ND","ND","ND","ND","ND","0"],
    [45149,"2015-07-01T00:00:00","ND","ND","ND","ND","ND","3.79","ND","ND","ND","ND","ND","0"],
    [45150,"2015-07-01T01:00:00","ND","ND","ND","ND","ND","4.06","ND","ND","ND","ND","ND","0"],
    [45151,"2015-07-01T02:00:00","ND","ND","ND","ND","ND","4.25","ND","ND","ND","ND","ND","0"],
    [45152,"2015-07-01T03:00:00","ND","ND","ND","ND","ND","4.63","ND","ND","ND","ND","ND","0"],
    [45153,"2015-07-01T04:00:00","ND","ND","ND","ND","ND","4.63","ND","ND","ND","ND","ND","0"],
    [45154,"2015-07-01T05:00:00","ND","ND","ND","ND","ND","5.85","ND","ND","ND","ND","ND","0"],
    [45155,"2015-07-01T06:00:00","ND","ND","ND","ND","ND","3.47","ND","ND","ND","ND","ND","0"],
    [45156,"2015-07-01T07:00:00","ND","ND","ND","ND","ND","4.74","ND","ND","ND","ND","ND","0"],
    [45157,"2015-07-01T08:00:00","ND","ND","ND","ND","ND","12.81","ND","ND","ND","ND","ND","0"],
    [45158,"2015-07-01T09:00:00","ND","ND","ND","ND","ND","5.26","ND","ND","ND","ND","ND","0"],
    [45159,"2015-07-01T10:00:00","ND","ND","ND","ND","ND","4.39","ND","ND","ND","ND","ND","0"],
    [45160,"2015-07-01T11:00:00","ND","ND","ND","ND","ND","3.05","ND","ND","ND","ND","ND","0"],
    [45161,"2015-07-01T12:00:00","ND","ND","ND","ND","ND","3.99","ND","ND","ND","ND","ND","0"],
    [45162,"2015-07-01T13:00:00","ND","ND","ND","ND","ND","ND","ND","ND","ND","ND","ND","ND"],
    [45163,"2015-07-01T14:00:00","ND","ND","ND","ND","ND","2.55","ND","ND","ND","ND","ND","0"],
    [45164,"2015-07-01T15:00:00","ND","ND","ND","ND","ND","2.98","ND","ND","ND","ND","ND","0"],
    [45165,"2015-07-01T16:00:00","ND","ND","ND","ND","ND","2.27","ND","ND","ND","ND","ND","0"],
    [45166,"2015-07-01T17:00:00","ND","ND","ND","ND","ND","3.28","ND","ND","ND","ND","ND","0"],
    [45167,"2015-07-01T18:00:00","ND","ND","ND","ND","ND","2.55","ND","ND","ND","ND","ND","0"],
    [45168,"2015-07-01T19:00:00","ND","ND","ND","ND","ND","2.66","ND","ND","ND","ND","ND","0"],
    [45169,"2015-07-01T20:00:00","ND","ND","ND","ND","ND","2.68","ND","ND","ND","ND","ND","0"],
    [45170,"2015-07-01T21:00:00","ND","ND","ND","ND","ND","2.41","ND","ND","ND","ND","ND","0"],
    [45171,"2015-07-01T22:00:00","ND","ND","ND","ND","ND","6.12","ND","ND","ND","ND","ND","0"],
    [45172,"2015-07-01T23:00:00","ND","ND","ND","ND","ND","3.62","ND","ND","ND","ND","ND","0"],
    [45173,"2015-07-02T00:00:00","ND","ND","ND","ND","ND","5.20","ND","ND","ND","ND","ND","0"],
    [45174,"2015-07-02T01:00:00","ND","ND","ND","ND","ND","3.15","ND","ND","ND","ND","ND","0"],
    [45175,"2015-07-02T02:00:00","ND","ND","ND","ND","ND","2.29","ND","ND","ND","ND","ND","0"],
    [45176,"2015-07-02T03:00:00","ND","ND","ND","ND","ND","2.59","ND","ND","ND","ND","ND","0"],
    [45177,"2015-07-02T04:00:00","ND","ND","ND","ND","ND","4.18","ND","ND","ND","ND","ND","0"],
    [45178,"2015-07-02T05:00:00","ND","ND","ND","ND","ND","4.03","ND","ND","ND","ND","ND","0"],
    [45179,"2015-07-02T06:00:00","ND","ND","ND","ND","ND","3.29","ND","ND","ND","ND","ND","0"],
    [45180,"2015-07-02T07:00:00","ND","ND","ND","ND","ND","3.62","ND","ND","ND","ND","ND","0"],
    [45181,"2015-07-02T08:00:00","ND","ND","ND","ND","ND","3.94","ND","ND","ND","ND","ND","0"],
    [45182,"2015-07-02T09:00:00","ND","ND","ND","ND","ND","3.35","ND","ND","ND","ND","ND","0"],
    [45183,"2015-07-02T10:00:00","ND","ND","ND","ND","ND","4.66","ND","ND","ND","ND","ND","0"],
    [45184,"2015-07-02T11:00:00","ND","ND","ND","ND","ND","2.91","ND","ND","ND","ND","ND","0"],
    [45185,"2015-07-02T12:00:00","ND","ND","ND","ND","ND","4.99","ND","ND","ND","ND","ND","0"],
    [45186,"2015-07-02T13:00:00","ND","ND","ND","ND","ND","3.18","ND","ND","ND","ND","ND","0"],
    [45187,"2015-07-02T14:00:00","ND","ND","ND","ND","ND","3.44","ND","ND","ND","ND","ND","0"],
    [45188,"2015-07-02T15:00:00","ND","ND","ND","ND","ND","3.16","ND","ND","ND","ND","ND","0"],
    [45189,"2015-07-02T16:00:00","ND","ND","ND","ND","ND","2.75","ND","ND","ND","ND","ND","0"],
    [45190,"2015-07-02T17:00:00","ND","ND","ND","ND","ND","3.67","ND","ND","ND","ND","ND","0"],
    [45191,"2015-07-02T18:00:00","ND","ND","ND","ND","ND","2.43","ND","ND","ND","ND","ND","0"],
    [45192,"2015-07-02T19:00:00","ND","ND","ND","ND","ND","3.21","ND","ND","ND","ND","ND","0"],
    [45193,"2015-07-02T20:00:00","ND","ND","ND","ND","ND","2.55","ND","ND","ND","ND","ND","0"],
    [45194,"2015-07-02T21:00:00","ND","ND","ND","ND","ND","3.86","ND","ND","ND","ND","ND","0"],
    [45195,"2015-07-02T22:00:00","ND","ND","ND","ND","ND","6.45","ND","ND","ND","ND","ND","0"],
    [45196,"2015-07-02T23:00:00","ND","ND","ND","ND","ND","3.89","ND","ND","ND","ND","ND","0"],
    [45197,"2015-07-03T00:00:00","ND","ND","ND","ND","ND","4.98","ND","ND","ND","ND","ND","0"],
    [45198,"2015-07-03T01:00:00","ND","ND","ND","ND","ND","3.54","ND","ND","ND","ND","ND","0"],
    [45199,"2015-07-03T02:00:00","ND","ND","ND","ND","ND","3.94","ND","ND","ND","ND","ND","0"],
    [45200,"2015-07-03T03:00:00","ND","ND","ND","ND","ND","2.50","ND","ND","ND","ND","ND","0"],
    [45201,"2015-07-03T04:00:00","ND","ND","ND","ND","ND","4.39","ND","ND","ND","ND","ND","0"],
    [45202,"2015-07-03T05:00:00","ND","ND","ND","ND","ND","3.88","ND","ND","ND","ND","ND","0"],
    [45203,"2015-07-03T06:00:00","ND","ND","ND","ND","ND","4.82","ND","ND","ND","ND","ND","0"],
    [45204,"2015-07-03T07:00:00","ND","ND","ND","ND","ND","3.44","ND","ND","ND","ND","ND","0"],
    [45205,"2015-07-03T08:00:00","ND","ND","ND","ND","ND","4.98","ND","ND","ND","ND","ND","0"],
    [45206,"2015-07-03T09:00:00","ND","ND","ND","ND","ND","3.12","ND","ND","ND","ND","ND","0"],
    [45207,"2015-07-03T10:00:00","ND","ND","ND","ND","ND","4.00","ND","ND","ND","ND","ND","0"],
    [45208,"2015-07-03T11:00:00","ND","ND","ND","ND","ND","3.22","ND","ND","ND","ND","ND","0"],
    [45209,"2015-07-03T12:00:00","ND","ND","ND","ND","ND","3.26","ND","ND","ND","ND","ND","0"],
    [45210,"2015-07-03T13:00:00","ND","ND","ND","ND","ND","3.08","ND","ND","ND","ND","ND","0"],
    [45211,"2015-07-03T14:00:00","ND","ND","ND","ND","ND","1.83","ND","ND","ND","ND","ND","0"],
    [45212,"2015-07-03T15:00:00","ND","ND","ND","ND","ND","5.32","ND","ND","ND","ND","ND","0"],
    [45213,"2015-07-03T16:00:00","ND","ND","ND","ND","ND","2.33","ND","ND","ND","ND","ND","0"],
    [45214,"2015-07-03T17:00:00","17.1","ND","ND","ND","ND","3.37","ND","ND","ND","ND","ND","0"],
    [45215,"2015-07-03T18:00:00","40.2","ND","ND","ND","ND","3.47","ND","ND","ND","ND","ND","0"],
    [45216,"2015-07-03T19:00:00","63.7","ND","ND","ND","ND","2.09","ND","ND","ND","ND","ND","0"],
    [45217,"2015-07-03T20:00:00","58.9","ND","ND","ND","ND","1.46","ND","ND","ND","ND","ND","0"],
    [45218,"2015-07-03T21:00:00","50.1","ND","ND","ND","ND","3.21","ND","ND","ND","ND","ND","0"],
    [45219,"2015-07-03T22:00:00","70.6","ND","ND","ND","ND","3.50","ND","ND","ND","ND","ND","0"],
    [45220,"2015-07-03T23:00:00","55.6","ND","ND","ND","ND","3.82","ND","ND","ND","ND","ND","0"],
    [45221,"2015-07-04T00:00:00","50.7","ND","ND","ND","ND","3.46","ND","ND","ND","ND","ND","0"],
    [45222,"2015-07-04T01:00:00","81.9","ND","ND","ND","ND","2.77","ND","ND","ND","ND","ND","0"],
    [45223,"2015-07-04T02:00:00","84","ND","ND","ND","ND","2.13","ND","ND","ND","ND","ND","0"],
    [45224,"2015-07-04T03:00:00","64.4","ND","ND","ND","ND","4.68","ND","ND","ND","ND","ND","0"],
    [45225,"2015-07-04T04:00:00","51.8","ND","ND","ND","ND","2.83","ND","ND","ND","ND","ND","0"],
    [45226,"2015-07-04T05:00:00","57.5","ND","ND","ND","ND","2.50","ND","ND","ND","ND","ND","0"],
    [45227,"2015-07-04T06:00:00","57.2","ND","ND","ND","ND","3.39","ND","ND","ND","ND","ND","0"],
    [45228,"2015-07-04T07:00:00","54.3","ND","ND","ND","ND","3.04","ND","ND","ND","ND","ND","0"],
    [45229,"2015-07-04T08:00:00","67.5","ND","ND","ND","ND","4.00","ND","ND","ND","ND","ND","0"],
    [45230,"2015-07-04T09:00:00","95.5","ND","ND","ND","ND","3.19","ND","ND","ND","ND","ND","0"],
    [45231,"2015-07-04T10:00:00","74.6","ND","ND","ND","ND","2.43","ND","ND","ND","ND","ND","0"],
    [45232,"2015-07-04T11:00:00","71.7","ND","ND","ND","ND","2.37","ND","ND","ND","ND","ND","0"],
    [45233,"2015-07-04T12:00:00","76.9","ND","ND","ND","ND","2.97","ND","ND","ND","ND","ND","0"],
    [45234,"2015-07-04T13:00:00","86.5","ND","ND","ND","ND","4.35","ND","ND","ND","ND","ND","0"],
    [45235,"2015-07-04T14:00:00","55.9","ND","ND","ND","ND","2.86","ND","ND","ND","ND","ND","0"],
    [45236,"2015-07-04T15:00:00","41.9","ND","ND","ND","ND","1.76","ND","ND","ND","ND","ND","0"],
    [45237,"2015-07-04T16:00:00","49.7","ND","ND","ND","ND","0.92","ND","ND","ND","ND","ND","0"],
    [45238,"2015-07-04T17:00:00","47","ND","ND","ND","ND","3.78","ND","ND","ND","ND","ND","0"],
    [45239,"2015-07-04T18:00:00","29.7","ND","ND","ND","ND","2.13","ND","ND","ND","ND","ND","0"],
    [45240,"2015-07-04T19:00:00","37.6","ND","ND","ND","ND","2.52","ND","ND","ND","ND","ND","0"],
    [45241,"2015-07-04T20:00:00","48.4","ND","ND","ND","ND","1.51","ND","ND","ND","ND","ND","0"],
    [45242,"2015-07-04T21:00:00","56.7","ND","ND","ND","ND","1.92","ND","ND","ND","ND","ND","0"],
    [45243,"2015-07-04T22:00:00","58.9","ND","ND","ND","ND","3.72","ND","ND","ND","ND","ND","0"],
    [45244,"2015-07-04T23:00:00","53.2","ND","ND","ND","ND","2.38","ND","ND","ND","ND","ND","0"],
    [45245,"2015-07-05T00:00:00","43.9","ND","ND","ND","ND","2.47","ND","ND","ND","ND","ND","0"],
    [45246,"2015-07-05T01:00:00","37.5","ND","ND","ND","ND","3.23","ND","ND","ND","ND","ND","0"],
    [45247,"2015-07-05T02:00:00","55.8","ND","ND","ND","ND","3.53","ND","ND","ND","ND","ND","0"],
    [45248,"2015-07-05T03:00:00","71.2","ND","ND","ND","ND","2.12","ND","ND","ND","ND","ND","0"],
    [45249,"2015-07-05T04:00:00","69.2","ND","ND","ND","ND","1.30","ND","ND","ND","ND","ND","0"],
    [45250,"2015-07-05T05:00:00","71","ND","ND","ND","ND","1.91","ND","ND","ND","ND","ND","0"],
    [45251,"2015-07-05T06:00:00","70.7","ND","ND","ND","ND","2.93","ND","ND","ND","ND","ND","0"],
    [45252,"2015-07-05T07:00:00","68.8","ND","ND","ND","ND","3.14","ND","ND","ND","ND","ND","0"],
    [45253,"2015-07-05T08:00:00","83","ND","ND","ND","ND","2.44","ND","ND","ND","ND","ND","0"],
    [45254,"2015-07-05T09:00:00","73.5","ND","ND","ND","ND","1.70","ND","ND","ND","ND","ND","0"],
    [45255,"2015-07-05T10:00:00","64","ND","ND","ND","ND","1.91","ND","ND","ND","ND","ND","0"],
    [45256,"2015-07-05T11:00:00","52.3","ND","ND","ND","ND","2.80","ND","ND","ND","ND","ND","0"],
    [45257,"2015-07-05T12:00:00","58.9","ND","ND","ND","ND","2.56","ND","ND","ND","ND","ND","0"],
    [45258,"2015-07-05T13:00:00","62","ND","ND","ND","ND","2.41","ND","ND","ND","ND","ND","0"],
    [45259,"2015-07-05T14:00:00","59.9","ND","ND","ND","ND","2.05","ND","ND","ND","ND","ND","0"],
    [45260,"2015-07-05T15:00:00","43.7","ND","ND","ND","ND","2.04","ND","ND","ND","ND","ND","0"],
    [45261,"2015-07-05T16:00:00","21.4","ND","ND","ND","ND","1.20","ND","ND","ND","ND","ND","0"],
    [45262,"2015-07-05T17:00:00","14.9","ND","ND","ND","ND","1.88","ND","ND","ND","ND","ND","0"],
    [45263,"2015-07-05T18:00:00","14.5","ND","ND","ND","ND","2.36","ND","ND","ND","ND","ND","0"],
    [45264,"2015-07-05T19:00:00","16.9","ND","ND","ND","ND","3.01","ND","ND","ND","ND","ND","0"],
    [45265,"2015-07-05T20:00:00","18","ND","ND","ND","ND","2.01","ND","ND","ND","ND","ND","0"],
    [45266,"2015-07-05T21:00:00","24.2","ND","ND","ND","ND","2.23","ND","ND","ND","ND","ND","0"],
    [45267,"2015-07-05T22:00:00","36","ND","ND","ND","ND","2.47","ND","ND","ND","ND","ND","0"],
    [45268,"2015-07-05T23:00:00","35.9","ND","ND","ND","ND","4.17","ND","ND","ND","ND","ND","0"],
    [45269,"2015-07-06T00:00:00","41.3","ND","ND","ND","ND","3.78","ND","ND","ND","ND","ND","0"],
    [45270,"2015-07-06T01:00:00","35.7","ND","ND","ND","ND","4.27","ND","ND","ND","ND","ND","0"],
    [45271,"2015-07-06T02:00:00","45.5","ND","ND","ND","ND","1.90","ND","ND","ND","ND","ND","0"],
    [45272,"2015-07-06T03:00:00","42.6","ND","ND","ND","ND","2.34","ND","ND","ND","ND","ND","0"],
    [45273,"2015-07-06T04:00:00","32.2","ND","ND","ND","ND","2.59","ND","ND","ND","ND","ND","0"],
    [45274,"2015-07-06T05:00:00","33.1","ND","ND","ND","ND","2.02","ND","ND","ND","ND","ND","0"],
    [45275,"2015-07-06T06:00:00","47.5","ND","ND","ND","ND","2.66","ND","ND","ND","ND","ND","6.35"],
    [45276,"2015-07-06T07:00:00","47","ND","ND","ND","ND","2.84","ND","ND","ND","ND","ND","7.62"],
    [45277,"2015-07-06T08:00:00","28.9","ND","ND","ND","ND","3.12","ND","ND","ND","ND","ND","0.25"],
    [45278,"2015-07-06T09:00:00","29","ND","ND","ND","ND","2.63","ND","ND","ND","ND","ND","0"],
    [45279,"2015-07-06T10:00:00","52.9","ND","ND","ND","ND","3.79","ND","ND","ND","ND","ND","0"],
    [45280,"2015-07-06T11:00:00","48","ND","ND","ND","ND","2.59","ND","ND","ND","ND","ND","0"],
    [45281,"2015-07-06T12:00:00","42.8","ND","ND","ND","ND","1.77","ND","ND","ND","ND","ND","0"],
    [45282,"2015-07-06T13:00:00","58.1","ND","ND","ND","ND","2.69","ND","ND","ND","ND","ND","0"],
    [45283,"2015-07-06T14:00:00","46.6","ND","ND","ND","ND","1.84","ND","ND","ND","ND","ND","0"],
    [45284,"2015-07-06T15:00:00","22.6","ND","ND","ND","ND","2.15","ND","ND","ND","ND","ND","0"],
    [45285,"2015-07-06T16:00:00","18.2","ND","ND","ND","ND","2.20","ND","ND","ND","ND","ND","0"],
    [45286,"2015-07-06T17:00:00","15.8","ND","ND","ND","ND","2.09","ND","ND","ND","ND","ND","0"],
    [45287,"2015-07-06T18:00:00","12.9","ND","ND","ND","ND","2.94","ND","ND","ND","ND","ND","0"],
    [45288,"2015-07-06T19:00:00","8.9","ND","ND","ND","ND","2.62","ND","ND","ND","ND","ND","0"],
    [45289,"2015-07-06T20:00:00","40.8","ND","ND","ND","ND","2.83","ND","ND","ND","ND","ND","0"],
    [45290,"2015-07-06T21:00:00","42.7","ND","ND","ND","ND","2.43","ND","ND","ND","ND","ND","0"],
    [45291,"2015-07-06T22:00:00","31.6","ND","ND","ND","ND","2.34","ND","ND","ND","ND","ND","0"],
    [45292,"2015-07-06T23:00:00","33.1","ND","ND","ND","ND","1.03","ND","ND","ND","ND","ND","0"],
    [45293,"2015-07-07T00:00:00","42.9","ND","ND","ND","ND","2.17","ND","ND","ND","ND","ND","0"],
    [45294,"2015-07-07T01:00:00","59.1","ND","ND","ND","ND","2.15","ND","ND","ND","ND","ND","0"],
    [45295,"2015-07-07T02:00:00","63.8","ND","ND","ND","ND","3.23","ND","ND","ND","ND","ND","0"],
    [45296,"2015-07-07T03:00:00","48.2","ND","ND","ND","ND","2.98","ND","ND","ND","ND","ND","0"],
    [45297,"2015-07-07T04:00:00","43.1","ND","ND","ND","ND","3.08","ND","ND","ND","ND","ND","0"],
    [45298,"2015-07-07T05:00:00","38.7","ND","ND","ND","ND","3.22","ND","ND","ND","ND","ND","0"],
    [45299,"2015-07-07T06:00:00","41.7","ND","ND","ND","ND","1.95","ND","ND","ND","ND","ND","0"],
    [45300,"2015-07-07T07:00:00","26.3","ND","ND","ND","ND","2.19","ND","ND","ND","ND","ND","0"],
    [45301,"2015-07-07T08:00:00","28.5","ND","ND","ND","ND","2.90","ND","ND","ND","ND","ND","0"],
    [45302,"2015-07-07T09:00:00","42.3","ND","ND","ND","ND","1.83","ND","ND","ND","ND","ND","0"],
    [45303,"2015-07-07T10:00:00","58.9","ND","ND","ND","ND","2.75","ND","ND","ND","ND","ND","0"],
    [45304,"2015-07-07T11:00:00","43.6","ND","ND","ND","ND","2.75","ND","ND","ND","ND","ND","0"],
    [45305,"2015-07-07T12:00:00","27.9","ND","ND","ND","ND","2.51","ND","ND","ND","ND","ND","0"],
    [45306,"2015-07-07T13:00:00","33.5","ND","ND","ND","ND","2.05","ND","ND","ND","ND","ND","0"],
    [45307,"2015-07-07T14:00:00","42","ND","ND","ND","ND","1.73","ND","ND","ND","ND","ND","0"],
    [45308,"2015-07-07T15:00:00","12.1","ND","ND","ND","ND","2.45","ND","ND","ND","ND","ND","0"],
    [45309,"2015-07-07T16:00:00","27.5","ND","ND","ND","ND","2.41","ND","ND","ND","ND","ND","0"],
    [45310,"2015-07-07T17:00:00","28.8","ND","ND","ND","ND","2.17","ND","ND","ND","ND","ND","0"],
    [45311,"2015-07-07T18:00:00","25.5","ND","ND","ND","ND","1.74","ND","ND","ND","ND","ND","0"],
    [45312,"2015-07-07T19:00:00","39.2","ND","ND","ND","ND","2.38","ND","ND","ND","ND","ND","0"],
    [45313,"2015-07-07T20:00:00","40.4","ND","ND","ND","ND","3.21","ND","ND","ND","ND","ND","0"],
    [45314,"2015-07-07T21:00:00","40.9","ND","ND","ND","ND","1.42","ND","ND","ND","ND","ND","0"],
    [45315,"2015-07-07T22:00:00","27.5","ND","ND","ND","ND","1.64","ND","ND","ND","ND","ND","0"],
    [45316,"2015-07-07T23:00:00","23.4","ND","ND","ND","ND","1.73","ND","ND","ND","ND","ND","0"],
    [45317,"2015-07-08T00:00:00","25.3","ND","ND","ND","ND","2.61","ND","ND","ND","ND","ND","0"],
    [45318,"2015-07-08T01:00:00","33.2","ND","ND","ND","ND","3.25","ND","ND","ND","ND","ND","0"],
    [45319,"2015-07-08T02:00:00","47.3","ND","ND","ND","ND","3.02","ND","ND","ND","ND","ND","0"],
    [45320,"2015-07-08T03:00:00","52.7","ND","ND","ND","ND","2.76","ND","ND","ND","ND","ND","0"],
    [45321,"2015-07-08T04:00:00","29.1","ND","ND","ND","ND","2.66","ND","ND","ND","ND","ND","0"],
    [45322,"2015-07-08T05:00:00","25.1","ND","ND","ND","ND","3.23","ND","ND","ND","ND","ND","0"],
    [45323,"2015-07-08T06:00:00","26.9","ND","ND","ND","ND","2.72","ND","ND","ND","ND","ND","0"],
    [45324,"2015-07-08T07:00:00","28.1","ND","ND","ND","ND","1.99","ND","ND","ND","ND","ND","0"],
    [45325,"2015-07-08T08:00:00","39.8","ND","ND","ND","ND","2.89","ND","ND","ND","ND","ND","0"],
    [45326,"2015-07-08T09:00:00","35.8","ND","ND","ND","ND","3.82","ND","ND","ND","ND","ND","0"],
    [45327,"2015-07-08T10:00:00","34.3","ND","ND","ND","ND","2.87","ND","ND","ND","ND","ND","0"],
    [45328,"2015-07-08T11:00:00","32.3","ND","ND","ND","ND","3.36","ND","ND","ND","ND","ND","0"],
    [45329,"2015-07-08T12:00:00","42.8","ND","ND","ND","ND","1.84","ND","ND","ND","ND","ND","0"],
    [45330,"2015-07-08T13:00:00","34.4","ND","ND","ND","ND","2.31","ND","ND","ND","ND","ND","0"],
    [45331,"2015-07-08T14:00:00","34.9","ND","ND","ND","ND","2.93","ND","ND","ND","ND","ND","0"],
    [45332,"2015-07-08T15:00:00","35.3","ND","ND","ND","ND","3.22","ND","ND","ND","ND","ND","0"],
    [45333,"2015-07-08T16:00:00","42.1","ND","ND","ND","ND","4.53","ND","ND","ND","ND","ND","0"],
    [45334,"2015-07-08T17:00:00","31.6","ND","ND","ND","ND","2.23","ND","ND","ND","ND","ND","0"],
    [45335,"2015-07-08T18:00:00","25.5","ND","ND","ND","ND","1.70","ND","ND","ND","ND","ND","0"],
    [45336,"2015-07-08T19:00:00","29.7","ND","ND","ND","ND","1.83","ND","ND","ND","ND","ND","0"],
    [45337,"2015-07-08T20:00:00","30.9","ND","ND","ND","ND","2.38","ND","ND","ND","ND","ND","0"],
    [45338,"2015-07-08T21:00:00","38","ND","ND","ND","ND","4.18","ND","ND","ND","ND","ND","0"],
    [45339,"2015-07-08T22:00:00","48","ND","ND","ND","ND","4.14","ND","ND","ND","ND","ND","0"],
    [45340,"2015-07-08T23:00:00","49.6","ND","ND","ND","ND","4.34","ND","ND","ND","ND","ND","0"],
    [45341,"2015-07-09T00:00:00","34.6","ND","ND","ND","ND","3.22","ND","ND","ND","ND","ND","0"],
    [45342,"2015-07-09T01:00:00","16.9","ND","ND","ND","ND","2.93","ND","ND","ND","ND","ND","0"],
    [45343,"2015-07-09T02:00:00","19.5","ND","ND","ND","ND","3.65","ND","ND","ND","ND","ND","0"],
    [45344,"2015-07-09T03:00:00","23.5","ND","ND","ND","ND","2.10","ND","ND","ND","ND","ND","0"],
    [45345,"2015-07-09T04:00:00","28.4","ND","ND","ND","ND","2.97","ND","ND","ND","ND","ND","0"],
    [45346,"2015-07-09T05:00:00","39.7","ND","ND","ND","ND","2.93","ND","ND","ND","ND","ND","0"],
    [45347,"2015-07-09T06:00:00","48.1","ND","ND","ND","ND","2.15","ND","ND","ND","ND","ND","0"],
    [45348,"2015-07-09T07:00:00","70.8","ND","ND","ND","ND","2.75","ND","ND","ND","ND","ND","0"],
    [45349,"2015-07-09T08:00:00","78.3","ND","ND","ND","ND","4.46","ND","ND","ND","ND","ND","0"],
    [45350,"2015-07-09T09:00:00","65.9","ND","ND","ND","ND","2.58","ND","ND","ND","ND","ND","0"],
    [45351,"2015-07-09T10:00:00","53.9","ND","ND","ND","ND","2.23","ND","ND","ND","ND","ND","0"],
    [45352,"2015-07-09T11:00:00","40","ND","ND","ND","ND","3.74","ND","ND","ND","ND","ND","0"],
    [45353,"2015-07-09T12:00:00","40.9","ND","ND","ND","ND","1.99","ND","ND","ND","ND","ND","0"],
    [45354,"2015-07-09T13:00:00","28.6","ND","ND","ND","ND","1.52","ND","ND","ND","ND","ND","0"],
    [45355,"2015-07-09T14:00:00","35.2","ND","ND","ND","ND","2.16","ND","ND","ND","ND","ND","0"],
    [45356,"2015-07-09T15:00:00","36.3","ND","ND","ND","ND","2.77","ND","ND","ND","ND","ND","0"],
    [45357,"2015-07-09T16:00:00","30.6","ND","ND","ND","ND","3.12","ND","ND","ND","ND","ND","0"],
    [45358,"2015-07-09T17:00:00","46.7","ND","ND","ND","ND","2.19","ND","ND","ND","ND","ND","0"],
    [45359,"2015-07-09T18:00:00","42.6","ND","ND","ND","ND","2.68","ND","ND","ND","ND","ND","0"],
    [45360,"2015-07-09T19:00:00","27.8","ND","ND","ND","ND","2.79","ND","ND","ND","ND","ND","0"],
    [45361,"2015-07-09T20:00:00","28.4","ND","ND","ND","ND","1.46","ND","ND","ND","ND","ND","0"],
    [45362,"2015-07-09T21:00:00","34.4","ND","ND","ND","ND","2.97","ND","ND","ND","ND","ND","0"],
    [45363,"2015-07-09T22:00:00","39.5","ND","ND","ND","ND","3.60","ND","ND","ND","ND","ND","0"],
    [45364,"2015-07-09T23:00:00","29.7","ND","ND","ND","ND","3.25","ND","ND","ND","ND","ND","0"],
    [45365,"2015-07-10T00:00:00","23.6","ND","ND","ND","ND","2.75","ND","ND","ND","ND","ND","0"],
    [45366,"2015-07-10T01:00:00","48.5","ND","ND","ND","ND","3.83","ND","ND","ND","ND","ND","0"],
    [45367,"2015-07-10T02:00:00","61.8","ND","ND","ND","ND","2.43","ND","ND","ND","ND","ND","0"],
    [45368,"2015-07-10T03:00:00","76.7","ND","ND","ND","ND","2.45","ND","ND","ND","ND","ND","0"],
    [45369,"2015-07-10T04:00:00","168.9","ND","ND","ND","ND","3.28","ND","ND","ND","ND","ND","0"],
    [45370,"2015-07-10T05:00:00","118.2","ND","ND","ND","ND","3.16","ND","ND","ND","ND","ND","0"],
    [45371,"2015-07-10T06:00:00","78.7","ND","ND","ND","ND","3.51","ND","ND","ND","ND","ND","0"],
    [45372,"2015-07-10T07:00:00","82.1","ND","ND","ND","ND","3.47","ND","ND","ND","ND","ND","0"],
    [45373,"2015-07-10T08:00:00","87.7","ND","ND","ND","ND","2.29","ND","ND","ND","ND","ND","0"],
    [45374,"2015-07-10T09:00:00","91.9","ND","ND","ND","ND","3.69","ND","ND","ND","ND","ND","0"],
    [45375,"2015-07-10T10:00:00","97","ND","ND","ND","ND","3.85","ND","ND","ND","ND","ND","0"],
    [45376,"2015-07-10T11:00:00","69.5","ND","ND","ND","ND","1.80","ND","ND","ND","ND","ND","0"],
    [45377,"2015-07-10T12:00:00","64.3","ND","ND","ND","ND","1.70","ND","ND","ND","ND","ND","0"],
    [45378,"2015-07-10T13:00:00","48.6","ND","ND","ND","ND","3.21","ND","ND","ND","ND","ND","0"],
    [45379,"2015-07-10T14:00:00","43.4","ND","ND","ND","ND","2.09","ND","ND","ND","ND","ND","0"],
    [45380,"2015-07-10T15:00:00","39.4","ND","ND","ND","ND","2.96","ND","ND","ND","ND","ND","0"],
    [45381,"2015-07-10T16:00:00","57.9","ND","ND","ND","ND","2.55","ND","ND","ND","ND","ND","0"],
    [45382,"2015-07-10T17:00:00","46.8","ND","ND","ND","ND","1.84","ND","ND","ND","ND","ND","0"],
    [45383,"2015-07-10T18:00:00","30.4","ND","ND","ND","ND","2.09","ND","ND","ND","ND","ND","0"],
    [45384,"2015-07-10T19:00:00","23.2","ND","ND","ND","ND","1.62","ND","ND","ND","ND","ND","0"],
    [45385,"2015-07-10T20:00:00","21","ND","ND","ND","ND","2.72","ND","ND","ND","ND","ND","0"],
    [45386,"2015-07-10T21:00:00","38.2","ND","ND","ND","ND","2.89","ND","ND","ND","ND","ND","0"],
    [45387,"2015-07-10T22:00:00","30.6","ND","ND","ND","ND","2.87","ND","ND","ND","ND","ND","0"],
    [45388,"2015-07-10T23:00:00","30.9","ND","ND","ND","ND","1.81","ND","ND","ND","ND","ND","0"],
    [45389,"2015-07-11T00:00:00","28.1","ND","ND","ND","ND","4.96","ND","ND","ND","ND","ND","0"],
    [45390,"2015-07-11T01:00:00","44.4","ND","ND","ND","ND","2.59","ND","ND","ND","ND","ND","0"],
    [45391,"2015-07-11T02:00:00","44.7","ND","ND","ND","ND","2.38","ND","ND","ND","ND","ND","0"],
    [45392,"2015-07-11T03:00:00","41.1","ND","ND","ND","ND","2.23","ND","ND","ND","ND","ND","0"],
    [45393,"2015-07-11T04:00:00","28.2","ND","ND","ND","ND","1.67","ND","ND","ND","ND","ND","0"],
    [45394,"2015-07-11T05:00:00","21.6","ND","ND","ND","ND","1.66","ND","ND","ND","ND","ND","0"],
    [45395,"2015-07-11T06:00:00","25.4","ND","ND","ND","ND","2.27","ND","ND","ND","ND","ND","0"],
    [45396,"2015-07-11T07:00:00","38.4","ND","ND","ND","ND","3.30","ND","ND","ND","ND","ND","0"],
    [45397,"2015-07-11T08:00:00","62","ND","ND","ND","ND","3.43","ND","ND","ND","ND","ND","0"],
    [45398,"2015-07-11T09:00:00","78.4","ND","ND","ND","ND","4.06","ND","ND","ND","ND","ND","0"],
    [45399,"2015-07-11T10:00:00","61.3","ND","ND","ND","ND","2.19","ND","ND","ND","ND","ND","0"],
    [45400,"2015-07-11T11:00:00","57.4","ND","ND","ND","ND","3.61","ND","ND","ND","ND","ND","0"],
    [45401,"2015-07-11T12:00:00","40.4","ND","ND","ND","ND","1.46","ND","ND","ND","ND","ND","0"],
    [45402,"2015-07-11T13:00:00","40.1","ND","ND","ND","ND","2.54","ND","ND","ND","ND","ND","0"],
    [45403,"2015-07-11T14:00:00","44.8","ND","ND","ND","ND","3.07","ND","ND","ND","ND","ND","0"],
    [45404,"2015-07-11T15:00:00","31.3","ND","ND","ND","ND","2.23","ND","ND","ND","ND","ND","0"],
    [45405,"2015-07-11T16:00:00","19.8","ND","ND","ND","ND","2.08","ND","ND","ND","ND","ND","0"],
    [45406,"2015-07-11T17:00:00","11.7","ND","ND","ND","ND","2.93","ND","ND","ND","ND","ND","0"],
    [45407,"2015-07-11T18:00:00","13.5","ND","ND","ND","ND","2.19","ND","ND","ND","ND","ND","0"],
    [45408,"2015-07-11T19:00:00","7.6","ND","ND","ND","ND","1.69","ND","ND","ND","ND","ND","0"],
    [45409,"2015-07-11T20:00:00","14.8","ND","ND","ND","ND","1.97","ND","ND","ND","ND","ND","0"],
    [45410,"2015-07-11T21:00:00","58.3","ND","ND","ND","ND","2.51","ND","ND","ND","ND","ND","0"],
    [45411,"2015-07-11T22:00:00","42.4","ND","ND","ND","ND","3.57","ND","ND","ND","ND","ND","0"],
    [45412,"2015-07-11T23:00:00","18.9","ND","ND","ND","ND","3.02","ND","ND","ND","ND","ND","0"],
    [45413,"2015-07-12T00:00:00","40.9","ND","ND","ND","ND","1.84","ND","ND","ND","ND","ND","0"],
    [45414,"2015-07-12T01:00:00","86.8","ND","ND","ND","ND","4.98","ND","ND","ND","ND","ND","0"],
    [45415,"2015-07-12T02:00:00","35.7","ND","ND","ND","ND","2.47","ND","ND","ND","ND","ND","0"],
    [45416,"2015-07-12T03:00:00","24.7","ND","ND","ND","ND","2.69","ND","ND","ND","ND","ND","0"],
    [45417,"2015-07-12T04:00:00","27.2","ND","ND","ND","ND","2.80","ND","ND","ND","ND","ND","0"],
    [45418,"2015-07-12T05:00:00","21.5","ND","ND","ND","ND","1.83","ND","ND","ND","ND","ND","0.76"],
    [45419,"2015-07-12T06:00:00","24","ND","ND","ND","ND","2.82","ND","ND","ND","ND","ND","0"],
    [45420,"2015-07-12T07:00:00","31.4","ND","ND","ND","ND","3.79","ND","ND","ND","ND","ND","0.25"],
    [45421,"2015-07-12T08:00:00","34.5","ND","ND","ND","ND","1.52","ND","ND","ND","ND","ND","0"],
    [45422,"2015-07-12T09:00:00","41.2","ND","ND","ND","ND","3.30","ND","ND","ND","ND","ND","0"],
    [45423,"2015-07-12T10:00:00","32.9","ND","ND","ND","ND","3.57","ND","ND","ND","ND","ND","0"],
    [45424,"2015-07-12T11:00:00","29.5","ND","ND","ND","ND","1.32","ND","ND","ND","ND","ND","0"],
    [45425,"2015-07-12T12:00:00","22.2","ND","ND","ND","ND","2.44","ND","ND","ND","ND","ND","0"],
    [45426,"2015-07-12T13:00:00","23.2","ND","ND","ND","ND","2.12","ND","ND","ND","ND","ND","0"],
    [45427,"2015-07-12T14:00:00","27.6","ND","ND","ND","ND","2.75","ND","ND","ND","ND","ND","0"],
    [45428,"2015-07-12T15:00:00","31.1","ND","ND","ND","ND","1.71","ND","ND","ND","ND","ND","0"],
    [45429,"2015-07-12T16:00:00","20.2","ND","ND","ND","ND","1.90","ND","ND","ND","ND","ND","0"],
    [45430,"2015-07-12T17:00:00","17","ND","ND","ND","ND","2.89","ND","ND","ND","ND","ND","0"],
    [45431,"2015-07-12T18:00:00","15.9","ND","ND","ND","ND","1.51","ND","ND","ND","ND","ND","0"],
    [45432,"2015-07-12T19:00:00","18","ND","ND","ND","ND","1.07","ND","ND","ND","ND","ND","0"],
    [45433,"2015-07-12T20:00:00","13.4","ND","ND","ND","ND","2.54","ND","ND","ND","ND","ND","0"],
    [45434,"2015-07-12T21:00:00","16.6","ND","ND","ND","ND","1.81","ND","ND","ND","ND","ND","0"],
    [45435,"2015-07-12T22:00:00","20.2","ND","ND","ND","ND","3.04","ND","ND","ND","ND","ND","0"],
    [45436,"2015-07-12T23:00:00","24.8","ND","ND","ND","ND","2.94","ND","ND","ND","ND","ND","0"],
    [45437,"2015-07-13T00:00:00","26.2","ND","ND","ND","ND","3.32","ND","ND","ND","ND","ND","0"],
    [45438,"2015-07-13T01:00:00","27.8","ND","ND","ND","ND","5.42","ND","ND","ND","ND","ND","0.25"],
    [45439,"2015-07-13T02:00:00","23.8","ND","ND","ND","ND","4.24","ND","ND","ND","ND","ND","0"],
    [45440,"2015-07-13T03:00:00","20.3","ND","ND","ND","ND","2.61","ND","ND","ND","ND","ND","0"],
    [45441,"2015-07-13T04:00:00","22.9","ND","ND","ND","ND","3.64","ND","ND","ND","ND","ND","0"],
    [45442,"2015-07-13T05:00:00","26","ND","ND","ND","ND","4.00","ND","ND","ND","ND","ND","0"],
    [45443,"2015-07-13T06:00:00","28.8","ND","ND","ND","ND","2.12","ND","ND","ND","ND","ND","0"],
    [45444,"2015-07-13T07:00:00","30.8","ND","ND","ND","ND","1.53","ND","ND","ND","ND","ND","0"],
    [45445,"2015-07-13T08:00:00","57.2","ND","ND","ND","ND","4.92","ND","ND","ND","ND","ND","0"],
    [45446,"2015-07-13T09:00:00","56.7","ND","ND","ND","ND","3.23","ND","ND","ND","ND","ND","0"],
    [45447,"2015-07-13T10:00:00","51.8","ND","ND","ND","ND","2.48","ND","ND","ND","ND","ND","0"],
    [45448,"2015-07-13T11:00:00","39.7","ND","ND","ND","ND","3.01","ND","ND","ND","ND","ND","0"],
    [45449,"2015-07-13T12:00:00","33.4","ND","ND","ND","ND","3.01","ND","ND","ND","ND","ND","0"],
    [45450,"2015-07-13T13:00:00","26.8","ND","ND","ND","ND","2.50","ND","ND","ND","ND","ND","0"],
    [45451,"2015-07-13T14:00:00","35.3","ND","ND","ND","ND","3.46","ND","ND","ND","ND","ND","0"],
    [45452,"2015-07-13T15:00:00","35.5","ND","ND","ND","ND","3.23","ND","ND","ND","ND","ND","0"],
    [45453,"2015-07-13T16:00:00","43.4","ND","ND","ND","ND","1.87","ND","ND","ND","ND","ND","0"],
    [45454,"2015-07-13T17:00:00","29.5","ND","ND","ND","ND","2.68","ND","ND","ND","ND","ND","0"],
    [45455,"2015-07-13T18:00:00","24","ND","ND","ND","ND","2.16","ND","ND","ND","ND","ND","0"],
    [45456,"2015-07-13T19:00:00","21","ND","ND","ND","ND","2.30","ND","ND","ND","ND","ND","0"],
    [45457,"2015-07-13T20:00:00","23.9","ND","ND","ND","ND","1.28","ND","ND","ND","ND","ND","0"],
    [45458,"2015-07-13T21:00:00","23.5","ND","ND","ND","ND","2.16","ND","ND","ND","ND","ND","0"],
    [45459,"2015-07-13T22:00:00","40.5","ND","ND","ND","ND","3.33","ND","ND","ND","ND","ND","0"],
    [45460,"2015-07-13T23:00:00","50.8","ND","ND","ND","ND","5.13","ND","ND","ND","ND","ND","0"],
    [45461,"2015-07-14T00:00:00","54.1","ND","ND","ND","ND","4.61","ND","ND","ND","ND","ND","0"],
    [45462,"2015-07-14T01:00:00","59.6","ND","ND","ND","ND","4.40","ND","ND","ND","ND","ND","0"],
    [45463,"2015-07-14T02:00:00","41","ND","ND","ND","ND","2.76","ND","ND","ND","ND","ND","0"],
    [45464,"2015-07-14T03:00:00","51","ND","ND","ND","ND","3.44","ND","ND","ND","ND","ND","0"],
    [45465,"2015-07-14T04:00:00","49","ND","ND","ND","ND","3.02","ND","ND","ND","ND","ND","0"],
    [45466,"2015-07-14T05:00:00","47.9","ND","ND","ND","ND","2.86","ND","ND","ND","ND","ND","0"],
    [45467,"2015-07-14T06:00:00","68.9","ND","ND","ND","ND","3.21","ND","ND","ND","ND","ND","0"],
    [45468,"2015-07-14T07:00:00","83","ND","ND","ND","ND","3.92","ND","ND","ND","ND","ND","0"],
    [45469,"2015-07-14T08:00:00","107.8","ND","ND","ND","ND","1.88","ND","ND","ND","ND","ND","0"],
    [45470,"2015-07-14T09:00:00","112.1","ND","ND","ND","ND","3.28","ND","ND","ND","ND","ND","0"],
    [45471,"2015-07-14T10:00:00","86.6","ND","ND","ND","ND","3.53","ND","ND","ND","ND","ND","0"],
    [45472,"2015-07-14T11:00:00","64.7","ND","ND","ND","ND","3.00","ND","ND","ND","ND","ND","0"],
    [45473,"2015-07-14T12:00:00","48.6","ND","ND","ND","ND","3.01","ND","ND","ND","ND","ND","0"],
    [45474,"2015-07-14T13:00:00","46","ND","ND","ND","ND","2.55","ND","ND","ND","ND","ND","0"],
    [45475,"2015-07-14T14:00:00","47.2","ND","ND","ND","ND","2.97","ND","ND","ND","ND","ND","0"],
    [45476,"2015-07-14T15:00:00","52.1","ND","ND","ND","ND","4.67","ND","ND","ND","ND","ND","0"],
    [45477,"2015-07-14T16:00:00","42","ND","ND","ND","ND","2.61","ND","ND","ND","ND","ND","0"],
    [45478,"2015-07-14T17:00:00","37.5","ND","ND","ND","ND","2.12","ND","ND","ND","ND","ND","0"],
    [45479,"2015-07-14T18:00:00","27.2","ND","ND","ND","ND","3.09","ND","ND","ND","ND","ND","0"],
    [45480,"2015-07-14T19:00:00","24.2","ND","ND","ND","ND","3.12","ND","ND","ND","ND","ND","0"],
    [45481,"2015-07-14T20:00:00","35.9","ND","ND","ND","ND","1.91","ND","ND","ND","ND","ND","0"],
    [45482,"2015-07-14T21:00:00","52","ND","ND","ND","ND","2.05","ND","ND","ND","ND","ND","0"],
    [45483,"2015-07-14T22:00:00","60.2","ND","ND","ND","ND","2.24","ND","ND","ND","ND","ND","0"],
    [45484,"2015-07-14T23:00:00","45.4","ND","ND","ND","ND","3.42","ND","ND","ND","ND","ND","0"],
    [45485,"2015-07-15T00:00:00","41.5","ND","ND","ND","ND","2.59","ND","ND","ND","ND","ND","0"],
    [45486,"2015-07-15T01:00:00","78.2","ND","ND","ND","ND","2.30","ND","ND","ND","ND","ND","0"],
    [45487,"2015-07-15T02:00:00","91","ND","ND","ND","ND","2.62","ND","ND","ND","ND","ND","0"],
    [45488,"2015-07-15T03:00:00","66.4","ND","ND","ND","ND","2.96","ND","ND","ND","ND","ND","0"],
    [45489,"2015-07-15T04:00:00","102.4","ND","ND","ND","ND","2.69","ND","ND","ND","ND","ND","0"],
    [45490,"2015-07-15T05:00:00","ND","ND","ND","ND","ND","3.61","ND","ND","ND","ND","ND","0"],
    [45491,"2015-07-15T06:00:00","109.8","ND","ND","ND","ND","3.33","ND","ND","ND","ND","ND","0"],
    [45492,"2015-07-15T07:00:00","87.2","ND","ND","ND","ND","5.19","ND","ND","ND","ND","ND","0"],
    [45493,"2015-07-15T08:00:00","98.6","ND","ND","ND","ND","5.30","ND","ND","ND","ND","ND","0"],
    [45494,"2015-07-15T09:00:00","86.2","ND","ND","ND","ND","3.26","ND","ND","ND","ND","ND","0"],
    [45495,"2015-07-15T10:00:00","48.5","ND","ND","ND","ND","2.84","ND","ND","ND","ND","ND","0"],
    [45496,"2015-07-15T11:00:00","43.2","ND","ND","ND","ND","3.32","ND","ND","ND","ND","ND","0"],
    [45497,"2015-07-15T12:00:00","34.3","ND","ND","ND","ND","2.80","ND","ND","ND","ND","ND","0"],
    [45498,"2015-07-15T13:00:00","55.6","ND","ND","ND","ND","2.43","ND","ND","ND","ND","ND","0"],
    [45499,"2015-07-15T14:00:00","50.4","ND","ND","ND","ND","1.74","ND","ND","ND","ND","ND","0"],
    [45500,"2015-07-15T15:00:00","42.9","ND","ND","ND","ND","2.70","ND","ND","ND","ND","ND","0"],
    [45501,"2015-07-15T16:00:00","39","ND","ND","ND","ND","1.52","ND","ND","ND","ND","ND","0"],
    [45502,"2015-07-15T17:00:00","29.7","ND","ND","ND","ND","2.59","ND","ND","ND","ND","ND","0"],
    [45503,"2015-07-15T18:00:00","31.3","ND","ND","ND","ND","2.20","ND","ND","ND","ND","ND","0"],
    [45504,"2015-07-15T19:00:00","26.2","ND","ND","ND","ND","2.33","ND","ND","ND","ND","ND","0.25"],
    [45505,"2015-07-15T20:00:00","23.7","ND","ND","ND","ND","2.44","ND","ND","ND","ND","ND","0"],
    [45506,"2015-07-15T21:00:00","39.8","ND","ND","ND","ND","3.02","ND","ND","ND","ND","ND","0"],
    [45507,"2015-07-15T22:00:00","40.3","ND","ND","ND","ND","3.46","ND","ND","ND","ND","ND","0"],
    [45508,"2015-07-15T23:00:00","28.9","ND","ND","ND","ND","2.56","ND","ND","ND","ND","ND","0"],
    [45509,"2015-07-16T00:00:00","20.6","ND","ND","ND","ND","4.11","ND","ND","ND","ND","ND","0"],
    [45510,"2015-07-16T01:00:00","23.6","ND","ND","ND","ND","5.07","ND","ND","ND","ND","ND","0"],
    [45511,"2015-07-16T02:00:00","47.1","ND","ND","ND","ND","2.61","ND","ND","ND","ND","ND","0"],
    [45512,"2015-07-16T03:00:00","40.3","ND","ND","ND","ND","2.87","ND","ND","ND","ND","ND","0"],
    [45513,"2015-07-16T04:00:00","42.1","ND","ND","ND","ND","3.68","ND","ND","ND","ND","ND","0"],
    [45514,"2015-07-16T05:00:00","41.6","ND","ND","ND","ND","8.11","ND","ND","ND","ND","ND","0"],
    [45515,"2015-07-16T06:00:00","43.1","ND","ND","ND","ND","8.53","ND","ND","ND","ND","ND","0"],
    [45516,"2015-07-16T07:00:00","47.4","ND","ND","ND","ND","6.15","ND","ND","ND","ND","ND","0"],
    [45517,"2015-07-16T08:00:00","59.5","ND","ND","ND","ND","2.59","ND","ND","ND","ND","ND","0"],
    [45518,"2015-07-16T09:00:00","45.1","ND","ND","ND","ND","3.26","ND","ND","ND","ND","ND","0"],
    [45519,"2015-07-16T10:00:00","51.3","ND","ND","ND","ND","4.27","ND","ND","ND","ND","ND","0"],
    [45520,"2015-07-16T11:00:00","39.2","ND","ND","ND","ND","3.51","ND","ND","ND","ND","ND","0"],
    [45521,"2015-07-16T12:00:00","31","ND","ND","ND","ND","1.97","ND","ND","ND","ND","ND","0"],
    [45522,"2015-07-16T13:00:00","28.6","ND","ND","ND","ND","2.51","ND","ND","ND","ND","ND","0"],
    [45523,"2015-07-16T14:00:00","62.5","ND","ND","ND","ND","1.74","ND","ND","ND","ND","ND","0"],
    [45524,"2015-07-16T15:00:00","ND","ND","ND","ND","ND","2.50","ND","ND","ND","ND","ND","0"],
    [45525,"2015-07-16T16:00:00","69.1","ND","ND","ND","ND","3.05","ND","ND","ND","ND","ND","0"],
    [45526,"2015-07-16T17:00:00","39.7","ND","ND","ND","ND","2.63","ND","ND","ND","ND","ND","0"],
    [45527,"2015-07-16T18:00:00","54.6","ND","ND","ND","ND","3.36","ND","ND","ND","ND","ND","0"],
    [45528,"2015-07-16T19:00:00","51.9","ND","ND","ND","ND","1.87","ND","ND","ND","ND","ND","0"],
    [45529,"2015-07-16T20:00:00","57.3","ND","ND","ND","ND","2.86","ND","ND","ND","ND","ND","0"],
    [45530,"2015-07-16T21:00:00","44.7","ND","ND","ND","ND","2.87","ND","ND","ND","ND","ND","0"],
    [45531,"2015-07-16T22:00:00","50.4","ND","ND","ND","ND","5.98","ND","ND","ND","ND","ND","0"],
    [45532,"2015-07-16T23:00:00","40.3","ND","ND","ND","ND","3.51","ND","ND","ND","ND","ND","8.64"],
    [45533,"2015-07-17T00:00:00","24.1","ND","ND","ND","ND","3.83","ND","ND","ND","ND","ND","0.25"],
    [45534,"2015-07-17T01:00:00","30.4","ND","ND","ND","ND","1.78","ND","ND","ND","ND","ND","0"],
    [45535,"2015-07-17T02:00:00","29.5","ND","ND","ND","ND","2.65","ND","ND","ND","ND","ND","0"],
    [45536,"2015-07-17T03:00:00","21.4","ND","ND","ND","ND","3.26","ND","ND","ND","ND","ND","0"],
    [45537,"2015-07-17T04:00:00","21.1","ND","ND","ND","ND","2.44","ND","ND","ND","ND","ND","0"],
    [45538,"2015-07-17T05:00:00","25.3","ND","ND","ND","ND","3.29","ND","ND","ND","ND","ND","0"],
    [45539,"2015-07-17T06:00:00","32.1","ND","ND","ND","ND","3.25","ND","ND","ND","ND","ND","0"],
    [45540,"2015-07-17T07:00:00","37.3","ND","ND","ND","ND","3.44","ND","ND","ND","ND","ND","0"],
    [45541,"2015-07-17T08:00:00","56.5","ND","ND","ND","ND","3.14","ND","ND","ND","ND","ND","0"],
    [45542,"2015-07-17T09:00:00","66.2","ND","ND","ND","ND","2.97","ND","ND","ND","ND","ND","0"],
    [45543,"2015-07-17T10:00:00","61.7","ND","ND","ND","ND","3.89","ND","ND","ND","ND","ND","0"],
    [45544,"2015-07-17T11:00:00","ND","ND","ND","ND","ND","ND","ND","ND","ND","ND","ND","ND"],
    [45545,"2015-07-17T12:00:00","6.6","ND","ND","ND","ND","2.65","ND","ND","ND","ND","ND","0"],
    [45546,"2015-07-17T13:00:00","34","ND","ND","ND","ND","1.83","ND","ND","ND","ND","ND","0"],
    [45547,"2015-07-17T14:00:00","38.4","ND","ND","ND","ND","2.54","ND","ND","ND","ND","ND","0"],
    [45548,"2015-07-17T15:00:00","42.2","ND","ND","ND","ND","4.10","ND","ND","ND","ND","ND","0"],
    [45549,"2015-07-17T16:00:00","68.4","ND","ND","ND","ND","3.08","ND","ND","ND","ND","ND","0"],
    [45550,"2015-07-17T17:00:00","44.6","ND","ND","ND","ND","2.54","ND","ND","ND","ND","ND","0"],
    [45551,"2015-07-17T18:00:00","24.3","ND","ND","ND","ND","2.37","ND","ND","ND","ND","ND","0"],
    [45552,"2015-07-17T19:00:00","30.5","ND","ND","ND","ND","1.95","ND","ND","ND","ND","ND","0"],
    [45553,"2015-07-17T20:00:00","41.9","ND","ND","ND","ND","2.02","ND","ND","ND","ND","ND","0"],
    [45554,"2015-07-17T21:00:00","49.6","ND","ND","ND","ND","3.43","ND","ND","ND","ND","ND","0"],
    [45555,"2015-07-17T22:00:00","59.2","ND","ND","ND","ND","5.81","ND","ND","ND","ND","ND","0"],
    [45556,"2015-07-17T23:00:00","58","ND","ND","ND","ND","6.41","ND","ND","ND","ND","ND","0"],
    [45557,"2015-07-18T00:00:00","101.9","ND","ND","ND","ND","3.89","ND","ND","ND","ND","ND","0"],
    [45558,"2015-07-18T01:00:00","55.1","ND","ND","ND","ND","4.04","ND","ND","ND","ND","ND","0"],
    [45559,"2015-07-18T02:00:00","55.5","ND","ND","ND","ND","1.69","ND","ND","ND","ND","ND","0"],
    [45560,"2015-07-18T03:00:00","25.7","ND","ND","ND","ND","2.98","ND","ND","ND","ND","ND","0"],
    [45561,"2015-07-18T04:00:00","24.5","ND","ND","ND","ND","2.96","ND","ND","ND","ND","ND","0"],
    [45562,"2015-07-18T05:00:00","53.3","ND","ND","ND","ND","3.04","ND","ND","ND","ND","ND","0"],
    [45563,"2015-07-18T06:00:00","49","ND","ND","ND","ND","3.58","ND","ND","ND","ND","ND","0"],
    [45564,"2015-07-18T07:00:00","50.2","ND","ND","ND","ND","3.39","ND","ND","ND","ND","ND","0"],
    [45565,"2015-07-18T08:00:00","60.2","ND","ND","ND","ND","2.24","ND","ND","ND","ND","ND","0"],
    [45566,"2015-07-18T09:00:00","72.7","ND","ND","ND","ND","1.45","ND","ND","ND","ND","ND","0"],
    [45567,"2015-07-18T10:00:00","99.2","ND","ND","ND","ND","3.08","ND","ND","ND","ND","ND","0"],
    [45568,"2015-07-18T11:00:00","80.4","ND","ND","ND","ND","2.69","ND","ND","ND","ND","ND","0"],
    [45569,"2015-07-18T12:00:00","59.2","ND","ND","ND","ND","2.04","ND","ND","ND","ND","ND","0"],
    [45570,"2015-07-18T13:00:00","51.6","ND","ND","ND","ND","3.11","ND","ND","ND","ND","ND","0"],
    [45571,"2015-07-18T14:00:00","55.8","ND","ND","ND","ND","3.01","ND","ND","ND","ND","ND","0"],
    [45572,"2015-07-18T15:00:00","58.2","ND","ND","ND","ND","2.23","ND","ND","ND","ND","ND","0"],
    [45573,"2015-07-18T16:00:00","51.5","ND","ND","ND","ND","2.33","ND","ND","ND","ND","ND","0"],
    [45574,"2015-07-18T17:00:00","24.1","ND","ND","ND","ND","1.16","ND","ND","ND","ND","ND","0"],
    [45575,"2015-07-18T18:00:00","13.7","ND","ND","ND","ND","3.29","ND","ND","ND","ND","ND","0"],
    [45576,"2015-07-18T19:00:00","13.4","ND","ND","ND","ND","3.43","ND","ND","ND","ND","ND","0"],
    [45577,"2015-07-18T20:00:00","26.2","ND","ND","ND","ND","2.86","ND","ND","ND","ND","ND","0"],
    [45578,"2015-07-18T21:00:00","25.3","ND","ND","ND","ND","3.48","ND","ND","ND","ND","ND","0"],
    [45579,"2015-07-18T22:00:00","30.7","ND","ND","ND","ND","3.67","ND","ND","ND","ND","ND","0"],
    [45580,"2015-07-18T23:00:00","29.8","ND","ND","ND","ND","1.92","ND","ND","ND","ND","ND","0"],
    [45581,"2015-07-19T00:00:00","24.6","ND","ND","ND","ND","2.56","ND","ND","ND","ND","ND","0"],
    [45582,"2015-07-19T01:00:00","26.1","ND","ND","ND","ND","3.26","ND","ND","ND","ND","ND","0"],
    [45583,"2015-07-19T02:00:00","25.8","ND","ND","ND","ND","3.89","ND","ND","ND","ND","ND","0"],
    [45584,"2015-07-19T03:00:00","28.8","ND","ND","ND","ND","2.55","ND","ND","ND","ND","ND","0"],
    [45585,"2015-07-19T04:00:00","21.6","ND","ND","ND","ND","2.87","ND","ND","ND","ND","ND","0"],
    [45586,"2015-07-19T05:00:00","20.1","ND","ND","ND","ND","3.39","ND","ND","ND","ND","ND","0"],
    [45587,"2015-07-19T06:00:00","24.7","ND","ND","ND","ND","3.94","ND","ND","ND","ND","ND","0"],
    [45588,"2015-07-19T07:00:00","25.8","ND","ND","ND","ND","1.88","ND","ND","ND","ND","ND","0"],
    [45589,"2015-07-19T08:00:00","29.6","ND","ND","ND","ND","3.35","ND","ND","ND","ND","ND","0"],
    [45590,"2015-07-19T09:00:00","42.4","ND","ND","ND","ND","2.27","ND","ND","ND","ND","ND","0"],
    [45591,"2015-07-19T10:00:00","44.5","ND","ND","ND","ND","2.70","ND","ND","ND","ND","ND","0"],
    [45592,"2015-07-19T11:00:00","39.6","ND","ND","ND","ND","2.22","ND","ND","ND","ND","ND","0"],
    [45593,"2015-07-19T12:00:00","30.6","ND","ND","ND","ND","2.26","ND","ND","ND","ND","ND","0"],
    [45594,"2015-07-19T13:00:00","37.3","ND","ND","ND","ND","2.76","ND","ND","ND","ND","ND","0"],
    [45595,"2015-07-19T14:00:00","35.9","ND","ND","ND","ND","2.44","ND","ND","ND","ND","ND","0"],
    [45596,"2015-07-19T15:00:00","17.8","ND","ND","ND","ND","2.84","ND","ND","ND","ND","ND","0"],
    [45597,"2015-07-19T16:00:00","10.4","ND","ND","ND","ND","2.27","ND","ND","ND","ND","ND","0"],
    [45598,"2015-07-19T17:00:00","11.3","ND","ND","ND","ND","1.59","ND","ND","ND","ND","ND","0"],
    [45599,"2015-07-19T18:00:00","11.9","ND","ND","ND","ND","2.65","ND","ND","ND","ND","ND","0"],
    [45600,"2015-07-19T19:00:00","12.8","ND","ND","ND","ND","2.33","ND","ND","ND","ND","ND","0"],
    [45601,"2015-07-19T20:00:00","12","ND","ND","ND","ND","3.21","ND","ND","ND","ND","ND","0"],
    [45602,"2015-07-19T21:00:00","15","ND","ND","ND","ND","1.88","ND","ND","ND","ND","ND","0"],
    [45603,"2015-07-19T22:00:00","21.8","ND","ND","ND","ND","1.23","ND","ND","ND","ND","ND","0"],
    [45604,"2015-07-19T23:00:00","11.4","ND","ND","ND","ND","3.01","ND","ND","ND","ND","ND","0"],
    [45605,"2015-07-20T00:00:00","15.7","ND","ND","ND","ND","2.37","ND","ND","ND","ND","ND","0"],
    [45606,"2015-07-20T01:00:00","14.7","ND","ND","ND","ND","2.83","ND","ND","ND","ND","ND","0"],
    [45607,"2015-07-20T02:00:00","18.2","ND","ND","ND","ND","1.74","ND","ND","ND","ND","ND","0"],
    [45608,"2015-07-20T03:00:00","19.1","ND","ND","ND","ND","1.70","ND","ND","ND","ND","ND","0.51"],
    [45609,"2015-07-20T04:00:00","9.6","ND","ND","ND","ND","2.08","ND","ND","ND","ND","ND","22.35"],
    [45610,"2015-07-20T05:00:00","8.8","ND","ND","ND","ND","2.23","ND","ND","ND","ND","ND","2.03"],
    [45611,"2015-07-20T06:00:00","6.4","ND","ND","ND","ND","3.11","ND","ND","ND","ND","ND","2.54"],
    [45612,"2015-07-20T07:00:00","8.2","ND","ND","ND","ND","2.50","ND","ND","ND","ND","ND","4.57"],
    [45613,"2015-07-20T08:00:00","8.2","ND","ND","ND","ND","1.98","ND","ND","ND","ND","ND","0.25"],
    [45614,"2015-07-20T09:00:00","6.9","ND","ND","ND","ND","1.55","ND","ND","ND","ND","ND","0"],
    [45615,"2015-07-20T10:00:00","15.7","ND","ND","ND","ND","1.99","ND","ND","ND","ND","ND","0"],
    [45616,"2015-07-20T11:00:00","15.7","ND","ND","ND","ND","3.35","ND","ND","ND","ND","ND","0"],
    [45617,"2015-07-20T12:00:00","13.3","ND","ND","ND","ND","2.89","ND","ND","ND","ND","ND","0"],
    [45618,"2015-07-20T13:00:00","16.1","ND","ND","ND","ND","2.34","ND","ND","ND","ND","ND","0"],
    [45619,"2015-07-20T14:00:00","11.4","ND","ND","ND","ND","2.13","ND","ND","ND","ND","ND","0"],
    [45620,"2015-07-20T15:00:00","14.5","ND","ND","ND","ND","2.59","ND","ND","ND","ND","ND","0"],
    [45621,"2015-07-20T16:00:00","8.3","ND","ND","ND","ND","1.48","ND","ND","ND","ND","ND","0"],
    [45622,"2015-07-20T17:00:00","10","ND","ND","ND","ND","1.48","ND","ND","ND","ND","ND","0"],
    [45623,"2015-07-20T18:00:00","8.8","ND","ND","ND","ND","2.15","ND","ND","ND","ND","ND","0"],
    [45624,"2015-07-20T19:00:00","8.2","ND","ND","ND","ND","3.62","ND","ND","ND","ND","ND","0"],
    [45625,"2015-07-20T20:00:00","12.5","ND","ND","ND","ND","2.89","ND","ND","ND","ND","ND","0"],
    [45626,"2015-07-20T21:00:00","18","ND","ND","ND","ND","1.39","ND","ND","ND","ND","ND","0"],
    [45627,"2015-07-20T22:00:00","18.2","ND","ND","ND","ND","1.83","ND","ND","ND","ND","ND","0"],
    [45628,"2015-07-20T23:00:00","24.5","ND","ND","ND","ND","3.72","ND","ND","ND","ND","ND","0"],
    [45629,"2015-07-21T00:00:00","24.4","ND","ND","ND","ND","5.28","ND","ND","ND","ND","ND","0"],
    [45630,"2015-07-21T01:00:00","13.1","ND","ND","ND","ND","6.09","ND","ND","ND","ND","ND","0"],
    [45631,"2015-07-21T02:00:00","16.3","ND","ND","ND","ND","5.21","ND","ND","ND","ND","ND","0"],
    [45632,"2015-07-21T03:00:00","11.7","ND","ND","ND","ND","2.90","ND","ND","ND","ND","ND","0"],
    [45633,"2015-07-21T04:00:00","14.9","ND","ND","ND","ND","2.90","ND","ND","ND","ND","ND","0"],
    [45634,"2015-07-21T05:00:00","19.1","ND","ND","ND","ND","3.57","ND","ND","ND","ND","ND","0"],
    [45635,"2015-07-21T06:00:00","30.2","ND","ND","ND","ND","5.24","ND","ND","ND","ND","ND","0"],
    [45636,"2015-07-21T07:00:00","52.2","ND","ND","ND","ND","4.14","ND","ND","ND","ND","ND","0"],
    [45637,"2015-07-21T08:00:00","51.2","ND","ND","ND","ND","4.70","ND","ND","ND","ND","ND","0"],
    [45638,"2015-07-21T09:00:00","49.1","ND","ND","ND","ND","2.24","ND","ND","ND","ND","ND","0"],
    [45639,"2015-07-21T10:00:00","41.7","ND","ND","ND","ND","2.41","ND","ND","ND","ND","ND","0"],
    [45640,"2015-07-21T11:00:00","34.2","ND","ND","ND","ND","2.70","ND","ND","ND","ND","ND","0"],
    [45641,"2015-07-21T12:00:00","32.9","ND","ND","ND","ND","1.83","ND","ND","ND","ND","ND","0"],
    [45642,"2015-07-21T13:00:00","32.3","ND","ND","ND","ND","1.88","ND","ND","ND","ND","ND","0"],
    [45643,"2015-07-21T14:00:00","29.7","ND","ND","ND","ND","2.56","ND","ND","ND","ND","ND","0"],
    [45644,"2015-07-21T15:00:00","34.7","ND","ND","ND","ND","4.47","ND","ND","ND","ND","ND","0"],
    [45645,"2015-07-21T16:00:00","51.9","ND","ND","ND","ND","1.37","ND","ND","ND","ND","ND","0"],
    [45646,"2015-07-21T17:00:00","44.9","ND","ND","ND","ND","2.36","ND","ND","ND","ND","ND","0"],
    [45647,"2015-07-21T18:00:00","25.6","ND","ND","ND","ND","1.94","ND","ND","ND","ND","ND","0"],
    [45648,"2015-07-21T19:00:00","24.2","ND","ND","ND","ND","2.38","ND","ND","ND","ND","ND","0"],
    [45649,"2015-07-21T20:00:00","29","ND","ND","ND","ND","1.44","ND","ND","ND","ND","ND","0"],
    [45650,"2015-07-21T21:00:00","30.4","ND","ND","ND","ND","3.12","ND","ND","ND","ND","ND","0"],
    [45651,"2015-07-21T22:00:00","51.7","ND","ND","ND","ND","2.63","ND","ND","ND","ND","ND","0"],
    [45652,"2015-07-21T23:00:00","44.4","ND","ND","ND","ND","1.84","ND","ND","ND","ND","ND","0"],
    [45653,"2015-07-22T00:00:00","29.1","ND","ND","ND","ND","2.98","ND","ND","ND","ND","ND","0"],
    [45654,"2015-07-22T01:00:00","48.6","ND","ND","ND","ND","2.97","ND","ND","ND","ND","ND","0"],
    [45655,"2015-07-22T02:00:00","43","ND","ND","ND","ND","1.42","ND","ND","ND","ND","ND","0"],
    [45656,"2015-07-22T03:00:00","22","ND","ND","ND","ND","2.73","ND","ND","ND","ND","ND","7.87"],
    [45657,"2015-07-22T04:00:00","22.9","ND","ND","ND","ND","3.16","ND","ND","ND","ND","ND","0.25"],
    [45658,"2015-07-22T05:00:00","24","ND","ND","ND","ND","2.45","ND","ND","ND","ND","ND","0"],
    [45659,"2015-07-22T06:00:00","19.4","ND","ND","ND","ND","3.36","ND","ND","ND","ND","ND","0"],
    [45660,"2015-07-22T07:00:00","15","ND","ND","ND","ND","2.72","ND","ND","ND","ND","ND","1.02"],
    [45661,"2015-07-22T08:00:00","15.8","ND","ND","ND","ND","2.23","ND","ND","ND","ND","ND","0.25"],
    [45662,"2015-07-22T09:00:00","19.5","ND","ND","ND","ND","2.69","ND","ND","ND","ND","ND","0"],
    [45663,"2015-07-22T10:00:00","27.3","ND","ND","ND","ND","2.75","ND","ND","ND","ND","ND","0.25"],
    [45664,"2015-07-22T11:00:00","22.4","ND","ND","ND","ND","2.27","ND","ND","ND","ND","ND","0"],
    [45665,"2015-07-22T12:00:00","35.9","ND","ND","ND","ND","2.01","ND","ND","ND","ND","ND","0"],
    [45666,"2015-07-22T13:00:00","29.9","ND","ND","ND","ND","2.75","ND","ND","ND","ND","ND","0"],
    [45667,"2015-07-22T14:00:00","32.7","ND","ND","ND","ND","1.55","ND","ND","ND","ND","ND","0"],
    [45668,"2015-07-22T15:00:00","35.8","ND","ND","ND","ND","2.24","ND","ND","ND","ND","ND","0"],
    [45669,"2015-07-22T16:00:00","32.3","ND","ND","ND","ND","1.76","ND","ND","ND","ND","ND","0"],
    [45670,"2015-07-22T17:00:00","40.8","ND","ND","ND","ND","2.04","ND","ND","ND","ND","ND","0"],
    [45671,"2015-07-22T18:00:00","20.9","ND","ND","ND","ND","1.97","ND","ND","ND","ND","ND","0"],
    [45672,"2015-07-22T19:00:00","12.7","ND","ND","ND","ND","2.04","ND","ND","ND","ND","ND","0"],
    [45673,"2015-07-22T20:00:00","23.9","ND","ND","ND","ND","2.30","ND","ND","ND","ND","ND","0"],
    [45674,"2015-07-22T21:00:00","24.6","ND","ND","ND","ND","2.33","ND","ND","ND","ND","ND","0"],
    [45675,"2015-07-22T22:00:00","9.3","ND","ND","ND","ND","1.07","ND","ND","ND","ND","ND","0"],
    [45676,"2015-07-22T23:00:00","11.9","ND","ND","ND","ND","2.27","ND","ND","ND","ND","ND","0"],
    [45677,"2015-07-23T00:00:00","11.8","ND","ND","ND","ND","1.88","ND","ND","ND","ND","ND","0"],
    [45678,"2015-07-23T01:00:00","16","ND","ND","ND","ND","2.43","ND","ND","ND","ND","ND","0"],
    [45679,"2015-07-23T02:00:00","23.1","ND","ND","ND","ND","2.27","ND","ND","ND","ND","ND","0"],
    [45680,"2015-07-23T03:00:00","36.4","ND","ND","ND","ND","3.19","ND","ND","ND","ND","ND","0"],
    [45681,"2015-07-23T04:00:00","35.9","ND","ND","ND","ND","2.47","ND","ND","ND","ND","ND","0"],
    [45682,"2015-07-23T05:00:00","36.4","ND","ND","ND","ND","1.59","ND","ND","ND","ND","ND","0"],
    [45683,"2015-07-23T06:00:00","34.7","ND","ND","ND","ND","2.51","ND","ND","ND","ND","ND","0"],
    [45684,"2015-07-23T07:00:00","48.8","ND","ND","ND","ND","3.67","ND","ND","ND","ND","ND","0"],
    [45685,"2015-07-23T08:00:00","51.5","ND","ND","ND","ND","4.60","ND","ND","ND","ND","ND","0"],
    [45686,"2015-07-23T09:00:00","57.5","ND","ND","ND","ND","4.61","ND","ND","ND","ND","ND","0"],
    [45687,"2015-07-23T10:00:00","79.1","ND","ND","ND","ND","3.53","ND","ND","ND","ND","ND","0"],
    [45688,"2015-07-23T11:00:00","45.5","ND","ND","ND","ND","1.80","ND","ND","ND","ND","ND","0"],
    [45689,"2015-07-23T12:00:00","31.6","ND","ND","ND","ND","1.94","ND","ND","ND","ND","ND","0"],
    [45690,"2015-07-23T13:00:00","33.7","ND","ND","ND","ND","3.36","ND","ND","ND","ND","ND","0"],
    [45691,"2015-07-23T14:00:00","39","ND","ND","ND","ND","1.92","ND","ND","ND","ND","ND","0"],
    [45692,"2015-07-23T15:00:00","42.2","ND","ND","ND","ND","3.08","ND","ND","ND","ND","ND","0"],
    [45693,"2015-07-23T16:00:00","34.9","ND","ND","ND","ND","2.86","ND","ND","ND","ND","ND","0"],
    [45694,"2015-07-23T17:00:00","27.1","ND","ND","ND","ND","2.13","ND","ND","ND","ND","ND","0"],
    [45695,"2015-07-23T18:00:00","33.8","ND","ND","ND","ND","1.92","ND","ND","ND","ND","ND","0"],
    [45696,"2015-07-23T19:00:00","25.9","ND","ND","ND","ND","2.23","ND","ND","ND","ND","ND","0"],
    [45697,"2015-07-23T20:00:00","32.2","ND","ND","ND","ND","3.76","ND","ND","ND","ND","ND","0"],
    [45698,"2015-07-23T21:00:00","28.8","ND","ND","ND","ND","3.04","ND","ND","ND","ND","ND","0"],
    [45699,"2015-07-23T22:00:00","30","ND","ND","ND","ND","1.81","ND","ND","ND","ND","ND","0"],
    [45700,"2015-07-23T23:00:00","28.9","ND","ND","ND","ND","2.04","ND","ND","ND","ND","ND","0"],
    [45701,"2015-07-24T00:00:00","31.4","ND","ND","ND","ND","3.76","ND","ND","ND","ND","ND","0"],
    [45702,"2015-07-24T01:00:00","26.8","ND","ND","ND","ND","2.10","ND","ND","ND","ND","ND","0"],
    [45703,"2015-07-24T02:00:00","37.4","ND","ND","ND","ND","3.48","ND","ND","ND","ND","ND","0"],
    [45704,"2015-07-24T03:00:00","25.4","ND","ND","ND","ND","1.80","ND","ND","ND","ND","ND","0"],
    [45705,"2015-07-24T04:00:00","30","ND","ND","ND","ND","3.15","ND","ND","ND","ND","ND","0"],
    [45706,"2015-07-24T05:00:00","49.3","ND","ND","ND","ND","4.86","ND","ND","ND","ND","ND","0"],
    [45707,"2015-07-24T06:00:00","47.2","ND","ND","ND","ND","8.01","ND","ND","ND","ND","ND","0"],
    [45708,"2015-07-24T07:00:00","55.7","ND","ND","ND","ND","7.28","ND","ND","ND","ND","ND","0"],
    [45709,"2015-07-24T08:00:00","66.6","ND","ND","ND","ND","5.60","ND","ND","ND","ND","ND","0"],
    [45710,"2015-07-24T09:00:00","72.1","ND","ND","ND","ND","4.82","ND","ND","ND","ND","ND","0"],
    [45711,"2015-07-24T10:00:00","95","ND","ND","ND","ND","4.36","ND","ND","ND","ND","ND","0"],
    [45712,"2015-07-24T11:00:00","83","ND","ND","ND","ND","3.65","ND","ND","ND","ND","ND","0"],
    [45713,"2015-07-24T12:00:00","44.2","ND","ND","ND","ND","3.23","ND","ND","ND","ND","ND","0"],
    [45714,"2015-07-24T13:00:00","39.1","ND","ND","ND","ND","2.24","ND","ND","ND","ND","ND","0"],
    [45715,"2015-07-24T14:00:00","44.2","ND","ND","ND","ND","2.69","ND","ND","ND","ND","ND","0"],
    [45716,"2015-07-24T15:00:00","46.3","ND","ND","ND","ND","2.97","ND","ND","ND","ND","ND","0"],
    [45717,"2015-07-24T16:00:00","45","ND","ND","ND","ND","3.11","ND","ND","ND","ND","ND","0"],
    [45718,"2015-07-24T17:00:00","38.2","ND","ND","ND","ND","3.26","ND","ND","ND","ND","ND","0"],
    [45719,"2015-07-24T18:00:00","34.2","ND","ND","ND","ND","2.31","ND","ND","ND","ND","ND","0"],
    [45720,"2015-07-24T19:00:00","59.3","ND","ND","ND","ND","2.97","ND","ND","ND","ND","ND","0"],
    [45721,"2015-07-24T20:00:00","54.8","ND","ND","ND","ND","3.47","ND","ND","ND","ND","ND","0"],
    [45722,"2015-07-24T21:00:00","61.3","ND","ND","ND","ND","1.63","ND","ND","ND","ND","ND","0"],
    [45723,"2015-07-24T22:00:00","70","ND","ND","ND","ND","3.43","ND","ND","ND","ND","ND","0"],
    [45724,"2015-07-24T23:00:00","73","ND","ND","ND","ND","4.27","ND","ND","ND","ND","ND","0"],
    [45725,"2015-07-25T00:00:00","62.1","ND","ND","ND","ND","4.54","ND","ND","ND","ND","ND","0"],
    [45726,"2015-07-25T01:00:00","63.9","ND","ND","ND","ND","4.80","ND","ND","ND","ND","ND","0"],
    [45727,"2015-07-25T02:00:00","55.8","ND","ND","ND","ND","2.12","ND","ND","ND","ND","ND","0"],
    [45728,"2015-07-25T03:00:00","65.3","ND","ND","ND","ND","4.03","ND","ND","ND","ND","ND","0"],
    [45729,"2015-07-25T04:00:00","72.8","ND","ND","ND","ND","3.83","ND","ND","ND","ND","ND","0"],
    [45730,"2015-07-25T05:00:00","57.3","ND","ND","ND","ND","2.84","ND","ND","ND","ND","ND","0"],
    [45731,"2015-07-25T06:00:00","42.5","ND","ND","ND","ND","3.55","ND","ND","ND","ND","ND","0"],
    [45732,"2015-07-25T07:00:00","80.6","ND","ND","ND","ND","4.40","ND","ND","ND","ND","ND","0"],
    [45733,"2015-07-25T08:00:00","106.9","ND","ND","ND","ND","4.42","ND","ND","ND","ND","ND","0"],
    [45734,"2015-07-25T09:00:00","106.7","ND","ND","ND","ND","2.62","ND","ND","ND","ND","ND","0"],
    [45735,"2015-07-25T10:00:00","87.9","ND","ND","ND","ND","3.48","ND","ND","ND","ND","ND","0"],
    [45736,"2015-07-25T11:00:00","93.5","ND","ND","ND","ND","2.68","ND","ND","ND","ND","ND","0"],
    [45737,"2015-07-25T12:00:00","74.5","ND","ND","ND","ND","1.71","ND","ND","ND","ND","ND","0"],
    [45738,"2015-07-25T13:00:00","50.7","ND","ND","ND","ND","2.98","ND","ND","ND","ND","ND","0"],
    [45739,"2015-07-25T14:00:00","41.7","ND","ND","ND","ND","2.62","ND","ND","ND","ND","ND","0"],
    [45740,"2015-07-25T15:00:00","21.2","ND","ND","ND","ND","2.10","ND","ND","ND","ND","ND","0"],
    [45741,"2015-07-25T16:00:00","8.3","ND","ND","ND","ND","2.75","ND","ND","ND","ND","ND","0"],
    [45742,"2015-07-25T17:00:00","9.1","ND","ND","ND","ND","2.09","ND","ND","ND","ND","ND","0"],
    [45743,"2015-07-25T18:00:00","13.4","ND","ND","ND","ND","2.97","ND","ND","ND","ND","ND","0"],
    [45744,"2015-07-25T19:00:00","29.5","ND","ND","ND","ND","2.90","ND","ND","ND","ND","ND","0"],
    [45745,"2015-07-25T20:00:00","44.2","ND","ND","ND","ND","2.02","ND","ND","ND","ND","ND","0"],
    [45746,"2015-07-25T21:00:00","33.7","ND","ND","ND","ND","3.14","ND","ND","ND","ND","ND","0"],
    [45747,"2015-07-25T22:00:00","32.2","ND","ND","ND","ND","3.54","ND","ND","ND","ND","ND","0"],
    [45748,"2015-07-25T23:00:00","39.4","ND","ND","ND","ND","6.26","ND","ND","ND","ND","ND","0"],
    [45749,"2015-07-26T00:00:00","62.6","ND","ND","ND","ND","4.11","ND","ND","ND","ND","ND","0"],
    [45750,"2015-07-26T01:00:00","83.6","ND","ND","ND","ND","2.94","ND","ND","ND","ND","ND","0"],
    [45751,"2015-07-26T02:00:00","55.9","ND","ND","ND","ND","2.40","ND","ND","ND","ND","ND","0"],
    [45752,"2015-07-26T03:00:00","42.3","ND","ND","ND","ND","3.82","ND","ND","ND","ND","ND","0"],
    [45753,"2015-07-26T04:00:00","41.8","ND","ND","ND","ND","3.11","ND","ND","ND","ND","ND","0"],
    [45754,"2015-07-26T05:00:00","47.1","ND","ND","ND","ND","2.77","ND","ND","ND","ND","ND","0"],
    [45755,"2015-07-26T06:00:00","54.1","ND","ND","ND","ND","3.78","ND","ND","ND","ND","ND","0"],
    [45756,"2015-07-26T07:00:00","60.9","ND","ND","ND","ND","3.26","ND","ND","ND","ND","ND","0"],
    [45757,"2015-07-26T08:00:00","73.2","ND","ND","ND","ND","4.04","ND","ND","ND","ND","ND","0"],
    [45758,"2015-07-26T09:00:00","78.4","ND","ND","ND","ND","4.45","ND","ND","ND","ND","ND","0"],
    [45759,"2015-07-26T10:00:00","68.1","ND","ND","ND","ND","3.02","ND","ND","ND","ND","ND","0"],
    [45760,"2015-07-26T11:00:00","52.4","ND","ND","ND","ND","1.91","ND","ND","ND","ND","ND","0"],
    [45761,"2015-07-26T12:00:00","32","ND","ND","ND","ND","1.02","ND","ND","ND","ND","ND","0"],
    [45762,"2015-07-26T13:00:00","25.7","ND","ND","ND","ND","1.56","ND","ND","ND","ND","ND","0"],
    [45763,"2015-07-26T14:00:00","25.7","ND","ND","ND","ND","2.06","ND","ND","ND","ND","ND","0"],
    [45764,"2015-07-26T15:00:00","26.6","ND","ND","ND","ND","2.13","ND","ND","ND","ND","ND","0"],
    [45765,"2015-07-26T16:00:00","23.3","ND","ND","ND","ND","2.27","ND","ND","ND","ND","ND","0"],
    [45766,"2015-07-26T17:00:00","20.1","ND","ND","ND","ND","3.09","ND","ND","ND","ND","ND","0"],
    [45767,"2015-07-26T18:00:00","22.7","ND","ND","ND","ND","1.90","ND","ND","ND","ND","ND","0"],
    [45768,"2015-07-26T19:00:00","23.2","ND","ND","ND","ND","2.06","ND","ND","ND","ND","ND","0"],
    [45769,"2015-07-26T20:00:00","21.4","ND","ND","ND","ND","1.14","ND","ND","ND","ND","ND","0"],
    [45770,"2015-07-26T21:00:00","30.8","ND","ND","ND","ND","2.47","ND","ND","ND","ND","ND","0"],
    [45771,"2015-07-26T22:00:00","35.2","ND","ND","ND","ND","4.17","ND","ND","ND","ND","ND","0"],
    [45772,"2015-07-26T23:00:00","24.8","ND","ND","ND","ND","3.19","ND","ND","ND","ND","ND","0"],
    [45773,"2015-07-27T00:00:00","22.2","ND","ND","ND","ND","2.15","ND","ND","ND","ND","ND","0"],
    [45774,"2015-07-27T01:00:00","15.7","ND","ND","ND","ND","2.93","ND","ND","ND","ND","ND","0"],
    [45775,"2015-07-27T02:00:00","14.4","ND","ND","ND","ND","3.82","ND","ND","ND","ND","ND","0"],
    [45776,"2015-07-27T03:00:00","24.6","ND","ND","ND","ND","2.77","ND","ND","ND","ND","ND","0"],
    [45777,"2015-07-27T04:00:00","20.9","ND","ND","ND","ND","2.04","ND","ND","ND","ND","ND","0"],
    [45778,"2015-07-27T05:00:00","32.5","ND","ND","ND","ND","4.08","ND","ND","ND","ND","ND","0"],
    [45779,"2015-07-27T06:00:00","43.6","ND","ND","ND","ND","3.14","ND","ND","ND","ND","ND","0"],
    [45780,"2015-07-27T07:00:00","69.9","ND","ND","ND","ND","4.11","ND","ND","ND","ND","ND","0"],
    [45781,"2015-07-27T08:00:00","100","ND","ND","ND","ND","4.22","ND","ND","ND","ND","ND","0"],
    [45782,"2015-07-27T09:00:00","93.3","ND","ND","ND","ND","4.95","ND","ND","ND","ND","ND","0"],
    [45783,"2015-07-27T10:00:00","70.2","ND","ND","ND","ND","3.12","ND","ND","ND","ND","ND","0"],
    [45784,"2015-07-27T11:00:00","54.9","ND","ND","ND","ND","2.89","ND","ND","ND","ND","ND","0"],
    [45785,"2015-07-27T12:00:00","46.9","ND","ND","ND","ND","3.14","ND","ND","ND","ND","ND","0"],
    [45786,"2015-07-27T13:00:00","43.5","ND","ND","ND","ND","2.93","ND","ND","ND","ND","ND","0"],
    [45787,"2015-07-27T14:00:00","40.4","ND","ND","ND","ND","3.08","ND","ND","ND","ND","ND","0"],
    [45788,"2015-07-27T15:00:00","33.6","ND","ND","ND","ND","3.23","ND","ND","ND","ND","ND","0"],
    [45789,"2015-07-27T16:00:00","37.3","ND","ND","ND","ND","3.12","ND","ND","ND","ND","ND","0"],
    [45790,"2015-07-27T17:00:00","34","ND","ND","ND","ND","3.23","ND","ND","ND","ND","ND","0"],
    [45791,"2015-07-27T18:00:00","32.5","ND","ND","ND","ND","2.37","ND","ND","ND","ND","ND","0"],
    [45792,"2015-07-27T19:00:00","24","ND","ND","ND","ND","3.14","ND","ND","ND","ND","ND","0"],
    [45793,"2015-07-27T20:00:00","24.4","ND","ND","ND","ND","2.30","ND","ND","ND","ND","ND","0"],
    [45794,"2015-07-27T21:00:00","50.8","ND","ND","ND","ND","2.56","ND","ND","ND","ND","ND","0"],
    [45795,"2015-07-27T22:00:00","44.7","ND","ND","ND","ND","5.35","ND","ND","ND","ND","ND","0"],
    [45796,"2015-07-27T23:00:00","36.5","ND","ND","ND","ND","5.69","ND","ND","ND","ND","ND","0"],
    [45797,"2015-07-28T00:00:00","42.2","ND","ND","ND","ND","2.83","ND","ND","ND","ND","ND","0"],
    [45798,"2015-07-28T01:00:00","43.3","ND","ND","ND","ND","3.42","ND","ND","ND","ND","ND","0"],
    [45799,"2015-07-28T02:00:00","40.6","ND","ND","ND","ND","2.24","ND","ND","ND","ND","ND","0"],
    [45800,"2015-07-28T03:00:00","38.4","ND","ND","ND","ND","4.06","ND","ND","ND","ND","ND","0"],
    [45801,"2015-07-28T04:00:00","37.5","ND","ND","ND","ND","3.40","ND","ND","ND","ND","ND","0"],
    [45802,"2015-07-28T05:00:00","46.7","ND","ND","ND","ND","2.37","ND","ND","ND","ND","ND","0"],
    [45803,"2015-07-28T06:00:00","38.8","ND","ND","ND","ND","3.39","ND","ND","ND","ND","ND","0"],
    [45804,"2015-07-28T07:00:00","57.3","ND","ND","ND","ND","3.22","ND","ND","ND","ND","ND","0"],
    [45805,"2015-07-28T08:00:00","53.7","ND","ND","ND","ND","2.73","ND","ND","ND","ND","ND","0"],
    [45806,"2015-07-28T09:00:00","56.7","ND","ND","ND","ND","3.85","ND","ND","ND","ND","ND","0"],
    [45807,"2015-07-28T10:00:00","57.6","ND","ND","ND","ND","2.51","ND","ND","ND","ND","ND","0"],
    [45808,"2015-07-28T11:00:00","47.9","ND","ND","ND","ND","2.16","ND","ND","ND","ND","ND","0"],
    [45809,"2015-07-28T12:00:00","40.6","ND","ND","ND","ND","3.82","ND","ND","ND","ND","ND","0"],
    [45810,"2015-07-28T13:00:00","35.1","ND","ND","ND","ND","4.08","ND","ND","ND","ND","ND","0"],
    [45811,"2015-07-28T14:00:00","38.7","ND","ND","ND","ND","3.58","ND","ND","ND","ND","ND","0"],
    [45812,"2015-07-28T15:00:00","44.9","ND","ND","ND","ND","2.13","ND","ND","ND","ND","ND","0"],
    [45813,"2015-07-28T16:00:00","35.7","ND","ND","ND","ND","2.54","ND","ND","ND","ND","ND","0"],
    [45814,"2015-07-28T17:00:00","36.8","ND","ND","ND","ND","1.59","ND","ND","ND","ND","ND","0"],
    [45815,"2015-07-28T18:00:00","31.2","ND","ND","ND","ND","2.80","ND","ND","ND","ND","ND","0"],
    [45816,"2015-07-28T19:00:00","22.6","ND","ND","ND","ND","2.16","ND","ND","ND","ND","ND","0"],
    [45817,"2015-07-28T20:00:00","17","ND","ND","ND","ND","2.30","ND","ND","ND","ND","ND","0"],
    [45818,"2015-07-28T21:00:00","28.6","ND","ND","ND","ND","1.91","ND","ND","ND","ND","ND","0"],
    [45819,"2015-07-28T22:00:00","35","ND","ND","ND","ND","2.22","ND","ND","ND","ND","ND","0"],
    [45820,"2015-07-28T23:00:00","16.5","ND","ND","ND","ND","2.34","ND","ND","ND","ND","ND","0"],
    [45821,"2015-07-29T00:00:00","34.6","ND","ND","ND","ND","3.12","ND","ND","ND","ND","ND","0"],
    [45822,"2015-07-29T01:00:00","40.6","ND","ND","ND","ND","1.98","ND","ND","ND","ND","ND","0"],
    [45823,"2015-07-29T02:00:00","24.7","ND","ND","ND","ND","3.25","ND","ND","ND","ND","ND","0"],
    [45824,"2015-07-29T03:00:00","32.4","ND","ND","ND","ND","2.50","ND","ND","ND","ND","ND","0"],
    [45825,"2015-07-29T04:00:00","31.3","ND","ND","ND","ND","2.06","ND","ND","ND","ND","ND","0"],
    [45826,"2015-07-29T05:00:00","26.1","ND","ND","ND","ND","3.11","ND","ND","ND","ND","ND","0"],
    [45827,"2015-07-29T06:00:00","30.2","ND","ND","ND","ND","2.52","ND","ND","ND","ND","ND","0"],
    [45828,"2015-07-29T07:00:00","41.8","ND","ND","ND","ND","2.83","ND","ND","ND","ND","ND","0"],
    [45829,"2015-07-29T08:00:00","46.5","ND","ND","ND","ND","2.83","ND","ND","ND","ND","ND","0"],
    [45830,"2015-07-29T09:00:00","46.7","ND","ND","ND","ND","3.22","ND","ND","ND","ND","ND","0"],
    [45831,"2015-07-29T10:00:00","44.7","ND","ND","ND","ND","1.81","ND","ND","ND","ND","ND","0"],
    [45832,"2015-07-29T11:00:00","50.6","ND","ND","ND","ND","2.24","ND","ND","ND","ND","ND","0"],
    [45833,"2015-07-29T12:00:00","55.8","ND","ND","ND","ND","3.16","ND","ND","ND","ND","ND","0"],
    [45834,"2015-07-29T13:00:00","39.2","ND","ND","ND","ND","1.56","ND","ND","ND","ND","ND","0"],
    [45835,"2015-07-29T14:00:00","36.2","ND","ND","ND","ND","3.19","ND","ND","ND","ND","ND","0"],
    [45836,"2015-07-29T15:00:00","42.9","ND","ND","ND","ND","4.13","ND","ND","ND","ND","ND","0"],
    [45837,"2015-07-29T16:00:00","39.3","ND","ND","ND","ND","2.44","ND","ND","ND","ND","ND","0"],
    [45838,"2015-07-29T17:00:00","36.1","ND","ND","ND","ND","3.35","ND","ND","ND","ND","ND","0"],
    [45839,"2015-07-29T18:00:00","36.8","ND","ND","ND","ND","2.56","ND","ND","ND","ND","ND","0"],
    [45840,"2015-07-29T19:00:00","42.7","ND","ND","ND","ND","1.90","ND","ND","ND","ND","ND","0"],
    [45841,"2015-07-29T20:00:00","62.7","ND","ND","ND","ND","2.34","ND","ND","ND","ND","ND","0"],
    [45842,"2015-07-29T21:00:00","59","ND","ND","ND","ND","2.68","ND","ND","ND","ND","ND","0"],
    [45843,"2015-07-29T22:00:00","63.6","ND","ND","ND","ND","3.05","ND","ND","ND","ND","ND","0"],
    [45844,"2015-07-29T23:00:00","42.5","ND","ND","ND","ND","3.05","ND","ND","ND","ND","ND","0"],
    [45845,"2015-07-30T00:00:00","31.6","ND","ND","ND","ND","2.50","ND","ND","ND","ND","ND","0"],
    [45846,"2015-07-30T01:00:00","49.5","ND","ND","ND","ND","3.35","ND","ND","ND","ND","ND","0"],
    [45847,"2015-07-30T02:00:00","63.5","ND","ND","ND","ND","2.73","ND","ND","ND","ND","ND","0"],
    [45848,"2015-07-30T03:00:00","42.1","ND","ND","ND","ND","4.20","ND","ND","ND","ND","ND","0"],
    [45849,"2015-07-30T04:00:00","50","ND","ND","ND","ND","3.40","ND","ND","ND","ND","ND","0"],
    [45850,"2015-07-30T05:00:00","51.2","ND","ND","ND","ND","2.63","ND","ND","ND","ND","ND","0"],
    [45851,"2015-07-30T06:00:00","54.5","ND","ND","ND","ND","2.98","ND","ND","ND","ND","ND","0"],
    [45852,"2015-07-30T07:00:00","60.1","ND","ND","ND","ND","3.96","ND","ND","ND","ND","ND","0"],
    [45853,"2015-07-30T08:00:00","80.5","ND","ND","ND","ND","4.47","ND","ND","ND","ND","ND","0"],
    [45854,"2015-07-30T09:00:00","82.5","ND","ND","ND","ND","4.78","ND","ND","ND","ND","ND","0"],
    [45855,"2015-07-30T10:00:00","57.1","ND","ND","ND","ND","2.97","ND","ND","ND","ND","ND","0"],
    [45856,"2015-07-30T11:00:00","34.9","ND","ND","ND","ND","3.12","ND","ND","ND","ND","ND","0"],
    [45857,"2015-07-30T12:00:00","ND","ND","ND","ND","ND","ND","ND","ND","ND","ND","ND","ND"],
    [45858,"2015-07-30T13:00:00","ND","ND","ND","ND","ND","ND","ND","ND","ND","ND","ND","ND"],
    [45859,"2015-07-30T14:00:00","ND","ND","ND","ND","ND","ND","ND","ND","ND","ND","ND","ND"],
    [45860,"2015-07-30T15:00:00","ND","ND","ND","ND","ND","ND","ND","ND","ND","ND","ND","ND"],
    [45861,"2015-07-30T16:00:00","ND","ND","ND","ND","ND","ND","ND","ND","ND","ND","ND","ND"],
    [45862,"2015-07-30T17:00:00","ND","ND","ND","ND","ND","ND","ND","ND","ND","ND","ND","ND"],
    [45863,"2015-07-30T18:00:00","21.6","ND","ND","ND","ND","2.06","ND","ND","ND","ND","ND","0"],
    [45864,"2015-07-30T19:00:00","28.2","ND","ND","ND","ND","2.26","ND","ND","ND","ND","ND","0"],
    [45865,"2015-07-30T20:00:00","19.6","ND","ND","ND","ND","1.71","ND","ND","ND","ND","ND","0"],
    [45866,"2015-07-30T21:00:00","25.3","ND","ND","ND","ND","2.38","ND","ND","ND","ND","ND","0"],
    [45867,"2015-07-30T22:00:00","27.8","ND","ND","ND","ND","2.83","ND","ND","ND","ND","ND","0"],
    [45868,"2015-07-30T23:00:00","24.8","ND","ND","ND","ND","2.24","ND","ND","ND","ND","ND","0"],
    [45869,"2015-07-31T00:00:00","32.9","ND","ND","ND","ND","3.54","ND","ND","ND","ND","ND","0"],
    [45870,"2015-07-31T01:00:00","62.6","ND","ND","ND","ND","4.22","ND","ND","ND","ND","ND","0"],
    [45871,"2015-07-31T02:00:00","45.1","ND","ND","ND","ND","3.65","ND","ND","ND","ND","ND","0"],
    [45872,"2015-07-31T03:00:00","53.3","ND","ND","ND","ND","2.55","ND","ND","ND","ND","ND","0"],
    [45873,"2015-07-31T04:00:00","51","ND","ND","ND","ND","3.01","ND","ND","ND","ND","ND","0"],
    [45874,"2015-07-31T05:00:00","40.2","ND","ND","ND","ND","2.75","ND","ND","ND","ND","ND","0"],
    [45875,"2015-07-31T06:00:00","38.4","ND","ND","ND","ND","3.04","ND","ND","ND","ND","ND","0"],
    [45876,"2015-07-31T07:00:00","67.9","ND","ND","ND","ND","3.29","ND","ND","ND","ND","ND","0"],
    [45877,"2015-07-31T08:00:00","90.9","ND","ND","ND","ND","3.36","ND","ND","ND","ND","ND","0"],
    [45878,"2015-07-31T09:00:00","101","ND","ND","ND","ND","2.94","ND","ND","ND","ND","ND","0"],
    [45879,"2015-07-31T10:00:00","76.7","ND","ND","ND","ND","2.38","ND","ND","ND","ND","ND","0"],
    [45880,"2015-07-31T11:00:00","55.5","ND","ND","ND","ND","2.69","ND","ND","ND","ND","ND","0"],
    [45881,"2015-07-31T12:00:00","31.5","ND","ND","ND","ND","2.27","ND","ND","ND","ND","ND","0"],
    [45882,"2015-07-31T13:00:00","36","ND","ND","ND","ND","3.02","ND","ND","ND","ND","ND","0"],
    [45883,"2015-07-31T14:00:00","38.8","ND","ND","ND","ND","2.69","ND","ND","ND","ND","ND","0"],
    [45884,"2015-07-31T15:00:00","43.8","ND","ND","ND","ND","2.84","ND","ND","ND","ND","ND","0"],
    [45885,"2015-07-31T16:00:00","42.5","ND","ND","ND","ND","2.86","ND","ND","ND","ND","ND","0"],
    [45886,"2015-07-31T17:00:00","33.6","ND","ND","ND","ND","1.83","ND","ND","ND","ND","ND","0"],
    [45887,"2015-07-31T18:00:00","20.4","ND","ND","ND","ND","2.87","ND","ND","ND","ND","ND","0"],
    [45888,"2015-07-31T19:00:00","24.1","ND","ND","ND","ND","2.86","ND","ND","ND","ND","ND","0"],
    [45889,"2015-07-31T20:00:00","23.9","ND","ND","ND","ND","2.37","ND","ND","ND","ND","ND","0"],
    [45890,"2015-07-31T21:00:00","24.7","ND","ND","ND","ND","1.94","ND","ND","ND","ND","ND","0"],
    [45891,"2015-07-31T22:00:00","34.9","ND","ND","ND","ND","3.07","ND","ND","ND","ND","ND","0"],
    [45892,"2015-07-31T23:00:00","42.7","ND","ND","ND","ND","5.12","ND","ND","ND","ND","ND","0"],
    [45893,"2015-08-01T00:00:00","38.8","ND","ND","ND","ND","5.42","ND","ND","ND","ND","ND","0"],
    [45894,"2015-08-01T01:00:00","38","ND","ND","ND","ND","2.23","ND","ND","ND","ND","ND","0"],
    [45895,"2015-08-01T02:00:00","36.5","ND","ND","ND","ND","3.78","ND","ND","ND","ND","ND","0"],
    [45896,"2015-08-01T03:00:00","38.8","ND","ND","ND","ND","2.73","ND","ND","ND","ND","ND","0"],
    [45897,"2015-08-01T04:00:00","39.8","ND","ND","ND","ND","2.79","ND","ND","ND","ND","ND","0"],
    [45898,"2015-08-01T05:00:00","42.5","ND","ND","ND","ND","3.79","ND","ND","ND","ND","ND","0"],
    [45899,"2015-08-01T06:00:00","46.6","ND","ND","ND","ND","3.55","ND","ND","ND","ND","ND","0"],
    [45900,"2015-08-01T07:00:00","63.2","ND","ND","ND","ND","4.00","ND","ND","ND","ND","ND","0"],
    [45901,"2015-08-01T08:00:00","76.4","ND","ND","ND","ND","4.08","ND","ND","ND","ND","ND","0"],
    [45902,"2015-08-01T09:00:00","80.1","ND","ND","ND","ND","4.45","ND","ND","ND","ND","ND","0"],
    [45903,"2015-08-01T10:00:00","71.1","ND","ND","ND","ND","3.47","ND","ND","ND","ND","ND","0"],
    [45904,"2015-08-01T11:00:00","66.2","ND","ND","ND","ND","3.74","ND","ND","ND","ND","ND","0"],
    [45905,"2015-08-01T12:00:00","62.4","ND","ND","ND","ND","2.76","ND","ND","ND","ND","ND","0"],
    [45906,"2015-08-01T13:00:00","67","ND","ND","ND","ND","1.87","ND","ND","ND","ND","ND","0"],
    [45907,"2015-08-01T14:00:00","65.9","ND","ND","ND","ND","1.76","ND","ND","ND","ND","ND","0"],
    [45908,"2015-08-01T15:00:00","53","ND","ND","ND","ND","2.29","ND","ND","ND","ND","ND","0"],
    [45909,"2015-08-01T16:00:00","44.4","ND","ND","ND","ND","2.40","ND","ND","ND","ND","ND","0"],
    [45910,"2015-08-01T17:00:00","38.6","ND","ND","ND","ND","2.58","ND","ND","ND","ND","ND","0"],
    [45911,"2015-08-01T18:00:00","25.5","ND","ND","ND","ND","2.19","ND","ND","ND","ND","ND","0"],
    [45912,"2015-08-01T19:00:00","31.1","ND","ND","ND","ND","3.08","ND","ND","ND","ND","ND","0"],
    [45913,"2015-08-01T20:00:00","29.4","ND","ND","ND","ND","2.76","ND","ND","ND","ND","ND","0"],
    [45914,"2015-08-01T21:00:00","37.7","ND","ND","ND","ND","2.68","ND","ND","ND","ND","ND","0"],
    [45915,"2015-08-01T22:00:00","34.9","ND","ND","ND","ND","5.09","ND","ND","ND","ND","ND","0"],
    [45916,"2015-08-01T23:00:00","38.3","ND","ND","ND","ND","2.44","ND","ND","ND","ND","ND","0"],
    [45917,"2015-08-02T00:00:00","19.2","ND","ND","ND","ND","2.37","ND","ND","ND","ND","ND","0"],
    [45918,"2015-08-02T01:00:00","34","ND","ND","ND","ND","1.85","ND","ND","ND","ND","ND","0"],
    [45919,"2015-08-02T02:00:00","51.7","ND","ND","ND","ND","3.55","ND","ND","ND","ND","ND","0"],
    [45920,"2015-08-02T03:00:00","51.1","ND","ND","ND","ND","3.12","ND","ND","ND","ND","ND","0"],
    [45921,"2015-08-02T04:00:00","41.1","ND","ND","ND","ND","2.37","ND","ND","ND","ND","ND","0"],
    [45922,"2015-08-02T05:00:00","42","ND","ND","ND","ND","2.04","ND","ND","ND","ND","ND","0"],
    [45923,"2015-08-02T06:00:00","41.1","ND","ND","ND","ND","2.87","ND","ND","ND","ND","ND","0"],
    [45924,"2015-08-02T07:00:00","48.7","ND","ND","ND","ND","2.48","ND","ND","ND","ND","ND","0"],
    [45925,"2015-08-02T08:00:00","44.6","ND","ND","ND","ND","2.63","ND","ND","ND","ND","ND","0"],
    [45926,"2015-08-02T09:00:00","61","ND","ND","ND","ND","3.60","ND","ND","ND","ND","ND","0"],
    [45927,"2015-08-02T10:00:00","61.8","ND","ND","ND","ND","2.01","ND","ND","ND","ND","ND","0"],
    [45928,"2015-08-02T11:00:00","53.5","ND","ND","ND","ND","3.12","ND","ND","ND","ND","ND","0"],
    [45929,"2015-08-02T12:00:00","41.8","ND","ND","ND","ND","1.28","ND","ND","ND","ND","ND","0"],
    [45930,"2015-08-02T13:00:00","40","ND","ND","ND","ND","1.51","ND","ND","ND","ND","ND","0"],
    [45931,"2015-08-02T14:00:00","38.1","ND","ND","ND","ND","1.76","ND","ND","ND","ND","ND","0"],
    [45932,"2015-08-02T15:00:00","37","ND","ND","ND","ND","2.91","ND","ND","ND","ND","ND","0"],
    [45933,"2015-08-02T16:00:00","32.8","ND","ND","ND","ND","2.61","ND","ND","ND","ND","ND","0"],
    [45934,"2015-08-02T17:00:00","29.4","ND","ND","ND","ND","2.65","ND","ND","ND","ND","ND","0"],
    [45935,"2015-08-02T18:00:00","28.9","ND","ND","ND","ND","2.04","ND","ND","ND","ND","ND","0"],
    [45936,"2015-08-02T19:00:00","31.7","ND","ND","ND","ND","2.17","ND","ND","ND","ND","ND","0"],
    [45937,"2015-08-02T20:00:00","30.7","ND","ND","ND","ND","3.18","ND","ND","ND","ND","ND","0"],
    [45938,"2015-08-02T21:00:00","33.2","ND","ND","ND","ND","2.23","ND","ND","ND","ND","ND","0"],
    [45939,"2015-08-02T22:00:00","39.4","ND","ND","ND","ND","3.81","ND","ND","ND","ND","ND","0"],
    [45940,"2015-08-02T23:00:00","45.3","ND","ND","ND","ND","3.43","ND","ND","ND","ND","ND","0"],
    [45941,"2015-08-03T00:00:00","43.3","ND","ND","ND","ND","2.68","ND","ND","ND","ND","ND","0"],
    [45942,"2015-08-03T01:00:00","55.3","ND","ND","ND","ND","4.07","ND","ND","ND","ND","ND","0"],
    [45943,"2015-08-03T02:00:00","53.8","ND","ND","ND","ND","2.55","ND","ND","ND","ND","ND","0"],
    [45944,"2015-08-03T03:00:00","43.2","ND","ND","ND","ND","3.25","ND","ND","ND","ND","ND","0"],
    [45945,"2015-08-03T04:00:00","38.7","ND","ND","ND","ND","1.60","ND","ND","ND","ND","ND","0"],
    [45946,"2015-08-03T05:00:00","36.3","ND","ND","ND","ND","2.68","ND","ND","ND","ND","ND","0"],
    [45947,"2015-08-03T06:00:00","52.5","ND","ND","ND","ND","3.47","ND","ND","ND","ND","ND","0"],
    [45948,"2015-08-03T07:00:00","59.1","ND","ND","ND","ND","1.85","ND","ND","ND","ND","ND","0"],
    [45949,"2015-08-03T08:00:00","79.7","ND","ND","ND","ND","5.05","ND","ND","ND","ND","ND","0"],
    [45950,"2015-08-03T09:00:00","110.1","ND","ND","ND","ND","2.56","ND","ND","ND","ND","ND","0"],
    [45951,"2015-08-03T10:00:00","65.5","ND","ND","ND","ND","2.66","ND","ND","ND","ND","ND","0"],
    [45952,"2015-08-03T11:00:00","43","ND","ND","ND","ND","2.44","ND","ND","ND","ND","ND","0"],
    [45953,"2015-08-03T12:00:00","41","ND","ND","ND","ND","3.51","ND","ND","ND","ND","ND","0"],
    [45954,"2015-08-03T13:00:00","37.2","ND","ND","ND","ND","2.08","ND","ND","ND","ND","ND","0"],
    [45955,"2015-08-03T14:00:00","39","ND","ND","ND","ND","2.08","ND","ND","ND","ND","ND","0"],
    [45956,"2015-08-03T15:00:00","30","ND","ND","ND","ND","2.27","ND","ND","ND","ND","ND","0"],
    [45957,"2015-08-03T16:00:00","32","ND","ND","ND","ND","2.73","ND","ND","ND","ND","ND","0"],
    [45958,"2015-08-03T17:00:00","37","ND","ND","ND","ND","1.80","ND","ND","ND","ND","ND","0"],
    [45959,"2015-08-03T18:00:00","41.8","ND","ND","ND","ND","1.76","ND","ND","ND","ND","ND","0"],
    [45960,"2015-08-03T19:00:00","52.4","ND","ND","ND","ND","1.14","ND","ND","ND","ND","ND","0"],
    [45961,"2015-08-03T20:00:00","56.3","ND","ND","ND","ND","2.09","ND","ND","ND","ND","ND","0"],
    [45962,"2015-08-03T21:00:00","60.4","ND","ND","ND","ND","2.59","ND","ND","ND","ND","ND","0"],
    [45963,"2015-08-03T22:00:00","56.3","ND","ND","ND","ND","3.83","ND","ND","ND","ND","ND","0"],
    [45964,"2015-08-03T23:00:00","62.4","ND","ND","ND","ND","3.93","ND","ND","ND","ND","ND","0"],
    [45965,"2015-08-04T00:00:00","46.7","ND","ND","ND","ND","4.68","ND","ND","ND","ND","ND","0"],
    [45966,"2015-08-04T01:00:00","40.5","ND","ND","ND","ND","2.47","ND","ND","ND","ND","ND","0"],
    [45967,"2015-08-04T02:00:00","43.2","ND","ND","ND","ND","2.91","ND","ND","ND","ND","ND","0"],
    [45968,"2015-08-04T03:00:00","39.6","ND","ND","ND","ND","3.68","ND","ND","ND","ND","ND","0"],
    [45969,"2015-08-04T04:00:00","38.3","ND","ND","ND","ND","1.70","ND","ND","ND","ND","ND","0"],
    [45970,"2015-08-04T05:00:00","46.4","ND","ND","ND","ND","3.19","ND","ND","ND","ND","ND","0"],
    [45971,"2015-08-04T06:00:00","62.4","ND","ND","ND","ND","2.30","ND","ND","ND","ND","ND","0"],
    [45972,"2015-08-04T07:00:00","83.8","ND","ND","ND","ND","3.61","ND","ND","ND","ND","ND","0"],
    [45973,"2015-08-04T08:00:00","88.2","ND","ND","ND","ND","3.79","ND","ND","ND","ND","ND","0"],
    [45974,"2015-08-04T09:00:00","101.1","ND","ND","ND","ND","2.87","ND","ND","ND","ND","ND","0"],
    [45975,"2015-08-04T10:00:00","60.7","ND","ND","ND","ND","3.33","ND","ND","ND","ND","ND","0"],
    [45976,"2015-08-04T11:00:00","43.1","ND","ND","ND","ND","2.33","ND","ND","ND","ND","ND","0"],
    [45977,"2015-08-04T12:00:00","43.9","ND","ND","ND","ND","2.13","ND","ND","ND","ND","ND","0"],
    [45978,"2015-08-04T13:00:00","41.4","ND","ND","ND","ND","2.56","ND","ND","ND","ND","ND","0"],
    [45979,"2015-08-04T14:00:00","36.7","ND","ND","ND","ND","3.14","ND","ND","ND","ND","ND","0"],
    [45980,"2015-08-04T15:00:00","20.6","ND","ND","ND","ND","1.98","ND","ND","ND","ND","ND","0"],
    [45981,"2015-08-04T16:00:00","18.2","ND","ND","ND","ND","1.74","ND","ND","ND","ND","ND","0"],
    [45982,"2015-08-04T17:00:00","29.6","ND","ND","ND","ND","2.40","ND","ND","ND","ND","ND","0"],
    [45983,"2015-08-04T18:00:00","29.1","ND","ND","ND","ND","2.48","ND","ND","ND","ND","ND","0"],
    [45984,"2015-08-04T19:00:00","26.8","ND","ND","ND","ND","2.75","ND","ND","ND","ND","ND","0"],
    [45985,"2015-08-04T20:00:00","34.3","ND","ND","ND","ND","2.89","ND","ND","ND","ND","ND","0"],
    [45986,"2015-08-04T21:00:00","33.6","ND","ND","ND","ND","2.82","ND","ND","ND","ND","ND","0"],
    [45987,"2015-08-04T22:00:00","27.2","ND","ND","ND","ND","1.76","ND","ND","ND","ND","ND","0"],
    [45988,"2015-08-04T23:00:00","47.4","ND","ND","ND","ND","4.32","ND","ND","ND","ND","ND","0"],
    [45989,"2015-08-05T00:00:00","23.9","ND","ND","ND","ND","4.29","ND","ND","ND","ND","ND","0"],
    [45990,"2015-08-05T01:00:00","30.2","ND","ND","ND","ND","2.84","ND","ND","ND","ND","ND","0"],
    [45991,"2015-08-05T02:00:00","47.1","ND","ND","ND","ND","3.44","ND","ND","ND","ND","ND","0"],
    [45992,"2015-08-05T03:00:00","45.9","ND","ND","ND","ND","2.30","ND","ND","ND","ND","ND","0"],
    [45993,"2015-08-05T04:00:00","43.3","ND","ND","ND","ND","3.16","ND","ND","ND","ND","ND","0"],
    [45994,"2015-08-05T05:00:00","38.4","ND","ND","ND","ND","2.37","ND","ND","ND","ND","ND","0"],
    [45995,"2015-08-05T06:00:00","41","ND","ND","ND","ND","2.80","ND","ND","ND","ND","ND","0"],
    [45996,"2015-08-05T07:00:00","66.9","ND","ND","ND","ND","3.51","ND","ND","ND","ND","ND","0"],
    [45997,"2015-08-05T08:00:00","96.4","ND","ND","ND","ND","2.47","ND","ND","ND","ND","ND","0"],
    [45998,"2015-08-05T09:00:00","86.7","ND","ND","ND","ND","4.31","ND","ND","ND","ND","ND","0"],
    [45999,"2015-08-05T10:00:00","70.1","ND","ND","ND","ND","4.14","ND","ND","ND","ND","ND","0"],
    [46000,"2015-08-05T11:00:00","47.1","ND","ND","ND","ND","2.68","ND","ND","ND","ND","ND","0"],
    [46001,"2015-08-05T12:00:00","37.5","ND","ND","ND","ND","3.30","ND","ND","ND","ND","ND","0"],
    [46002,"2015-08-05T13:00:00","29.7","ND","ND","ND","ND","2.17","ND","ND","ND","ND","ND","0"],
    [46003,"2015-08-05T14:00:00","33.5","ND","ND","ND","ND","1.69","ND","ND","ND","ND","ND","0"],
    [46004,"2015-08-05T15:00:00","32.3","ND","ND","ND","ND","2.96","ND","ND","ND","ND","ND","0"],
    [46005,"2015-08-05T16:00:00","21.5","ND","ND","ND","ND","2.41","ND","ND","ND","ND","ND","0"],
    [46006,"2015-08-05T17:00:00","21.2","ND","ND","ND","ND","1.69","ND","ND","ND","ND","ND","0"],
    [46007,"2015-08-05T18:00:00","32.2","ND","ND","ND","ND","2.05","ND","ND","ND","ND","ND","0"],
    [46008,"2015-08-05T19:00:00","39.4","ND","ND","ND","ND","2.33","ND","ND","ND","ND","ND","0"],
    [46009,"2015-08-05T20:00:00","37.2","ND","ND","ND","ND","2.75","ND","ND","ND","ND","ND","0"],
    [46010,"2015-08-05T21:00:00","42.6","ND","ND","ND","ND","3.26","ND","ND","ND","ND","ND","0"],
    [46011,"2015-08-05T22:00:00","38.1","ND","ND","ND","ND","3.40","ND","ND","ND","ND","ND","0"],
    [46012,"2015-08-05T23:00:00","40.7","ND","ND","ND","ND","2.33","ND","ND","ND","ND","ND","0"],
    [46013,"2015-08-06T00:00:00","45.2","ND","ND","ND","ND","4.06","ND","ND","ND","ND","ND","0"],
    [46014,"2015-08-06T01:00:00","46.6","ND","ND","ND","ND","5.56","ND","ND","ND","ND","ND","0"],
    [46015,"2015-08-06T02:00:00","43.3","ND","ND","ND","ND","2.75","ND","ND","ND","ND","ND","0"],
    [46016,"2015-08-06T03:00:00","40.8","ND","ND","ND","ND","2.59","ND","ND","ND","ND","ND","0"],
    [46017,"2015-08-06T04:00:00","36.8","ND","ND","ND","ND","3.69","ND","ND","ND","ND","ND","0"],
    [46018,"2015-08-06T05:00:00","41.6","ND","ND","ND","ND","3.89","ND","ND","ND","ND","ND","0"],
    [46019,"2015-08-06T06:00:00","66.6","ND","ND","ND","ND","4.20","ND","ND","ND","ND","ND","0"],
    [46020,"2015-08-06T07:00:00","85.3","ND","ND","ND","ND","4.74","ND","ND","ND","ND","ND","0"],
    [46021,"2015-08-06T08:00:00","90.5","ND","ND","ND","ND","2.80","ND","ND","ND","ND","ND","0"],
    [46022,"2015-08-06T09:00:00","78.4","ND","ND","ND","ND","2.91","ND","ND","ND","ND","ND","0"],
    [46023,"2015-08-06T10:00:00","60","ND","ND","ND","ND","2.29","ND","ND","ND","ND","ND","0"],
    [46024,"2015-08-06T11:00:00","44.2","ND","ND","ND","ND","1.48","ND","ND","ND","ND","ND","0"],
    [46025,"2015-08-06T12:00:00","32.7","ND","ND","ND","ND","1.74","ND","ND","ND","ND","ND","0"],
    [46026,"2015-08-06T13:00:00","35.3","ND","ND","ND","ND","2.54","ND","ND","ND","ND","ND","0"],
    [46027,"2015-08-06T14:00:00","45.2","ND","ND","ND","ND","2.19","ND","ND","ND","ND","ND","0"],
    [46028,"2015-08-06T15:00:00","43.4","ND","ND","ND","ND","2.73","ND","ND","ND","ND","ND","0"],
    [46029,"2015-08-06T16:00:00","36","ND","ND","ND","ND","3.94","ND","ND","ND","ND","ND","0"],
    [46030,"2015-08-06T17:00:00","28.7","ND","ND","ND","ND","2.38","ND","ND","ND","ND","ND","0"],
    [46031,"2015-08-06T18:00:00","23.4","ND","ND","ND","ND","2.73","ND","ND","ND","ND","ND","0"],
    [46032,"2015-08-06T19:00:00","28.3","ND","ND","ND","ND","2.24","ND","ND","ND","ND","ND","0"],
    [46033,"2015-08-06T20:00:00","41.6","ND","ND","ND","ND","1.39","ND","ND","ND","ND","ND","0"],
    [46034,"2015-08-06T21:00:00","46.9","ND","ND","ND","ND","2.36","ND","ND","ND","ND","ND","0"],
    [46035,"2015-08-06T22:00:00","46.9","ND","ND","ND","ND","4.47","ND","ND","ND","ND","ND","0"],
    [46036,"2015-08-06T23:00:00","40.1","ND","ND","ND","ND","2.91","ND","ND","ND","ND","ND","0"],
    [46037,"2015-08-07T00:00:00","42.5","ND","ND","ND","ND","4.10","ND","ND","ND","ND","ND","0"],
    [46038,"2015-08-07T01:00:00","36.8","ND","ND","ND","ND","3.28","ND","ND","ND","ND","ND","0"],
    [46039,"2015-08-07T02:00:00","38.6","ND","ND","ND","ND","3.48","ND","ND","ND","ND","ND","0"],
    [46040,"2015-08-07T03:00:00","42.1","ND","ND","ND","ND","3.42","ND","ND","ND","ND","ND","0"],
    [46041,"2015-08-07T04:00:00","46.7","ND","ND","ND","ND","3.29","ND","ND","ND","ND","ND","0"],
    [46042,"2015-08-07T05:00:00","49.9","ND","ND","ND","ND","3.48","ND","ND","ND","ND","ND","0"],
    [46043,"2015-08-07T06:00:00","46.6","ND","ND","ND","ND","2.70","ND","ND","ND","ND","ND","0"],
    [46044,"2015-08-07T07:00:00","47.4","ND","ND","ND","ND","3.67","ND","ND","ND","ND","ND","0"],
    [46045,"2015-08-07T08:00:00","70.2","ND","ND","ND","ND","3.21","ND","ND","ND","ND","ND","0"],
    [46046,"2015-08-07T09:00:00","89.4","ND","ND","ND","ND","4.25","ND","ND","ND","ND","ND","0"],
    [46047,"2015-08-07T10:00:00","90.1","ND","ND","ND","ND","3.53","ND","ND","ND","ND","ND","0"],
    [46048,"2015-08-07T11:00:00","75.5","ND","ND","ND","ND","3.71","ND","ND","ND","ND","ND","0"],
    [46049,"2015-08-07T12:00:00","48.4","ND","ND","ND","ND","2.98","ND","ND","ND","ND","ND","0"],
    [46050,"2015-08-07T13:00:00","39.6","ND","ND","ND","ND","3.67","ND","ND","ND","ND","ND","0"],
    [46051,"2015-08-07T14:00:00","40.7","ND","ND","ND","ND","2.73","ND","ND","ND","ND","ND","0"],
    [46052,"2015-08-07T15:00:00","35.1","ND","ND","ND","ND","2.41","ND","ND","ND","ND","ND","0"],
    [46053,"2015-08-07T16:00:00","24","ND","ND","ND","ND","1.87","ND","ND","ND","ND","ND","0"],
    [46054,"2015-08-07T17:00:00","24.2","ND","ND","ND","ND","2.62","ND","ND","ND","ND","ND","0"],
    [46055,"2015-08-07T18:00:00","13.7","ND","ND","ND","ND","3.12","ND","ND","ND","ND","ND","0"],
    [46056,"2015-08-07T19:00:00","20.5","ND","ND","ND","ND","2.66","ND","ND","ND","ND","ND","0"],
    [46057,"2015-08-07T20:00:00","29.2","ND","ND","ND","ND","2.45","ND","ND","ND","ND","ND","0"],
    [46058,"2015-08-07T21:00:00","22.7","ND","ND","ND","ND","2.75","ND","ND","ND","ND","ND","0"],
    [46059,"2015-08-07T22:00:00","23.8","ND","ND","ND","ND","3.44","ND","ND","ND","ND","ND","0"],
    [46060,"2015-08-07T23:00:00","19.5","ND","ND","ND","ND","3.21","ND","ND","ND","ND","ND","0"],
    [46061,"2015-08-08T00:00:00","27.2","ND","ND","ND","ND","2.56","ND","ND","ND","ND","ND","0"],
    [46062,"2015-08-08T01:00:00","38.5","ND","ND","ND","ND","3.68","ND","ND","ND","ND","ND","0"],
    [46063,"2015-08-08T02:00:00","36","ND","ND","ND","ND","3.00","ND","ND","ND","ND","ND","0"],
    [46064,"2015-08-08T03:00:00","45.2","ND","ND","ND","ND","3.83","ND","ND","ND","ND","ND","0"],
    [46065,"2015-08-08T04:00:00","51.6","ND","ND","ND","ND","2.96","ND","ND","ND","ND","ND","0"],
    [46066,"2015-08-08T05:00:00","57.8","ND","ND","ND","ND","4.00","ND","ND","ND","ND","ND","0"],
    [46067,"2015-08-08T06:00:00","69.5","ND","ND","ND","ND","2.31","ND","ND","ND","ND","ND","0"],
    [46068,"2015-08-08T07:00:00","82.2","ND","ND","ND","ND","4.99","ND","ND","ND","ND","ND","0"],
    [46069,"2015-08-08T08:00:00","81.3","ND","ND","ND","ND","3.18","ND","ND","ND","ND","ND","0"],
    [46070,"2015-08-08T09:00:00","80.7","ND","ND","ND","ND","3.62","ND","ND","ND","ND","ND","0"],
    [46071,"2015-08-08T10:00:00","70.5","ND","ND","ND","ND","3.05","ND","ND","ND","ND","ND","0"],
    [46072,"2015-08-08T11:00:00","50.5","ND","ND","ND","ND","3.48","ND","ND","ND","ND","ND","0"],
    [46073,"2015-08-08T12:00:00","49.1","ND","ND","ND","ND","3.09","ND","ND","ND","ND","ND","0"],
    [46074,"2015-08-08T13:00:00","57.7","ND","ND","ND","ND","3.51","ND","ND","ND","ND","ND","0"],
    [46075,"2015-08-08T14:00:00","56.5","ND","ND","ND","ND","1.44","ND","ND","ND","ND","ND","0"],
    [46076,"2015-08-08T15:00:00","45.4","ND","ND","ND","ND","2.40","ND","ND","ND","ND","ND","0"],
    [46077,"2015-08-08T16:00:00","24","ND","ND","ND","ND","1.85","ND","ND","ND","ND","ND","0"],
    [46078,"2015-08-08T17:00:00","10.9","ND","ND","ND","ND","1.71","ND","ND","ND","ND","ND","0"],
    [46079,"2015-08-08T18:00:00","12.2","ND","ND","ND","ND","2.36","ND","ND","ND","ND","ND","0"],
    [46080,"2015-08-08T19:00:00","16.1","ND","ND","ND","ND","2.45","ND","ND","ND","ND","ND","0"],
    [46081,"2015-08-08T20:00:00","19.5","ND","ND","ND","ND","3.18","ND","ND","ND","ND","ND","0"],
    [46082,"2015-08-08T21:00:00","25.7","ND","ND","ND","ND","1.87","ND","ND","ND","ND","ND","0"],
    [46083,"2015-08-08T22:00:00","23.4","ND","ND","ND","ND","3.39","ND","ND","ND","ND","ND","0"],
    [46084,"2015-08-08T23:00:00","22.5","ND","ND","ND","ND","3.28","ND","ND","ND","ND","ND","0"],
    [46085,"2015-08-09T00:00:00","26","ND","ND","ND","ND","3.72","ND","ND","ND","ND","ND","0"],
    [46086,"2015-08-09T01:00:00","21.9","ND","ND","ND","ND","1.42","ND","ND","ND","ND","ND","0"],
    [46087,"2015-08-09T02:00:00","32.8","ND","ND","ND","ND","3.72","ND","ND","ND","ND","ND","0"],
    [46088,"2015-08-09T03:00:00","36","ND","ND","ND","ND","2.96","ND","ND","ND","ND","ND","0"],
    [46089,"2015-08-09T04:00:00","37.7","ND","ND","ND","ND","2.66","ND","ND","ND","ND","ND","0"],
    [46090,"2015-08-09T05:00:00","33.7","ND","ND","ND","ND","2.41","ND","ND","ND","ND","ND","0"],
    [46091,"2015-08-09T06:00:00","38.9","ND","ND","ND","ND","3.26","ND","ND","ND","ND","ND","0"],
    [46092,"2015-08-09T07:00:00","35.8","ND","ND","ND","ND","4.61","ND","ND","ND","ND","ND","0"],
    [46093,"2015-08-09T08:00:00","37.6","ND","ND","ND","ND","4.80","ND","ND","ND","ND","ND","0"],
    [46094,"2015-08-09T09:00:00","39.8","ND","ND","ND","ND","2.72","ND","ND","ND","ND","ND","0"],
    [46095,"2015-08-09T10:00:00","41.9","ND","ND","ND","ND","2.79","ND","ND","ND","ND","ND","0"],
    [46096,"2015-08-09T11:00:00","48.5","ND","ND","ND","ND","3.33","ND","ND","ND","ND","ND","0"],
    [46097,"2015-08-09T12:00:00","46.5","ND","ND","ND","ND","2.40","ND","ND","ND","ND","ND","0"],
    [46098,"2015-08-09T13:00:00","35.9","ND","ND","ND","ND","1.66","ND","ND","ND","ND","ND","0"],
    [46099,"2015-08-09T14:00:00","32.6","ND","ND","ND","ND","1.95","ND","ND","ND","ND","ND","0"],
    [46100,"2015-08-09T15:00:00","33.2","ND","ND","ND","ND","3.22","ND","ND","ND","ND","ND","0"],
    [46101,"2015-08-09T16:00:00","26.1","ND","ND","ND","ND","2.52","ND","ND","ND","ND","ND","0"],
    [46102,"2015-08-09T17:00:00","19.4","ND","ND","ND","ND","1.92","ND","ND","ND","ND","ND","0"],
    [46103,"2015-08-09T18:00:00","13.2","ND","ND","ND","ND","2.36","ND","ND","ND","ND","ND","0"],
    [46104,"2015-08-09T19:00:00","16.1","ND","ND","ND","ND","2.82","ND","ND","ND","ND","ND","0"],
    [46105,"2015-08-09T20:00:00","14.5","ND","ND","ND","ND","2.45","ND","ND","ND","ND","ND","0"],
    [46106,"2015-08-09T21:00:00","16.2","ND","ND","ND","ND","2.50","ND","ND","ND","ND","ND","0"],
    [46107,"2015-08-09T22:00:00","24.3","ND","ND","ND","ND","4.84","ND","ND","ND","ND","ND","0"],
    [46108,"2015-08-09T23:00:00","31.9","ND","ND","ND","ND","4.63","ND","ND","ND","ND","ND","0"],
    [46109,"2015-08-10T00:00:00","29.9","ND","ND","ND","ND","4.24","ND","ND","ND","ND","ND","0"],
    [46110,"2015-08-10T01:00:00","22.3","ND","ND","ND","ND","3.08","ND","ND","ND","ND","ND","0"],
    [46111,"2015-08-10T02:00:00","16.5","ND","ND","ND","ND","2.63","ND","ND","ND","ND","ND","0"],
    [46112,"2015-08-10T03:00:00","18.8","ND","ND","ND","ND","2.34","ND","ND","ND","ND","ND","0"],
    [46113,"2015-08-10T04:00:00","16.1","ND","ND","ND","ND","3.40","ND","ND","ND","ND","ND","0"],
    [46114,"2015-08-10T05:00:00","29.5","ND","ND","ND","ND","3.74","ND","ND","ND","ND","ND","0"],
    [46115,"2015-08-10T06:00:00","33","ND","ND","ND","ND","3.26","ND","ND","ND","ND","ND","0"],
    [46116,"2015-08-10T07:00:00","47","ND","ND","ND","ND","2.91","ND","ND","ND","ND","ND","0"],
    [46117,"2015-08-10T08:00:00","67.8","ND","ND","ND","ND","6.22","ND","ND","ND","ND","ND","0"],
    [46118,"2015-08-10T09:00:00","65.4","ND","ND","ND","ND","3.05","ND","ND","ND","ND","ND","0"],
    [46119,"2015-08-10T10:00:00","37.5","ND","ND","ND","ND","2.58","ND","ND","ND","ND","ND","0"],
    [46120,"2015-08-10T11:00:00","37","ND","ND","ND","ND","3.32","ND","ND","ND","ND","ND","0"],
    [46121,"2015-08-10T12:00:00","27.7","ND","ND","ND","ND","3.88","ND","ND","ND","ND","ND","0"],
    [46122,"2015-08-10T13:00:00","34.3","ND","ND","ND","ND","2.20","ND","ND","ND","ND","ND","0"],
    [46123,"2015-08-10T14:00:00","40.2","ND","ND","ND","ND","4.68","ND","ND","ND","ND","ND","0"],
    [46124,"2015-08-10T15:00:00","29.6","ND","ND","ND","ND","2.73","ND","ND","ND","ND","ND","0"],
    [46125,"2015-08-10T16:00:00","36.6","ND","ND","ND","ND","3.55","ND","ND","ND","ND","ND","0"],
    [46126,"2015-08-10T17:00:00","39.5","ND","ND","ND","ND","2.96","ND","ND","ND","ND","ND","0"],
    [46127,"2015-08-10T18:00:00","25.2","ND","ND","ND","ND","2.13","ND","ND","ND","ND","ND","0"],
    [46128,"2015-08-10T19:00:00","23.7","ND","ND","ND","ND","2.15","ND","ND","ND","ND","ND","0"],
    [46129,"2015-08-10T20:00:00","21.1","ND","ND","ND","ND","2.83","ND","ND","ND","ND","ND","0"],
    [46130,"2015-08-10T21:00:00","29","ND","ND","ND","ND","3.55","ND","ND","ND","ND","ND","0"],
    [46131,"2015-08-10T22:00:00","41.7","ND","ND","ND","ND","2.96","ND","ND","ND","ND","ND","0"],
    [46132,"2015-08-10T23:00:00","36.2","ND","ND","ND","ND","4.24","ND","ND","ND","ND","ND","0"],
    [46133,"2015-08-11T00:00:00","38.8","ND","ND","ND","ND","3.61","ND","ND","ND","ND","ND","0"],
    [46134,"2015-08-11T01:00:00","41.1","ND","ND","ND","ND","3.65","ND","ND","ND","ND","ND","0"],
    [46135,"2015-08-11T02:00:00","36.7","ND","ND","ND","ND","3.05","ND","ND","ND","ND","ND","0"],
    [46136,"2015-08-11T03:00:00","37.5","ND","ND","ND","ND","3.02","ND","ND","ND","ND","ND","0"],
    [46137,"2015-08-11T04:00:00","34.5","ND","ND","ND","ND","3.08","ND","ND","ND","ND","ND","0"],
    [46138,"2015-08-11T05:00:00","36.5","ND","ND","ND","ND","2.55","ND","ND","ND","ND","ND","0"],
    [46139,"2015-08-11T06:00:00","43.3","ND","ND","ND","ND","3.94","ND","ND","ND","ND","ND","0"],
    [46140,"2015-08-11T07:00:00","47","ND","ND","ND","ND","2.43","ND","ND","ND","ND","ND","0"],
    [46141,"2015-08-11T08:00:00","62.1","ND","ND","ND","ND","2.44","ND","ND","ND","ND","ND","0"],
    [46142,"2015-08-11T09:00:00","67.7","ND","ND","ND","ND","3.82","ND","ND","ND","ND","ND","0"],
    [46143,"2015-08-11T10:00:00","65.1","ND","ND","ND","ND","4.22","ND","ND","ND","ND","ND","0"],
    [46144,"2015-08-11T11:00:00","53.2","ND","ND","ND","ND","4.28","ND","ND","ND","ND","ND","0"],
    [46145,"2015-08-11T12:00:00","43.5","ND","ND","ND","ND","3.90","ND","ND","ND","ND","ND","0"],
    [46146,"2015-08-11T13:00:00","45.8","ND","ND","ND","ND","4.25","ND","ND","ND","ND","ND","0"],
    [46147,"2015-08-11T14:00:00","46.5","ND","ND","ND","ND","3.11","ND","ND","ND","ND","ND","0"],
    [46148,"2015-08-11T15:00:00","42.9","ND","ND","ND","ND","2.50","ND","ND","ND","ND","ND","0"],
    [46149,"2015-08-11T16:00:00","39.4","ND","ND","ND","ND","2.65","ND","ND","ND","ND","ND","0"],
    [46150,"2015-08-11T17:00:00","27.4","ND","ND","ND","ND","1.76","ND","ND","ND","ND","ND","0"],
    [46151,"2015-08-11T18:00:00","22.6","ND","ND","ND","ND","1.97","ND","ND","ND","ND","ND","0"],
    [46152,"2015-08-11T19:00:00","20.1","ND","ND","ND","ND","3.00","ND","ND","ND","ND","ND","0"],
    [46153,"2015-08-11T20:00:00","31.7","ND","ND","ND","ND","2.48","ND","ND","ND","ND","ND","0"],
    [46154,"2015-08-11T21:00:00","41.7","ND","ND","ND","ND","2.58","ND","ND","ND","ND","ND","0"],
    [46155,"2015-08-11T22:00:00","38.3","ND","ND","ND","ND","2.76","ND","ND","ND","ND","ND","0"],
    [46156,"2015-08-11T23:00:00","37.9","ND","ND","ND","ND","2.69","ND","ND","ND","ND","ND","0"],
    [46157,"2015-08-12T00:00:00","33.4","ND","ND","ND","ND","5.03","ND","ND","ND","ND","ND","0"],
    [46158,"2015-08-12T01:00:00","35.4","ND","ND","ND","ND","4.07","ND","ND","ND","ND","ND","0"],
    [46159,"2015-08-12T02:00:00","33","ND","ND","ND","ND","4.89","ND","ND","ND","ND","ND","0"],
    [46160,"2015-08-12T03:00:00","30.8","ND","ND","ND","ND","3.48","ND","ND","ND","ND","ND","0"],
    [46161,"2015-08-12T04:00:00","36.5","ND","ND","ND","ND","3.22","ND","ND","ND","ND","ND","0"],
    [46162,"2015-08-12T05:00:00","40.4","ND","ND","ND","ND","2.52","ND","ND","ND","ND","ND","0"],
    [46163,"2015-08-12T06:00:00","38.4","ND","ND","ND","ND","3.86","ND","ND","ND","ND","ND","0"],
    [46164,"2015-08-12T07:00:00","69.1","ND","ND","ND","ND","3.26","ND","ND","ND","ND","ND","0"],
    [46165,"2015-08-12T08:00:00","91.2","ND","ND","ND","ND","2.58","ND","ND","ND","ND","ND","0"],
    [46166,"2015-08-12T09:00:00","79.3","ND","ND","ND","ND","3.11","ND","ND","ND","ND","ND","0"],
    [46167,"2015-08-12T10:00:00","54","ND","ND","ND","ND","3.92","ND","ND","ND","ND","ND","0"],
    [46168,"2015-08-12T11:00:00","51.9","ND","ND","ND","ND","4.15","ND","ND","ND","ND","ND","0"],
    [46169,"2015-08-12T12:00:00","50.7","ND","ND","ND","ND","3.16","ND","ND","ND","ND","ND","0"],
    [46170,"2015-08-12T13:00:00","47.3","ND","ND","ND","ND","2.26","ND","ND","ND","ND","ND","0"],
    [46171,"2015-08-12T14:00:00","54","ND","ND","ND","ND","5.10","ND","ND","ND","ND","ND","0"],
    [46172,"2015-08-12T15:00:00","33","ND","ND","ND","ND","3.26","ND","ND","ND","ND","ND","0"],
    [46173,"2015-08-12T16:00:00","36.3","ND","ND","ND","ND","3.28","ND","ND","ND","ND","ND","0"],
    [46174,"2015-08-12T17:00:00","72.5","ND","ND","ND","ND","2.08","ND","ND","ND","ND","ND","0"],
    [46175,"2015-08-12T18:00:00","41.2","ND","ND","ND","ND","1.31","ND","ND","ND","ND","ND","0"],
    [46176,"2015-08-12T19:00:00","22.2","ND","ND","ND","ND","1.90","ND","ND","ND","ND","ND","0"],
    [46177,"2015-08-12T20:00:00","22.8","ND","ND","ND","ND","1.67","ND","ND","ND","ND","ND","0"],
    [46178,"2015-08-12T21:00:00","31.8","ND","ND","ND","ND","2.27","ND","ND","ND","ND","ND","0"],
    [46179,"2015-08-12T22:00:00","39.3","ND","ND","ND","ND","3.16","ND","ND","ND","ND","ND","0"],
    [46180,"2015-08-12T23:00:00","39","ND","ND","ND","ND","3.86","ND","ND","ND","ND","ND","0"],
    [46181,"2015-08-13T00:00:00","7.1","ND","ND","ND","ND","3.36","ND","ND","ND","ND","ND","0"],
    [46182,"2015-08-13T01:00:00","16.2","ND","ND","ND","ND","3.62","ND","ND","ND","ND","ND","0"],
    [46183,"2015-08-13T02:00:00","27","ND","ND","ND","ND","3.21","ND","ND","ND","ND","ND","0"],
    [46184,"2015-08-13T03:00:00","30.1","ND","ND","ND","ND","3.09","ND","ND","ND","ND","ND","0"],
    [46185,"2015-08-13T04:00:00","46.3","ND","ND","ND","ND","3.79","ND","ND","ND","ND","ND","0"],
    [46186,"2015-08-13T05:00:00","53.6","ND","ND","ND","ND","3.19","ND","ND","ND","ND","ND","0"],
    [46187,"2015-08-13T06:00:00","54.5","ND","ND","ND","ND","3.00","ND","ND","ND","ND","ND","0"],
    [46188,"2015-08-13T07:00:00","64.7","ND","ND","ND","ND","3.76","ND","ND","ND","ND","ND","0"],
    [46189,"2015-08-13T08:00:00","77.1","ND","ND","ND","ND","3.86","ND","ND","ND","ND","ND","0"],
    [46190,"2015-08-13T09:00:00","88.3","ND","ND","ND","ND","4.40","ND","ND","ND","ND","ND","0"],
    [46191,"2015-08-13T10:00:00","98.9","ND","ND","ND","ND","4.20","ND","ND","ND","ND","ND","0"],
    [46192,"2015-08-13T11:00:00","75","ND","ND","ND","ND","5.31","ND","ND","ND","ND","ND","0"],
    [46193,"2015-08-13T12:00:00","62.6","ND","ND","ND","ND","4.56","ND","ND","ND","ND","ND","0"],
    [46194,"2015-08-13T13:00:00","42.4","ND","ND","ND","ND","3.32","ND","ND","ND","ND","ND","0"],
    [46195,"2015-08-13T14:00:00","36.1","ND","ND","ND","ND","3.01","ND","ND","ND","ND","ND","0"],
    [46196,"2015-08-13T15:00:00","31.9","ND","ND","ND","ND","3.18","ND","ND","ND","ND","ND","0"],
    [46197,"2015-08-13T16:00:00","26.5","ND","ND","ND","ND","2.33","ND","ND","ND","ND","ND","0"],
    [46198,"2015-08-13T17:00:00","20.7","ND","ND","ND","ND","2.82","ND","ND","ND","ND","ND","0"],
    [46199,"2015-08-13T18:00:00","18.3","ND","ND","ND","ND","1.94","ND","ND","ND","ND","ND","0"],
    [46200,"2015-08-13T19:00:00","19.3","ND","ND","ND","ND","1.64","ND","ND","ND","ND","ND","0"],
    [46201,"2015-08-13T20:00:00","15.8","ND","ND","ND","ND","3.42","ND","ND","ND","ND","ND","0"],
    [46202,"2015-08-13T21:00:00","26.2","ND","ND","ND","ND","3.07","ND","ND","ND","ND","ND","0"],
    [46203,"2015-08-13T22:00:00","47.3","ND","ND","ND","ND","4.14","ND","ND","ND","ND","ND","0"],
    [46204,"2015-08-13T23:00:00","45.1","ND","ND","ND","ND","3.89","ND","ND","ND","ND","ND","0"],
    [46205,"2015-08-14T00:00:00","28.9","ND","ND","ND","ND","3.22","ND","ND","ND","ND","ND","0"],
    [46206,"2015-08-14T01:00:00","32.5","ND","ND","ND","ND","2.72","ND","ND","ND","ND","ND","0"],
    [46207,"2015-08-14T02:00:00","34.7","ND","ND","ND","ND","3.05","ND","ND","ND","ND","ND","1.02"],
    [46208,"2015-08-14T03:00:00","38.7","ND","ND","ND","ND","2.77","ND","ND","ND","ND","ND","0.51"],
    [46209,"2015-08-14T04:00:00","40.2","ND","ND","ND","ND","3.14","ND","ND","ND","ND","ND","0"],
    [46210,"2015-08-14T05:00:00","39.4","ND","ND","ND","ND","2.24","ND","ND","ND","ND","ND","0"],
    [46211,"2015-08-14T06:00:00","41.9","ND","ND","ND","ND","3.69","ND","ND","ND","ND","ND","0.25"],
    [46212,"2015-08-14T07:00:00","45.8","ND","ND","ND","ND","2.48","ND","ND","ND","ND","ND","0"],
    [46213,"2015-08-14T08:00:00","51.3","ND","ND","ND","ND","3.40","ND","ND","ND","ND","ND","0"],
    [46214,"2015-08-14T09:00:00","55.5","ND","ND","ND","ND","3.00","ND","ND","ND","ND","ND","0"],
    [46215,"2015-08-14T10:00:00","59.2","ND","ND","ND","ND","1.85","ND","ND","ND","ND","ND","0"],
    [46216,"2015-08-14T11:00:00","44.2","ND","ND","ND","ND","2.17","ND","ND","ND","ND","ND","0"],
    [46217,"2015-08-14T12:00:00","41.1","ND","ND","ND","ND","3.33","ND","ND","ND","ND","ND","0"],
    [46218,"2015-08-14T13:00:00","37.6","ND","ND","ND","ND","3.39","ND","ND","ND","ND","ND","0"],
    [46219,"2015-08-14T14:00:00","44","ND","ND","ND","ND","2.50","ND","ND","ND","ND","ND","0"],
    [46220,"2015-08-14T15:00:00","37.2","ND","ND","ND","ND","1.97","ND","ND","ND","ND","ND","0"],
    [46221,"2015-08-14T16:00:00","24","ND","ND","ND","ND","4.36","ND","ND","ND","ND","ND","0"],
    [46222,"2015-08-14T17:00:00","17.9","ND","ND","ND","ND","3.43","ND","ND","ND","ND","ND","0"],
    [46223,"2015-08-14T18:00:00","14.7","ND","ND","ND","ND","2.10","ND","ND","ND","ND","ND","0"],
    [46224,"2015-08-14T19:00:00","11.8","ND","ND","ND","ND","2.40","ND","ND","ND","ND","ND","0"],
    [46225,"2015-08-14T20:00:00","13.2","ND","ND","ND","ND","1.59","ND","ND","ND","ND","ND","0"],
    [46226,"2015-08-14T21:00:00","31.5","ND","ND","ND","ND","2.16","ND","ND","ND","ND","ND","0"],
    [46227,"2015-08-14T22:00:00","31.4","ND","ND","ND","ND","3.01","ND","ND","ND","ND","ND","0"],
    [46228,"2015-08-14T23:00:00","23.4","ND","ND","ND","ND","3.36","ND","ND","ND","ND","ND","0"],
    [46229,"2015-08-15T00:00:00","26.5","ND","ND","ND","ND","3.08","ND","ND","ND","ND","ND","0"],
    [46230,"2015-08-15T01:00:00","18","ND","ND","ND","ND","2.61","ND","ND","ND","ND","ND","0"],
    [46231,"2015-08-15T02:00:00","22.4","ND","ND","ND","ND","2.98","ND","ND","ND","ND","ND","0"],
    [46232,"2015-08-15T03:00:00","23.9","ND","ND","ND","ND","3.57","ND","ND","ND","ND","ND","0"],
    [46233,"2015-08-15T04:00:00","30.9","ND","ND","ND","ND","2.84","ND","ND","ND","ND","ND","0"],
    [46234,"2015-08-15T05:00:00","30.7","ND","ND","ND","ND","2.12","ND","ND","ND","ND","ND","0"],
    [46235,"2015-08-15T06:00:00","34.7","ND","ND","ND","ND","3.54","ND","ND","ND","ND","ND","0.76"],
    [46236,"2015-08-15T07:00:00","42","ND","ND","ND","ND","4.00","ND","ND","ND","ND","ND","0"],
    [46237,"2015-08-15T08:00:00","51.6","ND","ND","ND","ND","4.32","ND","ND","ND","ND","ND","0"],
    [46238,"2015-08-15T09:00:00","61","ND","ND","ND","ND","3.16","ND","ND","ND","ND","ND","0"],
    [46239,"2015-08-15T10:00:00","53.9","ND","ND","ND","ND","5.13","ND","ND","ND","ND","ND","0"],
    [46240,"2015-08-15T11:00:00","42.8","ND","ND","ND","ND","2.54","ND","ND","ND","ND","ND","0"],
    [46241,"2015-08-15T12:00:00","34.8","ND","ND","ND","ND","2.58","ND","ND","ND","ND","ND","0"],
    [46242,"2015-08-15T13:00:00","31.6","ND","ND","ND","ND","2.90","ND","ND","ND","ND","ND","0"],
    [46243,"2015-08-15T14:00:00","38.5","ND","ND","ND","ND","2.19","ND","ND","ND","ND","ND","0"],
    [46244,"2015-08-15T15:00:00","37.7","ND","ND","ND","ND","1.63","ND","ND","ND","ND","ND","0"],
    [46245,"2015-08-15T16:00:00","23.1","ND","ND","ND","ND","2.16","ND","ND","ND","ND","ND","0"],
    [46246,"2015-08-15T17:00:00","24.1","ND","ND","ND","ND","2.98","ND","ND","ND","ND","ND","0"],
    [46247,"2015-08-15T18:00:00","17.8","ND","ND","ND","ND","2.16","ND","ND","ND","ND","ND","0"],
    [46248,"2015-08-15T19:00:00","22.4","ND","ND","ND","ND","1.69","ND","ND","ND","ND","ND","0"],
    [46249,"2015-08-15T20:00:00","23.2","ND","ND","ND","ND","2.01","ND","ND","ND","ND","ND","0"],
    [46250,"2015-08-15T21:00:00","31.3","ND","ND","ND","ND","2.02","ND","ND","ND","ND","ND","0"],
    [46251,"2015-08-15T22:00:00","33.3","ND","ND","ND","ND","3.97","ND","ND","ND","ND","ND","0"],
    [46252,"2015-08-15T23:00:00","31.6","ND","ND","ND","ND","3.35","ND","ND","ND","ND","ND","0"],
    [46253,"2015-08-16T00:00:00","31.1","ND","ND","ND","ND","3.07","ND","ND","ND","ND","ND","0"],
    [46254,"2015-08-16T01:00:00","31.3","ND","ND","ND","ND","3.60","ND","ND","ND","ND","ND","0"],
    [46255,"2015-08-16T02:00:00","29","ND","ND","ND","ND","2.82","ND","ND","ND","ND","ND","0"],
    [46256,"2015-08-16T03:00:00","29.6","ND","ND","ND","ND","2.75","ND","ND","ND","ND","ND","0"],
    [46257,"2015-08-16T04:00:00","30.3","ND","ND","ND","ND","2.62","ND","ND","ND","ND","ND","0"],
    [46258,"2015-08-16T05:00:00","32.2","ND","ND","ND","ND","1.58","ND","ND","ND","ND","ND","0"],
    [46259,"2015-08-16T06:00:00","42.6","ND","ND","ND","ND","2.75","ND","ND","ND","ND","ND","0"],
    [46260,"2015-08-16T07:00:00","51.4","ND","ND","ND","ND","1.63","ND","ND","ND","ND","ND","0"],
    [46261,"2015-08-16T08:00:00","45.2","ND","ND","ND","ND","3.86","ND","ND","ND","ND","ND","0"],
    [46262,"2015-08-16T09:00:00","53.6","ND","ND","ND","ND","3.15","ND","ND","ND","ND","ND","0"],
    [46263,"2015-08-16T10:00:00","40.4","ND","ND","ND","ND","2.86","ND","ND","ND","ND","ND","0"],
    [46264,"2015-08-16T11:00:00","35.6","ND","ND","ND","ND","3.23","ND","ND","ND","ND","ND","0"],
    [46265,"2015-08-16T12:00:00","26.9","ND","ND","ND","ND","3.48","ND","ND","ND","ND","ND","0"],
    [46266,"2015-08-16T13:00:00","23.9","ND","ND","ND","ND","2.76","ND","ND","ND","ND","ND","0"],
    [46267,"2015-08-16T14:00:00","25.5","ND","ND","ND","ND","2.51","ND","ND","ND","ND","ND","0"],
    [46268,"2015-08-16T15:00:00","26.4","ND","ND","ND","ND","2.50","ND","ND","ND","ND","ND","0"],
    [46269,"2015-08-16T16:00:00","26.7","ND","ND","ND","ND","2.45","ND","ND","ND","ND","ND","0"],
    [46270,"2015-08-16T17:00:00","25.6","ND","ND","ND","ND","2.69","ND","ND","ND","ND","ND","0"],
    [46271,"2015-08-16T18:00:00","25.3","ND","ND","ND","ND","1.67","ND","ND","ND","ND","ND","0"],
    [46272,"2015-08-16T19:00:00","24","ND","ND","ND","ND","1.76","ND","ND","ND","ND","ND","0"],
    [46273,"2015-08-16T20:00:00","21.8","ND","ND","ND","ND","3.53","ND","ND","ND","ND","ND","0"],
    [46274,"2015-08-16T21:00:00","20.2","ND","ND","ND","ND","1.94","ND","ND","ND","ND","ND","0"],
    [46275,"2015-08-16T22:00:00","20.3","ND","ND","ND","ND","3.01","ND","ND","ND","ND","ND","0"],
    [46276,"2015-08-16T23:00:00","21.9","ND","ND","ND","ND","2.12","ND","ND","ND","ND","ND","0"],
    [46277,"2015-08-17T00:00:00","20.5","ND","ND","ND","ND","2.27","ND","ND","ND","ND","ND","0"],
    [46278,"2015-08-17T01:00:00","18","ND","ND","ND","ND","2.61","ND","ND","ND","ND","ND","0"],
    [46279,"2015-08-17T02:00:00","24.9","ND","ND","ND","ND","1.76","ND","ND","ND","ND","ND","0"],
    [46280,"2015-08-17T03:00:00","31.8","ND","ND","ND","ND","4.01","ND","ND","ND","ND","ND","0"],
    [46281,"2015-08-17T04:00:00","28.1","ND","ND","ND","ND","2.08","ND","ND","ND","ND","ND","0"],
    [46282,"2015-08-17T05:00:00","29.5","ND","ND","ND","ND","3.44","ND","ND","ND","ND","ND","0"],
    [46283,"2015-08-17T06:00:00","42.8","ND","ND","ND","ND","2.27","ND","ND","ND","ND","ND","0"],
    [46284,"2015-08-17T07:00:00","41.7","ND","ND","ND","ND","3.43","ND","ND","ND","ND","ND","0"],
    [46285,"2015-08-17T08:00:00","34.7","ND","ND","ND","ND","2.10","ND","ND","ND","ND","ND","0"],
    [46286,"2015-08-17T09:00:00","40.5","ND","ND","ND","ND","4.42","ND","ND","ND","ND","ND","0"],
    [46287,"2015-08-17T10:00:00","38.5","ND","ND","ND","ND","3.14","ND","ND","ND","ND","ND","0"],
    [46288,"2015-08-17T11:00:00","23.7","ND","ND","ND","ND","2.37","ND","ND","ND","ND","ND","0"],
    [46289,"2015-08-17T12:00:00","8.2","ND","ND","ND","ND","3.12","ND","ND","ND","ND","ND","0"],
    [46290,"2015-08-17T13:00:00","22.5","ND","ND","ND","ND","2.70","ND","ND","ND","ND","ND","0"],
    [46291,"2015-08-17T14:00:00","20.8","ND","ND","ND","ND","2.04","ND","ND","ND","ND","ND","0"],
    [46292,"2015-08-17T15:00:00","14","ND","ND","ND","ND","1.90","ND","ND","ND","ND","ND","0"],
    [46293,"2015-08-17T16:00:00","9.6","ND","ND","ND","ND","3.14","ND","ND","ND","ND","ND","0"],
    [46294,"2015-08-17T17:00:00","17.5","ND","ND","ND","ND","2.33","ND","ND","ND","ND","ND","0"],
    [46295,"2015-08-17T18:00:00","20.4","ND","ND","ND","ND","1.95","ND","ND","ND","ND","ND","0"],
    [46296,"2015-08-17T19:00:00","18.6","ND","ND","ND","ND","1.87","ND","ND","ND","ND","ND","0"],
    [46297,"2015-08-17T20:00:00","23.5","ND","ND","ND","ND","1.78","ND","ND","ND","ND","ND","0"],
    [46298,"2015-08-17T21:00:00","22.6","ND","ND","ND","ND","2.98","ND","ND","ND","ND","ND","0"],
    [46299,"2015-08-17T22:00:00","25","ND","ND","ND","ND","1.83","ND","ND","ND","ND","ND","0"],
    [46300,"2015-08-17T23:00:00","18.6","ND","ND","ND","ND","2.68","ND","ND","ND","ND","ND","0.51"],
    [46301,"2015-08-18T00:00:00","17.8","ND","ND","ND","ND","3.30","ND","ND","ND","ND","ND","0"],
    [46302,"2015-08-18T01:00:00","14.4","ND","ND","ND","ND","2.52","ND","ND","ND","ND","ND","0"],
    [46303,"2015-08-18T02:00:00","13","ND","ND","ND","ND","1.66","ND","ND","ND","ND","ND","0"],
    [46304,"2015-08-18T03:00:00","15.9","ND","ND","ND","ND","3.02","ND","ND","ND","ND","ND","0"],
    [46305,"2015-08-18T04:00:00","18","ND","ND","ND","ND","5.06","ND","ND","ND","ND","ND","0"],
    [46306,"2015-08-18T05:00:00","31.6","ND","ND","ND","ND","2.69","ND","ND","ND","ND","ND","0"],
    [46307,"2015-08-18T06:00:00","37.8","ND","ND","ND","ND","2.66","ND","ND","ND","ND","ND","0"],
    [46308,"2015-08-18T07:00:00","44.2","ND","ND","ND","ND","2.96","ND","ND","ND","ND","ND","0"],
    [46309,"2015-08-18T08:00:00","67.3","ND","ND","ND","ND","2.50","ND","ND","ND","ND","ND","0"],
    [46310,"2015-08-18T09:00:00","103.3","ND","ND","ND","ND","4.75","ND","ND","ND","ND","ND","0"],
    [46311,"2015-08-18T10:00:00","74.5","ND","ND","ND","ND","3.69","ND","ND","ND","ND","ND","0"],
    [46312,"2015-08-18T11:00:00","48.1","ND","ND","ND","ND","3.33","ND","ND","ND","ND","ND","0"],
    [46313,"2015-08-18T12:00:00","38.7","ND","ND","ND","ND","3.09","ND","ND","ND","ND","ND","0"],
    [46314,"2015-08-18T13:00:00","42.9","ND","ND","ND","ND","2.79","ND","ND","ND","ND","ND","0"],
    [46315,"2015-08-18T14:00:00","37.2","ND","ND","ND","ND","3.12","ND","ND","ND","ND","ND","0"],
    [46316,"2015-08-18T15:00:00","40.8","ND","ND","ND","ND","3.94","ND","ND","ND","ND","ND","0"],
    [46317,"2015-08-18T16:00:00","35.7","ND","ND","ND","ND","2.06","ND","ND","ND","ND","ND","0"],
    [46318,"2015-08-18T17:00:00","25.7","ND","ND","ND","ND","3.04","ND","ND","ND","ND","ND","0"],
    [46319,"2015-08-18T18:00:00","22.9","ND","ND","ND","ND","2.19","ND","ND","ND","ND","ND","0"],
    [46320,"2015-08-18T19:00:00","26.4","ND","ND","ND","ND","2.66","ND","ND","ND","ND","ND","0"],
    [46321,"2015-08-18T20:00:00","38.8","ND","ND","ND","ND","2.27","ND","ND","ND","ND","ND","0"],
    [46322,"2015-08-18T21:00:00","43.5","ND","ND","ND","ND","3.02","ND","ND","ND","ND","ND","0"],
    [46323,"2015-08-18T22:00:00","52.6","ND","ND","ND","ND","3.62","ND","ND","ND","ND","ND","0"],
    [46324,"2015-08-18T23:00:00","57.5","ND","ND","ND","ND","7.07","ND","ND","ND","ND","ND","0"],
    [46325,"2015-08-19T00:00:00","49.1","ND","ND","ND","ND","2.98","ND","ND","ND","ND","ND","0"],
    [46326,"2015-08-19T01:00:00","59","ND","ND","ND","ND","1.34","ND","ND","ND","ND","ND","0"],
    [46327,"2015-08-19T02:00:00","57","ND","ND","ND","ND","3.48","ND","ND","ND","ND","ND","0"],
    [46328,"2015-08-19T03:00:00","51.1","ND","ND","ND","ND","5.70","ND","ND","ND","ND","ND","0"],
    [46329,"2015-08-19T04:00:00","62.8","ND","ND","ND","ND","4.46","ND","ND","ND","ND","ND","0"],
    [46330,"2015-08-19T05:00:00","54.1","ND","ND","ND","ND","2.45","ND","ND","ND","ND","ND","0"],
    [46331,"2015-08-19T06:00:00","44.2","ND","ND","ND","ND","2.15","ND","ND","ND","ND","ND","0"],
    [46332,"2015-08-19T07:00:00","46.1","ND","ND","ND","ND","1.85","ND","ND","ND","ND","ND","0"],
    [46333,"2015-08-19T08:00:00","62.4","ND","ND","ND","ND","3.62","ND","ND","ND","ND","ND","0"],
    [46334,"2015-08-19T09:00:00","113.3","ND","ND","ND","ND","4.31","ND","ND","ND","ND","ND","0"],
    [46335,"2015-08-19T10:00:00","70.1","ND","ND","ND","ND","2.15","ND","ND","ND","ND","ND","0"],
    [46336,"2015-08-19T11:00:00","51","ND","ND","ND","ND","3.50","ND","ND","ND","ND","ND","0"],
    [46337,"2015-08-19T12:00:00","38","ND","ND","ND","ND","3.97","ND","ND","ND","ND","ND","0"],
    [46338,"2015-08-19T13:00:00","34","ND","ND","ND","ND","3.58","ND","ND","ND","ND","ND","0"],
    [46339,"2015-08-19T14:00:00","28.6","ND","ND","ND","ND","3.11","ND","ND","ND","ND","ND","0"],
    [46340,"2015-08-19T15:00:00","21","ND","ND","ND","ND","1.55","ND","ND","ND","ND","ND","0"],
    [46341,"2015-08-19T16:00:00","24","ND","ND","ND","ND","2.05","ND","ND","ND","ND","ND","0"],
    [46342,"2015-08-19T17:00:00","23.4","ND","ND","ND","ND","3.88","ND","ND","ND","ND","ND","0"],
    [46343,"2015-08-19T18:00:00","32.5","ND","ND","ND","ND","2.72","ND","ND","ND","ND","ND","0"],
    [46344,"2015-08-19T19:00:00","42.9","ND","ND","ND","ND","2.89","ND","ND","ND","ND","ND","0"],
    [46345,"2015-08-19T20:00:00","41.5","ND","ND","ND","ND","2.98","ND","ND","ND","ND","ND","0"],
    [46346,"2015-08-19T21:00:00","47.6","ND","ND","ND","ND","1.74","ND","ND","ND","ND","ND","0"],
    [46347,"2015-08-19T22:00:00","45.9","ND","ND","ND","ND","2.34","ND","ND","ND","ND","ND","0"],
    [46348,"2015-08-19T23:00:00","40.3","ND","ND","ND","ND","2.16","ND","ND","ND","ND","ND","0"],
    [46349,"2015-08-20T00:00:00","25.8","ND","ND","ND","ND","3.40","ND","ND","ND","ND","ND","0"],
    [46350,"2015-08-20T01:00:00","29","ND","ND","ND","ND","2.63","ND","ND","ND","ND","ND","0"],
    [46351,"2015-08-20T02:00:00","34","ND","ND","ND","ND","2.94","ND","ND","ND","ND","ND","0"],
    [46352,"2015-08-20T03:00:00","33.4","ND","ND","ND","ND","3.42","ND","ND","ND","ND","ND","0"],
    [46353,"2015-08-20T04:00:00","42.9","ND","ND","ND","ND","2.23","ND","ND","ND","ND","ND","0"],
    [46354,"2015-08-20T05:00:00","53.3","ND","ND","ND","ND","5.45","ND","ND","ND","ND","ND","0"],
    [46355,"2015-08-20T06:00:00","73","ND","ND","ND","ND","4.06","ND","ND","ND","ND","ND","0"],
    [46356,"2015-08-20T07:00:00","72","ND","ND","ND","ND","4.18","ND","ND","ND","ND","ND","0"],
    [46357,"2015-08-20T08:00:00","59.6","ND","ND","ND","ND","3.07","ND","ND","ND","ND","ND","0"],
    [46358,"2015-08-20T09:00:00","63.5","ND","ND","ND","ND","3.57","ND","ND","ND","ND","ND","0"],
    [46359,"2015-08-20T10:00:00","81.3","ND","ND","ND","ND","3.30","ND","ND","ND","ND","ND","0"],
    [46360,"2015-08-20T11:00:00","61.6","ND","ND","ND","ND","3.26","ND","ND","ND","ND","ND","0"],
    [46361,"2015-08-20T12:00:00","48","ND","ND","ND","ND","2.26","ND","ND","ND","ND","ND","0"],
    [46362,"2015-08-20T13:00:00","46.7","ND","ND","ND","ND","2.56","ND","ND","ND","ND","ND","0"],
    [46363,"2015-08-20T14:00:00","31.2","ND","ND","ND","ND","1.76","ND","ND","ND","ND","ND","0"],
    [46364,"2015-08-20T15:00:00","42.6","ND","ND","ND","ND","1.84","ND","ND","ND","ND","ND","0"],
    [46365,"2015-08-20T16:00:00","35.3","ND","ND","ND","ND","2.29","ND","ND","ND","ND","ND","0"],
    [46366,"2015-08-20T17:00:00","29.2","ND","ND","ND","ND","1.88","ND","ND","ND","ND","ND","0"],
    [46367,"2015-08-20T18:00:00","28.2","ND","ND","ND","ND","1.41","ND","ND","ND","ND","ND","0"],
    [46368,"2015-08-20T19:00:00","34.8","ND","ND","ND","ND","3.22","ND","ND","ND","ND","ND","0"],
    [46369,"2015-08-20T20:00:00","32.4","ND","ND","ND","ND","1.44","ND","ND","ND","ND","ND","0"],
    [46370,"2015-08-20T21:00:00","27.1","ND","ND","ND","ND","2.82","ND","ND","ND","ND","ND","0"],
    [46371,"2015-08-20T22:00:00","27.8","ND","ND","ND","ND","1.67","ND","ND","ND","ND","ND","0"],
    [46372,"2015-08-20T23:00:00","33.3","ND","ND","ND","ND","3.81","ND","ND","ND","ND","ND","0"],
    [46373,"2015-08-21T00:00:00","66.9","ND","ND","ND","ND","4.71","ND","ND","ND","ND","ND","0"],
    [46374,"2015-08-21T01:00:00","56.3","ND","ND","ND","ND","4.38","ND","ND","ND","ND","ND","0"],
    [46375,"2015-08-21T02:00:00","24.8","ND","ND","ND","ND","4.84","ND","ND","ND","ND","ND","0"],
    [46376,"2015-08-21T03:00:00","35.1","ND","ND","ND","ND","3.57","ND","ND","ND","ND","ND","0"],
    [46377,"2015-08-21T04:00:00","61","ND","ND","ND","ND","3.82","ND","ND","ND","ND","ND","0"],
    [46378,"2015-08-21T05:00:00","76.5","ND","ND","ND","ND","3.83","ND","ND","ND","ND","ND","0"],
    [46379,"2015-08-21T06:00:00","53.4","ND","ND","ND","ND","2.27","ND","ND","ND","ND","ND","0"],
    [46380,"2015-08-21T07:00:00","64.8","ND","ND","ND","ND","3.76","ND","ND","ND","ND","ND","0"],
    [46381,"2015-08-21T08:00:00","84","ND","ND","ND","ND","3.28","ND","ND","ND","ND","ND","0"],
    [46382,"2015-08-21T09:00:00","89.1","ND","ND","ND","ND","4.71","ND","ND","ND","ND","ND","0"],
    [46383,"2015-08-21T10:00:00","69.1","ND","ND","ND","ND","5.12","ND","ND","ND","ND","ND","0"],
    [46384,"2015-08-21T11:00:00","40.8","ND","ND","ND","ND","3.28","ND","ND","ND","ND","ND","0"],
    [46385,"2015-08-21T12:00:00","31.7","ND","ND","ND","ND","3.53","ND","ND","ND","ND","ND","0"],
    [46386,"2015-08-21T13:00:00","40.1","ND","ND","ND","ND","3.01","ND","ND","ND","ND","ND","0"],
    [46387,"2015-08-21T14:00:00","43.9","ND","ND","ND","ND","3.18","ND","ND","ND","ND","ND","0"],
    [46388,"2015-08-21T15:00:00","36.8","ND","ND","ND","ND","2.19","ND","ND","ND","ND","ND","0"],
    [46389,"2015-08-21T16:00:00","28.3","ND","ND","ND","ND","2.84","ND","ND","ND","ND","ND","0"],
    [46390,"2015-08-21T17:00:00","44.8","ND","ND","ND","ND","1.70","ND","ND","ND","ND","ND","0"],
    [46391,"2015-08-21T18:00:00","35.7","ND","ND","ND","ND","3.15","ND","ND","ND","ND","ND","0"],
    [46392,"2015-08-21T19:00:00","38.3","ND","ND","ND","ND","4.49","ND","ND","ND","ND","ND","0"],
    [46393,"2015-08-21T20:00:00","55.5","ND","ND","ND","ND","2.83","ND","ND","ND","ND","ND","0"],
    [46394,"2015-08-21T21:00:00","58.1","ND","ND","ND","ND","2.51","ND","ND","ND","ND","ND","0"],
    [46395,"2015-08-21T22:00:00","54","ND","ND","ND","ND","2.96","ND","ND","ND","ND","ND","0"],
    [46396,"2015-08-21T23:00:00","46.8","ND","ND","ND","ND","3.09","ND","ND","ND","ND","ND","0"],
    [46397,"2015-08-22T00:00:00","49.8","ND","ND","ND","ND","2.69","ND","ND","ND","ND","ND","0"],
    [46398,"2015-08-22T01:00:00","44.6","ND","ND","ND","ND","3.14","ND","ND","ND","ND","ND","0"],
    [46399,"2015-08-22T02:00:00","40.9","ND","ND","ND","ND","3.12","ND","ND","ND","ND","ND","0"],
    [46400,"2015-08-22T03:00:00","32.3","ND","ND","ND","ND","3.15","ND","ND","ND","ND","ND","0"],
    [46401,"2015-08-22T04:00:00","26.5","ND","ND","ND","ND","3.00","ND","ND","ND","ND","ND","0"],
    [46402,"2015-08-22T05:00:00","45.3","ND","ND","ND","ND","3.07","ND","ND","ND","ND","ND","0"],
    [46403,"2015-08-22T06:00:00","55.6","ND","ND","ND","ND","2.96","ND","ND","ND","ND","ND","0"],
    [46404,"2015-08-22T07:00:00","72.6","ND","ND","ND","ND","4.38","ND","ND","ND","ND","ND","0"],
    [46405,"2015-08-22T08:00:00","85.6","ND","ND","ND","ND","4.78","ND","ND","ND","ND","ND","0"],
    [46406,"2015-08-22T09:00:00","93","ND","ND","ND","ND","5.16","ND","ND","ND","ND","ND","0"],
    [46407,"2015-08-22T10:00:00","65.7","ND","ND","ND","ND","5.38","ND","ND","ND","ND","ND","0"],
    [46408,"2015-08-22T11:00:00","65.4","ND","ND","ND","ND","3.46","ND","ND","ND","ND","ND","0"],
    [46409,"2015-08-22T12:00:00","60.5","ND","ND","ND","ND","3.08","ND","ND","ND","ND","ND","0"],
    [46410,"2015-08-22T13:00:00","58.5","ND","ND","ND","ND","4.56","ND","ND","ND","ND","ND","0"],
    [46411,"2015-08-22T14:00:00","49.1","ND","ND","ND","ND","2.58","ND","ND","ND","ND","ND","0"],
    [46412,"2015-08-22T15:00:00","45.8","ND","ND","ND","ND","2.79","ND","ND","ND","ND","ND","0"],
    [46413,"2015-08-22T16:00:00","48","ND","ND","ND","ND","3.92","ND","ND","ND","ND","ND","0"],
    [46414,"2015-08-22T17:00:00","41.7","ND","ND","ND","ND","2.51","ND","ND","ND","ND","ND","0"],
    [46415,"2015-08-22T18:00:00","35.7","ND","ND","ND","ND","2.98","ND","ND","ND","ND","ND","0"],
    [46416,"2015-08-22T19:00:00","39.2","ND","ND","ND","ND","3.35","ND","ND","ND","ND","ND","0"],
    [46417,"2015-08-22T20:00:00","26.7","ND","ND","ND","ND","2.15","ND","ND","ND","ND","ND","0"],
    [46418,"2015-08-22T21:00:00","35.7","ND","ND","ND","ND","2.68","ND","ND","ND","ND","ND","0"],
    [46419,"2015-08-22T22:00:00","38.5","ND","ND","ND","ND","3.92","ND","ND","ND","ND","ND","0"],
    [46420,"2015-08-22T23:00:00","38.1","ND","ND","ND","ND","4.01","ND","ND","ND","ND","ND","0"],
    [46421,"2015-08-23T00:00:00","71","ND","ND","ND","ND","5.10","ND","ND","ND","ND","ND","0"],
    [46422,"2015-08-23T01:00:00","53.8","ND","ND","ND","ND","5.27","ND","ND","ND","ND","ND","0"],
    [46423,"2015-08-23T02:00:00","50.1","ND","ND","ND","ND","3.48","ND","ND","ND","ND","ND","0"],
    [46424,"2015-08-23T03:00:00","48.3","ND","ND","ND","ND","3.50","ND","ND","ND","ND","ND","0"],
    [46425,"2015-08-23T04:00:00","47.7","ND","ND","ND","ND","2.73","ND","ND","ND","ND","ND","0"],
    [46426,"2015-08-23T05:00:00","45.5","ND","ND","ND","ND","2.61","ND","ND","ND","ND","ND","0"],
    [46427,"2015-08-23T06:00:00","49.1","ND","ND","ND","ND","3.55","ND","ND","ND","ND","ND","0"],
    [46428,"2015-08-23T07:00:00","57.8","ND","ND","ND","ND","4.01","ND","ND","ND","ND","ND","0"],
    [46429,"2015-08-23T08:00:00","62.8","ND","ND","ND","ND","3.14","ND","ND","ND","ND","ND","0"],
    [46430,"2015-08-23T09:00:00","56.2","ND","ND","ND","ND","3.46","ND","ND","ND","ND","ND","0"],
    [46431,"2015-08-23T10:00:00","60.8","ND","ND","ND","ND","2.50","ND","ND","ND","ND","ND","0"],
    [46432,"2015-08-23T11:00:00","41.2","ND","ND","ND","ND","1.77","ND","ND","ND","ND","ND","0"],
    [46433,"2015-08-23T12:00:00","47.9","ND","ND","ND","ND","2.16","ND","ND","ND","ND","ND","0"],
    [46434,"2015-08-23T13:00:00","49.2","ND","ND","ND","ND","3.83","ND","ND","ND","ND","ND","0"],
    [46435,"2015-08-23T14:00:00","41.5","ND","ND","ND","ND","2.56","ND","ND","ND","ND","ND","0"],
    [46436,"2015-08-23T15:00:00","29.7","ND","ND","ND","ND","3.67","ND","ND","ND","ND","ND","0"],
    [46437,"2015-08-23T16:00:00","23.5","ND","ND","ND","ND","2.59","ND","ND","ND","ND","ND","0"],
    [46438,"2015-08-23T17:00:00","20.2","ND","ND","ND","ND","1.27","ND","ND","ND","ND","ND","0"],
    [46439,"2015-08-23T18:00:00","24.8","ND","ND","ND","ND","3.21","ND","ND","ND","ND","ND","0"],
    [46440,"2015-08-23T19:00:00","20.9","ND","ND","ND","ND","1.56","ND","ND","ND","ND","ND","0"],
    [46441,"2015-08-23T20:00:00","21.7","ND","ND","ND","ND","1.67","ND","ND","ND","ND","ND","0"],
    [46442,"2015-08-23T21:00:00","19","ND","ND","ND","ND","2.19","ND","ND","ND","ND","ND","0"],
    [46443,"2015-08-23T22:00:00","17.4","ND","ND","ND","ND","3.48","ND","ND","ND","ND","ND","0"],
    [46444,"2015-08-23T23:00:00","23.6","ND","ND","ND","ND","4.61","ND","ND","ND","ND","ND","0"],
    [46445,"2015-08-24T00:00:00","26","ND","ND","ND","ND","1.88","ND","ND","ND","ND","ND","0"],
    [46446,"2015-08-24T01:00:00","36.9","ND","ND","ND","ND","4.24","ND","ND","ND","ND","ND","0"],
    [46447,"2015-08-24T02:00:00","30.9","ND","ND","ND","ND","3.28","ND","ND","ND","ND","ND","0"],
    [46448,"2015-08-24T03:00:00","35","ND","ND","ND","ND","1.85","ND","ND","ND","ND","ND","0"],
    [46449,"2015-08-24T04:00:00","29.4","ND","ND","ND","ND","2.06","ND","ND","ND","ND","ND","0"],
    [46450,"2015-08-24T05:00:00","26.9","ND","ND","ND","ND","3.04","ND","ND","ND","ND","ND","0"],
    [46451,"2015-08-24T06:00:00","33.1","ND","ND","ND","ND","2.63","ND","ND","ND","ND","ND","0"],
    [46452,"2015-08-24T07:00:00","47.4","ND","ND","ND","ND","2.87","ND","ND","ND","ND","ND","0"],
    [46453,"2015-08-24T08:00:00","58.2","ND","ND","ND","ND","2.56","ND","ND","ND","ND","ND","0"],
    [46454,"2015-08-24T09:00:00","56.3","ND","ND","ND","ND","3.42","ND","ND","ND","ND","ND","0"],
    [46455,"2015-08-24T10:00:00","47.4","ND","ND","ND","ND","2.76","ND","ND","ND","ND","ND","0"],
    [46456,"2015-08-24T11:00:00","38.1","ND","ND","ND","ND","1.35","ND","ND","ND","ND","ND","0"],
    [46457,"2015-08-24T12:00:00","38.2","ND","ND","ND","ND","3.54","ND","ND","ND","ND","ND","0"],
    [46458,"2015-08-24T13:00:00","39.1","ND","ND","ND","ND","3.29","ND","ND","ND","ND","ND","0"],
    [46459,"2015-08-24T14:00:00","34.4","ND","ND","ND","ND","3.37","ND","ND","ND","ND","ND","0"],
    [46460,"2015-08-24T15:00:00","34.8","ND","ND","ND","ND","5.42","ND","ND","ND","ND","ND","0"],
    [46461,"2015-08-24T16:00:00","41.3","ND","ND","ND","ND","2.16","ND","ND","ND","ND","ND","0"],
    [46462,"2015-08-24T17:00:00","35.5","ND","ND","ND","ND","1.85","ND","ND","ND","ND","ND","0"],
    [46463,"2015-08-24T18:00:00","28.1","ND","ND","ND","ND","2.98","ND","ND","ND","ND","ND","0"],
    [46464,"2015-08-24T19:00:00","26.2","ND","ND","ND","ND","3.08","ND","ND","ND","ND","ND","0"],
    [46465,"2015-08-24T20:00:00","25.6","ND","ND","ND","ND","2.45","ND","ND","ND","ND","ND","0"],
    [46466,"2015-08-24T21:00:00","35.8","ND","ND","ND","ND","3.47","ND","ND","ND","ND","ND","0"],
    [46467,"2015-08-24T22:00:00","45","ND","ND","ND","ND","3.89","ND","ND","ND","ND","ND","0"],
    [46468,"2015-08-24T23:00:00","100.5","ND","ND","ND","ND","4.91","ND","ND","ND","ND","ND","0"],
    [46469,"2015-08-25T00:00:00","ND","ND","ND","ND","ND","4.74","ND","ND","ND","ND","ND","0"],
    [46470,"2015-08-25T01:00:00","142.6","ND","ND","ND","ND","2.93","ND","ND","ND","ND","ND","0"],
    [46471,"2015-08-25T02:00:00","91.7","ND","ND","ND","ND","3.08","ND","ND","ND","ND","ND","0"],
    [46472,"2015-08-25T03:00:00","131.6","ND","ND","ND","ND","4.21","ND","ND","ND","ND","ND","0"],
    [46473,"2015-08-25T04:00:00","91.3","ND","ND","ND","ND","2.75","ND","ND","ND","ND","ND","0"],
    [46474,"2015-08-25T05:00:00","54.5","ND","ND","ND","ND","3.21","ND","ND","ND","ND","ND","0"],
    [46475,"2015-08-25T06:00:00","78.7","ND","ND","ND","ND","4.67","ND","ND","ND","ND","ND","0"],
    [46476,"2015-08-25T07:00:00","81.9","ND","ND","ND","ND","3.28","ND","ND","ND","ND","ND","0"],
    [46477,"2015-08-25T08:00:00","62.7","ND","ND","ND","ND","3.21","ND","ND","ND","ND","ND","0"],
    [46478,"2015-08-25T09:00:00","76.9","ND","ND","ND","ND","3.85","ND","ND","ND","ND","ND","0"],
    [46479,"2015-08-25T10:00:00","49.8","ND","ND","ND","ND","3.68","ND","ND","ND","ND","ND","0"],
    [46480,"2015-08-25T11:00:00","37.5","ND","ND","ND","ND","3.58","ND","ND","ND","ND","ND","0"],
    [46481,"2015-08-25T12:00:00","32.9","ND","ND","ND","ND","1.92","ND","ND","ND","ND","ND","0"],
    [46482,"2015-08-25T13:00:00","33.7","ND","ND","ND","ND","2.63","ND","ND","ND","ND","ND","0"],
    [46483,"2015-08-25T14:00:00","36.3","ND","ND","ND","ND","2.86","ND","ND","ND","ND","ND","0"],
    [46484,"2015-08-25T15:00:00","38.5","ND","ND","ND","ND","3.35","ND","ND","ND","ND","ND","0"],
    [46485,"2015-08-25T16:00:00","41","ND","ND","ND","ND","1.63","ND","ND","ND","ND","ND","0"],
    [46486,"2015-08-25T17:00:00","41.8","ND","ND","ND","ND","1.64","ND","ND","ND","ND","ND","0"],
    [46487,"2015-08-25T18:00:00","34.6","ND","ND","ND","ND","2.41","ND","ND","ND","ND","ND","0"],
    [46488,"2015-08-25T19:00:00","24","ND","ND","ND","ND","2.83","ND","ND","ND","ND","ND","0"],
    [46489,"2015-08-25T20:00:00","28.9","ND","ND","ND","ND","2.50","ND","ND","ND","ND","ND","0"],
    [46490,"2015-08-25T21:00:00","24.3","ND","ND","ND","ND","2.38","ND","ND","ND","ND","ND","0"],
    [46491,"2015-08-25T22:00:00","32.6","ND","ND","ND","ND","3.43","ND","ND","ND","ND","ND","0"],
    [46492,"2015-08-25T23:00:00","40","ND","ND","ND","ND","2.93","ND","ND","ND","ND","ND","0"],
    [46493,"2015-08-26T00:00:00","36.5","ND","ND","ND","ND","4.77","ND","ND","ND","ND","ND","0"],
    [46494,"2015-08-26T01:00:00","55.6","ND","ND","ND","ND","3.64","ND","ND","ND","ND","ND","0"],
    [46495,"2015-08-26T02:00:00","53.4","ND","ND","ND","ND","3.55","ND","ND","ND","ND","ND","0"],
    [46496,"2015-08-26T03:00:00","57.1","ND","ND","ND","ND","3.08","ND","ND","ND","ND","ND","0"],
    [46497,"2015-08-26T04:00:00","52.5","ND","ND","ND","ND","2.94","ND","ND","ND","ND","ND","0"],
    [46498,"2015-08-26T05:00:00","46.8","ND","ND","ND","ND","2.09","ND","ND","ND","ND","ND","0"],
    [46499,"2015-08-26T06:00:00","51.1","ND","ND","ND","ND","3.89","ND","ND","ND","ND","ND","0"],
    [46500,"2015-08-26T07:00:00","57.9","ND","ND","ND","ND","1.80","ND","ND","ND","ND","ND","0"],
    [46501,"2015-08-26T08:00:00","84","ND","ND","ND","ND","5.92","ND","ND","ND","ND","ND","0"],
    [46502,"2015-08-26T09:00:00","98.6","ND","ND","ND","ND","5.39","ND","ND","ND","ND","ND","0"],
    [46503,"2015-08-26T10:00:00","66.9","ND","ND","ND","ND","3.40","ND","ND","ND","ND","ND","0"],
    [46504,"2015-08-26T11:00:00","39.3","ND","ND","ND","ND","2.59","ND","ND","ND","ND","ND","0"],
    [46505,"2015-08-26T12:00:00","45.1","ND","ND","ND","ND","2.12","ND","ND","ND","ND","ND","0"],
    [46506,"2015-08-26T13:00:00","41.4","ND","ND","ND","ND","2.62","ND","ND","ND","ND","ND","0"],
    [46507,"2015-08-26T14:00:00","36.5","ND","ND","ND","ND","4.14","ND","ND","ND","ND","ND","0"],
    [46508,"2015-08-26T15:00:00","36","ND","ND","ND","ND","2.48","ND","ND","ND","ND","ND","0"],
    [46509,"2015-08-26T16:00:00","30.2","ND","ND","ND","ND","2.52","ND","ND","ND","ND","ND","0"],
    [46510,"2015-08-26T17:00:00","21.4","ND","ND","ND","ND","2.22","ND","ND","ND","ND","ND","0"],
    [46511,"2015-08-26T18:00:00","28.1","ND","ND","ND","ND","1.66","ND","ND","ND","ND","ND","0"],
    [46512,"2015-08-26T19:00:00","23.7","ND","ND","ND","ND","1.76","ND","ND","ND","ND","ND","0"],
    [46513,"2015-08-26T20:00:00","17.5","ND","ND","ND","ND","3.36","ND","ND","ND","ND","ND","0"],
    [46514,"2015-08-26T21:00:00","27.9","ND","ND","ND","ND","2.22","ND","ND","ND","ND","ND","0"],
    [46515,"2015-08-26T22:00:00","25.4","ND","ND","ND","ND","2.29","ND","ND","ND","ND","ND","0"],
    [46516,"2015-08-26T23:00:00","19","ND","ND","ND","ND","3.07","ND","ND","ND","ND","ND","0"],
    [46517,"2015-08-27T00:00:00","24.7","ND","ND","ND","ND","2.68","ND","ND","ND","ND","ND","0"],
    [46518,"2015-08-27T01:00:00","15.9","ND","ND","ND","ND","3.14","ND","ND","ND","ND","ND","0"],
    [46519,"2015-08-27T02:00:00","25.8","ND","ND","ND","ND","3.39","ND","ND","ND","ND","ND","0"],
    [46520,"2015-08-27T03:00:00","42.1","ND","ND","ND","ND","3.22","ND","ND","ND","ND","ND","0"],
    [46521,"2015-08-27T04:00:00","37.8","ND","ND","ND","ND","2.77","ND","ND","ND","ND","ND","0"],
    [46522,"2015-08-27T05:00:00","45.1","ND","ND","ND","ND","3.14","ND","ND","ND","ND","ND","0"],
    [46523,"2015-08-27T06:00:00","60.6","ND","ND","ND","ND","3.50","ND","ND","ND","ND","ND","0"],
    [46524,"2015-08-27T07:00:00","18.9","ND","ND","ND","ND","5.83","ND","ND","ND","ND","ND","0"],
    [46525,"2015-08-27T08:00:00","60.2","ND","ND","ND","ND","4.38","ND","ND","ND","ND","ND","0"],
    [46526,"2015-08-27T09:00:00","86.9","ND","ND","ND","ND","3.44","ND","ND","ND","ND","ND","0"],
    [46527,"2015-08-27T10:00:00","88.6","ND","ND","ND","ND","2.19","ND","ND","ND","ND","ND","0"],
    [46528,"2015-08-27T11:00:00","60","ND","ND","ND","ND","2.84","ND","ND","ND","ND","ND","0"],
    [46529,"2015-08-27T12:00:00","41.6","ND","ND","ND","ND","2.38","ND","ND","ND","ND","ND","0"],
    [46530,"2015-08-27T13:00:00","37.5","ND","ND","ND","ND","2.77","ND","ND","ND","ND","ND","0"],
    [46531,"2015-08-27T14:00:00","42.7","ND","ND","ND","ND","1.92","ND","ND","ND","ND","ND","0"],
    [46532,"2015-08-27T15:00:00","46.7","ND","ND","ND","ND","1.84","ND","ND","ND","ND","ND","0"],
    [46533,"2015-08-27T16:00:00","45.6","ND","ND","ND","ND","2.90","ND","ND","ND","ND","ND","0"],
    [46534,"2015-08-27T17:00:00","39.1","ND","ND","ND","ND","2.97","ND","ND","ND","ND","ND","0"],
    [46535,"2015-08-27T18:00:00","40.9","ND","ND","ND","ND","3.21","ND","ND","ND","ND","ND","0"],
    [46536,"2015-08-27T19:00:00","45.7","ND","ND","ND","ND","1.83","ND","ND","ND","ND","ND","0"],
    [46537,"2015-08-27T20:00:00","42.5","ND","ND","ND","ND","2.04","ND","ND","ND","ND","ND","0"],
    [46538,"2015-08-27T21:00:00","50.2","ND","ND","ND","ND","2.61","ND","ND","ND","ND","ND","0"],
    [46539,"2015-08-27T22:00:00","47.2","ND","ND","ND","ND","3.46","ND","ND","ND","ND","ND","0"],
    [46540,"2015-08-27T23:00:00","62.5","ND","ND","ND","ND","2.54","ND","ND","ND","ND","ND","0"],
    [46541,"2015-08-28T00:00:00","62.8","ND","ND","ND","ND","3.29","ND","ND","ND","ND","ND","0"],
    [46542,"2015-08-28T01:00:00","47.8","ND","ND","ND","ND","2.80","ND","ND","ND","ND","ND","0"],
    [46543,"2015-08-28T02:00:00","44.9","ND","ND","ND","ND","3.15","ND","ND","ND","ND","ND","0"],
    [46544,"2015-08-28T03:00:00","38.2","ND","ND","ND","ND","2.04","ND","ND","ND","ND","ND","0"],
    [46545,"2015-08-28T04:00:00","37.4","ND","ND","ND","ND","2.01","ND","ND","ND","ND","ND","0"],
    [46546,"2015-08-28T05:00:00","38.6","ND","ND","ND","ND","1.81","ND","ND","ND","ND","ND","0"],
    [46547,"2015-08-28T06:00:00","49.1","ND","ND","ND","ND","3.57","ND","ND","ND","ND","ND","0"],
    [46548,"2015-08-28T07:00:00","64.2","ND","ND","ND","ND","2.16","ND","ND","ND","ND","ND","0"],
    [46549,"2015-08-28T08:00:00","67.1","ND","ND","ND","ND","3.50","ND","ND","ND","ND","ND","0"],
    [46550,"2015-08-28T09:00:00","55.3","ND","ND","ND","ND","3.01","ND","ND","ND","ND","ND","0"],
    [46551,"2015-08-28T10:00:00","41.2","ND","ND","ND","ND","1.69","ND","ND","ND","ND","ND","0"],
    [46552,"2015-08-28T11:00:00","45.6","ND","ND","ND","ND","2.97","ND","ND","ND","ND","ND","0"],
    [46553,"2015-08-28T12:00:00","50.7","ND","ND","ND","ND","2.48","ND","ND","ND","ND","ND","0"],
    [46554,"2015-08-28T13:00:00","52.3","ND","ND","ND","ND","2.23","ND","ND","ND","ND","ND","0"],
    [46555,"2015-08-28T14:00:00","38.8","ND","ND","ND","ND","1.80","ND","ND","ND","ND","ND","0"],
    [46556,"2015-08-28T15:00:00","42.8","ND","ND","ND","ND","2.36","ND","ND","ND","ND","ND","0"],
    [46557,"2015-08-28T16:00:00","42.2","ND","ND","ND","ND","1.51","ND","ND","ND","ND","ND","0"],
    [46558,"2015-08-28T17:00:00","53.4","ND","ND","ND","ND","1.95","ND","ND","ND","ND","ND","0"],
    [46559,"2015-08-28T18:00:00","33.7","ND","ND","ND","ND","2.06","ND","ND","ND","ND","ND","0"],
    [46560,"2015-08-28T19:00:00","35.8","ND","ND","ND","ND","2.09","ND","ND","ND","ND","ND","0"],
    [46561,"2015-08-28T20:00:00","52","ND","ND","ND","ND","1.66","ND","ND","ND","ND","ND","0"],
    [46562,"2015-08-28T21:00:00","61.7","ND","ND","ND","ND","3.94","ND","ND","ND","ND","ND","0"],
    [46563,"2015-08-28T22:00:00","61","ND","ND","ND","ND","2.50","ND","ND","ND","ND","ND","0"],
    [46564,"2015-08-28T23:00:00","79.1","ND","ND","ND","ND","5.53","ND","ND","ND","ND","ND","0"],
    [46565,"2015-08-29T00:00:00","63.1","ND","ND","ND","ND","3.09","ND","ND","ND","ND","ND","0"],
    [46566,"2015-08-29T01:00:00","35.8","ND","ND","ND","ND","3.02","ND","ND","ND","ND","ND","0"],
    [46567,"2015-08-29T02:00:00","48.1","ND","ND","ND","ND","2.94","ND","ND","ND","ND","ND","0"],
    [46568,"2015-08-29T03:00:00","49.4","ND","ND","ND","ND","2.52","ND","ND","ND","ND","ND","0"],
    [46569,"2015-08-29T04:00:00","54.7","ND","ND","ND","ND","2.43","ND","ND","ND","ND","ND","0"],
    [46570,"2015-08-29T05:00:00","59.6","ND","ND","ND","ND","3.37","ND","ND","ND","ND","ND","0"],
    [46571,"2015-08-29T06:00:00","72","ND","ND","ND","ND","4.49","ND","ND","ND","ND","ND","0"],
    [46572,"2015-08-29T07:00:00","92.5","ND","ND","ND","ND","3.51","ND","ND","ND","ND","ND","0"],
    [46573,"2015-08-29T08:00:00","ND","ND","ND","ND","ND","ND","ND","ND","ND","ND","ND","ND"],
    [46574,"2015-08-29T09:00:00","ND","ND","ND","ND","ND","ND","ND","ND","ND","ND","ND","ND"],
    [46575,"2015-08-29T10:00:00","ND","ND","ND","ND","ND","ND","ND","ND","ND","ND","ND","ND"],
    [46576,"2015-08-29T11:00:00","ND","ND","ND","ND","ND","ND","ND","ND","ND","ND","ND","ND"],
    [46577,"2015-08-29T12:00:00","ND","ND","ND","ND","ND","ND","ND","ND","ND","ND","ND","ND"],
    [46578,"2015-08-29T13:00:00","ND","ND","ND","ND","ND","ND","ND","ND","ND","ND","ND","ND"],
    [46579,"2015-08-29T14:00:00","ND","ND","ND","ND","ND","ND","ND","ND","ND","ND","ND","ND"],
    [46580,"2015-08-29T15:00:00","ND","ND","ND","ND","ND","ND","ND","ND","ND","ND","ND","ND"],
    [46581,"2015-08-29T16:00:00","ND","ND","ND","ND","ND","ND","ND","ND","ND","ND","ND","ND"],
    [46582,"2015-08-29T17:00:00","ND","ND","ND","ND","ND","ND","ND","ND","ND","ND","ND","ND"],
    [46583,"2015-08-29T18:00:00","ND","ND","ND","ND","ND","ND","ND","ND","ND","ND","ND","ND"],
    [46584,"2015-08-29T19:00:00","ND","ND","ND","ND","ND","ND","ND","ND","ND","ND","ND","ND"],
    [46585,"2015-08-29T20:00:00","ND","ND","ND","ND","ND","ND","ND","ND","ND","ND","ND","ND"],
    [46586,"2015-08-29T21:00:00","ND","ND","ND","ND","ND","ND","ND","ND","ND","ND","ND","ND"],
    [46587,"2015-08-29T22:00:00","ND","ND","ND","ND","ND","ND","ND","ND","ND","ND","ND","ND"],
    [46588,"2015-08-29T23:00:00","ND","ND","ND","ND","ND","ND","ND","ND","ND","ND","ND","ND"],
    [46589,"2015-08-30T00:00:00","ND","ND","ND","ND","ND","ND","ND","ND","ND","ND","ND","ND"],
    [46590,"2015-08-30T01:00:00","ND","ND","ND","ND","ND","ND","ND","ND","ND","ND","ND","ND"],
    [46591,"2015-08-30T02:00:00","ND","ND","ND","ND","ND","ND","ND","ND","ND","ND","ND","ND"],
    [46592,"2015-08-30T03:00:00","ND","ND","ND","ND","ND","ND","ND","ND","ND","ND","ND","ND"],
    [46593,"2015-08-30T04:00:00","ND","ND","ND","ND","ND","ND","ND","ND","ND","ND","ND","ND"],
    [46594,"2015-08-30T05:00:00","ND","ND","ND","ND","ND","ND","ND","ND","ND","ND","ND","ND"],
    [46595,"2015-08-30T06:00:00","ND","ND","ND","ND","ND","ND","ND","ND","ND","ND","ND","ND"],
    [46596,"2015-08-30T07:00:00","ND","ND","ND","ND","ND","ND","ND","ND","ND","ND","ND","ND"],
    [46597,"2015-08-30T08:00:00","ND","ND","ND","ND","ND","ND","ND","ND","ND","ND","ND","ND"],
    [46598,"2015-08-30T09:00:00","ND","ND","ND","ND","ND","ND","ND","ND","ND","ND","ND","ND"],
    [46599,"2015-08-30T10:00:00","ND","ND","ND","ND","ND","ND","ND","ND","ND","ND","ND","ND"],
    [46600,"2015-08-30T11:00:00","ND","ND","ND","ND","ND","ND","ND","ND","ND","ND","ND","ND"],
    [46601,"2015-08-30T12:00:00","ND","ND","ND","ND","ND","ND","ND","ND","ND","ND","ND","ND"],
    [46602,"2015-08-30T13:00:00","ND","ND","ND","ND","ND","ND","ND","ND","ND","ND","ND","ND"],
    [46603,"2015-08-30T14:00:00","ND","ND","ND","ND","ND","ND","ND","ND","ND","ND","ND","ND"],
    [46604,"2015-08-30T15:00:00","ND","ND","ND","ND","ND","ND","ND","ND","ND","ND","ND","ND"],
    [46605,"2015-08-30T16:00:00","ND","ND","ND","ND","ND","ND","ND","ND","ND","ND","ND","ND"],
    [46606,"2015-08-30T17:00:00","ND","ND","ND","ND","ND","ND","ND","ND","ND","ND","ND","ND"],
    [46607,"2015-08-30T18:00:00","ND","ND","ND","ND","ND","ND","ND","ND","ND","ND","ND","ND"],
    [46608,"2015-08-30T19:00:00","ND","ND","ND","ND","ND","ND","ND","ND","ND","ND","ND","ND"],
    [46609,"2015-08-30T20:00:00","ND","ND","ND","ND","ND","ND","ND","ND","ND","ND","ND","ND"],
    [46610,"2015-08-30T21:00:00","ND","ND","ND","ND","ND","ND","ND","ND","ND","ND","ND","ND"],
    [46611,"2015-08-30T22:00:00","ND","ND","ND","ND","ND","ND","ND","ND","ND","ND","ND","ND"],
    [46612,"2015-08-30T23:00:00","ND","ND","ND","ND","ND","ND","ND","ND","ND","ND","ND","ND"],
    [46613,"2015-08-31T00:00:00","ND","ND","ND","ND","ND","ND","ND","ND","ND","ND","ND","ND"],
    [46614,"2015-08-31T01:00:00","ND","ND","ND","ND","ND","ND","ND","ND","ND","ND","ND","ND"],
    [46615,"2015-08-31T02:00:00","ND","ND","ND","ND","ND","ND","ND","ND","ND","ND","ND","ND"],
    [46616,"2015-08-31T03:00:00","ND","ND","ND","ND","ND","ND","ND","ND","ND","ND","ND","ND"],
    [46617,"2015-08-31T04:00:00","ND","ND","ND","ND","ND","ND","ND","ND","ND","ND","ND","ND"],
    [46618,"2015-08-31T05:00:00","ND","ND","ND","ND","ND","ND","ND","ND","ND","ND","ND","ND"],
    [46619,"2015-08-31T06:00:00","ND","ND","ND","ND","ND","ND","ND","ND","ND","ND","ND","ND"],
    [46620,"2015-08-31T07:00:00","ND","ND","ND","ND","ND","ND","ND","ND","ND","ND","ND","ND"],
    [46621,"2015-08-31T08:00:00","ND","ND","ND","ND","ND","ND","ND","ND","ND","ND","ND","ND"],
    [46622,"2015-08-31T09:00:00","ND","ND","ND","ND","ND","ND","ND","ND","ND","ND","ND","ND"],
    [46623,"2015-08-31T10:00:00","ND","ND","ND","ND","ND","ND","ND","ND","ND","ND","ND","ND"],
    [46624,"2015-08-31T11:00:00","ND","ND","ND","ND","ND","ND","ND","ND","ND","ND","ND","ND"],
    [46625,"2015-08-31T12:00:00","ND","ND","ND","ND","ND","ND","ND","ND","ND","ND","ND","ND"],
    [46626,"2015-08-31T13:00:00","ND","ND","ND","ND","ND","ND","ND","ND","ND","ND","ND","ND"],
    [46627,"2015-08-31T14:00:00","ND","ND","ND","ND","ND","ND","ND","ND","ND","ND","ND","ND"],
    [46628,"2015-08-31T15:00:00","ND","ND","ND","ND","ND","ND","ND","ND","ND","ND","ND","ND"],
    [46629,"2015-08-31T16:00:00","ND","ND","ND","ND","ND","ND","ND","ND","ND","ND","ND","ND"],
    [46630,"2015-08-31T17:00:00","ND","ND","ND","ND","ND","ND","ND","ND","ND","ND","ND","ND"],
    [46631,"2015-08-31T18:00:00","ND","ND","ND","ND","ND","ND","ND","ND","ND","ND","ND","ND"],
    [46632,"2015-08-31T19:00:00","ND","ND","ND","ND","ND","ND","ND","ND","ND","ND","ND","ND"],
    [46633,"2015-08-31T20:00:00","ND","ND","ND","ND","ND","ND","ND","ND","ND","ND","ND","ND"],
    [46634,"2015-08-31T21:00:00","ND","ND","ND","ND","ND","ND","ND","ND","ND","ND","ND","ND"],
    [46635,"2015-08-31T22:00:00","ND","ND","ND","ND","ND","ND","ND","ND","ND","ND","ND","ND"],
    [46636,"2015-08-31T23:00:00","ND","ND","ND","ND","ND","ND","ND","ND","ND","ND","ND","ND"],
    [46637,"2015-09-01T00:00:00","ND","ND","ND","ND","ND","ND","ND","ND","ND","ND","ND","ND"],
    [46638,"2015-09-01T01:00:00","ND","ND","ND","ND","ND","ND","ND","ND","ND","ND","ND","ND"],
    [46639,"2015-09-01T02:00:00","ND","ND","ND","ND","ND","ND","ND","ND","ND","ND","ND","ND"],
    [46640,"2015-09-01T03:00:00","ND","ND","ND","ND","ND","ND","ND","ND","ND","ND","ND","ND"],
    [46641,"2015-09-01T04:00:00","ND","ND","ND","ND","ND","ND","ND","ND","ND","ND","ND","ND"],
    [46642,"2015-09-01T05:00:00","ND","ND","ND","ND","ND","ND","ND","ND","ND","ND","ND","ND"],
    [46643,"2015-09-01T06:00:00","ND","ND","ND","ND","ND","ND","ND","ND","ND","ND","ND","ND"],
    [46644,"2015-09-01T07:00:00","ND","ND","ND","ND","ND","ND","ND","ND","ND","ND","ND","ND"],
    [46645,"2015-09-01T08:00:00","ND","ND","ND","ND","ND","ND","ND","ND","ND","ND","ND","ND"],
    [46646,"2015-09-01T09:00:00","ND","ND","ND","ND","ND","ND","ND","ND","ND","ND","ND","ND"],
    [46647,"2015-09-01T10:00:00","ND","ND","ND","ND","ND","ND","ND","ND","ND","ND","ND","ND"],
    [46648,"2015-09-01T11:00:00","ND","ND","ND","ND","ND","ND","ND","ND","ND","ND","ND","ND"],
    [46649,"2015-09-01T12:00:00","ND","ND","ND","ND","ND","ND","ND","ND","ND","ND","ND","ND"],
    [46650,"2015-09-01T13:00:00","ND","ND","ND","ND","ND","ND","ND","ND","ND","ND","ND","ND"],
    [46651,"2015-09-01T14:00:00","ND","ND","ND","ND","ND","ND","ND","ND","ND","ND","ND","ND"],
    [46652,"2015-09-01T15:00:00","ND","ND","ND","ND","ND","ND","ND","ND","ND","ND","ND","ND"],
    [46653,"2015-09-01T16:00:00","ND","ND","ND","ND","ND","ND","ND","ND","ND","ND","ND","ND"],
    [46654,"2015-09-01T17:00:00","ND","ND","ND","ND","ND","ND","ND","ND","ND","ND","ND","ND"],
    [46655,"2015-09-01T18:00:00","ND","ND","ND","ND","ND","ND","ND","ND","ND","ND","ND","ND"],
    [46656,"2015-09-01T19:00:00","ND","ND","ND","ND","ND","ND","ND","ND","ND","ND","ND","ND"],
    [46657,"2015-09-01T20:00:00","ND","ND","ND","ND","ND","ND","ND","ND","ND","ND","ND","ND"],
    [46658,"2015-09-01T21:00:00","ND","ND","ND","ND","ND","ND","ND","ND","ND","ND","ND","ND"],
    [46659,"2015-09-01T22:00:00","ND","ND","ND","ND","ND","ND","ND","ND","ND","ND","ND","ND"],
    [46660,"2015-09-01T23:00:00","ND","ND","ND","ND","ND","ND","ND","ND","ND","ND","ND","ND"],
    [46661,"2015-09-02T00:00:00","ND","ND","ND","ND","ND","ND","ND","ND","ND","ND","ND","ND"],
    [46662,"2015-09-02T01:00:00","ND","ND","ND","ND","ND","ND","ND","ND","ND","ND","ND","ND"],
    [46663,"2015-09-02T02:00:00","ND","ND","ND","ND","ND","ND","ND","ND","ND","ND","ND","ND"],
    [46664,"2015-09-02T03:00:00","ND","ND","ND","ND","ND","ND","ND","ND","ND","ND","ND","ND"],
    [46665,"2015-09-02T04:00:00","ND","ND","ND","ND","ND","ND","ND","ND","ND","ND","ND","ND"],
    [46666,"2015-09-02T05:00:00","ND","ND","ND","ND","ND","ND","ND","ND","ND","ND","ND","ND"],
    [46667,"2015-09-02T06:00:00","ND","ND","ND","ND","ND","ND","ND","ND","ND","ND","ND","ND"],
    [46668,"2015-09-02T07:00:00","ND","ND","ND","ND","ND","ND","ND","ND","ND","ND","ND","ND"],
    [46669,"2015-09-02T08:00:00","ND","ND","ND","ND","ND","ND","ND","ND","ND","ND","ND","ND"],
    [46670,"2015-09-02T09:00:00","ND","ND","ND","ND","ND","ND","ND","ND","ND","ND","ND","ND"],
    [46671,"2015-09-02T10:00:00","ND","ND","ND","ND","ND","ND","ND","ND","ND","ND","ND","ND"],
    [46672,"2015-09-02T11:00:00","ND","ND","ND","ND","ND","ND","ND","ND","ND","ND","ND","ND"],
    [46673,"2015-09-02T12:00:00","ND","ND","ND","ND","ND","ND","ND","ND","ND","ND","ND","ND"],
    [46674,"2015-09-02T13:00:00","ND","ND","ND","ND","ND","ND","ND","ND","ND","ND","ND","ND"],
    [46675,"2015-09-02T14:00:00","ND","ND","ND","ND","ND","ND","ND","ND","ND","ND","ND","ND"],
    [46676,"2015-09-02T15:00:00","ND","ND","ND","ND","ND","ND","ND","ND","ND","ND","ND","ND"],
    [46677,"2015-09-02T16:00:00","ND","ND","ND","ND","ND","ND","ND","ND","ND","ND","ND","ND"],
    [46678,"2015-09-02T17:00:00","ND","ND","ND","ND","ND","ND","ND","ND","ND","ND","ND","ND"],
    [46679,"2015-09-02T18:00:00","ND","ND","ND","ND","ND","ND","ND","ND","ND","ND","ND","ND"],
    [46680,"2015-09-02T19:00:00","ND","ND","ND","ND","ND","ND","ND","ND","ND","ND","ND","ND"],
    [46681,"2015-09-02T20:00:00","ND","ND","ND","ND","ND","ND","ND","ND","ND","ND","ND","ND"],
    [46682,"2015-09-02T21:00:00","ND","ND","ND","ND","ND","ND","ND","ND","ND","ND","ND","ND"],
    [46683,"2015-09-02T22:00:00","ND","ND","ND","ND","ND","ND","ND","ND","ND","ND","ND","ND"],
    [46684,"2015-09-02T23:00:00","ND","ND","ND","ND","ND","ND","ND","ND","ND","ND","ND","ND"],
    [46685,"2015-09-03T00:00:00","ND","ND","ND","ND","ND","ND","ND","ND","ND","ND","ND","ND"],
    [46686,"2015-09-03T01:00:00","ND","ND","ND","ND","ND","ND","ND","ND","ND","ND","ND","ND"],
    [46687,"2015-09-03T02:00:00","ND","ND","ND","ND","ND","ND","ND","ND","ND","ND","ND","ND"],
    [46688,"2015-09-03T03:00:00","ND","ND","ND","ND","ND","ND","ND","ND","ND","ND","ND","ND"],
    [46689,"2015-09-03T04:00:00","ND","ND","ND","ND","ND","ND","ND","ND","ND","ND","ND","ND"],
    [46690,"2015-09-03T05:00:00","ND","ND","ND","ND","ND","ND","ND","ND","ND","ND","ND","ND"],
    [46691,"2015-09-03T06:00:00","ND","ND","ND","ND","ND","ND","ND","ND","ND","ND","ND","ND"],
    [46692,"2015-09-03T07:00:00","ND","ND","ND","ND","ND","ND","ND","ND","ND","ND","ND","ND"],
    [46693,"2015-09-03T08:00:00","ND","ND","ND","ND","ND","ND","ND","ND","ND","ND","ND","ND"],
    [46694,"2015-09-03T09:00:00","ND","ND","ND","ND","ND","ND","ND","ND","ND","ND","ND","ND"],
    [46695,"2015-09-03T10:00:00","ND","ND","ND","ND","ND","ND","ND","ND","ND","ND","ND","ND"],
    [46696,"2015-09-03T11:00:00","ND","ND","ND","ND","ND","ND","ND","ND","ND","ND","ND","ND"],
    [46697,"2015-09-03T12:00:00","ND","ND","ND","ND","ND","ND","ND","ND","ND","ND","ND","ND"],
    [46698,"2015-09-03T13:00:00","ND","ND","ND","ND","ND","ND","ND","ND","ND","ND","ND","ND"],
    [46699,"2015-09-03T14:00:00","ND","ND","ND","ND","ND","ND","ND","ND","ND","ND","ND","ND"],
    [46700,"2015-09-03T15:00:00","ND","ND","ND","ND","ND","ND","ND","ND","ND","ND","ND","ND"],
    [46701,"2015-09-03T16:00:00","ND","ND","ND","ND","ND","ND","ND","ND","ND","ND","ND","ND"],
    [46702,"2015-09-03T17:00:00","ND","ND","ND","ND","ND","ND","ND","ND","ND","ND","ND","ND"],
    [46703,"2015-09-03T18:00:00","ND","ND","ND","ND","ND","ND","ND","ND","ND","ND","ND","ND"],
    [46704,"2015-09-03T19:00:00","ND","ND","ND","ND","ND","ND","ND","ND","ND","ND","ND","ND"],
    [46705,"2015-09-03T20:00:00","ND","ND","ND","ND","ND","ND","ND","ND","ND","ND","ND","ND"],
    [46706,"2015-09-03T21:00:00","ND","ND","ND","ND","ND","ND","ND","ND","ND","ND","ND","ND"],
    [46707,"2015-09-03T22:00:00","ND","ND","ND","ND","ND","ND","ND","ND","ND","ND","ND","ND"],
    [46708,"2015-09-03T23:00:00","ND","ND","ND","ND","ND","ND","ND","ND","ND","ND","ND","ND"],
    [46709,"2015-09-04T00:00:00","ND","ND","ND","ND","ND","ND","ND","ND","ND","ND","ND","ND"],
    [46710,"2015-09-04T01:00:00","ND","ND","ND","ND","ND","ND","ND","ND","ND","ND","ND","ND"],
    [46711,"2015-09-04T02:00:00","ND","ND","ND","ND","ND","ND","ND","ND","ND","ND","ND","ND"],
    [46712,"2015-09-04T03:00:00","ND","ND","ND","ND","ND","ND","ND","ND","ND","ND","ND","ND"],
    [46713,"2015-09-04T04:00:00","ND","ND","ND","ND","ND","ND","ND","ND","ND","ND","ND","ND"],
    [46714,"2015-09-04T05:00:00","ND","ND","ND","ND","ND","ND","ND","ND","ND","ND","ND","ND"],
    [46715,"2015-09-04T06:00:00","ND","ND","ND","ND","ND","ND","ND","ND","ND","ND","ND","ND"],
    [46716,"2015-09-04T07:00:00","ND","ND","ND","ND","ND","ND","ND","ND","ND","ND","ND","ND"],
    [46717,"2015-09-04T08:00:00","ND","ND","ND","ND","ND","ND","ND","ND","ND","ND","ND","ND"],
    [46718,"2015-09-04T09:00:00","ND","ND","ND","ND","ND","ND","ND","ND","ND","ND","ND","ND"],
    [46719,"2015-09-04T10:00:00","ND","ND","ND","ND","ND","ND","ND","ND","ND","ND","ND","ND"],
    [46720,"2015-09-04T11:00:00","ND","ND","ND","ND","ND","ND","ND","ND","ND","ND","ND","ND"],
    [46721,"2015-09-04T12:00:00","ND","ND","ND","ND","ND","ND","ND","ND","ND","ND","ND","ND"],
    [46722,"2015-09-04T13:00:00","ND","ND","ND","ND","ND","ND","ND","ND","ND","ND","ND","ND"],
    [46723,"2015-09-04T14:00:00","ND","ND","ND","ND","ND","ND","ND","ND","ND","ND","ND","ND"],
    [46724,"2015-09-04T15:00:00","ND","ND","ND","ND","ND","ND","ND","ND","ND","ND","ND","ND"],
    [46725,"2015-09-04T16:00:00","ND","ND","ND","ND","ND","ND","ND","ND","ND","ND","ND","ND"],
    [46726,"2015-09-04T17:00:00","ND","ND","ND","ND","ND","ND","ND","ND","ND","ND","ND","ND"],
    [46727,"2015-09-04T18:00:00","ND","ND","ND","ND","ND","ND","ND","ND","ND","ND","ND","ND"],
    [46728,"2015-09-04T19:00:00","ND","ND","ND","ND","ND","ND","ND","ND","ND","ND","ND","ND"],
    [46729,"2015-09-04T20:00:00","ND","ND","ND","ND","ND","ND","ND","ND","ND","ND","ND","ND"],
    [46730,"2015-09-04T21:00:00","ND","ND","ND","ND","ND","ND","ND","ND","ND","ND","ND","ND"],
    [46731,"2015-09-04T22:00:00","ND","ND","ND","ND","ND","ND","ND","ND","ND","ND","ND","ND"],
    [46732,"2015-09-04T23:00:00","ND","ND","ND","ND","ND","ND","ND","ND","ND","ND","ND","ND"],
    [46733,"2015-09-05T00:00:00","ND","ND","ND","ND","ND","ND","ND","ND","ND","ND","ND","ND"],
    [46734,"2015-09-05T01:00:00","ND","ND","ND","ND","ND","ND","ND","ND","ND","ND","ND","ND"],
    [46735,"2015-09-05T02:00:00","ND","ND","ND","ND","ND","ND","ND","ND","ND","ND","ND","ND"],
    [46736,"2015-09-05T03:00:00","ND","ND","ND","ND","ND","ND","ND","ND","ND","ND","ND","ND"],
    [46737,"2015-09-05T04:00:00","ND","ND","ND","ND","ND","ND","ND","ND","ND","ND","ND","ND"],
    [46738,"2015-09-05T05:00:00","ND","ND","ND","ND","ND","ND","ND","ND","ND","ND","ND","ND"],
    [46739,"2015-09-05T06:00:00","ND","ND","ND","ND","ND","ND","ND","ND","ND","ND","ND","ND"],
    [46740,"2015-09-05T07:00:00","ND","ND","ND","ND","ND","ND","ND","ND","ND","ND","ND","ND"],
    [46741,"2015-09-05T08:00:00","ND","ND","ND","ND","ND","ND","ND","ND","ND","ND","ND","ND"],
    [46742,"2015-09-05T09:00:00","ND","ND","ND","ND","ND","ND","ND","ND","ND","ND","ND","ND"],
    [46743,"2015-09-05T10:00:00","ND","ND","ND","ND","ND","ND","ND","ND","ND","ND","ND","ND"],
    [46744,"2015-09-05T11:00:00","ND","ND","ND","ND","ND","ND","ND","ND","ND","ND","ND","ND"],
    [46745,"2015-09-05T12:00:00","ND","ND","ND","ND","ND","ND","ND","ND","ND","ND","ND","ND"],
    [46746,"2015-09-05T13:00:00","ND","ND","ND","ND","ND","ND","ND","ND","ND","ND","ND","ND"],
    [46747,"2015-09-05T14:00:00","ND","ND","ND","ND","ND","ND","ND","ND","ND","ND","ND","ND"],
    [46748,"2015-09-05T15:00:00","ND","ND","ND","ND","ND","ND","ND","ND","ND","ND","ND","ND"],
    [46749,"2015-09-05T16:00:00","ND","ND","ND","ND","ND","ND","ND","ND","ND","ND","ND","ND"],
    [46750,"2015-09-05T17:00:00","ND","ND","ND","ND","ND","ND","ND","ND","ND","ND","ND","ND"],
    [46751,"2015-09-05T18:00:00","ND","ND","ND","ND","ND","ND","ND","ND","ND","ND","ND","ND"],
    [46752,"2015-09-05T19:00:00","ND","ND","ND","ND","ND","ND","ND","ND","ND","ND","ND","ND"],
    [46753,"2015-09-05T20:00:00","ND","ND","ND","ND","ND","ND","ND","ND","ND","ND","ND","ND"],
    [46754,"2015-09-05T21:00:00","ND","ND","ND","ND","ND","ND","ND","ND","ND","ND","ND","ND"],
    [46755,"2015-09-05T22:00:00","ND","ND","ND","ND","ND","ND","ND","ND","ND","ND","ND","ND"],
    [46756,"2015-09-05T23:00:00","ND","ND","ND","ND","ND","ND","ND","ND","ND","ND","ND","ND"],
    [46757,"2015-09-06T00:00:00","ND","ND","ND","ND","ND","ND","ND","ND","ND","ND","ND","ND"],
    [46758,"2015-09-06T01:00:00","ND","ND","ND","ND","ND","ND","ND","ND","ND","ND","ND","ND"],
    [46759,"2015-09-06T02:00:00","ND","ND","ND","ND","ND","ND","ND","ND","ND","ND","ND","ND"],
    [46760,"2015-09-06T03:00:00","ND","ND","ND","ND","ND","ND","ND","ND","ND","ND","ND","ND"],
    [46761,"2015-09-06T04:00:00","ND","ND","ND","ND","ND","ND","ND","ND","ND","ND","ND","ND"],
    [46762,"2015-09-06T05:00:00","ND","ND","ND","ND","ND","ND","ND","ND","ND","ND","ND","ND"],
    [46763,"2015-09-06T06:00:00","ND","ND","ND","ND","ND","ND","ND","ND","ND","ND","ND","ND"],
    [46764,"2015-09-06T07:00:00","ND","ND","ND","ND","ND","ND","ND","ND","ND","ND","ND","ND"],
    [46765,"2015-09-06T08:00:00","ND","ND","ND","ND","ND","ND","ND","ND","ND","ND","ND","ND"],
    [46766,"2015-09-06T09:00:00","ND","ND","ND","ND","ND","ND","ND","ND","ND","ND","ND","ND"],
    [46767,"2015-09-06T10:00:00","ND","ND","ND","ND","ND","ND","ND","ND","ND","ND","ND","ND"],
    [46768,"2015-09-06T11:00:00","ND","ND","ND","ND","ND","ND","ND","ND","ND","ND","ND","ND"],
    [46769,"2015-09-06T12:00:00","ND","ND","ND","ND","ND","ND","ND","ND","ND","ND","ND","ND"],
    [46770,"2015-09-06T13:00:00","ND","ND","ND","ND","ND","ND","ND","ND","ND","ND","ND","ND"],
    [46771,"2015-09-06T14:00:00","ND","ND","ND","ND","ND","ND","ND","ND","ND","ND","ND","ND"],
    [46772,"2015-09-06T15:00:00","ND","ND","ND","ND","ND","ND","ND","ND","ND","ND","ND","ND"],
    [46773,"2015-09-06T16:00:00","ND","ND","ND","ND","ND","ND","ND","ND","ND","ND","ND","ND"],
    [46774,"2015-09-06T17:00:00","ND","ND","ND","ND","ND","ND","ND","ND","ND","ND","ND","ND"],
    [46775,"2015-09-06T18:00:00","ND","ND","ND","ND","ND","ND","ND","ND","ND","ND","ND","ND"],
    [46776,"2015-09-06T19:00:00","ND","ND","ND","ND","ND","ND","ND","ND","ND","ND","ND","ND"],
    [46777,"2015-09-06T20:00:00","ND","ND","ND","ND","ND","ND","ND","ND","ND","ND","ND","ND"],
    [46778,"2015-09-06T21:00:00","ND","ND","ND","ND","ND","ND","ND","ND","ND","ND","ND","ND"],
    [46779,"2015-09-06T22:00:00","ND","ND","ND","ND","ND","ND","ND","ND","ND","ND","ND","ND"],
    [46780,"2015-09-06T23:00:00","ND","ND","ND","ND","ND","ND","ND","ND","ND","ND","ND","ND"],
    [46781,"2015-09-07T00:00:00","ND","ND","ND","ND","ND","ND","ND","ND","ND","ND","ND","ND"],
    [46782,"2015-09-07T01:00:00","ND","ND","ND","ND","ND","ND","ND","ND","ND","ND","ND","ND"],
    [46783,"2015-09-07T02:00:00","ND","ND","ND","ND","ND","ND","ND","ND","ND","ND","ND","ND"],
    [46784,"2015-09-07T03:00:00","ND","ND","ND","ND","ND","ND","ND","ND","ND","ND","ND","ND"],
    [46785,"2015-09-07T04:00:00","ND","ND","ND","ND","ND","ND","ND","ND","ND","ND","ND","ND"],
    [46786,"2015-09-07T05:00:00","ND","ND","ND","ND","ND","ND","ND","ND","ND","ND","ND","ND"],
    [46787,"2015-09-07T06:00:00","ND","ND","ND","ND","ND","ND","ND","ND","ND","ND","ND","ND"],
    [46788,"2015-09-07T07:00:00","ND","ND","ND","ND","ND","ND","ND","ND","ND","ND","ND","ND"],
    [46789,"2015-09-07T08:00:00","ND","ND","ND","ND","ND","ND","ND","ND","ND","ND","ND","ND"],
    [46790,"2015-09-07T09:00:00","ND","ND","ND","ND","ND","ND","ND","ND","ND","ND","ND","ND"],
    [46791,"2015-09-07T10:00:00","ND","ND","ND","ND","ND","ND","ND","ND","ND","ND","ND","ND"],
    [46792,"2015-09-07T11:00:00","ND","ND","ND","ND","ND","ND","ND","ND","ND","ND","ND","ND"],
    [46793,"2015-09-07T12:00:00","ND","ND","ND","ND","ND","ND","ND","ND","ND","ND","ND","ND"],
    [46794,"2015-09-07T13:00:00","ND","ND","ND","ND","ND","ND","ND","ND","ND","ND","ND","ND"],
    [46795,"2015-09-07T14:00:00","ND","ND","ND","ND","ND","ND","ND","ND","ND","ND","ND","ND"],
    [46796,"2015-09-07T15:00:00","ND","ND","ND","ND","ND","ND","ND","ND","ND","ND","ND","ND"],
    [46797,"2015-09-07T16:00:00","ND","ND","ND","ND","ND","ND","ND","ND","ND","ND","ND","ND"],
    [46798,"2015-09-07T17:00:00","ND","ND","ND","ND","ND","ND","ND","ND","ND","ND","ND","ND"],
    [46799,"2015-09-07T18:00:00","ND","ND","ND","ND","ND","ND","ND","ND","ND","ND","ND","ND"],
    [46800,"2015-09-07T19:00:00","ND","ND","ND","ND","ND","ND","ND","ND","ND","ND","ND","ND"],
    [46801,"2015-09-07T20:00:00","ND","ND","ND","ND","ND","ND","ND","ND","ND","ND","ND","ND"],
    [46802,"2015-09-07T21:00:00","ND","ND","ND","ND","ND","ND","ND","ND","ND","ND","ND","ND"],
    [46803,"2015-09-07T22:00:00","ND","ND","ND","ND","ND","ND","ND","ND","ND","ND","ND","ND"],
    [46804,"2015-09-07T23:00:00","ND","ND","ND","ND","ND","ND","ND","ND","ND","ND","ND","ND"],
    [46805,"2015-09-08T00:00:00","ND","ND","ND","ND","ND","ND","ND","ND","ND","ND","ND","ND"],
    [46806,"2015-09-08T01:00:00","ND","ND","ND","ND","ND","ND","ND","ND","ND","ND","ND","ND"],
    [46807,"2015-09-08T02:00:00","ND","ND","ND","ND","ND","ND","ND","ND","ND","ND","ND","ND"],
    [46808,"2015-09-08T03:00:00","ND","ND","ND","ND","ND","ND","ND","ND","ND","ND","ND","ND"],
    [46809,"2015-09-08T04:00:00","ND","ND","ND","ND","ND","ND","ND","ND","ND","ND","ND","ND"],
    [46810,"2015-09-08T05:00:00","ND","ND","ND","ND","ND","ND","ND","ND","ND","ND","ND","ND"],
    [46811,"2015-09-08T06:00:00","ND","ND","ND","ND","ND","ND","ND","ND","ND","ND","ND","ND"],
    [46812,"2015-09-08T07:00:00","ND","ND","ND","ND","ND","ND","ND","ND","ND","ND","ND","ND"],
    [46813,"2015-09-08T08:00:00","ND","ND","ND","ND","ND","ND","ND","ND","ND","ND","ND","ND"],
    [46814,"2015-09-08T09:00:00","ND","ND","ND","ND","ND","ND","ND","ND","ND","ND","ND","ND"],
    [46815,"2015-09-08T10:00:00","ND","ND","ND","ND","ND","ND","ND","ND","ND","ND","ND","ND"],
    [46816,"2015-09-08T11:00:00","ND","ND","ND","ND","ND","ND","ND","ND","ND","ND","ND","ND"],
    [46817,"2015-09-08T12:00:00","ND","ND","ND","ND","ND","ND","ND","ND","ND","ND","ND","ND"],
    [46818,"2015-09-08T13:00:00","ND","ND","ND","ND","ND","ND","ND","ND","ND","ND","ND","ND"],
    [46819,"2015-09-08T14:00:00","ND","ND","ND","ND","ND","ND","ND","ND","ND","ND","ND","ND"],
    [46820,"2015-09-08T15:00:00","ND","ND","ND","ND","ND","ND","ND","ND","ND","ND","ND","ND"],
    [46821,"2015-09-08T16:00:00","ND","ND","ND","ND","ND","ND","ND","ND","ND","ND","ND","ND"],
    [46822,"2015-09-08T17:00:00","ND","ND","ND","ND","ND","ND","ND","ND","ND","ND","ND","ND"],
    [46823,"2015-09-08T18:00:00","ND","ND","ND","ND","ND","ND","ND","ND","ND","ND","ND","ND"],
    [46824,"2015-09-08T19:00:00","ND","ND","ND","ND","ND","ND","ND","ND","ND","ND","ND","ND"],
    [46825,"2015-09-08T20:00:00","ND","ND","ND","ND","ND","ND","ND","ND","ND","ND","ND","ND"],
    [46826,"2015-09-08T21:00:00","ND","ND","ND","ND","ND","ND","ND","ND","ND","ND","ND","ND"],
    [46827,"2015-09-08T22:00:00","ND","ND","ND","ND","ND","ND","ND","ND","ND","ND","ND","ND"],
    [46828,"2015-09-08T23:00:00","ND","ND","ND","ND","ND","ND","ND","ND","ND","ND","ND","ND"],
    [46829,"2015-09-09T00:00:00","ND","ND","ND","ND","ND","ND","ND","ND","ND","ND","ND","ND"],
    [46830,"2015-09-09T01:00:00","ND","ND","ND","ND","ND","ND","ND","ND","ND","ND","ND","ND"],
    [46831,"2015-09-09T02:00:00","ND","ND","ND","ND","ND","ND","ND","ND","ND","ND","ND","ND"],
    [46832,"2015-09-09T03:00:00","ND","ND","ND","ND","ND","ND","ND","ND","ND","ND","ND","ND"],
    [46833,"2015-09-09T04:00:00","ND","ND","ND","ND","ND","ND","ND","ND","ND","ND","ND","ND"],
    [46834,"2015-09-09T05:00:00","ND","ND","ND","ND","ND","ND","ND","ND","ND","ND","ND","ND"],
    [46835,"2015-09-09T06:00:00","ND","ND","ND","ND","ND","ND","ND","ND","ND","ND","ND","ND"],
    [46836,"2015-09-09T07:00:00","ND","ND","ND","ND","ND","ND","ND","ND","ND","ND","ND","ND"],
    [46837,"2015-09-09T08:00:00","ND","ND","ND","ND","ND","ND","ND","ND","ND","ND","ND","ND"],
    [46838,"2015-09-09T09:00:00","ND","ND","ND","ND","ND","ND","ND","ND","ND","ND","ND","ND"],
    [46839,"2015-09-09T10:00:00","ND","ND","ND","ND","ND","ND","ND","ND","ND","ND","ND","ND"],
    [46840,"2015-09-09T11:00:00","ND","ND","ND","ND","ND","ND","ND","ND","ND","ND","ND","ND"],
    [46841,"2015-09-09T12:00:00","ND","ND","ND","ND","ND","ND","ND","ND","ND","ND","ND","ND"],
    [46842,"2015-09-09T13:00:00","ND","ND","ND","ND","ND","ND","ND","ND","ND","ND","ND","ND"],
    [46843,"2015-09-09T14:00:00","ND","ND","ND","ND","ND","ND","ND","ND","ND","ND","ND","ND"],
    [46844,"2015-09-09T15:00:00","ND","ND","ND","ND","ND","ND","ND","ND","ND","ND","ND","ND"],
    [46845,"2015-09-09T16:00:00","ND","ND","ND","ND","ND","ND","ND","ND","ND","ND","ND","ND"],
    [46846,"2015-09-09T17:00:00","ND","ND","ND","ND","ND","ND","ND","ND","ND","ND","ND","ND"],
    [46847,"2015-09-09T18:00:00","ND","ND","ND","ND","ND","ND","ND","ND","ND","ND","ND","ND"],
    [46848,"2015-09-09T19:00:00","ND","ND","ND","ND","ND","ND","ND","ND","ND","ND","ND","ND"],
    [46849,"2015-09-09T20:00:00","ND","ND","ND","ND","ND","ND","ND","ND","ND","ND","ND","ND"],
    [46850,"2015-09-09T21:00:00","ND","ND","ND","ND","ND","ND","ND","ND","ND","ND","ND","ND"],
    [46851,"2015-09-09T22:00:00","ND","ND","ND","ND","ND","ND","ND","ND","ND","ND","ND","ND"],
    [46852,"2015-09-09T23:00:00","ND","ND","ND","ND","ND","ND","ND","ND","ND","ND","ND","ND"],
    [46853,"2015-09-10T00:00:00","ND","ND","ND","ND","ND","ND","ND","ND","ND","ND","ND","ND"],
    [46854,"2015-09-10T01:00:00","ND","ND","ND","ND","ND","ND","ND","ND","ND","ND","ND","ND"],
    [46855,"2015-09-10T02:00:00","ND","ND","ND","ND","ND","ND","ND","ND","ND","ND","ND","ND"],
    [46856,"2015-09-10T03:00:00","ND","ND","ND","ND","ND","ND","ND","ND","ND","ND","ND","ND"],
    [46857,"2015-09-10T04:00:00","ND","ND","ND","ND","ND","ND","ND","ND","ND","ND","ND","ND"],
    [46858,"2015-09-10T05:00:00","ND","ND","ND","ND","ND","ND","ND","ND","ND","ND","ND","ND"],
    [46859,"2015-09-10T06:00:00","ND","ND","ND","ND","ND","ND","ND","ND","ND","ND","ND","ND"],
    [46860,"2015-09-10T07:00:00","ND","ND","ND","ND","ND","ND","ND","ND","ND","ND","ND","ND"],
    [46861,"2015-09-10T08:00:00","ND","ND","ND","ND","ND","ND","ND","ND","ND","ND","ND","ND"],
    [46862,"2015-09-10T09:00:00","ND","ND","ND","ND","ND","ND","ND","ND","ND","ND","ND","ND"],
    [46863,"2015-09-10T10:00:00","ND","ND","ND","ND","ND","ND","ND","ND","ND","ND","ND","ND"],
    [46864,"2015-09-10T11:00:00","ND","ND","ND","ND","ND","ND","ND","ND","ND","ND","ND","ND"],
    [46865,"2015-09-10T12:00:00","ND","ND","ND","ND","ND","ND","ND","ND","ND","ND","ND","ND"],
    [46866,"2015-09-10T13:00:00","ND","ND","ND","ND","ND","ND","ND","ND","ND","ND","ND","ND"],
    [46867,"2015-09-10T14:00:00","ND","ND","ND","ND","ND","ND","ND","ND","ND","ND","ND","ND"],
    [46868,"2015-09-10T15:00:00","ND","ND","ND","ND","ND","ND","ND","ND","ND","ND","ND","ND"],
    [46869,"2015-09-10T16:00:00","ND","ND","ND","ND","ND","ND","ND","ND","ND","ND","ND","ND"],
    [46870,"2015-09-10T17:00:00","ND","ND","ND","ND","ND","ND","ND","ND","ND","ND","ND","ND"],
    [46871,"2015-09-10T18:00:00","ND","ND","ND","ND","ND","ND","ND","ND","ND","ND","ND","ND"],
    [46872,"2015-09-10T19:00:00","ND","ND","ND","ND","ND","ND","ND","ND","ND","ND","ND","ND"],
    [46873,"2015-09-10T20:00:00","ND","ND","ND","ND","ND","ND","ND","ND","ND","ND","ND","ND"],
    [46874,"2015-09-10T21:00:00","ND","ND","ND","ND","ND","ND","ND","ND","ND","ND","ND","ND"],
    [46875,"2015-09-10T22:00:00","ND","ND","ND","ND","ND","ND","ND","ND","ND","ND","ND","ND"],
    [46876,"2015-09-10T23:00:00","ND","ND","ND","ND","ND","ND","ND","ND","ND","ND","ND","ND"],
    [46877,"2015-09-11T00:00:00","ND","ND","ND","ND","ND","ND","ND","ND","ND","ND","ND","ND"],
    [46878,"2015-09-11T01:00:00","ND","ND","ND","ND","ND","ND","ND","ND","ND","ND","ND","ND"],
    [46879,"2015-09-11T02:00:00","ND","ND","ND","ND","ND","ND","ND","ND","ND","ND","ND","ND"],
    [46880,"2015-09-11T03:00:00","ND","ND","ND","ND","ND","ND","ND","ND","ND","ND","ND","ND"],
    [46881,"2015-09-11T04:00:00","ND","ND","ND","ND","ND","ND","ND","ND","ND","ND","ND","ND"],
    [46882,"2015-09-11T05:00:00","ND","ND","ND","ND","ND","ND","ND","ND","ND","ND","ND","ND"],
    [46883,"2015-09-11T06:00:00","ND","ND","ND","ND","ND","ND","ND","ND","ND","ND","ND","ND"],
    [46884,"2015-09-11T07:00:00","ND","ND","ND","ND","ND","ND","ND","ND","ND","ND","ND","ND"],
    [46885,"2015-09-11T08:00:00","ND","ND","ND","ND","ND","ND","ND","ND","ND","ND","ND","ND"],
    [46886,"2015-09-11T09:00:00","ND","ND","ND","ND","ND","ND","ND","ND","ND","ND","ND","ND"],
    [46887,"2015-09-11T10:00:00","ND","ND","ND","ND","ND","ND","ND","ND","ND","ND","ND","ND"],
    [46888,"2015-09-11T11:00:00","ND","ND","ND","ND","ND","ND","ND","ND","ND","ND","ND","ND"],
    [46889,"2015-09-11T12:00:00","ND","ND","ND","ND","ND","ND","ND","ND","ND","ND","ND","ND"],
    [46890,"2015-09-11T13:00:00","ND","ND","ND","ND","ND","ND","ND","ND","ND","ND","ND","ND"],
    [46891,"2015-09-11T14:00:00","ND","ND","ND","ND","ND","ND","ND","ND","ND","ND","ND","ND"],
    [46892,"2015-09-11T15:00:00","ND","ND","ND","ND","ND","ND","ND","ND","ND","ND","ND","ND"],
    [46893,"2015-09-11T16:00:00","ND","ND","ND","ND","ND","ND","ND","ND","ND","ND","ND","ND"],
    [46894,"2015-09-11T17:00:00","ND","ND","ND","ND","ND","ND","ND","ND","ND","ND","ND","ND"],
    [46895,"2015-09-11T18:00:00","ND","ND","ND","ND","ND","ND","ND","ND","ND","ND","ND","ND"],
    [46896,"2015-09-11T19:00:00","ND","ND","ND","ND","ND","ND","ND","ND","ND","ND","ND","ND"],
    [46897,"2015-09-11T20:00:00","ND","ND","ND","ND","ND","ND","ND","ND","ND","ND","ND","ND"],
    [46898,"2015-09-11T21:00:00","ND","ND","ND","ND","ND","ND","ND","ND","ND","ND","ND","ND"],
    [46899,"2015-09-11T22:00:00","ND","ND","ND","ND","ND","ND","ND","ND","ND","ND","ND","ND"],
    [46900,"2015-09-11T23:00:00","ND","ND","ND","ND","ND","ND","ND","ND","ND","ND","ND","ND"],
    [46901,"2015-09-12T00:00:00","ND","ND","ND","ND","ND","ND","ND","ND","ND","ND","ND","ND"],
    [46902,"2015-09-12T01:00:00","ND","ND","ND","ND","ND","ND","ND","ND","ND","ND","ND","ND"],
    [46903,"2015-09-12T02:00:00","ND","ND","ND","ND","ND","ND","ND","ND","ND","ND","ND","ND"],
    [46904,"2015-09-12T03:00:00","ND","ND","ND","ND","ND","ND","ND","ND","ND","ND","ND","ND"],
    [46905,"2015-09-12T04:00:00","ND","ND","ND","ND","ND","ND","ND","ND","ND","ND","ND","ND"],
    [46906,"2015-09-12T05:00:00","ND","ND","ND","ND","ND","ND","ND","ND","ND","ND","ND","ND"],
    [46907,"2015-09-12T06:00:00","ND","ND","ND","ND","ND","ND","ND","ND","ND","ND","ND","ND"],
    [46908,"2015-09-12T07:00:00","ND","ND","ND","ND","ND","ND","ND","ND","ND","ND","ND","ND"],
    [46909,"2015-09-12T08:00:00","ND","ND","ND","ND","ND","ND","ND","ND","ND","ND","ND","ND"],
    [46910,"2015-09-12T09:00:00","ND","ND","ND","ND","ND","ND","ND","ND","ND","ND","ND","ND"],
    [46911,"2015-09-12T10:00:00","ND","ND","ND","ND","ND","ND","ND","ND","ND","ND","ND","ND"],
    [46912,"2015-09-12T11:00:00","ND","ND","ND","ND","ND","ND","ND","ND","ND","ND","ND","ND"],
    [46913,"2015-09-12T12:00:00","ND","ND","ND","ND","ND","ND","ND","ND","ND","ND","ND","ND"],
    [46914,"2015-09-12T13:00:00","ND","ND","ND","ND","ND","ND","ND","ND","ND","ND","ND","ND"],
    [46915,"2015-09-12T14:00:00","ND","ND","ND","ND","ND","ND","ND","ND","ND","ND","ND","ND"],
    [46916,"2015-09-12T15:00:00","ND","ND","ND","ND","ND","ND","ND","ND","ND","ND","ND","ND"],
    [46917,"2015-09-12T16:00:00","ND","ND","ND","ND","ND","ND","ND","ND","ND","ND","ND","ND"],
    [46918,"2015-09-12T17:00:00","ND","ND","ND","ND","ND","ND","ND","ND","ND","ND","ND","ND"],
    [46919,"2015-09-12T18:00:00","ND","ND","ND","ND","ND","ND","ND","ND","ND","ND","ND","ND"],
    [46920,"2015-09-12T19:00:00","ND","ND","ND","ND","ND","ND","ND","ND","ND","ND","ND","ND"],
    [46921,"2015-09-12T20:00:00","ND","ND","ND","ND","ND","ND","ND","ND","ND","ND","ND","ND"],
    [46922,"2015-09-12T21:00:00","ND","ND","ND","ND","ND","ND","ND","ND","ND","ND","ND","ND"],
    [46923,"2015-09-12T22:00:00","ND","ND","ND","ND","ND","ND","ND","ND","ND","ND","ND","ND"],
    [46924,"2015-09-12T23:00:00","ND","ND","ND","ND","ND","ND","ND","ND","ND","ND","ND","ND"],
    [46925,"2015-09-13T00:00:00","ND","ND","ND","ND","ND","ND","ND","ND","ND","ND","ND","ND"],
    [46926,"2015-09-13T01:00:00","ND","ND","ND","ND","ND","ND","ND","ND","ND","ND","ND","ND"],
    [46927,"2015-09-13T02:00:00","ND","ND","ND","ND","ND","ND","ND","ND","ND","ND","ND","ND"],
    [46928,"2015-09-13T03:00:00","ND","ND","ND","ND","ND","ND","ND","ND","ND","ND","ND","ND"],
    [46929,"2015-09-13T04:00:00","ND","ND","ND","ND","ND","ND","ND","ND","ND","ND","ND","ND"],
    [46930,"2015-09-13T05:00:00","ND","ND","ND","ND","ND","ND","ND","ND","ND","ND","ND","ND"],
    [46931,"2015-09-13T06:00:00","ND","ND","ND","ND","ND","ND","ND","ND","ND","ND","ND","ND"],
    [46932,"2015-09-13T07:00:00","ND","ND","ND","ND","ND","ND","ND","ND","ND","ND","ND","ND"],
    [46933,"2015-09-13T08:00:00","ND","ND","ND","ND","ND","ND","ND","ND","ND","ND","ND","ND"],
    [46934,"2015-09-13T09:00:00","ND","ND","ND","ND","ND","ND","ND","ND","ND","ND","ND","ND"],
    [46935,"2015-09-13T10:00:00","ND","ND","ND","ND","ND","ND","ND","ND","ND","ND","ND","ND"],
    [46936,"2015-09-13T11:00:00","ND","ND","ND","ND","ND","ND","ND","ND","ND","ND","ND","ND"],
    [46937,"2015-09-13T12:00:00","ND","ND","ND","ND","ND","ND","ND","ND","ND","ND","ND","ND"],
    [46938,"2015-09-13T13:00:00","ND","ND","ND","ND","ND","ND","ND","ND","ND","ND","ND","ND"],
    [46939,"2015-09-13T14:00:00","ND","ND","ND","ND","ND","ND","ND","ND","ND","ND","ND","ND"],
    [46940,"2015-09-13T15:00:00","ND","ND","ND","ND","ND","ND","ND","ND","ND","ND","ND","ND"],
    [46941,"2015-09-13T16:00:00","ND","ND","ND","ND","ND","ND","ND","ND","ND","ND","ND","ND"],
    [46942,"2015-09-13T17:00:00","ND","ND","ND","ND","ND","ND","ND","ND","ND","ND","ND","ND"],
    [46943,"2015-09-13T18:00:00","ND","ND","ND","ND","ND","ND","ND","ND","ND","ND","ND","ND"],
    [46944,"2015-09-13T19:00:00","ND","ND","ND","ND","ND","ND","ND","ND","ND","ND","ND","ND"],
    [46945,"2015-09-13T20:00:00","ND","ND","ND","ND","ND","ND","ND","ND","ND","ND","ND","ND"],
    [46946,"2015-09-13T21:00:00","ND","ND","ND","ND","ND","ND","ND","ND","ND","ND","ND","ND"],
    [46947,"2015-09-13T22:00:00","ND","ND","ND","ND","ND","ND","ND","ND","ND","ND","ND","ND"],
    [46948,"2015-09-13T23:00:00","ND","ND","ND","ND","ND","ND","ND","ND","ND","ND","ND","ND"],
    [46949,"2015-09-14T00:00:00","ND","ND","ND","ND","ND","ND","ND","ND","ND","ND","ND","ND"],
    [46950,"2015-09-14T01:00:00","ND","ND","ND","ND","ND","ND","ND","ND","ND","ND","ND","ND"],
    [46951,"2015-09-14T02:00:00","ND","ND","ND","ND","ND","ND","ND","ND","ND","ND","ND","ND"],
    [46952,"2015-09-14T03:00:00","ND","ND","ND","ND","ND","ND","ND","ND","ND","ND","ND","ND"],
    [46953,"2015-09-14T04:00:00","ND","ND","ND","ND","ND","ND","ND","ND","ND","ND","ND","ND"],
    [46954,"2015-09-14T05:00:00","ND","ND","ND","ND","ND","ND","ND","ND","ND","ND","ND","ND"],
    [46955,"2015-09-14T06:00:00","ND","ND","ND","ND","ND","ND","ND","ND","ND","ND","ND","ND"],
    [46956,"2015-09-14T07:00:00","ND","ND","ND","ND","ND","ND","ND","ND","ND","ND","ND","ND"],
    [46957,"2015-09-14T08:00:00","ND","ND","ND","ND","ND","ND","ND","ND","ND","ND","ND","ND"],
    [46958,"2015-09-14T09:00:00","ND","ND","ND","ND","ND","ND","ND","ND","ND","ND","ND","ND"],
    [46959,"2015-09-14T10:00:00","ND","ND","ND","ND","ND","ND","ND","ND","ND","ND","ND","ND"],
    [46960,"2015-09-14T11:00:00","ND","ND","ND","ND","ND","ND","ND","ND","ND","ND","ND","ND"],
    [46961,"2015-09-14T12:00:00","ND","ND","ND","ND","ND","ND","ND","ND","ND","ND","ND","ND"],
    [46962,"2015-09-14T13:00:00","ND","ND","ND","ND","ND","ND","ND","ND","ND","ND","ND","ND"],
    [46963,"2015-09-14T14:00:00","ND","ND","ND","ND","ND","ND","ND","ND","ND","ND","ND","ND"],
    [46964,"2015-09-14T15:00:00","ND","ND","ND","ND","ND","ND","ND","ND","ND","ND","ND","ND"],
    [46965,"2015-09-14T16:00:00","ND","ND","ND","ND","ND","ND","ND","ND","ND","ND","ND","ND"],
    [46966,"2015-09-14T17:00:00","ND","ND","ND","ND","ND","ND","ND","ND","ND","ND","ND","ND"],
    [46967,"2015-09-14T18:00:00","ND","ND","ND","ND","ND","ND","ND","ND","ND","ND","ND","ND"],
    [46968,"2015-09-14T19:00:00","ND","ND","ND","ND","ND","ND","ND","ND","ND","ND","ND","ND"],
    [46969,"2015-09-14T20:00:00","ND","ND","ND","ND","ND","ND","ND","ND","ND","ND","ND","ND"],
    [46970,"2015-09-14T21:00:00","ND","ND","ND","ND","ND","ND","ND","ND","ND","ND","ND","ND"],
    [46971,"2015-09-14T22:00:00","ND","ND","ND","ND","ND","ND","ND","ND","ND","ND","ND","ND"],
    [46972,"2015-09-14T23:00:00","ND","ND","ND","ND","ND","ND","ND","ND","ND","ND","ND","ND"],
    [46973,"2015-09-15T00:00:00","ND","ND","ND","ND","ND","ND","ND","ND","ND","ND","ND","ND"],
    [46974,"2015-09-15T01:00:00","ND","ND","ND","ND","ND","ND","ND","ND","ND","ND","ND","ND"],
    [46975,"2015-09-15T02:00:00","ND","ND","ND","ND","ND","ND","ND","ND","ND","ND","ND","ND"],
    [46976,"2015-09-15T03:00:00","ND","ND","ND","ND","ND","ND","ND","ND","ND","ND","ND","ND"],
    [46977,"2015-09-15T04:00:00","ND","ND","ND","ND","ND","ND","ND","ND","ND","ND","ND","ND"],
    [46978,"2015-09-15T05:00:00","ND","ND","ND","ND","ND","ND","ND","ND","ND","ND","ND","ND"],
    [46979,"2015-09-15T06:00:00","ND","ND","ND","ND","ND","ND","ND","ND","ND","ND","ND","ND"],
    [46980,"2015-09-15T07:00:00","ND","ND","ND","ND","ND","ND","ND","ND","ND","ND","ND","ND"],
    [46981,"2015-09-15T08:00:00","ND","ND","ND","ND","ND","ND","ND","ND","ND","ND","ND","ND"],
    [46982,"2015-09-15T09:00:00","ND","ND","ND","ND","ND","ND","ND","ND","ND","ND","ND","ND"],
    [46983,"2015-09-15T10:00:00","ND","ND","ND","ND","ND","ND","ND","ND","ND","ND","ND","ND"],
    [46984,"2015-09-15T11:00:00","ND","ND","ND","ND","ND","ND","ND","ND","ND","ND","ND","ND"],
    [46985,"2015-09-15T12:00:00","ND","ND","ND","ND","ND","ND","ND","ND","ND","ND","ND","ND"],
    [46986,"2015-09-15T13:00:00","ND","ND","ND","ND","ND","ND","ND","ND","ND","ND","ND","ND"],
    [46987,"2015-09-15T14:00:00","ND","ND","ND","ND","ND","ND","ND","ND","ND","ND","ND","ND"],
    [46988,"2015-09-15T15:00:00","ND","ND","ND","ND","ND","ND","ND","ND","ND","ND","ND","ND"],
    [46989,"2015-09-15T16:00:00","ND","ND","ND","ND","ND","ND","ND","ND","ND","ND","ND","ND"],
    [46990,"2015-09-15T17:00:00","ND","ND","ND","ND","ND","ND","ND","ND","ND","ND","ND","ND"],
    [46991,"2015-09-15T18:00:00","ND","ND","ND","ND","ND","ND","ND","ND","ND","ND","ND","ND"],
    [46992,"2015-09-15T19:00:00","ND","ND","ND","ND","ND","ND","ND","ND","ND","ND","ND","ND"],
    [46993,"2015-09-15T20:00:00","ND","ND","ND","ND","ND","ND","ND","ND","ND","ND","ND","ND"],
    [46994,"2015-09-15T21:00:00","ND","ND","ND","ND","ND","ND","ND","ND","ND","ND","ND","ND"],
    [46995,"2015-09-15T22:00:00","ND","ND","ND","ND","ND","ND","ND","ND","ND","ND","ND","ND"],
    [46996,"2015-09-15T23:00:00","ND","ND","ND","ND","ND","ND","ND","ND","ND","ND","ND","ND"],
    [46997,"2015-09-16T00:00:00","ND","ND","ND","ND","ND","ND","ND","ND","ND","ND","ND","ND"],
    [46998,"2015-09-16T01:00:00","ND","ND","ND","ND","ND","ND","ND","ND","ND","ND","ND","ND"],
    [46999,"2015-09-16T02:00:00","ND","ND","ND","ND","ND","ND","ND","ND","ND","ND","ND","ND"],
    [47000,"2015-09-16T03:00:00","ND","ND","ND","ND","ND","ND","ND","ND","ND","ND","ND","ND"],
    [47001,"2015-09-16T04:00:00","ND","ND","ND","ND","ND","ND","ND","ND","ND","ND","ND","ND"],
    [47002,"2015-09-16T05:00:00","ND","ND","ND","ND","ND","ND","ND","ND","ND","ND","ND","ND"],
    [47003,"2015-09-16T06:00:00","ND","ND","ND","ND","ND","ND","ND","ND","ND","ND","ND","ND"],
    [47004,"2015-09-16T07:00:00","ND","ND","ND","ND","ND","ND","ND","ND","ND","ND","ND","ND"],
    [47005,"2015-09-16T08:00:00","ND","ND","ND","ND","ND","ND","ND","ND","ND","ND","ND","ND"],
    [47006,"2015-09-16T09:00:00","ND","ND","ND","ND","ND","ND","ND","ND","ND","ND","ND","ND"],
    [47007,"2015-09-16T10:00:00","ND","ND","ND","ND","ND","ND","ND","ND","ND","ND","ND","ND"],
    [47008,"2015-09-16T11:00:00","ND","ND","ND","ND","ND","ND","ND","ND","ND","ND","ND","ND"],
    [47009,"2015-09-16T12:00:00","ND","ND","ND","ND","ND","ND","ND","ND","ND","ND","ND","ND"],
    [47010,"2015-09-16T13:00:00","ND","ND","ND","ND","ND","ND","ND","ND","ND","ND","ND","ND"],
    [47011,"2015-09-16T14:00:00","ND","ND","ND","ND","ND","ND","ND","ND","ND","ND","ND","ND"],
    [47012,"2015-09-16T15:00:00","ND","ND","ND","ND","ND","ND","ND","ND","ND","ND","ND","ND"],
    [47013,"2015-09-16T16:00:00","ND","ND","ND","ND","ND","ND","ND","ND","ND","ND","ND","ND"],
    [47014,"2015-09-16T17:00:00","ND","ND","ND","ND","ND","ND","ND","ND","ND","ND","ND","ND"],
    [47015,"2015-09-16T18:00:00","ND","ND","ND","ND","ND","ND","ND","ND","ND","ND","ND","ND"],
    [47016,"2015-09-16T19:00:00","ND","ND","ND","ND","ND","ND","ND","ND","ND","ND","ND","ND"],
    [47017,"2015-09-16T20:00:00","ND","ND","ND","ND","ND","ND","ND","ND","ND","ND","ND","ND"],
    [47018,"2015-09-16T21:00:00","ND","ND","ND","ND","ND","ND","ND","ND","ND","ND","ND","ND"],
    [47019,"2015-09-16T22:00:00","ND","ND","ND","ND","ND","ND","ND","ND","ND","ND","ND","ND"],
    [47020,"2015-09-16T23:00:00","ND","ND","ND","ND","ND","ND","ND","ND","ND","ND","ND","ND"],
    [47021,"2015-09-17T00:00:00","ND","ND","ND","ND","ND","ND","ND","ND","ND","ND","ND","ND"],
    [47022,"2015-09-17T01:00:00","ND","ND","ND","ND","ND","ND","ND","ND","ND","ND","ND","ND"],
    [47023,"2015-09-17T02:00:00","ND","ND","ND","ND","ND","ND","ND","ND","ND","ND","ND","ND"],
    [47024,"2015-09-17T03:00:00","ND","ND","ND","ND","ND","ND","ND","ND","ND","ND","ND","ND"],
    [47025,"2015-09-17T04:00:00","ND","ND","ND","ND","ND","ND","ND","ND","ND","ND","ND","ND"],
    [47026,"2015-09-17T05:00:00","ND","ND","ND","ND","ND","ND","ND","ND","ND","ND","ND","ND"],
    [47027,"2015-09-17T06:00:00","ND","ND","ND","ND","ND","ND","ND","ND","ND","ND","ND","ND"],
    [47028,"2015-09-17T07:00:00","ND","ND","ND","ND","ND","ND","ND","ND","ND","ND","ND","ND"],
    [47029,"2015-09-17T08:00:00","ND","ND","ND","ND","ND","ND","ND","ND","ND","ND","ND","ND"],
    [47030,"2015-09-17T09:00:00","ND","ND","ND","ND","ND","ND","ND","ND","ND","ND","ND","ND"],
    [47031,"2015-09-17T10:00:00","ND","ND","ND","ND","ND","ND","ND","ND","ND","ND","ND","ND"],
    [47032,"2015-09-17T11:00:00","ND","ND","ND","ND","ND","ND","ND","ND","ND","ND","ND","ND"],
    [47033,"2015-09-17T12:00:00","ND","ND","ND","ND","ND","ND","ND","ND","ND","ND","ND","ND"],
    [47034,"2015-09-17T13:00:00","ND","ND","ND","ND","ND","ND","ND","ND","ND","ND","ND","ND"],
    [47035,"2015-09-17T14:00:00","ND","ND","ND","ND","ND","ND","ND","ND","ND","ND","ND","ND"],
    [47036,"2015-09-17T15:00:00","ND","ND","ND","ND","ND","ND","ND","ND","ND","ND","ND","ND"],
    [47037,"2015-09-17T16:00:00","ND","ND","ND","ND","ND","ND","ND","ND","ND","ND","ND","ND"],
    [47038,"2015-09-17T17:00:00","ND","ND","ND","ND","ND","ND","ND","ND","ND","ND","ND","ND"],
    [47039,"2015-09-17T18:00:00","ND","ND","ND","ND","ND","ND","ND","ND","ND","ND","ND","ND"],
    [47040,"2015-09-17T19:00:00","ND","ND","ND","ND","ND","ND","ND","ND","ND","ND","ND","ND"],
    [47041,"2015-09-17T20:00:00","ND","ND","ND","ND","ND","ND","ND","ND","ND","ND","ND","ND"],
    [47042,"2015-09-17T21:00:00","ND","ND","ND","ND","ND","ND","ND","ND","ND","ND","ND","ND"],
    [47043,"2015-09-17T22:00:00","ND","ND","ND","ND","ND","ND","ND","ND","ND","ND","ND","ND"],
    [47044,"2015-09-17T23:00:00","ND","ND","ND","ND","ND","ND","ND","ND","ND","ND","ND","ND"],
    [47045,"2015-09-18T00:00:00","ND","ND","ND","ND","ND","ND","ND","ND","ND","ND","ND","ND"],
    [47046,"2015-09-18T01:00:00","ND","ND","ND","ND","ND","ND","ND","ND","ND","ND","ND","ND"],
    [47047,"2015-09-18T02:00:00","ND","ND","ND","ND","ND","ND","ND","ND","ND","ND","ND","ND"],
    [47048,"2015-09-18T03:00:00","ND","ND","ND","ND","ND","ND","ND","ND","ND","ND","ND","ND"],
    [47049,"2015-09-18T04:00:00","ND","ND","ND","ND","ND","ND","ND","ND","ND","ND","ND","ND"],
    [47050,"2015-09-18T05:00:00","ND","ND","ND","ND","ND","ND","ND","ND","ND","ND","ND","ND"],
    [47051,"2015-09-18T06:00:00","ND","ND","ND","ND","ND","ND","ND","ND","ND","ND","ND","ND"],
    [47052,"2015-09-18T07:00:00","ND","ND","ND","ND","ND","ND","ND","ND","ND","ND","ND","ND"],
    [47053,"2015-09-18T08:00:00","ND","ND","ND","ND","ND","ND","ND","ND","ND","ND","ND","ND"],
    [47054,"2015-09-18T09:00:00","ND","ND","ND","ND","ND","ND","ND","ND","ND","ND","ND","ND"],
    [47055,"2015-09-18T10:00:00","ND","ND","ND","ND","ND","ND","ND","ND","ND","ND","ND","ND"],
    [47056,"2015-09-18T11:00:00","ND","ND","ND","ND","ND","ND","ND","ND","ND","ND","ND","ND"],
    [47057,"2015-09-18T12:00:00","ND","ND","ND","ND","ND","ND","ND","ND","ND","ND","ND","ND"],
    [47058,"2015-09-18T13:00:00","ND","ND","ND","ND","ND","ND","ND","ND","ND","ND","ND","ND"],
    [47059,"2015-09-18T14:00:00","ND","ND","ND","ND","ND","ND","ND","ND","ND","ND","ND","ND"],
    [47060,"2015-09-18T15:00:00","ND","ND","ND","ND","ND","ND","ND","ND","ND","ND","ND","ND"],
    [47061,"2015-09-18T16:00:00","ND","ND","ND","ND","ND","ND","ND","ND","ND","ND","ND","ND"],
    [47062,"2015-09-18T17:00:00","ND","ND","ND","ND","ND","ND","ND","ND","ND","ND","ND","ND"],
    [47063,"2015-09-18T18:00:00","ND","ND","ND","ND","ND","ND","ND","ND","ND","ND","ND","ND"],
    [47064,"2015-09-18T19:00:00","ND","ND","ND","ND","ND","ND","ND","ND","ND","ND","ND","ND"],
    [47065,"2015-09-18T20:00:00","ND","ND","ND","ND","ND","ND","ND","ND","ND","ND","ND","ND"],
    [47066,"2015-09-18T21:00:00","ND","ND","ND","ND","ND","ND","ND","ND","ND","ND","ND","ND"],
    [47067,"2015-09-18T22:00:00","ND","ND","ND","ND","ND","ND","ND","ND","ND","ND","ND","ND"],
    [47068,"2015-09-18T23:00:00","ND","ND","ND","ND","ND","ND","ND","ND","ND","ND","ND","ND"],
    [47069,"2015-09-19T00:00:00","ND","ND","ND","ND","ND","ND","ND","ND","ND","ND","ND","ND"],
    [47070,"2015-09-19T01:00:00","ND","ND","ND","ND","ND","ND","ND","ND","ND","ND","ND","ND"],
    [47071,"2015-09-19T02:00:00","ND","ND","ND","ND","ND","ND","ND","ND","ND","ND","ND","ND"],
    [47072,"2015-09-19T03:00:00","ND","ND","ND","ND","ND","ND","ND","ND","ND","ND","ND","ND"],
    [47073,"2015-09-19T04:00:00","ND","ND","ND","ND","ND","ND","ND","ND","ND","ND","ND","ND"],
    [47074,"2015-09-19T05:00:00","ND","ND","ND","ND","ND","ND","ND","ND","ND","ND","ND","ND"],
    [47075,"2015-09-19T06:00:00","ND","ND","ND","ND","ND","ND","ND","ND","ND","ND","ND","ND"],
    [47076,"2015-09-19T07:00:00","ND","ND","ND","ND","ND","ND","ND","ND","ND","ND","ND","ND"],
    [47077,"2015-09-19T08:00:00","ND","ND","ND","ND","ND","ND","ND","ND","ND","ND","ND","ND"],
    [47078,"2015-09-19T09:00:00","ND","ND","ND","ND","ND","ND","ND","ND","ND","ND","ND","ND"],
    [47079,"2015-09-19T10:00:00","ND","ND","ND","ND","ND","ND","ND","ND","ND","ND","ND","ND"],
    [47080,"2015-09-19T11:00:00","ND","ND","ND","ND","ND","ND","ND","ND","ND","ND","ND","ND"],
    [47081,"2015-09-19T12:00:00","ND","ND","ND","ND","ND","ND","ND","ND","ND","ND","ND","ND"],
    [47082,"2015-09-19T13:00:00","ND","ND","ND","ND","ND","ND","ND","ND","ND","ND","ND","ND"],
    [47083,"2015-09-19T14:00:00","ND","ND","ND","ND","ND","ND","ND","ND","ND","ND","ND","ND"],
    [47084,"2015-09-19T15:00:00","ND","ND","ND","ND","ND","ND","ND","ND","ND","ND","ND","ND"],
    [47085,"2015-09-19T16:00:00","ND","ND","ND","ND","ND","ND","ND","ND","ND","ND","ND","ND"],
    [47086,"2015-09-19T17:00:00","ND","ND","ND","ND","ND","ND","ND","ND","ND","ND","ND","ND"],
    [47087,"2015-09-19T18:00:00","ND","ND","ND","ND","ND","ND","ND","ND","ND","ND","ND","ND"],
    [47088,"2015-09-19T19:00:00","ND","ND","ND","ND","ND","ND","ND","ND","ND","ND","ND","ND"],
    [47089,"2015-09-19T20:00:00","ND","ND","ND","ND","ND","ND","ND","ND","ND","ND","ND","ND"],
    [47090,"2015-09-19T21:00:00","ND","ND","ND","ND","ND","ND","ND","ND","ND","ND","ND","ND"],
    [47091,"2015-09-19T22:00:00","ND","ND","ND","ND","ND","ND","ND","ND","ND","ND","ND","ND"],
    [47092,"2015-09-19T23:00:00","ND","ND","ND","ND","ND","ND","ND","ND","ND","ND","ND","ND"],
    [47093,"2015-09-20T00:00:00","ND","ND","ND","ND","ND","ND","ND","ND","ND","ND","ND","ND"],
    [47094,"2015-09-20T01:00:00","ND","ND","ND","ND","ND","ND","ND","ND","ND","ND","ND","ND"],
    [47095,"2015-09-20T02:00:00","ND","ND","ND","ND","ND","ND","ND","ND","ND","ND","ND","ND"],
    [47096,"2015-09-20T03:00:00","ND","ND","ND","ND","ND","ND","ND","ND","ND","ND","ND","ND"],
    [47097,"2015-09-20T04:00:00","ND","ND","ND","ND","ND","ND","ND","ND","ND","ND","ND","ND"],
    [47098,"2015-09-20T05:00:00","ND","ND","ND","ND","ND","ND","ND","ND","ND","ND","ND","ND"],
    [47099,"2015-09-20T06:00:00","ND","ND","ND","ND","ND","ND","ND","ND","ND","ND","ND","ND"],
    [47100,"2015-09-20T07:00:00","ND","ND","ND","ND","ND","ND","ND","ND","ND","ND","ND","ND"],
    [47101,"2015-09-20T08:00:00","ND","ND","ND","ND","ND","ND","ND","ND","ND","ND","ND","ND"],
    [47102,"2015-09-20T09:00:00","ND","ND","ND","ND","ND","ND","ND","ND","ND","ND","ND","ND"],
    [47103,"2015-09-20T10:00:00","ND","ND","ND","ND","ND","ND","ND","ND","ND","ND","ND","ND"],
    [47104,"2015-09-20T11:00:00","ND","ND","ND","ND","ND","ND","ND","ND","ND","ND","ND","ND"],
    [47105,"2015-09-20T12:00:00","ND","ND","ND","ND","ND","ND","ND","ND","ND","ND","ND","ND"],
    [47106,"2015-09-20T13:00:00","ND","ND","ND","ND","ND","ND","ND","ND","ND","ND","ND","ND"],
    [47107,"2015-09-20T14:00:00","ND","ND","ND","ND","ND","ND","ND","ND","ND","ND","ND","ND"],
    [47108,"2015-09-20T15:00:00","ND","ND","ND","ND","ND","ND","ND","ND","ND","ND","ND","ND"],
    [47109,"2015-09-20T16:00:00","ND","ND","ND","ND","ND","ND","ND","ND","ND","ND","ND","ND"],
    [47110,"2015-09-20T17:00:00","ND","ND","ND","ND","ND","ND","ND","ND","ND","ND","ND","ND"],
    [47111,"2015-09-20T18:00:00","ND","ND","ND","ND","ND","ND","ND","ND","ND","ND","ND","ND"],
    [47112,"2015-09-20T19:00:00","ND","ND","ND","ND","ND","ND","ND","ND","ND","ND","ND","ND"],
    [47113,"2015-09-20T20:00:00","ND","ND","ND","ND","ND","ND","ND","ND","ND","ND","ND","ND"],
    [47114,"2015-09-20T21:00:00","ND","ND","ND","ND","ND","ND","ND","ND","ND","ND","ND","ND"],
    [47115,"2015-09-20T22:00:00","ND","ND","ND","ND","ND","ND","ND","ND","ND","ND","ND","ND"],
    [47116,"2015-09-20T23:00:00","ND","ND","ND","ND","ND","ND","ND","ND","ND","ND","ND","ND"],
    [47117,"2015-09-21T00:00:00","ND","ND","ND","ND","ND","ND","ND","ND","ND","ND","ND","ND"],
    [47118,"2015-09-21T01:00:00","ND","ND","ND","ND","ND","ND","ND","ND","ND","ND","ND","ND"],
    [47119,"2015-09-21T02:00:00","ND","ND","ND","ND","ND","ND","ND","ND","ND","ND","ND","ND"],
    [47120,"2015-09-21T03:00:00","ND","ND","ND","ND","ND","ND","ND","ND","ND","ND","ND","ND"],
    [47121,"2015-09-21T04:00:00","ND","ND","ND","ND","ND","ND","ND","ND","ND","ND","ND","ND"],
    [47122,"2015-09-21T05:00:00","ND","ND","ND","ND","ND","ND","ND","ND","ND","ND","ND","ND"],
    [47123,"2015-09-21T06:00:00","ND","ND","ND","ND","ND","ND","ND","ND","ND","ND","ND","ND"],
    [47124,"2015-09-21T07:00:00","ND","ND","ND","ND","ND","ND","ND","ND","ND","ND","ND","ND"],
    [47125,"2015-09-21T08:00:00","ND","ND","ND","ND","ND","ND","ND","ND","ND","ND","ND","ND"],
    [47126,"2015-09-21T09:00:00","ND","ND","ND","ND","ND","ND","ND","ND","ND","ND","ND","ND"],
    [47127,"2015-09-21T10:00:00","ND","ND","ND","ND","ND","ND","ND","ND","ND","ND","ND","ND"],
    [47128,"2015-09-21T11:00:00","ND","ND","ND","ND","ND","ND","ND","ND","ND","ND","ND","ND"],
    [47129,"2015-09-21T12:00:00","ND","ND","ND","ND","ND","ND","ND","ND","ND","ND","ND","ND"],
    [47130,"2015-09-21T13:00:00","ND","ND","ND","ND","ND","ND","ND","ND","ND","ND","ND","ND"],
    [47131,"2015-09-21T14:00:00","ND","ND","ND","ND","ND","ND","ND","ND","ND","ND","ND","ND"],
    [47132,"2015-09-21T15:00:00","ND","ND","ND","ND","ND","ND","ND","ND","ND","ND","ND","ND"],
    [47133,"2015-09-21T16:00:00","ND","ND","ND","ND","ND","ND","ND","ND","ND","ND","ND","ND"],
    [47134,"2015-09-21T17:00:00","ND","ND","ND","ND","ND","ND","ND","ND","ND","ND","ND","ND"],
    [47135,"2015-09-21T18:00:00","ND","ND","ND","ND","ND","ND","ND","ND","ND","ND","ND","ND"],
    [47136,"2015-09-21T19:00:00","ND","ND","ND","ND","ND","ND","ND","ND","ND","ND","ND","ND"],
    [47137,"2015-09-21T20:00:00","ND","ND","ND","ND","ND","ND","ND","ND","ND","ND","ND","ND"],
    [47138,"2015-09-21T21:00:00","ND","ND","ND","ND","ND","ND","ND","ND","ND","ND","ND","ND"],
    [47139,"2015-09-21T22:00:00","ND","ND","ND","ND","ND","ND","ND","ND","ND","ND","ND","ND"],
    [47140,"2015-09-21T23:00:00","ND","ND","ND","ND","ND","ND","ND","ND","ND","ND","ND","ND"],
    [47141,"2015-09-22T00:00:00","ND","ND","ND","ND","ND","ND","ND","ND","ND","ND","ND","ND"],
    [47142,"2015-09-22T01:00:00","ND","ND","ND","ND","ND","ND","ND","ND","ND","ND","ND","ND"],
    [47143,"2015-09-22T02:00:00","ND","ND","ND","ND","ND","ND","ND","ND","ND","ND","ND","ND"],
    [47144,"2015-09-22T03:00:00","ND","ND","ND","ND","ND","ND","ND","ND","ND","ND","ND","ND"],
    [47145,"2015-09-22T04:00:00","ND","ND","ND","ND","ND","ND","ND","ND","ND","ND","ND","ND"],
    [47146,"2015-09-22T05:00:00","ND","ND","ND","ND","ND","ND","ND","ND","ND","ND","ND","ND"],
    [47147,"2015-09-22T06:00:00","ND","ND","ND","ND","ND","ND","ND","ND","ND","ND","ND","ND"],
    [47148,"2015-09-22T07:00:00","ND","ND","ND","ND","ND","ND","ND","ND","ND","ND","ND","ND"],
    [47149,"2015-09-22T08:00:00","ND","ND","ND","ND","ND","ND","ND","ND","ND","ND","ND","ND"],
    [47150,"2015-09-22T09:00:00","ND","ND","ND","ND","ND","ND","ND","ND","ND","ND","ND","ND"],
    [47151,"2015-09-22T10:00:00","ND","ND","ND","ND","ND","ND","ND","ND","ND","ND","ND","ND"],
    [47152,"2015-09-22T11:00:00","ND","ND","ND","ND","ND","ND","ND","ND","ND","ND","ND","ND"],
    [47153,"2015-09-22T12:00:00","ND","ND","ND","ND","ND","ND","ND","ND","ND","ND","ND","ND"],
    [47154,"2015-09-22T13:00:00","ND","ND","ND","ND","ND","ND","ND","ND","ND","ND","ND","ND"],
    [47155,"2015-09-22T14:00:00","ND","ND","ND","ND","ND","ND","ND","ND","ND","ND","ND","ND"],
    [47156,"2015-09-22T15:00:00","ND","ND","ND","ND","ND","ND","ND","ND","ND","ND","ND","ND"],
    [47157,"2015-09-22T16:00:00","ND","ND","ND","ND","ND","ND","ND","ND","ND","ND","ND","ND"],
    [47158,"2015-09-22T17:00:00","ND","ND","ND","ND","ND","ND","ND","ND","ND","ND","ND","ND"],
    [47159,"2015-09-22T18:00:00","ND","ND","ND","ND","ND","ND","ND","ND","ND","ND","ND","ND"],
    [47160,"2015-09-22T19:00:00","ND","ND","ND","ND","ND","ND","ND","ND","ND","ND","ND","ND"],
    [47161,"2015-09-22T20:00:00","ND","ND","ND","ND","ND","ND","ND","ND","ND","ND","ND","ND"],
    [47162,"2015-09-22T21:00:00","ND","ND","ND","ND","ND","ND","ND","ND","ND","ND","ND","ND"],
    [47163,"2015-09-22T22:00:00","ND","ND","ND","ND","ND","ND","ND","ND","ND","ND","ND","ND"],
    [47164,"2015-09-22T23:00:00","ND","ND","ND","ND","ND","ND","ND","ND","ND","ND","ND","ND"],
    [47165,"2015-09-23T00:00:00","ND","ND","ND","ND","ND","ND","ND","ND","ND","ND","ND","ND"],
    [47166,"2015-09-23T01:00:00","ND","ND","ND","ND","ND","ND","ND","ND","ND","ND","ND","ND"],
    [47167,"2015-09-23T02:00:00","ND","ND","ND","ND","ND","ND","ND","ND","ND","ND","ND","ND"],
    [47168,"2015-09-23T03:00:00","ND","ND","ND","ND","ND","ND","ND","ND","ND","ND","ND","ND"],
    [47169,"2015-09-23T04:00:00","ND","ND","ND","ND","ND","ND","ND","ND","ND","ND","ND","ND"],
    [47170,"2015-09-23T05:00:00","ND","ND","ND","ND","ND","ND","ND","ND","ND","ND","ND","ND"],
    [47171,"2015-09-23T06:00:00","ND","ND","ND","ND","ND","ND","ND","ND","ND","ND","ND","ND"],
    [47172,"2015-09-23T07:00:00","ND","ND","ND","ND","ND","ND","ND","ND","ND","ND","ND","ND"],
    [47173,"2015-09-23T08:00:00","ND","ND","ND","ND","ND","ND","ND","ND","ND","ND","ND","ND"],
    [47174,"2015-09-23T09:00:00","ND","ND","ND","ND","ND","ND","ND","ND","ND","ND","ND","ND"],
    [47175,"2015-09-23T10:00:00","ND","ND","ND","ND","ND","ND","ND","ND","ND","ND","ND","ND"],
    [47176,"2015-09-23T11:00:00","ND","ND","ND","ND","ND","ND","ND","ND","ND","ND","ND","ND"],
    [47177,"2015-09-23T12:00:00","ND","ND","ND","ND","ND","ND","ND","ND","ND","ND","ND","ND"],
    [47178,"2015-09-23T13:00:00","ND","ND","ND","ND","ND","ND","ND","ND","ND","ND","ND","ND"],
    [47179,"2015-09-23T14:00:00","ND","ND","ND","ND","ND","ND","ND","ND","ND","ND","ND","ND"],
    [47180,"2015-09-23T15:00:00","ND","ND","ND","ND","ND","ND","ND","ND","ND","ND","ND","ND"],
    [47181,"2015-09-23T16:00:00","ND","ND","ND","ND","ND","ND","ND","ND","ND","ND","ND","ND"],
    [47182,"2015-09-23T17:00:00","ND","ND","ND","ND","ND","ND","ND","ND","ND","ND","ND","ND"],
    [47183,"2015-09-23T18:00:00","ND","ND","ND","ND","ND","ND","ND","ND","ND","ND","ND","ND"],
    [47184,"2015-09-23T19:00:00","ND","ND","ND","ND","ND","ND","ND","ND","ND","ND","ND","ND"],
    [47185,"2015-09-23T20:00:00","ND","ND","ND","ND","ND","ND","ND","ND","ND","ND","ND","ND"],
    [47186,"2015-09-23T21:00:00","ND","ND","ND","ND","ND","ND","ND","ND","ND","ND","ND","ND"],
    [47187,"2015-09-23T22:00:00","ND","ND","ND","ND","ND","ND","ND","ND","ND","ND","ND","ND"],
    [47188,"2015-09-23T23:00:00","ND","ND","ND","ND","ND","ND","ND","ND","ND","ND","ND","ND"],
    [47189,"2015-09-24T00:00:00","ND","ND","ND","ND","ND","ND","ND","ND","ND","ND","ND","ND"],
    [47190,"2015-09-24T01:00:00","ND","ND","ND","ND","ND","ND","ND","ND","ND","ND","ND","ND"],
    [47191,"2015-09-24T02:00:00","ND","ND","ND","ND","ND","ND","ND","ND","ND","ND","ND","ND"],
    [47192,"2015-09-24T03:00:00","ND","ND","ND","ND","ND","ND","ND","ND","ND","ND","ND","ND"],
    [47193,"2015-09-24T04:00:00","ND","ND","ND","ND","ND","ND","ND","ND","ND","ND","ND","ND"],
    [47194,"2015-09-24T05:00:00","ND","ND","ND","ND","ND","ND","ND","ND","ND","ND","ND","ND"],
    [47195,"2015-09-24T06:00:00","ND","ND","ND","ND","ND","ND","ND","ND","ND","ND","ND","ND"],
    [47196,"2015-09-24T07:00:00","ND","ND","ND","ND","ND","ND","ND","ND","ND","ND","ND","ND"],
    [47197,"2015-09-24T08:00:00","ND","ND","ND","ND","ND","ND","ND","ND","ND","ND","ND","ND"],
    [47198,"2015-09-24T09:00:00","ND","ND","ND","ND","ND","ND","ND","ND","ND","ND","ND","ND"],
    [47199,"2015-09-24T10:00:00","ND","ND","ND","ND","ND","ND","ND","ND","ND","ND","ND","ND"],
    [47200,"2015-09-24T11:00:00","ND","ND","ND","ND","ND","ND","ND","ND","ND","ND","ND","ND"],
    [47201,"2015-09-24T12:00:00","ND","ND","ND","ND","ND","ND","ND","ND","ND","ND","ND","ND"],
    [47202,"2015-09-24T13:00:00","ND","ND","ND","ND","ND","ND","ND","ND","ND","ND","ND","ND"],
    [47203,"2015-09-24T14:00:00","ND","ND","ND","ND","ND","ND","ND","ND","ND","ND","ND","ND"],
    [47204,"2015-09-24T15:00:00","ND","ND","ND","ND","ND","ND","ND","ND","ND","ND","ND","ND"],
    [47205,"2015-09-24T16:00:00","ND","ND","ND","ND","ND","ND","ND","ND","ND","ND","ND","ND"],
    [47206,"2015-09-24T17:00:00","ND","ND","ND","ND","ND","ND","ND","ND","ND","ND","ND","ND"],
    [47207,"2015-09-24T18:00:00","ND","ND","ND","ND","ND","ND","ND","ND","ND","ND","ND","ND"],
    [47208,"2015-09-24T19:00:00","ND","ND","ND","ND","ND","ND","ND","ND","ND","ND","ND","ND"],
    [47209,"2015-09-24T20:00:00","ND","ND","ND","ND","ND","ND","ND","ND","ND","ND","ND","ND"],
    [47210,"2015-09-24T21:00:00","ND","ND","ND","ND","ND","ND","ND","ND","ND","ND","ND","ND"],
    [47211,"2015-09-24T22:00:00","ND","ND","ND","ND","ND","ND","ND","ND","ND","ND","ND","ND"],
    [47212,"2015-09-24T23:00:00","ND","ND","ND","ND","ND","ND","ND","ND","ND","ND","ND","ND"],
    [47213,"2015-09-25T00:00:00","ND","ND","ND","ND","ND","ND","ND","ND","ND","ND","ND","ND"],
    [47214,"2015-09-25T01:00:00","ND","ND","ND","ND","ND","ND","ND","ND","ND","ND","ND","ND"],
    [47215,"2015-09-25T02:00:00","ND","ND","ND","ND","ND","ND","ND","ND","ND","ND","ND","ND"],
    [47216,"2015-09-25T03:00:00","ND","ND","ND","ND","ND","ND","ND","ND","ND","ND","ND","ND"],
    [47217,"2015-09-25T04:00:00","ND","ND","ND","ND","ND","ND","ND","ND","ND","ND","ND","ND"],
    [47218,"2015-09-25T05:00:00","ND","ND","ND","ND","ND","ND","ND","ND","ND","ND","ND","ND"],
    [47219,"2015-09-25T06:00:00","ND","ND","ND","ND","ND","ND","ND","ND","ND","ND","ND","ND"],
    [47220,"2015-09-25T07:00:00","ND","ND","ND","ND","ND","ND","ND","ND","ND","ND","ND","ND"],
    [47221,"2015-09-25T08:00:00","ND","ND","ND","ND","ND","ND","ND","ND","ND","ND","ND","ND"],
    [47222,"2015-09-25T09:00:00","ND","ND","ND","ND","ND","ND","ND","ND","ND","ND","ND","ND"],
    [47223,"2015-09-25T10:00:00","ND","ND","ND","ND","ND","ND","ND","ND","ND","ND","ND","ND"],
    [47224,"2015-09-25T11:00:00","ND","ND","ND","ND","ND","ND","ND","ND","ND","ND","ND","ND"],
    [47225,"2015-09-25T12:00:00","ND","ND","ND","ND","ND","ND","ND","ND","ND","ND","ND","ND"],
    [47226,"2015-09-25T13:00:00","ND","ND","ND","ND","ND","ND","ND","ND","ND","ND","ND","ND"],
    [47227,"2015-09-25T14:00:00","ND","ND","ND","ND","ND","ND","ND","ND","ND","ND","ND","ND"],
    [47228,"2015-09-25T15:00:00","ND","ND","ND","ND","ND","ND","ND","ND","ND","ND","ND","ND"],
    [47229,"2015-09-25T16:00:00","ND","ND","ND","ND","ND","ND","ND","ND","ND","ND","ND","ND"],
    [47230,"2015-09-25T17:00:00","ND","ND","ND","ND","ND","ND","ND","ND","ND","ND","ND","ND"],
    [47231,"2015-09-25T18:00:00","ND","ND","ND","ND","ND","ND","ND","ND","ND","ND","ND","ND"],
    [47232,"2015-09-25T19:00:00","ND","ND","ND","ND","ND","ND","ND","ND","ND","ND","ND","ND"],
    [47233,"2015-09-25T20:00:00","ND","ND","ND","ND","ND","ND","ND","ND","ND","ND","ND","ND"],
    [47234,"2015-09-25T21:00:00","ND","ND","ND","ND","ND","ND","ND","ND","ND","ND","ND","ND"],
    [47235,"2015-09-25T22:00:00","ND","ND","ND","ND","ND","ND","ND","ND","ND","ND","ND","ND"],
    [47236,"2015-09-25T23:00:00","ND","ND","ND","ND","ND","ND","ND","ND","ND","ND","ND","ND"],
    [47237,"2015-09-26T00:00:00","ND","ND","ND","ND","ND","ND","ND","ND","ND","ND","ND","ND"],
    [47238,"2015-09-26T01:00:00","ND","ND","ND","ND","ND","ND","ND","ND","ND","ND","ND","ND"],
    [47239,"2015-09-26T02:00:00","ND","ND","ND","ND","ND","ND","ND","ND","ND","ND","ND","ND"],
    [47240,"2015-09-26T03:00:00","ND","ND","ND","ND","ND","ND","ND","ND","ND","ND","ND","ND"],
    [47241,"2015-09-26T04:00:00","ND","ND","ND","ND","ND","ND","ND","ND","ND","ND","ND","ND"],
    [47242,"2015-09-26T05:00:00","ND","ND","ND","ND","ND","ND","ND","ND","ND","ND","ND","ND"],
    [47243,"2015-09-26T06:00:00","ND","ND","ND","ND","ND","ND","ND","ND","ND","ND","ND","ND"],
    [47244,"2015-09-26T07:00:00","ND","ND","ND","ND","ND","ND","ND","ND","ND","ND","ND","ND"],
    [47245,"2015-09-26T08:00:00","ND","ND","ND","ND","ND","ND","ND","ND","ND","ND","ND","ND"],
    [47246,"2015-09-26T09:00:00","ND","ND","ND","ND","ND","ND","ND","ND","ND","ND","ND","ND"],
    [47247,"2015-09-26T10:00:00","ND","ND","ND","ND","ND","ND","ND","ND","ND","ND","ND","ND"],
    [47248,"2015-09-26T11:00:00","ND","ND","ND","ND","ND","ND","ND","ND","ND","ND","ND","ND"],
    [47249,"2015-09-26T12:00:00","ND","ND","ND","ND","ND","ND","ND","ND","ND","ND","ND","ND"],
    [47250,"2015-09-26T13:00:00","ND","ND","ND","ND","ND","ND","ND","ND","ND","ND","ND","ND"],
    [47251,"2015-09-26T14:00:00","ND","ND","ND","ND","ND","ND","ND","ND","ND","ND","ND","ND"],
    [47252,"2015-09-26T15:00:00","ND","ND","ND","ND","ND","ND","ND","ND","ND","ND","ND","ND"],
    [47253,"2015-09-26T16:00:00","ND","ND","ND","ND","ND","ND","ND","ND","ND","ND","ND","ND"],
    [47254,"2015-09-26T17:00:00","ND","ND","ND","ND","ND","ND","ND","ND","ND","ND","ND","ND"],
    [47255,"2015-09-26T18:00:00","ND","ND","ND","ND","ND","ND","ND","ND","ND","ND","ND","ND"],
    [47256,"2015-09-26T19:00:00","ND","ND","ND","ND","ND","ND","ND","ND","ND","ND","ND","ND"],
    [47257,"2015-09-26T20:00:00","ND","ND","ND","ND","ND","ND","ND","ND","ND","ND","ND","ND"],
    [47258,"2015-09-26T21:00:00","ND","ND","ND","ND","ND","ND","ND","ND","ND","ND","ND","ND"],
    [47259,"2015-09-26T22:00:00","ND","ND","ND","ND","ND","ND","ND","ND","ND","ND","ND","ND"],
    [47260,"2015-09-26T23:00:00","ND","ND","ND","ND","ND","ND","ND","ND","ND","ND","ND","ND"],
    [47261,"2015-09-27T00:00:00","ND","ND","ND","ND","ND","ND","ND","ND","ND","ND","ND","ND"],
    [47262,"2015-09-27T01:00:00","ND","ND","ND","ND","ND","ND","ND","ND","ND","ND","ND","ND"],
    [47263,"2015-09-27T02:00:00","ND","ND","ND","ND","ND","ND","ND","ND","ND","ND","ND","ND"],
    [47264,"2015-09-27T03:00:00","ND","ND","ND","ND","ND","ND","ND","ND","ND","ND","ND","ND"],
    [47265,"2015-09-27T04:00:00","ND","ND","ND","ND","ND","ND","ND","ND","ND","ND","ND","ND"],
    [47266,"2015-09-27T05:00:00","ND","ND","ND","ND","ND","ND","ND","ND","ND","ND","ND","ND"],
    [47267,"2015-09-27T06:00:00","ND","ND","ND","ND","ND","ND","ND","ND","ND","ND","ND","ND"],
    [47268,"2015-09-27T07:00:00","ND","ND","ND","ND","ND","ND","ND","ND","ND","ND","ND","ND"],
    [47269,"2015-09-27T08:00:00","ND","ND","ND","ND","ND","ND","ND","ND","ND","ND","ND","ND"],
    [47270,"2015-09-27T09:00:00","ND","ND","ND","ND","ND","ND","ND","ND","ND","ND","ND","ND"],
    [47271,"2015-09-27T10:00:00","ND","ND","ND","ND","ND","ND","ND","ND","ND","ND","ND","ND"],
    [47272,"2015-09-27T11:00:00","ND","ND","ND","ND","ND","ND","ND","ND","ND","ND","ND","ND"],
    [47273,"2015-09-27T12:00:00","ND","ND","ND","ND","ND","ND","ND","ND","ND","ND","ND","ND"],
    [47274,"2015-09-27T13:00:00","ND","ND","ND","ND","ND","ND","ND","ND","ND","ND","ND","ND"],
    [47275,"2015-09-27T14:00:00","ND","ND","ND","ND","ND","ND","ND","ND","ND","ND","ND","ND"],
    [47276,"2015-09-27T15:00:00","ND","ND","ND","ND","ND","ND","ND","ND","ND","ND","ND","ND"],
    [47277,"2015-09-27T16:00:00","ND","ND","ND","ND","ND","ND","ND","ND","ND","ND","ND","ND"],
    [47278,"2015-09-27T17:00:00","ND","ND","ND","ND","ND","ND","ND","ND","ND","ND","ND","ND"],
    [47279,"2015-09-27T18:00:00","ND","ND","ND","ND","ND","ND","ND","ND","ND","ND","ND","ND"],
    [47280,"2015-09-27T19:00:00","ND","ND","ND","ND","ND","ND","ND","ND","ND","ND","ND","ND"],
    [47281,"2015-09-27T20:00:00","ND","ND","ND","ND","ND","ND","ND","ND","ND","ND","ND","ND"],
    [47282,"2015-09-27T21:00:00","ND","ND","ND","ND","ND","ND","ND","ND","ND","ND","ND","ND"],
    [47283,"2015-09-27T22:00:00","ND","ND","ND","ND","ND","ND","ND","ND","ND","ND","ND","ND"],
    [47284,"2015-09-27T23:00:00","ND","ND","ND","ND","ND","ND","ND","ND","ND","ND","ND","ND"],
    [47285,"2015-09-28T00:00:00","ND","ND","ND","ND","ND","ND","ND","ND","ND","ND","ND","ND"],
    [47286,"2015-09-28T01:00:00","ND","ND","ND","ND","ND","ND","ND","ND","ND","ND","ND","ND"],
    [47287,"2015-09-28T02:00:00","ND","ND","ND","ND","ND","ND","ND","ND","ND","ND","ND","ND"],
    [47288,"2015-09-28T03:00:00","ND","ND","ND","ND","ND","ND","ND","ND","ND","ND","ND","ND"],
    [47289,"2015-09-28T04:00:00","ND","ND","ND","ND","ND","ND","ND","ND","ND","ND","ND","ND"],
    [47290,"2015-09-28T05:00:00","ND","ND","ND","ND","ND","ND","ND","ND","ND","ND","ND","ND"],
    [47291,"2015-09-28T06:00:00","ND","ND","ND","ND","ND","ND","ND","ND","ND","ND","ND","ND"],
    [47292,"2015-09-28T07:00:00","ND","ND","ND","ND","ND","ND","ND","ND","ND","ND","ND","ND"],
    [47293,"2015-09-28T08:00:00","ND","ND","ND","ND","ND","ND","ND","ND","ND","ND","ND","ND"],
    [47294,"2015-09-28T09:00:00","ND","ND","ND","ND","ND","ND","ND","ND","ND","ND","ND","ND"],
    [47295,"2015-09-28T10:00:00","ND","ND","ND","ND","ND","ND","ND","ND","ND","ND","ND","ND"],
    [47296,"2015-09-28T11:00:00","ND","ND","ND","ND","ND","ND","ND","ND","ND","ND","ND","ND"],
    [47297,"2015-09-28T12:00:00","ND","ND","ND","ND","ND","ND","ND","ND","ND","ND","ND","ND"],
    [47298,"2015-09-28T13:00:00","ND","ND","ND","ND","ND","ND","ND","ND","ND","ND","ND","ND"],
    [47299,"2015-09-28T14:00:00","ND","ND","ND","ND","ND","ND","ND","ND","ND","ND","ND","ND"],
    [47300,"2015-09-28T15:00:00","ND","ND","ND","ND","ND","ND","ND","ND","ND","ND","ND","ND"],
    [47301,"2015-09-28T16:00:00","ND","ND","ND","ND","ND","ND","ND","ND","ND","ND","ND","ND"],
    [47302,"2015-09-28T17:00:00","ND","ND","ND","ND","ND","ND","ND","ND","ND","ND","ND","ND"],
    [47303,"2015-09-28T18:00:00","ND","ND","ND","ND","ND","ND","ND","ND","ND","ND","ND","ND"],
    [47304,"2015-09-28T19:00:00","ND","ND","ND","ND","ND","ND","ND","ND","ND","ND","ND","ND"],
    [47305,"2015-09-28T20:00:00","ND","ND","ND","ND","ND","ND","ND","ND","ND","ND","ND","ND"],
    [47306,"2015-09-28T21:00:00","ND","ND","ND","ND","ND","ND","ND","ND","ND","ND","ND","ND"],
    [47307,"2015-09-28T22:00:00","ND","ND","ND","ND","ND","ND","ND","ND","ND","ND","ND","ND"],
    [47308,"2015-09-28T23:00:00","ND","ND","ND","ND","ND","ND","ND","ND","ND","ND","ND","ND"],
    [47309,"2015-09-29T00:00:00","ND","ND","ND","ND","ND","ND","ND","ND","ND","ND","ND","ND"],
    [47310,"2015-09-29T01:00:00","ND","ND","ND","ND","ND","ND","ND","ND","ND","ND","ND","ND"],
    [47311,"2015-09-29T02:00:00","ND","ND","ND","ND","ND","ND","ND","ND","ND","ND","ND","ND"],
    [47312,"2015-09-29T03:00:00","ND","ND","ND","ND","ND","ND","ND","ND","ND","ND","ND","ND"],
    [47313,"2015-09-29T04:00:00","ND","ND","ND","ND","ND","ND","ND","ND","ND","ND","ND","ND"],
    [47314,"2015-09-29T05:00:00","ND","ND","ND","ND","ND","ND","ND","ND","ND","ND","ND","ND"],
    [47315,"2015-09-29T06:00:00","ND","ND","ND","ND","ND","ND","ND","ND","ND","ND","ND","ND"],
    [47316,"2015-09-29T07:00:00","ND","ND","ND","ND","ND","ND","ND","ND","ND","ND","ND","ND"],
    [47317,"2015-09-29T08:00:00","ND","ND","ND","ND","ND","ND","ND","ND","ND","ND","ND","ND"],
    [47318,"2015-09-29T09:00:00","ND","ND","ND","ND","ND","ND","ND","ND","ND","ND","ND","ND"],
    [47319,"2015-09-29T10:00:00","ND","ND","ND","ND","ND","ND","ND","ND","ND","ND","ND","ND"],
    [47320,"2015-09-29T11:00:00","ND","ND","ND","ND","ND","ND","ND","ND","ND","ND","ND","ND"],
    [47321,"2015-09-29T12:00:00","ND","ND","ND","ND","ND","ND","ND","ND","ND","ND","ND","ND"],
    [47322,"2015-09-29T13:00:00","ND","ND","ND","ND","ND","ND","ND","ND","ND","ND","ND","ND"],
    [47323,"2015-09-29T14:00:00","ND","ND","ND","ND","ND","ND","ND","ND","ND","ND","ND","ND"],
    [47324,"2015-09-29T15:00:00","ND","ND","ND","ND","ND","ND","ND","ND","ND","ND","ND","ND"],
    [47325,"2015-09-29T16:00:00","ND","ND","ND","ND","ND","ND","ND","ND","ND","ND","ND","ND"],
    [47326,"2015-09-29T17:00:00","ND","ND","ND","ND","ND","ND","ND","ND","ND","ND","ND","ND"],
    [47327,"2015-09-29T18:00:00","ND","ND","ND","ND","ND","ND","ND","ND","ND","ND","ND","ND"],
    [47328,"2015-09-29T19:00:00","ND","ND","ND","ND","ND","ND","ND","ND","ND","ND","ND","ND"],
    [47329,"2015-09-29T20:00:00","ND","ND","ND","ND","ND","ND","ND","ND","ND","ND","ND","ND"],
    [47330,"2015-09-29T21:00:00","ND","ND","ND","ND","ND","ND","ND","ND","ND","ND","ND","ND"],
    [47331,"2015-09-29T22:00:00","ND","ND","ND","ND","ND","ND","ND","ND","ND","ND","ND","ND"],
    [47332,"2015-09-29T23:00:00","ND","ND","ND","ND","ND","ND","ND","ND","ND","ND","ND","ND"],
    [47333,"2015-09-30T00:00:00","ND","ND","ND","ND","ND","ND","ND","ND","ND","ND","ND","ND"],
    [47334,"2015-09-30T01:00:00","ND","ND","ND","ND","ND","ND","ND","ND","ND","ND","ND","ND"],
    [47335,"2015-09-30T02:00:00","ND","ND","ND","ND","ND","ND","ND","ND","ND","ND","ND","ND"],
    [47336,"2015-09-30T03:00:00","ND","ND","ND","ND","ND","ND","ND","ND","ND","ND","ND","ND"],
    [47337,"2015-09-30T04:00:00","ND","ND","ND","ND","ND","ND","ND","ND","ND","ND","ND","ND"],
    [47338,"2015-09-30T05:00:00","ND","ND","ND","ND","ND","ND","ND","ND","ND","ND","ND","ND"],
    [47339,"2015-09-30T06:00:00","ND","ND","ND","ND","ND","ND","ND","ND","ND","ND","ND","ND"],
    [47340,"2015-09-30T07:00:00","ND","ND","ND","ND","ND","ND","ND","ND","ND","ND","ND","ND"],
    [47341,"2015-09-30T08:00:00","ND","ND","ND","ND","ND","ND","ND","ND","ND","ND","ND","ND"],
    [47342,"2015-09-30T09:00:00","ND","ND","ND","ND","ND","ND","ND","ND","ND","ND","ND","ND"],
    [47343,"2015-09-30T10:00:00","ND","ND","ND","ND","ND","ND","ND","ND","ND","ND","ND","ND"],
    [47344,"2015-09-30T11:00:00","ND","ND","ND","ND","ND","ND","ND","ND","ND","ND","ND","ND"],
    [47345,"2015-09-30T12:00:00","ND","ND","ND","ND","ND","ND","ND","ND","ND","ND","ND","ND"],
    [47346,"2015-09-30T13:00:00","ND","ND","ND","ND","ND","ND","ND","ND","ND","ND","ND","ND"],
    [47347,"2015-09-30T14:00:00","ND","ND","ND","ND","ND","ND","ND","ND","ND","ND","ND","ND"],
    [47348,"2015-09-30T15:00:00","ND","ND","ND","ND","ND","ND","ND","ND","ND","ND","ND","ND"],
    [47349,"2015-09-30T16:00:00","ND","ND","ND","ND","ND","ND","ND","ND","ND","ND","ND","ND"],
    [47350,"2015-09-30T17:00:00","ND","ND","ND","ND","ND","ND","ND","ND","ND","ND","ND","ND"],
    [47351,"2015-09-30T18:00:00","ND","ND","ND","ND","ND","ND","ND","ND","ND","ND","ND","ND"],
    [47352,"2015-09-30T19:00:00","ND","ND","ND","ND","ND","ND","ND","ND","ND","ND","ND","ND"],
    [47353,"2015-09-30T20:00:00","ND","ND","ND","ND","ND","ND","ND","ND","ND","ND","ND","ND"],
    [47354,"2015-09-30T21:00:00","ND","ND","ND","ND","ND","ND","ND","ND","ND","ND","ND","ND"],
    [47355,"2015-09-30T22:00:00","ND","ND","ND","ND","ND","ND","ND","ND","ND","ND","ND","ND"],
    [47356,"2015-09-30T23:00:00","ND","ND","ND","ND","ND","ND","ND","ND","ND","ND","ND","ND"],
    [47357,"2015-10-01T00:00:00","ND","ND","ND","ND","ND","ND","ND","ND","ND","ND","ND","ND"],
    [47358,"2015-10-01T01:00:00","ND","ND","ND","ND","ND","ND","ND","ND","ND","ND","ND","ND"],
    [47359,"2015-10-01T02:00:00","ND","ND","ND","ND","ND","ND","ND","ND","ND","ND","ND","ND"],
    [47360,"2015-10-01T03:00:00","ND","ND","ND","ND","ND","ND","ND","ND","ND","ND","ND","ND"],
    [47361,"2015-10-01T04:00:00","ND","ND","ND","ND","ND","ND","ND","ND","ND","ND","ND","ND"],
    [47362,"2015-10-01T05:00:00","ND","ND","ND","ND","ND","ND","ND","ND","ND","ND","ND","ND"],
    [47363,"2015-10-01T06:00:00","ND","ND","ND","ND","ND","ND","ND","ND","ND","ND","ND","ND"],
    [47364,"2015-10-01T07:00:00","ND","ND","ND","ND","ND","ND","ND","ND","ND","ND","ND","ND"],
    [47365,"2015-10-01T08:00:00","ND","ND","ND","ND","ND","ND","ND","ND","ND","ND","ND","ND"],
    [47366,"2015-10-01T09:00:00","ND","ND","ND","ND","ND","ND","ND","ND","ND","ND","ND","ND"],
    [47367,"2015-10-01T10:00:00","ND","ND","ND","ND","ND","ND","ND","ND","ND","ND","ND","ND"],
    [47368,"2015-10-01T11:00:00","ND","ND","ND","ND","ND","ND","ND","ND","ND","ND","ND","ND"],
    [47369,"2015-10-01T12:00:00","ND","ND","ND","ND","ND","ND","ND","ND","ND","ND","ND","ND"],
    [47370,"2015-10-01T13:00:00","ND","ND","ND","ND","ND","ND","ND","ND","ND","ND","ND","ND"],
    [47371,"2015-10-01T14:00:00","ND","ND","ND","ND","ND","ND","ND","ND","ND","ND","ND","ND"],
    [47372,"2015-10-01T15:00:00","ND","ND","ND","ND","ND","ND","ND","ND","ND","ND","ND","ND"],
    [47373,"2015-10-01T16:00:00","ND","ND","ND","ND","ND","ND","ND","ND","ND","ND","ND","ND"],
    [47374,"2015-10-01T17:00:00","ND","ND","ND","ND","ND","ND","ND","ND","ND","ND","ND","ND"],
    [47375,"2015-10-01T18:00:00","ND","ND","ND","ND","ND","ND","ND","ND","ND","ND","ND","ND"],
    [47376,"2015-10-01T19:00:00","ND","ND","ND","ND","ND","ND","ND","ND","ND","ND","ND","ND"],
    [47377,"2015-10-01T20:00:00","ND","ND","ND","ND","ND","ND","ND","ND","ND","ND","ND","ND"],
    [47378,"2015-10-01T21:00:00","ND","ND","ND","ND","ND","ND","ND","ND","ND","ND","ND","ND"],
    [47379,"2015-10-01T22:00:00","ND","ND","ND","ND","ND","ND","ND","ND","ND","ND","ND","ND"],
    [47380,"2015-10-01T23:00:00","ND","ND","ND","ND","ND","ND","ND","ND","ND","ND","ND","ND"],
    [47381,"2015-10-02T00:00:00","ND","ND","ND","ND","ND","ND","ND","ND","ND","ND","ND","ND"],
    [47382,"2015-10-02T01:00:00","ND","ND","ND","ND","ND","ND","ND","ND","ND","ND","ND","ND"],
    [47383,"2015-10-02T02:00:00","ND","ND","ND","ND","ND","ND","ND","ND","ND","ND","ND","ND"],
    [47384,"2015-10-02T03:00:00","ND","ND","ND","ND","ND","ND","ND","ND","ND","ND","ND","ND"],
    [47385,"2015-10-02T04:00:00","ND","ND","ND","ND","ND","ND","ND","ND","ND","ND","ND","ND"],
    [47386,"2015-10-02T05:00:00","ND","ND","ND","ND","ND","ND","ND","ND","ND","ND","ND","ND"],
    [47387,"2015-10-02T06:00:00","ND","ND","ND","ND","ND","ND","ND","ND","ND","ND","ND","ND"],
    [47388,"2015-10-02T07:00:00","ND","ND","ND","ND","ND","ND","ND","ND","ND","ND","ND","ND"],
    [47389,"2015-10-02T08:00:00","ND","ND","ND","ND","ND","ND","ND","ND","ND","ND","ND","ND"],
    [47390,"2015-10-02T09:00:00","ND","ND","ND","ND","ND","ND","ND","ND","ND","ND","ND","ND"],
    [47391,"2015-10-02T10:00:00","ND","ND","ND","ND","ND","ND","ND","ND","ND","ND","ND","ND"],
    [47392,"2015-10-02T11:00:00","ND","ND","ND","ND","ND","ND","ND","ND","ND","ND","ND","ND"],
    [47393,"2015-10-02T12:00:00","ND","ND","ND","ND","ND","ND","ND","ND","ND","ND","ND","ND"],
    [47394,"2015-10-02T13:00:00","ND","ND","ND","ND","ND","ND","ND","ND","ND","ND","ND","ND"],
    [47395,"2015-10-02T14:00:00","ND","ND","ND","ND","ND","ND","ND","ND","ND","ND","ND","ND"],
    [47396,"2015-10-02T15:00:00","ND","ND","ND","ND","ND","ND","ND","ND","ND","ND","ND","ND"],
    [47397,"2015-10-02T16:00:00","ND","ND","ND","ND","ND","ND","ND","ND","ND","ND","ND","ND"],
    [47398,"2015-10-02T17:00:00","ND","ND","ND","ND","ND","ND","ND","ND","ND","ND","ND","ND"],
    [47399,"2015-10-02T18:00:00","ND","ND","ND","ND","ND","ND","ND","ND","ND","ND","ND","ND"],
    [47400,"2015-10-02T19:00:00","ND","ND","ND","ND","ND","ND","ND","ND","ND","ND","ND","ND"],
    [47401,"2015-10-02T20:00:00","ND","ND","ND","ND","ND","ND","ND","ND","ND","ND","ND","ND"],
    [47402,"2015-10-02T21:00:00","ND","ND","ND","ND","ND","ND","ND","ND","ND","ND","ND","ND"],
    [47403,"2015-10-02T22:00:00","ND","ND","ND","ND","ND","ND","ND","ND","ND","ND","ND","ND"],
    [47404,"2015-10-02T23:00:00","ND","ND","ND","ND","ND","ND","ND","ND","ND","ND","ND","ND"],
    [47405,"2015-10-03T00:00:00","ND","ND","ND","ND","ND","ND","ND","ND","ND","ND","ND","ND"],
    [47406,"2015-10-03T01:00:00","ND","ND","ND","ND","ND","ND","ND","ND","ND","ND","ND","ND"],
    [47407,"2015-10-03T02:00:00","ND","ND","ND","ND","ND","ND","ND","ND","ND","ND","ND","ND"],
    [47408,"2015-10-03T03:00:00","ND","ND","ND","ND","ND","ND","ND","ND","ND","ND","ND","ND"],
    [47409,"2015-10-03T04:00:00","ND","ND","ND","ND","ND","ND","ND","ND","ND","ND","ND","ND"],
    [47410,"2015-10-03T05:00:00","ND","ND","ND","ND","ND","ND","ND","ND","ND","ND","ND","ND"],
    [47411,"2015-10-03T06:00:00","ND","ND","ND","ND","ND","ND","ND","ND","ND","ND","ND","ND"],
    [47412,"2015-10-03T07:00:00","ND","ND","ND","ND","ND","ND","ND","ND","ND","ND","ND","ND"],
    [47413,"2015-10-03T08:00:00","ND","ND","ND","ND","ND","ND","ND","ND","ND","ND","ND","ND"],
    [47414,"2015-10-03T09:00:00","ND","ND","ND","ND","ND","ND","ND","ND","ND","ND","ND","ND"],
    [47415,"2015-10-03T10:00:00","ND","ND","ND","ND","ND","ND","ND","ND","ND","ND","ND","ND"],
    [47416,"2015-10-03T11:00:00","ND","ND","ND","ND","ND","ND","ND","ND","ND","ND","ND","ND"],
    [47417,"2015-10-03T12:00:00","ND","ND","ND","ND","ND","ND","ND","ND","ND","ND","ND","ND"],
    [47418,"2015-10-03T13:00:00","ND","ND","ND","ND","ND","ND","ND","ND","ND","ND","ND","ND"],
    [47419,"2015-10-03T14:00:00","ND","ND","ND","ND","ND","ND","ND","ND","ND","ND","ND","ND"],
    [47420,"2015-10-03T15:00:00","ND","ND","ND","ND","ND","ND","ND","ND","ND","ND","ND","ND"],
    [47421,"2015-10-03T16:00:00","ND","ND","ND","ND","ND","ND","ND","ND","ND","ND","ND","ND"],
    [47422,"2015-10-03T17:00:00","ND","ND","ND","ND","ND","ND","ND","ND","ND","ND","ND","ND"],
    [47423,"2015-10-03T18:00:00","ND","ND","ND","ND","ND","ND","ND","ND","ND","ND","ND","ND"],
    [47424,"2015-10-03T19:00:00","ND","ND","ND","ND","ND","ND","ND","ND","ND","ND","ND","ND"],
    [47425,"2015-10-03T20:00:00","ND","ND","ND","ND","ND","ND","ND","ND","ND","ND","ND","ND"],
    [47426,"2015-10-03T21:00:00","ND","ND","ND","ND","ND","ND","ND","ND","ND","ND","ND","ND"],
    [47427,"2015-10-03T22:00:00","ND","ND","ND","ND","ND","ND","ND","ND","ND","ND","ND","ND"],
    [47428,"2015-10-03T23:00:00","ND","ND","ND","ND","ND","ND","ND","ND","ND","ND","ND","ND"],
    [47429,"2015-10-04T00:00:00","ND","ND","ND","ND","ND","ND","ND","ND","ND","ND","ND","ND"],
    [47430,"2015-10-04T01:00:00","ND","ND","ND","ND","ND","ND","ND","ND","ND","ND","ND","ND"],
    [47431,"2015-10-04T02:00:00","ND","ND","ND","ND","ND","ND","ND","ND","ND","ND","ND","ND"],
    [47432,"2015-10-04T03:00:00","ND","ND","ND","ND","ND","ND","ND","ND","ND","ND","ND","ND"],
    [47433,"2015-10-04T04:00:00","ND","ND","ND","ND","ND","ND","ND","ND","ND","ND","ND","ND"],
    [47434,"2015-10-04T05:00:00","ND","ND","ND","ND","ND","ND","ND","ND","ND","ND","ND","ND"],
    [47435,"2015-10-04T06:00:00","ND","ND","ND","ND","ND","ND","ND","ND","ND","ND","ND","ND"],
    [47436,"2015-10-04T07:00:00","ND","ND","ND","ND","ND","ND","ND","ND","ND","ND","ND","ND"],
    [47437,"2015-10-04T08:00:00","ND","ND","ND","ND","ND","ND","ND","ND","ND","ND","ND","ND"],
    [47438,"2015-10-04T09:00:00","ND","ND","ND","ND","ND","ND","ND","ND","ND","ND","ND","ND"],
    [47439,"2015-10-04T10:00:00","ND","ND","ND","ND","ND","ND","ND","ND","ND","ND","ND","ND"],
    [47440,"2015-10-04T11:00:00","ND","ND","ND","ND","ND","ND","ND","ND","ND","ND","ND","ND"],
    [47441,"2015-10-04T12:00:00","ND","ND","ND","ND","ND","ND","ND","ND","ND","ND","ND","ND"],
    [47442,"2015-10-04T13:00:00","ND","ND","ND","ND","ND","ND","ND","ND","ND","ND","ND","ND"],
    [47443,"2015-10-04T14:00:00","ND","ND","ND","ND","ND","ND","ND","ND","ND","ND","ND","ND"],
    [47444,"2015-10-04T15:00:00","ND","ND","ND","ND","ND","ND","ND","ND","ND","ND","ND","ND"],
    [47445,"2015-10-04T16:00:00","ND","ND","ND","ND","ND","ND","ND","ND","ND","ND","ND","ND"],
    [47446,"2015-10-04T17:00:00","ND","ND","ND","ND","ND","ND","ND","ND","ND","ND","ND","ND"],
    [47447,"2015-10-04T18:00:00","ND","ND","ND","ND","ND","ND","ND","ND","ND","ND","ND","ND"],
    [47448,"2015-10-04T19:00:00","ND","ND","ND","ND","ND","ND","ND","ND","ND","ND","ND","ND"],
    [47449,"2015-10-04T20:00:00","ND","ND","ND","ND","ND","ND","ND","ND","ND","ND","ND","ND"],
    [47450,"2015-10-04T21:00:00","ND","ND","ND","ND","ND","ND","ND","ND","ND","ND","ND","ND"],
    [47451,"2015-10-04T22:00:00","ND","ND","ND","ND","ND","ND","ND","ND","ND","ND","ND","ND"],
    [47452,"2015-10-04T23:00:00","ND","ND","ND","ND","ND","ND","ND","ND","ND","ND","ND","ND"],
    [47453,"2015-10-05T00:00:00","ND","ND","ND","ND","ND","ND","ND","ND","ND","ND","ND","ND"],
    [47454,"2015-10-05T01:00:00","ND","ND","ND","ND","ND","ND","ND","ND","ND","ND","ND","ND"],
    [47455,"2015-10-05T02:00:00","ND","ND","ND","ND","ND","ND","ND","ND","ND","ND","ND","ND"],
    [47456,"2015-10-05T03:00:00","ND","ND","ND","ND","ND","ND","ND","ND","ND","ND","ND","ND"],
    [47457,"2015-10-05T04:00:00","ND","ND","ND","ND","ND","ND","ND","ND","ND","ND","ND","ND"],
    [47458,"2015-10-05T05:00:00","ND","ND","ND","ND","ND","ND","ND","ND","ND","ND","ND","ND"],
    [47459,"2015-10-05T06:00:00","ND","ND","ND","ND","ND","ND","ND","ND","ND","ND","ND","ND"],
    [47460,"2015-10-05T07:00:00","ND","ND","ND","ND","ND","ND","ND","ND","ND","ND","ND","ND"],
    [47461,"2015-10-05T08:00:00","ND","ND","ND","ND","ND","ND","ND","ND","ND","ND","ND","ND"],
    [47462,"2015-10-05T09:00:00","ND","ND","ND","ND","ND","ND","ND","ND","ND","ND","ND","ND"],
    [47463,"2015-10-05T10:00:00","ND","ND","ND","ND","ND","ND","ND","ND","ND","ND","ND","ND"],
    [47464,"2015-10-05T11:00:00","ND","ND","ND","ND","ND","ND","ND","ND","ND","ND","ND","ND"],
    [47465,"2015-10-05T12:00:00","ND","ND","ND","ND","ND","ND","ND","ND","ND","ND","ND","ND"],
    [47466,"2015-10-05T13:00:00","ND","ND","ND","ND","ND","ND","ND","ND","ND","ND","ND","ND"],
    [47467,"2015-10-05T14:00:00","ND","ND","ND","ND","ND","ND","ND","ND","ND","ND","ND","ND"],
    [47468,"2015-10-05T15:00:00","ND","ND","ND","ND","ND","ND","ND","ND","ND","ND","ND","ND"],
    [47469,"2015-10-05T16:00:00","ND","ND","ND","ND","ND","ND","ND","ND","ND","ND","ND","ND"],
    [47470,"2015-10-05T17:00:00","ND","ND","ND","ND","ND","ND","ND","ND","ND","ND","ND","ND"],
    [47471,"2015-10-05T18:00:00","ND","ND","ND","ND","ND","ND","ND","ND","ND","ND","ND","ND"],
    [47472,"2015-10-05T19:00:00","ND","ND","ND","ND","ND","ND","ND","ND","ND","ND","ND","ND"],
    [47473,"2015-10-05T20:00:00","12.5","ND","ND","ND","ND","ND","ND","ND","ND","ND","ND","0"],
    [47474,"2015-10-05T21:00:00","40.2","ND","ND","ND","ND","4.07","ND","ND","ND","ND","ND","0"],
    [47475,"2015-10-05T22:00:00","40.6","ND","ND","ND","ND","4.71","ND","ND","ND","ND","ND","0"],
    [47476,"2015-10-05T23:00:00","33.6","ND","ND","ND","ND","3.43","ND","ND","ND","ND","ND","0"],
    [47477,"2015-10-06T00:00:00","27","ND","ND","ND","ND","2.91","ND","ND","ND","ND","ND","0"],
    [47478,"2015-10-06T01:00:00","30.3","ND","ND","ND","ND","2.90","ND","ND","ND","ND","ND","0"],
    [47479,"2015-10-06T02:00:00","47.6","ND","ND","ND","ND","3.37","ND","ND","ND","ND","ND","0"],
    [47480,"2015-10-06T03:00:00","34.3","ND","ND","ND","ND","3.21","ND","ND","ND","ND","ND","0"],
    [47481,"2015-10-06T04:00:00","17.6","ND","ND","ND","ND","1.97","ND","ND","ND","ND","ND","0"],
    [47482,"2015-10-06T05:00:00","18","ND","ND","ND","ND","2.01","ND","ND","ND","ND","ND","0"],
    [47483,"2015-10-06T06:00:00","25.1","ND","ND","ND","ND","2.79","ND","ND","ND","ND","ND","0"],
    [47484,"2015-10-06T07:00:00","65.9","ND","ND","ND","ND","3.69","ND","ND","ND","ND","ND","0"],
    [47485,"2015-10-06T08:00:00","84.7","ND","ND","ND","ND","3.61","ND","ND","ND","ND","ND","0"],
    [47486,"2015-10-06T09:00:00","67.7","ND","ND","ND","ND","2.98","ND","ND","ND","ND","ND","0"],
    [47487,"2015-10-06T10:00:00","57.4","ND","ND","ND","ND","1.97","ND","ND","ND","ND","ND","0"],
    [47488,"2015-10-06T11:00:00","49.4","ND","ND","ND","ND","3.19","ND","ND","ND","ND","ND","0"],
    [47489,"2015-10-06T12:00:00","43.4","ND","ND","ND","ND","2.40","ND","ND","ND","ND","ND","0"],
    [47490,"2015-10-06T13:00:00","46","ND","ND","ND","ND","2.38","ND","ND","ND","ND","ND","0"],
    [47491,"2015-10-06T14:00:00","46","ND","ND","ND","ND","1.42","ND","ND","ND","ND","ND","0"],
    [47492,"2015-10-06T15:00:00","43.5","ND","ND","ND","ND","2.93","ND","ND","ND","ND","ND","0"],
    [47493,"2015-10-06T16:00:00","30.8","ND","ND","ND","ND","2.87","ND","ND","ND","ND","ND","0"],
    [47494,"2015-10-06T17:00:00","20.1","ND","ND","ND","ND","2.56","ND","ND","ND","ND","ND","0"],
    [47495,"2015-10-06T18:00:00","23.1","ND","ND","ND","ND","1.71","ND","ND","ND","ND","ND","0"],
    [47496,"2015-10-06T19:00:00","26.8","ND","ND","ND","ND","1.58","ND","ND","ND","ND","ND","0"],
    [47497,"2015-10-06T20:00:00","26.2","ND","ND","ND","ND","2.10","ND","ND","ND","ND","ND","0"],
    [47498,"2015-10-06T21:00:00","30","ND","ND","ND","ND","3.12","ND","ND","ND","ND","ND","0"],
    [47499,"2015-10-06T22:00:00","40.3","ND","ND","ND","ND","3.74","ND","ND","ND","ND","ND","0"],
    [47500,"2015-10-06T23:00:00","97.9","ND","ND","ND","ND","4.89","ND","ND","ND","ND","ND","0"],
    [47501,"2015-10-07T00:00:00","56.8","ND","ND","ND","ND","3.65","ND","ND","ND","ND","ND","0"],
    [47502,"2015-10-07T01:00:00","50.3","ND","ND","ND","ND","5.38","ND","ND","ND","ND","ND","0"],
    [47503,"2015-10-07T02:00:00","35.2","ND","ND","ND","ND","3.54","ND","ND","ND","ND","ND","0"],
    [47504,"2015-10-07T03:00:00","29","ND","ND","ND","ND","3.69","ND","ND","ND","ND","ND","0"],
    [47505,"2015-10-07T04:00:00","29.8","ND","ND","ND","ND","2.27","ND","ND","ND","ND","ND","0"],
    [47506,"2015-10-07T05:00:00","43.8","ND","ND","ND","ND","2.12","ND","ND","ND","ND","ND","0"],
    [47507,"2015-10-07T06:00:00","37.6","ND","ND","ND","ND","2.70","ND","ND","ND","ND","ND","0"],
    [47508,"2015-10-07T07:00:00","42.2","ND","ND","ND","ND","3.19","ND","ND","ND","ND","ND","0"],
    [47509,"2015-10-07T08:00:00","71.2","ND","ND","ND","ND","3.93","ND","ND","ND","ND","ND","0"],
    [47510,"2015-10-07T09:00:00","74.2","ND","ND","ND","ND","5.02","ND","ND","ND","ND","ND","0"],
    [47511,"2015-10-07T10:00:00","55.5","ND","ND","ND","ND","2.66","ND","ND","ND","ND","ND","0"],
    [47512,"2015-10-07T11:00:00","51.7","ND","ND","ND","ND","3.25","ND","ND","ND","ND","ND","0"],
    [47513,"2015-10-07T12:00:00","56.8","ND","ND","ND","ND","3.96","ND","ND","ND","ND","ND","0"],
    [47514,"2015-10-07T13:00:00","55.2","ND","ND","ND","ND","3.86","ND","ND","ND","ND","ND","0"],
    [47515,"2015-10-07T14:00:00","38","ND","ND","ND","ND","2.05","ND","ND","ND","ND","ND","0"],
    [47516,"2015-10-07T15:00:00","29","ND","ND","ND","ND","1.92","ND","ND","ND","ND","ND","0"],
    [47517,"2015-10-07T16:00:00","28.8","ND","ND","ND","ND","2.06","ND","ND","ND","ND","ND","0"],
    [47518,"2015-10-07T17:00:00","31.1","ND","ND","ND","ND","2.82","ND","ND","ND","ND","ND","0"],
    [47519,"2015-10-07T18:00:00","24","ND","ND","ND","ND","2.61","ND","ND","ND","ND","ND","0"],
    [47520,"2015-10-07T19:00:00","29","ND","ND","ND","ND","2.69","ND","ND","ND","ND","ND","0"],
    [47521,"2015-10-07T20:00:00","33.7","ND","ND","ND","ND","2.20","ND","ND","ND","ND","ND","0"],
    [47522,"2015-10-07T21:00:00","46.2","ND","ND","ND","ND","3.99","ND","ND","ND","ND","ND","0"],
    [47523,"2015-10-07T22:00:00","53.9","ND","ND","ND","ND","5.28","ND","ND","ND","ND","ND","0"],
    [47524,"2015-10-07T23:00:00","57.9","ND","ND","ND","ND","4.25","ND","ND","ND","ND","ND","0"],
    [47525,"2015-10-08T00:00:00","42.3","ND","ND","ND","ND","3.89","ND","ND","ND","ND","ND","0"],
    [47526,"2015-10-08T01:00:00","36.6","ND","ND","ND","ND","3.48","ND","ND","ND","ND","ND","0"],
    [47527,"2015-10-08T02:00:00","28.5","ND","ND","ND","ND","3.09","ND","ND","ND","ND","ND","0"],
    [47528,"2015-10-08T03:00:00","36.5","ND","ND","ND","ND","4.66","ND","ND","ND","ND","ND","0"],
    [47529,"2015-10-08T04:00:00","40.9","ND","ND","ND","ND","3.51","ND","ND","ND","ND","ND","0"],
    [47530,"2015-10-08T05:00:00","42.1","ND","ND","ND","ND","4.17","ND","ND","ND","ND","ND","0"],
    [47531,"2015-10-08T06:00:00","74.7","ND","ND","ND","ND","4.35","ND","ND","ND","ND","ND","0"],
    [47532,"2015-10-08T07:00:00","71.7","ND","ND","ND","ND","4.66","ND","ND","ND","ND","ND","0"],
    [47533,"2015-10-08T08:00:00","68.5","ND","ND","ND","ND","3.99","ND","ND","ND","ND","ND","0"],
    [47534,"2015-10-08T09:00:00","61.8","ND","ND","ND","ND","2.87","ND","ND","ND","ND","ND","0"],
    [47535,"2015-10-08T10:00:00","56.2","ND","ND","ND","ND","2.36","ND","ND","ND","ND","ND","0"],
    [47536,"2015-10-08T11:00:00","47.2","ND","ND","ND","ND","2.43","ND","ND","ND","ND","ND","0"],
    [47537,"2015-10-08T12:00:00","43.2","ND","ND","ND","ND","2.75","ND","ND","ND","ND","ND","0"],
    [47538,"2015-10-08T13:00:00","41","ND","ND","ND","ND","2.04","ND","ND","ND","ND","ND","0"],
    [47539,"2015-10-08T14:00:00","25.7","ND","ND","ND","ND","1.84","ND","ND","ND","ND","ND","0"],
    [47540,"2015-10-08T15:00:00","22.6","ND","ND","ND","ND","2.27","ND","ND","ND","ND","ND","0"],
    [47541,"2015-10-08T16:00:00","26.2","ND","ND","ND","ND","2.19","ND","ND","ND","ND","ND","0"],
    [47542,"2015-10-08T17:00:00","24.3","ND","ND","ND","ND","2.43","ND","ND","ND","ND","ND","0"],
    [47543,"2015-10-08T18:00:00","30.5","ND","ND","ND","ND","1.71","ND","ND","ND","ND","ND","0"],
    [47544,"2015-10-08T19:00:00","30.7","ND","ND","ND","ND","1.99","ND","ND","ND","ND","ND","0"],
    [47545,"2015-10-08T20:00:00","33","ND","ND","ND","ND","2.41","ND","ND","ND","ND","ND","0"],
    [47546,"2015-10-08T21:00:00","36.1","ND","ND","ND","ND","4.74","ND","ND","ND","ND","ND","0"],
    [47547,"2015-10-08T22:00:00","35.4","ND","ND","ND","ND","4.86","ND","ND","ND","ND","ND","0"],
    [47548,"2015-10-08T23:00:00","39.9","ND","ND","ND","ND","3.75","ND","ND","ND","ND","ND","0"],
    [47549,"2015-10-09T00:00:00","29.5","ND","ND","ND","ND","3.15","ND","ND","ND","ND","ND","0"],
    [47550,"2015-10-09T01:00:00","18.5","ND","ND","ND","ND","2.17","ND","ND","ND","ND","ND","0"],
    [47551,"2015-10-09T02:00:00","30.9","ND","ND","ND","ND","3.85","ND","ND","ND","ND","ND","0"],
    [47552,"2015-10-09T03:00:00","35.5","ND","ND","ND","ND","4.20","ND","ND","ND","ND","ND","0"],
    [47553,"2015-10-09T04:00:00","44.7","ND","ND","ND","ND","4.47","ND","ND","ND","ND","ND","0"],
    [47554,"2015-10-09T05:00:00","50.8","ND","ND","ND","ND","4.34","ND","ND","ND","ND","ND","0"],
    [47555,"2015-10-09T06:00:00","72.6","ND","ND","ND","ND","6.55","ND","ND","ND","ND","ND","0"],
    [47556,"2015-10-09T07:00:00","79.1","ND","ND","ND","ND","5.74","ND","ND","ND","ND","ND","0"],
    [47557,"2015-10-09T08:00:00","76.3","ND","ND","ND","ND","5.39","ND","ND","ND","ND","ND","0"],
    [47558,"2015-10-09T09:00:00","68.7","ND","ND","ND","ND","4.17","ND","ND","ND","ND","ND","0"],
    [47559,"2015-10-09T10:00:00","55.2","ND","ND","ND","ND","3.76","ND","ND","ND","ND","ND","0"],
    [47560,"2015-10-09T11:00:00","38.5","ND","ND","ND","ND","2.82","ND","ND","ND","ND","ND","0"],
    [47561,"2015-10-09T12:00:00","34.3","ND","ND","ND","ND","3.12","ND","ND","ND","ND","ND","0"],
    [47562,"2015-10-09T13:00:00","39.8","ND","ND","ND","ND","2.43","ND","ND","ND","ND","ND","0"],
    [47563,"2015-10-09T14:00:00","40.3","ND","ND","ND","ND","3.22","ND","ND","ND","ND","ND","0"],
    [47564,"2015-10-09T15:00:00","25","ND","ND","ND","ND","2.66","ND","ND","ND","ND","ND","0"],
    [47565,"2015-10-09T16:00:00","22.8","ND","ND","ND","ND","2.43","ND","ND","ND","ND","ND","0"],
    [47566,"2015-10-09T17:00:00","30.9","ND","ND","ND","ND","3.02","ND","ND","ND","ND","ND","0"],
    [47567,"2015-10-09T18:00:00","18.1","ND","ND","ND","ND","1.48","ND","ND","ND","ND","ND","0"],
    [47568,"2015-10-09T19:00:00","20.5","ND","ND","ND","ND","3.43","ND","ND","ND","ND","ND","0"],
    [47569,"2015-10-09T20:00:00","37.4","ND","ND","ND","ND","2.26","ND","ND","ND","ND","ND","0"],
    [47570,"2015-10-09T21:00:00","23.3","ND","ND","ND","ND","2.61","ND","ND","ND","ND","ND","0"],
    [47571,"2015-10-09T22:00:00","30.6","ND","ND","ND","ND","2.29","ND","ND","ND","ND","ND","0"],
    [47572,"2015-10-09T23:00:00","43","ND","ND","ND","ND","3.09","ND","ND","ND","ND","ND","0"],
    [47573,"2015-10-10T00:00:00","36.6","ND","ND","ND","ND","3.11","ND","ND","ND","ND","ND","0"],
    [47574,"2015-10-10T01:00:00","46.6","ND","ND","ND","ND","4.32","ND","ND","ND","ND","ND","0"],
    [47575,"2015-10-10T02:00:00","80.5","ND","ND","ND","ND","4.61","ND","ND","ND","ND","ND","0"],
    [47576,"2015-10-10T03:00:00","76.2","ND","ND","ND","ND","3.18","ND","ND","ND","ND","ND","0"],
    [47577,"2015-10-10T04:00:00","67.3","ND","ND","ND","ND","3.51","ND","ND","ND","ND","ND","0"],
    [47578,"2015-10-10T05:00:00","73.8","ND","ND","ND","ND","3.47","ND","ND","ND","ND","ND","0"],
    [47579,"2015-10-10T06:00:00","56.4","ND","ND","ND","ND","3.02","ND","ND","ND","ND","ND","0"],
    [47580,"2015-10-10T07:00:00","44.7","ND","ND","ND","ND","2.24","ND","ND","ND","ND","ND","0"],
    [47581,"2015-10-10T08:00:00","49.9","ND","ND","ND","ND","2.84","ND","ND","ND","ND","ND","0"],
    [47582,"2015-10-10T09:00:00","50","ND","ND","ND","ND","2.61","ND","ND","ND","ND","ND","0"],
    [47583,"2015-10-10T10:00:00","42.8","ND","ND","ND","ND","2.33","ND","ND","ND","ND","ND","0"],
    [47584,"2015-10-10T11:00:00","44.3","ND","ND","ND","ND","1.95","ND","ND","ND","ND","ND","0"],
    [47585,"2015-10-10T12:00:00","44.4","ND","ND","ND","ND","1.46","ND","ND","ND","ND","ND","0"],
    [47586,"2015-10-10T13:00:00","39.1","ND","ND","ND","ND","2.04","ND","ND","ND","ND","ND","0"],
    [47587,"2015-10-10T14:00:00","27.9","ND","ND","ND","ND","2.06","ND","ND","ND","ND","ND","0"],
    [47588,"2015-10-10T15:00:00","15.2","ND","ND","ND","ND","2.29","ND","ND","ND","ND","ND","0"],
    [47589,"2015-10-10T16:00:00","13.1","ND","ND","ND","ND","1.45","ND","ND","ND","ND","ND","0"],
    [47590,"2015-10-10T17:00:00","14.3","ND","ND","ND","ND","2.97","ND","ND","ND","ND","ND","0"],
    [47591,"2015-10-10T18:00:00","12","ND","ND","ND","ND","2.38","ND","ND","ND","ND","ND","0"],
    [47592,"2015-10-10T19:00:00","16","ND","ND","ND","ND","1.37","ND","ND","ND","ND","ND","0"],
    [47593,"2015-10-10T20:00:00","12","ND","ND","ND","ND","2.05","ND","ND","ND","ND","ND","0"],
    [47594,"2015-10-10T21:00:00","16.9","ND","ND","ND","ND","2.08","ND","ND","ND","ND","ND","0"],
    [47595,"2015-10-10T22:00:00","8.6","ND","ND","ND","ND","1.46","ND","ND","ND","ND","ND","1.52"],
    [47596,"2015-10-10T23:00:00","2.5","ND","ND","ND","ND","1.59","ND","ND","ND","ND","ND","1.27"],
    [47597,"2015-10-11T00:00:00","7","ND","ND","ND","ND","2.26","ND","ND","ND","ND","ND","0"],
    [47598,"2015-10-11T01:00:00","6.4","ND","ND","ND","ND","2.29","ND","ND","ND","ND","ND","0.25"],
    [47599,"2015-10-11T02:00:00","12.2","ND","ND","ND","ND","4.93","ND","ND","ND","ND","ND","0"],
    [47600,"2015-10-11T03:00:00","23","ND","ND","ND","ND","4.56","ND","ND","ND","ND","ND","0"],
    [47601,"2015-10-11T04:00:00","28.5","ND","ND","ND","ND","1.59","ND","ND","ND","ND","ND","0"],
    [47602,"2015-10-11T05:00:00","18","ND","ND","ND","ND","2.51","ND","ND","ND","ND","ND","0"],
    [47603,"2015-10-11T06:00:00","21","ND","ND","ND","ND","2.93","ND","ND","ND","ND","ND","0"],
    [47604,"2015-10-11T07:00:00","23.1","ND","ND","ND","ND","3.00","ND","ND","ND","ND","ND","0"],
    [47605,"2015-10-11T08:00:00","24","ND","ND","ND","ND","2.58","ND","ND","ND","ND","ND","0"],
    [47606,"2015-10-11T09:00:00","34.2","ND","ND","ND","ND","2.59","ND","ND","ND","ND","ND","0"],
    [47607,"2015-10-11T10:00:00","32.6","ND","ND","ND","ND","2.66","ND","ND","ND","ND","ND","0"],
    [47608,"2015-10-11T11:00:00","32.9","ND","ND","ND","ND","2.50","ND","ND","ND","ND","ND","0"],
    [47609,"2015-10-11T12:00:00","33.1","ND","ND","ND","ND","1.85","ND","ND","ND","ND","ND","0"],
    [47610,"2015-10-11T13:00:00","36.1","ND","ND","ND","ND","2.37","ND","ND","ND","ND","ND","0"],
    [47611,"2015-10-11T14:00:00","28.2","ND","ND","ND","ND","1.76","ND","ND","ND","ND","ND","0"],
    [47612,"2015-10-11T15:00:00","16","ND","ND","ND","ND","1.30","ND","ND","ND","ND","ND","0"],
    [47613,"2015-10-11T16:00:00","7","ND","ND","ND","ND","1.46","ND","ND","ND","ND","ND","0"],
    [47614,"2015-10-11T17:00:00","2.5","ND","ND","ND","ND","1.62","ND","ND","ND","ND","ND","0"],
    [47615,"2015-10-11T18:00:00","6.2","ND","ND","ND","ND","1.49","ND","ND","ND","ND","ND","0"],
    [47616,"2015-10-11T19:00:00","10.4","ND","ND","ND","ND","2.17","ND","ND","ND","ND","ND","0"],
    [47617,"2015-10-11T20:00:00","15.7","ND","ND","ND","ND","2.15","ND","ND","ND","ND","ND","0"],
    [47618,"2015-10-11T21:00:00","25.7","ND","ND","ND","ND","3.32","ND","ND","ND","ND","ND","0"],
    [47619,"2015-10-11T22:00:00","22.6","ND","ND","ND","ND","5.12","ND","ND","ND","ND","ND","0"],
    [47620,"2015-10-11T23:00:00","28","ND","ND","ND","ND","5.34","ND","ND","ND","ND","ND","0"],
    [47621,"2015-10-12T00:00:00","37.6","ND","ND","ND","ND","2.55","ND","ND","ND","ND","ND","0"],
    [47622,"2015-10-12T01:00:00","46.2","ND","ND","ND","ND","2.34","ND","ND","ND","ND","ND","0"],
    [47623,"2015-10-12T02:00:00","49.6","ND","ND","ND","ND","3.29","ND","ND","ND","ND","ND","0"],
    [47624,"2015-10-12T03:00:00","52.2","ND","ND","ND","ND","3.16","ND","ND","ND","ND","ND","0"],
    [47625,"2015-10-12T04:00:00","32.9","ND","ND","ND","ND","2.94","ND","ND","ND","ND","ND","0"],
    [47626,"2015-10-12T05:00:00","29.8","ND","ND","ND","ND","1.00","ND","ND","ND","ND","ND","0"],
    [47627,"2015-10-12T06:00:00","28.8","ND","ND","ND","ND","1.91","ND","ND","ND","ND","ND","0"],
    [47628,"2015-10-12T07:00:00","24.1","ND","ND","ND","ND","1.69","ND","ND","ND","ND","ND","0"],
    [47629,"2015-10-12T08:00:00","39","ND","ND","ND","ND","3.51","ND","ND","ND","ND","ND","0"],
    [47630,"2015-10-12T09:00:00","44.2","ND","ND","ND","ND","1.90","ND","ND","ND","ND","ND","0"],
    [47631,"2015-10-12T10:00:00","27.2","ND","ND","ND","ND","2.16","ND","ND","ND","ND","ND","0"],
    [47632,"2015-10-12T11:00:00","24.4","ND","ND","ND","ND","1.51","ND","ND","ND","ND","ND","0"],
    [47633,"2015-10-12T12:00:00","23.8","ND","ND","ND","ND","1.49","ND","ND","ND","ND","ND","0"],
    [47634,"2015-10-12T13:00:00","23","ND","ND","ND","ND","2.10","ND","ND","ND","ND","ND","0"],
    [47635,"2015-10-12T14:00:00","26.6","ND","ND","ND","ND","2.05","ND","ND","ND","ND","ND","0"],
    [47636,"2015-10-12T15:00:00","23.4","ND","ND","ND","ND","1.69","ND","ND","ND","ND","ND","0"],
    [47637,"2015-10-12T16:00:00","13.8","ND","ND","ND","ND","2.17","ND","ND","ND","ND","ND","0"],
    [47638,"2015-10-12T17:00:00","11.8","ND","ND","ND","ND","1.64","ND","ND","ND","ND","ND","0"],
    [47639,"2015-10-12T18:00:00","12.5","ND","ND","ND","ND","2.75","ND","ND","ND","ND","ND","0"],
    [47640,"2015-10-12T19:00:00","18.5","ND","ND","ND","ND","1.91","ND","ND","ND","ND","ND","0"],
    [47641,"2015-10-12T20:00:00","28.3","ND","ND","ND","ND","1.46","ND","ND","ND","ND","ND","0"],
    [47642,"2015-10-12T21:00:00","38.8","ND","ND","ND","ND","1.90","ND","ND","ND","ND","ND","0"],
    [47643,"2015-10-12T22:00:00","47.3","ND","ND","ND","ND","2.89","ND","ND","ND","ND","ND","0"],
    [47644,"2015-10-12T23:00:00","76.4","ND","ND","ND","ND","2.77","ND","ND","ND","ND","ND","0"],
    [47645,"2015-10-13T00:00:00","150.1","ND","ND","ND","ND","2.84","ND","ND","ND","ND","ND","0"],
    [47646,"2015-10-13T01:00:00","111.7","ND","ND","ND","ND","3.16","ND","ND","ND","ND","ND","0"],
    [47647,"2015-10-13T02:00:00","69.3","ND","ND","ND","ND","6.55","ND","ND","ND","ND","ND","0"],
    [47648,"2015-10-13T03:00:00","57.7","ND","ND","ND","ND","6.13","ND","ND","ND","ND","ND","0"],
    [47649,"2015-10-13T04:00:00","54.4","ND","ND","ND","ND","4.46","ND","ND","ND","ND","ND","0"],
    [47650,"2015-10-13T05:00:00","59.7","ND","ND","ND","ND","3.86","ND","ND","ND","ND","ND","0"],
    [47651,"2015-10-13T06:00:00","42.5","ND","ND","ND","ND","3.72","ND","ND","ND","ND","ND","0"],
    [47652,"2015-10-13T07:00:00","41.1","ND","ND","ND","ND","3.29","ND","ND","ND","ND","ND","0"],
    [47653,"2015-10-13T08:00:00","54","ND","ND","ND","ND","8.03","ND","ND","ND","ND","ND","0"],
    [47654,"2015-10-13T09:00:00","62.5","ND","ND","ND","ND","4.15","ND","ND","ND","ND","ND","0"],
    [47655,"2015-10-13T10:00:00","77.4","ND","ND","ND","ND","3.22","ND","ND","ND","ND","ND","0"],
    [47656,"2015-10-13T11:00:00","46.7","ND","ND","ND","ND","1.88","ND","ND","ND","ND","ND","0"],
    [47657,"2015-10-13T12:00:00","36.3","ND","ND","ND","ND","2.08","ND","ND","ND","ND","ND","0"],
    [47658,"2015-10-13T13:00:00","32","ND","ND","ND","ND","1.95","ND","ND","ND","ND","ND","0"],
    [47659,"2015-10-13T14:00:00","28.5","ND","ND","ND","ND","1.74","ND","ND","ND","ND","ND","0"],
    [47660,"2015-10-13T15:00:00","22.4","ND","ND","ND","ND","1.39","ND","ND","ND","ND","ND","0"],
    [47661,"2015-10-13T16:00:00","25","ND","ND","ND","ND","1.83","ND","ND","ND","ND","ND","0"],
    [47662,"2015-10-13T17:00:00","13.7","ND","ND","ND","ND","2.02","ND","ND","ND","ND","ND","0"],
    [47663,"2015-10-13T18:00:00","14.4","ND","ND","ND","ND","1.70","ND","ND","ND","ND","ND","0"],
    [47664,"2015-10-13T19:00:00","20","ND","ND","ND","ND","1.42","ND","ND","ND","ND","ND","0"],
    [47665,"2015-10-13T20:00:00","13.7","ND","ND","ND","ND","1.02","ND","ND","ND","ND","ND","0"],
    [47666,"2015-10-13T21:00:00","15.3","ND","ND","ND","ND","1.90","ND","ND","ND","ND","ND","0"],
    [47667,"2015-10-13T22:00:00","11.1","ND","ND","ND","ND","1.71","ND","ND","ND","ND","ND","0"],
    [47668,"2015-10-13T23:00:00","10.7","ND","ND","ND","ND","1.59","ND","ND","ND","ND","ND","0"],
    [47669,"2015-10-14T00:00:00","21.8","ND","ND","ND","ND","2.59","ND","ND","ND","ND","ND","0"],
    [47670,"2015-10-14T01:00:00","50.6","ND","ND","ND","ND","3.05","ND","ND","ND","ND","ND","0"],
    [47671,"2015-10-14T02:00:00","33.3","ND","ND","ND","ND","4.59","ND","ND","ND","ND","ND","0.76"],
    [47672,"2015-10-14T03:00:00","29.7","ND","ND","ND","ND","7.81","ND","ND","ND","ND","ND","3.81"],
    [47673,"2015-10-14T04:00:00","21.3","ND","ND","ND","ND","2.80","ND","ND","ND","ND","ND","3.56"],
    [47674,"2015-10-14T05:00:00","17.4","ND","ND","ND","ND","2.89","ND","ND","ND","ND","ND","1.52"],
    [47675,"2015-10-14T06:00:00","14.9","ND","ND","ND","ND","2.76","ND","ND","ND","ND","ND","0.51"],
    [47676,"2015-10-14T07:00:00","16.6","ND","ND","ND","ND","5.26","ND","ND","ND","ND","ND","0.51"],
    [47677,"2015-10-14T08:00:00","14.7","ND","ND","ND","ND","3.44","ND","ND","ND","ND","ND","0.51"],
    [47678,"2015-10-14T09:00:00","20.9","ND","ND","ND","ND","2.91","ND","ND","ND","ND","ND","0"],
    [47679,"2015-10-14T10:00:00","26.2","ND","ND","ND","ND","2.45","ND","ND","ND","ND","ND","0"],
    [47680,"2015-10-14T11:00:00","30.2","ND","ND","ND","ND","2.16","ND","ND","ND","ND","ND","0"],
    [47681,"2015-10-14T12:00:00","22.8","ND","ND","ND","ND","2.02","ND","ND","ND","ND","ND","0"],
    [47682,"2015-10-14T13:00:00","18.7","ND","ND","ND","ND","1.18","ND","ND","ND","ND","ND","0"],
    [47683,"2015-10-14T14:00:00","20.2","ND","ND","ND","ND","1.70","ND","ND","ND","ND","ND","0"],
    [47684,"2015-10-14T15:00:00","17.8","ND","ND","ND","ND","1.14","ND","ND","ND","ND","ND","0"],
    [47685,"2015-10-14T16:00:00","22.4","ND","ND","ND","ND","1.42","ND","ND","ND","ND","ND","0"],
    [47686,"2015-10-14T17:00:00","25.1","ND","ND","ND","ND","1.71","ND","ND","ND","ND","ND","0"],
    [47687,"2015-10-14T18:00:00","30.6","ND","ND","ND","ND","1.85","ND","ND","ND","ND","ND","0"],
    [47688,"2015-10-14T19:00:00","41.5","ND","ND","ND","ND","3.11","ND","ND","ND","ND","ND","0"],
    [47689,"2015-10-14T20:00:00","46","ND","ND","ND","ND","2.05","ND","ND","ND","ND","ND","0"],
    [47690,"2015-10-14T21:00:00","44.9","ND","ND","ND","ND","2.34","ND","ND","ND","ND","ND","0"],
    [47691,"2015-10-14T22:00:00","44.5","ND","ND","ND","ND","1.31","ND","ND","ND","ND","ND","0"],
    [47692,"2015-10-14T23:00:00","50.6","ND","ND","ND","ND","3.83","ND","ND","ND","ND","ND","0"],
    [47693,"2015-10-15T00:00:00","71.8","ND","ND","ND","ND","4.47","ND","ND","ND","ND","ND","0"],
    [47694,"2015-10-15T01:00:00","61.3","ND","ND","ND","ND","3.48","ND","ND","ND","ND","ND","0"],
    [47695,"2015-10-15T02:00:00","60.2","ND","ND","ND","ND","4.27","ND","ND","ND","ND","ND","0.76"],
    [47696,"2015-10-15T03:00:00","21.4","ND","ND","ND","ND","1.20","ND","ND","ND","ND","ND","2.29"],
    [47697,"2015-10-15T04:00:00","5","ND","ND","ND","ND","1.70","ND","ND","ND","ND","ND","6.86"],
    [47698,"2015-10-15T05:00:00","5.3","ND","ND","ND","ND","1.78","ND","ND","ND","ND","ND","6.6"],
    [47699,"2015-10-15T06:00:00","8.6","ND","ND","ND","ND","1.81","ND","ND","ND","ND","ND","2.29"],
    [47700,"2015-10-15T07:00:00","15.7","ND","ND","ND","ND","2.62","ND","ND","ND","ND","ND","0"],
    [47701,"2015-10-15T08:00:00","19.1","ND","ND","ND","ND","2.50","ND","ND","ND","ND","ND","0"],
    [47702,"2015-10-15T09:00:00","32.2","ND","ND","ND","ND","3.67","ND","ND","ND","ND","ND","0"],
    [47703,"2015-10-15T10:00:00","35.2","ND","ND","ND","ND","2.37","ND","ND","ND","ND","ND","0"],
    [47704,"2015-10-15T11:00:00","46.6","ND","ND","ND","ND","3.22","ND","ND","ND","ND","ND","0"],
    [47705,"2015-10-15T12:00:00","29.6","ND","ND","ND","ND","2.06","ND","ND","ND","ND","ND","0.25"],
    [47706,"2015-10-15T13:00:00","21","ND","ND","ND","ND","1.44","ND","ND","ND","ND","ND","0"],
    [47707,"2015-10-15T14:00:00","19.7","ND","ND","ND","ND","1.66","ND","ND","ND","ND","ND","0"],
    [47708,"2015-10-15T15:00:00","19.9","ND","ND","ND","ND","1.00","ND","ND","ND","ND","ND","0"],
    [47709,"2015-10-15T16:00:00","15.5","ND","ND","ND","ND","1.91","ND","ND","ND","ND","ND","0"],
    [47710,"2015-10-15T17:00:00","16.8","ND","ND","ND","ND","1.12","ND","ND","ND","ND","ND","0"],
    [47711,"2015-10-15T18:00:00","16.4","ND","ND","ND","ND","1.34","ND","ND","ND","ND","ND","0"],
    [47712,"2015-10-15T19:00:00","18.6","ND","ND","ND","ND","1.62","ND","ND","ND","ND","ND","0"],
    [47713,"2015-10-15T20:00:00","36","ND","ND","ND","ND","1.60","ND","ND","ND","ND","ND","0"],
    [47714,"2015-10-15T21:00:00","31.8","ND","ND","ND","ND","2.76","ND","ND","ND","ND","ND","0"],
    [47715,"2015-10-15T22:00:00","33.5","ND","ND","ND","ND","1.34","ND","ND","ND","ND","ND","0"],
    [47716,"2015-10-15T23:00:00","36.5","ND","ND","ND","ND","3.25","ND","ND","ND","ND","ND","0"],
    [47717,"2015-10-16T00:00:00","32.2","ND","ND","ND","ND","3.72","ND","ND","ND","ND","ND","0"],
    [47718,"2015-10-16T01:00:00","17","ND","ND","ND","ND","2.40","ND","ND","ND","ND","ND","0"],
    [47719,"2015-10-16T02:00:00","19.9","ND","ND","ND","ND","1.16","ND","ND","ND","ND","ND","0"],
    [47720,"2015-10-16T03:00:00","19.2","ND","ND","ND","ND","1.97","ND","ND","ND","ND","ND","0"],
    [47721,"2015-10-16T04:00:00","21.8","ND","ND","ND","ND","1.80","ND","ND","ND","ND","ND","0"],
    [47722,"2015-10-16T05:00:00","20.9","ND","ND","ND","ND","1.52","ND","ND","ND","ND","ND","0"],
    [47723,"2015-10-16T06:00:00","22.4","ND","ND","ND","ND","1.90","ND","ND","ND","ND","ND","0"],
    [47724,"2015-10-16T07:00:00","31.8","ND","ND","ND","ND","1.81","ND","ND","ND","ND","ND","0"],
    [47725,"2015-10-16T08:00:00","37.3","ND","ND","ND","ND","1.48","ND","ND","ND","ND","ND","0"],
    [47726,"2015-10-16T09:00:00","47","ND","ND","ND","ND","1.87","ND","ND","ND","ND","ND","0"],
    [47727,"2015-10-16T10:00:00","37.3","ND","ND","ND","ND","1.74","ND","ND","ND","ND","ND","0"],
    [47728,"2015-10-16T11:00:00","13","ND","ND","ND","ND","1.52","ND","ND","ND","ND","ND","0"],
    [47729,"2015-10-16T12:00:00","12.1","ND","ND","ND","ND","1.25","ND","ND","ND","ND","ND","0"],
    [47730,"2015-10-16T13:00:00","11.7","ND","ND","ND","ND","1.02","ND","ND","ND","ND","ND","0"],
    [47731,"2015-10-16T14:00:00","20.4","ND","ND","ND","ND","1.71","ND","ND","ND","ND","ND","0"],
    [47732,"2015-10-16T15:00:00","30.6","ND","ND","ND","ND","2.06","ND","ND","ND","ND","ND","0"],
    [47733,"2015-10-16T16:00:00","41.9","ND","ND","ND","ND","2.04","ND","ND","ND","ND","ND","0"],
    [47734,"2015-10-16T17:00:00","25.7","ND","ND","ND","ND","1.76","ND","ND","ND","ND","ND","0"],
    [47735,"2015-10-16T18:00:00","26.7","ND","ND","ND","ND","1.39","ND","ND","ND","ND","ND","4.32"],
    [47736,"2015-10-16T19:00:00","10.2","ND","ND","ND","ND","1.99","ND","ND","ND","ND","ND","0.25"],
    [47737,"2015-10-16T20:00:00","17.9","ND","ND","ND","ND","3.22","ND","ND","ND","ND","ND","0.51"],
    [47738,"2015-10-16T21:00:00","30.9","ND","ND","ND","ND","3.32","ND","ND","ND","ND","ND","0"],
    [47739,"2015-10-16T22:00:00","37.8","ND","ND","ND","ND","4.04","ND","ND","ND","ND","ND","0"],
    [47740,"2015-10-16T23:00:00","38.5","ND","ND","ND","ND","3.36","ND","ND","ND","ND","ND","0"],
    [47741,"2015-10-17T00:00:00","50","ND","ND","ND","ND","2.40","ND","ND","ND","ND","ND","0"],
    [47742,"2015-10-17T01:00:00","53.9","ND","ND","ND","ND","3.25","ND","ND","ND","ND","ND","0"],
    [47743,"2015-10-17T02:00:00","51.5","ND","ND","ND","ND","6.13","ND","ND","ND","ND","ND","0"],
    [47744,"2015-10-17T03:00:00","56.1","ND","ND","ND","ND","5.88","ND","ND","ND","ND","ND","0"],
    [47745,"2015-10-17T04:00:00","37.5","ND","ND","ND","ND","2.68","ND","ND","ND","ND","ND","0"],
    [47746,"2015-10-17T05:00:00","43.4","ND","ND","ND","ND","3.86","ND","ND","ND","ND","ND","0"],
    [47747,"2015-10-17T06:00:00","47","ND","ND","ND","ND","5.62","ND","ND","ND","ND","ND","0"],
    [47748,"2015-10-17T07:00:00","60.4","ND","ND","ND","ND","7.26","ND","ND","ND","ND","ND","0"],
    [47749,"2015-10-17T08:00:00","78.2","ND","ND","ND","ND","11.46","ND","ND","ND","ND","ND","0"],
    [47750,"2015-10-17T09:00:00","77.4","ND","ND","ND","ND","5.66","ND","ND","ND","ND","ND","0"],
    [47751,"2015-10-17T10:00:00","51.7","ND","ND","ND","ND","3.21","ND","ND","ND","ND","ND","0"],
    [47752,"2015-10-17T11:00:00","41.8","ND","ND","ND","ND","2.86","ND","ND","ND","ND","ND","0"],
    [47753,"2015-10-17T12:00:00","45.1","ND","ND","ND","ND","2.41","ND","ND","ND","ND","ND","0"],
    [47754,"2015-10-17T13:00:00","39.6","ND","ND","ND","ND","1.73","ND","ND","ND","ND","ND","0"],
    [47755,"2015-10-17T14:00:00","34.6","ND","ND","ND","ND","1.66","ND","ND","ND","ND","ND","0"],
    [47756,"2015-10-17T15:00:00","34.8","ND","ND","ND","ND","1.87","ND","ND","ND","ND","ND","0"],
    [47757,"2015-10-17T16:00:00","25.1","ND","ND","ND","ND","1.51","ND","ND","ND","ND","ND","0"],
    [47758,"2015-10-17T17:00:00","21","ND","ND","ND","ND","1.25","ND","ND","ND","ND","ND","0"],
    [47759,"2015-10-17T18:00:00","17.3","ND","ND","ND","ND","1.97","ND","ND","ND","ND","ND","0"],
    [47760,"2015-10-17T19:00:00","16.7","ND","ND","ND","ND","2.04","ND","ND","ND","ND","ND","0"],
    [47761,"2015-10-17T20:00:00","21.3","ND","ND","ND","ND","1.39","ND","ND","ND","ND","ND","0"],
    [47762,"2015-10-17T21:00:00","16.5","ND","ND","ND","ND","1.94","ND","ND","ND","ND","ND","0"],
    [47763,"2015-10-17T22:00:00","18.7","ND","ND","ND","ND","2.56","ND","ND","ND","ND","ND","0"],
    [47764,"2015-10-17T23:00:00","33","ND","ND","ND","ND","3.09","ND","ND","ND","ND","ND","0"],
    [47765,"2015-10-18T00:00:00","33.3","ND","ND","ND","ND","2.08","ND","ND","ND","ND","ND","0"],
    [47766,"2015-10-18T01:00:00","31.4","ND","ND","ND","ND","2.59","ND","ND","ND","ND","ND","0"],
    [47767,"2015-10-18T02:00:00","37.7","ND","ND","ND","ND","3.65","ND","ND","ND","ND","ND","0"],
    [47768,"2015-10-18T03:00:00","36.2","ND","ND","ND","ND","1.91","ND","ND","ND","ND","ND","0"],
    [47769,"2015-10-18T04:00:00","31.8","ND","ND","ND","ND","1.85","ND","ND","ND","ND","ND","0"],
    [47770,"2015-10-18T05:00:00","32","ND","ND","ND","ND","2.04","ND","ND","ND","ND","ND","0"],
    [47771,"2015-10-18T06:00:00","34.6","ND","ND","ND","ND","2.15","ND","ND","ND","ND","ND","0"],
    [47772,"2015-10-18T07:00:00","48.1","ND","ND","ND","ND","2.44","ND","ND","ND","ND","ND","0"],
    [47773,"2015-10-18T08:00:00","48.9","ND","ND","ND","ND","2.73","ND","ND","ND","ND","ND","0"],
    [47774,"2015-10-18T09:00:00","50.6","ND","ND","ND","ND","2.09","ND","ND","ND","ND","ND","0"],
    [47775,"2015-10-18T10:00:00","40.1","ND","ND","ND","ND","2.33","ND","ND","ND","ND","ND","0"],
    [47776,"2015-10-18T11:00:00","20.6","ND","ND","ND","ND","1.63","ND","ND","ND","ND","ND","0"],
    [47777,"2015-10-18T12:00:00","24.1","ND","ND","ND","ND","1.71","ND","ND","ND","ND","ND","0"],
    [47778,"2015-10-18T13:00:00","20.8","ND","ND","ND","ND","1.39","ND","ND","ND","ND","ND","0"],
    [47779,"2015-10-18T14:00:00","13.9","ND","ND","ND","ND","1.70","ND","ND","ND","ND","ND","0"],
    [47780,"2015-10-18T15:00:00","11.3","ND","ND","ND","ND","0.92","ND","ND","ND","ND","ND","0"],
    [47781,"2015-10-18T16:00:00","10.4","ND","ND","ND","ND","1.44","ND","ND","ND","ND","ND","0"],
    [47782,"2015-10-18T17:00:00","9.3","ND","ND","ND","ND","1.69","ND","ND","ND","ND","ND","0"],
    [47783,"2015-10-18T18:00:00","9.7","ND","ND","ND","ND","1.31","ND","ND","ND","ND","ND","0.51"],
    [47784,"2015-10-18T19:00:00","20.7","ND","ND","ND","ND","2.63","ND","ND","ND","ND","ND","0"],
    [47785,"2015-10-18T20:00:00","21.8","ND","ND","ND","ND","1.71","ND","ND","ND","ND","ND","0"],
    [47786,"2015-10-18T21:00:00","22.9","ND","ND","ND","ND","1.73","ND","ND","ND","ND","ND","0"],
    [47787,"2015-10-18T22:00:00","22.8","ND","ND","ND","ND","1.76","ND","ND","ND","ND","ND","0"],
    [47788,"2015-10-18T23:00:00","29","ND","ND","ND","ND","2.70","ND","ND","ND","ND","ND","0"],
    [47789,"2015-10-19T00:00:00","43.7","ND","ND","ND","ND","2.75","ND","ND","ND","ND","ND","0"],
    [47790,"2015-10-19T01:00:00","48.3","ND","ND","ND","ND","3.51","ND","ND","ND","ND","ND","0"],
    [47791,"2015-10-19T02:00:00","55.1","ND","ND","ND","ND","7.46","ND","ND","ND","ND","ND","0"],
    [47792,"2015-10-19T03:00:00","54.3","ND","ND","ND","ND","6.23","ND","ND","ND","ND","ND","0"],
    [47793,"2015-10-19T04:00:00","50","ND","ND","ND","ND","7.25","ND","ND","ND","ND","ND","0"],
    [47794,"2015-10-19T05:00:00","59.9","ND","ND","ND","ND","8.54","ND","ND","ND","ND","ND","0"],
    [47795,"2015-10-19T06:00:00","73.8","ND","ND","ND","ND","ND","ND","ND","ND","ND","ND","0"],
    [47796,"2015-10-19T07:00:00","84.7","ND","ND","ND","ND","ND","ND","ND","ND","ND","ND","0"],
    [47797,"2015-10-19T08:00:00","80","ND","ND","ND","ND","11.71","ND","ND","ND","ND","ND","0"],
    [47798,"2015-10-19T09:00:00","53.7","ND","ND","ND","ND","5.71","ND","ND","ND","ND","ND","0"],
    [47799,"2015-10-19T10:00:00","31.8","ND","ND","ND","ND","3.69","ND","ND","ND","ND","ND","0"],
    [47800,"2015-10-19T11:00:00","34.7","ND","ND","ND","ND","3.01","ND","ND","ND","ND","ND","0"],
    [47801,"2015-10-19T12:00:00","35.7","ND","ND","ND","ND","2.02","ND","ND","ND","ND","ND","0"],
    [47802,"2015-10-19T13:00:00","30.8","ND","ND","ND","ND","1.87","ND","ND","ND","ND","ND","0"],
    [47803,"2015-10-19T14:00:00","25.1","ND","ND","ND","ND","1.39","ND","ND","ND","ND","ND","0"],
    [47804,"2015-10-19T15:00:00","35.3","ND","ND","ND","ND","1.73","ND","ND","ND","ND","ND","0"],
    [47805,"2015-10-19T16:00:00","34.5","ND","ND","ND","ND","1.67","ND","ND","ND","ND","ND","0"],
    [47806,"2015-10-19T17:00:00","30","ND","ND","ND","ND","2.12","ND","ND","ND","ND","ND","0"],
    [47807,"2015-10-19T18:00:00","27.4","ND","ND","ND","ND","1.38","ND","ND","ND","ND","ND","0"],
    [47808,"2015-10-19T19:00:00","24.8","ND","ND","ND","ND","1.99","ND","ND","ND","ND","ND","0"],
    [47809,"2015-10-19T20:00:00","32.1","ND","ND","ND","ND","2.16","ND","ND","ND","ND","ND","0"],
    [47810,"2015-10-19T21:00:00","35.8","ND","ND","ND","ND","2.44","ND","ND","ND","ND","ND","0"],
    [47811,"2015-10-19T22:00:00","31.2","ND","ND","ND","ND","2.96","ND","ND","ND","ND","ND","0"],
    [47812,"2015-10-19T23:00:00","20.1","ND","ND","ND","ND","3.50","ND","ND","ND","ND","ND","0"],
    [47813,"2015-10-20T00:00:00","12.5","ND","ND","ND","ND","2.68","ND","ND","ND","ND","ND","0"],
    [47814,"2015-10-20T01:00:00","10.2","ND","ND","ND","ND","3.07","ND","ND","ND","ND","ND","0"],
    [47815,"2015-10-20T02:00:00","22","ND","ND","ND","ND","2.44","ND","ND","ND","ND","ND","0"],
    [47816,"2015-10-20T03:00:00","21.3","ND","ND","ND","ND","1.71","ND","ND","ND","ND","ND","0"],
    [47817,"2015-10-20T04:00:00","31.2","ND","ND","ND","ND","2.91","ND","ND","ND","ND","ND","0"],
    [47818,"2015-10-20T05:00:00","37.9","ND","ND","ND","ND","2.97","ND","ND","ND","ND","ND","0"],
    [47819,"2015-10-20T06:00:00","37.2","ND","ND","ND","ND","3.55","ND","ND","ND","ND","ND","0"],
    [47820,"2015-10-20T07:00:00","67.4","ND","ND","ND","ND","8.43","ND","ND","ND","ND","ND","0"],
    [47821,"2015-10-20T08:00:00","64.1","ND","ND","ND","ND","4.08","ND","ND","ND","ND","ND","0"],
    [47822,"2015-10-20T09:00:00","63.3","ND","ND","ND","ND","3.26","ND","ND","ND","ND","ND","0"],
    [47823,"2015-10-20T10:00:00","61.7","ND","ND","ND","ND","2.16","ND","ND","ND","ND","ND","0"],
    [47824,"2015-10-20T11:00:00","48.1","ND","ND","ND","ND","1.87","ND","ND","ND","ND","ND","0"],
    [47825,"2015-10-20T12:00:00","36.7","ND","ND","ND","ND","2.16","ND","ND","ND","ND","ND","0"],
    [47826,"2015-10-20T13:00:00","43.9","ND","ND","ND","ND","1.80","ND","ND","ND","ND","ND","0"],
    [47827,"2015-10-20T14:00:00","32.5","ND","ND","ND","ND","1.69","ND","ND","ND","ND","ND","0"],
    [47828,"2015-10-20T15:00:00","42.6","ND","ND","ND","ND","1.21","ND","ND","ND","ND","ND","0"],
    [47829,"2015-10-20T16:00:00","28.8","ND","ND","ND","ND","1.24","ND","ND","ND","ND","ND","0"],
    [47830,"2015-10-20T17:00:00","31.1","ND","ND","ND","ND","1.70","ND","ND","ND","ND","ND","0"],
    [47831,"2015-10-20T18:00:00","23.4","ND","ND","ND","ND","2.30","ND","ND","ND","ND","ND","0"],
    [47832,"2015-10-20T19:00:00","20.3","ND","ND","ND","ND","1.78","ND","ND","ND","ND","ND","0"],
    [47833,"2015-10-20T20:00:00","39.7","ND","ND","ND","ND","1.66","ND","ND","ND","ND","ND","0"],
    [47834,"2015-10-20T21:00:00","34.2","ND","ND","ND","ND","2.55","ND","ND","ND","ND","ND","0"],
    [47835,"2015-10-20T22:00:00","36.9","ND","ND","ND","ND","2.16","ND","ND","ND","ND","ND","0"],
    [47836,"2015-10-20T23:00:00","28.9","ND","ND","ND","ND","3.26","ND","ND","ND","ND","ND","0"],
    [47837,"2015-10-21T00:00:00","22.3","ND","ND","ND","ND","1.90","ND","ND","ND","ND","ND","0"],
    [47838,"2015-10-21T01:00:00","32.8","ND","ND","ND","ND","2.75","ND","ND","ND","ND","ND","0"],
    [47839,"2015-10-21T02:00:00","45.9","ND","ND","ND","ND","2.63","ND","ND","ND","ND","ND","0"],
    [47840,"2015-10-21T03:00:00","36","ND","ND","ND","ND","2.13","ND","ND","ND","ND","ND","0"],
    [47841,"2015-10-21T04:00:00","33.3","ND","ND","ND","ND","3.21","ND","ND","ND","ND","ND","0"],
    [47842,"2015-10-21T05:00:00","49.4","ND","ND","ND","ND","3.42","ND","ND","ND","ND","ND","0"],
    [47843,"2015-10-21T06:00:00","64","ND","ND","ND","ND","2.08","ND","ND","ND","ND","ND","0"],
    [47844,"2015-10-21T07:00:00","72","ND","ND","ND","ND","2.89","ND","ND","ND","ND","ND","0"],
    [47845,"2015-10-21T08:00:00","79.7","ND","ND","ND","ND","4.80","ND","ND","ND","ND","ND","0"],
    [47846,"2015-10-21T09:00:00","83.4","ND","ND","ND","ND","5.71","ND","ND","ND","ND","ND","0"],
    [47847,"2015-10-21T10:00:00","87.8","ND","ND","ND","ND","4.04","ND","ND","ND","ND","ND","0"],
    [47848,"2015-10-21T11:00:00","59.2","ND","ND","ND","ND","2.16","ND","ND","ND","ND","ND","0"],
    [47849,"2015-10-21T12:00:00","44.1","ND","ND","ND","ND","2.22","ND","ND","ND","ND","ND","0"],
    [47850,"2015-10-21T13:00:00","41.6","ND","ND","ND","ND","2.09","ND","ND","ND","ND","ND","0"],
    [47851,"2015-10-21T14:00:00","39.4","ND","ND","ND","ND","1.21","ND","ND","ND","ND","ND","0"],
    [47852,"2015-10-21T15:00:00","34.1","ND","ND","ND","ND","1.39","ND","ND","ND","ND","ND","0"],
    [47853,"2015-10-21T16:00:00","40.1","ND","ND","ND","ND","0.89","ND","ND","ND","ND","ND","0"],
    [47854,"2015-10-21T17:00:00","36.9","ND","ND","ND","ND","2.05","ND","ND","ND","ND","ND","0"],
    [47855,"2015-10-21T18:00:00","24","ND","ND","ND","ND","1.58","ND","ND","ND","ND","ND","0"],
    [47856,"2015-10-21T19:00:00","24.6","ND","ND","ND","ND","1.51","ND","ND","ND","ND","ND","0"],
    [47857,"2015-10-21T20:00:00","32.6","ND","ND","ND","ND","1.55","ND","ND","ND","ND","ND","0"],
    [47858,"2015-10-21T21:00:00","34","ND","ND","ND","ND","2.65","ND","ND","ND","ND","ND","0"],
    [47859,"2015-10-21T22:00:00","42.5","ND","ND","ND","ND","2.97","ND","ND","ND","ND","ND","0"],
    [47860,"2015-10-21T23:00:00","38.7","ND","ND","ND","ND","5.03","ND","ND","ND","ND","ND","0"],
    [47861,"2015-10-22T00:00:00","34.8","ND","ND","ND","ND","4.01","ND","ND","ND","ND","ND","0"],
    [47862,"2015-10-22T01:00:00","31.7","ND","ND","ND","ND","3.16","ND","ND","ND","ND","ND","0"],
    [47863,"2015-10-22T02:00:00","31.6","ND","ND","ND","ND","3.09","ND","ND","ND","ND","ND","0"],
    [47864,"2015-10-22T03:00:00","36.8","ND","ND","ND","ND","2.36","ND","ND","ND","ND","ND","0"],
    [47865,"2015-10-22T04:00:00","50.1","ND","ND","ND","ND","1.98","ND","ND","ND","ND","ND","0"],
    [47866,"2015-10-22T05:00:00","48.1","ND","ND","ND","ND","3.58","ND","ND","ND","ND","ND","0"],
    [47867,"2015-10-22T06:00:00","58.3","ND","ND","ND","ND","3.58","ND","ND","ND","ND","ND","0"],
    [47868,"2015-10-22T07:00:00","59.1","ND","ND","ND","ND","3.07","ND","ND","ND","ND","ND","0"],
    [47869,"2015-10-22T08:00:00","96.6","ND","ND","ND","ND","3.28","ND","ND","ND","ND","ND","0"],
    [47870,"2015-10-22T09:00:00","94.6","ND","ND","ND","ND","4.06","ND","ND","ND","ND","ND","0"],
    [47871,"2015-10-22T10:00:00","63.4","ND","ND","ND","ND","2.34","ND","ND","ND","ND","ND","0"],
    [47872,"2015-10-22T11:00:00","37.5","ND","ND","ND","ND","2.10","ND","ND","ND","ND","ND","0"],
    [47873,"2015-10-22T12:00:00","37.5","ND","ND","ND","ND","2.05","ND","ND","ND","ND","ND","0"],
    [47874,"2015-10-22T13:00:00","40.1","ND","ND","ND","ND","1.64","ND","ND","ND","ND","ND","0"],
    [47875,"2015-10-22T14:00:00","30","ND","ND","ND","ND","1.35","ND","ND","ND","ND","ND","0"],
    [47876,"2015-10-22T15:00:00","22.8","ND","ND","ND","ND","1.66","ND","ND","ND","ND","ND","0"],
    [47877,"2015-10-22T16:00:00","32.1","ND","ND","ND","ND","1.62","ND","ND","ND","ND","ND","0"],
    [47878,"2015-10-22T17:00:00","29.8","ND","ND","ND","ND","1.48","ND","ND","ND","ND","ND","0"],
    [47879,"2015-10-22T18:00:00","30.3","ND","ND","ND","ND","1.45","ND","ND","ND","ND","ND","0"],
    [47880,"2015-10-22T19:00:00","24.1","ND","ND","ND","ND","2.04","ND","ND","ND","ND","ND","0"],
    [47881,"2015-10-22T20:00:00","29.2","ND","ND","ND","ND","2.84","ND","ND","ND","ND","ND","0"],
    [47882,"2015-10-22T21:00:00","30.5","ND","ND","ND","ND","2.13","ND","ND","ND","ND","ND","0"],
    [47883,"2015-10-22T22:00:00","28.6","ND","ND","ND","ND","2.24","ND","ND","ND","ND","ND","0"],
    [47884,"2015-10-22T23:00:00","31.1","ND","ND","ND","ND","2.70","ND","ND","ND","ND","ND","0"],
    [47885,"2015-10-23T00:00:00","28.6","ND","ND","ND","ND","2.70","ND","ND","ND","ND","ND","0"],
    [47886,"2015-10-23T01:00:00","55.2","ND","ND","ND","ND","3.22","ND","ND","ND","ND","ND","0"],
    [47887,"2015-10-23T02:00:00","83.1","ND","ND","ND","ND","5.28","ND","ND","ND","ND","ND","0"],
    [47888,"2015-10-23T03:00:00","58.7","ND","ND","ND","ND","3.16","ND","ND","ND","ND","ND","0"],
    [47889,"2015-10-23T04:00:00","42.6","ND","ND","ND","ND","4.59","ND","ND","ND","ND","ND","0"],
    [47890,"2015-10-23T05:00:00","54.9","ND","ND","ND","ND","4.53","ND","ND","ND","ND","ND","0"],
    [47891,"2015-10-23T06:00:00","58.6","ND","ND","ND","ND","4.40","ND","ND","ND","ND","ND","0"],
    [47892,"2015-10-23T07:00:00","82.2","ND","ND","ND","ND","4.93","ND","ND","ND","ND","ND","0"],
    [47893,"2015-10-23T08:00:00","84.5","ND","ND","ND","ND","4.53","ND","ND","ND","ND","ND","0"],
    [47894,"2015-10-23T09:00:00","68.2","ND","ND","ND","ND","2.44","ND","ND","ND","ND","ND","0"],
    [47895,"2015-10-23T10:00:00","37.4","ND","ND","ND","ND","1.74","ND","ND","ND","ND","ND","0"],
    [47896,"2015-10-23T11:00:00","39","ND","ND","ND","ND","1.53","ND","ND","ND","ND","ND","0"],
    [47897,"2015-10-23T12:00:00","37.4","ND","ND","ND","ND","1.56","ND","ND","ND","ND","ND","0"],
    [47898,"2015-10-23T13:00:00","31.3","ND","ND","ND","ND","1.52","ND","ND","ND","ND","ND","0"],
    [47899,"2015-10-23T14:00:00","23.7","ND","ND","ND","ND","1.24","ND","ND","ND","ND","ND","0"],
    [47900,"2015-10-23T15:00:00","33.7","ND","ND","ND","ND","1.92","ND","ND","ND","ND","ND","0"],
    [47901,"2015-10-23T16:00:00","ND","ND","ND","ND","ND","ND","ND","ND","ND","ND","ND","ND"],
    [47902,"2015-10-23T17:00:00","ND","ND","ND","ND","ND","ND","ND","ND","ND","ND","ND","0"],
    [47903,"2015-10-23T18:00:00","10.6","ND","ND","ND","ND","1.84","ND","ND","ND","ND","ND","0"],
    [47904,"2015-10-23T19:00:00","16.6","ND","ND","ND","ND","1.76","ND","ND","ND","ND","ND","0"],
    [47905,"2015-10-23T20:00:00","17.5","ND","ND","ND","ND","1.52","ND","ND","ND","ND","ND","1.52"],
    [47906,"2015-10-23T21:00:00","12.8","ND","ND","ND","ND","1.49","ND","ND","ND","ND","ND","0.25"],
    [47907,"2015-10-23T22:00:00","17.7","ND","ND","ND","ND","2.05","ND","ND","ND","ND","ND","0"],
    [47908,"2015-10-23T23:00:00","22.4","ND","ND","ND","ND","1.59","ND","ND","ND","ND","ND","0"],
    [47909,"2015-10-24T00:00:00","15.1","ND","ND","ND","ND","2.59","ND","ND","ND","ND","ND","0"],
    [47910,"2015-10-24T01:00:00","15","ND","ND","ND","ND","1.23","ND","ND","ND","ND","ND","0"],
    [47911,"2015-10-24T02:00:00","8.3","ND","ND","ND","ND","1.81","ND","ND","ND","ND","ND","0"],
    [47912,"2015-10-24T03:00:00","21.3","ND","ND","ND","ND","2.27","ND","ND","ND","ND","ND","0"],
    [47913,"2015-10-24T04:00:00","31","ND","ND","ND","ND","2.70","ND","ND","ND","ND","ND","0"],
    [47914,"2015-10-24T05:00:00","50.4","ND","ND","ND","ND","4.11","ND","ND","ND","ND","ND","0"],
    [47915,"2015-10-24T06:00:00","44.9","ND","ND","ND","ND","5.09","ND","ND","ND","ND","ND","0"],
    [47916,"2015-10-24T07:00:00","34.5","ND","ND","ND","ND","4.96","ND","ND","ND","ND","ND","0"],
    [47917,"2015-10-24T08:00:00","31.9","ND","ND","ND","ND","4.43","ND","ND","ND","ND","ND","0"],
    [47918,"2015-10-24T09:00:00","49.5","ND","ND","ND","ND","2.87","ND","ND","ND","ND","ND","0"],
    [47919,"2015-10-24T10:00:00","47.8","ND","ND","ND","ND","2.77","ND","ND","ND","ND","ND","0"],
    [47920,"2015-10-24T11:00:00","48.3","ND","ND","ND","ND","2.45","ND","ND","ND","ND","ND","0"],
    [47921,"2015-10-24T12:00:00","38.7","ND","ND","ND","ND","2.40","ND","ND","ND","ND","ND","0"],
    [47922,"2015-10-24T13:00:00","31.9","ND","ND","ND","ND","1.58","ND","ND","ND","ND","ND","0"],
    [47923,"2015-10-24T14:00:00","23.4","ND","ND","ND","ND","1.71","ND","ND","ND","ND","ND","0"],
    [47924,"2015-10-24T15:00:00","32","ND","ND","ND","ND","1.87","ND","ND","ND","ND","ND","0"],
    [47925,"2015-10-24T16:00:00","29.2","ND","ND","ND","ND","1.42","ND","ND","ND","ND","ND","0"],
    [47926,"2015-10-24T17:00:00","21.1","ND","ND","ND","ND","1.80","ND","ND","ND","ND","ND","0"],
    [47927,"2015-10-24T18:00:00","18.8","ND","ND","ND","ND","1.63","ND","ND","ND","ND","ND","0"],
    [47928,"2015-10-24T19:00:00","15.1","ND","ND","ND","ND","1.70","ND","ND","ND","ND","ND","0"],
    [47929,"2015-10-24T20:00:00","18","ND","ND","ND","ND","1.38","ND","ND","ND","ND","ND","0"],
    [47930,"2015-10-24T21:00:00","18.2","ND","ND","ND","ND","2.68","ND","ND","ND","ND","ND","0"],
    [47931,"2015-10-24T22:00:00","16.6","ND","ND","ND","ND","2.09","ND","ND","ND","ND","ND","0.25"],
    [47932,"2015-10-24T23:00:00","8.4","ND","ND","ND","ND","2.66","ND","ND","ND","ND","ND","0"],
    [47933,"2015-10-25T00:00:00","14.5","ND","ND","ND","ND","2.80","ND","ND","ND","ND","ND","9.14"],
    [47934,"2015-10-25T01:00:00","23.4","ND","ND","ND","ND","2.54","ND","ND","ND","ND","ND","0.51"],
    [47935,"2015-10-25T02:00:00","35.5","ND","ND","ND","ND","2.70","ND","ND","ND","ND","ND","6.6"],
    [47936,"2015-10-25T03:00:00","25.5","ND","ND","ND","ND","2.47","ND","ND","ND","ND","ND","7.62"],
    [47937,"2015-10-25T04:00:00","9.5","ND","ND","ND","ND","1.63","ND","ND","ND","ND","ND","1.02"],
    [47938,"2015-10-25T05:00:00","15.2","ND","ND","ND","ND","1.39","ND","ND","ND","ND","ND","0.51"],
    [47939,"2015-10-25T06:00:00","10.3","ND","ND","ND","ND","1.69","ND","ND","ND","ND","ND","0.76"],
    [47940,"2015-10-25T07:00:00","9.3","ND","ND","ND","ND","1.42","ND","ND","ND","ND","ND","0.25"],
    [47941,"2015-10-25T08:00:00","12","ND","ND","ND","ND","1.71","ND","ND","ND","ND","ND","0"],
    [47942,"2015-10-25T09:00:00","14.5","ND","ND","ND","ND","1.64","ND","ND","ND","ND","ND","0"],
    [47943,"2015-10-25T10:00:00","22","ND","ND","ND","ND","1.51","ND","ND","ND","ND","ND","0"],
    [47944,"2015-10-25T11:00:00","18.4","ND","ND","ND","ND","1.46","ND","ND","ND","ND","ND","0"],
    [47945,"2015-10-25T12:00:00","16.6","ND","ND","ND","ND","1.90","ND","ND","ND","ND","ND","0"],
    [47946,"2015-10-25T13:00:00","21.6","ND","ND","ND","ND","1.35","ND","ND","ND","ND","ND","0"],
    [47947,"2015-10-25T14:00:00","18.7","ND","ND","ND","ND","1.30","ND","ND","ND","ND","ND","0"],
    [47948,"2015-10-25T15:00:00","17.1","ND","ND","ND","ND","2.45","ND","ND","ND","ND","ND","0"],
    [47949,"2015-10-25T16:00:00","15.8","ND","ND","ND","ND","1.44","ND","ND","ND","ND","ND","0"],
    [47950,"2015-10-25T17:00:00","7.9","ND","ND","ND","ND","1.17","ND","ND","ND","ND","ND","0"],
    [47951,"2015-10-25T18:00:00","9.2","ND","ND","ND","ND","1.69","ND","ND","ND","ND","ND","17.27"],
    [47952,"2015-10-25T19:00:00","10","ND","ND","ND","ND","1.62","ND","ND","ND","ND","ND","10.16"],
    [47953,"2015-10-25T20:00:00","13.3","ND","ND","ND","ND","1.64","ND","ND","ND","ND","ND","6.86"],
    [47954,"2015-10-25T21:00:00","9.2","ND","ND","ND","ND","2.31","ND","ND","ND","ND","ND","4.83"],
    [47955,"2015-10-25T22:00:00","12","ND","ND","ND","ND","4.50","ND","ND","ND","ND","ND","1.52"],
    [47956,"2015-10-25T23:00:00","12.5","ND","ND","ND","ND","1.55","ND","ND","ND","ND","ND","0"],
    [47957,"2015-10-26T00:00:00","10.6","ND","ND","ND","ND","1.56","ND","ND","ND","ND","ND","0.25"],
    [47958,"2015-10-26T01:00:00","5.2","ND","ND","ND","ND","1.20","ND","ND","ND","ND","ND","0"],
    [47959,"2015-10-26T02:00:00","19.4","ND","ND","ND","ND","2.40","ND","ND","ND","ND","ND","0.25"],
    [47960,"2015-10-26T03:00:00","26.1","ND","ND","ND","ND","2.55","ND","ND","ND","ND","ND","0"],
    [47961,"2015-10-26T04:00:00","36.7","ND","ND","ND","ND","1.84","ND","ND","ND","ND","ND","0"],
    [47962,"2015-10-26T05:00:00","34.8","ND","ND","ND","ND","2.19","ND","ND","ND","ND","ND","0"],
    [47963,"2015-10-26T06:00:00","28.7","ND","ND","ND","ND","1.70","ND","ND","ND","ND","ND","0"],
    [47964,"2015-10-26T07:00:00","31.9","ND","ND","ND","ND","2.09","ND","ND","ND","ND","ND","0"],
    [47965,"2015-10-26T08:00:00","39.8","ND","ND","ND","ND","1.55","ND","ND","ND","ND","ND","0"],
    [47966,"2015-10-26T09:00:00","37.5","ND","ND","ND","ND","1.84","ND","ND","ND","ND","ND","0"],
    [47967,"2015-10-26T10:00:00","41.7","ND","ND","ND","ND","1.97","ND","ND","ND","ND","ND","0"],
    [47968,"2015-10-26T11:00:00","43.4","ND","ND","ND","ND","1.84","ND","ND","ND","ND","ND","0"],
    [47969,"2015-10-26T12:00:00","29.9","ND","ND","ND","ND","1.16","ND","ND","ND","ND","ND","0"],
    [47970,"2015-10-26T13:00:00","33.6","ND","ND","ND","ND","1.58","ND","ND","ND","ND","ND","0"],
    [47971,"2015-10-26T14:00:00","39.8","ND","ND","ND","ND","1.18","ND","ND","ND","ND","ND","0"],
    [47972,"2015-10-26T15:00:00","36.8","ND","ND","ND","ND","1.49","ND","ND","ND","ND","ND","0"],
    [47973,"2015-10-26T16:00:00","32.4","ND","ND","ND","ND","1.42","ND","ND","ND","ND","ND","0"],
    [47974,"2015-10-26T17:00:00","23.9","ND","ND","ND","ND","1.63","ND","ND","ND","ND","ND","0"],
    [47975,"2015-10-26T18:00:00","21.8","ND","ND","ND","ND","1.44","ND","ND","ND","ND","ND","0"],
    [47976,"2015-10-26T19:00:00","22.6","ND","ND","ND","ND","1.45","ND","ND","ND","ND","ND","0"],
    [47977,"2015-10-26T20:00:00","33.3","ND","ND","ND","ND","1.52","ND","ND","ND","ND","ND","0"],
    [47978,"2015-10-26T21:00:00","44.7","ND","ND","ND","ND","1.70","ND","ND","ND","ND","ND","0"],
    [47979,"2015-10-26T22:00:00","41.8","ND","ND","ND","ND","2.73","ND","ND","ND","ND","ND","0"],
    [47980,"2015-10-26T23:00:00","30.1","ND","ND","ND","ND","2.06","ND","ND","ND","ND","ND","0"],
    [47981,"2015-10-27T00:00:00","18.1","ND","ND","ND","ND","1.63","ND","ND","ND","ND","ND","0"],
    [47982,"2015-10-27T01:00:00","19.6","ND","ND","ND","ND","1.87","ND","ND","ND","ND","ND","0"],
    [47983,"2015-10-27T02:00:00","26.2","ND","ND","ND","ND","2.02","ND","ND","ND","ND","ND","0"],
    [47984,"2015-10-27T03:00:00","26.2","ND","ND","ND","ND","2.23","ND","ND","ND","ND","ND","0"],
    [47985,"2015-10-27T04:00:00","40.6","ND","ND","ND","ND","3.44","ND","ND","ND","ND","ND","0"],
    [47986,"2015-10-27T05:00:00","42.3","ND","ND","ND","ND","3.61","ND","ND","ND","ND","ND","0"],
    [47987,"2015-10-27T06:00:00","38.7","ND","ND","ND","ND","4.27","ND","ND","ND","ND","ND","0"],
    [47988,"2015-10-27T07:00:00","54.5","ND","ND","ND","ND","2.62","ND","ND","ND","ND","ND","0"],
    [47989,"2015-10-27T08:00:00","77.5","ND","ND","ND","ND","2.82","ND","ND","ND","ND","ND","0"],
    [47990,"2015-10-27T09:00:00","84.2","ND","ND","ND","ND","4.28","ND","ND","ND","ND","ND","0"],
    [47991,"2015-10-27T10:00:00","74.8","ND","ND","ND","ND","8.14","ND","ND","ND","ND","ND","0"],
    [47992,"2015-10-27T11:00:00","52.2","ND","ND","ND","ND","3.50","ND","ND","ND","ND","ND","0"],
    [47993,"2015-10-27T12:00:00","20.5","ND","ND","ND","ND","2.48","ND","ND","ND","ND","ND","0"],
    [47994,"2015-10-27T13:00:00","17.4","ND","ND","ND","ND","1.62","ND","ND","ND","ND","ND","0"],
    [47995,"2015-10-27T14:00:00","17.1","ND","ND","ND","ND","1.64","ND","ND","ND","ND","ND","0"],
    [47996,"2015-10-27T15:00:00","23.1","ND","ND","ND","ND","1.17","ND","ND","ND","ND","ND","0"],
    [47997,"2015-10-27T16:00:00","12.8","ND","ND","ND","ND","1.23","ND","ND","ND","ND","ND","0"],
    [47998,"2015-10-27T17:00:00","20.7","ND","ND","ND","ND","1.81","ND","ND","ND","ND","ND","0"],
    [47999,"2015-10-27T18:00:00","20.5","ND","ND","ND","ND","1.78","ND","ND","ND","ND","ND","0"],
    [48000,"2015-10-27T19:00:00","29.4","ND","ND","ND","ND","2.27","ND","ND","ND","ND","ND","0"],
    [48001,"2015-10-27T20:00:00","31.7","ND","ND","ND","ND","8.84","ND","ND","ND","ND","ND","0"],
    [48002,"2015-10-27T21:00:00","30","ND","ND","ND","ND","2.70","ND","ND","ND","ND","ND","0"],
    [48003,"2015-10-27T22:00:00","29.2","ND","ND","ND","ND","1.58","ND","ND","ND","ND","ND","0"],
    [48004,"2015-10-27T23:00:00","32.4","ND","ND","ND","ND","2.44","ND","ND","ND","ND","ND","0"],
    [48005,"2015-10-28T00:00:00","23.3","ND","ND","ND","ND","2.59","ND","ND","ND","ND","ND","0"],
    [48006,"2015-10-28T01:00:00","34.6","ND","ND","ND","ND","1.81","ND","ND","ND","ND","ND","0"],
    [48007,"2015-10-28T02:00:00","41.8","ND","ND","ND","ND","3.35","ND","ND","ND","ND","ND","0"],
    [48008,"2015-10-28T03:00:00","58.5","ND","ND","ND","ND","6.52","ND","ND","ND","ND","ND","0"],
    [48009,"2015-10-28T04:00:00","61.9","ND","ND","ND","ND","9.10","ND","ND","ND","ND","ND","0"],
    [48010,"2015-10-28T05:00:00","72.8","ND","ND","ND","ND","8.22","ND","ND","ND","ND","ND","0"],
    [48011,"2015-10-28T06:00:00","72.3","ND","ND","ND","ND","7.40","ND","ND","ND","ND","ND","0"],
    [48012,"2015-10-28T07:00:00","85.8","ND","ND","ND","ND","5.73","ND","ND","ND","ND","ND","0"],
    [48013,"2015-10-28T08:00:00","104.1","ND","ND","ND","ND","5.05","ND","ND","ND","ND","ND","0"],
    [48014,"2015-10-28T09:00:00","69.6","ND","ND","ND","ND","3.60","ND","ND","ND","ND","ND","0"],
    [48015,"2015-10-28T10:00:00","59.4","ND","ND","ND","ND","2.56","ND","ND","ND","ND","ND","0"],
    [48016,"2015-10-28T11:00:00","50.1","ND","ND","ND","ND","1.78","ND","ND","ND","ND","ND","0"],
    [48017,"2015-10-28T12:00:00","43.5","ND","ND","ND","ND","1.90","ND","ND","ND","ND","ND","0"],
    [48018,"2015-10-28T13:00:00","35.3","ND","ND","ND","ND","2.12","ND","ND","ND","ND","ND","0"],
    [48019,"2015-10-28T14:00:00","37.4","ND","ND","ND","ND","2.10","ND","ND","ND","ND","ND","0"],
    [48020,"2015-10-28T15:00:00","25","ND","ND","ND","ND","1.18","ND","ND","ND","ND","ND","0"],
    [48021,"2015-10-28T16:00:00","26","ND","ND","ND","ND","1.46","ND","ND","ND","ND","ND","0"],
    [48022,"2015-10-28T17:00:00","30.2","ND","ND","ND","ND","1.64","ND","ND","ND","ND","ND","0"],
    [48023,"2015-10-28T18:00:00","21.3","ND","ND","ND","ND","1.25","ND","ND","ND","ND","ND","0"],
    [48024,"2015-10-28T19:00:00","18.4","ND","ND","ND","ND","1.78","ND","ND","ND","ND","ND","0"],
    [48025,"2015-10-28T20:00:00","22.7","ND","ND","ND","ND","2.55","ND","ND","ND","ND","ND","0"],
    [48026,"2015-10-28T21:00:00","19.2","ND","ND","ND","ND","1.42","ND","ND","ND","ND","ND","0"],
    [48027,"2015-10-28T22:00:00","28.6","ND","ND","ND","ND","1.39","ND","ND","ND","ND","ND","0"],
    [48028,"2015-10-28T23:00:00","35.3","ND","ND","ND","ND","2.30","ND","ND","ND","ND","ND","0"],
    [48029,"2015-10-29T00:00:00","38.1","ND","ND","ND","ND","3.35","ND","ND","ND","ND","ND","0"],
    [48030,"2015-10-29T01:00:00","52.1","ND","ND","ND","ND","3.28","ND","ND","ND","ND","ND","0"],
    [48031,"2015-10-29T02:00:00","42.6","ND","ND","ND","ND","3.36","ND","ND","ND","ND","ND","0"],
    [48032,"2015-10-29T03:00:00","38.4","ND","ND","ND","ND","3.29","ND","ND","ND","ND","ND","0"],
    [48033,"2015-10-29T04:00:00","26.4","ND","ND","ND","ND","1.77","ND","ND","ND","ND","ND","0"],
    [48034,"2015-10-29T05:00:00","26.3","ND","ND","ND","ND","1.32","ND","ND","ND","ND","ND","0"],
    [48035,"2015-10-29T06:00:00","25.5","ND","ND","ND","ND","2.17","ND","ND","ND","ND","ND","0"],
    [48036,"2015-10-29T07:00:00","52.4","ND","ND","ND","ND","3.75","ND","ND","ND","ND","ND","0"],
    [48037,"2015-10-29T08:00:00","54.4","ND","ND","ND","ND","3.51","ND","ND","ND","ND","ND","0"],
    [48038,"2015-10-29T09:00:00","64.4","ND","ND","ND","ND","1.49","ND","ND","ND","ND","ND","0"],
    [48039,"2015-10-29T10:00:00","49","ND","ND","ND","ND","1.78","ND","ND","ND","ND","ND","0"],
    [48040,"2015-10-29T11:00:00","46.8","ND","ND","ND","ND","1.84","ND","ND","ND","ND","ND","0"],
    [48041,"2015-10-29T12:00:00","44.9","ND","ND","ND","ND","1.88","ND","ND","ND","ND","ND","0"],
    [48042,"2015-10-29T13:00:00","38.8","ND","ND","ND","ND","1.80","ND","ND","ND","ND","ND","0"],
    [48043,"2015-10-29T14:00:00","22.4","ND","ND","ND","ND","1.80","ND","ND","ND","ND","ND","0"],
    [48044,"2015-10-29T15:00:00","16.5","ND","ND","ND","ND","1.35","ND","ND","ND","ND","ND","0"],
    [48045,"2015-10-29T16:00:00","ND","ND","ND","ND","ND","1.02","ND","ND","ND","ND","ND","0"],
    [48046,"2015-10-29T17:00:00","11","ND","ND","ND","ND","1.00","ND","ND","ND","ND","ND","0"],
    [48047,"2015-10-29T18:00:00","18.2","ND","ND","ND","ND","1.20","ND","ND","ND","ND","ND","0"],
    [48048,"2015-10-29T19:00:00","6.4","ND","ND","ND","ND","1.44","ND","ND","ND","ND","ND","0"],
    [48049,"2015-10-29T20:00:00","23.8","ND","ND","ND","ND","1.67","ND","ND","ND","ND","ND","0"],
    [48050,"2015-10-29T21:00:00","45","ND","ND","ND","ND","1.38","ND","ND","ND","ND","ND","0"],
    [48051,"2015-10-29T22:00:00","39.3","ND","ND","ND","ND","2.56","ND","ND","ND","ND","ND","0"],
    [48052,"2015-10-29T23:00:00","40.6","ND","ND","ND","ND","2.08","ND","ND","ND","ND","ND","0"],
    [48053,"2015-10-30T00:00:00","55.8","ND","ND","ND","ND","2.20","ND","ND","ND","ND","ND","0"],
    [48054,"2015-10-30T01:00:00","42.2","ND","ND","ND","ND","2.91","ND","ND","ND","ND","ND","0"],
    [48055,"2015-10-30T02:00:00","33.4","ND","ND","ND","ND","2.12","ND","ND","ND","ND","ND","0"],
    [48056,"2015-10-30T03:00:00","25.8","ND","ND","ND","ND","0.96","ND","ND","ND","ND","ND","0"],
    [48057,"2015-10-30T04:00:00","21.4","ND","ND","ND","ND","2.31","ND","ND","ND","ND","ND","0"],
    [48058,"2015-10-30T05:00:00","20.1","ND","ND","ND","ND","2.73","ND","ND","ND","ND","ND","0"],
    [48059,"2015-10-30T06:00:00","20.4","ND","ND","ND","ND","2.40","ND","ND","ND","ND","ND","0"],
    [48060,"2015-10-30T07:00:00","31.1","ND","ND","ND","ND","1.74","ND","ND","ND","ND","ND","0"],
    [48061,"2015-10-30T08:00:00","28.7","ND","ND","ND","ND","1.62","ND","ND","ND","ND","ND","0"],
    [48062,"2015-10-30T09:00:00","26.3","ND","ND","ND","ND","1.60","ND","ND","ND","ND","ND","0"],
    [48063,"2015-10-30T10:00:00","27.4","ND","ND","ND","ND","1.99","ND","ND","ND","ND","ND","0"],
    [48064,"2015-10-30T11:00:00","31.4","ND","ND","ND","ND","1.85","ND","ND","ND","ND","ND","0"],
    [48065,"2015-10-30T12:00:00","27.8","ND","ND","ND","ND","1.49","ND","ND","ND","ND","ND","0"],
    [48066,"2015-10-30T13:00:00","26.7","ND","ND","ND","ND","1.37","ND","ND","ND","ND","ND","0"],
    [48067,"2015-10-30T14:00:00","28.6","ND","ND","ND","ND","1.39","ND","ND","ND","ND","ND","0"],
    [48068,"2015-10-30T15:00:00","27.2","ND","ND","ND","ND","1.31","ND","ND","ND","ND","ND","0"],
    [48069,"2015-10-30T16:00:00","17.8","ND","ND","ND","ND","1.10","ND","ND","ND","ND","ND","0"],
    [48070,"2015-10-30T17:00:00","12.9","ND","ND","ND","ND","1.39","ND","ND","ND","ND","ND","0"],
    [48071,"2015-10-30T18:00:00","8.7","ND","ND","ND","ND","1.39","ND","ND","ND","ND","ND","0"],
    [48072,"2015-10-30T19:00:00","22.4","ND","ND","ND","ND","1.73","ND","ND","ND","ND","ND","0"],
    [48073,"2015-10-30T20:00:00","33.9","ND","ND","ND","ND","1.23","ND","ND","ND","ND","ND","0"],
    [48074,"2015-10-30T21:00:00","43.5","ND","ND","ND","ND","1.74","ND","ND","ND","ND","ND","0"],
    [48075,"2015-10-30T22:00:00","43.8","ND","ND","ND","ND","1.59","ND","ND","ND","ND","ND","0"],
    [48076,"2015-10-30T23:00:00","36.6","ND","ND","ND","ND","1.30","ND","ND","ND","ND","ND","0"],
    [48077,"2015-10-31T00:00:00","20.3","ND","ND","ND","ND","1.51","ND","ND","ND","ND","ND","0"],
    [48078,"2015-10-31T01:00:00","25.9","ND","ND","ND","ND","1.51","ND","ND","ND","ND","ND","0"],
    [48079,"2015-10-31T02:00:00","44.1","ND","ND","ND","ND","4.11","ND","ND","ND","ND","ND","0"],
    [48080,"2015-10-31T03:00:00","46.4","ND","ND","ND","ND","2.94","ND","ND","ND","ND","ND","0"],
    [48081,"2015-10-31T04:00:00","55.5","ND","ND","ND","ND","6.59","ND","ND","ND","ND","ND","0"],
    [48082,"2015-10-31T05:00:00","66.4","ND","ND","ND","ND","7.03","ND","ND","ND","ND","ND","0"],
    [48083,"2015-10-31T06:00:00","55.5","ND","ND","ND","ND","6.16","ND","ND","ND","ND","ND","0"],
    [48084,"2015-10-31T07:00:00","58.3","ND","ND","ND","ND","7.78","ND","ND","ND","ND","ND","0"],
    [48085,"2015-10-31T08:00:00","77.3","ND","ND","ND","ND","5.00","ND","ND","ND","ND","ND","0"],
    [48086,"2015-10-31T09:00:00","75","ND","ND","ND","ND","3.99","ND","ND","ND","ND","ND","0"],
    [48087,"2015-10-31T10:00:00","51.1","ND","ND","ND","ND","1.67","ND","ND","ND","ND","ND","0"],
    [48088,"2015-10-31T11:00:00","38.4","ND","ND","ND","ND","1.74","ND","ND","ND","ND","ND","0"],
    [48089,"2015-10-31T12:00:00","36.8","ND","ND","ND","ND","1.76","ND","ND","ND","ND","ND","0"],
    [48090,"2015-10-31T13:00:00","27.8","ND","ND","ND","ND","1.31","ND","ND","ND","ND","ND","0"],
    [48091,"2015-10-31T14:00:00","23.2","ND","ND","ND","ND","1.38","ND","ND","ND","ND","ND","0"],
    [48092,"2015-10-31T15:00:00","15.4","ND","ND","ND","ND","1.23","ND","ND","ND","ND","ND","0"],
    [48093,"2015-10-31T16:00:00","14.9","ND","ND","ND","ND","1.07","ND","ND","ND","ND","ND","0"],
    [48094,"2015-10-31T17:00:00","8.7","ND","ND","ND","ND","1.59","ND","ND","ND","ND","ND","0"],
    [48095,"2015-10-31T18:00:00","13.9","ND","ND","ND","ND","1.51","ND","ND","ND","ND","ND","0"],
    [48096,"2015-10-31T19:00:00","9","ND","ND","ND","ND","1.31","ND","ND","ND","ND","ND","0"],
    [48097,"2015-10-31T20:00:00","15.7","ND","ND","ND","ND","1.37","ND","ND","ND","ND","ND","0"],
    [48098,"2015-10-31T21:00:00","7.5","ND","ND","ND","ND","2.04","ND","ND","ND","ND","ND","0"],
    [48099,"2015-10-31T22:00:00","36.8","ND","ND","ND","ND","2.16","ND","ND","ND","ND","ND","0"],
    [48100,"2015-10-31T23:00:00","31","ND","ND","ND","ND","1.92","ND","ND","ND","ND","ND","0"],
    [48101,"2015-11-01T00:00:00","41.4","ND","ND","ND","ND","3.57","ND","ND","ND","ND","ND","0"],
    [48102,"2015-11-01T01:00:00","42.5","ND","ND","ND","ND","3.53","ND","ND","ND","ND","ND","0"],
    [48103,"2015-11-01T02:00:00","42.7","ND","ND","ND","ND","2.26","ND","ND","ND","ND","ND","0"],
    [48104,"2015-11-01T03:00:00","45","ND","ND","ND","ND","3.02","ND","ND","ND","ND","ND","0"],
    [48105,"2015-11-01T04:00:00","32.5","ND","ND","ND","ND","2.82","ND","ND","ND","ND","ND","0"],
    [48106,"2015-11-01T05:00:00","18.2","ND","ND","ND","ND","2.86","ND","ND","ND","ND","ND","0"],
    [48107,"2015-11-01T06:00:00","13.4","ND","ND","ND","ND","1.44","ND","ND","ND","ND","ND","6.86"],
    [48108,"2015-11-01T07:00:00","4.4","ND","ND","ND","ND","1.06","ND","ND","ND","ND","ND","3.81"],
    [48109,"2015-11-01T08:00:00","6.6","ND","ND","ND","ND","1.42","ND","ND","ND","ND","ND","2.29"],
    [48110,"2015-11-01T09:00:00","11.5","ND","ND","ND","ND","0.92","ND","ND","ND","ND","ND","0"],
    [48111,"2015-11-01T10:00:00","8","ND","ND","ND","ND","0.99","ND","ND","ND","ND","ND","0"],
    [48112,"2015-11-01T11:00:00","9.7","ND","ND","ND","ND","0.74","ND","ND","ND","ND","ND","0"],
    [48113,"2015-11-01T12:00:00","9.6","ND","ND","ND","ND","1.00","ND","ND","ND","ND","ND","0"],
    [48114,"2015-11-01T13:00:00","5","ND","ND","ND","ND","1.13","ND","ND","ND","ND","ND","0"],
    [48115,"2015-11-01T14:00:00","14","ND","ND","ND","ND","0.53","ND","ND","ND","ND","ND","2.29"],
    [48116,"2015-11-01T15:00:00","8.1","ND","ND","ND","ND","1.66","ND","ND","ND","ND","ND","3.05"],
    [48117,"2015-11-01T16:00:00","13.6","ND","ND","ND","ND","1.23","ND","ND","ND","ND","ND","0.25"],
    [48118,"2015-11-01T17:00:00","14.5","ND","ND","ND","ND","1.83","ND","ND","ND","ND","ND","0"],
    [48119,"2015-11-01T18:00:00","14.9","ND","ND","ND","ND","1.63","ND","ND","ND","ND","ND","0"],
    [48120,"2015-11-01T19:00:00","23.3","ND","ND","ND","ND","2.98","ND","ND","ND","ND","ND","0"],
    [48121,"2015-11-01T20:00:00","34","ND","ND","ND","ND","9.23","ND","ND","ND","ND","ND","0"],
    [48122,"2015-11-01T21:00:00","35.8","ND","ND","ND","ND","10.45","ND","ND","ND","ND","ND","1.52"],
    [48123,"2015-11-01T22:00:00","22.8","ND","ND","ND","ND","3.60","ND","ND","ND","ND","ND","11.94"],
    [48124,"2015-11-01T23:00:00","14.2","ND","ND","ND","ND","1.31","ND","ND","ND","ND","ND","0.51"],
    [48125,"2015-11-02T00:00:00","12.9","ND","ND","ND","ND","1.28","ND","ND","ND","ND","ND","0.25"],
    [48126,"2015-11-02T01:00:00","16.8","ND","ND","ND","ND","1.07","ND","ND","ND","ND","ND","0.25"],
    [48127,"2015-11-02T02:00:00","14.2","ND","ND","ND","ND","1.42","ND","ND","ND","ND","ND","0.51"],
    [48128,"2015-11-02T03:00:00","9.3","ND","ND","ND","ND","1.34","ND","ND","ND","ND","ND","0.76"],
    [48129,"2015-11-02T04:00:00","11","ND","ND","ND","ND","1.62","ND","ND","ND","ND","ND","1.02"],
    [48130,"2015-11-02T05:00:00","14.5","ND","ND","ND","ND","1.09","ND","ND","ND","ND","ND","0"],
    [48131,"2015-11-02T06:00:00","12","ND","ND","ND","ND","1.39","ND","ND","ND","ND","ND","3.81"],
    [48132,"2015-11-02T07:00:00","11.7","ND","ND","ND","ND","1.35","ND","ND","ND","ND","ND","2.54"],
    [48133,"2015-11-02T08:00:00","7.4","ND","ND","ND","ND","1.28","ND","ND","ND","ND","ND","0.25"],
    [48134,"2015-11-02T09:00:00","7.8","ND","ND","ND","ND","1.52","ND","ND","ND","ND","ND","0"],
    [48135,"2015-11-02T10:00:00","10.9","ND","ND","ND","ND","0.93","ND","ND","ND","ND","ND","0"],
    [48136,"2015-11-02T11:00:00","12.5","ND","ND","ND","ND","0.96","ND","ND","ND","ND","ND","0"],
    [48137,"2015-11-02T12:00:00","13.3","ND","ND","ND","ND","1.27","ND","ND","ND","ND","ND","0"],
    [48138,"2015-11-02T13:00:00","10","ND","ND","ND","ND","1.09","ND","ND","ND","ND","ND","0.76"],
    [48139,"2015-11-02T14:00:00","10.8","ND","ND","ND","ND","1.09","ND","ND","ND","ND","ND","0.25"],
    [48140,"2015-11-02T15:00:00","4.4","ND","ND","ND","ND","1.17","ND","ND","ND","ND","ND","0"],
    [48141,"2015-11-02T16:00:00","16.9","ND","ND","ND","ND","2.70","ND","ND","ND","ND","ND","0.25"],
    [48142,"2015-11-02T17:00:00","14","ND","ND","ND","ND","0.95","ND","ND","ND","ND","ND","0"],
    [48143,"2015-11-02T18:00:00","14.3","ND","ND","ND","ND","1.59","ND","ND","ND","ND","ND","0"],
    [48144,"2015-11-02T19:00:00","22.2","ND","ND","ND","ND","1.30","ND","ND","ND","ND","ND","0"],
    [48145,"2015-11-02T20:00:00","22.1","ND","ND","ND","ND","1.83","ND","ND","ND","ND","ND","0"],
    [48146,"2015-11-02T21:00:00","27.1","ND","ND","ND","ND","1.62","ND","ND","ND","ND","ND","0"],
    [48147,"2015-11-02T22:00:00","27.9","ND","ND","ND","ND","1.91","ND","ND","ND","ND","ND","0"],
    [48148,"2015-11-02T23:00:00","31.5","ND","ND","ND","ND","2.17","ND","ND","ND","ND","ND","0"],
    [48149,"2015-11-03T00:00:00","34.6","ND","ND","ND","ND","1.63","ND","ND","ND","ND","ND","0"],
    [48150,"2015-11-03T01:00:00","22","ND","ND","ND","ND","1.56","ND","ND","ND","ND","ND","0"],
    [48151,"2015-11-03T02:00:00","22.4","ND","ND","ND","ND","1.52","ND","ND","ND","ND","ND","0"],
    [48152,"2015-11-03T03:00:00","18.8","ND","ND","ND","ND","1.37","ND","ND","ND","ND","ND","0"],
    [48153,"2015-11-03T04:00:00","16.6","ND","ND","ND","ND","2.44","ND","ND","ND","ND","ND","0"],
    [48154,"2015-11-03T05:00:00","13.6","ND","ND","ND","ND","1.52","ND","ND","ND","ND","ND","0"],
    [48155,"2015-11-03T06:00:00","25","ND","ND","ND","ND","1.39","ND","ND","ND","ND","ND","0"],
    [48156,"2015-11-03T07:00:00","28.4","ND","ND","ND","ND","1.06","ND","ND","ND","ND","ND","0"],
    [48157,"2015-11-03T08:00:00","50.5","ND","ND","ND","ND","2.01","ND","ND","ND","ND","ND","0"],
    [48158,"2015-11-03T09:00:00","50.9","ND","ND","ND","ND","1.30","ND","ND","ND","ND","ND","0"],
    [48159,"2015-11-03T10:00:00","35.4","ND","ND","ND","ND","0.95","ND","ND","ND","ND","ND","0"],
    [48160,"2015-11-03T11:00:00","26.8","ND","ND","ND","ND","1.18","ND","ND","ND","ND","ND","0"],
    [48161,"2015-11-03T12:00:00","30.7","ND","ND","ND","ND","1.34","ND","ND","ND","ND","ND","0"],
    [48162,"2015-11-03T13:00:00","30.4","ND","ND","ND","ND","1.27","ND","ND","ND","ND","ND","0"],
    [48163,"2015-11-03T14:00:00","26.1","ND","ND","ND","ND","1.21","ND","ND","ND","ND","ND","0"],
    [48164,"2015-11-03T15:00:00","20.1","ND","ND","ND","ND","0.98","ND","ND","ND","ND","ND","0"],
    [48165,"2015-11-03T16:00:00","28.3","ND","ND","ND","ND","1.06","ND","ND","ND","ND","ND","0"],
    [48166,"2015-11-03T17:00:00","27.8","ND","ND","ND","ND","0.81","ND","ND","ND","ND","ND","0"],
    [48167,"2015-11-03T18:00:00","22.4","ND","ND","ND","ND","1.20","ND","ND","ND","ND","ND","0"],
    [48168,"2015-11-03T19:00:00","25.2","ND","ND","ND","ND","1.28","ND","ND","ND","ND","ND","0"],
    [48169,"2015-11-03T20:00:00","47.9","ND","ND","ND","ND","1.35","ND","ND","ND","ND","ND","0"],
    [48170,"2015-11-03T21:00:00","49.9","ND","ND","ND","ND","3.22","ND","ND","ND","ND","ND","0"],
    [48171,"2015-11-03T22:00:00","42.1","ND","ND","ND","ND","3.07","ND","ND","ND","ND","ND","0"],
    [48172,"2015-11-03T23:00:00","41.4","ND","ND","ND","ND","4.10","ND","ND","ND","ND","ND","0"],
    [48173,"2015-11-04T00:00:00","32.2","ND","ND","ND","ND","2.66","ND","ND","ND","ND","ND","0"],
    [48174,"2015-11-04T01:00:00","57.3","ND","ND","ND","ND","3.54","ND","ND","ND","ND","ND","0"],
    [48175,"2015-11-04T02:00:00","80.7","ND","ND","ND","ND","2.45","ND","ND","ND","ND","ND","0"],
    [48176,"2015-11-04T03:00:00","54.2","ND","ND","ND","ND","2.09","ND","ND","ND","ND","ND","0"],
    [48177,"2015-11-04T04:00:00","41.6","ND","ND","ND","ND","1.99","ND","ND","ND","ND","ND","0"],
    [48178,"2015-11-04T05:00:00","33.1","ND","ND","ND","ND","2.02","ND","ND","ND","ND","ND","0"],
    [48179,"2015-11-04T06:00:00","68.4","ND","ND","ND","ND","4.20","ND","ND","ND","ND","ND","0"],
    [48180,"2015-11-04T07:00:00","61.1","ND","ND","ND","ND","2.94","ND","ND","ND","ND","ND","0"],
    [48181,"2015-11-04T08:00:00","63","ND","ND","ND","ND","1.69","ND","ND","ND","ND","ND","0"],
    [48182,"2015-11-04T09:00:00","54.6","ND","ND","ND","ND","1.28","ND","ND","ND","ND","ND","2.03"],
    [48183,"2015-11-04T10:00:00","22.6","ND","ND","ND","ND","1.21","ND","ND","ND","ND","ND","10.67"],
    [48184,"2015-11-04T11:00:00","10.9","ND","ND","ND","ND","2.04","ND","ND","ND","ND","ND","0"],
    [48185,"2015-11-04T12:00:00","14.4","ND","ND","ND","ND","1.24","ND","ND","ND","ND","ND","0"],
    [48186,"2015-11-04T13:00:00","21.7","ND","ND","ND","ND","1.20","ND","ND","ND","ND","ND","0"],
    [48187,"2015-11-04T14:00:00","19","ND","ND","ND","ND","1.14","ND","ND","ND","ND","ND","0"],
    [48188,"2015-11-04T15:00:00","13.8","ND","ND","ND","ND","1.17","ND","ND","ND","ND","ND","0"],
    [48189,"2015-11-04T16:00:00","18.7","ND","ND","ND","ND","1.13","ND","ND","ND","ND","ND","0"],
    [48190,"2015-11-04T17:00:00","15.5","ND","ND","ND","ND","1.25","ND","ND","ND","ND","ND","0.76"],
    [48191,"2015-11-04T18:00:00","20.9","ND","ND","ND","ND","1.12","ND","ND","ND","ND","ND","0.25"],
    [48192,"2015-11-04T19:00:00","8.6","ND","ND","ND","ND","1.58","ND","ND","ND","ND","ND","0"],
    [48193,"2015-11-04T20:00:00","50.8","ND","ND","ND","ND","2.12","ND","ND","ND","ND","ND","0"],
    [48194,"2015-11-04T21:00:00","74.6","ND","ND","ND","ND","3.88","ND","ND","ND","ND","ND","0"],
    [48195,"2015-11-04T22:00:00","45.8","ND","ND","ND","ND","3.44","ND","ND","ND","ND","ND","0"],
    [48196,"2015-11-04T23:00:00","34.4","ND","ND","ND","ND","1.71","ND","ND","ND","ND","ND","0"],
    [48197,"2015-11-05T00:00:00","31.6","ND","ND","ND","ND","2.33","ND","ND","ND","ND","ND","0"],
    [48198,"2015-11-05T01:00:00","40","ND","ND","ND","ND","2.41","ND","ND","ND","ND","ND","0"],
    [48199,"2015-11-05T02:00:00","35.6","ND","ND","ND","ND","1.34","ND","ND","ND","ND","ND","0"],
    [48200,"2015-11-05T03:00:00","27.6","ND","ND","ND","ND","1.30","ND","ND","ND","ND","ND","0"],
    [48201,"2015-11-05T04:00:00","20.2","ND","ND","ND","ND","1.39","ND","ND","ND","ND","ND","0"],
    [48202,"2015-11-05T05:00:00","25.7","ND","ND","ND","ND","2.82","ND","ND","ND","ND","ND","2.29"],
    [48203,"2015-11-05T06:00:00","29.9","ND","ND","ND","ND","1.77","ND","ND","ND","ND","ND","0.25"],
    [48204,"2015-11-05T07:00:00","29.6","ND","ND","ND","ND","2.24","ND","ND","ND","ND","ND","0.25"],
    [48205,"2015-11-05T08:00:00","44","ND","ND","ND","ND","2.24","ND","ND","ND","ND","ND","0"],
    [48206,"2015-11-05T09:00:00","64.5","ND","ND","ND","ND","2.20","ND","ND","ND","ND","ND","0"],
    [48207,"2015-11-05T10:00:00","58.2","ND","ND","ND","ND","1.42","ND","ND","ND","ND","ND","0"],
    [48208,"2015-11-05T11:00:00","41.2","ND","ND","ND","ND","1.60","ND","ND","ND","ND","ND","0"],
    [48209,"2015-11-05T12:00:00","37.8","ND","ND","ND","ND","2.56","ND","ND","ND","ND","ND","0"],
    [48210,"2015-11-05T13:00:00","34.5","ND","ND","ND","ND","1.77","ND","ND","ND","ND","ND","0"],
    [48211,"2015-11-05T14:00:00","28.6","ND","ND","ND","ND","2.52","ND","ND","ND","ND","ND","0"],
    [48212,"2015-11-05T15:00:00","20.6","ND","ND","ND","ND","2.43","ND","ND","ND","ND","ND","0"],
    [48213,"2015-11-05T16:00:00","25.2","ND","ND","ND","ND","1.52","ND","ND","ND","ND","ND","0"],
    [48214,"2015-11-05T17:00:00","15.6","ND","ND","ND","ND","0.85","ND","ND","ND","ND","ND","0"],
    [48215,"2015-11-05T18:00:00","10.2","ND","ND","ND","ND","1.23","ND","ND","ND","ND","ND","0"],
    [48216,"2015-11-05T19:00:00","25.7","ND","ND","ND","ND","1.31","ND","ND","ND","ND","ND","0"],
    [48217,"2015-11-05T20:00:00","25.2","ND","ND","ND","ND","1.42","ND","ND","ND","ND","ND","0"],
    [48218,"2015-11-05T21:00:00","38.3","ND","ND","ND","ND","3.04","ND","ND","ND","ND","ND","0"],
    [48219,"2015-11-05T22:00:00","33.5","ND","ND","ND","ND","3.51","ND","ND","ND","ND","ND","0"],
    [48220,"2015-11-05T23:00:00","33.1","ND","ND","ND","ND","2.97","ND","ND","ND","ND","ND","0"],
    [48221,"2015-11-06T00:00:00","40.8","ND","ND","ND","ND","3.88","ND","ND","ND","ND","ND","0"],
    [48222,"2015-11-06T01:00:00","36.4","ND","ND","ND","ND","1.70","ND","ND","ND","ND","ND","0"],
    [48223,"2015-11-06T02:00:00","20.6","ND","ND","ND","ND","1.23","ND","ND","ND","ND","ND","0"],
    [48224,"2015-11-06T03:00:00","14.3","ND","ND","ND","ND","1.20","ND","ND","ND","ND","ND","0"],
    [48225,"2015-11-06T04:00:00","11.4","ND","ND","ND","ND","1.52","ND","ND","ND","ND","ND","0"],
    [48226,"2015-11-06T05:00:00","7.1","ND","ND","ND","ND","1.71","ND","ND","ND","ND","ND","0"],
    [48227,"2015-11-06T06:00:00","14.4","ND","ND","ND","ND","1.24","ND","ND","ND","ND","ND","0"],
    [48228,"2015-11-06T07:00:00","35.1","ND","ND","ND","ND","2.58","ND","ND","ND","ND","ND","0"],
    [48229,"2015-11-06T08:00:00","49.3","ND","ND","ND","ND","4.28","ND","ND","ND","ND","ND","0"],
    [48230,"2015-11-06T09:00:00","46","ND","ND","ND","ND","2.16","ND","ND","ND","ND","ND","0"],
    [48231,"2015-11-06T10:00:00","37.3","ND","ND","ND","ND","1.41","ND","ND","ND","ND","ND","0"],
    [48232,"2015-11-06T11:00:00","34.4","ND","ND","ND","ND","0.79","ND","ND","ND","ND","ND","0"],
    [48233,"2015-11-06T12:00:00","25.8","ND","ND","ND","ND","1.03","ND","ND","ND","ND","ND","0"],
    [48234,"2015-11-06T13:00:00","22.3","ND","ND","ND","ND","1.09","ND","ND","ND","ND","ND","0"],
    [48235,"2015-11-06T14:00:00","20.4","ND","ND","ND","ND","1.09","ND","ND","ND","ND","ND","0"],
    [48236,"2015-11-06T15:00:00","23.9","ND","ND","ND","ND","0.74","ND","ND","ND","ND","ND","0"],
    [48237,"2015-11-06T16:00:00","15.1","ND","ND","ND","ND","1.16","ND","ND","ND","ND","ND","0"],
    [48238,"2015-11-06T17:00:00","12.3","ND","ND","ND","ND","1.09","ND","ND","ND","ND","ND","0"],
    [48239,"2015-11-06T18:00:00","23.8","ND","ND","ND","ND","0.82","ND","ND","ND","ND","ND","0"],
    [48240,"2015-11-06T19:00:00","17.3","ND","ND","ND","ND","1.23","ND","ND","ND","ND","ND","0"],
    [48241,"2015-11-06T20:00:00","19.2","ND","ND","ND","ND","1.21","ND","ND","ND","ND","ND","0"],
    [48242,"2015-11-06T21:00:00","33.1","ND","ND","ND","ND","2.38","ND","ND","ND","ND","ND","0"],
    [48243,"2015-11-06T22:00:00","41.5","ND","ND","ND","ND","2.01","ND","ND","ND","ND","ND","0"],
    [48244,"2015-11-06T23:00:00","45.2","ND","ND","ND","ND","2.40","ND","ND","ND","ND","ND","0"],
    [48245,"2015-11-07T00:00:00","12.7","ND","ND","ND","ND","1.80","ND","ND","ND","ND","ND","0"],
    [48246,"2015-11-07T01:00:00","31.3","ND","ND","ND","ND","3.47","ND","ND","ND","ND","ND","0"],
    [48247,"2015-11-07T02:00:00","43.7","ND","ND","ND","ND","3.67","ND","ND","ND","ND","ND","0"],
    [48248,"2015-11-07T03:00:00","26.7","ND","ND","ND","ND","3.44","ND","ND","ND","ND","ND","0"],
    [48249,"2015-11-07T04:00:00","23.6","ND","ND","ND","ND","1.32","ND","ND","ND","ND","ND","0"],
    [48250,"2015-11-07T05:00:00","13.5","ND","ND","ND","ND","1.00","ND","ND","ND","ND","ND","0"],
    [48251,"2015-11-07T06:00:00","8.7","ND","ND","ND","ND","0.96","ND","ND","ND","ND","ND","0"],
    [48252,"2015-11-07T07:00:00","12.6","ND","ND","ND","ND","1.35","ND","ND","ND","ND","ND","0"],
    [48253,"2015-11-07T08:00:00","10","ND","ND","ND","ND","1.39","ND","ND","ND","ND","ND","0"],
    [48254,"2015-11-07T09:00:00","18.9","ND","ND","ND","ND","1.81","ND","ND","ND","ND","ND","0"],
    [48255,"2015-11-07T10:00:00","35.4","ND","ND","ND","ND","1.56","ND","ND","ND","ND","ND","0"],
    [48256,"2015-11-07T11:00:00","40.8","ND","ND","ND","ND","1.48","ND","ND","ND","ND","ND","0"],
    [48257,"2015-11-07T12:00:00","46.1","ND","ND","ND","ND","2.09","ND","ND","ND","ND","ND","0.25"],
    [48258,"2015-11-07T13:00:00","31.9","ND","ND","ND","ND","1.12","ND","ND","ND","ND","ND","0"],
    [48259,"2015-11-07T14:00:00","14.6","ND","ND","ND","ND","1.13","ND","ND","ND","ND","ND","0"],
    [48260,"2015-11-07T15:00:00","12.9","ND","ND","ND","ND","1.73","ND","ND","ND","ND","ND","0.51"],
    [48261,"2015-11-07T16:00:00","15.1","ND","ND","ND","ND","1.90","ND","ND","ND","ND","ND","7.11"],
    [48262,"2015-11-07T17:00:00","5.7","ND","ND","ND","ND","1.14","ND","ND","ND","ND","ND","5.33"],
    [48263,"2015-11-07T18:00:00","14.9","ND","ND","ND","ND","0.86","ND","ND","ND","ND","ND","0"],
    [48264,"2015-11-07T19:00:00","17.5","ND","ND","ND","ND","0.71","ND","ND","ND","ND","ND","1.78"],
    [48265,"2015-11-07T20:00:00","19.4","ND","ND","ND","ND","1.21","ND","ND","ND","ND","ND","0.51"],
    [48266,"2015-11-07T21:00:00","17.3","ND","ND","ND","ND","1.14","ND","ND","ND","ND","ND","0"],
    [48267,"2015-11-07T22:00:00","29.1","ND","ND","ND","ND","1.55","ND","ND","ND","ND","ND","0.25"],
    [48268,"2015-11-07T23:00:00","29.1","ND","ND","ND","ND","3.12","ND","ND","ND","ND","ND","0"],
    [48269,"2015-11-08T00:00:00","31.4","ND","ND","ND","ND","3.61","ND","ND","ND","ND","ND","0"],
    [48270,"2015-11-08T01:00:00","35.1","ND","ND","ND","ND","5.65","ND","ND","ND","ND","ND","0"],
    [48271,"2015-11-08T02:00:00","33.7","ND","ND","ND","ND","6.80","ND","ND","ND","ND","ND","0"],
    [48272,"2015-11-08T03:00:00","34.5","ND","ND","ND","ND","6.76","ND","ND","ND","ND","ND","0"],
    [48273,"2015-11-08T04:00:00","39.8","ND","ND","ND","ND","4.04","ND","ND","ND","ND","ND","0"],
    [48274,"2015-11-08T05:00:00","38.8","ND","ND","ND","ND","2.27","ND","ND","ND","ND","ND","0"],
    [48275,"2015-11-08T06:00:00","33","ND","ND","ND","ND","2.05","ND","ND","ND","ND","ND","0"],
    [48276,"2015-11-08T07:00:00","48","ND","ND","ND","ND","3.00","ND","ND","ND","ND","ND","0"],
    [48277,"2015-11-08T08:00:00","57.7","ND","ND","ND","ND","2.80","ND","ND","ND","ND","ND","0"],
    [48278,"2015-11-08T09:00:00","66","ND","ND","ND","ND","1.94","ND","ND","ND","ND","ND","0"],
    [48279,"2015-11-08T10:00:00","55.4","ND","ND","ND","ND","1.97","ND","ND","ND","ND","ND","0"],
    [48280,"2015-11-08T11:00:00","45.4","ND","ND","ND","ND","1.38","ND","ND","ND","ND","ND","0"],
    [48281,"2015-11-08T12:00:00","34.3","ND","ND","ND","ND","1.32","ND","ND","ND","ND","ND","0"],
    [48282,"2015-11-08T13:00:00","30","ND","ND","ND","ND","1.00","ND","ND","ND","ND","ND","0"],
    [48283,"2015-11-08T14:00:00","27.3","ND","ND","ND","ND","1.13","ND","ND","ND","ND","ND","0"],
    [48284,"2015-11-08T15:00:00","33.8","ND","ND","ND","ND","0.89","ND","ND","ND","ND","ND","0"],
    [48285,"2015-11-08T16:00:00","31.9","ND","ND","ND","ND","0.85","ND","ND","ND","ND","ND","0"],
    [48286,"2015-11-08T17:00:00","33.7","ND","ND","ND","ND","1.16","ND","ND","ND","ND","ND","0"],
    [48287,"2015-11-08T18:00:00","19.4","ND","ND","ND","ND","0.61","ND","ND","ND","ND","ND","0"],
    [48288,"2015-11-08T19:00:00","12.9","ND","ND","ND","ND","2.08","ND","ND","ND","ND","ND","0"],
    [48289,"2015-11-08T20:00:00","24.4","ND","ND","ND","ND","3.81","ND","ND","ND","ND","ND","0"],
    [48290,"2015-11-08T21:00:00","37.5","ND","ND","ND","ND","4.98","ND","ND","ND","ND","ND","0"],
    [48291,"2015-11-08T22:00:00","34.9","ND","ND","ND","ND","4.00","ND","ND","ND","ND","ND","0"],
    [48292,"2015-11-08T23:00:00","32.8","ND","ND","ND","ND","2.69","ND","ND","ND","ND","ND","0"],
    [48293,"2015-11-09T00:00:00","22.3","ND","ND","ND","ND","5.52","ND","ND","ND","ND","ND","0"],
    [48294,"2015-11-09T01:00:00","36.6","ND","ND","ND","ND","8.20","ND","ND","ND","ND","ND","0"],
    [48295,"2015-11-09T02:00:00","49.8","ND","ND","ND","ND","15.95","ND","ND","ND","ND","ND","0"],
    [48296,"2015-11-09T03:00:00","42.5","ND","ND","ND","ND","16.14","ND","ND","ND","ND","ND","0"],
    [48297,"2015-11-09T04:00:00","52.6","ND","ND","ND","ND","14.96","ND","ND","ND","ND","ND","0"],
    [48298,"2015-11-09T05:00:00","44.4","ND","ND","ND","ND","4.49","ND","ND","ND","ND","ND","0"],
    [48299,"2015-11-09T06:00:00","33.6","ND","ND","ND","ND","1.52","ND","ND","ND","ND","ND","0"],
    [48300,"2015-11-09T07:00:00","40.5","ND","ND","ND","ND","1.10","ND","ND","ND","ND","ND","0"],
    [48301,"2015-11-09T08:00:00","46.7","ND","ND","ND","ND","1.09","ND","ND","ND","ND","ND","0"],
    [48302,"2015-11-09T09:00:00","44.7","ND","ND","ND","ND","1.12","ND","ND","ND","ND","ND","0"],
    [48303,"2015-11-09T10:00:00","44.5","ND","ND","ND","ND","1.71","ND","ND","ND","ND","ND","0"],
    [48304,"2015-11-09T11:00:00","68","ND","ND","ND","ND","2.06","ND","ND","ND","ND","ND","0"],
    [48305,"2015-11-09T12:00:00","53.7","ND","ND","ND","ND","1.69","ND","ND","ND","ND","ND","0"],
    [48306,"2015-11-09T13:00:00","41.5","ND","ND","ND","ND","1.38","ND","ND","ND","ND","ND","0"],
    [48307,"2015-11-09T14:00:00","42.3","ND","ND","ND","ND","1.53","ND","ND","ND","ND","ND","0"],
    [48308,"2015-11-09T15:00:00","23.4","ND","ND","ND","ND","1.23","ND","ND","ND","ND","ND","0.25"],
    [48309,"2015-11-09T16:00:00","9.2","ND","ND","ND","ND","1.16","ND","ND","ND","ND","ND","0"],
    [48310,"2015-11-09T17:00:00","17.7","ND","ND","ND","ND","1.18","ND","ND","ND","ND","ND","0"],
    [48311,"2015-11-09T18:00:00","20.2","ND","ND","ND","ND","0.91","ND","ND","ND","ND","ND","0"],
    [48312,"2015-11-09T19:00:00","42.4","ND","ND","ND","ND","0.96","ND","ND","ND","ND","ND","0"],
    [48313,"2015-11-09T20:00:00","27","ND","ND","ND","ND","1.64","ND","ND","ND","ND","ND","0"],
    [48314,"2015-11-09T21:00:00","34.6","ND","ND","ND","ND","1.10","ND","ND","ND","ND","ND","0"],
    [48315,"2015-11-09T22:00:00","37.2","ND","ND","ND","ND","1.31","ND","ND","ND","ND","ND","0"],
    [48316,"2015-11-09T23:00:00","39.2","ND","ND","ND","ND","3.05","ND","ND","ND","ND","ND","0"],
    [48317,"2015-11-10T00:00:00","52.8","ND","ND","ND","ND","2.48","ND","ND","ND","ND","ND","0"],
    [48318,"2015-11-10T01:00:00","38.6","ND","ND","ND","ND","2.29","ND","ND","ND","ND","ND","0"],
    [48319,"2015-11-10T02:00:00","45.5","ND","ND","ND","ND","3.16","ND","ND","ND","ND","ND","0"],
    [48320,"2015-11-10T03:00:00","51.3","ND","ND","ND","ND","4.99","ND","ND","ND","ND","ND","0"],
    [48321,"2015-11-10T04:00:00","75.7","ND","ND","ND","ND","18.94","ND","ND","ND","ND","ND","0"],
    [48322,"2015-11-10T05:00:00","63","ND","ND","ND","ND","8.98","ND","ND","ND","ND","ND","0"],
    [48323,"2015-11-10T06:00:00","51.5","ND","ND","ND","ND","9.98","ND","ND","ND","ND","ND","0"],
    [48324,"2015-11-10T07:00:00","68.8","ND","ND","ND","ND","6.59","ND","ND","ND","ND","ND","0"],
    [48325,"2015-11-10T08:00:00","85.8","ND","ND","ND","ND","7.05","ND","ND","ND","ND","ND","0"],
    [48326,"2015-11-10T09:00:00","76.3","ND","ND","ND","ND","4.70","ND","ND","ND","ND","ND","0"],
    [48327,"2015-11-10T10:00:00","72.8","ND","ND","ND","ND","2.98","ND","ND","ND","ND","ND","0"],
    [48328,"2015-11-10T11:00:00","46.9","ND","ND","ND","ND","2.08","ND","ND","ND","ND","ND","0"],
    [48329,"2015-11-10T12:00:00","30.6","ND","ND","ND","ND","1.85","ND","ND","ND","ND","ND","0"],
    [48330,"2015-11-10T13:00:00","33","ND","ND","ND","ND","1.85","ND","ND","ND","ND","ND","0"],
    [48331,"2015-11-10T14:00:00","41.2","ND","ND","ND","ND","1.83","ND","ND","ND","ND","ND","0"],
    [48332,"2015-11-10T15:00:00","19","ND","ND","ND","ND","1.46","ND","ND","ND","ND","ND","0"],
    [48333,"2015-11-10T16:00:00","30.8","ND","ND","ND","ND","1.24","ND","ND","ND","ND","ND","0"],
    [48334,"2015-11-10T17:00:00","13.9","ND","ND","ND","ND","0.86","ND","ND","ND","ND","ND","0"],
    [48335,"2015-11-10T18:00:00","3","ND","ND","ND","ND","0.70","ND","ND","ND","ND","ND","0"],
    [48336,"2015-11-10T19:00:00","13.8","ND","ND","ND","ND","1.44","ND","ND","ND","ND","ND","0"],
    [48337,"2015-11-10T20:00:00","41.5","ND","ND","ND","ND","1.32","ND","ND","ND","ND","ND","0"],
    [48338,"2015-11-10T21:00:00","41.2","ND","ND","ND","ND","3.72","ND","ND","ND","ND","ND","0"],
    [48339,"2015-11-10T22:00:00","32.7","ND","ND","ND","ND","3.05","ND","ND","ND","ND","ND","0"],
    [48340,"2015-11-10T23:00:00","42.9","ND","ND","ND","ND","1.49","ND","ND","ND","ND","ND","0"],
    [48341,"2015-11-11T00:00:00","43.7","ND","ND","ND","ND","3.04","ND","ND","ND","ND","ND","0"],
    [48342,"2015-11-11T01:00:00","54.7","ND","ND","ND","ND","2.22","ND","ND","ND","ND","ND","0"],
    [48343,"2015-11-11T02:00:00","39.4","ND","ND","ND","ND","1.95","ND","ND","ND","ND","ND","0"],
    [48344,"2015-11-11T03:00:00","34.7","ND","ND","ND","ND","2.96","ND","ND","ND","ND","ND","0"],
    [48345,"2015-11-11T04:00:00","36.5","ND","ND","ND","ND","3.16","ND","ND","ND","ND","ND","5.84"],
    [48346,"2015-11-11T05:00:00","31.6","ND","ND","ND","ND","2.87","ND","ND","ND","ND","ND","2.54"],
    [48347,"2015-11-11T06:00:00","33.4","ND","ND","ND","ND","1.41","ND","ND","ND","ND","ND","0.25"],
    [48348,"2015-11-11T07:00:00","34.2","ND","ND","ND","ND","2.68","ND","ND","ND","ND","ND","0"],
    [48349,"2015-11-11T08:00:00","45.5","ND","ND","ND","ND","2.96","ND","ND","ND","ND","ND","0"],
    [48350,"2015-11-11T09:00:00","53.3","ND","ND","ND","ND","3.00","ND","ND","ND","ND","ND","0"],
    [48351,"2015-11-11T10:00:00","62.1","ND","ND","ND","ND","3.14","ND","ND","ND","ND","ND","0"],
    [48352,"2015-11-11T11:00:00","66.7","ND","ND","ND","ND","2.55","ND","ND","ND","ND","ND","0"],
    [48353,"2015-11-11T12:00:00","25.5","ND","ND","ND","ND","1.41","ND","ND","ND","ND","ND","0"],
    [48354,"2015-11-11T13:00:00","21.9","ND","ND","ND","ND","1.24","ND","ND","ND","ND","ND","0"],
    [48355,"2015-11-11T14:00:00","18.6","ND","ND","ND","ND","1.14","ND","ND","ND","ND","ND","0"],
    [48356,"2015-11-11T15:00:00","29.5","ND","ND","ND","ND","0.96","ND","ND","ND","ND","ND","0"],
    [48357,"2015-11-11T16:00:00","35.4","ND","ND","ND","ND","1.44","ND","ND","ND","ND","ND","0"],
    [48358,"2015-11-11T17:00:00","33.6","ND","ND","ND","ND","2.16","ND","ND","ND","ND","ND","0"],
    [48359,"2015-11-11T18:00:00","28.3","ND","ND","ND","ND","1.53","ND","ND","ND","ND","ND","0"],
    [48360,"2015-11-11T19:00:00","22.1","ND","ND","ND","ND","1.24","ND","ND","ND","ND","ND","0"],
    [48361,"2015-11-11T20:00:00","23.9","ND","ND","ND","ND","1.88","ND","ND","ND","ND","ND","0"],
    [48362,"2015-11-11T21:00:00","45.1","ND","ND","ND","ND","2.26","ND","ND","ND","ND","ND","0"],
    [48363,"2015-11-11T22:00:00","38.9","ND","ND","ND","ND","6.94","ND","ND","ND","ND","ND","0"],
    [48364,"2015-11-11T23:00:00","41.8","ND","ND","ND","ND","4.24","ND","ND","ND","ND","ND","0"],
    [48365,"2015-11-12T00:00:00","32.3","ND","ND","ND","ND","1.88","ND","ND","ND","ND","ND","0"],
    [48366,"2015-11-12T01:00:00","57.2","ND","ND","ND","ND","5.19","ND","ND","ND","ND","ND","0"],
    [48367,"2015-11-12T02:00:00","71.4","ND","ND","ND","ND","4.60","ND","ND","ND","ND","ND","0"],
    [48368,"2015-11-12T03:00:00","41.1","ND","ND","ND","ND","3.18","ND","ND","ND","ND","ND","0"],
    [48369,"2015-11-12T04:00:00","38.2","ND","ND","ND","ND","2.26","ND","ND","ND","ND","ND","0"],
    [48370,"2015-11-12T05:00:00","58.1","ND","ND","ND","ND","2.30","ND","ND","ND","ND","ND","0"],
    [48371,"2015-11-12T06:00:00","61.7","ND","ND","ND","ND","4.14","ND","ND","ND","ND","ND","0"],
    [48372,"2015-11-12T07:00:00","85.1","ND","ND","ND","ND","5.95","ND","ND","ND","ND","ND","0"],
    [48373,"2015-11-12T08:00:00","78.3","ND","ND","ND","ND","8.93","ND","ND","ND","ND","ND","0"],
    [48374,"2015-11-12T09:00:00","80","ND","ND","ND","ND","7.58","ND","ND","ND","ND","ND","0"],
    [48375,"2015-11-12T10:00:00","66.1","ND","ND","ND","ND","3.33","ND","ND","ND","ND","ND","0"],
    [48376,"2015-11-12T11:00:00","28.4","ND","ND","ND","ND","1.74","ND","ND","ND","ND","ND","0"],
    [48377,"2015-11-12T12:00:00","34","ND","ND","ND","ND","1.34","ND","ND","ND","ND","ND","0"],
    [48378,"2015-11-12T13:00:00","28.1","ND","ND","ND","ND","1.44","ND","ND","ND","ND","ND","0"],
    [48379,"2015-11-12T14:00:00","29.3","ND","ND","ND","ND","1.52","ND","ND","ND","ND","ND","0"],
    [48380,"2015-11-12T15:00:00","27.1","ND","ND","ND","ND","2.01","ND","ND","ND","ND","ND","0"],
    [48381,"2015-11-12T16:00:00","21.8","ND","ND","ND","ND","1.14","ND","ND","ND","ND","ND","0"],
    [48382,"2015-11-12T17:00:00","26.7","ND","ND","ND","ND","1.00","ND","ND","ND","ND","ND","0"],
    [48383,"2015-11-12T18:00:00","18.8","ND","ND","ND","ND","0.86","ND","ND","ND","ND","ND","0"],
    [48384,"2015-11-12T19:00:00","17.7","ND","ND","ND","ND","0.88","ND","ND","ND","ND","ND","0"],
    [48385,"2015-11-12T20:00:00","40.8","ND","ND","ND","ND","1.39","ND","ND","ND","ND","ND","0"],
    [48386,"2015-11-12T21:00:00","43.1","ND","ND","ND","ND","1.70","ND","ND","ND","ND","ND","0"],
    [48387,"2015-11-12T22:00:00","33.8","ND","ND","ND","ND","2.34","ND","ND","ND","ND","ND","0"],
    [48388,"2015-11-12T23:00:00","42","ND","ND","ND","ND","2.48","ND","ND","ND","ND","ND","0"],
    [48389,"2015-11-13T00:00:00","43.9","ND","ND","ND","ND","2.59","ND","ND","ND","ND","ND","0"],
    [48390,"2015-11-13T01:00:00","71.5","ND","ND","ND","ND","1.90","ND","ND","ND","ND","ND","0"],
    [48391,"2015-11-13T02:00:00","93.4","ND","ND","ND","ND","4.46","ND","ND","ND","ND","ND","0"],
    [48392,"2015-11-13T03:00:00","59.3","ND","ND","ND","ND","3.26","ND","ND","ND","ND","ND","0"],
    [48393,"2015-11-13T04:00:00","39.5","ND","ND","ND","ND","3.78","ND","ND","ND","ND","ND","0"],
    [48394,"2015-11-13T05:00:00","49.7","ND","ND","ND","ND","2.15","ND","ND","ND","ND","ND","0"],
    [48395,"2015-11-13T06:00:00","63.2","ND","ND","ND","ND","3.67","ND","ND","ND","ND","ND","0"],
    [48396,"2015-11-13T07:00:00","83.2","ND","ND","ND","ND","2.83","ND","ND","ND","ND","ND","0"],
    [48397,"2015-11-13T08:00:00","64.7","ND","ND","ND","ND","2.26","ND","ND","ND","ND","ND","0"],
    [48398,"2015-11-13T09:00:00","60.6","ND","ND","ND","ND","1.94","ND","ND","ND","ND","ND","0"],
    [48399,"2015-11-13T10:00:00","48.7","ND","ND","ND","ND","1.55","ND","ND","ND","ND","ND","0"],
    [48400,"2015-11-13T11:00:00","54.3","ND","ND","ND","ND","1.35","ND","ND","ND","ND","ND","0"],
    [48401,"2015-11-13T12:00:00","45.5","ND","ND","ND","ND","1.30","ND","ND","ND","ND","ND","0"],
    [48402,"2015-11-13T13:00:00","38.5","ND","ND","ND","ND","0.95","ND","ND","ND","ND","ND","0"],
    [48403,"2015-11-13T14:00:00","46.5","ND","ND","ND","ND","1.92","ND","ND","ND","ND","ND","0"],
    [48404,"2015-11-13T15:00:00","36","ND","ND","ND","ND","1.84","ND","ND","ND","ND","ND","0"],
    [48405,"2015-11-13T16:00:00","31.6","ND","ND","ND","ND","0.77","ND","ND","ND","ND","ND","0"],
    [48406,"2015-11-13T17:00:00","15.8","ND","ND","ND","ND","1.30","ND","ND","ND","ND","ND","0"],
    [48407,"2015-11-13T18:00:00","16.2","ND","ND","ND","ND","1.35","ND","ND","ND","ND","ND","0"],
    [48408,"2015-11-13T19:00:00","17.1","ND","ND","ND","ND","0.93","ND","ND","ND","ND","ND","0"],
    [48409,"2015-11-13T20:00:00","24.6","ND","ND","ND","ND","0.78","ND","ND","ND","ND","ND","0"],
    [48410,"2015-11-13T21:00:00","43.4","ND","ND","ND","ND","3.78","ND","ND","ND","ND","ND","0"],
    [48411,"2015-11-13T22:00:00","57","ND","ND","ND","ND","3.99","ND","ND","ND","ND","ND","0"],
    [48412,"2015-11-13T23:00:00","45.5","ND","ND","ND","ND","3.96","ND","ND","ND","ND","ND","0"],
    [48413,"2015-11-14T00:00:00","31.7","ND","ND","ND","ND","2.82","ND","ND","ND","ND","ND","0"],
    [48414,"2015-11-14T01:00:00","23.4","ND","ND","ND","ND","2.54","ND","ND","ND","ND","ND","0"],
    [48415,"2015-11-14T02:00:00","18.5","ND","ND","ND","ND","2.15","ND","ND","ND","ND","ND","0"],
    [48416,"2015-11-14T03:00:00","57","ND","ND","ND","ND","2.23","ND","ND","ND","ND","ND","0"],
    [48417,"2015-11-14T04:00:00","45.8","ND","ND","ND","ND","1.98","ND","ND","ND","ND","ND","0"],
    [48418,"2015-11-14T05:00:00","50.5","ND","ND","ND","ND","3.12","ND","ND","ND","ND","ND","0"],
    [48419,"2015-11-14T06:00:00","68.1","ND","ND","ND","ND","2.31","ND","ND","ND","ND","ND","0"],
    [48420,"2015-11-14T07:00:00","68.4","ND","ND","ND","ND","1.87","ND","ND","ND","ND","ND","0"],
    [48421,"2015-11-14T08:00:00","84.9","ND","ND","ND","ND","2.98","ND","ND","ND","ND","ND","0"],
    [48422,"2015-11-14T09:00:00","102.5","ND","ND","ND","ND","3.74","ND","ND","ND","ND","ND","0"],
    [48423,"2015-11-14T10:00:00","88.1","ND","ND","ND","ND","2.43","ND","ND","ND","ND","ND","0"],
    [48424,"2015-11-14T11:00:00","79.5","ND","ND","ND","ND","0.85","ND","ND","ND","ND","ND","0"],
    [48425,"2015-11-14T12:00:00","53.8","ND","ND","ND","ND","0.84","ND","ND","ND","ND","ND","0"],
    [48426,"2015-11-14T13:00:00","47.2","ND","ND","ND","ND","0.88","ND","ND","ND","ND","ND","0"],
    [48427,"2015-11-14T14:00:00","46.6","ND","ND","ND","ND","1.14","ND","ND","ND","ND","ND","0"],
    [48428,"2015-11-14T15:00:00","43.1","ND","ND","ND","ND","1.06","ND","ND","ND","ND","ND","0"],
    [48429,"2015-11-14T16:00:00","23.8","ND","ND","ND","ND","0.81","ND","ND","ND","ND","ND","0"],
    [48430,"2015-11-14T17:00:00","18","ND","ND","ND","ND","0.79","ND","ND","ND","ND","ND","0"],
    [48431,"2015-11-14T18:00:00","16.1","ND","ND","ND","ND","0.82","ND","ND","ND","ND","ND","0"],
    [48432,"2015-11-14T19:00:00","20.6","ND","ND","ND","ND","1.48","ND","ND","ND","ND","ND","0"],
    [48433,"2015-11-14T20:00:00","33.4","ND","ND","ND","ND","1.25","ND","ND","ND","ND","ND","0"],
    [48434,"2015-11-14T21:00:00","29.9","ND","ND","ND","ND","1.17","ND","ND","ND","ND","ND","0"],
    [48435,"2015-11-14T22:00:00","21.4","ND","ND","ND","ND","0.56","ND","ND","ND","ND","ND","0"],
    [48436,"2015-11-14T23:00:00","17.8","ND","ND","ND","ND","0.77","ND","ND","ND","ND","ND","0"],
    [48437,"2015-11-15T00:00:00","21.4","ND","ND","ND","ND","2.89","ND","ND","ND","ND","ND","0"],
    [48438,"2015-11-15T01:00:00","37.9","ND","ND","ND","ND","5.39","ND","ND","ND","ND","ND","0"],
    [48439,"2015-11-15T02:00:00","47.3","ND","ND","ND","ND","2.23","ND","ND","ND","ND","ND","0"],
    [48440,"2015-11-15T03:00:00","32","ND","ND","ND","ND","2.30","ND","ND","ND","ND","ND","0"],
    [48441,"2015-11-15T04:00:00","35.3","ND","ND","ND","ND","3.00","ND","ND","ND","ND","ND","0"],
    [48442,"2015-11-15T05:00:00","40.4","ND","ND","ND","ND","2.56","ND","ND","ND","ND","ND","0"],
    [48443,"2015-11-15T06:00:00","36.9","ND","ND","ND","ND","2.20","ND","ND","ND","ND","ND","0"],
    [48444,"2015-11-15T07:00:00","40.3","ND","ND","ND","ND","2.83","ND","ND","ND","ND","ND","0"],
    [48445,"2015-11-15T08:00:00","49.6","ND","ND","ND","ND","2.58","ND","ND","ND","ND","ND","0"],
    [48446,"2015-11-15T09:00:00","65.8","ND","ND","ND","ND","3.85","ND","ND","ND","ND","ND","0"],
    [48447,"2015-11-15T10:00:00","64.3","ND","ND","ND","ND","4.01","ND","ND","ND","ND","ND","0"],
    [48448,"2015-11-15T11:00:00","56.3","ND","ND","ND","ND","3.05","ND","ND","ND","ND","ND","0"],
    [48449,"2015-11-15T12:00:00","50.6","ND","ND","ND","ND","2.59","ND","ND","ND","ND","ND","0"],
    [48450,"2015-11-15T13:00:00","43.4","ND","ND","ND","ND","1.99","ND","ND","ND","ND","ND","0"],
    [48451,"2015-11-15T14:00:00","30.2","ND","ND","ND","ND","2.24","ND","ND","ND","ND","ND","0"],
    [48452,"2015-11-15T15:00:00","16.8","ND","ND","ND","ND","1.25","ND","ND","ND","ND","ND","0"],
    [48453,"2015-11-15T16:00:00","14","ND","ND","ND","ND","0.85","ND","ND","ND","ND","ND","0"],
    [48454,"2015-11-15T17:00:00","8.8","ND","ND","ND","ND","1.07","ND","ND","ND","ND","ND","0"],
    [48455,"2015-11-15T18:00:00","5.8","ND","ND","ND","ND","1.27","ND","ND","ND","ND","ND","0"],
    [48456,"2015-11-15T19:00:00","8.4","ND","ND","ND","ND","0.89","ND","ND","ND","ND","ND","0"],
    [48457,"2015-11-15T20:00:00","14.4","ND","ND","ND","ND","1.32","ND","ND","ND","ND","ND","0"],
    [48458,"2015-11-15T21:00:00","20.3","ND","ND","ND","ND","2.30","ND","ND","ND","ND","ND","0"],
    [48459,"2015-11-15T22:00:00","28.7","ND","ND","ND","ND","4.89","ND","ND","ND","ND","ND","0"],
    [48460,"2015-11-15T23:00:00","18","ND","ND","ND","ND","2.09","ND","ND","ND","ND","ND","0"],
    [48461,"2015-11-16T00:00:00","25.6","ND","ND","ND","ND","2.16","ND","ND","ND","ND","ND","0"],
    [48462,"2015-11-16T01:00:00","23.4","ND","ND","ND","ND","2.50","ND","ND","ND","ND","ND","0"],
    [48463,"2015-11-16T02:00:00","29.7","ND","ND","ND","ND","3.28","ND","ND","ND","ND","ND","0"],
    [48464,"2015-11-16T03:00:00","34.2","ND","ND","ND","ND","2.79","ND","ND","ND","ND","ND","0"],
    [48465,"2015-11-16T04:00:00","44.6","ND","ND","ND","ND","2.47","ND","ND","ND","ND","ND","0"],
    [48466,"2015-11-16T05:00:00","35.4","ND","ND","ND","ND","3.16","ND","ND","ND","ND","ND","0"],
    [48467,"2015-11-16T06:00:00","32.5","ND","ND","ND","ND","17.87","ND","ND","ND","ND","ND","0"],
    [48468,"2015-11-16T07:00:00","25.2","ND","ND","ND","ND","12.34","ND","ND","ND","ND","ND","0"],
    [48469,"2015-11-16T08:00:00","27.2","ND","ND","ND","ND","8.81","ND","ND","ND","ND","ND","0"],
    [48470,"2015-11-16T09:00:00","27.2","ND","ND","ND","ND","5.30","ND","ND","ND","ND","ND","0"],
    [48471,"2015-11-16T10:00:00","27.5","ND","ND","ND","ND","2.58","ND","ND","ND","ND","ND","0"],
    [48472,"2015-11-16T11:00:00","35.1","ND","ND","ND","ND","2.24","ND","ND","ND","ND","ND","0"],
    [48473,"2015-11-16T12:00:00","39.2","ND","ND","ND","ND","2.36","ND","ND","ND","ND","ND","0"],
    [48474,"2015-11-16T13:00:00","40.7","ND","ND","ND","ND","1.97","ND","ND","ND","ND","ND","0"],
    [48475,"2015-11-16T14:00:00","41.7","ND","ND","ND","ND","2.77","ND","ND","ND","ND","ND","0"],
    [48476,"2015-11-16T15:00:00","32.9","ND","ND","ND","ND","2.16","ND","ND","ND","ND","ND","0"],
    [48477,"2015-11-16T16:00:00","29.7","ND","ND","ND","ND","1.37","ND","ND","ND","ND","ND","0"],
    [48478,"2015-11-16T17:00:00","11.5","ND","ND","ND","ND","0.53","ND","ND","ND","ND","ND","0"],
    [48479,"2015-11-16T18:00:00","12","ND","ND","ND","ND","1.12","ND","ND","ND","ND","ND","0"],
    [48480,"2015-11-16T19:00:00","8.7","ND","ND","ND","ND","1.00","ND","ND","ND","ND","ND","0"],
    [48481,"2015-11-16T20:00:00","16.3","ND","ND","ND","ND","0.88","ND","ND","ND","ND","ND","0"],
    [48482,"2015-11-16T21:00:00","23.6","ND","ND","ND","ND","2.20","ND","ND","ND","ND","ND","0"],
    [48483,"2015-11-16T22:00:00","29.3","ND","ND","ND","ND","3.01","ND","ND","ND","ND","ND","0"],
    [48484,"2015-11-16T23:00:00","29.2","ND","ND","ND","ND","2.51","ND","ND","ND","ND","ND","0"],
    [48485,"2015-11-17T00:00:00","22","ND","ND","ND","ND","1.13","ND","ND","ND","ND","ND","0"],
    [48486,"2015-11-17T01:00:00","10.2","ND","ND","ND","ND","1.87","ND","ND","ND","ND","ND","10.92"],
    [48487,"2015-11-17T02:00:00","6.5","ND","ND","ND","ND","0.71","ND","ND","ND","ND","ND","4.32"],
    [48488,"2015-11-17T03:00:00","2.7","ND","ND","ND","ND","0.93","ND","ND","ND","ND","ND","0.51"],
    [48489,"2015-11-17T04:00:00","3.9","ND","ND","ND","ND","1.32","ND","ND","ND","ND","ND","0"],
    [48490,"2015-11-17T05:00:00","2.9","ND","ND","ND","ND","1.32","ND","ND","ND","ND","ND","2.79"],
    [48491,"2015-11-17T06:00:00","5.2","ND","ND","ND","ND","0.79","ND","ND","ND","ND","ND","0.25"],
    [48492,"2015-11-17T07:00:00","ND","ND","ND","ND","ND","1.92","ND","ND","ND","ND","ND","0.25"],
    [48493,"2015-11-17T08:00:00","18.9","ND","ND","ND","ND","2.01","ND","ND","ND","ND","ND","1.27"],
    [48494,"2015-11-17T09:00:00","45.9","ND","ND","ND","ND","1.64","ND","ND","ND","ND","ND","1.52"],
    [48495,"2015-11-17T10:00:00","35.6","ND","ND","ND","ND","1.42","ND","ND","ND","ND","ND","0.25"],
    [48496,"2015-11-17T11:00:00","26.1","ND","ND","ND","ND","3.11","ND","ND","ND","ND","ND","0"],
    [48497,"2015-11-17T12:00:00","4.4","ND","ND","ND","ND","4.68","ND","ND","ND","ND","ND","0"],
    [48498,"2015-11-17T13:00:00","5.3","ND","ND","ND","ND","2.84","ND","ND","ND","ND","ND","0"],
    [48499,"2015-11-17T14:00:00","3.2","ND","ND","ND","ND","1.41","ND","ND","ND","ND","ND","0"],
    [48500,"2015-11-17T15:00:00","ND","ND","ND","ND","ND","1.20","ND","ND","ND","ND","ND","0"],
    [48501,"2015-11-17T16:00:00","20","ND","ND","ND","ND","2.33","ND","ND","ND","ND","ND","0"],
    [48502,"2015-11-17T17:00:00","68.6","ND","ND","ND","ND","2.91","ND","ND","ND","ND","ND","0"],
    [48503,"2015-11-17T18:00:00","30.3","ND","ND","ND","ND","1.78","ND","ND","ND","ND","ND","0"],
    [48504,"2015-11-17T19:00:00","26.2","ND","ND","ND","ND","1.91","ND","ND","ND","ND","ND","0"],
    [48505,"2015-11-17T20:00:00","15.7","ND","ND","ND","ND","1.66","ND","ND","ND","ND","ND","0"],
    [48506,"2015-11-17T21:00:00","16.3","ND","ND","ND","ND","2.06","ND","ND","ND","ND","ND","0.25"],
    [48507,"2015-11-17T22:00:00","16.3","ND","ND","ND","ND","1.39","ND","ND","ND","ND","ND","0.25"],
    [48508,"2015-11-17T23:00:00","36.5","ND","ND","ND","ND","1.60","ND","ND","ND","ND","ND","0"],
    [48509,"2015-11-18T00:00:00","37.3","ND","ND","ND","ND","2.33","ND","ND","ND","ND","ND","0"],
    [48510,"2015-11-18T01:00:00","14.9","ND","ND","ND","ND","1.52","ND","ND","ND","ND","ND","0"],
    [48511,"2015-11-18T02:00:00","17.9","ND","ND","ND","ND","2.48","ND","ND","ND","ND","ND","11.43"],
    [48512,"2015-11-18T03:00:00","25.7","ND","ND","ND","ND","3.23","ND","ND","ND","ND","ND","5.08"],
    [48513,"2015-11-18T04:00:00","18.9","ND","ND","ND","ND","3.32","ND","ND","ND","ND","ND","23.88"],
    [48514,"2015-11-18T05:00:00","5.2","ND","ND","ND","ND","1.99","ND","ND","ND","ND","ND","14.22"],
    [48515,"2015-11-18T06:00:00","ND","ND","ND","ND","ND","2.16","ND","ND","ND","ND","ND","1.02"],
    [48516,"2015-11-18T07:00:00","5.5","ND","ND","ND","ND","2.10","ND","ND","ND","ND","ND","0.25"],
    [48517,"2015-11-18T08:00:00","17.8","ND","ND","ND","ND","2.97","ND","ND","ND","ND","ND","0"],
    [48518,"2015-11-18T09:00:00","40.8","ND","ND","ND","ND","1.12","ND","ND","ND","ND","ND","0"],
    [48519,"2015-11-18T10:00:00","18.8","ND","ND","ND","ND","2.33","ND","ND","ND","ND","ND","0"],
    [48520,"2015-11-18T11:00:00","25.8","ND","ND","ND","ND","1.76","ND","ND","ND","ND","ND","0"],
    [48521,"2015-11-18T12:00:00","59.2","ND","ND","ND","ND","2.19","ND","ND","ND","ND","ND","0"],
    [48522,"2015-11-18T13:00:00","64.4","ND","ND","ND","ND","1.95","ND","ND","ND","ND","ND","0"],
    [48523,"2015-11-18T14:00:00","89.2","ND","ND","ND","ND","1.48","ND","ND","ND","ND","ND","0"],
    [48524,"2015-11-18T15:00:00","39.3","ND","ND","ND","ND","1.90","ND","ND","ND","ND","ND","0"],
    [48525,"2015-11-18T16:00:00","40.6","ND","ND","ND","ND","3.26","ND","ND","ND","ND","ND","0"],
    [48526,"2015-11-18T17:00:00","42.8","ND","ND","ND","ND","1.95","ND","ND","ND","ND","ND","0"],
    [48527,"2015-11-18T18:00:00","26.5","ND","ND","ND","ND","1.69","ND","ND","ND","ND","ND","0"],
    [48528,"2015-11-18T19:00:00","24.7","ND","ND","ND","ND","2.34","ND","ND","ND","ND","ND","0"],
    [48529,"2015-11-18T20:00:00","21.1","ND","ND","ND","ND","3.57","ND","ND","ND","ND","ND","0"],
    [48530,"2015-11-18T21:00:00","39.5","ND","ND","ND","ND","2.90","ND","ND","ND","ND","ND","0"],
    [48531,"2015-11-18T22:00:00","50.9","ND","ND","ND","ND","1.95","ND","ND","ND","ND","ND","0"],
    [48532,"2015-11-18T23:00:00","35.9","ND","ND","ND","ND","1.63","ND","ND","ND","ND","ND","0"],
    [48533,"2015-11-19T00:00:00","23","ND","ND","ND","ND","2.15","ND","ND","ND","ND","ND","0"],
    [48534,"2015-11-19T01:00:00","11.9","ND","ND","ND","ND","2.12","ND","ND","ND","ND","ND","0"],
    [48535,"2015-11-19T02:00:00","20.2","ND","ND","ND","ND","2.22","ND","ND","ND","ND","ND","0"],
    [48536,"2015-11-19T03:00:00","18.8","ND","ND","ND","ND","2.33","ND","ND","ND","ND","ND","0"],
    [48537,"2015-11-19T04:00:00","42.8","ND","ND","ND","ND","2.41","ND","ND","ND","ND","ND","0"],
    [48538,"2015-11-19T05:00:00","35.6","ND","ND","ND","ND","2.69","ND","ND","ND","ND","ND","0"],
    [48539,"2015-11-19T06:00:00","47.4","ND","ND","ND","ND","3.46","ND","ND","ND","ND","ND","0"],
    [48540,"2015-11-19T07:00:00","42.5","ND","ND","ND","ND","1.28","ND","ND","ND","ND","ND","0"],
    [48541,"2015-11-19T08:00:00","45.6","ND","ND","ND","ND","1.98","ND","ND","ND","ND","ND","0"],
    [48542,"2015-11-19T09:00:00","42.3","ND","ND","ND","ND","1.92","ND","ND","ND","ND","ND","0"],
    [48543,"2015-11-19T10:00:00","31.9","ND","ND","ND","ND","1.70","ND","ND","ND","ND","ND","0"],
    [48544,"2015-11-19T11:00:00","41.2","ND","ND","ND","ND","1.81","ND","ND","ND","ND","ND","0"],
    [48545,"2015-11-19T12:00:00","33.8","ND","ND","ND","ND","1.83","ND","ND","ND","ND","ND","0"],
    [48546,"2015-11-19T13:00:00","28.5","ND","ND","ND","ND","2.10","ND","ND","ND","ND","ND","0"],
    [48547,"2015-11-19T14:00:00","31.2","ND","ND","ND","ND","2.38","ND","ND","ND","ND","ND","0"],
    [48548,"2015-11-19T15:00:00","37.7","ND","ND","ND","ND","1.07","ND","ND","ND","ND","ND","0"],
    [48549,"2015-11-19T16:00:00","44","ND","ND","ND","ND","1.77","ND","ND","ND","ND","ND","0"],
    [48550,"2015-11-19T17:00:00","43.5","ND","ND","ND","ND","2.93","ND","ND","ND","ND","ND","0"],
    [48551,"2015-11-19T18:00:00","21.6","ND","ND","ND","ND","1.32","ND","ND","ND","ND","ND","0"],
    [48552,"2015-11-19T19:00:00","25.7","ND","ND","ND","ND","1.34","ND","ND","ND","ND","ND","0"],
    [48553,"2015-11-19T20:00:00","32.8","ND","ND","ND","ND","1.74","ND","ND","ND","ND","ND","0"],
    [48554,"2015-11-19T21:00:00","36.4","ND","ND","ND","ND","2.41","ND","ND","ND","ND","ND","0"],
    [48555,"2015-11-19T22:00:00","37.9","ND","ND","ND","ND","2.17","ND","ND","ND","ND","ND","0"],
    [48556,"2015-11-19T23:00:00","26.1","ND","ND","ND","ND","2.22","ND","ND","ND","ND","ND","0"],
    [48557,"2015-11-20T00:00:00","28.1","ND","ND","ND","ND","3.43","ND","ND","ND","ND","ND","0"],
    [48558,"2015-11-20T01:00:00","36.5","ND","ND","ND","ND","2.31","ND","ND","ND","ND","ND","0"],
    [48559,"2015-11-20T02:00:00","37.2","ND","ND","ND","ND","2.08","ND","ND","ND","ND","ND","0"],
    [48560,"2015-11-20T03:00:00","32.8","ND","ND","ND","ND","2.12","ND","ND","ND","ND","ND","0"],
    [48561,"2015-11-20T04:00:00","28.4","ND","ND","ND","ND","2.54","ND","ND","ND","ND","ND","0"],
    [48562,"2015-11-20T05:00:00","28.2","ND","ND","ND","ND","2.51","ND","ND","ND","ND","ND","0"],
    [48563,"2015-11-20T06:00:00","32.9","ND","ND","ND","ND","2.34","ND","ND","ND","ND","ND","0"],
    [48564,"2015-11-20T07:00:00","44.6","ND","ND","ND","ND","2.16","ND","ND","ND","ND","ND","0"],
    [48565,"2015-11-20T08:00:00","74.4","ND","ND","ND","ND","3.47","ND","ND","ND","ND","ND","0"],
    [48566,"2015-11-20T09:00:00","63.9","ND","ND","ND","ND","2.09","ND","ND","ND","ND","ND","0.25"],
    [48567,"2015-11-20T10:00:00","70.5","ND","ND","ND","ND","1.90","ND","ND","ND","ND","ND","0"],
    [48568,"2015-11-20T11:00:00","59.7","ND","ND","ND","ND","1.63","ND","ND","ND","ND","ND","0"],
    [48569,"2015-11-20T12:00:00","48.9","ND","ND","ND","ND","1.62","ND","ND","ND","ND","ND","0"],
    [48570,"2015-11-20T13:00:00","44","ND","ND","ND","ND","1.63","ND","ND","ND","ND","ND","0"],
    [48571,"2015-11-20T14:00:00","29.9","ND","ND","ND","ND","1.69","ND","ND","ND","ND","ND","0"],
    [48572,"2015-11-20T15:00:00","28.3","ND","ND","ND","ND","2.08","ND","ND","ND","ND","ND","0"],
    [48573,"2015-11-20T16:00:00","27.9","ND","ND","ND","ND","1.78","ND","ND","ND","ND","ND","0"],
    [48574,"2015-11-20T17:00:00","20.4","ND","ND","ND","ND","0.95","ND","ND","ND","ND","ND","0"],
    [48575,"2015-11-20T18:00:00","14.6","ND","ND","ND","ND","1.94","ND","ND","ND","ND","ND","0"],
    [48576,"2015-11-20T19:00:00","8.7","ND","ND","ND","ND","1.97","ND","ND","ND","ND","ND","0"],
    [48577,"2015-11-20T20:00:00","31.1","ND","ND","ND","ND","2.43","ND","ND","ND","ND","ND","0"],
    [48578,"2015-11-20T21:00:00","25.8","ND","ND","ND","ND","1.99","ND","ND","ND","ND","ND","0.51"],
    [48579,"2015-11-20T22:00:00","15.6","ND","ND","ND","ND","2.38","ND","ND","ND","ND","ND","0.51"],
    [48580,"2015-11-20T23:00:00","14.9","ND","ND","ND","ND","2.58","ND","ND","ND","ND","ND","0.25"],
    [48581,"2015-11-21T00:00:00","17.9","ND","ND","ND","ND","2.17","ND","ND","ND","ND","ND","0"],
    [48582,"2015-11-21T01:00:00","28.9","ND","ND","ND","ND","2.59","ND","ND","ND","ND","ND","0"],
    [48583,"2015-11-21T02:00:00","23","ND","ND","ND","ND","2.76","ND","ND","ND","ND","ND","2.79"],
    [48584,"2015-11-21T03:00:00","23.1","ND","ND","ND","ND","3.85","ND","ND","ND","ND","ND","0.51"],
    [48585,"2015-11-21T04:00:00","21.5","ND","ND","ND","ND","5.10","ND","ND","ND","ND","ND","0.25"],
    [48586,"2015-11-21T05:00:00","30.6","ND","ND","ND","ND","6.77","ND","ND","ND","ND","ND","1.02"],
    [48587,"2015-11-21T06:00:00","26.7","ND","ND","ND","ND","4.67","ND","ND","ND","ND","ND","0"],
    [48588,"2015-11-21T07:00:00","29","ND","ND","ND","ND","2.29","ND","ND","ND","ND","ND","0"],
    [48589,"2015-11-21T08:00:00","36.3","ND","ND","ND","ND","1.84","ND","ND","ND","ND","ND","0"],
    [48590,"2015-11-21T09:00:00","43.1","ND","ND","ND","ND","2.41","ND","ND","ND","ND","ND","0"],
    [48591,"2015-11-21T10:00:00","55.9","ND","ND","ND","ND","2.51","ND","ND","ND","ND","ND","0"],
    [48592,"2015-11-21T11:00:00","40","ND","ND","ND","ND","2.15","ND","ND","ND","ND","ND","0"],
    [48593,"2015-11-21T12:00:00","29","ND","ND","ND","ND","1.76","ND","ND","ND","ND","ND","0"],
    [48594,"2015-11-21T13:00:00","31.7","ND","ND","ND","ND","1.95","ND","ND","ND","ND","ND","0"],
    [48595,"2015-11-21T14:00:00","42.2","ND","ND","ND","ND","2.12","ND","ND","ND","ND","ND","0"],
    [48596,"2015-11-21T15:00:00","36.2","ND","ND","ND","ND","1.51","ND","ND","ND","ND","ND","0"],
    [48597,"2015-11-21T16:00:00","24.8","ND","ND","ND","ND","2.20","ND","ND","ND","ND","ND","0"],
    [48598,"2015-11-21T17:00:00","9.3","ND","ND","ND","ND","1.18","ND","ND","ND","ND","ND","0"],
    [48599,"2015-11-21T18:00:00","24.9","ND","ND","ND","ND","2.06","ND","ND","ND","ND","ND","0"],
    [48600,"2015-11-21T19:00:00","29","ND","ND","ND","ND","1.85","ND","ND","ND","ND","ND","0"],
    [48601,"2015-11-21T20:00:00","43.6","ND","ND","ND","ND","2.34","ND","ND","ND","ND","ND","0"],
    [48602,"2015-11-21T21:00:00","45.3","ND","ND","ND","ND","3.18","ND","ND","ND","ND","ND","0"],
    [48603,"2015-11-21T22:00:00","51.6","ND","ND","ND","ND","2.56","ND","ND","ND","ND","ND","0"],
    [48604,"2015-11-21T23:00:00","55.5","ND","ND","ND","ND","2.90","ND","ND","ND","ND","ND","0"],
    [48605,"2015-11-22T00:00:00","83.6","ND","ND","ND","ND","3.08","ND","ND","ND","ND","ND","0"],
    [48606,"2015-11-22T01:00:00","90","ND","ND","ND","ND","2.54","ND","ND","ND","ND","ND","0"],
    [48607,"2015-11-22T02:00:00","44.8","ND","ND","ND","ND","2.72","ND","ND","ND","ND","ND","0"],
    [48608,"2015-11-22T03:00:00","34.5","ND","ND","ND","ND","2.94","ND","ND","ND","ND","ND","0.51"],
    [48609,"2015-11-22T04:00:00","34.4","ND","ND","ND","ND","3.50","ND","ND","ND","ND","ND","2.54"],
    [48610,"2015-11-22T05:00:00","24.7","ND","ND","ND","ND","1.92","ND","ND","ND","ND","ND","0.51"],
    [48611,"2015-11-22T06:00:00","25.5","ND","ND","ND","ND","1.94","ND","ND","ND","ND","ND","0.76"],
    [48612,"2015-11-22T07:00:00","13.3","ND","ND","ND","ND","1.66","ND","ND","ND","ND","ND","0.51"],
    [48613,"2015-11-22T08:00:00","12.6","ND","ND","ND","ND","1.92","ND","ND","ND","ND","ND","3.05"],
    [48614,"2015-11-22T09:00:00","9.6","ND","ND","ND","ND","2.19","ND","ND","ND","ND","ND","0.51"],
    [48615,"2015-11-22T10:00:00","6.3","ND","ND","ND","ND","1.98","ND","ND","ND","ND","ND","0.76"],
    [48616,"2015-11-22T11:00:00","16","ND","ND","ND","ND","2.72","ND","ND","ND","ND","ND","0"],
    [48617,"2015-11-22T12:00:00","23","ND","ND","ND","ND","2.83","ND","ND","ND","ND","ND","0"],
    [48618,"2015-11-22T13:00:00","17.3","ND","ND","ND","ND","1.92","ND","ND","ND","ND","ND","0"],
    [48619,"2015-11-22T14:00:00","15.6","ND","ND","ND","ND","1.92","ND","ND","ND","ND","ND","0"],
    [48620,"2015-11-22T15:00:00","21.9","ND","ND","ND","ND","2.75","ND","ND","ND","ND","ND","0"],
    [48621,"2015-11-22T16:00:00","25.1","ND","ND","ND","ND","2.10","ND","ND","ND","ND","ND","0"],
    [48622,"2015-11-22T17:00:00","17.9","ND","ND","ND","ND","2.20","ND","ND","ND","ND","ND","0"],
    [48623,"2015-11-22T18:00:00","10.5","ND","ND","ND","ND","2.13","ND","ND","ND","ND","ND","0"],
    [48624,"2015-11-22T19:00:00","16","ND","ND","ND","ND","2.96","ND","ND","ND","ND","ND","0"],
    [48625,"2015-11-22T20:00:00","20.4","ND","ND","ND","ND","1.44","ND","ND","ND","ND","ND","0"],
    [48626,"2015-11-22T21:00:00","33.4","ND","ND","ND","ND","1.49","ND","ND","ND","ND","ND","0"],
    [48627,"2015-11-22T22:00:00","48.7","ND","ND","ND","ND","3.65","ND","ND","ND","ND","ND","0"],
    [48628,"2015-11-22T23:00:00","36.2","ND","ND","ND","ND","2.84","ND","ND","ND","ND","ND","0"],
    [48629,"2015-11-23T00:00:00","35.5","ND","ND","ND","ND","2.08","ND","ND","ND","ND","ND","0"],
    [48630,"2015-11-23T01:00:00","30","ND","ND","ND","ND","1.60","ND","ND","ND","ND","ND","0"],
    [48631,"2015-11-23T02:00:00","44.2","ND","ND","ND","ND","2.61","ND","ND","ND","ND","ND","0"],
    [48632,"2015-11-23T03:00:00","46.2","ND","ND","ND","ND","3.89","ND","ND","ND","ND","ND","0"],
    [48633,"2015-11-23T04:00:00","46.1","ND","ND","ND","ND","3.07","ND","ND","ND","ND","ND","0"],
    [48634,"2015-11-23T05:00:00","51.2","ND","ND","ND","ND","3.30","ND","ND","ND","ND","ND","0"],
    [48635,"2015-11-23T06:00:00","50.1","ND","ND","ND","ND","1.81","ND","ND","ND","ND","ND","0"],
    [48636,"2015-11-23T07:00:00","72","ND","ND","ND","ND","3.35","ND","ND","ND","ND","ND","0"],
    [48637,"2015-11-23T08:00:00","91.8","ND","ND","ND","ND","5.95","ND","ND","ND","ND","ND","0"],
    [48638,"2015-11-23T09:00:00","86.5","ND","ND","ND","ND","4.67","ND","ND","ND","ND","ND","0"],
    [48639,"2015-11-23T10:00:00","58.1","ND","ND","ND","ND","2.43","ND","ND","ND","ND","ND","0"],
    [48640,"2015-11-23T11:00:00","ND","ND","ND","ND","ND","ND","ND","ND","ND","ND","ND","ND"],
    [48641,"2015-11-23T12:00:00","20.2","ND","ND","ND","ND","2.08","ND","ND","ND","ND","ND","0"],
    [48642,"2015-11-23T13:00:00","37.3","ND","ND","ND","ND","1.88","ND","ND","ND","ND","ND","0"],
    [48643,"2015-11-23T14:00:00","46.1","ND","ND","ND","ND","2.02","ND","ND","ND","ND","ND","0"],
    [48644,"2015-11-23T15:00:00","46.7","ND","ND","ND","ND","1.56","ND","ND","ND","ND","ND","0"],
    [48645,"2015-11-23T16:00:00","23.8","ND","ND","ND","ND","1.76","ND","ND","ND","ND","ND","0"],
    [48646,"2015-11-23T17:00:00","20.8","ND","ND","ND","ND","1.14","ND","ND","ND","ND","ND","0"],
    [48647,"2015-11-23T18:00:00","16.6","ND","ND","ND","ND","1.64","ND","ND","ND","ND","ND","0"],
    [48648,"2015-11-23T19:00:00","16.1","ND","ND","ND","ND","1.52","ND","ND","ND","ND","ND","0"],
    [48649,"2015-11-23T20:00:00","44.5","ND","ND","ND","ND","1.66","ND","ND","ND","ND","ND","0"],
    [48650,"2015-11-23T21:00:00","50.3","ND","ND","ND","ND","3.28","ND","ND","ND","ND","ND","0"],
    [48651,"2015-11-23T22:00:00","33.8","ND","ND","ND","ND","2.70","ND","ND","ND","ND","ND","2.54"],
    [48652,"2015-11-23T23:00:00","14.9","ND","ND","ND","ND","2.02","ND","ND","ND","ND","ND","0.25"],
    [48653,"2015-11-24T00:00:00","13.8","ND","ND","ND","ND","1.99","ND","ND","ND","ND","ND","0"],
    [48654,"2015-11-24T01:00:00","31.9","ND","ND","ND","ND","3.18","ND","ND","ND","ND","ND","0"],
    [48655,"2015-11-24T02:00:00","43.8","ND","ND","ND","ND","5.03","ND","ND","ND","ND","ND","0"],
    [48656,"2015-11-24T03:00:00","43.3","ND","ND","ND","ND","3.71","ND","ND","ND","ND","ND","0"],
    [48657,"2015-11-24T04:00:00","53.6","ND","ND","ND","ND","3.75","ND","ND","ND","ND","ND","0"],
    [48658,"2015-11-24T05:00:00","65.5","ND","ND","ND","ND","3.94","ND","ND","ND","ND","ND","0"],
    [48659,"2015-11-24T06:00:00","43.9","ND","ND","ND","ND","2.79","ND","ND","ND","ND","ND","0"],
    [48660,"2015-11-24T07:00:00","52.4","ND","ND","ND","ND","2.76","ND","ND","ND","ND","ND","0"],
    [48661,"2015-11-24T08:00:00","72.5","ND","ND","ND","ND","2.77","ND","ND","ND","ND","ND","0"],
    [48662,"2015-11-24T09:00:00","56.2","ND","ND","ND","ND","3.08","ND","ND","ND","ND","ND","0"],
    [48663,"2015-11-24T10:00:00","53.8","ND","ND","ND","ND","2.84","ND","ND","ND","ND","ND","0"],
    [48664,"2015-11-24T11:00:00","34.2","ND","ND","ND","ND","1.49","ND","ND","ND","ND","ND","0"],
    [48665,"2015-11-24T12:00:00","35.2","ND","ND","ND","ND","2.36","ND","ND","ND","ND","ND","0"],
    [48666,"2015-11-24T13:00:00","23.1","ND","ND","ND","ND","2.13","ND","ND","ND","ND","ND","0"],
    [48667,"2015-11-24T14:00:00","20.6","ND","ND","ND","ND","1.64","ND","ND","ND","ND","ND","0"],
    [48668,"2015-11-24T15:00:00","21.6","ND","ND","ND","ND","1.53","ND","ND","ND","ND","ND","0"],
    [48669,"2015-11-24T16:00:00","21","ND","ND","ND","ND","0.95","ND","ND","ND","ND","ND","0"],
    [48670,"2015-11-24T17:00:00","9.9","ND","ND","ND","ND","1.64","ND","ND","ND","ND","ND","0"],
    [48671,"2015-11-24T18:00:00","18.7","ND","ND","ND","ND","1.17","ND","ND","ND","ND","ND","0"],
    [48672,"2015-11-24T19:00:00","15.8","ND","ND","ND","ND","1.52","ND","ND","ND","ND","ND","0"],
    [48673,"2015-11-24T20:00:00","30.4","ND","ND","ND","ND","1.92","ND","ND","ND","ND","ND","0"],
    [48674,"2015-11-24T21:00:00","28","ND","ND","ND","ND","1.48","ND","ND","ND","ND","ND","0"],
    [48675,"2015-11-24T22:00:00","18.8","ND","ND","ND","ND","1.37","ND","ND","ND","ND","ND","0"],
    [48676,"2015-11-24T23:00:00","25.5","ND","ND","ND","ND","1.24","ND","ND","ND","ND","ND","0"],
    [48677,"2015-11-25T00:00:00","31.5","ND","ND","ND","ND","2.30","ND","ND","ND","ND","ND","0"],
    [48678,"2015-11-25T01:00:00","52.9","ND","ND","ND","ND","2.41","ND","ND","ND","ND","ND","0"],
    [48679,"2015-11-25T02:00:00","50.3","ND","ND","ND","ND","2.48","ND","ND","ND","ND","ND","0"],
    [48680,"2015-11-25T03:00:00","24.6","ND","ND","ND","ND","2.30","ND","ND","ND","ND","ND","0"],
    [48681,"2015-11-25T04:00:00","27.6","ND","ND","ND","ND","1.84","ND","ND","ND","ND","ND","0"],
    [48682,"2015-11-25T05:00:00","34.9","ND","ND","ND","ND","2.02","ND","ND","ND","ND","ND","0"],
    [48683,"2015-11-25T06:00:00","43.9","ND","ND","ND","ND","2.33","ND","ND","ND","ND","ND","0"],
    [48684,"2015-11-25T07:00:00","44.4","ND","ND","ND","ND","2.69","ND","ND","ND","ND","ND","0"],
    [48685,"2015-11-25T08:00:00","63.3","ND","ND","ND","ND","6.27","ND","ND","ND","ND","ND","0"],
    [48686,"2015-11-25T09:00:00","78.4","ND","ND","ND","ND","5.31","ND","ND","ND","ND","ND","0"],
    [48687,"2015-11-25T10:00:00","56.8","ND","ND","ND","ND","2.93","ND","ND","ND","ND","ND","0"],
    [48688,"2015-11-25T11:00:00","29.1","ND","ND","ND","ND","2.04","ND","ND","ND","ND","ND","0"],
    [48689,"2015-11-25T12:00:00","30.8","ND","ND","ND","ND","1.42","ND","ND","ND","ND","ND","0"],
    [48690,"2015-11-25T13:00:00","40.1","ND","ND","ND","ND","1.44","ND","ND","ND","ND","ND","0"],
    [48691,"2015-11-25T14:00:00","36.3","ND","ND","ND","ND","1.44","ND","ND","ND","ND","ND","0"],
    [48692,"2015-11-25T15:00:00","49.9","ND","ND","ND","ND","1.67","ND","ND","ND","ND","ND","0"],
    [48693,"2015-11-25T16:00:00","33.7","ND","ND","ND","ND","1.48","ND","ND","ND","ND","ND","0"],
    [48694,"2015-11-25T17:00:00","16.9","ND","ND","ND","ND","1.13","ND","ND","ND","ND","ND","0"],
    [48695,"2015-11-25T18:00:00","4.7","ND","ND","ND","ND","1.05","ND","ND","ND","ND","ND","0"],
    [48696,"2015-11-25T19:00:00","16.6","ND","ND","ND","ND","2.08","ND","ND","ND","ND","ND","0"],
    [48697,"2015-11-25T20:00:00","47.3","ND","ND","ND","ND","1.44","ND","ND","ND","ND","ND","0"],
    [48698,"2015-11-25T21:00:00","60.3","ND","ND","ND","ND","3.83","ND","ND","ND","ND","ND","0"],
    [48699,"2015-11-25T22:00:00","57.4","ND","ND","ND","ND","1.48","ND","ND","ND","ND","ND","0"],
    [48700,"2015-11-25T23:00:00","26.2","ND","ND","ND","ND","1.62","ND","ND","ND","ND","ND","0"],
    [48701,"2015-11-26T00:00:00","58.1","ND","ND","ND","ND","2.69","ND","ND","ND","ND","ND","0"],
    [48702,"2015-11-26T01:00:00","69.5","ND","ND","ND","ND","3.32","ND","ND","ND","ND","ND","0"],
    [48703,"2015-11-26T02:00:00","72.7","ND","ND","ND","ND","3.05","ND","ND","ND","ND","ND","0"],
    [48704,"2015-11-26T03:00:00","59.1","ND","ND","ND","ND","3.53","ND","ND","ND","ND","ND","0"],
    [48705,"2015-11-26T04:00:00","42.1","ND","ND","ND","ND","3.33","ND","ND","ND","ND","ND","0"],
    [48706,"2015-11-26T05:00:00","42.5","ND","ND","ND","ND","2.62","ND","ND","ND","ND","ND","0"],
    [48707,"2015-11-26T06:00:00","68.6","ND","ND","ND","ND","3.16","ND","ND","ND","ND","ND","0"],
    [48708,"2015-11-26T07:00:00","52.4","ND","ND","ND","ND","2.70","ND","ND","ND","ND","ND","0"],
    [48709,"2015-11-26T08:00:00","57.6","ND","ND","ND","ND","3.62","ND","ND","ND","ND","ND","0"],
    [48710,"2015-11-26T09:00:00","75.2","ND","ND","ND","ND","3.40","ND","ND","ND","ND","ND","0"],
    [48711,"2015-11-26T10:00:00","64.5","ND","ND","ND","ND","2.44","ND","ND","ND","ND","ND","0"],
    [48712,"2015-11-26T11:00:00","52","ND","ND","ND","ND","2.59","ND","ND","ND","ND","ND","0"],
    [48713,"2015-11-26T12:00:00","55.7","ND","ND","ND","ND","1.37","ND","ND","ND","ND","ND","0"],
    [48714,"2015-11-26T13:00:00","54.1","ND","ND","ND","ND","2.12","ND","ND","ND","ND","ND","0"],
    [48715,"2015-11-26T14:00:00","48.3","ND","ND","ND","ND","1.30","ND","ND","ND","ND","ND","0"],
    [48716,"2015-11-26T15:00:00","56","ND","ND","ND","ND","1.05","ND","ND","ND","ND","ND","0"],
    [48717,"2015-11-26T16:00:00","46.4","ND","ND","ND","ND","1.20","ND","ND","ND","ND","ND","0"],
    [48718,"2015-11-26T17:00:00","13.6","ND","ND","ND","ND","1.48","ND","ND","ND","ND","ND","0"],
    [48719,"2015-11-26T18:00:00","10.7","ND","ND","ND","ND","1.34","ND","ND","ND","ND","ND","0"],
    [48720,"2015-11-26T19:00:00","5.6","ND","ND","ND","ND","1.07","ND","ND","ND","ND","ND","0"],
    [48721,"2015-11-26T20:00:00","40.4","ND","ND","ND","ND","1.87","ND","ND","ND","ND","ND","0"],
    [48722,"2015-11-26T21:00:00","47.5","ND","ND","ND","ND","1.03","ND","ND","ND","ND","ND","0"],
    [48723,"2015-11-26T22:00:00","15.7","ND","ND","ND","ND","2.23","ND","ND","ND","ND","ND","0"],
    [48724,"2015-11-26T23:00:00","44.8","ND","ND","ND","ND","3.42","ND","ND","ND","ND","ND","0"],
    [48725,"2015-11-27T00:00:00","80","ND","ND","ND","ND","3.68","ND","ND","ND","ND","ND","0"],
    [48726,"2015-11-27T01:00:00","64.1","ND","ND","ND","ND","3.67","ND","ND","ND","ND","ND","0"],
    [48727,"2015-11-27T02:00:00","46.7","ND","ND","ND","ND","4.95","ND","ND","ND","ND","ND","0"],
    [48728,"2015-11-27T03:00:00","61","ND","ND","ND","ND","3.21","ND","ND","ND","ND","ND","0"],
    [48729,"2015-11-27T04:00:00","56.6","ND","ND","ND","ND","2.54","ND","ND","ND","ND","ND","0"],
    [48730,"2015-11-27T05:00:00","63.1","ND","ND","ND","ND","3.37","ND","ND","ND","ND","ND","0"],
    [48731,"2015-11-27T06:00:00","53.2","ND","ND","ND","ND","4.04","ND","ND","ND","ND","ND","0"],
    [48732,"2015-11-27T07:00:00","61.4","ND","ND","ND","ND","3.11","ND","ND","ND","ND","ND","0"],
    [48733,"2015-11-27T08:00:00","83.2","ND","ND","ND","ND","4.46","ND","ND","ND","ND","ND","0"],
    [48734,"2015-11-27T09:00:00","103.2","ND","ND","ND","ND","8.10","ND","ND","ND","ND","ND","0"],
    [48735,"2015-11-27T10:00:00","73.1","ND","ND","ND","ND","5.27","ND","ND","ND","ND","ND","0"],
    [48736,"2015-11-27T11:00:00","50.1","ND","ND","ND","ND","1.98","ND","ND","ND","ND","ND","0"],
    [48737,"2015-11-27T12:00:00","28","ND","ND","ND","ND","2.16","ND","ND","ND","ND","ND","0"],
    [48738,"2015-11-27T13:00:00","27.1","ND","ND","ND","ND","1.97","ND","ND","ND","ND","ND","0"],
    [48739,"2015-11-27T14:00:00","42.2","ND","ND","ND","ND","2.23","ND","ND","ND","ND","ND","0"],
    [48740,"2015-11-27T15:00:00","30.9","ND","ND","ND","ND","1.24","ND","ND","ND","ND","ND","0"],
    [48741,"2015-11-27T16:00:00","22.2","ND","ND","ND","ND","0.98","ND","ND","ND","ND","ND","0"],
    [48742,"2015-11-27T17:00:00","21.6","ND","ND","ND","ND","0.99","ND","ND","ND","ND","ND","0"],
    [48743,"2015-11-27T18:00:00","6.7","ND","ND","ND","ND","1.37","ND","ND","ND","ND","ND","0"],
    [48744,"2015-11-27T19:00:00","28","ND","ND","ND","ND","1.37","ND","ND","ND","ND","ND","0"],
    [48745,"2015-11-27T20:00:00","72.1","ND","ND","ND","ND","2.24","ND","ND","ND","ND","ND","0"],
    [48746,"2015-11-27T21:00:00","53.4","ND","ND","ND","ND","2.30","ND","ND","ND","ND","ND","0"],
    [48747,"2015-11-27T22:00:00","48.3","ND","ND","ND","ND","2.34","ND","ND","ND","ND","ND","0"],
    [48748,"2015-11-27T23:00:00","57","ND","ND","ND","ND","4.92","ND","ND","ND","ND","ND","0"],
    [48749,"2015-11-28T00:00:00","56.2","ND","ND","ND","ND","7.16","ND","ND","ND","ND","ND","0"],
    [48750,"2015-11-28T01:00:00","62.9","ND","ND","ND","ND","3.97","ND","ND","ND","ND","ND","0"],
    [48751,"2015-11-28T02:00:00","70.8","ND","ND","ND","ND","3.61","ND","ND","ND","ND","ND","0"],
    [48752,"2015-11-28T03:00:00","49.9","ND","ND","ND","ND","1.99","ND","ND","ND","ND","ND","0"],
    [48753,"2015-11-28T04:00:00","31.8","ND","ND","ND","ND","1.76","ND","ND","ND","ND","ND","0"],
    [48754,"2015-11-28T05:00:00","41.3","ND","ND","ND","ND","2.04","ND","ND","ND","ND","ND","0"],
    [48755,"2015-11-28T06:00:00","47","ND","ND","ND","ND","2.37","ND","ND","ND","ND","ND","0"],
    [48756,"2015-11-28T07:00:00","51","ND","ND","ND","ND","2.33","ND","ND","ND","ND","ND","0"],
    [48757,"2015-11-28T08:00:00","58.3","ND","ND","ND","ND","2.90","ND","ND","ND","ND","ND","0"],
    [48758,"2015-11-28T09:00:00","66.4","ND","ND","ND","ND","3.88","ND","ND","ND","ND","ND","0"],
    [48759,"2015-11-28T10:00:00","64.8","ND","ND","ND","ND","2.22","ND","ND","ND","ND","ND","0"],
    [48760,"2015-11-28T11:00:00","59.8","ND","ND","ND","ND","2.93","ND","ND","ND","ND","ND","0"],
    [48761,"2015-11-28T12:00:00","61.8","ND","ND","ND","ND","3.04","ND","ND","ND","ND","ND","0"],
    [48762,"2015-11-28T13:00:00","69.5","ND","ND","ND","ND","2.79","ND","ND","ND","ND","ND","0"],
    [48763,"2015-11-28T14:00:00","50.7","ND","ND","ND","ND","4.06","ND","ND","ND","ND","ND","0"],
    [48764,"2015-11-28T15:00:00","17.7","ND","ND","ND","ND","1.28","ND","ND","ND","ND","ND","0"],
    [48765,"2015-11-28T16:00:00","2.3","ND","ND","ND","ND","1.88","ND","ND","ND","ND","ND","0"],
    [48766,"2015-11-28T17:00:00","10.3","ND","ND","ND","ND","0.95","ND","ND","ND","ND","ND","0"],
    [48767,"2015-11-28T18:00:00","9.4","ND","ND","ND","ND","0.91","ND","ND","ND","ND","ND","0"],
    [48768,"2015-11-28T19:00:00","4.3","ND","ND","ND","ND","0.89","ND","ND","ND","ND","ND","0"],
    [48769,"2015-11-28T20:00:00","27.2","ND","ND","ND","ND","1.14","ND","ND","ND","ND","ND","0"],
    [48770,"2015-11-28T21:00:00","24.7","ND","ND","ND","ND","1.91","ND","ND","ND","ND","ND","0"],
    [48771,"2015-11-28T22:00:00","52.6","ND","ND","ND","ND","3.85","ND","ND","ND","ND","ND","0"],
    [48772,"2015-11-28T23:00:00","50.8","ND","ND","ND","ND","4.91","ND","ND","ND","ND","ND","0"],
    [48773,"2015-11-29T00:00:00","35","ND","ND","ND","ND","1.48","ND","ND","ND","ND","ND","0"],
    [48774,"2015-11-29T01:00:00","33.5","ND","ND","ND","ND","1.84","ND","ND","ND","ND","ND","0"],
    [48775,"2015-11-29T02:00:00","34.1","ND","ND","ND","ND","1.66","ND","ND","ND","ND","ND","0"],
    [48776,"2015-11-29T03:00:00","34.4","ND","ND","ND","ND","3.65","ND","ND","ND","ND","ND","0"],
    [48777,"2015-11-29T04:00:00","33.2","ND","ND","ND","ND","6.96","ND","ND","ND","ND","ND","0"],
    [48778,"2015-11-29T05:00:00","35.6","ND","ND","ND","ND","3.26","ND","ND","ND","ND","ND","0"],
    [48779,"2015-11-29T06:00:00","18","ND","ND","ND","ND","2.06","ND","ND","ND","ND","ND","0"],
    [48780,"2015-11-29T07:00:00","33.4","ND","ND","ND","ND","4.31","ND","ND","ND","ND","ND","0"],
    [48781,"2015-11-29T08:00:00","49.5","ND","ND","ND","ND","3.16","ND","ND","ND","ND","ND","0"],
    [48782,"2015-11-29T09:00:00","50.9","ND","ND","ND","ND","2.02","ND","ND","ND","ND","ND","0"],
    [48783,"2015-11-29T10:00:00","40.3","ND","ND","ND","ND","1.30","ND","ND","ND","ND","ND","0"],
    [48784,"2015-11-29T11:00:00","37.5","ND","ND","ND","ND","1.31","ND","ND","ND","ND","ND","0"],
    [48785,"2015-11-29T12:00:00","39.7","ND","ND","ND","ND","1.39","ND","ND","ND","ND","ND","0"],
    [48786,"2015-11-29T13:00:00","31","ND","ND","ND","ND","1.32","ND","ND","ND","ND","ND","0"],
    [48787,"2015-11-29T14:00:00","32.9","ND","ND","ND","ND","1.27","ND","ND","ND","ND","ND","0"],
    [48788,"2015-11-29T15:00:00","30.1","ND","ND","ND","ND","1.76","ND","ND","ND","ND","ND","0"],
    [48789,"2015-11-29T16:00:00","28.9","ND","ND","ND","ND","1.13","ND","ND","ND","ND","ND","0"],
    [48790,"2015-11-29T17:00:00","24.5","ND","ND","ND","ND","1.06","ND","ND","ND","ND","ND","0"],
    [48791,"2015-11-29T18:00:00","18.2","ND","ND","ND","ND","1.78","ND","ND","ND","ND","ND","0"],
    [48792,"2015-11-29T19:00:00","16.2","ND","ND","ND","ND","1.03","ND","ND","ND","ND","ND","0"],
    [48793,"2015-11-29T20:00:00","24.8","ND","ND","ND","ND","1.60","ND","ND","ND","ND","ND","0"],
    [48794,"2015-11-29T21:00:00","39","ND","ND","ND","ND","3.97","ND","ND","ND","ND","ND","0"],
    [48795,"2015-11-29T22:00:00","41","ND","ND","ND","ND","3.39","ND","ND","ND","ND","ND","0"],
    [48796,"2015-11-29T23:00:00","38.5","ND","ND","ND","ND","2.22","ND","ND","ND","ND","ND","0"],
    [48797,"2015-11-30T00:00:00","16.9","ND","ND","ND","ND","1.35","ND","ND","ND","ND","ND","0"],
    [48798,"2015-11-30T01:00:00","4","ND","ND","ND","ND","2.97","ND","ND","ND","ND","ND","0"],
    [48799,"2015-11-30T02:00:00","46.8","ND","ND","ND","ND","4.42","ND","ND","ND","ND","ND","0"],
    [48800,"2015-11-30T03:00:00","34.8","ND","ND","ND","ND","3.60","ND","ND","ND","ND","ND","0"],
    [48801,"2015-11-30T04:00:00","38","ND","ND","ND","ND","3.69","ND","ND","ND","ND","ND","0"],
    [48802,"2015-11-30T05:00:00","36","ND","ND","ND","ND","1.73","ND","ND","ND","ND","ND","0"],
    [48803,"2015-11-30T06:00:00","36.3","ND","ND","ND","ND","2.09","ND","ND","ND","ND","ND","0"],
    [48804,"2015-11-30T07:00:00","57.7","ND","ND","ND","ND","3.48","ND","ND","ND","ND","ND","0"],
    [48805,"2015-11-30T08:00:00","76","ND","ND","ND","ND","2.83","ND","ND","ND","ND","ND","0"],
    [48806,"2015-11-30T09:00:00","74.6","ND","ND","ND","ND","1.58","ND","ND","ND","ND","ND","0"],
    [48807,"2015-11-30T10:00:00","53","ND","ND","ND","ND","1.37","ND","ND","ND","ND","ND","0"],
    [48808,"2015-11-30T11:00:00","34","ND","ND","ND","ND","1.52","ND","ND","ND","ND","ND","0"],
    [48809,"2015-11-30T12:00:00","28.3","ND","ND","ND","ND","1.44","ND","ND","ND","ND","ND","0"],
    [48810,"2015-11-30T13:00:00","38","ND","ND","ND","ND","0.89","ND","ND","ND","ND","ND","0"],
    [48811,"2015-11-30T14:00:00","39.1","ND","ND","ND","ND","1.64","ND","ND","ND","ND","ND","0"],
    [48812,"2015-11-30T15:00:00","28.1","ND","ND","ND","ND","1.49","ND","ND","ND","ND","ND","0"],
    [48813,"2015-11-30T16:00:00","11.7","ND","ND","ND","ND","1.05","ND","ND","ND","ND","ND","0"],
    [48814,"2015-11-30T17:00:00","7.7","ND","ND","ND","ND","1.02","ND","ND","ND","ND","ND","0"],
    [48815,"2015-11-30T18:00:00","31.8","ND","ND","ND","ND","0.99","ND","ND","ND","ND","ND","0"],
    [48816,"2015-11-30T19:00:00","28.4","ND","ND","ND","ND","1.24","ND","ND","ND","ND","ND","0"],
    [48817,"2015-11-30T20:00:00","43.1","ND","ND","ND","ND","0.99","ND","ND","ND","ND","ND","0"],
    [48818,"2015-11-30T21:00:00","44","ND","ND","ND","ND","2.76","ND","ND","ND","ND","ND","0"],
    [48819,"2015-11-30T22:00:00","39","ND","ND","ND","ND","3.16","ND","ND","ND","ND","ND","0"],
    [48820,"2015-11-30T23:00:00","35.2","ND","ND","ND","ND","2.15","ND","ND","ND","ND","ND","0"],
    [48821,"2015-12-01T00:00:00","14.4","ND","ND","ND","ND","3.64","ND","ND","ND","ND","ND","0"],
    [48822,"2015-12-01T01:00:00","10.4","ND","ND","ND","ND","5.10","ND","ND","ND","ND","ND","0"],
    [48823,"2015-12-01T02:00:00","34","ND","ND","ND","ND","2.06","ND","ND","ND","ND","ND","0"],
    [48824,"2015-12-01T03:00:00","24.2","ND","ND","ND","ND","1.97","ND","ND","ND","ND","ND","0"],
    [48825,"2015-12-01T04:00:00","38.2","ND","ND","ND","ND","2.54","ND","ND","ND","ND","ND","0"],
    [48826,"2015-12-01T05:00:00","33","ND","ND","ND","ND","2.37","ND","ND","ND","ND","ND","0"],
    [48827,"2015-12-01T06:00:00","35.8","ND","ND","ND","ND","2.73","ND","ND","ND","ND","ND","0"],
    [48828,"2015-12-01T07:00:00","68.8","ND","ND","ND","ND","2.82","ND","ND","ND","ND","ND","0"],
    [48829,"2015-12-01T08:00:00","90.6","ND","ND","ND","ND","2.52","ND","ND","ND","ND","ND","0"],
    [48830,"2015-12-01T09:00:00","70.3","ND","ND","ND","ND","3.22","ND","ND","ND","ND","ND","0"],
    [48831,"2015-12-01T10:00:00","62.1","ND","ND","ND","ND","2.15","ND","ND","ND","ND","ND","0"],
    [48832,"2015-12-01T11:00:00","51","ND","ND","ND","ND","2.22","ND","ND","ND","ND","ND","0"],
    [48833,"2015-12-01T12:00:00","35.3","ND","ND","ND","ND","2.24","ND","ND","ND","ND","ND","0"],
    [48834,"2015-12-01T13:00:00","29.9","ND","ND","ND","ND","1.58","ND","ND","ND","ND","ND","0"],
    [48835,"2015-12-01T14:00:00","22.2","ND","ND","ND","ND","0.77","ND","ND","ND","ND","ND","0"],
    [48836,"2015-12-01T15:00:00","17.1","ND","ND","ND","ND","1.13","ND","ND","ND","ND","ND","0"],
    [48837,"2015-12-01T16:00:00","23.5","ND","ND","ND","ND","0.68","ND","ND","ND","ND","ND","0"],
    [48838,"2015-12-01T17:00:00","21.4","ND","ND","ND","ND","1.10","ND","ND","ND","ND","ND","0"],
    [48839,"2015-12-01T18:00:00","26.1","ND","ND","ND","ND","1.62","ND","ND","ND","ND","ND","0"],
    [48840,"2015-12-01T19:00:00","27.5","ND","ND","ND","ND","1.77","ND","ND","ND","ND","ND","0"],
    [48841,"2015-12-01T20:00:00","16.6","ND","ND","ND","ND","1.55","ND","ND","ND","ND","ND","0"],
    [48842,"2015-12-01T21:00:00","46.1","ND","ND","ND","ND","3.51","ND","ND","ND","ND","ND","0"],
    [48843,"2015-12-01T22:00:00","59.8","ND","ND","ND","ND","1.63","ND","ND","ND","ND","ND","0"],
    [48844,"2015-12-01T23:00:00","51.4","ND","ND","ND","ND","3.93","ND","ND","ND","ND","ND","0"],
    [48845,"2015-12-02T00:00:00","44.4","ND","ND","ND","ND","2.66","ND","ND","ND","ND","ND","0"],
    [48846,"2015-12-02T01:00:00","35.3","ND","ND","ND","ND","1.92","ND","ND","ND","ND","ND","0"],
    [48847,"2015-12-02T02:00:00","42.1","ND","ND","ND","ND","1.99","ND","ND","ND","ND","ND","0"],
    [48848,"2015-12-02T03:00:00","51.8","ND","ND","ND","ND","3.00","ND","ND","ND","ND","ND","0"],
    [48849,"2015-12-02T04:00:00","41.4","ND","ND","ND","ND","2.84","ND","ND","ND","ND","ND","0"],
    [48850,"2015-12-02T05:00:00","51.7","ND","ND","ND","ND","3.07","ND","ND","ND","ND","ND","0"],
    [48851,"2015-12-02T06:00:00","51.6","ND","ND","ND","ND","3.97","ND","ND","ND","ND","ND","0"],
    [48852,"2015-12-02T07:00:00","52.1","ND","ND","ND","ND","2.69","ND","ND","ND","ND","ND","0"],
    [48853,"2015-12-02T08:00:00","56.1","ND","ND","ND","ND","2.80","ND","ND","ND","ND","ND","0"],
    [48854,"2015-12-02T09:00:00","42.3","ND","ND","ND","ND","1.52","ND","ND","ND","ND","ND","0"],
    [48855,"2015-12-02T10:00:00","35.7","ND","ND","ND","ND","1.28","ND","ND","ND","ND","ND","0"],
    [48856,"2015-12-02T11:00:00","51","ND","ND","ND","ND","1.23","ND","ND","ND","ND","ND","0"],
    [48857,"2015-12-02T12:00:00","55.8","ND","ND","ND","ND","1.66","ND","ND","ND","ND","ND","0"],
    [48858,"2015-12-02T13:00:00","52.1","ND","ND","ND","ND","1.07","ND","ND","ND","ND","ND","0"],
    [48859,"2015-12-02T14:00:00","17.9","ND","ND","ND","ND","0.88","ND","ND","ND","ND","ND","0"],
    [48860,"2015-12-02T15:00:00","0.5","ND","ND","ND","ND","1.46","ND","ND","ND","ND","ND","0"],
    [48861,"2015-12-02T16:00:00","60.6","ND","ND","ND","ND","0.91","ND","ND","ND","ND","ND","0"],
    [48862,"2015-12-02T17:00:00","53.3","ND","ND","ND","ND","1.55","ND","ND","ND","ND","ND","0"],
    [48863,"2015-12-02T18:00:00","63.3","ND","ND","ND","ND","1.24","ND","ND","ND","ND","ND","0"],
    [48864,"2015-12-02T19:00:00","67.8","ND","ND","ND","ND","1.48","ND","ND","ND","ND","ND","0"],
    [48865,"2015-12-02T20:00:00","60.6","ND","ND","ND","ND","1.49","ND","ND","ND","ND","ND","0"],
    [48866,"2015-12-02T21:00:00","54","ND","ND","ND","ND","2.76","ND","ND","ND","ND","ND","0"],
    [48867,"2015-12-02T22:00:00","55.6","ND","ND","ND","ND","3.97","ND","ND","ND","ND","ND","0"],
    [48868,"2015-12-02T23:00:00","57.1","ND","ND","ND","ND","2.26","ND","ND","ND","ND","ND","0"],
    [48869,"2015-12-03T00:00:00","49.4","ND","ND","ND","ND","3.28","ND","ND","ND","ND","ND","0"],
    [48870,"2015-12-03T01:00:00","50.3","ND","ND","ND","ND","4.22","ND","ND","ND","ND","ND","0"],
    [48871,"2015-12-03T02:00:00","52.6","ND","ND","ND","ND","2.51","ND","ND","ND","ND","ND","0"],
    [48872,"2015-12-03T03:00:00","44.9","ND","ND","ND","ND","2.12","ND","ND","ND","ND","ND","0"],
    [48873,"2015-12-03T04:00:00","66.2","ND","ND","ND","ND","3.36","ND","ND","ND","ND","ND","0"],
    [48874,"2015-12-03T05:00:00","56.7","ND","ND","ND","ND","2.30","ND","ND","ND","ND","ND","0"],
    [48875,"2015-12-03T06:00:00","42.3","ND","ND","ND","ND","2.96","ND","ND","ND","ND","ND","0"],
    [48876,"2015-12-03T07:00:00","96","ND","ND","ND","ND","4.01","ND","ND","ND","ND","ND","0"],
    [48877,"2015-12-03T08:00:00","133.2","ND","ND","ND","ND","5.97","ND","ND","ND","ND","ND","0"],
    [48878,"2015-12-03T09:00:00","140.7","ND","ND","ND","ND","8.96","ND","ND","ND","ND","ND","0"],
    [48879,"2015-12-03T10:00:00","101.6","ND","ND","ND","ND","7.47","ND","ND","ND","ND","ND","0"],
    [48880,"2015-12-03T11:00:00","82.5","ND","ND","ND","ND","3.11","ND","ND","ND","ND","ND","0"],
    [48881,"2015-12-03T12:00:00","61.5","ND","ND","ND","ND","1.90","ND","ND","ND","ND","ND","0"],
    [48882,"2015-12-03T13:00:00","48","ND","ND","ND","ND","1.09","ND","ND","ND","ND","ND","0"],
    [48883,"2015-12-03T14:00:00","40.1","ND","ND","ND","ND","2.62","ND","ND","ND","ND","ND","0"],
    [48884,"2015-12-03T15:00:00","38.8","ND","ND","ND","ND","0.92","ND","ND","ND","ND","ND","0"],
    [48885,"2015-12-03T16:00:00","31.4","ND","ND","ND","ND","1.59","ND","ND","ND","ND","ND","0"],
    [48886,"2015-12-03T17:00:00","35.8","ND","ND","ND","ND","1.30","ND","ND","ND","ND","ND","0"],
    [48887,"2015-12-03T18:00:00","40.7","ND","ND","ND","ND","2.43","ND","ND","ND","ND","ND","0"],
    [48888,"2015-12-03T19:00:00","46","ND","ND","ND","ND","1.76","ND","ND","ND","ND","ND","0"],
    [48889,"2015-12-03T20:00:00","42.3","ND","ND","ND","ND","1.58","ND","ND","ND","ND","ND","0"],
    [48890,"2015-12-03T21:00:00","53.3","ND","ND","ND","ND","2.56","ND","ND","ND","ND","ND","0"],
    [48891,"2015-12-03T22:00:00","53.1","ND","ND","ND","ND","2.16","ND","ND","ND","ND","ND","0"],
    [48892,"2015-12-03T23:00:00","55.8","ND","ND","ND","ND","3.14","ND","ND","ND","ND","ND","0"],
    [48893,"2015-12-04T00:00:00","61.7","ND","ND","ND","ND","4.71","ND","ND","ND","ND","ND","0"],
    [48894,"2015-12-04T01:00:00","59.1","ND","ND","ND","ND","4.99","ND","ND","ND","ND","ND","0"],
    [48895,"2015-12-04T02:00:00","67.4","ND","ND","ND","ND","3.65","ND","ND","ND","ND","ND","0"],
    [48896,"2015-12-04T03:00:00","76.5","ND","ND","ND","ND","2.56","ND","ND","ND","ND","ND","0"],
    [48897,"2015-12-04T04:00:00","65.2","ND","ND","ND","ND","2.45","ND","ND","ND","ND","ND","0"],
    [48898,"2015-12-04T05:00:00","56.6","ND","ND","ND","ND","1.78","ND","ND","ND","ND","ND","0"],
    [48899,"2015-12-04T06:00:00","57.9","ND","ND","ND","ND","1.97","ND","ND","ND","ND","ND","0"],
    [48900,"2015-12-04T07:00:00","63.7","ND","ND","ND","ND","4.81","ND","ND","ND","ND","ND","0"],
    [48901,"2015-12-04T08:00:00","89.9","ND","ND","ND","ND","3.82","ND","ND","ND","ND","ND","0"],
    [48902,"2015-12-04T09:00:00","110.5","ND","ND","ND","ND","2.72","ND","ND","ND","ND","ND","0"],
    [48903,"2015-12-04T10:00:00","96.7","ND","ND","ND","ND","2.82","ND","ND","ND","ND","ND","0"],
    [48904,"2015-12-04T11:00:00","48","ND","ND","ND","ND","1.97","ND","ND","ND","ND","ND","0"],
    [48905,"2015-12-04T12:00:00","47.4","ND","ND","ND","ND","1.81","ND","ND","ND","ND","ND","0"],
    [48906,"2015-12-04T13:00:00","42.6","ND","ND","ND","ND","2.26","ND","ND","ND","ND","ND","0"],
    [48907,"2015-12-04T14:00:00","37.2","ND","ND","ND","ND","2.08","ND","ND","ND","ND","ND","0"],
    [48908,"2015-12-04T15:00:00","27.2","ND","ND","ND","ND","2.04","ND","ND","ND","ND","ND","0"],
    [48909,"2015-12-04T16:00:00","28.2","ND","ND","ND","ND","1.78","ND","ND","ND","ND","ND","0"],
    [48910,"2015-12-04T17:00:00","28.5","ND","ND","ND","ND","1.97","ND","ND","ND","ND","ND","0"],
    [48911,"2015-12-04T18:00:00","12.1","ND","ND","ND","ND","1.30","ND","ND","ND","ND","ND","0"],
    [48912,"2015-12-04T19:00:00","25.4","ND","ND","ND","ND","1.84","ND","ND","ND","ND","ND","0"],
    [48913,"2015-12-04T20:00:00","47.3","ND","ND","ND","ND","2.27","ND","ND","ND","ND","ND","0"],
    [48914,"2015-12-04T21:00:00","65.2","ND","ND","ND","ND","4.08","ND","ND","ND","ND","ND","0"],
    [48915,"2015-12-04T22:00:00","90.5","ND","ND","ND","ND","3.64","ND","ND","ND","ND","ND","0"],
    [48916,"2015-12-04T23:00:00","97.9","ND","ND","ND","ND","3.93","ND","ND","ND","ND","ND","0"],
    [48917,"2015-12-05T00:00:00","75.8","ND","ND","ND","ND","3.29","ND","ND","ND","ND","ND","0"],
    [48918,"2015-12-05T01:00:00","69.7","ND","ND","ND","ND","2.43","ND","ND","ND","ND","ND","0"],
    [48919,"2015-12-05T02:00:00","70.8","ND","ND","ND","ND","2.52","ND","ND","ND","ND","ND","0"],
    [48920,"2015-12-05T03:00:00","77.4","ND","ND","ND","ND","3.64","ND","ND","ND","ND","ND","0"],
    [48921,"2015-12-05T04:00:00","76.4","ND","ND","ND","ND","6.04","ND","ND","ND","ND","ND","0"],
    [48922,"2015-12-05T05:00:00","80","ND","ND","ND","ND","3.36","ND","ND","ND","ND","ND","0"],
    [48923,"2015-12-05T06:00:00","55.6","ND","ND","ND","ND","2.04","ND","ND","ND","ND","ND","0"],
    [48924,"2015-12-05T07:00:00","52.5","ND","ND","ND","ND","3.51","ND","ND","ND","ND","ND","0"],
    [48925,"2015-12-05T08:00:00","80.2","ND","ND","ND","ND","3.47","ND","ND","ND","ND","ND","0"],
    [48926,"2015-12-05T09:00:00","73.7","ND","ND","ND","ND","2.87","ND","ND","ND","ND","ND","0"],
    [48927,"2015-12-05T10:00:00","76.3","ND","ND","ND","ND","2.54","ND","ND","ND","ND","ND","0"],
    [48928,"2015-12-05T11:00:00","65.3","ND","ND","ND","ND","1.28","ND","ND","ND","ND","ND","0"],
    [48929,"2015-12-05T12:00:00","57","ND","ND","ND","ND","1.62","ND","ND","ND","ND","ND","0"],
    [48930,"2015-12-05T13:00:00","50.8","ND","ND","ND","ND","1.49","ND","ND","ND","ND","ND","0"],
    [48931,"2015-12-05T14:00:00","49.7","ND","ND","ND","ND","1.46","ND","ND","ND","ND","ND","0"],
    [48932,"2015-12-05T15:00:00","31.5","ND","ND","ND","ND","1.28","ND","ND","ND","ND","ND","0"],
    [48933,"2015-12-05T16:00:00","15.2","ND","ND","ND","ND","0.79","ND","ND","ND","ND","ND","0"],
    [48934,"2015-12-05T17:00:00","11.7","ND","ND","ND","ND","0.79","ND","ND","ND","ND","ND","0"],
    [48935,"2015-12-05T18:00:00","8.6","ND","ND","ND","ND","1.51","ND","ND","ND","ND","ND","0"],
    [48936,"2015-12-05T19:00:00","2.4","ND","ND","ND","ND","1.49","ND","ND","ND","ND","ND","0"],
    [48937,"2015-12-05T20:00:00","56","ND","ND","ND","ND","1.16","ND","ND","ND","ND","ND","0"],
    [48938,"2015-12-05T21:00:00","58.5","ND","ND","ND","ND","2.36","ND","ND","ND","ND","ND","0"],
    [48939,"2015-12-05T22:00:00","21.9","ND","ND","ND","ND","9.46","ND","ND","ND","ND","ND","0"],
    [48940,"2015-12-05T23:00:00","69.8","ND","ND","ND","ND","4.10","ND","ND","ND","ND","ND","0"],
    [48941,"2015-12-06T00:00:00","41.4","ND","ND","ND","ND","3.15","ND","ND","ND","ND","ND","0"],
    [48942,"2015-12-06T01:00:00","50.7","ND","ND","ND","ND","2.63","ND","ND","ND","ND","ND","0"],
    [48943,"2015-12-06T02:00:00","47.2","ND","ND","ND","ND","2.73","ND","ND","ND","ND","ND","0"],
    [48944,"2015-12-06T03:00:00","40.5","ND","ND","ND","ND","2.75","ND","ND","ND","ND","ND","0"],
    [48945,"2015-12-06T04:00:00","87.3","ND","ND","ND","ND","5.00","ND","ND","ND","ND","ND","0"],
    [48946,"2015-12-06T05:00:00","126.4","ND","ND","ND","ND","4.18","ND","ND","ND","ND","ND","0"],
    [48947,"2015-12-06T06:00:00","46","ND","ND","ND","ND","3.68","ND","ND","ND","ND","ND","0"],
    [48948,"2015-12-06T07:00:00","72","ND","ND","ND","ND","3.75","ND","ND","ND","ND","ND","0"],
    [48949,"2015-12-06T08:00:00","35","ND","ND","ND","ND","4.35","ND","ND","ND","ND","ND","0"],
    [48950,"2015-12-06T09:00:00","73.5","ND","ND","ND","ND","1.97","ND","ND","ND","ND","ND","0"],
    [48951,"2015-12-06T10:00:00","45.3","ND","ND","ND","ND","1.45","ND","ND","ND","ND","ND","0"],
    [48952,"2015-12-06T11:00:00","30.1","ND","ND","ND","ND","1.41","ND","ND","ND","ND","ND","0"],
    [48953,"2015-12-06T12:00:00","20.8","ND","ND","ND","ND","1.44","ND","ND","ND","ND","ND","0"],
    [48954,"2015-12-06T13:00:00","34.6","ND","ND","ND","ND","0.59","ND","ND","ND","ND","ND","0"],
    [48955,"2015-12-06T14:00:00","38.9","ND","ND","ND","ND","1.00","ND","ND","ND","ND","ND","0"],
    [48956,"2015-12-06T15:00:00","39.6","ND","ND","ND","ND","1.28","ND","ND","ND","ND","ND","0"],
    [48957,"2015-12-06T16:00:00","36.1","ND","ND","ND","ND","0.86","ND","ND","ND","ND","ND","0"],
    [48958,"2015-12-06T17:00:00","24","ND","ND","ND","ND","0.63","ND","ND","ND","ND","ND","0"],
    [48959,"2015-12-06T18:00:00","10.7","ND","ND","ND","ND","1.32","ND","ND","ND","ND","ND","0"],
    [48960,"2015-12-06T19:00:00","23.3","ND","ND","ND","ND","1.62","ND","ND","ND","ND","ND","0"],
    [48961,"2015-12-06T20:00:00","23","ND","ND","ND","ND","2.04","ND","ND","ND","ND","ND","0"],
    [48962,"2015-12-06T21:00:00","36.8","ND","ND","ND","ND","2.09","ND","ND","ND","ND","ND","0"],
    [48963,"2015-12-06T22:00:00","31.6","ND","ND","ND","ND","3.18","ND","ND","ND","ND","ND","0"],
    [48964,"2015-12-06T23:00:00","31.9","ND","ND","ND","ND","4.53","ND","ND","ND","ND","ND","0"],
    [48965,"2015-12-07T00:00:00","16.1","ND","ND","ND","ND","2.61","ND","ND","ND","ND","ND","0"],
    [48966,"2015-12-07T01:00:00","28.4","ND","ND","ND","ND","4.56","ND","ND","ND","ND","ND","0"],
    [48967,"2015-12-07T02:00:00","31.5","ND","ND","ND","ND","3.36","ND","ND","ND","ND","ND","0"],
    [48968,"2015-12-07T03:00:00","29.8","ND","ND","ND","ND","4.27","ND","ND","ND","ND","ND","0"],
    [48969,"2015-12-07T04:00:00","26","ND","ND","ND","ND","2.59","ND","ND","ND","ND","ND","0"],
    [48970,"2015-12-07T05:00:00","17.5","ND","ND","ND","ND","2.87","ND","ND","ND","ND","ND","0"],
    [48971,"2015-12-07T06:00:00","61.2","ND","ND","ND","ND","5.87","ND","ND","ND","ND","ND","0"],
    [48972,"2015-12-07T07:00:00","52.3","ND","ND","ND","ND","4.50","ND","ND","ND","ND","ND","0"],
    [48973,"2015-12-07T08:00:00","69.8","ND","ND","ND","ND","4.50","ND","ND","ND","ND","ND","0"],
    [48974,"2015-12-07T09:00:00","61.8","ND","ND","ND","ND","4.32","ND","ND","ND","ND","ND","0"],
    [48975,"2015-12-07T10:00:00","84.2","ND","ND","ND","ND","2.37","ND","ND","ND","ND","ND","0"],
    [48976,"2015-12-07T11:00:00","47","ND","ND","ND","ND","1.41","ND","ND","ND","ND","ND","0"],
    [48977,"2015-12-07T12:00:00","37.4","ND","ND","ND","ND","1.38","ND","ND","ND","ND","ND","0"],
    [48978,"2015-12-07T13:00:00","33.6","ND","ND","ND","ND","1.17","ND","ND","ND","ND","ND","0"],
    [48979,"2015-12-07T14:00:00","28.5","ND","ND","ND","ND","1.24","ND","ND","ND","ND","ND","0"],
    [48980,"2015-12-07T15:00:00","38.4","ND","ND","ND","ND","1.46","ND","ND","ND","ND","ND","0"],
    [48981,"2015-12-07T16:00:00","47.6","ND","ND","ND","ND","1.05","ND","ND","ND","ND","ND","0"],
    [48982,"2015-12-07T17:00:00","28.2","ND","ND","ND","ND","1.03","ND","ND","ND","ND","ND","0"],
    [48983,"2015-12-07T18:00:00","9.4","ND","ND","ND","ND","0.88","ND","ND","ND","ND","ND","0"],
    [48984,"2015-12-07T19:00:00","49.6","ND","ND","ND","ND","0.99","ND","ND","ND","ND","ND","0"],
    [48985,"2015-12-07T20:00:00","36.5","ND","ND","ND","ND","2.16","ND","ND","ND","ND","ND","0"],
    [48986,"2015-12-07T21:00:00","52.1","ND","ND","ND","ND","1.52","ND","ND","ND","ND","ND","0"],
    [48987,"2015-12-07T22:00:00","64.1","ND","ND","ND","ND","3.68","ND","ND","ND","ND","ND","0"],
    [48988,"2015-12-07T23:00:00","97.9","ND","ND","ND","ND","4.67","ND","ND","ND","ND","ND","0"],
    [48989,"2015-12-08T00:00:00","114.8","ND","ND","ND","ND","4.47","ND","ND","ND","ND","ND","0"],
    [48990,"2015-12-08T01:00:00","94.5","ND","ND","ND","ND","3.47","ND","ND","ND","ND","ND","0"],
    [48991,"2015-12-08T02:00:00","64.5","ND","ND","ND","ND","2.98","ND","ND","ND","ND","ND","0"],
    [48992,"2015-12-08T03:00:00","42.6","ND","ND","ND","ND","3.04","ND","ND","ND","ND","ND","0"],
    [48993,"2015-12-08T04:00:00","35.4","ND","ND","ND","ND","2.90","ND","ND","ND","ND","ND","0"],
    [48994,"2015-12-08T05:00:00","34.2","ND","ND","ND","ND","2.73","ND","ND","ND","ND","ND","0"],
    [48995,"2015-12-08T06:00:00","67.2","ND","ND","ND","ND","4.52","ND","ND","ND","ND","ND","0"],
    [48996,"2015-12-08T07:00:00","48.1","ND","ND","ND","ND","3.74","ND","ND","ND","ND","ND","0"],
    [48997,"2015-12-08T08:00:00","53.9","ND","ND","ND","ND","2.58","ND","ND","ND","ND","ND","0"],
    [48998,"2015-12-08T09:00:00","47.1","ND","ND","ND","ND","2.10","ND","ND","ND","ND","ND","0"],
    [48999,"2015-12-08T10:00:00","40","ND","ND","ND","ND","1.67","ND","ND","ND","ND","ND","0"],
    [49000,"2015-12-08T11:00:00","35.9","ND","ND","ND","ND","1.21","ND","ND","ND","ND","ND","0"],
    [49001,"2015-12-08T12:00:00","59.3","ND","ND","ND","ND","1.74","ND","ND","ND","ND","ND","0"],
    [49002,"2015-12-08T13:00:00","40","ND","ND","ND","ND","1.35","ND","ND","ND","ND","ND","0"],
    [49003,"2015-12-08T14:00:00","35.9","ND","ND","ND","ND","0.91","ND","ND","ND","ND","ND","0"],
    [49004,"2015-12-08T15:00:00","31.1","ND","ND","ND","ND","1.23","ND","ND","ND","ND","ND","0"],
    [49005,"2015-12-08T16:00:00","18","ND","ND","ND","ND","0.86","ND","ND","ND","ND","ND","0"],
    [49006,"2015-12-08T17:00:00","14.6","ND","ND","ND","ND","0.95","ND","ND","ND","ND","ND","0"],
    [49007,"2015-12-08T18:00:00","0.3","ND","ND","ND","ND","0.93","ND","ND","ND","ND","ND","0"],
    [49008,"2015-12-08T19:00:00","13.8","ND","ND","ND","ND","1.52","ND","ND","ND","ND","ND","0"],
    [49009,"2015-12-08T20:00:00","38","ND","ND","ND","ND","0.81","ND","ND","ND","ND","ND","0"],
    [49010,"2015-12-08T21:00:00","44","ND","ND","ND","ND","2.90","ND","ND","ND","ND","ND","0"],
    [49011,"2015-12-08T22:00:00","46.8","ND","ND","ND","ND","2.83","ND","ND","ND","ND","ND","0"],
    [49012,"2015-12-08T23:00:00","16.6","ND","ND","ND","ND","1.88","ND","ND","ND","ND","ND","0"],
    [49013,"2015-12-09T00:00:00","38.4","ND","ND","ND","ND","3.19","ND","ND","ND","ND","ND","0"],
    [49014,"2015-12-09T01:00:00","67","ND","ND","ND","ND","2.22","ND","ND","ND","ND","ND","0"],
    [49015,"2015-12-09T02:00:00","25.5","ND","ND","ND","ND","2.50","ND","ND","ND","ND","ND","0"],
    [49016,"2015-12-09T03:00:00","33.6","ND","ND","ND","ND","2.93","ND","ND","ND","ND","ND","0"],
    [49017,"2015-12-09T04:00:00","73","ND","ND","ND","ND","2.55","ND","ND","ND","ND","ND","0"],
    [49018,"2015-12-09T05:00:00","113.1","ND","ND","ND","ND","2.38","ND","ND","ND","ND","ND","0"],
    [49019,"2015-12-09T06:00:00","55.1","ND","ND","ND","ND","2.40","ND","ND","ND","ND","ND","0"],
    [49020,"2015-12-09T07:00:00","59.6","ND","ND","ND","ND","3.19","ND","ND","ND","ND","ND","0"],
    [49021,"2015-12-09T08:00:00","74.5","ND","ND","ND","ND","3.61","ND","ND","ND","ND","ND","0"],
    [49022,"2015-12-09T09:00:00","59.5","ND","ND","ND","ND","3.92","ND","ND","ND","ND","ND","0"],
    [49023,"2015-12-09T10:00:00","45.1","ND","ND","ND","ND","1.98","ND","ND","ND","ND","ND","0"],
    [49024,"2015-12-09T11:00:00","48.1","ND","ND","ND","ND","1.41","ND","ND","ND","ND","ND","0"],
    [49025,"2015-12-09T12:00:00","28.8","ND","ND","ND","ND","1.67","ND","ND","ND","ND","ND","0"],
    [49026,"2015-12-09T13:00:00","55.6","ND","ND","ND","ND","1.10","ND","ND","ND","ND","ND","0"],
    [49027,"2015-12-09T14:00:00","46.6","ND","ND","ND","ND","1.53","ND","ND","ND","ND","ND","0"],
    [49028,"2015-12-09T15:00:00","53.1","ND","ND","ND","ND","1.69","ND","ND","ND","ND","ND","0"],
    [49029,"2015-12-09T16:00:00","46.8","ND","ND","ND","ND","1.13","ND","ND","ND","ND","ND","0"],
    [49030,"2015-12-09T17:00:00","34.6","ND","ND","ND","ND","1.00","ND","ND","ND","ND","ND","0"],
    [49031,"2015-12-09T18:00:00","23.6","ND","ND","ND","ND","0.82","ND","ND","ND","ND","ND","0"],
    [49032,"2015-12-09T19:00:00","5.4","ND","ND","ND","ND","1.32","ND","ND","ND","ND","ND","0"],
    [49033,"2015-12-09T20:00:00","50.4","ND","ND","ND","ND","1.92","ND","ND","ND","ND","ND","0"],
    [49034,"2015-12-09T21:00:00","32.8","ND","ND","ND","ND","1.83","ND","ND","ND","ND","ND","0"],
    [49035,"2015-12-09T22:00:00","33.5","ND","ND","ND","ND","1.74","ND","ND","ND","ND","ND","0"],
    [49036,"2015-12-09T23:00:00","35.2","ND","ND","ND","ND","2.80","ND","ND","ND","ND","ND","0"],
    [49037,"2015-12-10T00:00:00","18.2","ND","ND","ND","ND","3.21","ND","ND","ND","ND","ND","0"],
    [49038,"2015-12-10T01:00:00","58.4","ND","ND","ND","ND","4.13","ND","ND","ND","ND","ND","0"],
    [49039,"2015-12-10T02:00:00","65.5","ND","ND","ND","ND","2.26","ND","ND","ND","ND","ND","0"],
    [49040,"2015-12-10T03:00:00","85.4","ND","ND","ND","ND","4.38","ND","ND","ND","ND","ND","0"],
    [49041,"2015-12-10T04:00:00","40.6","ND","ND","ND","ND","6.04","ND","ND","ND","ND","ND","0"],
    [49042,"2015-12-10T05:00:00","87.6","ND","ND","ND","ND","5.53","ND","ND","ND","ND","ND","0"],
    [49043,"2015-12-10T06:00:00","89.6","ND","ND","ND","ND","3.75","ND","ND","ND","ND","ND","0"],
    [49044,"2015-12-10T07:00:00","76","ND","ND","ND","ND","1.97","ND","ND","ND","ND","ND","0"],
    [49045,"2015-12-10T08:00:00","87.3","ND","ND","ND","ND","5.81","ND","ND","ND","ND","ND","0"],
    [49046,"2015-12-10T09:00:00","118.3","ND","ND","ND","ND","4.34","ND","ND","ND","ND","ND","0"],
    [49047,"2015-12-10T10:00:00","73.3","ND","ND","ND","ND","1.62","ND","ND","ND","ND","ND","0"],
    [49048,"2015-12-10T11:00:00","38.5","ND","ND","ND","ND","1.71","ND","ND","ND","ND","ND","0"],
    [49049,"2015-12-10T12:00:00","39.9","ND","ND","ND","ND","1.18","ND","ND","ND","ND","ND","0"],
    [49050,"2015-12-10T13:00:00","33.9","ND","ND","ND","ND","0.88","ND","ND","ND","ND","ND","0"],
    [49051,"2015-12-10T14:00:00","31.9","ND","ND","ND","ND","1.25","ND","ND","ND","ND","ND","0"],
    [49052,"2015-12-10T15:00:00","26.2","ND","ND","ND","ND","1.07","ND","ND","ND","ND","ND","0"],
    [49053,"2015-12-10T16:00:00","49.7","ND","ND","ND","ND","1.27","ND","ND","ND","ND","ND","0"],
    [49054,"2015-12-10T17:00:00","33.1","ND","ND","ND","ND","1.00","ND","ND","ND","ND","ND","0"],
    [49055,"2015-12-10T18:00:00","50.1","ND","ND","ND","ND","1.67","ND","ND","ND","ND","ND","0"],
    [49056,"2015-12-10T19:00:00","29.8","ND","ND","ND","ND","1.83","ND","ND","ND","ND","ND","0"],
    [49057,"2015-12-10T20:00:00","37.8","ND","ND","ND","ND","1.63","ND","ND","ND","ND","ND","0"],
    [49058,"2015-12-10T21:00:00","23.8","ND","ND","ND","ND","3.19","ND","ND","ND","ND","ND","0"],
    [49059,"2015-12-10T22:00:00","57.8","ND","ND","ND","ND","6.72","ND","ND","ND","ND","ND","0"],
    [49060,"2015-12-10T23:00:00","54.7","ND","ND","ND","ND","4.42","ND","ND","ND","ND","ND","0"],
    [49061,"2015-12-11T00:00:00","77.8","ND","ND","ND","ND","3.94","ND","ND","ND","ND","ND","0"],
    [49062,"2015-12-11T01:00:00","62.1","ND","ND","ND","ND","3.65","ND","ND","ND","ND","ND","0"],
    [49063,"2015-12-11T02:00:00","55.2","ND","ND","ND","ND","3.08","ND","ND","ND","ND","ND","0"],
    [49064,"2015-12-11T03:00:00","45.6","ND","ND","ND","ND","3.26","ND","ND","ND","ND","ND","0"],
    [49065,"2015-12-11T04:00:00","40.8","ND","ND","ND","ND","4.08","ND","ND","ND","ND","ND","0"],
    [49066,"2015-12-11T05:00:00","39.6","ND","ND","ND","ND","3.22","ND","ND","ND","ND","ND","0"],
    [49067,"2015-12-11T06:00:00","65.3","ND","ND","ND","ND","3.18","ND","ND","ND","ND","ND","0"],
    [49068,"2015-12-11T07:00:00","77","ND","ND","ND","ND","5.83","ND","ND","ND","ND","ND","0"],
    [49069,"2015-12-11T08:00:00","105.3","ND","ND","ND","ND","13.53","ND","ND","ND","ND","ND","0"],
    [49070,"2015-12-11T09:00:00","110.5","ND","ND","ND","ND","8.71","ND","ND","ND","ND","ND","0"],
    [49071,"2015-12-11T10:00:00","73.3","ND","ND","ND","ND","2.27","ND","ND","ND","ND","ND","0"],
    [49072,"2015-12-11T11:00:00","65.6","ND","ND","ND","ND","2.30","ND","ND","ND","ND","ND","0"],
    [49073,"2015-12-11T12:00:00","58","ND","ND","ND","ND","0.98","ND","ND","ND","ND","ND","0"],
    [49074,"2015-12-11T13:00:00","71.6","ND","ND","ND","ND","1.60","ND","ND","ND","ND","ND","0"],
    [49075,"2015-12-11T14:00:00","72","ND","ND","ND","ND","1.23","ND","ND","ND","ND","ND","0"],
    [49076,"2015-12-11T15:00:00","46.3","ND","ND","ND","ND","1.64","ND","ND","ND","ND","ND","0"],
    [49077,"2015-12-11T16:00:00","38.5","ND","ND","ND","ND","0.96","ND","ND","ND","ND","ND","0"],
    [49078,"2015-12-11T17:00:00","16.8","ND","ND","ND","ND","1.16","ND","ND","ND","ND","ND","0"],
    [49079,"2015-12-11T18:00:00","4.3","ND","ND","ND","ND","1.37","ND","ND","ND","ND","ND","0"],
    [49080,"2015-12-11T19:00:00","18.2","ND","ND","ND","ND","1.02","ND","ND","ND","ND","ND","0"],
    [49081,"2015-12-11T20:00:00","31.8","ND","ND","ND","ND","2.29","ND","ND","ND","ND","ND","0"],
    [49082,"2015-12-11T21:00:00","61.7","ND","ND","ND","ND","2.38","ND","ND","ND","ND","ND","0"],
    [49083,"2015-12-11T22:00:00","45.7","ND","ND","ND","ND","3.55","ND","ND","ND","ND","ND","0"],
    [49084,"2015-12-11T23:00:00","52.5","ND","ND","ND","ND","4.99","ND","ND","ND","ND","ND","0"],
    [49085,"2015-12-12T00:00:00","58.5","ND","ND","ND","ND","4.39","ND","ND","ND","ND","ND","0"],
    [49086,"2015-12-12T01:00:00","70.4","ND","ND","ND","ND","3.08","ND","ND","ND","ND","ND","0"],
    [49087,"2015-12-12T02:00:00","75.3","ND","ND","ND","ND","5.98","ND","ND","ND","ND","ND","0"],
    [49088,"2015-12-12T03:00:00","52.5","ND","ND","ND","ND","4.04","ND","ND","ND","ND","ND","0"],
    [49089,"2015-12-12T04:00:00","56.1","ND","ND","ND","ND","3.75","ND","ND","ND","ND","ND","0"],
    [49090,"2015-12-12T05:00:00","52.3","ND","ND","ND","ND","4.01","ND","ND","ND","ND","ND","0"],
    [49091,"2015-12-12T06:00:00","59.2","ND","ND","ND","ND","3.65","ND","ND","ND","ND","ND","0"],
    [49092,"2015-12-12T07:00:00","73.9","ND","ND","ND","ND","5.42","ND","ND","ND","ND","ND","0"],
    [49093,"2015-12-12T08:00:00","93.5","ND","ND","ND","ND","5.24","ND","ND","ND","ND","ND","0"],
    [49094,"2015-12-12T09:00:00","131.6","ND","ND","ND","ND","5.02","ND","ND","ND","ND","ND","0"],
    [49095,"2015-12-12T10:00:00","80.2","ND","ND","ND","ND","2.97","ND","ND","ND","ND","ND","0"],
    [49096,"2015-12-12T11:00:00","51.8","ND","ND","ND","ND","2.04","ND","ND","ND","ND","ND","0"],
    [49097,"2015-12-12T12:00:00","ND","ND","ND","ND","ND","ND","ND","ND","ND","ND","ND","ND"],
    [49098,"2015-12-12T13:00:00","25.5","ND","ND","ND","ND","1.32","ND","ND","ND","ND","ND","0"],
    [49099,"2015-12-12T14:00:00","29.3","ND","ND","ND","ND","1.31","ND","ND","ND","ND","ND","0"],
    [49100,"2015-12-12T15:00:00","20.4","ND","ND","ND","ND","1.48","ND","ND","ND","ND","ND","0"],
    [49101,"2015-12-12T16:00:00","47.8","ND","ND","ND","ND","1.32","ND","ND","ND","ND","ND","0"],
    [49102,"2015-12-12T17:00:00","44.5","ND","ND","ND","ND","1.00","ND","ND","ND","ND","ND","0"],
    [49103,"2015-12-12T18:00:00","18.8","ND","ND","ND","ND","0.92","ND","ND","ND","ND","ND","0"],
    [49104,"2015-12-12T19:00:00","9.7","ND","ND","ND","ND","0.71","ND","ND","ND","ND","ND","0"],
    [49105,"2015-12-12T20:00:00","26.1","ND","ND","ND","ND","1.90","ND","ND","ND","ND","ND","0"],
    [49106,"2015-12-12T21:00:00","38.8","ND","ND","ND","ND","3.40","ND","ND","ND","ND","ND","0"],
    [49107,"2015-12-12T22:00:00","58.2","ND","ND","ND","ND","3.08","ND","ND","ND","ND","ND","0"],
    [49108,"2015-12-12T23:00:00","32.3","ND","ND","ND","ND","2.62","ND","ND","ND","ND","ND","0"],
    [49109,"2015-12-13T00:00:00","31.3","ND","ND","ND","ND","4.14","ND","ND","ND","ND","ND","0"],
    [49110,"2015-12-13T01:00:00","34.7","ND","ND","ND","ND","5.44","ND","ND","ND","ND","ND","0"],
    [49111,"2015-12-13T02:00:00","50.7","ND","ND","ND","ND","4.07","ND","ND","ND","ND","ND","0"],
    [49112,"2015-12-13T03:00:00","46.8","ND","ND","ND","ND","2.76","ND","ND","ND","ND","ND","0"],
    [49113,"2015-12-13T04:00:00","18.3","ND","ND","ND","ND","2.09","ND","ND","ND","ND","ND","0"],
    [49114,"2015-12-13T05:00:00","46.8","ND","ND","ND","ND","5.32","ND","ND","ND","ND","ND","0"],
    [49115,"2015-12-13T06:00:00","55.3","ND","ND","ND","ND","6.41","ND","ND","ND","ND","ND","0"],
    [49116,"2015-12-13T07:00:00","68.7","ND","ND","ND","ND","6.57","ND","ND","ND","ND","ND","0"],
    [49117,"2015-12-13T08:00:00","77.7","ND","ND","ND","ND","5.45","ND","ND","ND","ND","ND","0"],
    [49118,"2015-12-13T09:00:00","92.5","ND","ND","ND","ND","8.00","ND","ND","ND","ND","ND","0"],
    [49119,"2015-12-13T10:00:00","60","ND","ND","ND","ND","2.12","ND","ND","ND","ND","ND","0"],
    [49120,"2015-12-13T11:00:00","17.7","ND","ND","ND","ND","1.73","ND","ND","ND","ND","ND","0"],
    [49121,"2015-12-13T12:00:00","68.8","ND","ND","ND","ND","2.13","ND","ND","ND","ND","ND","0"],
    [49122,"2015-12-13T13:00:00","46.8","ND","ND","ND","ND","1.45","ND","ND","ND","ND","ND","0"],
    [49123,"2015-12-13T14:00:00","16.6","ND","ND","ND","ND","0.99","ND","ND","ND","ND","ND","0"],
    [49124,"2015-12-13T15:00:00","16.9","ND","ND","ND","ND","1.27","ND","ND","ND","ND","ND","0"],
    [49125,"2015-12-13T16:00:00","0.8","ND","ND","ND","ND","1.10","ND","ND","ND","ND","ND","0"],
    [49126,"2015-12-13T17:00:00","2.1","ND","ND","ND","ND","1.21","ND","ND","ND","ND","ND","0"],
    [49127,"2015-12-13T18:00:00","4.1","ND","ND","ND","ND","1.10","ND","ND","ND","ND","ND","0"],
    [49128,"2015-12-13T19:00:00","16","ND","ND","ND","ND","1.39","ND","ND","ND","ND","ND","0"],
    [49129,"2015-12-13T20:00:00","25","ND","ND","ND","ND","1.23","ND","ND","ND","ND","ND","0"],
    [49130,"2015-12-13T21:00:00","15.2","ND","ND","ND","ND","1.62","ND","ND","ND","ND","ND","0"],
    [49131,"2015-12-13T22:00:00","48.5","ND","ND","ND","ND","3.58","ND","ND","ND","ND","ND","0"],
    [49132,"2015-12-13T23:00:00","37","ND","ND","ND","ND","3.50","ND","ND","ND","ND","ND","0"],
    [49133,"2015-12-14T00:00:00","49","ND","ND","ND","ND","4.91","ND","ND","ND","ND","ND","0"],
    [49134,"2015-12-14T01:00:00","68.3","ND","ND","ND","ND","4.80","ND","ND","ND","ND","ND","0"],
    [49135,"2015-12-14T02:00:00","62.7","ND","ND","ND","ND","3.08","ND","ND","ND","ND","ND","0"],
    [49136,"2015-12-14T03:00:00","22.3","ND","ND","ND","ND","3.09","ND","ND","ND","ND","ND","0"],
    [49137,"2015-12-14T04:00:00","42.8","ND","ND","ND","ND","3.53","ND","ND","ND","ND","ND","0"],
    [49138,"2015-12-14T05:00:00","48.5","ND","ND","ND","ND","4.66","ND","ND","ND","ND","ND","0"],
    [49139,"2015-12-14T06:00:00","69.1","ND","ND","ND","ND","7.57","ND","ND","ND","ND","ND","0"],
    [49140,"2015-12-14T07:00:00","68.2","ND","ND","ND","ND","6.50","ND","ND","ND","ND","ND","0"],
    [49141,"2015-12-14T08:00:00","76.3","ND","ND","ND","ND","5.88","ND","ND","ND","ND","ND","0"],
    [49142,"2015-12-14T09:00:00","72.4","ND","ND","ND","ND","3.42","ND","ND","ND","ND","ND","0"],
    [49143,"2015-12-14T10:00:00","56.1","ND","ND","ND","ND","3.26","ND","ND","ND","ND","ND","0"],
    [49144,"2015-12-14T11:00:00","57.7","ND","ND","ND","ND","2.30","ND","ND","ND","ND","ND","0"],
    [49145,"2015-12-14T12:00:00","44.4","ND","ND","ND","ND","1.66","ND","ND","ND","ND","ND","0"],
    [49146,"2015-12-14T13:00:00","42","ND","ND","ND","ND","1.87","ND","ND","ND","ND","ND","0"],
    [49147,"2015-12-14T14:00:00","44","ND","ND","ND","ND","1.73","ND","ND","ND","ND","ND","0"],
    [49148,"2015-12-14T15:00:00","26.1","ND","ND","ND","ND","1.21","ND","ND","ND","ND","ND","0.25"],
    [49149,"2015-12-14T16:00:00","58.7","ND","ND","ND","ND","1.35","ND","ND","ND","ND","ND","30.73"],
    [49150,"2015-12-14T17:00:00","45.9","ND","ND","ND","ND","1.63","ND","ND","ND","ND","ND","2.54"],
    [49151,"2015-12-14T18:00:00","29.2","ND","ND","ND","ND","1.30","ND","ND","ND","ND","ND","0"],
    [49152,"2015-12-14T19:00:00","29.5","ND","ND","ND","ND","1.35","ND","ND","ND","ND","ND","0"],
    [49153,"2015-12-14T20:00:00","66.2","ND","ND","ND","ND","2.08","ND","ND","ND","ND","ND","0"],
    [49154,"2015-12-14T21:00:00","41.4","ND","ND","ND","ND","2.51","ND","ND","ND","ND","ND","0"],
    [49155,"2015-12-14T22:00:00","42.8","ND","ND","ND","ND","3.09","ND","ND","ND","ND","ND","0"],
    [49156,"2015-12-14T23:00:00","29.3","ND","ND","ND","ND","3.07","ND","ND","ND","ND","ND","0"],
    [49157,"2015-12-15T00:00:00","30.6","ND","ND","ND","ND","2.89","ND","ND","ND","ND","ND","0"],
    [49158,"2015-12-15T01:00:00","40.5","ND","ND","ND","ND","3.00","ND","ND","ND","ND","ND","0"],
    [49159,"2015-12-15T02:00:00","49.6","ND","ND","ND","ND","2.87","ND","ND","ND","ND","ND","0"],
    [49160,"2015-12-15T03:00:00","57.2","ND","ND","ND","ND","2.98","ND","ND","ND","ND","ND","0"],
    [49161,"2015-12-15T04:00:00","34.6","ND","ND","ND","ND","2.22","ND","ND","ND","ND","ND","0"],
    [49162,"2015-12-15T05:00:00","31.3","ND","ND","ND","ND","1.24","ND","ND","ND","ND","ND","0"],
    [49163,"2015-12-15T06:00:00","25.8","ND","ND","ND","ND","1.56","ND","ND","ND","ND","ND","0"],
    [49164,"2015-12-15T07:00:00","25.8","ND","ND","ND","ND","1.13","ND","ND","ND","ND","ND","0"],
    [49165,"2015-12-15T08:00:00","21.2","ND","ND","ND","ND","1.46","ND","ND","ND","ND","ND","0"],
    [49166,"2015-12-15T09:00:00","23","ND","ND","ND","ND","2.79","ND","ND","ND","ND","ND","0.25"],
    [49167,"2015-12-15T10:00:00","30.6","ND","ND","ND","ND","2.63","ND","ND","ND","ND","ND","1.02"],
    [49168,"2015-12-15T11:00:00","52.4","ND","ND","ND","ND","2.27","ND","ND","ND","ND","ND","0"],
    [49169,"2015-12-15T12:00:00","38.9","ND","ND","ND","ND","1.48","ND","ND","ND","ND","ND","0"],
    [49170,"2015-12-15T13:00:00","31.5","ND","ND","ND","ND","1.67","ND","ND","ND","ND","ND","0"],
    [49171,"2015-12-15T14:00:00","32.9","ND","ND","ND","ND","1.56","ND","ND","ND","ND","ND","0"],
    [49172,"2015-12-15T15:00:00","23.2","ND","ND","ND","ND","1.16","ND","ND","ND","ND","ND","0"],
    [49173,"2015-12-15T16:00:00","27.8","ND","ND","ND","ND","1.24","ND","ND","ND","ND","ND","0"],
    [49174,"2015-12-15T17:00:00","34.6","ND","ND","ND","ND","1.39","ND","ND","ND","ND","ND","0"],
    [49175,"2015-12-15T18:00:00","28.3","ND","ND","ND","ND","2.10","ND","ND","ND","ND","ND","0"],
    [49176,"2015-12-15T19:00:00","30.7","ND","ND","ND","ND","2.20","ND","ND","ND","ND","ND","0"],
    [49177,"2015-12-15T20:00:00","35.7","ND","ND","ND","ND","1.84","ND","ND","ND","ND","ND","0"],
    [49178,"2015-12-15T21:00:00","57.5","ND","ND","ND","ND","2.19","ND","ND","ND","ND","ND","0"],
    [49179,"2015-12-15T22:00:00","80.6","ND","ND","ND","ND","3.37","ND","ND","ND","ND","ND","0"],
    [49180,"2015-12-15T23:00:00","45.6","ND","ND","ND","ND","3.72","ND","ND","ND","ND","ND","0"],
    [49181,"2015-12-16T00:00:00","19.7","ND","ND","ND","ND","3.97","ND","ND","ND","ND","ND","0"],
    [49182,"2015-12-16T01:00:00","16.7","ND","ND","ND","ND","4.32","ND","ND","ND","ND","ND","0"],
    [49183,"2015-12-16T02:00:00","55.4","ND","ND","ND","ND","2.10","ND","ND","ND","ND","ND","0"],
    [49184,"2015-12-16T03:00:00","52.5","ND","ND","ND","ND","2.63","ND","ND","ND","ND","ND","0"],
    [49185,"2015-12-16T04:00:00","40.5","ND","ND","ND","ND","2.23","ND","ND","ND","ND","ND","0"],
    [49186,"2015-12-16T05:00:00","28.6","ND","ND","ND","ND","2.02","ND","ND","ND","ND","ND","0"],
    [49187,"2015-12-16T06:00:00","53.3","ND","ND","ND","ND","1.77","ND","ND","ND","ND","ND","0"],
    [49188,"2015-12-16T07:00:00","46.5","ND","ND","ND","ND","2.34","ND","ND","ND","ND","ND","0"],
    [49189,"2015-12-16T08:00:00","69.1","ND","ND","ND","ND","2.43","ND","ND","ND","ND","ND","0"],
    [49190,"2015-12-16T09:00:00","60","ND","ND","ND","ND","2.55","ND","ND","ND","ND","ND","0"],
    [49191,"2015-12-16T10:00:00","35.4","ND","ND","ND","ND","1.91","ND","ND","ND","ND","ND","0"],
    [49192,"2015-12-16T11:00:00","32.8","ND","ND","ND","ND","1.67","ND","ND","ND","ND","ND","0"],
    [49193,"2015-12-16T12:00:00","43.2","ND","ND","ND","ND","1.35","ND","ND","ND","ND","ND","0"],
    [49194,"2015-12-16T13:00:00","34.3","ND","ND","ND","ND","1.27","ND","ND","ND","ND","ND","0"],
    [49195,"2015-12-16T14:00:00","50.3","ND","ND","ND","ND","1.32","ND","ND","ND","ND","ND","0"],
    [49196,"2015-12-16T15:00:00","38.3","ND","ND","ND","ND","1.31","ND","ND","ND","ND","ND","0"],
    [49197,"2015-12-16T16:00:00","5","ND","ND","ND","ND","0.84","ND","ND","ND","ND","ND","0"],
    [49198,"2015-12-16T17:00:00","21.1","ND","ND","ND","ND","0.96","ND","ND","ND","ND","ND","0"],
    [49199,"2015-12-16T18:00:00","5.4","ND","ND","ND","ND","0.60","ND","ND","ND","ND","ND","0"],
    [49200,"2015-12-16T19:00:00","13.5","ND","ND","ND","ND","1.21","ND","ND","ND","ND","ND","0"],
    [49201,"2015-12-16T20:00:00","50.1","ND","ND","ND","ND","1.78","ND","ND","ND","ND","ND","0"],
    [49202,"2015-12-16T21:00:00","45.2","ND","ND","ND","ND","2.70","ND","ND","ND","ND","ND","0"],
    [49203,"2015-12-16T22:00:00","59.9","ND","ND","ND","ND","3.32","ND","ND","ND","ND","ND","0"],
    [49204,"2015-12-16T23:00:00","56.5","ND","ND","ND","ND","2.24","ND","ND","ND","ND","ND","0"],
    [49205,"2015-12-17T00:00:00","39.6","ND","ND","ND","ND","2.79","ND","ND","ND","ND","ND","0"],
    [49206,"2015-12-17T01:00:00","28.3","ND","ND","ND","ND","1.74","ND","ND","ND","ND","ND","0"],
    [49207,"2015-12-17T02:00:00","33.5","ND","ND","ND","ND","2.76","ND","ND","ND","ND","ND","0"],
    [49208,"2015-12-17T03:00:00","40","ND","ND","ND","ND","3.61","ND","ND","ND","ND","ND","0"],
    [49209,"2015-12-17T04:00:00","25.4","ND","ND","ND","ND","1.92","ND","ND","ND","ND","ND","0"],
    [49210,"2015-12-17T05:00:00","49.7","ND","ND","ND","ND","1.42","ND","ND","ND","ND","ND","0.25"],
    [49211,"2015-12-17T06:00:00","45.2","ND","ND","ND","ND","2.44","ND","ND","ND","ND","ND","1.27"],
    [49212,"2015-12-17T07:00:00","33.4","ND","ND","ND","ND","1.85","ND","ND","ND","ND","ND","4.06"],
    [49213,"2015-12-17T08:00:00","25.2","ND","ND","ND","ND","1.48","ND","ND","ND","ND","ND","1.78"],
    [49214,"2015-12-17T09:00:00","5.7","ND","ND","ND","ND","1.13","ND","ND","ND","ND","ND","4.06"],
    [49215,"2015-12-17T10:00:00","3.2","ND","ND","ND","ND","2.09","ND","ND","ND","ND","ND","1.27"],
    [49216,"2015-12-17T11:00:00","44.1","ND","ND","ND","ND","2.44","ND","ND","ND","ND","ND","0"],
    [49217,"2015-12-17T12:00:00","57.1","ND","ND","ND","ND","2.26","ND","ND","ND","ND","ND","0"],
    [49218,"2015-12-17T13:00:00","61.6","ND","ND","ND","ND","3.93","ND","ND","ND","ND","ND","0"],
    [49219,"2015-12-17T14:00:00","49.5","ND","ND","ND","ND","3.01","ND","ND","ND","ND","ND","0"],
    [49220,"2015-12-17T15:00:00","13.1","ND","ND","ND","ND","2.01","ND","ND","ND","ND","ND","0"],
    [49221,"2015-12-17T16:00:00","32.9","ND","ND","ND","ND","1.51","ND","ND","ND","ND","ND","0"],
    [49222,"2015-12-17T17:00:00","40.7","ND","ND","ND","ND","3.71","ND","ND","ND","ND","ND","0"],
    [49223,"2015-12-17T18:00:00","39","ND","ND","ND","ND","3.92","ND","ND","ND","ND","ND","0"],
    [49224,"2015-12-17T19:00:00","78.9","ND","ND","ND","ND","2.80","ND","ND","ND","ND","ND","0"],
    [49225,"2015-12-17T20:00:00","65.1","ND","ND","ND","ND","1.66","ND","ND","ND","ND","ND","0"],
    [49226,"2015-12-17T21:00:00","54.1","ND","ND","ND","ND","2.47","ND","ND","ND","ND","ND","0"],
    [49227,"2015-12-17T22:00:00","81.5","ND","ND","ND","ND","2.09","ND","ND","ND","ND","ND","0"],
    [49228,"2015-12-17T23:00:00","51.8","ND","ND","ND","ND","2.87","ND","ND","ND","ND","ND","0"],
    [49229,"2015-12-18T00:00:00","85.6","ND","ND","ND","ND","3.51","ND","ND","ND","ND","ND","0"],
    [49230,"2015-12-18T01:00:00","95.6","ND","ND","ND","ND","2.16","ND","ND","ND","ND","ND","0"],
    [49231,"2015-12-18T02:00:00","53.9","ND","ND","ND","ND","3.47","ND","ND","ND","ND","ND","0"],
    [49232,"2015-12-18T03:00:00","42.3","ND","ND","ND","ND","2.70","ND","ND","ND","ND","ND","0"],
    [49233,"2015-12-18T04:00:00","58.9","ND","ND","ND","ND","1.56","ND","ND","ND","ND","ND","0"],
    [49234,"2015-12-18T05:00:00","45.6","ND","ND","ND","ND","1.76","ND","ND","ND","ND","ND","0"],
    [49235,"2015-12-18T06:00:00","33.5","ND","ND","ND","ND","2.61","ND","ND","ND","ND","ND","0"],
    [49236,"2015-12-18T07:00:00","53.6","ND","ND","ND","ND","2.29","ND","ND","ND","ND","ND","0"],
    [49237,"2015-12-18T08:00:00","139.9","ND","ND","ND","ND","9.48","ND","ND","ND","ND","ND","0"],
    [49238,"2015-12-18T09:00:00","102.5","ND","ND","ND","ND","3.75","ND","ND","ND","ND","ND","0"],
    [49239,"2015-12-18T10:00:00","57","ND","ND","ND","ND","3.53","ND","ND","ND","ND","ND","0"],
    [49240,"2015-12-18T11:00:00","65","ND","ND","ND","ND","1.51","ND","ND","ND","ND","ND","0"],
    [49241,"2015-12-18T12:00:00","47.1","ND","ND","ND","ND","1.52","ND","ND","ND","ND","ND","0"],
    [49242,"2015-12-18T13:00:00","19.6","ND","ND","ND","ND","2.22","ND","ND","ND","ND","ND","0"],
    [49243,"2015-12-18T14:00:00","39.9","ND","ND","ND","ND","1.55","ND","ND","ND","ND","ND","0"],
    [49244,"2015-12-18T15:00:00","43.7","ND","ND","ND","ND","2.30","ND","ND","ND","ND","ND","0"],
    [49245,"2015-12-18T16:00:00","27.8","ND","ND","ND","ND","2.17","ND","ND","ND","ND","ND","0"],
    [49246,"2015-12-18T17:00:00","0.4","ND","ND","ND","ND","1.49","ND","ND","ND","ND","ND","0"],
    [49247,"2015-12-18T18:00:00","18","ND","ND","ND","ND","1.98","ND","ND","ND","ND","ND","0"],
    [49248,"2015-12-18T19:00:00","46.2","ND","ND","ND","ND","2.31","ND","ND","ND","ND","ND","0"],
    [49249,"2015-12-18T20:00:00","45.1","ND","ND","ND","ND","2.01","ND","ND","ND","ND","ND","0"],
    [49250,"2015-12-18T21:00:00","31.9","ND","ND","ND","ND","1.91","ND","ND","ND","ND","ND","0"],
    [49251,"2015-12-18T22:00:00","47.3","ND","ND","ND","ND","1.52","ND","ND","ND","ND","ND","0"],
    [49252,"2015-12-18T23:00:00","31.3","ND","ND","ND","ND","1.55","ND","ND","ND","ND","ND","0"],
    [49253,"2015-12-19T00:00:00","66.1","ND","ND","ND","ND","3.22","ND","ND","ND","ND","ND","0"],
    [49254,"2015-12-19T01:00:00","128.7","ND","ND","ND","ND","4.21","ND","ND","ND","ND","ND","0"],
    [49255,"2015-12-19T02:00:00","127.5","ND","ND","ND","ND","4.03","ND","ND","ND","ND","ND","0"],
    [49256,"2015-12-19T03:00:00","79.5","ND","ND","ND","ND","4.20","ND","ND","ND","ND","ND","0"],
    [49257,"2015-12-19T04:00:00","50.4","ND","ND","ND","ND","2.66","ND","ND","ND","ND","ND","0"],
    [49258,"2015-12-19T05:00:00","59.8","ND","ND","ND","ND","5.21","ND","ND","ND","ND","ND","0"],
    [49259,"2015-12-19T06:00:00","68.3","ND","ND","ND","ND","4.38","ND","ND","ND","ND","ND","0"],
    [49260,"2015-12-19T07:00:00","74.7","ND","ND","ND","ND","4.93","ND","ND","ND","ND","ND","0"],
    [49261,"2015-12-19T08:00:00","87.9","ND","ND","ND","ND","4.88","ND","ND","ND","ND","ND","0"],
    [49262,"2015-12-19T09:00:00","73.6","ND","ND","ND","ND","5.26","ND","ND","ND","ND","ND","0"],
    [49263,"2015-12-19T10:00:00","66.3","ND","ND","ND","ND","3.53","ND","ND","ND","ND","ND","0"],
    [49264,"2015-12-19T11:00:00","41.8","ND","ND","ND","ND","2.26","ND","ND","ND","ND","ND","0"],
    [49265,"2015-12-19T12:00:00","69.4","ND","ND","ND","ND","2.13","ND","ND","ND","ND","ND","0"],
    [49266,"2015-12-19T13:00:00","53.4","ND","ND","ND","ND","1.46","ND","ND","ND","ND","ND","0"],
    [49267,"2015-12-19T14:00:00","46.8","ND","ND","ND","ND","1.85","ND","ND","ND","ND","ND","0"],
    [49268,"2015-12-19T15:00:00","50.7","ND","ND","ND","ND","1.13","ND","ND","ND","ND","ND","0"],
    [49269,"2015-12-19T16:00:00","56.9","ND","ND","ND","ND","1.66","ND","ND","ND","ND","ND","0"],
    [49270,"2015-12-19T17:00:00","43.9","ND","ND","ND","ND","1.66","ND","ND","ND","ND","ND","0"],
    [49271,"2015-12-19T18:00:00","37.1","ND","ND","ND","ND","1.95","ND","ND","ND","ND","ND","0"],
    [49272,"2015-12-19T19:00:00","13.6","ND","ND","ND","ND","1.24","ND","ND","ND","ND","ND","0"],
    [49273,"2015-12-19T20:00:00","32","ND","ND","ND","ND","2.23","ND","ND","ND","ND","ND","0"],
    [49274,"2015-12-19T21:00:00","26.5","ND","ND","ND","ND","2.73","ND","ND","ND","ND","ND","0"],
    [49275,"2015-12-19T22:00:00","50.9","ND","ND","ND","ND","3.69","ND","ND","ND","ND","ND","0"],
    [49276,"2015-12-19T23:00:00","32.4","ND","ND","ND","ND","3.22","ND","ND","ND","ND","ND","0"],
    [49277,"2015-12-20T00:00:00","36.2","ND","ND","ND","ND","4.81","ND","ND","ND","ND","ND","0"],
    [49278,"2015-12-20T01:00:00","24.2","ND","ND","ND","ND","2.34","ND","ND","ND","ND","ND","0"],
    [49279,"2015-12-20T02:00:00","45.4","ND","ND","ND","ND","3.55","ND","ND","ND","ND","ND","0"],
    [49280,"2015-12-20T03:00:00","41.4","ND","ND","ND","ND","5.23","ND","ND","ND","ND","ND","0"],
    [49281,"2015-12-20T04:00:00","77.7","ND","ND","ND","ND","4.54","ND","ND","ND","ND","ND","0"],
    [49282,"2015-12-20T05:00:00","55.4","ND","ND","ND","ND","3.86","ND","ND","ND","ND","ND","0"],
    [49283,"2015-12-20T06:00:00","41.9","ND","ND","ND","ND","3.82","ND","ND","ND","ND","ND","0"],
    [49284,"2015-12-20T07:00:00","42.5","ND","ND","ND","ND","3.35","ND","ND","ND","ND","ND","0"],
    [49285,"2015-12-20T08:00:00","56.8","ND","ND","ND","ND","3.25","ND","ND","ND","ND","ND","0"],
    [49286,"2015-12-20T09:00:00","62.8","ND","ND","ND","ND","3.11","ND","ND","ND","ND","ND","0"],
    [49287,"2015-12-20T10:00:00","66.8","ND","ND","ND","ND","3.67","ND","ND","ND","ND","ND","0"],
    [49288,"2015-12-20T11:00:00","61.8","ND","ND","ND","ND","2.52","ND","ND","ND","ND","ND","0"],
    [49289,"2015-12-20T12:00:00","51.5","ND","ND","ND","ND","1.51","ND","ND","ND","ND","ND","0"],
    [49290,"2015-12-20T13:00:00","50","ND","ND","ND","ND","1.03","ND","ND","ND","ND","ND","0"],
    [49291,"2015-12-20T14:00:00","55.6","ND","ND","ND","ND","1.85","ND","ND","ND","ND","ND","0"],
    [49292,"2015-12-20T15:00:00","48.3","ND","ND","ND","ND","1.35","ND","ND","ND","ND","ND","0"],
    [49293,"2015-12-20T16:00:00","16.2","ND","ND","ND","ND","1.45","ND","ND","ND","ND","ND","0"],
    [49294,"2015-12-20T17:00:00","28.9","ND","ND","ND","ND","1.85","ND","ND","ND","ND","ND","0"],
    [49295,"2015-12-20T18:00:00","31.3","ND","ND","ND","ND","1.73","ND","ND","ND","ND","ND","0"],
    [49296,"2015-12-20T19:00:00","6.9","ND","ND","ND","ND","1.49","ND","ND","ND","ND","ND","0"],
    [49297,"2015-12-20T20:00:00","17","ND","ND","ND","ND","1.23","ND","ND","ND","ND","ND","0"],
    [49298,"2015-12-20T21:00:00","39.8","ND","ND","ND","ND","2.86","ND","ND","ND","ND","ND","0"],
    [49299,"2015-12-20T22:00:00","46.8","ND","ND","ND","ND","4.11","ND","ND","ND","ND","ND","0"],
    [49300,"2015-12-20T23:00:00","41.2","ND","ND","ND","ND","2.41","ND","ND","ND","ND","ND","0"],
    [49301,"2015-12-21T00:00:00","27","ND","ND","ND","ND","2.52","ND","ND","ND","ND","ND","0"],
    [49302,"2015-12-21T01:00:00","10.5","ND","ND","ND","ND","2.66","ND","ND","ND","ND","ND","0"],
    [49303,"2015-12-21T02:00:00","17.8","ND","ND","ND","ND","3.28","ND","ND","ND","ND","ND","0"],
    [49304,"2015-12-21T03:00:00","29.9","ND","ND","ND","ND","3.65","ND","ND","ND","ND","ND","0"],
    [49305,"2015-12-21T04:00:00","29","ND","ND","ND","ND","2.16","ND","ND","ND","ND","ND","0"],
    [49306,"2015-12-21T05:00:00","41.9","ND","ND","ND","ND","2.68","ND","ND","ND","ND","ND","0"],
    [49307,"2015-12-21T06:00:00","58.8","ND","ND","ND","ND","2.54","ND","ND","ND","ND","ND","0"],
    [49308,"2015-12-21T07:00:00","85.8","ND","ND","ND","ND","4.22","ND","ND","ND","ND","ND","0"],
    [49309,"2015-12-21T08:00:00","118.8","ND","ND","ND","ND","4.43","ND","ND","ND","ND","ND","0"],
    [49310,"2015-12-21T09:00:00","103.2","ND","ND","ND","ND","3.44","ND","ND","ND","ND","ND","0"],
    [49311,"2015-12-21T10:00:00","82.1","ND","ND","ND","ND","2.73","ND","ND","ND","ND","ND","0"],
    [49312,"2015-12-21T11:00:00","70.3","ND","ND","ND","ND","1.90","ND","ND","ND","ND","ND","0"],
    [49313,"2015-12-21T12:00:00","46.7","ND","ND","ND","ND","1.80","ND","ND","ND","ND","ND","0"],
    [49314,"2015-12-21T13:00:00","34.3","ND","ND","ND","ND","1.85","ND","ND","ND","ND","ND","0"],
    [49315,"2015-12-21T14:00:00","22.3","ND","ND","ND","ND","1.21","ND","ND","ND","ND","ND","0"],
    [49316,"2015-12-21T15:00:00","31.6","ND","ND","ND","ND","1.81","ND","ND","ND","ND","ND","0"],
    [49317,"2015-12-21T16:00:00","56.8","ND","ND","ND","ND","0.84","ND","ND","ND","ND","ND","0"],
    [49318,"2015-12-21T17:00:00","38.3","ND","ND","ND","ND","1.46","ND","ND","ND","ND","ND","0"],
    [49319,"2015-12-21T18:00:00","10.2","ND","ND","ND","ND","1.27","ND","ND","ND","ND","ND","0"],
    [49320,"2015-12-21T19:00:00","2","ND","ND","ND","ND","2.19","ND","ND","ND","ND","ND","0"],
    [49321,"2015-12-21T20:00:00","34","ND","ND","ND","ND","1.67","ND","ND","ND","ND","ND","0"],
    [49322,"2015-12-21T21:00:00","53.7","ND","ND","ND","ND","2.24","ND","ND","ND","ND","ND","0"],
    [49323,"2015-12-21T22:00:00","59.4","ND","ND","ND","ND","5.05","ND","ND","ND","ND","ND","0"],
    [49324,"2015-12-21T23:00:00","59.6","ND","ND","ND","ND","2.37","ND","ND","ND","ND","ND","0"],
    [49325,"2015-12-22T00:00:00","45.7","ND","ND","ND","ND","1.81","ND","ND","ND","ND","ND","0"],
    [49326,"2015-12-22T01:00:00","49.1","ND","ND","ND","ND","4.18","ND","ND","ND","ND","ND","0"],
    [49327,"2015-12-22T02:00:00","79.8","ND","ND","ND","ND","4.49","ND","ND","ND","ND","ND","0"],
    [49328,"2015-12-22T03:00:00","64.8","ND","ND","ND","ND","3.48","ND","ND","ND","ND","ND","0"],
    [49329,"2015-12-22T04:00:00","59.5","ND","ND","ND","ND","4.27","ND","ND","ND","ND","ND","0"],
    [49330,"2015-12-22T05:00:00","89.1","ND","ND","ND","ND","3.07","ND","ND","ND","ND","ND","0"],
    [49331,"2015-12-22T06:00:00","68.4","ND","ND","ND","ND","3.04","ND","ND","ND","ND","ND","0"],
    [49332,"2015-12-22T07:00:00","80.5","ND","ND","ND","ND","4.34","ND","ND","ND","ND","ND","0"],
    [49333,"2015-12-22T08:00:00","113.7","ND","ND","ND","ND","6.26","ND","ND","ND","ND","ND","0"],
    [49334,"2015-12-22T09:00:00","103.7","ND","ND","ND","ND","7.64","ND","ND","ND","ND","ND","0"],
    [49335,"2015-12-22T10:00:00","84.1","ND","ND","ND","ND","4.00","ND","ND","ND","ND","ND","0"],
    [49336,"2015-12-22T11:00:00","52.7","ND","ND","ND","ND","1.41","ND","ND","ND","ND","ND","0"],
    [49337,"2015-12-22T12:00:00","42.1","ND","ND","ND","ND","2.44","ND","ND","ND","ND","ND","0"],
    [49338,"2015-12-22T13:00:00","31.7","ND","ND","ND","ND","2.16","ND","ND","ND","ND","ND","0"],
    [49339,"2015-12-22T14:00:00","36.4","ND","ND","ND","ND","1.52","ND","ND","ND","ND","ND","0"],
    [49340,"2015-12-22T15:00:00","11.7","ND","ND","ND","ND","1.13","ND","ND","ND","ND","ND","0"],
    [49341,"2015-12-22T16:00:00","0.1","ND","ND","ND","ND","1.18","ND","ND","ND","ND","ND","0"],
    [49342,"2015-12-22T17:00:00","9.3","ND","ND","ND","ND","0.86","ND","ND","ND","ND","ND","0"],
    [49343,"2015-12-22T18:00:00","5.9","ND","ND","ND","ND","1.69","ND","ND","ND","ND","ND","0"],
    [49344,"2015-12-22T19:00:00","16.5","ND","ND","ND","ND","1.17","ND","ND","ND","ND","ND","0"],
    [49345,"2015-12-22T20:00:00","60.8","ND","ND","ND","ND","2.37","ND","ND","ND","ND","ND","0"],
    [49346,"2015-12-22T21:00:00","68","ND","ND","ND","ND","3.54","ND","ND","ND","ND","ND","0"],
    [49347,"2015-12-22T22:00:00","73.3","ND","ND","ND","ND","3.37","ND","ND","ND","ND","ND","0"],
    [49348,"2015-12-22T23:00:00","39.8","ND","ND","ND","ND","3.61","ND","ND","ND","ND","ND","0"],
    [49349,"2015-12-23T00:00:00","46.4","ND","ND","ND","ND","3.58","ND","ND","ND","ND","ND","0"],
    [49350,"2015-12-23T01:00:00","68","ND","ND","ND","ND","2.96","ND","ND","ND","ND","ND","0"],
    [49351,"2015-12-23T02:00:00","140","ND","ND","ND","ND","4.46","ND","ND","ND","ND","ND","0"],
    [49352,"2015-12-23T03:00:00","89.9","ND","ND","ND","ND","2.94","ND","ND","ND","ND","ND","0"],
    [49353,"2015-12-23T04:00:00","78.2","ND","ND","ND","ND","3.47","ND","ND","ND","ND","ND","0"],
    [49354,"2015-12-23T05:00:00","68","ND","ND","ND","ND","3.36","ND","ND","ND","ND","ND","0"],
    [49355,"2015-12-23T06:00:00","57.8","ND","ND","ND","ND","2.23","ND","ND","ND","ND","ND","0"],
    [49356,"2015-12-23T07:00:00","59.7","ND","ND","ND","ND","3.26","ND","ND","ND","ND","ND","0"],
    [49357,"2015-12-23T08:00:00","74.6","ND","ND","ND","ND","4.57","ND","ND","ND","ND","ND","0"],
    [49358,"2015-12-23T09:00:00","92.1","ND","ND","ND","ND","2.82","ND","ND","ND","ND","ND","0"],
    [49359,"2015-12-23T10:00:00","48.9","ND","ND","ND","ND","2.26","ND","ND","ND","ND","ND","0"],
    [49360,"2015-12-23T11:00:00","54.5","ND","ND","ND","ND","1.97","ND","ND","ND","ND","ND","0"],
    [49361,"2015-12-23T12:00:00","42.7","ND","ND","ND","ND","1.90","ND","ND","ND","ND","ND","0"],
    [49362,"2015-12-23T13:00:00","9.7","ND","ND","ND","ND","1.46","ND","ND","ND","ND","ND","0"],
    [49363,"2015-12-23T14:00:00","28.7","ND","ND","ND","ND","1.12","ND","ND","ND","ND","ND","0"],
    [49364,"2015-12-23T15:00:00","48","ND","ND","ND","ND","1.34","ND","ND","ND","ND","ND","0"],
    [49365,"2015-12-23T16:00:00","33.7","ND","ND","ND","ND","1.25","ND","ND","ND","ND","ND","0"],
    [49366,"2015-12-23T17:00:00","5.8","ND","ND","ND","ND","1.38","ND","ND","ND","ND","ND","0"],
    [49367,"2015-12-23T18:00:00","ND","ND","ND","ND","ND","0.93","ND","ND","ND","ND","ND","0"],
    [49368,"2015-12-23T19:00:00","ND","ND","ND","ND","ND","1.05","ND","ND","ND","ND","ND","0"],
    [49369,"2015-12-23T20:00:00","40.7","ND","ND","ND","ND","0.84","ND","ND","ND","ND","ND","0"],
    [49370,"2015-12-23T21:00:00","57.9","ND","ND","ND","ND","1.76","ND","ND","ND","ND","ND","0"],
    [49371,"2015-12-23T22:00:00","83.1","ND","ND","ND","ND","5.20","ND","ND","ND","ND","ND","0"],
    [49372,"2015-12-23T23:00:00","82.2","ND","ND","ND","ND","3.14","ND","ND","ND","ND","ND","0"],
    [49373,"2015-12-24T00:00:00","63.4","ND","ND","ND","ND","3.94","ND","ND","ND","ND","ND","0"],
    [49374,"2015-12-24T01:00:00","31.5","ND","ND","ND","ND","3.51","ND","ND","ND","ND","ND","0"],
    [49375,"2015-12-24T02:00:00","4.2","ND","ND","ND","ND","3.92","ND","ND","ND","ND","ND","0"],
    [49376,"2015-12-24T03:00:00","14.6","ND","ND","ND","ND","2.63","ND","ND","ND","ND","ND","0"],
    [49377,"2015-12-24T04:00:00","20.2","ND","ND","ND","ND","2.08","ND","ND","ND","ND","ND","0"],
    [49378,"2015-12-24T05:00:00","30.1","ND","ND","ND","ND","2.37","ND","ND","ND","ND","ND","0"],
    [49379,"2015-12-24T06:00:00","45.6","ND","ND","ND","ND","2.50","ND","ND","ND","ND","ND","0"],
    [49380,"2015-12-24T07:00:00","77.3","ND","ND","ND","ND","3.09","ND","ND","ND","ND","ND","0"],
    [49381,"2015-12-24T08:00:00","155.4","ND","ND","ND","ND","8.31","ND","ND","ND","ND","ND","0"],
    [49382,"2015-12-24T09:00:00","119.1","ND","ND","ND","ND","4.61","ND","ND","ND","ND","ND","0"],
    [49383,"2015-12-24T10:00:00","94.4","ND","ND","ND","ND","3.64","ND","ND","ND","ND","ND","0"],
    [49384,"2015-12-24T11:00:00","62.3","ND","ND","ND","ND","2.12","ND","ND","ND","ND","ND","0"],
    [49385,"2015-12-24T12:00:00","62.8","ND","ND","ND","ND","1.44","ND","ND","ND","ND","ND","0"],
    [49386,"2015-12-24T13:00:00","60.2","ND","ND","ND","ND","1.80","ND","ND","ND","ND","ND","0"],
    [49387,"2015-12-24T14:00:00","52.4","ND","ND","ND","ND","1.85","ND","ND","ND","ND","ND","0"],
    [49388,"2015-12-24T15:00:00","16.4","ND","ND","ND","ND","1.32","ND","ND","ND","ND","ND","0"],
    [49389,"2015-12-24T16:00:00","25.4","ND","ND","ND","ND","1.48","ND","ND","ND","ND","ND","0"],
    [49390,"2015-12-24T17:00:00","ND","ND","ND","ND","ND","0.77","ND","ND","ND","ND","ND","0"],
    [49391,"2015-12-24T18:00:00","ND","ND","ND","ND","ND","1.21","ND","ND","ND","ND","ND","0"],
    [49392,"2015-12-24T19:00:00","ND","ND","ND","ND","ND","1.14","ND","ND","ND","ND","ND","0"],
    [49393,"2015-12-24T20:00:00","7.8","ND","ND","ND","ND","1.49","ND","ND","ND","ND","ND","0"],
    [49394,"2015-12-24T21:00:00","84.2","ND","ND","ND","ND","2.41","ND","ND","ND","ND","ND","0"],
    [49395,"2015-12-24T22:00:00","95.7","ND","ND","ND","ND","7.46","ND","ND","ND","ND","ND","0"],
    [49396,"2015-12-24T23:00:00","79.4","ND","ND","ND","ND","6.54","ND","ND","ND","ND","ND","0"],
    [49397,"2015-12-25T00:00:00","62","ND","ND","ND","ND","5.78","ND","ND","ND","ND","ND","0"],
    [49398,"2015-12-25T01:00:00","24.3","ND","ND","ND","ND","2.96","ND","ND","ND","ND","ND","0"],
    [49399,"2015-12-25T02:00:00","43.9","ND","ND","ND","ND","3.33","ND","ND","ND","ND","ND","0"],
    [49400,"2015-12-25T03:00:00","40.3","ND","ND","ND","ND","3.22","ND","ND","ND","ND","ND","0"],
    [49401,"2015-12-25T04:00:00","34.6","ND","ND","ND","ND","3.37","ND","ND","ND","ND","ND","0"],
    [49402,"2015-12-25T05:00:00","34.8","ND","ND","ND","ND","3.65","ND","ND","ND","ND","ND","0"],
    [49403,"2015-12-25T06:00:00","39.6","ND","ND","ND","ND","7.09","ND","ND","ND","ND","ND","0"],
    [49404,"2015-12-25T07:00:00","35.9","ND","ND","ND","ND","5.71","ND","ND","ND","ND","ND","0"],
    [49405,"2015-12-25T08:00:00","53","ND","ND","ND","ND","4.38","ND","ND","ND","ND","ND","0"],
    [49406,"2015-12-25T09:00:00","37.2","ND","ND","ND","ND","3.81","ND","ND","ND","ND","ND","0"],
    [49407,"2015-12-25T10:00:00","67.5","ND","ND","ND","ND","3.53","ND","ND","ND","ND","ND","0"],
    [49408,"2015-12-25T11:00:00","34.2","ND","ND","ND","ND","2.17","ND","ND","ND","ND","ND","0"],
    [49409,"2015-12-25T12:00:00","27.7","ND","ND","ND","ND","1.66","ND","ND","ND","ND","ND","0"],
    [49410,"2015-12-25T13:00:00","36","ND","ND","ND","ND","1.31","ND","ND","ND","ND","ND","0"],
    [49411,"2015-12-25T14:00:00","26.2","ND","ND","ND","ND","1.42","ND","ND","ND","ND","ND","0"],
    [49412,"2015-12-25T15:00:00","35.3","ND","ND","ND","ND","0.93","ND","ND","ND","ND","ND","0"],
    [49413,"2015-12-25T16:00:00","39","ND","ND","ND","ND","1.44","ND","ND","ND","ND","ND","0"],
    [49414,"2015-12-25T17:00:00","24.3","ND","ND","ND","ND","1.32","ND","ND","ND","ND","ND","0"],
    [49415,"2015-12-25T18:00:00","20.5","ND","ND","ND","ND","1.05","ND","ND","ND","ND","ND","0"],
    [49416,"2015-12-25T19:00:00","1","ND","ND","ND","ND","1.24","ND","ND","ND","ND","ND","0"],
    [49417,"2015-12-25T20:00:00","9.4","ND","ND","ND","ND","1.06","ND","ND","ND","ND","ND","0"],
    [49418,"2015-12-25T21:00:00","22.6","ND","ND","ND","ND","2.83","ND","ND","ND","ND","ND","0"],
    [49419,"2015-12-25T22:00:00","49.1","ND","ND","ND","ND","4.34","ND","ND","ND","ND","ND","0"],
    [49420,"2015-12-25T23:00:00","43.9","ND","ND","ND","ND","4.88","ND","ND","ND","ND","ND","0"],
    [49421,"2015-12-26T00:00:00","39","ND","ND","ND","ND","2.83","ND","ND","ND","ND","ND","0"],
    [49422,"2015-12-26T01:00:00","46.5","ND","ND","ND","ND","2.29","ND","ND","ND","ND","ND","0"],
    [49423,"2015-12-26T02:00:00","12.5","ND","ND","ND","ND","2.61","ND","ND","ND","ND","ND","0"],
    [49424,"2015-12-26T03:00:00","4.8","ND","ND","ND","ND","2.56","ND","ND","ND","ND","ND","0"],
    [49425,"2015-12-26T04:00:00","25.2","ND","ND","ND","ND","3.22","ND","ND","ND","ND","ND","0"],
    [49426,"2015-12-26T05:00:00","54.7","ND","ND","ND","ND","5.46","ND","ND","ND","ND","ND","0"],
    [49427,"2015-12-26T06:00:00","70.4","ND","ND","ND","ND","4.71","ND","ND","ND","ND","ND","0"],
    [49428,"2015-12-26T07:00:00","74.3","ND","ND","ND","ND","5.91","ND","ND","ND","ND","ND","0"],
    [49429,"2015-12-26T08:00:00","112.7","ND","ND","ND","ND","7.51","ND","ND","ND","ND","ND","0"],
    [49430,"2015-12-26T09:00:00","88.2","ND","ND","ND","ND","6.59","ND","ND","ND","ND","ND","0"],
    [49431,"2015-12-26T10:00:00","67.3","ND","ND","ND","ND","4.43","ND","ND","ND","ND","ND","0"],
    [49432,"2015-12-26T11:00:00","47.4","ND","ND","ND","ND","2.96","ND","ND","ND","ND","ND","0"],
    [49433,"2015-12-26T12:00:00","27.7","ND","ND","ND","ND","1.58","ND","ND","ND","ND","ND","0"],
    [49434,"2015-12-26T13:00:00","34.9","ND","ND","ND","ND","2.09","ND","ND","ND","ND","ND","0"],
    [49435,"2015-12-26T14:00:00","32.7","ND","ND","ND","ND","1.30","ND","ND","ND","ND","ND","0"],
    [49436,"2015-12-26T15:00:00","12.1","ND","ND","ND","ND","0.75","ND","ND","ND","ND","ND","0"],
    [49437,"2015-12-26T16:00:00","ND","ND","ND","ND","ND","0.98","ND","ND","ND","ND","ND","0"],
    [49438,"2015-12-26T17:00:00","ND","ND","ND","ND","ND","1.14","ND","ND","ND","ND","ND","0"],
    [49439,"2015-12-26T18:00:00","2.3","ND","ND","ND","ND","1.14","ND","ND","ND","ND","ND","0"],
    [49440,"2015-12-26T19:00:00","ND","ND","ND","ND","ND","1.45","ND","ND","ND","ND","ND","0"],
    [49441,"2015-12-26T20:00:00","39.9","ND","ND","ND","ND","1.25","ND","ND","ND","ND","ND","0"],
    [49442,"2015-12-26T21:00:00","110.6","ND","ND","ND","ND","1.55","ND","ND","ND","ND","ND","0"],
    [49443,"2015-12-26T22:00:00","70.8","ND","ND","ND","ND","3.32","ND","ND","ND","ND","ND","0"],
    [49444,"2015-12-26T23:00:00","42.5","ND","ND","ND","ND","3.89","ND","ND","ND","ND","ND","0"],
    [49445,"2015-12-27T00:00:00","24.2","ND","ND","ND","ND","3.60","ND","ND","ND","ND","ND","0"],
    [49446,"2015-12-27T01:00:00","2.1","ND","ND","ND","ND","2.80","ND","ND","ND","ND","ND","0"],
    [49447,"2015-12-27T02:00:00","46.6","ND","ND","ND","ND","3.36","ND","ND","ND","ND","ND","0"],
    [49448,"2015-12-27T03:00:00","43.2","ND","ND","ND","ND","3.94","ND","ND","ND","ND","ND","0"],
    [49449,"2015-12-27T04:00:00","70.4","ND","ND","ND","ND","3.67","ND","ND","ND","ND","ND","0"],
    [49450,"2015-12-27T05:00:00","92.8","ND","ND","ND","ND","3.96","ND","ND","ND","ND","ND","0"],
    [49451,"2015-12-27T06:00:00","79.4","ND","ND","ND","ND","4.07","ND","ND","ND","ND","ND","0"],
    [49452,"2015-12-27T07:00:00","16.9","ND","ND","ND","ND","11.03","ND","ND","ND","ND","ND","0"],
    [49453,"2015-12-27T08:00:00","65.6","ND","ND","ND","ND","5.24","ND","ND","ND","ND","ND","0"],
    [49454,"2015-12-27T09:00:00","97.5","ND","ND","ND","ND","6.17","ND","ND","ND","ND","ND","0"],
    [49455,"2015-12-27T10:00:00","63.3","ND","ND","ND","ND","5.67","ND","ND","ND","ND","ND","0"],
    [49456,"2015-12-27T11:00:00","14.5","ND","ND","ND","ND","2.73","ND","ND","ND","ND","ND","0"],
    [49457,"2015-12-27T12:00:00","2","ND","ND","ND","ND","2.04","ND","ND","ND","ND","ND","0"],
    [49458,"2015-12-27T13:00:00","1.6","ND","ND","ND","ND","1.32","ND","ND","ND","ND","ND","0"],
    [49459,"2015-12-27T14:00:00","ND","ND","ND","ND","ND","2.31","ND","ND","ND","ND","ND","0"],
    [49460,"2015-12-27T15:00:00","11.5","ND","ND","ND","ND","1.03","ND","ND","ND","ND","ND","0"],
    [49461,"2015-12-27T16:00:00","21.3","ND","ND","ND","ND","0.96","ND","ND","ND","ND","ND","0"],
    [49462,"2015-12-27T17:00:00","24.8","ND","ND","ND","ND","0.84","ND","ND","ND","ND","ND","0"],
    [49463,"2015-12-27T18:00:00","13.7","ND","ND","ND","ND","0.96","ND","ND","ND","ND","ND","0"],
    [49464,"2015-12-27T19:00:00","10.6","ND","ND","ND","ND","1.03","ND","ND","ND","ND","ND","0"],
    [49465,"2015-12-27T20:00:00","23","ND","ND","ND","ND","0.86","ND","ND","ND","ND","ND","0"],
    [49466,"2015-12-27T21:00:00","15.1","ND","ND","ND","ND","2.44","ND","ND","ND","ND","ND","0"],
    [49467,"2015-12-27T22:00:00","68.6","ND","ND","ND","ND","5.35","ND","ND","ND","ND","ND","0"],
    [49468,"2015-12-27T23:00:00","100.7","ND","ND","ND","ND","7.09","ND","ND","ND","ND","ND","0"],
    [49469,"2015-12-28T00:00:00","102.3","ND","ND","ND","ND","4.56","ND","ND","ND","ND","ND","0"],
    [49470,"2015-12-28T01:00:00","138.9","ND","ND","ND","ND","4.57","ND","ND","ND","ND","ND","0"],
    [49471,"2015-12-28T02:00:00","89.3","ND","ND","ND","ND","3.47","ND","ND","ND","ND","ND","0"],
    [49472,"2015-12-28T03:00:00","44.3","ND","ND","ND","ND","3.82","ND","ND","ND","ND","ND","0"],
    [49473,"2015-12-28T04:00:00","25.2","ND","ND","ND","ND","2.93","ND","ND","ND","ND","ND","0"],
    [49474,"2015-12-28T05:00:00","33.6","ND","ND","ND","ND","3.39","ND","ND","ND","ND","ND","0"],
    [49475,"2015-12-28T06:00:00","83.7","ND","ND","ND","ND","3.79","ND","ND","ND","ND","ND","0"],
    [49476,"2015-12-28T07:00:00","43","ND","ND","ND","ND","5.45","ND","ND","ND","ND","ND","0"],
    [49477,"2015-12-28T08:00:00","101.3","ND","ND","ND","ND","5.88","ND","ND","ND","ND","ND","0"],
    [49478,"2015-12-28T09:00:00","88.5","ND","ND","ND","ND","2.38","ND","ND","ND","ND","ND","0"],
    [49479,"2015-12-28T10:00:00","70.1","ND","ND","ND","ND","2.89","ND","ND","ND","ND","ND","0"],
    [49480,"2015-12-28T11:00:00","41.8","ND","ND","ND","ND","1.88","ND","ND","ND","ND","ND","0"],
    [49481,"2015-12-28T12:00:00","16.2","ND","ND","ND","ND","1.24","ND","ND","ND","ND","ND","0"],
    [49482,"2015-12-28T13:00:00","34.1","ND","ND","ND","ND","1.39","ND","ND","ND","ND","ND","0"],
    [49483,"2015-12-28T14:00:00","42.3","ND","ND","ND","ND","1.30","ND","ND","ND","ND","ND","0"],
    [49484,"2015-12-28T15:00:00","37.6","ND","ND","ND","ND","1.18","ND","ND","ND","ND","ND","0"],
    [49485,"2015-12-28T16:00:00","14.7","ND","ND","ND","ND","1.27","ND","ND","ND","ND","ND","0"],
    [49486,"2015-12-28T17:00:00","18.2","ND","ND","ND","ND","1.30","ND","ND","ND","ND","ND","0"],
    [49487,"2015-12-28T18:00:00","42.2","ND","ND","ND","ND","0.88","ND","ND","ND","ND","ND","0"],
    [49488,"2015-12-28T19:00:00","90.9","ND","ND","ND","ND","0.68","ND","ND","ND","ND","ND","0"],
    [49489,"2015-12-28T20:00:00","28.8","ND","ND","ND","ND","1.24","ND","ND","ND","ND","ND","0"],
    [49490,"2015-12-28T21:00:00","34.1","ND","ND","ND","ND","2.94","ND","ND","ND","ND","ND","0"],
    [49491,"2015-12-28T22:00:00","52.8","ND","ND","ND","ND","4.84","ND","ND","ND","ND","ND","0"],
    [49492,"2015-12-28T23:00:00","61.2","ND","ND","ND","ND","4.20","ND","ND","ND","ND","ND","0"],
    [49493,"2015-12-29T00:00:00","34","ND","ND","ND","ND","2.47","ND","ND","ND","ND","ND","0"],
    [49494,"2015-12-29T01:00:00","45.8","ND","ND","ND","ND","4.60","ND","ND","ND","ND","ND","0"],
    [49495,"2015-12-29T02:00:00","69.8","ND","ND","ND","ND","3.97","ND","ND","ND","ND","ND","0"],
    [49496,"2015-12-29T03:00:00","93.7","ND","ND","ND","ND","3.25","ND","ND","ND","ND","ND","0"],
    [49497,"2015-12-29T04:00:00","57.8","ND","ND","ND","ND","2.63","ND","ND","ND","ND","ND","0"],
    [49498,"2015-12-29T05:00:00","28.3","ND","ND","ND","ND","2.43","ND","ND","ND","ND","ND","0"],
    [49499,"2015-12-29T06:00:00","39.5","ND","ND","ND","ND","2.65","ND","ND","ND","ND","ND","0"],
    [49500,"2015-12-29T07:00:00","39.4","ND","ND","ND","ND","6.58","ND","ND","ND","ND","ND","0"],
    [49501,"2015-12-29T08:00:00","81.5","ND","ND","ND","ND","7.29","ND","ND","ND","ND","ND","0"],
    [49502,"2015-12-29T09:00:00","142.4","ND","ND","ND","ND","4.85","ND","ND","ND","ND","ND","0"],
    [49503,"2015-12-29T10:00:00","76.7","ND","ND","ND","ND","3.57","ND","ND","ND","ND","ND","0"],
    [49504,"2015-12-29T11:00:00","49.1","ND","ND","ND","ND","1.34","ND","ND","ND","ND","ND","0"],
    [49505,"2015-12-29T12:00:00","31.1","ND","ND","ND","ND","1.16","ND","ND","ND","ND","ND","0"],
    [49506,"2015-12-29T13:00:00","46.1","ND","ND","ND","ND","1.92","ND","ND","ND","ND","ND","0"],
    [49507,"2015-12-29T14:00:00","49.9","ND","ND","ND","ND","2.41","ND","ND","ND","ND","ND","0"],
    [49508,"2015-12-29T15:00:00","44","ND","ND","ND","ND","1.32","ND","ND","ND","ND","ND","0"],
    [49509,"2015-12-29T16:00:00","24.5","ND","ND","ND","ND","1.90","ND","ND","ND","ND","ND","0"],
    [49510,"2015-12-29T17:00:00","15.9","ND","ND","ND","ND","1.09","ND","ND","ND","ND","ND","0"],
    [49511,"2015-12-29T18:00:00","ND","ND","ND","ND","ND","0.99","ND","ND","ND","ND","ND","0"],
    [49512,"2015-12-29T19:00:00","ND","ND","ND","ND","ND","1.05","ND","ND","ND","ND","ND","0"],
    [49513,"2015-12-29T20:00:00","5","ND","ND","ND","ND","1.39","ND","ND","ND","ND","ND","0"],
    [49514,"2015-12-29T21:00:00","36.7","ND","ND","ND","ND","3.36","ND","ND","ND","ND","ND","0"],
    [49515,"2015-12-29T22:00:00","56.6","ND","ND","ND","ND","6.90","ND","ND","ND","ND","ND","0"],
    [49516,"2015-12-29T23:00:00","91.3","ND","ND","ND","ND","8.22","ND","ND","ND","ND","ND","0"],
    [49517,"2015-12-30T00:00:00","147.2","ND","ND","ND","ND","4.82","ND","ND","ND","ND","ND","0"],
    [49518,"2015-12-30T01:00:00","76.4","ND","ND","ND","ND","8.56","ND","ND","ND","ND","ND","0"],
    [49519,"2015-12-30T02:00:00","50.4","ND","ND","ND","ND","3.42","ND","ND","ND","ND","ND","0"],
    [49520,"2015-12-30T03:00:00","34.5","ND","ND","ND","ND","2.61","ND","ND","ND","ND","ND","0"],
    [49521,"2015-12-30T04:00:00","7.7","ND","ND","ND","ND","3.08","ND","ND","ND","ND","ND","0"],
    [49522,"2015-12-30T05:00:00","56.1","ND","ND","ND","ND","5.44","ND","ND","ND","ND","ND","0"],
    [49523,"2015-12-30T06:00:00","38.3","ND","ND","ND","ND","4.89","ND","ND","ND","ND","ND","0"],
    [49524,"2015-12-30T07:00:00","35","ND","ND","ND","ND","3.36","ND","ND","ND","ND","ND","0"],
    [49525,"2015-12-30T08:00:00","84.2","ND","ND","ND","ND","4.35","ND","ND","ND","ND","ND","0"],
    [49526,"2015-12-30T09:00:00","88.3","ND","ND","ND","ND","4.80","ND","ND","ND","ND","ND","0"],
    [49527,"2015-12-30T10:00:00","55.7","ND","ND","ND","ND","3.39","ND","ND","ND","ND","ND","0"],
    [49528,"2015-12-30T11:00:00","44.2","ND","ND","ND","ND","2.24","ND","ND","ND","ND","ND","0"],
    [49529,"2015-12-30T12:00:00","24.8","ND","ND","ND","ND","1.63","ND","ND","ND","ND","ND","0"],
    [49530,"2015-12-30T13:00:00","33.7","ND","ND","ND","ND","1.95","ND","ND","ND","ND","ND","0"],
    [49531,"2015-12-30T14:00:00","59.8","ND","ND","ND","ND","1.58","ND","ND","ND","ND","ND","0"],
    [49532,"2015-12-30T15:00:00","37","ND","ND","ND","ND","1.24","ND","ND","ND","ND","ND","0"],
    [49533,"2015-12-30T16:00:00","12.7","ND","ND","ND","ND","1.59","ND","ND","ND","ND","ND","0"],
    [49534,"2015-12-30T17:00:00","12.3","ND","ND","ND","ND","1.07","ND","ND","ND","ND","ND","0"],
    [49535,"2015-12-30T18:00:00","ND","ND","ND","ND","ND","1.00","ND","ND","ND","ND","ND","0"],
    [49536,"2015-12-30T19:00:00","ND","ND","ND","ND","ND","0.95","ND","ND","ND","ND","ND","0"],
    [49537,"2015-12-30T20:00:00","ND","ND","ND","ND","ND","2.24","ND","ND","ND","ND","ND","0"],
    [49538,"2015-12-30T21:00:00","51.6","ND","ND","ND","ND","3.92","ND","ND","ND","ND","ND","0"],
    [49539,"2015-12-30T22:00:00","48.5","ND","ND","ND","ND","3.15","ND","ND","ND","ND","ND","0"],
    [49540,"2015-12-30T23:00:00","88.8","ND","ND","ND","ND","3.76","ND","ND","ND","ND","ND","0"],
    [49541,"2015-12-31T00:00:00","67.4","ND","ND","ND","ND","3.46","ND","ND","ND","ND","ND","0"],
    [49542,"2015-12-31T01:00:00","76.1","ND","ND","ND","ND","5.53","ND","ND","ND","ND","ND","0"],
    [49543,"2015-12-31T02:00:00","94.7","ND","ND","ND","ND","3.65","ND","ND","ND","ND","ND","0"],
    [49544,"2015-12-31T03:00:00","36.2","ND","ND","ND","ND","4.28","ND","ND","ND","ND","ND","0"],
    [49545,"2015-12-31T04:00:00","51.4","ND","ND","ND","ND","3.82","ND","ND","ND","ND","ND","0"],
    [49546,"2015-12-31T05:00:00","52.6","ND","ND","ND","ND","4.86","ND","ND","ND","ND","ND","0"],
    [49547,"2015-12-31T06:00:00","63.1","ND","ND","ND","ND","3.23","ND","ND","ND","ND","ND","0"],
    [49548,"2015-12-31T07:00:00","53.3","ND","ND","ND","ND","3.18","ND","ND","ND","ND","ND","0"],
    [49549,"2015-12-31T08:00:00","77.2","ND","ND","ND","ND","4.29","ND","ND","ND","ND","ND","0"],
    [49550,"2015-12-31T09:00:00","62","ND","ND","ND","ND","2.24","ND","ND","ND","ND","ND","0"],
    [49551,"2015-12-31T10:00:00","69.3","ND","ND","ND","ND","2.43","ND","ND","ND","ND","ND","0"],
    [49552,"2015-12-31T11:00:00","50.5","ND","ND","ND","ND","1.35","ND","ND","ND","ND","ND","0"],
    [49553,"2015-12-31T12:00:00","26.2","ND","ND","ND","ND","1.45","ND","ND","ND","ND","ND","0"],
    [49554,"2015-12-31T13:00:00","22.7","ND","ND","ND","ND","1.05","ND","ND","ND","ND","ND","0"],
    [49555,"2015-12-31T14:00:00","23.8","ND","ND","ND","ND","1.13","ND","ND","ND","ND","ND","0"],
    [49556,"2015-12-31T15:00:00","19.3","ND","ND","ND","ND","1.45","ND","ND","ND","ND","ND","0"],
    [49557,"2015-12-31T16:00:00","3.1","ND","ND","ND","ND","0.89","ND","ND","ND","ND","ND","0"],
    [49558,"2015-12-31T17:00:00","12","ND","ND","ND","ND","1.60","ND","ND","ND","ND","ND","0"],
    [49559,"2015-12-31T18:00:00","ND","ND","ND","ND","ND","1.07","ND","ND","ND","ND","ND","0"],
    [49560,"2015-12-31T19:00:00","5.8","ND","ND","ND","ND","1.10","ND","ND","ND","ND","ND","0"],
    [49561,"2015-12-31T20:00:00","43","ND","ND","ND","ND","1.27","ND","ND","ND","ND","ND","0"],
    [49562,"2015-12-31T21:00:00","68.3","ND","ND","ND","ND","5.53","ND","ND","ND","ND","ND","0"],
    [49563,"2015-12-31T22:00:00","57","ND","ND","ND","ND","5.16","ND","ND","ND","ND","ND","0"],
    [49564,"2015-12-31T23:00:00","73.1","ND","ND","ND","ND","5.34","ND","ND","ND","ND","ND","0"],
    [49565,"2016-01-01T00:00:00","44","ND","ND","ND","ND","4.61","ND","ND","ND","ND","ND","0"],
    [49566,"2016-01-01T01:00:00","60.6","ND","ND","ND","ND","2.5","ND","ND","ND","ND","ND","0"],
    [49567,"2016-01-01T02:00:00","40.5","ND","ND","ND","ND","2.5","ND","ND","ND","ND","ND","0"],
    [49568,"2016-01-01T03:00:00","37.1","ND","ND","ND","ND","4.1","ND","ND","ND","ND","ND","0"],
    [49569,"2016-01-01T04:00:00","67.9","ND","ND","ND","ND","3.6","ND","ND","ND","ND","ND","0"],
    [49570,"2016-01-01T05:00:00","50.5","ND","ND","ND","ND","3.1","ND","ND","ND","ND","ND","0"],
    [49571,"2016-01-01T06:00:00","37","ND","ND","ND","ND","2.8","ND","ND","ND","ND","ND","0"],
    [49572,"2016-01-01T07:00:00","28.9","ND","ND","ND","ND","3.5","ND","ND","ND","ND","ND","0"],
    [49573,"2016-01-01T08:00:00","38.1","ND","ND","ND","ND","3.1","ND","ND","ND","ND","ND","0"],
    [49574,"2016-01-01T09:00:00","83.4","ND","ND","ND","ND","3.2","ND","ND","ND","ND","ND","0"],
    [49575,"2016-01-01T10:00:00","103","ND","ND","ND","ND","3.2","ND","ND","ND","ND","ND","0"],
    [49576,"2016-01-01T11:00:00","37.8","ND","ND","ND","ND","1.6","ND","ND","ND","ND","ND","0"],
    [49577,"2016-01-01T12:00:00","15","ND","ND","ND","ND","1.1","ND","ND","ND","ND","ND","0"],
    [49578,"2016-01-01T13:00:00","22.2","ND","ND","ND","ND","1.2","ND","ND","ND","ND","ND","0"],
    [49579,"2016-01-01T14:00:00","30.3","ND","ND","ND","ND","2.4","ND","ND","ND","ND","ND","0"],
    [49580,"2016-01-01T15:00:00","1.2","ND","ND","ND","ND","1.1","ND","ND","ND","ND","ND","0"],
    [49581,"2016-01-01T16:00:00","ND","ND","ND","ND","ND","0.8","ND","ND","ND","ND","ND","0"],
    [49582,"2016-01-01T17:00:00","ND","ND","ND","ND","ND","1.4","ND","ND","ND","ND","ND","0"],
    [49583,"2016-01-01T18:00:00","7","ND","ND","ND","ND","1.0","ND","ND","ND","ND","ND","0"],
    [49584,"2016-01-01T19:00:00","1","ND","ND","ND","ND","1.4","ND","ND","ND","ND","ND","0"],
    [49585,"2016-01-01T20:00:00","28.9","ND","ND","ND","ND","1.5","ND","ND","ND","ND","ND","0"],
    [49586,"2016-01-01T21:00:00","26.7","ND","ND","ND","ND","1.4","ND","ND","ND","ND","ND","0"],
    [49587,"2016-01-01T22:00:00","71.3","ND","ND","ND","ND","1.9","ND","ND","ND","ND","ND","0"],
    [49588,"2016-01-01T23:00:00","47.4","ND","ND","ND","ND","2.1","ND","ND","ND","ND","ND","0"],
    [49589,"2016-01-02T00:00:00","46.5","ND","ND","ND","ND","2.1","ND","ND","ND","ND","ND","0"],
    [49590,"2016-01-02T01:00:00","36.7","ND","ND","ND","ND","2.0","ND","ND","ND","ND","ND","0"],
    [49591,"2016-01-02T02:00:00","64.3","ND","ND","ND","ND","2.1","ND","ND","ND","ND","ND","0"],
    [49592,"2016-01-02T03:00:00","37.8","ND","ND","ND","ND","1.6","ND","ND","ND","ND","ND","0"],
    [49593,"2016-01-02T04:00:00","12.5","ND","ND","ND","ND","1.7","ND","ND","ND","ND","ND","0"],
    [49594,"2016-01-02T05:00:00","9.5","ND","ND","ND","ND","2.4","ND","ND","ND","ND","ND","0"],
    [49595,"2016-01-02T06:00:00","12.4","ND","ND","ND","ND","1.9","ND","ND","ND","ND","ND","0.76"],
    [49596,"2016-01-02T07:00:00","60.2","ND","ND","ND","ND","3.0","ND","ND","ND","ND","ND","1.02"],
    [49597,"2016-01-02T08:00:00","55.3","ND","ND","ND","ND","2.8","ND","ND","ND","ND","ND","1.27"],
    [49598,"2016-01-02T09:00:00","33.8","ND","ND","ND","ND","2.5","ND","ND","ND","ND","ND","0.25"],
    [49599,"2016-01-02T10:00:00","35.6","ND","ND","ND","ND","5.1","ND","ND","ND","ND","ND","0"],
    [49600,"2016-01-02T11:00:00","20.6","ND","ND","ND","ND","2.7","ND","ND","ND","ND","ND","0"],
    [49601,"2016-01-02T12:00:00","18.4","ND","ND","ND","ND","1.0","ND","ND","ND","ND","ND","0"],
    [49602,"2016-01-02T13:00:00","34.8","ND","ND","ND","ND","2.1","ND","ND","ND","ND","ND","0"],
    [49603,"2016-01-02T14:00:00","4","ND","ND","ND","ND","1.3","ND","ND","ND","ND","ND","0"],
    [49604,"2016-01-02T15:00:00","ND","ND","ND","ND","ND","1.7","ND","ND","ND","ND","ND","0"],
    [49605,"2016-01-02T16:00:00","15","ND","ND","ND","ND","1.3","ND","ND","ND","ND","ND","0"],
    [49606,"2016-01-02T17:00:00","17.2","ND","ND","ND","ND","1.3","ND","ND","ND","ND","ND","0"],
    [49607,"2016-01-02T18:00:00","ND","ND","ND","ND","ND","1.4","ND","ND","ND","ND","ND","0"],
    [49608,"2016-01-02T19:00:00","ND","ND","ND","ND","ND","1.4","ND","ND","ND","ND","ND","0"],
    [49609,"2016-01-02T20:00:00","ND","ND","ND","ND","ND","0.9","ND","ND","ND","ND","ND","0"],
    [49610,"2016-01-02T21:00:00","47.5","ND","ND","ND","ND","2.8","ND","ND","ND","ND","ND","1.78"],
    [49611,"2016-01-02T22:00:00","128.8","ND","ND","ND","ND","1.9","ND","ND","ND","ND","ND","1.78"],
    [49612,"2016-01-02T23:00:00","98.6","ND","ND","ND","ND","2.6","ND","ND","ND","ND","ND","0"],
    [49613,"2016-01-03T00:00:00","44.3","ND","ND","ND","ND","5.5","ND","ND","ND","ND","ND","0"],
    [49614,"2016-01-03T01:00:00","6.6","ND","ND","ND","ND","3.5","ND","ND","ND","ND","ND","0.25"],
    [49615,"2016-01-03T02:00:00","10.7","ND","ND","ND","ND","2.5","ND","ND","ND","ND","ND","0"],
    [49616,"2016-01-03T03:00:00","1.2","ND","ND","ND","ND","1.2","ND","ND","ND","ND","ND","0"],
    [49617,"2016-01-03T04:00:00","ND","ND","ND","ND","ND","3.0","ND","ND","ND","ND","ND","0"],
    [49618,"2016-01-03T05:00:00","ND","ND","ND","ND","ND","2.6","ND","ND","ND","ND","ND","0"],
    [49619,"2016-01-03T06:00:00","13.2","ND","ND","ND","ND","4.4","ND","ND","ND","ND","ND","0"],
    [49620,"2016-01-03T07:00:00","21","ND","ND","ND","ND","6.5","ND","ND","ND","ND","ND","0"],
    [49621,"2016-01-03T08:00:00","20.3","ND","ND","ND","ND","6.9","ND","ND","ND","ND","ND","0"],
    [49622,"2016-01-03T09:00:00","57","ND","ND","ND","ND","3.9","ND","ND","ND","ND","ND","0"],
    [49623,"2016-01-03T10:00:00","34.1","ND","ND","ND","ND","1.9","ND","ND","ND","ND","ND","0"],
    [49624,"2016-01-03T11:00:00","ND","ND","ND","ND","ND","0.8","ND","ND","ND","ND","ND","0"],
    [49625,"2016-01-03T12:00:00","ND","ND","ND","ND","ND","0.9","ND","ND","ND","ND","ND","0"],
    [49626,"2016-01-03T13:00:00","ND","ND","ND","ND","ND","1.2","ND","ND","ND","ND","ND","0"],
    [49627,"2016-01-03T14:00:00","ND","ND","ND","ND","ND","1.3","ND","ND","ND","ND","ND","0"],
    [49628,"2016-01-03T15:00:00","ND","ND","ND","ND","ND","0.9","ND","ND","ND","ND","ND","0"],
    [49629,"2016-01-03T16:00:00","ND","ND","ND","ND","ND","0.9","ND","ND","ND","ND","ND","0"],
    [49630,"2016-01-03T17:00:00","ND","ND","ND","ND","ND","1.0","ND","ND","ND","ND","ND","0"],
    [49631,"2016-01-03T18:00:00","ND","ND","ND","ND","ND","0.9","ND","ND","ND","ND","ND","0"],
    [49632,"2016-01-03T19:00:00","ND","ND","ND","ND","ND","1.2","ND","ND","ND","ND","ND","0"],
    [49633,"2016-01-03T20:00:00","ND","ND","ND","ND","ND","1.0","ND","ND","ND","ND","ND","0"],
    [49634,"2016-01-03T21:00:00","38","ND","ND","ND","ND","1.8","ND","ND","ND","ND","ND","0"],
    [49635,"2016-01-03T22:00:00","161","ND","ND","ND","ND","1.1","ND","ND","ND","ND","ND","0"],
    [49636,"2016-01-03T23:00:00","91.8","ND","ND","ND","ND","0.9","ND","ND","ND","ND","ND","0.25"],
    [49637,"2016-01-04T00:00:00","61.7","ND","ND","ND","ND","2.6","ND","ND","ND","ND","ND","0"],
    [49638,"2016-01-04T01:00:00","36.1","ND","ND","ND","ND","3.6","ND","ND","ND","ND","ND","0"],
    [49639,"2016-01-04T02:00:00","ND","ND","ND","ND","ND","4.8","ND","ND","ND","ND","ND","0"],
    [49640,"2016-01-04T03:00:00","1.2","ND","ND","ND","ND","3.0","ND","ND","ND","ND","ND","0"],
    [49641,"2016-01-04T04:00:00","14.3","ND","ND","ND","ND","1.9","ND","ND","ND","ND","ND","0"],
    [49642,"2016-01-04T05:00:00","33.6","ND","ND","ND","ND","2.8","ND","ND","ND","ND","ND","1.02"],
    [49643,"2016-01-04T06:00:00","36.2","ND","ND","ND","ND","3.7","ND","ND","ND","ND","ND","2.79"],
    [49644,"2016-01-04T07:00:00","36","ND","ND","ND","ND","4.1","ND","ND","ND","ND","ND","1.02"],
    [49645,"2016-01-04T08:00:00","19.5","ND","ND","ND","ND","3.4","ND","ND","ND","ND","ND","0"],
    [49646,"2016-01-04T09:00:00","24.5","ND","ND","ND","ND","2.3","ND","ND","ND","ND","ND","0"],
    [49647,"2016-01-04T10:00:00","62.6","ND","ND","ND","ND","8.4","ND","ND","ND","ND","ND","0"],
    [49648,"2016-01-04T11:00:00","67","ND","ND","ND","ND","6.6","ND","ND","ND","ND","ND","0"],
    [49649,"2016-01-04T12:00:00","31.9","ND","ND","ND","ND","5.4","ND","ND","ND","ND","ND","0"],
    [49650,"2016-01-04T13:00:00","21.1","ND","ND","ND","ND","4.5","ND","ND","ND","ND","ND","0"],
    [49651,"2016-01-04T14:00:00","ND","ND","ND","ND","ND","2.0","ND","ND","ND","ND","ND","0"],
    [49652,"2016-01-04T15:00:00","ND","ND","ND","ND","ND","1.6","ND","ND","ND","ND","ND","0"],
    [49653,"2016-01-04T16:00:00","ND","ND","ND","ND","ND","1.6","ND","ND","ND","ND","ND","0"],
    [49654,"2016-01-04T17:00:00","10.8","ND","ND","ND","ND","2.5","ND","ND","ND","ND","ND","0"],
    [49655,"2016-01-04T18:00:00","27.6","ND","ND","ND","ND","3.9","ND","ND","ND","ND","ND","0"],
    [49656,"2016-01-04T19:00:00","ND","ND","ND","ND","ND","2.1","ND","ND","ND","ND","ND","0"],
    [49657,"2016-01-04T20:00:00","38.5","ND","ND","ND","ND","3.2","ND","ND","ND","ND","ND","0"],
    [49658,"2016-01-04T21:00:00","4.6","ND","ND","ND","ND","1.9","ND","ND","ND","ND","ND","0"],
    [49659,"2016-01-04T22:00:00","32.7","ND","ND","ND","ND","3.8","ND","ND","ND","ND","ND","0"],
    [49660,"2016-01-04T23:00:00","88.6","ND","ND","ND","ND","9.8","ND","ND","ND","ND","ND","0"],
    [49661,"2016-01-05T00:00:00","118.9","ND","ND","ND","ND","5.7","ND","ND","ND","ND","ND","0"],
    [49662,"2016-01-05T01:00:00","112.1","ND","ND","ND","ND","3.9","ND","ND","ND","ND","ND","0"],
    [49663,"2016-01-05T02:00:00","78.2","ND","ND","ND","ND","2.7","ND","ND","ND","ND","ND","0"],
    [49664,"2016-01-05T03:00:00","68.2","ND","ND","ND","ND","2.3","ND","ND","ND","ND","ND","0"],
    [49665,"2016-01-05T04:00:00","31.3","ND","ND","ND","ND","2.0","ND","ND","ND","ND","ND","0"],
    [49666,"2016-01-05T05:00:00","24.3","ND","ND","ND","ND","2.4","ND","ND","ND","ND","ND","0"],
    [49667,"2016-01-05T06:00:00","66.1","ND","ND","ND","ND","3.7","ND","ND","ND","ND","ND","0"],
    [49668,"2016-01-05T07:00:00","62.9","ND","ND","ND","ND","2.0","ND","ND","ND","ND","ND","0"],
    [49669,"2016-01-05T08:00:00","73.6","ND","ND","ND","ND","8.5","ND","ND","ND","ND","ND","0"],
    [49670,"2016-01-05T09:00:00","50.9","ND","ND","ND","ND","3.5","ND","ND","ND","ND","ND","0"],
    [49671,"2016-01-05T10:00:00","46.8","ND","ND","ND","ND","2.0","ND","ND","ND","ND","ND","0"],
    [49672,"2016-01-05T11:00:00","29.5","ND","ND","ND","ND","0.8","ND","ND","ND","ND","ND","0"],
    [49673,"2016-01-05T12:00:00","15","ND","ND","ND","ND","1.0","ND","ND","ND","ND","ND","0"],
    [49674,"2016-01-05T13:00:00","15.7","ND","ND","ND","ND","2.1","ND","ND","ND","ND","ND","0"],
    [49675,"2016-01-05T14:00:00","12.2","ND","ND","ND","ND","2.0","ND","ND","ND","ND","ND","0"],
    [49676,"2016-01-05T15:00:00","22.3","ND","ND","ND","ND","2.5","ND","ND","ND","ND","ND","0"],
    [49677,"2016-01-05T16:00:00","6.4","ND","ND","ND","ND","0.7","ND","ND","ND","ND","ND","0"],
    [49678,"2016-01-05T17:00:00","25.1","ND","ND","ND","ND","0.9","ND","ND","ND","ND","ND","0"],
    [49679,"2016-01-05T18:00:00","ND","ND","ND","ND","ND","1.6","ND","ND","ND","ND","ND","0"],
    [49680,"2016-01-05T19:00:00","ND","ND","ND","ND","ND","1.2","ND","ND","ND","ND","ND","0"],
    [49681,"2016-01-05T20:00:00","42.6","ND","ND","ND","ND","0.8","ND","ND","ND","ND","ND","0"],
    [49682,"2016-01-05T21:00:00","85.4","ND","ND","ND","ND","2.4","ND","ND","ND","ND","ND","0"],
    [49683,"2016-01-05T22:00:00","106.4","ND","ND","ND","ND","2.1","ND","ND","ND","ND","ND","0"],
    [49684,"2016-01-05T23:00:00","86.1","ND","ND","ND","ND","4.4","ND","ND","ND","ND","ND","0"],
    [49685,"2016-01-06T00:00:00","82.3","ND","ND","ND","ND","2.7","ND","ND","ND","ND","ND","0"],
    [49686,"2016-01-06T01:00:00","82","ND","ND","ND","ND","2.4","ND","ND","ND","ND","ND","0"],
    [49687,"2016-01-06T02:00:00","51.1","ND","ND","ND","ND","3.5","ND","ND","ND","ND","ND","0"],
    [49688,"2016-01-06T03:00:00","29.3","ND","ND","ND","ND","2.3","ND","ND","ND","ND","ND","0"],
    [49689,"2016-01-06T04:00:00","21.7","ND","ND","ND","ND","2.9","ND","ND","ND","ND","ND","0.25"],
    [49690,"2016-01-06T05:00:00","22.9","ND","ND","ND","ND","3.6","ND","ND","ND","ND","ND","7.87"],
    [49691,"2016-01-06T06:00:00","30.3","ND","ND","ND","ND","3.7","ND","ND","ND","ND","ND","0.76"],
    [49692,"2016-01-06T07:00:00","22.1","ND","ND","ND","ND","3.9","ND","ND","ND","ND","ND","0"],
    [49693,"2016-01-06T08:00:00","25.7","ND","ND","ND","ND","3.6","ND","ND","ND","ND","ND","0.25"],
    [49694,"2016-01-06T09:00:00","22.4","ND","ND","ND","ND","2.1","ND","ND","ND","ND","ND","0.25"],
    [49695,"2016-01-06T10:00:00","20.6","ND","ND","ND","ND","2.1","ND","ND","ND","ND","ND","0"],
    [49696,"2016-01-06T11:00:00","16.6","ND","ND","ND","ND","1.8","ND","ND","ND","ND","ND","0"],
    [49697,"2016-01-06T12:00:00","26.3","ND","ND","ND","ND","2.0","ND","ND","ND","ND","ND","0"],
    [49698,"2016-01-06T13:00:00","33.7","ND","ND","ND","ND","1.4","ND","ND","ND","ND","ND","0"],
    [49699,"2016-01-06T14:00:00","18.5","ND","ND","ND","ND","1.7","ND","ND","ND","ND","ND","0"],
    [49700,"2016-01-06T15:00:00","20.4","ND","ND","ND","ND","1.2","ND","ND","ND","ND","ND","0"],
    [49701,"2016-01-06T16:00:00","22.5","ND","ND","ND","ND","3.0","ND","ND","ND","ND","ND","0"],
    [49702,"2016-01-06T17:00:00","11.7","ND","ND","ND","ND","1.0","ND","ND","ND","ND","ND","0"],
    [49703,"2016-01-06T18:00:00","ND","ND","ND","ND","ND","0.8","ND","ND","ND","ND","ND","0"],
    [49704,"2016-01-06T19:00:00","ND","ND","ND","ND","ND","0.9","ND","ND","ND","ND","ND","0"],
    [49705,"2016-01-06T20:00:00","23.3","ND","ND","ND","ND","1.5","ND","ND","ND","ND","ND","0"],
    [49706,"2016-01-06T21:00:00","50.8","ND","ND","ND","ND","2.0","ND","ND","ND","ND","ND","0"],
    [49707,"2016-01-06T22:00:00","53","ND","ND","ND","ND","3.2","ND","ND","ND","ND","ND","0"],
    [49708,"2016-01-06T23:00:00","47.6","ND","ND","ND","ND","4.5","ND","ND","ND","ND","ND","0"],
    [49709,"2016-01-07T00:00:00","77.8","ND","ND","ND","ND","6.4","ND","ND","ND","ND","ND","0"],
    [49710,"2016-01-07T01:00:00","77.5","ND","ND","ND","ND","3.4","ND","ND","ND","ND","ND","0"],
    [49711,"2016-01-07T02:00:00","60.1","ND","ND","ND","ND","5.5","ND","ND","ND","ND","ND","0"],
    [49712,"2016-01-07T03:00:00","40","ND","ND","ND","ND","4.5","ND","ND","ND","ND","ND","0"],
    [49713,"2016-01-07T04:00:00","22.4","ND","ND","ND","ND","2.5","ND","ND","ND","ND","ND","0"],
    [49714,"2016-01-07T05:00:00","22.1","ND","ND","ND","ND","1.0","ND","ND","ND","ND","ND","0"],
    [49715,"2016-01-07T06:00:00","23.9","ND","ND","ND","ND","1.7","ND","ND","ND","ND","ND","0"],
    [49716,"2016-01-07T07:00:00","21.9","ND","ND","ND","ND","2.0","ND","ND","ND","ND","ND","0"],
    [49717,"2016-01-07T08:00:00","30.3","ND","ND","ND","ND","0.9","ND","ND","ND","ND","ND","0"],
    [49718,"2016-01-07T09:00:00","46.7","ND","ND","ND","ND","3.8","ND","ND","ND","ND","ND","0"],
    [49719,"2016-01-07T10:00:00","55.9","ND","ND","ND","ND","1.9","ND","ND","ND","ND","ND","0"],
    [49720,"2016-01-07T11:00:00","27.8","ND","ND","ND","ND","0.8","ND","ND","ND","ND","ND","0"],
    [49721,"2016-01-07T12:00:00","13.9","ND","ND","ND","ND","1.4","ND","ND","ND","ND","ND","0"],
    [49722,"2016-01-07T13:00:00","12.5","ND","ND","ND","ND","1.1","ND","ND","ND","ND","ND","0"],
    [49723,"2016-01-07T14:00:00","16.6","ND","ND","ND","ND","1.5","ND","ND","ND","ND","ND","0"],
    [49724,"2016-01-07T15:00:00","30.3","ND","ND","ND","ND","1.1","ND","ND","ND","ND","ND","0"],
    [49725,"2016-01-07T16:00:00","6.6","ND","ND","ND","ND","1.0","ND","ND","ND","ND","ND","0"],
    [49726,"2016-01-07T17:00:00","20.1","ND","ND","ND","ND","0.7","ND","ND","ND","ND","ND","0"],
    [49727,"2016-01-07T18:00:00","ND","ND","ND","ND","ND","0.9","ND","ND","ND","ND","ND","0"],
    [49728,"2016-01-07T19:00:00","ND","ND","ND","ND","ND","1.2","ND","ND","ND","ND","ND","0"],
    [49729,"2016-01-07T20:00:00","16.9","ND","ND","ND","ND","1.7","ND","ND","ND","ND","ND","0"],
    [49730,"2016-01-07T21:00:00","58.7","ND","ND","ND","ND","1.3","ND","ND","ND","ND","ND","0"],
    [49731,"2016-01-07T22:00:00","59.3","ND","ND","ND","ND","5.9","ND","ND","ND","ND","ND","0"],
    [49732,"2016-01-07T23:00:00","66.4","ND","ND","ND","ND","2.7","ND","ND","ND","ND","ND","0"],
    [49733,"2016-01-08T00:00:00","55.9","ND","ND","ND","ND","2.6","ND","ND","ND","ND","ND","0"],
    [49734,"2016-01-08T01:00:00","54.4","ND","ND","ND","ND","3.1","ND","ND","ND","ND","ND","0"],
    [49735,"2016-01-08T02:00:00","10.3","ND","ND","ND","ND","2.1","ND","ND","ND","ND","ND","0"],
    [49736,"2016-01-08T03:00:00","1.5","ND","ND","ND","ND","2.6","ND","ND","ND","ND","ND","0"],
    [49737,"2016-01-08T04:00:00","18.4","ND","ND","ND","ND","2.5","ND","ND","ND","ND","ND","0"],
    [49738,"2016-01-08T05:00:00","28.3","ND","ND","ND","ND","4.7","ND","ND","ND","ND","ND","0"],
    [49739,"2016-01-08T06:00:00","46.8","ND","ND","ND","ND","2.9","ND","ND","ND","ND","ND","0"],
    [49740,"2016-01-08T07:00:00","43","ND","ND","ND","ND","3.2","ND","ND","ND","ND","ND","0"],
    [49741,"2016-01-08T08:00:00","42.1","ND","ND","ND","ND","2.4","ND","ND","ND","ND","ND","0"],
    [49742,"2016-01-08T09:00:00","59.2","ND","ND","ND","ND","3.0","ND","ND","ND","ND","ND","0"],
    [49743,"2016-01-08T10:00:00","67.5","ND","ND","ND","ND","4.1","ND","ND","ND","ND","ND","0"],
    [49744,"2016-01-08T11:00:00","52.6","ND","ND","ND","ND","2.5","ND","ND","ND","ND","ND","0"],
    [49745,"2016-01-08T12:00:00","20","ND","ND","ND","ND","2.8","ND","ND","ND","ND","ND","0"],
    [49746,"2016-01-08T13:00:00","44.8","ND","ND","ND","ND","2.5","ND","ND","ND","ND","ND","0"],
    [49747,"2016-01-08T14:00:00","35.7","ND","ND","ND","ND","1.7","ND","ND","ND","ND","ND","0"],
    [49748,"2016-01-08T15:00:00","7.5","ND","ND","ND","ND","1.7","ND","ND","ND","ND","ND","0"],
    [49749,"2016-01-08T16:00:00","10.5","ND","ND","ND","ND","1.2","ND","ND","ND","ND","ND","0"],
    [49750,"2016-01-08T17:00:00","ND","ND","ND","ND","ND","1.1","ND","ND","ND","ND","ND","0"],
    [49751,"2016-01-08T18:00:00","ND","ND","ND","ND","ND","0.9","ND","ND","ND","ND","ND","0"],
    [49752,"2016-01-08T19:00:00","ND","ND","ND","ND","ND","1.4","ND","ND","ND","ND","ND","0"],
    [49753,"2016-01-08T20:00:00","1.3","ND","ND","ND","ND","1.5","ND","ND","ND","ND","ND","0"],
    [49754,"2016-01-08T21:00:00","37.7","ND","ND","ND","ND","2.3","ND","ND","ND","ND","ND","0"],
    [49755,"2016-01-08T22:00:00","61.2","ND","ND","ND","ND","2.9","ND","ND","ND","ND","ND","0"],
    [49756,"2016-01-08T23:00:00","66.4","ND","ND","ND","ND","2.3","ND","ND","ND","ND","ND","0"],
    [49757,"2016-01-09T00:00:00","73.8","ND","ND","ND","ND","3.1","ND","ND","ND","ND","ND","0"],
    [49758,"2016-01-09T01:00:00","78.8","ND","ND","ND","ND","2.4","ND","ND","ND","ND","ND","0"],
    [49759,"2016-01-09T02:00:00","82.6","ND","ND","ND","ND","3.2","ND","ND","ND","ND","ND","0"],
    [49760,"2016-01-09T03:00:00","50.3","ND","ND","ND","ND","4.5","ND","ND","ND","ND","ND","0"],
    [49761,"2016-01-09T04:00:00","35.5","ND","ND","ND","ND","3.3","ND","ND","ND","ND","ND","0"],
    [49762,"2016-01-09T05:00:00","31.1","ND","ND","ND","ND","2.0","ND","ND","ND","ND","ND","0"],
    [49763,"2016-01-09T06:00:00","41.5","ND","ND","ND","ND","2.0","ND","ND","ND","ND","ND","0"],
    [49764,"2016-01-09T07:00:00","18.5","ND","ND","ND","ND","1.5","ND","ND","ND","ND","ND","0"],
    [49765,"2016-01-09T08:00:00","27.2","ND","ND","ND","ND","1.3","ND","ND","ND","ND","ND","0"],
    [49766,"2016-01-09T09:00:00","44.3","ND","ND","ND","ND","0.9","ND","ND","ND","ND","ND","0"],
    [49767,"2016-01-09T10:00:00","36.6","ND","ND","ND","ND","1.1","ND","ND","ND","ND","ND","0"],
    [49768,"2016-01-09T11:00:00","24.9","ND","ND","ND","ND","1.4","ND","ND","ND","ND","ND","0"],
    [49769,"2016-01-09T12:00:00","17.1","ND","ND","ND","ND","1.1","ND","ND","ND","ND","ND","0"],
    [49770,"2016-01-09T13:00:00","22.5","ND","ND","ND","ND","1.3","ND","ND","ND","ND","ND","0"],
    [49771,"2016-01-09T14:00:00","17.6","ND","ND","ND","ND","0.9","ND","ND","ND","ND","ND","0"],
    [49772,"2016-01-09T15:00:00","7.2","ND","ND","ND","ND","1.3","ND","ND","ND","ND","ND","0"],
    [49773,"2016-01-09T16:00:00","19.9","ND","ND","ND","ND","1.3","ND","ND","ND","ND","ND","0"],
    [49774,"2016-01-09T17:00:00","11.9","ND","ND","ND","ND","1.0","ND","ND","ND","ND","ND","0"],
    [49775,"2016-01-09T18:00:00","4.1","ND","ND","ND","ND","1.3","ND","ND","ND","ND","ND","0"],
    [49776,"2016-01-09T19:00:00","ND","ND","ND","ND","ND","0.5","ND","ND","ND","ND","ND","0"],
    [49777,"2016-01-09T20:00:00","26.4","ND","ND","ND","ND","3.7","ND","ND","ND","ND","ND","0"],
    [49778,"2016-01-09T21:00:00","78.8","ND","ND","ND","ND","2.6","ND","ND","ND","ND","ND","0"],
    [49779,"2016-01-09T22:00:00","44","ND","ND","ND","ND","1.3","ND","ND","ND","ND","ND","0"],
    [49780,"2016-01-09T23:00:00","31.8","ND","ND","ND","ND","0.8","ND","ND","ND","ND","ND","0"],
    [49781,"2016-01-10T00:00:00","31.1","ND","ND","ND","ND","5.0","ND","ND","ND","ND","ND","0"],
    [49782,"2016-01-10T01:00:00","68","ND","ND","ND","ND","5.3","ND","ND","ND","ND","ND","0"],
    [49783,"2016-01-10T02:00:00","80.4","ND","ND","ND","ND","3.6","ND","ND","ND","ND","ND","0"],
    [49784,"2016-01-10T03:00:00","45.6","ND","ND","ND","ND","3.7","ND","ND","ND","ND","ND","0"],
    [49785,"2016-01-10T04:00:00","20.3","ND","ND","ND","ND","4.1","ND","ND","ND","ND","ND","0"],
    [49786,"2016-01-10T05:00:00","22.7","ND","ND","ND","ND","3.0","ND","ND","ND","ND","ND","0"],
    [49787,"2016-01-10T06:00:00","11.7","ND","ND","ND","ND","2.9","ND","ND","ND","ND","ND","0"],
    [49788,"2016-01-10T07:00:00","31.6","ND","ND","ND","ND","2.4","ND","ND","ND","ND","ND","0"],
    [49789,"2016-01-10T08:00:00","35.5","ND","ND","ND","ND","2.4","ND","ND","ND","ND","ND","0"],
    [49790,"2016-01-10T09:00:00","53.9","ND","ND","ND","ND","1.1","ND","ND","ND","ND","ND","0"],
    [49791,"2016-01-10T10:00:00","28.4","ND","ND","ND","ND","1.3","ND","ND","ND","ND","ND","0"],
    [49792,"2016-01-10T11:00:00","1.8","ND","ND","ND","ND","1.6","ND","ND","ND","ND","ND","0.51"],
    [49793,"2016-01-10T12:00:00","6.8","ND","ND","ND","ND","0.7","ND","ND","ND","ND","ND","0"],
    [49794,"2016-01-10T13:00:00","4.2","ND","ND","ND","ND","1.4","ND","ND","ND","ND","ND","0"],
    [49795,"2016-01-10T14:00:00","16.5","ND","ND","ND","ND","1.2","ND","ND","ND","ND","ND","0"],
    [49796,"2016-01-10T15:00:00","7.5","ND","ND","ND","ND","1.6","ND","ND","ND","ND","ND","0"],
    [49797,"2016-01-10T16:00:00","7.4","ND","ND","ND","ND","0.9","ND","ND","ND","ND","ND","0"],
    [49798,"2016-01-10T17:00:00","7.8","ND","ND","ND","ND","1.1","ND","ND","ND","ND","ND","0"],
    [49799,"2016-01-10T18:00:00","ND","ND","ND","ND","ND","0.9","ND","ND","ND","ND","ND","0"],
    [49800,"2016-01-10T19:00:00","5.3","ND","ND","ND","ND","1.5","ND","ND","ND","ND","ND","0"],
    [49801,"2016-01-10T20:00:00","56.2","ND","ND","ND","ND","2.1","ND","ND","ND","ND","ND","0"],
    [49802,"2016-01-10T21:00:00","58.2","ND","ND","ND","ND","1.5","ND","ND","ND","ND","ND","0"],
    [49803,"2016-01-10T22:00:00","30.1","ND","ND","ND","ND","1.3","ND","ND","ND","ND","ND","0"],
    [49804,"2016-01-10T23:00:00","24.1","ND","ND","ND","ND","1.0","ND","ND","ND","ND","ND","0"],
    [49805,"2016-01-11T00:00:00","29","ND","ND","ND","ND","1.5","ND","ND","ND","ND","ND","0"],
    [49806,"2016-01-11T01:00:00","17.5","ND","ND","ND","ND","1.1","ND","ND","ND","ND","ND","0"],
    [49807,"2016-01-11T02:00:00","ND","ND","ND","ND","ND","2.4","ND","ND","ND","ND","ND","0"],
    [49808,"2016-01-11T03:00:00","18","ND","ND","ND","ND","6.6","ND","ND","ND","ND","ND","0"],
    [49809,"2016-01-11T04:00:00","63","ND","ND","ND","ND","2.6","ND","ND","ND","ND","ND","0"],
    [49810,"2016-01-11T05:00:00","58.8","ND","ND","ND","ND","2.9","ND","ND","ND","ND","ND","0"],
    [49811,"2016-01-11T06:00:00","34.3","ND","ND","ND","ND","1.2","ND","ND","ND","ND","ND","0"],
    [49812,"2016-01-11T07:00:00","24","ND","ND","ND","ND","0.8","ND","ND","ND","ND","ND","0"],
    [49813,"2016-01-11T08:00:00","27.7","ND","ND","ND","ND","1.7","ND","ND","ND","ND","ND","0"],
    [49814,"2016-01-11T09:00:00","13.6","ND","ND","ND","ND","2.3","ND","ND","ND","ND","ND","0"],
    [49815,"2016-01-11T10:00:00","23.5","ND","ND","ND","ND","0.8","ND","ND","ND","ND","ND","0"],
    [49816,"2016-01-11T11:00:00","19.5","ND","ND","ND","ND","1.6","ND","ND","ND","ND","ND","0"],
    [49817,"2016-01-11T12:00:00","20.3","ND","ND","ND","ND","1.4","ND","ND","ND","ND","ND","0"],
    [49818,"2016-01-11T13:00:00","ND","ND","ND","ND","ND","1.0","ND","ND","ND","ND","ND","0"],
    [49819,"2016-01-11T14:00:00","ND","ND","ND","ND","ND","1.2","ND","ND","ND","ND","ND","0"],
    [49820,"2016-01-11T15:00:00","ND","ND","ND","ND","ND","1.3","ND","ND","ND","ND","ND","0"],
    [49821,"2016-01-11T16:00:00","ND","ND","ND","ND","ND","0.8","ND","ND","ND","ND","ND","0"],
    [49822,"2016-01-11T17:00:00","ND","ND","ND","ND","ND","1.1","ND","ND","ND","ND","ND","0"],
    [49823,"2016-01-11T18:00:00","ND","ND","ND","ND","ND","1.0","ND","ND","ND","ND","ND","0"],
    [49824,"2016-01-11T19:00:00","ND","ND","ND","ND","ND","2.0","ND","ND","ND","ND","ND","0"],
    [49825,"2016-01-11T20:00:00","22.6","ND","ND","ND","ND","2.0","ND","ND","ND","ND","ND","0"],
    [49826,"2016-01-11T21:00:00","25.9","ND","ND","ND","ND","1.3","ND","ND","ND","ND","ND","0"],
    [49827,"2016-01-11T22:00:00","23.9","ND","ND","ND","ND","3.6","ND","ND","ND","ND","ND","0"],
    [49828,"2016-01-11T23:00:00","59.1","ND","ND","ND","ND","2.2","ND","ND","ND","ND","ND","0"],
    [49829,"2016-01-12T00:00:00","99.9","ND","ND","ND","ND","1.3","ND","ND","ND","ND","ND","0"],
    [49830,"2016-01-12T01:00:00","117.1","ND","ND","ND","ND","1.0","ND","ND","ND","ND","ND","0"],
    [49831,"2016-01-12T02:00:00","63.4","ND","ND","ND","ND","1.4","ND","ND","ND","ND","ND","0"],
    [49832,"2016-01-12T03:00:00","29.8","ND","ND","ND","ND","1.0","ND","ND","ND","ND","ND","0"],
    [49833,"2016-01-12T04:00:00","33.5","ND","ND","ND","ND","1.5","ND","ND","ND","ND","ND","0"],
    [49834,"2016-01-12T05:00:00","16.6","ND","ND","ND","ND","1.9","ND","ND","ND","ND","ND","0"],
    [49835,"2016-01-12T06:00:00","41.7","ND","ND","ND","ND","4.3","ND","ND","ND","ND","ND","0"],
    [49836,"2016-01-12T07:00:00","42.4","ND","ND","ND","ND","3.5","ND","ND","ND","ND","ND","0"],
    [49837,"2016-01-12T08:00:00","41.5","ND","ND","ND","ND","3.9","ND","ND","ND","ND","ND","0"],
    [49838,"2016-01-12T09:00:00","90","ND","ND","ND","ND","3.8","ND","ND","ND","ND","ND","0"],
    [49839,"2016-01-12T10:00:00","38.8","ND","ND","ND","ND","1.3","ND","ND","ND","ND","ND","0"],
    [49840,"2016-01-12T11:00:00","8.8","ND","ND","ND","ND","1.2","ND","ND","ND","ND","ND","0"],
    [49841,"2016-01-12T12:00:00","8.7","ND","ND","ND","ND","1.2","ND","ND","ND","ND","ND","0"],
    [49842,"2016-01-12T13:00:00","31","ND","ND","ND","ND","1.1","ND","ND","ND","ND","ND","0"],
    [49843,"2016-01-12T14:00:00","26.9","ND","ND","ND","ND","0.8","ND","ND","ND","ND","ND","0"],
    [49844,"2016-01-12T15:00:00","24.1","ND","ND","ND","ND","1.5","ND","ND","ND","ND","ND","0"],
    [49845,"2016-01-12T16:00:00","25.3","ND","ND","ND","ND","1.6","ND","ND","ND","ND","ND","0"],
    [49846,"2016-01-12T17:00:00","18.3","ND","ND","ND","ND","1.2","ND","ND","ND","ND","ND","0"],
    [49847,"2016-01-12T18:00:00","4.9","ND","ND","ND","ND","1.1","ND","ND","ND","ND","ND","0"],
    [49848,"2016-01-12T19:00:00","ND","ND","ND","ND","ND","1.1","ND","ND","ND","ND","ND","0"],
    [49849,"2016-01-12T20:00:00","ND","ND","ND","ND","ND","1.5","ND","ND","ND","ND","ND","0"],
    [49850,"2016-01-12T21:00:00","30.5","ND","ND","ND","ND","1.5","ND","ND","ND","ND","ND","0"],
    [49851,"2016-01-12T22:00:00","84.7","ND","ND","ND","ND","3.4","ND","ND","ND","ND","ND","0"],
    [49852,"2016-01-12T23:00:00","69.7","ND","ND","ND","ND","6.4","ND","ND","ND","ND","ND","0"],
    [49853,"2016-01-13T00:00:00","49.8","ND","ND","ND","ND","5.8","ND","ND","ND","ND","ND","0"],
    [49854,"2016-01-13T01:00:00","80.6","ND","ND","ND","ND","3.8","ND","ND","ND","ND","ND","0"],
    [49855,"2016-01-13T02:00:00","118.6","ND","ND","ND","ND","5.1","ND","ND","ND","ND","ND","0"],
    [49856,"2016-01-13T03:00:00","54.6","ND","ND","ND","ND","6.2","ND","ND","ND","ND","ND","0"],
    [49857,"2016-01-13T04:00:00","28.6","ND","ND","ND","ND","4.9","ND","ND","ND","ND","ND","0"],
    [49858,"2016-01-13T05:00:00","27.3","ND","ND","ND","ND","4.1","ND","ND","ND","ND","ND","0"],
    [49859,"2016-01-13T06:00:00","39.9","ND","ND","ND","ND","4.8","ND","ND","ND","ND","ND","0"],
    [49860,"2016-01-13T07:00:00","35.3","ND","ND","ND","ND","2.2","ND","ND","ND","ND","ND","0"],
    [49861,"2016-01-13T08:00:00","41.4","ND","ND","ND","ND","3.8","ND","ND","ND","ND","ND","0"],
    [49862,"2016-01-13T09:00:00","67.3","ND","ND","ND","ND","3.8","ND","ND","ND","ND","ND","0"],
    [49863,"2016-01-13T10:00:00","61.9","ND","ND","ND","ND","2.9","ND","ND","ND","ND","ND","0"],
    [49864,"2016-01-13T11:00:00","25.5","ND","ND","ND","ND","2.3","ND","ND","ND","ND","ND","0"],
    [49865,"2016-01-13T12:00:00","29.1","ND","ND","ND","ND","1.8","ND","ND","ND","ND","ND","0"],
    [49866,"2016-01-13T13:00:00","22.8","ND","ND","ND","ND","1.2","ND","ND","ND","ND","ND","0"],
    [49867,"2016-01-13T14:00:00","10","ND","ND","ND","ND","1.8","ND","ND","ND","ND","ND","0"],
    [49868,"2016-01-13T15:00:00","25.9","ND","ND","ND","ND","1.5","ND","ND","ND","ND","ND","0"],
    [49869,"2016-01-13T16:00:00","3","ND","ND","ND","ND","1.3","ND","ND","ND","ND","ND","0"],
    [49870,"2016-01-13T17:00:00","ND","ND","ND","ND","ND","1.1","ND","ND","ND","ND","ND","0"],
    [49871,"2016-01-13T18:00:00","ND","ND","ND","ND","ND","1.5","ND","ND","ND","ND","ND","0"],
    [49872,"2016-01-13T19:00:00","ND","ND","ND","ND","ND","1.3","ND","ND","ND","ND","ND","0"],
    [49873,"2016-01-13T20:00:00","20.3","ND","ND","ND","ND","2.3","ND","ND","ND","ND","ND","0"],
    [49874,"2016-01-13T21:00:00","87.4","ND","ND","ND","ND","1.4","ND","ND","ND","ND","ND","0"],
    [49875,"2016-01-13T22:00:00","90","ND","ND","ND","ND","3.7","ND","ND","ND","ND","ND","0"],
    [49876,"2016-01-13T23:00:00","105.5","ND","ND","ND","ND","3.2","ND","ND","ND","ND","ND","0"],
    [49877,"2016-01-14T00:00:00","85.2","ND","ND","ND","ND","3.1","ND","ND","ND","ND","ND","0"],
    [49878,"2016-01-14T01:00:00","68.6","ND","ND","ND","ND","2.8","ND","ND","ND","ND","ND","0"],
    [49879,"2016-01-14T02:00:00","61.8","ND","ND","ND","ND","3.6","ND","ND","ND","ND","ND","0"],
    [49880,"2016-01-14T03:00:00","45.3","ND","ND","ND","ND","5.0","ND","ND","ND","ND","ND","0"],
    [49881,"2016-01-14T04:00:00","40","ND","ND","ND","ND","2.1","ND","ND","ND","ND","ND","0"],
    [49882,"2016-01-14T05:00:00","12.3","ND","ND","ND","ND","2.8","ND","ND","ND","ND","ND","0"],
    [49883,"2016-01-14T06:00:00","49.4","ND","ND","ND","ND","3.3","ND","ND","ND","ND","ND","0"],
    [49884,"2016-01-14T07:00:00","76","ND","ND","ND","ND","4.4","ND","ND","ND","ND","ND","0"],
    [49885,"2016-01-14T08:00:00","56.8","ND","ND","ND","ND","4.2","ND","ND","ND","ND","ND","0"],
    [49886,"2016-01-14T09:00:00","62.2","ND","ND","ND","ND","2.5","ND","ND","ND","ND","ND","0"],
    [49887,"2016-01-14T10:00:00","63.1","ND","ND","ND","ND","1.8","ND","ND","ND","ND","ND","0"],
    [49888,"2016-01-14T11:00:00","57.9","ND","ND","ND","ND","1.4","ND","ND","ND","ND","ND","0"],
    [49889,"2016-01-14T12:00:00","32.2","ND","ND","ND","ND","1.6","ND","ND","ND","ND","ND","0"],
    [49890,"2016-01-14T13:00:00","19.9","ND","ND","ND","ND","1.6","ND","ND","ND","ND","ND","0"],
    [49891,"2016-01-14T14:00:00","42.1","ND","ND","ND","ND","1.4","ND","ND","ND","ND","ND","0"],
    [49892,"2016-01-14T15:00:00","51.1","ND","ND","ND","ND","1.8","ND","ND","ND","ND","ND","0"],
    [49893,"2016-01-14T16:00:00","15.6","ND","ND","ND","ND","1.4","ND","ND","ND","ND","ND","0"],
    [49894,"2016-01-14T17:00:00","15.9","ND","ND","ND","ND","1.7","ND","ND","ND","ND","ND","0"],
    [49895,"2016-01-14T18:00:00","ND","ND","ND","ND","ND","1.5","ND","ND","ND","ND","ND","0"],
    [49896,"2016-01-14T19:00:00","ND","ND","ND","ND","ND","1.2","ND","ND","ND","ND","ND","0"],
    [49897,"2016-01-14T20:00:00","29.8","ND","ND","ND","ND","1.0","ND","ND","ND","ND","ND","0"],
    [49898,"2016-01-14T21:00:00","53.4","ND","ND","ND","ND","1.3","ND","ND","ND","ND","ND","0"],
    [49899,"2016-01-14T22:00:00","78.6","ND","ND","ND","ND","10.6","ND","ND","ND","ND","ND","0"],
    [49900,"2016-01-14T23:00:00","69","ND","ND","ND","ND","4.1","ND","ND","ND","ND","ND","0"],
    [49901,"2016-01-15T00:00:00","47.3","ND","ND","ND","ND","2.7","ND","ND","ND","ND","ND","0"],
    [49902,"2016-01-15T01:00:00","29.1","ND","ND","ND","ND","2.0","ND","ND","ND","ND","ND","0"],
    [49903,"2016-01-15T02:00:00","ND","ND","ND","ND","ND","2.0","ND","ND","ND","ND","ND","0"],
    [49904,"2016-01-15T03:00:00","25.1","ND","ND","ND","ND","2.1","ND","ND","ND","ND","ND","0"],
    [49905,"2016-01-15T04:00:00","43.8","ND","ND","ND","ND","2.3","ND","ND","ND","ND","ND","0"],
    [49906,"2016-01-15T05:00:00","38.3","ND","ND","ND","ND","7.8","ND","ND","ND","ND","ND","0"],
    [49907,"2016-01-15T06:00:00","51.8","ND","ND","ND","ND","7.0","ND","ND","ND","ND","ND","0"],
    [49908,"2016-01-15T07:00:00","42.6","ND","ND","ND","ND","10.9","ND","ND","ND","ND","ND","0"],
    [49909,"2016-01-15T08:00:00","75.6","ND","ND","ND","ND","9.1","ND","ND","ND","ND","ND","0"],
    [49910,"2016-01-15T09:00:00","95","ND","ND","ND","ND","4.9","ND","ND","ND","ND","ND","0"],
    [49911,"2016-01-15T10:00:00","74.4","ND","ND","ND","ND","2.4","ND","ND","ND","ND","ND","0"],
    [49912,"2016-01-15T11:00:00","30.5","ND","ND","ND","ND","1.4","ND","ND","ND","ND","ND","0"],
    [49913,"2016-01-15T12:00:00","31.1","ND","ND","ND","ND","1.4","ND","ND","ND","ND","ND","0"],
    [49914,"2016-01-15T13:00:00","41.3","ND","ND","ND","ND","1.6","ND","ND","ND","ND","ND","0"],
    [49915,"2016-01-15T14:00:00","23.6","ND","ND","ND","ND","1.1","ND","ND","ND","ND","ND","0"],
    [49916,"2016-01-15T15:00:00","32.2","ND","ND","ND","ND","1.4","ND","ND","ND","ND","ND","0"],
    [49917,"2016-01-15T16:00:00","52.7","ND","ND","ND","ND","1.4","ND","ND","ND","ND","ND","0"],
    [49918,"2016-01-15T17:00:00","45.6","ND","ND","ND","ND","1.7","ND","ND","ND","ND","ND","0"],
    [49919,"2016-01-15T18:00:00","19.2","ND","ND","ND","ND","1.0","ND","ND","ND","ND","ND","0"],
    [49920,"2016-01-15T19:00:00","ND","ND","ND","ND","ND","0.9","ND","ND","ND","ND","ND","0"],
    [49921,"2016-01-15T20:00:00","15.9","ND","ND","ND","ND","2.1","ND","ND","ND","ND","ND","0"],
    [49922,"2016-01-15T21:00:00","116.4","ND","ND","ND","ND","2.4","ND","ND","ND","ND","ND","0"],
    [49923,"2016-01-15T22:00:00","100.3","ND","ND","ND","ND","4.7","ND","ND","ND","ND","ND","0"],
    [49924,"2016-01-15T23:00:00","92.8","ND","ND","ND","ND","5.4","ND","ND","ND","ND","ND","0"],
    [49925,"2016-01-16T00:00:00","105","ND","ND","ND","ND","10.9","ND","ND","ND","ND","ND","0"],
    [49926,"2016-01-16T01:00:00","36.7","ND","ND","ND","ND","3.3","ND","ND","ND","ND","ND","0"],
    [49927,"2016-01-16T02:00:00","14.5","ND","ND","ND","ND","4.1","ND","ND","ND","ND","ND","0"],
    [49928,"2016-01-16T03:00:00","42.6","ND","ND","ND","ND","3.8","ND","ND","ND","ND","ND","0"],
    [49929,"2016-01-16T04:00:00","80.9","ND","ND","ND","ND","3.1","ND","ND","ND","ND","ND","0"],
    [49930,"2016-01-16T05:00:00","85.2","ND","ND","ND","ND","4.0","ND","ND","ND","ND","ND","0"],
    [49931,"2016-01-16T06:00:00","50","ND","ND","ND","ND","3.4","ND","ND","ND","ND","ND","0"],
    [49932,"2016-01-16T07:00:00","56.9","ND","ND","ND","ND","11.3","ND","ND","ND","ND","ND","0"],
    [49933,"2016-01-16T08:00:00","78.7","ND","ND","ND","ND","7.0","ND","ND","ND","ND","ND","0"],
    [49934,"2016-01-16T09:00:00","86.2","ND","ND","ND","ND","3.2","ND","ND","ND","ND","ND","0"],
    [49935,"2016-01-16T10:00:00","59.7","ND","ND","ND","ND","2.4","ND","ND","ND","ND","ND","0"],
    [49936,"2016-01-16T11:00:00","50.9","ND","ND","ND","ND","2.9","ND","ND","ND","ND","ND","0"],
    [49937,"2016-01-16T12:00:00","48.2","ND","ND","ND","ND","1.4","ND","ND","ND","ND","ND","0"],
    [49938,"2016-01-16T13:00:00","44.1","ND","ND","ND","ND","1.9","ND","ND","ND","ND","ND","0"],
    [49939,"2016-01-16T14:00:00","66","ND","ND","ND","ND","2.4","ND","ND","ND","ND","ND","0"],
    [49940,"2016-01-16T15:00:00","18.1","ND","ND","ND","ND","1.2","ND","ND","ND","ND","ND","0"],
    [49941,"2016-01-16T16:00:00","ND","ND","ND","ND","ND","1.2","ND","ND","ND","ND","ND","0"],
    [49942,"2016-01-16T17:00:00","ND","ND","ND","ND","ND","1.6","ND","ND","ND","ND","ND","0"],
    [49943,"2016-01-16T18:00:00","ND","ND","ND","ND","ND","1.1","ND","ND","ND","ND","ND","0"],
    [49944,"2016-01-16T19:00:00","ND","ND","ND","ND","ND","1.4","ND","ND","ND","ND","ND","0"],
    [49945,"2016-01-16T20:00:00","4.6","ND","ND","ND","ND","2.0","ND","ND","ND","ND","ND","0"],
    [49946,"2016-01-16T21:00:00","22.5","ND","ND","ND","ND","4.3","ND","ND","ND","ND","ND","0"],
    [49947,"2016-01-16T22:00:00","95.3","ND","ND","ND","ND","6.5","ND","ND","ND","ND","ND","0"],
    [49948,"2016-01-16T23:00:00","101.1","ND","ND","ND","ND","4.6","ND","ND","ND","ND","ND","0"],
    [49949,"2016-01-17T00:00:00","61.5","ND","ND","ND","ND","4.2","ND","ND","ND","ND","ND","0"],
    [49950,"2016-01-17T01:00:00","57.1","ND","ND","ND","ND","4.2","ND","ND","ND","ND","ND","0"],
    [49951,"2016-01-17T02:00:00","44.6","ND","ND","ND","ND","3.1","ND","ND","ND","ND","ND","0"],
    [49952,"2016-01-17T03:00:00","43.4","ND","ND","ND","ND","2.7","ND","ND","ND","ND","ND","0"],
    [49953,"2016-01-17T04:00:00","60.2","ND","ND","ND","ND","4.8","ND","ND","ND","ND","ND","0"],
    [49954,"2016-01-17T05:00:00","45.2","ND","ND","ND","ND","4.0","ND","ND","ND","ND","ND","0"],
    [49955,"2016-01-17T06:00:00","33","ND","ND","ND","ND","2.5","ND","ND","ND","ND","ND","0"],
    [49956,"2016-01-17T07:00:00","46.2","ND","ND","ND","ND","2.4","ND","ND","ND","ND","ND","0"],
    [49957,"2016-01-17T08:00:00","60.2","ND","ND","ND","ND","3.3","ND","ND","ND","ND","ND","0"],
    [49958,"2016-01-17T09:00:00","77.6","ND","ND","ND","ND","3.9","ND","ND","ND","ND","ND","0"],
    [49959,"2016-01-17T10:00:00","66","ND","ND","ND","ND","3.5","ND","ND","ND","ND","ND","0"],
    [49960,"2016-01-17T11:00:00","48","ND","ND","ND","ND","3.4","ND","ND","ND","ND","ND","0"],
    [49961,"2016-01-17T12:00:00","34.5","ND","ND","ND","ND","1.6","ND","ND","ND","ND","ND","0"],
    [49962,"2016-01-17T13:00:00","24.1","ND","ND","ND","ND","1.3","ND","ND","ND","ND","ND","0"],
    [49963,"2016-01-17T14:00:00","34.7","ND","ND","ND","ND","1.5","ND","ND","ND","ND","ND","0"],
    [49964,"2016-01-17T15:00:00","17.9","ND","ND","ND","ND","0.9","ND","ND","ND","ND","ND","0"],
    [49965,"2016-01-17T16:00:00","34","ND","ND","ND","ND","0.8","ND","ND","ND","ND","ND","0"],
    [49966,"2016-01-17T17:00:00","10.4","ND","ND","ND","ND","1.1","ND","ND","ND","ND","ND","0"],
    [49967,"2016-01-17T18:00:00","ND","ND","ND","ND","ND","0.9","ND","ND","ND","ND","ND","0"],
    [49968,"2016-01-17T19:00:00","ND","ND","ND","ND","ND","0.9","ND","ND","ND","ND","ND","0"],
    [49969,"2016-01-17T20:00:00","ND","ND","ND","ND","ND","1.1","ND","ND","ND","ND","ND","0"],
    [49970,"2016-01-17T21:00:00","38.5","ND","ND","ND","ND","2.1","ND","ND","ND","ND","ND","0"],
    [49971,"2016-01-17T22:00:00","53.6","ND","ND","ND","ND","2.6","ND","ND","ND","ND","ND","0"],
    [49972,"2016-01-17T23:00:00","34.3","ND","ND","ND","ND","3.5","ND","ND","ND","ND","ND","0"],
    [49973,"2016-01-18T00:00:00","39.1","ND","ND","ND","ND","4.5","ND","ND","ND","ND","ND","0"],
    [49974,"2016-01-18T01:00:00","46","ND","ND","ND","ND","6.1","ND","ND","ND","ND","ND","0"],
    [49975,"2016-01-18T02:00:00","14.6","ND","ND","ND","ND","2.6","ND","ND","ND","ND","ND","0"],
    [49976,"2016-01-18T03:00:00","9.8","ND","ND","ND","ND","2.1","ND","ND","ND","ND","ND","0"],
    [49977,"2016-01-18T04:00:00","24.8","ND","ND","ND","ND","4.7","ND","ND","ND","ND","ND","0"],
    [49978,"2016-01-18T05:00:00","42.3","ND","ND","ND","ND","3.4","ND","ND","ND","ND","ND","0"],
    [49979,"2016-01-18T06:00:00","43.4","ND","ND","ND","ND","3.5","ND","ND","ND","ND","ND","0"],
    [49980,"2016-01-18T07:00:00","40.7","ND","ND","ND","ND","2.6","ND","ND","ND","ND","ND","0"],
    [49981,"2016-01-18T08:00:00","54.2","ND","ND","ND","ND","4.2","ND","ND","ND","ND","ND","0"],
    [49982,"2016-01-18T09:00:00","98.3","ND","ND","ND","ND","4.2","ND","ND","ND","ND","ND","0"],
    [49983,"2016-01-18T10:00:00","72.9","ND","ND","ND","ND","3.0","ND","ND","ND","ND","ND","0"],
    [49984,"2016-01-18T11:00:00","50.7","ND","ND","ND","ND","1.9","ND","ND","ND","ND","ND","0"],
    [49985,"2016-01-18T12:00:00","30","ND","ND","ND","ND","1.2","ND","ND","ND","ND","ND","0"],
    [49986,"2016-01-18T13:00:00","21.2","ND","ND","ND","ND","1.5","ND","ND","ND","ND","ND","0"],
    [49987,"2016-01-18T14:00:00","30.3","ND","ND","ND","ND","1.2","ND","ND","ND","ND","ND","0"],
    [49988,"2016-01-18T15:00:00","13.7","ND","ND","ND","ND","1.0","ND","ND","ND","ND","ND","0"],
    [49989,"2016-01-18T16:00:00","51.5","ND","ND","ND","ND","0.3","ND","ND","ND","ND","ND","0"],
    [49990,"2016-01-18T17:00:00","5.4","ND","ND","ND","ND","0.8","ND","ND","ND","ND","ND","0"],
    [49991,"2016-01-18T18:00:00","ND","ND","ND","ND","ND","0.6","ND","ND","ND","ND","ND","0"],
    [49992,"2016-01-18T19:00:00","ND","ND","ND","ND","ND","0.7","ND","ND","ND","ND","ND","0"],
    [49993,"2016-01-18T20:00:00","1.5","ND","ND","ND","ND","0.7","ND","ND","ND","ND","ND","0"],
    [49994,"2016-01-18T21:00:00","52.8","ND","ND","ND","ND","2.8","ND","ND","ND","ND","ND","0"],
    [49995,"2016-01-18T22:00:00","139.5","ND","ND","ND","ND","5.0","ND","ND","ND","ND","ND","0"],
    [49996,"2016-01-18T23:00:00","145.8","ND","ND","ND","ND","2.3","ND","ND","ND","ND","ND","0"],
    [49997,"2016-01-19T00:00:00","124.4","ND","ND","ND","ND","3.4","ND","ND","ND","ND","ND","0"],
    [49998,"2016-01-19T01:00:00","132.4","ND","ND","ND","ND","9.2","ND","ND","ND","ND","ND","0"],
    [49999,"2016-01-19T02:00:00","74.9","ND","ND","ND","ND","3.2","ND","ND","ND","ND","ND","0"],
    [50000,"2016-01-19T03:00:00","56","ND","ND","ND","ND","3.0","ND","ND","ND","ND","ND","0"],
    [50001,"2016-01-19T04:00:00","47.3","ND","ND","ND","ND","2.6","ND","ND","ND","ND","ND","0"],
    [50002,"2016-01-19T05:00:00","52.8","ND","ND","ND","ND","3.1","ND","ND","ND","ND","ND","0"],
    [50003,"2016-01-19T06:00:00","50.1","ND","ND","ND","ND","2.4","ND","ND","ND","ND","ND","0"],
    [50004,"2016-01-19T07:00:00","48","ND","ND","ND","ND","2.3","ND","ND","ND","ND","ND","0"],
    [50005,"2016-01-19T08:00:00","78.3","ND","ND","ND","ND","1.4","ND","ND","ND","ND","ND","0"],
    [50006,"2016-01-19T09:00:00","86.4","ND","ND","ND","ND","1.6","ND","ND","ND","ND","ND","0"],
    [50007,"2016-01-19T10:00:00","86.1","ND","ND","ND","ND","2.4","ND","ND","ND","ND","ND","0"],
    [50008,"2016-01-19T11:00:00","63.5","ND","ND","ND","ND","1.7","ND","ND","ND","ND","ND","0"],
    [50009,"2016-01-19T12:00:00","39.5","ND","ND","ND","ND","0.9","ND","ND","ND","ND","ND","0"],
    [50010,"2016-01-19T13:00:00","29.3","ND","ND","ND","ND","1.4","ND","ND","ND","ND","ND","0"],
    [50011,"2016-01-19T14:00:00","37.8","ND","ND","ND","ND","1.2","ND","ND","ND","ND","ND","0"],
    [50012,"2016-01-19T15:00:00","27","ND","ND","ND","ND","1.1","ND","ND","ND","ND","ND","0"],
    [50013,"2016-01-19T16:00:00","6.8","ND","ND","ND","ND","1.6","ND","ND","ND","ND","ND","0"],
    [50014,"2016-01-19T17:00:00","ND","ND","ND","ND","ND","1.0","ND","ND","ND","ND","ND","0"],
    [50015,"2016-01-19T18:00:00","ND","ND","ND","ND","ND","0.8","ND","ND","ND","ND","ND","0"],
    [50016,"2016-01-19T19:00:00","ND","ND","ND","ND","ND","0.8","ND","ND","ND","ND","ND","0"],
    [50017,"2016-01-19T20:00:00","8.6","ND","ND","ND","ND","1.2","ND","ND","ND","ND","ND","0"],
    [50018,"2016-01-19T21:00:00","114.8","ND","ND","ND","ND","4.0","ND","ND","ND","ND","ND","0"],
    [50019,"2016-01-19T22:00:00","199.7","ND","ND","ND","ND","6.5","ND","ND","ND","ND","ND","0"],
    [50020,"2016-01-19T23:00:00","146.9","ND","ND","ND","ND","2.3","ND","ND","ND","ND","ND","0"],
    [50021,"2016-01-20T00:00:00","60.8","ND","ND","ND","ND","10.6","ND","ND","ND","ND","ND","0"],
    [50022,"2016-01-20T01:00:00","77.4","ND","ND","ND","ND","5.5","ND","ND","ND","ND","ND","0"],
    [50023,"2016-01-20T02:00:00","55","ND","ND","ND","ND","5.8","ND","ND","ND","ND","ND","0"],
    [50024,"2016-01-20T03:00:00","59","ND","ND","ND","ND","3.1","ND","ND","ND","ND","ND","0"],
    [50025,"2016-01-20T04:00:00","73.3","ND","ND","ND","ND","2.7","ND","ND","ND","ND","ND","0"],
    [50026,"2016-01-20T05:00:00","69.5","ND","ND","ND","ND","4.7","ND","ND","ND","ND","ND","0"],
    [50027,"2016-01-20T06:00:00","56","ND","ND","ND","ND","2.8","ND","ND","ND","ND","ND","0"],
    [50028,"2016-01-20T07:00:00","47.8","ND","ND","ND","ND","2.1","ND","ND","ND","ND","ND","0"],
    [50029,"2016-01-20T08:00:00","51.7","ND","ND","ND","ND","2.9","ND","ND","ND","ND","ND","0"],
    [50030,"2016-01-20T09:00:00","87.8","ND","ND","ND","ND","2.5","ND","ND","ND","ND","ND","0"],
    [50031,"2016-01-20T10:00:00","93.6","ND","ND","ND","ND","3.3","ND","ND","ND","ND","ND","0"],
    [50032,"2016-01-20T11:00:00","72.3","ND","ND","ND","ND","2.6","ND","ND","ND","ND","ND","0"],
    [50033,"2016-01-20T12:00:00","45.9","ND","ND","ND","ND","1.5","ND","ND","ND","ND","ND","0"],
    [50034,"2016-01-20T13:00:00","36.4","ND","ND","ND","ND","1.1","ND","ND","ND","ND","ND","0"],
    [50035,"2016-01-20T14:00:00","42.3","ND","ND","ND","ND","0.8","ND","ND","ND","ND","ND","0"],
    [50036,"2016-01-20T15:00:00","54","ND","ND","ND","ND","2.3","ND","ND","ND","ND","ND","0"],
    [50037,"2016-01-20T16:00:00","36.9","ND","ND","ND","ND","1.1","ND","ND","ND","ND","ND","0"],
    [50038,"2016-01-20T17:00:00","14.8","ND","ND","ND","ND","1.0","ND","ND","ND","ND","ND","0"],
    [50039,"2016-01-20T18:00:00","1.7","ND","ND","ND","ND","0.6","ND","ND","ND","ND","ND","0"],
    [50040,"2016-01-20T19:00:00","ND","ND","ND","ND","ND","0.5","ND","ND","ND","ND","ND","0"],
    [50041,"2016-01-20T20:00:00","ND","ND","ND","ND","ND","1.3","ND","ND","ND","ND","ND","0"],
    [50042,"2016-01-20T21:00:00","49.5","ND","ND","ND","ND","1.0","ND","ND","ND","ND","ND","0"],
    [50043,"2016-01-20T22:00:00","83.5","ND","ND","ND","ND","2.4","ND","ND","ND","ND","ND","0"],
    [50044,"2016-01-20T23:00:00","104.2","ND","ND","ND","ND","2.5","ND","ND","ND","ND","ND","0"],
    [50045,"2016-01-21T00:00:00","83.5","ND","ND","ND","ND","5.2","ND","ND","ND","ND","ND","0"],
    [50046,"2016-01-21T01:00:00","61.3","ND","ND","ND","ND","5.2","ND","ND","ND","ND","ND","0"],
    [50047,"2016-01-21T02:00:00","56.2","ND","ND","ND","ND","3.6","ND","ND","ND","ND","ND","0"],
    [50048,"2016-01-21T03:00:00","34.8","ND","ND","ND","ND","3.2","ND","ND","ND","ND","ND","0"],
    [50049,"2016-01-21T04:00:00","61.3","ND","ND","ND","ND","1.6","ND","ND","ND","ND","ND","0"],
    [50050,"2016-01-21T05:00:00","42.8","ND","ND","ND","ND","2.7","ND","ND","ND","ND","ND","0"],
    [50051,"2016-01-21T06:00:00","49.3","ND","ND","ND","ND","3.4","ND","ND","ND","ND","ND","0"],
    [50052,"2016-01-21T07:00:00","64.1","ND","ND","ND","ND","2.7","ND","ND","ND","ND","ND","0"],
    [50053,"2016-01-21T08:00:00","92.1","ND","ND","ND","ND","1.3","ND","ND","ND","ND","ND","0"],
    [50054,"2016-01-21T09:00:00","126.3","ND","ND","ND","ND","2.8","ND","ND","ND","ND","ND","0"],
    [50055,"2016-01-21T10:00:00","117.3","ND","ND","ND","ND","2.5","ND","ND","ND","ND","ND","0"],
    [50056,"2016-01-21T11:00:00","71.7","ND","ND","ND","ND","0.9","ND","ND","ND","ND","ND","0"],
    [50057,"2016-01-21T12:00:00","44.6","ND","ND","ND","ND","1.1","ND","ND","ND","ND","ND","0"],
    [50058,"2016-01-21T13:00:00","37.1","ND","ND","ND","ND","1.3","ND","ND","ND","ND","ND","0"],
    [50059,"2016-01-21T14:00:00","35.4","ND","ND","ND","ND","1.6","ND","ND","ND","ND","ND","0"],
    [50060,"2016-01-21T15:00:00","34.8","ND","ND","ND","ND","1.2","ND","ND","ND","ND","ND","0"],
    [50061,"2016-01-21T16:00:00","21.9","ND","ND","ND","ND","0.9","ND","ND","ND","ND","ND","0"],
    [50062,"2016-01-21T17:00:00","16.3","ND","ND","ND","ND","0.5","ND","ND","ND","ND","ND","0"],
    [50063,"2016-01-21T18:00:00","ND","ND","ND","ND","ND","1.3","ND","ND","ND","ND","ND","0"],
    [50064,"2016-01-21T19:00:00","ND","ND","ND","ND","ND","1.0","ND","ND","ND","ND","ND","0"],
    [50065,"2016-01-21T20:00:00","26.2","ND","ND","ND","ND","0.6","ND","ND","ND","ND","ND","0"],
    [50066,"2016-01-21T21:00:00","81","ND","ND","ND","ND","4.0","ND","ND","ND","ND","ND","0"],
    [50067,"2016-01-21T22:00:00","89.9","ND","ND","ND","ND","4.1","ND","ND","ND","ND","ND","0"],
    [50068,"2016-01-21T23:00:00","80.1","ND","ND","ND","ND","6.3","ND","ND","ND","ND","ND","0"],
    [50069,"2016-01-22T00:00:00","53.3","ND","ND","ND","ND","4.5","ND","ND","ND","ND","ND","0"],
    [50070,"2016-01-22T01:00:00","26","ND","ND","ND","ND","5.9","ND","ND","ND","ND","ND","0"],
    [50071,"2016-01-22T02:00:00","22.5","ND","ND","ND","ND","5.5","ND","ND","ND","ND","ND","0"],
    [50072,"2016-01-22T03:00:00","66.5","ND","ND","ND","ND","2.7","ND","ND","ND","ND","ND","0"],
    [50073,"2016-01-22T04:00:00","110.5","ND","ND","ND","ND","2.8","ND","ND","ND","ND","ND","0"],
    [50074,"2016-01-22T05:00:00","75","ND","ND","ND","ND","6.1","ND","ND","ND","ND","ND","0"],
    [50075,"2016-01-22T06:00:00","49.3","ND","ND","ND","ND","3.7","ND","ND","ND","ND","ND","0"],
    [50076,"2016-01-22T07:00:00","55","ND","ND","ND","ND","1.9","ND","ND","ND","ND","ND","0"],
    [50077,"2016-01-22T08:00:00","70.6","ND","ND","ND","ND","2.1","ND","ND","ND","ND","ND","0"],
    [50078,"2016-01-22T09:00:00","65.5","ND","ND","ND","ND","1.7","ND","ND","ND","ND","ND","0"],
    [50079,"2016-01-22T10:00:00","73.6","ND","ND","ND","ND","2.6","ND","ND","ND","ND","ND","0"],
    [50080,"2016-01-22T11:00:00","43.1","ND","ND","ND","ND","2.5","ND","ND","ND","ND","ND","0"],
    [50081,"2016-01-22T12:00:00","43.7","ND","ND","ND","ND","1.6","ND","ND","ND","ND","ND","0"],
    [50082,"2016-01-22T13:00:00","32","ND","ND","ND","ND","1.8","ND","ND","ND","ND","ND","0"],
    [50083,"2016-01-22T14:00:00","26.8","ND","ND","ND","ND","1.8","ND","ND","ND","ND","ND","0"],
    [50084,"2016-01-22T15:00:00","39","ND","ND","ND","ND","0.9","ND","ND","ND","ND","ND","0"],
    [50085,"2016-01-22T16:00:00","9.8","ND","ND","ND","ND","1.3","ND","ND","ND","ND","ND","0"],
    [50086,"2016-01-22T17:00:00","27.9","ND","ND","ND","ND","1.0","ND","ND","ND","ND","ND","0"],
    [50087,"2016-01-22T18:00:00","66.8","ND","ND","ND","ND","1.0","ND","ND","ND","ND","ND","0"],
    [50088,"2016-01-22T19:00:00","55.5","ND","ND","ND","ND","0.8","ND","ND","ND","ND","ND","0"],
    [50089,"2016-01-22T20:00:00","22.1","ND","ND","ND","ND","1.1","ND","ND","ND","ND","ND","0"],
    [50090,"2016-01-22T21:00:00","49.8","ND","ND","ND","ND","0.6","ND","ND","ND","ND","ND","0"],
    [50091,"2016-01-22T22:00:00","63.6","ND","ND","ND","ND","1.9","ND","ND","ND","ND","ND","0"],
    [50092,"2016-01-22T23:00:00","52.6","ND","ND","ND","ND","2.3","ND","ND","ND","ND","ND","0"],
    [50093,"2016-01-23T00:00:00","50.9","ND","ND","ND","ND","4.4","ND","ND","ND","ND","ND","0"],
    [50094,"2016-01-23T01:00:00","64.9","ND","ND","ND","ND","7.3","ND","ND","ND","ND","ND","0"],
    [50095,"2016-01-23T02:00:00","57.9","ND","ND","ND","ND","4.0","ND","ND","ND","ND","ND","0"],
    [50096,"2016-01-23T03:00:00","37.6","ND","ND","ND","ND","3.7","ND","ND","ND","ND","ND","0"],
    [50097,"2016-01-23T04:00:00","58","ND","ND","ND","ND","3.2","ND","ND","ND","ND","ND","0"],
    [50098,"2016-01-23T05:00:00","40","ND","ND","ND","ND","2.8","ND","ND","ND","ND","ND","0"],
    [50099,"2016-01-23T06:00:00","42.6","ND","ND","ND","ND","0.9","ND","ND","ND","ND","ND","0"],
    [50100,"2016-01-23T07:00:00","46.3","ND","ND","ND","ND","1.3","ND","ND","ND","ND","ND","16.26"],
    [50101,"2016-01-23T08:00:00","32.5","ND","ND","ND","ND","0.5","ND","ND","ND","ND","ND","23.11"],
    [50102,"2016-01-23T09:00:00","32.3","ND","ND","ND","ND","0.7","ND","ND","ND","ND","ND","27.43"],
    [50103,"2016-01-23T10:00:00","31","ND","ND","ND","ND","0.7","ND","ND","ND","ND","ND","0.76"],
    [50104,"2016-01-23T11:00:00","27","ND","ND","ND","ND","1.8","ND","ND","ND","ND","ND","1.52"],
    [50105,"2016-01-23T12:00:00","22.9","ND","ND","ND","ND","2.3","ND","ND","ND","ND","ND","0"],
    [50106,"2016-01-23T13:00:00","13.1","ND","ND","ND","ND","1.7","ND","ND","ND","ND","ND","0"],
    [50107,"2016-01-23T14:00:00","2.8","ND","ND","ND","ND","1.0","ND","ND","ND","ND","ND","0"],
    [50108,"2016-01-23T15:00:00","ND","ND","ND","ND","ND","1.0","ND","ND","ND","ND","ND","0"],
    [50109,"2016-01-23T16:00:00","ND","ND","ND","ND","ND","1.3","ND","ND","ND","ND","ND","0"],
    [50110,"2016-01-23T17:00:00","1.6","ND","ND","ND","ND","1.1","ND","ND","ND","ND","ND","0"],
    [50111,"2016-01-23T18:00:00","5.1","ND","ND","ND","ND","1.1","ND","ND","ND","ND","ND","0"],
    [50112,"2016-01-23T19:00:00","ND","ND","ND","ND","ND","1.3","ND","ND","ND","ND","ND","0"],
    [50113,"2016-01-23T20:00:00","8.4","ND","ND","ND","ND","0.7","ND","ND","ND","ND","ND","0"],
    [50114,"2016-01-23T21:00:00","48.4","ND","ND","ND","ND","0.6","ND","ND","ND","ND","ND","0"],
    [50115,"2016-01-23T22:00:00","74.3","ND","ND","ND","ND","0.9","ND","ND","ND","ND","ND","0"],
    [50116,"2016-01-23T23:00:00","89.5","ND","ND","ND","ND","0.4","ND","ND","ND","ND","ND","0"],
    [50117,"2016-01-24T00:00:00","51","ND","ND","ND","ND","0.3","ND","ND","ND","ND","ND","0"],
    [50118,"2016-01-24T01:00:00","30.4","ND","ND","ND","ND","0.7","ND","ND","ND","ND","ND","0"],
    [50119,"2016-01-24T02:00:00","6.6","ND","ND","ND","ND","1.2","ND","ND","ND","ND","ND","0"],
    [50120,"2016-01-24T03:00:00","20.2","ND","ND","ND","ND","1.8","ND","ND","ND","ND","ND","0"],
    [50121,"2016-01-24T04:00:00","37.2","ND","ND","ND","ND","1.6","ND","ND","ND","ND","ND","0"],
    [50122,"2016-01-24T05:00:00","51.7","ND","ND","ND","ND","1.1","ND","ND","ND","ND","ND","0"],
    [50123,"2016-01-24T06:00:00","23.4","ND","ND","ND","ND","1.1","ND","ND","ND","ND","ND","0"],
    [50124,"2016-01-24T07:00:00","47.2","ND","ND","ND","ND","3.2","ND","ND","ND","ND","ND","0"],
    [50125,"2016-01-24T08:00:00","51.7","ND","ND","ND","ND","3.3","ND","ND","ND","ND","ND","0"],
    [50126,"2016-01-24T09:00:00","74.4","ND","ND","ND","ND","3.5","ND","ND","ND","ND","ND","0"],
    [50127,"2016-01-24T10:00:00","73.8","ND","ND","ND","ND","3.0","ND","ND","ND","ND","ND","0"],
    [50128,"2016-01-24T11:00:00","57.9","ND","ND","ND","ND","1.7","ND","ND","ND","ND","ND","0"],
    [50129,"2016-01-24T12:00:00","15.8","ND","ND","ND","ND","1.7","ND","ND","ND","ND","ND","0"],
    [50130,"2016-01-24T13:00:00","25.5","ND","ND","ND","ND","1.3","ND","ND","ND","ND","ND","0"],
    [50131,"2016-01-24T14:00:00","24.6","ND","ND","ND","ND","1.8","ND","ND","ND","ND","ND","0"],
    [50132,"2016-01-24T15:00:00","17.1","ND","ND","ND","ND","1.5","ND","ND","ND","ND","ND","0"],
    [50133,"2016-01-24T16:00:00","10.9","ND","ND","ND","ND","1.3","ND","ND","ND","ND","ND","0"],
    [50134,"2016-01-24T17:00:00","5.5","ND","ND","ND","ND","0.7","ND","ND","ND","ND","ND","0"],
    [50135,"2016-01-24T18:00:00","ND","ND","ND","ND","ND","1.1","ND","ND","ND","ND","ND","0"],
    [50136,"2016-01-24T19:00:00","ND","ND","ND","ND","ND","1.0","ND","ND","ND","ND","ND","0"],
    [50137,"2016-01-24T20:00:00","7","ND","ND","ND","ND","1.6","ND","ND","ND","ND","ND","0"],
    [50138,"2016-01-24T21:00:00","52.7","ND","ND","ND","ND","1.5","ND","ND","ND","ND","ND","0"],
    [50139,"2016-01-24T22:00:00","56.7","ND","ND","ND","ND","0.9","ND","ND","ND","ND","ND","0"],
    [50140,"2016-01-24T23:00:00","37","ND","ND","ND","ND","3.1","ND","ND","ND","ND","ND","0"],
    [50141,"2016-01-25T00:00:00","50","ND","ND","ND","ND","2.2","ND","ND","ND","ND","ND","0"],
    [50142,"2016-01-25T01:00:00","24.1","ND","ND","ND","ND","2.3","ND","ND","ND","ND","ND","0"],
    [50143,"2016-01-25T02:00:00","31.8","ND","ND","ND","ND","1.9","ND","ND","ND","ND","ND","0"],
    [50144,"2016-01-25T03:00:00","28.8","ND","ND","ND","ND","4.7","ND","ND","ND","ND","ND","0"],
    [50145,"2016-01-25T04:00:00","35.9","ND","ND","ND","ND","6.6","ND","ND","ND","ND","ND","0"],
    [50146,"2016-01-25T05:00:00","54.1","ND","ND","ND","ND","4.5","ND","ND","ND","ND","ND","0"],
    [50147,"2016-01-25T06:00:00","34.8","ND","ND","ND","ND","2.7","ND","ND","ND","ND","ND","0"],
    [50148,"2016-01-25T07:00:00","12.4","ND","ND","ND","ND","0.7","ND","ND","ND","ND","ND","0"],
    [50149,"2016-01-25T08:00:00","48.1","ND","ND","ND","ND","0.9","ND","ND","ND","ND","ND","0"],
    [50150,"2016-01-25T09:00:00","77","ND","ND","ND","ND","4.1","ND","ND","ND","ND","ND","0"],
    [50151,"2016-01-25T10:00:00","69.6","ND","ND","ND","ND","2.7","ND","ND","ND","ND","ND","0"],
    [50152,"2016-01-25T11:00:00","40.3","ND","ND","ND","ND","2.2","ND","ND","ND","ND","ND","0"],
    [50153,"2016-01-25T12:00:00","12.4","ND","ND","ND","ND","1.7","ND","ND","ND","ND","ND","0"],
    [50154,"2016-01-25T13:00:00","26.8","ND","ND","ND","ND","1.2","ND","ND","ND","ND","ND","0"],
    [50155,"2016-01-25T14:00:00","9.4","ND","ND","ND","ND","1.3","ND","ND","ND","ND","ND","0"],
    [50156,"2016-01-25T15:00:00","4.9","ND","ND","ND","ND","1.2","ND","ND","ND","ND","ND","0"],
    [50157,"2016-01-25T16:00:00","35.6","ND","ND","ND","ND","1.3","ND","ND","ND","ND","ND","0"],
    [50158,"2016-01-25T17:00:00","22.9","ND","ND","ND","ND","1.3","ND","ND","ND","ND","ND","0"],
    [50159,"2016-01-25T18:00:00","56","ND","ND","ND","ND","0.9","ND","ND","ND","ND","ND","0"],
    [50160,"2016-01-25T19:00:00","6.8","ND","ND","ND","ND","0.5","ND","ND","ND","ND","ND","0"],
    [50161,"2016-01-25T20:00:00","18.3","ND","ND","ND","ND","2.1","ND","ND","ND","ND","ND","0"],
    [50162,"2016-01-25T21:00:00","39.4","ND","ND","ND","ND","2.0","ND","ND","ND","ND","ND","0"],
    [50163,"2016-01-25T22:00:00","18.8","ND","ND","ND","ND","1.7","ND","ND","ND","ND","ND","0"],
    [50164,"2016-01-25T23:00:00","50.9","ND","ND","ND","ND","2.7","ND","ND","ND","ND","ND","0"],
    [50165,"2016-01-26T00:00:00","51.7","ND","ND","ND","ND","2.1","ND","ND","ND","ND","ND","0"],
    [50166,"2016-01-26T01:00:00","24.7","ND","ND","ND","ND","1.7","ND","ND","ND","ND","ND","0"],
    [50167,"2016-01-26T02:00:00","5.7","ND","ND","ND","ND","5.0","ND","ND","ND","ND","ND","0"],
    [50168,"2016-01-26T03:00:00","30.5","ND","ND","ND","ND","2.4","ND","ND","ND","ND","ND","0"],
    [50169,"2016-01-26T04:00:00","45.8","ND","ND","ND","ND","2.1","ND","ND","ND","ND","ND","0"],
    [50170,"2016-01-26T05:00:00","39.7","ND","ND","ND","ND","1.6","ND","ND","ND","ND","ND","0"],
    [50171,"2016-01-26T06:00:00","54.6","ND","ND","ND","ND","4.5","ND","ND","ND","ND","ND","0"],
    [50172,"2016-01-26T07:00:00","67.6","ND","ND","ND","ND","1.5","ND","ND","ND","ND","ND","0"],
    [50173,"2016-01-26T08:00:00","122.4","ND","ND","ND","ND","2.3","ND","ND","ND","ND","ND","0"],
    [50174,"2016-01-26T09:00:00","116.1","ND","ND","ND","ND","3.7","ND","ND","ND","ND","ND","0"],
    [50175,"2016-01-26T10:00:00","72.6","ND","ND","ND","ND","2.5","ND","ND","ND","ND","ND","0"],
    [50176,"2016-01-26T11:00:00","26.6","ND","ND","ND","ND","1.6","ND","ND","ND","ND","ND","0"],
    [50177,"2016-01-26T12:00:00","16","ND","ND","ND","ND","1.2","ND","ND","ND","ND","ND","0"],
    [50178,"2016-01-26T13:00:00","50","ND","ND","ND","ND","1.8","ND","ND","ND","ND","ND","0"],
    [50179,"2016-01-26T14:00:00","25.7","ND","ND","ND","ND","1.1","ND","ND","ND","ND","ND","0"],
    [50180,"2016-01-26T15:00:00","35.5","ND","ND","ND","ND","0.8","ND","ND","ND","ND","ND","0"],
    [50181,"2016-01-26T16:00:00","18.1","ND","ND","ND","ND","1.1","ND","ND","ND","ND","ND","0"],
    [50182,"2016-01-26T17:00:00","3.6","ND","ND","ND","ND","1.1","ND","ND","ND","ND","ND","0"],
    [50183,"2016-01-26T18:00:00","2.5","ND","ND","ND","ND","1.0","ND","ND","ND","ND","ND","0"],
    [50184,"2016-01-26T19:00:00","1.8","ND","ND","ND","ND","0.5","ND","ND","ND","ND","ND","0"],
    [50185,"2016-01-26T20:00:00","2.6","ND","ND","ND","ND","0.9","ND","ND","ND","ND","ND","0"],
    [50186,"2016-01-26T21:00:00","60.1","ND","ND","ND","ND","1.7","ND","ND","ND","ND","ND","0"],
    [50187,"2016-01-26T22:00:00","82.3","ND","ND","ND","ND","2.3","ND","ND","ND","ND","ND","0"],
    [50188,"2016-01-26T23:00:00","53.2","ND","ND","ND","ND","1.8","ND","ND","ND","ND","ND","0"],
    [50189,"2016-01-27T00:00:00","33.2","ND","ND","ND","ND","2.7","ND","ND","ND","ND","ND","0"],
    [50190,"2016-01-27T01:00:00","35.8","ND","ND","ND","ND","2.7","ND","ND","ND","ND","ND","0"],
    [50191,"2016-01-27T02:00:00","34.4","ND","ND","ND","ND","2.9","ND","ND","ND","ND","ND","0"],
    [50192,"2016-01-27T03:00:00","32.9","ND","ND","ND","ND","2.8","ND","ND","ND","ND","ND","0"],
    [50193,"2016-01-27T04:00:00","28.2","ND","ND","ND","ND","2.5","ND","ND","ND","ND","ND","0"],
    [50194,"2016-01-27T05:00:00","27.3","ND","ND","ND","ND","2.0","ND","ND","ND","ND","ND","0"],
    [50195,"2016-01-27T06:00:00","39.8","ND","ND","ND","ND","2.9","ND","ND","ND","ND","ND","0"],
    [50196,"2016-01-27T07:00:00","49.9","ND","ND","ND","ND","2.1","ND","ND","ND","ND","ND","0"],
    [50197,"2016-01-27T08:00:00","64.5","ND","ND","ND","ND","1.9","ND","ND","ND","ND","ND","0"],
    [50198,"2016-01-27T09:00:00","60.9","ND","ND","ND","ND","1.9","ND","ND","ND","ND","ND","0"],
    [50199,"2016-01-27T10:00:00","47.8","ND","ND","ND","ND","1.6","ND","ND","ND","ND","ND","0"],
    [50200,"2016-01-27T11:00:00","43.7","ND","ND","ND","ND","1.2","ND","ND","ND","ND","ND","0"],
    [50201,"2016-01-27T12:00:00","27.6","ND","ND","ND","ND","2.3","ND","ND","ND","ND","ND","0"],
    [50202,"2016-01-27T13:00:00","51.8","ND","ND","ND","ND","1.2","ND","ND","ND","ND","ND","0"],
    [50203,"2016-01-27T14:00:00","45.1","ND","ND","ND","ND","1.1","ND","ND","ND","ND","ND","0"],
    [50204,"2016-01-27T15:00:00","22.7","ND","ND","ND","ND","0.9","ND","ND","ND","ND","ND","0"],
    [50205,"2016-01-27T16:00:00","4.1","ND","ND","ND","ND","1.0","ND","ND","ND","ND","ND","0"],
    [50206,"2016-01-27T17:00:00","3.5","ND","ND","ND","ND","1.8","ND","ND","ND","ND","ND","0"],
    [50207,"2016-01-27T18:00:00","ND","ND","ND","ND","ND","0.9","ND","ND","ND","ND","ND","0"],
    [50208,"2016-01-27T19:00:00","ND","ND","ND","ND","ND","0.9","ND","ND","ND","ND","ND","0"],
    [50209,"2016-01-27T20:00:00","27.2","ND","ND","ND","ND","0.8","ND","ND","ND","ND","ND","0"],
    [50210,"2016-01-27T21:00:00","144.7","ND","ND","ND","ND","3.3","ND","ND","ND","ND","ND","0"],
    [50211,"2016-01-27T22:00:00","175","ND","ND","ND","ND","3.1","ND","ND","ND","ND","ND","0"],
    [50212,"2016-01-27T23:00:00","122.9","ND","ND","ND","ND","1.8","ND","ND","ND","ND","ND","0"],
    [50213,"2016-01-28T00:00:00","71.8","ND","ND","ND","ND","2.0","ND","ND","ND","ND","ND","0"],
    [50214,"2016-01-28T01:00:00","69.5","ND","ND","ND","ND","3.3","ND","ND","ND","ND","ND","0"],
    [50215,"2016-01-28T02:00:00","83.4","ND","ND","ND","ND","3.0","ND","ND","ND","ND","ND","0"],
    [50216,"2016-01-28T03:00:00","46.5","ND","ND","ND","ND","3.1","ND","ND","ND","ND","ND","0"],
    [50217,"2016-01-28T04:00:00","24.2","ND","ND","ND","ND","1.8","ND","ND","ND","ND","ND","0"],
    [50218,"2016-01-28T05:00:00","46.2","ND","ND","ND","ND","3.6","ND","ND","ND","ND","ND","0"],
    [50219,"2016-01-28T06:00:00","53.7","ND","ND","ND","ND","4.0","ND","ND","ND","ND","ND","0"],
    [50220,"2016-01-28T07:00:00","32.2","ND","ND","ND","ND","1.8","ND","ND","ND","ND","ND","0"],
    [50221,"2016-01-28T08:00:00","55.5","ND","ND","ND","ND","0.9","ND","ND","ND","ND","ND","0"],
    [50222,"2016-01-28T09:00:00","55.2","ND","ND","ND","ND","1.1","ND","ND","ND","ND","ND","0"],
    [50223,"2016-01-28T10:00:00","46.1","ND","ND","ND","ND","1.9","ND","ND","ND","ND","ND","0"],
    [50224,"2016-01-28T11:00:00","46.9","ND","ND","ND","ND","1.6","ND","ND","ND","ND","ND","0"],
    [50225,"2016-01-28T12:00:00","39.7","ND","ND","ND","ND","1.4","ND","ND","ND","ND","ND","0"],
    [50226,"2016-01-28T13:00:00","33.1","ND","ND","ND","ND","2.2","ND","ND","ND","ND","ND","0"],
    [50227,"2016-01-28T14:00:00","32.5","ND","ND","ND","ND","0.9","ND","ND","ND","ND","ND","0"],
    [50228,"2016-01-28T15:00:00","5.9","ND","ND","ND","ND","1.7","ND","ND","ND","ND","ND","0"],
    [50229,"2016-01-28T16:00:00","4.9","ND","ND","ND","ND","0.8","ND","ND","ND","ND","ND","0"],
    [50230,"2016-01-28T17:00:00","4.7","ND","ND","ND","ND","0.9","ND","ND","ND","ND","ND","0"],
    [50231,"2016-01-28T18:00:00","ND","ND","ND","ND","ND","1.1","ND","ND","ND","ND","ND","0"],
    [50232,"2016-01-28T19:00:00","ND","ND","ND","ND","ND","0.8","ND","ND","ND","ND","ND","0"],
    [50233,"2016-01-28T20:00:00","7.2","ND","ND","ND","ND","0.8","ND","ND","ND","ND","ND","0"],
    [50234,"2016-01-28T21:00:00","73.7","ND","ND","ND","ND","1.1","ND","ND","ND","ND","ND","0"],
    [50235,"2016-01-28T22:00:00","85.1","ND","ND","ND","ND","4.6","ND","ND","ND","ND","ND","0"],
    [50236,"2016-01-28T23:00:00","85.6","ND","ND","ND","ND","4.7","ND","ND","ND","ND","ND","0"],
    [50237,"2016-01-29T00:00:00","68.1","ND","ND","ND","ND","6.1","ND","ND","ND","ND","ND","0"],
    [50238,"2016-01-29T01:00:00","61.8","ND","ND","ND","ND","4.1","ND","ND","ND","ND","ND","0"],
    [50239,"2016-01-29T02:00:00","83.6","ND","ND","ND","ND","5.6","ND","ND","ND","ND","ND","0"],
    [50240,"2016-01-29T03:00:00","60.3","ND","ND","ND","ND","3.1","ND","ND","ND","ND","ND","0"],
    [50241,"2016-01-29T04:00:00","33.3","ND","ND","ND","ND","2.8","ND","ND","ND","ND","ND","0"],
    [50242,"2016-01-29T05:00:00","41","ND","ND","ND","ND","2.4","ND","ND","ND","ND","ND","0"],
    [50243,"2016-01-29T06:00:00","38.9","ND","ND","ND","ND","3.0","ND","ND","ND","ND","ND","0"],
    [50244,"2016-01-29T07:00:00","57","ND","ND","ND","ND","2.1","ND","ND","ND","ND","ND","0"],
    [50245,"2016-01-29T08:00:00","72.4","ND","ND","ND","ND","2.4","ND","ND","ND","ND","ND","0"],
    [50246,"2016-01-29T09:00:00","92.7","ND","ND","ND","ND","3.4","ND","ND","ND","ND","ND","0"],
    [50247,"2016-01-29T10:00:00","70.3","ND","ND","ND","ND","1.5","ND","ND","ND","ND","ND","0"],
    [50248,"2016-01-29T11:00:00","54.8","ND","ND","ND","ND","1.9","ND","ND","ND","ND","ND","0"],
    [50249,"2016-01-29T12:00:00","79.1","ND","ND","ND","ND","1.8","ND","ND","ND","ND","ND","0"],
    [50250,"2016-01-29T13:00:00","39.8","ND","ND","ND","ND","1.5","ND","ND","ND","ND","ND","0"],
    [50251,"2016-01-29T14:00:00","28.2","ND","ND","ND","ND","1.1","ND","ND","ND","ND","ND","0"],
    [50252,"2016-01-29T15:00:00","15.3","ND","ND","ND","ND","0.9","ND","ND","ND","ND","ND","0"],
    [50253,"2016-01-29T16:00:00","19.5","ND","ND","ND","ND","0.9","ND","ND","ND","ND","ND","0"],
    [50254,"2016-01-29T17:00:00","9.9","ND","ND","ND","ND","0.9","ND","ND","ND","ND","ND","0"],
    [50255,"2016-01-29T18:00:00","ND","ND","ND","ND","ND","1.0","ND","ND","ND","ND","ND","0"],
    [50256,"2016-01-29T19:00:00","5.7","ND","ND","ND","ND","1.8","ND","ND","ND","ND","ND","0"],
    [50257,"2016-01-29T20:00:00","98","ND","ND","ND","ND","1.9","ND","ND","ND","ND","ND","0"],
    [50258,"2016-01-29T21:00:00","77.7","ND","ND","ND","ND","2.3","ND","ND","ND","ND","ND","0"],
    [50259,"2016-01-29T22:00:00","43","ND","ND","ND","ND","1.6","ND","ND","ND","ND","ND","0"],
    [50260,"2016-01-29T23:00:00","34.1","ND","ND","ND","ND","0.8","ND","ND","ND","ND","ND","0"],
    [50261,"2016-01-30T00:00:00","42.2","ND","ND","ND","ND","2.4","ND","ND","ND","ND","ND","0"],
    [50262,"2016-01-30T01:00:00","42.4","ND","ND","ND","ND","3.4","ND","ND","ND","ND","ND","0"],
    [50263,"2016-01-30T02:00:00","32.1","ND","ND","ND","ND","2.0","ND","ND","ND","ND","ND","0"],
    [50264,"2016-01-30T03:00:00","40.8","ND","ND","ND","ND","4.4","ND","ND","ND","ND","ND","0"],
    [50265,"2016-01-30T04:00:00","39.5","ND","ND","ND","ND","3.5","ND","ND","ND","ND","ND","3.3"],
    [50266,"2016-01-30T05:00:00","38.5","ND","ND","ND","ND","1.5","ND","ND","ND","ND","ND","3.3"],
    [50267,"2016-01-30T06:00:00","40.1","ND","ND","ND","ND","1.9","ND","ND","ND","ND","ND","2.29"],
    [50268,"2016-01-30T07:00:00","32.5","ND","ND","ND","ND","1.1","ND","ND","ND","ND","ND","0"],
    [50269,"2016-01-30T08:00:00","30","ND","ND","ND","ND","2.9","ND","ND","ND","ND","ND","0"],
    [50270,"2016-01-30T09:00:00","43.1","ND","ND","ND","ND","1.9","ND","ND","ND","ND","ND","0.25"],
    [50271,"2016-01-30T10:00:00","52.5","ND","ND","ND","ND","2.1","ND","ND","ND","ND","ND","0"],
    [50272,"2016-01-30T11:00:00","43.1","ND","ND","ND","ND","1.1","ND","ND","ND","ND","ND","0"],
    [50273,"2016-01-30T12:00:00","22.4","ND","ND","ND","ND","1.2","ND","ND","ND","ND","ND","0"],
    [50274,"2016-01-30T13:00:00","19.9","ND","ND","ND","ND","1.1","ND","ND","ND","ND","ND","0"],
    [50275,"2016-01-30T14:00:00","21.8","ND","ND","ND","ND","1.1","ND","ND","ND","ND","ND","0"],
    [50276,"2016-01-30T15:00:00","23","ND","ND","ND","ND","0.7","ND","ND","ND","ND","ND","0"],
    [50277,"2016-01-30T16:00:00","12.9","ND","ND","ND","ND","0.8","ND","ND","ND","ND","ND","0"],
    [50278,"2016-01-30T17:00:00","ND","ND","ND","ND","ND","1.2","ND","ND","ND","ND","ND","0"],
    [50279,"2016-01-30T18:00:00","ND","ND","ND","ND","ND","0.5","ND","ND","ND","ND","ND","0"],
    [50280,"2016-01-30T19:00:00","ND","ND","ND","ND","ND","0.8","ND","ND","ND","ND","ND","0"],
    [50281,"2016-01-30T20:00:00","7.1","ND","ND","ND","ND","0.9","ND","ND","ND","ND","ND","0"],
    [50282,"2016-01-30T21:00:00","99.7","ND","ND","ND","ND","1.2","ND","ND","ND","ND","ND","0"],
    [50283,"2016-01-30T22:00:00","105.6","ND","ND","ND","ND","1.0","ND","ND","ND","ND","ND","0"],
    [50284,"2016-01-30T23:00:00","95.9","ND","ND","ND","ND","0.7","ND","ND","ND","ND","ND","0"],
    [50285,"2016-01-31T00:00:00","74.3","ND","ND","ND","ND","1.4","ND","ND","ND","ND","ND","0"],
    [50286,"2016-01-31T01:00:00","54.9","ND","ND","ND","ND","1.1","ND","ND","ND","ND","ND","0"],
    [50287,"2016-01-31T02:00:00","37.1","ND","ND","ND","ND","1.2","ND","ND","ND","ND","ND","0"],
    [50288,"2016-01-31T03:00:00","37.4","ND","ND","ND","ND","2.5","ND","ND","ND","ND","ND","0"],
    [50289,"2016-01-31T04:00:00","20.6","ND","ND","ND","ND","5.3","ND","ND","ND","ND","ND","0"],
    [50290,"2016-01-31T05:00:00","41.2","ND","ND","ND","ND","4.3","ND","ND","ND","ND","ND","0"],
    [50291,"2016-01-31T06:00:00","63.4","ND","ND","ND","ND","8.5","ND","ND","ND","ND","ND","0"],
    [50292,"2016-01-31T07:00:00","73.8","ND","ND","ND","ND","3.4","ND","ND","ND","ND","ND","0"],
    [50293,"2016-01-31T08:00:00","57.8","ND","ND","ND","ND","2.7","ND","ND","ND","ND","ND","0"],
    [50294,"2016-01-31T09:00:00","54.4","ND","ND","ND","ND","3.5","ND","ND","ND","ND","ND","0"],
    [50295,"2016-01-31T10:00:00","46.8","ND","ND","ND","ND","3.0","ND","ND","ND","ND","ND","0"],
    [50296,"2016-01-31T11:00:00","30.4","ND","ND","ND","ND","2.2","ND","ND","ND","ND","ND","0"],
    [50297,"2016-01-31T12:00:00","28.3","ND","ND","ND","ND","1.4","ND","ND","ND","ND","ND","0"],
    [50298,"2016-01-31T13:00:00","21.2","ND","ND","ND","ND","1.5","ND","ND","ND","ND","ND","0"],
    [50299,"2016-01-31T14:00:00","23.1","ND","ND","ND","ND","1.3","ND","ND","ND","ND","ND","0"],
    [50300,"2016-01-31T15:00:00","6.5","ND","ND","ND","ND","1.1","ND","ND","ND","ND","ND","0"],
    [50301,"2016-01-31T16:00:00","3.3","ND","ND","ND","ND","1.5","ND","ND","ND","ND","ND","0"],
    [50302,"2016-01-31T17:00:00","16.1","ND","ND","ND","ND","0.9","ND","ND","ND","ND","ND","0"],
    [50303,"2016-01-31T18:00:00","2","ND","ND","ND","ND","0.9","ND","ND","ND","ND","ND","0"],
    [50304,"2016-01-31T19:00:00","ND","ND","ND","ND","ND","1.0","ND","ND","ND","ND","ND","0"],
    [50305,"2016-01-31T20:00:00","19.1","ND","ND","ND","ND","0.8","ND","ND","ND","ND","ND","0"],
    [50306,"2016-01-31T21:00:00","61.2","ND","ND","ND","ND","0.8","ND","ND","ND","ND","ND","0"],
    [50307,"2016-01-31T22:00:00","65.9","ND","ND","ND","ND","2.8","ND","ND","ND","ND","ND","0"],
    [50308,"2016-01-31T23:00:00","36.8","ND","ND","ND","ND","1.6","ND","ND","ND","ND","ND","0"],
    [50309,"2016-02-01T00:00:00","43.8","ND","ND","ND","ND","3.4","ND","ND","ND","ND","ND","0"],
    [50310,"2016-02-01T01:00:00","44.1","ND","ND","ND","ND","5.0","ND","ND","ND","ND","ND","0"],
    [50311,"2016-02-01T02:00:00","15.5","ND","ND","ND","ND","5.8","ND","ND","ND","ND","ND","0"],
    [50312,"2016-02-01T03:00:00","36.4","ND","ND","ND","ND","6.1","ND","ND","ND","ND","ND","0"],
    [50313,"2016-02-01T04:00:00","35.6","ND","ND","ND","ND","3.0","ND","ND","ND","ND","ND","0"],
    [50314,"2016-02-01T05:00:00","36.8","ND","ND","ND","ND","3.1","ND","ND","ND","ND","ND","0"],
    [50315,"2016-02-01T06:00:00","38.6","ND","ND","ND","ND","4.6","ND","ND","ND","ND","ND","0"],
    [50316,"2016-02-01T07:00:00","75.9","ND","ND","ND","ND","5.3","ND","ND","ND","ND","ND","0"],
    [50317,"2016-02-01T08:00:00","86.4","ND","ND","ND","ND","8.2","ND","ND","ND","ND","ND","0"],
    [50318,"2016-02-01T09:00:00","82.7","ND","ND","ND","ND","2.3","ND","ND","ND","ND","ND","0"],
    [50319,"2016-02-01T10:00:00","65.2","ND","ND","ND","ND","2.3","ND","ND","ND","ND","ND","0"],
    [50320,"2016-02-01T11:00:00","38.7","ND","ND","ND","ND","2.6","ND","ND","ND","ND","ND","0"],
    [50321,"2016-02-01T12:00:00","35.4","ND","ND","ND","ND","1.9","ND","ND","ND","ND","ND","0"],
    [50322,"2016-02-01T13:00:00","43.1","ND","ND","ND","ND","2.5","ND","ND","ND","ND","ND","0"],
    [50323,"2016-02-01T14:00:00","43.9","ND","ND","ND","ND","1.5","ND","ND","ND","ND","ND","0"],
    [50324,"2016-02-01T15:00:00","38.3","ND","ND","ND","ND","1.7","ND","ND","ND","ND","ND","0"],
    [50325,"2016-02-01T16:00:00","28.3","ND","ND","ND","ND","1.3","ND","ND","ND","ND","ND","0"],
    [50326,"2016-02-01T17:00:00","7.1","ND","ND","ND","ND","1.5","ND","ND","ND","ND","ND","0"],
    [50327,"2016-02-01T18:00:00","ND","ND","ND","ND","ND","1.3","ND","ND","ND","ND","ND","0"],
    [50328,"2016-02-01T19:00:00","ND","ND","ND","ND","ND","0.8","ND","ND","ND","ND","ND","0"],
    [50329,"2016-02-01T20:00:00","36.9","ND","ND","ND","ND","0.6","ND","ND","ND","ND","ND","0"],
    [50330,"2016-02-01T21:00:00","96.1","ND","ND","ND","ND","1.2","ND","ND","ND","ND","ND","0"],
    [50331,"2016-02-01T22:00:00","91.3","ND","ND","ND","ND","4.3","ND","ND","ND","ND","ND","0"],
    [50332,"2016-02-01T23:00:00","81.1","ND","ND","ND","ND","5.9","ND","ND","ND","ND","ND","0"],
    [50333,"2016-02-02T00:00:00","91.8","ND","ND","ND","ND","4.4","ND","ND","ND","ND","ND","0"],
    [50334,"2016-02-02T01:00:00","110.2","ND","ND","ND","ND","4.4","ND","ND","ND","ND","ND","0"],
    [50335,"2016-02-02T02:00:00","81.2","ND","ND","ND","ND","3.4","ND","ND","ND","ND","ND","0"],
    [50336,"2016-02-02T03:00:00","61.9","ND","ND","ND","ND","3.9","ND","ND","ND","ND","ND","0"],
    [50337,"2016-02-02T04:00:00","55.7","ND","ND","ND","ND","3.1","ND","ND","ND","ND","ND","0"],
    [50338,"2016-02-02T05:00:00","47.9","ND","ND","ND","ND","3.0","ND","ND","ND","ND","ND","0"],
    [50339,"2016-02-02T06:00:00","64.4","ND","ND","ND","ND","2.4","ND","ND","ND","ND","ND","0"],
    [50340,"2016-02-02T07:00:00","68.7","ND","ND","ND","ND","1.3","ND","ND","ND","ND","ND","0"],
    [50341,"2016-02-02T08:00:00","73.8","ND","ND","ND","ND","1.1","ND","ND","ND","ND","ND","0"],
    [50342,"2016-02-02T09:00:00","106.5","ND","ND","ND","ND","1.8","ND","ND","ND","ND","ND","0"],
    [50343,"2016-02-02T10:00:00","65.8","ND","ND","ND","ND","3.1","ND","ND","ND","ND","ND","0"],
    [50344,"2016-02-02T11:00:00","45.2","ND","ND","ND","ND","1.6","ND","ND","ND","ND","ND","0"],
    [50345,"2016-02-02T12:00:00","43.4","ND","ND","ND","ND","1.2","ND","ND","ND","ND","ND","0"],
    [50346,"2016-02-02T13:00:00","48.8","ND","ND","ND","ND","2.2","ND","ND","ND","ND","ND","0"],
    [50347,"2016-02-02T14:00:00","44.6","ND","ND","ND","ND","1.0","ND","ND","ND","ND","ND","0"],
    [50348,"2016-02-02T15:00:00","34.4","ND","ND","ND","ND","1.5","ND","ND","ND","ND","ND","0"],
    [50349,"2016-02-02T16:00:00","21.8","ND","ND","ND","ND","1.5","ND","ND","ND","ND","ND","0"],
    [50350,"2016-02-02T17:00:00","4.8","ND","ND","ND","ND","1.1","ND","ND","ND","ND","ND","0"],
    [50351,"2016-02-02T18:00:00","3.4","ND","ND","ND","ND","1.5","ND","ND","ND","ND","ND","0"],
    [50352,"2016-02-02T19:00:00","ND","ND","ND","ND","ND","1.6","ND","ND","ND","ND","ND","0"],
    [50353,"2016-02-02T20:00:00","61.2","ND","ND","ND","ND","2.2","ND","ND","ND","ND","ND","0"],
    [50354,"2016-02-02T21:00:00","71","ND","ND","ND","ND","1.3","ND","ND","ND","ND","ND","0"],
    [50355,"2016-02-02T22:00:00","72.5","ND","ND","ND","ND","4.0","ND","ND","ND","ND","ND","0"],
    [50356,"2016-02-02T23:00:00","65.6","ND","ND","ND","ND","5.3","ND","ND","ND","ND","ND","0"],
    [50357,"2016-02-03T00:00:00","36.8","ND","ND","ND","ND","3.9","ND","ND","ND","ND","ND","0"],
    [50358,"2016-02-03T01:00:00","36.1","ND","ND","ND","ND","6.3","ND","ND","ND","ND","ND","0"],
    [50359,"2016-02-03T02:00:00","19.4","ND","ND","ND","ND","3.5","ND","ND","ND","ND","ND","0"],
    [50360,"2016-02-03T03:00:00","37.7","ND","ND","ND","ND","5.8","ND","ND","ND","ND","ND","0"],
    [50361,"2016-02-03T04:00:00","39.7","ND","ND","ND","ND","5.9","ND","ND","ND","ND","ND","0"],
    [50362,"2016-02-03T05:00:00","38.6","ND","ND","ND","ND","2.6","ND","ND","ND","ND","ND","0"],
    [50363,"2016-02-03T06:00:00","39.7","ND","ND","ND","ND","2.6","ND","ND","ND","ND","ND","0"],
    [50364,"2016-02-03T07:00:00","47.9","ND","ND","ND","ND","2.6","ND","ND","ND","ND","ND","0"],
    [50365,"2016-02-03T08:00:00","83.9","ND","ND","ND","ND","3.8","ND","ND","ND","ND","ND","0"],
    [50366,"2016-02-03T09:00:00","95.6","ND","ND","ND","ND","4.1","ND","ND","ND","ND","ND","0"],
    [50367,"2016-02-03T10:00:00","81.1","ND","ND","ND","ND","2.7","ND","ND","ND","ND","ND","0"],
    [50368,"2016-02-03T11:00:00","45.3","ND","ND","ND","ND","2.4","ND","ND","ND","ND","ND","0"],
    [50369,"2016-02-03T12:00:00","35.7","ND","ND","ND","ND","1.6","ND","ND","ND","ND","ND","0"],
    [50370,"2016-02-03T13:00:00","33.8","ND","ND","ND","ND","1.0","ND","ND","ND","ND","ND","0"],
    [50371,"2016-02-03T14:00:00","36.6","ND","ND","ND","ND","1.2","ND","ND","ND","ND","ND","0"],
    [50372,"2016-02-03T15:00:00","40.9","ND","ND","ND","ND","1.2","ND","ND","ND","ND","ND","0"],
    [50373,"2016-02-03T16:00:00","30.4","ND","ND","ND","ND","1.0","ND","ND","ND","ND","ND","0"],
    [50374,"2016-02-03T17:00:00","17.2","ND","ND","ND","ND","0.9","ND","ND","ND","ND","ND","0"],
    [50375,"2016-02-03T18:00:00","1.6","ND","ND","ND","ND","1.2","ND","ND","ND","ND","ND","0"],
    [50376,"2016-02-03T19:00:00","ND","ND","ND","ND","ND","2.2","ND","ND","ND","ND","ND","0"],
    [50377,"2016-02-03T20:00:00","10.9","ND","ND","ND","ND","1.8","ND","ND","ND","ND","ND","0"],
    [50378,"2016-02-03T21:00:00","76","ND","ND","ND","ND","2.7","ND","ND","ND","ND","ND","0"],
    [50379,"2016-02-03T22:00:00","76.6","ND","ND","ND","ND","3.1","ND","ND","ND","ND","ND","0"],
    [50380,"2016-02-03T23:00:00","63.2","ND","ND","ND","ND","3.6","ND","ND","ND","ND","ND","0"],
    [50381,"2016-02-04T00:00:00","47.5","ND","ND","ND","ND","3.8","ND","ND","ND","ND","ND","0"],
    [50382,"2016-02-04T01:00:00","42","ND","ND","ND","ND","5.1","ND","ND","ND","ND","ND","0"],
    [50383,"2016-02-04T02:00:00","28.8","ND","ND","ND","ND","9.7","ND","ND","ND","ND","ND","0"],
    [50384,"2016-02-04T03:00:00","21.8","ND","ND","ND","ND","3.1","ND","ND","ND","ND","ND","0"],
    [50385,"2016-02-04T04:00:00","16.7","ND","ND","ND","ND","3.6","ND","ND","ND","ND","ND","0"],
    [50386,"2016-02-04T05:00:00","21.7","ND","ND","ND","ND","4.6","ND","ND","ND","ND","ND","0"],
    [50387,"2016-02-04T06:00:00","45.6","ND","ND","ND","ND","2.3","ND","ND","ND","ND","ND","0"],
    [50388,"2016-02-04T07:00:00","59.3","ND","ND","ND","ND","3.0","ND","ND","ND","ND","ND","0"],
    [50389,"2016-02-04T08:00:00","50.5","ND","ND","ND","ND","2.2","ND","ND","ND","ND","ND","0"],
    [50390,"2016-02-04T09:00:00","46.8","ND","ND","ND","ND","1.9","ND","ND","ND","ND","ND","0"],
    [50391,"2016-02-04T10:00:00","64.7","ND","ND","ND","ND","3.3","ND","ND","ND","ND","ND","0"],
    [50392,"2016-02-04T11:00:00","77.5","ND","ND","ND","ND","1.9","ND","ND","ND","ND","ND","0"],
    [50393,"2016-02-04T12:00:00","60.1","ND","ND","ND","ND","1.9","ND","ND","ND","ND","ND","0"],
    [50394,"2016-02-04T13:00:00","33","ND","ND","ND","ND","1.0","ND","ND","ND","ND","ND","0"],
    [50395,"2016-02-04T14:00:00","19.4","ND","ND","ND","ND","1.9","ND","ND","ND","ND","ND","0"],
    [50396,"2016-02-04T15:00:00","15.9","ND","ND","ND","ND","1.5","ND","ND","ND","ND","ND","0"],
    [50397,"2016-02-04T16:00:00","11.7","ND","ND","ND","ND","0.7","ND","ND","ND","ND","ND","0"],
    [50398,"2016-02-04T17:00:00","9","ND","ND","ND","ND","2.0","ND","ND","ND","ND","ND","0"],
    [50399,"2016-02-04T18:00:00","28.4","ND","ND","ND","ND","1.3","ND","ND","ND","ND","ND","0"],
    [50400,"2016-02-04T19:00:00","3.7","ND","ND","ND","ND","1.4","ND","ND","ND","ND","ND","0"],
    [50401,"2016-02-04T20:00:00","12.1","ND","ND","ND","ND","0.9","ND","ND","ND","ND","ND","0"],
    [50402,"2016-02-04T21:00:00","36.2","ND","ND","ND","ND","1.5","ND","ND","ND","ND","ND","0"],
    [50403,"2016-02-04T22:00:00","28.3","ND","ND","ND","ND","1.4","ND","ND","ND","ND","ND","0"],
    [50404,"2016-02-04T23:00:00","27.3","ND","ND","ND","ND","0.9","ND","ND","ND","ND","ND","0"],
    [50405,"2016-02-05T00:00:00","19.3","ND","ND","ND","ND","1.2","ND","ND","ND","ND","ND","0"],
    [50406,"2016-02-05T01:00:00","9.6","ND","ND","ND","ND","1.7","ND","ND","ND","ND","ND","0"],
    [50407,"2016-02-05T02:00:00","12.3","ND","ND","ND","ND","1.7","ND","ND","ND","ND","ND","0"],
    [50408,"2016-02-05T03:00:00","19.4","ND","ND","ND","ND","1.6","ND","ND","ND","ND","ND","0"],
    [50409,"2016-02-05T04:00:00","15.2","ND","ND","ND","ND","1.6","ND","ND","ND","ND","ND","0"],
    [50410,"2016-02-05T05:00:00","8.2","ND","ND","ND","ND","1.1","ND","ND","ND","ND","ND","0"],
    [50411,"2016-02-05T06:00:00","6.8","ND","ND","ND","ND","1.4","ND","ND","ND","ND","ND","0"],
    [50412,"2016-02-05T07:00:00","13.3","ND","ND","ND","ND","2.3","ND","ND","ND","ND","ND","0"],
    [50413,"2016-02-05T08:00:00","29.2","ND","ND","ND","ND","2.2","ND","ND","ND","ND","ND","0"],
    [50414,"2016-02-05T09:00:00","40.2","ND","ND","ND","ND","2.1","ND","ND","ND","ND","ND","0"],
    [50415,"2016-02-05T10:00:00","44.3","ND","ND","ND","ND","4.0","ND","ND","ND","ND","ND","0"],
    [50416,"2016-02-05T11:00:00","42.5","ND","ND","ND","ND","4.6","ND","ND","ND","ND","ND","0"],
    [50417,"2016-02-05T12:00:00","50.9","ND","ND","ND","ND","6.5","ND","ND","ND","ND","ND","0"],
    [50418,"2016-02-05T13:00:00","29.8","ND","ND","ND","ND","2.5","ND","ND","ND","ND","ND","0"],
    [50419,"2016-02-05T14:00:00","17.9","ND","ND","ND","ND","1.0","ND","ND","ND","ND","ND","0"],
    [50420,"2016-02-05T15:00:00","11.1","ND","ND","ND","ND","1.7","ND","ND","ND","ND","ND","0"],
    [50421,"2016-02-05T16:00:00","13.5","ND","ND","ND","ND","1.9","ND","ND","ND","ND","ND","0"],
    [50422,"2016-02-05T17:00:00","11.8","ND","ND","ND","ND","1.6","ND","ND","ND","ND","ND","0"],
    [50423,"2016-02-05T18:00:00","8","ND","ND","ND","ND","1.6","ND","ND","ND","ND","ND","0"],
    [50424,"2016-02-05T19:00:00","10.1","ND","ND","ND","ND","1.7","ND","ND","ND","ND","ND","0"],
    [50425,"2016-02-05T20:00:00","22","ND","ND","ND","ND","2.7","ND","ND","ND","ND","ND","0"],
    [50426,"2016-02-05T21:00:00","60.9","ND","ND","ND","ND","2.1","ND","ND","ND","ND","ND","0"],
    [50427,"2016-02-05T22:00:00","27.2","ND","ND","ND","ND","3.9","ND","ND","ND","ND","ND","0"],
    [50428,"2016-02-05T23:00:00","92.3","ND","ND","ND","ND","4.2","ND","ND","ND","ND","ND","0"],
    [50429,"2016-02-06T00:00:00","76.9","ND","ND","ND","ND","4.0","ND","ND","ND","ND","ND","0"],
    [50430,"2016-02-06T01:00:00","52.8","ND","ND","ND","ND","3.6","ND","ND","ND","ND","ND","0"],
    [50431,"2016-02-06T02:00:00","44.9","ND","ND","ND","ND","3.2","ND","ND","ND","ND","ND","0"],
    [50432,"2016-02-06T03:00:00","60.5","ND","ND","ND","ND","4.7","ND","ND","ND","ND","ND","0"],
    [50433,"2016-02-06T04:00:00","121","ND","ND","ND","ND","4.3","ND","ND","ND","ND","ND","0"],
    [50434,"2016-02-06T05:00:00","63.8","ND","ND","ND","ND","6.3","ND","ND","ND","ND","ND","0"],
    [50435,"2016-02-06T06:00:00","59.6","ND","ND","ND","ND","7.3","ND","ND","ND","ND","ND","0"],
    [50436,"2016-02-06T07:00:00","73.4","ND","ND","ND","ND","13.5","ND","ND","ND","ND","ND","0"],
    [50437,"2016-02-06T08:00:00","80.1","ND","ND","ND","ND","21.6","ND","ND","ND","ND","ND","0"],
    [50438,"2016-02-06T09:00:00","74.4","ND","ND","ND","ND","14.4","ND","ND","ND","ND","ND","0"],
    [50439,"2016-02-06T10:00:00","62.4","ND","ND","ND","ND","7.1","ND","ND","ND","ND","ND","0"],
    [50440,"2016-02-06T11:00:00","54.5","ND","ND","ND","ND","3.7","ND","ND","ND","ND","ND","0"],
    [50441,"2016-02-06T12:00:00","35.5","ND","ND","ND","ND","1.6","ND","ND","ND","ND","ND","0"],
    [50442,"2016-02-06T13:00:00","28.3","ND","ND","ND","ND","2.1","ND","ND","ND","ND","ND","0"],
    [50443,"2016-02-06T14:00:00","22.3","ND","ND","ND","ND","1.2","ND","ND","ND","ND","ND","0"],
    [50444,"2016-02-06T15:00:00","19.5","ND","ND","ND","ND","1.4","ND","ND","ND","ND","ND","0"],
    [50445,"2016-02-06T16:00:00","33.4","ND","ND","ND","ND","1.8","ND","ND","ND","ND","ND","0"],
    [50446,"2016-02-06T17:00:00","36.9","ND","ND","ND","ND","1.7","ND","ND","ND","ND","ND","0"],
    [50447,"2016-02-06T18:00:00","19.9","ND","ND","ND","ND","1.0","ND","ND","ND","ND","ND","0"],
    [50448,"2016-02-06T19:00:00","1.4","ND","ND","ND","ND","1.3","ND","ND","ND","ND","ND","0"],
    [50449,"2016-02-06T20:00:00","ND","ND","ND","ND","ND","1.3","ND","ND","ND","ND","ND","0"],
    [50450,"2016-02-06T21:00:00","28.7","ND","ND","ND","ND","5.0","ND","ND","ND","ND","ND","0"],
    [50451,"2016-02-06T22:00:00","109.4","ND","ND","ND","ND","6.5","ND","ND","ND","ND","ND","0"],
    [50452,"2016-02-06T23:00:00","94.2","ND","ND","ND","ND","3.5","ND","ND","ND","ND","ND","0"],
    [50453,"2016-02-07T00:00:00","61.3","ND","ND","ND","ND","4.1","ND","ND","ND","ND","ND","0"],
    [50454,"2016-02-07T01:00:00","48.8","ND","ND","ND","ND","6.0","ND","ND","ND","ND","ND","0"],
    [50455,"2016-02-07T02:00:00","29.9","ND","ND","ND","ND","6.2","ND","ND","ND","ND","ND","0"],
    [50456,"2016-02-07T03:00:00","30.5","ND","ND","ND","ND","3.4","ND","ND","ND","ND","ND","0"],
    [50457,"2016-02-07T04:00:00","28.8","ND","ND","ND","ND","2.7","ND","ND","ND","ND","ND","0"],
    [50458,"2016-02-07T05:00:00","42.2","ND","ND","ND","ND","2.6","ND","ND","ND","ND","ND","0"],
    [50459,"2016-02-07T06:00:00","40.6","ND","ND","ND","ND","3.2","ND","ND","ND","ND","ND","0"],
    [50460,"2016-02-07T07:00:00","39","ND","ND","ND","ND","3.1","ND","ND","ND","ND","ND","0"],
    [50461,"2016-02-07T08:00:00","47","ND","ND","ND","ND","2.6","ND","ND","ND","ND","ND","0"],
    [50462,"2016-02-07T09:00:00","51.7","ND","ND","ND","ND","1.7","ND","ND","ND","ND","ND","0"],
    [50463,"2016-02-07T10:00:00","42.7","ND","ND","ND","ND","1.5","ND","ND","ND","ND","ND","0"],
    [50464,"2016-02-07T11:00:00","32.4","ND","ND","ND","ND","1.1","ND","ND","ND","ND","ND","0"],
    [50465,"2016-02-07T12:00:00","27.5","ND","ND","ND","ND","1.3","ND","ND","ND","ND","ND","0"],
    [50466,"2016-02-07T13:00:00","30","ND","ND","ND","ND","1.3","ND","ND","ND","ND","ND","0"],
    [50467,"2016-02-07T14:00:00","37.9","ND","ND","ND","ND","2.0","ND","ND","ND","ND","ND","0"],
    [50468,"2016-02-07T15:00:00","37.4","ND","ND","ND","ND","1.5","ND","ND","ND","ND","ND","0"],
    [50469,"2016-02-07T16:00:00","24.7","ND","ND","ND","ND","1.1","ND","ND","ND","ND","ND","0"],
    [50470,"2016-02-07T17:00:00","23.1","ND","ND","ND","ND","1.4","ND","ND","ND","ND","ND","0"],
    [50471,"2016-02-07T18:00:00","3.7","ND","ND","ND","ND","1.2","ND","ND","ND","ND","ND","0"],
    [50472,"2016-02-07T19:00:00","ND","ND","ND","ND","ND","1.2","ND","ND","ND","ND","ND","0"],
    [50473,"2016-02-07T20:00:00","20.8","ND","ND","ND","ND","1.4","ND","ND","ND","ND","ND","0"],
    [50474,"2016-02-07T21:00:00","46.7","ND","ND","ND","ND","2.6","ND","ND","ND","ND","ND","0"],
    [50475,"2016-02-07T22:00:00","45.8","ND","ND","ND","ND","2.9","ND","ND","ND","ND","ND","0"],
    [50476,"2016-02-07T23:00:00","38.7","ND","ND","ND","ND","3.7","ND","ND","ND","ND","ND","0"],
    [50477,"2016-02-08T00:00:00","18.9","ND","ND","ND","ND","2.1","ND","ND","ND","ND","ND","0"],
    [50478,"2016-02-08T01:00:00","26.5","ND","ND","ND","ND","3.5","ND","ND","ND","ND","ND","0"],
    [50479,"2016-02-08T02:00:00","38.8","ND","ND","ND","ND","1.8","ND","ND","ND","ND","ND","0"],
    [50480,"2016-02-08T03:00:00","27.7","ND","ND","ND","ND","3.1","ND","ND","ND","ND","ND","0"],
    [50481,"2016-02-08T04:00:00","33.3","ND","ND","ND","ND","3.4","ND","ND","ND","ND","ND","0"],
    [50482,"2016-02-08T05:00:00","39.1","ND","ND","ND","ND","3.1","ND","ND","ND","ND","ND","0"],
    [50483,"2016-02-08T06:00:00","34.1","ND","ND","ND","ND","3.0","ND","ND","ND","ND","ND","0"],
    [50484,"2016-02-08T07:00:00","44.6","ND","ND","ND","ND","2.6","ND","ND","ND","ND","ND","0"],
    [50485,"2016-02-08T08:00:00","62.9","ND","ND","ND","ND","4.0","ND","ND","ND","ND","ND","0"],
    [50486,"2016-02-08T09:00:00","63.6","ND","ND","ND","ND","2.3","ND","ND","ND","ND","ND","0"],
    [50487,"2016-02-08T10:00:00","62.1","ND","ND","ND","ND","2.2","ND","ND","ND","ND","ND","0"],
    [50488,"2016-02-08T11:00:00","54.1","ND","ND","ND","ND","1.8","ND","ND","ND","ND","ND","0"],
    [50489,"2016-02-08T12:00:00","45.3","ND","ND","ND","ND","1.5","ND","ND","ND","ND","ND","0"],
    [50490,"2016-02-08T13:00:00","34.1","ND","ND","ND","ND","1.8","ND","ND","ND","ND","ND","0"],
    [50491,"2016-02-08T14:00:00","31.8","ND","ND","ND","ND","2.1","ND","ND","ND","ND","ND","0"],
    [50492,"2016-02-08T15:00:00","35.6","ND","ND","ND","ND","1.2","ND","ND","ND","ND","ND","0"],
    [50493,"2016-02-08T16:00:00","28.6","ND","ND","ND","ND","0.9","ND","ND","ND","ND","ND","0"],
    [50494,"2016-02-08T17:00:00","32.8","ND","ND","ND","ND","1.5","ND","ND","ND","ND","ND","0"],
    [50495,"2016-02-08T18:00:00","48.6","ND","ND","ND","ND","1.5","ND","ND","ND","ND","ND","0"],
    [50496,"2016-02-08T19:00:00","44.5","ND","ND","ND","ND","1.6","ND","ND","ND","ND","ND","0"],
    [50497,"2016-02-08T20:00:00","62.3","ND","ND","ND","ND","1.9","ND","ND","ND","ND","ND","0"],
    [50498,"2016-02-08T21:00:00","21.7","ND","ND","ND","ND","2.0","ND","ND","ND","ND","ND","0"],
    [50499,"2016-02-08T22:00:00","53.6","ND","ND","ND","ND","6.1","ND","ND","ND","ND","ND","0"],
    [50500,"2016-02-08T23:00:00","67.2","ND","ND","ND","ND","2.9","ND","ND","ND","ND","ND","0"],
    [50501,"2016-02-09T00:00:00","59.6","ND","ND","ND","ND","2.7","ND","ND","ND","ND","ND","0"],
    [50502,"2016-02-09T01:00:00","43.2","ND","ND","ND","ND","3.6","ND","ND","ND","ND","ND","0"],
    [50503,"2016-02-09T02:00:00","35.4","ND","ND","ND","ND","3.1","ND","ND","ND","ND","ND","0"],
    [50504,"2016-02-09T03:00:00","29.5","ND","ND","ND","ND","3.3","ND","ND","ND","ND","ND","0"],
    [50505,"2016-02-09T04:00:00","22.7","ND","ND","ND","ND","2.5","ND","ND","ND","ND","ND","0"],
    [50506,"2016-02-09T05:00:00","38.9","ND","ND","ND","ND","2.0","ND","ND","ND","ND","ND","0"],
    [50507,"2016-02-09T06:00:00","36.2","ND","ND","ND","ND","2.8","ND","ND","ND","ND","ND","0"],
    [50508,"2016-02-09T07:00:00","49.2","ND","ND","ND","ND","3.2","ND","ND","ND","ND","ND","0"],
    [50509,"2016-02-09T08:00:00","118.3","ND","ND","ND","ND","3.2","ND","ND","ND","ND","ND","0"],
    [50510,"2016-02-09T09:00:00","104.7","ND","ND","ND","ND","3.2","ND","ND","ND","ND","ND","0"],
    [50511,"2016-02-09T10:00:00","67.8","ND","ND","ND","ND","2.0","ND","ND","ND","ND","ND","0"],
    [50512,"2016-02-09T11:00:00","53.3","ND","ND","ND","ND","2.7","ND","ND","ND","ND","ND","0"],
    [50513,"2016-02-09T12:00:00","56.6","ND","ND","ND","ND","1.3","ND","ND","ND","ND","ND","0"],
    [50514,"2016-02-09T13:00:00","56.5","ND","ND","ND","ND","1.6","ND","ND","ND","ND","ND","0"],
    [50515,"2016-02-09T14:00:00","33.3","ND","ND","ND","ND","1.8","ND","ND","ND","ND","ND","0"],
    [50516,"2016-02-09T15:00:00","23","ND","ND","ND","ND","1.1","ND","ND","ND","ND","ND","0"],
    [50517,"2016-02-09T16:00:00","12.3","ND","ND","ND","ND","1.3","ND","ND","ND","ND","ND","0"],
    [50518,"2016-02-09T17:00:00","18.4","ND","ND","ND","ND","1.2","ND","ND","ND","ND","ND","0"],
    [50519,"2016-02-09T18:00:00","17.7","ND","ND","ND","ND","1.3","ND","ND","ND","ND","ND","0"],
    [50520,"2016-02-09T19:00:00","ND","ND","ND","ND","ND","1.5","ND","ND","ND","ND","ND","0"],
    [50521,"2016-02-09T20:00:00","11.8","ND","ND","ND","ND","2.5","ND","ND","ND","ND","ND","0"],
    [50522,"2016-02-09T21:00:00","69","ND","ND","ND","ND","2.5","ND","ND","ND","ND","ND","0"],
    [50523,"2016-02-09T22:00:00","90.5","ND","ND","ND","ND","6.2","ND","ND","ND","ND","ND","0"],
    [50524,"2016-02-09T23:00:00","71.8","ND","ND","ND","ND","4.8","ND","ND","ND","ND","ND","0"],
    [50525,"2016-02-10T00:00:00","45.4","ND","ND","ND","ND","5.7","ND","ND","ND","ND","ND","0"],
    [50526,"2016-02-10T01:00:00","36.4","ND","ND","ND","ND","5.8","ND","ND","ND","ND","ND","0"],
    [50527,"2016-02-10T02:00:00","50.8","ND","ND","ND","ND","5.9","ND","ND","ND","ND","ND","0"],
    [50528,"2016-02-10T03:00:00","53","ND","ND","ND","ND","5.5","ND","ND","ND","ND","ND","0"],
    [50529,"2016-02-10T04:00:00","58.8","ND","ND","ND","ND","5.8","ND","ND","ND","ND","ND","0"],
    [50530,"2016-02-10T05:00:00","63","ND","ND","ND","ND","6.0","ND","ND","ND","ND","ND","0"],
    [50531,"2016-02-10T06:00:00","71.1","ND","ND","ND","ND","4.3","ND","ND","ND","ND","ND","0"],
    [50532,"2016-02-10T07:00:00","56.7","ND","ND","ND","ND","5.7","ND","ND","ND","ND","ND","0"],
    [50533,"2016-02-10T08:00:00","65.2","ND","ND","ND","ND","6.3","ND","ND","ND","ND","ND","0"],
    [50534,"2016-02-10T09:00:00","75.9","ND","ND","ND","ND","4.0","ND","ND","ND","ND","ND","0"],
    [50535,"2016-02-10T10:00:00","68.2","ND","ND","ND","ND","3.4","ND","ND","ND","ND","ND","0"],
    [50536,"2016-02-10T11:00:00","48.7","ND","ND","ND","ND","3.2","ND","ND","ND","ND","ND","0"],
    [50537,"2016-02-10T12:00:00","33.9","ND","ND","ND","ND","1.7","ND","ND","ND","ND","ND","0"],
    [50538,"2016-02-10T13:00:00","33.2","ND","ND","ND","ND","1.5","ND","ND","ND","ND","ND","0"],
    [50539,"2016-02-10T14:00:00","33.2","ND","ND","ND","ND","1.4","ND","ND","ND","ND","ND","0"],
    [50540,"2016-02-10T15:00:00","44.2","ND","ND","ND","ND","1.7","ND","ND","ND","ND","ND","0"],
    [50541,"2016-02-10T16:00:00","39.3","ND","ND","ND","ND","0.9","ND","ND","ND","ND","ND","0"],
    [50542,"2016-02-10T17:00:00","37.1","ND","ND","ND","ND","1.3","ND","ND","ND","ND","ND","0"],
    [50543,"2016-02-10T18:00:00","26.9","ND","ND","ND","ND","0.9","ND","ND","ND","ND","ND","0"],
    [50544,"2016-02-10T19:00:00","8.2","ND","ND","ND","ND","1.2","ND","ND","ND","ND","ND","0"],
    [50545,"2016-02-10T20:00:00","35.4","ND","ND","ND","ND","1.9","ND","ND","ND","ND","ND","0"],
    [50546,"2016-02-10T21:00:00","58.7","ND","ND","ND","ND","1.5","ND","ND","ND","ND","ND","0"],
    [50547,"2016-02-10T22:00:00","77","ND","ND","ND","ND","2.3","ND","ND","ND","ND","ND","0"],
    [50548,"2016-02-10T23:00:00","56.3","ND","ND","ND","ND","5.8","ND","ND","ND","ND","ND","0"],
    [50549,"2016-02-11T00:00:00","27.5","ND","ND","ND","ND","2.6","ND","ND","ND","ND","ND","0"],
    [50550,"2016-02-11T01:00:00","10.3","ND","ND","ND","ND","4.0","ND","ND","ND","ND","ND","0"],
    [50551,"2016-02-11T02:00:00","30.7","ND","ND","ND","ND","3.0","ND","ND","ND","ND","ND","0"],
    [50552,"2016-02-11T03:00:00","38.9","ND","ND","ND","ND","2.8","ND","ND","ND","ND","ND","0"],
    [50553,"2016-02-11T04:00:00","27.4","ND","ND","ND","ND","4.9","ND","ND","ND","ND","ND","0"],
    [50554,"2016-02-11T05:00:00","31.5","ND","ND","ND","ND","4.3","ND","ND","ND","ND","ND","0"],
    [50555,"2016-02-11T06:00:00","35.2","ND","ND","ND","ND","2.4","ND","ND","ND","ND","ND","0"],
    [50556,"2016-02-11T07:00:00","46.6","ND","ND","ND","ND","3.2","ND","ND","ND","ND","ND","0"],
    [50557,"2016-02-11T08:00:00","57.1","ND","ND","ND","ND","2.8","ND","ND","ND","ND","ND","0"],
    [50558,"2016-02-11T09:00:00","55.8","ND","ND","ND","ND","1.8","ND","ND","ND","ND","ND","0"],
    [50559,"2016-02-11T10:00:00","55.9","ND","ND","ND","ND","1.7","ND","ND","ND","ND","ND","0"],
    [50560,"2016-02-11T11:00:00","53.5","ND","ND","ND","ND","2.4","ND","ND","ND","ND","ND","0"],
    [50561,"2016-02-11T12:00:00","41.1","ND","ND","ND","ND","1.4","ND","ND","ND","ND","ND","0"],
    [50562,"2016-02-11T13:00:00","33.5","ND","ND","ND","ND","1.6","ND","ND","ND","ND","ND","0"],
    [50563,"2016-02-11T14:00:00","17.7","ND","ND","ND","ND","1.3","ND","ND","ND","ND","ND","0"],
    [50564,"2016-02-11T15:00:00","19.8","ND","ND","ND","ND","0.8","ND","ND","ND","ND","ND","0"],
    [50565,"2016-02-11T16:00:00","23.3","ND","ND","ND","ND","1.4","ND","ND","ND","ND","ND","0"],
    [50566,"2016-02-11T17:00:00","12.7","ND","ND","ND","ND","1.1","ND","ND","ND","ND","ND","0"],
    [50567,"2016-02-11T18:00:00","9.8","ND","ND","ND","ND","1.3","ND","ND","ND","ND","ND","0"],
    [50568,"2016-02-11T19:00:00","39.7","ND","ND","ND","ND","1.3","ND","ND","ND","ND","ND","0"],
    [50569,"2016-02-11T20:00:00","43.6","ND","ND","ND","ND","2.0","ND","ND","ND","ND","ND","0"],
    [50570,"2016-02-11T21:00:00","54","ND","ND","ND","ND","1.8","ND","ND","ND","ND","ND","0"],
    [50571,"2016-02-11T22:00:00","58.2","ND","ND","ND","ND","2.4","ND","ND","ND","ND","ND","0"],
    [50572,"2016-02-11T23:00:00","59","ND","ND","ND","ND","2.0","ND","ND","ND","ND","ND","0"],
    [50573,"2016-02-12T00:00:00","29.6","ND","ND","ND","ND","3.0","ND","ND","ND","ND","ND","0"],
    [50574,"2016-02-12T01:00:00","35.8","ND","ND","ND","ND","1.4","ND","ND","ND","ND","ND","0"],
    [50575,"2016-02-12T02:00:00","17.4","ND","ND","ND","ND","2.8","ND","ND","ND","ND","ND","0"],
    [50576,"2016-02-12T03:00:00","16.7","ND","ND","ND","ND","3.2","ND","ND","ND","ND","ND","0"],
    [50577,"2016-02-12T04:00:00","23.1","ND","ND","ND","ND","2.0","ND","ND","ND","ND","ND","0"],
    [50578,"2016-02-12T05:00:00","32.2","ND","ND","ND","ND","4.7","ND","ND","ND","ND","ND","0"],
    [50579,"2016-02-12T06:00:00","42.3","ND","ND","ND","ND","2.8","ND","ND","ND","ND","ND","0"],
    [50580,"2016-02-12T07:00:00","30.2","ND","ND","ND","ND","2.1","ND","ND","ND","ND","ND","0"],
    [50581,"2016-02-12T08:00:00","70.1","ND","ND","ND","ND","4.5","ND","ND","ND","ND","ND","0"],
    [50582,"2016-02-12T09:00:00","79.2","ND","ND","ND","ND","3.6","ND","ND","ND","ND","ND","0"],
    [50583,"2016-02-12T10:00:00","49.3","ND","ND","ND","ND","2.0","ND","ND","ND","ND","ND","0"],
    [50584,"2016-02-12T11:00:00","35.6","ND","ND","ND","ND","1.6","ND","ND","ND","ND","ND","0"],
    [50585,"2016-02-12T12:00:00","34.9","ND","ND","ND","ND","1.4","ND","ND","ND","ND","ND","0"],
    [50586,"2016-02-12T13:00:00","40.4","ND","ND","ND","ND","1.4","ND","ND","ND","ND","ND","0"],
    [50587,"2016-02-12T14:00:00","40.6","ND","ND","ND","ND","1.1","ND","ND","ND","ND","ND","0"],
    [50588,"2016-02-12T15:00:00","36","ND","ND","ND","ND","1.3","ND","ND","ND","ND","ND","0"],
    [50589,"2016-02-12T16:00:00","28.1","ND","ND","ND","ND","1.0","ND","ND","ND","ND","ND","0"],
    [50590,"2016-02-12T17:00:00","10.9","ND","ND","ND","ND","1.1","ND","ND","ND","ND","ND","0"],
    [50591,"2016-02-12T18:00:00","ND","ND","ND","ND","ND","0.7","ND","ND","ND","ND","ND","0"],
    [50592,"2016-02-12T19:00:00","7.2","ND","ND","ND","ND","1.7","ND","ND","ND","ND","ND","0"],
    [50593,"2016-02-12T20:00:00","12.9","ND","ND","ND","ND","1.5","ND","ND","ND","ND","ND","0"],
    [50594,"2016-02-12T21:00:00","34.9","ND","ND","ND","ND","1.0","ND","ND","ND","ND","ND","0"],
    [50595,"2016-02-12T22:00:00","88","ND","ND","ND","ND","2.0","ND","ND","ND","ND","ND","0"],
    [50596,"2016-02-12T23:00:00","103.6","ND","ND","ND","ND","3.5","ND","ND","ND","ND","ND","0"],
    [50597,"2016-02-13T00:00:00","79.4","ND","ND","ND","ND","2.8","ND","ND","ND","ND","ND","0"],
    [50598,"2016-02-13T01:00:00","68.8","ND","ND","ND","ND","2.4","ND","ND","ND","ND","ND","0"],
    [50599,"2016-02-13T02:00:00","49.5","ND","ND","ND","ND","2.1","ND","ND","ND","ND","ND","0"],
    [50600,"2016-02-13T03:00:00","44.3","ND","ND","ND","ND","3.6","ND","ND","ND","ND","ND","0"],
    [50601,"2016-02-13T04:00:00","65.8","ND","ND","ND","ND","4.3","ND","ND","ND","ND","ND","0"],
    [50602,"2016-02-13T05:00:00","61.6","ND","ND","ND","ND","4.0","ND","ND","ND","ND","ND","0"],
    [50603,"2016-02-13T06:00:00","52.9","ND","ND","ND","ND","4.3","ND","ND","ND","ND","ND","0"],
    [50604,"2016-02-13T07:00:00","94.5","ND","ND","ND","ND","6.4","ND","ND","ND","ND","ND","0"],
    [50605,"2016-02-13T08:00:00","102.6","ND","ND","ND","ND","2.7","ND","ND","ND","ND","ND","0"],
    [50606,"2016-02-13T09:00:00","89.8","ND","ND","ND","ND","3.0","ND","ND","ND","ND","ND","0"],
    [50607,"2016-02-13T10:00:00","73.7","ND","ND","ND","ND","2.2","ND","ND","ND","ND","ND","0"],
    [50608,"2016-02-13T11:00:00","54.4","ND","ND","ND","ND","1.7","ND","ND","ND","ND","ND","0"],
    [50609,"2016-02-13T12:00:00","32.5","ND","ND","ND","ND","1.4","ND","ND","ND","ND","ND","0"],
    [50610,"2016-02-13T13:00:00","23.5","ND","ND","ND","ND","0.9","ND","ND","ND","ND","ND","0"],
    [50611,"2016-02-13T14:00:00","21.7","ND","ND","ND","ND","1.3","ND","ND","ND","ND","ND","0"],
    [50612,"2016-02-13T15:00:00","20.8","ND","ND","ND","ND","0.8","ND","ND","ND","ND","ND","0"],
    [50613,"2016-02-13T16:00:00","30.4","ND","ND","ND","ND","1.5","ND","ND","ND","ND","ND","0"],
    [50614,"2016-02-13T17:00:00","31.4","ND","ND","ND","ND","1.3","ND","ND","ND","ND","ND","0"],
    [50615,"2016-02-13T18:00:00","14.2","ND","ND","ND","ND","1.0","ND","ND","ND","ND","ND","0"],
    [50616,"2016-02-13T19:00:00","ND","ND","ND","ND","ND","1.2","ND","ND","ND","ND","ND","0"],
    [50617,"2016-02-13T20:00:00","13.2","ND","ND","ND","ND","0.9","ND","ND","ND","ND","ND","0"],
    [50618,"2016-02-13T21:00:00","46.9","ND","ND","ND","ND","2.0","ND","ND","ND","ND","ND","0"],
    [50619,"2016-02-13T22:00:00","49","ND","ND","ND","ND","1.9","ND","ND","ND","ND","ND","0"],
    [50620,"2016-02-13T23:00:00","44.1","ND","ND","ND","ND","8.9","ND","ND","ND","ND","ND","0"],
    [50621,"2016-02-14T00:00:00","41.1","ND","ND","ND","ND","3.0","ND","ND","ND","ND","ND","0"],
    [50622,"2016-02-14T01:00:00","47.1","ND","ND","ND","ND","6.8","ND","ND","ND","ND","ND","0"],
    [50623,"2016-02-14T02:00:00","81.9","ND","ND","ND","ND","3.2","ND","ND","ND","ND","ND","0"],
    [50624,"2016-02-14T03:00:00","53.2","ND","ND","ND","ND","2.1","ND","ND","ND","ND","ND","0"],
    [50625,"2016-02-14T04:00:00","31.5","ND","ND","ND","ND","2.2","ND","ND","ND","ND","ND","0"],
    [50626,"2016-02-14T05:00:00","37.8","ND","ND","ND","ND","2.8","ND","ND","ND","ND","ND","0"],
    [50627,"2016-02-14T06:00:00","46.3","ND","ND","ND","ND","2.1","ND","ND","ND","ND","ND","0"],
    [50628,"2016-02-14T07:00:00","34.8","ND","ND","ND","ND","3.2","ND","ND","ND","ND","ND","0"],
    [50629,"2016-02-14T08:00:00","31.8","ND","ND","ND","ND","2.7","ND","ND","ND","ND","ND","0"],
    [50630,"2016-02-14T09:00:00","38.2","ND","ND","ND","ND","2.3","ND","ND","ND","ND","ND","0"],
    [50631,"2016-02-14T10:00:00","42.5","ND","ND","ND","ND","2.2","ND","ND","ND","ND","ND","0"],
    [50632,"2016-02-14T11:00:00","32.2","ND","ND","ND","ND","1.4","ND","ND","ND","ND","ND","0"],
    [50633,"2016-02-14T12:00:00","23","ND","ND","ND","ND","1.2","ND","ND","ND","ND","ND","0"],
    [50634,"2016-02-14T13:00:00","26.1","ND","ND","ND","ND","1.3","ND","ND","ND","ND","ND","0"],
    [50635,"2016-02-14T14:00:00","27.4","ND","ND","ND","ND","1.4","ND","ND","ND","ND","ND","0"],
    [50636,"2016-02-14T15:00:00","24.4","ND","ND","ND","ND","1.2","ND","ND","ND","ND","ND","0"],
    [50637,"2016-02-14T16:00:00","33.4","ND","ND","ND","ND","1.8","ND","ND","ND","ND","ND","0"],
    [50638,"2016-02-14T17:00:00","29.6","ND","ND","ND","ND","1.2","ND","ND","ND","ND","ND","0"],
    [50639,"2016-02-14T18:00:00","19.2","ND","ND","ND","ND","1.7","ND","ND","ND","ND","ND","0"],
    [50640,"2016-02-14T19:00:00","4.4","ND","ND","ND","ND","1.3","ND","ND","ND","ND","ND","0"],
    [50641,"2016-02-14T20:00:00","5.6","ND","ND","ND","ND","1.1","ND","ND","ND","ND","ND","0"],
    [50642,"2016-02-14T21:00:00","35.5","ND","ND","ND","ND","2.2","ND","ND","ND","ND","ND","0"],
    [50643,"2016-02-14T22:00:00","54.4","ND","ND","ND","ND","2.5","ND","ND","ND","ND","ND","0"],
    [50644,"2016-02-14T23:00:00","42.9","ND","ND","ND","ND","4.3","ND","ND","ND","ND","ND","0"],
    [50645,"2016-02-15T00:00:00","31","ND","ND","ND","ND","6.3","ND","ND","ND","ND","ND","0"],
    [50646,"2016-02-15T01:00:00","7","ND","ND","ND","ND","3.5","ND","ND","ND","ND","ND","0"],
    [50647,"2016-02-15T02:00:00","13.6","ND","ND","ND","ND","5.0","ND","ND","ND","ND","ND","0"],
    [50648,"2016-02-15T03:00:00","31.3","ND","ND","ND","ND","4.4","ND","ND","ND","ND","ND","0"],
    [50649,"2016-02-15T04:00:00","38.5","ND","ND","ND","ND","2.5","ND","ND","ND","ND","ND","0"],
    [50650,"2016-02-15T05:00:00","39.2","ND","ND","ND","ND","3.5","ND","ND","ND","ND","ND","0"],
    [50651,"2016-02-15T06:00:00","52.8","ND","ND","ND","ND","4.6","ND","ND","ND","ND","ND","0"],
    [50652,"2016-02-15T07:00:00","69.3","ND","ND","ND","ND","3.2","ND","ND","ND","ND","ND","0"],
    [50653,"2016-02-15T08:00:00","84.4","ND","ND","ND","ND","4.6","ND","ND","ND","ND","ND","0"],
    [50654,"2016-02-15T09:00:00","114","ND","ND","ND","ND","4.6","ND","ND","ND","ND","ND","0"],
    [50655,"2016-02-15T10:00:00","97.1","ND","ND","ND","ND","2.8","ND","ND","ND","ND","ND","0"],
    [50656,"2016-02-15T11:00:00","53.4","ND","ND","ND","ND","1.9","ND","ND","ND","ND","ND","0"],
    [50657,"2016-02-15T12:00:00","34.8","ND","ND","ND","ND","1.5","ND","ND","ND","ND","ND","0"],
    [50658,"2016-02-15T13:00:00","37.9","ND","ND","ND","ND","2.0","ND","ND","ND","ND","ND","0"],
    [50659,"2016-02-15T14:00:00","24.7","ND","ND","ND","ND","1.3","ND","ND","ND","ND","ND","0"],
    [50660,"2016-02-15T15:00:00","26.1","ND","ND","ND","ND","1.1","ND","ND","ND","ND","ND","0"],
    [50661,"2016-02-15T16:00:00","29.7","ND","ND","ND","ND","1.4","ND","ND","ND","ND","ND","0"],
    [50662,"2016-02-15T17:00:00","27.8","ND","ND","ND","ND","1.2","ND","ND","ND","ND","ND","0"],
    [50663,"2016-02-15T18:00:00","32.7","ND","ND","ND","ND","1.3","ND","ND","ND","ND","ND","0"],
    [50664,"2016-02-15T19:00:00","26.1","ND","ND","ND","ND","1.4","ND","ND","ND","ND","ND","0"],
    [50665,"2016-02-15T20:00:00","20.2","ND","ND","ND","ND","1.8","ND","ND","ND","ND","ND","0"],
    [50666,"2016-02-15T21:00:00","21.8","ND","ND","ND","ND","1.7","ND","ND","ND","ND","ND","0"],
    [50667,"2016-02-15T22:00:00","57.3","ND","ND","ND","ND","4.8","ND","ND","ND","ND","ND","0"],
    [50668,"2016-02-15T23:00:00","69.1","ND","ND","ND","ND","3.7","ND","ND","ND","ND","ND","0"],
    [50669,"2016-02-16T00:00:00","57.2","ND","ND","ND","ND","4.5","ND","ND","ND","ND","ND","0"],
    [50670,"2016-02-16T01:00:00","60.9","ND","ND","ND","ND","3.5","ND","ND","ND","ND","ND","0"],
    [50671,"2016-02-16T02:00:00","47.4","ND","ND","ND","ND","4.1","ND","ND","ND","ND","ND","0"],
    [50672,"2016-02-16T03:00:00","91.2","ND","ND","ND","ND","6.8","ND","ND","ND","ND","ND","0"],
    [50673,"2016-02-16T04:00:00","88","ND","ND","ND","ND","4.0","ND","ND","ND","ND","ND","0"],
    [50674,"2016-02-16T05:00:00","72.5","ND","ND","ND","ND","4.5","ND","ND","ND","ND","ND","0"],
    [50675,"2016-02-16T06:00:00","64.7","ND","ND","ND","ND","2.7","ND","ND","ND","ND","ND","0"],
    [50676,"2016-02-16T07:00:00","83.4","ND","ND","ND","ND","4.1","ND","ND","ND","ND","ND","0"],
    [50677,"2016-02-16T08:00:00","101.6","ND","ND","ND","ND","3.4","ND","ND","ND","ND","ND","0"],
    [50678,"2016-02-16T09:00:00","109.9","ND","ND","ND","ND","7.8","ND","ND","ND","ND","ND","0"],
    [50679,"2016-02-16T10:00:00","112.3","ND","ND","ND","ND","3.6","ND","ND","ND","ND","ND","0"],
    [50680,"2016-02-16T11:00:00","71.1","ND","ND","ND","ND","3.0","ND","ND","ND","ND","ND","0"],
    [50681,"2016-02-16T12:00:00","54.4","ND","ND","ND","ND","2.8","ND","ND","ND","ND","ND","0"],
    [50682,"2016-02-16T13:00:00","52.2","ND","ND","ND","ND","1.9","ND","ND","ND","ND","ND","0"],
    [50683,"2016-02-16T14:00:00","46.8","ND","ND","ND","ND","2.2","ND","ND","ND","ND","ND","0"],
    [50684,"2016-02-16T15:00:00","56.7","ND","ND","ND","ND","1.5","ND","ND","ND","ND","ND","0"],
    [50685,"2016-02-16T16:00:00","57.2","ND","ND","ND","ND","1.7","ND","ND","ND","ND","ND","0"],
    [50686,"2016-02-16T17:00:00","44.5","ND","ND","ND","ND","1.8","ND","ND","ND","ND","ND","0"],
    [50687,"2016-02-16T18:00:00","37.4","ND","ND","ND","ND","2.0","ND","ND","ND","ND","ND","0"],
    [50688,"2016-02-16T19:00:00","41.5","ND","ND","ND","ND","1.2","ND","ND","ND","ND","ND","0"],
    [50689,"2016-02-16T20:00:00","24.7","ND","ND","ND","ND","1.0","ND","ND","ND","ND","ND","0"],
    [50690,"2016-02-16T21:00:00","8.7","ND","ND","ND","ND","1.3","ND","ND","ND","ND","ND","0"],
    [50691,"2016-02-16T22:00:00","20","ND","ND","ND","ND","2.2","ND","ND","ND","ND","ND","0"],
    [50692,"2016-02-16T23:00:00","43.3","ND","ND","ND","ND","3.7","ND","ND","ND","ND","ND","0"],
    [50693,"2016-02-17T00:00:00","39.6","ND","ND","ND","ND","2.9","ND","ND","ND","ND","ND","0"],
    [50694,"2016-02-17T01:00:00","34.6","ND","ND","ND","ND","3.2","ND","ND","ND","ND","ND","0"],
    [50695,"2016-02-17T02:00:00","27.2","ND","ND","ND","ND","10.8","ND","ND","ND","ND","ND","0"],
    [50696,"2016-02-17T03:00:00","44.8","ND","ND","ND","ND","6.0","ND","ND","ND","ND","ND","0"],
    [50697,"2016-02-17T04:00:00","40.3","ND","ND","ND","ND","3.5","ND","ND","ND","ND","ND","0"],
    [50698,"2016-02-17T05:00:00","49.8","ND","ND","ND","ND","1.8","ND","ND","ND","ND","ND","0"],
    [50699,"2016-02-17T06:00:00","48.7","ND","ND","ND","ND","3.2","ND","ND","ND","ND","ND","0"],
    [50700,"2016-02-17T07:00:00","57.5","ND","ND","ND","ND","5.6","ND","ND","ND","ND","ND","0"],
    [50701,"2016-02-17T08:00:00","117.6","ND","ND","ND","ND","7.1","ND","ND","ND","ND","ND","0"],
    [50702,"2016-02-17T09:00:00","123.6","ND","ND","ND","ND","3.7","ND","ND","ND","ND","ND","0"],
    [50703,"2016-02-17T10:00:00","61.7","ND","ND","ND","ND","2.4","ND","ND","ND","ND","ND","0"],
    [50704,"2016-02-17T11:00:00","70.2","ND","ND","ND","ND","1.3","ND","ND","ND","ND","ND","0"],
    [50705,"2016-02-17T12:00:00","52.7","ND","ND","ND","ND","2.0","ND","ND","ND","ND","ND","0"],
    [50706,"2016-02-17T13:00:00","50.9","ND","ND","ND","ND","2.4","ND","ND","ND","ND","ND","0"],
    [50707,"2016-02-17T14:00:00","37.1","ND","ND","ND","ND","1.5","ND","ND","ND","ND","ND","0"],
    [50708,"2016-02-17T15:00:00","11.9","ND","ND","ND","ND","1.5","ND","ND","ND","ND","ND","0"],
    [50709,"2016-02-17T16:00:00","21","ND","ND","ND","ND","0.9","ND","ND","ND","ND","ND","0"],
    [50710,"2016-02-17T17:00:00","11.7","ND","ND","ND","ND","1.4","ND","ND","ND","ND","ND","0"],
    [50711,"2016-02-17T18:00:00","ND","ND","ND","ND","ND","1.1","ND","ND","ND","ND","ND","0"],
    [50712,"2016-02-17T19:00:00","8.6","ND","ND","ND","ND","1.1","ND","ND","ND","ND","ND","2.03"],
    [50713,"2016-02-17T20:00:00","96.7","ND","ND","ND","ND","2.7","ND","ND","ND","ND","ND","0"],
    [50714,"2016-02-17T21:00:00","52.3","ND","ND","ND","ND","1.7","ND","ND","ND","ND","ND","0"],
    [50715,"2016-02-17T22:00:00","24.4","ND","ND","ND","ND","2.6","ND","ND","ND","ND","ND","0"],
    [50716,"2016-02-17T23:00:00","25.4","ND","ND","ND","ND","2.2","ND","ND","ND","ND","ND","0.25"],
    [50717,"2016-02-18T00:00:00","35.2","ND","ND","ND","ND","1.8","ND","ND","ND","ND","ND","0"],
    [50718,"2016-02-18T01:00:00","29.1","ND","ND","ND","ND","2.8","ND","ND","ND","ND","ND","0"],
    [50719,"2016-02-18T02:00:00","45.8","ND","ND","ND","ND","3.8","ND","ND","ND","ND","ND","0"],
    [50720,"2016-02-18T03:00:00","26.2","ND","ND","ND","ND","3.4","ND","ND","ND","ND","ND","0"],
    [50721,"2016-02-18T04:00:00","26.2","ND","ND","ND","ND","4.5","ND","ND","ND","ND","ND","0"],
    [50722,"2016-02-18T05:00:00","37.3","ND","ND","ND","ND","3.5","ND","ND","ND","ND","ND","0"],
    [50723,"2016-02-18T06:00:00","31.3","ND","ND","ND","ND","2.6","ND","ND","ND","ND","ND","0"],
    [50724,"2016-02-18T07:00:00","32","ND","ND","ND","ND","3.3","ND","ND","ND","ND","ND","0"],
    [50725,"2016-02-18T08:00:00","35.6","ND","ND","ND","ND","2.7","ND","ND","ND","ND","ND","0"],
    [50726,"2016-02-18T09:00:00","59.8","ND","ND","ND","ND","5.2","ND","ND","ND","ND","ND","0"],
    [50727,"2016-02-18T10:00:00","73.6","ND","ND","ND","ND","4.4","ND","ND","ND","ND","ND","0"],
    [50728,"2016-02-18T11:00:00","53.4","ND","ND","ND","ND","2.1","ND","ND","ND","ND","ND","0"],
    [50729,"2016-02-18T12:00:00","46.7","ND","ND","ND","ND","2.0","ND","ND","ND","ND","ND","0"],
    [50730,"2016-02-18T13:00:00","42.8","ND","ND","ND","ND","1.2","ND","ND","ND","ND","ND","0"],
    [50731,"2016-02-18T14:00:00","44.3","ND","ND","ND","ND","2.1","ND","ND","ND","ND","ND","0"],
    [50732,"2016-02-18T15:00:00","55.1","ND","ND","ND","ND","1.9","ND","ND","ND","ND","ND","0"],
    [50733,"2016-02-18T16:00:00","42","ND","ND","ND","ND","1.6","ND","ND","ND","ND","ND","0"],
    [50734,"2016-02-18T17:00:00","25.6","ND","ND","ND","ND","1.2","ND","ND","ND","ND","ND","0"],
    [50735,"2016-02-18T18:00:00","39","ND","ND","ND","ND","1.4","ND","ND","ND","ND","ND","0"],
    [50736,"2016-02-18T19:00:00","28.8","ND","ND","ND","ND","1.6","ND","ND","ND","ND","ND","0"],
    [50737,"2016-02-18T20:00:00","13.9","ND","ND","ND","ND","2.0","ND","ND","ND","ND","ND","0"],
    [50738,"2016-02-18T21:00:00","18.9","ND","ND","ND","ND","2.1","ND","ND","ND","ND","ND","0"],
    [50739,"2016-02-18T22:00:00","34.6","ND","ND","ND","ND","2.2","ND","ND","ND","ND","ND","0"],
    [50740,"2016-02-18T23:00:00","56.9","ND","ND","ND","ND","3.4","ND","ND","ND","ND","ND","0"],
    [50741,"2016-02-19T00:00:00","49.5","ND","ND","ND","ND","3.3","ND","ND","ND","ND","ND","0"],
    [50742,"2016-02-19T01:00:00","39.9","ND","ND","ND","ND","3.2","ND","ND","ND","ND","ND","0"],
    [50743,"2016-02-19T02:00:00","23.5","ND","ND","ND","ND","4.3","ND","ND","ND","ND","ND","0"],
    [50744,"2016-02-19T03:00:00","51","ND","ND","ND","ND","3.6","ND","ND","ND","ND","ND","0"],
    [50745,"2016-02-19T04:00:00","60.4","ND","ND","ND","ND","4.6","ND","ND","ND","ND","ND","0"],
    [50746,"2016-02-19T05:00:00","65.7","ND","ND","ND","ND","3.0","ND","ND","ND","ND","ND","0"],
    [50747,"2016-02-19T06:00:00","58.8","ND","ND","ND","ND","1.6","ND","ND","ND","ND","ND","0"],
    [50748,"2016-02-19T07:00:00","64.4","ND","ND","ND","ND","4.8","ND","ND","ND","ND","ND","0"],
    [50749,"2016-02-19T08:00:00","99.5","ND","ND","ND","ND","6.9","ND","ND","ND","ND","ND","0"],
    [50750,"2016-02-19T09:00:00","102.3","ND","ND","ND","ND","4.0","ND","ND","ND","ND","ND","0"],
    [50751,"2016-02-19T10:00:00","79.4","ND","ND","ND","ND","1.9","ND","ND","ND","ND","ND","0"],
    [50752,"2016-02-19T11:00:00","41.7","ND","ND","ND","ND","2.3","ND","ND","ND","ND","ND","0"],
    [50753,"2016-02-19T12:00:00","33.3","ND","ND","ND","ND","0.8","ND","ND","ND","ND","ND","0"],
    [50754,"2016-02-19T13:00:00","30.2","ND","ND","ND","ND","1.7","ND","ND","ND","ND","ND","0"],
    [50755,"2016-02-19T14:00:00","27.7","ND","ND","ND","ND","1.1","ND","ND","ND","ND","ND","0"],
    [50756,"2016-02-19T15:00:00","45.7","ND","ND","ND","ND","1.1","ND","ND","ND","ND","ND","0"],
    [50757,"2016-02-19T16:00:00","39.5","ND","ND","ND","ND","1.0","ND","ND","ND","ND","ND","0"],
    [50758,"2016-02-19T17:00:00","40.2","ND","ND","ND","ND","0.8","ND","ND","ND","ND","ND","0"],
    [50759,"2016-02-19T18:00:00","38.8","ND","ND","ND","ND","1.4","ND","ND","ND","ND","ND","0"],
    [50760,"2016-02-19T19:00:00","5.1","ND","ND","ND","ND","1.5","ND","ND","ND","ND","ND","0"],
    [50761,"2016-02-19T20:00:00","13","ND","ND","ND","ND","1.8","ND","ND","ND","ND","ND","0"],
    [50762,"2016-02-19T21:00:00","50.3","ND","ND","ND","ND","2.0","ND","ND","ND","ND","ND","0"],
    [50763,"2016-02-19T22:00:00","54.1","ND","ND","ND","ND","8.1","ND","ND","ND","ND","ND","0"],
    [50764,"2016-02-19T23:00:00","55.3","ND","ND","ND","ND","3.2","ND","ND","ND","ND","ND","0"],
    [50765,"2016-02-20T00:00:00","38.3","ND","ND","ND","ND","9.0","ND","ND","ND","ND","ND","0"],
    [50766,"2016-02-20T01:00:00","37.7","ND","ND","ND","ND","3.9","ND","ND","ND","ND","ND","0"],
    [50767,"2016-02-20T02:00:00","32.4","ND","ND","ND","ND","4.1","ND","ND","ND","ND","ND","0"],
    [50768,"2016-02-20T03:00:00","37.9","ND","ND","ND","ND","4.0","ND","ND","ND","ND","ND","0"],
    [50769,"2016-02-20T04:00:00","46.9","ND","ND","ND","ND","4.6","ND","ND","ND","ND","ND","0"],
    [50770,"2016-02-20T05:00:00","57.1","ND","ND","ND","ND","5.0","ND","ND","ND","ND","ND","0"],
    [50771,"2016-02-20T06:00:00","62.6","ND","ND","ND","ND","2.9","ND","ND","ND","ND","ND","0"],
    [50772,"2016-02-20T07:00:00","67.5","ND","ND","ND","ND","3.4","ND","ND","ND","ND","ND","0"],
    [50773,"2016-02-20T08:00:00","59.9","ND","ND","ND","ND","4.6","ND","ND","ND","ND","ND","0"],
    [50774,"2016-02-20T09:00:00","68.3","ND","ND","ND","ND","5.5","ND","ND","ND","ND","ND","0"],
    [50775,"2016-02-20T10:00:00","73.4","ND","ND","ND","ND","3.3","ND","ND","ND","ND","ND","0"],
    [50776,"2016-02-20T11:00:00","73.7","ND","ND","ND","ND","2.3","ND","ND","ND","ND","ND","0"],
    [50777,"2016-02-20T12:00:00","56.2","ND","ND","ND","ND","1.4","ND","ND","ND","ND","ND","0"],
    [50778,"2016-02-20T13:00:00","48.1","ND","ND","ND","ND","2.6","ND","ND","ND","ND","ND","0"],
    [50779,"2016-02-20T14:00:00","24.9","ND","ND","ND","ND","1.7","ND","ND","ND","ND","ND","0"],
    [50780,"2016-02-20T15:00:00","23.5","ND","ND","ND","ND","1.6","ND","ND","ND","ND","ND","0"],
    [50781,"2016-02-20T16:00:00","13.8","ND","ND","ND","ND","0.8","ND","ND","ND","ND","ND","0"],
    [50782,"2016-02-20T17:00:00","7.1","ND","ND","ND","ND","1.0","ND","ND","ND","ND","ND","0"],
    [50783,"2016-02-20T18:00:00","13.3","ND","ND","ND","ND","0.9","ND","ND","ND","ND","ND","0"],
    [50784,"2016-02-20T19:00:00","1.1","ND","ND","ND","ND","1.6","ND","ND","ND","ND","ND","0"],
    [50785,"2016-02-20T20:00:00","19.9","ND","ND","ND","ND","1.9","ND","ND","ND","ND","ND","0"],
    [50786,"2016-02-20T21:00:00","38.5","ND","ND","ND","ND","1.4","ND","ND","ND","ND","ND","0"],
    [50787,"2016-02-20T22:00:00","43.4","ND","ND","ND","ND","1.3","ND","ND","ND","ND","ND","0"],
    [50788,"2016-02-20T23:00:00","21.7","ND","ND","ND","ND","1.3","ND","ND","ND","ND","ND","0"],
    [50789,"2016-02-21T00:00:00","31.4","ND","ND","ND","ND","1.5","ND","ND","ND","ND","ND","0"],
    [50790,"2016-02-21T01:00:00","29.5","ND","ND","ND","ND","1.3","ND","ND","ND","ND","ND","0"],
    [50791,"2016-02-21T02:00:00","6.6","ND","ND","ND","ND","7.5","ND","ND","ND","ND","ND","0"],
    [50792,"2016-02-21T03:00:00","23.6","ND","ND","ND","ND","6.7","ND","ND","ND","ND","ND","7.11"],
    [50793,"2016-02-21T04:00:00","28.6","ND","ND","ND","ND","10.2","ND","ND","ND","ND","ND","2.29"],
    [50794,"2016-02-21T05:00:00","25.5","ND","ND","ND","ND","6.9","ND","ND","ND","ND","ND","1.52"],
    [50795,"2016-02-21T06:00:00","21.6","ND","ND","ND","ND","8.7","ND","ND","ND","ND","ND","0.25"],
    [50796,"2016-02-21T07:00:00","25.5","ND","ND","ND","ND","10.6","ND","ND","ND","ND","ND","3.05"],
    [50797,"2016-02-21T08:00:00","14","ND","ND","ND","ND","10.4","ND","ND","ND","ND","ND","0.25"],
    [50798,"2016-02-21T09:00:00","19.4","ND","ND","ND","ND","10.0","ND","ND","ND","ND","ND","0"],
    [50799,"2016-02-21T10:00:00","25.2","ND","ND","ND","ND","6.9","ND","ND","ND","ND","ND","0"],
    [50800,"2016-02-21T11:00:00","29.5","ND","ND","ND","ND","7.8","ND","ND","ND","ND","ND","0"],
    [50801,"2016-02-21T12:00:00","15.2","ND","ND","ND","ND","3.9","ND","ND","ND","ND","ND","0"],
    [50802,"2016-02-21T13:00:00","6.1","ND","ND","ND","ND","1.5","ND","ND","ND","ND","ND","0"],
    [50803,"2016-02-21T14:00:00","12","ND","ND","ND","ND","1.4","ND","ND","ND","ND","ND","0.25"],
    [50804,"2016-02-21T15:00:00","13.2","ND","ND","ND","ND","2.3","ND","ND","ND","ND","ND","0.25"],
    [50805,"2016-02-21T16:00:00","15.6","ND","ND","ND","ND","2.4","ND","ND","ND","ND","ND","0"],
    [50806,"2016-02-21T17:00:00","12.5","ND","ND","ND","ND","22.2","ND","ND","ND","ND","ND","0"],
    [50807,"2016-02-21T18:00:00","6.9","ND","ND","ND","ND","4.5","ND","ND","ND","ND","ND","0"],
    [50808,"2016-02-21T19:00:00","6.4","ND","ND","ND","ND","7.9","ND","ND","ND","ND","ND","0"],
    [50809,"2016-02-21T20:00:00","8.3","ND","ND","ND","ND","6.8","ND","ND","ND","ND","ND","0"],
    [50810,"2016-02-21T21:00:00","15.9","ND","ND","ND","ND","11.5","ND","ND","ND","ND","ND","0"],
    [50811,"2016-02-21T22:00:00","15.1","ND","ND","ND","ND","16.8","ND","ND","ND","ND","ND","0"],
    [50812,"2016-02-21T23:00:00","18.8","ND","ND","ND","ND","16.9","ND","ND","ND","ND","ND","0"],
    [50813,"2016-02-22T00:00:00","13.7","ND","ND","ND","ND","3.2","ND","ND","ND","ND","ND","1.52"],
    [50814,"2016-02-22T01:00:00","20.8","ND","ND","ND","ND","1.8","ND","ND","ND","ND","ND","0.25"],
    [50815,"2016-02-22T02:00:00","20.4","ND","ND","ND","ND","1.5","ND","ND","ND","ND","ND","0.76"],
    [50816,"2016-02-22T03:00:00","8.5","ND","ND","ND","ND","1.8","ND","ND","ND","ND","ND","1.02"],
    [50817,"2016-02-22T04:00:00","7.4","ND","ND","ND","ND","1.5","ND","ND","ND","ND","ND","1.02"],
    [50818,"2016-02-22T05:00:00","8.8","ND","ND","ND","ND","1.2","ND","ND","ND","ND","ND","0.25"],
    [50819,"2016-02-22T06:00:00","3.6","ND","ND","ND","ND","1.5","ND","ND","ND","ND","ND","0"],
    [50820,"2016-02-22T07:00:00","6.4","ND","ND","ND","ND","1.8","ND","ND","ND","ND","ND","0"],
    [50821,"2016-02-22T08:00:00","15.1","ND","ND","ND","ND","2.1","ND","ND","ND","ND","ND","0"],
    [50822,"2016-02-22T09:00:00","21.7","ND","ND","ND","ND","2.3","ND","ND","ND","ND","ND","0"],
    [50823,"2016-02-22T10:00:00","30.9","ND","ND","ND","ND","2.4","ND","ND","ND","ND","ND","0"],
    [50824,"2016-02-22T11:00:00","28.9","ND","ND","ND","ND","1.8","ND","ND","ND","ND","ND","0"],
    [50825,"2016-02-22T12:00:00","20.8","ND","ND","ND","ND","1.8","ND","ND","ND","ND","ND","0"],
    [50826,"2016-02-22T13:00:00","11.8","ND","ND","ND","ND","2.5","ND","ND","ND","ND","ND","0"],
    [50827,"2016-02-22T14:00:00","2.6","ND","ND","ND","ND","2.4","ND","ND","ND","ND","ND","0"],
    [50828,"2016-02-22T15:00:00","2.7","ND","ND","ND","ND","1.6","ND","ND","ND","ND","ND","0"],
    [50829,"2016-02-22T16:00:00","10.4","ND","ND","ND","ND","2.8","ND","ND","ND","ND","ND","0"],
    [50830,"2016-02-22T17:00:00","43.4","ND","ND","ND","ND","3.0","ND","ND","ND","ND","ND","0"],
    [50831,"2016-02-22T18:00:00","45","ND","ND","ND","ND","3.4","ND","ND","ND","ND","ND","0"],
    [50832,"2016-02-22T19:00:00","32.5","ND","ND","ND","ND","2.4","ND","ND","ND","ND","ND","0"],
    [50833,"2016-02-22T20:00:00","10.6","ND","ND","ND","ND","3.5","ND","ND","ND","ND","ND","0"],
    [50834,"2016-02-22T21:00:00","35.8","ND","ND","ND","ND","2.7","ND","ND","ND","ND","ND","0"],
    [50835,"2016-02-22T22:00:00","45.2","ND","ND","ND","ND","2.5","ND","ND","ND","ND","ND","0"],
    [50836,"2016-02-22T23:00:00","50.1","ND","ND","ND","ND","7.6","ND","ND","ND","ND","ND","0"],
    [50837,"2016-02-23T00:00:00","76.8","ND","ND","ND","ND","6.4","ND","ND","ND","ND","ND","0"],
    [50838,"2016-02-23T01:00:00","59.9","ND","ND","ND","ND","5.7","ND","ND","ND","ND","ND","0"],
    [50839,"2016-02-23T02:00:00","64.2","ND","ND","ND","ND","5.1","ND","ND","ND","ND","ND","0"],
    [50840,"2016-02-23T03:00:00","57.4","ND","ND","ND","ND","5.4","ND","ND","ND","ND","ND","0"],
    [50841,"2016-02-23T04:00:00","51.6","ND","ND","ND","ND","4.4","ND","ND","ND","ND","ND","0"],
    [50842,"2016-02-23T05:00:00","43","ND","ND","ND","ND","4.5","ND","ND","ND","ND","ND","0"],
    [50843,"2016-02-23T06:00:00","34.3","ND","ND","ND","ND","6.0","ND","ND","ND","ND","ND","0"],
    [50844,"2016-02-23T07:00:00","54.3","ND","ND","ND","ND","5.7","ND","ND","ND","ND","ND","0"],
    [50845,"2016-02-23T08:00:00","48.4","ND","ND","ND","ND","4.2","ND","ND","ND","ND","ND","0"],
    [50846,"2016-02-23T09:00:00","44.6","ND","ND","ND","ND","2.1","ND","ND","ND","ND","ND","0"],
    [50847,"2016-02-23T10:00:00","39.5","ND","ND","ND","ND","2.7","ND","ND","ND","ND","ND","0"],
    [50848,"2016-02-23T11:00:00","30.8","ND","ND","ND","ND","1.4","ND","ND","ND","ND","ND","0"],
    [50849,"2016-02-23T12:00:00","30.1","ND","ND","ND","ND","1.7","ND","ND","ND","ND","ND","0"],
    [50850,"2016-02-23T13:00:00","35.6","ND","ND","ND","ND","1.7","ND","ND","ND","ND","ND","0"],
    [50851,"2016-02-23T14:00:00","41.3","ND","ND","ND","ND","1.9","ND","ND","ND","ND","ND","0"],
    [50852,"2016-02-23T15:00:00","51.8","ND","ND","ND","ND","1.5","ND","ND","ND","ND","ND","0"],
    [50853,"2016-02-23T16:00:00","25.6","ND","ND","ND","ND","1.6","ND","ND","ND","ND","ND","0"],
    [50854,"2016-02-23T17:00:00","ND","ND","ND","ND","ND","1.6","ND","ND","ND","ND","ND","0"],
    [50855,"2016-02-23T18:00:00","6.3","ND","ND","ND","ND","2.2","ND","ND","ND","ND","ND","0"],
    [50856,"2016-02-23T19:00:00","52.7","ND","ND","ND","ND","1.7","ND","ND","ND","ND","ND","0"],
    [50857,"2016-02-23T20:00:00","29.9","ND","ND","ND","ND","1.8","ND","ND","ND","ND","ND","0"],
    [50858,"2016-02-23T21:00:00","39.6","ND","ND","ND","ND","2.4","ND","ND","ND","ND","ND","0"],
    [50859,"2016-02-23T22:00:00","56.4","ND","ND","ND","ND","9.1","ND","ND","ND","ND","ND","0"],
    [50860,"2016-02-23T23:00:00","47","ND","ND","ND","ND","3.3","ND","ND","ND","ND","ND","0"],
    [50861,"2016-02-24T00:00:00","61.1","ND","ND","ND","ND","4.8","ND","ND","ND","ND","ND","0"],
    [50862,"2016-02-24T01:00:00","57","ND","ND","ND","ND","3.3","ND","ND","ND","ND","ND","0"],
    [50863,"2016-02-24T02:00:00","67.5","ND","ND","ND","ND","4.9","ND","ND","ND","ND","ND","0"],
    [50864,"2016-02-24T03:00:00","59.6","ND","ND","ND","ND","5.9","ND","ND","ND","ND","ND","0"],
    [50865,"2016-02-24T04:00:00","59.4","ND","ND","ND","ND","5.6","ND","ND","ND","ND","ND","0"],
    [50866,"2016-02-24T05:00:00","66.3","ND","ND","ND","ND","6.1","ND","ND","ND","ND","ND","0"],
    [50867,"2016-02-24T06:00:00","62.9","ND","ND","ND","ND","3.9","ND","ND","ND","ND","ND","0"],
    [50868,"2016-02-24T07:00:00","68.8","ND","ND","ND","ND","3.6","ND","ND","ND","ND","ND","0"],
    [50869,"2016-02-24T08:00:00","56.3","ND","ND","ND","ND","3.1","ND","ND","ND","ND","ND","0"],
    [50870,"2016-02-24T09:00:00","70.6","ND","ND","ND","ND","2.9","ND","ND","ND","ND","ND","0"],
    [50871,"2016-02-24T10:00:00","83.3","ND","ND","ND","ND","2.0","ND","ND","ND","ND","ND","0"],
    [50872,"2016-02-24T11:00:00","68.3","ND","ND","ND","ND","2.6","ND","ND","ND","ND","ND","0"],
    [50873,"2016-02-24T12:00:00","36","ND","ND","ND","ND","2.2","ND","ND","ND","ND","ND","0"],
    [50874,"2016-02-24T13:00:00","38.2","ND","ND","ND","ND","1.5","ND","ND","ND","ND","ND","0"],
    [50875,"2016-02-24T14:00:00","22.9","ND","ND","ND","ND","1.4","ND","ND","ND","ND","ND","0"],
    [50876,"2016-02-24T15:00:00","6.6","ND","ND","ND","ND","1.4","ND","ND","ND","ND","ND","0"],
    [50877,"2016-02-24T16:00:00","ND","ND","ND","ND","ND","1.8","ND","ND","ND","ND","ND","0"],
    [50878,"2016-02-24T17:00:00","ND","ND","ND","ND","ND","1.3","ND","ND","ND","ND","ND","0"],
    [50879,"2016-02-24T18:00:00","44.3","ND","ND","ND","ND","1.1","ND","ND","ND","ND","ND","0"],
    [50880,"2016-02-24T19:00:00","86.7","ND","ND","ND","ND","0.9","ND","ND","ND","ND","ND","0"],
    [50881,"2016-02-24T20:00:00","59.2","ND","ND","ND","ND","1.4","ND","ND","ND","ND","ND","0"],
    [50882,"2016-02-24T21:00:00","38.9","ND","ND","ND","ND","0.9","ND","ND","ND","ND","ND","0"],
    [50883,"2016-02-24T22:00:00","54.1","ND","ND","ND","ND","5.4","ND","ND","ND","ND","ND","0"],
    [50884,"2016-02-24T23:00:00","44.4","ND","ND","ND","ND","3.0","ND","ND","ND","ND","ND","0"],
    [50885,"2016-02-25T00:00:00","45.8","ND","ND","ND","ND","2.9","ND","ND","ND","ND","ND","0"],
    [50886,"2016-02-25T01:00:00","49.3","ND","ND","ND","ND","5.2","ND","ND","ND","ND","ND","0"],
    [50887,"2016-02-25T02:00:00","69.5","ND","ND","ND","ND","3.4","ND","ND","ND","ND","ND","0"],
    [50888,"2016-02-25T03:00:00","59.7","ND","ND","ND","ND","8.9","ND","ND","ND","ND","ND","0"],
    [50889,"2016-02-25T04:00:00","62.5","ND","ND","ND","ND","8.0","ND","ND","ND","ND","ND","0"],
    [50890,"2016-02-25T05:00:00","64.7","ND","ND","ND","ND","7.2","ND","ND","ND","ND","ND","0"],
    [50891,"2016-02-25T06:00:00","56","ND","ND","ND","ND","2.6","ND","ND","ND","ND","ND","0"],
    [50892,"2016-02-25T07:00:00","44.1","ND","ND","ND","ND","4.1","ND","ND","ND","ND","ND","0"],
    [50893,"2016-02-25T08:00:00","77.1","ND","ND","ND","ND","3.4","ND","ND","ND","ND","ND","0"],
    [50894,"2016-02-25T09:00:00","84","ND","ND","ND","ND","3.6","ND","ND","ND","ND","ND","0"],
    [50895,"2016-02-25T10:00:00","89.3","ND","ND","ND","ND","2.9","ND","ND","ND","ND","ND","0"],
    [50896,"2016-02-25T11:00:00","43.4","ND","ND","ND","ND","2.1","ND","ND","ND","ND","ND","0"],
    [50897,"2016-02-25T12:00:00","31.3","ND","ND","ND","ND","1.7","ND","ND","ND","ND","ND","0"],
    [50898,"2016-02-25T13:00:00","28.9","ND","ND","ND","ND","2.4","ND","ND","ND","ND","ND","0"],
    [50899,"2016-02-25T14:00:00","43.6","ND","ND","ND","ND","3.1","ND","ND","ND","ND","ND","0"],
    [50900,"2016-02-25T15:00:00","30.3","ND","ND","ND","ND","2.6","ND","ND","ND","ND","ND","0"],
    [50901,"2016-02-25T16:00:00","25.4","ND","ND","ND","ND","2.9","ND","ND","ND","ND","ND","0"],
    [50902,"2016-02-25T17:00:00","37","ND","ND","ND","ND","2.2","ND","ND","ND","ND","ND","0"],
    [50903,"2016-02-25T18:00:00","35","ND","ND","ND","ND","2.1","ND","ND","ND","ND","ND","0"],
    [50904,"2016-02-25T19:00:00","32.1","ND","ND","ND","ND","6.8","ND","ND","ND","ND","ND","0"],
    [50905,"2016-02-25T20:00:00","25.9","ND","ND","ND","ND","4.2","ND","ND","ND","ND","ND","0"],
    [50906,"2016-02-25T21:00:00","29.7","ND","ND","ND","ND","2.8","ND","ND","ND","ND","ND","0"],
    [50907,"2016-02-25T22:00:00","23.9","ND","ND","ND","ND","3.1","ND","ND","ND","ND","ND","0"],
    [50908,"2016-02-25T23:00:00","20.9","ND","ND","ND","ND","3.2","ND","ND","ND","ND","ND","0"],
    [50909,"2016-02-26T00:00:00","22.3","ND","ND","ND","ND","2.7","ND","ND","ND","ND","ND","0"],
    [50910,"2016-02-26T01:00:00","22.2","ND","ND","ND","ND","2.1","ND","ND","ND","ND","ND","0"],
    [50911,"2016-02-26T02:00:00","16.5","ND","ND","ND","ND","4.1","ND","ND","ND","ND","ND","0"],
    [50912,"2016-02-26T03:00:00","19","ND","ND","ND","ND","3.8","ND","ND","ND","ND","ND","0"],
    [50913,"2016-02-26T04:00:00","38.2","ND","ND","ND","ND","3.3","ND","ND","ND","ND","ND","0"],
    [50914,"2016-02-26T05:00:00","43.4","ND","ND","ND","ND","3.2","ND","ND","ND","ND","ND","0"],
    [50915,"2016-02-26T06:00:00","31.6","ND","ND","ND","ND","4.1","ND","ND","ND","ND","ND","0"],
    [50916,"2016-02-26T07:00:00","25.6","ND","ND","ND","ND","3.2","ND","ND","ND","ND","ND","0.51"],
    [50917,"2016-02-26T08:00:00","32.5","ND","ND","ND","ND","2.6","ND","ND","ND","ND","ND","0.25"],
    [50918,"2016-02-26T09:00:00","34.6","ND","ND","ND","ND","2.9","ND","ND","ND","ND","ND","0"],
    [50919,"2016-02-26T10:00:00","39.2","ND","ND","ND","ND","2.5","ND","ND","ND","ND","ND","0"],
    [50920,"2016-02-26T11:00:00","35.4","ND","ND","ND","ND","1.9","ND","ND","ND","ND","ND","0"],
    [50921,"2016-02-26T12:00:00","34.4","ND","ND","ND","ND","3.0","ND","ND","ND","ND","ND","0"],
    [50922,"2016-02-26T13:00:00","36","ND","ND","ND","ND","2.5","ND","ND","ND","ND","ND","0"],
    [50923,"2016-02-26T14:00:00","44.5","ND","ND","ND","ND","4.4","ND","ND","ND","ND","ND","0"],
    [50924,"2016-02-26T15:00:00","43.9","ND","ND","ND","ND","3.3","ND","ND","ND","ND","ND","0"],
    [50925,"2016-02-26T16:00:00","39.1","ND","ND","ND","ND","4.6","ND","ND","ND","ND","ND","0"],
    [50926,"2016-02-26T17:00:00","32.2","ND","ND","ND","ND","1.7","ND","ND","ND","ND","ND","0"],
    [50927,"2016-02-26T18:00:00","20.2","ND","ND","ND","ND","3.2","ND","ND","ND","ND","ND","0"],
    [50928,"2016-02-26T19:00:00","14.5","ND","ND","ND","ND","3.1","ND","ND","ND","ND","ND","0"],
    [50929,"2016-02-26T20:00:00","11.1","ND","ND","ND","ND","3.8","ND","ND","ND","ND","ND","0"],
    [50930,"2016-02-26T21:00:00","42.1","ND","ND","ND","ND","5.7","ND","ND","ND","ND","ND","0"],
    [50931,"2016-02-26T22:00:00","61.3","ND","ND","ND","ND","5.2","ND","ND","ND","ND","ND","0"],
    [50932,"2016-02-26T23:00:00","56.8","ND","ND","ND","ND","4.7","ND","ND","ND","ND","ND","0"],
    [50933,"2016-02-27T00:00:00","36.5","ND","ND","ND","ND","5.0","ND","ND","ND","ND","ND","0"],
    [50934,"2016-02-27T01:00:00","39.7","ND","ND","ND","ND","7.0","ND","ND","ND","ND","ND","0"],
    [50935,"2016-02-27T02:00:00","36.6","ND","ND","ND","ND","5.1","ND","ND","ND","ND","ND","0"],
    [50936,"2016-02-27T03:00:00","39.9","ND","ND","ND","ND","4.4","ND","ND","ND","ND","ND","0"],
    [50937,"2016-02-27T04:00:00","42.3","ND","ND","ND","ND","5.4","ND","ND","ND","ND","ND","0"],
    [50938,"2016-02-27T05:00:00","39.2","ND","ND","ND","ND","6.4","ND","ND","ND","ND","ND","0"],
    [50939,"2016-02-27T06:00:00","45.8","ND","ND","ND","ND","4.5","ND","ND","ND","ND","ND","0"],
    [50940,"2016-02-27T07:00:00","57.8","ND","ND","ND","ND","3.9","ND","ND","ND","ND","ND","0"],
    [50941,"2016-02-27T08:00:00","50.8","ND","ND","ND","ND","4.7","ND","ND","ND","ND","ND","0"],
    [50942,"2016-02-27T09:00:00","56.4","ND","ND","ND","ND","5.4","ND","ND","ND","ND","ND","0"],
    [50943,"2016-02-27T10:00:00","58.1","ND","ND","ND","ND","4.4","ND","ND","ND","ND","ND","0"],
    [50944,"2016-02-27T11:00:00","52.3","ND","ND","ND","ND","2.9","ND","ND","ND","ND","ND","0"],
    [50945,"2016-02-27T12:00:00","35.9","ND","ND","ND","ND","2.6","ND","ND","ND","ND","ND","0"],
    [50946,"2016-02-27T13:00:00","34.5","ND","ND","ND","ND","3.5","ND","ND","ND","ND","ND","0"],
    [50947,"2016-02-27T14:00:00","38.5","ND","ND","ND","ND","2.8","ND","ND","ND","ND","ND","0"],
    [50948,"2016-02-27T15:00:00","35.7","ND","ND","ND","ND","1.5","ND","ND","ND","ND","ND","0"],
    [50949,"2016-02-27T16:00:00","40.2","ND","ND","ND","ND","3.5","ND","ND","ND","ND","ND","0"],
    [50950,"2016-02-27T17:00:00","29.4","ND","ND","ND","ND","3.0","ND","ND","ND","ND","ND","0"],
    [50951,"2016-02-27T18:00:00","12.5","ND","ND","ND","ND","2.8","ND","ND","ND","ND","ND","0"],
    [50952,"2016-02-27T19:00:00","10.4","ND","ND","ND","ND","3.8","ND","ND","ND","ND","ND","0"],
    [50953,"2016-02-27T20:00:00","4.2","ND","ND","ND","ND","3.1","ND","ND","ND","ND","ND","0"],
    [50954,"2016-02-27T21:00:00","5.6","ND","ND","ND","ND","2.3","ND","ND","ND","ND","ND","0"],
    [50955,"2016-02-27T22:00:00","26","ND","ND","ND","ND","2.8","ND","ND","ND","ND","ND","0"],
    [50956,"2016-02-27T23:00:00","34.9","ND","ND","ND","ND","4.2","ND","ND","ND","ND","ND","0"],
    [50957,"2016-02-28T00:00:00","32.5","ND","ND","ND","ND","4.2","ND","ND","ND","ND","ND","0"],
    [50958,"2016-02-28T01:00:00","31.6","ND","ND","ND","ND","5.1","ND","ND","ND","ND","ND","0"],
    [50959,"2016-02-28T02:00:00","41.5","ND","ND","ND","ND","4.3","ND","ND","ND","ND","ND","0"],
    [50960,"2016-02-28T03:00:00","45.9","ND","ND","ND","ND","5.7","ND","ND","ND","ND","ND","0"],
    [50961,"2016-02-28T04:00:00","60","ND","ND","ND","ND","5.5","ND","ND","ND","ND","ND","0"],
    [50962,"2016-02-28T05:00:00","39.1","ND","ND","ND","ND","4.7","ND","ND","ND","ND","ND","0"],
    [50963,"2016-02-28T06:00:00","40.1","ND","ND","ND","ND","4.0","ND","ND","ND","ND","ND","0"],
    [50964,"2016-02-28T07:00:00","36","ND","ND","ND","ND","5.5","ND","ND","ND","ND","ND","0"],
    [50965,"2016-02-28T08:00:00","46.4","ND","ND","ND","ND","6.2","ND","ND","ND","ND","ND","0"],
    [50966,"2016-02-28T09:00:00","59.2","ND","ND","ND","ND","4.0","ND","ND","ND","ND","ND","0"],
    [50967,"2016-02-28T10:00:00","75","ND","ND","ND","ND","4.2","ND","ND","ND","ND","ND","0"],
    [50968,"2016-02-28T11:00:00","63.2","ND","ND","ND","ND","2.9","ND","ND","ND","ND","ND","0"],
    [50969,"2016-02-28T12:00:00","37.9","ND","ND","ND","ND","3.7","ND","ND","ND","ND","ND","0"],
    [50970,"2016-02-28T13:00:00","33.8","ND","ND","ND","ND","2.6","ND","ND","ND","ND","ND","0"],
    [50971,"2016-02-28T14:00:00","42","ND","ND","ND","ND","3.4","ND","ND","ND","ND","ND","0"],
    [50972,"2016-02-28T15:00:00","28.4","ND","ND","ND","ND","2.6","ND","ND","ND","ND","ND","0"],
    [50973,"2016-02-28T16:00:00","19.5","ND","ND","ND","ND","2.7","ND","ND","ND","ND","ND","0"],
    [50974,"2016-02-28T17:00:00","15.6","ND","ND","ND","ND","2.5","ND","ND","ND","ND","ND","0"],
    [50975,"2016-02-28T18:00:00","16.3","ND","ND","ND","ND","2.4","ND","ND","ND","ND","ND","0"],
    [50976,"2016-02-28T19:00:00","14.1","ND","ND","ND","ND","4.2","ND","ND","ND","ND","ND","0"],
    [50977,"2016-02-28T20:00:00","16.9","ND","ND","ND","ND","4.1","ND","ND","ND","ND","ND","0"],
    [50978,"2016-02-28T21:00:00","21.1","ND","ND","ND","ND","5.1","ND","ND","ND","ND","ND","0"],
    [50979,"2016-02-28T22:00:00","36.2","ND","ND","ND","ND","5.1","ND","ND","ND","ND","ND","0"],
    [50980,"2016-02-28T23:00:00","50.2","ND","ND","ND","ND","6.9","ND","ND","ND","ND","ND","0"],
    [50981,"2016-02-29T00:00:00","62.8","ND","ND","ND","ND","4.5","ND","ND","ND","ND","ND","0"],
    [50982,"2016-02-29T01:00:00","46.7","ND","ND","ND","ND","3.2","ND","ND","ND","ND","ND","0"],
    [50983,"2016-02-29T02:00:00","43.5","ND","ND","ND","ND","4.6","ND","ND","ND","ND","ND","0"],
    [50984,"2016-02-29T03:00:00","33.8","ND","ND","ND","ND","4.1","ND","ND","ND","ND","ND","0"],
    [50985,"2016-02-29T04:00:00","27.6","ND","ND","ND","ND","4.1","ND","ND","ND","ND","ND","0"],
    [50986,"2016-02-29T05:00:00","25.1","ND","ND","ND","ND","5.3","ND","ND","ND","ND","ND","0"],
    [50987,"2016-02-29T06:00:00","32.4","ND","ND","ND","ND","5.1","ND","ND","ND","ND","ND","0"],
    [50988,"2016-02-29T07:00:00","54.7","ND","ND","ND","ND","5.7","ND","ND","ND","ND","ND","0"],
    [50989,"2016-02-29T08:00:00","55.5","ND","ND","ND","ND","5.7","ND","ND","ND","ND","ND","0"],
    [50990,"2016-02-29T09:00:00","76.2","ND","ND","ND","ND","2.9","ND","ND","ND","ND","ND","0"],
    [50991,"2016-02-29T10:00:00","51.5","ND","ND","ND","ND","2.8","ND","ND","ND","ND","ND","0"],
    [50992,"2016-02-29T11:00:00","36.5","ND","ND","ND","ND","3.6","ND","ND","ND","ND","ND","0"],
    [50993,"2016-02-29T12:00:00","36.1","ND","ND","ND","ND","3.3","ND","ND","ND","ND","ND","0"],
    [50994,"2016-02-29T13:00:00","43","ND","ND","ND","ND","3.4","ND","ND","ND","ND","ND","0"],
    [50995,"2016-02-29T14:00:00","48.4","ND","ND","ND","ND","3.5","ND","ND","ND","ND","ND","0"],
    [50996,"2016-02-29T15:00:00","30.6","ND","ND","ND","ND","3.1","ND","ND","ND","ND","ND","0"],
    [50997,"2016-02-29T16:00:00","35.3","ND","ND","ND","ND","3.3","ND","ND","ND","ND","ND","0"],
    [50998,"2016-02-29T17:00:00","25","ND","ND","ND","ND","3.8","ND","ND","ND","ND","ND","0"],
    [50999,"2016-02-29T18:00:00","21.6","ND","ND","ND","ND","2.7","ND","ND","ND","ND","ND","0"],
    [51000,"2016-02-29T19:00:00","15.3","ND","ND","ND","ND","2.2","ND","ND","ND","ND","ND","0"],
    [51001,"2016-02-29T20:00:00","10.8","ND","ND","ND","ND","2.0","ND","ND","ND","ND","ND","0"],
    [51002,"2016-02-29T21:00:00","4.2","ND","ND","ND","ND","4.1","ND","ND","ND","ND","ND","0"],
    [51003,"2016-02-29T22:00:00","6.3","ND","ND","ND","ND","7.1","ND","ND","ND","ND","ND","0"],
    [51004,"2016-02-29T23:00:00","24.4","ND","ND","ND","ND","4.3","ND","ND","ND","ND","ND","0"],
    [51005,"2016-03-01T00:00:00","34.9","ND","ND","ND","ND","4.1","ND","ND","ND","ND","ND","0"],
    [51006,"2016-03-01T01:00:00","31.8","ND","ND","ND","ND","5.8","ND","ND","ND","ND","ND","0"],
    [51007,"2016-03-01T02:00:00","33.5","ND","ND","ND","ND","4.0","ND","ND","ND","ND","ND","0"],
    [51008,"2016-03-01T03:00:00","25.1","ND","ND","ND","ND","3.5","ND","ND","ND","ND","ND","0"],
    [51009,"2016-03-01T04:00:00","26.2","ND","ND","ND","ND","3.2","ND","ND","ND","ND","ND","0"],
    [51010,"2016-03-01T05:00:00","24.1","ND","ND","ND","ND","3.0","ND","ND","ND","ND","ND","0"],
    [51011,"2016-03-01T06:00:00","22.6","ND","ND","ND","ND","5.9","ND","ND","ND","ND","ND","0"],
    [51012,"2016-03-01T07:00:00","42.6","ND","ND","ND","ND","5.2","ND","ND","ND","ND","ND","0"],
    [51013,"2016-03-01T08:00:00","63","ND","ND","ND","ND","6.8","ND","ND","ND","ND","ND","0"],
    [51014,"2016-03-01T09:00:00","64","ND","ND","ND","ND","4.0","ND","ND","ND","ND","ND","0"],
    [51015,"2016-03-01T10:00:00","56.4","ND","ND","ND","ND","4.8","ND","ND","ND","ND","ND","0"],
    [51016,"2016-03-01T11:00:00","53.5","ND","ND","ND","ND","5.1","ND","ND","ND","ND","ND","0"],
    [51017,"2016-03-01T12:00:00","40.9","ND","ND","ND","ND","3.6","ND","ND","ND","ND","ND","0"],
    [51018,"2016-03-01T13:00:00","33.6","ND","ND","ND","ND","3.8","ND","ND","ND","ND","ND","0"],
    [51019,"2016-03-01T14:00:00","26.5","ND","ND","ND","ND","3.5","ND","ND","ND","ND","ND","0"],
    [51020,"2016-03-01T15:00:00","19.8","ND","ND","ND","ND","2.9","ND","ND","ND","ND","ND","0"],
    [51021,"2016-03-01T16:00:00","26","ND","ND","ND","ND","3.2","ND","ND","ND","ND","ND","0"],
    [51022,"2016-03-01T17:00:00","27.8","ND","ND","ND","ND","2.9","ND","ND","ND","ND","ND","0"],
    [51023,"2016-03-01T18:00:00","16.1","ND","ND","ND","ND","3.4","ND","ND","ND","ND","ND","0"],
    [51024,"2016-03-01T19:00:00","8.8","ND","ND","ND","ND","2.6","ND","ND","ND","ND","ND","0"],
    [51025,"2016-03-01T20:00:00","7.8","ND","ND","ND","ND","3.2","ND","ND","ND","ND","ND","0"],
    [51026,"2016-03-01T21:00:00","16.9","ND","ND","ND","ND","3.0","ND","ND","ND","ND","ND","0"],
    [51027,"2016-03-01T22:00:00","19.2","ND","ND","ND","ND","2.5","ND","ND","ND","ND","ND","0"],
    [51028,"2016-03-01T23:00:00","27.8","ND","ND","ND","ND","3.5","ND","ND","ND","ND","ND","0"],
    [51029,"2016-03-02T00:00:00","37.9","ND","ND","ND","ND","3.5","ND","ND","ND","ND","ND","0"],
    [51030,"2016-03-02T01:00:00","44","ND","ND","ND","ND","3.2","ND","ND","ND","ND","ND","0"],
    [51031,"2016-03-02T02:00:00","30.7","ND","ND","ND","ND","4.4","ND","ND","ND","ND","ND","0"],
    [51032,"2016-03-02T03:00:00","31.7","ND","ND","ND","ND","4.3","ND","ND","ND","ND","ND","0"],
    [51033,"2016-03-02T04:00:00","29.2","ND","ND","ND","ND","4.9","ND","ND","ND","ND","ND","0"],
    [51034,"2016-03-02T05:00:00","13.7","ND","ND","ND","ND","2.5","ND","ND","ND","ND","ND","0"],
    [51035,"2016-03-02T06:00:00","15","ND","ND","ND","ND","3.8","ND","ND","ND","ND","ND","0"],
    [51036,"2016-03-02T07:00:00","19","ND","ND","ND","ND","3.1","ND","ND","ND","ND","ND","0"],
    [51037,"2016-03-02T08:00:00","22.1","ND","ND","ND","ND","3.7","ND","ND","ND","ND","ND","0"],
    [51038,"2016-03-02T09:00:00","34.7","ND","ND","ND","ND","4.2","ND","ND","ND","ND","ND","0"],
    [51039,"2016-03-02T10:00:00","35.2","ND","ND","ND","ND","3.3","ND","ND","ND","ND","ND","0"],
    [51040,"2016-03-02T11:00:00","3.2","ND","ND","ND","ND","2.6","ND","ND","ND","ND","ND","6.35"],
    [51041,"2016-03-02T12:00:00","ND","ND","ND","ND","ND","2.0","ND","ND","ND","ND","ND","7.62"],
    [51042,"2016-03-02T13:00:00","ND","ND","ND","ND","ND","4.2","ND","ND","ND","ND","ND","0"],
    [51043,"2016-03-02T14:00:00","ND","ND","ND","ND","ND","3.8","ND","ND","ND","ND","ND","0.25"],
    [51044,"2016-03-02T15:00:00","69.6","ND","ND","ND","ND","2.2","ND","ND","ND","ND","ND","0"],
    [51045,"2016-03-02T16:00:00","16","ND","ND","ND","ND","3.0","ND","ND","ND","ND","ND","0"],
    [51046,"2016-03-02T17:00:00","22.5","ND","ND","ND","ND","3.1","ND","ND","ND","ND","ND","0"],
    [51047,"2016-03-02T18:00:00","8.5","ND","ND","ND","ND","1.1","ND","ND","ND","ND","ND","0"],
    [51048,"2016-03-02T19:00:00","0.2","ND","ND","ND","ND","2.4","ND","ND","ND","ND","ND","0"],
    [51049,"2016-03-02T20:00:00","ND","ND","ND","ND","ND","1.4","ND","ND","ND","ND","ND","0"],
    [51050,"2016-03-02T21:00:00","ND","ND","ND","ND","ND","2.0","ND","ND","ND","ND","ND","0"],
    [51051,"2016-03-02T22:00:00","52","ND","ND","ND","ND","4.7","ND","ND","ND","ND","ND","0"],
    [51052,"2016-03-02T23:00:00","2","ND","ND","ND","ND","4.6","ND","ND","ND","ND","ND","0"],
    [51053,"2016-03-03T00:00:00","ND","ND","ND","ND","ND","5.6","ND","ND","ND","ND","ND","0"],
    [51054,"2016-03-03T01:00:00","ND","ND","ND","ND","ND","2.8","ND","ND","ND","ND","ND","0"],
    [51055,"2016-03-03T02:00:00","63.4","ND","ND","ND","ND","2.2","ND","ND","ND","ND","ND","0"],
    [51056,"2016-03-03T03:00:00","24.1","ND","ND","ND","ND","3.6","ND","ND","ND","ND","ND","0"],
    [51057,"2016-03-03T04:00:00","42.9","ND","ND","ND","ND","9.7","ND","ND","ND","ND","ND","0"],
    [51058,"2016-03-03T05:00:00","68.3","ND","ND","ND","ND","5.6","ND","ND","ND","ND","ND","0"],
    [51059,"2016-03-03T06:00:00","60.2","ND","ND","ND","ND","7.5","ND","ND","ND","ND","ND","0"],
    [51060,"2016-03-03T07:00:00","43.7","ND","ND","ND","ND","6.0","ND","ND","ND","ND","ND","0"],
    [51061,"2016-03-03T08:00:00","43.2","ND","ND","ND","ND","4.2","ND","ND","ND","ND","ND","0"],
    [51062,"2016-03-03T09:00:00","117.4","ND","ND","ND","ND","5.7","ND","ND","ND","ND","ND","0"],
    [51063,"2016-03-03T10:00:00","150.2","ND","ND","ND","ND","5.0","ND","ND","ND","ND","ND","0"],
    [51064,"2016-03-03T11:00:00","95","ND","ND","ND","ND","1.8","ND","ND","ND","ND","ND","0"],
    [51065,"2016-03-03T12:00:00","54.5","ND","ND","ND","ND","2.0","ND","ND","ND","ND","ND","0"],
    [51066,"2016-03-03T13:00:00","51.1","ND","ND","ND","ND","2.0","ND","ND","ND","ND","ND","0"],
    [51067,"2016-03-03T14:00:00","31.4","ND","ND","ND","ND","1.7","ND","ND","ND","ND","ND","0"],
    [51068,"2016-03-03T15:00:00","2","ND","ND","ND","ND","1.7","ND","ND","ND","ND","ND","0"],
    [51069,"2016-03-03T16:00:00","ND","ND","ND","ND","ND","1.6","ND","ND","ND","ND","ND","0"],
    [51070,"2016-03-03T17:00:00","ND","ND","ND","ND","ND","1.5","ND","ND","ND","ND","ND","0"],
    [51071,"2016-03-03T18:00:00","ND","ND","ND","ND","ND","1.4","ND","ND","ND","ND","ND","0"],
    [51072,"2016-03-03T19:00:00","ND","ND","ND","ND","ND","2.4","ND","ND","ND","ND","ND","0"],
    [51073,"2016-03-03T20:00:00","57.7","ND","ND","ND","ND","2.8","ND","ND","ND","ND","ND","0"],
    [51074,"2016-03-03T21:00:00","78.8","ND","ND","ND","ND","2.3","ND","ND","ND","ND","ND","0"],
    [51075,"2016-03-03T22:00:00","69.3","ND","ND","ND","ND","3.7","ND","ND","ND","ND","ND","0"],
    [51076,"2016-03-03T23:00:00","112.6","ND","ND","ND","ND","2.2","ND","ND","ND","ND","ND","0"],
    [51077,"2016-03-04T00:00:00","100.8","ND","ND","ND","ND","2.7","ND","ND","ND","ND","ND","0"],
    [51078,"2016-03-04T01:00:00","63.5","ND","ND","ND","ND","2.6","ND","ND","ND","ND","ND","0"],
    [51079,"2016-03-04T02:00:00","25.1","ND","ND","ND","ND","5.6","ND","ND","ND","ND","ND","14.73"],
    [51080,"2016-03-04T03:00:00","25.8","ND","ND","ND","ND","2.5","ND","ND","ND","ND","ND","4.83"],
    [51081,"2016-03-04T04:00:00","37.4","ND","ND","ND","ND","4.6","ND","ND","ND","ND","ND","0"],
    [51082,"2016-03-04T05:00:00","17.7","ND","ND","ND","ND","11.2","ND","ND","ND","ND","ND","0.25"],
    [51083,"2016-03-04T06:00:00","2","ND","ND","ND","ND","2.3","ND","ND","ND","ND","ND","12.7"],
    [51084,"2016-03-04T07:00:00","ND","ND","ND","ND","ND","2.5","ND","ND","ND","ND","ND","7.37"],
    [51085,"2016-03-04T08:00:00","17.7","ND","ND","ND","ND","2.4","ND","ND","ND","ND","ND","0.25"],
    [51086,"2016-03-04T09:00:00","41.4","ND","ND","ND","ND","1.7","ND","ND","ND","ND","ND","0"],
    [51087,"2016-03-04T10:00:00","34.5","ND","ND","ND","ND","1.7","ND","ND","ND","ND","ND","0"],
    [51088,"2016-03-04T11:00:00","19.1","ND","ND","ND","ND","2.3","ND","ND","ND","ND","ND","0"],
    [51089,"2016-03-04T12:00:00","9.1","ND","ND","ND","ND","1.3","ND","ND","ND","ND","ND","0"],
    [51090,"2016-03-04T13:00:00","3.5","ND","ND","ND","ND","1.4","ND","ND","ND","ND","ND","0"],
    [51091,"2016-03-04T14:00:00","4.5","ND","ND","ND","ND","1.5","ND","ND","ND","ND","ND","0"],
    [51092,"2016-03-04T15:00:00","5.6","ND","ND","ND","ND","1.1","ND","ND","ND","ND","ND","0"],
    [51093,"2016-03-04T16:00:00","ND","ND","ND","ND","ND","1.5","ND","ND","ND","ND","ND","0"],
    [51094,"2016-03-04T17:00:00","25.5","ND","ND","ND","ND","1.5","ND","ND","ND","ND","ND","2.54"],
    [51095,"2016-03-04T18:00:00","45.1","ND","ND","ND","ND","1.6","ND","ND","ND","ND","ND","0.51"],
    [51096,"2016-03-04T19:00:00","22","ND","ND","ND","ND","1.6","ND","ND","ND","ND","ND","2.29"],
    [51097,"2016-03-04T20:00:00","14.8","ND","ND","ND","ND","1.3","ND","ND","ND","ND","ND","0.25"],
    [51098,"2016-03-04T21:00:00","16.8","ND","ND","ND","ND","1.9","ND","ND","ND","ND","ND","0"],
    [51099,"2016-03-04T22:00:00","19.4","ND","ND","ND","ND","1.1","ND","ND","ND","ND","ND","0"],
    [51100,"2016-03-04T23:00:00","30","ND","ND","ND","ND","2.0","ND","ND","ND","ND","ND","0"],
    [51101,"2016-03-05T00:00:00","26.8","ND","ND","ND","ND","1.5","ND","ND","ND","ND","ND","0"],
    [51102,"2016-03-05T01:00:00","46.4","ND","ND","ND","ND","3.6","ND","ND","ND","ND","ND","0"],
    [51103,"2016-03-05T02:00:00","47.7","ND","ND","ND","ND","3.9","ND","ND","ND","ND","ND","0"],
    [51104,"2016-03-05T03:00:00","59.6","ND","ND","ND","ND","5.2","ND","ND","ND","ND","ND","0"],
    [51105,"2016-03-05T04:00:00","25.3","ND","ND","ND","ND","10.3","ND","ND","ND","ND","ND","0"],
    [51106,"2016-03-05T05:00:00","51.9","ND","ND","ND","ND","12.8","ND","ND","ND","ND","ND","0"],
    [51107,"2016-03-05T06:00:00","41.9","ND","ND","ND","ND","10.1","ND","ND","ND","ND","ND","0"],
    [51108,"2016-03-05T07:00:00","37.6","ND","ND","ND","ND","12.0","ND","ND","ND","ND","ND","0"],
    [51109,"2016-03-05T08:00:00","50.5","ND","ND","ND","ND","8.4","ND","ND","ND","ND","ND","0"],
    [51110,"2016-03-05T09:00:00","74.7","ND","ND","ND","ND","6.1","ND","ND","ND","ND","ND","0"],
    [51111,"2016-03-05T10:00:00","81.7","ND","ND","ND","ND","3.7","ND","ND","ND","ND","ND","0"],
    [51112,"2016-03-05T11:00:00","58.5","ND","ND","ND","ND","3.6","ND","ND","ND","ND","ND","0"],
    [51113,"2016-03-05T12:00:00","40.3","ND","ND","ND","ND","2.8","ND","ND","ND","ND","ND","0"],
    [51114,"2016-03-05T13:00:00","34.2","ND","ND","ND","ND","2.1","ND","ND","ND","ND","ND","0"],
    [51115,"2016-03-05T14:00:00","27.2","ND","ND","ND","ND","1.8","ND","ND","ND","ND","ND","0"],
    [51116,"2016-03-05T15:00:00","43.1","ND","ND","ND","ND","2.0","ND","ND","ND","ND","ND","0"],
    [51117,"2016-03-05T16:00:00","27.7","ND","ND","ND","ND","1.7","ND","ND","ND","ND","ND","0"],
    [51118,"2016-03-05T17:00:00","4.6","ND","ND","ND","ND","1.8","ND","ND","ND","ND","ND","0"],
    [51119,"2016-03-05T18:00:00","ND","ND","ND","ND","ND","1.9","ND","ND","ND","ND","ND","0"],
    [51120,"2016-03-05T19:00:00","ND","ND","ND","ND","ND","1.6","ND","ND","ND","ND","ND","0"],
    [51121,"2016-03-05T20:00:00","28.2","ND","ND","ND","ND","1.7","ND","ND","ND","ND","ND","0"],
    [51122,"2016-03-05T21:00:00","65.6","ND","ND","ND","ND","1.5","ND","ND","ND","ND","ND","0"],
    [51123,"2016-03-05T22:00:00","63.4","ND","ND","ND","ND","1.8","ND","ND","ND","ND","ND","0"],
    [51124,"2016-03-05T23:00:00","29.9","ND","ND","ND","ND","2.1","ND","ND","ND","ND","ND","0"],
    [51125,"2016-03-06T00:00:00","33.7","ND","ND","ND","ND","2.6","ND","ND","ND","ND","ND","0"],
    [51126,"2016-03-06T01:00:00","43.6","ND","ND","ND","ND","2.7","ND","ND","ND","ND","ND","0"],
    [51127,"2016-03-06T02:00:00","39","ND","ND","ND","ND","2.6","ND","ND","ND","ND","ND","0"],
    [51128,"2016-03-06T03:00:00","33.9","ND","ND","ND","ND","1.6","ND","ND","ND","ND","ND","0"],
    [51129,"2016-03-06T04:00:00","36.2","ND","ND","ND","ND","1.3","ND","ND","ND","ND","ND","0"],
    [51130,"2016-03-06T05:00:00","30.4","ND","ND","ND","ND","2.2","ND","ND","ND","ND","ND","0"],
    [51131,"2016-03-06T06:00:00","35.3","ND","ND","ND","ND","1.7","ND","ND","ND","ND","ND","0"],
    [51132,"2016-03-06T07:00:00","22.4","ND","ND","ND","ND","2.3","ND","ND","ND","ND","ND","0"],
    [51133,"2016-03-06T08:00:00","5.9","ND","ND","ND","ND","1.4","ND","ND","ND","ND","ND","3.3"],
    [51134,"2016-03-06T09:00:00","19.9","ND","ND","ND","ND","1.7","ND","ND","ND","ND","ND","0"],
    [51135,"2016-03-06T10:00:00","15.8","ND","ND","ND","ND","1.3","ND","ND","ND","ND","ND","0"],
    [51136,"2016-03-06T11:00:00","20.8","ND","ND","ND","ND","1.4","ND","ND","ND","ND","ND","0"],
    [51137,"2016-03-06T12:00:00","12.4","ND","ND","ND","ND","1.6","ND","ND","ND","ND","ND","0"],
    [51138,"2016-03-06T13:00:00","15.8","ND","ND","ND","ND","1.1","ND","ND","ND","ND","ND","0"],
    [51139,"2016-03-06T14:00:00","3.9","ND","ND","ND","ND","1.5","ND","ND","ND","ND","ND","0"],
    [51140,"2016-03-06T15:00:00","ND","ND","ND","ND","ND","1.6","ND","ND","ND","ND","ND","0"],
    [51141,"2016-03-06T16:00:00","ND","ND","ND","ND","ND","2.1","ND","ND","ND","ND","ND","0"],
    [51142,"2016-03-06T17:00:00","3.3","ND","ND","ND","ND","1.6","ND","ND","ND","ND","ND","0"],
    [51143,"2016-03-06T18:00:00","12.4","ND","ND","ND","ND","1.5","ND","ND","ND","ND","ND","0"],
    [51144,"2016-03-06T19:00:00","63.3","ND","ND","ND","ND","2.0","ND","ND","ND","ND","ND","0"],
    [51145,"2016-03-06T20:00:00","5.4","ND","ND","ND","ND","2.3","ND","ND","ND","ND","ND","0"],
    [51146,"2016-03-06T21:00:00","28","ND","ND","ND","ND","1.4","ND","ND","ND","ND","ND","0"],
    [51147,"2016-03-06T22:00:00","25","ND","ND","ND","ND","0.9","ND","ND","ND","ND","ND","0"],
    [51148,"2016-03-06T23:00:00","32.5","ND","ND","ND","ND","2.2","ND","ND","ND","ND","ND","0"],
    [51149,"2016-03-07T00:00:00","37.4","ND","ND","ND","ND","1.5","ND","ND","ND","ND","ND","0"],
    [51150,"2016-03-07T01:00:00","63","ND","ND","ND","ND","2.1","ND","ND","ND","ND","ND","0"],
    [51151,"2016-03-07T02:00:00","55.5","ND","ND","ND","ND","3.1","ND","ND","ND","ND","ND","0"],
    [51152,"2016-03-07T03:00:00","42.4","ND","ND","ND","ND","2.5","ND","ND","ND","ND","ND","0"],
    [51153,"2016-03-07T04:00:00","38.2","ND","ND","ND","ND","4.5","ND","ND","ND","ND","ND","0"],
    [51154,"2016-03-07T05:00:00","42.4","ND","ND","ND","ND","5.3","ND","ND","ND","ND","ND","0"],
    [51155,"2016-03-07T06:00:00","56.4","ND","ND","ND","ND","6.5","ND","ND","ND","ND","ND","0"],
    [51156,"2016-03-07T07:00:00","61","ND","ND","ND","ND","5.0","ND","ND","ND","ND","ND","0"],
    [51157,"2016-03-07T08:00:00","64.3","ND","ND","ND","ND","5.1","ND","ND","ND","ND","ND","0"],
    [51158,"2016-03-07T09:00:00","76.8","ND","ND","ND","ND","9.8","ND","ND","ND","ND","ND","0"],
    [51159,"2016-03-07T10:00:00","65.6","ND","ND","ND","ND","5.8","ND","ND","ND","ND","ND","0"],
    [51160,"2016-03-07T11:00:00","42.1","ND","ND","ND","ND","3.7","ND","ND","ND","ND","ND","0"],
    [51161,"2016-03-07T12:00:00","36.4","ND","ND","ND","ND","2.4","ND","ND","ND","ND","ND","0"],
    [51162,"2016-03-07T13:00:00","12.6","ND","ND","ND","ND","1.6","ND","ND","ND","ND","ND","0"],
    [51163,"2016-03-07T14:00:00","18","ND","ND","ND","ND","2.4","ND","ND","ND","ND","ND","0"],
    [51164,"2016-03-07T15:00:00","19.2","ND","ND","ND","ND","2.2","ND","ND","ND","ND","ND","0"],
    [51165,"2016-03-07T16:00:00","12.1","ND","ND","ND","ND","1.2","ND","ND","ND","ND","ND","0"],
    [51166,"2016-03-07T17:00:00","ND","ND","ND","ND","ND","1.8","ND","ND","ND","ND","ND","0"],
    [51167,"2016-03-07T18:00:00","ND","ND","ND","ND","ND","1.7","ND","ND","ND","ND","ND","0"],
    [51168,"2016-03-07T19:00:00","ND","ND","ND","ND","ND","3.3","ND","ND","ND","ND","ND","0"],
    [51169,"2016-03-07T20:00:00","83.4","ND","ND","ND","ND","2.1","ND","ND","ND","ND","ND","19.56"],
    [51170,"2016-03-07T21:00:00","147.6","ND","ND","ND","ND","1.9","ND","ND","ND","ND","ND","5.08"],
    [51171,"2016-03-07T22:00:00","76.6","ND","ND","ND","ND","6.0","ND","ND","ND","ND","ND","2.54"],
    [51172,"2016-03-07T23:00:00","25.9","ND","ND","ND","ND","35.7","ND","ND","ND","ND","ND","0.51"],
    [51173,"2016-03-08T00:00:00","17.2","ND","ND","ND","ND","9.9","ND","ND","ND","ND","ND","0"],
    [51174,"2016-03-08T01:00:00","23.6","ND","ND","ND","ND","6.9","ND","ND","ND","ND","ND","0"],
    [51175,"2016-03-08T02:00:00","28.6","ND","ND","ND","ND","2.4","ND","ND","ND","ND","ND","0"],
    [51176,"2016-03-08T03:00:00","26","ND","ND","ND","ND","2.0","ND","ND","ND","ND","ND","0.25"],
    [51177,"2016-03-08T04:00:00","52.2","ND","ND","ND","ND","3.3","ND","ND","ND","ND","ND","0"],
    [51178,"2016-03-08T05:00:00","47.3","ND","ND","ND","ND","5.1","ND","ND","ND","ND","ND","0"],
    [51179,"2016-03-08T06:00:00","36.9","ND","ND","ND","ND","2.6","ND","ND","ND","ND","ND","0"],
    [51180,"2016-03-08T07:00:00","48.5","ND","ND","ND","ND","28.9","ND","ND","ND","ND","ND","0"],
    [51181,"2016-03-08T08:00:00","78.2","ND","ND","ND","ND","23.1","ND","ND","ND","ND","ND","0"],
    [51182,"2016-03-08T09:00:00","72","ND","ND","ND","ND","30.0","ND","ND","ND","ND","ND","0"],
    [51183,"2016-03-08T10:00:00","63.9","ND","ND","ND","ND","7.2","ND","ND","ND","ND","ND","0"],
    [51184,"2016-03-08T11:00:00","57.5","ND","ND","ND","ND","7.3","ND","ND","ND","ND","ND","0"],
    [51185,"2016-03-08T12:00:00","50.1","ND","ND","ND","ND","1.3","ND","ND","ND","ND","ND","0"],
    [51186,"2016-03-08T13:00:00","30.5","ND","ND","ND","ND","2.7","ND","ND","ND","ND","ND","0"],
    [51187,"2016-03-08T14:00:00","25.3","ND","ND","ND","ND","3.1","ND","ND","ND","ND","ND","0"],
    [51188,"2016-03-08T15:00:00","28.3","ND","ND","ND","ND","2.3","ND","ND","ND","ND","ND","0"],
    [51189,"2016-03-08T16:00:00","34.3","ND","ND","ND","ND","1.6","ND","ND","ND","ND","ND","0"],
    [51190,"2016-03-08T17:00:00","17.4","ND","ND","ND","ND","1.8","ND","ND","ND","ND","ND","0"],
    [51191,"2016-03-08T18:00:00","ND","ND","ND","ND","ND","1.7","ND","ND","ND","ND","ND","0"],
    [51192,"2016-03-08T19:00:00","ND","ND","ND","ND","ND","1.9","ND","ND","ND","ND","ND","0"],
    [51193,"2016-03-08T20:00:00","38.3","ND","ND","ND","ND","1.8","ND","ND","ND","ND","ND","0"],
    [51194,"2016-03-08T21:00:00","97.6","ND","ND","ND","ND","3.2","ND","ND","ND","ND","ND","0"],
    [51195,"2016-03-08T22:00:00","107.6","ND","ND","ND","ND","6.4","ND","ND","ND","ND","ND","0"],
    [51196,"2016-03-08T23:00:00","120.3","ND","ND","ND","ND","6.2","ND","ND","ND","ND","ND","0"],
    [51197,"2016-03-09T00:00:00","107.5","ND","ND","ND","ND","4.7","ND","ND","ND","ND","ND","0"],
    [51198,"2016-03-09T01:00:00","65.5","ND","ND","ND","ND","3.5","ND","ND","ND","ND","ND","0"],
    [51199,"2016-03-09T02:00:00","76.7","ND","ND","ND","ND","6.1","ND","ND","ND","ND","ND","0"],
    [51200,"2016-03-09T03:00:00","83.3","ND","ND","ND","ND","6.8","ND","ND","ND","ND","ND","0"],
    [51201,"2016-03-09T04:00:00","80.9","ND","ND","ND","ND","6.0","ND","ND","ND","ND","ND","0"],
    [51202,"2016-03-09T05:00:00","74.6","ND","ND","ND","ND","4.1","ND","ND","ND","ND","ND","0"],
    [51203,"2016-03-09T06:00:00","82.3","ND","ND","ND","ND","5.6","ND","ND","ND","ND","ND","0"],
    [51204,"2016-03-09T07:00:00","82.5","ND","ND","ND","ND","8.0","ND","ND","ND","ND","ND","0"],
    [51205,"2016-03-09T08:00:00","80.7","ND","ND","ND","ND","8.1","ND","ND","ND","ND","ND","0"],
    [51206,"2016-03-09T09:00:00","110.8","ND","ND","ND","ND","14.4","ND","ND","ND","ND","ND","0"],
    [51207,"2016-03-09T10:00:00","74.9","ND","ND","ND","ND","7.7","ND","ND","ND","ND","ND","0"],
    [51208,"2016-03-09T11:00:00","48.1","ND","ND","ND","ND","4.0","ND","ND","ND","ND","ND","0"],
    [51209,"2016-03-09T12:00:00","41.6","ND","ND","ND","ND","2.5","ND","ND","ND","ND","ND","0"],
    [51210,"2016-03-09T13:00:00","41","ND","ND","ND","ND","2.2","ND","ND","ND","ND","ND","0"],
    [51211,"2016-03-09T14:00:00","37.9","ND","ND","ND","ND","1.4","ND","ND","ND","ND","ND","0"],
    [51212,"2016-03-09T15:00:00","32.6","ND","ND","ND","ND","1.3","ND","ND","ND","ND","ND","0"],
    [51213,"2016-03-09T16:00:00","12.4","ND","ND","ND","ND","1.8","ND","ND","ND","ND","ND","0"],
    [51214,"2016-03-09T17:00:00","ND","ND","ND","ND","ND","1.6","ND","ND","ND","ND","ND","0"],
    [51215,"2016-03-09T18:00:00","ND","ND","ND","ND","ND","1.6","ND","ND","ND","ND","ND","0"],
    [51216,"2016-03-09T19:00:00","4.5","ND","ND","ND","ND","1.7","ND","ND","ND","ND","ND","0"],
    [51217,"2016-03-09T20:00:00","37.3","ND","ND","ND","ND","1.4","ND","ND","ND","ND","ND","0"],
    [51218,"2016-03-09T21:00:00","65.8","ND","ND","ND","ND","2.0","ND","ND","ND","ND","ND","0"],
    [51219,"2016-03-09T22:00:00","68.8","ND","ND","ND","ND","1.0","ND","ND","ND","ND","ND","0"],
    [51220,"2016-03-09T23:00:00","99.2","ND","ND","ND","ND","2.7","ND","ND","ND","ND","ND","0"],
    [51221,"2016-03-10T00:00:00","48.7","ND","ND","ND","ND","9.7","ND","ND","ND","ND","ND","0"],
    [51222,"2016-03-10T01:00:00","44.2","ND","ND","ND","ND","7.0","ND","ND","ND","ND","ND","0"],
    [51223,"2016-03-10T02:00:00","17.7","ND","ND","ND","ND","3.2","ND","ND","ND","ND","ND","0"],
    [51224,"2016-03-10T03:00:00","22","ND","ND","ND","ND","2.2","ND","ND","ND","ND","ND","0"],
    [51225,"2016-03-10T04:00:00","42.1","ND","ND","ND","ND","3.1","ND","ND","ND","ND","ND","0"],
    [51226,"2016-03-10T05:00:00","67.3","ND","ND","ND","ND","2.4","ND","ND","ND","ND","ND","0"],
    [51227,"2016-03-10T06:00:00","78.5","ND","ND","ND","ND","3.1","ND","ND","ND","ND","ND","0"],
    [51228,"2016-03-10T07:00:00","90.1","ND","ND","ND","ND","3.7","ND","ND","ND","ND","ND","0"],
    [51229,"2016-03-10T08:00:00","112.1","ND","ND","ND","ND","3.7","ND","ND","ND","ND","ND","0"],
    [51230,"2016-03-10T09:00:00","119.8","ND","ND","ND","ND","4.9","ND","ND","ND","ND","ND","0"],
    [51231,"2016-03-10T10:00:00","102.1","ND","ND","ND","ND","2.3","ND","ND","ND","ND","ND","0"],
    [51232,"2016-03-10T11:00:00","50.7","ND","ND","ND","ND","2.3","ND","ND","ND","ND","ND","0"],
    [51233,"2016-03-10T12:00:00","39.8","ND","ND","ND","ND","2.2","ND","ND","ND","ND","ND","0"],
    [51234,"2016-03-10T13:00:00","35.9","ND","ND","ND","ND","2.4","ND","ND","ND","ND","ND","0"],
    [51235,"2016-03-10T14:00:00","33.8","ND","ND","ND","ND","1.5","ND","ND","ND","ND","ND","0"],
    [51236,"2016-03-10T15:00:00","20.7","ND","ND","ND","ND","2.8","ND","ND","ND","ND","ND","0"],
    [51237,"2016-03-10T16:00:00","35.4","ND","ND","ND","ND","2.2","ND","ND","ND","ND","ND","0"],
    [51238,"2016-03-10T17:00:00","30.4","ND","ND","ND","ND","2.2","ND","ND","ND","ND","ND","0"],
    [51239,"2016-03-10T18:00:00","33.4","ND","ND","ND","ND","2.4","ND","ND","ND","ND","ND","0"],
    [51240,"2016-03-10T19:00:00","26.9","ND","ND","ND","ND","3.9","ND","ND","ND","ND","ND","0"],
    [51241,"2016-03-10T20:00:00","35.4","ND","ND","ND","ND","2.5","ND","ND","ND","ND","ND","0"],
    [51242,"2016-03-10T21:00:00","42.9","ND","ND","ND","ND","4.2","ND","ND","ND","ND","ND","0"],
    [51243,"2016-03-10T22:00:00","29","ND","ND","ND","ND","3.9","ND","ND","ND","ND","ND","0"],
    [51244,"2016-03-10T23:00:00","28.7","ND","ND","ND","ND","3.3","ND","ND","ND","ND","ND","0"],
    [51245,"2016-03-11T00:00:00","30.5","ND","ND","ND","ND","2.9","ND","ND","ND","ND","ND","2.29"],
    [51246,"2016-03-11T01:00:00","35.4","ND","ND","ND","ND","4.6","ND","ND","ND","ND","ND","0"],
    [51247,"2016-03-11T02:00:00","33.9","ND","ND","ND","ND","4.0","ND","ND","ND","ND","ND","0"],
    [51248,"2016-03-11T03:00:00","32.7","ND","ND","ND","ND","2.4","ND","ND","ND","ND","ND","0.25"],
    [51249,"2016-03-11T04:00:00","30.6","ND","ND","ND","ND","4.4","ND","ND","ND","ND","ND","1.78"],
    [51250,"2016-03-11T05:00:00","30.5","ND","ND","ND","ND","4.7","ND","ND","ND","ND","ND","0"],
    [51251,"2016-03-11T06:00:00","29.2","ND","ND","ND","ND","7.1","ND","ND","ND","ND","ND","2.29"],
    [51252,"2016-03-11T07:00:00","24","ND","ND","ND","ND","9.6","ND","ND","ND","ND","ND","0"],
    [51253,"2016-03-11T08:00:00","19.7","ND","ND","ND","ND","7.6","ND","ND","ND","ND","ND","0.25"],
    [51254,"2016-03-11T09:00:00","22.9","ND","ND","ND","ND","6.1","ND","ND","ND","ND","ND","0"],
    [51255,"2016-03-11T10:00:00","41.3","ND","ND","ND","ND","4.5","ND","ND","ND","ND","ND","0"],
    [51256,"2016-03-11T11:00:00","56.2","ND","ND","ND","ND","4.1","ND","ND","ND","ND","ND","0"],
    [51257,"2016-03-11T12:00:00","67.2","ND","ND","ND","ND","3.5","ND","ND","ND","ND","ND","0"],
    [51258,"2016-03-11T13:00:00","63.4","ND","ND","ND","ND","4.5","ND","ND","ND","ND","ND","0"],
    [51259,"2016-03-11T14:00:00","54","ND","ND","ND","ND","3.3","ND","ND","ND","ND","ND","0"],
    [51260,"2016-03-11T15:00:00","46.8","ND","ND","ND","ND","2.7","ND","ND","ND","ND","ND","0"],
    [51261,"2016-03-11T16:00:00","44.8","ND","ND","ND","ND","3.4","ND","ND","ND","ND","ND","0"],
    [51262,"2016-03-11T17:00:00","43.8","ND","ND","ND","ND","3.0","ND","ND","ND","ND","ND","0"],
    [51263,"2016-03-11T18:00:00","26.9","ND","ND","ND","ND","2.4","ND","ND","ND","ND","ND","0"],
    [51264,"2016-03-11T19:00:00","16","ND","ND","ND","ND","3.4","ND","ND","ND","ND","ND","0"],
    [51265,"2016-03-11T20:00:00","10.5","ND","ND","ND","ND","2.5","ND","ND","ND","ND","ND","0"],
    [51266,"2016-03-11T21:00:00","13.6","ND","ND","ND","ND","3.2","ND","ND","ND","ND","ND","0"],
    [51267,"2016-03-11T22:00:00","25.8","ND","ND","ND","ND","3.4","ND","ND","ND","ND","ND","0"],
    [51268,"2016-03-11T23:00:00","49.5","ND","ND","ND","ND","4.1","ND","ND","ND","ND","ND","0"],
    [51269,"2016-03-12T00:00:00","55.2","ND","ND","ND","ND","3.5","ND","ND","ND","ND","ND","0"],
    [51270,"2016-03-12T01:00:00","43.4","ND","ND","ND","ND","3.9","ND","ND","ND","ND","ND","0"],
    [51271,"2016-03-12T02:00:00","35.8","ND","ND","ND","ND","4.4","ND","ND","ND","ND","ND","0"],
    [51272,"2016-03-12T03:00:00","37","ND","ND","ND","ND","3.2","ND","ND","ND","ND","ND","0"],
    [51273,"2016-03-12T04:00:00","29","ND","ND","ND","ND","3.0","ND","ND","ND","ND","ND","0"],
    [51274,"2016-03-12T05:00:00","33.8","ND","ND","ND","ND","3.0","ND","ND","ND","ND","ND","1.52"],
    [51275,"2016-03-12T06:00:00","45.2","ND","ND","ND","ND","4.3","ND","ND","ND","ND","ND","4.83"],
    [51276,"2016-03-12T07:00:00","46.8","ND","ND","ND","ND","5.0","ND","ND","ND","ND","ND","0"],
    [51277,"2016-03-12T08:00:00","37","ND","ND","ND","ND","5.4","ND","ND","ND","ND","ND","0"],
    [51278,"2016-03-12T09:00:00","49","ND","ND","ND","ND","4.0","ND","ND","ND","ND","ND","1.78"],
    [51279,"2016-03-12T10:00:00","42.7","ND","ND","ND","ND","3.2","ND","ND","ND","ND","ND","2.79"],
    [51280,"2016-03-12T11:00:00","42.8","ND","ND","ND","ND","2.9","ND","ND","ND","ND","ND","0.25"],
    [51281,"2016-03-12T12:00:00","46.8","ND","ND","ND","ND","2.8","ND","ND","ND","ND","ND","0"],
    [51282,"2016-03-12T13:00:00","34.4","ND","ND","ND","ND","2.7","ND","ND","ND","ND","ND","0"],
    [51283,"2016-03-12T14:00:00","16.9","ND","ND","ND","ND","2.7","ND","ND","ND","ND","ND","8.38"],
    [51284,"2016-03-12T15:00:00","7.6","ND","ND","ND","ND","2.3","ND","ND","ND","ND","ND","0"],
    [51285,"2016-03-12T16:00:00","23.5","ND","ND","ND","ND","2.6","ND","ND","ND","ND","ND","0"],
    [51286,"2016-03-12T17:00:00","19.5","ND","ND","ND","ND","2.6","ND","ND","ND","ND","ND","0"],
    [51287,"2016-03-12T18:00:00","23.2","ND","ND","ND","ND","3.2","ND","ND","ND","ND","ND","0"],
    [51288,"2016-03-12T19:00:00","10.3","ND","ND","ND","ND","3.9","ND","ND","ND","ND","ND","0"],
    [51289,"2016-03-12T20:00:00","15.6","ND","ND","ND","ND","1.9","ND","ND","ND","ND","ND","0"],
    [51290,"2016-03-12T21:00:00","37.7","ND","ND","ND","ND","3.4","ND","ND","ND","ND","ND","0"],
    [51291,"2016-03-12T22:00:00","47.8","ND","ND","ND","ND","6.0","ND","ND","ND","ND","ND","0"],
    [51292,"2016-03-12T23:00:00","58.5","ND","ND","ND","ND","10.3","ND","ND","ND","ND","ND","0"],
    [51293,"2016-03-13T00:00:00","58.3","ND","ND","ND","ND","3.6","ND","ND","ND","ND","ND","0"],
    [51294,"2016-03-13T01:00:00","62.2","ND","ND","ND","ND","4.2","ND","ND","ND","ND","ND","0"],
    [51295,"2016-03-13T02:00:00","72.8","ND","ND","ND","ND","3.6","ND","ND","ND","ND","ND","0"],
    [51296,"2016-03-13T03:00:00","59.8","ND","ND","ND","ND","5.2","ND","ND","ND","ND","ND","0"],
    [51297,"2016-03-13T04:00:00","62.6","ND","ND","ND","ND","4.2","ND","ND","ND","ND","ND","0"],
    [51298,"2016-03-13T05:00:00","50.9","ND","ND","ND","ND","3.5","ND","ND","ND","ND","ND","0"],
    [51299,"2016-03-13T06:00:00","54.4","ND","ND","ND","ND","5.3","ND","ND","ND","ND","ND","0"],
    [51300,"2016-03-13T07:00:00","54.8","ND","ND","ND","ND","5.2","ND","ND","ND","ND","ND","0"],
    [51301,"2016-03-13T08:00:00","58.2","ND","ND","ND","ND","4.1","ND","ND","ND","ND","ND","0"],
    [51302,"2016-03-13T09:00:00","52.9","ND","ND","ND","ND","4.6","ND","ND","ND","ND","ND","0"],
    [51303,"2016-03-13T10:00:00","53.8","ND","ND","ND","ND","3.7","ND","ND","ND","ND","ND","0"],
    [51304,"2016-03-13T11:00:00","55.4","ND","ND","ND","ND","4.0","ND","ND","ND","ND","ND","0"],
    [51305,"2016-03-13T12:00:00","52.6","ND","ND","ND","ND","3.1","ND","ND","ND","ND","ND","0"],
    [51306,"2016-03-13T13:00:00","41.1","ND","ND","ND","ND","3.5","ND","ND","ND","ND","ND","0"],
    [51307,"2016-03-13T14:00:00","30.2","ND","ND","ND","ND","2.3","ND","ND","ND","ND","ND","0"],
    [51308,"2016-03-13T15:00:00","25.8","ND","ND","ND","ND","1.7","ND","ND","ND","ND","ND","0"],
    [51309,"2016-03-13T16:00:00","23.2","ND","ND","ND","ND","2.4","ND","ND","ND","ND","ND","0"],
    [51310,"2016-03-13T17:00:00","16.5","ND","ND","ND","ND","2.2","ND","ND","ND","ND","ND","0"],
    [51311,"2016-03-13T18:00:00","13.4","ND","ND","ND","ND","2.8","ND","ND","ND","ND","ND","0"],
    [51312,"2016-03-13T19:00:00","31.7","ND","ND","ND","ND","4.2","ND","ND","ND","ND","ND","0"],
    [51313,"2016-03-13T20:00:00","38.2","ND","ND","ND","ND","5.7","ND","ND","ND","ND","ND","0"],
    [51314,"2016-03-13T21:00:00","37.4","ND","ND","ND","ND","5.2","ND","ND","ND","ND","ND","0"],
    [51315,"2016-03-13T22:00:00","32.6","ND","ND","ND","ND","4.8","ND","ND","ND","ND","ND","0"],
    [51316,"2016-03-13T23:00:00","30.6","ND","ND","ND","ND","3.3","ND","ND","ND","ND","ND","0"],
    [51317,"2016-03-14T00:00:00","29","ND","ND","ND","ND","4.0","ND","ND","ND","ND","ND","0"],
    [51318,"2016-03-14T01:00:00","37.6","ND","ND","ND","ND","3.4","ND","ND","ND","ND","ND","0"],
    [51319,"2016-03-14T02:00:00","44.2","ND","ND","ND","ND","3.1","ND","ND","ND","ND","ND","0"],
    [51320,"2016-03-14T03:00:00","39","ND","ND","ND","ND","3.8","ND","ND","ND","ND","ND","0"],
    [51321,"2016-03-14T04:00:00","50.6","ND","ND","ND","ND","3.1","ND","ND","ND","ND","ND","0"],
    [51322,"2016-03-14T05:00:00","60.2","ND","ND","ND","ND","5.5","ND","ND","ND","ND","ND","0"],
    [51323,"2016-03-14T06:00:00","60.2","ND","ND","ND","ND","5.6","ND","ND","ND","ND","ND","0"],
    [51324,"2016-03-14T07:00:00","72.4","ND","ND","ND","ND","3.6","ND","ND","ND","ND","ND","0"],
    [51325,"2016-03-14T08:00:00","86.4","ND","ND","ND","ND","9.5","ND","ND","ND","ND","ND","0"],
    [51326,"2016-03-14T09:00:00","90","ND","ND","ND","ND","9.6","ND","ND","ND","ND","ND","0"],
    [51327,"2016-03-14T10:00:00","65.1","ND","ND","ND","ND","4.0","ND","ND","ND","ND","ND","0"],
    [51328,"2016-03-14T11:00:00","40.2","ND","ND","ND","ND","2.9","ND","ND","ND","ND","ND","0"],
    [51329,"2016-03-14T12:00:00","32.8","ND","ND","ND","ND","3.3","ND","ND","ND","ND","ND","0"],
    [51330,"2016-03-14T13:00:00","34.1","ND","ND","ND","ND","2.4","ND","ND","ND","ND","ND","0"],
    [51331,"2016-03-14T14:00:00","43.7","ND","ND","ND","ND","2.3","ND","ND","ND","ND","ND","0"],
    [51332,"2016-03-14T15:00:00","42.4","ND","ND","ND","ND","2.0","ND","ND","ND","ND","ND","0"],
    [51333,"2016-03-14T16:00:00","ND","ND","ND","ND","ND","1.7","ND","ND","ND","ND","ND","0"],
    [51334,"2016-03-14T17:00:00","ND","ND","ND","ND","ND","1.0","ND","ND","ND","ND","ND","0"],
    [51335,"2016-03-14T18:00:00","ND","ND","ND","ND","ND","1.3","ND","ND","ND","ND","ND","0"],
    [51336,"2016-03-14T19:00:00","ND","ND","ND","ND","ND","1.5","ND","ND","ND","ND","ND","0"],
    [51337,"2016-03-14T20:00:00","ND","ND","ND","ND","ND","1.9","ND","ND","ND","ND","ND","0"],
    [51338,"2016-03-14T21:00:00","ND","ND","ND","ND","ND","1.9","ND","ND","ND","ND","ND","0"],
    [51339,"2016-03-14T22:00:00","ND","ND","ND","ND","ND","2.1","ND","ND","ND","ND","ND","0"],
    [51340,"2016-03-14T23:00:00","ND","ND","ND","ND","ND","0.9","ND","ND","ND","ND","ND","0"],
    [51341,"2016-03-15T00:00:00","120.5","ND","ND","ND","ND","1.4","ND","ND","ND","ND","ND","0"],
    [51342,"2016-03-15T01:00:00","97.5","ND","ND","ND","ND","2.6","ND","ND","ND","ND","ND","0"],
    [51343,"2016-03-15T02:00:00","60.2","ND","ND","ND","ND","3.1","ND","ND","ND","ND","ND","0"],
    [51344,"2016-03-15T03:00:00","74.6","ND","ND","ND","ND","2.2","ND","ND","ND","ND","ND","0"],
    [51345,"2016-03-15T04:00:00","95.5","ND","ND","ND","ND","4.2","ND","ND","ND","ND","ND","3.3"],
    [51346,"2016-03-15T05:00:00","112.2","ND","ND","ND","ND","2.5","ND","ND","ND","ND","ND","2.03"],
    [51347,"2016-03-15T06:00:00","105.6","ND","ND","ND","ND","2.9","ND","ND","ND","ND","ND","0.25"],
    [51348,"2016-03-15T07:00:00","86.6","ND","ND","ND","ND","2.4","ND","ND","ND","ND","ND","0"],
    [51349,"2016-03-15T08:00:00","67.7","ND","ND","ND","ND","3.0","ND","ND","ND","ND","ND","0"],
    [51350,"2016-03-15T09:00:00","63.6","ND","ND","ND","ND","4.2","ND","ND","ND","ND","ND","0.25"],
    [51351,"2016-03-15T10:00:00","94.1","ND","ND","ND","ND","1.8","ND","ND","ND","ND","ND","0"],
    [51352,"2016-03-15T11:00:00","57.4","ND","ND","ND","ND","3.0","ND","ND","ND","ND","ND","0"],
    [51353,"2016-03-15T12:00:00","41.1","ND","ND","ND","ND","2.0","ND","ND","ND","ND","ND","0"],
    [51354,"2016-03-15T13:00:00","12.1","ND","ND","ND","ND","1.0","ND","ND","ND","ND","ND","0"],
    [51355,"2016-03-15T14:00:00","ND","ND","ND","ND","ND","2.7","ND","ND","ND","ND","ND","0"],
    [51356,"2016-03-15T15:00:00","1.5","ND","ND","ND","ND","1.2","ND","ND","ND","ND","ND","0"],
    [51357,"2016-03-15T16:00:00","36.4","ND","ND","ND","ND","1.7","ND","ND","ND","ND","ND","0"],
    [51358,"2016-03-15T17:00:00","20.1","ND","ND","ND","ND","1.4","ND","ND","ND","ND","ND","0"],
    [51359,"2016-03-15T18:00:00","61.8","ND","ND","ND","ND","1.6","ND","ND","ND","ND","ND","0"],
    [51360,"2016-03-15T19:00:00","25.3","ND","ND","ND","ND","1.1","ND","ND","ND","ND","ND","0"],
    [51361,"2016-03-15T20:00:00","ND","ND","ND","ND","ND","1.7","ND","ND","ND","ND","ND","0"],
    [51362,"2016-03-15T21:00:00","ND","ND","ND","ND","ND","2.1","ND","ND","ND","ND","ND","0"],
    [51363,"2016-03-15T22:00:00","47.3","ND","ND","ND","ND","3.1","ND","ND","ND","ND","ND","0"],
    [51364,"2016-03-15T23:00:00","85.4","ND","ND","ND","ND","1.6","ND","ND","ND","ND","ND","0"],
    [51365,"2016-03-16T00:00:00","56.7","ND","ND","ND","ND","7.4","ND","ND","ND","ND","ND","0"],
    [51366,"2016-03-16T01:00:00","65.4","ND","ND","ND","ND","6.1","ND","ND","ND","ND","ND","0"],
    [51367,"2016-03-16T02:00:00","44.6","ND","ND","ND","ND","4.8","ND","ND","ND","ND","ND","0"],
    [51368,"2016-03-16T03:00:00","35.4","ND","ND","ND","ND","5.0","ND","ND","ND","ND","ND","0"],
    [51369,"2016-03-16T04:00:00","46","ND","ND","ND","ND","6.1","ND","ND","ND","ND","ND","0"],
    [51370,"2016-03-16T05:00:00","60.7","ND","ND","ND","ND","3.1","ND","ND","ND","ND","ND","0"],
    [51371,"2016-03-16T06:00:00","85.2","ND","ND","ND","ND","5.1","ND","ND","ND","ND","ND","0"],
    [51372,"2016-03-16T07:00:00","87.9","ND","ND","ND","ND","4.5","ND","ND","ND","ND","ND","0"],
    [51373,"2016-03-16T08:00:00","73.3","ND","ND","ND","ND","3.4","ND","ND","ND","ND","ND","0"],
    [51374,"2016-03-16T09:00:00","72.2","ND","ND","ND","ND","3.1","ND","ND","ND","ND","ND","0"],
    [51375,"2016-03-16T10:00:00","46.5","ND","ND","ND","ND","2.4","ND","ND","ND","ND","ND","0"],
    [51376,"2016-03-16T11:00:00","45.5","ND","ND","ND","ND","1.2","ND","ND","ND","ND","ND","0"],
    [51377,"2016-03-16T12:00:00","49.3","ND","ND","ND","ND","1.3","ND","ND","ND","ND","ND","0"],
    [51378,"2016-03-16T13:00:00","41.9","ND","ND","ND","ND","1.8","ND","ND","ND","ND","ND","0"],
    [51379,"2016-03-16T14:00:00","30.4","ND","ND","ND","ND","1.7","ND","ND","ND","ND","ND","0"],
    [51380,"2016-03-16T15:00:00","19.6","ND","ND","ND","ND","1.0","ND","ND","ND","ND","ND","0"],
    [51381,"2016-03-16T16:00:00","9.4","ND","ND","ND","ND","1.1","ND","ND","ND","ND","ND","0"],
    [51382,"2016-03-16T17:00:00","ND","ND","ND","ND","ND","1.3","ND","ND","ND","ND","ND","0"],
    [51383,"2016-03-16T18:00:00","ND","ND","ND","ND","ND","1.0","ND","ND","ND","ND","ND","0"],
    [51384,"2016-03-16T19:00:00","ND","ND","ND","ND","ND","0.8","ND","ND","ND","ND","ND","0"],
    [51385,"2016-03-16T20:00:00","23.3","ND","ND","ND","ND","1.9","ND","ND","ND","ND","ND","0"],
    [51386,"2016-03-16T21:00:00","54.7","ND","ND","ND","ND","1.0","ND","ND","ND","ND","ND","0"],
    [51387,"2016-03-16T22:00:00","36.2","ND","ND","ND","ND","1.3","ND","ND","ND","ND","ND","0"],
    [51388,"2016-03-16T23:00:00","38.4","ND","ND","ND","ND","3.3","ND","ND","ND","ND","ND","0"],
    [51389,"2016-03-17T00:00:00","47.7","ND","ND","ND","ND","4.5","ND","ND","ND","ND","ND","0"],
    [51390,"2016-03-17T01:00:00","46.8","ND","ND","ND","ND","3.5","ND","ND","ND","ND","ND","0"],
    [51391,"2016-03-17T02:00:00","50.2","ND","ND","ND","ND","1.9","ND","ND","ND","ND","ND","0"],
    [51392,"2016-03-17T03:00:00","47.6","ND","ND","ND","ND","2.2","ND","ND","ND","ND","ND","0"],
    [51393,"2016-03-17T04:00:00","32.2","ND","ND","ND","ND","2.2","ND","ND","ND","ND","ND","0"],
    [51394,"2016-03-17T05:00:00","24.4","ND","ND","ND","ND","1.7","ND","ND","ND","ND","ND","0"],
    [51395,"2016-03-17T06:00:00","43.7","ND","ND","ND","ND","2.6","ND","ND","ND","ND","ND","0"],
    [51396,"2016-03-17T07:00:00","48","ND","ND","ND","ND","2.6","ND","ND","ND","ND","ND","0"],
    [51397,"2016-03-17T08:00:00","35.5","ND","ND","ND","ND","2.5","ND","ND","ND","ND","ND","2.03"],
    [51398,"2016-03-17T09:00:00","23.3","ND","ND","ND","ND","1.7","ND","ND","ND","ND","ND","0"],
    [51399,"2016-03-17T10:00:00","20.2","ND","ND","ND","ND","2.8","ND","ND","ND","ND","ND","2.03"],
    [51400,"2016-03-17T11:00:00","18.7","ND","ND","ND","ND","1.3","ND","ND","ND","ND","ND","0"],
    [51401,"2016-03-17T12:00:00","16.2","ND","ND","ND","ND","2.4","ND","ND","ND","ND","ND","0"],
    [51402,"2016-03-17T13:00:00","25.7","ND","ND","ND","ND","2.1","ND","ND","ND","ND","ND","0"],
    [51403,"2016-03-17T14:00:00","14.2","ND","ND","ND","ND","1.9","ND","ND","ND","ND","ND","0"],
    [51404,"2016-03-17T15:00:00","9.1","ND","ND","ND","ND","1.8","ND","ND","ND","ND","ND","0"],
    [51405,"2016-03-17T16:00:00","ND","ND","ND","ND","ND","2.5","ND","ND","ND","ND","ND","0"],
    [51406,"2016-03-17T17:00:00","9.6","ND","ND","ND","ND","1.9","ND","ND","ND","ND","ND","0"],
    [51407,"2016-03-17T18:00:00","1.7","ND","ND","ND","ND","1.3","ND","ND","ND","ND","ND","0"],
    [51408,"2016-03-17T19:00:00","ND","ND","ND","ND","ND","2.1","ND","ND","ND","ND","ND","0"],
    [51409,"2016-03-17T20:00:00","41.1","ND","ND","ND","ND","1.8","ND","ND","ND","ND","ND","1.78"],
    [51410,"2016-03-17T21:00:00","132.7","ND","ND","ND","ND","2.1","ND","ND","ND","ND","ND","1.52"],
    [51411,"2016-03-17T22:00:00","64.4","ND","ND","ND","ND","1.2","ND","ND","ND","ND","ND","1.02"],
    [51412,"2016-03-17T23:00:00","34","ND","ND","ND","ND","1.9","ND","ND","ND","ND","ND","0"],
    [51413,"2016-03-18T00:00:00","12","ND","ND","ND","ND","2.0","ND","ND","ND","ND","ND","0.25"],
    [51414,"2016-03-18T01:00:00","7.8","ND","ND","ND","ND","2.3","ND","ND","ND","ND","ND","0"],
    [51415,"2016-03-18T02:00:00","4.4","ND","ND","ND","ND","1.0","ND","ND","ND","ND","ND","0"],
    [51416,"2016-03-18T03:00:00","11.9","ND","ND","ND","ND","2.1","ND","ND","ND","ND","ND","0"],
    [51417,"2016-03-18T04:00:00","47","ND","ND","ND","ND","5.3","ND","ND","ND","ND","ND","0"],
    [51418,"2016-03-18T05:00:00","32","ND","ND","ND","ND","2.6","ND","ND","ND","ND","ND","0"],
    [51419,"2016-03-18T06:00:00","30.9","ND","ND","ND","ND","3.7","ND","ND","ND","ND","ND","0"],
    [51420,"2016-03-18T07:00:00","33.6","ND","ND","ND","ND","3.5","ND","ND","ND","ND","ND","0"],
    [51421,"2016-03-18T08:00:00","22.3","ND","ND","ND","ND","2.5","ND","ND","ND","ND","ND","0"],
    [51422,"2016-03-18T09:00:00","45.1","ND","ND","ND","ND","3.1","ND","ND","ND","ND","ND","0"],
    [51423,"2016-03-18T10:00:00","47","ND","ND","ND","ND","3.8","ND","ND","ND","ND","ND","0"],
    [51424,"2016-03-18T11:00:00","41.3","ND","ND","ND","ND","2.0","ND","ND","ND","ND","ND","0"],
    [51425,"2016-03-18T12:00:00","25.6","ND","ND","ND","ND","2.9","ND","ND","ND","ND","ND","0"],
    [51426,"2016-03-18T13:00:00","ND","ND","ND","ND","ND","ND","ND","ND","ND","ND","ND","0"],
    [51427,"2016-03-18T14:00:00","ND","ND","ND","ND","ND","1.8","ND","ND","ND","ND","ND","0"],
    [51428,"2016-03-18T15:00:00","ND","ND","ND","ND","ND","1.1","ND","ND","ND","ND","ND","0"],
    [51429,"2016-03-18T16:00:00","ND","ND","ND","ND","ND","1.8","ND","ND","ND","ND","ND","0"],
    [51430,"2016-03-18T17:00:00","32.7","ND","ND","ND","ND","0.8","ND","ND","ND","ND","ND","0"],
    [51431,"2016-03-18T18:00:00","6.8","ND","ND","ND","ND","1.2","ND","ND","ND","ND","ND","0"],
    [51432,"2016-03-18T19:00:00","ND","ND","ND","ND","ND","1.6","ND","ND","ND","ND","ND","0"],
    [51433,"2016-03-18T20:00:00","ND","ND","ND","ND","ND","1.1","ND","ND","ND","ND","ND","0"],
    [51434,"2016-03-18T21:00:00","7.8","ND","ND","ND","ND","1.9","ND","ND","ND","ND","ND","0"],
    [51435,"2016-03-18T22:00:00","79.3","ND","ND","ND","ND","4.2","ND","ND","ND","ND","ND","0"],
    [51436,"2016-03-18T23:00:00","98.4","ND","ND","ND","ND","4.0","ND","ND","ND","ND","ND","0"],
    [51437,"2016-03-19T00:00:00","65.1","ND","ND","ND","ND","4.7","ND","ND","ND","ND","ND","0"],
    [51438,"2016-03-19T01:00:00","49.1","ND","ND","ND","ND","4.8","ND","ND","ND","ND","ND","0"],
    [51439,"2016-03-19T02:00:00","28.6","ND","ND","ND","ND","2.7","ND","ND","ND","ND","ND","0"],
    [51440,"2016-03-19T03:00:00","22.5","ND","ND","ND","ND","3.8","ND","ND","ND","ND","ND","0"],
    [51441,"2016-03-19T04:00:00","35.1","ND","ND","ND","ND","3.2","ND","ND","ND","ND","ND","0"],
    [51442,"2016-03-19T05:00:00","60.5","ND","ND","ND","ND","3.1","ND","ND","ND","ND","ND","0"],
    [51443,"2016-03-19T06:00:00","64.6","ND","ND","ND","ND","3.9","ND","ND","ND","ND","ND","0"],
    [51444,"2016-03-19T07:00:00","88.4","ND","ND","ND","ND","4.7","ND","ND","ND","ND","ND","0"],
    [51445,"2016-03-19T08:00:00","97.1","ND","ND","ND","ND","6.3","ND","ND","ND","ND","ND","0"],
    [51446,"2016-03-19T09:00:00","117","ND","ND","ND","ND","6.6","ND","ND","ND","ND","ND","0"],
    [51447,"2016-03-19T10:00:00","97.6","ND","ND","ND","ND","3.1","ND","ND","ND","ND","ND","0"],
    [51448,"2016-03-19T11:00:00","64.5","ND","ND","ND","ND","3.1","ND","ND","ND","ND","ND","0"],
    [51449,"2016-03-19T12:00:00","38.3","ND","ND","ND","ND","2.6","ND","ND","ND","ND","ND","0"],
    [51450,"2016-03-19T13:00:00","39.1","ND","ND","ND","ND","2.5","ND","ND","ND","ND","ND","0"],
    [51451,"2016-03-19T14:00:00","38.7","ND","ND","ND","ND","2.4","ND","ND","ND","ND","ND","0"],
    [51452,"2016-03-19T15:00:00","46.7","ND","ND","ND","ND","2.1","ND","ND","ND","ND","ND","0"],
    [51453,"2016-03-19T16:00:00","43.2","ND","ND","ND","ND","2.2","ND","ND","ND","ND","ND","0"],
    [51454,"2016-03-19T17:00:00","25.9","ND","ND","ND","ND","1.0","ND","ND","ND","ND","ND","0"],
    [51455,"2016-03-19T18:00:00","5.7","ND","ND","ND","ND","1.4","ND","ND","ND","ND","ND","0"],
    [51456,"2016-03-19T19:00:00","ND","ND","ND","ND","ND","1.0","ND","ND","ND","ND","ND","0"],
    [51457,"2016-03-19T20:00:00","1.6","ND","ND","ND","ND","1.0","ND","ND","ND","ND","ND","0"],
    [51458,"2016-03-19T21:00:00","2.7","ND","ND","ND","ND","1.5","ND","ND","ND","ND","ND","0"],
    [51459,"2016-03-19T22:00:00","30.1","ND","ND","ND","ND","1.3","ND","ND","ND","ND","ND","0"],
    [51460,"2016-03-19T23:00:00","41","ND","ND","ND","ND","6.2","ND","ND","ND","ND","ND","0"],
    [51461,"2016-03-20T00:00:00","36.2","ND","ND","ND","ND","4.0","ND","ND","ND","ND","ND","0"],
    [51462,"2016-03-20T01:00:00","34.8","ND","ND","ND","ND","2.8","ND","ND","ND","ND","ND","0"],
    [51463,"2016-03-20T02:00:00","37.8","ND","ND","ND","ND","5.0","ND","ND","ND","ND","ND","0"],
    [51464,"2016-03-20T03:00:00","32","ND","ND","ND","ND","3.0","ND","ND","ND","ND","ND","0"],
    [51465,"2016-03-20T04:00:00","35.9","ND","ND","ND","ND","2.7","ND","ND","ND","ND","ND","0"],
    [51466,"2016-03-20T05:00:00","28.3","ND","ND","ND","ND","2.6","ND","ND","ND","ND","ND","0"],
    [51467,"2016-03-20T06:00:00","27.6","ND","ND","ND","ND","2.4","ND","ND","ND","ND","ND","0"],
    [51468,"2016-03-20T07:00:00","34.4","ND","ND","ND","ND","2.1","ND","ND","ND","ND","ND","0"],
    [51469,"2016-03-20T08:00:00","37.8","ND","ND","ND","ND","3.3","ND","ND","ND","ND","ND","0"],
    [51470,"2016-03-20T09:00:00","39.9","ND","ND","ND","ND","2.9","ND","ND","ND","ND","ND","0"],
    [51471,"2016-03-20T10:00:00","40.3","ND","ND","ND","ND","2.3","ND","ND","ND","ND","ND","0"],
    [51472,"2016-03-20T11:00:00","29.8","ND","ND","ND","ND","0.8","ND","ND","ND","ND","ND","0"],
    [51473,"2016-03-20T12:00:00","18.6","ND","ND","ND","ND","2.9","ND","ND","ND","ND","ND","0"],
    [51474,"2016-03-20T13:00:00","23.9","ND","ND","ND","ND","1.2","ND","ND","ND","ND","ND","0"],
    [51475,"2016-03-20T14:00:00","22.9","ND","ND","ND","ND","1.6","ND","ND","ND","ND","ND","0"],
    [51476,"2016-03-20T15:00:00","19.9","ND","ND","ND","ND","1.7","ND","ND","ND","ND","ND","0"],
    [51477,"2016-03-20T16:00:00","3.9","ND","ND","ND","ND","1.8","ND","ND","ND","ND","ND","0"],
    [51478,"2016-03-20T17:00:00","4.5","ND","ND","ND","ND","1.0","ND","ND","ND","ND","ND","0"],
    [51479,"2016-03-20T18:00:00","ND","ND","ND","ND","ND","0.9","ND","ND","ND","ND","ND","0"],
    [51480,"2016-03-20T19:00:00","ND","ND","ND","ND","ND","1.1","ND","ND","ND","ND","ND","0"],
    [51481,"2016-03-20T20:00:00","22.2","ND","ND","ND","ND","1.1","ND","ND","ND","ND","ND","0"],
    [51482,"2016-03-20T21:00:00","63.1","ND","ND","ND","ND","1.1","ND","ND","ND","ND","ND","0"],
    [51483,"2016-03-20T22:00:00","38.6","ND","ND","ND","ND","1.8","ND","ND","ND","ND","ND","0"],
    [51484,"2016-03-20T23:00:00","27.7","ND","ND","ND","ND","2.5","ND","ND","ND","ND","ND","0"],
    [51485,"2016-03-21T00:00:00","31.6","ND","ND","ND","ND","3.6","ND","ND","ND","ND","ND","0"],
    [51486,"2016-03-21T01:00:00","35.9","ND","ND","ND","ND","2.8","ND","ND","ND","ND","ND","0"],
    [51487,"2016-03-21T02:00:00","10.9","ND","ND","ND","ND","3.3","ND","ND","ND","ND","ND","0.76"],
    [51488,"2016-03-21T03:00:00","12.1","ND","ND","ND","ND","4.8","ND","ND","ND","ND","ND","0"],
    [51489,"2016-03-21T04:00:00","23.2","ND","ND","ND","ND","3.9","ND","ND","ND","ND","ND","0"],
    [51490,"2016-03-21T05:00:00","33.4","ND","ND","ND","ND","5.4","ND","ND","ND","ND","ND","0.25"],
    [51491,"2016-03-21T06:00:00","38.3","ND","ND","ND","ND","4.9","ND","ND","ND","ND","ND","0.25"],
    [51492,"2016-03-21T07:00:00","27.8","ND","ND","ND","ND","2.8","ND","ND","ND","ND","ND","0"],
    [51493,"2016-03-21T08:00:00","26.9","ND","ND","ND","ND","3.9","ND","ND","ND","ND","ND","0"],
    [51494,"2016-03-21T09:00:00","45.5","ND","ND","ND","ND","6.4","ND","ND","ND","ND","ND","0"],
    [51495,"2016-03-21T10:00:00","48.9","ND","ND","ND","ND","1.6","ND","ND","ND","ND","ND","0"],
    [51496,"2016-03-21T11:00:00","21.1","ND","ND","ND","ND","3.3","ND","ND","ND","ND","ND","0"],
    [51497,"2016-03-21T12:00:00","15","ND","ND","ND","ND","2.0","ND","ND","ND","ND","ND","0"],
    [51498,"2016-03-21T13:00:00","13","ND","ND","ND","ND","2.7","ND","ND","ND","ND","ND","0"],
    [51499,"2016-03-21T14:00:00","14.1","ND","ND","ND","ND","1.9","ND","ND","ND","ND","ND","0"],
    [51500,"2016-03-21T15:00:00","21.5","ND","ND","ND","ND","2.3","ND","ND","ND","ND","ND","0"],
    [51501,"2016-03-21T16:00:00","28.4","ND","ND","ND","ND","3.3","ND","ND","ND","ND","ND","0"],
    [51502,"2016-03-21T17:00:00","25.7","ND","ND","ND","ND","2.0","ND","ND","ND","ND","ND","0"],
    [51503,"2016-03-21T18:00:00","14.2","ND","ND","ND","ND","1.6","ND","ND","ND","ND","ND","0"],
    [51504,"2016-03-21T19:00:00","2.1","ND","ND","ND","ND","1.6","ND","ND","ND","ND","ND","0"],
    [51505,"2016-03-21T20:00:00","ND","ND","ND","ND","ND","1.2","ND","ND","ND","ND","ND","0"],
    [51506,"2016-03-21T21:00:00","20.3","ND","ND","ND","ND","1.5","ND","ND","ND","ND","ND","0"],
    [51507,"2016-03-21T22:00:00","46.4","ND","ND","ND","ND","2.0","ND","ND","ND","ND","ND","0"],
    [51508,"2016-03-21T23:00:00","51.8","ND","ND","ND","ND","4.5","ND","ND","ND","ND","ND","0"],
    [51509,"2016-03-22T00:00:00","48.8","ND","ND","ND","ND","3.8","ND","ND","ND","ND","ND","0"],
    [51510,"2016-03-22T01:00:00","46.3","ND","ND","ND","ND","5.8","ND","ND","ND","ND","ND","0"],
    [51511,"2016-03-22T02:00:00","27.9","ND","ND","ND","ND","3.1","ND","ND","ND","ND","ND","0"],
    [51512,"2016-03-22T03:00:00","29.2","ND","ND","ND","ND","3.1","ND","ND","ND","ND","ND","0"],
    [51513,"2016-03-22T04:00:00","26.2","ND","ND","ND","ND","1.6","ND","ND","ND","ND","ND","0"],
    [51514,"2016-03-22T05:00:00","33.5","ND","ND","ND","ND","3.0","ND","ND","ND","ND","ND","0"],
    [51515,"2016-03-22T06:00:00","52.2","ND","ND","ND","ND","1.9","ND","ND","ND","ND","ND","0"],
    [51516,"2016-03-22T07:00:00","36.5","ND","ND","ND","ND","2.8","ND","ND","ND","ND","ND","0"],
    [51517,"2016-03-22T08:00:00","44.7","ND","ND","ND","ND","2.5","ND","ND","ND","ND","ND","0"],
    [51518,"2016-03-22T09:00:00","59.3","ND","ND","ND","ND","3.2","ND","ND","ND","ND","ND","0"],
    [51519,"2016-03-22T10:00:00","49.7","ND","ND","ND","ND","2.3","ND","ND","ND","ND","ND","0"],
    [51520,"2016-03-22T11:00:00","49.4","ND","ND","ND","ND","1.5","ND","ND","ND","ND","ND","0"],
    [51521,"2016-03-22T12:00:00","38.3","ND","ND","ND","ND","1.8","ND","ND","ND","ND","ND","0"],
    [51522,"2016-03-22T13:00:00","36","ND","ND","ND","ND","1.4","ND","ND","ND","ND","ND","0"],
    [51523,"2016-03-22T14:00:00","36.8","ND","ND","ND","ND","1.4","ND","ND","ND","ND","ND","0"],
    [51524,"2016-03-22T15:00:00","38.1","ND","ND","ND","ND","1.3","ND","ND","ND","ND","ND","0"],
    [51525,"2016-03-22T16:00:00","15.1","ND","ND","ND","ND","1.6","ND","ND","ND","ND","ND","0"],
    [51526,"2016-03-22T17:00:00","15.5","ND","ND","ND","ND","1.7","ND","ND","ND","ND","ND","0"],
    [51527,"2016-03-22T18:00:00","11","ND","ND","ND","ND","1.1","ND","ND","ND","ND","ND","0"],
    [51528,"2016-03-22T19:00:00","9.1","ND","ND","ND","ND","1.4","ND","ND","ND","ND","ND","0"],
    [51529,"2016-03-22T20:00:00","17.6","ND","ND","ND","ND","1.9","ND","ND","ND","ND","ND","0"],
    [51530,"2016-03-22T21:00:00","24.3","ND","ND","ND","ND","3.2","ND","ND","ND","ND","ND","0"],
    [51531,"2016-03-22T22:00:00","62.8","ND","ND","ND","ND","5.2","ND","ND","ND","ND","ND","0"],
    [51532,"2016-03-22T23:00:00","57.3","ND","ND","ND","ND","5.3","ND","ND","ND","ND","ND","0"],
    [51533,"2016-03-23T00:00:00","48.2","ND","ND","ND","ND","4.0","ND","ND","ND","ND","ND","0"],
    [51534,"2016-03-23T01:00:00","38.9","ND","ND","ND","ND","4.8","ND","ND","ND","ND","ND","0"],
    [51535,"2016-03-23T02:00:00","39.8","ND","ND","ND","ND","3.6","ND","ND","ND","ND","ND","0"],
    [51536,"2016-03-23T03:00:00","40","ND","ND","ND","ND","3.2","ND","ND","ND","ND","ND","0"],
    [51537,"2016-03-23T04:00:00","37.8","ND","ND","ND","ND","3.9","ND","ND","ND","ND","ND","0"],
    [51538,"2016-03-23T05:00:00","44.1","ND","ND","ND","ND","3.2","ND","ND","ND","ND","ND","0"],
    [51539,"2016-03-23T06:00:00","45.2","ND","ND","ND","ND","1.8","ND","ND","ND","ND","ND","0"],
    [51540,"2016-03-23T07:00:00","45.3","ND","ND","ND","ND","2.8","ND","ND","ND","ND","ND","0"],
    [51541,"2016-03-23T08:00:00","60.3","ND","ND","ND","ND","4.0","ND","ND","ND","ND","ND","0"],
    [51542,"2016-03-23T09:00:00","71.4","ND","ND","ND","ND","4.2","ND","ND","ND","ND","ND","0"],
    [51543,"2016-03-23T10:00:00","37.7","ND","ND","ND","ND","2.9","ND","ND","ND","ND","ND","0"],
    [51544,"2016-03-23T11:00:00","26.1","ND","ND","ND","ND","2.7","ND","ND","ND","ND","ND","0"],
    [51545,"2016-03-23T12:00:00","24.9","ND","ND","ND","ND","1.3","ND","ND","ND","ND","ND","0"],
    [51546,"2016-03-23T13:00:00","18.2","ND","ND","ND","ND","2.0","ND","ND","ND","ND","ND","0"],
    [51547,"2016-03-23T14:00:00","21","ND","ND","ND","ND","2.4","ND","ND","ND","ND","ND","0"],
    [51548,"2016-03-23T15:00:00","24.7","ND","ND","ND","ND","1.4","ND","ND","ND","ND","ND","0"],
    [51549,"2016-03-23T16:00:00","27.5","ND","ND","ND","ND","1.6","ND","ND","ND","ND","ND","0"],
    [51550,"2016-03-23T17:00:00","30.6","ND","ND","ND","ND","1.5","ND","ND","ND","ND","ND","0"],
    [51551,"2016-03-23T18:00:00","33.1","ND","ND","ND","ND","1.2","ND","ND","ND","ND","ND","0"],
    [51552,"2016-03-23T19:00:00","22.9","ND","ND","ND","ND","1.6","ND","ND","ND","ND","ND","0"],
    [51553,"2016-03-23T20:00:00","3.1","ND","ND","ND","ND","1.9","ND","ND","ND","ND","ND","0"],
    [51554,"2016-03-23T21:00:00","22.2","ND","ND","ND","ND","1.4","ND","ND","ND","ND","ND","0"],
    [51555,"2016-03-23T22:00:00","35.9","ND","ND","ND","ND","3.7","ND","ND","ND","ND","ND","0"],
    [51556,"2016-03-23T23:00:00","46.4","ND","ND","ND","ND","5.8","ND","ND","ND","ND","ND","0"],
    [51557,"2016-03-24T00:00:00","48.2","ND","ND","ND","ND","5.3","ND","ND","ND","ND","ND","0"],
    [51558,"2016-03-24T01:00:00","55","ND","ND","ND","ND","3.5","ND","ND","ND","ND","ND","0"],
    [51559,"2016-03-24T02:00:00","34.5","ND","ND","ND","ND","2.7","ND","ND","ND","ND","ND","0"],
    [51560,"2016-03-24T03:00:00","26.6","ND","ND","ND","ND","4.4","ND","ND","ND","ND","ND","0"],
    [51561,"2016-03-24T04:00:00","61.1","ND","ND","ND","ND","5.3","ND","ND","ND","ND","ND","0"],
    [51562,"2016-03-24T05:00:00","55.4","ND","ND","ND","ND","2.9","ND","ND","ND","ND","ND","0"],
    [51563,"2016-03-24T06:00:00","41.7","ND","ND","ND","ND","3.0","ND","ND","ND","ND","ND","0"],
    [51564,"2016-03-24T07:00:00","40.6","ND","ND","ND","ND","3.8","ND","ND","ND","ND","ND","0"],
    [51565,"2016-03-24T08:00:00","42.9","ND","ND","ND","ND","4.7","ND","ND","ND","ND","ND","0"],
    [51566,"2016-03-24T09:00:00","49.5","ND","ND","ND","ND","2.7","ND","ND","ND","ND","ND","0"],
    [51567,"2016-03-24T10:00:00","46.3","ND","ND","ND","ND","3.2","ND","ND","ND","ND","ND","0"],
    [51568,"2016-03-24T11:00:00","40.2","ND","ND","ND","ND","2.8","ND","ND","ND","ND","ND","0"],
    [51569,"2016-03-24T12:00:00","38.7","ND","ND","ND","ND","1.7","ND","ND","ND","ND","ND","0"],
    [51570,"2016-03-24T13:00:00","34.7","ND","ND","ND","ND","2.3","ND","ND","ND","ND","ND","0"],
    [51571,"2016-03-24T14:00:00","38.6","ND","ND","ND","ND","1.8","ND","ND","ND","ND","ND","0"],
    [51572,"2016-03-24T15:00:00","30.7","ND","ND","ND","ND","2.8","ND","ND","ND","ND","ND","0"],
    [51573,"2016-03-24T16:00:00","11.9","ND","ND","ND","ND","2.1","ND","ND","ND","ND","ND","0"],
    [51574,"2016-03-24T17:00:00","15","ND","ND","ND","ND","1.5","ND","ND","ND","ND","ND","0"],
    [51575,"2016-03-24T18:00:00","12","ND","ND","ND","ND","1.4","ND","ND","ND","ND","ND","0"],
    [51576,"2016-03-24T19:00:00","5.3","ND","ND","ND","ND","1.0","ND","ND","ND","ND","ND","0"],
    [51577,"2016-03-24T20:00:00","ND","ND","ND","ND","ND","0.9","ND","ND","ND","ND","ND","0"],
    [51578,"2016-03-24T21:00:00","12.2","ND","ND","ND","ND","2.9","ND","ND","ND","ND","ND","0"],
    [51579,"2016-03-24T22:00:00","42.9","ND","ND","ND","ND","3.8","ND","ND","ND","ND","ND","0"],
    [51580,"2016-03-24T23:00:00","59.8","ND","ND","ND","ND","4.0","ND","ND","ND","ND","ND","0"],
    [51581,"2016-03-25T00:00:00","48.3","ND","ND","ND","ND","4.0","ND","ND","ND","ND","ND","0"],
    [51582,"2016-03-25T01:00:00","30.2","ND","ND","ND","ND","3.0","ND","ND","ND","ND","ND","0"],
    [51583,"2016-03-25T02:00:00","28.9","ND","ND","ND","ND","3.6","ND","ND","ND","ND","ND","0"],
    [51584,"2016-03-25T03:00:00","26.3","ND","ND","ND","ND","3.1","ND","ND","ND","ND","ND","0"],
    [51585,"2016-03-25T04:00:00","29.3","ND","ND","ND","ND","3.5","ND","ND","ND","ND","ND","0"],
    [51586,"2016-03-25T05:00:00","31","ND","ND","ND","ND","3.3","ND","ND","ND","ND","ND","0"],
    [51587,"2016-03-25T06:00:00","34.6","ND","ND","ND","ND","2.8","ND","ND","ND","ND","ND","0"],
    [51588,"2016-03-25T07:00:00","28.3","ND","ND","ND","ND","3.0","ND","ND","ND","ND","ND","0"],
    [51589,"2016-03-25T08:00:00","36.7","ND","ND","ND","ND","4.7","ND","ND","ND","ND","ND","0"],
    [51590,"2016-03-25T09:00:00","40.3","ND","ND","ND","ND","4.0","ND","ND","ND","ND","ND","0"],
    [51591,"2016-03-25T10:00:00","34.9","ND","ND","ND","ND","2.9","ND","ND","ND","ND","ND","0"],
    [51592,"2016-03-25T11:00:00","18.3","ND","ND","ND","ND","2.9","ND","ND","ND","ND","ND","0"],
    [51593,"2016-03-25T12:00:00","21.6","ND","ND","ND","ND","2.4","ND","ND","ND","ND","ND","0"],
    [51594,"2016-03-25T13:00:00","17.1","ND","ND","ND","ND","1.1","ND","ND","ND","ND","ND","0"],
    [51595,"2016-03-25T14:00:00","21.2","ND","ND","ND","ND","1.5","ND","ND","ND","ND","ND","0"],
    [51596,"2016-03-25T15:00:00","19.4","ND","ND","ND","ND","1.8","ND","ND","ND","ND","ND","0"],
    [51597,"2016-03-25T16:00:00","22.7","ND","ND","ND","ND","1.4","ND","ND","ND","ND","ND","0"],
    [51598,"2016-03-25T17:00:00","20.9","ND","ND","ND","ND","1.4","ND","ND","ND","ND","ND","0"],
    [51599,"2016-03-25T18:00:00","27.8","ND","ND","ND","ND","0.8","ND","ND","ND","ND","ND","0"],
    [51600,"2016-03-25T19:00:00","17.2","ND","ND","ND","ND","1.4","ND","ND","ND","ND","ND","0"],
    [51601,"2016-03-25T20:00:00","ND","ND","ND","ND","ND","1.6","ND","ND","ND","ND","ND","0"],
    [51602,"2016-03-25T21:00:00","18.7","ND","ND","ND","ND","1.9","ND","ND","ND","ND","ND","0"],
    [51603,"2016-03-25T22:00:00","36.5","ND","ND","ND","ND","2.7","ND","ND","ND","ND","ND","0"],
    [51604,"2016-03-25T23:00:00","41.1","ND","ND","ND","ND","2.3","ND","ND","ND","ND","ND","0"],
    [51605,"2016-03-26T00:00:00","37.1","ND","ND","ND","ND","2.0","ND","ND","ND","ND","ND","0"],
    [51606,"2016-03-26T01:00:00","32.5","ND","ND","ND","ND","3.6","ND","ND","ND","ND","ND","0"],
    [51607,"2016-03-26T02:00:00","21.5","ND","ND","ND","ND","3.3","ND","ND","ND","ND","ND","0"],
    [51608,"2016-03-26T03:00:00","20.7","ND","ND","ND","ND","3.7","ND","ND","ND","ND","ND","0"],
    [51609,"2016-03-26T04:00:00","26.3","ND","ND","ND","ND","3.8","ND","ND","ND","ND","ND","0"],
    [51610,"2016-03-26T05:00:00","30.7","ND","ND","ND","ND","4.1","ND","ND","ND","ND","ND","0"],
    [51611,"2016-03-26T06:00:00","33","ND","ND","ND","ND","3.2","ND","ND","ND","ND","ND","0"],
    [51612,"2016-03-26T07:00:00","38.9","ND","ND","ND","ND","5.7","ND","ND","ND","ND","ND","0"],
    [51613,"2016-03-26T08:00:00","39.9","ND","ND","ND","ND","5.4","ND","ND","ND","ND","ND","0"],
    [51614,"2016-03-26T09:00:00","38.2","ND","ND","ND","ND","3.5","ND","ND","ND","ND","ND","0"],
    [51615,"2016-03-26T10:00:00","33.3","ND","ND","ND","ND","2.2","ND","ND","ND","ND","ND","0"],
    [51616,"2016-03-26T11:00:00","27","ND","ND","ND","ND","3.2","ND","ND","ND","ND","ND","0"],
    [51617,"2016-03-26T12:00:00","28.9","ND","ND","ND","ND","1.8","ND","ND","ND","ND","ND","0"],
    [51618,"2016-03-26T13:00:00","39.1","ND","ND","ND","ND","2.0","ND","ND","ND","ND","ND","0"],
    [51619,"2016-03-26T14:00:00","37.6","ND","ND","ND","ND","1.7","ND","ND","ND","ND","ND","0"],
    [51620,"2016-03-26T15:00:00","20.5","ND","ND","ND","ND","2.8","ND","ND","ND","ND","ND","0"],
    [51621,"2016-03-26T16:00:00","15.3","ND","ND","ND","ND","1.7","ND","ND","ND","ND","ND","0"],
    [51622,"2016-03-26T17:00:00","18.8","ND","ND","ND","ND","1.4","ND","ND","ND","ND","ND","0"],
    [51623,"2016-03-26T18:00:00","16.4","ND","ND","ND","ND","1.7","ND","ND","ND","ND","ND","0"],
    [51624,"2016-03-26T19:00:00","4","ND","ND","ND","ND","1.7","ND","ND","ND","ND","ND","0"],
    [51625,"2016-03-26T20:00:00","1.9","ND","ND","ND","ND","1.8","ND","ND","ND","ND","ND","0"],
    [51626,"2016-03-26T21:00:00","18.4","ND","ND","ND","ND","3.3","ND","ND","ND","ND","ND","0"],
    [51627,"2016-03-26T22:00:00","37.8","ND","ND","ND","ND","3.3","ND","ND","ND","ND","ND","0"],
    [51628,"2016-03-26T23:00:00","33.3","ND","ND","ND","ND","3.4","ND","ND","ND","ND","ND","0"],
    [51629,"2016-03-27T00:00:00","29.5","ND","ND","ND","ND","2.0","ND","ND","ND","ND","ND","0"],
    [51630,"2016-03-27T01:00:00","40.8","ND","ND","ND","ND","2.0","ND","ND","ND","ND","ND","0"],
    [51631,"2016-03-27T02:00:00","25.5","ND","ND","ND","ND","2.9","ND","ND","ND","ND","ND","0"],
    [51632,"2016-03-27T03:00:00","24","ND","ND","ND","ND","6.4","ND","ND","ND","ND","ND","0"],
    [51633,"2016-03-27T04:00:00","35.4","ND","ND","ND","ND","3.9","ND","ND","ND","ND","ND","0"],
    [51634,"2016-03-27T05:00:00","27.6","ND","ND","ND","ND","3.4","ND","ND","ND","ND","ND","0"],
    [51635,"2016-03-27T06:00:00","43.4","ND","ND","ND","ND","4.4","ND","ND","ND","ND","ND","0"],
    [51636,"2016-03-27T07:00:00","36.3","ND","ND","ND","ND","6.5","ND","ND","ND","ND","ND","0"],
    [51637,"2016-03-27T08:00:00","39.7","ND","ND","ND","ND","7.8","ND","ND","ND","ND","ND","0"],
    [51638,"2016-03-27T09:00:00","54","ND","ND","ND","ND","8.9","ND","ND","ND","ND","ND","0"],
    [51639,"2016-03-27T10:00:00","37.8","ND","ND","ND","ND","2.1","ND","ND","ND","ND","ND","0"],
    [51640,"2016-03-27T11:00:00","17.5","ND","ND","ND","ND","2.2","ND","ND","ND","ND","ND","0"],
    [51641,"2016-03-27T12:00:00","25.6","ND","ND","ND","ND","2.6","ND","ND","ND","ND","ND","0"],
    [51642,"2016-03-27T13:00:00","25.1","ND","ND","ND","ND","2.1","ND","ND","ND","ND","ND","0"],
    [51643,"2016-03-27T14:00:00","19.2","ND","ND","ND","ND","2.6","ND","ND","ND","ND","ND","0.25"],
    [51644,"2016-03-27T15:00:00","5.9","ND","ND","ND","ND","1.5","ND","ND","ND","ND","ND","0"],
    [51645,"2016-03-27T16:00:00","13.4","ND","ND","ND","ND","1.5","ND","ND","ND","ND","ND","0"],
    [51646,"2016-03-27T17:00:00","10.7","ND","ND","ND","ND","1.2","ND","ND","ND","ND","ND","0"],
    [51647,"2016-03-27T18:00:00","ND","ND","ND","ND","ND","1.5","ND","ND","ND","ND","ND","0"],
    [51648,"2016-03-27T19:00:00","4.1","ND","ND","ND","ND","1.6","ND","ND","ND","ND","ND","0"],
    [51649,"2016-03-27T20:00:00","20.1","ND","ND","ND","ND","1.0","ND","ND","ND","ND","ND","0"],
    [51650,"2016-03-27T21:00:00","29.6","ND","ND","ND","ND","1.3","ND","ND","ND","ND","ND","0"],
    [51651,"2016-03-27T22:00:00","36.3","ND","ND","ND","ND","1.3","ND","ND","ND","ND","ND","0"],
    [51652,"2016-03-27T23:00:00","21.3","ND","ND","ND","ND","0.9","ND","ND","ND","ND","ND","0"],
    [51653,"2016-03-28T00:00:00","27.8","ND","ND","ND","ND","5.1","ND","ND","ND","ND","ND","0"],
    [51654,"2016-03-28T01:00:00","45.8","ND","ND","ND","ND","2.3","ND","ND","ND","ND","ND","0"],
    [51655,"2016-03-28T02:00:00","36.9","ND","ND","ND","ND","3.0","ND","ND","ND","ND","ND","0"],
    [51656,"2016-03-28T03:00:00","37","ND","ND","ND","ND","6.1","ND","ND","ND","ND","ND","0"],
    [51657,"2016-03-28T04:00:00","47.6","ND","ND","ND","ND","6.1","ND","ND","ND","ND","ND","0"],
    [51658,"2016-03-28T05:00:00","45.6","ND","ND","ND","ND","2.2","ND","ND","ND","ND","ND","0"],
    [51659,"2016-03-28T06:00:00","27.1","ND","ND","ND","ND","2.3","ND","ND","ND","ND","ND","0"],
    [51660,"2016-03-28T07:00:00","28.9","ND","ND","ND","ND","2.2","ND","ND","ND","ND","ND","0"],
    [51661,"2016-03-28T08:00:00","48.2","ND","ND","ND","ND","4.4","ND","ND","ND","ND","ND","0"],
    [51662,"2016-03-28T09:00:00","86","ND","ND","ND","ND","3.6","ND","ND","ND","ND","ND","0"],
    [51663,"2016-03-28T10:00:00","63.5","ND","ND","ND","ND","1.7","ND","ND","ND","ND","ND","0"],
    [51664,"2016-03-28T11:00:00","52.6","ND","ND","ND","ND","2.0","ND","ND","ND","ND","ND","0"],
    [51665,"2016-03-28T12:00:00","42.4","ND","ND","ND","ND","1.6","ND","ND","ND","ND","ND","0"],
    [51666,"2016-03-28T13:00:00","32.6","ND","ND","ND","ND","3.0","ND","ND","ND","ND","ND","0"],
    [51667,"2016-03-28T14:00:00","28.9","ND","ND","ND","ND","1.5","ND","ND","ND","ND","ND","0"],
    [51668,"2016-03-28T15:00:00","21.2","ND","ND","ND","ND","1.1","ND","ND","ND","ND","ND","0"],
    [51669,"2016-03-28T16:00:00","ND","ND","ND","ND","ND","1.7","ND","ND","ND","ND","ND","0"],
    [51670,"2016-03-28T17:00:00","8.7","ND","ND","ND","ND","1.5","ND","ND","ND","ND","ND","0"],
    [51671,"2016-03-28T18:00:00","ND","ND","ND","ND","ND","0.9","ND","ND","ND","ND","ND","0"],
    [51672,"2016-03-28T19:00:00","12","ND","ND","ND","ND","1.0","ND","ND","ND","ND","ND","0"],
    [51673,"2016-03-28T20:00:00","15.9","ND","ND","ND","ND","1.0","ND","ND","ND","ND","ND","0"],
    [51674,"2016-03-28T21:00:00","56.9","ND","ND","ND","ND","1.3","ND","ND","ND","ND","ND","0"],
    [51675,"2016-03-28T22:00:00","67.6","ND","ND","ND","ND","1.9","ND","ND","ND","ND","ND","0"],
    [51676,"2016-03-28T23:00:00","72.7","ND","ND","ND","ND","2.8","ND","ND","ND","ND","ND","0"],
    [51677,"2016-03-29T00:00:00","63.5","ND","ND","ND","ND","5.4","ND","ND","ND","ND","ND","0"],
    [51678,"2016-03-29T01:00:00","50.4","ND","ND","ND","ND","5.4","ND","ND","ND","ND","ND","0"],
    [51679,"2016-03-29T02:00:00","34.7","ND","ND","ND","ND","2.8","ND","ND","ND","ND","ND","0"],
    [51680,"2016-03-29T03:00:00","32.6","ND","ND","ND","ND","2.3","ND","ND","ND","ND","ND","0"],
    [51681,"2016-03-29T04:00:00","49.4","ND","ND","ND","ND","3.8","ND","ND","ND","ND","ND","0"],
    [51682,"2016-03-29T05:00:00","75.4","ND","ND","ND","ND","3.8","ND","ND","ND","ND","ND","0"],
    [51683,"2016-03-29T06:00:00","62.7","ND","ND","ND","ND","3.4","ND","ND","ND","ND","ND","0"],
    [51684,"2016-03-29T07:00:00","75.9","ND","ND","ND","ND","4.3","ND","ND","ND","ND","ND","0"],
    [51685,"2016-03-29T08:00:00","110.5","ND","ND","ND","ND","5.5","ND","ND","ND","ND","ND","0"],
    [51686,"2016-03-29T09:00:00","119.5","ND","ND","ND","ND","5.7","ND","ND","ND","ND","ND","0"],
    [51687,"2016-03-29T10:00:00","87.3","ND","ND","ND","ND","2.3","ND","ND","ND","ND","ND","0"],
    [51688,"2016-03-29T11:00:00","37.6","ND","ND","ND","ND","1.9","ND","ND","ND","ND","ND","0"],
    [51689,"2016-03-29T12:00:00","43","ND","ND","ND","ND","1.8","ND","ND","ND","ND","ND","0"],
    [51690,"2016-03-29T13:00:00","45.8","ND","ND","ND","ND","1.4","ND","ND","ND","ND","ND","0"],
    [51691,"2016-03-29T14:00:00","31.7","ND","ND","ND","ND","2.3","ND","ND","ND","ND","ND","0"],
    [51692,"2016-03-29T15:00:00","36.2","ND","ND","ND","ND","2.3","ND","ND","ND","ND","ND","0"],
    [51693,"2016-03-29T16:00:00","36.2","ND","ND","ND","ND","2.8","ND","ND","ND","ND","ND","0"],
    [51694,"2016-03-29T17:00:00","38.1","ND","ND","ND","ND","1.9","ND","ND","ND","ND","ND","0"],
    [51695,"2016-03-29T18:00:00","19.1","ND","ND","ND","ND","2.4","ND","ND","ND","ND","ND","0"],
    [51696,"2016-03-29T19:00:00","4.3","ND","ND","ND","ND","1.8","ND","ND","ND","ND","ND","0"],
    [51697,"2016-03-29T20:00:00","16.1","ND","ND","ND","ND","1.6","ND","ND","ND","ND","ND","0"],
    [51698,"2016-03-29T21:00:00","35.6","ND","ND","ND","ND","3.5","ND","ND","ND","ND","ND","0"],
    [51699,"2016-03-29T22:00:00","56","ND","ND","ND","ND","3.2","ND","ND","ND","ND","ND","0"],
    [51700,"2016-03-29T23:00:00","45.2","ND","ND","ND","ND","4.6","ND","ND","ND","ND","ND","0"],
    [51701,"2016-03-30T00:00:00","38.3","ND","ND","ND","ND","3.1","ND","ND","ND","ND","ND","0"],
    [51702,"2016-03-30T01:00:00","22.7","ND","ND","ND","ND","5.7","ND","ND","ND","ND","ND","0"],
    [51703,"2016-03-30T02:00:00","23.9","ND","ND","ND","ND","5.5","ND","ND","ND","ND","ND","0"],
    [51704,"2016-03-30T03:00:00","35.6","ND","ND","ND","ND","2.6","ND","ND","ND","ND","ND","0"],
    [51705,"2016-03-30T04:00:00","57.7","ND","ND","ND","ND","3.2","ND","ND","ND","ND","ND","17.78"],
    [51706,"2016-03-30T05:00:00","59.2","ND","ND","ND","ND","3.1","ND","ND","ND","ND","ND","1.52"],
    [51707,"2016-03-30T06:00:00","37.1","ND","ND","ND","ND","2.7","ND","ND","ND","ND","ND","4.06"],
    [51708,"2016-03-30T07:00:00","27","ND","ND","ND","ND","3.3","ND","ND","ND","ND","ND","51.82"],
    [51709,"2016-03-30T08:00:00","21.8","ND","ND","ND","ND","3.9","ND","ND","ND","ND","ND","4.57"],
    [51710,"2016-03-30T09:00:00","23.7","ND","ND","ND","ND","3.3","ND","ND","ND","ND","ND","1.02"],
    [51711,"2016-03-30T10:00:00","24.4","ND","ND","ND","ND","2.8","ND","ND","ND","ND","ND","4.57"],
    [51712,"2016-03-30T11:00:00","31","ND","ND","ND","ND","4.5","ND","ND","ND","ND","ND","0.76"],
    [51713,"2016-03-30T12:00:00","33.4","ND","ND","ND","ND","6.0","ND","ND","ND","ND","ND","1.02"],
    [51714,"2016-03-30T13:00:00","26.7","ND","ND","ND","ND","3.9","ND","ND","ND","ND","ND","0.25"],
    [51715,"2016-03-30T14:00:00","34.8","ND","ND","ND","ND","2.4","ND","ND","ND","ND","ND","0"],
    [51716,"2016-03-30T15:00:00","25.4","ND","ND","ND","ND","2.7","ND","ND","ND","ND","ND","0"],
    [51717,"2016-03-30T16:00:00","24","ND","ND","ND","ND","2.9","ND","ND","ND","ND","ND","0"],
    [51718,"2016-03-30T17:00:00","17.6","ND","ND","ND","ND","1.7","ND","ND","ND","ND","ND","0"],
    [51719,"2016-03-30T18:00:00","22","ND","ND","ND","ND","1.4","ND","ND","ND","ND","ND","0"],
    [51720,"2016-03-30T19:00:00","16.2","ND","ND","ND","ND","1.7","ND","ND","ND","ND","ND","0"],
    [51721,"2016-03-30T20:00:00","17.8","ND","ND","ND","ND","0.9","ND","ND","ND","ND","ND","0"],
    [51722,"2016-03-30T21:00:00","21","ND","ND","ND","ND","1.4","ND","ND","ND","ND","ND","0"],
    [51723,"2016-03-30T22:00:00","17.9","ND","ND","ND","ND","1.0","ND","ND","ND","ND","ND","0"],
    [51724,"2016-03-30T23:00:00","19.3","ND","ND","ND","ND","2.5","ND","ND","ND","ND","ND","0"],
    [51725,"2016-03-31T00:00:00","26.3","ND","ND","ND","ND","3.8","ND","ND","ND","ND","ND","0"],
    [51726,"2016-03-31T01:00:00","27.2","ND","ND","ND","ND","2.0","ND","ND","ND","ND","ND","0"],
    [51727,"2016-03-31T02:00:00","21.4","ND","ND","ND","ND","1.2","ND","ND","ND","ND","ND","0"],
    [51728,"2016-03-31T03:00:00","7","ND","ND","ND","ND","3.2","ND","ND","ND","ND","ND","2.03"],
    [51729,"2016-03-31T04:00:00","5.8","ND","ND","ND","ND","2.1","ND","ND","ND","ND","ND","0.25"],
    [51730,"2016-03-31T05:00:00","14.8","ND","ND","ND","ND","2.4","ND","ND","ND","ND","ND","0.76"],
    [51731,"2016-03-31T06:00:00","16.7","ND","ND","ND","ND","3.2","ND","ND","ND","ND","ND","0"],
    [51732,"2016-03-31T07:00:00","24.5","ND","ND","ND","ND","3.1","ND","ND","ND","ND","ND","0"],
    [51733,"2016-03-31T08:00:00","29","ND","ND","ND","ND","2.8","ND","ND","ND","ND","ND","0"],
    [51734,"2016-03-31T09:00:00","40.6","ND","ND","ND","ND","4.7","ND","ND","ND","ND","ND","0"],
    [51735,"2016-03-31T10:00:00","45.6","ND","ND","ND","ND","3.5","ND","ND","ND","ND","ND","0"],
    [51736,"2016-03-31T11:00:00","36.2","ND","ND","ND","ND","2.6","ND","ND","ND","ND","ND","0"],
    [51737,"2016-03-31T12:00:00","27.9","ND","ND","ND","ND","3.0","ND","ND","ND","ND","ND","0"],
    [51738,"2016-03-31T13:00:00","25.1","ND","ND","ND","ND","2.3","ND","ND","ND","ND","ND","0"],
    [51739,"2016-03-31T14:00:00","21","ND","ND","ND","ND","1.7","ND","ND","ND","ND","ND","0"],
    [51740,"2016-03-31T15:00:00","15.5","ND","ND","ND","ND","2.1","ND","ND","ND","ND","ND","0"],
    [51741,"2016-03-31T16:00:00","40.7","ND","ND","ND","ND","3.1","ND","ND","ND","ND","ND","0"],
    [51742,"2016-03-31T17:00:00","79.8","ND","ND","ND","ND","3.6","ND","ND","ND","ND","ND","0"],
    [51743,"2016-03-31T18:00:00","66.9","ND","ND","ND","ND","1.8","ND","ND","ND","ND","ND","0"],
    [51744,"2016-03-31T19:00:00","2.8","ND","ND","ND","ND","2.6","ND","ND","ND","ND","ND","0"],
    [51745,"2016-03-31T20:00:00","ND","ND","ND","ND","ND","2.7","ND","ND","ND","ND","ND","0"],
    [51746,"2016-03-31T21:00:00","65.4","ND","ND","ND","ND","3.8","ND","ND","ND","ND","ND","0"],
    [51747,"2016-03-31T22:00:00","122","ND","ND","ND","ND","4.1","ND","ND","ND","ND","ND","0"],
    [51748,"2016-03-31T23:00:00","81.7","ND","ND","ND","ND","2.2","ND","ND","ND","ND","ND","0"],
    [51749,"2016-04-01T00:00:00","59.1","ND","ND","ND","ND","5.3","ND","ND","ND","ND","ND","0"],
    [51750,"2016-04-01T01:00:00","51.5","ND","ND","ND","ND","6.1","ND","ND","ND","ND","ND","0"],
    [51751,"2016-04-01T02:00:00","18.3","ND","ND","ND","ND","2.8","ND","ND","ND","ND","ND","0"],
    [51752,"2016-04-01T03:00:00","26","ND","ND","ND","ND","6.6","ND","ND","ND","ND","ND","0"],
    [51753,"2016-04-01T04:00:00","22.6","ND","ND","ND","ND","7.2","ND","ND","ND","ND","ND","0"],
    [51754,"2016-04-01T05:00:00","31.6","ND","ND","ND","ND","5.3","ND","ND","ND","ND","ND","0"],
    [51755,"2016-04-01T06:00:00","73.6","ND","ND","ND","ND","7.8","ND","ND","ND","ND","ND","0"],
    [51756,"2016-04-01T07:00:00","67.5","ND","ND","ND","ND","8.7","ND","ND","ND","ND","ND","21.34"],
    [51757,"2016-04-01T08:00:00","52","ND","ND","ND","ND","3.5","ND","ND","ND","ND","ND","26.92"],
    [51758,"2016-04-01T09:00:00","32","ND","ND","ND","ND","5.3","ND","ND","ND","ND","ND","1.78"],
    [51759,"2016-04-01T10:00:00","42.3","ND","ND","ND","ND","6.3","ND","ND","ND","ND","ND","0.25"],
    [51760,"2016-04-01T11:00:00","44.5","ND","ND","ND","ND","4.1","ND","ND","ND","ND","ND","0"],
    [51761,"2016-04-01T12:00:00","22.7","ND","ND","ND","ND","3.3","ND","ND","ND","ND","ND","0"],
    [51762,"2016-04-01T13:00:00","13.7","ND","ND","ND","ND","2.5","ND","ND","ND","ND","ND","0"],
    [51763,"2016-04-01T14:00:00","14.5","ND","ND","ND","ND","2.5","ND","ND","ND","ND","ND","0"],
    [51764,"2016-04-01T15:00:00","9.7","ND","ND","ND","ND","2.2","ND","ND","ND","ND","ND","0"],
    [51765,"2016-04-01T16:00:00","1.2","ND","ND","ND","ND","0.7","ND","ND","ND","ND","ND","0"],
    [51766,"2016-04-01T17:00:00","4.5","ND","ND","ND","ND","0.9","ND","ND","ND","ND","ND","0"],
    [51767,"2016-04-01T18:00:00","ND","ND","ND","ND","ND","1.4","ND","ND","ND","ND","ND","0"],
    [51768,"2016-04-01T19:00:00","ND","ND","ND","ND","ND","2.4","ND","ND","ND","ND","ND","0"],
    [51769,"2016-04-01T20:00:00","29.8","ND","ND","ND","ND","3.1","ND","ND","ND","ND","ND","0"],
    [51770,"2016-04-01T21:00:00","74.4","ND","ND","ND","ND","2.2","ND","ND","ND","ND","ND","0"],
    [51771,"2016-04-01T22:00:00","49.9","ND","ND","ND","ND","2.0","ND","ND","ND","ND","ND","0"],
    [51772,"2016-04-01T23:00:00","48.9","ND","ND","ND","ND","2.0","ND","ND","ND","ND","ND","0"],
    [51773,"2016-04-02T00:00:00","45.8","ND","ND","ND","ND","4.3","ND","ND","ND","ND","ND","0"],
    [51774,"2016-04-02T01:00:00","38.8","ND","ND","ND","ND","5.4","ND","ND","ND","ND","ND","3.56"],
    [51775,"2016-04-02T02:00:00","56.2","ND","ND","ND","ND","4.8","ND","ND","ND","ND","ND","38.35"],
    [51776,"2016-04-02T03:00:00","37.7","ND","ND","ND","ND","2.7","ND","ND","ND","ND","ND","3.56"],
    [51777,"2016-04-02T04:00:00","28","ND","ND","ND","ND","2.0","ND","ND","ND","ND","ND","1.02"],
    [51778,"2016-04-02T05:00:00","23","ND","ND","ND","ND","3.0","ND","ND","ND","ND","ND","0.51"],
    [51779,"2016-04-02T06:00:00","15.5","ND","ND","ND","ND","3.7","ND","ND","ND","ND","ND","0"],
    [51780,"2016-04-02T07:00:00","19.7","ND","ND","ND","ND","4.1","ND","ND","ND","ND","ND","0"],
    [51781,"2016-04-02T08:00:00","22.3","ND","ND","ND","ND","2.5","ND","ND","ND","ND","ND","0.51"],
    [51782,"2016-04-02T09:00:00","26.2","ND","ND","ND","ND","2.1","ND","ND","ND","ND","ND","3.56"],
    [51783,"2016-04-02T10:00:00","17.3","ND","ND","ND","ND","2.9","ND","ND","ND","ND","ND","0.76"],
    [51784,"2016-04-02T11:00:00","17.9","ND","ND","ND","ND","2.4","ND","ND","ND","ND","ND","1.02"],
    [51785,"2016-04-02T12:00:00","18.6","ND","ND","ND","ND","1.6","ND","ND","ND","ND","ND","0.51"],
    [51786,"2016-04-02T13:00:00","14.4","ND","ND","ND","ND","1.4","ND","ND","ND","ND","ND","0.25"],
    [51787,"2016-04-02T14:00:00","2.4","ND","ND","ND","ND","1.5","ND","ND","ND","ND","ND","5.59"],
    [51788,"2016-04-02T15:00:00","6.4","ND","ND","ND","ND","1.7","ND","ND","ND","ND","ND","1.02"],
    [51789,"2016-04-02T16:00:00","11","ND","ND","ND","ND","2.2","ND","ND","ND","ND","ND","3.81"],
    [51790,"2016-04-02T17:00:00","10","ND","ND","ND","ND","3.1","ND","ND","ND","ND","ND","3.56"],
    [51791,"2016-04-02T18:00:00","8.5","ND","ND","ND","ND","1.5","ND","ND","ND","ND","ND","0.51"],
    [51792,"2016-04-02T19:00:00","8","ND","ND","ND","ND","1.9","ND","ND","ND","ND","ND","0"],
    [51793,"2016-04-02T20:00:00","9.7","ND","ND","ND","ND","2.0","ND","ND","ND","ND","ND","0.25"],
    [51794,"2016-04-02T21:00:00","15.8","ND","ND","ND","ND","2.3","ND","ND","ND","ND","ND","0"],
    [51795,"2016-04-02T22:00:00","23.1","ND","ND","ND","ND","2.3","ND","ND","ND","ND","ND","0"],
    [51796,"2016-04-02T23:00:00","21.1","ND","ND","ND","ND","5.4","ND","ND","ND","ND","ND","0"],
    [51797,"2016-04-03T00:00:00","32.8","ND","ND","ND","ND","3.7","ND","ND","ND","ND","ND","0"],
    [51798,"2016-04-03T01:00:00","50.3","ND","ND","ND","ND","7.5","ND","ND","ND","ND","ND","0"],
    [51799,"2016-04-03T02:00:00","48","ND","ND","ND","ND","11.4","ND","ND","ND","ND","ND","0"],
    [51800,"2016-04-03T03:00:00","35.1","ND","ND","ND","ND","5.1","ND","ND","ND","ND","ND","0"],
    [51801,"2016-04-03T04:00:00","30.8","ND","ND","ND","ND","5.8","ND","ND","ND","ND","ND","0"],
    [51802,"2016-04-03T05:00:00","32.7","ND","ND","ND","ND","4.7","ND","ND","ND","ND","ND","0"],
    [51803,"2016-04-03T06:00:00","32.3","ND","ND","ND","ND","7.0","ND","ND","ND","ND","ND","0"],
    [51804,"2016-04-03T07:00:00","48","ND","ND","ND","ND","5.9","ND","ND","ND","ND","ND","0"],
    [51805,"2016-04-03T08:00:00","53.5","ND","ND","ND","ND","4.2","ND","ND","ND","ND","ND","0"],
    [51806,"2016-04-03T09:00:00","64.7","ND","ND","ND","ND","6.0","ND","ND","ND","ND","ND","0"],
    [51807,"2016-04-03T10:00:00","68.4","ND","ND","ND","ND","4.7","ND","ND","ND","ND","ND","0"],
    [51808,"2016-04-03T11:00:00","57.6","ND","ND","ND","ND","5.3","ND","ND","ND","ND","ND","0"],
    [51809,"2016-04-03T12:00:00","38.5","ND","ND","ND","ND","2.9","ND","ND","ND","ND","ND","0"],
    [51810,"2016-04-03T13:00:00","27.6","ND","ND","ND","ND","1.8","ND","ND","ND","ND","ND","0"],
    [51811,"2016-04-03T14:00:00","21.6","ND","ND","ND","ND","1.7","ND","ND","ND","ND","ND","0"],
    [51812,"2016-04-03T15:00:00","23.9","ND","ND","ND","ND","1.8","ND","ND","ND","ND","ND","0"],
    [51813,"2016-04-03T16:00:00","23.9","ND","ND","ND","ND","1.6","ND","ND","ND","ND","ND","0"],
    [51814,"2016-04-03T17:00:00","33.8","ND","ND","ND","ND","2.9","ND","ND","ND","ND","ND","0"],
    [51815,"2016-04-03T18:00:00","27.4","ND","ND","ND","ND","2.3","ND","ND","ND","ND","ND","0"],
    [51816,"2016-04-03T19:00:00","5","ND","ND","ND","ND","2.2","ND","ND","ND","ND","ND","0"],
    [51817,"2016-04-03T20:00:00","ND","ND","ND","ND","ND","2.6","ND","ND","ND","ND","ND","0"],
    [51818,"2016-04-03T21:00:00","2.6","ND","ND","ND","ND","1.7","ND","ND","ND","ND","ND","0"],
    [51819,"2016-04-03T22:00:00","32.6","ND","ND","ND","ND","2.6","ND","ND","ND","ND","ND","0"],
    [51820,"2016-04-03T23:00:00","53","ND","ND","ND","ND","5.4","ND","ND","ND","ND","ND","0"],
    [51821,"2016-04-04T00:00:00","41.8","ND","ND","ND","ND","3.5","ND","ND","ND","ND","ND","0"],
    [51822,"2016-04-04T01:00:00","35.2","ND","ND","ND","ND","6.0","ND","ND","ND","ND","ND","0"],
    [51823,"2016-04-04T02:00:00","56","ND","ND","ND","ND","4.9","ND","ND","ND","ND","ND","0"],
    [51824,"2016-04-04T03:00:00","50.6","ND","ND","ND","ND","3.6","ND","ND","ND","ND","ND","0"],
    [51825,"2016-04-04T04:00:00","35.1","ND","ND","ND","ND","5.0","ND","ND","ND","ND","ND","0"],
    [51826,"2016-04-04T05:00:00","48.7","ND","ND","ND","ND","4.3","ND","ND","ND","ND","ND","0"],
    [51827,"2016-04-04T06:00:00","50.7","ND","ND","ND","ND","1.7","ND","ND","ND","ND","ND","0"],
    [51828,"2016-04-04T07:00:00","33.3","ND","ND","ND","ND","2.6","ND","ND","ND","ND","ND","0"],
    [51829,"2016-04-04T08:00:00","24","ND","ND","ND","ND","1.9","ND","ND","ND","ND","ND","0"],
    [51830,"2016-04-04T09:00:00","51.3","ND","ND","ND","ND","1.9","ND","ND","ND","ND","ND","0"],
    [51831,"2016-04-04T10:00:00","71.7","ND","ND","ND","ND","6.0","ND","ND","ND","ND","ND","0"],
    [51832,"2016-04-04T11:00:00","65","ND","ND","ND","ND","4.9","ND","ND","ND","ND","ND","0"],
    [51833,"2016-04-04T12:00:00","35","ND","ND","ND","ND","3.7","ND","ND","ND","ND","ND","0"],
    [51834,"2016-04-04T13:00:00","17.6","ND","ND","ND","ND","3.4","ND","ND","ND","ND","ND","0"],
    [51835,"2016-04-04T14:00:00","22.5","ND","ND","ND","ND","2.5","ND","ND","ND","ND","ND","0"],
    [51836,"2016-04-04T15:00:00","22.3","ND","ND","ND","ND","2.4","ND","ND","ND","ND","ND","0"],
    [51837,"2016-04-04T16:00:00","12.6","ND","ND","ND","ND","2.7","ND","ND","ND","ND","ND","0"],
    [51838,"2016-04-04T17:00:00","ND","ND","ND","ND","ND","3.1","ND","ND","ND","ND","ND","0"],
    [51839,"2016-04-04T18:00:00","11.1","ND","ND","ND","ND","5.0","ND","ND","ND","ND","ND","0"],
    [51840,"2016-04-04T19:00:00","68.7","ND","ND","ND","ND","6.8","ND","ND","ND","ND","ND","0"],
    [51841,"2016-04-04T20:00:00","65.1","ND","ND","ND","ND","5.2","ND","ND","ND","ND","ND","0"],
    [51842,"2016-04-04T21:00:00","49.6","ND","ND","ND","ND","4.4","ND","ND","ND","ND","ND","0"],
    [51843,"2016-04-04T22:00:00","37.7","ND","ND","ND","ND","1.8","ND","ND","ND","ND","ND","0"],
    [51844,"2016-04-04T23:00:00","29.6","ND","ND","ND","ND","2.0","ND","ND","ND","ND","ND","0"],
    [51845,"2016-04-05T00:00:00","46.6","ND","ND","ND","ND","6.3","ND","ND","ND","ND","ND","0"],
    [51846,"2016-04-05T01:00:00","49.9","ND","ND","ND","ND","4.0","ND","ND","ND","ND","ND","0"],
    [51847,"2016-04-05T02:00:00","32.6","ND","ND","ND","ND","2.4","ND","ND","ND","ND","ND","0"],
    [51848,"2016-04-05T03:00:00","32.3","ND","ND","ND","ND","3.2","ND","ND","ND","ND","ND","0"],
    [51849,"2016-04-05T04:00:00","40.9","ND","ND","ND","ND","2.9","ND","ND","ND","ND","ND","0"],
    [51850,"2016-04-05T05:00:00","49.3","ND","ND","ND","ND","7.2","ND","ND","ND","ND","ND","0"],
    [51851,"2016-04-05T06:00:00","67.7","ND","ND","ND","ND","26.6","ND","ND","ND","ND","ND","0"],
    [51852,"2016-04-05T07:00:00","67.3","ND","ND","ND","ND","18.1","ND","ND","ND","ND","ND","0"],
    [51853,"2016-04-05T08:00:00","71.1","ND","ND","ND","ND","7.6","ND","ND","ND","ND","ND","0"],
    [51854,"2016-04-05T09:00:00","69.6","ND","ND","ND","ND","3.9","ND","ND","ND","ND","ND","0"],
    [51855,"2016-04-05T10:00:00","64","ND","ND","ND","ND","4.3","ND","ND","ND","ND","ND","0"],
    [51856,"2016-04-05T11:00:00","48.5","ND","ND","ND","ND","3.5","ND","ND","ND","ND","ND","0"],
    [51857,"2016-04-05T12:00:00","34.7","ND","ND","ND","ND","1.9","ND","ND","ND","ND","ND","0"],
    [51858,"2016-04-05T13:00:00","34.2","ND","ND","ND","ND","1.3","ND","ND","ND","ND","ND","0"],
    [51859,"2016-04-05T14:00:00","37.1","ND","ND","ND","ND","2.5","ND","ND","ND","ND","ND","0"],
    [51860,"2016-04-05T15:00:00","43.3","ND","ND","ND","ND","2.6","ND","ND","ND","ND","ND","0"],
    [51861,"2016-04-05T16:00:00","32.3","ND","ND","ND","ND","1.5","ND","ND","ND","ND","ND","0"],
    [51862,"2016-04-05T17:00:00","22.2","ND","ND","ND","ND","1.7","ND","ND","ND","ND","ND","0"],
    [51863,"2016-04-05T18:00:00","22.6","ND","ND","ND","ND","1.9","ND","ND","ND","ND","ND","0"],
    [51864,"2016-04-05T19:00:00","22.1","ND","ND","ND","ND","2.5","ND","ND","ND","ND","ND","0"],
    [51865,"2016-04-05T20:00:00","32.6","ND","ND","ND","ND","3.7","ND","ND","ND","ND","ND","0"],
    [51866,"2016-04-05T21:00:00","41.2","ND","ND","ND","ND","3.3","ND","ND","ND","ND","ND","0"],
    [51867,"2016-04-05T22:00:00","49.7","ND","ND","ND","ND","2.4","ND","ND","ND","ND","ND","0"],
    [51868,"2016-04-05T23:00:00","53.8","ND","ND","ND","ND","3.3","ND","ND","ND","ND","ND","0"],
    [51869,"2016-04-06T00:00:00","53","ND","ND","ND","ND","5.2","ND","ND","ND","ND","ND","0"],
    [51870,"2016-04-06T01:00:00","44","ND","ND","ND","ND","3.9","ND","ND","ND","ND","ND","0"],
    [51871,"2016-04-06T02:00:00","39","ND","ND","ND","ND","2.9","ND","ND","ND","ND","ND","0"],
    [51872,"2016-04-06T03:00:00","40.3","ND","ND","ND","ND","4.1","ND","ND","ND","ND","ND","0"],
    [51873,"2016-04-06T04:00:00","41.5","ND","ND","ND","ND","3.8","ND","ND","ND","ND","ND","0"],
    [51874,"2016-04-06T05:00:00","41.1","ND","ND","ND","ND","5.9","ND","ND","ND","ND","ND","0"],
    [51875,"2016-04-06T06:00:00","45","ND","ND","ND","ND","7.0","ND","ND","ND","ND","ND","0"],
    [51876,"2016-04-06T07:00:00","64.4","ND","ND","ND","ND","6.1","ND","ND","ND","ND","ND","0"],
    [51877,"2016-04-06T08:00:00","86.2","ND","ND","ND","ND","11.3","ND","ND","ND","ND","ND","0"],
    [51878,"2016-04-06T09:00:00","77","ND","ND","ND","ND","3.2","ND","ND","ND","ND","ND","0"],
    [51879,"2016-04-06T10:00:00","55.6","ND","ND","ND","ND","2.7","ND","ND","ND","ND","ND","0"],
    [51880,"2016-04-06T11:00:00","48.7","ND","ND","ND","ND","2.2","ND","ND","ND","ND","ND","0"],
    [51881,"2016-04-06T12:00:00","50.1","ND","ND","ND","ND","1.7","ND","ND","ND","ND","ND","0"],
    [51882,"2016-04-06T13:00:00","59.2","ND","ND","ND","ND","3.4","ND","ND","ND","ND","ND","0"],
    [51883,"2016-04-06T14:00:00","62.8","ND","ND","ND","ND","2.3","ND","ND","ND","ND","ND","0"],
    [51884,"2016-04-06T15:00:00","43.1","ND","ND","ND","ND","2.9","ND","ND","ND","ND","ND","0"],
    [51885,"2016-04-06T16:00:00","50.9","ND","ND","ND","ND","3.7","ND","ND","ND","ND","ND","0"],
    [51886,"2016-04-06T17:00:00","43.5","ND","ND","ND","ND","2.9","ND","ND","ND","ND","ND","0"],
    [51887,"2016-04-06T18:00:00","31.1","ND","ND","ND","ND","2.7","ND","ND","ND","ND","ND","0"],
    [51888,"2016-04-06T19:00:00","24.1","ND","ND","ND","ND","2.1","ND","ND","ND","ND","ND","0"],
    [51889,"2016-04-06T20:00:00","21.7","ND","ND","ND","ND","2.9","ND","ND","ND","ND","ND","0"],
    [51890,"2016-04-06T21:00:00","38.9","ND","ND","ND","ND","2.2","ND","ND","ND","ND","ND","0"],
    [51891,"2016-04-06T22:00:00","32.3","ND","ND","ND","ND","3.5","ND","ND","ND","ND","ND","0"],
    [51892,"2016-04-06T23:00:00","21.6","ND","ND","ND","ND","2.3","ND","ND","ND","ND","ND","0"],
    [51893,"2016-04-07T00:00:00","14.1","ND","ND","ND","ND","3.0","ND","ND","ND","ND","ND","0"],
    [51894,"2016-04-07T01:00:00","26","ND","ND","ND","ND","2.2","ND","ND","ND","ND","ND","0"],
    [51895,"2016-04-07T02:00:00","44.5","ND","ND","ND","ND","3.9","ND","ND","ND","ND","ND","0"],
    [51896,"2016-04-07T03:00:00","37.3","ND","ND","ND","ND","4.3","ND","ND","ND","ND","ND","0"],
    [51897,"2016-04-07T04:00:00","43.6","ND","ND","ND","ND","6.9","ND","ND","ND","ND","ND","0"],
    [51898,"2016-04-07T05:00:00","44.2","ND","ND","ND","ND","6.2","ND","ND","ND","ND","ND","0"],
    [51899,"2016-04-07T06:00:00","59.6","ND","ND","ND","ND","5.1","ND","ND","ND","ND","ND","0"],
    [51900,"2016-04-07T07:00:00","73.9","ND","ND","ND","ND","5.3","ND","ND","ND","ND","ND","0"],
    [51901,"2016-04-07T08:00:00","84.5","ND","ND","ND","ND","6.5","ND","ND","ND","ND","ND","0"],
    [51902,"2016-04-07T09:00:00","80.4","ND","ND","ND","ND","5.5","ND","ND","ND","ND","ND","0"],
    [51903,"2016-04-07T10:00:00","71","ND","ND","ND","ND","4.0","ND","ND","ND","ND","ND","0"],
    [51904,"2016-04-07T11:00:00","54.3","ND","ND","ND","ND","3.6","ND","ND","ND","ND","ND","0"],
    [51905,"2016-04-07T12:00:00","32.4","ND","ND","ND","ND","3.1","ND","ND","ND","ND","ND","0"],
    [51906,"2016-04-07T13:00:00","47.1","ND","ND","ND","ND","2.1","ND","ND","ND","ND","ND","0"],
    [51907,"2016-04-07T14:00:00","45.1","ND","ND","ND","ND","2.8","ND","ND","ND","ND","ND","0"],
    [51908,"2016-04-07T15:00:00","29.2","ND","ND","ND","ND","2.0","ND","ND","ND","ND","ND","0"],
    [51909,"2016-04-07T16:00:00","36.7","ND","ND","ND","ND","2.2","ND","ND","ND","ND","ND","0"],
    [51910,"2016-04-07T17:00:00","30","ND","ND","ND","ND","1.1","ND","ND","ND","ND","ND","0"],
    [51911,"2016-04-07T18:00:00","12.8","ND","ND","ND","ND","2.2","ND","ND","ND","ND","ND","0"],
    [51912,"2016-04-07T19:00:00","4.4","ND","ND","ND","ND","2.7","ND","ND","ND","ND","ND","0"],
    [51913,"2016-04-07T20:00:00","16.3","ND","ND","ND","ND","2.8","ND","ND","ND","ND","ND","0"],
    [51914,"2016-04-07T21:00:00","37.3","ND","ND","ND","ND","2.6","ND","ND","ND","ND","ND","0"],
    [51915,"2016-04-07T22:00:00","37.4","ND","ND","ND","ND","2.7","ND","ND","ND","ND","ND","0"],
    [51916,"2016-04-07T23:00:00","35.3","ND","ND","ND","ND","4.6","ND","ND","ND","ND","ND","0"],
    [51917,"2016-04-08T00:00:00","38.6","ND","ND","ND","ND","4.5","ND","ND","ND","ND","ND","0"],
    [51918,"2016-04-08T01:00:00","42.3","ND","ND","ND","ND","4.4","ND","ND","ND","ND","ND","0"],
    [51919,"2016-04-08T02:00:00","39.3","ND","ND","ND","ND","5.4","ND","ND","ND","ND","ND","0"],
    [51920,"2016-04-08T03:00:00","29.1","ND","ND","ND","ND","2.9","ND","ND","ND","ND","ND","0"],
    [51921,"2016-04-08T04:00:00","27.8","ND","ND","ND","ND","3.7","ND","ND","ND","ND","ND","0"],
    [51922,"2016-04-08T05:00:00","41.9","ND","ND","ND","ND","5.3","ND","ND","ND","ND","ND","0"],
    [51923,"2016-04-08T06:00:00","37.8","ND","ND","ND","ND","3.5","ND","ND","ND","ND","ND","0"],
    [51924,"2016-04-08T07:00:00","43.1","ND","ND","ND","ND","4.1","ND","ND","ND","ND","ND","0"],
    [51925,"2016-04-08T08:00:00","71","ND","ND","ND","ND","4.0","ND","ND","ND","ND","ND","0"],
    [51926,"2016-04-08T09:00:00","94.6","ND","ND","ND","ND","4.7","ND","ND","ND","ND","ND","0"],
    [51927,"2016-04-08T10:00:00","70.9","ND","ND","ND","ND","4.2","ND","ND","ND","ND","ND","0"],
    [51928,"2016-04-08T11:00:00","49.4","ND","ND","ND","ND","1.6","ND","ND","ND","ND","ND","0"],
    [51929,"2016-04-08T12:00:00","61.6","ND","ND","ND","ND","1.4","ND","ND","ND","ND","ND","0"],
    [51930,"2016-04-08T13:00:00","43.9","ND","ND","ND","ND","2.4","ND","ND","ND","ND","ND","0"],
    [51931,"2016-04-08T14:00:00","54.3","ND","ND","ND","ND","2.4","ND","ND","ND","ND","ND","0"],
    [51932,"2016-04-08T15:00:00","46.2","ND","ND","ND","ND","1.6","ND","ND","ND","ND","ND","0"],
    [51933,"2016-04-08T16:00:00","23.6","ND","ND","ND","ND","2.2","ND","ND","ND","ND","ND","0"],
    [51934,"2016-04-08T17:00:00","30.2","ND","ND","ND","ND","2.0","ND","ND","ND","ND","ND","0"],
    [51935,"2016-04-08T18:00:00","25.9","ND","ND","ND","ND","2.9","ND","ND","ND","ND","ND","0"],
    [51936,"2016-04-08T19:00:00","8.2","ND","ND","ND","ND","2.2","ND","ND","ND","ND","ND","0"],
    [51937,"2016-04-08T20:00:00","38","ND","ND","ND","ND","3.2","ND","ND","ND","ND","ND","0"],
    [51938,"2016-04-08T21:00:00","41.1","ND","ND","ND","ND","4.8","ND","ND","ND","ND","ND","0"],
    [51939,"2016-04-08T22:00:00","51.9","ND","ND","ND","ND","5.4","ND","ND","ND","ND","ND","1.27"],
    [51940,"2016-04-08T23:00:00","51.4","ND","ND","ND","ND","3.9","ND","ND","ND","ND","ND","0.25"],
    [51941,"2016-04-09T00:00:00","32.9","ND","ND","ND","ND","3.2","ND","ND","ND","ND","ND","0"],
    [51942,"2016-04-09T01:00:00","15.1","ND","ND","ND","ND","2.9","ND","ND","ND","ND","ND","0"],
    [51943,"2016-04-09T02:00:00","23.4","ND","ND","ND","ND","2.4","ND","ND","ND","ND","ND","0"],
    [51944,"2016-04-09T03:00:00","29.1","ND","ND","ND","ND","4.1","ND","ND","ND","ND","ND","0"],
    [51945,"2016-04-09T04:00:00","44.2","ND","ND","ND","ND","4.1","ND","ND","ND","ND","ND","0"],
    [51946,"2016-04-09T05:00:00","41.9","ND","ND","ND","ND","4.7","ND","ND","ND","ND","ND","1.27"],
    [51947,"2016-04-09T06:00:00","33.6","ND","ND","ND","ND","2.8","ND","ND","ND","ND","ND","0.25"],
    [51948,"2016-04-09T07:00:00","40.2","ND","ND","ND","ND","4.6","ND","ND","ND","ND","ND","0"],
    [51949,"2016-04-09T08:00:00","38.3","ND","ND","ND","ND","3.2","ND","ND","ND","ND","ND","21.59"],
    [51950,"2016-04-09T09:00:00","27","ND","ND","ND","ND","6.2","ND","ND","ND","ND","ND","2.03"],
    [51951,"2016-04-09T10:00:00","36.9","ND","ND","ND","ND","8.5","ND","ND","ND","ND","ND","4.32"],
    [51952,"2016-04-09T11:00:00","28.6","ND","ND","ND","ND","6.9","ND","ND","ND","ND","ND","0.51"],
    [51953,"2016-04-09T12:00:00","31.1","ND","ND","ND","ND","10.4","ND","ND","ND","ND","ND","0"],
    [51954,"2016-04-09T13:00:00","27.9","ND","ND","ND","ND","7.8","ND","ND","ND","ND","ND","0"],
    [51955,"2016-04-09T14:00:00","41.1","ND","ND","ND","ND","3.3","ND","ND","ND","ND","ND","0"],
    [51956,"2016-04-09T15:00:00","35.4","ND","ND","ND","ND","3.8","ND","ND","ND","ND","ND","0"],
    [51957,"2016-04-09T16:00:00","34.3","ND","ND","ND","ND","2.7","ND","ND","ND","ND","ND","0"],
    [51958,"2016-04-09T17:00:00","23.9","ND","ND","ND","ND","2.5","ND","ND","ND","ND","ND","0"],
    [51959,"2016-04-09T18:00:00","18.7","ND","ND","ND","ND","2.4","ND","ND","ND","ND","ND","0"],
    [51960,"2016-04-09T19:00:00","22.6","ND","ND","ND","ND","3.0","ND","ND","ND","ND","ND","0"],
    [51961,"2016-04-09T20:00:00","29.4","ND","ND","ND","ND","2.4","ND","ND","ND","ND","ND","0"],
    [51962,"2016-04-09T21:00:00","45.8","ND","ND","ND","ND","2.2","ND","ND","ND","ND","ND","0"],
    [51963,"2016-04-09T22:00:00","52.3","ND","ND","ND","ND","2.8","ND","ND","ND","ND","ND","0"],
    [51964,"2016-04-09T23:00:00","48.4","ND","ND","ND","ND","2.2","ND","ND","ND","ND","ND","0"],
    [51965,"2016-04-10T00:00:00","48.1","ND","ND","ND","ND","7.6","ND","ND","ND","ND","ND","0"],
    [51966,"2016-04-10T01:00:00","54.3","ND","ND","ND","ND","7.7","ND","ND","ND","ND","ND","0"],
    [51967,"2016-04-10T02:00:00","51.4","ND","ND","ND","ND","5.9","ND","ND","ND","ND","ND","0"],
    [51968,"2016-04-10T03:00:00","38.2","ND","ND","ND","ND","3.4","ND","ND","ND","ND","ND","0"],
    [51969,"2016-04-10T04:00:00","37","ND","ND","ND","ND","4.2","ND","ND","ND","ND","ND","0"],
    [51970,"2016-04-10T05:00:00","49.4","ND","ND","ND","ND","4.3","ND","ND","ND","ND","ND","0"],
    [51971,"2016-04-10T06:00:00","55.5","ND","ND","ND","ND","4.4","ND","ND","ND","ND","ND","0"],
    [51972,"2016-04-10T07:00:00","58.9","ND","ND","ND","ND","4.4","ND","ND","ND","ND","ND","0"],
    [51973,"2016-04-10T08:00:00","64.1","ND","ND","ND","ND","6.5","ND","ND","ND","ND","ND","0"],
    [51974,"2016-04-10T09:00:00","65.1","ND","ND","ND","ND","6.5","ND","ND","ND","ND","ND","0"],
    [51975,"2016-04-10T10:00:00","60.9","ND","ND","ND","ND","3.6","ND","ND","ND","ND","ND","0"],
    [51976,"2016-04-10T11:00:00","57.2","ND","ND","ND","ND","4.0","ND","ND","ND","ND","ND","0"],
    [51977,"2016-04-10T12:00:00","49.3","ND","ND","ND","ND","4.9","ND","ND","ND","ND","ND","0"],
    [51978,"2016-04-10T13:00:00","41.7","ND","ND","ND","ND","3.1","ND","ND","ND","ND","ND","0"],
    [51979,"2016-04-10T14:00:00","30.2","ND","ND","ND","ND","2.9","ND","ND","ND","ND","ND","0"],
    [51980,"2016-04-10T15:00:00","25.4","ND","ND","ND","ND","3.4","ND","ND","ND","ND","ND","0"],
    [51981,"2016-04-10T16:00:00","19.3","ND","ND","ND","ND","1.7","ND","ND","ND","ND","ND","0"],
    [51982,"2016-04-10T17:00:00","11.1","ND","ND","ND","ND","2.0","ND","ND","ND","ND","ND","9.91"],
    [51983,"2016-04-10T18:00:00","ND","ND","ND","ND","ND","1.2","ND","ND","ND","ND","ND","0.25"],
    [51984,"2016-04-10T19:00:00","21","ND","ND","ND","ND","1.4","ND","ND","ND","ND","ND","0"],
    [51985,"2016-04-10T20:00:00","62","ND","ND","ND","ND","4.7","ND","ND","ND","ND","ND","0"],
    [51986,"2016-04-10T21:00:00","35.8","ND","ND","ND","ND","7.9","ND","ND","ND","ND","ND","0.76"],
    [51987,"2016-04-10T22:00:00","27.3","ND","ND","ND","ND","7.6","ND","ND","ND","ND","ND","0.25"],
    [51988,"2016-04-10T23:00:00","25.2","ND","ND","ND","ND","1.5","ND","ND","ND","ND","ND","0"],
    [51989,"2016-04-11T00:00:00","3.1","ND","ND","ND","ND","1.6","ND","ND","ND","ND","ND","0"],
    [51990,"2016-04-11T01:00:00","ND","ND","ND","ND","ND","2.2","ND","ND","ND","ND","ND","0.25"],
    [51991,"2016-04-11T02:00:00","ND","ND","ND","ND","ND","1.8","ND","ND","ND","ND","ND","0.25"],
    [51992,"2016-04-11T03:00:00","9.3","ND","ND","ND","ND","1.0","ND","ND","ND","ND","ND","0"],
    [51993,"2016-04-11T04:00:00","24.6","ND","ND","ND","ND","2.1","ND","ND","ND","ND","ND","0"],
    [51994,"2016-04-11T05:00:00","34.3","ND","ND","ND","ND","2.6","ND","ND","ND","ND","ND","0"],
    [51995,"2016-04-11T06:00:00","36","ND","ND","ND","ND","3.6","ND","ND","ND","ND","ND","0"],
    [51996,"2016-04-11T07:00:00","32.9","ND","ND","ND","ND","2.9","ND","ND","ND","ND","ND","0"],
    [51997,"2016-04-11T08:00:00","46.1","ND","ND","ND","ND","7.6","ND","ND","ND","ND","ND","0"],
    [51998,"2016-04-11T09:00:00","60.7","ND","ND","ND","ND","4.4","ND","ND","ND","ND","ND","0"],
    [51999,"2016-04-11T10:00:00","67.7","ND","ND","ND","ND","4.6","ND","ND","ND","ND","ND","0"],
    [52000,"2016-04-11T11:00:00","53","ND","ND","ND","ND","3.0","ND","ND","ND","ND","ND","0"],
    [52001,"2016-04-11T12:00:00","32.1","ND","ND","ND","ND","1.8","ND","ND","ND","ND","ND","0"],
    [52002,"2016-04-11T13:00:00","8.5","ND","ND","ND","ND","1.5","ND","ND","ND","ND","ND","0"],
    [52003,"2016-04-11T14:00:00","16.9","ND","ND","ND","ND","1.4","ND","ND","ND","ND","ND","0"],
    [52004,"2016-04-11T15:00:00","2.7","ND","ND","ND","ND","2.6","ND","ND","ND","ND","ND","0.76"],
    [52005,"2016-04-11T16:00:00","13.3","ND","ND","ND","ND","2.1","ND","ND","ND","ND","ND","7.62"],
    [52006,"2016-04-11T17:00:00","43.2","ND","ND","ND","ND","1.6","ND","ND","ND","ND","ND","0.25"],
    [52007,"2016-04-11T18:00:00","50","ND","ND","ND","ND","4.3","ND","ND","ND","ND","ND","0"],
    [52008,"2016-04-11T19:00:00","35.7","ND","ND","ND","ND","2.8","ND","ND","ND","ND","ND","0"],
    [52009,"2016-04-11T20:00:00","44.8","ND","ND","ND","ND","4.6","ND","ND","ND","ND","ND","0"],
    [52010,"2016-04-11T21:00:00","57","ND","ND","ND","ND","4.2","ND","ND","ND","ND","ND","0"],
    [52011,"2016-04-11T22:00:00","31.1","ND","ND","ND","ND","1.2","ND","ND","ND","ND","ND","4.06"],
    [52012,"2016-04-11T23:00:00","9.1","ND","ND","ND","ND","2.9","ND","ND","ND","ND","ND","39.12"],
    [52013,"2016-04-12T00:00:00","1.5","ND","ND","ND","ND","2.3","ND","ND","ND","ND","ND","0.51"],
    [52014,"2016-04-12T01:00:00","15.3","ND","ND","ND","ND","1.8","ND","ND","ND","ND","ND","0.51"],
    [52015,"2016-04-12T02:00:00","19.6","ND","ND","ND","ND","3.2","ND","ND","ND","ND","ND","20.07"],
    [52016,"2016-04-12T03:00:00","13.1","ND","ND","ND","ND","3.5","ND","ND","ND","ND","ND","9.91"],
    [52017,"2016-04-12T04:00:00","11.5","ND","ND","ND","ND","2.0","ND","ND","ND","ND","ND","7.62"],
    [52018,"2016-04-12T05:00:00","16.3","ND","ND","ND","ND","2.0","ND","ND","ND","ND","ND","4.57"],
    [52019,"2016-04-12T06:00:00","18.2","ND","ND","ND","ND","3.6","ND","ND","ND","ND","ND","1.27"],
    [52020,"2016-04-12T07:00:00","16.3","ND","ND","ND","ND","8.6","ND","ND","ND","ND","ND","1.02"],
    [52021,"2016-04-12T08:00:00","17.3","ND","ND","ND","ND","4.9","ND","ND","ND","ND","ND","0"],
    [52022,"2016-04-12T09:00:00","16.2","ND","ND","ND","ND","3.7","ND","ND","ND","ND","ND","1.02"],
    [52023,"2016-04-12T10:00:00","12.6","ND","ND","ND","ND","2.9","ND","ND","ND","ND","ND","2.29"],
    [52024,"2016-04-12T11:00:00","13.3","ND","ND","ND","ND","1.2","ND","ND","ND","ND","ND","4.32"],
    [52025,"2016-04-12T12:00:00","8.3","ND","ND","ND","ND","1.9","ND","ND","ND","ND","ND","1.52"],
    [52026,"2016-04-12T13:00:00","5","ND","ND","ND","ND","1.7","ND","ND","ND","ND","ND","0"],
    [52027,"2016-04-12T14:00:00","4.8","ND","ND","ND","ND","1.7","ND","ND","ND","ND","ND","1.02"],
    [52028,"2016-04-12T15:00:00","30.6","ND","ND","ND","ND","3.1","ND","ND","ND","ND","ND","1.27"],
    [52029,"2016-04-12T16:00:00","47.7","ND","ND","ND","ND","5.1","ND","ND","ND","ND","ND","0"],
    [52030,"2016-04-12T17:00:00","28.7","ND","ND","ND","ND","2.6","ND","ND","ND","ND","ND","0"],
    [52031,"2016-04-12T18:00:00","16","ND","ND","ND","ND","3.6","ND","ND","ND","ND","ND","0.76"],
    [52032,"2016-04-12T19:00:00","23.3","ND","ND","ND","ND","2.5","ND","ND","ND","ND","ND","0"],
    [52033,"2016-04-12T20:00:00","26.1","ND","ND","ND","ND","5.8","ND","ND","ND","ND","ND","0"],
    [52034,"2016-04-12T21:00:00","28.1","ND","ND","ND","ND","8.3","ND","ND","ND","ND","ND","0"],
    [52035,"2016-04-12T22:00:00","31.4","ND","ND","ND","ND","8.5","ND","ND","ND","ND","ND","0.25"],
    [52036,"2016-04-12T23:00:00","36.9","ND","ND","ND","ND","7.0","ND","ND","ND","ND","ND","0"],
    [52037,"2016-04-13T00:00:00","40.2","ND","ND","ND","ND","3.5","ND","ND","ND","ND","ND","0"],
    [52038,"2016-04-13T01:00:00","29.7","ND","ND","ND","ND","2.5","ND","ND","ND","ND","ND","0"],
    [52039,"2016-04-13T02:00:00","22.4","ND","ND","ND","ND","3.1","ND","ND","ND","ND","ND","0"],
    [52040,"2016-04-13T03:00:00","14.5","ND","ND","ND","ND","3.3","ND","ND","ND","ND","ND","0.25"],
    [52041,"2016-04-13T04:00:00","6.7","ND","ND","ND","ND","3.4","ND","ND","ND","ND","ND","0.25"],
    [52042,"2016-04-13T05:00:00","13.2","ND","ND","ND","ND","3.1","ND","ND","ND","ND","ND","0.25"],
    [52043,"2016-04-13T06:00:00","32.2","ND","ND","ND","ND","3.7","ND","ND","ND","ND","ND","0.25"],
    [52044,"2016-04-13T07:00:00","39.1","ND","ND","ND","ND","7.7","ND","ND","ND","ND","ND","0"],
    [52045,"2016-04-13T08:00:00","28.9","ND","ND","ND","ND","27.7","ND","ND","ND","ND","ND","0.25"],
    [52046,"2016-04-13T09:00:00","37","ND","ND","ND","ND","21.4","ND","ND","ND","ND","ND","2.79"],
    [52047,"2016-04-13T10:00:00","29.1","ND","ND","ND","ND","12.3","ND","ND","ND","ND","ND","3.05"],
    [52048,"2016-04-13T11:00:00","31.7","ND","ND","ND","ND","4.1","ND","ND","ND","ND","ND","0.25"],
    [52049,"2016-04-13T12:00:00","64.3","ND","ND","ND","ND","2.7","ND","ND","ND","ND","ND","0"],
    [52050,"2016-04-13T13:00:00","64.9","ND","ND","ND","ND","2.3","ND","ND","ND","ND","ND","0"],
    [52051,"2016-04-13T14:00:00","37.6","ND","ND","ND","ND","3.2","ND","ND","ND","ND","ND","0"],
    [52052,"2016-04-13T15:00:00","39.7","ND","ND","ND","ND","2.0","ND","ND","ND","ND","ND","0"],
    [52053,"2016-04-13T16:00:00","43.6","ND","ND","ND","ND","2.9","ND","ND","ND","ND","ND","0"],
    [52054,"2016-04-13T17:00:00","50.9","ND","ND","ND","ND","3.8","ND","ND","ND","ND","ND","0"],
    [52055,"2016-04-13T18:00:00","39.3","ND","ND","ND","ND","2.8","ND","ND","ND","ND","ND","0"],
    [52056,"2016-04-13T19:00:00","36.4","ND","ND","ND","ND","4.2","ND","ND","ND","ND","ND","1.02"],
    [52057,"2016-04-13T20:00:00","32.4","ND","ND","ND","ND","2.0","ND","ND","ND","ND","ND","0.76"],
    [52058,"2016-04-13T21:00:00","30","ND","ND","ND","ND","2.3","ND","ND","ND","ND","ND","0.25"],
    [52059,"2016-04-13T22:00:00","28.9","ND","ND","ND","ND","2.4","ND","ND","ND","ND","ND","0"],
    [52060,"2016-04-13T23:00:00","38.7","ND","ND","ND","ND","2.1","ND","ND","ND","ND","ND","0"],
    [52061,"2016-04-14T00:00:00","64.7","ND","ND","ND","ND","1.9","ND","ND","ND","ND","ND","0"],
    [52062,"2016-04-14T01:00:00","59.1","ND","ND","ND","ND","2.7","ND","ND","ND","ND","ND","0"],
    [52063,"2016-04-14T02:00:00","47.8","ND","ND","ND","ND","1.7","ND","ND","ND","ND","ND","0"],
    [52064,"2016-04-14T03:00:00","36.2","ND","ND","ND","ND","2.0","ND","ND","ND","ND","ND","0"],
    [52065,"2016-04-14T04:00:00","35.6","ND","ND","ND","ND","4.5","ND","ND","ND","ND","ND","0"],
    [52066,"2016-04-14T05:00:00","52.5","ND","ND","ND","ND","4.1","ND","ND","ND","ND","ND","0"],
    [52067,"2016-04-14T06:00:00","56.4","ND","ND","ND","ND","1.8","ND","ND","ND","ND","ND","0"],
    [52068,"2016-04-14T07:00:00","55.5","ND","ND","ND","ND","3.1","ND","ND","ND","ND","ND","0"],
    [52069,"2016-04-14T08:00:00","79.3","ND","ND","ND","ND","4.2","ND","ND","ND","ND","ND","0"],
    [52070,"2016-04-14T09:00:00","93.2","ND","ND","ND","ND","3.4","ND","ND","ND","ND","ND","0"],
    [52071,"2016-04-14T10:00:00","69.4","ND","ND","ND","ND","3.9","ND","ND","ND","ND","ND","0"],
    [52072,"2016-04-14T11:00:00","61.9","ND","ND","ND","ND","3.5","ND","ND","ND","ND","ND","0"],
    [52073,"2016-04-14T12:00:00","53.1","ND","ND","ND","ND","2.3","ND","ND","ND","ND","ND","0"],
    [52074,"2016-04-14T13:00:00","48.4","ND","ND","ND","ND","2.8","ND","ND","ND","ND","ND","0"],
    [52075,"2016-04-14T14:00:00","42.3","ND","ND","ND","ND","2.9","ND","ND","ND","ND","ND","0"],
    [52076,"2016-04-14T15:00:00","24.3","ND","ND","ND","ND","2.0","ND","ND","ND","ND","ND","0"],
    [52077,"2016-04-14T16:00:00","13.8","ND","ND","ND","ND","1.7","ND","ND","ND","ND","ND","0"],
    [52078,"2016-04-14T17:00:00","11.6","ND","ND","ND","ND","2.7","ND","ND","ND","ND","ND","0"],
    [52079,"2016-04-14T18:00:00","13.2","ND","ND","ND","ND","2.4","ND","ND","ND","ND","ND","0"],
    [52080,"2016-04-14T19:00:00","4.8","ND","ND","ND","ND","1.8","ND","ND","ND","ND","ND","0"],
    [52081,"2016-04-14T20:00:00","ND","ND","ND","ND","ND","2.4","ND","ND","ND","ND","ND","0"],
    [52082,"2016-04-14T21:00:00","ND","ND","ND","ND","ND","2.6","ND","ND","ND","ND","ND","0"],
    [52083,"2016-04-14T22:00:00","47.1","ND","ND","ND","ND","2.8","ND","ND","ND","ND","ND","0"],
    [52084,"2016-04-14T23:00:00","64","ND","ND","ND","ND","6.8","ND","ND","ND","ND","ND","0"],
    [52085,"2016-04-15T00:00:00","67.5","ND","ND","ND","ND","2.6","ND","ND","ND","ND","ND","0"],
    [52086,"2016-04-15T01:00:00","53.2","ND","ND","ND","ND","3.9","ND","ND","ND","ND","ND","0"],
    [52087,"2016-04-15T02:00:00","46.4","ND","ND","ND","ND","7.8","ND","ND","ND","ND","ND","0"],
    [52088,"2016-04-15T03:00:00","47","ND","ND","ND","ND","3.4","ND","ND","ND","ND","ND","0"],
    [52089,"2016-04-15T04:00:00","43.6","ND","ND","ND","ND","3.1","ND","ND","ND","ND","ND","0"],
    [52090,"2016-04-15T05:00:00","55.5","ND","ND","ND","ND","4.5","ND","ND","ND","ND","ND","0"],
    [52091,"2016-04-15T06:00:00","71.6","ND","ND","ND","ND","3.0","ND","ND","ND","ND","ND","0"],
    [52092,"2016-04-15T07:00:00","103.3","ND","ND","ND","ND","3.2","ND","ND","ND","ND","ND","0"],
    [52093,"2016-04-15T08:00:00","134.6","ND","ND","ND","ND","3.6","ND","ND","ND","ND","ND","0"],
    [52094,"2016-04-15T09:00:00","128.1","ND","ND","ND","ND","3.5","ND","ND","ND","ND","ND","0"],
    [52095,"2016-04-15T10:00:00","90.2","ND","ND","ND","ND","3.4","ND","ND","ND","ND","ND","0"],
    [52096,"2016-04-15T11:00:00","44.5","ND","ND","ND","ND","2.0","ND","ND","ND","ND","ND","0"],
    [52097,"2016-04-15T12:00:00","30","ND","ND","ND","ND","1.3","ND","ND","ND","ND","ND","0"],
    [52098,"2016-04-15T13:00:00","32","ND","ND","ND","ND","1.2","ND","ND","ND","ND","ND","0"],
    [52099,"2016-04-15T14:00:00","40.1","ND","ND","ND","ND","2.3","ND","ND","ND","ND","ND","0"],
    [52100,"2016-04-15T15:00:00","55","ND","ND","ND","ND","2.0","ND","ND","ND","ND","ND","0"],
    [52101,"2016-04-15T16:00:00","47.3","ND","ND","ND","ND","2.1","ND","ND","ND","ND","ND","0"],
    [52102,"2016-04-15T17:00:00","33.9","ND","ND","ND","ND","2.3","ND","ND","ND","ND","ND","0"],
    [52103,"2016-04-15T18:00:00","15.1","ND","ND","ND","ND","1.5","ND","ND","ND","ND","ND","0"],
    [52104,"2016-04-15T19:00:00","2.9","ND","ND","ND","ND","2.5","ND","ND","ND","ND","ND","0"],
    [52105,"2016-04-15T20:00:00","11.6","ND","ND","ND","ND","2.5","ND","ND","ND","ND","ND","0"],
    [52106,"2016-04-15T21:00:00","40","ND","ND","ND","ND","2.0","ND","ND","ND","ND","ND","0"],
    [52107,"2016-04-15T22:00:00","30","ND","ND","ND","ND","3.6","ND","ND","ND","ND","ND","0"],
    [52108,"2016-04-15T23:00:00","38.2","ND","ND","ND","ND","2.0","ND","ND","ND","ND","ND","0"],
    [52109,"2016-04-16T00:00:00","25.2","ND","ND","ND","ND","2.2","ND","ND","ND","ND","ND","0"],
    [52110,"2016-04-16T01:00:00","36.8","ND","ND","ND","ND","1.8","ND","ND","ND","ND","ND","0"],
    [52111,"2016-04-16T02:00:00","28.7","ND","ND","ND","ND","2.7","ND","ND","ND","ND","ND","4.83"],
    [52112,"2016-04-16T03:00:00","11.6","ND","ND","ND","ND","2.9","ND","ND","ND","ND","ND","4.06"],
    [52113,"2016-04-16T04:00:00","19.7","ND","ND","ND","ND","3.4","ND","ND","ND","ND","ND","0.25"],
    [52114,"2016-04-16T05:00:00","29.3","ND","ND","ND","ND","1.8","ND","ND","ND","ND","ND","0"],
    [52115,"2016-04-16T06:00:00","27.3","ND","ND","ND","ND","2.4","ND","ND","ND","ND","ND","0"],
    [52116,"2016-04-16T07:00:00","41","ND","ND","ND","ND","2.5","ND","ND","ND","ND","ND","0"],
    [52117,"2016-04-16T08:00:00","48.4","ND","ND","ND","ND","2.0","ND","ND","ND","ND","ND","3.81"],
    [52118,"2016-04-16T09:00:00","37.1","ND","ND","ND","ND","4.4","ND","ND","ND","ND","ND","0.51"],
    [52119,"2016-04-16T10:00:00","34.3","ND","ND","ND","ND","2.2","ND","ND","ND","ND","ND","0"],
    [52120,"2016-04-16T11:00:00","26","ND","ND","ND","ND","2.0","ND","ND","ND","ND","ND","0"],
    [52121,"2016-04-16T12:00:00","18.4","ND","ND","ND","ND","1.6","ND","ND","ND","ND","ND","0"],
    [52122,"2016-04-16T13:00:00","4.9","ND","ND","ND","ND","2.5","ND","ND","ND","ND","ND","0"],
    [52123,"2016-04-16T14:00:00","7.7","ND","ND","ND","ND","1.5","ND","ND","ND","ND","ND","0"],
    [52124,"2016-04-16T15:00:00","19.1","ND","ND","ND","ND","0.8","ND","ND","ND","ND","ND","0"],
    [52125,"2016-04-16T16:00:00","21.3","ND","ND","ND","ND","1.3","ND","ND","ND","ND","ND","0"],
    [52126,"2016-04-16T17:00:00","1.4","ND","ND","ND","ND","0.8","ND","ND","ND","ND","ND","0"],
    [52127,"2016-04-16T18:00:00","ND","ND","ND","ND","ND","1.3","ND","ND","ND","ND","ND","0"],
    [52128,"2016-04-16T19:00:00","ND","ND","ND","ND","ND","2.0","ND","ND","ND","ND","ND","0"],
    [52129,"2016-04-16T20:00:00","17.9","ND","ND","ND","ND","1.5","ND","ND","ND","ND","ND","0"],
    [52130,"2016-04-16T21:00:00","67.3","ND","ND","ND","ND","1.6","ND","ND","ND","ND","ND","0"],
    [52131,"2016-04-16T22:00:00","46.8","ND","ND","ND","ND","2.6","ND","ND","ND","ND","ND","0"],
    [52132,"2016-04-16T23:00:00","111.4","ND","ND","ND","ND","2.3","ND","ND","ND","ND","ND","0"],
    [52133,"2016-04-17T00:00:00","106.3","ND","ND","ND","ND","3.5","ND","ND","ND","ND","ND","0"],
    [52134,"2016-04-17T01:00:00","72.4","ND","ND","ND","ND","6.3","ND","ND","ND","ND","ND","0"],
    [52135,"2016-04-17T02:00:00","80","ND","ND","ND","ND","6.6","ND","ND","ND","ND","ND","0"],
    [52136,"2016-04-17T03:00:00","52.9","ND","ND","ND","ND","4.3","ND","ND","ND","ND","ND","0"],
    [52137,"2016-04-17T04:00:00","59.1","ND","ND","ND","ND","2.3","ND","ND","ND","ND","ND","0"],
    [52138,"2016-04-17T05:00:00","51.1","ND","ND","ND","ND","3.3","ND","ND","ND","ND","ND","0"],
    [52139,"2016-04-17T06:00:00","37.7","ND","ND","ND","ND","3.8","ND","ND","ND","ND","ND","0"],
    [52140,"2016-04-17T07:00:00","39.7","ND","ND","ND","ND","2.8","ND","ND","ND","ND","ND","0"],
    [52141,"2016-04-17T08:00:00","49.5","ND","ND","ND","ND","7.7","ND","ND","ND","ND","ND","0"],
    [52142,"2016-04-17T09:00:00","45.4","ND","ND","ND","ND","1.3","ND","ND","ND","ND","ND","0"],
    [52143,"2016-04-17T10:00:00","17.2","ND","ND","ND","ND","2.9","ND","ND","ND","ND","ND","0"],
    [52144,"2016-04-17T11:00:00","21.4","ND","ND","ND","ND","1.5","ND","ND","ND","ND","ND","0"],
    [52145,"2016-04-17T12:00:00","27.4","ND","ND","ND","ND","1.7","ND","ND","ND","ND","ND","0"],
    [52146,"2016-04-17T13:00:00","29.2","ND","ND","ND","ND","2.4","ND","ND","ND","ND","ND","0"],
    [52147,"2016-04-17T14:00:00","37.1","ND","ND","ND","ND","1.5","ND","ND","ND","ND","ND","0"],
    [52148,"2016-04-17T15:00:00","27.5","ND","ND","ND","ND","1.1","ND","ND","ND","ND","ND","0"],
    [52149,"2016-04-17T16:00:00","21.6","ND","ND","ND","ND","2.3","ND","ND","ND","ND","ND","0"],
    [52150,"2016-04-17T17:00:00","17.9","ND","ND","ND","ND","1.9","ND","ND","ND","ND","ND","0"],
    [52151,"2016-04-17T18:00:00","16.9","ND","ND","ND","ND","2.0","ND","ND","ND","ND","ND","0"],
    [52152,"2016-04-17T19:00:00","14.1","ND","ND","ND","ND","1.7","ND","ND","ND","ND","ND","0"],
    [52153,"2016-04-17T20:00:00","16.5","ND","ND","ND","ND","1.8","ND","ND","ND","ND","ND","0"],
    [52154,"2016-04-17T21:00:00","29.9","ND","ND","ND","ND","0.9","ND","ND","ND","ND","ND","0"],
    [52155,"2016-04-17T22:00:00","44","ND","ND","ND","ND","3.3","ND","ND","ND","ND","ND","0"],
    [52156,"2016-04-17T23:00:00","45.8","ND","ND","ND","ND","3.2","ND","ND","ND","ND","ND","0"],
    [52157,"2016-04-18T00:00:00","41.4","ND","ND","ND","ND","2.0","ND","ND","ND","ND","ND","0"],
    [52158,"2016-04-18T01:00:00","16.5","ND","ND","ND","ND","2.8","ND","ND","ND","ND","ND","0"],
    [52159,"2016-04-18T02:00:00","21.1","ND","ND","ND","ND","2.3","ND","ND","ND","ND","ND","0"],
    [52160,"2016-04-18T03:00:00","26.6","ND","ND","ND","ND","3.4","ND","ND","ND","ND","ND","0"],
    [52161,"2016-04-18T04:00:00","23.1","ND","ND","ND","ND","3.1","ND","ND","ND","ND","ND","14.73"],
    [52162,"2016-04-18T05:00:00","18.1","ND","ND","ND","ND","2.9","ND","ND","ND","ND","ND","0"],
    [52163,"2016-04-18T06:00:00","21.6","ND","ND","ND","ND","2.9","ND","ND","ND","ND","ND","0.25"],
    [52164,"2016-04-18T07:00:00","44.8","ND","ND","ND","ND","1.9","ND","ND","ND","ND","ND","0"],
    [52165,"2016-04-18T08:00:00","52.7","ND","ND","ND","ND","2.7","ND","ND","ND","ND","ND","0"],
    [52166,"2016-04-18T09:00:00","76.8","ND","ND","ND","ND","2.6","ND","ND","ND","ND","ND","0"],
    [52167,"2016-04-18T10:00:00","65.4","ND","ND","ND","ND","1.9","ND","ND","ND","ND","ND","0"],
    [52168,"2016-04-18T11:00:00","30.7","ND","ND","ND","ND","2.3","ND","ND","ND","ND","ND","0"],
    [52169,"2016-04-18T12:00:00","26.8","ND","ND","ND","ND","1.6","ND","ND","ND","ND","ND","0"],
    [52170,"2016-04-18T13:00:00","31.7","ND","ND","ND","ND","1.7","ND","ND","ND","ND","ND","0"],
    [52171,"2016-04-18T14:00:00","29.2","ND","ND","ND","ND","1.4","ND","ND","ND","ND","ND","0"],
    [52172,"2016-04-18T15:00:00","23.6","ND","ND","ND","ND","2.4","ND","ND","ND","ND","ND","0"],
    [52173,"2016-04-18T16:00:00","15.6","ND","ND","ND","ND","1.5","ND","ND","ND","ND","ND","0"],
    [52174,"2016-04-18T17:00:00","13.6","ND","ND","ND","ND","1.2","ND","ND","ND","ND","ND","0"],
    [52175,"2016-04-18T18:00:00","13.6","ND","ND","ND","ND","1.4","ND","ND","ND","ND","ND","0"],
    [52176,"2016-04-18T19:00:00","2.8","ND","ND","ND","ND","1.0","ND","ND","ND","ND","ND","0"],
    [52177,"2016-04-18T20:00:00","12","ND","ND","ND","ND","1.4","ND","ND","ND","ND","ND","0"],
    [52178,"2016-04-18T21:00:00","32.2","ND","ND","ND","ND","2.0","ND","ND","ND","ND","ND","0"],
    [52179,"2016-04-18T22:00:00","54.8","ND","ND","ND","ND","2.6","ND","ND","ND","ND","ND","0"],
    [52180,"2016-04-18T23:00:00","50.5","ND","ND","ND","ND","3.1","ND","ND","ND","ND","ND","0"],
    [52181,"2016-04-19T00:00:00","40.9","ND","ND","ND","ND","3.6","ND","ND","ND","ND","ND","0"],
    [52182,"2016-04-19T01:00:00","40.8","ND","ND","ND","ND","3.3","ND","ND","ND","ND","ND","0"],
    [52183,"2016-04-19T02:00:00","82.3","ND","ND","ND","ND","3.0","ND","ND","ND","ND","ND","0"],
    [52184,"2016-04-19T03:00:00","67.4","ND","ND","ND","ND","6.0","ND","ND","ND","ND","ND","0"],
    [52185,"2016-04-19T04:00:00","64","ND","ND","ND","ND","5.8","ND","ND","ND","ND","ND","0"],
    [52186,"2016-04-19T05:00:00","66.7","ND","ND","ND","ND","6.8","ND","ND","ND","ND","ND","0"],
    [52187,"2016-04-19T06:00:00","61.8","ND","ND","ND","ND","5.4","ND","ND","ND","ND","ND","0"],
    [52188,"2016-04-19T07:00:00","63.9","ND","ND","ND","ND","3.9","ND","ND","ND","ND","ND","0"],
    [52189,"2016-04-19T08:00:00","102","ND","ND","ND","ND","4.8","ND","ND","ND","ND","ND","0"],
    [52190,"2016-04-19T09:00:00","89.6","ND","ND","ND","ND","3.3","ND","ND","ND","ND","ND","0"],
    [52191,"2016-04-19T10:00:00","59.7","ND","ND","ND","ND","2.9","ND","ND","ND","ND","ND","0"],
    [52192,"2016-04-19T11:00:00","44.1","ND","ND","ND","ND","1.6","ND","ND","ND","ND","ND","0"],
    [52193,"2016-04-19T12:00:00","67.4","ND","ND","ND","ND","3.1","ND","ND","ND","ND","ND","0"],
    [52194,"2016-04-19T13:00:00","79.9","ND","ND","ND","ND","2.6","ND","ND","ND","ND","ND","0"],
    [52195,"2016-04-19T14:00:00","64.1","ND","ND","ND","ND","2.4","ND","ND","ND","ND","ND","0"],
    [52196,"2016-04-19T15:00:00","36.2","ND","ND","ND","ND","3.3","ND","ND","ND","ND","ND","0"],
    [52197,"2016-04-19T16:00:00","21.1","ND","ND","ND","ND","2.7","ND","ND","ND","ND","ND","0"],
    [52198,"2016-04-19T17:00:00","24","ND","ND","ND","ND","3.0","ND","ND","ND","ND","ND","0"],
    [52199,"2016-04-19T18:00:00","24.4","ND","ND","ND","ND","2.8","ND","ND","ND","ND","ND","0"],
    [52200,"2016-04-19T19:00:00","35.2","ND","ND","ND","ND","2.6","ND","ND","ND","ND","ND","0"],
    [52201,"2016-04-19T20:00:00","31.6","ND","ND","ND","ND","2.4","ND","ND","ND","ND","ND","0"],
    [52202,"2016-04-19T21:00:00","32.1","ND","ND","ND","ND","4.2","ND","ND","ND","ND","ND","0"],
    [52203,"2016-04-19T22:00:00","45.5","ND","ND","ND","ND","4.3","ND","ND","ND","ND","ND","0"],
    [52204,"2016-04-19T23:00:00","39.5","ND","ND","ND","ND","4.0","ND","ND","ND","ND","ND","0"],
    [52205,"2016-04-20T00:00:00","33.8","ND","ND","ND","ND","4.4","ND","ND","ND","ND","ND","0"],
    [52206,"2016-04-20T01:00:00","23.3","ND","ND","ND","ND","3.9","ND","ND","ND","ND","ND","0"],
    [52207,"2016-04-20T02:00:00","36.7","ND","ND","ND","ND","2.8","ND","ND","ND","ND","ND","0"],
    [52208,"2016-04-20T03:00:00","40.2","ND","ND","ND","ND","5.4","ND","ND","ND","ND","ND","0"],
    [52209,"2016-04-20T04:00:00","55.4","ND","ND","ND","ND","4.6","ND","ND","ND","ND","ND","0"],
    [52210,"2016-04-20T05:00:00","59","ND","ND","ND","ND","3.7","ND","ND","ND","ND","ND","0"],
    [52211,"2016-04-20T06:00:00","58","ND","ND","ND","ND","5.2","ND","ND","ND","ND","ND","0"],
    [52212,"2016-04-20T07:00:00","86.8","ND","ND","ND","ND","5.5","ND","ND","ND","ND","ND","0"],
    [52213,"2016-04-20T08:00:00","91","ND","ND","ND","ND","5.6","ND","ND","ND","ND","ND","0"],
    [52214,"2016-04-20T09:00:00","107.5","ND","ND","ND","ND","5.8","ND","ND","ND","ND","ND","0"],
    [52215,"2016-04-20T10:00:00","105.3","ND","ND","ND","ND","5.8","ND","ND","ND","ND","ND","0"],
    [52216,"2016-04-20T11:00:00","73.6","ND","ND","ND","ND","4.8","ND","ND","ND","ND","ND","0"],
    [52217,"2016-04-20T12:00:00","54.9","ND","ND","ND","ND","2.6","ND","ND","ND","ND","ND","0"],
    [52218,"2016-04-20T13:00:00","55.1","ND","ND","ND","ND","3.1","ND","ND","ND","ND","ND","0"],
    [52219,"2016-04-20T14:00:00","55.2","ND","ND","ND","ND","2.6","ND","ND","ND","ND","ND","0"],
    [52220,"2016-04-20T15:00:00","42.1","ND","ND","ND","ND","3.1","ND","ND","ND","ND","ND","0"],
    [52221,"2016-04-20T16:00:00","34.4","ND","ND","ND","ND","3.1","ND","ND","ND","ND","ND","0"],
    [52222,"2016-04-20T17:00:00","26.9","ND","ND","ND","ND","1.9","ND","ND","ND","ND","ND","0"],
    [52223,"2016-04-20T18:00:00","17.7","ND","ND","ND","ND","2.2","ND","ND","ND","ND","ND","0"],
    [52224,"2016-04-20T19:00:00","16.8","ND","ND","ND","ND","2.3","ND","ND","ND","ND","ND","0"],
    [52225,"2016-04-20T20:00:00","32.8","ND","ND","ND","ND","3.2","ND","ND","ND","ND","ND","0"],
    [52226,"2016-04-20T21:00:00","21.2","ND","ND","ND","ND","2.5","ND","ND","ND","ND","ND","0"],
    [52227,"2016-04-20T22:00:00","36.5","ND","ND","ND","ND","4.2","ND","ND","ND","ND","ND","0"],
    [52228,"2016-04-20T23:00:00","47","ND","ND","ND","ND","4.4","ND","ND","ND","ND","ND","0"],
    [52229,"2016-04-21T00:00:00","60.2","ND","ND","ND","ND","4.7","ND","ND","ND","ND","ND","0"],
    [52230,"2016-04-21T01:00:00","49.9","ND","ND","ND","ND","3.8","ND","ND","ND","ND","ND","0"],
    [52231,"2016-04-21T02:00:00","51.3","ND","ND","ND","ND","4.4","ND","ND","ND","ND","ND","0"],
    [52232,"2016-04-21T03:00:00","34.4","ND","ND","ND","ND","2.8","ND","ND","ND","ND","ND","0"],
    [52233,"2016-04-21T04:00:00","25","ND","ND","ND","ND","2.6","ND","ND","ND","ND","ND","0"],
    [52234,"2016-04-21T05:00:00","33.9","ND","ND","ND","ND","3.8","ND","ND","ND","ND","ND","0"],
    [52235,"2016-04-21T06:00:00","45","ND","ND","ND","ND","4.5","ND","ND","ND","ND","ND","0"],
    [52236,"2016-04-21T07:00:00","70.2","ND","ND","ND","ND","3.2","ND","ND","ND","ND","ND","0"],
    [52237,"2016-04-21T08:00:00","81.3","ND","ND","ND","ND","7.7","ND","ND","ND","ND","ND","0.51"],
    [52238,"2016-04-21T09:00:00","68.1","ND","ND","ND","ND","7.9","ND","ND","ND","ND","ND","0.25"],
    [52239,"2016-04-21T10:00:00","59.4","ND","ND","ND","ND","4.6","ND","ND","ND","ND","ND","0"],
    [52240,"2016-04-21T11:00:00","33.9","ND","ND","ND","ND","2.9","ND","ND","ND","ND","ND","0"],
    [52241,"2016-04-21T12:00:00","28.2","ND","ND","ND","ND","2.6","ND","ND","ND","ND","ND","0"],
    [52242,"2016-04-21T13:00:00","29.9","ND","ND","ND","ND","3.4","ND","ND","ND","ND","ND","0"],
    [52243,"2016-04-21T14:00:00","29.9","ND","ND","ND","ND","2.5","ND","ND","ND","ND","ND","0"],
    [52244,"2016-04-21T15:00:00","32.9","ND","ND","ND","ND","2.3","ND","ND","ND","ND","ND","0"],
    [52245,"2016-04-21T16:00:00","36.2","ND","ND","ND","ND","1.5","ND","ND","ND","ND","ND","0"],
    [52246,"2016-04-21T17:00:00","42.4","ND","ND","ND","ND","1.8","ND","ND","ND","ND","ND","0"],
    [52247,"2016-04-21T18:00:00","37.6","ND","ND","ND","ND","1.7","ND","ND","ND","ND","ND","0"],
    [52248,"2016-04-21T19:00:00","24.8","ND","ND","ND","ND","2.0","ND","ND","ND","ND","ND","0"],
    [52249,"2016-04-21T20:00:00","28.1","ND","ND","ND","ND","3.4","ND","ND","ND","ND","ND","0"],
    [52250,"2016-04-21T21:00:00","46","ND","ND","ND","ND","2.9","ND","ND","ND","ND","ND","0"],
    [52251,"2016-04-21T22:00:00","40.5","ND","ND","ND","ND","3.9","ND","ND","ND","ND","ND","0"],
    [52252,"2016-04-21T23:00:00","35.6","ND","ND","ND","ND","3.5","ND","ND","ND","ND","ND","0"],
    [52253,"2016-04-22T00:00:00","24.6","ND","ND","ND","ND","4.8","ND","ND","ND","ND","ND","0"],
    [52254,"2016-04-22T01:00:00","38.2","ND","ND","ND","ND","4.3","ND","ND","ND","ND","ND","0"],
    [52255,"2016-04-22T02:00:00","55.6","ND","ND","ND","ND","5.0","ND","ND","ND","ND","ND","0"],
    [52256,"2016-04-22T03:00:00","36.6","ND","ND","ND","ND","4.3","ND","ND","ND","ND","ND","0"],
    [52257,"2016-04-22T04:00:00","31.4","ND","ND","ND","ND","3.8","ND","ND","ND","ND","ND","0"],
    [52258,"2016-04-22T05:00:00","34.6","ND","ND","ND","ND","4.0","ND","ND","ND","ND","ND","0"],
    [52259,"2016-04-22T06:00:00","35.2","ND","ND","ND","ND","4.2","ND","ND","ND","ND","ND","0"],
    [52260,"2016-04-22T07:00:00","54.7","ND","ND","ND","ND","3.7","ND","ND","ND","ND","ND","0"],
    [52261,"2016-04-22T08:00:00","62.4","ND","ND","ND","ND","4.4","ND","ND","ND","ND","ND","0"],
    [52262,"2016-04-22T09:00:00","69.5","ND","ND","ND","ND","3.8","ND","ND","ND","ND","ND","0"],
    [52263,"2016-04-22T10:00:00","57.6","ND","ND","ND","ND","3.4","ND","ND","ND","ND","ND","0"],
    [52264,"2016-04-22T11:00:00","34.2","ND","ND","ND","ND","3.7","ND","ND","ND","ND","ND","0"],
    [52265,"2016-04-22T12:00:00","32.3","ND","ND","ND","ND","3.4","ND","ND","ND","ND","ND","0"],
    [52266,"2016-04-22T13:00:00","31.7","ND","ND","ND","ND","2.4","ND","ND","ND","ND","ND","0"],
    [52267,"2016-04-22T14:00:00","46.2","ND","ND","ND","ND","3.4","ND","ND","ND","ND","ND","0"],
    [52268,"2016-04-22T15:00:00","50.8","ND","ND","ND","ND","2.4","ND","ND","ND","ND","ND","0"],
    [52269,"2016-04-22T16:00:00","43","ND","ND","ND","ND","2.4","ND","ND","ND","ND","ND","10.16"],
    [52270,"2016-04-22T17:00:00","23.8","ND","ND","ND","ND","3.4","ND","ND","ND","ND","ND","0"],
    [52271,"2016-04-22T18:00:00","41.7","ND","ND","ND","ND","4.0","ND","ND","ND","ND","ND","0"],
    [52272,"2016-04-22T19:00:00","28","ND","ND","ND","ND","3.3","ND","ND","ND","ND","ND","0"],
    [52273,"2016-04-22T20:00:00","37.3","ND","ND","ND","ND","1.9","ND","ND","ND","ND","ND","0"],
    [52274,"2016-04-22T21:00:00","35.6","ND","ND","ND","ND","2.0","ND","ND","ND","ND","ND","0"],
    [52275,"2016-04-22T22:00:00","46","ND","ND","ND","ND","2.3","ND","ND","ND","ND","ND","0"],
    [52276,"2016-04-22T23:00:00","53.6","ND","ND","ND","ND","3.1","ND","ND","ND","ND","ND","0"],
    [52277,"2016-04-23T00:00:00","39.7","ND","ND","ND","ND","3.1","ND","ND","ND","ND","ND","0"],
    [52278,"2016-04-23T01:00:00","24.8","ND","ND","ND","ND","3.5","ND","ND","ND","ND","ND","0"],
    [52279,"2016-04-23T02:00:00","36.2","ND","ND","ND","ND","3.9","ND","ND","ND","ND","ND","0"],
    [52280,"2016-04-23T03:00:00","32.6","ND","ND","ND","ND","2.6","ND","ND","ND","ND","ND","0"],
    [52281,"2016-04-23T04:00:00","43","ND","ND","ND","ND","4.7","ND","ND","ND","ND","ND","0"],
    [52282,"2016-04-23T05:00:00","58.8","ND","ND","ND","ND","6.5","ND","ND","ND","ND","ND","0.25"],
    [52283,"2016-04-23T06:00:00","55.9","ND","ND","ND","ND","4.9","ND","ND","ND","ND","ND","0"],
    [52284,"2016-04-23T07:00:00","58.6","ND","ND","ND","ND","5.4","ND","ND","ND","ND","ND","0"],
    [52285,"2016-04-23T08:00:00","67.1","ND","ND","ND","ND","4.5","ND","ND","ND","ND","ND","0"],
    [52286,"2016-04-23T09:00:00","66.1","ND","ND","ND","ND","3.5","ND","ND","ND","ND","ND","0"],
    [52287,"2016-04-23T10:00:00","50.5","ND","ND","ND","ND","2.6","ND","ND","ND","ND","ND","0"],
    [52288,"2016-04-23T11:00:00","16.7","ND","ND","ND","ND","1.5","ND","ND","ND","ND","ND","0"],
    [52289,"2016-04-23T12:00:00","22.5","ND","ND","ND","ND","2.0","ND","ND","ND","ND","ND","0"],
    [52290,"2016-04-23T13:00:00","26","ND","ND","ND","ND","3.2","ND","ND","ND","ND","ND","0"],
    [52291,"2016-04-23T14:00:00","28.4","ND","ND","ND","ND","2.4","ND","ND","ND","ND","ND","0"],
    [52292,"2016-04-23T15:00:00","39.1","ND","ND","ND","ND","2.7","ND","ND","ND","ND","ND","0"],
    [52293,"2016-04-23T16:00:00","21.6","ND","ND","ND","ND","2.4","ND","ND","ND","ND","ND","0"],
    [52294,"2016-04-23T17:00:00","12.8","ND","ND","ND","ND","3.1","ND","ND","ND","ND","ND","0"],
    [52295,"2016-04-23T18:00:00","10.2","ND","ND","ND","ND","3.3","ND","ND","ND","ND","ND","0"],
    [52296,"2016-04-23T19:00:00","24.5","ND","ND","ND","ND","1.4","ND","ND","ND","ND","ND","0"],
    [52297,"2016-04-23T20:00:00","22.3","ND","ND","ND","ND","2.3","ND","ND","ND","ND","ND","0"],
    [52298,"2016-04-23T21:00:00","9.9","ND","ND","ND","ND","3.7","ND","ND","ND","ND","ND","0"],
    [52299,"2016-04-23T22:00:00","28.2","ND","ND","ND","ND","3.3","ND","ND","ND","ND","ND","0"],
    [52300,"2016-04-23T23:00:00","51.5","ND","ND","ND","ND","3.8","ND","ND","ND","ND","ND","0"],
    [52301,"2016-04-24T00:00:00","69.5","ND","ND","ND","ND","3.2","ND","ND","ND","ND","ND","0"],
    [52302,"2016-04-24T01:00:00","87.4","ND","ND","ND","ND","3.3","ND","ND","ND","ND","ND","0"],
    [52303,"2016-04-24T02:00:00","49.1","ND","ND","ND","ND","3.6","ND","ND","ND","ND","ND","0"],
    [52304,"2016-04-24T03:00:00","29.8","ND","ND","ND","ND","4.2","ND","ND","ND","ND","ND","0"],
    [52305,"2016-04-24T04:00:00","25.5","ND","ND","ND","ND","3.3","ND","ND","ND","ND","ND","0"],
    [52306,"2016-04-24T05:00:00","28.8","ND","ND","ND","ND","5.6","ND","ND","ND","ND","ND","0"],
    [52307,"2016-04-24T06:00:00","21.5","ND","ND","ND","ND","3.5","ND","ND","ND","ND","ND","0"],
    [52308,"2016-04-24T07:00:00","27.1","ND","ND","ND","ND","4.2","ND","ND","ND","ND","ND","0"],
    [52309,"2016-04-24T08:00:00","28.7","ND","ND","ND","ND","3.5","ND","ND","ND","ND","ND","0"],
    [52310,"2016-04-24T09:00:00","32.4","ND","ND","ND","ND","3.2","ND","ND","ND","ND","ND","0"],
    [52311,"2016-04-24T10:00:00","35.8","ND","ND","ND","ND","4.2","ND","ND","ND","ND","ND","0"],
    [52312,"2016-04-24T11:00:00","37.1","ND","ND","ND","ND","2.9","ND","ND","ND","ND","ND","0"],
    [52313,"2016-04-24T12:00:00","24.2","ND","ND","ND","ND","3.3","ND","ND","ND","ND","ND","0"],
    [52314,"2016-04-24T13:00:00","18.9","ND","ND","ND","ND","3.5","ND","ND","ND","ND","ND","0"],
    [52315,"2016-04-24T14:00:00","26.8","ND","ND","ND","ND","3.9","ND","ND","ND","ND","ND","0"],
    [52316,"2016-04-24T15:00:00","15.6","ND","ND","ND","ND","2.3","ND","ND","ND","ND","ND","0"],
    [52317,"2016-04-24T16:00:00","14.6","ND","ND","ND","ND","1.9","ND","ND","ND","ND","ND","0"],
    [52318,"2016-04-24T17:00:00","16.5","ND","ND","ND","ND","1.9","ND","ND","ND","ND","ND","0"],
    [52319,"2016-04-24T18:00:00","26.1","ND","ND","ND","ND","1.7","ND","ND","ND","ND","ND","6.6"],
    [52320,"2016-04-24T19:00:00","12.1","ND","ND","ND","ND","2.4","ND","ND","ND","ND","ND","4.06"],
    [52321,"2016-04-24T20:00:00","15.5","ND","ND","ND","ND","1.4","ND","ND","ND","ND","ND","3.05"],
    [52322,"2016-04-24T21:00:00","10.5","ND","ND","ND","ND","3.5","ND","ND","ND","ND","ND","0.25"],
    [52323,"2016-04-24T22:00:00","11.5","ND","ND","ND","ND","2.4","ND","ND","ND","ND","ND","0"],
    [52324,"2016-04-24T23:00:00","16.1","ND","ND","ND","ND","3.1","ND","ND","ND","ND","ND","0"],
    [52325,"2016-04-25T00:00:00","11.7","ND","ND","ND","ND","2.6","ND","ND","ND","ND","ND","0"],
    [52326,"2016-04-25T01:00:00","24.1","ND","ND","ND","ND","3.8","ND","ND","ND","ND","ND","0"],
    [52327,"2016-04-25T02:00:00","15.9","ND","ND","ND","ND","5.5","ND","ND","ND","ND","ND","0"],
    [52328,"2016-04-25T03:00:00","22.2","ND","ND","ND","ND","5.5","ND","ND","ND","ND","ND","0"],
    [52329,"2016-04-25T04:00:00","20.5","ND","ND","ND","ND","3.9","ND","ND","ND","ND","ND","0"],
    [52330,"2016-04-25T05:00:00","20.2","ND","ND","ND","ND","2.2","ND","ND","ND","ND","ND","0"],
    [52331,"2016-04-25T06:00:00","22.8","ND","ND","ND","ND","3.2","ND","ND","ND","ND","ND","0"],
    [52332,"2016-04-25T07:00:00","21.5","ND","ND","ND","ND","2.8","ND","ND","ND","ND","ND","0"],
    [52333,"2016-04-25T08:00:00","27","ND","ND","ND","ND","2.1","ND","ND","ND","ND","ND","0"],
    [52334,"2016-04-25T09:00:00","31.2","ND","ND","ND","ND","3.6","ND","ND","ND","ND","ND","0"],
    [52335,"2016-04-25T10:00:00","37.5","ND","ND","ND","ND","2.3","ND","ND","ND","ND","ND","0"],
    [52336,"2016-04-25T11:00:00","59.9","ND","ND","ND","ND","1.9","ND","ND","ND","ND","ND","0"],
    [52337,"2016-04-25T12:00:00","52.2","ND","ND","ND","ND","1.9","ND","ND","ND","ND","ND","0"],
    [52338,"2016-04-25T13:00:00","31.7","ND","ND","ND","ND","2.7","ND","ND","ND","ND","ND","0"],
    [52339,"2016-04-25T14:00:00","37.2","ND","ND","ND","ND","2.8","ND","ND","ND","ND","ND","0"],
    [52340,"2016-04-25T15:00:00","31.9","ND","ND","ND","ND","2.4","ND","ND","ND","ND","ND","0"],
    [52341,"2016-04-25T16:00:00","30.4","ND","ND","ND","ND","3.2","ND","ND","ND","ND","ND","0"],
    [52342,"2016-04-25T17:00:00","32.1","ND","ND","ND","ND","3.5","ND","ND","ND","ND","ND","0"],
    [52343,"2016-04-25T18:00:00","49.4","ND","ND","ND","ND","4.0","ND","ND","ND","ND","ND","0"],
    [52344,"2016-04-25T19:00:00","42.5","ND","ND","ND","ND","2.0","ND","ND","ND","ND","ND","0"],
    [52345,"2016-04-25T20:00:00","33","ND","ND","ND","ND","3.4","ND","ND","ND","ND","ND","0"],
    [52346,"2016-04-25T21:00:00","55.8","ND","ND","ND","ND","2.9","ND","ND","ND","ND","ND","0"],
    [52347,"2016-04-25T22:00:00","50.6","ND","ND","ND","ND","3.4","ND","ND","ND","ND","ND","0.51"],
    [52348,"2016-04-25T23:00:00","39.1","ND","ND","ND","ND","2.8","ND","ND","ND","ND","ND","0"],
    [52349,"2016-04-26T00:00:00","34.3","ND","ND","ND","ND","2.8","ND","ND","ND","ND","ND","0.51"],
    [52350,"2016-04-26T01:00:00","33.2","ND","ND","ND","ND","3.3","ND","ND","ND","ND","ND","1.27"],
    [52351,"2016-04-26T02:00:00","19.5","ND","ND","ND","ND","3.6","ND","ND","ND","ND","ND","0.51"],
    [52352,"2016-04-26T03:00:00","11.3","ND","ND","ND","ND","3.9","ND","ND","ND","ND","ND","1.78"],
    [52353,"2016-04-26T04:00:00","12.5","ND","ND","ND","ND","4.1","ND","ND","ND","ND","ND","4.32"],
    [52354,"2016-04-26T05:00:00","14.5","ND","ND","ND","ND","2.2","ND","ND","ND","ND","ND","2.03"],
    [52355,"2016-04-26T06:00:00","12.1","ND","ND","ND","ND","2.3","ND","ND","ND","ND","ND","3.56"],
    [52356,"2016-04-26T07:00:00","ND","ND","ND","ND","ND","1.8","ND","ND","ND","ND","ND","7.37"],
    [52357,"2016-04-26T08:00:00","ND","ND","ND","ND","ND","2.6","ND","ND","ND","ND","ND","6.1"],
    [52358,"2016-04-26T09:00:00","32.7","ND","ND","ND","ND","1.4","ND","ND","ND","ND","ND","0.51"],
    [52359,"2016-04-26T10:00:00","120.9","ND","ND","ND","ND","1.6","ND","ND","ND","ND","ND","0"],
    [52360,"2016-04-26T11:00:00","83.6","ND","ND","ND","ND","1.4","ND","ND","ND","ND","ND","0"],
    [52361,"2016-04-26T12:00:00","18.8","ND","ND","ND","ND","1.6","ND","ND","ND","ND","ND","0"],
    [52362,"2016-04-26T13:00:00","ND","ND","ND","ND","ND","1.5","ND","ND","ND","ND","ND","0"],
    [52363,"2016-04-26T14:00:00","ND","ND","ND","ND","ND","1.6","ND","ND","ND","ND","ND","0"],
    [52364,"2016-04-26T15:00:00","ND","ND","ND","ND","ND","1.2","ND","ND","ND","ND","ND","0"],
    [52365,"2016-04-26T16:00:00","ND","ND","ND","ND","ND","1.3","ND","ND","ND","ND","ND","0"],
    [52366,"2016-04-26T17:00:00","ND","ND","ND","ND","ND","2.0","ND","ND","ND","ND","ND","0"],
    [52367,"2016-04-26T18:00:00","ND","ND","ND","ND","ND","2.3","ND","ND","ND","ND","ND","0"],
    [52368,"2016-04-26T19:00:00","ND","ND","ND","ND","ND","2.7","ND","ND","ND","ND","ND","0"],
    [52369,"2016-04-26T20:00:00","40","ND","ND","ND","ND","2.2","ND","ND","ND","ND","ND","0"],
    [52370,"2016-04-26T21:00:00","68.3","ND","ND","ND","ND","1.2","ND","ND","ND","ND","ND","0"],
    [52371,"2016-04-26T22:00:00","14.7","ND","ND","ND","ND","1.4","ND","ND","ND","ND","ND","0"],
    [52372,"2016-04-26T23:00:00","89.4","ND","ND","ND","ND","1.0","ND","ND","ND","ND","ND","0"],
    [52373,"2016-04-27T00:00:00","100.2","ND","ND","ND","ND","2.7","ND","ND","ND","ND","ND","0"],
    [52374,"2016-04-27T01:00:00","85.1","ND","ND","ND","ND","6.6","ND","ND","ND","ND","ND","0"],
    [52375,"2016-04-27T02:00:00","68.4","ND","ND","ND","ND","5.7","ND","ND","ND","ND","ND","0"],
    [52376,"2016-04-27T03:00:00","55.9","ND","ND","ND","ND","1.9","ND","ND","ND","ND","ND","0"],
    [52377,"2016-04-27T04:00:00","25.2","ND","ND","ND","ND","1.5","ND","ND","ND","ND","ND","0"],
    [52378,"2016-04-27T05:00:00","45.5","ND","ND","ND","ND","2.7","ND","ND","ND","ND","ND","0"],
    [52379,"2016-04-27T06:00:00","60.2","ND","ND","ND","ND","2.2","ND","ND","ND","ND","ND","0"],
    [52380,"2016-04-27T07:00:00","55.8","ND","ND","ND","ND","1.3","ND","ND","ND","ND","ND","5.59"],
    [52381,"2016-04-27T08:00:00","32.9","ND","ND","ND","ND","1.4","ND","ND","ND","ND","ND","17.27"],
    [52382,"2016-04-27T09:00:00","0.8","ND","ND","ND","ND","2.3","ND","ND","ND","ND","ND","3.3"],
    [52383,"2016-04-27T10:00:00","28.5","ND","ND","ND","ND","2.0","ND","ND","ND","ND","ND","0"],
    [52384,"2016-04-27T11:00:00","51.8","ND","ND","ND","ND","1.8","ND","ND","ND","ND","ND","0"],
    [52385,"2016-04-27T12:00:00","28","ND","ND","ND","ND","1.9","ND","ND","ND","ND","ND","0"],
    [52386,"2016-04-27T13:00:00","ND","ND","ND","ND","ND","1.2","ND","ND","ND","ND","ND","0"],
    [52387,"2016-04-27T14:00:00","13.6","ND","ND","ND","ND","1.3","ND","ND","ND","ND","ND","0"],
    [52388,"2016-04-27T15:00:00","15.9","ND","ND","ND","ND","1.9","ND","ND","ND","ND","ND","0"],
    [52389,"2016-04-27T16:00:00","10.3","ND","ND","ND","ND","1.0","ND","ND","ND","ND","ND","0"],
    [52390,"2016-04-27T17:00:00","3.1","ND","ND","ND","ND","1.4","ND","ND","ND","ND","ND","0"],
    [52391,"2016-04-27T18:00:00","ND","ND","ND","ND","ND","0.9","ND","ND","ND","ND","ND","0"],
    [52392,"2016-04-27T19:00:00","ND","ND","ND","ND","ND","1.3","ND","ND","ND","ND","ND","1.02"],
    [52393,"2016-04-27T20:00:00","79","ND","ND","ND","ND","0.9","ND","ND","ND","ND","ND","1.02"],
    [52394,"2016-04-27T21:00:00","115.8","ND","ND","ND","ND","1.4","ND","ND","ND","ND","ND","0.76"],
    [52395,"2016-04-27T22:00:00","64.9","ND","ND","ND","ND","1.0","ND","ND","ND","ND","ND","0.51"],
    [52396,"2016-04-27T23:00:00","40.1","ND","ND","ND","ND","1.1","ND","ND","ND","ND","ND","0.25"],
    [52397,"2016-04-28T00:00:00","30.4","ND","ND","ND","ND","0.8","ND","ND","ND","ND","ND","0"],
    [52398,"2016-04-28T01:00:00","30.4","ND","ND","ND","ND","2.1","ND","ND","ND","ND","ND","0"],
    [52399,"2016-04-28T02:00:00","68.8","ND","ND","ND","ND","1.3","ND","ND","ND","ND","ND","0"],
    [52400,"2016-04-28T03:00:00","53.1","ND","ND","ND","ND","1.3","ND","ND","ND","ND","ND","0.25"],
    [52401,"2016-04-28T04:00:00","39.7","ND","ND","ND","ND","1.5","ND","ND","ND","ND","ND","0"],
    [52402,"2016-04-28T05:00:00","33.3","ND","ND","ND","ND","2.2","ND","ND","ND","ND","ND","0.25"],
    [52403,"2016-04-28T06:00:00","28.6","ND","ND","ND","ND","1.2","ND","ND","ND","ND","ND","0"],
    [52404,"2016-04-28T07:00:00","22.6","ND","ND","ND","ND","1.2","ND","ND","ND","ND","ND","0.51"],
    [52405,"2016-04-28T08:00:00","8.3","ND","ND","ND","ND","0.8","ND","ND","ND","ND","ND","0.25"],
    [52406,"2016-04-28T09:00:00","17.2","ND","ND","ND","ND","1.1","ND","ND","ND","ND","ND","0"],
    [52407,"2016-04-28T10:00:00","19.7","ND","ND","ND","ND","1.0","ND","ND","ND","ND","ND","0"],
    [52408,"2016-04-28T11:00:00","15.9","ND","ND","ND","ND","1.0","ND","ND","ND","ND","ND","0"],
    [52409,"2016-04-28T12:00:00","24.3","ND","ND","ND","ND","1.6","ND","ND","ND","ND","ND","0"],
    [52410,"2016-04-28T13:00:00","19.4","ND","ND","ND","ND","0.9","ND","ND","ND","ND","ND","0"],
    [52411,"2016-04-28T14:00:00","20.1","ND","ND","ND","ND","1.3","ND","ND","ND","ND","ND","0"],
    [52412,"2016-04-28T15:00:00","22.7","ND","ND","ND","ND","1.1","ND","ND","ND","ND","ND","0.76"],
    [52413,"2016-04-28T16:00:00","34.4","ND","ND","ND","ND","3.5","ND","ND","ND","ND","ND","0"],
    [52414,"2016-04-28T17:00:00","23.2","ND","ND","ND","ND","3.6","ND","ND","ND","ND","ND","8.64"],
    [52415,"2016-04-28T18:00:00","31.8","ND","ND","ND","ND","12.1","ND","ND","ND","ND","ND","1.52"],
    [52416,"2016-04-28T19:00:00","36.1","ND","ND","ND","ND","16.1","ND","ND","ND","ND","ND","0.76"],
    [52417,"2016-04-28T20:00:00","23.2","ND","ND","ND","ND","7.9","ND","ND","ND","ND","ND","0"],
    [52418,"2016-04-28T21:00:00","33.6","ND","ND","ND","ND","7.2","ND","ND","ND","ND","ND","0.25"],
    [52419,"2016-04-28T22:00:00","27.6","ND","ND","ND","ND","2.0","ND","ND","ND","ND","ND","0"],
    [52420,"2016-04-28T23:00:00","11.5","ND","ND","ND","ND","1.0","ND","ND","ND","ND","ND","0"],
    [52421,"2016-04-29T00:00:00","5.9","ND","ND","ND","ND","1.4","ND","ND","ND","ND","ND","0.25"],
    [52422,"2016-04-29T01:00:00","11.7","ND","ND","ND","ND","1.5","ND","ND","ND","ND","ND","0.25"],
    [52423,"2016-04-29T02:00:00","43.9","ND","ND","ND","ND","2.8","ND","ND","ND","ND","ND","0"],
    [52424,"2016-04-29T03:00:00","31.5","ND","ND","ND","ND","2.1","ND","ND","ND","ND","ND","0"],
    [52425,"2016-04-29T04:00:00","21.8","ND","ND","ND","ND","1.4","ND","ND","ND","ND","ND","0"],
    [52426,"2016-04-29T05:00:00","19.8","ND","ND","ND","ND","1.4","ND","ND","ND","ND","ND","0"],
    [52427,"2016-04-29T06:00:00","36.1","ND","ND","ND","ND","2.0","ND","ND","ND","ND","ND","0"],
    [52428,"2016-04-29T07:00:00","43.5","ND","ND","ND","ND","1.9","ND","ND","ND","ND","ND","0"],
    [52429,"2016-04-29T08:00:00","59","ND","ND","ND","ND","2.2","ND","ND","ND","ND","ND","0"],
    [52430,"2016-04-29T09:00:00","72.7","ND","ND","ND","ND","2.8","ND","ND","ND","ND","ND","0"],
    [52431,"2016-04-29T10:00:00","61.8","ND","ND","ND","ND","3.4","ND","ND","ND","ND","ND","0"],
    [52432,"2016-04-29T11:00:00","48.3","ND","ND","ND","ND","2.5","ND","ND","ND","ND","ND","0"],
    [52433,"2016-04-29T12:00:00","42.9","ND","ND","ND","ND","1.8","ND","ND","ND","ND","ND","0"],
    [52434,"2016-04-29T13:00:00","52.6","ND","ND","ND","ND","9.8","ND","ND","ND","ND","ND","0"],
    [52435,"2016-04-29T14:00:00","43.7","ND","ND","ND","ND","1.8","ND","ND","ND","ND","ND","0"],
    [52436,"2016-04-29T15:00:00","36.2","ND","ND","ND","ND","2.1","ND","ND","ND","ND","ND","0"],
    [52437,"2016-04-29T16:00:00","29.1","ND","ND","ND","ND","1.5","ND","ND","ND","ND","ND","0"],
    [52438,"2016-04-29T17:00:00","17","ND","ND","ND","ND","0.9","ND","ND","ND","ND","ND","0"],
    [52439,"2016-04-29T18:00:00","16.6","ND","ND","ND","ND","1.5","ND","ND","ND","ND","ND","0"],
    [52440,"2016-04-29T19:00:00","32.8","ND","ND","ND","ND","1.1","ND","ND","ND","ND","ND","0"],
    [52441,"2016-04-29T20:00:00","36.4","ND","ND","ND","ND","2.7","ND","ND","ND","ND","ND","0"],
    [52442,"2016-04-29T21:00:00","39.8","ND","ND","ND","ND","2.8","ND","ND","ND","ND","ND","0"],
    [52443,"2016-04-29T22:00:00","54.5","ND","ND","ND","ND","2.4","ND","ND","ND","ND","ND","0"],
    [52444,"2016-04-29T23:00:00","53.6","ND","ND","ND","ND","2.9","ND","ND","ND","ND","ND","0"],
    [52445,"2016-04-30T00:00:00","58.9","ND","ND","ND","ND","2.8","ND","ND","ND","ND","ND","0"],
    [52446,"2016-04-30T01:00:00","61.3","ND","ND","ND","ND","3.9","ND","ND","ND","ND","ND","0"],
    [52447,"2016-04-30T02:00:00","47.7","ND","ND","ND","ND","3.0","ND","ND","ND","ND","ND","0"],
    [52448,"2016-04-30T03:00:00","44.7","ND","ND","ND","ND","2.4","ND","ND","ND","ND","ND","0"],
    [52449,"2016-04-30T04:00:00","35","ND","ND","ND","ND","1.4","ND","ND","ND","ND","ND","0"],
    [52450,"2016-04-30T05:00:00","29.5","ND","ND","ND","ND","1.8","ND","ND","ND","ND","ND","0"],
    [52451,"2016-04-30T06:00:00","23.9","ND","ND","ND","ND","1.3","ND","ND","ND","ND","ND","0"],
    [52452,"2016-04-30T07:00:00","31.1","ND","ND","ND","ND","2.3","ND","ND","ND","ND","ND","0"],
    [52453,"2016-04-30T08:00:00","55.1","ND","ND","ND","ND","2.6","ND","ND","ND","ND","ND","0"],
    [52454,"2016-04-30T09:00:00","61.4","ND","ND","ND","ND","4.1","ND","ND","ND","ND","ND","0"],
    [52455,"2016-04-30T10:00:00","72.2","ND","ND","ND","ND","4.1","ND","ND","ND","ND","ND","0"],
    [52456,"2016-04-30T11:00:00","45.7","ND","ND","ND","ND","1.5","ND","ND","ND","ND","ND","0"],
    [52457,"2016-04-30T12:00:00","29.2","ND","ND","ND","ND","1.4","ND","ND","ND","ND","ND","0"],
    [52458,"2016-04-30T13:00:00","21.3","ND","ND","ND","ND","1.6","ND","ND","ND","ND","ND","0"],
    [52459,"2016-04-30T14:00:00","25.8","ND","ND","ND","ND","1.1","ND","ND","ND","ND","ND","0"],
    [52460,"2016-04-30T15:00:00","19.1","ND","ND","ND","ND","2.0","ND","ND","ND","ND","ND","0"],
    [52461,"2016-04-30T16:00:00","1.7","ND","ND","ND","ND","1.5","ND","ND","ND","ND","ND","0"],
    [52462,"2016-04-30T17:00:00","11.1","ND","ND","ND","ND","2.0","ND","ND","ND","ND","ND","0.25"],
    [52463,"2016-04-30T18:00:00","25.1","ND","ND","ND","ND","2.3","ND","ND","ND","ND","ND","3.56"],
    [52464,"2016-04-30T19:00:00","10.6","ND","ND","ND","ND","1.0","ND","ND","ND","ND","ND","0.51"],
    [52465,"2016-04-30T20:00:00","1.3","ND","ND","ND","ND","1.8","ND","ND","ND","ND","ND","0.25"],
    [52466,"2016-04-30T21:00:00","11.8","ND","ND","ND","ND","4.2","ND","ND","ND","ND","ND","2.03"],
    [52467,"2016-04-30T22:00:00","8.7","ND","ND","ND","ND","1.4","ND","ND","ND","ND","ND","2.03"],
    [52468,"2016-04-30T23:00:00","8.6","ND","ND","ND","ND","2.5","ND","ND","ND","ND","ND","0"],
    [52469,"2016-05-01T00:00:00","20.4","ND","ND","ND","ND","2.3","ND","ND","ND","ND","ND","0"],
    [52470,"2016-05-01T01:00:00","32.2","ND","ND","ND","ND","4.1","ND","ND","ND","ND","ND","0"],
    [52471,"2016-05-01T02:00:00","28.1","ND","ND","ND","ND","4.4","ND","ND","ND","ND","ND","0"],
    [52472,"2016-05-01T03:00:00","16.5","ND","ND","ND","ND","2.5","ND","ND","ND","ND","ND","0"],
    [52473,"2016-05-01T04:00:00","14.8","ND","ND","ND","ND","3.1","ND","ND","ND","ND","ND","0"],
    [52474,"2016-05-01T05:00:00","25.7","ND","ND","ND","ND","3.3","ND","ND","ND","ND","ND","0"],
    [52475,"2016-05-01T06:00:00","22.4","ND","ND","ND","ND","4.1","ND","ND","ND","ND","ND","0"],
    [52476,"2016-05-01T07:00:00","31.8","ND","ND","ND","ND","6.6","ND","ND","ND","ND","ND","0.25"],
    [52477,"2016-05-01T08:00:00","25.2","ND","ND","ND","ND","6.3","ND","ND","ND","ND","ND","0"],
    [52478,"2016-05-01T09:00:00","28.7","ND","ND","ND","ND","4.2","ND","ND","ND","ND","ND","0"],
    [52479,"2016-05-01T10:00:00","30.2","ND","ND","ND","ND","3.9","ND","ND","ND","ND","ND","0"],
    [52480,"2016-05-01T11:00:00","37.3","ND","ND","ND","ND","3.8","ND","ND","ND","ND","ND","0"],
    [52481,"2016-05-01T12:00:00","43.7","ND","ND","ND","ND","2.5","ND","ND","ND","ND","ND","0"],
    [52482,"2016-05-01T13:00:00","40.1","ND","ND","ND","ND","2.7","ND","ND","ND","ND","ND","0"],
    [52483,"2016-05-01T14:00:00","31.3","ND","ND","ND","ND","1.9","ND","ND","ND","ND","ND","0"],
    [52484,"2016-05-01T15:00:00","22.2","ND","ND","ND","ND","2.1","ND","ND","ND","ND","ND","0"],
    [52485,"2016-05-01T16:00:00","37.8","ND","ND","ND","ND","1.8","ND","ND","ND","ND","ND","0"],
    [52486,"2016-05-01T17:00:00","37.4","ND","ND","ND","ND","1.6","ND","ND","ND","ND","ND","0"],
    [52487,"2016-05-01T18:00:00","40.3","ND","ND","ND","ND","1.6","ND","ND","ND","ND","ND","0"],
    [52488,"2016-05-01T19:00:00","46.9","ND","ND","ND","ND","2.0","ND","ND","ND","ND","ND","0"],
    [52489,"2016-05-01T20:00:00","59","ND","ND","ND","ND","1.7","ND","ND","ND","ND","ND","0"],
    [52490,"2016-05-01T21:00:00","59.4","ND","ND","ND","ND","1.9","ND","ND","ND","ND","ND","0"],
    [52491,"2016-05-01T22:00:00","56.3","ND","ND","ND","ND","1.3","ND","ND","ND","ND","ND","0"],
    [52492,"2016-05-01T23:00:00","51.7","ND","ND","ND","ND","2.8","ND","ND","ND","ND","ND","0"],
    [52493,"2016-05-02T00:00:00","42.1","ND","ND","ND","ND","3.1","ND","ND","ND","ND","ND","0"],
    [52494,"2016-05-02T01:00:00","28.7","ND","ND","ND","ND","2.3","ND","ND","ND","ND","ND","0"],
    [52495,"2016-05-02T02:00:00","23.8","ND","ND","ND","ND","2.2","ND","ND","ND","ND","ND","1.27"],
    [52496,"2016-05-02T03:00:00","26","ND","ND","ND","ND","1.5","ND","ND","ND","ND","ND","1.02"],
    [52497,"2016-05-02T04:00:00","15","ND","ND","ND","ND","1.8","ND","ND","ND","ND","ND","3.3"],
    [52498,"2016-05-02T05:00:00","ND","ND","ND","ND","ND","1.7","ND","ND","ND","ND","ND","1.78"],
    [52499,"2016-05-02T06:00:00","ND","ND","ND","ND","ND","1.3","ND","ND","ND","ND","ND","2.54"],
    [52500,"2016-05-02T07:00:00","ND","ND","ND","ND","ND","1.7","ND","ND","ND","ND","ND","3.56"],
    [52501,"2016-05-02T08:00:00","6.9","ND","ND","ND","ND","1.1","ND","ND","ND","ND","ND","0"],
    [52502,"2016-05-02T09:00:00","16.5","ND","ND","ND","ND","2.0","ND","ND","ND","ND","ND","0"],
    [52503,"2016-05-02T10:00:00","26.6","ND","ND","ND","ND","1.2","ND","ND","ND","ND","ND","0"],
    [52504,"2016-05-02T11:00:00","13.1","ND","ND","ND","ND","1.2","ND","ND","ND","ND","ND","0"],
    [52505,"2016-05-02T12:00:00","17.2","ND","ND","ND","ND","1.0","ND","ND","ND","ND","ND","0"],
    [52506,"2016-05-02T13:00:00","16.4","ND","ND","ND","ND","1.5","ND","ND","ND","ND","ND","0"],
    [52507,"2016-05-02T14:00:00","14.1","ND","ND","ND","ND","1.0","ND","ND","ND","ND","ND","0"],
    [52508,"2016-05-02T15:00:00","20.7","ND","ND","ND","ND","1.7","ND","ND","ND","ND","ND","0"],
    [52509,"2016-05-02T16:00:00","17.8","ND","ND","ND","ND","0.9","ND","ND","ND","ND","ND","0"],
    [52510,"2016-05-02T17:00:00","19.5","ND","ND","ND","ND","1.6","ND","ND","ND","ND","ND","0"],
    [52511,"2016-05-02T18:00:00","31","ND","ND","ND","ND","4.1","ND","ND","ND","ND","ND","0"],
    [52512,"2016-05-02T19:00:00","79.5","ND","ND","ND","ND","ND","ND","ND","ND","ND","ND","0"],
    [52513,"2016-05-02T20:00:00","90.1","ND","ND","ND","ND","ND","ND","ND","ND","ND","ND","0"],
    [52514,"2016-05-02T21:00:00","71.9","ND","ND","ND","ND","ND","ND","ND","ND","ND","ND","0"],
    [52515,"2016-05-02T22:00:00","68.6","ND","ND","ND","ND","ND","ND","ND","ND","ND","ND","0"],
    [52516,"2016-05-02T23:00:00","60.1","ND","ND","ND","ND","ND","ND","ND","ND","ND","ND","0"],
    [52517,"2016-05-03T00:00:00","45.7","ND","ND","ND","ND","ND","ND","ND","ND","ND","ND","0"],
    [52518,"2016-05-03T01:00:00","28.4","ND","ND","ND","ND","ND","ND","ND","ND","ND","ND","0"],
    [52519,"2016-05-03T02:00:00","37.9","ND","ND","ND","ND","ND","ND","ND","ND","ND","ND","0"],
    [52520,"2016-05-03T03:00:00","37.2","ND","ND","ND","ND","ND","ND","ND","ND","ND","ND","0"],
    [52521,"2016-05-03T04:00:00","42.8","ND","ND","ND","ND","ND","ND","ND","ND","ND","ND","0"],
    [52522,"2016-05-03T05:00:00","50.5","ND","ND","ND","ND","ND","ND","ND","ND","ND","ND","0"],
    [52523,"2016-05-03T06:00:00","42.5","ND","ND","ND","ND","ND","ND","ND","ND","ND","ND","0"],
    [52524,"2016-05-03T07:00:00","43","ND","ND","ND","ND","ND","ND","ND","ND","ND","ND","0"],
    [52525,"2016-05-03T08:00:00","44.8","ND","ND","ND","ND","ND","ND","ND","ND","ND","ND","0"],
    [52526,"2016-05-03T09:00:00","42.3","ND","ND","ND","ND","ND","ND","ND","ND","ND","ND","0"],
    [52527,"2016-05-03T10:00:00","50","ND","ND","ND","ND","ND","ND","ND","ND","ND","ND","0"],
    [52528,"2016-05-03T11:00:00","81.4","ND","ND","ND","ND","ND","ND","ND","ND","ND","ND","0"],
    [52529,"2016-05-03T12:00:00","67","ND","ND","ND","ND","ND","ND","ND","ND","ND","ND","0"],
    [52530,"2016-05-03T13:00:00","50.3","ND","ND","ND","ND","ND","ND","ND","ND","ND","ND","0"],
    [52531,"2016-05-03T14:00:00","37.2","ND","ND","ND","ND","ND","ND","ND","ND","ND","ND","0"],
    [52532,"2016-05-03T15:00:00","24.5","ND","ND","ND","ND","ND","ND","ND","ND","ND","ND","0"],
    [52533,"2016-05-03T16:00:00","19.3","ND","ND","ND","ND","ND","ND","ND","ND","ND","ND","0"],
    [52534,"2016-05-03T17:00:00","19.6","ND","ND","ND","ND","ND","ND","ND","ND","ND","ND","0"],
    [52535,"2016-05-03T18:00:00","25.6","ND","ND","ND","ND","ND","ND","ND","ND","ND","ND","0"],
    [52536,"2016-05-03T19:00:00","32.8","ND","ND","ND","ND","ND","ND","ND","ND","ND","ND","0"],
    [52537,"2016-05-03T20:00:00","39.6","ND","ND","ND","ND","ND","ND","ND","ND","ND","ND","0"],
    [52538,"2016-05-03T21:00:00","26","ND","ND","ND","ND","ND","ND","ND","ND","ND","ND","0"],
    [52539,"2016-05-03T22:00:00","21.2","ND","ND","ND","ND","ND","ND","ND","ND","ND","ND","0"],
    [52540,"2016-05-03T23:00:00","21.2","ND","ND","ND","ND","ND","ND","ND","ND","ND","ND","0"],
    [52541,"2016-05-04T00:00:00","18.5","ND","ND","ND","ND","ND","ND","ND","ND","ND","ND","0"],
    [52542,"2016-05-04T01:00:00","41.3","ND","ND","ND","ND","ND","ND","ND","ND","ND","ND","0"],
    [52543,"2016-05-04T02:00:00","36.4","ND","ND","ND","ND","ND","ND","ND","ND","ND","ND","0"],
    [52544,"2016-05-04T03:00:00","31","ND","ND","ND","ND","ND","ND","ND","ND","ND","ND","0"],
    [52545,"2016-05-04T04:00:00","32.6","ND","ND","ND","ND","ND","ND","ND","ND","ND","ND","0"],
    [52546,"2016-05-04T05:00:00","24.1","ND","ND","ND","ND","ND","ND","ND","ND","ND","ND","0.25"],
    [52547,"2016-05-04T06:00:00","22.5","ND","ND","ND","ND","ND","ND","ND","ND","ND","ND","0"],
    [52548,"2016-05-04T07:00:00","27.9","ND","ND","ND","ND","ND","ND","ND","ND","ND","ND","0.25"],
    [52549,"2016-05-04T08:00:00","34.2","ND","ND","ND","ND","ND","ND","ND","ND","ND","ND","0"],
    [52550,"2016-05-04T09:00:00","50.7","ND","ND","ND","ND","ND","ND","ND","ND","ND","ND","0"],
    [52551,"2016-05-04T10:00:00","58.7","ND","ND","ND","ND","ND","ND","ND","ND","ND","ND","0"],
    [52552,"2016-05-04T11:00:00","55.9","ND","ND","ND","ND","ND","ND","ND","ND","ND","ND","0"],
    [52553,"2016-05-04T12:00:00","40.6","ND","ND","ND","ND","ND","ND","ND","ND","ND","ND","0"],
    [52554,"2016-05-04T13:00:00","34.1","ND","ND","ND","ND","ND","ND","ND","ND","ND","ND","0"],
    [52555,"2016-05-04T14:00:00","39.8","ND","ND","ND","ND","ND","ND","ND","ND","ND","ND","0"],
    [52556,"2016-05-04T15:00:00","36.7","ND","ND","ND","ND","ND","ND","ND","ND","ND","ND","0"],
    [52557,"2016-05-04T16:00:00","26.9","ND","ND","ND","ND","ND","ND","ND","ND","ND","ND","0"],
    [52558,"2016-05-04T17:00:00","15.4","ND","ND","ND","ND","ND","ND","ND","ND","ND","ND","0"],
    [52559,"2016-05-04T18:00:00","15.7","ND","ND","ND","ND","ND","ND","ND","ND","ND","ND","0"],
    [52560,"2016-05-04T19:00:00","20.5","ND","ND","ND","ND","ND","ND","ND","ND","ND","ND","0"],
    [52561,"2016-05-04T20:00:00","28.7","ND","ND","ND","ND","ND","ND","ND","ND","ND","ND","0"],
    [52562,"2016-05-04T21:00:00","38.9","ND","ND","ND","ND","ND","ND","ND","ND","ND","ND","0"],
    [52563,"2016-05-04T22:00:00","34.1","ND","ND","ND","ND","ND","ND","ND","ND","ND","ND","0"],
    [52564,"2016-05-04T23:00:00","36.5","ND","ND","ND","ND","ND","ND","ND","ND","ND","ND","0"],
    [52565,"2016-05-05T00:00:00","36.9","ND","ND","ND","ND","ND","ND","ND","ND","ND","ND","0"],
    [52566,"2016-05-05T01:00:00","41.7","ND","ND","ND","ND","ND","ND","ND","ND","ND","ND","0"],
    [52567,"2016-05-05T02:00:00","57.2","ND","ND","ND","ND","ND","ND","ND","ND","ND","ND","0"],
    [52568,"2016-05-05T03:00:00","41.3","ND","ND","ND","ND","ND","ND","ND","ND","ND","ND","0"],
    [52569,"2016-05-05T04:00:00","42.7","ND","ND","ND","ND","ND","ND","ND","ND","ND","ND","0"],
    [52570,"2016-05-05T05:00:00","52.2","ND","ND","ND","ND","ND","ND","ND","ND","ND","ND","0"],
    [52571,"2016-05-05T06:00:00","51.8","ND","ND","ND","ND","ND","ND","ND","ND","ND","ND","0"],
    [52572,"2016-05-05T07:00:00","47","ND","ND","ND","ND","ND","ND","ND","ND","ND","ND","0"],
    [52573,"2016-05-05T08:00:00","77.5","ND","ND","ND","ND","ND","ND","ND","ND","ND","ND","0"],
    [52574,"2016-05-05T09:00:00","74.3","ND","ND","ND","ND","ND","ND","ND","ND","ND","ND","0"],
    [52575,"2016-05-05T10:00:00","46.8","ND","ND","ND","ND","ND","ND","ND","ND","ND","ND","0"],
    [52576,"2016-05-05T11:00:00","ND","ND","ND","ND","ND","ND","ND","ND","ND","ND","ND","ND"],
    [52577,"2016-05-05T12:00:00","53","ND","ND","ND","ND","ND","ND","ND","ND","ND","ND","0"],
    [52578,"2016-05-05T13:00:00","58","ND","ND","ND","ND","ND","ND","ND","ND","ND","ND","0"],
    [52579,"2016-05-05T14:00:00","48.1","ND","ND","ND","ND","ND","ND","ND","ND","ND","ND","0"],
    [52580,"2016-05-05T15:00:00","25.8","ND","ND","ND","ND","ND","ND","ND","ND","ND","ND","0"],
    [52581,"2016-05-05T16:00:00","14.6","ND","ND","ND","ND","ND","ND","ND","ND","ND","ND","0"],
    [52582,"2016-05-05T17:00:00","12.7","ND","ND","ND","ND","ND","ND","ND","ND","ND","ND","0"],
    [52583,"2016-05-05T18:00:00","19","ND","ND","ND","ND","ND","ND","ND","ND","ND","ND","0"],
    [52584,"2016-05-05T19:00:00","23.9","ND","ND","ND","ND","ND","ND","ND","ND","ND","ND","0"],
    [52585,"2016-05-05T20:00:00","20.4","ND","ND","ND","ND","ND","ND","ND","ND","ND","ND","0"],
    [52586,"2016-05-05T21:00:00","19.9","ND","ND","ND","ND","ND","ND","ND","ND","ND","ND","0"],
    [52587,"2016-05-05T22:00:00","34","ND","ND","ND","ND","ND","ND","ND","ND","ND","ND","0"],
    [52588,"2016-05-05T23:00:00","37","ND","ND","ND","ND","ND","ND","ND","ND","ND","ND","0"],
    [52589,"2016-05-06T00:00:00","55","ND","ND","ND","ND","ND","ND","ND","ND","ND","ND","0"],
    [52590,"2016-05-06T01:00:00","58.9","ND","ND","ND","ND","ND","ND","ND","ND","ND","ND","0"],
    [52591,"2016-05-06T02:00:00","51.9","ND","ND","ND","ND","ND","ND","ND","ND","ND","ND","0"],
    [52592,"2016-05-06T03:00:00","50.4","ND","ND","ND","ND","ND","ND","ND","ND","ND","ND","0"],
    [52593,"2016-05-06T04:00:00","74","ND","ND","ND","ND","ND","ND","ND","ND","ND","ND","0"],
    [52594,"2016-05-06T05:00:00","91","ND","ND","ND","ND","ND","ND","ND","ND","ND","ND","0"],
    [52595,"2016-05-06T06:00:00","63.7","ND","ND","ND","ND","ND","ND","ND","ND","ND","ND","0"],
    [52596,"2016-05-06T07:00:00","46.8","ND","ND","ND","ND","ND","ND","ND","ND","ND","ND","0.25"],
    [52597,"2016-05-06T08:00:00","40.3","ND","ND","ND","ND","ND","ND","ND","ND","ND","ND","0"],
    [52598,"2016-05-06T09:00:00","30.7","ND","ND","ND","ND","ND","ND","ND","ND","ND","ND","0"],
    [52599,"2016-05-06T10:00:00","46.6","ND","ND","ND","ND","ND","ND","ND","ND","ND","ND","0"],
    [52600,"2016-05-06T11:00:00","36.8","ND","ND","ND","ND","ND","ND","ND","ND","ND","ND","0"],
    [52601,"2016-05-06T12:00:00","47.2","ND","ND","ND","ND","ND","ND","ND","ND","ND","ND","0"],
    [52602,"2016-05-06T13:00:00","56.1","ND","ND","ND","ND","ND","ND","ND","ND","ND","ND","0"],
    [52603,"2016-05-06T14:00:00","28.8","ND","ND","ND","ND","ND","ND","ND","ND","ND","ND","0"],
    [52604,"2016-05-06T15:00:00","18.5","ND","ND","ND","ND","ND","ND","ND","ND","ND","ND","0"],
    [52605,"2016-05-06T16:00:00","28.1","ND","ND","ND","ND","ND","ND","ND","ND","ND","ND","0"],
    [52606,"2016-05-06T17:00:00","23.5","ND","ND","ND","ND","ND","ND","ND","ND","ND","ND","0"],
    [52607,"2016-05-06T18:00:00","19.5","ND","ND","ND","ND","ND","ND","ND","ND","ND","ND","0"],
    [52608,"2016-05-06T19:00:00","14.3","ND","ND","ND","ND","ND","ND","ND","ND","ND","ND","0"],
    [52609,"2016-05-06T20:00:00","23.4","ND","ND","ND","ND","ND","ND","ND","ND","ND","ND","0"],
    [52610,"2016-05-06T21:00:00","17","ND","ND","ND","ND","ND","ND","ND","ND","ND","ND","0"],
    [52611,"2016-05-06T22:00:00","18.2","ND","ND","ND","ND","ND","ND","ND","ND","ND","ND","1.27"],
    [52612,"2016-05-06T23:00:00","25.8","ND","ND","ND","ND","ND","ND","ND","ND","ND","ND","6.86"],
    [52613,"2016-05-07T00:00:00","24.7","ND","ND","ND","ND","ND","ND","ND","ND","ND","ND","6.86"],
    [52614,"2016-05-07T01:00:00","19.1","ND","ND","ND","ND","ND","ND","ND","ND","ND","ND","2.03"],
    [52615,"2016-05-07T02:00:00","19.9","ND","ND","ND","ND","ND","ND","ND","ND","ND","ND","0.51"],
    [52616,"2016-05-07T03:00:00","10.2","ND","ND","ND","ND","ND","ND","ND","ND","ND","ND","0.51"],
    [52617,"2016-05-07T04:00:00","6.1","ND","ND","ND","ND","ND","ND","ND","ND","ND","ND","0.25"],
    [52618,"2016-05-07T05:00:00","3","ND","ND","ND","ND","ND","ND","ND","ND","ND","ND","0"],
    [52619,"2016-05-07T06:00:00","8.2","ND","ND","ND","ND","ND","ND","ND","ND","ND","ND","0"],
    [52620,"2016-05-07T07:00:00","17.2","ND","ND","ND","ND","ND","ND","ND","ND","ND","ND","0"],
    [52621,"2016-05-07T08:00:00","23.4","ND","ND","ND","ND","ND","ND","ND","ND","ND","ND","0.25"],
    [52622,"2016-05-07T09:00:00","18.6","ND","ND","ND","ND","ND","ND","ND","ND","ND","ND","0"],
    [52623,"2016-05-07T10:00:00","24.2","ND","ND","ND","ND","ND","ND","ND","ND","ND","ND","0"],
    [52624,"2016-05-07T11:00:00","30","ND","ND","ND","ND","ND","ND","ND","ND","ND","ND","0"],
    [52625,"2016-05-07T12:00:00","22","ND","ND","ND","ND","ND","ND","ND","ND","ND","ND","0"],
    [52626,"2016-05-07T13:00:00","24.1","ND","ND","ND","ND","ND","ND","ND","ND","ND","ND","0"],
    [52627,"2016-05-07T14:00:00","19.5","ND","ND","ND","ND","ND","ND","ND","ND","ND","ND","0"],
    [52628,"2016-05-07T15:00:00","19.9","ND","ND","ND","ND","ND","ND","ND","ND","ND","ND","0"],
    [52629,"2016-05-07T16:00:00","20.7","ND","ND","ND","ND","ND","ND","ND","ND","ND","ND","0"],
    [52630,"2016-05-07T17:00:00","20.2","ND","ND","ND","ND","ND","ND","ND","ND","ND","ND","0"],
    [52631,"2016-05-07T18:00:00","10.7","ND","ND","ND","ND","ND","ND","ND","ND","ND","ND","0"],
    [52632,"2016-05-07T19:00:00","19.9","ND","ND","ND","ND","ND","ND","ND","ND","ND","ND","0"],
    [52633,"2016-05-07T20:00:00","21.6","ND","ND","ND","ND","ND","ND","ND","ND","ND","ND","0"],
    [52634,"2016-05-07T21:00:00","22.8","ND","ND","ND","ND","ND","ND","ND","ND","ND","ND","0"],
    [52635,"2016-05-07T22:00:00","24.6","ND","ND","ND","ND","ND","ND","ND","ND","ND","ND","0"],
    [52636,"2016-05-07T23:00:00","31.7","ND","ND","ND","ND","ND","ND","ND","ND","ND","ND","0"],
    [52637,"2016-05-08T00:00:00","27.4","ND","ND","ND","ND","ND","ND","ND","ND","ND","ND","0"],
    [52638,"2016-05-08T01:00:00","43.3","ND","ND","ND","ND","ND","ND","ND","ND","ND","ND","0"],
    [52639,"2016-05-08T02:00:00","53.7","ND","ND","ND","ND","ND","ND","ND","ND","ND","ND","0"],
    [52640,"2016-05-08T03:00:00","52.4","ND","ND","ND","ND","ND","ND","ND","ND","ND","ND","0"],
    [52641,"2016-05-08T04:00:00","39.9","ND","ND","ND","ND","ND","ND","ND","ND","ND","ND","0"],
    [52642,"2016-05-08T05:00:00","25.8","ND","ND","ND","ND","ND","ND","ND","ND","ND","ND","0"],
    [52643,"2016-05-08T06:00:00","33.4","ND","ND","ND","ND","ND","ND","ND","ND","ND","ND","0"],
    [52644,"2016-05-08T07:00:00","45.1","ND","ND","ND","ND","ND","ND","ND","ND","ND","ND","0"],
    [52645,"2016-05-08T08:00:00","50.6","ND","ND","ND","ND","ND","ND","ND","ND","ND","ND","0"],
    [52646,"2016-05-08T09:00:00","58","ND","ND","ND","ND","ND","ND","ND","ND","ND","ND","0"],
    [52647,"2016-05-08T10:00:00","51","ND","ND","ND","ND","ND","ND","ND","ND","ND","ND","0"],
    [52648,"2016-05-08T11:00:00","49.8","ND","ND","ND","ND","ND","ND","ND","ND","ND","ND","0"],
    [52649,"2016-05-08T12:00:00","34.5","ND","ND","ND","ND","ND","ND","ND","ND","ND","ND","0"],
    [52650,"2016-05-08T13:00:00","27.1","ND","ND","ND","ND","ND","ND","ND","ND","ND","ND","0"],
    [52651,"2016-05-08T14:00:00","24.3","ND","ND","ND","ND","ND","ND","ND","ND","ND","ND","0"],
    [52652,"2016-05-08T15:00:00","24.2","ND","ND","ND","ND","ND","ND","ND","ND","ND","ND","0"],
    [52653,"2016-05-08T16:00:00","16.8","ND","ND","ND","ND","ND","ND","ND","ND","ND","ND","0"],
    [52654,"2016-05-08T17:00:00","7.7","ND","ND","ND","ND","ND","ND","ND","ND","ND","ND","0"],
    [52655,"2016-05-08T18:00:00","1.3","ND","ND","ND","ND","ND","ND","ND","ND","ND","ND","0"],
    [52656,"2016-05-08T19:00:00","1.2","ND","ND","ND","ND","ND","ND","ND","ND","ND","ND","0"],
    [52657,"2016-05-08T20:00:00","3.6","ND","ND","ND","ND","ND","ND","ND","ND","ND","ND","0"],
    [52658,"2016-05-08T21:00:00","6.7","ND","ND","ND","ND","ND","ND","ND","ND","ND","ND","0"],
    [52659,"2016-05-08T22:00:00","15.2","ND","ND","ND","ND","ND","ND","ND","ND","ND","ND","0"],
    [52660,"2016-05-08T23:00:00","18.6","ND","ND","ND","ND","ND","ND","ND","ND","ND","ND","0"],
    [52661,"2016-05-09T00:00:00","11.8","ND","ND","ND","ND","ND","ND","ND","ND","ND","ND","0"],
    [52662,"2016-05-09T01:00:00","18.3","ND","ND","ND","ND","ND","ND","ND","ND","ND","ND","0"],
    [52663,"2016-05-09T02:00:00","23","ND","ND","ND","ND","ND","ND","ND","ND","ND","ND","0"],
    [52664,"2016-05-09T03:00:00","40.5","ND","ND","ND","ND","ND","ND","ND","ND","ND","ND","0"],
    [52665,"2016-05-09T04:00:00","28.8","ND","ND","ND","ND","ND","ND","ND","ND","ND","ND","0"],
    [52666,"2016-05-09T05:00:00","6.7","ND","ND","ND","ND","ND","ND","ND","ND","ND","ND","0"],
    [52667,"2016-05-09T06:00:00","8","ND","ND","ND","ND","ND","ND","ND","ND","ND","ND","0"],
    [52668,"2016-05-09T07:00:00","10.1","ND","ND","ND","ND","ND","ND","ND","ND","ND","ND","0"],
    [52669,"2016-05-09T08:00:00","15.6","ND","ND","ND","ND","ND","ND","ND","ND","ND","ND","0"],
    [52670,"2016-05-09T09:00:00","23.4","ND","ND","ND","ND","ND","ND","ND","ND","ND","ND","0"],
    [52671,"2016-05-09T10:00:00","16.9","ND","ND","ND","ND","ND","ND","ND","ND","ND","ND","0"],
    [52672,"2016-05-09T11:00:00","16.5","ND","ND","ND","ND","ND","ND","ND","ND","ND","ND","0"],
    [52673,"2016-05-09T12:00:00","19.4","ND","ND","ND","ND","ND","ND","ND","ND","ND","ND","0"],
    [52674,"2016-05-09T13:00:00","20.8","ND","ND","ND","ND","ND","ND","ND","ND","ND","ND","0"],
    [52675,"2016-05-09T14:00:00","19.2","ND","ND","ND","ND","ND","ND","ND","ND","ND","ND","2.79"],
    [52676,"2016-05-09T15:00:00","19.5","ND","ND","ND","ND","ND","ND","ND","ND","ND","ND","0"],
    [52677,"2016-05-09T16:00:00","4.3","ND","ND","ND","ND","ND","ND","ND","ND","ND","ND","0.51"],
    [52678,"2016-05-09T17:00:00","ND","ND","ND","ND","ND","ND","ND","ND","ND","ND","ND","3.3"],
    [52679,"2016-05-09T18:00:00","119.2","ND","ND","ND","ND","ND","ND","ND","ND","ND","ND","0"],
    [52680,"2016-05-09T19:00:00","133.7","ND","ND","ND","ND","ND","ND","ND","ND","ND","ND","0.25"],
    [52681,"2016-05-09T20:00:00","84.7","ND","ND","ND","ND","ND","ND","ND","ND","ND","ND","0"],
    [52682,"2016-05-09T21:00:00","80.1","ND","ND","ND","ND","ND","ND","ND","ND","ND","ND","0"],
    [52683,"2016-05-09T22:00:00","34.4","ND","ND","ND","ND","ND","ND","ND","ND","ND","ND","0"],
    [52684,"2016-05-09T23:00:00","34.1","ND","ND","ND","ND","ND","ND","ND","ND","ND","ND","0"],
    [52685,"2016-05-10T00:00:00","62.3","ND","ND","ND","ND","ND","ND","ND","ND","ND","ND","0"],
    [52686,"2016-05-10T01:00:00","80.7","ND","ND","ND","ND","ND","ND","ND","ND","ND","ND","1.02"],
    [52687,"2016-05-10T02:00:00","97.6","ND","ND","ND","ND","ND","ND","ND","ND","ND","ND","3.81"],
    [52688,"2016-05-10T03:00:00","10.4","ND","ND","ND","ND","ND","ND","ND","ND","ND","ND","48.51"],
    [52689,"2016-05-10T04:00:00","1.8","ND","ND","ND","ND","ND","ND","ND","ND","ND","ND","24.64"],
    [52690,"2016-05-10T05:00:00","35.5","ND","ND","ND","ND","ND","ND","ND","ND","ND","ND","9.14"],
    [52691,"2016-05-10T06:00:00","25.8","ND","ND","ND","ND","ND","ND","ND","ND","ND","ND","4.57"],
    [52692,"2016-05-10T07:00:00","2.1","ND","ND","ND","ND","ND","ND","ND","ND","ND","ND","1.78"],
    [52693,"2016-05-10T08:00:00","12.3","ND","ND","ND","ND","ND","ND","ND","ND","ND","ND","1.52"],
    [52694,"2016-05-10T09:00:00","47.2","ND","ND","ND","ND","ND","ND","ND","ND","ND","ND","4.32"],
    [52695,"2016-05-10T10:00:00","71.8","ND","ND","ND","ND","ND","ND","ND","ND","ND","ND","1.02"],
    [52696,"2016-05-10T11:00:00","70.1","ND","ND","ND","ND","ND","ND","ND","ND","ND","ND","0"],
    [52697,"2016-05-10T12:00:00","47.8","ND","ND","ND","ND","ND","ND","ND","ND","ND","ND","0"],
    [52698,"2016-05-10T13:00:00","39.8","ND","ND","ND","ND","ND","ND","ND","ND","ND","ND","0"],
    [52699,"2016-05-10T14:00:00","8.4","ND","ND","ND","ND","ND","ND","ND","ND","ND","ND","0"],
    [52700,"2016-05-10T15:00:00","ND","ND","ND","ND","ND","ND","ND","ND","ND","ND","ND","0"],
    [52701,"2016-05-10T16:00:00","ND","ND","ND","ND","ND","ND","ND","ND","ND","ND","ND","22.35"],
    [52702,"2016-05-10T17:00:00","ND","ND","ND","ND","ND","ND","ND","ND","ND","ND","ND","2.54"],
    [52703,"2016-05-10T18:00:00","34.8","ND","ND","ND","ND","ND","ND","ND","ND","ND","ND","1.27"],
    [52704,"2016-05-10T19:00:00","72.8","ND","ND","ND","ND","ND","ND","ND","ND","ND","ND","0.25"],
    [52705,"2016-05-10T20:00:00","50.6","ND","ND","ND","ND","ND","ND","ND","ND","ND","ND","0"],
    [52706,"2016-05-10T21:00:00","31.9","ND","ND","ND","ND","ND","ND","ND","ND","ND","ND","0.25"],
    [52707,"2016-05-10T22:00:00","30.6","ND","ND","ND","ND","ND","ND","ND","ND","ND","ND","0"],
    [52708,"2016-05-10T23:00:00","10.4","ND","ND","ND","ND","ND","ND","ND","ND","ND","ND","0"],
    [52709,"2016-05-11T00:00:00","0.7","ND","ND","ND","ND","ND","ND","ND","ND","ND","ND","0"],
    [52710,"2016-05-11T01:00:00","8.2","ND","ND","ND","ND","ND","ND","ND","ND","ND","ND","0"],
    [52711,"2016-05-11T02:00:00","2.1","ND","ND","ND","ND","ND","ND","ND","ND","ND","ND","0"],
    [52712,"2016-05-11T03:00:00","3.7","ND","ND","ND","ND","ND","ND","ND","ND","ND","ND","0.25"],
    [52713,"2016-05-11T04:00:00","22.8","ND","ND","ND","ND","ND","ND","ND","ND","ND","ND","0"],
    [52714,"2016-05-11T05:00:00","33","ND","ND","ND","ND","ND","ND","ND","ND","ND","ND","0.25"],
    [52715,"2016-05-11T06:00:00","30.1","ND","ND","ND","ND","ND","ND","ND","ND","ND","ND","1.78"],
    [52716,"2016-05-11T07:00:00","42","ND","ND","ND","ND","ND","ND","ND","ND","ND","ND","0.25"],
    [52717,"2016-05-11T08:00:00","58.3","ND","ND","ND","ND","ND","ND","ND","ND","ND","ND","0.25"],
    [52718,"2016-05-11T09:00:00","53.3","ND","ND","ND","ND","ND","ND","ND","ND","ND","ND","0"],
    [52719,"2016-05-11T10:00:00","45","ND","ND","ND","ND","ND","ND","ND","ND","ND","ND","0"],
    [52720,"2016-05-11T11:00:00","49.6","ND","ND","ND","ND","ND","ND","ND","ND","ND","ND","0"],
    [52721,"2016-05-11T12:00:00","35.6","ND","ND","ND","ND","ND","ND","ND","ND","ND","ND","0"],
    [52722,"2016-05-11T13:00:00","ND","ND","ND","ND","ND","ND","ND","ND","ND","ND","ND","0"],
    [52723,"2016-05-11T14:00:00","ND","ND","ND","ND","ND","ND","ND","ND","ND","ND","ND","0"],
    [52724,"2016-05-11T15:00:00","71.9","ND","ND","ND","ND","ND","ND","ND","ND","ND","ND","0"],
    [52725,"2016-05-11T16:00:00","42.1","ND","ND","ND","ND","ND","ND","ND","ND","ND","ND","0"],
    [52726,"2016-05-11T17:00:00","30.6","ND","ND","ND","ND","ND","ND","ND","ND","ND","ND","0"],
    [52727,"2016-05-11T18:00:00","9.3","ND","ND","ND","ND","ND","ND","ND","ND","ND","ND","0"],
    [52728,"2016-05-11T19:00:00","5.6","ND","ND","ND","ND","ND","ND","ND","ND","ND","ND","0"],
    [52729,"2016-05-11T20:00:00","4.7","ND","ND","ND","ND","ND","ND","ND","ND","ND","ND","0"],
    [52730,"2016-05-11T21:00:00","87.2","ND","ND","ND","ND","ND","ND","ND","ND","ND","ND","0"],
    [52731,"2016-05-11T22:00:00","53.4","ND","ND","ND","ND","ND","ND","ND","ND","ND","ND","0"],
    [52732,"2016-05-11T23:00:00","19.8","ND","ND","ND","ND","ND","ND","ND","ND","ND","ND","0"],
    [52733,"2016-05-12T00:00:00","33.2","ND","ND","ND","ND","ND","ND","ND","ND","ND","ND","0"],
    [52734,"2016-05-12T01:00:00","45.7","ND","ND","ND","ND","ND","ND","ND","ND","ND","ND","0"],
    [52735,"2016-05-12T02:00:00","31.6","ND","ND","ND","ND","ND","ND","ND","ND","ND","ND","0"],
    [52736,"2016-05-12T03:00:00","43.6","ND","ND","ND","ND","ND","ND","ND","ND","ND","ND","0"],
    [52737,"2016-05-12T04:00:00","61.1","ND","ND","ND","ND","ND","ND","ND","ND","ND","ND","0"],
    [52738,"2016-05-12T05:00:00","49.5","ND","ND","ND","ND","ND","ND","ND","ND","ND","ND","0"],
    [52739,"2016-05-12T06:00:00","30.4","ND","ND","ND","ND","ND","ND","ND","ND","ND","ND","0"],
    [52740,"2016-05-12T07:00:00","60.8","ND","ND","ND","ND","ND","ND","ND","ND","ND","ND","0"],
    [52741,"2016-05-12T08:00:00","104.9","ND","ND","ND","ND","ND","ND","ND","ND","ND","ND","0"],
    [52742,"2016-05-12T09:00:00","104.1","ND","ND","ND","ND","ND","ND","ND","ND","ND","ND","0"],
    [52743,"2016-05-12T10:00:00","101.9","ND","ND","ND","ND","ND","ND","ND","ND","ND","ND","0"],
    [52744,"2016-05-12T11:00:00","73.5","ND","ND","ND","ND","ND","ND","ND","ND","ND","ND","0"],
    [52745,"2016-05-12T12:00:00","37.2","ND","ND","ND","ND","ND","ND","ND","ND","ND","ND","0"],
    [52746,"2016-05-12T13:00:00","50.7","ND","ND","ND","ND","ND","ND","ND","ND","ND","ND","0"],
    [52747,"2016-05-12T14:00:00","35.7","ND","ND","ND","ND","ND","ND","ND","ND","ND","ND","0"],
    [52748,"2016-05-12T15:00:00","40.9","ND","ND","ND","ND","ND","ND","ND","ND","ND","ND","0"],
    [52749,"2016-05-12T16:00:00","47.9","ND","ND","ND","ND","ND","ND","ND","ND","ND","ND","0"],
    [52750,"2016-05-12T17:00:00","45.3","ND","ND","ND","ND","ND","ND","ND","ND","ND","ND","0"],
    [52751,"2016-05-12T18:00:00","38.2","ND","ND","ND","ND","ND","ND","ND","ND","ND","ND","0"],
    [52752,"2016-05-12T19:00:00","20.3","ND","ND","ND","ND","ND","ND","ND","ND","ND","ND","0"],
    [52753,"2016-05-12T20:00:00","5","ND","ND","ND","ND","ND","ND","ND","ND","ND","ND","0"],
    [52754,"2016-05-12T21:00:00","55.6","ND","ND","ND","ND","ND","ND","ND","ND","ND","ND","0"],
    [52755,"2016-05-12T22:00:00","65.7","ND","ND","ND","ND","ND","ND","ND","ND","ND","ND","0"],
    [52756,"2016-05-12T23:00:00","83.6","ND","ND","ND","ND","ND","ND","ND","ND","ND","ND","0"],
    [52757,"2016-05-13T00:00:00","60","ND","ND","ND","ND","ND","ND","ND","ND","ND","ND","0"],
    [52758,"2016-05-13T01:00:00","66.6","ND","ND","ND","ND","ND","ND","ND","ND","ND","ND","0"],
    [52759,"2016-05-13T02:00:00","64.9","ND","ND","ND","ND","ND","ND","ND","ND","ND","ND","0"],
    [52760,"2016-05-13T03:00:00","51.3","ND","ND","ND","ND","ND","ND","ND","ND","ND","ND","0"],
    [52761,"2016-05-13T04:00:00","37","ND","ND","ND","ND","ND","ND","ND","ND","ND","ND","0"],
    [52762,"2016-05-13T05:00:00","40.6","ND","ND","ND","ND","ND","ND","ND","ND","ND","ND","0"],
    [52763,"2016-05-13T06:00:00","72.8","ND","ND","ND","ND","ND","ND","ND","ND","ND","ND","0"],
    [52764,"2016-05-13T07:00:00","58.6","ND","ND","ND","ND","ND","ND","ND","ND","ND","ND","0"],
    [52765,"2016-05-13T08:00:00","87.6","ND","ND","ND","ND","ND","ND","ND","ND","ND","ND","0"],
    [52766,"2016-05-13T09:00:00","ND","ND","ND","ND","ND","ND","ND","ND","ND","ND","ND","ND"],
    [52767,"2016-05-13T10:00:00","ND","ND","ND","ND","ND","ND","ND","ND","ND","ND","ND","ND"],
    [52768,"2016-05-13T11:00:00","40.3","ND","ND","ND","ND","ND","ND","ND","ND","ND","ND","0"],
    [52769,"2016-05-13T12:00:00","46.6","ND","ND","ND","ND","ND","ND","ND","ND","ND","ND","0"],
    [52770,"2016-05-13T13:00:00","48.8","ND","ND","ND","ND","ND","ND","ND","ND","ND","ND","0"],
    [52771,"2016-05-13T14:00:00","43.7","ND","ND","ND","ND","ND","ND","ND","ND","ND","ND","0"],
    [52772,"2016-05-13T15:00:00","48.8","ND","ND","ND","ND","ND","ND","ND","ND","ND","ND","0"],
    [52773,"2016-05-13T16:00:00","60.6","ND","ND","ND","ND","ND","ND","ND","ND","ND","ND","0"],
    [52774,"2016-05-13T17:00:00","35.9","ND","ND","ND","ND","ND","ND","ND","ND","ND","ND","0"],
    [52775,"2016-05-13T18:00:00","23.3","ND","ND","ND","ND","ND","ND","ND","ND","ND","ND","0"],
    [52776,"2016-05-13T19:00:00","10.8","ND","ND","ND","ND","ND","ND","ND","ND","ND","ND","0"],
    [52777,"2016-05-13T20:00:00","20.1","ND","ND","ND","ND","ND","ND","ND","ND","ND","ND","0"],
    [52778,"2016-05-13T21:00:00","46.5","ND","ND","ND","ND","ND","ND","ND","ND","ND","ND","0"],
    [52779,"2016-05-13T22:00:00","52.5","ND","ND","ND","ND","ND","ND","ND","ND","ND","ND","0"],
    [52780,"2016-05-13T23:00:00","63.7","ND","ND","ND","ND","ND","ND","ND","ND","ND","ND","0"],
    [52781,"2016-05-14T00:00:00","56.2","ND","ND","ND","ND","ND","ND","ND","ND","ND","ND","0"],
    [52782,"2016-05-14T01:00:00","70.4","ND","ND","ND","ND","ND","ND","ND","ND","ND","ND","0"],
    [52783,"2016-05-14T02:00:00","54.4","ND","ND","ND","ND","ND","ND","ND","ND","ND","ND","0"],
    [52784,"2016-05-14T03:00:00","43.5","ND","ND","ND","ND","ND","ND","ND","ND","ND","ND","0"],
    [52785,"2016-05-14T04:00:00","43.8","ND","ND","ND","ND","ND","ND","ND","ND","ND","ND","0"],
    [52786,"2016-05-14T05:00:00","76.3","ND","ND","ND","ND","ND","ND","ND","ND","ND","ND","0"],
    [52787,"2016-05-14T06:00:00","71.8","ND","ND","ND","ND","ND","ND","ND","ND","ND","ND","0"],
    [52788,"2016-05-14T07:00:00","92.1","ND","ND","ND","ND","ND","ND","ND","ND","ND","ND","0"],
    [52789,"2016-05-14T08:00:00","74","ND","ND","ND","ND","ND","ND","ND","ND","ND","ND","0"],
    [52790,"2016-05-14T09:00:00","67.7","ND","ND","ND","ND","ND","ND","ND","ND","ND","ND","0"],
    [52791,"2016-05-14T10:00:00","44.6","ND","ND","ND","ND","ND","ND","ND","ND","ND","ND","0"],
    [52792,"2016-05-14T11:00:00","42.6","ND","ND","ND","ND","ND","ND","ND","ND","ND","ND","0"],
    [52793,"2016-05-14T12:00:00","38.1","ND","ND","ND","ND","ND","ND","ND","ND","ND","ND","0"],
    [52794,"2016-05-14T13:00:00","32.6","ND","ND","ND","ND","ND","ND","ND","ND","ND","ND","0"],
    [52795,"2016-05-14T14:00:00","42.8","ND","ND","ND","ND","ND","ND","ND","ND","ND","ND","0"],
    [52796,"2016-05-14T15:00:00","27.3","ND","ND","ND","ND","ND","ND","ND","ND","ND","ND","0"],
    [52797,"2016-05-14T16:00:00","15","ND","ND","ND","ND","ND","ND","ND","ND","ND","ND","0"],
    [52798,"2016-05-14T17:00:00","8.1","ND","ND","ND","ND","ND","ND","ND","ND","ND","ND","0"],
    [52799,"2016-05-14T18:00:00","0.5","ND","ND","ND","ND","ND","ND","ND","ND","ND","ND","0"],
    [52800,"2016-05-14T19:00:00","0.9","ND","ND","ND","ND","ND","ND","ND","ND","ND","ND","0"],
    [52801,"2016-05-14T20:00:00","31.8","ND","ND","ND","ND","ND","ND","ND","ND","ND","ND","0"],
    [52802,"2016-05-14T21:00:00","39.9","ND","ND","ND","ND","ND","ND","ND","ND","ND","ND","0"],
    [52803,"2016-05-14T22:00:00","36.6","ND","ND","ND","ND","ND","ND","ND","ND","ND","ND","0"],
    [52804,"2016-05-14T23:00:00","41.9","ND","ND","ND","ND","ND","ND","ND","ND","ND","ND","0"],
    [52805,"2016-05-15T00:00:00","39.9","ND","ND","ND","ND","ND","ND","ND","ND","ND","ND","0"],
    [52806,"2016-05-15T01:00:00","26.7","ND","ND","ND","ND","ND","ND","ND","ND","ND","ND","0"],
    [52807,"2016-05-15T02:00:00","8.7","ND","ND","ND","ND","ND","ND","ND","ND","ND","ND","0"],
    [52808,"2016-05-15T03:00:00","13.3","ND","ND","ND","ND","ND","ND","ND","ND","ND","ND","0"],
    [52809,"2016-05-15T04:00:00","16.9","ND","ND","ND","ND","ND","ND","ND","ND","ND","ND","0"],
    [52810,"2016-05-15T05:00:00","17.5","ND","ND","ND","ND","ND","ND","ND","ND","ND","ND","0"],
    [52811,"2016-05-15T06:00:00","26.6","ND","ND","ND","ND","ND","ND","ND","ND","ND","ND","0"],
    [52812,"2016-05-15T07:00:00","29","ND","ND","ND","ND","ND","ND","ND","ND","ND","ND","0"],
    [52813,"2016-05-15T08:00:00","38.3","ND","ND","ND","ND","ND","ND","ND","ND","ND","ND","0"],
    [52814,"2016-05-15T09:00:00","27.7","ND","ND","ND","ND","ND","ND","ND","ND","ND","ND","0"],
    [52815,"2016-05-15T10:00:00","21.6","ND","ND","ND","ND","ND","ND","ND","ND","ND","ND","0"],
    [52816,"2016-05-15T11:00:00","32.2","ND","ND","ND","ND","ND","ND","ND","ND","ND","ND","0"],
    [52817,"2016-05-15T12:00:00","33.6","ND","ND","ND","ND","ND","ND","ND","ND","ND","ND","0"],
    [52818,"2016-05-15T13:00:00","24.6","ND","ND","ND","ND","ND","ND","ND","ND","ND","ND","0"],
    [52819,"2016-05-15T14:00:00","30.4","ND","ND","ND","ND","ND","ND","ND","ND","ND","ND","0"],
    [52820,"2016-05-15T15:00:00","30.9","ND","ND","ND","ND","ND","ND","ND","ND","ND","ND","0"],
    [52821,"2016-05-15T16:00:00","17","ND","ND","ND","ND","ND","ND","ND","ND","ND","ND","0"],
    [52822,"2016-05-15T17:00:00","0.3","ND","ND","ND","ND","ND","ND","ND","ND","ND","ND","0"],
    [52823,"2016-05-15T18:00:00","1.5","ND","ND","ND","ND","ND","ND","ND","ND","ND","ND","0"],
    [52824,"2016-05-15T19:00:00","14.6","ND","ND","ND","ND","ND","ND","ND","ND","ND","ND","0"],
    [52825,"2016-05-15T20:00:00","22.3","ND","ND","ND","ND","ND","ND","ND","ND","ND","ND","0"],
    [52826,"2016-05-15T21:00:00","24.2","ND","ND","ND","ND","ND","ND","ND","ND","ND","ND","0"],
    [52827,"2016-05-15T22:00:00","37.8","ND","ND","ND","ND","ND","ND","ND","ND","ND","ND","0"],
    [52828,"2016-05-15T23:00:00","41.1","ND","ND","ND","ND","ND","ND","ND","ND","ND","ND","0"],
    [52829,"2016-05-16T00:00:00","33.3","ND","ND","ND","ND","ND","ND","ND","ND","ND","ND","0"],
    [52830,"2016-05-16T01:00:00","38.3","ND","ND","ND","ND","ND","ND","ND","ND","ND","ND","0"],
    [52831,"2016-05-16T02:00:00","46","ND","ND","ND","ND","ND","ND","ND","ND","ND","ND","0"],
    [52832,"2016-05-16T03:00:00","32.9","ND","ND","ND","ND","ND","ND","ND","ND","ND","ND","0"],
    [52833,"2016-05-16T04:00:00","28.1","ND","ND","ND","ND","ND","ND","ND","ND","ND","ND","0"],
    [52834,"2016-05-16T05:00:00","32.6","ND","ND","ND","ND","ND","ND","ND","ND","ND","ND","0"],
    [52835,"2016-05-16T06:00:00","30.2","ND","ND","ND","ND","ND","ND","ND","ND","ND","ND","0"],
    [52836,"2016-05-16T07:00:00","47.1","ND","ND","ND","ND","ND","ND","ND","ND","ND","ND","0"],
    [52837,"2016-05-16T08:00:00","83.3","ND","ND","ND","ND","ND","ND","ND","ND","ND","ND","0"],
    [52838,"2016-05-16T09:00:00","44.5","ND","ND","ND","ND","ND","ND","ND","ND","ND","ND","0"],
    [52839,"2016-05-16T10:00:00","40.3","ND","ND","ND","ND","ND","ND","ND","ND","ND","ND","0"],
    [52840,"2016-05-16T11:00:00","48.1","ND","ND","ND","ND","ND","ND","ND","ND","ND","ND","0"],
    [52841,"2016-05-16T12:00:00","41.4","ND","ND","ND","ND","ND","ND","ND","ND","ND","ND","0"],
    [52842,"2016-05-16T13:00:00","34.9","ND","ND","ND","ND","ND","ND","ND","ND","ND","ND","0"],
    [52843,"2016-05-16T14:00:00","44.3","ND","ND","ND","ND","ND","ND","ND","ND","ND","ND","0"],
    [52844,"2016-05-16T15:00:00","31.2","ND","ND","ND","ND","ND","ND","ND","ND","ND","ND","0"],
    [52845,"2016-05-16T16:00:00","23.9","ND","ND","ND","ND","ND","ND","ND","ND","ND","ND","0"],
    [52846,"2016-05-16T17:00:00","23.4","ND","ND","ND","ND","ND","ND","ND","ND","ND","ND","0"],
    [52847,"2016-05-16T18:00:00","16.3","ND","ND","ND","ND","ND","ND","ND","ND","ND","ND","0"],
    [52848,"2016-05-16T19:00:00","10.6","ND","ND","ND","ND","ND","ND","ND","ND","ND","ND","0"],
    [52849,"2016-05-16T20:00:00","27.7","ND","ND","ND","ND","ND","ND","ND","ND","ND","ND","0"],
    [52850,"2016-05-16T21:00:00","47.1","ND","ND","ND","ND","ND","ND","ND","ND","ND","ND","0"],
    [52851,"2016-05-16T22:00:00","42.8","ND","ND","ND","ND","ND","ND","ND","ND","ND","ND","0"],
    [52852,"2016-05-16T23:00:00","50.1","ND","ND","ND","ND","ND","ND","ND","ND","ND","ND","0"],
    [52853,"2016-05-17T00:00:00","42.6","ND","ND","ND","ND","ND","ND","ND","ND","ND","ND","0"],
    [52854,"2016-05-17T01:00:00","42.5","ND","ND","ND","ND","ND","ND","ND","ND","ND","ND","0"],
    [52855,"2016-05-17T02:00:00","58.2","ND","ND","ND","ND","ND","ND","ND","ND","ND","ND","0"],
    [52856,"2016-05-17T03:00:00","42.8","ND","ND","ND","ND","ND","ND","ND","ND","ND","ND","0"],
    [52857,"2016-05-17T04:00:00","ND","ND","ND","ND","ND","ND","ND","ND","ND","ND","ND","ND"],
    [52858,"2016-05-17T05:00:00","ND","ND","ND","ND","ND","ND","ND","ND","ND","ND","ND","ND"],
    [52859,"2016-05-17T06:00:00","ND","ND","ND","ND","ND","ND","ND","ND","ND","ND","ND","ND"],
    [52860,"2016-05-17T07:00:00","ND","ND","ND","ND","ND","ND","ND","ND","ND","ND","ND","ND"],
    [52861,"2016-05-17T08:00:00","ND","ND","ND","ND","ND","ND","ND","ND","ND","ND","ND","ND"],
    [52862,"2016-05-17T09:00:00","ND","ND","ND","ND","ND","ND","ND","ND","ND","ND","ND","ND"],
    [52863,"2016-05-17T10:00:00","ND","ND","ND","ND","ND","ND","ND","ND","ND","ND","ND","ND"],
    [52864,"2016-05-17T11:00:00","ND","ND","ND","ND","ND","ND","ND","ND","ND","ND","ND","ND"],
    [52865,"2016-05-17T12:00:00","ND","ND","ND","ND","ND","ND","ND","ND","ND","ND","ND","ND"],
    [52866,"2016-05-17T13:00:00","ND","ND","ND","ND","ND","ND","ND","ND","ND","ND","ND","ND"],
    [52867,"2016-05-17T14:00:00","ND","ND","ND","ND","ND","ND","ND","ND","ND","ND","ND","ND"],
    [52868,"2016-05-17T15:00:00","ND","ND","ND","ND","ND","ND","ND","ND","ND","ND","ND","ND"],
    [52869,"2016-05-17T16:00:00","ND","ND","ND","ND","ND","ND","ND","ND","ND","ND","ND","ND"],
    [52870,"2016-05-17T17:00:00","ND","ND","ND","ND","ND","ND","ND","ND","ND","ND","ND","ND"],
    [52871,"2016-05-17T18:00:00","ND","ND","ND","ND","ND","ND","ND","ND","ND","ND","ND","ND"],
    [52872,"2016-05-17T19:00:00","ND","ND","ND","ND","ND","ND","ND","ND","ND","ND","ND","ND"],
    [52873,"2016-05-17T20:00:00","ND","ND","ND","ND","ND","ND","ND","ND","ND","ND","ND","ND"],
    [52874,"2016-05-17T21:00:00","ND","ND","ND","ND","ND","ND","ND","ND","ND","ND","ND","ND"],
    [52875,"2016-05-17T22:00:00","ND","ND","ND","ND","ND","ND","ND","ND","ND","ND","ND","ND"],
    [52876,"2016-05-17T23:00:00","ND","ND","ND","ND","ND","ND","ND","ND","ND","ND","ND","ND"],
    [52877,"2016-05-18T00:00:00","ND","ND","ND","ND","ND","ND","ND","ND","ND","ND","ND","ND"],
    [52878,"2016-05-18T01:00:00","ND","ND","ND","ND","ND","ND","ND","ND","ND","ND","ND","ND"],
    [52879,"2016-05-18T02:00:00","ND","ND","ND","ND","ND","ND","ND","ND","ND","ND","ND","ND"],
    [52880,"2016-05-18T03:00:00","ND","ND","ND","ND","ND","ND","ND","ND","ND","ND","ND","ND"],
    [52881,"2016-05-18T04:00:00","ND","ND","ND","ND","ND","ND","ND","ND","ND","ND","ND","ND"],
    [52882,"2016-05-18T05:00:00","ND","ND","ND","ND","ND","ND","ND","ND","ND","ND","ND","ND"],
    [52883,"2016-05-18T06:00:00","ND","ND","ND","ND","ND","ND","ND","ND","ND","ND","ND","ND"],
    [52884,"2016-05-18T07:00:00","ND","ND","ND","ND","ND","ND","ND","ND","ND","ND","ND","ND"],
    [52885,"2016-05-18T08:00:00","ND","ND","ND","ND","ND","ND","ND","ND","ND","ND","ND","ND"],
    [52886,"2016-05-18T09:00:00","ND","ND","ND","ND","ND","ND","ND","ND","ND","ND","ND","ND"],
    [52887,"2016-05-18T10:00:00","ND","ND","ND","ND","ND","ND","ND","ND","ND","ND","ND","ND"],
    [52888,"2016-05-18T11:00:00","ND","ND","ND","ND","ND","ND","ND","ND","ND","ND","ND","ND"],
    [52889,"2016-05-18T12:00:00","ND","ND","ND","ND","ND","ND","ND","ND","ND","ND","ND","ND"],
    [52890,"2016-05-18T13:00:00","ND","ND","ND","ND","ND","ND","ND","ND","ND","ND","ND","ND"],
    [52891,"2016-05-18T14:00:00","ND","ND","ND","ND","ND","ND","ND","ND","ND","ND","ND","ND"],
    [52892,"2016-05-18T15:00:00","ND","ND","ND","ND","ND","ND","ND","ND","ND","ND","ND","ND"],
    [52893,"2016-05-18T16:00:00","ND","ND","ND","ND","ND","ND","ND","ND","ND","ND","ND","ND"],
    [52894,"2016-05-18T17:00:00","ND","ND","ND","ND","ND","ND","ND","ND","ND","ND","ND","ND"],
    [52895,"2016-05-18T18:00:00","ND","ND","ND","ND","ND","ND","ND","ND","ND","ND","ND","ND"],
    [52896,"2016-05-18T19:00:00","ND","ND","ND","ND","ND","ND","ND","ND","ND","ND","ND","ND"],
    [52897,"2016-05-18T20:00:00","ND","ND","ND","ND","ND","ND","ND","ND","ND","ND","ND","ND"],
    [52898,"2016-05-18T21:00:00","ND","ND","ND","ND","ND","ND","ND","ND","ND","ND","ND","ND"],
    [52899,"2016-05-18T22:00:00","ND","ND","ND","ND","ND","ND","ND","ND","ND","ND","ND","ND"],
    [52900,"2016-05-18T23:00:00","ND","ND","ND","ND","ND","ND","ND","ND","ND","ND","ND","ND"],
    [52901,"2016-05-19T00:00:00","ND","ND","ND","ND","ND","ND","ND","ND","ND","ND","ND","ND"],
    [52902,"2016-05-19T01:00:00","ND","ND","ND","ND","ND","ND","ND","ND","ND","ND","ND","ND"],
    [52903,"2016-05-19T02:00:00","ND","ND","ND","ND","ND","ND","ND","ND","ND","ND","ND","ND"],
    [52904,"2016-05-19T03:00:00","ND","ND","ND","ND","ND","ND","ND","ND","ND","ND","ND","ND"],
    [52905,"2016-05-19T04:00:00","ND","ND","ND","ND","ND","ND","ND","ND","ND","ND","ND","ND"],
    [52906,"2016-05-19T05:00:00","ND","ND","ND","ND","ND","ND","ND","ND","ND","ND","ND","ND"],
    [52907,"2016-05-19T06:00:00","ND","ND","ND","ND","ND","ND","ND","ND","ND","ND","ND","ND"],
    [52908,"2016-05-19T07:00:00","ND","ND","ND","ND","ND","ND","ND","ND","ND","ND","ND","ND"],
    [52909,"2016-05-19T08:00:00","ND","ND","ND","ND","ND","ND","ND","ND","ND","ND","ND","ND"],
    [52910,"2016-05-19T09:00:00","ND","ND","ND","ND","ND","ND","ND","ND","ND","ND","ND","ND"],
    [52911,"2016-05-19T10:00:00","ND","ND","ND","ND","ND","ND","ND","ND","ND","ND","ND","ND"],
    [52912,"2016-05-19T11:00:00","69.7","ND","ND","ND","ND","ND","ND","ND","ND","ND","ND","0"],
    [52913,"2016-05-19T12:00:00","28.3","ND","ND","ND","ND","ND","ND","ND","ND","ND","ND","0"],
    [52914,"2016-05-19T13:00:00","29.1","ND","ND","ND","ND","ND","ND","ND","ND","ND","ND","0"],
    [52915,"2016-05-19T14:00:00","26.1","ND","ND","ND","ND","ND","ND","ND","ND","ND","ND","0"],
    [52916,"2016-05-19T15:00:00","27.9","ND","ND","ND","ND","ND","ND","ND","ND","ND","ND","0"],
    [52917,"2016-05-19T16:00:00","34.3","ND","ND","ND","ND","ND","ND","ND","ND","ND","ND","0"],
    [52918,"2016-05-19T17:00:00","38.2","ND","ND","ND","ND","ND","ND","ND","ND","ND","ND","0"],
    [52919,"2016-05-19T18:00:00","26.8","ND","ND","ND","ND","ND","ND","ND","ND","ND","ND","0"],
    [52920,"2016-05-19T19:00:00","30","ND","ND","ND","ND","ND","ND","ND","ND","ND","ND","0"],
    [52921,"2016-05-19T20:00:00","50.3","ND","ND","ND","ND","ND","ND","ND","ND","ND","ND","0"],
    [52922,"2016-05-19T21:00:00","40","ND","ND","ND","ND","ND","ND","ND","ND","ND","ND","0"],
    [52923,"2016-05-19T22:00:00","45.7","ND","ND","ND","ND","ND","ND","ND","ND","ND","ND","0"],
    [52924,"2016-05-19T23:00:00","60.9","ND","ND","ND","ND","ND","ND","ND","ND","ND","ND","0"],
    [52925,"2016-05-20T00:00:00","53.3","ND","ND","ND","ND","ND","ND","ND","ND","ND","ND","0"],
    [52926,"2016-05-20T01:00:00","32","ND","ND","ND","ND","ND","ND","ND","ND","ND","ND","0"],
    [52927,"2016-05-20T02:00:00","52.6","ND","ND","ND","ND","ND","ND","ND","ND","ND","ND","0"],
    [52928,"2016-05-20T03:00:00","65.5","ND","ND","ND","ND","ND","ND","ND","ND","ND","ND","0"],
    [52929,"2016-05-20T04:00:00","45.5","ND","ND","ND","ND","ND","ND","ND","ND","ND","ND","0"],
    [52930,"2016-05-20T05:00:00","61.4","ND","ND","ND","ND","ND","ND","ND","ND","ND","ND","0"],
    [52931,"2016-05-20T06:00:00","55.9","ND","ND","ND","ND","ND","ND","ND","ND","ND","ND","0"],
    [52932,"2016-05-20T07:00:00","65.3","ND","ND","ND","ND","ND","ND","ND","ND","ND","ND","0"],
    [52933,"2016-05-20T08:00:00","82.7","ND","ND","ND","ND","ND","ND","ND","ND","ND","ND","0"],
    [52934,"2016-05-20T09:00:00","77.3","ND","ND","ND","ND","ND","ND","ND","ND","ND","ND","0"],
    [52935,"2016-05-20T10:00:00","61.9","ND","ND","ND","ND","ND","ND","ND","ND","ND","ND","0"],
    [52936,"2016-05-20T11:00:00","54.2","ND","ND","ND","ND","ND","ND","ND","ND","ND","ND","0"],
    [52937,"2016-05-20T12:00:00","46.5","ND","ND","ND","ND","ND","ND","ND","ND","ND","ND","0"],
    [52938,"2016-05-20T13:00:00","45.5","ND","ND","ND","ND","ND","ND","ND","ND","ND","ND","0"],
    [52939,"2016-05-20T14:00:00","52.1","ND","ND","ND","ND","ND","ND","ND","ND","ND","ND","0"],
    [52940,"2016-05-20T15:00:00","46.9","ND","ND","ND","ND","ND","ND","ND","ND","ND","ND","0"],
    [52941,"2016-05-20T16:00:00","6.2","ND","ND","ND","ND","ND","ND","ND","ND","ND","ND","0"],
    [52942,"2016-05-20T17:00:00","8.2","ND","ND","ND","ND","ND","ND","ND","ND","ND","ND","0"],
    [52943,"2016-05-20T18:00:00","13.7","ND","ND","ND","ND","ND","ND","ND","ND","ND","ND","0"],
    [52944,"2016-05-20T19:00:00","6.8","ND","ND","ND","ND","ND","ND","ND","ND","ND","ND","0"],
    [52945,"2016-05-20T20:00:00","5.3","ND","ND","ND","ND","ND","ND","ND","ND","ND","ND","0"],
    [52946,"2016-05-20T21:00:00","25.1","ND","ND","ND","ND","ND","ND","ND","ND","ND","ND","0"],
    [52947,"2016-05-20T22:00:00","57.7","ND","ND","ND","ND","ND","ND","ND","ND","ND","ND","0"],
    [52948,"2016-05-20T23:00:00","36.9","ND","ND","ND","ND","ND","ND","ND","ND","ND","ND","0"],
    [52949,"2016-05-21T00:00:00","49.5","ND","ND","ND","ND","ND","ND","ND","ND","ND","ND","0"],
    [52950,"2016-05-21T01:00:00","43.8","ND","ND","ND","ND","ND","ND","ND","ND","ND","ND","0"],
    [52951,"2016-05-21T02:00:00","12.6","ND","ND","ND","ND","ND","ND","ND","ND","ND","ND","0"],
    [52952,"2016-05-21T03:00:00","6.2","ND","ND","ND","ND","ND","ND","ND","ND","ND","ND","0"],
    [52953,"2016-05-21T04:00:00","33.9","ND","ND","ND","ND","ND","ND","ND","ND","ND","ND","0"],
    [52954,"2016-05-21T05:00:00","32.1","ND","ND","ND","ND","ND","ND","ND","ND","ND","ND","0"],
    [52955,"2016-05-21T06:00:00","32.1","ND","ND","ND","ND","ND","ND","ND","ND","ND","ND","0"],
    [52956,"2016-05-21T07:00:00","57.2","ND","ND","ND","ND","ND","ND","ND","ND","ND","ND","0"],
    [52957,"2016-05-21T08:00:00","83.7","ND","ND","ND","ND","ND","ND","ND","ND","ND","ND","0"],
    [52958,"2016-05-21T09:00:00","91.3","ND","ND","ND","ND","ND","ND","ND","ND","ND","ND","0"],
    [52959,"2016-05-21T10:00:00","87.6","ND","ND","ND","ND","ND","ND","ND","ND","ND","ND","0"],
    [52960,"2016-05-21T11:00:00","66.4","ND","ND","ND","ND","ND","ND","ND","ND","ND","ND","0"],
    [52961,"2016-05-21T12:00:00","59.9","ND","ND","ND","ND","ND","ND","ND","ND","ND","ND","0"],
    [52962,"2016-05-21T13:00:00","54.3","ND","ND","ND","ND","ND","ND","ND","ND","ND","ND","0"],
    [52963,"2016-05-21T14:00:00","46.2","ND","ND","ND","ND","ND","ND","ND","ND","ND","ND","0"],
    [52964,"2016-05-21T15:00:00","29","ND","ND","ND","ND","ND","ND","ND","ND","ND","ND","0"],
    [52965,"2016-05-21T16:00:00","11.1","ND","ND","ND","ND","ND","ND","ND","ND","ND","ND","0"],
    [52966,"2016-05-21T17:00:00","19.3","ND","ND","ND","ND","ND","ND","ND","ND","ND","ND","0"],
    [52967,"2016-05-21T18:00:00","16.9","ND","ND","ND","ND","ND","ND","ND","ND","ND","ND","0"],
    [52968,"2016-05-21T19:00:00","9.6","ND","ND","ND","ND","ND","ND","ND","ND","ND","ND","0"],
    [52969,"2016-05-21T20:00:00","15.2","ND","ND","ND","ND","ND","ND","ND","ND","ND","ND","0"],
    [52970,"2016-05-21T21:00:00","32","ND","ND","ND","ND","ND","ND","ND","ND","ND","ND","0"],
    [52971,"2016-05-21T22:00:00","29.5","ND","ND","ND","ND","ND","ND","ND","ND","ND","ND","0"],
    [52972,"2016-05-21T23:00:00","29.5","ND","ND","ND","ND","ND","ND","ND","ND","ND","ND","0"],
    [52973,"2016-05-22T00:00:00","35.7","ND","ND","ND","ND","ND","ND","ND","ND","ND","ND","0"],
    [52974,"2016-05-22T01:00:00","51.1","ND","ND","ND","ND","ND","ND","ND","ND","ND","ND","0"],
    [52975,"2016-05-22T02:00:00","61.6","ND","ND","ND","ND","ND","ND","ND","ND","ND","ND","0"],
    [52976,"2016-05-22T03:00:00","34.3","ND","ND","ND","ND","ND","ND","ND","ND","ND","ND","0.25"],
    [52977,"2016-05-22T04:00:00","19.2","ND","ND","ND","ND","ND","ND","ND","ND","ND","ND","0"],
    [52978,"2016-05-22T05:00:00","23.9","ND","ND","ND","ND","ND","ND","ND","ND","ND","ND","0"],
    [52979,"2016-05-22T06:00:00","25.9","ND","ND","ND","ND","ND","ND","ND","ND","ND","ND","0"],
    [52980,"2016-05-22T07:00:00","27.6","ND","ND","ND","ND","ND","ND","ND","ND","ND","ND","0"],
    [52981,"2016-05-22T08:00:00","36.5","ND","ND","ND","ND","ND","ND","ND","ND","ND","ND","0"],
    [52982,"2016-05-22T09:00:00","32.9","ND","ND","ND","ND","ND","ND","ND","ND","ND","ND","0"],
    [52983,"2016-05-22T10:00:00","27.7","ND","ND","ND","ND","ND","ND","ND","ND","ND","ND","0"],
    [52984,"2016-05-22T11:00:00","31.5","ND","ND","ND","ND","ND","ND","ND","ND","ND","ND","0"],
    [52985,"2016-05-22T12:00:00","37","ND","ND","ND","ND","ND","ND","ND","ND","ND","ND","0"],
    [52986,"2016-05-22T13:00:00","34.6","ND","ND","ND","ND","ND","ND","ND","ND","ND","ND","0"],
    [52987,"2016-05-22T14:00:00","34.2","ND","ND","ND","ND","ND","ND","ND","ND","ND","ND","0"],
    [52988,"2016-05-22T15:00:00","32.3","ND","ND","ND","ND","ND","ND","ND","ND","ND","ND","0"],
    [52989,"2016-05-22T16:00:00","14.1","ND","ND","ND","ND","ND","ND","ND","ND","ND","ND","0"],
    [52990,"2016-05-22T17:00:00","ND","ND","ND","ND","ND","ND","ND","ND","ND","ND","ND","0"],
    [52991,"2016-05-22T18:00:00","5.9","ND","ND","ND","ND","ND","ND","ND","ND","ND","ND","0"],
    [52992,"2016-05-22T19:00:00","10.7","ND","ND","ND","ND","ND","ND","ND","ND","ND","ND","0"],
    [52993,"2016-05-22T20:00:00","3.4","ND","ND","ND","ND","ND","ND","ND","ND","ND","ND","0"],
    [52994,"2016-05-22T21:00:00","18.3","ND","ND","ND","ND","ND","ND","ND","ND","ND","ND","0"],
    [52995,"2016-05-22T22:00:00","21.9","ND","ND","ND","ND","ND","ND","ND","ND","ND","ND","0"],
    [52996,"2016-05-22T23:00:00","27","ND","ND","ND","ND","ND","ND","ND","ND","ND","ND","0"],
    [52997,"2016-05-23T00:00:00","28.9","ND","ND","ND","ND","ND","ND","ND","ND","ND","ND","0"],
    [52998,"2016-05-23T01:00:00","22.9","ND","ND","ND","ND","ND","ND","ND","ND","ND","ND","0"],
    [52999,"2016-05-23T02:00:00","28.9","ND","ND","ND","ND","ND","ND","ND","ND","ND","ND","0"],
    [53000,"2016-05-23T03:00:00","28.4","ND","ND","ND","ND","ND","ND","ND","ND","ND","ND","0"],
    [53001,"2016-05-23T04:00:00","31.6","ND","ND","ND","ND","ND","ND","ND","ND","ND","ND","0"],
    [53002,"2016-05-23T05:00:00","30.1","ND","ND","ND","ND","ND","ND","ND","ND","ND","ND","0"],
    [53003,"2016-05-23T06:00:00","30.5","ND","ND","ND","ND","ND","ND","ND","ND","ND","ND","0"],
    [53004,"2016-05-23T07:00:00","40.4","ND","ND","ND","ND","ND","ND","ND","ND","ND","ND","0"],
    [53005,"2016-05-23T08:00:00","66.3","ND","ND","ND","ND","ND","ND","ND","ND","ND","ND","0"],
    [53006,"2016-05-23T09:00:00","75.9","ND","ND","ND","ND","ND","ND","ND","ND","ND","ND","0"],
    [53007,"2016-05-23T10:00:00","49.4","ND","ND","ND","ND","ND","ND","ND","ND","ND","ND","0"],
    [53008,"2016-05-23T11:00:00","27.1","ND","ND","ND","ND","ND","ND","ND","ND","ND","ND","0"],
    [53009,"2016-05-23T12:00:00","35.8","ND","ND","ND","ND","ND","ND","ND","ND","ND","ND","0"],
    [53010,"2016-05-23T13:00:00","45.4","ND","ND","ND","ND","ND","ND","ND","ND","ND","ND","0"],
    [53011,"2016-05-23T14:00:00","46.9","ND","ND","ND","ND","ND","ND","ND","ND","ND","ND","0"],
    [53012,"2016-05-23T15:00:00","36.7","ND","ND","ND","ND","ND","ND","ND","ND","ND","ND","0"],
    [53013,"2016-05-23T16:00:00","16.5","ND","ND","ND","ND","ND","ND","ND","ND","ND","ND","0"],
    [53014,"2016-05-23T17:00:00","16.7","ND","ND","ND","ND","ND","ND","ND","ND","ND","ND","0"],
    [53015,"2016-05-23T18:00:00","11.3","ND","ND","ND","ND","ND","ND","ND","ND","ND","ND","0"],
    [53016,"2016-05-23T19:00:00","6.8","ND","ND","ND","ND","ND","ND","ND","ND","ND","ND","0"],
    [53017,"2016-05-23T20:00:00","28.7","ND","ND","ND","ND","ND","ND","ND","ND","ND","ND","0"],
    [53018,"2016-05-23T21:00:00","54.9","ND","ND","ND","ND","ND","ND","ND","ND","ND","ND","0"],
    [53019,"2016-05-23T22:00:00","47.7","ND","ND","ND","ND","ND","ND","ND","ND","ND","ND","0"],
    [53020,"2016-05-23T23:00:00","40","ND","ND","ND","ND","ND","ND","ND","ND","ND","ND","0"],
    [53021,"2016-05-24T00:00:00","26.1","ND","ND","ND","ND","ND","ND","ND","ND","ND","ND","0"],
    [53022,"2016-05-24T01:00:00","7.9","ND","ND","ND","ND","ND","ND","ND","ND","ND","ND","0"],
    [53023,"2016-05-24T02:00:00","15.9","ND","ND","ND","ND","ND","ND","ND","ND","ND","ND","0"],
    [53024,"2016-05-24T03:00:00","24.5","ND","ND","ND","ND","ND","ND","ND","ND","ND","ND","0"],
    [53025,"2016-05-24T04:00:00","34.6","ND","ND","ND","ND","ND","ND","ND","ND","ND","ND","0"],
    [53026,"2016-05-24T05:00:00","33.8","ND","ND","ND","ND","ND","ND","ND","ND","ND","ND","0"],
    [53027,"2016-05-24T06:00:00","36.6","ND","ND","ND","ND","ND","ND","ND","ND","ND","ND","0"],
    [53028,"2016-05-24T07:00:00","68.4","ND","ND","ND","ND","ND","ND","ND","ND","ND","ND","0"],
    [53029,"2016-05-24T08:00:00","103.3","ND","ND","ND","ND","ND","ND","ND","ND","ND","ND","0"],
    [53030,"2016-05-24T09:00:00","101.1","ND","ND","ND","ND","ND","ND","ND","ND","ND","ND","0"],
    [53031,"2016-05-24T10:00:00","86.9","ND","ND","ND","ND","ND","ND","ND","ND","ND","ND","0"],
    [53032,"2016-05-24T11:00:00","55.2","ND","ND","ND","ND","ND","ND","ND","ND","ND","ND","0"],
    [53033,"2016-05-24T12:00:00","35.9","ND","ND","ND","ND","ND","ND","ND","ND","ND","ND","0"],
    [53034,"2016-05-24T13:00:00","19.7","ND","ND","ND","ND","ND","ND","ND","ND","ND","ND","0"],
    [53035,"2016-05-24T14:00:00","11.3","ND","ND","ND","ND","ND","ND","ND","ND","ND","ND","0"],
    [53036,"2016-05-24T15:00:00","31.8","ND","ND","ND","ND","ND","ND","ND","ND","ND","ND","0"],
    [53037,"2016-05-24T16:00:00","22.6","ND","ND","ND","ND","ND","ND","ND","ND","ND","ND","0"],
    [53038,"2016-05-24T17:00:00","7.8","ND","ND","ND","ND","ND","ND","ND","ND","ND","ND","0"],
    [53039,"2016-05-24T18:00:00","14","ND","ND","ND","ND","ND","ND","ND","ND","ND","ND","0"],
    [53040,"2016-05-24T19:00:00","20.4","ND","ND","ND","ND","ND","ND","ND","ND","ND","ND","0"],
    [53041,"2016-05-24T20:00:00","50.1","ND","ND","ND","ND","ND","ND","ND","ND","ND","ND","0"],
    [53042,"2016-05-24T21:00:00","52.2","ND","ND","ND","ND","ND","ND","ND","ND","ND","ND","0"],
    [53043,"2016-05-24T22:00:00","45.8","ND","ND","ND","ND","ND","ND","ND","ND","ND","ND","0"],
    [53044,"2016-05-24T23:00:00","51.6","ND","ND","ND","ND","ND","ND","ND","ND","ND","ND","0"],
    [53045,"2016-05-25T00:00:00","44.4","ND","ND","ND","ND","ND","ND","ND","ND","ND","ND","0"],
    [53046,"2016-05-25T01:00:00","24.5","ND","ND","ND","ND","ND","ND","ND","ND","ND","ND","0"],
    [53047,"2016-05-25T02:00:00","32.1","ND","ND","ND","ND","ND","ND","ND","ND","ND","ND","0"],
    [53048,"2016-05-25T03:00:00","36.3","ND","ND","ND","ND","ND","ND","ND","ND","ND","ND","0"],
    [53049,"2016-05-25T04:00:00","38.5","ND","ND","ND","ND","ND","ND","ND","ND","ND","ND","0"],
    [53050,"2016-05-25T05:00:00","42.1","ND","ND","ND","ND","ND","ND","ND","ND","ND","ND","0"],
    [53051,"2016-05-25T06:00:00","36","ND","ND","ND","ND","ND","ND","ND","ND","ND","ND","0"],
    [53052,"2016-05-25T07:00:00","55.7","ND","ND","ND","ND","ND","ND","ND","ND","ND","ND","0"],
    [53053,"2016-05-25T08:00:00","95.8","ND","ND","ND","ND","ND","ND","ND","ND","ND","ND","0"],
    [53054,"2016-05-25T09:00:00","76.7","ND","ND","ND","ND","ND","ND","ND","ND","ND","ND","0"],
    [53055,"2016-05-25T10:00:00","39.6","ND","ND","ND","ND","ND","ND","ND","ND","ND","ND","0"],
    [53056,"2016-05-25T11:00:00","28.1","ND","ND","ND","ND","ND","ND","ND","ND","ND","ND","0"],
    [53057,"2016-05-25T12:00:00","25.4","ND","ND","ND","ND","ND","ND","ND","ND","ND","ND","0"],
    [53058,"2016-05-25T13:00:00","40.6","ND","ND","ND","ND","ND","ND","ND","ND","ND","ND","0"],
    [53059,"2016-05-25T14:00:00","49.1","ND","ND","ND","ND","ND","ND","ND","ND","ND","ND","0"],
    [53060,"2016-05-25T15:00:00","37.3","ND","ND","ND","ND","ND","ND","ND","ND","ND","ND","0"],
    [53061,"2016-05-25T16:00:00","29.1","ND","ND","ND","ND","ND","ND","ND","ND","ND","ND","0"],
    [53062,"2016-05-25T17:00:00","20.4","ND","ND","ND","ND","ND","ND","ND","ND","ND","ND","0"],
    [53063,"2016-05-25T18:00:00","11.5","ND","ND","ND","ND","ND","ND","ND","ND","ND","ND","0"],
    [53064,"2016-05-25T19:00:00","23.2","ND","ND","ND","ND","ND","ND","ND","ND","ND","ND","0"],
    [53065,"2016-05-25T20:00:00","15.9","ND","ND","ND","ND","ND","ND","ND","ND","ND","ND","0"],
    [53066,"2016-05-25T21:00:00","25.1","ND","ND","ND","ND","ND","ND","ND","ND","ND","ND","0"],
    [53067,"2016-05-25T22:00:00","28.8","ND","ND","ND","ND","ND","ND","ND","ND","ND","ND","0"],
    [53068,"2016-05-25T23:00:00","15.9","ND","ND","ND","ND","ND","ND","ND","ND","ND","ND","0"],
    [53069,"2016-05-26T00:00:00","49.2","ND","ND","ND","ND","ND","ND","ND","ND","ND","ND","0"],
    [53070,"2016-05-26T01:00:00","44.4","ND","ND","ND","ND","ND","ND","ND","ND","ND","ND","0"],
    [53071,"2016-05-26T02:00:00","32.5","ND","ND","ND","ND","ND","ND","ND","ND","ND","ND","0"],
    [53072,"2016-05-26T03:00:00","32","ND","ND","ND","ND","ND","ND","ND","ND","ND","ND","0"],
    [53073,"2016-05-26T04:00:00","31.7","ND","ND","ND","ND","ND","ND","ND","ND","ND","ND","0"],
    [53074,"2016-05-26T05:00:00","21.9","ND","ND","ND","ND","ND","ND","ND","ND","ND","ND","9.14"],
    [53075,"2016-05-26T06:00:00","17.8","ND","ND","ND","ND","ND","ND","ND","ND","ND","ND","5.84"],
    [53076,"2016-05-26T07:00:00","6.2","ND","ND","ND","ND","ND","ND","ND","ND","ND","ND","1.78"],
    [53077,"2016-05-26T08:00:00","16.1","ND","ND","ND","ND","ND","ND","ND","ND","ND","ND","1.02"],
    [53078,"2016-05-26T09:00:00","21.2","ND","ND","ND","ND","ND","ND","ND","ND","ND","ND","0"],
    [53079,"2016-05-26T10:00:00","25","ND","ND","ND","ND","ND","ND","ND","ND","ND","ND","0"],
    [53080,"2016-05-26T11:00:00","25.6","ND","ND","ND","ND","ND","ND","ND","ND","ND","ND","0"],
    [53081,"2016-05-26T12:00:00","37.5","ND","ND","ND","ND","ND","ND","ND","ND","ND","ND","0"],
    [53082,"2016-05-26T13:00:00","46.2","ND","ND","ND","ND","ND","ND","ND","ND","ND","ND","0"],
    [53083,"2016-05-26T14:00:00","30.6","ND","ND","ND","ND","ND","ND","ND","ND","ND","ND","0"],
    [53084,"2016-05-26T15:00:00","11.2","ND","ND","ND","ND","ND","ND","ND","ND","ND","ND","0"],
    [53085,"2016-05-26T16:00:00","20.8","ND","ND","ND","ND","ND","ND","ND","ND","ND","ND","0"],
    [53086,"2016-05-26T17:00:00","18.8","ND","ND","ND","ND","ND","ND","ND","ND","ND","ND","0"],
    [53087,"2016-05-26T18:00:00","24.1","ND","ND","ND","ND","ND","ND","ND","ND","ND","ND","0"],
    [53088,"2016-05-26T19:00:00","28.9","ND","ND","ND","ND","ND","ND","ND","ND","ND","ND","0"],
    [53089,"2016-05-26T20:00:00","43.8","ND","ND","ND","ND","ND","ND","ND","ND","ND","ND","0"],
    [53090,"2016-05-26T21:00:00","35.8","ND","ND","ND","ND","ND","ND","ND","ND","ND","ND","0"],
    [53091,"2016-05-26T22:00:00","26","ND","ND","ND","ND","ND","ND","ND","ND","ND","ND","0"],
    [53092,"2016-05-26T23:00:00","14.8","ND","ND","ND","ND","ND","ND","ND","ND","ND","ND","0"],
    [53093,"2016-05-27T00:00:00","105.5","ND","ND","ND","ND","ND","ND","ND","ND","ND","ND","0"],
    [53094,"2016-05-27T01:00:00","121.2","ND","ND","ND","ND","ND","ND","ND","ND","ND","ND","0"],
    [53095,"2016-05-27T02:00:00","71.4","ND","ND","ND","ND","ND","ND","ND","ND","ND","ND","0"],
    [53096,"2016-05-27T03:00:00","50","ND","ND","ND","ND","ND","ND","ND","ND","ND","ND","0.25"],
    [53097,"2016-05-27T04:00:00","39.1","ND","ND","ND","ND","ND","ND","ND","ND","ND","ND","0"],
    [53098,"2016-05-27T05:00:00","45","ND","ND","ND","ND","ND","ND","ND","ND","ND","ND","0"],
    [53099,"2016-05-27T06:00:00","38.3","ND","ND","ND","ND","ND","ND","ND","ND","ND","ND","0"],
    [53100,"2016-05-27T07:00:00","40.2","ND","ND","ND","ND","ND","ND","ND","ND","ND","ND","0"],
    [53101,"2016-05-27T08:00:00","62","ND","ND","ND","ND","ND","ND","ND","ND","ND","ND","0"],
    [53102,"2016-05-27T09:00:00","84.8","ND","ND","ND","ND","ND","ND","ND","ND","ND","ND","0"],
    [53103,"2016-05-27T10:00:00","89.7","ND","ND","ND","ND","ND","ND","ND","ND","ND","ND","0"],
    [53104,"2016-05-27T11:00:00","64.4","ND","ND","ND","ND","ND","ND","ND","ND","ND","ND","0"],
    [53105,"2016-05-27T12:00:00","46.9","ND","ND","ND","ND","ND","ND","ND","ND","ND","ND","0"],
    [53106,"2016-05-27T13:00:00","53.4","ND","ND","ND","ND","ND","ND","ND","ND","ND","ND","0"],
    [53107,"2016-05-27T14:00:00","44.4","ND","ND","ND","ND","ND","ND","ND","ND","ND","ND","0"],
    [53108,"2016-05-27T15:00:00","33","ND","ND","ND","ND","ND","ND","ND","ND","ND","ND","0"],
    [53109,"2016-05-27T16:00:00","24.9","ND","ND","ND","ND","ND","ND","ND","ND","ND","ND","0"],
    [53110,"2016-05-27T17:00:00","29.7","ND","ND","ND","ND","ND","ND","ND","ND","ND","ND","20.07"],
    [53111,"2016-05-27T18:00:00","21.1","ND","ND","ND","ND","ND","ND","ND","ND","ND","ND","0"],
    [53112,"2016-05-27T19:00:00","10.8","ND","ND","ND","ND","ND","ND","ND","ND","ND","ND","0"],
    [53113,"2016-05-27T20:00:00","32.2","ND","ND","ND","ND","ND","ND","ND","ND","ND","ND","0"],
    [53114,"2016-05-27T21:00:00","49.2","ND","ND","ND","ND","ND","ND","ND","ND","ND","ND","0"],
    [53115,"2016-05-27T22:00:00","60.2","ND","ND","ND","ND","ND","ND","ND","ND","ND","ND","0"],
    [53116,"2016-05-27T23:00:00","59.9","ND","ND","ND","ND","ND","ND","ND","ND","ND","ND","0"],
    [53117,"2016-05-28T00:00:00","42.7","ND","ND","ND","ND","ND","ND","ND","ND","ND","ND","0"],
    [53118,"2016-05-28T01:00:00","30.3","ND","ND","ND","ND","ND","ND","ND","ND","ND","ND","0"],
    [53119,"2016-05-28T02:00:00","25.4","ND","ND","ND","ND","ND","ND","ND","ND","ND","ND","0"],
    [53120,"2016-05-28T03:00:00","37.2","ND","ND","ND","ND","ND","ND","ND","ND","ND","ND","0"],
    [53121,"2016-05-28T04:00:00","39.5","ND","ND","ND","ND","ND","ND","ND","ND","ND","ND","0"],
    [53122,"2016-05-28T05:00:00","40.2","ND","ND","ND","ND","ND","ND","ND","ND","ND","ND","0"],
    [53123,"2016-05-28T06:00:00","43.6","ND","ND","ND","ND","ND","ND","ND","ND","ND","ND","0"],
    [53124,"2016-05-28T07:00:00","61","ND","ND","ND","ND","ND","ND","ND","ND","ND","ND","0"],
    [53125,"2016-05-28T08:00:00","89.1","ND","ND","ND","ND","ND","ND","ND","ND","ND","ND","0"],
    [53126,"2016-05-28T09:00:00","99.9","ND","ND","ND","ND","ND","ND","ND","ND","ND","ND","0"],
    [53127,"2016-05-28T10:00:00","85","ND","ND","ND","ND","ND","ND","ND","ND","ND","ND","0"],
    [53128,"2016-05-28T11:00:00","52.1","ND","ND","ND","ND","ND","ND","ND","ND","ND","ND","0"],
    [53129,"2016-05-28T12:00:00","34","ND","ND","ND","ND","ND","ND","ND","ND","ND","ND","0"],
    [53130,"2016-05-28T13:00:00","33.6","ND","ND","ND","ND","ND","ND","ND","ND","ND","ND","0"],
    [53131,"2016-05-28T14:00:00","37.4","ND","ND","ND","ND","ND","ND","ND","ND","ND","ND","0"],
    [53132,"2016-05-28T15:00:00","33.5","ND","ND","ND","ND","ND","ND","ND","ND","ND","ND","0"],
    [53133,"2016-05-28T16:00:00","25","ND","ND","ND","ND","ND","ND","ND","ND","ND","ND","0"],
    [53134,"2016-05-28T17:00:00","0.4","ND","ND","ND","ND","ND","ND","ND","ND","ND","ND","8.13"],
    [53135,"2016-05-28T18:00:00","4","ND","ND","ND","ND","ND","ND","ND","ND","ND","ND","2.03"],
    [53136,"2016-05-28T19:00:00","13.7","ND","ND","ND","ND","ND","ND","ND","ND","ND","ND","2.54"],
    [53137,"2016-05-28T20:00:00","18.1","ND","ND","ND","ND","ND","ND","ND","ND","ND","ND","0.76"],
    [53138,"2016-05-28T21:00:00","15.5","ND","ND","ND","ND","ND","ND","ND","ND","ND","ND","0"],
    [53139,"2016-05-28T22:00:00","13.3","ND","ND","ND","ND","ND","ND","ND","ND","ND","ND","0.25"],
    [53140,"2016-05-28T23:00:00","14.2","ND","ND","ND","ND","ND","ND","ND","ND","ND","ND","0"],
    [53141,"2016-05-29T00:00:00","9","ND","ND","ND","ND","ND","ND","ND","ND","ND","ND","0"],
    [53142,"2016-05-29T01:00:00","20.1","ND","ND","ND","ND","ND","ND","ND","ND","ND","ND","0"],
    [53143,"2016-05-29T02:00:00","29.9","ND","ND","ND","ND","ND","ND","ND","ND","ND","ND","0"],
    [53144,"2016-05-29T03:00:00","31.6","ND","ND","ND","ND","ND","ND","ND","ND","ND","ND","0"],
    [53145,"2016-05-29T04:00:00","28.1","ND","ND","ND","ND","ND","ND","ND","ND","ND","ND","0"],
    [53146,"2016-05-29T05:00:00","34.5","ND","ND","ND","ND","ND","ND","ND","ND","ND","ND","0"],
    [53147,"2016-05-29T06:00:00","35.8","ND","ND","ND","ND","ND","ND","ND","ND","ND","ND","0"],
    [53148,"2016-05-29T07:00:00","27.1","ND","ND","ND","ND","ND","ND","ND","ND","ND","ND","0"],
    [53149,"2016-05-29T08:00:00","42.2","ND","ND","ND","ND","ND","ND","ND","ND","ND","ND","0"],
    [53150,"2016-05-29T09:00:00","54.9","ND","ND","ND","ND","ND","ND","ND","ND","ND","ND","0"],
    [53151,"2016-05-29T10:00:00","56.3","ND","ND","ND","ND","ND","ND","ND","ND","ND","ND","0"],
    [53152,"2016-05-29T11:00:00","40.6","ND","ND","ND","ND","ND","ND","ND","ND","ND","ND","0"],
    [53153,"2016-05-29T12:00:00","28.7","ND","ND","ND","ND","ND","ND","ND","ND","ND","ND","0"],
    [53154,"2016-05-29T13:00:00","21.7","ND","ND","ND","ND","ND","ND","ND","ND","ND","ND","0"],
    [53155,"2016-05-29T14:00:00","19.7","ND","ND","ND","ND","ND","ND","ND","ND","ND","ND","0"],
    [53156,"2016-05-29T15:00:00","21.2","ND","ND","ND","ND","ND","ND","ND","ND","ND","ND","0"],
    [53157,"2016-05-29T16:00:00","7.5","ND","ND","ND","ND","ND","ND","ND","ND","ND","ND","0"],
    [53158,"2016-05-29T17:00:00","ND","ND","ND","ND","ND","ND","ND","ND","ND","ND","ND","0"],
    [53159,"2016-05-29T18:00:00","ND","ND","ND","ND","ND","ND","ND","ND","ND","ND","ND","0"],
    [53160,"2016-05-29T19:00:00","ND","ND","ND","ND","ND","ND","ND","ND","ND","ND","ND","0"],
    [53161,"2016-05-29T20:00:00","2.4","ND","ND","ND","ND","ND","ND","ND","ND","ND","ND","0"],
    [53162,"2016-05-29T21:00:00","18.9","ND","ND","ND","ND","ND","ND","ND","ND","ND","ND","0"],
    [53163,"2016-05-29T22:00:00","29.9","ND","ND","ND","ND","ND","ND","ND","ND","ND","ND","0"],
    [53164,"2016-05-29T23:00:00","32.7","ND","ND","ND","ND","ND","ND","ND","ND","ND","ND","0"],
    [53165,"2016-05-30T00:00:00","26.3","ND","ND","ND","ND","ND","ND","ND","ND","ND","ND","0"],
    [53166,"2016-05-30T01:00:00","19.1","ND","ND","ND","ND","ND","ND","ND","ND","ND","ND","0"],
    [53167,"2016-05-30T02:00:00","18.2","ND","ND","ND","ND","ND","ND","ND","ND","ND","ND","0"],
    [53168,"2016-05-30T03:00:00","14.7","ND","ND","ND","ND","ND","ND","ND","ND","ND","ND","0"],
    [53169,"2016-05-30T04:00:00","31","ND","ND","ND","ND","ND","ND","ND","ND","ND","ND","0"],
    [53170,"2016-05-30T05:00:00","36","ND","ND","ND","ND","ND","ND","ND","ND","ND","ND","0"],
    [53171,"2016-05-30T06:00:00","37.6","ND","ND","ND","ND","ND","ND","ND","ND","ND","ND","0"],
    [53172,"2016-05-30T07:00:00","37.2","ND","ND","ND","ND","ND","ND","ND","ND","ND","ND","0"],
    [53173,"2016-05-30T08:00:00","33.4","ND","ND","ND","ND","ND","ND","ND","ND","ND","ND","0"],
    [53174,"2016-05-30T09:00:00","30","ND","ND","ND","ND","ND","ND","ND","ND","ND","ND","0"],
    [53175,"2016-05-30T10:00:00","17.3","ND","ND","ND","ND","ND","ND","ND","ND","ND","ND","0"],
    [53176,"2016-05-30T11:00:00","13.6","ND","ND","ND","ND","ND","ND","ND","ND","ND","ND","0"],
    [53177,"2016-05-30T12:00:00","17.8","ND","ND","ND","ND","ND","ND","ND","ND","ND","ND","0"],
    [53178,"2016-05-30T13:00:00","23.6","ND","ND","ND","ND","ND","ND","ND","ND","ND","ND","0"],
    [53179,"2016-05-30T14:00:00","35","ND","ND","ND","ND","ND","ND","ND","ND","ND","ND","0"],
    [53180,"2016-05-30T15:00:00","41.2","ND","ND","ND","ND","ND","ND","ND","ND","ND","ND","0"],
    [53181,"2016-05-30T16:00:00","37","ND","ND","ND","ND","ND","ND","ND","ND","ND","ND","0"],
    [53182,"2016-05-30T17:00:00","35.1","ND","ND","ND","ND","ND","ND","ND","ND","ND","ND","0"],
    [53183,"2016-05-30T18:00:00","24.3","ND","ND","ND","ND","ND","ND","ND","ND","ND","ND","0"],
    [53184,"2016-05-30T19:00:00","20","ND","ND","ND","ND","ND","ND","ND","ND","ND","ND","0"],
    [53185,"2016-05-30T20:00:00","10.3","ND","ND","ND","ND","ND","ND","ND","ND","ND","ND","0"],
    [53186,"2016-05-30T21:00:00","16.6","ND","ND","ND","ND","ND","ND","ND","ND","ND","ND","0"],
    [53187,"2016-05-30T22:00:00","24.8","ND","ND","ND","ND","ND","ND","ND","ND","ND","ND","0"],
    [53188,"2016-05-30T23:00:00","23.7","ND","ND","ND","ND","ND","ND","ND","ND","ND","ND","0"],
    [53189,"2016-05-31T00:00:00","21.1","ND","ND","ND","ND","ND","ND","ND","ND","ND","ND","0"],
    [53190,"2016-05-31T01:00:00","18","ND","ND","ND","ND","ND","ND","ND","ND","ND","ND","0.25"],
    [53191,"2016-05-31T02:00:00","21.1","ND","ND","ND","ND","ND","ND","ND","ND","ND","ND","0"],
    [53192,"2016-05-31T03:00:00","10.2","ND","ND","ND","ND","ND","ND","ND","ND","ND","ND","1.78"],
    [53193,"2016-05-31T04:00:00","9.4","ND","ND","ND","ND","ND","ND","ND","ND","ND","ND","6.86"],
    [53194,"2016-05-31T05:00:00","14.1","ND","ND","ND","ND","ND","ND","ND","ND","ND","ND","4.32"],
    [53195,"2016-05-31T06:00:00","8","ND","ND","ND","ND","ND","ND","ND","ND","ND","ND","16.26"],
    [53196,"2016-05-31T07:00:00","7.8","ND","ND","ND","ND","ND","ND","ND","ND","ND","ND","6.35"],
    [53197,"2016-05-31T08:00:00","5.4","ND","ND","ND","ND","ND","ND","ND","ND","ND","ND","0.25"],
    [53198,"2016-05-31T09:00:00","16.8","ND","ND","ND","ND","ND","ND","ND","ND","ND","ND","0.25"],
    [53199,"2016-05-31T10:00:00","19.6","ND","ND","ND","ND","ND","ND","ND","ND","ND","ND","0"],
    [53200,"2016-05-31T11:00:00","15.5","ND","ND","ND","ND","ND","ND","ND","ND","ND","ND","0"],
    [53201,"2016-05-31T12:00:00","12.4","ND","ND","ND","ND","ND","ND","ND","ND","ND","ND","0"],
    [53202,"2016-05-31T13:00:00","17.4","ND","ND","ND","ND","ND","ND","ND","ND","ND","ND","0"],
    [53203,"2016-05-31T14:00:00","10.8","ND","ND","ND","ND","ND","ND","ND","ND","ND","ND","0"],
    [53204,"2016-05-31T15:00:00","9.8","ND","ND","ND","ND","ND","ND","ND","ND","ND","ND","0"],
    [53205,"2016-05-31T16:00:00","18.1","ND","ND","ND","ND","ND","ND","ND","ND","ND","ND","0"],
    [53206,"2016-05-31T17:00:00","18.2","ND","ND","ND","ND","ND","ND","ND","ND","ND","ND","23.11"],
    [53207,"2016-05-31T18:00:00","33.7","ND","ND","ND","ND","ND","ND","ND","ND","ND","ND","0.25"],
    [53208,"2016-05-31T19:00:00","35.3","ND","ND","ND","ND","ND","ND","ND","ND","ND","ND","0"],
    [53209,"2016-05-31T20:00:00","32.9","ND","ND","ND","ND","ND","ND","ND","ND","ND","ND","0"],
    [53210,"2016-05-31T21:00:00","33.5","ND","ND","ND","ND","ND","ND","ND","ND","ND","ND","0"],
    [53211,"2016-05-31T22:00:00","38.9","ND","ND","ND","ND","ND","ND","ND","ND","ND","ND","0"],
    [53212,"2016-05-31T23:00:00","40.6","ND","ND","ND","ND","ND","ND","ND","ND","ND","ND","0"],
    [53213,"2016-06-01T00:00:00","32.4","ND","ND","ND","ND","ND","ND","ND","ND","ND","ND","0"],
    [53214,"2016-06-01T01:00:00","33.8","ND","ND","ND","ND","ND","ND","ND","ND","ND","ND","0"],
    [53215,"2016-06-01T02:00:00","24.9","ND","ND","ND","ND","ND","ND","ND","ND","ND","ND","0"],
    [53216,"2016-06-01T03:00:00","17.6","ND","ND","ND","ND","ND","ND","ND","ND","ND","ND","0"],
    [53217,"2016-06-01T04:00:00","20.9","ND","ND","ND","ND","ND","ND","ND","ND","ND","ND","0"],
    [53218,"2016-06-01T05:00:00","54.8","ND","ND","ND","ND","ND","ND","ND","ND","ND","ND","0"],
    [53219,"2016-06-01T06:00:00","52.8","ND","ND","ND","ND","ND","ND","ND","ND","ND","ND","0"],
    [53220,"2016-06-01T07:00:00","55.5","ND","ND","ND","ND","ND","ND","ND","ND","ND","ND","0"],
    [53221,"2016-06-01T08:00:00","58.2","ND","ND","ND","ND","ND","ND","ND","ND","ND","ND","0"],
    [53222,"2016-06-01T09:00:00","84.9","ND","ND","ND","ND","ND","ND","ND","ND","ND","ND","0"],
    [53223,"2016-06-01T10:00:00","58.2","ND","ND","ND","ND","ND","ND","ND","ND","ND","ND","0"],
    [53224,"2016-06-01T11:00:00","49.5","ND","ND","ND","ND","ND","ND","ND","ND","ND","ND","0"],
    [53225,"2016-06-01T12:00:00","41.4","ND","ND","ND","ND","ND","ND","ND","ND","ND","ND","0"],
    [53226,"2016-06-01T13:00:00","38","ND","ND","ND","ND","ND","ND","ND","ND","ND","ND","0"],
    [53227,"2016-06-01T14:00:00","27.9","ND","ND","ND","ND","ND","ND","ND","ND","ND","ND","0"],
    [53228,"2016-06-01T15:00:00","30.4","ND","ND","ND","ND","ND","ND","ND","ND","ND","ND","0"],
    [53229,"2016-06-01T16:00:00","18.4","ND","ND","ND","ND","ND","ND","ND","ND","ND","ND","0"],
    [53230,"2016-06-01T17:00:00","9.9","ND","ND","ND","ND","ND","ND","ND","ND","ND","ND","0"],
    [53231,"2016-06-01T18:00:00","5.6","ND","ND","ND","ND","ND","ND","ND","ND","ND","ND","0"],
    [53232,"2016-06-01T19:00:00","7.7","ND","ND","ND","ND","ND","ND","ND","ND","ND","ND","0"],
    [53233,"2016-06-01T20:00:00","30","ND","ND","ND","ND","ND","ND","ND","ND","ND","ND","0"],
    [53234,"2016-06-01T21:00:00","39","ND","ND","ND","ND","ND","ND","ND","ND","ND","ND","0"],
    [53235,"2016-06-01T22:00:00","39.6","ND","ND","ND","ND","ND","ND","ND","ND","ND","ND","0"],
    [53236,"2016-06-01T23:00:00","30.2","ND","ND","ND","ND","ND","ND","ND","ND","ND","ND","0"],
    [53237,"2016-06-02T00:00:00","30.7","ND","ND","ND","ND","ND","ND","ND","ND","ND","ND","0"],
    [53238,"2016-06-02T01:00:00","52.4","ND","ND","ND","ND","ND","ND","ND","ND","ND","ND","0"],
    [53239,"2016-06-02T02:00:00","56.8","ND","ND","ND","ND","ND","ND","ND","ND","ND","ND","0"],
    [53240,"2016-06-02T03:00:00","33","ND","ND","ND","ND","ND","ND","ND","ND","ND","ND","0"],
    [53241,"2016-06-02T04:00:00","35.1","ND","ND","ND","ND","ND","ND","ND","ND","ND","ND","0"],
    [53242,"2016-06-02T05:00:00","28","ND","ND","ND","ND","ND","ND","ND","ND","ND","ND","0"],
    [53243,"2016-06-02T06:00:00","37.4","ND","ND","ND","ND","ND","ND","ND","ND","ND","ND","0"],
    [53244,"2016-06-02T07:00:00","48","ND","ND","ND","ND","ND","ND","ND","ND","ND","ND","0"],
    [53245,"2016-06-02T08:00:00","45.8","ND","ND","ND","ND","ND","ND","ND","ND","ND","ND","0"],
    [53246,"2016-06-02T09:00:00","80","ND","ND","ND","ND","ND","ND","ND","ND","ND","ND","0"],
    [53247,"2016-06-02T10:00:00","73.6","ND","ND","ND","ND","ND","ND","ND","ND","ND","ND","0"],
    [53248,"2016-06-02T11:00:00","45.7","ND","ND","ND","ND","ND","ND","ND","ND","ND","ND","0"],
    [53249,"2016-06-02T12:00:00","48.9","ND","ND","ND","ND","ND","ND","ND","ND","ND","ND","0"],
    [53250,"2016-06-02T13:00:00","34.9","ND","ND","ND","ND","ND","ND","ND","ND","ND","ND","0"],
    [53251,"2016-06-02T14:00:00","31.6","ND","ND","ND","ND","ND","ND","ND","ND","ND","ND","0"],
    [53252,"2016-06-02T15:00:00","21.3","ND","ND","ND","ND","ND","ND","ND","ND","ND","ND","0"],
    [53253,"2016-06-02T16:00:00","9.7","ND","ND","ND","ND","ND","ND","ND","ND","ND","ND","0"],
    [53254,"2016-06-02T17:00:00","6.7","ND","ND","ND","ND","ND","ND","ND","ND","ND","ND","0"],
    [53255,"2016-06-02T18:00:00","1.7","ND","ND","ND","ND","ND","ND","ND","ND","ND","ND","0"],
    [53256,"2016-06-02T19:00:00","0.6","ND","ND","ND","ND","ND","ND","ND","ND","ND","ND","0"],
    [53257,"2016-06-02T20:00:00","16","ND","ND","ND","ND","ND","ND","ND","ND","ND","ND","0"],
    [53258,"2016-06-02T21:00:00","39.4","ND","ND","ND","ND","ND","ND","ND","ND","ND","ND","0"],
    [53259,"2016-06-02T22:00:00","54.3","ND","ND","ND","ND","ND","ND","ND","ND","ND","ND","0"],
    [53260,"2016-06-02T23:00:00","57.6","ND","ND","ND","ND","ND","ND","ND","ND","ND","ND","0"],
    [53261,"2016-06-03T00:00:00","47","ND","ND","ND","ND","ND","ND","ND","ND","ND","ND","0"],
    [53262,"2016-06-03T01:00:00","44.3","ND","ND","ND","ND","ND","ND","ND","ND","ND","ND","0"],
    [53263,"2016-06-03T02:00:00","61.6","ND","ND","ND","ND","ND","ND","ND","ND","ND","ND","0"],
    [53264,"2016-06-03T03:00:00","55","ND","ND","ND","ND","ND","ND","ND","ND","ND","ND","0"],
    [53265,"2016-06-03T04:00:00","40.9","ND","ND","ND","ND","ND","ND","ND","ND","ND","ND","0"],
    [53266,"2016-06-03T05:00:00","33.3","ND","ND","ND","ND","ND","ND","ND","ND","ND","ND","0"],
    [53267,"2016-06-03T06:00:00","21.6","ND","ND","ND","ND","ND","ND","ND","ND","ND","ND","0"],
    [53268,"2016-06-03T07:00:00","25.1","ND","ND","ND","ND","ND","ND","ND","ND","ND","ND","0"],
    [53269,"2016-06-03T08:00:00","43.3","ND","ND","ND","ND","ND","ND","ND","ND","ND","ND","0"],
    [53270,"2016-06-03T09:00:00","58.7","ND","ND","ND","ND","ND","ND","ND","ND","ND","ND","0"],
    [53271,"2016-06-03T10:00:00","47.3","ND","ND","ND","ND","ND","ND","ND","ND","ND","ND","0"],
    [53272,"2016-06-03T11:00:00","24.1","ND","ND","ND","ND","ND","ND","ND","ND","ND","ND","0"],
    [53273,"2016-06-03T12:00:00","25.6","ND","ND","ND","ND","ND","ND","ND","ND","ND","ND","0"],
    [53274,"2016-06-03T13:00:00","40","ND","ND","ND","ND","ND","ND","ND","ND","ND","ND","0"],
    [53275,"2016-06-03T14:00:00","20.3","ND","ND","ND","ND","ND","ND","ND","ND","ND","ND","0"],
    [53276,"2016-06-03T15:00:00","13.7","ND","ND","ND","ND","ND","ND","ND","ND","ND","ND","0"],
    [53277,"2016-06-03T16:00:00","21.2","ND","ND","ND","ND","ND","ND","ND","ND","ND","ND","0"],
    [53278,"2016-06-03T17:00:00","25.1","ND","ND","ND","ND","ND","ND","ND","ND","ND","ND","0"],
    [53279,"2016-06-03T18:00:00","21.8","ND","ND","ND","ND","ND","ND","ND","ND","ND","ND","0"],
    [53280,"2016-06-03T19:00:00","29.5","ND","ND","ND","ND","ND","ND","ND","ND","ND","ND","0"],
    [53281,"2016-06-03T20:00:00","52.6","ND","ND","ND","ND","ND","ND","ND","ND","ND","ND","0"],
    [53282,"2016-06-03T21:00:00","59.4","ND","ND","ND","ND","ND","ND","ND","ND","ND","ND","0"],
    [53283,"2016-06-03T22:00:00","72.5","ND","ND","ND","ND","ND","ND","ND","ND","ND","ND","0"],
    [53284,"2016-06-03T23:00:00","54.6","ND","ND","ND","ND","ND","ND","ND","ND","ND","ND","0"],
    [53285,"2016-06-04T00:00:00","40.4","ND","ND","ND","ND","ND","ND","ND","ND","ND","ND","0"],
    [53286,"2016-06-04T01:00:00","44.4","ND","ND","ND","ND","ND","ND","ND","ND","ND","ND","0"],
    [53287,"2016-06-04T02:00:00","32.7","ND","ND","ND","ND","ND","ND","ND","ND","ND","ND","0.51"],
    [53288,"2016-06-04T03:00:00","35.4","ND","ND","ND","ND","ND","ND","ND","ND","ND","ND","0"],
    [53289,"2016-06-04T04:00:00","59.3","ND","ND","ND","ND","ND","ND","ND","ND","ND","ND","0.76"],
    [53290,"2016-06-04T05:00:00","42.1","ND","ND","ND","ND","ND","ND","ND","ND","ND","ND","4.57"],
    [53291,"2016-06-04T06:00:00","19.8","ND","ND","ND","ND","ND","ND","ND","ND","ND","ND","0.25"],
    [53292,"2016-06-04T07:00:00","10.6","ND","ND","ND","ND","ND","ND","ND","ND","ND","ND","0"],
    [53293,"2016-06-04T08:00:00","26.4","ND","ND","ND","ND","ND","ND","ND","ND","ND","ND","0.25"],
    [53294,"2016-06-04T09:00:00","22.9","ND","ND","ND","ND","ND","ND","ND","ND","ND","ND","0"],
    [53295,"2016-06-04T10:00:00","13.8","ND","ND","ND","ND","ND","ND","ND","ND","ND","ND","0"],
    [53296,"2016-06-04T11:00:00","20.4","ND","ND","ND","ND","ND","ND","ND","ND","ND","ND","0"],
    [53297,"2016-06-04T12:00:00","24.4","ND","ND","ND","ND","ND","ND","ND","ND","ND","ND","0"],
    [53298,"2016-06-04T13:00:00","29.8","ND","ND","ND","ND","ND","ND","ND","ND","ND","ND","0"],
    [53299,"2016-06-04T14:00:00","30.4","ND","ND","ND","ND","ND","ND","ND","ND","ND","ND","0"],
    [53300,"2016-06-04T15:00:00","24.4","ND","ND","ND","ND","ND","ND","ND","ND","ND","ND","0"],
    [53301,"2016-06-04T16:00:00","22.7","ND","ND","ND","ND","ND","ND","ND","ND","ND","ND","0"],
    [53302,"2016-06-04T17:00:00","26.8","ND","ND","ND","ND","ND","ND","ND","ND","ND","ND","0"],
    [53303,"2016-06-04T18:00:00","16.6","ND","ND","ND","ND","ND","ND","ND","ND","ND","ND","0"],
    [53304,"2016-06-04T19:00:00","24.6","ND","ND","ND","ND","ND","ND","ND","ND","ND","ND","0"],
    [53305,"2016-06-04T20:00:00","27.8","ND","ND","ND","ND","ND","ND","ND","ND","ND","ND","0"],
    [53306,"2016-06-04T21:00:00","32","ND","ND","ND","ND","ND","ND","ND","ND","ND","ND","0"],
    [53307,"2016-06-04T22:00:00","38.6","ND","ND","ND","ND","ND","ND","ND","ND","ND","ND","0"],
    [53308,"2016-06-04T23:00:00","44.9","ND","ND","ND","ND","ND","ND","ND","ND","ND","ND","0"],
    [53309,"2016-06-05T00:00:00","55","ND","ND","ND","ND","ND","ND","ND","ND","ND","ND","0"],
    [53310,"2016-06-05T01:00:00","59.8","ND","ND","ND","ND","ND","ND","ND","ND","ND","ND","0"],
    [53311,"2016-06-05T02:00:00","76.2","ND","ND","ND","ND","ND","ND","ND","ND","ND","ND","0"],
    [53312,"2016-06-05T03:00:00","57.6","ND","ND","ND","ND","ND","ND","ND","ND","ND","ND","0"],
    [53313,"2016-06-05T04:00:00","35.9","ND","ND","ND","ND","ND","ND","ND","ND","ND","ND","0"],
    [53314,"2016-06-05T05:00:00","43.8","ND","ND","ND","ND","ND","ND","ND","ND","ND","ND","0"],
    [53315,"2016-06-05T06:00:00","46.2","ND","ND","ND","ND","ND","ND","ND","ND","ND","ND","0"],
    [53316,"2016-06-05T07:00:00","52.7","ND","ND","ND","ND","ND","ND","ND","ND","ND","ND","0"],
    [53317,"2016-06-05T08:00:00","60.3","ND","ND","ND","ND","ND","ND","ND","ND","ND","ND","0"],
    [53318,"2016-06-05T09:00:00","69.7","ND","ND","ND","ND","ND","ND","ND","ND","ND","ND","0"],
    [53319,"2016-06-05T10:00:00","57.9","ND","ND","ND","ND","ND","ND","ND","ND","ND","ND","0"],
    [53320,"2016-06-05T11:00:00","46","ND","ND","ND","ND","ND","ND","ND","ND","ND","ND","0"],
    [53321,"2016-06-05T12:00:00","36.1","ND","ND","ND","ND","ND","ND","ND","ND","ND","ND","0"],
    [53322,"2016-06-05T13:00:00","34.4","ND","ND","ND","ND","ND","ND","ND","ND","ND","ND","0"],
    [53323,"2016-06-05T14:00:00","35.7","ND","ND","ND","ND","ND","ND","ND","ND","ND","ND","0"],
    [53324,"2016-06-05T15:00:00","31.8","ND","ND","ND","ND","ND","ND","ND","ND","ND","ND","0"],
    [53325,"2016-06-05T16:00:00","9.3","ND","ND","ND","ND","ND","ND","ND","ND","ND","ND","0"],
    [53326,"2016-06-05T17:00:00","ND","ND","ND","ND","ND","ND","ND","ND","ND","ND","ND","0"],
    [53327,"2016-06-05T18:00:00","ND","ND","ND","ND","ND","ND","ND","ND","ND","ND","ND","0"],
    [53328,"2016-06-05T19:00:00","0.8","ND","ND","ND","ND","ND","ND","ND","ND","ND","ND","0"],
    [53329,"2016-06-05T20:00:00","16.8","ND","ND","ND","ND","ND","ND","ND","ND","ND","ND","0"],
    [53330,"2016-06-05T21:00:00","25.4","ND","ND","ND","ND","ND","ND","ND","ND","ND","ND","0"],
    [53331,"2016-06-05T22:00:00","27.6","ND","ND","ND","ND","ND","ND","ND","ND","ND","ND","0"],
    [53332,"2016-06-05T23:00:00","16.6","ND","ND","ND","ND","ND","ND","ND","ND","ND","ND","0"],
    [53333,"2016-06-06T00:00:00","14.3","ND","ND","ND","ND","ND","ND","ND","ND","ND","ND","0"],
    [53334,"2016-06-06T01:00:00","28.3","ND","ND","ND","ND","ND","ND","ND","ND","ND","ND","0"],
    [53335,"2016-06-06T02:00:00","38.3","ND","ND","ND","ND","ND","ND","ND","ND","ND","ND","0"],
    [53336,"2016-06-06T03:00:00","24.6","ND","ND","ND","ND","ND","ND","ND","ND","ND","ND","0"],
    [53337,"2016-06-06T04:00:00","25.1","ND","ND","ND","ND","ND","ND","ND","ND","ND","ND","0"],
    [53338,"2016-06-06T05:00:00","26.8","ND","ND","ND","ND","ND","ND","ND","ND","ND","ND","0"],
    [53339,"2016-06-06T06:00:00","29.3","ND","ND","ND","ND","ND","ND","ND","ND","ND","ND","0"],
    [53340,"2016-06-06T07:00:00","38.9","ND","ND","ND","ND","ND","ND","ND","ND","ND","ND","0"],
    [53341,"2016-06-06T08:00:00","34.6","ND","ND","ND","ND","ND","ND","ND","ND","ND","ND","0"],
    [53342,"2016-06-06T09:00:00","39.1","ND","ND","ND","ND","ND","ND","ND","ND","ND","ND","0"],
    [53343,"2016-06-06T10:00:00","30.6","ND","ND","ND","ND","ND","ND","ND","ND","ND","ND","0"],
    [53344,"2016-06-06T11:00:00","33.7","ND","ND","ND","ND","ND","ND","ND","ND","ND","ND","0"],
    [53345,"2016-06-06T12:00:00","29.1","ND","ND","ND","ND","ND","ND","ND","ND","ND","ND","0"],
    [53346,"2016-06-06T13:00:00","22.2","ND","ND","ND","ND","ND","ND","ND","ND","ND","ND","0"],
    [53347,"2016-06-06T14:00:00","3.3","ND","ND","ND","ND","ND","ND","ND","ND","ND","ND","0"],
    [53348,"2016-06-06T15:00:00","2.2","ND","ND","ND","ND","ND","ND","ND","ND","ND","ND","0"],
    [53349,"2016-06-06T16:00:00","1.5","ND","ND","ND","ND","ND","ND","ND","ND","ND","ND","0"],
    [53350,"2016-06-06T17:00:00","ND","ND","ND","ND","ND","ND","ND","ND","ND","ND","ND","0"],
    [53351,"2016-06-06T18:00:00","3.7","ND","ND","ND","ND","ND","ND","ND","ND","ND","ND","0"],
    [53352,"2016-06-06T19:00:00","ND","ND","ND","ND","ND","ND","ND","ND","ND","ND","ND","0"],
    [53353,"2016-06-06T20:00:00","10.6","ND","ND","ND","ND","ND","ND","ND","ND","ND","ND","0"],
    [53354,"2016-06-06T21:00:00","25.9","ND","ND","ND","ND","ND","ND","ND","ND","ND","ND","0"],
    [53355,"2016-06-06T22:00:00","24.5","ND","ND","ND","ND","ND","ND","ND","ND","ND","ND","0"],
    [53356,"2016-06-06T23:00:00","25.1","ND","ND","ND","ND","ND","ND","ND","ND","ND","ND","0"],
    [53357,"2016-06-07T00:00:00","21.6","ND","ND","ND","ND","ND","ND","ND","ND","ND","ND","0"],
    [53358,"2016-06-07T01:00:00","27.5","ND","ND","ND","ND","ND","ND","ND","ND","ND","ND","0"],
    [53359,"2016-06-07T02:00:00","40","ND","ND","ND","ND","ND","ND","ND","ND","ND","ND","0"],
    [53360,"2016-06-07T03:00:00","36.4","ND","ND","ND","ND","ND","ND","ND","ND","ND","ND","0"],
    [53361,"2016-06-07T04:00:00","30.4","ND","ND","ND","ND","ND","ND","ND","ND","ND","ND","0"],
    [53362,"2016-06-07T05:00:00","28.6","ND","ND","ND","ND","ND","ND","ND","ND","ND","ND","0"],
    [53363,"2016-06-07T06:00:00","34.8","ND","ND","ND","ND","ND","ND","ND","ND","ND","ND","0"],
    [53364,"2016-06-07T07:00:00","47.5","ND","ND","ND","ND","ND","ND","ND","ND","ND","ND","0"],
    [53365,"2016-06-07T08:00:00","55.5","ND","ND","ND","ND","ND","ND","ND","ND","ND","ND","0"],
    [53366,"2016-06-07T09:00:00","63","ND","ND","ND","ND","ND","ND","ND","ND","ND","ND","0"],
    [53367,"2016-06-07T10:00:00","50.6","ND","ND","ND","ND","ND","ND","ND","ND","ND","ND","0"],
    [53368,"2016-06-07T11:00:00","32.5","ND","ND","ND","ND","ND","ND","ND","ND","ND","ND","0"],
    [53369,"2016-06-07T12:00:00","36.5","ND","ND","ND","ND","ND","ND","ND","ND","ND","ND","0"],
    [53370,"2016-06-07T13:00:00","38","ND","ND","ND","ND","ND","ND","ND","ND","ND","ND","0"],
    [53371,"2016-06-07T14:00:00","34.8","ND","ND","ND","ND","ND","ND","ND","ND","ND","ND","0"],
    [53372,"2016-06-07T15:00:00","35.7","ND","ND","ND","ND","ND","ND","ND","ND","ND","ND","0"],
    [53373,"2016-06-07T16:00:00","14.8","ND","ND","ND","ND","ND","ND","ND","ND","ND","ND","0"],
    [53374,"2016-06-07T17:00:00","11.9","ND","ND","ND","ND","ND","ND","ND","ND","ND","ND","0"],
    [53375,"2016-06-07T18:00:00","5.4","ND","ND","ND","ND","ND","ND","ND","ND","ND","ND","0"],
    [53376,"2016-06-07T19:00:00","18.1","ND","ND","ND","ND","ND","ND","ND","ND","ND","ND","0"],
    [53377,"2016-06-07T20:00:00","59.9","ND","ND","ND","ND","ND","ND","ND","ND","ND","ND","0"],
    [53378,"2016-06-07T21:00:00","63.9","ND","ND","ND","ND","ND","ND","ND","ND","ND","ND","1.78"],
    [53379,"2016-06-07T22:00:00","46.5","ND","ND","ND","ND","ND","ND","ND","ND","ND","ND","0.25"],
    [53380,"2016-06-07T23:00:00","40.7","ND","ND","ND","ND","ND","ND","ND","ND","ND","ND","0.76"],
    [53381,"2016-06-08T00:00:00","13","ND","ND","ND","ND","ND","ND","ND","ND","ND","ND","0.25"],
    [53382,"2016-06-08T01:00:00","2.6","ND","ND","ND","ND","ND","ND","ND","ND","ND","ND","0"],
    [53383,"2016-06-08T02:00:00","2.4","ND","ND","ND","ND","ND","ND","ND","ND","ND","ND","0"],
    [53384,"2016-06-08T03:00:00","13.1","ND","ND","ND","ND","ND","ND","ND","ND","ND","ND","0"],
    [53385,"2016-06-08T04:00:00","24.1","ND","ND","ND","ND","ND","ND","ND","ND","ND","ND","0"],
    [53386,"2016-06-08T05:00:00","32.2","ND","ND","ND","ND","ND","ND","ND","ND","ND","ND","0"],
    [53387,"2016-06-08T06:00:00","25","ND","ND","ND","ND","ND","ND","ND","ND","ND","ND","0"],
    [53388,"2016-06-08T07:00:00","19.6","ND","ND","ND","ND","ND","ND","ND","ND","ND","ND","0"],
    [53389,"2016-06-08T08:00:00","38.2","ND","ND","ND","ND","ND","ND","ND","ND","ND","ND","0"],
    [53390,"2016-06-08T09:00:00","44.7","ND","ND","ND","ND","ND","ND","ND","ND","ND","ND","0"],
    [53391,"2016-06-08T10:00:00","37","ND","ND","ND","ND","ND","ND","ND","ND","ND","ND","0"],
    [53392,"2016-06-08T11:00:00","18.7","ND","ND","ND","ND","ND","ND","ND","ND","ND","ND","0"],
    [53393,"2016-06-08T12:00:00","14.2","ND","ND","ND","ND","ND","ND","ND","ND","ND","ND","0"],
    [53394,"2016-06-08T13:00:00","21.6","ND","ND","ND","ND","ND","ND","ND","ND","ND","ND","0"],
    [53395,"2016-06-08T14:00:00","23.4","ND","ND","ND","ND","ND","ND","ND","ND","ND","ND","0"],
    [53396,"2016-06-08T15:00:00","29.7","ND","ND","ND","ND","ND","ND","ND","ND","ND","ND","0"],
    [53397,"2016-06-08T16:00:00","24.2","ND","ND","ND","ND","ND","ND","ND","ND","ND","ND","0"],
    [53398,"2016-06-08T17:00:00","22.7","ND","ND","ND","ND","ND","ND","ND","ND","ND","ND","0"],
    [53399,"2016-06-08T18:00:00","21","ND","ND","ND","ND","ND","ND","ND","ND","ND","ND","0"],
    [53400,"2016-06-08T19:00:00","13.8","ND","ND","ND","ND","ND","ND","ND","ND","ND","ND","0"],
    [53401,"2016-06-08T20:00:00","8.3","ND","ND","ND","ND","ND","ND","ND","ND","ND","ND","0"],
    [53402,"2016-06-08T21:00:00","23.8","ND","ND","ND","ND","ND","ND","ND","ND","ND","ND","0"],
    [53403,"2016-06-08T22:00:00","57.6","ND","ND","ND","ND","ND","ND","ND","ND","ND","ND","0"],
    [53404,"2016-06-08T23:00:00","43.5","ND","ND","ND","ND","ND","ND","ND","ND","ND","ND","0"],
    [53405,"2016-06-09T00:00:00","35.7","ND","ND","ND","ND","ND","ND","ND","ND","ND","ND","0"],
    [53406,"2016-06-09T01:00:00","34.5","ND","ND","ND","ND","ND","ND","ND","ND","ND","ND","0"],
    [53407,"2016-06-09T02:00:00","31.4","ND","ND","ND","ND","ND","ND","ND","ND","ND","ND","0"],
    [53408,"2016-06-09T03:00:00","51.8","ND","ND","ND","ND","ND","ND","ND","ND","ND","ND","0"],
    [53409,"2016-06-09T04:00:00","66.8","ND","ND","ND","ND","ND","ND","ND","ND","ND","ND","0"],
    [53410,"2016-06-09T05:00:00","46.1","ND","ND","ND","ND","ND","ND","ND","ND","ND","ND","0"],
    [53411,"2016-06-09T06:00:00","41.3","ND","ND","ND","ND","ND","ND","ND","ND","ND","ND","0"],
    [53412,"2016-06-09T07:00:00","33.7","ND","ND","ND","ND","ND","ND","ND","ND","ND","ND","0"],
    [53413,"2016-06-09T08:00:00","43","ND","ND","ND","ND","ND","ND","ND","ND","ND","ND","0"],
    [53414,"2016-06-09T09:00:00","49.7","ND","ND","ND","ND","ND","ND","ND","ND","ND","ND","0"],
    [53415,"2016-06-09T10:00:00","61.3","ND","ND","ND","ND","ND","ND","ND","ND","ND","ND","0"],
    [53416,"2016-06-09T11:00:00","67.2","ND","ND","ND","ND","ND","ND","ND","ND","ND","ND","0"],
    [53417,"2016-06-09T12:00:00","48.2","ND","ND","ND","ND","ND","ND","ND","ND","ND","ND","0"],
    [53418,"2016-06-09T13:00:00","22.5","ND","ND","ND","ND","ND","ND","ND","ND","ND","ND","0"],
    [53419,"2016-06-09T14:00:00","34.6","ND","ND","ND","ND","ND","ND","ND","ND","ND","ND","0"],
    [53420,"2016-06-09T15:00:00","33.5","ND","ND","ND","ND","ND","ND","ND","ND","ND","ND","0"],
    [53421,"2016-06-09T16:00:00","18.5","ND","ND","ND","ND","ND","ND","ND","ND","ND","ND","0"],
    [53422,"2016-06-09T17:00:00","4.8","ND","ND","ND","ND","ND","ND","ND","ND","ND","ND","0"],
    [53423,"2016-06-09T18:00:00","12.4","ND","ND","ND","ND","ND","ND","ND","ND","ND","ND","0"],
    [53424,"2016-06-09T19:00:00","8.5","ND","ND","ND","ND","ND","ND","ND","ND","ND","ND","0"],
    [53425,"2016-06-09T20:00:00","8.1","ND","ND","ND","ND","ND","ND","ND","ND","ND","ND","0"],
    [53426,"2016-06-09T21:00:00","34.3","ND","ND","ND","ND","ND","ND","ND","ND","ND","ND","0"],
    [53427,"2016-06-09T22:00:00","43.1","ND","ND","ND","ND","ND","ND","ND","ND","ND","ND","0"],
    [53428,"2016-06-09T23:00:00","48.1","ND","ND","ND","ND","ND","ND","ND","ND","ND","ND","0"],
    [53429,"2016-06-10T00:00:00","43.5","ND","ND","ND","ND","ND","ND","ND","ND","ND","ND","0"],
    [53430,"2016-06-10T01:00:00","56.9","ND","ND","ND","ND","ND","ND","ND","ND","ND","ND","0"],
    [53431,"2016-06-10T02:00:00","55.2","ND","ND","ND","ND","ND","ND","ND","ND","ND","ND","0"],
    [53432,"2016-06-10T03:00:00","23.4","ND","ND","ND","ND","ND","ND","ND","ND","ND","ND","0"],
    [53433,"2016-06-10T04:00:00","28.7","ND","ND","ND","ND","ND","ND","ND","ND","ND","ND","0"],
    [53434,"2016-06-10T05:00:00","28.3","ND","ND","ND","ND","ND","ND","ND","ND","ND","ND","13.21"],
    [53435,"2016-06-10T06:00:00","30.8","ND","ND","ND","ND","ND","ND","ND","ND","ND","ND","0"],
    [53436,"2016-06-10T07:00:00","44.7","ND","ND","ND","ND","ND","ND","ND","ND","ND","ND","0.25"],
    [53437,"2016-06-10T08:00:00","51.3","ND","ND","ND","ND","ND","ND","ND","ND","ND","ND","0"],
    [53438,"2016-06-10T09:00:00","44","ND","ND","ND","ND","ND","ND","ND","ND","ND","ND","0"],
    [53439,"2016-06-10T10:00:00","40.6","ND","ND","ND","ND","ND","ND","ND","ND","ND","ND","0"],
    [53440,"2016-06-10T11:00:00","44.6","ND","ND","ND","ND","ND","ND","ND","ND","ND","ND","0"],
    [53441,"2016-06-10T12:00:00","37.6","ND","ND","ND","ND","ND","ND","ND","ND","ND","ND","0"],
    [53442,"2016-06-10T13:00:00","24.3","ND","ND","ND","ND","ND","ND","ND","ND","ND","ND","0"],
    [53443,"2016-06-10T14:00:00","19.3","ND","ND","ND","ND","ND","ND","ND","ND","ND","ND","0"],
    [53444,"2016-06-10T15:00:00","22.7","ND","ND","ND","ND","ND","ND","ND","ND","ND","ND","0"],
    [53445,"2016-06-10T16:00:00","32.6","ND","ND","ND","ND","ND","ND","ND","ND","ND","ND","0"],
    [53446,"2016-06-10T17:00:00","31.6","ND","ND","ND","ND","ND","ND","ND","ND","ND","ND","0"],
    [53447,"2016-06-10T18:00:00","27.7","ND","ND","ND","ND","ND","ND","ND","ND","ND","ND","0"],
    [53448,"2016-06-10T19:00:00","25.2","ND","ND","ND","ND","ND","ND","ND","ND","ND","ND","0"],
    [53449,"2016-06-10T20:00:00","23.6","ND","ND","ND","ND","ND","ND","ND","ND","ND","ND","0"],
    [53450,"2016-06-10T21:00:00","30.9","ND","ND","ND","ND","ND","ND","ND","ND","ND","ND","0"],
    [53451,"2016-06-10T22:00:00","38.4","ND","ND","ND","ND","ND","ND","ND","ND","ND","ND","0"],
    [53452,"2016-06-10T23:00:00","20.5","ND","ND","ND","ND","ND","ND","ND","ND","ND","ND","0"],
    [53453,"2016-06-11T00:00:00","24.2","ND","ND","ND","ND","ND","ND","ND","ND","ND","ND","0"],
    [53454,"2016-06-11T01:00:00","30.4","ND","ND","ND","ND","ND","ND","ND","ND","ND","ND","0"],
    [53455,"2016-06-11T02:00:00","31.3","ND","ND","ND","ND","ND","ND","ND","ND","ND","ND","0"],
    [53456,"2016-06-11T03:00:00","27.9","ND","ND","ND","ND","ND","ND","ND","ND","ND","ND","0"],
    [53457,"2016-06-11T04:00:00","65.1","ND","ND","ND","ND","ND","ND","ND","ND","ND","ND","0"],
    [53458,"2016-06-11T05:00:00","67.8","ND","ND","ND","ND","ND","ND","ND","ND","ND","ND","0"],
    [53459,"2016-06-11T06:00:00","41.4","ND","ND","ND","ND","ND","ND","ND","ND","ND","ND","0"],
    [53460,"2016-06-11T07:00:00","40.5","ND","ND","ND","ND","ND","ND","ND","ND","ND","ND","0"],
    [53461,"2016-06-11T08:00:00","57.3","ND","ND","ND","ND","ND","ND","ND","ND","ND","ND","0"],
    [53462,"2016-06-11T09:00:00","75.6","ND","ND","ND","ND","ND","ND","ND","ND","ND","ND","0"],
    [53463,"2016-06-11T10:00:00","64.9","ND","ND","ND","ND","ND","ND","ND","ND","ND","ND","0"],
    [53464,"2016-06-11T11:00:00","42.6","ND","ND","ND","ND","ND","ND","ND","ND","ND","ND","0"],
    [53465,"2016-06-11T12:00:00","52","ND","ND","ND","ND","ND","ND","ND","ND","ND","ND","0"],
    [53466,"2016-06-11T13:00:00","48.5","ND","ND","ND","ND","ND","ND","ND","ND","ND","ND","0"],
    [53467,"2016-06-11T14:00:00","37.6","ND","ND","ND","ND","ND","ND","ND","ND","ND","ND","0"],
    [53468,"2016-06-11T15:00:00","42.3","ND","ND","ND","ND","ND","ND","ND","ND","ND","ND","0"],
    [53469,"2016-06-11T16:00:00","47","ND","ND","ND","ND","ND","ND","ND","ND","ND","ND","0"],
    [53470,"2016-06-11T17:00:00","19.1","ND","ND","ND","ND","ND","ND","ND","ND","ND","ND","0"],
    [53471,"2016-06-11T18:00:00","9.2","ND","ND","ND","ND","ND","ND","ND","ND","ND","ND","0"],
    [53472,"2016-06-11T19:00:00","7.7","ND","ND","ND","ND","ND","ND","ND","ND","ND","ND","0"],
    [53473,"2016-06-11T20:00:00","20.3","ND","ND","ND","ND","ND","ND","ND","ND","ND","ND","0"],
    [53474,"2016-06-11T21:00:00","35","ND","ND","ND","ND","ND","ND","ND","ND","ND","ND","0"],
    [53475,"2016-06-11T22:00:00","34.6","ND","ND","ND","ND","ND","ND","ND","ND","ND","ND","0"],
    [53476,"2016-06-11T23:00:00","27.9","ND","ND","ND","ND","ND","ND","ND","ND","ND","ND","0"],
    [53477,"2016-06-12T00:00:00","32.5","ND","ND","ND","ND","ND","ND","ND","ND","ND","ND","0"],
    [53478,"2016-06-12T01:00:00","45.7","ND","ND","ND","ND","ND","ND","ND","ND","ND","ND","0"],
    [53479,"2016-06-12T02:00:00","37.8","ND","ND","ND","ND","ND","ND","ND","ND","ND","ND","0"],
    [53480,"2016-06-12T03:00:00","40.4","ND","ND","ND","ND","ND","ND","ND","ND","ND","ND","0"],
    [53481,"2016-06-12T04:00:00","33.2","ND","ND","ND","ND","ND","ND","ND","ND","ND","ND","0"],
    [53482,"2016-06-12T05:00:00","66.9","ND","ND","ND","ND","ND","ND","ND","ND","ND","ND","0"],
    [53483,"2016-06-12T06:00:00","49.8","ND","ND","ND","ND","ND","ND","ND","ND","ND","ND","0"],
    [53484,"2016-06-12T07:00:00","27.8","ND","ND","ND","ND","ND","ND","ND","ND","ND","ND","0"],
    [53485,"2016-06-12T08:00:00","52.8","ND","ND","ND","ND","ND","ND","ND","ND","ND","ND","0"],
    [53486,"2016-06-12T09:00:00","60.7","ND","ND","ND","ND","ND","ND","ND","ND","ND","ND","0"],
    [53487,"2016-06-12T10:00:00","70.5","ND","ND","ND","ND","ND","ND","ND","ND","ND","ND","0"],
    [53488,"2016-06-12T11:00:00","39","ND","ND","ND","ND","ND","ND","ND","ND","ND","ND","0"],
    [53489,"2016-06-12T12:00:00","41.7","ND","ND","ND","ND","ND","ND","ND","ND","ND","ND","0"],
    [53490,"2016-06-12T13:00:00","42.8","ND","ND","ND","ND","ND","ND","ND","ND","ND","ND","0"],
    [53491,"2016-06-12T14:00:00","43.4","ND","ND","ND","ND","ND","ND","ND","ND","ND","ND","0"],
    [53492,"2016-06-12T15:00:00","38.4","ND","ND","ND","ND","ND","ND","ND","ND","ND","ND","0"],
    [53493,"2016-06-12T16:00:00","23.6","ND","ND","ND","ND","ND","ND","ND","ND","ND","ND","0"],
    [53494,"2016-06-12T17:00:00","3.3","ND","ND","ND","ND","ND","ND","ND","ND","ND","ND","0"],
    [53495,"2016-06-12T18:00:00","7.2","ND","ND","ND","ND","ND","ND","ND","ND","ND","ND","0"],
    [53496,"2016-06-12T19:00:00","7.2","ND","ND","ND","ND","ND","ND","ND","ND","ND","ND","0"],
    [53497,"2016-06-12T20:00:00","10.7","ND","ND","ND","ND","ND","ND","ND","ND","ND","ND","0"],
    [53498,"2016-06-12T21:00:00","21.3","ND","ND","ND","ND","ND","ND","ND","ND","ND","ND","0"],
    [53499,"2016-06-12T22:00:00","43.1","ND","ND","ND","ND","ND","ND","ND","ND","ND","ND","0"],
    [53500,"2016-06-12T23:00:00","37","ND","ND","ND","ND","ND","ND","ND","ND","ND","ND","0"],
    [53501,"2016-06-13T00:00:00","27.5","ND","ND","ND","ND","ND","ND","ND","ND","ND","ND","0"],
    [53502,"2016-06-13T01:00:00","17.3","ND","ND","ND","ND","ND","ND","ND","ND","ND","ND","0"],
    [53503,"2016-06-13T02:00:00","25.8","ND","ND","ND","ND","ND","ND","ND","ND","ND","ND","0"],
    [53504,"2016-06-13T03:00:00","33.9","ND","ND","ND","ND","ND","ND","ND","ND","ND","ND","0"],
    [53505,"2016-06-13T04:00:00","40.6","ND","ND","ND","ND","ND","ND","ND","ND","ND","ND","0"],
    [53506,"2016-06-13T05:00:00","43.4","ND","ND","ND","ND","ND","ND","ND","ND","ND","ND","0"],
    [53507,"2016-06-13T06:00:00","34.3","ND","ND","ND","ND","ND","ND","ND","ND","ND","ND","0"],
    [53508,"2016-06-13T07:00:00","53.7","ND","ND","ND","ND","ND","ND","ND","ND","ND","ND","0"],
    [53509,"2016-06-13T08:00:00","62.1","ND","ND","ND","ND","ND","ND","ND","ND","ND","ND","0"],
    [53510,"2016-06-13T09:00:00","57","ND","ND","ND","ND","ND","ND","ND","ND","ND","ND","0"],
    [53511,"2016-06-13T10:00:00","60.5","ND","ND","ND","ND","ND","ND","ND","ND","ND","ND","0"],
    [53512,"2016-06-13T11:00:00","56.6","ND","ND","ND","ND","ND","ND","ND","ND","ND","ND","0"],
    [53513,"2016-06-13T12:00:00","45.3","ND","ND","ND","ND","ND","ND","ND","ND","ND","ND","0"],
    [53514,"2016-06-13T13:00:00","40.6","ND","ND","ND","ND","ND","ND","ND","ND","ND","ND","0"],
    [53515,"2016-06-13T14:00:00","38.8","ND","ND","ND","ND","ND","ND","ND","ND","ND","ND","0"],
    [53516,"2016-06-13T15:00:00","12","ND","ND","ND","ND","ND","ND","ND","ND","ND","ND","0"],
    [53517,"2016-06-13T16:00:00","7.3","ND","ND","ND","ND","ND","ND","ND","ND","ND","ND","0"],
    [53518,"2016-06-13T17:00:00","15.4","ND","ND","ND","ND","ND","ND","ND","ND","ND","ND","0"],
    [53519,"2016-06-13T18:00:00","20.7","ND","ND","ND","ND","ND","ND","ND","ND","ND","ND","0"],
    [53520,"2016-06-13T19:00:00","29.6","ND","ND","ND","ND","ND","ND","ND","ND","ND","ND","0"],
    [53521,"2016-06-13T20:00:00","23.9","ND","ND","ND","ND","ND","ND","ND","ND","ND","ND","0"],
    [53522,"2016-06-13T21:00:00","36.3","ND","ND","ND","ND","ND","ND","ND","ND","ND","ND","0"],
    [53523,"2016-06-13T22:00:00","31.8","ND","ND","ND","ND","ND","ND","ND","ND","ND","ND","0"],
    [53524,"2016-06-13T23:00:00","26.2","ND","ND","ND","ND","ND","ND","ND","ND","ND","ND","0"],
    [53525,"2016-06-14T00:00:00","32","ND","ND","ND","ND","ND","ND","ND","ND","ND","ND","0"],
    [53526,"2016-06-14T01:00:00","28.5","ND","ND","ND","ND","ND","ND","ND","ND","ND","ND","0"],
    [53527,"2016-06-14T02:00:00","37.9","ND","ND","ND","ND","ND","ND","ND","ND","ND","ND","0"],
    [53528,"2016-06-14T03:00:00","46.8","ND","ND","ND","ND","ND","ND","ND","ND","ND","ND","0"],
    [53529,"2016-06-14T04:00:00","54.7","ND","ND","ND","ND","ND","ND","ND","ND","ND","ND","0"],
    [53530,"2016-06-14T05:00:00","81.5","ND","ND","ND","ND","ND","ND","ND","ND","ND","ND","0"],
    [53531,"2016-06-14T06:00:00","78","ND","ND","ND","ND","ND","ND","ND","ND","ND","ND","0"],
    [53532,"2016-06-14T07:00:00","74.9","ND","ND","ND","ND","ND","ND","ND","ND","ND","ND","0"],
    [53533,"2016-06-14T08:00:00","78.1","ND","ND","ND","ND","ND","ND","ND","ND","ND","ND","0"],
    [53534,"2016-06-14T09:00:00","83.1","ND","ND","ND","ND","ND","ND","ND","ND","ND","ND","0"],
    [53535,"2016-06-14T10:00:00","56.6","ND","ND","ND","ND","ND","ND","ND","ND","ND","ND","0"],
    [53536,"2016-06-14T11:00:00","41.8","ND","ND","ND","ND","ND","ND","ND","ND","ND","ND","0"],
    [53537,"2016-06-14T12:00:00","36.9","ND","ND","ND","ND","ND","ND","ND","ND","ND","ND","0"],
    [53538,"2016-06-14T13:00:00","40.2","ND","ND","ND","ND","ND","ND","ND","ND","ND","ND","0"],
    [53539,"2016-06-14T14:00:00","36.4","ND","ND","ND","ND","ND","ND","ND","ND","ND","ND","0"],
    [53540,"2016-06-14T15:00:00","29.6","ND","ND","ND","ND","ND","ND","ND","ND","ND","ND","0"],
    [53541,"2016-06-14T16:00:00","22.9","ND","ND","ND","ND","ND","ND","ND","ND","ND","ND","0"],
    [53542,"2016-06-14T17:00:00","30.9","ND","ND","ND","ND","ND","ND","ND","ND","ND","ND","0"],
    [53543,"2016-06-14T18:00:00","24.9","ND","ND","ND","ND","ND","ND","ND","ND","ND","ND","0"],
    [53544,"2016-06-14T19:00:00","16","ND","ND","ND","ND","ND","ND","ND","ND","ND","ND","0"],
    [53545,"2016-06-14T20:00:00","27.6","ND","ND","ND","ND","ND","ND","ND","ND","ND","ND","0"],
    [53546,"2016-06-14T21:00:00","47.6","ND","ND","ND","ND","ND","ND","ND","ND","ND","ND","0"],
    [53547,"2016-06-14T22:00:00","44.4","ND","ND","ND","ND","ND","ND","ND","ND","ND","ND","0"],
    [53548,"2016-06-14T23:00:00","30.5","ND","ND","ND","ND","ND","ND","ND","ND","ND","ND","0"],
    [53549,"2016-06-15T00:00:00","25.3","ND","ND","ND","ND","ND","ND","ND","ND","ND","ND","0"],
    [53550,"2016-06-15T01:00:00","27.2","ND","ND","ND","ND","ND","ND","ND","ND","ND","ND","0"],
    [53551,"2016-06-15T02:00:00","31.8","ND","ND","ND","ND","ND","ND","ND","ND","ND","ND","0"],
    [53552,"2016-06-15T03:00:00","29.8","ND","ND","ND","ND","ND","ND","ND","ND","ND","ND","0"],
    [53553,"2016-06-15T04:00:00","50.8","ND","ND","ND","ND","ND","ND","ND","ND","ND","ND","0"],
    [53554,"2016-06-15T05:00:00","72.7","ND","ND","ND","ND","ND","ND","ND","ND","ND","ND","0"],
    [53555,"2016-06-15T06:00:00","74.9","ND","ND","ND","ND","ND","ND","ND","ND","ND","ND","0"],
    [53556,"2016-06-15T07:00:00","48.9","ND","ND","ND","ND","ND","ND","ND","ND","ND","ND","0"],
    [53557,"2016-06-15T08:00:00","42.4","ND","ND","ND","ND","ND","ND","ND","ND","ND","ND","0"],
    [53558,"2016-06-15T09:00:00","53.1","ND","ND","ND","ND","ND","ND","ND","ND","ND","ND","0"],
    [53559,"2016-06-15T10:00:00","63.2","ND","ND","ND","ND","ND","ND","ND","ND","ND","ND","0"],
    [53560,"2016-06-15T11:00:00","57.3","ND","ND","ND","ND","ND","ND","ND","ND","ND","ND","0"],
    [53561,"2016-06-15T12:00:00","59.1","ND","ND","ND","ND","ND","ND","ND","ND","ND","ND","0"],
    [53562,"2016-06-15T13:00:00","46","ND","ND","ND","ND","ND","ND","ND","ND","ND","ND","0"],
    [53563,"2016-06-15T14:00:00","39.4","ND","ND","ND","ND","ND","ND","ND","ND","ND","ND","0"],
    [53564,"2016-06-15T15:00:00","39.3","ND","ND","ND","ND","ND","ND","ND","ND","ND","ND","0"],
    [53565,"2016-06-15T16:00:00","39.2","ND","ND","ND","ND","ND","ND","ND","ND","ND","ND","0"],
    [53566,"2016-06-15T17:00:00","43.9","ND","ND","ND","ND","ND","ND","ND","ND","ND","ND","0"],
    [53567,"2016-06-15T18:00:00","25.8","ND","ND","ND","ND","ND","ND","ND","ND","ND","ND","0"],
    [53568,"2016-06-15T19:00:00","20.7","ND","ND","ND","ND","ND","ND","ND","ND","ND","ND","0"],
    [53569,"2016-06-15T20:00:00","22.2","ND","ND","ND","ND","ND","ND","ND","ND","ND","ND","0"],
    [53570,"2016-06-15T21:00:00","42.9","ND","ND","ND","ND","ND","ND","ND","ND","ND","ND","0"],
    [53571,"2016-06-15T22:00:00","43.1","ND","ND","ND","ND","ND","ND","ND","ND","ND","ND","0"],
    [53572,"2016-06-15T23:00:00","54.5","ND","ND","ND","ND","ND","ND","ND","ND","ND","ND","0"],
    [53573,"2016-06-16T00:00:00","68.5","ND","ND","ND","ND","ND","ND","ND","ND","ND","ND","0"],
    [53574,"2016-06-16T01:00:00","55.5","ND","ND","ND","ND","ND","ND","ND","ND","ND","ND","0"],
    [53575,"2016-06-16T02:00:00","67.2","ND","ND","ND","ND","ND","ND","ND","ND","ND","ND","0"],
    [53576,"2016-06-16T03:00:00","57.5","ND","ND","ND","ND","ND","ND","ND","ND","ND","ND","0"],
    [53577,"2016-06-16T04:00:00","44.8","ND","ND","ND","ND","ND","ND","ND","ND","ND","ND","0"],
    [53578,"2016-06-16T05:00:00","40.1","ND","ND","ND","ND","ND","ND","ND","ND","ND","ND","0"],
    [53579,"2016-06-16T06:00:00","40.3","ND","ND","ND","ND","ND","ND","ND","ND","ND","ND","0"],
    [53580,"2016-06-16T07:00:00","86.3","ND","ND","ND","ND","ND","ND","ND","ND","ND","ND","0"],
    [53581,"2016-06-16T08:00:00","124","ND","ND","ND","ND","ND","ND","ND","ND","ND","ND","0"],
    [53582,"2016-06-16T09:00:00","120.1","ND","ND","ND","ND","ND","ND","ND","ND","ND","ND","0"],
    [53583,"2016-06-16T10:00:00","94.4","ND","ND","ND","ND","ND","ND","ND","ND","ND","ND","0"],
    [53584,"2016-06-16T11:00:00","80.9","ND","ND","ND","ND","ND","ND","ND","ND","ND","ND","0"],
    [53585,"2016-06-16T12:00:00","46.5","ND","ND","ND","ND","ND","ND","ND","ND","ND","ND","0"],
    [53586,"2016-06-16T13:00:00","36.8","ND","ND","ND","ND","ND","ND","ND","ND","ND","ND","0"],
    [53587,"2016-06-16T14:00:00","50.4","ND","ND","ND","ND","ND","ND","ND","ND","ND","ND","0"],
    [53588,"2016-06-16T15:00:00","56.7","ND","ND","ND","ND","ND","ND","ND","ND","ND","ND","0"],
    [53589,"2016-06-16T16:00:00","52.4","ND","ND","ND","ND","ND","ND","ND","ND","ND","ND","0"],
    [53590,"2016-06-16T17:00:00","20.2","ND","ND","ND","ND","ND","ND","ND","ND","ND","ND","0"],
    [53591,"2016-06-16T18:00:00","8.7","ND","ND","ND","ND","ND","ND","ND","ND","ND","ND","0"],
    [53592,"2016-06-16T19:00:00","22.1","ND","ND","ND","ND","ND","ND","ND","ND","ND","ND","0"],
    [53593,"2016-06-16T20:00:00","22.1","ND","ND","ND","ND","ND","ND","ND","ND","ND","ND","0"],
    [53594,"2016-06-16T21:00:00","26.7","ND","ND","ND","ND","ND","ND","ND","ND","ND","ND","0"],
    [53595,"2016-06-16T22:00:00","47.6","ND","ND","ND","ND","ND","ND","ND","ND","ND","ND","0"],
    [53596,"2016-06-16T23:00:00","44.3","ND","ND","ND","ND","ND","ND","ND","ND","ND","ND","0"],
    [53597,"2016-06-17T00:00:00","51.5","ND","ND","ND","ND","ND","ND","ND","ND","ND","ND","0"],
    [53598,"2016-06-17T01:00:00","65","ND","ND","ND","ND","ND","ND","ND","ND","ND","ND","0"],
    [53599,"2016-06-17T02:00:00","83.4","ND","ND","ND","ND","ND","ND","ND","ND","ND","ND","0"],
    [53600,"2016-06-17T03:00:00","67.9","ND","ND","ND","ND","ND","ND","ND","ND","ND","ND","0"],
    [53601,"2016-06-17T04:00:00","48.1","ND","ND","ND","ND","ND","ND","ND","ND","ND","ND","0"],
    [53602,"2016-06-17T05:00:00","40.1","ND","ND","ND","ND","ND","ND","ND","ND","ND","ND","0"],
    [53603,"2016-06-17T06:00:00","36.3","ND","ND","ND","ND","ND","ND","ND","ND","ND","ND","0"],
    [53604,"2016-06-17T07:00:00","45.9","ND","ND","ND","ND","ND","ND","ND","ND","ND","ND","0"],
    [53605,"2016-06-17T08:00:00","77.8","ND","ND","ND","ND","ND","ND","ND","ND","ND","ND","0"],
    [53606,"2016-06-17T09:00:00","120.9","ND","ND","ND","ND","ND","ND","ND","ND","ND","ND","0"],
    [53607,"2016-06-17T10:00:00","79.9","ND","ND","ND","ND","ND","ND","ND","ND","ND","ND","0"],
    [53608,"2016-06-17T11:00:00","43.2","ND","ND","ND","ND","ND","ND","ND","ND","ND","ND","0"],
    [53609,"2016-06-17T12:00:00","48","ND","ND","ND","ND","ND","ND","ND","ND","ND","ND","0"],
    [53610,"2016-06-17T13:00:00","44.5","ND","ND","ND","ND","ND","ND","ND","ND","ND","ND","0"],
    [53611,"2016-06-17T14:00:00","40.8","ND","ND","ND","ND","ND","ND","ND","ND","ND","ND","0"],
    [53612,"2016-06-17T15:00:00","39.7","ND","ND","ND","ND","ND","ND","ND","ND","ND","ND","0"],
    [53613,"2016-06-17T16:00:00","43.8","ND","ND","ND","ND","ND","ND","ND","ND","ND","ND","0"],
    [53614,"2016-06-17T17:00:00","24.7","ND","ND","ND","ND","ND","ND","ND","ND","ND","ND","0"],
    [53615,"2016-06-17T18:00:00","20.9","ND","ND","ND","ND","ND","ND","ND","ND","ND","ND","0"],
    [53616,"2016-06-17T19:00:00","21.1","ND","ND","ND","ND","ND","ND","ND","ND","ND","ND","0"],
    [53617,"2016-06-17T20:00:00","30.9","ND","ND","ND","ND","ND","ND","ND","ND","ND","ND","0"],
    [53618,"2016-06-17T21:00:00","65.5","ND","ND","ND","ND","ND","ND","ND","ND","ND","ND","0"],
    [53619,"2016-06-17T22:00:00","48.8","ND","ND","ND","ND","ND","ND","ND","ND","ND","ND","0"],
    [53620,"2016-06-17T23:00:00","38.3","ND","ND","ND","ND","ND","ND","ND","ND","ND","ND","0"],
    [53621,"2016-06-18T00:00:00","40.4","ND","ND","ND","ND","ND","ND","ND","ND","ND","ND","0"],
    [53622,"2016-06-18T01:00:00","26.3","ND","ND","ND","ND","ND","ND","ND","ND","ND","ND","0"],
    [53623,"2016-06-18T02:00:00","39.1","ND","ND","ND","ND","ND","ND","ND","ND","ND","ND","0"],
    [53624,"2016-06-18T03:00:00","55","ND","ND","ND","ND","ND","ND","ND","ND","ND","ND","0"],
    [53625,"2016-06-18T04:00:00","50.7","ND","ND","ND","ND","ND","ND","ND","ND","ND","ND","0"],
    [53626,"2016-06-18T05:00:00","41.8","ND","ND","ND","ND","ND","ND","ND","ND","ND","ND","0"],
    [53627,"2016-06-18T06:00:00","49.2","ND","ND","ND","ND","ND","ND","ND","ND","ND","ND","0"],
    [53628,"2016-06-18T07:00:00","54.9","ND","ND","ND","ND","ND","ND","ND","ND","ND","ND","0"],
    [53629,"2016-06-18T08:00:00","72.7","ND","ND","ND","ND","ND","ND","ND","ND","ND","ND","0"],
    [53630,"2016-06-18T09:00:00","131.9","ND","ND","ND","ND","ND","ND","ND","ND","ND","ND","0"],
    [53631,"2016-06-18T10:00:00","113.1","ND","ND","ND","ND","ND","ND","ND","ND","ND","ND","0"],
    [53632,"2016-06-18T11:00:00","63.5","ND","ND","ND","ND","ND","ND","ND","ND","ND","ND","0"],
    [53633,"2016-06-18T12:00:00","54.9","ND","ND","ND","ND","ND","ND","ND","ND","ND","ND","0"],
    [53634,"2016-06-18T13:00:00","49.3","ND","ND","ND","ND","ND","ND","ND","ND","ND","ND","0"],
    [53635,"2016-06-18T14:00:00","44.3","ND","ND","ND","ND","ND","ND","ND","ND","ND","ND","0"],
    [53636,"2016-06-18T15:00:00","28.9","ND","ND","ND","ND","ND","ND","ND","ND","ND","ND","0"],
    [53637,"2016-06-18T16:00:00","32.2","ND","ND","ND","ND","ND","ND","ND","ND","ND","ND","0"],
    [53638,"2016-06-18T17:00:00","14.6","ND","ND","ND","ND","ND","ND","ND","ND","ND","ND","0"],
    [53639,"2016-06-18T18:00:00","6.3","ND","ND","ND","ND","ND","ND","ND","ND","ND","ND","0"],
    [53640,"2016-06-18T19:00:00","5.5","ND","ND","ND","ND","ND","ND","ND","ND","ND","ND","0"],
    [53641,"2016-06-18T20:00:00","21.2","ND","ND","ND","ND","ND","ND","ND","ND","ND","ND","0"],
    [53642,"2016-06-18T21:00:00","24.7","ND","ND","ND","ND","ND","ND","ND","ND","ND","ND","0"],
    [53643,"2016-06-18T22:00:00","44.4","ND","ND","ND","ND","ND","ND","ND","ND","ND","ND","0"],
    [53644,"2016-06-18T23:00:00","48","ND","ND","ND","ND","ND","ND","ND","ND","ND","ND","0"],
    [53645,"2016-06-19T00:00:00","54.5","ND","ND","ND","ND","ND","ND","ND","ND","ND","ND","0"],
    [53646,"2016-06-19T01:00:00","50.2","ND","ND","ND","ND","ND","ND","ND","ND","ND","ND","0"],
    [53647,"2016-06-19T02:00:00","46.3","ND","ND","ND","ND","ND","ND","ND","ND","ND","ND","0"],
    [53648,"2016-06-19T03:00:00","46.6","ND","ND","ND","ND","ND","ND","ND","ND","ND","ND","0"],
    [53649,"2016-06-19T04:00:00","37.7","ND","ND","ND","ND","ND","ND","ND","ND","ND","ND","0"],
    [53650,"2016-06-19T05:00:00","28.2","ND","ND","ND","ND","ND","ND","ND","ND","ND","ND","0"],
    [53651,"2016-06-19T06:00:00","31.4","ND","ND","ND","ND","ND","ND","ND","ND","ND","ND","0"],
    [53652,"2016-06-19T07:00:00","16.9","ND","ND","ND","ND","ND","ND","ND","ND","ND","ND","0"],
    [53653,"2016-06-19T08:00:00","27.7","ND","ND","ND","ND","ND","ND","ND","ND","ND","ND","0"],
    [53654,"2016-06-19T09:00:00","44.7","ND","ND","ND","ND","ND","ND","ND","ND","ND","ND","0"],
    [53655,"2016-06-19T10:00:00","40.3","ND","ND","ND","ND","ND","ND","ND","ND","ND","ND","0"],
    [53656,"2016-06-19T11:00:00","37.2","ND","ND","ND","ND","ND","ND","ND","ND","ND","ND","0"],
    [53657,"2016-06-19T12:00:00","37.7","ND","ND","ND","ND","ND","ND","ND","ND","ND","ND","0"],
    [53658,"2016-06-19T13:00:00","33.5","ND","ND","ND","ND","ND","ND","ND","ND","ND","ND","0"],
    [53659,"2016-06-19T14:00:00","33.1","ND","ND","ND","ND","ND","ND","ND","ND","ND","ND","0"],
    [53660,"2016-06-19T15:00:00","29","ND","ND","ND","ND","ND","ND","ND","ND","ND","ND","0"],
    [53661,"2016-06-19T16:00:00","21.4","ND","ND","ND","ND","ND","ND","ND","ND","ND","ND","0"],
    [53662,"2016-06-19T17:00:00","10.9","ND","ND","ND","ND","ND","ND","ND","ND","ND","ND","0"],
    [53663,"2016-06-19T18:00:00","1","ND","ND","ND","ND","ND","ND","ND","ND","ND","ND","0"],
    [53664,"2016-06-19T19:00:00","8.6","ND","ND","ND","ND","ND","ND","ND","ND","ND","ND","0"],
    [53665,"2016-06-19T20:00:00","18.6","ND","ND","ND","ND","ND","ND","ND","ND","ND","ND","0"],
    [53666,"2016-06-19T21:00:00","25.3","ND","ND","ND","ND","ND","ND","ND","ND","ND","ND","5.59"],
    [53667,"2016-06-19T22:00:00","41.6","ND","ND","ND","ND","ND","ND","ND","ND","ND","ND","0.51"],
    [53668,"2016-06-19T23:00:00","44.2","ND","ND","ND","ND","ND","ND","ND","ND","ND","ND","0"],
    [53669,"2016-06-20T00:00:00","22.8","ND","ND","ND","ND","ND","ND","ND","ND","ND","ND","0"],
    [53670,"2016-06-20T01:00:00","5.6","ND","ND","ND","ND","ND","ND","ND","ND","ND","ND","15.75"],
    [53671,"2016-06-20T02:00:00","12.4","ND","ND","ND","ND","ND","ND","ND","ND","ND","ND","10.41"],
    [53672,"2016-06-20T03:00:00","20.7","ND","ND","ND","ND","ND","ND","ND","ND","ND","ND","5.08"],
    [53673,"2016-06-20T04:00:00","10.9","ND","ND","ND","ND","ND","ND","ND","ND","ND","ND","0"],
    [53674,"2016-06-20T05:00:00","13.4","ND","ND","ND","ND","ND","ND","ND","ND","ND","ND","4.83"],
    [53675,"2016-06-20T06:00:00","5.7","ND","ND","ND","ND","ND","ND","ND","ND","ND","ND","24.64"],
    [53676,"2016-06-20T07:00:00","5.8","ND","ND","ND","ND","ND","ND","ND","ND","ND","ND","7.87"],
    [53677,"2016-06-20T08:00:00","14.1","ND","ND","ND","ND","ND","ND","ND","ND","ND","ND","0.25"],
    [53678,"2016-06-20T09:00:00","19.4","ND","ND","ND","ND","ND","ND","ND","ND","ND","ND","0"],
    [53679,"2016-06-20T10:00:00","33.3","ND","ND","ND","ND","ND","ND","ND","ND","ND","ND","0"],
    [53680,"2016-06-20T11:00:00","23.8","ND","ND","ND","ND","ND","ND","ND","ND","ND","ND","0"],
    [53681,"2016-06-20T12:00:00","22.1","ND","ND","ND","ND","ND","ND","ND","ND","ND","ND","0"],
    [53682,"2016-06-20T13:00:00","18.1","ND","ND","ND","ND","ND","ND","ND","ND","ND","ND","0"],
    [53683,"2016-06-20T14:00:00","24.2","ND","ND","ND","ND","ND","ND","ND","ND","ND","ND","0"],
    [53684,"2016-06-20T15:00:00","25.3","ND","ND","ND","ND","ND","ND","ND","ND","ND","ND","0"],
    [53685,"2016-06-20T16:00:00","13.5","ND","ND","ND","ND","ND","ND","ND","ND","ND","ND","0"],
    [53686,"2016-06-20T17:00:00","4.2","ND","ND","ND","ND","ND","ND","ND","ND","ND","ND","1.02"],
    [53687,"2016-06-20T18:00:00","6.5","ND","ND","ND","ND","ND","ND","ND","ND","ND","ND","12.45"],
    [53688,"2016-06-20T19:00:00","2.2","ND","ND","ND","ND","ND","ND","ND","ND","ND","ND","0.51"],
    [53689,"2016-06-20T20:00:00","27.9","ND","ND","ND","ND","ND","ND","ND","ND","ND","ND","2.03"],
    [53690,"2016-06-20T21:00:00","32.8","ND","ND","ND","ND","ND","ND","ND","ND","ND","ND","0.25"],
    [53691,"2016-06-20T22:00:00","23.6","ND","ND","ND","ND","ND","ND","ND","ND","ND","ND","0"],
    [53692,"2016-06-20T23:00:00","20.9","ND","ND","ND","ND","ND","ND","ND","ND","ND","ND","0"],
    [53693,"2016-06-21T00:00:00","17.7","ND","ND","ND","ND","ND","ND","ND","ND","ND","ND","0"],
    [53694,"2016-06-21T01:00:00","23.9","ND","ND","ND","ND","ND","ND","ND","ND","ND","ND","0"],
    [53695,"2016-06-21T02:00:00","24.1","ND","ND","ND","ND","ND","ND","ND","ND","ND","ND","0"],
    [53696,"2016-06-21T03:00:00","14.2","ND","ND","ND","ND","ND","ND","ND","ND","ND","ND","0"],
    [53697,"2016-06-21T04:00:00","12.9","ND","ND","ND","ND","ND","ND","ND","ND","ND","ND","0"],
    [53698,"2016-06-21T05:00:00","10.4","ND","ND","ND","ND","ND","ND","ND","ND","ND","ND","0"],
    [53699,"2016-06-21T06:00:00","26.2","ND","ND","ND","ND","ND","ND","ND","ND","ND","ND","0"],
    [53700,"2016-06-21T07:00:00","41.3","ND","ND","ND","ND","ND","ND","ND","ND","ND","ND","0.25"],
    [53701,"2016-06-21T08:00:00","58.1","ND","ND","ND","ND","ND","ND","ND","ND","ND","ND","0"],
    [53702,"2016-06-21T09:00:00","56","ND","ND","ND","ND","ND","ND","ND","ND","ND","ND","0"],
    [53703,"2016-06-21T10:00:00","44.8","ND","ND","ND","ND","ND","ND","ND","ND","ND","ND","0"],
    [53704,"2016-06-21T11:00:00","65.5","ND","ND","ND","ND","ND","ND","ND","ND","ND","ND","0"],
    [53705,"2016-06-21T12:00:00","54.1","ND","ND","ND","ND","ND","ND","ND","ND","ND","ND","0"],
    [53706,"2016-06-21T13:00:00","51.5","ND","ND","ND","ND","ND","ND","ND","ND","ND","ND","0"],
    [53707,"2016-06-21T14:00:00","45.8","ND","ND","ND","ND","ND","ND","ND","ND","ND","ND","0"],
    [53708,"2016-06-21T15:00:00","32.3","ND","ND","ND","ND","ND","ND","ND","ND","ND","ND","0"],
    [53709,"2016-06-21T16:00:00","32.2","ND","ND","ND","ND","ND","ND","ND","ND","ND","ND","0"],
    [53710,"2016-06-21T17:00:00","32.4","ND","ND","ND","ND","ND","ND","ND","ND","ND","ND","0"],
    [53711,"2016-06-21T18:00:00","21.7","ND","ND","ND","ND","ND","ND","ND","ND","ND","ND","0"],
    [53712,"2016-06-21T19:00:00","23.4","ND","ND","ND","ND","ND","ND","ND","ND","ND","ND","0"],
    [53713,"2016-06-21T20:00:00","20.5","ND","ND","ND","ND","ND","ND","ND","ND","ND","ND","0"],
    [53714,"2016-06-21T21:00:00","18.9","ND","ND","ND","ND","ND","ND","ND","ND","ND","ND","0"],
    [53715,"2016-06-21T22:00:00","32.1","ND","ND","ND","ND","ND","ND","ND","ND","ND","ND","0"],
    [53716,"2016-06-21T23:00:00","41.3","ND","ND","ND","ND","ND","ND","ND","ND","ND","ND","0"],
    [53717,"2016-06-22T00:00:00","33.4","ND","ND","ND","ND","ND","ND","ND","ND","ND","ND","0"],
    [53718,"2016-06-22T01:00:00","30.1","ND","ND","ND","ND","ND","ND","ND","ND","ND","ND","0"],
    [53719,"2016-06-22T02:00:00","43.2","ND","ND","ND","ND","ND","ND","ND","ND","ND","ND","0"],
    [53720,"2016-06-22T03:00:00","50.6","ND","ND","ND","ND","ND","ND","ND","ND","ND","ND","0"],
    [53721,"2016-06-22T04:00:00","34.3","ND","ND","ND","ND","ND","ND","ND","ND","ND","ND","0"],
    [53722,"2016-06-22T05:00:00","34.5","ND","ND","ND","ND","ND","ND","ND","ND","ND","ND","0"],
    [53723,"2016-06-22T06:00:00","46.7","ND","ND","ND","ND","ND","ND","ND","ND","ND","ND","0"],
    [53724,"2016-06-22T07:00:00","51.8","ND","ND","ND","ND","ND","ND","ND","ND","ND","ND","0"],
    [53725,"2016-06-22T08:00:00","71","ND","ND","ND","ND","ND","ND","ND","ND","ND","ND","0"],
    [53726,"2016-06-22T09:00:00","113.6","ND","ND","ND","ND","ND","ND","ND","ND","ND","ND","0"],
    [53727,"2016-06-22T10:00:00","80.2","ND","ND","ND","ND","ND","ND","ND","ND","ND","ND","0"],
    [53728,"2016-06-22T11:00:00","42.5","ND","ND","ND","ND","ND","ND","ND","ND","ND","ND","0"],
    [53729,"2016-06-22T12:00:00","12.6","ND","ND","ND","ND","ND","ND","ND","ND","ND","ND","0"],
    [53730,"2016-06-22T13:00:00","29.5","ND","ND","ND","ND","ND","ND","ND","ND","ND","ND","0"],
    [53731,"2016-06-22T14:00:00","47.6","ND","ND","ND","ND","ND","ND","ND","ND","ND","ND","0"],
    [53732,"2016-06-22T15:00:00","41.4","ND","ND","ND","ND","ND","ND","ND","ND","ND","ND","0"],
    [53733,"2016-06-22T16:00:00","45","ND","ND","ND","ND","ND","ND","ND","ND","ND","ND","0"],
    [53734,"2016-06-22T17:00:00","23.7","ND","ND","ND","ND","ND","ND","ND","ND","ND","ND","0"],
    [53735,"2016-06-22T18:00:00","14.3","ND","ND","ND","ND","ND","ND","ND","ND","ND","ND","0"],
    [53736,"2016-06-22T19:00:00","9.8","ND","ND","ND","ND","ND","ND","ND","ND","ND","ND","0"],
    [53737,"2016-06-22T20:00:00","19.4","ND","ND","ND","ND","ND","ND","ND","ND","ND","ND","0"],
    [53738,"2016-06-22T21:00:00","30.8","ND","ND","ND","ND","ND","ND","ND","ND","ND","ND","0"],
    [53739,"2016-06-22T22:00:00","41.1","ND","ND","ND","ND","ND","ND","ND","ND","ND","ND","0"],
    [53740,"2016-06-22T23:00:00","36.7","ND","ND","ND","ND","ND","ND","ND","ND","ND","ND","0"],
    [53741,"2016-06-23T00:00:00","35.3","ND","ND","ND","ND","ND","ND","ND","ND","ND","ND","0"],
    [53742,"2016-06-23T01:00:00","41.8","ND","ND","ND","ND","ND","ND","ND","ND","ND","ND","0"],
    [53743,"2016-06-23T02:00:00","58.9","ND","ND","ND","ND","ND","ND","ND","ND","ND","ND","0"],
    [53744,"2016-06-23T03:00:00","47.8","ND","ND","ND","ND","ND","ND","ND","ND","ND","ND","0"],
    [53745,"2016-06-23T04:00:00","39.7","ND","ND","ND","ND","ND","ND","ND","ND","ND","ND","0"],
    [53746,"2016-06-23T05:00:00","37.6","ND","ND","ND","ND","ND","ND","ND","ND","ND","ND","0"],
    [53747,"2016-06-23T06:00:00","44.2","ND","ND","ND","ND","ND","ND","ND","ND","ND","ND","0"],
    [53748,"2016-06-23T07:00:00","49.7","ND","ND","ND","ND","ND","ND","ND","ND","ND","ND","0"],
    [53749,"2016-06-23T08:00:00","47.4","ND","ND","ND","ND","ND","ND","ND","ND","ND","ND","0"],
    [53750,"2016-06-23T09:00:00","72.1","ND","ND","ND","ND","ND","ND","ND","ND","ND","ND","0"],
    [53751,"2016-06-23T10:00:00","89.2","ND","ND","ND","ND","ND","ND","ND","ND","ND","ND","0"],
    [53752,"2016-06-23T11:00:00","53.5","ND","ND","ND","ND","ND","ND","ND","ND","ND","ND","0"],
    [53753,"2016-06-23T12:00:00","42.3","ND","ND","ND","ND","ND","ND","ND","ND","ND","ND","0"],
    [53754,"2016-06-23T13:00:00","47.2","ND","ND","ND","ND","ND","ND","ND","ND","ND","ND","0"],
    [53755,"2016-06-23T14:00:00","50.9","ND","ND","ND","ND","ND","ND","ND","ND","ND","ND","0"],
    [53756,"2016-06-23T15:00:00","45.2","ND","ND","ND","ND","ND","ND","ND","ND","ND","ND","0"],
    [53757,"2016-06-23T16:00:00","37.5","ND","ND","ND","ND","ND","ND","ND","ND","ND","ND","0"],
    [53758,"2016-06-23T17:00:00","25.7","ND","ND","ND","ND","ND","ND","ND","ND","ND","ND","0"],
    [53759,"2016-06-23T18:00:00","16.5","ND","ND","ND","ND","ND","ND","ND","ND","ND","ND","0"],
    [53760,"2016-06-23T19:00:00","14.2","ND","ND","ND","ND","ND","ND","ND","ND","ND","ND","0"],
    [53761,"2016-06-23T20:00:00","18","ND","ND","ND","ND","ND","ND","ND","ND","ND","ND","0"],
    [53762,"2016-06-23T21:00:00","32.2","ND","ND","ND","ND","ND","ND","ND","ND","ND","ND","0"],
    [53763,"2016-06-23T22:00:00","40.4","ND","ND","ND","ND","ND","ND","ND","ND","ND","ND","0"],
    [53764,"2016-06-23T23:00:00","43.5","ND","ND","ND","ND","ND","ND","ND","ND","ND","ND","0"],
    [53765,"2016-06-24T00:00:00","52.9","ND","ND","ND","ND","ND","ND","ND","ND","ND","ND","0"],
    [53766,"2016-06-24T01:00:00","29.6","ND","ND","ND","ND","ND","ND","ND","ND","ND","ND","0"],
    [53767,"2016-06-24T02:00:00","23.5","ND","ND","ND","ND","ND","ND","ND","ND","ND","ND","0"],
    [53768,"2016-06-24T03:00:00","22.3","ND","ND","ND","ND","ND","ND","ND","ND","ND","ND","0"],
    [53769,"2016-06-24T04:00:00","39.8","ND","ND","ND","ND","ND","ND","ND","ND","ND","ND","0"],
    [53770,"2016-06-24T05:00:00","48.8","ND","ND","ND","ND","ND","ND","ND","ND","ND","ND","0"],
    [53771,"2016-06-24T06:00:00","51.8","ND","ND","ND","ND","ND","ND","ND","ND","ND","ND","0"],
    [53772,"2016-06-24T07:00:00","42.9","ND","ND","ND","ND","ND","ND","ND","ND","ND","ND","0"],
    [53773,"2016-06-24T08:00:00","59.9","ND","ND","ND","ND","ND","ND","ND","ND","ND","ND","0"],
    [53774,"2016-06-24T09:00:00","83.2","ND","ND","ND","ND","ND","ND","ND","ND","ND","ND","0"],
    [53775,"2016-06-24T10:00:00","78.8","ND","ND","ND","ND","ND","ND","ND","ND","ND","ND","0"],
    [53776,"2016-06-24T11:00:00","75","ND","ND","ND","ND","ND","ND","ND","ND","ND","ND","0"],
    [53777,"2016-06-24T12:00:00","62.5","ND","ND","ND","ND","ND","ND","ND","ND","ND","ND","0"],
    [53778,"2016-06-24T13:00:00","45.6","ND","ND","ND","ND","ND","ND","ND","ND","ND","ND","0"],
    [53779,"2016-06-24T14:00:00","51.2","ND","ND","ND","ND","ND","ND","ND","ND","ND","ND","0"],
    [53780,"2016-06-24T15:00:00","25.8","ND","ND","ND","ND","ND","ND","ND","ND","ND","ND","0"],
    [53781,"2016-06-24T16:00:00","12.4","ND","ND","ND","ND","ND","ND","ND","ND","ND","ND","0"],
    [53782,"2016-06-24T17:00:00","1.2","ND","ND","ND","ND","ND","ND","ND","ND","ND","ND","0"],
    [53783,"2016-06-24T18:00:00","7.2","ND","ND","ND","ND","ND","ND","ND","ND","ND","ND","0"],
    [53784,"2016-06-24T19:00:00","3.7","ND","ND","ND","ND","ND","ND","ND","ND","ND","ND","0"],
    [53785,"2016-06-24T20:00:00","13.9","ND","ND","ND","ND","ND","ND","ND","ND","ND","ND","0"],
    [53786,"2016-06-24T21:00:00","28.2","ND","ND","ND","ND","ND","ND","ND","ND","ND","ND","0"],
    [53787,"2016-06-24T22:00:00","39.2","ND","ND","ND","ND","ND","ND","ND","ND","ND","ND","0"],
    [53788,"2016-06-24T23:00:00","32.3","ND","ND","ND","ND","ND","ND","ND","ND","ND","ND","0"],
    [53789,"2016-06-25T00:00:00","20.4","ND","ND","ND","ND","ND","ND","ND","ND","ND","ND","0"],
    [53790,"2016-06-25T01:00:00","21","ND","ND","ND","ND","ND","ND","ND","ND","ND","ND","0"],
    [53791,"2016-06-25T02:00:00","35.3","ND","ND","ND","ND","ND","ND","ND","ND","ND","ND","0"],
    [53792,"2016-06-25T03:00:00","23.4","ND","ND","ND","ND","ND","ND","ND","ND","ND","ND","0"],
    [53793,"2016-06-25T04:00:00","19.8","ND","ND","ND","ND","ND","ND","ND","ND","ND","ND","0"],
    [53794,"2016-06-25T05:00:00","28.7","ND","ND","ND","ND","ND","ND","ND","ND","ND","ND","0"],
    [53795,"2016-06-25T06:00:00","19.4","ND","ND","ND","ND","ND","ND","ND","ND","ND","ND","0"],
    [53796,"2016-06-25T07:00:00","38.7","ND","ND","ND","ND","ND","ND","ND","ND","ND","ND","0"],
    [53797,"2016-06-25T08:00:00","79.6","ND","ND","ND","ND","ND","ND","ND","ND","ND","ND","0"],
    [53798,"2016-06-25T09:00:00","87.5","ND","ND","ND","ND","ND","ND","ND","ND","ND","ND","0"],
    [53799,"2016-06-25T10:00:00","71.2","ND","ND","ND","ND","ND","ND","ND","ND","ND","ND","0"],
    [53800,"2016-06-25T11:00:00","53.2","ND","ND","ND","ND","ND","ND","ND","ND","ND","ND","0"],
    [53801,"2016-06-25T12:00:00","42.7","ND","ND","ND","ND","ND","ND","ND","ND","ND","ND","0"],
    [53802,"2016-06-25T13:00:00","24.3","ND","ND","ND","ND","ND","ND","ND","ND","ND","ND","0"],
    [53803,"2016-06-25T14:00:00","30.1","ND","ND","ND","ND","ND","ND","ND","ND","ND","ND","0"],
    [53804,"2016-06-25T15:00:00","20.4","ND","ND","ND","ND","ND","ND","ND","ND","ND","ND","0"],
    [53805,"2016-06-25T16:00:00","28.4","ND","ND","ND","ND","ND","ND","ND","ND","ND","ND","0"],
    [53806,"2016-06-25T17:00:00","25.6","ND","ND","ND","ND","ND","ND","ND","ND","ND","ND","0"],
    [53807,"2016-06-25T18:00:00","16.4","ND","ND","ND","ND","ND","ND","ND","ND","ND","ND","0"],
    [53808,"2016-06-25T19:00:00","8.5","ND","ND","ND","ND","ND","ND","ND","ND","ND","ND","0"],
    [53809,"2016-06-25T20:00:00","10.3","ND","ND","ND","ND","ND","ND","ND","ND","ND","ND","0"],
    [53810,"2016-06-25T21:00:00","26.2","ND","ND","ND","ND","ND","ND","ND","ND","ND","ND","0"],
    [53811,"2016-06-25T22:00:00","34.1","ND","ND","ND","ND","ND","ND","ND","ND","ND","ND","0"],
    [53812,"2016-06-25T23:00:00","50.8","ND","ND","ND","ND","ND","ND","ND","ND","ND","ND","0"],
    [53813,"2016-06-26T00:00:00","62.9","ND","ND","ND","ND","ND","ND","ND","ND","ND","ND","0"],
    [53814,"2016-06-26T01:00:00","53.8","ND","ND","ND","ND","ND","ND","ND","ND","ND","ND","0"],
    [53815,"2016-06-26T02:00:00","37.7","ND","ND","ND","ND","ND","ND","ND","ND","ND","ND","0"],
    [53816,"2016-06-26T03:00:00","34.6","ND","ND","ND","ND","ND","ND","ND","ND","ND","ND","0"],
    [53817,"2016-06-26T04:00:00","31.5","ND","ND","ND","ND","ND","ND","ND","ND","ND","ND","0"],
    [53818,"2016-06-26T05:00:00","28.4","ND","ND","ND","ND","ND","ND","ND","ND","ND","ND","0"],
    [53819,"2016-06-26T06:00:00","26.3","ND","ND","ND","ND","ND","ND","ND","ND","ND","ND","0"],
    [53820,"2016-06-26T07:00:00","31.8","ND","ND","ND","ND","ND","ND","ND","ND","ND","ND","36.58"],
    [53821,"2016-06-26T08:00:00","32.7","ND","ND","ND","ND","ND","ND","ND","ND","ND","ND","3.3"],
    [53822,"2016-06-26T09:00:00","13.6","ND","ND","ND","ND","ND","ND","ND","ND","ND","ND","0.51"],
    [53823,"2016-06-26T10:00:00","11.8","ND","ND","ND","ND","ND","ND","ND","ND","ND","ND","0.25"],
    [53824,"2016-06-26T11:00:00","18.9","ND","ND","ND","ND","ND","ND","ND","ND","ND","ND","0"],
    [53825,"2016-06-26T12:00:00","15.2","ND","ND","ND","ND","ND","ND","ND","ND","ND","ND","0"],
    [53826,"2016-06-26T13:00:00","11.6","ND","ND","ND","ND","ND","ND","ND","ND","ND","ND","0"],
    [53827,"2016-06-26T14:00:00","21.1","ND","ND","ND","ND","ND","ND","ND","ND","ND","ND","0"],
    [53828,"2016-06-26T15:00:00","23.7","ND","ND","ND","ND","ND","ND","ND","ND","ND","ND","0"],
    [53829,"2016-06-26T16:00:00","26.5","ND","ND","ND","ND","ND","ND","ND","ND","ND","ND","0"],
    [53830,"2016-06-26T17:00:00","25.5","ND","ND","ND","ND","ND","ND","ND","ND","ND","ND","0"],
    [53831,"2016-06-26T18:00:00","24.1","ND","ND","ND","ND","ND","ND","ND","ND","ND","ND","0"],
    [53832,"2016-06-26T19:00:00","41.1","ND","ND","ND","ND","ND","ND","ND","ND","ND","ND","0"],
    [53833,"2016-06-26T20:00:00","57.9","ND","ND","ND","ND","ND","ND","ND","ND","ND","ND","0"],
    [53834,"2016-06-26T21:00:00","47.7","ND","ND","ND","ND","ND","ND","ND","ND","ND","ND","0"],
    [53835,"2016-06-26T22:00:00","46.9","ND","ND","ND","ND","ND","ND","ND","ND","ND","ND","0"],
    [53836,"2016-06-26T23:00:00","43.3","ND","ND","ND","ND","ND","ND","ND","ND","ND","ND","0"],
    [53837,"2016-06-27T00:00:00","32.5","ND","ND","ND","ND","ND","ND","ND","ND","ND","ND","0"],
    [53838,"2016-06-27T01:00:00","21.4","ND","ND","ND","ND","ND","ND","ND","ND","ND","ND","0"],
    [53839,"2016-06-27T02:00:00","32","ND","ND","ND","ND","ND","ND","ND","ND","ND","ND","0"],
    [53840,"2016-06-27T03:00:00","39.9","ND","ND","ND","ND","ND","ND","ND","ND","ND","ND","0"],
    [53841,"2016-06-27T04:00:00","42.3","ND","ND","ND","ND","ND","ND","ND","ND","ND","ND","0"],
    [53842,"2016-06-27T05:00:00","58.3","ND","ND","ND","ND","ND","ND","ND","ND","ND","ND","0"],
    [53843,"2016-06-27T06:00:00","58.5","ND","ND","ND","ND","ND","ND","ND","ND","ND","ND","0"],
    [53844,"2016-06-27T07:00:00","78","ND","ND","ND","ND","ND","ND","ND","ND","ND","ND","0"],
    [53845,"2016-06-27T08:00:00","79.3","ND","ND","ND","ND","ND","ND","ND","ND","ND","ND","0"],
    [53846,"2016-06-27T09:00:00","87.9","ND","ND","ND","ND","ND","ND","ND","ND","ND","ND","0"],
    [53847,"2016-06-27T10:00:00","60.6","ND","ND","ND","ND","ND","ND","ND","ND","ND","ND","0"],
    [53848,"2016-06-27T11:00:00","36.2","ND","ND","ND","ND","ND","ND","ND","ND","ND","ND","0"],
    [53849,"2016-06-27T12:00:00","40.7","ND","ND","ND","ND","ND","ND","ND","ND","ND","ND","0"],
    [53850,"2016-06-27T13:00:00","45.6","ND","ND","ND","ND","ND","ND","ND","ND","ND","ND","0"],
    [53851,"2016-06-27T14:00:00","40","ND","ND","ND","ND","ND","ND","ND","ND","ND","ND","0"],
    [53852,"2016-06-27T15:00:00","32.3","ND","ND","ND","ND","ND","ND","ND","ND","ND","ND","0"],
    [53853,"2016-06-27T16:00:00","27.6","ND","ND","ND","ND","ND","ND","ND","ND","ND","ND","0"],
    [53854,"2016-06-27T17:00:00","35.1","ND","ND","ND","ND","ND","ND","ND","ND","ND","ND","0"],
    [53855,"2016-06-27T18:00:00","22.4","ND","ND","ND","ND","ND","ND","ND","ND","ND","ND","0"],
    [53856,"2016-06-27T19:00:00","28","ND","ND","ND","ND","ND","ND","ND","ND","ND","ND","0"],
    [53857,"2016-06-27T20:00:00","15.8","ND","ND","ND","ND","ND","ND","ND","ND","ND","ND","0"],
    [53858,"2016-06-27T21:00:00","28.4","ND","ND","ND","ND","ND","ND","ND","ND","ND","ND","0"],
    [53859,"2016-06-27T22:00:00","41.2","ND","ND","ND","ND","ND","ND","ND","ND","ND","ND","0"],
    [53860,"2016-06-27T23:00:00","39.7","ND","ND","ND","ND","ND","ND","ND","ND","ND","ND","0"],
    [53861,"2016-06-28T00:00:00","36.6","ND","ND","ND","ND","ND","ND","ND","ND","ND","ND","0"],
    [53862,"2016-06-28T01:00:00","47.2","ND","ND","ND","ND","ND","ND","ND","ND","ND","ND","0"],
    [53863,"2016-06-28T02:00:00","39.5","ND","ND","ND","ND","ND","ND","ND","ND","ND","ND","0"],
    [53864,"2016-06-28T03:00:00","43.7","ND","ND","ND","ND","ND","ND","ND","ND","ND","ND","0"],
    [53865,"2016-06-28T04:00:00","35.9","ND","ND","ND","ND","ND","ND","ND","ND","ND","ND","0"],
    [53866,"2016-06-28T05:00:00","31.7","ND","ND","ND","ND","ND","ND","ND","ND","ND","ND","0"],
    [53867,"2016-06-28T06:00:00","36.8","ND","ND","ND","ND","ND","ND","ND","ND","ND","ND","0"],
    [53868,"2016-06-28T07:00:00","61.6","ND","ND","ND","ND","ND","ND","ND","ND","ND","ND","0"],
    [53869,"2016-06-28T08:00:00","101.9","ND","ND","ND","ND","ND","ND","ND","ND","ND","ND","0"],
    [53870,"2016-06-28T09:00:00","94.9","ND","ND","ND","ND","ND","ND","ND","ND","ND","ND","0"],
    [53871,"2016-06-28T10:00:00","100.3","ND","ND","ND","ND","ND","ND","ND","ND","ND","ND","0"],
    [53872,"2016-06-28T11:00:00","74.6","ND","ND","ND","ND","ND","ND","ND","ND","ND","ND","0"],
    [53873,"2016-06-28T12:00:00","37.3","ND","ND","ND","ND","ND","ND","ND","ND","ND","ND","0"],
    [53874,"2016-06-28T13:00:00","32.8","ND","ND","ND","ND","ND","ND","ND","ND","ND","ND","0"],
    [53875,"2016-06-28T14:00:00","40.9","ND","ND","ND","ND","ND","ND","ND","ND","ND","ND","0"],
    [53876,"2016-06-28T15:00:00","54.8","ND","ND","ND","ND","ND","ND","ND","ND","ND","ND","0"],
    [53877,"2016-06-28T16:00:00","65.3","ND","ND","ND","ND","ND","ND","ND","ND","ND","ND","0"],
    [53878,"2016-06-28T17:00:00","38.3","ND","ND","ND","ND","ND","ND","ND","ND","ND","ND","0"],
    [53879,"2016-06-28T18:00:00","26.1","ND","ND","ND","ND","ND","ND","ND","ND","ND","ND","0"],
    [53880,"2016-06-28T19:00:00","21.5","ND","ND","ND","ND","ND","ND","ND","ND","ND","ND","0"],
    [53881,"2016-06-28T20:00:00","16","ND","ND","ND","ND","ND","ND","ND","ND","ND","ND","0"],
    [53882,"2016-06-28T21:00:00","21.4","ND","ND","ND","ND","ND","ND","ND","ND","ND","ND","0"],
    [53883,"2016-06-28T22:00:00","37.1","ND","ND","ND","ND","ND","ND","ND","ND","ND","ND","0"],
    [53884,"2016-06-28T23:00:00","38.4","ND","ND","ND","ND","ND","ND","ND","ND","ND","ND","0"],
    [53885,"2016-06-29T00:00:00","49.9","ND","ND","ND","ND","ND","ND","ND","ND","ND","ND","0"],
    [53886,"2016-06-29T01:00:00","47.2","ND","ND","ND","ND","ND","ND","ND","ND","ND","ND","0"],
    [53887,"2016-06-29T02:00:00","37.3","ND","ND","ND","ND","ND","ND","ND","ND","ND","ND","0"],
    [53888,"2016-06-29T03:00:00","36.4","ND","ND","ND","ND","ND","ND","ND","ND","ND","ND","0"],
    [53889,"2016-06-29T04:00:00","37.6","ND","ND","ND","ND","ND","ND","ND","ND","ND","ND","0"],
    [53890,"2016-06-29T05:00:00","40","ND","ND","ND","ND","ND","ND","ND","ND","ND","ND","0"],
    [53891,"2016-06-29T06:00:00","38.6","ND","ND","ND","ND","ND","ND","ND","ND","ND","ND","0"],
    [53892,"2016-06-29T07:00:00","48.7","ND","ND","ND","ND","ND","ND","ND","ND","ND","ND","0"],
    [53893,"2016-06-29T08:00:00","49.7","ND","ND","ND","ND","ND","ND","ND","ND","ND","ND","0"],
    [53894,"2016-06-29T09:00:00","66.1","ND","ND","ND","ND","ND","ND","ND","ND","ND","ND","0"],
    [53895,"2016-06-29T10:00:00","74.5","ND","ND","ND","ND","ND","ND","ND","ND","ND","ND","0"],
    [53896,"2016-06-29T11:00:00","42.3","ND","ND","ND","ND","ND","ND","ND","ND","ND","ND","0"],
    [53897,"2016-06-29T12:00:00","38.7","ND","ND","ND","ND","ND","ND","ND","ND","ND","ND","0"],
    [53898,"2016-06-29T13:00:00","50.4","ND","ND","ND","ND","ND","ND","ND","ND","ND","ND","0"],
    [53899,"2016-06-29T14:00:00","44.5","ND","ND","ND","ND","ND","ND","ND","ND","ND","ND","0"],
    [53900,"2016-06-29T15:00:00","57.3","ND","ND","ND","ND","ND","ND","ND","ND","ND","ND","0"],
    [53901,"2016-06-29T16:00:00","50.6","ND","ND","ND","ND","ND","ND","ND","ND","ND","ND","0"],
    [53902,"2016-06-29T17:00:00","38.2","ND","ND","ND","ND","ND","ND","ND","ND","ND","ND","0"],
    [53903,"2016-06-29T18:00:00","30.3","ND","ND","ND","ND","ND","ND","ND","ND","ND","ND","0"],
    [53904,"2016-06-29T19:00:00","22.2","ND","ND","ND","ND","ND","ND","ND","ND","ND","ND","0"],
    [53905,"2016-06-29T20:00:00","16.1","ND","ND","ND","ND","ND","ND","ND","ND","ND","ND","0"],
    [53906,"2016-06-29T21:00:00","34.8","ND","ND","ND","ND","ND","ND","ND","ND","ND","ND","0"],
    [53907,"2016-06-29T22:00:00","39.9","ND","ND","ND","ND","ND","ND","ND","ND","ND","ND","0"],
    [53908,"2016-06-29T23:00:00","39.9","ND","ND","ND","ND","ND","ND","ND","ND","ND","ND","0"],
    [53909,"2016-06-30T00:00:00","42.6","ND","ND","ND","ND","ND","ND","ND","ND","ND","ND","0"],
    [53910,"2016-06-30T01:00:00","53.5","ND","ND","ND","ND","ND","ND","ND","ND","ND","ND","0"],
    [53911,"2016-06-30T02:00:00","49.8","ND","ND","ND","ND","ND","ND","ND","ND","ND","ND","0"],
    [53912,"2016-06-30T03:00:00","42.8","ND","ND","ND","ND","ND","ND","ND","ND","ND","ND","0"],
    [53913,"2016-06-30T04:00:00","38.6","ND","ND","ND","ND","ND","ND","ND","ND","ND","ND","0"],
    [53914,"2016-06-30T05:00:00","38.5","ND","ND","ND","ND","ND","ND","ND","ND","ND","ND","0"],
    [53915,"2016-06-30T06:00:00","33.8","ND","ND","ND","ND","ND","ND","ND","ND","ND","ND","0"],
    [53916,"2016-06-30T07:00:00","34.2","ND","ND","ND","ND","ND","ND","ND","ND","ND","ND","0"],
    [53917,"2016-06-30T08:00:00","47.1","ND","ND","ND","ND","ND","ND","ND","ND","ND","ND","0"],
    [53918,"2016-06-30T09:00:00","48.7","ND","ND","ND","ND","ND","ND","ND","ND","ND","ND","0"],
    [53919,"2016-06-30T10:00:00","45.7","ND","ND","ND","ND","ND","ND","ND","ND","ND","ND","0"],
    [53920,"2016-06-30T11:00:00","44.3","ND","ND","ND","ND","ND","ND","ND","ND","ND","ND","0"],
    [53921,"2016-06-30T12:00:00","42.1","ND","ND","ND","ND","ND","ND","ND","ND","ND","ND","0"],
    [53922,"2016-06-30T13:00:00","38.4","ND","ND","ND","ND","ND","ND","ND","ND","ND","ND","0"],
    [53923,"2016-06-30T14:00:00","37.9","ND","ND","ND","ND","ND","ND","ND","ND","ND","ND","0"],
    [53924,"2016-06-30T15:00:00","ND","ND","ND","ND","ND","ND","ND","ND","ND","ND","ND","ND"],
    [53925,"2016-06-30T16:00:00","ND","ND","ND","ND","ND","ND","ND","ND","ND","ND","ND","ND"],
    [53926,"2016-06-30T17:00:00","43.2","ND","ND","ND","ND","ND","ND","ND","ND","ND","ND","0"],
    [53927,"2016-06-30T18:00:00","38.3","ND","ND","ND","ND","ND","ND","ND","ND","ND","ND","0"],
    [53928,"2016-06-30T19:00:00","11.6","ND","ND","ND","ND","ND","ND","ND","ND","ND","ND","0"],
    [53929,"2016-06-30T20:00:00","23.2","ND","ND","ND","ND","ND","ND","ND","ND","ND","ND","0"],
    [53930,"2016-06-30T21:00:00","39.7","ND","ND","ND","ND","ND","ND","ND","ND","ND","ND","0"],
    [53931,"2016-06-30T22:00:00","39.9","ND","ND","ND","ND","ND","ND","ND","ND","ND","ND","0"],
    [53932,"2016-06-30T23:00:00","36.2","ND","ND","ND","ND","ND","ND","ND","ND","ND","ND","0"],
    [53933,"2016-07-01T00:00:00","27.7","ND","ND","ND","ND","ND","ND","ND","ND","ND","ND","0"],
    [53934,"2016-07-01T01:00:00","17","ND","ND","ND","ND","ND","ND","ND","ND","ND","ND","0"],
    [53935,"2016-07-01T02:00:00","24.4","ND","ND","ND","ND","ND","ND","ND","ND","ND","ND","0"],
    [53936,"2016-07-01T03:00:00","29","ND","ND","ND","ND","ND","ND","ND","ND","ND","ND","0"],
    [53937,"2016-07-01T04:00:00","32","ND","ND","ND","ND","ND","ND","ND","ND","ND","ND","0"],
    [53938,"2016-07-01T05:00:00","33.6","ND","ND","ND","ND","ND","ND","ND","ND","ND","ND","0"],
    [53939,"2016-07-01T06:00:00","42.7","ND","ND","ND","ND","ND","ND","ND","ND","ND","ND","0"],
    [53940,"2016-07-01T07:00:00","64","ND","ND","ND","ND","ND","ND","ND","ND","ND","ND","0"],
    [53941,"2016-07-01T08:00:00","90.2","ND","ND","ND","ND","ND","ND","ND","ND","ND","ND","0"],
    [53942,"2016-07-01T09:00:00","111","ND","ND","ND","ND","ND","ND","ND","ND","ND","ND","0"],
    [53943,"2016-07-01T10:00:00","92.9","ND","ND","ND","ND","ND","ND","ND","ND","ND","ND","0"],
    [53944,"2016-07-01T11:00:00","66.5","ND","ND","ND","ND","ND","ND","ND","ND","ND","ND","0"],
    [53945,"2016-07-01T12:00:00","52.6","ND","ND","ND","ND","ND","ND","ND","ND","ND","ND","0"],
    [53946,"2016-07-01T13:00:00","51.5","ND","ND","ND","ND","ND","ND","ND","ND","ND","ND","0"],
    [53947,"2016-07-01T14:00:00","40.3","ND","ND","ND","ND","ND","ND","ND","ND","ND","ND","0"],
    [53948,"2016-07-01T15:00:00","35.3","ND","ND","ND","ND","ND","ND","ND","ND","ND","ND","0"],
    [53949,"2016-07-01T16:00:00","16.3","ND","ND","ND","ND","ND","ND","ND","ND","ND","ND","0"],
    [53950,"2016-07-01T17:00:00","1.4","ND","ND","ND","ND","ND","ND","ND","ND","ND","ND","0"],
    [53951,"2016-07-01T18:00:00","1.7","ND","ND","ND","ND","ND","ND","ND","ND","ND","ND","0"],
    [53952,"2016-07-01T19:00:00","8.9","ND","ND","ND","ND","ND","ND","ND","ND","ND","ND","0"],
    [53953,"2016-07-01T20:00:00","18","ND","ND","ND","ND","ND","ND","ND","ND","ND","ND","0"],
    [53954,"2016-07-01T21:00:00","53.7","ND","ND","ND","ND","ND","ND","ND","ND","ND","ND","0"],
    [53955,"2016-07-01T22:00:00","43.8","ND","ND","ND","ND","ND","ND","ND","ND","ND","ND","0"],
    [53956,"2016-07-01T23:00:00","33.6","ND","ND","ND","ND","ND","ND","ND","ND","ND","ND","0"],
    [53957,"2016-07-02T00:00:00","31.3","ND","ND","ND","ND","ND","ND","ND","ND","ND","ND","0"],
    [53958,"2016-07-02T01:00:00","17.6","ND","ND","ND","ND","ND","ND","ND","ND","ND","ND","0"],
    [53959,"2016-07-02T02:00:00","36.7","ND","ND","ND","ND","ND","ND","ND","ND","ND","ND","0"],
    [53960,"2016-07-02T03:00:00","29.9","ND","ND","ND","ND","ND","ND","ND","ND","ND","ND","0"],
    [53961,"2016-07-02T04:00:00","22","ND","ND","ND","ND","ND","ND","ND","ND","ND","ND","0"],
    [53962,"2016-07-02T05:00:00","27.2","ND","ND","ND","ND","ND","ND","ND","ND","ND","ND","0"],
    [53963,"2016-07-02T06:00:00","24.9","ND","ND","ND","ND","ND","ND","ND","ND","ND","ND","0"],
    [53964,"2016-07-02T07:00:00","29.6","ND","ND","ND","ND","ND","ND","ND","ND","ND","ND","0"],
    [53965,"2016-07-02T08:00:00","47.4","ND","ND","ND","ND","ND","ND","ND","ND","ND","ND","0"],
    [53966,"2016-07-02T09:00:00","53.6","ND","ND","ND","ND","ND","ND","ND","ND","ND","ND","0"],
    [53967,"2016-07-02T10:00:00","60.3","ND","ND","ND","ND","ND","ND","ND","ND","ND","ND","0"],
    [53968,"2016-07-02T11:00:00","46.2","ND","ND","ND","ND","ND","ND","ND","ND","ND","ND","0"],
    [53969,"2016-07-02T12:00:00","35.6","ND","ND","ND","ND","ND","ND","ND","ND","ND","ND","0"],
    [53970,"2016-07-02T13:00:00","33.5","ND","ND","ND","ND","ND","ND","ND","ND","ND","ND","0"],
    [53971,"2016-07-02T14:00:00","23.9","ND","ND","ND","ND","ND","ND","ND","ND","ND","ND","0"],
    [53972,"2016-07-02T15:00:00","20.5","ND","ND","ND","ND","ND","ND","ND","ND","ND","ND","0"],
    [53973,"2016-07-02T16:00:00","9.9","ND","ND","ND","ND","ND","ND","ND","ND","ND","ND","0"],
    [53974,"2016-07-02T17:00:00","8.9","ND","ND","ND","ND","ND","ND","ND","ND","ND","ND","0"],
    [53975,"2016-07-02T18:00:00","7","ND","ND","ND","ND","ND","ND","ND","ND","ND","ND","0"],
    [53976,"2016-07-02T19:00:00","4.8","ND","ND","ND","ND","ND","ND","ND","ND","ND","ND","0"],
    [53977,"2016-07-02T20:00:00","4.9","ND","ND","ND","ND","ND","ND","ND","ND","ND","ND","0"],
    [53978,"2016-07-02T21:00:00","20.5","ND","ND","ND","ND","ND","ND","ND","ND","ND","ND","0"],
    [53979,"2016-07-02T22:00:00","28.9","ND","ND","ND","ND","ND","ND","ND","ND","ND","ND","0"],
    [53980,"2016-07-02T23:00:00","30","ND","ND","ND","ND","ND","ND","ND","ND","ND","ND","0"],
    [53981,"2016-07-03T00:00:00","23.7","ND","ND","ND","ND","ND","ND","ND","ND","ND","ND","0"],
    [53982,"2016-07-03T01:00:00","32.1","ND","ND","ND","ND","ND","ND","ND","ND","ND","ND","0"],
    [53983,"2016-07-03T02:00:00","26.9","ND","ND","ND","ND","ND","ND","ND","ND","ND","ND","0"],
    [53984,"2016-07-03T03:00:00","32.5","ND","ND","ND","ND","ND","ND","ND","ND","ND","ND","0"],
    [53985,"2016-07-03T04:00:00","35","ND","ND","ND","ND","ND","ND","ND","ND","ND","ND","0"],
    [53986,"2016-07-03T05:00:00","26.9","ND","ND","ND","ND","ND","ND","ND","ND","ND","ND","2.79"],
    [53987,"2016-07-03T06:00:00","24.1","ND","ND","ND","ND","ND","ND","ND","ND","ND","ND","13.46"],
    [53988,"2016-07-03T07:00:00","23.5","ND","ND","ND","ND","ND","ND","ND","ND","ND","ND","4.83"],
    [53989,"2016-07-03T08:00:00","16.7","ND","ND","ND","ND","ND","ND","ND","ND","ND","ND","0"],
    [53990,"2016-07-03T09:00:00","22","ND","ND","ND","ND","ND","ND","ND","ND","ND","ND","0"],
    [53991,"2016-07-03T10:00:00","19.6","ND","ND","ND","ND","ND","ND","ND","ND","ND","ND","0"],
    [53992,"2016-07-03T11:00:00","22.2","ND","ND","ND","ND","ND","ND","ND","ND","ND","ND","0"],
    [53993,"2016-07-03T12:00:00","16.1","ND","ND","ND","ND","ND","ND","ND","ND","ND","ND","0"],
    [53994,"2016-07-03T13:00:00","20.3","ND","ND","ND","ND","ND","ND","ND","ND","ND","ND","0"],
    [53995,"2016-07-03T14:00:00","26.1","ND","ND","ND","ND","ND","ND","ND","ND","ND","ND","0"],
    [53996,"2016-07-03T15:00:00","19.5","ND","ND","ND","ND","ND","ND","ND","ND","ND","ND","0"],
    [53997,"2016-07-03T16:00:00","13.5","ND","ND","ND","ND","ND","ND","ND","ND","ND","ND","0"],
    [53998,"2016-07-03T17:00:00","6.3","ND","ND","ND","ND","ND","ND","ND","ND","ND","ND","0"],
    [53999,"2016-07-03T18:00:00","0.4","ND","ND","ND","ND","ND","ND","ND","ND","ND","ND","0"],
    [54000,"2016-07-03T19:00:00","0.6","ND","ND","ND","ND","ND","ND","ND","ND","ND","ND","0"],
    [54001,"2016-07-03T20:00:00","3","ND","ND","ND","ND","ND","ND","ND","ND","ND","ND","0"],
    [54002,"2016-07-03T21:00:00","16.5","ND","ND","ND","ND","ND","ND","ND","ND","ND","ND","0"],
    [54003,"2016-07-03T22:00:00","26.4","ND","ND","ND","ND","ND","ND","ND","ND","ND","ND","0"],
    [54004,"2016-07-03T23:00:00","26.5","ND","ND","ND","ND","ND","ND","ND","ND","ND","ND","0"],
    [54005,"2016-07-04T00:00:00","32.9","ND","ND","ND","ND","ND","ND","ND","ND","ND","ND","0"],
    [54006,"2016-07-04T01:00:00","35.8","ND","ND","ND","ND","ND","ND","ND","ND","ND","ND","0"],
    [54007,"2016-07-04T02:00:00","31","ND","ND","ND","ND","ND","ND","ND","ND","ND","ND","0"],
    [54008,"2016-07-04T03:00:00","28.6","ND","ND","ND","ND","ND","ND","ND","ND","ND","ND","0"],
    [54009,"2016-07-04T04:00:00","22.6","ND","ND","ND","ND","ND","ND","ND","ND","ND","ND","0"],
    [54010,"2016-07-04T05:00:00","72.9","ND","ND","ND","ND","ND","ND","ND","ND","ND","ND","0"],
    [54011,"2016-07-04T06:00:00","42.3","ND","ND","ND","ND","ND","ND","ND","ND","ND","ND","0"],
    [54012,"2016-07-04T07:00:00","34.4","ND","ND","ND","ND","ND","ND","ND","ND","ND","ND","0"],
    [54013,"2016-07-04T08:00:00","32.8","ND","ND","ND","ND","ND","ND","ND","ND","ND","ND","0"],
    [54014,"2016-07-04T09:00:00","8","ND","ND","ND","ND","ND","ND","ND","ND","ND","ND","0"],
    [54015,"2016-07-04T10:00:00","30.7","ND","ND","ND","ND","ND","ND","ND","ND","ND","ND","0"],
    [54016,"2016-07-04T11:00:00","23","ND","ND","ND","ND","ND","ND","ND","ND","ND","ND","0"],
    [54017,"2016-07-04T12:00:00","19.8","ND","ND","ND","ND","ND","ND","ND","ND","ND","ND","0"],
    [54018,"2016-07-04T13:00:00","18.5","ND","ND","ND","ND","ND","ND","ND","ND","ND","ND","0"],
    [54019,"2016-07-04T14:00:00","36.3","ND","ND","ND","ND","ND","ND","ND","ND","ND","ND","0"],
    [54020,"2016-07-04T15:00:00","18.2","ND","ND","ND","ND","ND","ND","ND","ND","ND","ND","0"],
    [54021,"2016-07-04T16:00:00","ND","ND","ND","ND","ND","ND","ND","ND","ND","ND","ND","11.18"],
    [54022,"2016-07-04T17:00:00","ND","ND","ND","ND","ND","ND","ND","ND","ND","ND","ND","0.25"],
    [54023,"2016-07-04T18:00:00","10.1","ND","ND","ND","ND","ND","ND","ND","ND","ND","ND","0"],
    [54024,"2016-07-04T19:00:00","39.7","ND","ND","ND","ND","ND","ND","ND","ND","ND","ND","0"],
    [54025,"2016-07-04T20:00:00","25.9","ND","ND","ND","ND","ND","ND","ND","ND","ND","ND","0"],
    [54026,"2016-07-04T21:00:00","20.3","ND","ND","ND","ND","ND","ND","ND","ND","ND","ND","0.25"],
    [54027,"2016-07-04T22:00:00","25.8","ND","ND","ND","ND","ND","ND","ND","ND","ND","ND","0"],
    [54028,"2016-07-04T23:00:00","27.4","ND","ND","ND","ND","ND","ND","ND","ND","ND","ND","0"],
    [54029,"2016-07-05T00:00:00","22.7","ND","ND","ND","ND","ND","ND","ND","ND","ND","ND","0"],
    [54030,"2016-07-05T01:00:00","17.5","ND","ND","ND","ND","ND","ND","ND","ND","ND","ND","0"],
    [54031,"2016-07-05T02:00:00","16.9","ND","ND","ND","ND","ND","ND","ND","ND","ND","ND","0"],
    [54032,"2016-07-05T03:00:00","5","ND","ND","ND","ND","ND","ND","ND","ND","ND","ND","0"],
    [54033,"2016-07-05T04:00:00","42.1","ND","ND","ND","ND","ND","ND","ND","ND","ND","ND","0"],
    [54034,"2016-07-05T05:00:00","99.9","ND","ND","ND","ND","ND","ND","ND","ND","ND","ND","0"],
    [54035,"2016-07-05T06:00:00","62.9","ND","ND","ND","ND","ND","ND","ND","ND","ND","ND","0"],
    [54036,"2016-07-05T07:00:00","57.4","ND","ND","ND","ND","ND","ND","ND","ND","ND","ND","0"],
    [54037,"2016-07-05T08:00:00","66.1","ND","ND","ND","ND","ND","ND","ND","ND","ND","ND","0"],
    [54038,"2016-07-05T09:00:00","87.6","ND","ND","ND","ND","ND","ND","ND","ND","ND","ND","0"],
    [54039,"2016-07-05T10:00:00","77.1","ND","ND","ND","ND","ND","ND","ND","ND","ND","ND","0"],
    [54040,"2016-07-05T11:00:00","46.5","ND","ND","ND","ND","ND","ND","ND","ND","ND","ND","0"],
    [54041,"2016-07-05T12:00:00","44.1","ND","ND","ND","ND","ND","ND","ND","ND","ND","ND","0"],
    [54042,"2016-07-05T13:00:00","48.9","ND","ND","ND","ND","ND","ND","ND","ND","ND","ND","0"],
    [54043,"2016-07-05T14:00:00","34","ND","ND","ND","ND","ND","ND","ND","ND","ND","ND","0"],
    [54044,"2016-07-05T15:00:00","33.9","ND","ND","ND","ND","ND","ND","ND","ND","ND","ND","0"],
    [54045,"2016-07-05T16:00:00","17.8","ND","ND","ND","ND","ND","ND","ND","ND","ND","ND","0"],
    [54046,"2016-07-05T17:00:00","3.2","ND","ND","ND","ND","ND","ND","ND","ND","ND","ND","0"],
    [54047,"2016-07-05T18:00:00","ND","ND","ND","ND","ND","ND","ND","ND","ND","ND","ND","0"],
    [54048,"2016-07-05T19:00:00","ND","ND","ND","ND","ND","ND","ND","ND","ND","ND","ND","0"],
    [54049,"2016-07-05T20:00:00","ND","ND","ND","ND","ND","ND","ND","ND","ND","ND","ND","0"],
    [54050,"2016-07-05T21:00:00","15.8","ND","ND","ND","ND","ND","ND","ND","ND","ND","ND","0"],
    [54051,"2016-07-05T22:00:00","53.8","ND","ND","ND","ND","ND","ND","ND","ND","ND","ND","0"],
    [54052,"2016-07-05T23:00:00","40.2","ND","ND","ND","ND","ND","ND","ND","ND","ND","ND","0"],
    [54053,"2016-07-06T00:00:00","16.9","ND","ND","ND","ND","ND","ND","ND","ND","ND","ND","0"],
    [54054,"2016-07-06T01:00:00","23","ND","ND","ND","ND","ND","ND","ND","ND","ND","ND","0"],
    [54055,"2016-07-06T02:00:00","87","ND","ND","ND","ND","ND","ND","ND","ND","ND","ND","0"],
    [54056,"2016-07-06T03:00:00","48.8","ND","ND","ND","ND","ND","ND","ND","ND","ND","ND","0"],
    [54057,"2016-07-06T04:00:00","49.1","ND","ND","ND","ND","ND","ND","ND","ND","ND","ND","0"],
    [54058,"2016-07-06T05:00:00","49.4","ND","ND","ND","ND","ND","ND","ND","ND","ND","ND","3.05"],
    [54059,"2016-07-06T06:00:00","55.7","ND","ND","ND","ND","ND","ND","ND","ND","ND","ND","2.03"],
    [54060,"2016-07-06T07:00:00","56","ND","ND","ND","ND","ND","ND","ND","ND","ND","ND","0.25"],
    [54061,"2016-07-06T08:00:00","31.2","ND","ND","ND","ND","ND","ND","ND","ND","ND","ND","0"],
    [54062,"2016-07-06T09:00:00","29.7","ND","ND","ND","ND","ND","ND","ND","ND","ND","ND","0"],
    [54063,"2016-07-06T10:00:00","53.9","ND","ND","ND","ND","ND","ND","ND","ND","ND","ND","0"],
    [54064,"2016-07-06T11:00:00","29.1","ND","ND","ND","ND","ND","ND","ND","ND","ND","ND","0"],
    [54065,"2016-07-06T12:00:00","17.5","ND","ND","ND","ND","ND","ND","ND","ND","ND","ND","0"],
    [54066,"2016-07-06T13:00:00","17.6","ND","ND","ND","ND","ND","ND","ND","ND","ND","ND","0"],
    [54067,"2016-07-06T14:00:00","19.5","ND","ND","ND","ND","ND","ND","ND","ND","ND","ND","0"],
    [54068,"2016-07-06T15:00:00","21.1","ND","ND","ND","ND","ND","ND","ND","ND","ND","ND","0"],
    [54069,"2016-07-06T16:00:00","34.8","ND","ND","ND","ND","ND","ND","ND","ND","ND","ND","0"],
    [54070,"2016-07-06T17:00:00","28.2","ND","ND","ND","ND","ND","ND","ND","ND","ND","ND","0"],
    [54071,"2016-07-06T18:00:00","4.1","ND","ND","ND","ND","ND","ND","ND","ND","ND","ND","0"],
    [54072,"2016-07-06T19:00:00","15.8","ND","ND","ND","ND","ND","ND","ND","ND","ND","ND","0"],
    [54073,"2016-07-06T20:00:00","44.2","ND","ND","ND","ND","ND","ND","ND","ND","ND","ND","0"],
    [54074,"2016-07-06T21:00:00","57.1","ND","ND","ND","ND","ND","ND","ND","ND","ND","ND","0"],
    [54075,"2016-07-06T22:00:00","55.4","ND","ND","ND","ND","ND","ND","ND","ND","ND","ND","0"],
    [54076,"2016-07-06T23:00:00","55.5","ND","ND","ND","ND","ND","ND","ND","ND","ND","ND","0"],
    [54077,"2016-07-07T00:00:00","47.4","ND","ND","ND","ND","ND","ND","ND","ND","ND","ND","0"],
    [54078,"2016-07-07T01:00:00","42.8","ND","ND","ND","ND","ND","ND","ND","ND","ND","ND","0"],
    [54079,"2016-07-07T02:00:00","40.3","ND","ND","ND","ND","ND","ND","ND","ND","ND","ND","0"],
    [54080,"2016-07-07T03:00:00","58.3","ND","ND","ND","ND","ND","ND","ND","ND","ND","ND","0"],
    [54081,"2016-07-07T04:00:00","48.3","ND","ND","ND","ND","ND","ND","ND","ND","ND","ND","0"],
    [54082,"2016-07-07T05:00:00","50.8","ND","ND","ND","ND","ND","ND","ND","ND","ND","ND","0"],
    [54083,"2016-07-07T06:00:00","65","ND","ND","ND","ND","ND","ND","ND","ND","ND","ND","0"],
    [54084,"2016-07-07T07:00:00","72.6","ND","ND","ND","ND","ND","ND","ND","ND","ND","ND","0"],
    [54085,"2016-07-07T08:00:00","83.9","ND","ND","ND","ND","ND","ND","ND","ND","ND","ND","0"],
    [54086,"2016-07-07T09:00:00","119.3","ND","ND","ND","ND","ND","ND","ND","ND","ND","ND","0"],
    [54087,"2016-07-07T10:00:00","93.2","ND","ND","ND","ND","ND","ND","ND","ND","ND","ND","0"],
    [54088,"2016-07-07T11:00:00","61.9","ND","ND","ND","ND","ND","ND","ND","ND","ND","ND","0"],
    [54089,"2016-07-07T12:00:00","42.2","ND","ND","ND","ND","ND","ND","ND","ND","ND","ND","0"],
    [54090,"2016-07-07T13:00:00","48.5","ND","ND","ND","ND","ND","ND","ND","ND","ND","ND","0"],
    [54091,"2016-07-07T14:00:00","41.3","ND","ND","ND","ND","ND","ND","ND","ND","ND","ND","0"],
    [54092,"2016-07-07T15:00:00","26.6","ND","ND","ND","ND","ND","ND","ND","ND","ND","ND","0"],
    [54093,"2016-07-07T16:00:00","27.2","ND","ND","ND","ND","ND","ND","ND","ND","ND","ND","0"],
    [54094,"2016-07-07T17:00:00","15.9","ND","ND","ND","ND","ND","ND","ND","ND","ND","ND","0"],
    [54095,"2016-07-07T18:00:00","14.7","ND","ND","ND","ND","ND","ND","ND","ND","ND","ND","0"],
    [54096,"2016-07-07T19:00:00","5.4","ND","ND","ND","ND","ND","ND","ND","ND","ND","ND","0"],
    [54097,"2016-07-07T20:00:00","21.8","ND","ND","ND","ND","ND","ND","ND","ND","ND","ND","0"],
    [54098,"2016-07-07T21:00:00","27.9","ND","ND","ND","ND","ND","ND","ND","ND","ND","ND","0"],
    [54099,"2016-07-07T22:00:00","37.3","ND","ND","ND","ND","ND","ND","ND","ND","ND","ND","0"],
    [54100,"2016-07-07T23:00:00","40.2","ND","ND","ND","ND","ND","ND","ND","ND","ND","ND","0"],
    [54101,"2016-07-08T00:00:00","34.2","ND","ND","ND","ND","ND","ND","ND","ND","ND","ND","0"],
    [54102,"2016-07-08T01:00:00","28.3","ND","ND","ND","ND","ND","ND","ND","ND","ND","ND","0"],
    [54103,"2016-07-08T02:00:00","42.8","ND","ND","ND","ND","ND","ND","ND","ND","ND","ND","0"],
    [54104,"2016-07-08T03:00:00","39.8","ND","ND","ND","ND","ND","ND","ND","ND","ND","ND","0"],
    [54105,"2016-07-08T04:00:00","46.4","ND","ND","ND","ND","ND","ND","ND","ND","ND","ND","0"],
    [54106,"2016-07-08T05:00:00","73.1","ND","ND","ND","ND","ND","ND","ND","ND","ND","ND","0"],
    [54107,"2016-07-08T06:00:00","62.4","ND","ND","ND","ND","ND","ND","ND","ND","ND","ND","0"],
    [54108,"2016-07-08T07:00:00","53.3","ND","ND","ND","ND","ND","ND","ND","ND","ND","ND","0"],
    [54109,"2016-07-08T08:00:00","57.4","ND","ND","ND","ND","ND","ND","ND","ND","ND","ND","0"],
    [54110,"2016-07-08T09:00:00","41.4","ND","ND","ND","ND","ND","ND","ND","ND","ND","ND","0"],
    [54111,"2016-07-08T10:00:00","27.7","ND","ND","ND","ND","ND","ND","ND","ND","ND","ND","0"],
    [54112,"2016-07-08T11:00:00","26.9","ND","ND","ND","ND","ND","ND","ND","ND","ND","ND","0"],
    [54113,"2016-07-08T12:00:00","28.2","ND","ND","ND","ND","ND","ND","ND","ND","ND","ND","0"],
    [54114,"2016-07-08T13:00:00","41.8","ND","ND","ND","ND","ND","ND","ND","ND","ND","ND","0"],
    [54115,"2016-07-08T14:00:00","43.9","ND","ND","ND","ND","ND","ND","ND","ND","ND","ND","0"],
    [54116,"2016-07-08T15:00:00","38","ND","ND","ND","ND","ND","ND","ND","ND","ND","ND","0"],
    [54117,"2016-07-08T16:00:00","1.4","ND","ND","ND","ND","ND","ND","ND","ND","ND","ND","0"],
    [54118,"2016-07-08T17:00:00","6","ND","ND","ND","ND","ND","ND","ND","ND","ND","ND","0"],
    [54119,"2016-07-08T18:00:00","3.5","ND","ND","ND","ND","ND","ND","ND","ND","ND","ND","0"],
    [54120,"2016-07-08T19:00:00","1.4","ND","ND","ND","ND","ND","ND","ND","ND","ND","ND","0"],
    [54121,"2016-07-08T20:00:00","13.2","ND","ND","ND","ND","ND","ND","ND","ND","ND","ND","0"],
    [54122,"2016-07-08T21:00:00","31.4","ND","ND","ND","ND","ND","ND","ND","ND","ND","ND","0"],
    [54123,"2016-07-08T22:00:00","32","ND","ND","ND","ND","ND","ND","ND","ND","ND","ND","0"],
    [54124,"2016-07-08T23:00:00","37","ND","ND","ND","ND","ND","ND","ND","ND","ND","ND","0"],
    [54125,"2016-07-09T00:00:00","32.9","ND","ND","ND","ND","ND","ND","ND","ND","ND","ND","0"],
    [54126,"2016-07-09T01:00:00","47.7","ND","ND","ND","ND","ND","ND","ND","ND","ND","ND","0"],
    [54127,"2016-07-09T02:00:00","36.2","ND","ND","ND","ND","ND","ND","ND","ND","ND","ND","0"],
    [54128,"2016-07-09T03:00:00","35.5","ND","ND","ND","ND","ND","ND","ND","ND","ND","ND","0"],
    [54129,"2016-07-09T04:00:00","32.6","ND","ND","ND","ND","ND","ND","ND","ND","ND","ND","0"],
    [54130,"2016-07-09T05:00:00","27.6","ND","ND","ND","ND","ND","ND","ND","ND","ND","ND","0"],
    [54131,"2016-07-09T06:00:00","26","ND","ND","ND","ND","ND","ND","ND","ND","ND","ND","0"],
    [54132,"2016-07-09T07:00:00","51.7","ND","ND","ND","ND","ND","ND","ND","ND","ND","ND","0"],
    [54133,"2016-07-09T08:00:00","78.9","ND","ND","ND","ND","ND","ND","ND","ND","ND","ND","0"],
    [54134,"2016-07-09T09:00:00","65.5","ND","ND","ND","ND","ND","ND","ND","ND","ND","ND","0"],
    [54135,"2016-07-09T10:00:00","60.7","ND","ND","ND","ND","ND","ND","ND","ND","ND","ND","0"],
    [54136,"2016-07-09T11:00:00","45.7","ND","ND","ND","ND","ND","ND","ND","ND","ND","ND","0"],
    [54137,"2016-07-09T12:00:00","34.4","ND","ND","ND","ND","ND","ND","ND","ND","ND","ND","0"],
    [54138,"2016-07-09T13:00:00","42.2","ND","ND","ND","ND","ND","ND","ND","ND","ND","ND","0"],
    [54139,"2016-07-09T14:00:00","31.1","ND","ND","ND","ND","ND","ND","ND","ND","ND","ND","0"],
    [54140,"2016-07-09T15:00:00","23.4","ND","ND","ND","ND","ND","ND","ND","ND","ND","ND","0"],
    [54141,"2016-07-09T16:00:00","29.2","ND","ND","ND","ND","ND","ND","ND","ND","ND","ND","0"],
    [54142,"2016-07-09T17:00:00","26.9","ND","ND","ND","ND","ND","ND","ND","ND","ND","ND","0"],
    [54143,"2016-07-09T18:00:00","13.9","ND","ND","ND","ND","ND","ND","ND","ND","ND","ND","0"],
    [54144,"2016-07-09T19:00:00","6.7","ND","ND","ND","ND","ND","ND","ND","ND","ND","ND","0"],
    [54145,"2016-07-09T20:00:00","7.8","ND","ND","ND","ND","ND","ND","ND","ND","ND","ND","0"],
    [54146,"2016-07-09T21:00:00","19.1","ND","ND","ND","ND","ND","ND","ND","ND","ND","ND","0"],
    [54147,"2016-07-09T22:00:00","30.9","ND","ND","ND","ND","ND","ND","ND","ND","ND","ND","0"],
    [54148,"2016-07-09T23:00:00","48.2","ND","ND","ND","ND","ND","ND","ND","ND","ND","ND","0"],
    [54149,"2016-07-10T00:00:00","35.9","ND","ND","ND","ND","ND","ND","ND","ND","ND","ND","0"],
    [54150,"2016-07-10T01:00:00","28.8","ND","ND","ND","ND","ND","ND","ND","ND","ND","ND","0"],
    [54151,"2016-07-10T02:00:00","21","ND","ND","ND","ND","ND","ND","ND","ND","ND","ND","0"],
    [54152,"2016-07-10T03:00:00","24.4","ND","ND","ND","ND","ND","ND","ND","ND","ND","ND","0"],
    [54153,"2016-07-10T04:00:00","24.8","ND","ND","ND","ND","ND","ND","ND","ND","ND","ND","0"],
    [54154,"2016-07-10T05:00:00","27.9","ND","ND","ND","ND","ND","ND","ND","ND","ND","ND","0"],
    [54155,"2016-07-10T06:00:00","30.2","ND","ND","ND","ND","ND","ND","ND","ND","ND","ND","0"],
    [54156,"2016-07-10T07:00:00","41.9","ND","ND","ND","ND","ND","ND","ND","ND","ND","ND","0"],
    [54157,"2016-07-10T08:00:00","49.2","ND","ND","ND","ND","ND","ND","ND","ND","ND","ND","0"],
    [54158,"2016-07-10T09:00:00","54.1","ND","ND","ND","ND","ND","ND","ND","ND","ND","ND","0"],
    [54159,"2016-07-10T10:00:00","62.6","ND","ND","ND","ND","ND","ND","ND","ND","ND","ND","0"],
    [54160,"2016-07-10T11:00:00","29.5","ND","ND","ND","ND","ND","ND","ND","ND","ND","ND","0"],
    [54161,"2016-07-10T12:00:00","18.2","ND","ND","ND","ND","ND","ND","ND","ND","ND","ND","0"],
    [54162,"2016-07-10T13:00:00","27.7","ND","ND","ND","ND","ND","ND","ND","ND","ND","ND","0"],
    [54163,"2016-07-10T14:00:00","34.3","ND","ND","ND","ND","ND","ND","ND","ND","ND","ND","0"],
    [54164,"2016-07-10T15:00:00","19.3","ND","ND","ND","ND","ND","ND","ND","ND","ND","ND","0"],
    [54165,"2016-07-10T16:00:00","3","ND","ND","ND","ND","ND","ND","ND","ND","ND","ND","0"],
    [54166,"2016-07-10T17:00:00","4.2","ND","ND","ND","ND","ND","ND","ND","ND","ND","ND","0"],
    [54167,"2016-07-10T18:00:00","ND","ND","ND","ND","ND","ND","ND","ND","ND","ND","ND","0"],
    [54168,"2016-07-10T19:00:00","ND","ND","ND","ND","ND","ND","ND","ND","ND","ND","ND","0"],
    [54169,"2016-07-10T20:00:00","2.2","ND","ND","ND","ND","ND","ND","ND","ND","ND","ND","0"],
    [54170,"2016-07-10T21:00:00","24.7","ND","ND","ND","ND","ND","ND","ND","ND","ND","ND","0"],
    [54171,"2016-07-10T22:00:00","29.2","ND","ND","ND","ND","ND","ND","ND","ND","ND","ND","0"],
    [54172,"2016-07-10T23:00:00","32.1","ND","ND","ND","ND","ND","ND","ND","ND","ND","ND","0"],
    [54173,"2016-07-11T00:00:00","26.9","ND","ND","ND","ND","ND","ND","ND","ND","ND","ND","0"],
    [54174,"2016-07-11T01:00:00","25.1","ND","ND","ND","ND","ND","ND","ND","ND","ND","ND","0"],
    [54175,"2016-07-11T02:00:00","28.9","ND","ND","ND","ND","ND","ND","ND","ND","ND","ND","0"],
    [54176,"2016-07-11T03:00:00","23.5","ND","ND","ND","ND","ND","ND","ND","ND","ND","ND","0"],
    [54177,"2016-07-11T04:00:00","25.4","ND","ND","ND","ND","ND","ND","ND","ND","ND","ND","0"],
    [54178,"2016-07-11T05:00:00","32.2","ND","ND","ND","ND","ND","ND","ND","ND","ND","ND","0"],
    [54179,"2016-07-11T06:00:00","28.5","ND","ND","ND","ND","ND","ND","ND","ND","ND","ND","0"],
    [54180,"2016-07-11T07:00:00","46.2","ND","ND","ND","ND","ND","ND","ND","ND","ND","ND","0"],
    [54181,"2016-07-11T08:00:00","45.3","ND","ND","ND","ND","ND","ND","ND","ND","ND","ND","0"],
    [54182,"2016-07-11T09:00:00","65.2","ND","ND","ND","ND","ND","ND","ND","ND","ND","ND","0"],
    [54183,"2016-07-11T10:00:00","68.3","ND","ND","ND","ND","ND","ND","ND","ND","ND","ND","0"],
    [54184,"2016-07-11T11:00:00","40.5","ND","ND","ND","ND","ND","ND","ND","ND","ND","ND","0"],
    [54185,"2016-07-11T12:00:00","28.4","ND","ND","ND","ND","ND","ND","ND","ND","ND","ND","0"],
    [54186,"2016-07-11T13:00:00","32.4","ND","ND","ND","ND","ND","ND","ND","ND","ND","ND","0"],
    [54187,"2016-07-11T14:00:00","44.6","ND","ND","ND","ND","ND","ND","ND","ND","ND","ND","0"],
    [54188,"2016-07-11T15:00:00","39.8","ND","ND","ND","ND","ND","ND","ND","ND","ND","ND","0"],
    [54189,"2016-07-11T16:00:00","19.2","ND","ND","ND","ND","ND","ND","ND","ND","ND","ND","0"],
    [54190,"2016-07-11T17:00:00","20.7","ND","ND","ND","ND","ND","ND","ND","ND","ND","ND","0"],
    [54191,"2016-07-11T18:00:00","11.2","ND","ND","ND","ND","ND","ND","ND","ND","ND","ND","0"],
    [54192,"2016-07-11T19:00:00","1","ND","ND","ND","ND","ND","ND","ND","ND","ND","ND","0"],
    [54193,"2016-07-11T20:00:00","7.8","ND","ND","ND","ND","ND","ND","ND","ND","ND","ND","0"],
    [54194,"2016-07-11T21:00:00","21.5","ND","ND","ND","ND","ND","ND","ND","ND","ND","ND","0"],
    [54195,"2016-07-11T22:00:00","29.3","ND","ND","ND","ND","ND","ND","ND","ND","ND","ND","0"],
    [54196,"2016-07-11T23:00:00","28.4","ND","ND","ND","ND","ND","ND","ND","ND","ND","ND","0"],
    [54197,"2016-07-12T00:00:00","66.3","ND","ND","ND","ND","ND","ND","ND","ND","ND","ND","0"],
    [54198,"2016-07-12T01:00:00","60.2","ND","ND","ND","ND","ND","ND","ND","ND","ND","ND","0"],
    [54199,"2016-07-12T02:00:00","37.5","ND","ND","ND","ND","ND","ND","ND","ND","ND","ND","0"],
    [54200,"2016-07-12T03:00:00","30.7","ND","ND","ND","ND","ND","ND","ND","ND","ND","ND","0"],
    [54201,"2016-07-12T04:00:00","28.2","ND","ND","ND","ND","ND","ND","ND","ND","ND","ND","0"],
    [54202,"2016-07-12T05:00:00","21.8","ND","ND","ND","ND","ND","ND","ND","ND","ND","ND","0"],
    [54203,"2016-07-12T06:00:00","26.9","ND","ND","ND","ND","ND","ND","ND","ND","ND","ND","0"],
    [54204,"2016-07-12T07:00:00","32.2","ND","ND","ND","ND","ND","ND","ND","ND","ND","ND","0"],
    [54205,"2016-07-12T08:00:00","37.7","ND","ND","ND","ND","ND","ND","ND","ND","ND","ND","0"],
    [54206,"2016-07-12T09:00:00","30.9","ND","ND","ND","ND","ND","ND","ND","ND","ND","ND","0"],
    [54207,"2016-07-12T10:00:00","35.2","ND","ND","ND","ND","ND","ND","ND","ND","ND","ND","0"],
    [54208,"2016-07-12T11:00:00","43","ND","ND","ND","ND","ND","ND","ND","ND","ND","ND","0"],
    [54209,"2016-07-12T12:00:00","36.4","ND","ND","ND","ND","ND","ND","ND","ND","ND","ND","0"],
    [54210,"2016-07-12T13:00:00","38","ND","ND","ND","ND","ND","ND","ND","ND","ND","ND","0"],
    [54211,"2016-07-12T14:00:00","33.4","ND","ND","ND","ND","ND","ND","ND","ND","ND","ND","0"],
    [54212,"2016-07-12T15:00:00","30.5","ND","ND","ND","ND","ND","ND","ND","ND","ND","ND","0"],
    [54213,"2016-07-12T16:00:00","26.3","ND","ND","ND","ND","ND","ND","ND","ND","ND","ND","0"],
    [54214,"2016-07-12T17:00:00","23.3","ND","ND","ND","ND","ND","ND","ND","ND","ND","ND","0"],
    [54215,"2016-07-12T18:00:00","17.8","ND","ND","ND","ND","ND","ND","ND","ND","ND","ND","0"],
    [54216,"2016-07-12T19:00:00","10.9","ND","ND","ND","ND","ND","ND","ND","ND","ND","ND","0"],
    [54217,"2016-07-12T20:00:00","10.1","ND","ND","ND","ND","ND","ND","ND","ND","ND","ND","0"],
    [54218,"2016-07-12T21:00:00","24.2","ND","ND","ND","ND","ND","ND","ND","ND","ND","ND","0"],
    [54219,"2016-07-12T22:00:00","26.7","ND","ND","ND","ND","ND","ND","ND","ND","ND","ND","0"],
    [54220,"2016-07-12T23:00:00","25.3","ND","ND","ND","ND","ND","ND","ND","ND","ND","ND","0"],
    [54221,"2016-07-13T00:00:00","35.1","ND","ND","ND","ND","ND","ND","ND","ND","ND","ND","0"],
    [54222,"2016-07-13T01:00:00","46.6","ND","ND","ND","ND","ND","ND","ND","ND","ND","ND","0"],
    [54223,"2016-07-13T02:00:00","59.2","ND","ND","ND","ND","ND","ND","ND","ND","ND","ND","0"],
    [54224,"2016-07-13T03:00:00","48","ND","ND","ND","ND","ND","ND","ND","ND","ND","ND","0"],
    [54225,"2016-07-13T04:00:00","30.8","ND","ND","ND","ND","ND","ND","ND","ND","ND","ND","0"],
    [54226,"2016-07-13T05:00:00","29.3","ND","ND","ND","ND","ND","ND","ND","ND","ND","ND","0"],
    [54227,"2016-07-13T06:00:00","26.9","ND","ND","ND","ND","ND","ND","ND","ND","ND","ND","0"],
    [54228,"2016-07-13T07:00:00","33.5","ND","ND","ND","ND","ND","ND","ND","ND","ND","ND","0"],
    [54229,"2016-07-13T08:00:00","52.1","ND","ND","ND","ND","ND","ND","ND","ND","ND","ND","0"],
    [54230,"2016-07-13T09:00:00","74.9","ND","ND","ND","ND","ND","ND","ND","ND","ND","ND","0"],
    [54231,"2016-07-13T10:00:00","52.2","ND","ND","ND","ND","ND","ND","ND","ND","ND","ND","0"],
    [54232,"2016-07-13T11:00:00","37.9","ND","ND","ND","ND","ND","ND","ND","ND","ND","ND","0"],
    [54233,"2016-07-13T12:00:00","39.2","ND","ND","ND","ND","ND","ND","ND","ND","ND","ND","0"],
    [54234,"2016-07-13T13:00:00","41.7","ND","ND","ND","ND","ND","ND","ND","ND","ND","ND","0"],
    [54235,"2016-07-13T14:00:00","29.8","ND","ND","ND","ND","ND","ND","ND","ND","ND","ND","0"],
    [54236,"2016-07-13T15:00:00","13.4","ND","ND","ND","ND","ND","ND","ND","ND","ND","ND","0"],
    [54237,"2016-07-13T16:00:00","17.3","ND","ND","ND","ND","ND","ND","ND","ND","ND","ND","0"],
    [54238,"2016-07-13T17:00:00","3.6","ND","ND","ND","ND","ND","ND","ND","ND","ND","ND","0"],
    [54239,"2016-07-13T18:00:00","3.5","ND","ND","ND","ND","ND","ND","ND","ND","ND","ND","0"],
    [54240,"2016-07-13T19:00:00","ND","ND","ND","ND","ND","ND","ND","ND","ND","ND","ND","0"],
    [54241,"2016-07-13T20:00:00","ND","ND","ND","ND","ND","ND","ND","ND","ND","ND","ND","0"],
    [54242,"2016-07-13T21:00:00","12.7","ND","ND","ND","ND","ND","ND","ND","ND","ND","ND","0"],
    [54243,"2016-07-13T22:00:00","26","ND","ND","ND","ND","ND","ND","ND","ND","ND","ND","0"],
    [54244,"2016-07-13T23:00:00","34","ND","ND","ND","ND","ND","ND","ND","ND","ND","ND","0"],
    [54245,"2016-07-14T00:00:00","48.2","ND","ND","ND","ND","ND","ND","ND","ND","ND","ND","0"],
    [54246,"2016-07-14T01:00:00","53.1","ND","ND","ND","ND","ND","ND","ND","ND","ND","ND","0"],
    [54247,"2016-07-14T02:00:00","36.8","ND","ND","ND","ND","ND","ND","ND","ND","ND","ND","0"],
    [54248,"2016-07-14T03:00:00","32.1","ND","ND","ND","ND","ND","ND","ND","ND","ND","ND","0"],
    [54249,"2016-07-14T04:00:00","24.5","ND","ND","ND","ND","ND","ND","ND","ND","ND","ND","0"],
    [54250,"2016-07-14T05:00:00","27.4","ND","ND","ND","ND","ND","ND","ND","ND","ND","ND","0"],
    [54251,"2016-07-14T06:00:00","39.6","ND","ND","ND","ND","ND","ND","ND","ND","ND","ND","0"],
    [54252,"2016-07-14T07:00:00","31.2","ND","ND","ND","ND","ND","ND","ND","ND","ND","ND","0"],
    [54253,"2016-07-14T08:00:00","60.8","ND","ND","ND","ND","ND","ND","ND","ND","ND","ND","0"],
    [54254,"2016-07-14T09:00:00","56","ND","ND","ND","ND","ND","ND","ND","ND","ND","ND","0"],
    [54255,"2016-07-14T10:00:00","63.1","ND","ND","ND","ND","ND","ND","ND","ND","ND","ND","0"],
    [54256,"2016-07-14T11:00:00","47.4","ND","ND","ND","ND","ND","ND","ND","ND","ND","ND","0"],
    [54257,"2016-07-14T12:00:00","30","ND","ND","ND","ND","ND","ND","ND","ND","ND","ND","0"],
    [54258,"2016-07-14T13:00:00","28.1","ND","ND","ND","ND","ND","ND","ND","ND","ND","ND","0"],
    [54259,"2016-07-14T14:00:00","39","ND","ND","ND","ND","ND","ND","ND","ND","ND","ND","0"],
    [54260,"2016-07-14T15:00:00","53.3","ND","ND","ND","ND","ND","ND","ND","ND","ND","ND","0"],
    [54261,"2016-07-14T16:00:00","46.7","ND","ND","ND","ND","ND","ND","ND","ND","ND","ND","0"],
    [54262,"2016-07-14T17:00:00","17.9","ND","ND","ND","ND","ND","ND","ND","ND","ND","ND","0"],
    [54263,"2016-07-14T18:00:00","8.8","ND","ND","ND","ND","ND","ND","ND","ND","ND","ND","0"],
    [54264,"2016-07-14T19:00:00","9.9","ND","ND","ND","ND","ND","ND","ND","ND","ND","ND","0"],
    [54265,"2016-07-14T20:00:00","14.3","ND","ND","ND","ND","ND","ND","ND","ND","ND","ND","0"],
    [54266,"2016-07-14T21:00:00","36.8","ND","ND","ND","ND","ND","ND","ND","ND","ND","ND","0"],
    [54267,"2016-07-14T22:00:00","44.7","ND","ND","ND","ND","ND","ND","ND","ND","ND","ND","0"],
    [54268,"2016-07-14T23:00:00","50.3","ND","ND","ND","ND","ND","ND","ND","ND","ND","ND","0"],
    [54269,"2016-07-15T00:00:00","62.4","ND","ND","ND","ND","ND","ND","ND","ND","ND","ND","0"],
    [54270,"2016-07-15T01:00:00","55.8","ND","ND","ND","ND","ND","ND","ND","ND","ND","ND","0"],
    [54271,"2016-07-15T02:00:00","41.4","ND","ND","ND","ND","ND","ND","ND","ND","ND","ND","0"],
    [54272,"2016-07-15T03:00:00","31","ND","ND","ND","ND","ND","ND","ND","ND","ND","ND","0"],
    [54273,"2016-07-15T04:00:00","29.3","ND","ND","ND","ND","ND","ND","ND","ND","ND","ND","0"],
    [54274,"2016-07-15T05:00:00","36","ND","ND","ND","ND","ND","ND","ND","ND","ND","ND","0"],
    [54275,"2016-07-15T06:00:00","56","ND","ND","ND","ND","ND","ND","ND","ND","ND","ND","0"],
    [54276,"2016-07-15T07:00:00","44.8","ND","ND","ND","ND","ND","ND","ND","ND","ND","ND","0"],
    [54277,"2016-07-15T08:00:00","52.7","ND","ND","ND","ND","ND","ND","ND","ND","ND","ND","0"],
    [54278,"2016-07-15T09:00:00","61.6","ND","ND","ND","ND","ND","ND","ND","ND","ND","ND","0"],
    [54279,"2016-07-15T10:00:00","79.1","ND","ND","ND","ND","ND","ND","ND","ND","ND","ND","0"],
    [54280,"2016-07-15T11:00:00","67.4","ND","ND","ND","ND","ND","ND","ND","ND","ND","ND","0"],
    [54281,"2016-07-15T12:00:00","47.3","ND","ND","ND","ND","ND","ND","ND","ND","ND","ND","0"],
    [54282,"2016-07-15T13:00:00","21.2","ND","ND","ND","ND","ND","ND","ND","ND","ND","ND","0"],
    [54283,"2016-07-15T14:00:00","15.9","ND","ND","ND","ND","ND","ND","ND","ND","ND","ND","0"],
    [54284,"2016-07-15T15:00:00","8.5","ND","ND","ND","ND","ND","ND","ND","ND","ND","ND","0"],
    [54285,"2016-07-15T16:00:00","11.8","ND","ND","ND","ND","ND","ND","ND","ND","ND","ND","0"],
    [54286,"2016-07-15T17:00:00","7.9","ND","ND","ND","ND","ND","ND","ND","ND","ND","ND","0"],
    [54287,"2016-07-15T18:00:00","8.8","ND","ND","ND","ND","ND","ND","ND","ND","ND","ND","0"],
    [54288,"2016-07-15T19:00:00","2.8","ND","ND","ND","ND","ND","ND","ND","ND","ND","ND","0"],
    [54289,"2016-07-15T20:00:00","16.2","ND","ND","ND","ND","ND","ND","ND","ND","ND","ND","0"],
    [54290,"2016-07-15T21:00:00","21.7","ND","ND","ND","ND","ND","ND","ND","ND","ND","ND","0"],
    [54291,"2016-07-15T22:00:00","23.5","ND","ND","ND","ND","ND","ND","ND","ND","ND","ND","0"],
    [54292,"2016-07-15T23:00:00","24.4","ND","ND","ND","ND","ND","ND","ND","ND","ND","ND","0"],
    [54293,"2016-07-16T00:00:00","31.8","ND","ND","ND","ND","ND","ND","ND","ND","ND","ND","0"],
    [54294,"2016-07-16T01:00:00","31.2","ND","ND","ND","ND","ND","ND","ND","ND","ND","ND","0"],
    [54295,"2016-07-16T02:00:00","19.4","ND","ND","ND","ND","ND","ND","ND","ND","ND","ND","0"],
    [54296,"2016-07-16T03:00:00","21.8","ND","ND","ND","ND","ND","ND","ND","ND","ND","ND","0"],
    [54297,"2016-07-16T04:00:00","58.3","ND","ND","ND","ND","ND","ND","ND","ND","ND","ND","0"],
    [54298,"2016-07-16T05:00:00","62.5","ND","ND","ND","ND","ND","ND","ND","ND","ND","ND","0"],
    [54299,"2016-07-16T06:00:00","56.7","ND","ND","ND","ND","ND","ND","ND","ND","ND","ND","0"],
    [54300,"2016-07-16T07:00:00","43.1","ND","ND","ND","ND","ND","ND","ND","ND","ND","ND","0"],
    [54301,"2016-07-16T08:00:00","54.3","ND","ND","ND","ND","ND","ND","ND","ND","ND","ND","0"],
    [54302,"2016-07-16T09:00:00","45.1","ND","ND","ND","ND","ND","ND","ND","ND","ND","ND","0"],
    [54303,"2016-07-16T10:00:00","12.8","ND","ND","ND","ND","ND","ND","ND","ND","ND","ND","0"],
    [54304,"2016-07-16T11:00:00","19.1","ND","ND","ND","ND","ND","ND","ND","ND","ND","ND","0"],
    [54305,"2016-07-16T12:00:00","15.2","ND","ND","ND","ND","ND","ND","ND","ND","ND","ND","0"],
    [54306,"2016-07-16T13:00:00","11.2","ND","ND","ND","ND","ND","ND","ND","ND","ND","ND","0"],
    [54307,"2016-07-16T14:00:00","15","ND","ND","ND","ND","ND","ND","ND","ND","ND","ND","0"],
    [54308,"2016-07-16T15:00:00","25.2","ND","ND","ND","ND","ND","ND","ND","ND","ND","ND","0"],
    [54309,"2016-07-16T16:00:00","2.9","ND","ND","ND","ND","ND","ND","ND","ND","ND","ND","0"],
    [54310,"2016-07-16T17:00:00","12.4","ND","ND","ND","ND","ND","ND","ND","ND","ND","ND","0"],
    [54311,"2016-07-16T18:00:00","25.7","ND","ND","ND","ND","ND","ND","ND","ND","ND","ND","0"],
    [54312,"2016-07-16T19:00:00","37.7","ND","ND","ND","ND","ND","ND","ND","ND","ND","ND","0"],
    [54313,"2016-07-16T20:00:00","37.2","ND","ND","ND","ND","ND","ND","ND","ND","ND","ND","0"],
    [54314,"2016-07-16T21:00:00","35.2","ND","ND","ND","ND","ND","ND","ND","ND","ND","ND","0"],
    [54315,"2016-07-16T22:00:00","29.4","ND","ND","ND","ND","ND","ND","ND","ND","ND","ND","0"],
    [54316,"2016-07-16T23:00:00","30.4","ND","ND","ND","ND","ND","ND","ND","ND","ND","ND","0"],
    [54317,"2016-07-17T00:00:00","46.8","ND","ND","ND","ND","ND","ND","ND","ND","ND","ND","0"],
    [54318,"2016-07-17T01:00:00","82.8","ND","ND","ND","ND","ND","ND","ND","ND","ND","ND","0"],
    [54319,"2016-07-17T02:00:00","74.9","ND","ND","ND","ND","ND","ND","ND","ND","ND","ND","0"],
    [54320,"2016-07-17T03:00:00","39.8","ND","ND","ND","ND","ND","ND","ND","ND","ND","ND","0"],
    [54321,"2016-07-17T04:00:00","27.3","ND","ND","ND","ND","ND","ND","ND","ND","ND","ND","0"],
    [54322,"2016-07-17T05:00:00","36.6","ND","ND","ND","ND","ND","ND","ND","ND","ND","ND","0"],
    [54323,"2016-07-17T06:00:00","44.5","ND","ND","ND","ND","ND","ND","ND","ND","ND","ND","0"],
    [54324,"2016-07-17T07:00:00","63.6","ND","ND","ND","ND","ND","ND","ND","ND","ND","ND","0"],
    [54325,"2016-07-17T08:00:00","60.1","ND","ND","ND","ND","ND","ND","ND","ND","ND","ND","0"],
    [54326,"2016-07-17T09:00:00","46.2","ND","ND","ND","ND","ND","ND","ND","ND","ND","ND","0"],
    [54327,"2016-07-17T10:00:00","42.2","ND","ND","ND","ND","ND","ND","ND","ND","ND","ND","0"],
    [54328,"2016-07-17T11:00:00","39.2","ND","ND","ND","ND","ND","ND","ND","ND","ND","ND","0"],
    [54329,"2016-07-17T12:00:00","41.6","ND","ND","ND","ND","ND","ND","ND","ND","ND","ND","0"],
    [54330,"2016-07-17T13:00:00","32.6","ND","ND","ND","ND","ND","ND","ND","ND","ND","ND","0"],
    [54331,"2016-07-17T14:00:00","28.4","ND","ND","ND","ND","ND","ND","ND","ND","ND","ND","0"],
    [54332,"2016-07-17T15:00:00","22.6","ND","ND","ND","ND","ND","ND","ND","ND","ND","ND","0"],
    [54333,"2016-07-17T16:00:00","12.2","ND","ND","ND","ND","ND","ND","ND","ND","ND","ND","0"],
    [54334,"2016-07-17T17:00:00","7.3","ND","ND","ND","ND","ND","ND","ND","ND","ND","ND","0"],
    [54335,"2016-07-17T18:00:00","2.5","ND","ND","ND","ND","ND","ND","ND","ND","ND","ND","0"],
    [54336,"2016-07-17T19:00:00","ND","ND","ND","ND","ND","ND","ND","ND","ND","ND","ND","0"],
    [54337,"2016-07-17T20:00:00","4.2","ND","ND","ND","ND","ND","ND","ND","ND","ND","ND","0"],
    [54338,"2016-07-17T21:00:00","33","ND","ND","ND","ND","ND","ND","ND","ND","ND","ND","0"],
    [54339,"2016-07-17T22:00:00","36.3","ND","ND","ND","ND","ND","ND","ND","ND","ND","ND","0"],
    [54340,"2016-07-17T23:00:00","16.6","ND","ND","ND","ND","ND","ND","ND","ND","ND","ND","0"],
    [54341,"2016-07-18T00:00:00","15.8","ND","ND","ND","ND","ND","ND","ND","ND","ND","ND","0"],
    [54342,"2016-07-18T01:00:00","15.6","ND","ND","ND","ND","ND","ND","ND","ND","ND","ND","0"],
    [54343,"2016-07-18T02:00:00","9.7","ND","ND","ND","ND","ND","ND","ND","ND","ND","ND","0"],
    [54344,"2016-07-18T03:00:00","15.6","ND","ND","ND","ND","ND","ND","ND","ND","ND","ND","0"],
    [54345,"2016-07-18T04:00:00","19","ND","ND","ND","ND","ND","ND","ND","ND","ND","ND","0"],
    [54346,"2016-07-18T05:00:00","16","ND","ND","ND","ND","ND","ND","ND","ND","ND","ND","0"],
    [54347,"2016-07-18T06:00:00","36.6","ND","ND","ND","ND","ND","ND","ND","ND","ND","ND","0"],
    [54348,"2016-07-18T07:00:00","36.8","ND","ND","ND","ND","ND","ND","ND","ND","ND","ND","0"],
    [54349,"2016-07-18T08:00:00","33.7","ND","ND","ND","ND","ND","ND","ND","ND","ND","ND","0"],
    [54350,"2016-07-18T09:00:00","59","ND","ND","ND","ND","ND","ND","ND","ND","ND","ND","0"],
    [54351,"2016-07-18T10:00:00","61.5","ND","ND","ND","ND","ND","ND","ND","ND","ND","ND","0"],
    [54352,"2016-07-18T11:00:00","52.9","ND","ND","ND","ND","ND","ND","ND","ND","ND","ND","0"],
    [54353,"2016-07-18T12:00:00","41.2","ND","ND","ND","ND","ND","ND","ND","ND","ND","ND","0"],
    [54354,"2016-07-18T13:00:00","24.9","ND","ND","ND","ND","ND","ND","ND","ND","ND","ND","0"],
    [54355,"2016-07-18T14:00:00","19.9","ND","ND","ND","ND","ND","ND","ND","ND","ND","ND","0"],
    [54356,"2016-07-18T15:00:00","25.5","ND","ND","ND","ND","ND","ND","ND","ND","ND","ND","0"],
    [54357,"2016-07-18T16:00:00","26","ND","ND","ND","ND","ND","ND","ND","ND","ND","ND","0"],
    [54358,"2016-07-18T17:00:00","34.4","ND","ND","ND","ND","ND","ND","ND","ND","ND","ND","0"],
    [54359,"2016-07-18T18:00:00","28","ND","ND","ND","ND","ND","ND","ND","ND","ND","ND","0"],
    [54360,"2016-07-18T19:00:00","13.8","ND","ND","ND","ND","ND","ND","ND","ND","ND","ND","0"],
    [54361,"2016-07-18T20:00:00","14.7","ND","ND","ND","ND","ND","ND","ND","ND","ND","ND","0"],
    [54362,"2016-07-18T21:00:00","18.5","ND","ND","ND","ND","ND","ND","ND","ND","ND","ND","0"],
    [54363,"2016-07-18T22:00:00","37.1","ND","ND","ND","ND","ND","ND","ND","ND","ND","ND","0"],
    [54364,"2016-07-18T23:00:00","38.8","ND","ND","ND","ND","ND","ND","ND","ND","ND","ND","0"],
    [54365,"2016-07-19T00:00:00","36.8","ND","ND","ND","ND","ND","ND","ND","ND","ND","ND","0"],
    [54366,"2016-07-19T01:00:00","17.5","ND","ND","ND","ND","ND","ND","ND","ND","ND","ND","0"],
    [54367,"2016-07-19T02:00:00","9.2","ND","ND","ND","ND","ND","ND","ND","ND","ND","ND","0"],
    [54368,"2016-07-19T03:00:00","23.6","ND","ND","ND","ND","ND","ND","ND","ND","ND","ND","0"],
    [54369,"2016-07-19T04:00:00","22.4","ND","ND","ND","ND","ND","ND","ND","ND","ND","ND","0"],
    [54370,"2016-07-19T05:00:00","26.5","ND","ND","ND","ND","ND","ND","ND","ND","ND","ND","0"],
    [54371,"2016-07-19T06:00:00","34.4","ND","ND","ND","ND","ND","ND","ND","ND","ND","ND","0"],
    [54372,"2016-07-19T07:00:00","35.3","ND","ND","ND","ND","ND","ND","ND","ND","ND","ND","0"],
    [54373,"2016-07-19T08:00:00","49.8","ND","ND","ND","ND","ND","ND","ND","ND","ND","ND","0"],
    [54374,"2016-07-19T09:00:00","100.6","ND","ND","ND","ND","ND","ND","ND","ND","ND","ND","0"],
    [54375,"2016-07-19T10:00:00","79.9","ND","ND","ND","ND","ND","ND","ND","ND","ND","ND","0"],
    [54376,"2016-07-19T11:00:00","58.2","ND","ND","ND","ND","ND","ND","ND","ND","ND","ND","0"],
    [54377,"2016-07-19T12:00:00","ND","ND","ND","ND","ND","ND","ND","ND","ND","ND","ND","ND"],
    [54378,"2016-07-19T13:00:00","53.2","ND","ND","ND","ND","ND","ND","ND","ND","ND","ND","0"],
    [54379,"2016-07-19T14:00:00","43","ND","ND","ND","ND","ND","ND","ND","ND","ND","ND","0"],
    [54380,"2016-07-19T15:00:00","25.4","ND","ND","ND","ND","ND","ND","ND","ND","ND","ND","0"],
    [54381,"2016-07-19T16:00:00","18.3","ND","ND","ND","ND","ND","ND","ND","ND","ND","ND","0"],
    [54382,"2016-07-19T17:00:00","21.3","ND","ND","ND","ND","ND","ND","ND","ND","ND","ND","0"],
    [54383,"2016-07-19T18:00:00","14.6","ND","ND","ND","ND","ND","ND","ND","ND","ND","ND","0"],
    [54384,"2016-07-19T19:00:00","ND","ND","ND","ND","ND","0.5","ND","ND","ND","ND","ND","0"],
    [54385,"2016-07-19T20:00:00","5.3","ND","ND","ND","ND","0.8","ND","ND","ND","ND","ND","0"],
    [54386,"2016-07-19T21:00:00","41.9","ND","ND","ND","ND","2.1","ND","ND","ND","ND","ND","0"],
    [54387,"2016-07-19T22:00:00","38.4","ND","ND","ND","ND","3.5","ND","ND","ND","ND","ND","0"],
    [54388,"2016-07-19T23:00:00","42.8","ND","ND","ND","ND","3.0","ND","ND","ND","ND","ND","0"],
    [54389,"2016-07-20T00:00:00","46.7","ND","ND","ND","ND","6.9","ND","ND","ND","ND","ND","0"],
    [54390,"2016-07-20T01:00:00","54.4","ND","ND","ND","ND","7.6","ND","ND","ND","ND","ND","0"],
    [54391,"2016-07-20T02:00:00","47.4","ND","ND","ND","ND","3.4","ND","ND","ND","ND","ND","0"],
    [54392,"2016-07-20T03:00:00","60.4","ND","ND","ND","ND","2.2","ND","ND","ND","ND","ND","0"],
    [54393,"2016-07-20T04:00:00","48.9","ND","ND","ND","ND","4.9","ND","ND","ND","ND","ND","0"],
    [54394,"2016-07-20T05:00:00","51.9","ND","ND","ND","ND","5.1","ND","ND","ND","ND","ND","0"],
    [54395,"2016-07-20T06:00:00","50.3","ND","ND","ND","ND","3.6","ND","ND","ND","ND","ND","0"],
    [54396,"2016-07-20T07:00:00","42.2","ND","ND","ND","ND","3.1","ND","ND","ND","ND","ND","0"],
    [54397,"2016-07-20T08:00:00","55.1","ND","ND","ND","ND","5.6","ND","ND","ND","ND","ND","0"],
    [54398,"2016-07-20T09:00:00","70.8","ND","ND","ND","ND","5.5","ND","ND","ND","ND","ND","0"],
    [54399,"2016-07-20T10:00:00","71.6","ND","ND","ND","ND","7.8","ND","ND","ND","ND","ND","0"],
    [54400,"2016-07-20T11:00:00","58.4","ND","ND","ND","ND","2.0","ND","ND","ND","ND","ND","0"],
    [54401,"2016-07-20T12:00:00","34.9","ND","ND","ND","ND","0.7","ND","ND","ND","ND","ND","0"],
    [54402,"2016-07-20T13:00:00","24.6","ND","ND","ND","ND","0.4","ND","ND","ND","ND","ND","0"],
    [54403,"2016-07-20T14:00:00","22.4","ND","ND","ND","ND","0.6","ND","ND","ND","ND","ND","0"],
    [54404,"2016-07-20T15:00:00","32.8","ND","ND","ND","ND","0.8","ND","ND","ND","ND","ND","0"],
    [54405,"2016-07-20T16:00:00","35.6","ND","ND","ND","ND","1.3","ND","ND","ND","ND","ND","0"],
    [54406,"2016-07-20T17:00:00","21.4","ND","ND","ND","ND","0.5","ND","ND","ND","ND","ND","0"],
    [54407,"2016-07-20T18:00:00","3","ND","ND","ND","ND","0.1","ND","ND","ND","ND","ND","0"],
    [54408,"2016-07-20T19:00:00","ND","ND","ND","ND","ND","0.4","ND","ND","ND","ND","ND","0"],
    [54409,"2016-07-20T20:00:00","6.9","ND","ND","ND","ND","1.0","ND","ND","ND","ND","ND","0"],
    [54410,"2016-07-20T21:00:00","13.3","ND","ND","ND","ND","0.3","ND","ND","ND","ND","ND","0"],
    [54411,"2016-07-20T22:00:00","16.3","ND","ND","ND","ND","0.4","ND","ND","ND","ND","ND","0"],
    [54412,"2016-07-20T23:00:00","12.5","ND","ND","ND","ND","0.8","ND","ND","ND","ND","ND","0"],
    [54413,"2016-07-21T00:00:00","92.1","ND","ND","ND","ND","2.1","ND","ND","ND","ND","ND","0"],
    [54414,"2016-07-21T01:00:00","101.2","ND","ND","ND","ND","3.8","ND","ND","ND","ND","ND","0"],
    [54415,"2016-07-21T02:00:00","50","ND","ND","ND","ND","2.5","ND","ND","ND","ND","ND","0"],
    [54416,"2016-07-21T03:00:00","38.9","ND","ND","ND","ND","2.6","ND","ND","ND","ND","ND","0"],
    [54417,"2016-07-21T04:00:00","79.4","ND","ND","ND","ND","3.9","ND","ND","ND","ND","ND","0"],
    [54418,"2016-07-21T05:00:00","45.7","ND","ND","ND","ND","6.5","ND","ND","ND","ND","ND","0"],
    [54419,"2016-07-21T06:00:00","50.6","ND","ND","ND","ND","7.3","ND","ND","ND","ND","ND","0"],
    [54420,"2016-07-21T07:00:00","51.8","ND","ND","ND","ND","10.3","ND","ND","ND","ND","ND","0"],
    [54421,"2016-07-21T08:00:00","77.3","ND","ND","ND","ND","ND","ND","ND","ND","ND","ND","0"],
    [54422,"2016-07-21T09:00:00","94.6","ND","ND","ND","ND","6.2","ND","ND","ND","ND","ND","0"],
    [54423,"2016-07-21T10:00:00","71.4","ND","ND","ND","ND","ND","ND","ND","ND","ND","ND","0"],
    [54424,"2016-07-21T11:00:00","41.7","ND","ND","ND","ND","ND","ND","ND","ND","ND","ND","0"],
    [54425,"2016-07-21T12:00:00","49.4","ND","ND","ND","ND","ND","ND","ND","ND","ND","ND","0"],
    [54426,"2016-07-21T13:00:00","38","ND","ND","ND","ND","ND","ND","ND","ND","ND","ND","0"],
    [54427,"2016-07-21T14:00:00","24.2","ND","ND","ND","ND","ND","ND","ND","ND","ND","ND","0"],
    [54428,"2016-07-21T15:00:00","33.5","ND","ND","ND","ND","ND","ND","ND","ND","ND","ND","0"],
    [54429,"2016-07-21T16:00:00","19.5","ND","ND","ND","ND","ND","ND","ND","ND","ND","ND","0"],
    [54430,"2016-07-21T17:00:00","17.7","ND","ND","ND","ND","ND","ND","ND","ND","ND","ND","0"],
    [54431,"2016-07-21T18:00:00","ND","ND","ND","ND","ND","ND","ND","ND","ND","ND","ND","0"],
    [54432,"2016-07-21T19:00:00","3.4","ND","ND","ND","ND","ND","ND","ND","ND","ND","ND","0"],
    [54433,"2016-07-21T20:00:00","10","ND","ND","ND","ND","ND","ND","ND","ND","ND","ND","0"],
    [54434,"2016-07-21T21:00:00","16.9","ND","ND","ND","ND","ND","ND","ND","ND","ND","ND","0"],
    [54435,"2016-07-21T22:00:00","34.8","ND","ND","ND","ND","ND","ND","ND","ND","ND","ND","0"],
    [54436,"2016-07-21T23:00:00","40.1","ND","ND","ND","ND","ND","ND","ND","ND","ND","ND","0"],
    [54437,"2016-07-22T00:00:00","30.2","ND","ND","ND","ND","ND","ND","ND","ND","ND","ND","0"],
    [54438,"2016-07-22T01:00:00","41.3","ND","ND","ND","ND","ND","ND","ND","ND","ND","ND","0"],
    [54439,"2016-07-22T02:00:00","59.4","ND","ND","ND","ND","ND","ND","ND","ND","ND","ND","0"],
    [54440,"2016-07-22T03:00:00","55","ND","ND","ND","ND","ND","ND","ND","ND","ND","ND","0"],
    [54441,"2016-07-22T04:00:00","71.7","ND","ND","ND","ND","ND","ND","ND","ND","ND","ND","0"],
    [54442,"2016-07-22T05:00:00","60","ND","ND","ND","ND","ND","ND","ND","ND","ND","ND","0"],
    [54443,"2016-07-22T06:00:00","49","ND","ND","ND","ND","ND","ND","ND","ND","ND","ND","0"],
    [54444,"2016-07-22T07:00:00","66.8","ND","ND","ND","ND","ND","ND","ND","ND","ND","ND","0"],
    [54445,"2016-07-22T08:00:00","67.6","ND","ND","ND","ND","ND","ND","ND","ND","ND","ND","0"],
    [54446,"2016-07-22T09:00:00","97.8","ND","ND","ND","ND","ND","ND","ND","ND","ND","ND","0"],
    [54447,"2016-07-22T10:00:00","81.2","ND","ND","ND","ND","2.5","ND","ND","ND","ND","ND","0"],
    [54448,"2016-07-22T11:00:00","47.8","ND","ND","ND","ND","0.9","ND","ND","ND","ND","ND","0"],
    [54449,"2016-07-22T12:00:00","29","ND","ND","ND","ND","1.0","ND","ND","ND","ND","ND","0"],
    [54450,"2016-07-22T13:00:00","29.1","ND","ND","ND","ND","0.2","ND","ND","ND","ND","ND","0"],
    [54451,"2016-07-22T14:00:00","33.5","ND","ND","ND","ND","0.4","ND","ND","ND","ND","ND","0"],
    [54452,"2016-07-22T15:00:00","36","ND","ND","ND","ND","0.3","ND","ND","ND","ND","ND","0"],
    [54453,"2016-07-22T16:00:00","32.5","ND","ND","ND","ND","0.4","ND","ND","ND","ND","ND","0"],
    [54454,"2016-07-22T17:00:00","16.1","ND","ND","ND","ND","0.2","ND","ND","ND","ND","ND","0"],
    [54455,"2016-07-22T18:00:00","6.4","ND","ND","ND","ND","0.2","ND","ND","ND","ND","ND","0"],
    [54456,"2016-07-22T19:00:00","2.3","ND","ND","ND","ND","0.4","ND","ND","ND","ND","ND","0"],
    [54457,"2016-07-22T20:00:00","13.4","ND","ND","ND","ND","0.8","ND","ND","ND","ND","ND","0"],
    [54458,"2016-07-22T21:00:00","34.1","ND","ND","ND","ND","0.9","ND","ND","ND","ND","ND","0"],
    [54459,"2016-07-22T22:00:00","33.8","ND","ND","ND","ND","0.7","ND","ND","ND","ND","ND","0"],
    [54460,"2016-07-22T23:00:00","36.9","ND","ND","ND","ND","1.2","ND","ND","ND","ND","ND","0"],
    [54461,"2016-07-23T00:00:00","41.8","ND","ND","ND","ND","1.7","ND","ND","ND","ND","ND","0"],
    [54462,"2016-07-23T01:00:00","35.9","ND","ND","ND","ND","3.3","ND","ND","ND","ND","ND","0"],
    [54463,"2016-07-23T02:00:00","39.9","ND","ND","ND","ND","2.7","ND","ND","ND","ND","ND","0"],
    [54464,"2016-07-23T03:00:00","50.2","ND","ND","ND","ND","3.5","ND","ND","ND","ND","ND","0"],
    [54465,"2016-07-23T04:00:00","40.1","ND","ND","ND","ND","2.0","ND","ND","ND","ND","ND","0"],
    [54466,"2016-07-23T05:00:00","30.9","ND","ND","ND","ND","1.9","ND","ND","ND","ND","ND","0"],
    [54467,"2016-07-23T06:00:00","44.3","ND","ND","ND","ND","4.1","ND","ND","ND","ND","ND","0"],
    [54468,"2016-07-23T07:00:00","55.3","ND","ND","ND","ND","3.4","ND","ND","ND","ND","ND","0"],
    [54469,"2016-07-23T08:00:00","68.1","ND","ND","ND","ND","3.0","ND","ND","ND","ND","ND","0"],
    [54470,"2016-07-23T09:00:00","57.5","ND","ND","ND","ND","1.9","ND","ND","ND","ND","ND","0"],
    [54471,"2016-07-23T10:00:00","43.2","ND","ND","ND","ND","0.7","ND","ND","ND","ND","ND","0"],
    [54472,"2016-07-23T11:00:00","34.7","ND","ND","ND","ND","1.2","ND","ND","ND","ND","ND","0"],
    [54473,"2016-07-23T12:00:00","45","ND","ND","ND","ND","0.6","ND","ND","ND","ND","ND","0"],
    [54474,"2016-07-23T13:00:00","42","ND","ND","ND","ND","0.4","ND","ND","ND","ND","ND","0"],
    [54475,"2016-07-23T14:00:00","29.9","ND","ND","ND","ND","0.5","ND","ND","ND","ND","ND","0"],
    [54476,"2016-07-23T15:00:00","17.9","ND","ND","ND","ND","0.4","ND","ND","ND","ND","ND","0"],
    [54477,"2016-07-23T16:00:00","12","ND","ND","ND","ND","0.2","ND","ND","ND","ND","ND","0"],
    [54478,"2016-07-23T17:00:00","10.1","ND","ND","ND","ND","0.3","ND","ND","ND","ND","ND","0"],
    [54479,"2016-07-23T18:00:00","7.5","ND","ND","ND","ND","0.1","ND","ND","ND","ND","ND","0"],
    [54480,"2016-07-23T19:00:00","0.2","ND","ND","ND","ND","0.1","ND","ND","ND","ND","ND","0"],
    [54481,"2016-07-23T20:00:00","1","ND","ND","ND","ND","0.1","ND","ND","ND","ND","ND","0"],
    [54482,"2016-07-23T21:00:00","9.3","ND","ND","ND","ND","0.8","ND","ND","ND","ND","ND","0"],
    [54483,"2016-07-23T22:00:00","9.5","ND","ND","ND","ND","0.7","ND","ND","ND","ND","ND","0"],
    [54484,"2016-07-23T23:00:00","24.1","ND","ND","ND","ND","2.0","ND","ND","ND","ND","ND","0"],
    [54485,"2016-07-24T00:00:00","31.8","ND","ND","ND","ND","1.1","ND","ND","ND","ND","ND","0"],
    [54486,"2016-07-24T01:00:00","25.9","ND","ND","ND","ND","3.2","ND","ND","ND","ND","ND","0"],
    [54487,"2016-07-24T02:00:00","31.5","ND","ND","ND","ND","2.8","ND","ND","ND","ND","ND","0"],
    [54488,"2016-07-24T03:00:00","38","ND","ND","ND","ND","4.1","ND","ND","ND","ND","ND","0"],
    [54489,"2016-07-24T04:00:00","41.5","ND","ND","ND","ND","7.2","ND","ND","ND","ND","ND","0"],
    [54490,"2016-07-24T05:00:00","43.5","ND","ND","ND","ND","5.9","ND","ND","ND","ND","ND","0"],
    [54491,"2016-07-24T06:00:00","37.6","ND","ND","ND","ND","9.6","ND","ND","ND","ND","ND","0"],
    [54492,"2016-07-24T07:00:00","37","ND","ND","ND","ND","6.2","ND","ND","ND","ND","ND","0"],
    [54493,"2016-07-24T08:00:00","28.8","ND","ND","ND","ND","4.6","ND","ND","ND","ND","ND","0"],
    [54494,"2016-07-24T09:00:00","47.8","ND","ND","ND","ND","3.1","ND","ND","ND","ND","ND","0"],
    [54495,"2016-07-24T10:00:00","38.4","ND","ND","ND","ND","1.2","ND","ND","ND","ND","ND","0"],
    [54496,"2016-07-24T11:00:00","20.6","ND","ND","ND","ND","0.1","ND","ND","ND","ND","ND","0"],
    [54497,"2016-07-24T12:00:00","12.8","ND","ND","ND","ND","0.2","ND","ND","ND","ND","ND","0"],
    [54498,"2016-07-24T13:00:00","7.5","ND","ND","ND","ND","0.8","ND","ND","ND","ND","ND","0"],
    [54499,"2016-07-24T14:00:00","20.4","ND","ND","ND","ND","0.1","ND","ND","ND","ND","ND","0"],
    [54500,"2016-07-24T15:00:00","25.3","ND","ND","ND","ND","0.5","ND","ND","ND","ND","ND","0"],
    [54501,"2016-07-24T16:00:00","18.3","ND","ND","ND","ND","0.4","ND","ND","ND","ND","ND","0"],
    [54502,"2016-07-24T17:00:00","11.4","ND","ND","ND","ND","0.2","ND","ND","ND","ND","ND","0"],
    [54503,"2016-07-24T18:00:00","5.2","ND","ND","ND","ND","0.4","ND","ND","ND","ND","ND","0"],
    [54504,"2016-07-24T19:00:00","ND","ND","ND","ND","ND","0.2","ND","ND","ND","ND","ND","0"],
    [54505,"2016-07-24T20:00:00","1.4","ND","ND","ND","ND","0.9","ND","ND","ND","ND","ND","0"],
    [54506,"2016-07-24T21:00:00","10.8","ND","ND","ND","ND","1.3","ND","ND","ND","ND","ND","0"],
    [54507,"2016-07-24T22:00:00","22.9","ND","ND","ND","ND","3.6","ND","ND","ND","ND","ND","0"],
    [54508,"2016-07-24T23:00:00","34.3","ND","ND","ND","ND","1.1","ND","ND","ND","ND","ND","0"],
    [54509,"2016-07-25T00:00:00","41.1","ND","ND","ND","ND","4.2","ND","ND","ND","ND","ND","0"],
    [54510,"2016-07-25T01:00:00","36.7","ND","ND","ND","ND","6.0","ND","ND","ND","ND","ND","0"],
    [54511,"2016-07-25T02:00:00","42","ND","ND","ND","ND","2.1","ND","ND","ND","ND","ND","0"],
    [54512,"2016-07-25T03:00:00","44.5","ND","ND","ND","ND","3.0","ND","ND","ND","ND","ND","0"],
    [54513,"2016-07-25T04:00:00","48.3","ND","ND","ND","ND","6.0","ND","ND","ND","ND","ND","0"],
    [54514,"2016-07-25T05:00:00","18.1","ND","ND","ND","ND","3.4","ND","ND","ND","ND","ND","0"],
    [54515,"2016-07-25T06:00:00","28.6","ND","ND","ND","ND","3.6","ND","ND","ND","ND","ND","0"],
    [54516,"2016-07-25T07:00:00","43.4","ND","ND","ND","ND","4.4","ND","ND","ND","ND","ND","0"],
    [54517,"2016-07-25T08:00:00","42.5","ND","ND","ND","ND","2.7","ND","ND","ND","ND","ND","0"],
    [54518,"2016-07-25T09:00:00","33.1","ND","ND","ND","ND","2.4","ND","ND","ND","ND","ND","0"],
    [54519,"2016-07-25T10:00:00","29.4","ND","ND","ND","ND","0.8","ND","ND","ND","ND","ND","0"],
    [54520,"2016-07-25T11:00:00","23.3","ND","ND","ND","ND","0.6","ND","ND","ND","ND","ND","0"],
    [54521,"2016-07-25T12:00:00","18.4","ND","ND","ND","ND","0.6","ND","ND","ND","ND","ND","0"],
    [54522,"2016-07-25T13:00:00","20","ND","ND","ND","ND","0.8","ND","ND","ND","ND","ND","0"],
    [54523,"2016-07-25T14:00:00","20","ND","ND","ND","ND","0.3","ND","ND","ND","ND","ND","0"],
    [54524,"2016-07-25T15:00:00","12.3","ND","ND","ND","ND","0.2","ND","ND","ND","ND","ND","0"],
    [54525,"2016-07-25T16:00:00","11.2","ND","ND","ND","ND","0.2","ND","ND","ND","ND","ND","0"],
    [54526,"2016-07-25T17:00:00","13.8","ND","ND","ND","ND","0.2","ND","ND","ND","ND","ND","0"],
    [54527,"2016-07-25T18:00:00","25.8","ND","ND","ND","ND","0.5","ND","ND","ND","ND","ND","0"],
    [54528,"2016-07-25T19:00:00","52.3","ND","ND","ND","ND","3.1","ND","ND","ND","ND","ND","0"],
    [54529,"2016-07-25T20:00:00","82.9","ND","ND","ND","ND","0.9","ND","ND","ND","ND","ND","0"],
    [54530,"2016-07-25T21:00:00","71.1","ND","ND","ND","ND","1.9","ND","ND","ND","ND","ND","0"],
    [54531,"2016-07-25T22:00:00","46.9","ND","ND","ND","ND","3.2","ND","ND","ND","ND","ND","0"],
    [54532,"2016-07-25T23:00:00","105.7","ND","ND","ND","ND","7.9","ND","ND","ND","ND","ND","0"],
    [54533,"2016-07-26T00:00:00","85.9","ND","ND","ND","ND","4.3","ND","ND","ND","ND","ND","0"],
    [54534,"2016-07-26T01:00:00","47.6","ND","ND","ND","ND","2.0","ND","ND","ND","ND","ND","0"],
    [54535,"2016-07-26T02:00:00","54.2","ND","ND","ND","ND","6.6","ND","ND","ND","ND","ND","0"],
    [54536,"2016-07-26T03:00:00","55.6","ND","ND","ND","ND","4.4","ND","ND","ND","ND","ND","0"],
    [54537,"2016-07-26T04:00:00","72.2","ND","ND","ND","ND","ND","ND","ND","ND","ND","ND","0"],
    [54538,"2016-07-26T05:00:00","90.1","ND","ND","ND","ND","7.0","ND","ND","ND","ND","ND","0"],
    [54539,"2016-07-26T06:00:00","73.6","ND","ND","ND","ND","ND","ND","ND","ND","ND","ND","0"],
    [54540,"2016-07-26T07:00:00","72","ND","ND","ND","ND","13.2","ND","ND","ND","ND","ND","0"],
    [54541,"2016-07-26T08:00:00","90.8","ND","ND","ND","ND","ND","ND","ND","ND","ND","ND","0"],
    [54542,"2016-07-26T09:00:00","104.1","ND","ND","ND","ND","7.9","ND","ND","ND","ND","ND","0"],
    [54543,"2016-07-26T10:00:00","56.3","ND","ND","ND","ND","3.0","ND","ND","ND","ND","ND","0"],
    [54544,"2016-07-26T11:00:00","49.1","ND","ND","ND","ND","2.6","ND","ND","ND","ND","ND","0"],
    [54545,"2016-07-26T12:00:00","44.9","ND","ND","ND","ND","2.0","ND","ND","ND","ND","ND","0"],
    [54546,"2016-07-26T13:00:00","45.9","ND","ND","ND","ND","1.2","ND","ND","ND","ND","ND","0"],
    [54547,"2016-07-26T14:00:00","42.1","ND","ND","ND","ND","ND","ND","ND","ND","ND","ND","0"],
    [54548,"2016-07-26T15:00:00","39.9","ND","ND","ND","ND","ND","ND","ND","ND","ND","ND","0"],
    [54549,"2016-07-26T16:00:00","24.4","ND","ND","ND","ND","0.3","ND","ND","ND","ND","ND","0"],
    [54550,"2016-07-26T17:00:00","18.6","ND","ND","ND","ND","0.4","ND","ND","ND","ND","ND","0"],
    [54551,"2016-07-26T18:00:00","9.8","ND","ND","ND","ND","0.1","ND","ND","ND","ND","ND","0"],
    [54552,"2016-07-26T19:00:00","2.7","ND","ND","ND","ND","0.6","ND","ND","ND","ND","ND","0"],
    [54553,"2016-07-26T20:00:00","21.6","ND","ND","ND","ND","0.7","ND","ND","ND","ND","ND","0"],
    [54554,"2016-07-26T21:00:00","45.6","ND","ND","ND","ND","1.4","ND","ND","ND","ND","ND","0"],
    [54555,"2016-07-26T22:00:00","39.8","ND","ND","ND","ND","1.2","ND","ND","ND","ND","ND","0"],
    [54556,"2016-07-26T23:00:00","33.5","ND","ND","ND","ND","4.6","ND","ND","ND","ND","ND","0"],
    [54557,"2016-07-27T00:00:00","39.9","ND","ND","ND","ND","3.3","ND","ND","ND","ND","ND","0"],
    [54558,"2016-07-27T01:00:00","53.4","ND","ND","ND","ND","2.2","ND","ND","ND","ND","ND","0"],
    [54559,"2016-07-27T02:00:00","57.8","ND","ND","ND","ND","2.5","ND","ND","ND","ND","ND","0"],
    [54560,"2016-07-27T03:00:00","43.5","ND","ND","ND","ND","2.8","ND","ND","ND","ND","ND","0"],
    [54561,"2016-07-27T04:00:00","34.4","ND","ND","ND","ND","1.0","ND","ND","ND","ND","ND","0"],
    [54562,"2016-07-27T05:00:00","18.6","ND","ND","ND","ND","1.4","ND","ND","ND","ND","ND","0"],
    [54563,"2016-07-27T06:00:00","29.8","ND","ND","ND","ND","3.0","ND","ND","ND","ND","ND","0"],
    [54564,"2016-07-27T07:00:00","46","ND","ND","ND","ND","2.8","ND","ND","ND","ND","ND","0"],
    [54565,"2016-07-27T08:00:00","67.6","ND","ND","ND","ND","3.3","ND","ND","ND","ND","ND","0"],
    [54566,"2016-07-27T09:00:00","70.6","ND","ND","ND","ND","3.3","ND","ND","ND","ND","ND","0"],
    [54567,"2016-07-27T10:00:00","60.2","ND","ND","ND","ND","1.4","ND","ND","ND","ND","ND","0"],
    [54568,"2016-07-27T11:00:00","43.2","ND","ND","ND","ND","1.3","ND","ND","ND","ND","ND","0"],
    [54569,"2016-07-27T12:00:00","34.3","ND","ND","ND","ND","0.1","ND","ND","ND","ND","ND","0"],
    [54570,"2016-07-27T13:00:00","25.9","ND","ND","ND","ND","1.0","ND","ND","ND","ND","ND","0"],
    [54571,"2016-07-27T14:00:00","23.7","ND","ND","ND","ND","0.5","ND","ND","ND","ND","ND","0"],
    [54572,"2016-07-27T15:00:00","25.5","ND","ND","ND","ND","0.4","ND","ND","ND","ND","ND","0"],
    [54573,"2016-07-27T16:00:00","10.3","ND","ND","ND","ND","0.3","ND","ND","ND","ND","ND","0"],
    [54574,"2016-07-27T17:00:00","16.5","ND","ND","ND","ND","0.4","ND","ND","ND","ND","ND","0"],
    [54575,"2016-07-27T18:00:00","7","ND","ND","ND","ND","0.1","ND","ND","ND","ND","ND","0"],
    [54576,"2016-07-27T19:00:00","15.4","ND","ND","ND","ND","0.4","ND","ND","ND","ND","ND","0"],
    [54577,"2016-07-27T20:00:00","26.9","ND","ND","ND","ND","0.3","ND","ND","ND","ND","ND","0"],
    [54578,"2016-07-27T21:00:00","29.2","ND","ND","ND","ND","1.4","ND","ND","ND","ND","ND","0"],
    [54579,"2016-07-27T22:00:00","36.8","ND","ND","ND","ND","1.3","ND","ND","ND","ND","ND","0"],
    [54580,"2016-07-27T23:00:00","23.4","ND","ND","ND","ND","0.3","ND","ND","ND","ND","ND","0.25"],
    [54581,"2016-07-28T00:00:00","22.6","ND","ND","ND","ND","4.2","ND","ND","ND","ND","ND","0"],
    [54582,"2016-07-28T01:00:00","55","ND","ND","ND","ND","2.4","ND","ND","ND","ND","ND","0"],
    [54583,"2016-07-28T02:00:00","25.9","ND","ND","ND","ND","0.4","ND","ND","ND","ND","ND","0"],
    [54584,"2016-07-28T03:00:00","17.1","ND","ND","ND","ND","1.3","ND","ND","ND","ND","ND","0"],
    [54585,"2016-07-28T04:00:00","31.3","ND","ND","ND","ND","1.8","ND","ND","ND","ND","ND","0"],
    [54586,"2016-07-28T05:00:00","33.5","ND","ND","ND","ND","6.1","ND","ND","ND","ND","ND","0"],
    [54587,"2016-07-28T06:00:00","33.1","ND","ND","ND","ND","4.9","ND","ND","ND","ND","ND","0"],
    [54588,"2016-07-28T07:00:00","45.1","ND","ND","ND","ND","8.2","ND","ND","ND","ND","ND","0"],
    [54589,"2016-07-28T08:00:00","68.9","ND","ND","ND","ND","ND","ND","ND","ND","ND","ND","0"],
    [54590,"2016-07-28T09:00:00","80.1","ND","ND","ND","ND","5.8","ND","ND","ND","ND","ND","0"],
    [54591,"2016-07-28T10:00:00","77.7","ND","ND","ND","ND","4.0","ND","ND","ND","ND","ND","0"],
    [54592,"2016-07-28T11:00:00","57.9","ND","ND","ND","ND","2.0","ND","ND","ND","ND","ND","0"],
    [54593,"2016-07-28T12:00:00","34.6","ND","ND","ND","ND","0.8","ND","ND","ND","ND","ND","0"],
    [54594,"2016-07-28T13:00:00","48.2","ND","ND","ND","ND","0.3","ND","ND","ND","ND","ND","0"],
    [54595,"2016-07-28T14:00:00","52.4","ND","ND","ND","ND","0.4","ND","ND","ND","ND","ND","0"],
    [54596,"2016-07-28T15:00:00","48","ND","ND","ND","ND","0.4","ND","ND","ND","ND","ND","0"],
    [54597,"2016-07-28T16:00:00","44.8","ND","ND","ND","ND","0.6","ND","ND","ND","ND","ND","0"],
    [54598,"2016-07-28T17:00:00","44.9","ND","ND","ND","ND","0.6","ND","ND","ND","ND","ND","0"],
    [54599,"2016-07-28T18:00:00","25.3","ND","ND","ND","ND","1.0","ND","ND","ND","ND","ND","0"],
    [54600,"2016-07-28T19:00:00","21.7","ND","ND","ND","ND","0.3","ND","ND","ND","ND","ND","0"],
    [54601,"2016-07-28T20:00:00","3.7","ND","ND","ND","ND","0.5","ND","ND","ND","ND","ND","0"],
    [54602,"2016-07-28T21:00:00","16.2","ND","ND","ND","ND","0.2","ND","ND","ND","ND","ND","0"],
    [54603,"2016-07-28T22:00:00","38","ND","ND","ND","ND","0.9","ND","ND","ND","ND","ND","0"],
    [54604,"2016-07-28T23:00:00","51.7","ND","ND","ND","ND","0.5","ND","ND","ND","ND","ND","0"],
    [54605,"2016-07-29T00:00:00","35.6","ND","ND","ND","ND","1.1","ND","ND","ND","ND","ND","0"],
    [54606,"2016-07-29T01:00:00","34","ND","ND","ND","ND","0.5","ND","ND","ND","ND","ND","0"],
    [54607,"2016-07-29T02:00:00","44.2","ND","ND","ND","ND","0.7","ND","ND","ND","ND","ND","0"],
    [54608,"2016-07-29T03:00:00","49.7","ND","ND","ND","ND","0.5","ND","ND","ND","ND","ND","0"],
    [54609,"2016-07-29T04:00:00","51.9","ND","ND","ND","ND","0.7","ND","ND","ND","ND","ND","0"],
    [54610,"2016-07-29T05:00:00","59.3","ND","ND","ND","ND","0.8","ND","ND","ND","ND","ND","0"],
    [54611,"2016-07-29T06:00:00","49.3","ND","ND","ND","ND","0.8","ND","ND","ND","ND","ND","0"],
    [54612,"2016-07-29T07:00:00","44.5","ND","ND","ND","ND","0.8","ND","ND","ND","ND","ND","0"],
    [54613,"2016-07-29T08:00:00","45.1","ND","ND","ND","ND","0.5","ND","ND","ND","ND","ND","0"],
    [54614,"2016-07-29T09:00:00","44.4","ND","ND","ND","ND","0.3","ND","ND","ND","ND","ND","0"],
    [54615,"2016-07-29T10:00:00","65.3","ND","ND","ND","ND","0.5","ND","ND","ND","ND","ND","0"],
    [54616,"2016-07-29T11:00:00","60.7","ND","ND","ND","ND","0.5","ND","ND","ND","ND","ND","0"],
    [54617,"2016-07-29T12:00:00","55.6","ND","ND","ND","ND","0.8","ND","ND","ND","ND","ND","0"],
    [54618,"2016-07-29T13:00:00","42.5","ND","ND","ND","ND","0.6","ND","ND","ND","ND","ND","0"],
    [54619,"2016-07-29T14:00:00","31.4","ND","ND","ND","ND","0.7","ND","ND","ND","ND","ND","0"],
    [54620,"2016-07-29T15:00:00","33.9","ND","ND","ND","ND","0.5","ND","ND","ND","ND","ND","0"],
    [54621,"2016-07-29T16:00:00","31.5","ND","ND","ND","ND","0.3","ND","ND","ND","ND","ND","0"],
    [54622,"2016-07-29T17:00:00","40.1","ND","ND","ND","ND","0.4","ND","ND","ND","ND","ND","0"],
    [54623,"2016-07-29T18:00:00","26.8","ND","ND","ND","ND","0.2","ND","ND","ND","ND","ND","0"],
    [54624,"2016-07-29T19:00:00","20.6","ND","ND","ND","ND","0.2","ND","ND","ND","ND","ND","0"],
    [54625,"2016-07-29T20:00:00","21.6","ND","ND","ND","ND","0.4","ND","ND","ND","ND","ND","0"],
    [54626,"2016-07-29T21:00:00","48.2","ND","ND","ND","ND","0.2","ND","ND","ND","ND","ND","0"],
    [54627,"2016-07-29T22:00:00","52.9","ND","ND","ND","ND","0.3","ND","ND","ND","ND","ND","0"],
    [54628,"2016-07-29T23:00:00","48.9","ND","ND","ND","ND","0.5","ND","ND","ND","ND","ND","0"],
    [54629,"2016-07-30T00:00:00","47.6","ND","ND","ND","ND","0.7","ND","ND","ND","ND","ND","0"],
    [54630,"2016-07-30T01:00:00","68.3","ND","ND","ND","ND","1.4","ND","ND","ND","ND","ND","0"],
    [54631,"2016-07-30T02:00:00","67.2","ND","ND","ND","ND","1.8","ND","ND","ND","ND","ND","0"],
    [54632,"2016-07-30T03:00:00","58","ND","ND","ND","ND","1.1","ND","ND","ND","ND","ND","0"],
    [54633,"2016-07-30T04:00:00","60.6","ND","ND","ND","ND","2.5","ND","ND","ND","ND","ND","0"],
    [54634,"2016-07-30T05:00:00","50.1","ND","ND","ND","ND","1.3","ND","ND","ND","ND","ND","0"],
    [54635,"2016-07-30T06:00:00","47.7","ND","ND","ND","ND","0.9","ND","ND","ND","ND","ND","0"],
    [54636,"2016-07-30T07:00:00","54.6","ND","ND","ND","ND","1.1","ND","ND","ND","ND","ND","0"],
    [54637,"2016-07-30T08:00:00","92.3","ND","ND","ND","ND","0.8","ND","ND","ND","ND","ND","0"],
    [54638,"2016-07-30T09:00:00","111.9","ND","ND","ND","ND","1.5","ND","ND","ND","ND","ND","0"],
    [54639,"2016-07-30T10:00:00","82.5","ND","ND","ND","ND","0.9","ND","ND","ND","ND","ND","0"],
    [54640,"2016-07-30T11:00:00","49.5","ND","ND","ND","ND","0.9","ND","ND","ND","ND","ND","0"],
    [54641,"2016-07-30T12:00:00","40.1","ND","ND","ND","ND","0.8","ND","ND","ND","ND","ND","0"],
    [54642,"2016-07-30T13:00:00","32.1","ND","ND","ND","ND","0.4","ND","ND","ND","ND","ND","0"],
    [54643,"2016-07-30T14:00:00","36.8","ND","ND","ND","ND","0.4","ND","ND","ND","ND","ND","0"],
    [54644,"2016-07-30T15:00:00","38.6","ND","ND","ND","ND","0.3","ND","ND","ND","ND","ND","0"],
    [54645,"2016-07-30T16:00:00","33.4","ND","ND","ND","ND","0.6","ND","ND","ND","ND","ND","0"],
    [54646,"2016-07-30T17:00:00","15.1","ND","ND","ND","ND","0.6","ND","ND","ND","ND","ND","0"],
    [54647,"2016-07-30T18:00:00","19","ND","ND","ND","ND","0.3","ND","ND","ND","ND","ND","0"],
    [54648,"2016-07-30T19:00:00","11.5","ND","ND","ND","ND","0.2","ND","ND","ND","ND","ND","0"],
    [54649,"2016-07-30T20:00:00","18.5","ND","ND","ND","ND","0.4","ND","ND","ND","ND","ND","0"],
    [54650,"2016-07-30T21:00:00","28.3","ND","ND","ND","ND","0.8","ND","ND","ND","ND","ND","0"],
    [54651,"2016-07-30T22:00:00","40.2","ND","ND","ND","ND","0.5","ND","ND","ND","ND","ND","0"],
    [54652,"2016-07-30T23:00:00","41.6","ND","ND","ND","ND","2.0","ND","ND","ND","ND","ND","0"],
    [54653,"2016-07-31T00:00:00","32.7","ND","ND","ND","ND","1.2","ND","ND","ND","ND","ND","0"],
    [54654,"2016-07-31T01:00:00","33.5","ND","ND","ND","ND","0.4","ND","ND","ND","ND","ND","0"],
    [54655,"2016-07-31T02:00:00","34.4","ND","ND","ND","ND","0.6","ND","ND","ND","ND","ND","0"],
    [54656,"2016-07-31T03:00:00","41.5","ND","ND","ND","ND","0.2","ND","ND","ND","ND","ND","0"],
    [54657,"2016-07-31T04:00:00","30.2","ND","ND","ND","ND","0.4","ND","ND","ND","ND","ND","0"],
    [54658,"2016-07-31T05:00:00","27.7","ND","ND","ND","ND","0.2","ND","ND","ND","ND","ND","0"],
    [54659,"2016-07-31T06:00:00","58.8","ND","ND","ND","ND","0.7","ND","ND","ND","ND","ND","0"],
    [54660,"2016-07-31T07:00:00","58.8","ND","ND","ND","ND","9.1","ND","ND","ND","ND","ND","0"],
    [54661,"2016-07-31T08:00:00","58.2","ND","ND","ND","ND","8.8","ND","ND","ND","ND","ND","0"],
    [54662,"2016-07-31T09:00:00","62.1","ND","ND","ND","ND","6.7","ND","ND","ND","ND","ND","0"],
    [54663,"2016-07-31T10:00:00","58.7","ND","ND","ND","ND","3.6","ND","ND","ND","ND","ND","0"],
    [54664,"2016-07-31T11:00:00","40.3","ND","ND","ND","ND","1.7","ND","ND","ND","ND","ND","0"],
    [54665,"2016-07-31T12:00:00","30.5","ND","ND","ND","ND","0.9","ND","ND","ND","ND","ND","0"],
    [54666,"2016-07-31T13:00:00","27.4","ND","ND","ND","ND","0.8","ND","ND","ND","ND","ND","0"],
    [54667,"2016-07-31T14:00:00","32.1","ND","ND","ND","ND","0.9","ND","ND","ND","ND","ND","0"],
    [54668,"2016-07-31T15:00:00","40.8","ND","ND","ND","ND","0.8","ND","ND","ND","ND","ND","0"],
    [54669,"2016-07-31T16:00:00","38.5","ND","ND","ND","ND","0.2","ND","ND","ND","ND","ND","0"],
    [54670,"2016-07-31T17:00:00","34.5","ND","ND","ND","ND","0.9","ND","ND","ND","ND","ND","0"],
    [54671,"2016-07-31T18:00:00","32","ND","ND","ND","ND","1.1","ND","ND","ND","ND","ND","0"],
    [54672,"2016-07-31T19:00:00","21.2","ND","ND","ND","ND","0.3","ND","ND","ND","ND","ND","0"],
    [54673,"2016-07-31T20:00:00","14.4","ND","ND","ND","ND","0.8","ND","ND","ND","ND","ND","0"],
    [54674,"2016-07-31T21:00:00","21.2","ND","ND","ND","ND","0.4","ND","ND","ND","ND","ND","0"],
    [54675,"2016-07-31T22:00:00","41.6","ND","ND","ND","ND","0.5","ND","ND","ND","ND","ND","0"],
    [54676,"2016-07-31T23:00:00","38.3","ND","ND","ND","ND","0.9","ND","ND","ND","ND","ND","0"],
    [54677,"2016-08-01T00:00:00","36","ND","ND","ND","ND","1.0","ND","ND","ND","ND","ND","0"],
    [54678,"2016-08-01T01:00:00","21.2","ND","ND","ND","ND","1.3","ND","ND","ND","ND","ND","0"],
    [54679,"2016-08-01T02:00:00","30.1","ND","ND","ND","ND","1.8","ND","ND","ND","ND","ND","0"],
    [54680,"2016-08-01T03:00:00","31.8","ND","ND","ND","ND","0.8","ND","ND","ND","ND","ND","0"],
    [54681,"2016-08-01T04:00:00","32","ND","ND","ND","ND","1.2","ND","ND","ND","ND","ND","0"],
    [54682,"2016-08-01T05:00:00","27.4","ND","ND","ND","ND","1.2","ND","ND","ND","ND","ND","0"],
    [54683,"2016-08-01T06:00:00","24.1","ND","ND","ND","ND","0.8","ND","ND","ND","ND","ND","0"],
    [54684,"2016-08-01T07:00:00","26.6","ND","ND","ND","ND","0.3","ND","ND","ND","ND","ND","0"],
    [54685,"2016-08-01T08:00:00","46","ND","ND","ND","ND","0.4","ND","ND","ND","ND","ND","0"],
    [54686,"2016-08-01T09:00:00","90.4","ND","ND","ND","ND","0.8","ND","ND","ND","ND","ND","0"],
    [54687,"2016-08-01T10:00:00","71.8","ND","ND","ND","ND","1.3","ND","ND","ND","ND","ND","0"],
    [54688,"2016-08-01T11:00:00","54.2","ND","ND","ND","ND","0.9","ND","ND","ND","ND","ND","0"],
    [54689,"2016-08-01T12:00:00","41.3","ND","ND","ND","ND","0.7","ND","ND","ND","ND","ND","0"],
    [54690,"2016-08-01T13:00:00","37.7","ND","ND","ND","ND","0.8","ND","ND","ND","ND","ND","0"],
    [54691,"2016-08-01T14:00:00","36.5","ND","ND","ND","ND","0.2","ND","ND","ND","ND","ND","0"],
    [54692,"2016-08-01T15:00:00","35.4","ND","ND","ND","ND","0.5","ND","ND","ND","ND","ND","0"],
    [54693,"2016-08-01T16:00:00","26.5","ND","ND","ND","ND","0.6","ND","ND","ND","ND","ND","0"],
    [54694,"2016-08-01T17:00:00","30.2","ND","ND","ND","ND","0.5","ND","ND","ND","ND","ND","0"],
    [54695,"2016-08-01T18:00:00","33","ND","ND","ND","ND","0.3","ND","ND","ND","ND","ND","0"],
    [54696,"2016-08-01T19:00:00","27.2","ND","ND","ND","ND","0.3","ND","ND","ND","ND","ND","0"],
    [54697,"2016-08-01T20:00:00","19.9","ND","ND","ND","ND","0.3","ND","ND","ND","ND","ND","0"],
    [54698,"2016-08-01T21:00:00","27.7","ND","ND","ND","ND","0.4","ND","ND","ND","ND","ND","0"],
    [54699,"2016-08-01T22:00:00","29.2","ND","ND","ND","ND","0.4","ND","ND","ND","ND","ND","0"],
    [54700,"2016-08-01T23:00:00","43.8","ND","ND","ND","ND","2.5","ND","ND","ND","ND","ND","0"],
    [54701,"2016-08-02T00:00:00","50.5","ND","ND","ND","ND","1.3","ND","ND","ND","ND","ND","0"],
    [54702,"2016-08-02T01:00:00","57","ND","ND","ND","ND","1.9","ND","ND","ND","ND","ND","0"],
    [54703,"2016-08-02T02:00:00","61.2","ND","ND","ND","ND","1.8","ND","ND","ND","ND","ND","0"],
    [54704,"2016-08-02T03:00:00","47","ND","ND","ND","ND","1.9","ND","ND","ND","ND","ND","0"],
    [54705,"2016-08-02T04:00:00","41.8","ND","ND","ND","ND","1.0","ND","ND","ND","ND","ND","0"],
    [54706,"2016-08-02T05:00:00","40.3","ND","ND","ND","ND","1.0","ND","ND","ND","ND","ND","0"],
    [54707,"2016-08-02T06:00:00","35.1","ND","ND","ND","ND","0.6","ND","ND","ND","ND","ND","0"],
    [54708,"2016-08-02T07:00:00","38.8","ND","ND","ND","ND","0.6","ND","ND","ND","ND","ND","0"],
    [54709,"2016-08-02T08:00:00","73.7","ND","ND","ND","ND","0.8","ND","ND","ND","ND","ND","0"],
    [54710,"2016-08-02T09:00:00","75.5","ND","ND","ND","ND","0.3","ND","ND","ND","ND","ND","0"],
    [54711,"2016-08-02T10:00:00","56.6","ND","ND","ND","ND","0.7","ND","ND","ND","ND","ND","0"],
    [54712,"2016-08-02T11:00:00","52.7","ND","ND","ND","ND","0.7","ND","ND","ND","ND","ND","0"],
    [54713,"2016-08-02T12:00:00","52","ND","ND","ND","ND","0.9","ND","ND","ND","ND","ND","0"],
    [54714,"2016-08-02T13:00:00","43.5","ND","ND","ND","ND","0.8","ND","ND","ND","ND","ND","0"],
    [54715,"2016-08-02T14:00:00","53.6","ND","ND","ND","ND","0.9","ND","ND","ND","ND","ND","0"],
    [54716,"2016-08-02T15:00:00","57.5","ND","ND","ND","ND","0.6","ND","ND","ND","ND","ND","0"],
    [54717,"2016-08-02T16:00:00","64.1","ND","ND","ND","ND","0.6","ND","ND","ND","ND","ND","0"],
    [54718,"2016-08-02T17:00:00","42.7","ND","ND","ND","ND","0.6","ND","ND","ND","ND","ND","0"],
    [54719,"2016-08-02T18:00:00","22.6","ND","ND","ND","ND","0.2","ND","ND","ND","ND","ND","0"],
    [54720,"2016-08-02T19:00:00","18","ND","ND","ND","ND","0.5","ND","ND","ND","ND","ND","0"],
    [54721,"2016-08-02T20:00:00","20.2","ND","ND","ND","ND","0.3","ND","ND","ND","ND","ND","0"],
    [54722,"2016-08-02T21:00:00","34.6","ND","ND","ND","ND","0.4","ND","ND","ND","ND","ND","0"],
    [54723,"2016-08-02T22:00:00","44.2","ND","ND","ND","ND","0.6","ND","ND","ND","ND","ND","0"],
    [54724,"2016-08-02T23:00:00","54.5","ND","ND","ND","ND","0.6","ND","ND","ND","ND","ND","0"],
    [54725,"2016-08-03T00:00:00","52.9","ND","ND","ND","ND","0.8","ND","ND","ND","ND","ND","0"],
    [54726,"2016-08-03T01:00:00","56.5","ND","ND","ND","ND","0.7","ND","ND","ND","ND","ND","0"],
    [54727,"2016-08-03T02:00:00","55.4","ND","ND","ND","ND","1.0","ND","ND","ND","ND","ND","0"],
    [54728,"2016-08-03T03:00:00","53.8","ND","ND","ND","ND","1.3","ND","ND","ND","ND","ND","0"],
    [54729,"2016-08-03T04:00:00","86.5","ND","ND","ND","ND","1.4","ND","ND","ND","ND","ND","0"],
    [54730,"2016-08-03T05:00:00","81.1","ND","ND","ND","ND","1.6","ND","ND","ND","ND","ND","0"],
    [54731,"2016-08-03T06:00:00","65.1","ND","ND","ND","ND","2.2","ND","ND","ND","ND","ND","0"],
    [54732,"2016-08-03T07:00:00","65.9","ND","ND","ND","ND","1.3","ND","ND","ND","ND","ND","0"],
    [54733,"2016-08-03T08:00:00","64.5","ND","ND","ND","ND","1.2","ND","ND","ND","ND","ND","0"],
    [54734,"2016-08-03T09:00:00","85.9","ND","ND","ND","ND","1.5","ND","ND","ND","ND","ND","0"],
    [54735,"2016-08-03T10:00:00","62.6","ND","ND","ND","ND","1.7","ND","ND","ND","ND","ND","0"],
    [54736,"2016-08-03T11:00:00","49.8","ND","ND","ND","ND","0.7","ND","ND","ND","ND","ND","0"],
    [54737,"2016-08-03T12:00:00","39.2","ND","ND","ND","ND","0.8","ND","ND","ND","ND","ND","0"],
    [54738,"2016-08-03T13:00:00","33.2","ND","ND","ND","ND","0.7","ND","ND","ND","ND","ND","0"],
    [54739,"2016-08-03T14:00:00","29.5","ND","ND","ND","ND","0.9","ND","ND","ND","ND","ND","0"],
    [54740,"2016-08-03T15:00:00","26","ND","ND","ND","ND","0.6","ND","ND","ND","ND","ND","0"],
    [54741,"2016-08-03T16:00:00","25.8","ND","ND","ND","ND","0.7","ND","ND","ND","ND","ND","0"],
    [54742,"2016-08-03T17:00:00","17.2","ND","ND","ND","ND","0.5","ND","ND","ND","ND","ND","0"],
    [54743,"2016-08-03T18:00:00","17.8","ND","ND","ND","ND","0.1","ND","ND","ND","ND","ND","0"],
    [54744,"2016-08-03T19:00:00","14.7","ND","ND","ND","ND","0.3","ND","ND","ND","ND","ND","0"],
    [54745,"2016-08-03T20:00:00","14.6","ND","ND","ND","ND","0.1","ND","ND","ND","ND","ND","0"],
    [54746,"2016-08-03T21:00:00","26.1","ND","ND","ND","ND","0.1","ND","ND","ND","ND","ND","0"],
    [54747,"2016-08-03T22:00:00","42.5","ND","ND","ND","ND","0.7","ND","ND","ND","ND","ND","0"],
    [54748,"2016-08-03T23:00:00","36.7","ND","ND","ND","ND","0.6","ND","ND","ND","ND","ND","0"],
    [54749,"2016-08-04T00:00:00","39.7","ND","ND","ND","ND","0.5","ND","ND","ND","ND","ND","0"],
    [54750,"2016-08-04T01:00:00","45.8","ND","ND","ND","ND","0.5","ND","ND","ND","ND","ND","0"],
    [54751,"2016-08-04T02:00:00","43.6","ND","ND","ND","ND","0.7","ND","ND","ND","ND","ND","0"],
    [54752,"2016-08-04T03:00:00","48.9","ND","ND","ND","ND","0.7","ND","ND","ND","ND","ND","0"],
    [54753,"2016-08-04T04:00:00","60.6","ND","ND","ND","ND","0.3","ND","ND","ND","ND","ND","0"],
    [54754,"2016-08-04T05:00:00","48.7","ND","ND","ND","ND","0.8","ND","ND","ND","ND","ND","0"],
    [54755,"2016-08-04T06:00:00","65.4","ND","ND","ND","ND","1.3","ND","ND","ND","ND","ND","0"],
    [54756,"2016-08-04T07:00:00","87.9","ND","ND","ND","ND","1.8","ND","ND","ND","ND","ND","0"],
    [54757,"2016-08-04T08:00:00","110.9","ND","ND","ND","ND","3.1","ND","ND","ND","ND","ND","0"],
    [54758,"2016-08-04T09:00:00","116.4","ND","ND","ND","ND","4.8","ND","ND","ND","ND","ND","0"],
    [54759,"2016-08-04T10:00:00","73.1","ND","ND","ND","ND","2.4","ND","ND","ND","ND","ND","0"],
    [54760,"2016-08-04T11:00:00","42.9","ND","ND","ND","ND","2.3","ND","ND","ND","ND","ND","0"],
    [54761,"2016-08-04T12:00:00","38.4","ND","ND","ND","ND","1.1","ND","ND","ND","ND","ND","0"],
    [54762,"2016-08-04T13:00:00","29.1","ND","ND","ND","ND","0.7","ND","ND","ND","ND","ND","0"],
    [54763,"2016-08-04T14:00:00","30.1","ND","ND","ND","ND","0.6","ND","ND","ND","ND","ND","0"],
    [54764,"2016-08-04T15:00:00","32.2","ND","ND","ND","ND","0.3","ND","ND","ND","ND","ND","0"],
    [54765,"2016-08-04T16:00:00","32.3","ND","ND","ND","ND","0.4","ND","ND","ND","ND","ND","0"],
    [54766,"2016-08-04T17:00:00","42.8","ND","ND","ND","ND","0.4","ND","ND","ND","ND","ND","0"],
    [54767,"2016-08-04T18:00:00","35.2","ND","ND","ND","ND","0.7","ND","ND","ND","ND","ND","0"],
    [54768,"2016-08-04T19:00:00","9.7","ND","ND","ND","ND","0.6","ND","ND","ND","ND","ND","0"],
    [54769,"2016-08-04T20:00:00","1.2","ND","ND","ND","ND","0.3","ND","ND","ND","ND","ND","0"],
    [54770,"2016-08-04T21:00:00","26.2","ND","ND","ND","ND","0.1","ND","ND","ND","ND","ND","0"],
    [54771,"2016-08-04T22:00:00","37.3","ND","ND","ND","ND","0.5","ND","ND","ND","ND","ND","0"],
    [54772,"2016-08-04T23:00:00","34","ND","ND","ND","ND","0.5","ND","ND","ND","ND","ND","0"],
    [54773,"2016-08-05T00:00:00","60.3","ND","ND","ND","ND","0.6","ND","ND","ND","ND","ND","0"],
    [54774,"2016-08-05T01:00:00","70.8","ND","ND","ND","ND","0.8","ND","ND","ND","ND","ND","0"],
    [54775,"2016-08-05T02:00:00","41.4","ND","ND","ND","ND","1.0","ND","ND","ND","ND","ND","0"],
    [54776,"2016-08-05T03:00:00","69.4","ND","ND","ND","ND","1.3","ND","ND","ND","ND","ND","0"],
    [54777,"2016-08-05T04:00:00","69.5","ND","ND","ND","ND","1.3","ND","ND","ND","ND","ND","0"],
    [54778,"2016-08-05T05:00:00","53.7","ND","ND","ND","ND","0.8","ND","ND","ND","ND","ND","0"],
    [54779,"2016-08-05T06:00:00","63","ND","ND","ND","ND","2.0","ND","ND","ND","ND","ND","0"],
    [54780,"2016-08-05T07:00:00","81.8","ND","ND","ND","ND","1.4","ND","ND","ND","ND","ND","0"],
    [54781,"2016-08-05T08:00:00","78","ND","ND","ND","ND","1.6","ND","ND","ND","ND","ND","0"],
    [54782,"2016-08-05T09:00:00","90.1","ND","ND","ND","ND","1.6","ND","ND","ND","ND","ND","0"],
    [54783,"2016-08-05T10:00:00","95.9","ND","ND","ND","ND","1.5","ND","ND","ND","ND","ND","0"],
    [54784,"2016-08-05T11:00:00","72.8","ND","ND","ND","ND","0.8","ND","ND","ND","ND","ND","0"],
    [54785,"2016-08-05T12:00:00","52.6","ND","ND","ND","ND","1.0","ND","ND","ND","ND","ND","0"],
    [54786,"2016-08-05T13:00:00","41.8","ND","ND","ND","ND","0.8","ND","ND","ND","ND","ND","0"],
    [54787,"2016-08-05T14:00:00","44.5","ND","ND","ND","ND","0.5","ND","ND","ND","ND","ND","0"],
    [54788,"2016-08-05T15:00:00","46.2","ND","ND","ND","ND","0.8","ND","ND","ND","ND","ND","0"],
    [54789,"2016-08-05T16:00:00","42","ND","ND","ND","ND","0.2","ND","ND","ND","ND","ND","0"],
    [54790,"2016-08-05T17:00:00","34.9","ND","ND","ND","ND","0.5","ND","ND","ND","ND","ND","0"],
    [54791,"2016-08-05T18:00:00","33.1","ND","ND","ND","ND","0.5","ND","ND","ND","ND","ND","0"],
    [54792,"2016-08-05T19:00:00","14.4","ND","ND","ND","ND","0.2","ND","ND","ND","ND","ND","0"],
    [54793,"2016-08-05T20:00:00","2.1","ND","ND","ND","ND","0.5","ND","ND","ND","ND","ND","0"],
    [54794,"2016-08-05T21:00:00","13.3","ND","ND","ND","ND","0.3","ND","ND","ND","ND","ND","0"],
    [54795,"2016-08-05T22:00:00","43.2","ND","ND","ND","ND","0.2","ND","ND","ND","ND","ND","0"],
    [54796,"2016-08-05T23:00:00","58.4","ND","ND","ND","ND","0.8","ND","ND","ND","ND","ND","0"],
    [54797,"2016-08-06T00:00:00","52","ND","ND","ND","ND","0.8","ND","ND","ND","ND","ND","0"],
    [54798,"2016-08-06T01:00:00","46.9","ND","ND","ND","ND","1.0","ND","ND","ND","ND","ND","0"],
    [54799,"2016-08-06T02:00:00","56.6","ND","ND","ND","ND","1.0","ND","ND","ND","ND","ND","0"],
    [54800,"2016-08-06T03:00:00","39.2","ND","ND","ND","ND","1.6","ND","ND","ND","ND","ND","0"],
    [54801,"2016-08-06T04:00:00","33.6","ND","ND","ND","ND","0.6","ND","ND","ND","ND","ND","0"],
    [54802,"2016-08-06T05:00:00","29.9","ND","ND","ND","ND","0.5","ND","ND","ND","ND","ND","0"],
    [54803,"2016-08-06T06:00:00","57.1","ND","ND","ND","ND","1.5","ND","ND","ND","ND","ND","0"],
    [54804,"2016-08-06T07:00:00","66.4","ND","ND","ND","ND","1.0","ND","ND","ND","ND","ND","0"],
    [54805,"2016-08-06T08:00:00","85.5","ND","ND","ND","ND","0.8","ND","ND","ND","ND","ND","0"],
    [54806,"2016-08-06T09:00:00","106","ND","ND","ND","ND","1.3","ND","ND","ND","ND","ND","0"],
    [54807,"2016-08-06T10:00:00","96.3","ND","ND","ND","ND","1.2","ND","ND","ND","ND","ND","0"],
    [54808,"2016-08-06T11:00:00","83.4","ND","ND","ND","ND","2.0","ND","ND","ND","ND","ND","0"],
    [54809,"2016-08-06T12:00:00","64.8","ND","ND","ND","ND","1.6","ND","ND","ND","ND","ND","0"],
    [54810,"2016-08-06T13:00:00","58.2","ND","ND","ND","ND","0.8","ND","ND","ND","ND","ND","0"],
    [54811,"2016-08-06T14:00:00","51.4","ND","ND","ND","ND","0.8","ND","ND","ND","ND","ND","0"],
    [54812,"2016-08-06T15:00:00","45.4","ND","ND","ND","ND","1.6","ND","ND","ND","ND","ND","0"],
    [54813,"2016-08-06T16:00:00","30.8","ND","ND","ND","ND","0.3","ND","ND","ND","ND","ND","0"],
    [54814,"2016-08-06T17:00:00","31.5","ND","ND","ND","ND","0.3","ND","ND","ND","ND","ND","0"],
    [54815,"2016-08-06T18:00:00","21.6","ND","ND","ND","ND","0.4","ND","ND","ND","ND","ND","0"],
    [54816,"2016-08-06T19:00:00","15.7","ND","ND","ND","ND","0.3","ND","ND","ND","ND","ND","0"],
    [54817,"2016-08-06T20:00:00","ND","ND","ND","ND","ND","0.9","ND","ND","ND","ND","ND","0"],
    [54818,"2016-08-06T21:00:00","7.9","ND","ND","ND","ND","0.5","ND","ND","ND","ND","ND","0"],
    [54819,"2016-08-06T22:00:00","39.3","ND","ND","ND","ND","1.1","ND","ND","ND","ND","ND","0"],
    [54820,"2016-08-06T23:00:00","42.6","ND","ND","ND","ND","1.2","ND","ND","ND","ND","ND","0"],
    [54821,"2016-08-07T00:00:00","39.8","ND","ND","ND","ND","0.6","ND","ND","ND","ND","ND","0"],
    [54822,"2016-08-07T01:00:00","44.5","ND","ND","ND","ND","0.6","ND","ND","ND","ND","ND","0"],
    [54823,"2016-08-07T02:00:00","33.1","ND","ND","ND","ND","1.4","ND","ND","ND","ND","ND","0"],
    [54824,"2016-08-07T03:00:00","26","ND","ND","ND","ND","2.2","ND","ND","ND","ND","ND","0"],
    [54825,"2016-08-07T04:00:00","25","ND","ND","ND","ND","0.9","ND","ND","ND","ND","ND","0"],
    [54826,"2016-08-07T05:00:00","27.1","ND","ND","ND","ND","1.4","ND","ND","ND","ND","ND","0"],
    [54827,"2016-08-07T06:00:00","40.4","ND","ND","ND","ND","0.9","ND","ND","ND","ND","ND","0"],
    [54828,"2016-08-07T07:00:00","41.3","ND","ND","ND","ND","0.9","ND","ND","ND","ND","ND","0"],
    [54829,"2016-08-07T08:00:00","54.1","ND","ND","ND","ND","1.8","ND","ND","ND","ND","ND","0"],
    [54830,"2016-08-07T09:00:00","55.7","ND","ND","ND","ND","1.8","ND","ND","ND","ND","ND","0"],
    [54831,"2016-08-07T10:00:00","56.3","ND","ND","ND","ND","1.7","ND","ND","ND","ND","ND","0"],
    [54832,"2016-08-07T11:00:00","39.4","ND","ND","ND","ND","0.8","ND","ND","ND","ND","ND","0"],
    [54833,"2016-08-07T12:00:00","40.2","ND","ND","ND","ND","1.8","ND","ND","ND","ND","ND","0"],
    [54834,"2016-08-07T13:00:00","42.8","ND","ND","ND","ND","0.9","ND","ND","ND","ND","ND","0"],
    [54835,"2016-08-07T14:00:00","37","ND","ND","ND","ND","0.5","ND","ND","ND","ND","ND","0"],
    [54836,"2016-08-07T15:00:00","35.8","ND","ND","ND","ND","1.1","ND","ND","ND","ND","ND","0"],
    [54837,"2016-08-07T16:00:00","25.7","ND","ND","ND","ND","1.1","ND","ND","ND","ND","ND","0"],
    [54838,"2016-08-07T17:00:00","25","ND","ND","ND","ND","0.9","ND","ND","ND","ND","ND","0"],
    [54839,"2016-08-07T18:00:00","22.4","ND","ND","ND","ND","0.3","ND","ND","ND","ND","ND","0"],
    [54840,"2016-08-07T19:00:00","23.5","ND","ND","ND","ND","0.7","ND","ND","ND","ND","ND","0"],
    [54841,"2016-08-07T20:00:00","26.3","ND","ND","ND","ND","0.4","ND","ND","ND","ND","ND","0"],
    [54842,"2016-08-07T21:00:00","23.3","ND","ND","ND","ND","0.3","ND","ND","ND","ND","ND","0"],
    [54843,"2016-08-07T22:00:00","17.9","ND","ND","ND","ND","0.6","ND","ND","ND","ND","ND","0"],
    [54844,"2016-08-07T23:00:00","32.2","ND","ND","ND","ND","2.2","ND","ND","ND","ND","ND","0"],
    [54845,"2016-08-08T00:00:00","33.5","ND","ND","ND","ND","2.8","ND","ND","ND","ND","ND","0"],
    [54846,"2016-08-08T01:00:00","31.6","ND","ND","ND","ND","2.1","ND","ND","ND","ND","ND","0"],
    [54847,"2016-08-08T02:00:00","28.8","ND","ND","ND","ND","1.3","ND","ND","ND","ND","ND","0"],
    [54848,"2016-08-08T03:00:00","32.5","ND","ND","ND","ND","1.0","ND","ND","ND","ND","ND","0"],
    [54849,"2016-08-08T04:00:00","33.4","ND","ND","ND","ND","1.5","ND","ND","ND","ND","ND","0"],
    [54850,"2016-08-08T05:00:00","31.9","ND","ND","ND","ND","1.4","ND","ND","ND","ND","ND","0"],
    [54851,"2016-08-08T06:00:00","34","ND","ND","ND","ND","1.1","ND","ND","ND","ND","ND","0"],
    [54852,"2016-08-08T07:00:00","39.6","ND","ND","ND","ND","0.6","ND","ND","ND","ND","ND","0"],
    [54853,"2016-08-08T08:00:00","74.6","ND","ND","ND","ND","1.1","ND","ND","ND","ND","ND","0"],
    [54854,"2016-08-08T09:00:00","77.1","ND","ND","ND","ND","0.8","ND","ND","ND","ND","ND","0"],
    [54855,"2016-08-08T10:00:00","49.3","ND","ND","ND","ND","0.9","ND","ND","ND","ND","ND","0"],
    [54856,"2016-08-08T11:00:00","40.4","ND","ND","ND","ND","0.3","ND","ND","ND","ND","ND","0"],
    [54857,"2016-08-08T12:00:00","37.7","ND","ND","ND","ND","0.8","ND","ND","ND","ND","ND","0"],
    [54858,"2016-08-08T13:00:00","35.9","ND","ND","ND","ND","0.3","ND","ND","ND","ND","ND","0"],
    [54859,"2016-08-08T14:00:00","25.9","ND","ND","ND","ND","0.4","ND","ND","ND","ND","ND","0"],
    [54860,"2016-08-08T15:00:00","28.8","ND","ND","ND","ND","0.6","ND","ND","ND","ND","ND","0"],
    [54861,"2016-08-08T16:00:00","37.4","ND","ND","ND","ND","0.3","ND","ND","ND","ND","ND","0"],
    [54862,"2016-08-08T17:00:00","33.9","ND","ND","ND","ND","0.3","ND","ND","ND","ND","ND","0"],
    [54863,"2016-08-08T18:00:00","18.6","ND","ND","ND","ND","0.2","ND","ND","ND","ND","ND","0"],
    [54864,"2016-08-08T19:00:00","18.8","ND","ND","ND","ND","0.5","ND","ND","ND","ND","ND","0"],
    [54865,"2016-08-08T20:00:00","18","ND","ND","ND","ND","0.5","ND","ND","ND","ND","ND","0"],
    [54866,"2016-08-08T21:00:00","38.1","ND","ND","ND","ND","0.4","ND","ND","ND","ND","ND","0"],
    [54867,"2016-08-08T22:00:00","43.2","ND","ND","ND","ND","0.8","ND","ND","ND","ND","ND","0"],
    [54868,"2016-08-08T23:00:00","52.6","ND","ND","ND","ND","5.9","ND","ND","ND","ND","ND","0"],
    [54869,"2016-08-09T00:00:00","39.7","ND","ND","ND","ND","2.6","ND","ND","ND","ND","ND","0"],
    [54870,"2016-08-09T01:00:00","34.9","ND","ND","ND","ND","1.9","ND","ND","ND","ND","ND","0"],
    [54871,"2016-08-09T02:00:00","34.4","ND","ND","ND","ND","1.7","ND","ND","ND","ND","ND","0"],
    [54872,"2016-08-09T03:00:00","45.2","ND","ND","ND","ND","1.2","ND","ND","ND","ND","ND","0"],
    [54873,"2016-08-09T04:00:00","49.3","ND","ND","ND","ND","2.0","ND","ND","ND","ND","ND","0"],
    [54874,"2016-08-09T05:00:00","46","ND","ND","ND","ND","1.4","ND","ND","ND","ND","ND","0"],
    [54875,"2016-08-09T06:00:00","52.9","ND","ND","ND","ND","1.3","ND","ND","ND","ND","ND","0"],
    [54876,"2016-08-09T07:00:00","50.8","ND","ND","ND","ND","1.2","ND","ND","ND","ND","ND","0"],
    [54877,"2016-08-09T08:00:00","75","ND","ND","ND","ND","0.3","ND","ND","ND","ND","ND","0"],
    [54878,"2016-08-09T09:00:00","105.6","ND","ND","ND","ND","0.9","ND","ND","ND","ND","ND","0"],
    [54879,"2016-08-09T10:00:00","107","ND","ND","ND","ND","1.7","ND","ND","ND","ND","ND","0"],
    [54880,"2016-08-09T11:00:00","83.4","ND","ND","ND","ND","1.5","ND","ND","ND","ND","ND","0"],
    [54881,"2016-08-09T12:00:00","51.8","ND","ND","ND","ND","1.1","ND","ND","ND","ND","ND","0"],
    [54882,"2016-08-09T13:00:00","48","ND","ND","ND","ND","0.9","ND","ND","ND","ND","ND","0"],
    [54883,"2016-08-09T14:00:00","52.1","ND","ND","ND","ND","0.5","ND","ND","ND","ND","ND","0"],
    [54884,"2016-08-09T15:00:00","48.4","ND","ND","ND","ND","0.5","ND","ND","ND","ND","ND","0"],
    [54885,"2016-08-09T16:00:00","38.5","ND","ND","ND","ND","0.6","ND","ND","ND","ND","ND","0"],
    [54886,"2016-08-09T17:00:00","39.9","ND","ND","ND","ND","0.6","ND","ND","ND","ND","ND","0"],
    [54887,"2016-08-09T18:00:00","33.7","ND","ND","ND","ND","0.6","ND","ND","ND","ND","ND","0"],
    [54888,"2016-08-09T19:00:00","19","ND","ND","ND","ND","0.3","ND","ND","ND","ND","ND","0"],
    [54889,"2016-08-09T20:00:00","7","ND","ND","ND","ND","0.2","ND","ND","ND","ND","ND","0"],
    [54890,"2016-08-09T21:00:00","14.2","ND","ND","ND","ND","0.2","ND","ND","ND","ND","ND","0"],
    [54891,"2016-08-09T22:00:00","32.8","ND","ND","ND","ND","0.7","ND","ND","ND","ND","ND","0"],
    [54892,"2016-08-09T23:00:00","34.1","ND","ND","ND","ND","1.3","ND","ND","ND","ND","ND","0"],
    [54893,"2016-08-10T00:00:00","43.2","ND","ND","ND","ND","1.4","ND","ND","ND","ND","ND","0"],
    [54894,"2016-08-10T01:00:00","33.8","ND","ND","ND","ND","0.9","ND","ND","ND","ND","ND","0"],
    [54895,"2016-08-10T02:00:00","33.1","ND","ND","ND","ND","0.9","ND","ND","ND","ND","ND","0"],
    [54896,"2016-08-10T03:00:00","34.1","ND","ND","ND","ND","0.7","ND","ND","ND","ND","ND","0"],
    [54897,"2016-08-10T04:00:00","44.6","ND","ND","ND","ND","1.1","ND","ND","ND","ND","ND","0"],
    [54898,"2016-08-10T05:00:00","42.9","ND","ND","ND","ND","0.7","ND","ND","ND","ND","ND","0"],
    [54899,"2016-08-10T06:00:00","33.7","ND","ND","ND","ND","1.4","ND","ND","ND","ND","ND","0"],
    [54900,"2016-08-10T07:00:00","49.8","ND","ND","ND","ND","1.5","ND","ND","ND","ND","ND","0"],
    [54901,"2016-08-10T08:00:00","95.1","ND","ND","ND","ND","1.7","ND","ND","ND","ND","ND","0"],
    [54902,"2016-08-10T09:00:00","100","ND","ND","ND","ND","1.9","ND","ND","ND","ND","ND","0"],
    [54903,"2016-08-10T10:00:00","84.4","ND","ND","ND","ND","2.8","ND","ND","ND","ND","ND","0"],
    [54904,"2016-08-10T11:00:00","67.1","ND","ND","ND","ND","2.9","ND","ND","ND","ND","ND","0"],
    [54905,"2016-08-10T12:00:00","68.4","ND","ND","ND","ND","1.9","ND","ND","ND","ND","ND","0"],
    [54906,"2016-08-10T13:00:00","54.5","ND","ND","ND","ND","1.1","ND","ND","ND","ND","ND","0"],
    [54907,"2016-08-10T14:00:00","35.7","ND","ND","ND","ND","1.0","ND","ND","ND","ND","ND","0"],
    [54908,"2016-08-10T15:00:00","39.1","ND","ND","ND","ND","1.2","ND","ND","ND","ND","ND","0"],
    [54909,"2016-08-10T16:00:00","40.1","ND","ND","ND","ND","0.4","ND","ND","ND","ND","ND","0"],
    [54910,"2016-08-10T17:00:00","25.1","ND","ND","ND","ND","0.6","ND","ND","ND","ND","ND","0"],
    [54911,"2016-08-10T18:00:00","24.9","ND","ND","ND","ND","0.5","ND","ND","ND","ND","ND","0"],
    [54912,"2016-08-10T19:00:00","15.9","ND","ND","ND","ND","0.5","ND","ND","ND","ND","ND","0"],
    [54913,"2016-08-10T20:00:00","12.2","ND","ND","ND","ND","0.3","ND","ND","ND","ND","ND","0"],
    [54914,"2016-08-10T21:00:00","25","ND","ND","ND","ND","1.2","ND","ND","ND","ND","ND","0"],
    [54915,"2016-08-10T22:00:00","39.1","ND","ND","ND","ND","2.0","ND","ND","ND","ND","ND","0"],
    [54916,"2016-08-10T23:00:00","47.8","ND","ND","ND","ND","1.3","ND","ND","ND","ND","ND","0"],
    [54917,"2016-08-11T00:00:00","45.6","ND","ND","ND","ND","0.9","ND","ND","ND","ND","ND","0"],
    [54918,"2016-08-11T01:00:00","37.6","ND","ND","ND","ND","2.1","ND","ND","ND","ND","ND","0"],
    [54919,"2016-08-11T02:00:00","19.2","ND","ND","ND","ND","3.9","ND","ND","ND","ND","ND","0"],
    [54920,"2016-08-11T03:00:00","24","ND","ND","ND","ND","3.9","ND","ND","ND","ND","ND","0"],
    [54921,"2016-08-11T04:00:00","24","ND","ND","ND","ND","3.6","ND","ND","ND","ND","ND","0"],
    [54922,"2016-08-11T05:00:00","38.4","ND","ND","ND","ND","2.8","ND","ND","ND","ND","ND","0"],
    [54923,"2016-08-11T06:00:00","49.2","ND","ND","ND","ND","2.1","ND","ND","ND","ND","ND","0"],
    [54924,"2016-08-11T07:00:00","57.8","ND","ND","ND","ND","1.1","ND","ND","ND","ND","ND","0"],
    [54925,"2016-08-11T08:00:00","61.2","ND","ND","ND","ND","1.8","ND","ND","ND","ND","ND","0"],
    [54926,"2016-08-11T09:00:00","82.2","ND","ND","ND","ND","1.8","ND","ND","ND","ND","ND","0"],
    [54927,"2016-08-11T10:00:00","71.1","ND","ND","ND","ND","1.1","ND","ND","ND","ND","ND","0"],
    [54928,"2016-08-11T11:00:00","50.1","ND","ND","ND","ND","1.6","ND","ND","ND","ND","ND","0"],
    [54929,"2016-08-11T12:00:00","42","ND","ND","ND","ND","0.9","ND","ND","ND","ND","ND","0"],
    [54930,"2016-08-11T13:00:00","41.3","ND","ND","ND","ND","0.7","ND","ND","ND","ND","ND","0"],
    [54931,"2016-08-11T14:00:00","49.8","ND","ND","ND","ND","1.2","ND","ND","ND","ND","ND","0"],
    [54932,"2016-08-11T15:00:00","52.2","ND","ND","ND","ND","0.4","ND","ND","ND","ND","ND","0"],
    [54933,"2016-08-11T16:00:00","51.2","ND","ND","ND","ND","0.4","ND","ND","ND","ND","ND","0"],
    [54934,"2016-08-11T17:00:00","38.7","ND","ND","ND","ND","0.7","ND","ND","ND","ND","ND","0"],
    [54935,"2016-08-11T18:00:00","29.1","ND","ND","ND","ND","0.7","ND","ND","ND","ND","ND","0"],
    [54936,"2016-08-11T19:00:00","23.7","ND","ND","ND","ND","0.7","ND","ND","ND","ND","ND","0"],
    [54937,"2016-08-11T20:00:00","24.4","ND","ND","ND","ND","0.3","ND","ND","ND","ND","ND","0"],
    [54938,"2016-08-11T21:00:00","28.8","ND","ND","ND","ND","0.2","ND","ND","ND","ND","ND","0"],
    [54939,"2016-08-11T22:00:00","33.4","ND","ND","ND","ND","1.3","ND","ND","ND","ND","ND","0"],
    [54940,"2016-08-11T23:00:00","45","ND","ND","ND","ND","0.9","ND","ND","ND","ND","ND","0"],
    [54941,"2016-08-12T00:00:00","38.2","ND","ND","ND","ND","1.4","ND","ND","ND","ND","ND","0"],
    [54942,"2016-08-12T01:00:00","25.9","ND","ND","ND","ND","0.8","ND","ND","ND","ND","ND","0"],
    [54943,"2016-08-12T02:00:00","26.8","ND","ND","ND","ND","0.9","ND","ND","ND","ND","ND","0"],
    [54944,"2016-08-12T03:00:00","19.9","ND","ND","ND","ND","1.2","ND","ND","ND","ND","ND","0"],
    [54945,"2016-08-12T04:00:00","68.1","ND","ND","ND","ND","0.8","ND","ND","ND","ND","ND","0"],
    [54946,"2016-08-12T05:00:00","100.3","ND","ND","ND","ND","2.0","ND","ND","ND","ND","ND","0"],
    [54947,"2016-08-12T06:00:00","46.1","ND","ND","ND","ND","1.5","ND","ND","ND","ND","ND","0"],
    [54948,"2016-08-12T07:00:00","58.4","ND","ND","ND","ND","1.2","ND","ND","ND","ND","ND","0"],
    [54949,"2016-08-12T08:00:00","47.6","ND","ND","ND","ND","0.9","ND","ND","ND","ND","ND","0"],
    [54950,"2016-08-12T09:00:00","48","ND","ND","ND","ND","1.0","ND","ND","ND","ND","ND","0"],
    [54951,"2016-08-12T10:00:00","46.7","ND","ND","ND","ND","1.0","ND","ND","ND","ND","ND","0"],
    [54952,"2016-08-12T11:00:00","33.9","ND","ND","ND","ND","1.3","ND","ND","ND","ND","ND","0"],
    [54953,"2016-08-12T12:00:00","31.8","ND","ND","ND","ND","0.3","ND","ND","ND","ND","ND","0"],
    [54954,"2016-08-12T13:00:00","41","ND","ND","ND","ND","0.6","ND","ND","ND","ND","ND","0"],
    [54955,"2016-08-12T14:00:00","44.1","ND","ND","ND","ND","0.5","ND","ND","ND","ND","ND","0"],
    [54956,"2016-08-12T15:00:00","43.6","ND","ND","ND","ND","0.8","ND","ND","ND","ND","ND","0"],
    [54957,"2016-08-12T16:00:00","38.2","ND","ND","ND","ND","0.6","ND","ND","ND","ND","ND","0"],
    [54958,"2016-08-12T17:00:00","28.4","ND","ND","ND","ND","0.5","ND","ND","ND","ND","ND","0"],
    [54959,"2016-08-12T18:00:00","24.4","ND","ND","ND","ND","0.6","ND","ND","ND","ND","ND","0"],
    [54960,"2016-08-12T19:00:00","21.1","ND","ND","ND","ND","0.4","ND","ND","ND","ND","ND","0"],
    [54961,"2016-08-12T20:00:00","5.7","ND","ND","ND","ND","0.4","ND","ND","ND","ND","ND","0"],
    [54962,"2016-08-12T21:00:00","23.6","ND","ND","ND","ND","0.5","ND","ND","ND","ND","ND","0"],
    [54963,"2016-08-12T22:00:00","39.3","ND","ND","ND","ND","1.0","ND","ND","ND","ND","ND","0"],
    [54964,"2016-08-12T23:00:00","52.1","ND","ND","ND","ND","3.1","ND","ND","ND","ND","ND","0"],
    [54965,"2016-08-13T00:00:00","48.4","ND","ND","ND","ND","1.9","ND","ND","ND","ND","ND","0"],
    [54966,"2016-08-13T01:00:00","50","ND","ND","ND","ND","1.2","ND","ND","ND","ND","ND","0"],
    [54967,"2016-08-13T02:00:00","50.7","ND","ND","ND","ND","0.9","ND","ND","ND","ND","ND","0"],
    [54968,"2016-08-13T03:00:00","45.6","ND","ND","ND","ND","0.9","ND","ND","ND","ND","ND","0"],
    [54969,"2016-08-13T04:00:00","49.9","ND","ND","ND","ND","1.0","ND","ND","ND","ND","ND","0"],
    [54970,"2016-08-13T05:00:00","38.8","ND","ND","ND","ND","0.9","ND","ND","ND","ND","ND","0"],
    [54971,"2016-08-13T06:00:00","36.8","ND","ND","ND","ND","1.2","ND","ND","ND","ND","ND","0"],
    [54972,"2016-08-13T07:00:00","36.5","ND","ND","ND","ND","0.9","ND","ND","ND","ND","ND","0"],
    [54973,"2016-08-13T08:00:00","59.5","ND","ND","ND","ND","0.5","ND","ND","ND","ND","ND","0"],
    [54974,"2016-08-13T09:00:00","85.8","ND","ND","ND","ND","2.7","ND","ND","ND","ND","ND","0"],
    [54975,"2016-08-13T10:00:00","66.6","ND","ND","ND","ND","0.8","ND","ND","ND","ND","ND","0"],
    [54976,"2016-08-13T11:00:00","50.5","ND","ND","ND","ND","0.8","ND","ND","ND","ND","ND","0"],
    [54977,"2016-08-13T12:00:00","52.7","ND","ND","ND","ND","0.9","ND","ND","ND","ND","ND","0"],
    [54978,"2016-08-13T13:00:00","52.2","ND","ND","ND","ND","1.2","ND","ND","ND","ND","ND","0"],
    [54979,"2016-08-13T14:00:00","43.8","ND","ND","ND","ND","0.6","ND","ND","ND","ND","ND","0"],
    [54980,"2016-08-13T15:00:00","45.8","ND","ND","ND","ND","0.4","ND","ND","ND","ND","ND","0"],
    [54981,"2016-08-13T16:00:00","44.3","ND","ND","ND","ND","0.6","ND","ND","ND","ND","ND","0"],
    [54982,"2016-08-13T17:00:00","45.6","ND","ND","ND","ND","0.2","ND","ND","ND","ND","ND","0"],
    [54983,"2016-08-13T18:00:00","29","ND","ND","ND","ND","0.4","ND","ND","ND","ND","ND","0"],
    [54984,"2016-08-13T19:00:00","29.2","ND","ND","ND","ND","0.3","ND","ND","ND","ND","ND","0"],
    [54985,"2016-08-13T20:00:00","30.9","ND","ND","ND","ND","0.4","ND","ND","ND","ND","ND","0"],
    [54986,"2016-08-13T21:00:00","36.6","ND","ND","ND","ND","0.8","ND","ND","ND","ND","ND","0"],
    [54987,"2016-08-13T22:00:00","39.5","ND","ND","ND","ND","0.6","ND","ND","ND","ND","ND","0"],
    [54988,"2016-08-13T23:00:00","33","ND","ND","ND","ND","0.8","ND","ND","ND","ND","ND","0"],
    [54989,"2016-08-14T00:00:00","30.9","ND","ND","ND","ND","1.2","ND","ND","ND","ND","ND","0"],
    [54990,"2016-08-14T01:00:00","43.4","ND","ND","ND","ND","3.6","ND","ND","ND","ND","ND","0"],
    [54991,"2016-08-14T02:00:00","74.5","ND","ND","ND","ND","1.2","ND","ND","ND","ND","ND","0"],
    [54992,"2016-08-14T03:00:00","52.2","ND","ND","ND","ND","0.8","ND","ND","ND","ND","ND","0"],
    [54993,"2016-08-14T04:00:00","48.8","ND","ND","ND","ND","1.6","ND","ND","ND","ND","ND","0"],
    [54994,"2016-08-14T05:00:00","37.7","ND","ND","ND","ND","1.5","ND","ND","ND","ND","ND","0"],
    [54995,"2016-08-14T06:00:00","47.7","ND","ND","ND","ND","1.4","ND","ND","ND","ND","ND","0"],
    [54996,"2016-08-14T07:00:00","57.5","ND","ND","ND","ND","1.4","ND","ND","ND","ND","ND","0"],
    [54997,"2016-08-14T08:00:00","74.8","ND","ND","ND","ND","1.3","ND","ND","ND","ND","ND","0"],
    [54998,"2016-08-14T09:00:00","75.5","ND","ND","ND","ND","1.3","ND","ND","ND","ND","ND","0"],
    [54999,"2016-08-14T10:00:00","61.9","ND","ND","ND","ND","1.1","ND","ND","ND","ND","ND","0"],
    [55000,"2016-08-14T11:00:00","44.6","ND","ND","ND","ND","0.6","ND","ND","ND","ND","ND","0"],
    [55001,"2016-08-14T12:00:00","37.4","ND","ND","ND","ND","0.8","ND","ND","ND","ND","ND","0"],
    [55002,"2016-08-14T13:00:00","30.7","ND","ND","ND","ND","0.4","ND","ND","ND","ND","ND","0"],
    [55003,"2016-08-14T14:00:00","32.7","ND","ND","ND","ND","0.3","ND","ND","ND","ND","ND","0"],
    [55004,"2016-08-14T15:00:00","16.6","ND","ND","ND","ND","0.2","ND","ND","ND","ND","ND","0"],
    [55005,"2016-08-14T16:00:00","ND","ND","ND","ND","ND","0.4","ND","ND","ND","ND","ND","0"],
    [55006,"2016-08-14T17:00:00","ND","ND","ND","ND","ND","0.5","ND","ND","ND","ND","ND","0"],
    [55007,"2016-08-14T18:00:00","3.3","ND","ND","ND","ND","5.5","ND","ND","ND","ND","ND","0"],
    [55008,"2016-08-14T19:00:00","41.5","ND","ND","ND","ND","ND","ND","ND","ND","ND","ND","0"],
    [55009,"2016-08-14T20:00:00","ND","ND","ND","ND","ND","0.1","ND","ND","ND","ND","ND","0"],
    [55010,"2016-08-14T21:00:00","11.2","ND","ND","ND","ND","0.1","ND","ND","ND","ND","ND","0"],
    [55011,"2016-08-14T22:00:00","51","ND","ND","ND","ND","0.1","ND","ND","ND","ND","ND","0"],
    [55012,"2016-08-14T23:00:00","45.7","ND","ND","ND","ND","0.0","ND","ND","ND","ND","ND","0"],
    [55013,"2016-08-15T00:00:00","31.5","ND","ND","ND","ND","0.0","ND","ND","ND","ND","ND","0"],
    [55014,"2016-08-15T01:00:00","35.7","ND","ND","ND","ND","0.2","ND","ND","ND","ND","ND","0"],
    [55015,"2016-08-15T02:00:00","56.5","ND","ND","ND","ND","0.1","ND","ND","ND","ND","ND","0"],
    [55016,"2016-08-15T03:00:00","63.6","ND","ND","ND","ND","0.1","ND","ND","ND","ND","ND","0"],
    [55017,"2016-08-15T04:00:00","55.1","ND","ND","ND","ND","0.1","ND","ND","ND","ND","ND","0"],
    [55018,"2016-08-15T05:00:00","52.6","ND","ND","ND","ND","0.3","ND","ND","ND","ND","ND","0"],
    [55019,"2016-08-15T06:00:00","45.5","ND","ND","ND","ND","0.1","ND","ND","ND","ND","ND","0"],
    [55020,"2016-08-15T07:00:00","51.3","ND","ND","ND","ND","0.0","ND","ND","ND","ND","ND","0"],
    [55021,"2016-08-15T08:00:00","62.3","ND","ND","ND","ND","0.0","ND","ND","ND","ND","ND","0"],
    [55022,"2016-08-15T09:00:00","58.2","ND","ND","ND","ND","0.1","ND","ND","ND","ND","ND","0"],
    [55023,"2016-08-15T10:00:00","59.5","ND","ND","ND","ND","0.1","ND","ND","ND","ND","ND","0"],
    [55024,"2016-08-15T11:00:00","53","ND","ND","ND","ND","0.2","ND","ND","ND","ND","ND","0"],
    [55025,"2016-08-15T12:00:00","33.9","ND","ND","ND","ND","0.0","ND","ND","ND","ND","ND","0"],
    [55026,"2016-08-15T13:00:00","31.9","ND","ND","ND","ND","0.0","ND","ND","ND","ND","ND","0"],
    [55027,"2016-08-15T14:00:00","33.9","ND","ND","ND","ND","0.0","ND","ND","ND","ND","ND","0"],
    [55028,"2016-08-15T15:00:00","6.8","ND","ND","ND","ND","0.0","ND","ND","ND","ND","ND","0"],
    [55029,"2016-08-15T16:00:00","ND","ND","ND","ND","ND","0.0","ND","ND","ND","ND","ND","0"],
    [55030,"2016-08-15T17:00:00","ND","ND","ND","ND","ND","0.0","ND","ND","ND","ND","ND","0"],
    [55031,"2016-08-15T18:00:00","ND","ND","ND","ND","ND","0.0","ND","ND","ND","ND","ND","0"],
    [55032,"2016-08-15T19:00:00","ND","ND","ND","ND","ND","0.0","ND","ND","ND","ND","ND","0"],
    [55033,"2016-08-15T20:00:00","8.3","ND","ND","ND","ND","0.1","ND","ND","ND","ND","ND","0"],
    [55034,"2016-08-15T21:00:00","28.9","ND","ND","ND","ND","0.0","ND","ND","ND","ND","ND","0"],
    [55035,"2016-08-15T22:00:00","35.5","ND","ND","ND","ND","0.0","ND","ND","ND","ND","ND","0"],
    [55036,"2016-08-15T23:00:00","62.5","ND","ND","ND","ND","0.4","ND","ND","ND","ND","ND","0"],
    [55037,"2016-08-16T00:00:00","64.6","ND","ND","ND","ND","0.2","ND","ND","ND","ND","ND","0"],
    [55038,"2016-08-16T01:00:00","45.7","ND","ND","ND","ND","0.3","ND","ND","ND","ND","ND","0"],
    [55039,"2016-08-16T02:00:00","60.2","ND","ND","ND","ND","0.3","ND","ND","ND","ND","ND","0"],
    [55040,"2016-08-16T03:00:00","52.9","ND","ND","ND","ND","0.0","ND","ND","ND","ND","ND","0"],
    [55041,"2016-08-16T04:00:00","33.5","ND","ND","ND","ND","0.1","ND","ND","ND","ND","ND","0"],
    [55042,"2016-08-16T05:00:00","31.9","ND","ND","ND","ND","0.4","ND","ND","ND","ND","ND","0"],
    [55043,"2016-08-16T06:00:00","33.3","ND","ND","ND","ND","0.1","ND","ND","ND","ND","ND","0"],
    [55044,"2016-08-16T07:00:00","48.4","ND","ND","ND","ND","0.0","ND","ND","ND","ND","ND","0"],
    [55045,"2016-08-16T08:00:00","71.2","ND","ND","ND","ND","0.1","ND","ND","ND","ND","ND","0"],
    [55046,"2016-08-16T09:00:00","81.2","ND","ND","ND","ND","0.2","ND","ND","ND","ND","ND","0"],
    [55047,"2016-08-16T10:00:00","78.1","ND","ND","ND","ND","0.4","ND","ND","ND","ND","ND","0"],
    [55048,"2016-08-16T11:00:00","47.1","ND","ND","ND","ND","0.2","ND","ND","ND","ND","ND","0"],
    [55049,"2016-08-16T12:00:00","52.7","ND","ND","ND","ND","0.1","ND","ND","ND","ND","ND","0"],
    [55050,"2016-08-16T13:00:00","39.6","ND","ND","ND","ND","0.1","ND","ND","ND","ND","ND","0"],
    [55051,"2016-08-16T14:00:00","39.6","ND","ND","ND","ND","0.0","ND","ND","ND","ND","ND","0"],
    [55052,"2016-08-16T15:00:00","30.9","ND","ND","ND","ND","0.0","ND","ND","ND","ND","ND","0"],
    [55053,"2016-08-16T16:00:00","25.2","ND","ND","ND","ND","0.1","ND","ND","ND","ND","ND","0"],
    [55054,"2016-08-16T17:00:00","22.4","ND","ND","ND","ND","0.0","ND","ND","ND","ND","ND","0"],
    [55055,"2016-08-16T18:00:00","11.2","ND","ND","ND","ND","0.0","ND","ND","ND","ND","ND","0"],
    [55056,"2016-08-16T19:00:00","1.8","ND","ND","ND","ND","0.0","ND","ND","ND","ND","ND","0"],
    [55057,"2016-08-16T20:00:00","ND","ND","ND","ND","ND","0.1","ND","ND","ND","ND","ND","0"],
    [55058,"2016-08-16T21:00:00","ND","ND","ND","ND","ND","0.0","ND","ND","ND","ND","ND","0"],
    [55059,"2016-08-16T22:00:00","13.7","ND","ND","ND","ND","0.0","ND","ND","ND","ND","ND","0"],
    [55060,"2016-08-16T23:00:00","64.4","ND","ND","ND","ND","0.1","ND","ND","ND","ND","ND","0"],
    [55061,"2016-08-17T00:00:00","62.1","ND","ND","ND","ND","0.1","ND","ND","ND","ND","ND","0"],
    [55062,"2016-08-17T01:00:00","52.1","ND","ND","ND","ND","0.0","ND","ND","ND","ND","ND","0"],
    [55063,"2016-08-17T02:00:00","31.4","ND","ND","ND","ND","0.1","ND","ND","ND","ND","ND","0"],
    [55064,"2016-08-17T03:00:00","20.3","ND","ND","ND","ND","0.2","ND","ND","ND","ND","ND","0"],
    [55065,"2016-08-17T04:00:00","32","ND","ND","ND","ND","0.2","ND","ND","ND","ND","ND","0"],
    [55066,"2016-08-17T05:00:00","37.1","ND","ND","ND","ND","0.1","ND","ND","ND","ND","ND","0"],
    [55067,"2016-08-17T06:00:00","41.5","ND","ND","ND","ND","0.0","ND","ND","ND","ND","ND","0"],
    [55068,"2016-08-17T07:00:00","55.9","ND","ND","ND","ND","0.2","ND","ND","ND","ND","ND","0"],
    [55069,"2016-08-17T08:00:00","61.3","ND","ND","ND","ND","0.6","ND","ND","ND","ND","ND","0"],
    [55070,"2016-08-17T09:00:00","78.6","ND","ND","ND","ND","0.0","ND","ND","ND","ND","ND","0"],
    [55071,"2016-08-17T10:00:00","64.6","ND","ND","ND","ND","0.1","ND","ND","ND","ND","ND","0"],
    [55072,"2016-08-17T11:00:00","47.3","ND","ND","ND","ND","0.0","ND","ND","ND","ND","ND","0"],
    [55073,"2016-08-17T12:00:00","42.1","ND","ND","ND","ND","0.1","ND","ND","ND","ND","ND","0"],
    [55074,"2016-08-17T13:00:00","38.6","ND","ND","ND","ND","0.2","ND","ND","ND","ND","ND","0"],
    [55075,"2016-08-17T14:00:00","48.4","ND","ND","ND","ND","0.0","ND","ND","ND","ND","ND","0"],
    [55076,"2016-08-17T15:00:00","38.6","ND","ND","ND","ND","0.1","ND","ND","ND","ND","ND","0"],
    [55077,"2016-08-17T16:00:00","44.7","ND","ND","ND","ND","0.1","ND","ND","ND","ND","ND","0"],
    [55078,"2016-08-17T17:00:00","16.6","ND","ND","ND","ND","0.0","ND","ND","ND","ND","ND","0"],
    [55079,"2016-08-17T18:00:00","ND","ND","ND","ND","ND","0.0","ND","ND","ND","ND","ND","0"],
    [55080,"2016-08-17T19:00:00","5.2","ND","ND","ND","ND","0.0","ND","ND","ND","ND","ND","0"],
    [55081,"2016-08-17T20:00:00","42","ND","ND","ND","ND","0.0","ND","ND","ND","ND","ND","0"],
    [55082,"2016-08-17T21:00:00","43.1","ND","ND","ND","ND","0.0","ND","ND","ND","ND","ND","0"],
    [55083,"2016-08-17T22:00:00","41.9","ND","ND","ND","ND","0.1","ND","ND","ND","ND","ND","0"],
    [55084,"2016-08-17T23:00:00","33.7","ND","ND","ND","ND","0.1","ND","ND","ND","ND","ND","0"],
    [55085,"2016-08-18T00:00:00","35.5","ND","ND","ND","ND","0.3","ND","ND","ND","ND","ND","0"],
    [55086,"2016-08-18T01:00:00","39.2","ND","ND","ND","ND","0.1","ND","ND","ND","ND","ND","0"],
    [55087,"2016-08-18T02:00:00","50","ND","ND","ND","ND","0.3","ND","ND","ND","ND","ND","0"],
    [55088,"2016-08-18T03:00:00","39.9","ND","ND","ND","ND","0.2","ND","ND","ND","ND","ND","0"],
    [55089,"2016-08-18T04:00:00","44.6","ND","ND","ND","ND","0.8","ND","ND","ND","ND","ND","0"],
    [55090,"2016-08-18T05:00:00","54.3","ND","ND","ND","ND","0.3","ND","ND","ND","ND","ND","0"],
    [55091,"2016-08-18T06:00:00","47.3","ND","ND","ND","ND","0.4","ND","ND","ND","ND","ND","0"],
    [55092,"2016-08-18T07:00:00","50.1","ND","ND","ND","ND","0.4","ND","ND","ND","ND","ND","0"],
    [55093,"2016-08-18T08:00:00","56.5","ND","ND","ND","ND","0.1","ND","ND","ND","ND","ND","0"],
    [55094,"2016-08-18T09:00:00","78.9","ND","ND","ND","ND","0.2","ND","ND","ND","ND","ND","0"],
    [55095,"2016-08-18T10:00:00","84.7","ND","ND","ND","ND","0.0","ND","ND","ND","ND","ND","0"],
    [55096,"2016-08-18T11:00:00","53","ND","ND","ND","ND","0.1","ND","ND","ND","ND","ND","0"],
    [55097,"2016-08-18T12:00:00","43.5","ND","ND","ND","ND","0.2","ND","ND","ND","ND","ND","0"],
    [55098,"2016-08-18T13:00:00","34.5","ND","ND","ND","ND","0.1","ND","ND","ND","ND","ND","0"],
    [55099,"2016-08-18T14:00:00","45","ND","ND","ND","ND","0.0","ND","ND","ND","ND","ND","0"],
    [55100,"2016-08-18T15:00:00","41.6","ND","ND","ND","ND","0.0","ND","ND","ND","ND","ND","0"],
    [55101,"2016-08-18T16:00:00","24","ND","ND","ND","ND","0.0","ND","ND","ND","ND","ND","0"],
    [55102,"2016-08-18T17:00:00","39.5","ND","ND","ND","ND","0.2","ND","ND","ND","ND","ND","0"],
    [55103,"2016-08-18T18:00:00","38.5","ND","ND","ND","ND","0.1","ND","ND","ND","ND","ND","0"],
    [55104,"2016-08-18T19:00:00","19.9","ND","ND","ND","ND","0.2","ND","ND","ND","ND","ND","0"],
    [55105,"2016-08-18T20:00:00","22.8","ND","ND","ND","ND","0.1","ND","ND","ND","ND","ND","0"],
    [55106,"2016-08-18T21:00:00","19.5","ND","ND","ND","ND","0.1","ND","ND","ND","ND","ND","0"],
    [55107,"2016-08-18T22:00:00","25.1","ND","ND","ND","ND","2.8","ND","ND","ND","ND","ND","0"],
    [55108,"2016-08-18T23:00:00","32.1","ND","ND","ND","ND","0.7","ND","ND","ND","ND","ND","0"],
    [55109,"2016-08-19T00:00:00","27.1","ND","ND","ND","ND","1.3","ND","ND","ND","ND","ND","0"],
    [55110,"2016-08-19T01:00:00","18","ND","ND","ND","ND","2.1","ND","ND","ND","ND","ND","0"],
    [55111,"2016-08-19T02:00:00","21.4","ND","ND","ND","ND","0.4","ND","ND","ND","ND","ND","0"],
    [55112,"2016-08-19T03:00:00","21.9","ND","ND","ND","ND","2.1","ND","ND","ND","ND","ND","0"],
    [55113,"2016-08-19T04:00:00","30.4","ND","ND","ND","ND","2.7","ND","ND","ND","ND","ND","0"],
    [55114,"2016-08-19T05:00:00","31.2","ND","ND","ND","ND","0.7","ND","ND","ND","ND","ND","0"],
    [55115,"2016-08-19T06:00:00","30.6","ND","ND","ND","ND","0.9","ND","ND","ND","ND","ND","0"],
    [55116,"2016-08-19T07:00:00","43","ND","ND","ND","ND","2.3","ND","ND","ND","ND","ND","0"],
    [55117,"2016-08-19T08:00:00","40.2","ND","ND","ND","ND","1.0","ND","ND","ND","ND","ND","0"],
    [55118,"2016-08-19T09:00:00","45.3","ND","ND","ND","ND","1.1","ND","ND","ND","ND","ND","0"],
    [55119,"2016-08-19T10:00:00","39.1","ND","ND","ND","ND","0.5","ND","ND","ND","ND","ND","0"],
    [55120,"2016-08-19T11:00:00","25.9","ND","ND","ND","ND","0.3","ND","ND","ND","ND","ND","0"],
    [55121,"2016-08-19T12:00:00","27","ND","ND","ND","ND","0.1","ND","ND","ND","ND","ND","0"],
    [55122,"2016-08-19T13:00:00","34.4","ND","ND","ND","ND","0.0","ND","ND","ND","ND","ND","0"],
    [55123,"2016-08-19T14:00:00","33.4","ND","ND","ND","ND","0.1","ND","ND","ND","ND","ND","0"],
    [55124,"2016-08-19T15:00:00","36.7","ND","ND","ND","ND","0.0","ND","ND","ND","ND","ND","0"],
    [55125,"2016-08-19T16:00:00","31.8","ND","ND","ND","ND","0.1","ND","ND","ND","ND","ND","0"],
    [55126,"2016-08-19T17:00:00","12.8","ND","ND","ND","ND","0.0","ND","ND","ND","ND","ND","0"],
    [55127,"2016-08-19T18:00:00","7.6","ND","ND","ND","ND","0.0","ND","ND","ND","ND","ND","0"],
    [55128,"2016-08-19T19:00:00","13.7","ND","ND","ND","ND","0.0","ND","ND","ND","ND","ND","0"],
    [55129,"2016-08-19T20:00:00","19.8","ND","ND","ND","ND","0.0","ND","ND","ND","ND","ND","0"],
    [55130,"2016-08-19T21:00:00","39.1","ND","ND","ND","ND","5.4","ND","ND","ND","ND","ND","0"],
    [55131,"2016-08-19T22:00:00","44.7","ND","ND","ND","ND","1.7","ND","ND","ND","ND","ND","0"],
    [55132,"2016-08-19T23:00:00","47.8","ND","ND","ND","ND","1.3","ND","ND","ND","ND","ND","0"],
    [55133,"2016-08-20T00:00:00","38","ND","ND","ND","ND","3.5","ND","ND","ND","ND","ND","0"],
    [55134,"2016-08-20T01:00:00","50.8","ND","ND","ND","ND","3.6","ND","ND","ND","ND","ND","0"],
    [55135,"2016-08-20T02:00:00","55.7","ND","ND","ND","ND","0.9","ND","ND","ND","ND","ND","0"],
    [55136,"2016-08-20T03:00:00","50.3","ND","ND","ND","ND","1.4","ND","ND","ND","ND","ND","0"],
    [55137,"2016-08-20T04:00:00","59.7","ND","ND","ND","ND","3.3","ND","ND","ND","ND","ND","0"],
    [55138,"2016-08-20T05:00:00","50.3","ND","ND","ND","ND","3.8","ND","ND","ND","ND","ND","0"],
    [55139,"2016-08-20T06:00:00","40.3","ND","ND","ND","ND","1.8","ND","ND","ND","ND","ND","0"],
    [55140,"2016-08-20T07:00:00","43.3","ND","ND","ND","ND","3.3","ND","ND","ND","ND","ND","0"],
    [55141,"2016-08-20T08:00:00","92.6","ND","ND","ND","ND","5.7","ND","ND","ND","ND","ND","0"],
    [55142,"2016-08-20T09:00:00","105.8","ND","ND","ND","ND","3.7","ND","ND","ND","ND","ND","0"],
    [55143,"2016-08-20T10:00:00","78.3","ND","ND","ND","ND","1.7","ND","ND","ND","ND","ND","0"],
    [55144,"2016-08-20T11:00:00","54.6","ND","ND","ND","ND","0.2","ND","ND","ND","ND","ND","0"],
    [55145,"2016-08-20T12:00:00","58.1","ND","ND","ND","ND","0.5","ND","ND","ND","ND","ND","0"],
    [55146,"2016-08-20T13:00:00","47.8","ND","ND","ND","ND","0.3","ND","ND","ND","ND","ND","0"],
    [55147,"2016-08-20T14:00:00","32.2","ND","ND","ND","ND","0.2","ND","ND","ND","ND","ND","0"],
    [55148,"2016-08-20T15:00:00","ND","ND","ND","ND","ND","0.1","ND","ND","ND","ND","ND","0"],
    [55149,"2016-08-20T16:00:00","13.9","ND","ND","ND","ND","0.1","ND","ND","ND","ND","ND","0"],
    [55150,"2016-08-20T17:00:00","42.2","ND","ND","ND","ND","0.1","ND","ND","ND","ND","ND","0"],
    [55151,"2016-08-20T18:00:00","32.2","ND","ND","ND","ND","0.0","ND","ND","ND","ND","ND","0"],
    [55152,"2016-08-20T19:00:00","1.3","ND","ND","ND","ND","0.0","ND","ND","ND","ND","ND","0"],
    [55153,"2016-08-20T20:00:00","7.1","ND","ND","ND","ND","0.0","ND","ND","ND","ND","ND","0"],
    [55154,"2016-08-20T21:00:00","22.9","ND","ND","ND","ND","1.4","ND","ND","ND","ND","ND","0"],
    [55155,"2016-08-20T22:00:00","38.4","ND","ND","ND","ND","6.0","ND","ND","ND","ND","ND","0"],
    [55156,"2016-08-20T23:00:00","33","ND","ND","ND","ND","3.0","ND","ND","ND","ND","ND","0"],
    [55157,"2016-08-21T00:00:00","29.9","ND","ND","ND","ND","1.4","ND","ND","ND","ND","ND","0"],
    [55158,"2016-08-21T01:00:00","34.8","ND","ND","ND","ND","2.4","ND","ND","ND","ND","ND","0"],
    [55159,"2016-08-21T02:00:00","27.7","ND","ND","ND","ND","0.7","ND","ND","ND","ND","ND","0"],
    [55160,"2016-08-21T03:00:00","35.1","ND","ND","ND","ND","3.3","ND","ND","ND","ND","ND","0"],
    [55161,"2016-08-21T04:00:00","48.5","ND","ND","ND","ND","0.9","ND","ND","ND","ND","ND","0"],
    [55162,"2016-08-21T05:00:00","50.8","ND","ND","ND","ND","1.7","ND","ND","ND","ND","ND","0"],
    [55163,"2016-08-21T06:00:00","42.7","ND","ND","ND","ND","1.3","ND","ND","ND","ND","ND","0"],
    [55164,"2016-08-21T07:00:00","37","ND","ND","ND","ND","0.8","ND","ND","ND","ND","ND","0"],
    [55165,"2016-08-21T08:00:00","64.5","ND","ND","ND","ND","3.6","ND","ND","ND","ND","ND","0"],
    [55166,"2016-08-21T09:00:00","78.5","ND","ND","ND","ND","1.9","ND","ND","ND","ND","ND","0"],
    [55167,"2016-08-21T10:00:00","50.8","ND","ND","ND","ND","0.3","ND","ND","ND","ND","ND","0"],
    [55168,"2016-08-21T11:00:00","35.6","ND","ND","ND","ND","0.2","ND","ND","ND","ND","ND","0"],
    [55169,"2016-08-21T12:00:00","34.3","ND","ND","ND","ND","0.1","ND","ND","ND","ND","ND","0"],
    [55170,"2016-08-21T13:00:00","16.4","ND","ND","ND","ND","0.2","ND","ND","ND","ND","ND","0"],
    [55171,"2016-08-21T14:00:00","ND","ND","ND","ND","ND","0.0","ND","ND","ND","ND","ND","0"],
    [55172,"2016-08-21T15:00:00","ND","ND","ND","ND","ND","0.0","ND","ND","ND","ND","ND","0"],
    [55173,"2016-08-21T16:00:00","ND","ND","ND","ND","ND","0.0","ND","ND","ND","ND","ND","0"],
    [55174,"2016-08-21T17:00:00","3.6","ND","ND","ND","ND","0.1","ND","ND","ND","ND","ND","0"],
    [55175,"2016-08-21T18:00:00","36.7","ND","ND","ND","ND","0.2","ND","ND","ND","ND","ND","0"],
    [55176,"2016-08-21T19:00:00","27.8","ND","ND","ND","ND","0.4","ND","ND","ND","ND","ND","0"],
    [55177,"2016-08-21T20:00:00","30.2","ND","ND","ND","ND","0.7","ND","ND","ND","ND","ND","0"],
    [55178,"2016-08-21T21:00:00","34.8","ND","ND","ND","ND","0.8","ND","ND","ND","ND","ND","0"],
    [55179,"2016-08-21T22:00:00","34.1","ND","ND","ND","ND","1.3","ND","ND","ND","ND","ND","0"],
    [55180,"2016-08-21T23:00:00","44.5","ND","ND","ND","ND","6.8","ND","ND","ND","ND","ND","0"],
    [55181,"2016-08-22T00:00:00","47.6","ND","ND","ND","ND","1.8","ND","ND","ND","ND","ND","0"],
    [55182,"2016-08-22T01:00:00","37.9","ND","ND","ND","ND","1.4","ND","ND","ND","ND","ND","0"],
    [55183,"2016-08-22T02:00:00","39.8","ND","ND","ND","ND","0.9","ND","ND","ND","ND","ND","0"],
    [55184,"2016-08-22T03:00:00","35.5","ND","ND","ND","ND","0.7","ND","ND","ND","ND","ND","0"],
    [55185,"2016-08-22T04:00:00","27.5","ND","ND","ND","ND","1.0","ND","ND","ND","ND","ND","0"],
    [55186,"2016-08-22T05:00:00","2.7","ND","ND","ND","ND","0.4","ND","ND","ND","ND","ND","0"],
    [55187,"2016-08-22T06:00:00","11.9","ND","ND","ND","ND","1.4","ND","ND","ND","ND","ND","0"],
    [55188,"2016-08-22T07:00:00","43.6","ND","ND","ND","ND","0.3","ND","ND","ND","ND","ND","0"],
    [55189,"2016-08-22T08:00:00","101.6","ND","ND","ND","ND","5.4","ND","ND","ND","ND","ND","0"],
    [55190,"2016-08-22T09:00:00","130.6","ND","ND","ND","ND","4.3","ND","ND","ND","ND","ND","0"],
    [55191,"2016-08-22T10:00:00","83.5","ND","ND","ND","ND","1.1","ND","ND","ND","ND","ND","0"],
    [55192,"2016-08-22T11:00:00","50.7","ND","ND","ND","ND","1.0","ND","ND","ND","ND","ND","0"],
    [55193,"2016-08-22T12:00:00","54.8","ND","ND","ND","ND","0.6","ND","ND","ND","ND","ND","0"],
    [55194,"2016-08-22T13:00:00","48.3","ND","ND","ND","ND","0.1","ND","ND","ND","ND","ND","0"],
    [55195,"2016-08-22T14:00:00","40","ND","ND","ND","ND","0.0","ND","ND","ND","ND","ND","0"],
    [55196,"2016-08-22T15:00:00","7","ND","ND","ND","ND","0.0","ND","ND","ND","ND","ND","0"],
    [55197,"2016-08-22T16:00:00","ND","ND","ND","ND","ND","0.0","ND","ND","ND","ND","ND","0"],
    [55198,"2016-08-22T17:00:00","23.5","ND","ND","ND","ND","0.0","ND","ND","ND","ND","ND","0"],
    [55199,"2016-08-22T18:00:00","4.5","ND","ND","ND","ND","0.0","ND","ND","ND","ND","ND","0"],
    [55200,"2016-08-22T19:00:00","ND","ND","ND","ND","ND","0.0","ND","ND","ND","ND","ND","0"],
    [55201,"2016-08-22T20:00:00","41.4","ND","ND","ND","ND","0.0","ND","ND","ND","ND","ND","0"],
    [55202,"2016-08-22T21:00:00","76.8","ND","ND","ND","ND","0.0","ND","ND","ND","ND","ND","0"],
    [55203,"2016-08-22T22:00:00","53.6","ND","ND","ND","ND","8.2","ND","ND","ND","ND","ND","0"],
    [55204,"2016-08-22T23:00:00","65.3","ND","ND","ND","ND","2.3","ND","ND","ND","ND","ND","0"],
    [55205,"2016-08-23T00:00:00","42.9","ND","ND","ND","ND","1.4","ND","ND","ND","ND","ND","0"],
    [55206,"2016-08-23T01:00:00","47.5","ND","ND","ND","ND","7.8","ND","ND","ND","ND","ND","0"],
    [55207,"2016-08-23T02:00:00","79.9","ND","ND","ND","ND","3.2","ND","ND","ND","ND","ND","0"],
    [55208,"2016-08-23T03:00:00","49","ND","ND","ND","ND","5.1","ND","ND","ND","ND","ND","0"],
    [55209,"2016-08-23T04:00:00","34","ND","ND","ND","ND","2.1","ND","ND","ND","ND","ND","0"],
    [55210,"2016-08-23T05:00:00","29.4","ND","ND","ND","ND","0.3","ND","ND","ND","ND","ND","0"],
    [55211,"2016-08-23T06:00:00","14.3","ND","ND","ND","ND","3.1","ND","ND","ND","ND","ND","0"],
    [55212,"2016-08-23T07:00:00","63.5","ND","ND","ND","ND","5.2","ND","ND","ND","ND","ND","0"],
    [55213,"2016-08-23T08:00:00","110.4","ND","ND","ND","ND","5.6","ND","ND","ND","ND","ND","0"],
    [55214,"2016-08-23T09:00:00","161","ND","ND","ND","ND","3.8","ND","ND","ND","ND","ND","0"],
    [55215,"2016-08-23T10:00:00","128.4","ND","ND","ND","ND","3.6","ND","ND","ND","ND","ND","0"],
    [55216,"2016-08-23T11:00:00","72.1","ND","ND","ND","ND","0.5","ND","ND","ND","ND","ND","0"],
    [55217,"2016-08-23T12:00:00","32.9","ND","ND","ND","ND","0.2","ND","ND","ND","ND","ND","0"],
    [55218,"2016-08-23T13:00:00","7.1","ND","ND","ND","ND","0.0","ND","ND","ND","ND","ND","0"],
    [55219,"2016-08-23T14:00:00","ND","ND","ND","ND","ND","0.0","ND","ND","ND","ND","ND","0"],
    [55220,"2016-08-23T15:00:00","4.8","ND","ND","ND","ND","0.1","ND","ND","ND","ND","ND","0"],
    [55221,"2016-08-23T16:00:00","28.3","ND","ND","ND","ND","0.0","ND","ND","ND","ND","ND","0"],
    [55222,"2016-08-23T17:00:00","57.7","ND","ND","ND","ND","0.0","ND","ND","ND","ND","ND","0"],
    [55223,"2016-08-23T18:00:00","89.9","ND","ND","ND","ND","0.0","ND","ND","ND","ND","ND","0"],
    [55224,"2016-08-23T19:00:00","3.8","ND","ND","ND","ND","0.0","ND","ND","ND","ND","ND","0"],
    [55225,"2016-08-23T20:00:00","30.4","ND","ND","ND","ND","0.0","ND","ND","ND","ND","ND","0"],
    [55226,"2016-08-23T21:00:00","64.8","ND","ND","ND","ND","0.0","ND","ND","ND","ND","ND","0"],
    [55227,"2016-08-23T22:00:00","59","ND","ND","ND","ND","0.1","ND","ND","ND","ND","ND","0"],
    [55228,"2016-08-23T23:00:00","64.4","ND","ND","ND","ND","0.5","ND","ND","ND","ND","ND","0"],
    [55229,"2016-08-24T00:00:00","57.9","ND","ND","ND","ND","0.2","ND","ND","ND","ND","ND","0"],
    [55230,"2016-08-24T01:00:00","73","ND","ND","ND","ND","0.1","ND","ND","ND","ND","ND","0"],
    [55231,"2016-08-24T02:00:00","54.8","ND","ND","ND","ND","0.1","ND","ND","ND","ND","ND","0"],
    [55232,"2016-08-24T03:00:00","55.2","ND","ND","ND","ND","0.3","ND","ND","ND","ND","ND","0"],
    [55233,"2016-08-24T04:00:00","43.7","ND","ND","ND","ND","0.0","ND","ND","ND","ND","ND","0"],
    [55234,"2016-08-24T05:00:00","49.5","ND","ND","ND","ND","0.1","ND","ND","ND","ND","ND","0"],
    [55235,"2016-08-24T06:00:00","75.7","ND","ND","ND","ND","0.3","ND","ND","ND","ND","ND","0"],
    [55236,"2016-08-24T07:00:00","78","ND","ND","ND","ND","0.9","ND","ND","ND","ND","ND","0"],
    [55237,"2016-08-24T08:00:00","102.3","ND","ND","ND","ND","0.9","ND","ND","ND","ND","ND","0"],
    [55238,"2016-08-24T09:00:00","158.5","ND","ND","ND","ND","1.8","ND","ND","ND","ND","ND","0"],
    [55239,"2016-08-24T10:00:00","79","ND","ND","ND","ND","0.7","ND","ND","ND","ND","ND","0"],
    [55240,"2016-08-24T11:00:00","48.6","ND","ND","ND","ND","0.2","ND","ND","ND","ND","ND","0"],
    [55241,"2016-08-24T12:00:00","16","ND","ND","ND","ND","0.1","ND","ND","ND","ND","ND","0"],
    [55242,"2016-08-24T13:00:00","19.8","ND","ND","ND","ND","0.1","ND","ND","ND","ND","ND","0"],
    [55243,"2016-08-24T14:00:00","45.9","ND","ND","ND","ND","0.0","ND","ND","ND","ND","ND","0"],
    [55244,"2016-08-24T15:00:00","58.5","ND","ND","ND","ND","0.1","ND","ND","ND","ND","ND","0"],
    [55245,"2016-08-24T16:00:00","49.9","ND","ND","ND","ND","0.1","ND","ND","ND","ND","ND","0"],
    [55246,"2016-08-24T17:00:00","31.5","ND","ND","ND","ND","0.0","ND","ND","ND","ND","ND","0"],
    [55247,"2016-08-24T18:00:00","24.7","ND","ND","ND","ND","0.0","ND","ND","ND","ND","ND","0"],
    [55248,"2016-08-24T19:00:00","ND","ND","ND","ND","ND","0.0","ND","ND","ND","ND","ND","0"],
    [55249,"2016-08-24T20:00:00","6.2","ND","ND","ND","ND","0.0","ND","ND","ND","ND","ND","0"],
    [55250,"2016-08-24T21:00:00","22.2","ND","ND","ND","ND","0.0","ND","ND","ND","ND","ND","0"],
    [55251,"2016-08-24T22:00:00","41.1","ND","ND","ND","ND","0.0","ND","ND","ND","ND","ND","0"],
    [55252,"2016-08-24T23:00:00","44.3","ND","ND","ND","ND","0.1","ND","ND","ND","ND","ND","0"],
    [55253,"2016-08-25T00:00:00","42.7","ND","ND","ND","ND","0.0","ND","ND","ND","ND","ND","0"],
    [55254,"2016-08-25T01:00:00","41.6","ND","ND","ND","ND","0.4","ND","ND","ND","ND","ND","0"],
    [55255,"2016-08-25T02:00:00","44","ND","ND","ND","ND","0.0","ND","ND","ND","ND","ND","0"],
    [55256,"2016-08-25T03:00:00","49.5","ND","ND","ND","ND","0.1","ND","ND","ND","ND","ND","0"],
    [55257,"2016-08-25T04:00:00","66.1","ND","ND","ND","ND","0.3","ND","ND","ND","ND","ND","0"],
    [55258,"2016-08-25T05:00:00","92.7","ND","ND","ND","ND","0.1","ND","ND","ND","ND","ND","0"],
    [55259,"2016-08-25T06:00:00","65.9","ND","ND","ND","ND","0.4","ND","ND","ND","ND","ND","0"],
    [55260,"2016-08-25T07:00:00","48.6","ND","ND","ND","ND","0.0","ND","ND","ND","ND","ND","0"],
    [55261,"2016-08-25T08:00:00","47.9","ND","ND","ND","ND","0.2","ND","ND","ND","ND","ND","0"],
    [55262,"2016-08-25T09:00:00","45.9","ND","ND","ND","ND","0.1","ND","ND","ND","ND","ND","0"],
    [55263,"2016-08-25T10:00:00","35","ND","ND","ND","ND","0.0","ND","ND","ND","ND","ND","0"],
    [55264,"2016-08-25T11:00:00","27.4","ND","ND","ND","ND","0.1","ND","ND","ND","ND","ND","0"],
    [55265,"2016-08-25T12:00:00","37.2","ND","ND","ND","ND","0.0","ND","ND","ND","ND","ND","0"],
    [55266,"2016-08-25T13:00:00","42.6","ND","ND","ND","ND","0.0","ND","ND","ND","ND","ND","0"],
    [55267,"2016-08-25T14:00:00","38.4","ND","ND","ND","ND","0.1","ND","ND","ND","ND","ND","0"],
    [55268,"2016-08-25T15:00:00","41.9","ND","ND","ND","ND","0.0","ND","ND","ND","ND","ND","0"],
    [55269,"2016-08-25T16:00:00","24.2","ND","ND","ND","ND","0.0","ND","ND","ND","ND","ND","0"],
    [55270,"2016-08-25T17:00:00","26.9","ND","ND","ND","ND","0.0","ND","ND","ND","ND","ND","0"],
    [55271,"2016-08-25T18:00:00","15.3","ND","ND","ND","ND","0.1","ND","ND","ND","ND","ND","0"],
    [55272,"2016-08-25T19:00:00","21.6","ND","ND","ND","ND","0.0","ND","ND","ND","ND","ND","0"],
    [55273,"2016-08-25T20:00:00","27.1","ND","ND","ND","ND","0.0","ND","ND","ND","ND","ND","0"],
    [55274,"2016-08-25T21:00:00","39","ND","ND","ND","ND","0.0","ND","ND","ND","ND","ND","0"],
    [55275,"2016-08-25T22:00:00","40.3","ND","ND","ND","ND","0.2","ND","ND","ND","ND","ND","0"],
    [55276,"2016-08-25T23:00:00","28.6","ND","ND","ND","ND","0.2","ND","ND","ND","ND","ND","0"],
    [55277,"2016-08-26T00:00:00","28.8","ND","ND","ND","ND","0.1","ND","ND","ND","ND","ND","0"],
    [55278,"2016-08-26T01:00:00","45.2","ND","ND","ND","ND","0.1","ND","ND","ND","ND","ND","0"],
    [55279,"2016-08-26T02:00:00","48.2","ND","ND","ND","ND","0.1","ND","ND","ND","ND","ND","0"],
    [55280,"2016-08-26T03:00:00","40.1","ND","ND","ND","ND","0.5","ND","ND","ND","ND","ND","0"],
    [55281,"2016-08-26T04:00:00","52.7","ND","ND","ND","ND","0.3","ND","ND","ND","ND","ND","0"],
    [55282,"2016-08-26T05:00:00","55.5","ND","ND","ND","ND","0.3","ND","ND","ND","ND","ND","0"],
    [55283,"2016-08-26T06:00:00","55.4","ND","ND","ND","ND","0.4","ND","ND","ND","ND","ND","0"],
    [55284,"2016-08-26T07:00:00","48.2","ND","ND","ND","ND","0.1","ND","ND","ND","ND","ND","0"],
    [55285,"2016-08-26T08:00:00","65","ND","ND","ND","ND","0.2","ND","ND","ND","ND","ND","0"],
    [55286,"2016-08-26T09:00:00","87.1","ND","ND","ND","ND","1.0","ND","ND","ND","ND","ND","0"],
    [55287,"2016-08-26T10:00:00","72.3","ND","ND","ND","ND","0.8","ND","ND","ND","ND","ND","0"],
    [55288,"2016-08-26T11:00:00","53.4","ND","ND","ND","ND","0.3","ND","ND","ND","ND","ND","0"],
    [55289,"2016-08-26T12:00:00","41.8","ND","ND","ND","ND","0.0","ND","ND","ND","ND","ND","0"],
    [55290,"2016-08-26T13:00:00","20.7","ND","ND","ND","ND","0.0","ND","ND","ND","ND","ND","0"],
    [55291,"2016-08-26T14:00:00","17.8","ND","ND","ND","ND","0.0","ND","ND","ND","ND","ND","0"],
    [55292,"2016-08-26T15:00:00","23.4","ND","ND","ND","ND","0.0","ND","ND","ND","ND","ND","0"],
    [55293,"2016-08-26T16:00:00","21.3","ND","ND","ND","ND","0.0","ND","ND","ND","ND","ND","0"],
    [55294,"2016-08-26T17:00:00","10.1","ND","ND","ND","ND","0.0","ND","ND","ND","ND","ND","0"],
    [55295,"2016-08-26T18:00:00","4.5","ND","ND","ND","ND","0.0","ND","ND","ND","ND","ND","0"],
    [55296,"2016-08-26T19:00:00","2.6","ND","ND","ND","ND","0.0","ND","ND","ND","ND","ND","0"],
    [55297,"2016-08-26T20:00:00","17.7","ND","ND","ND","ND","0.0","ND","ND","ND","ND","ND","0"],
    [55298,"2016-08-26T21:00:00","32.7","ND","ND","ND","ND","0.0","ND","ND","ND","ND","ND","0"],
    [55299,"2016-08-26T22:00:00","36.1","ND","ND","ND","ND","0.0","ND","ND","ND","ND","ND","0"],
    [55300,"2016-08-26T23:00:00","22.4","ND","ND","ND","ND","0.1","ND","ND","ND","ND","ND","0"],
    [55301,"2016-08-27T00:00:00","15.9","ND","ND","ND","ND","0.1","ND","ND","ND","ND","ND","0"],
    [55302,"2016-08-27T01:00:00","28.3","ND","ND","ND","ND","0.1","ND","ND","ND","ND","ND","0"],
    [55303,"2016-08-27T02:00:00","44.8","ND","ND","ND","ND","0.1","ND","ND","ND","ND","ND","0"],
    [55304,"2016-08-27T03:00:00","40.9","ND","ND","ND","ND","0.0","ND","ND","ND","ND","ND","0"],
    [55305,"2016-08-27T04:00:00","38.1","ND","ND","ND","ND","0.1","ND","ND","ND","ND","ND","0"],
    [55306,"2016-08-27T05:00:00","40.9","ND","ND","ND","ND","0.2","ND","ND","ND","ND","ND","0"],
    [55307,"2016-08-27T06:00:00","32.4","ND","ND","ND","ND","0.5","ND","ND","ND","ND","ND","0"],
    [55308,"2016-08-27T07:00:00","40","ND","ND","ND","ND","2.9","ND","ND","ND","ND","ND","0"],
    [55309,"2016-08-27T08:00:00","40.4","ND","ND","ND","ND","4.0","ND","ND","ND","ND","ND","0"],
    [55310,"2016-08-27T09:00:00","51.2","ND","ND","ND","ND","2.4","ND","ND","ND","ND","ND","0"],
    [55311,"2016-08-27T10:00:00","52.8","ND","ND","ND","ND","0.8","ND","ND","ND","ND","ND","0"],
    [55312,"2016-08-27T11:00:00","32","ND","ND","ND","ND","0.2","ND","ND","ND","ND","ND","0"],
    [55313,"2016-08-27T12:00:00","21.8","ND","ND","ND","ND","0.1","ND","ND","ND","ND","ND","0"],
    [55314,"2016-08-27T13:00:00","18.5","ND","ND","ND","ND","0.0","ND","ND","ND","ND","ND","0"],
    [55315,"2016-08-27T14:00:00","4.9","ND","ND","ND","ND","0.1","ND","ND","ND","ND","ND","0"],
    [55316,"2016-08-27T15:00:00","16.8","ND","ND","ND","ND","0.0","ND","ND","ND","ND","ND","0"],
    [55317,"2016-08-27T16:00:00","26.6","ND","ND","ND","ND","0.0","ND","ND","ND","ND","ND","0"],
    [55318,"2016-08-27T17:00:00","29.5","ND","ND","ND","ND","0.0","ND","ND","ND","ND","ND","0"],
    [55319,"2016-08-27T18:00:00","32","ND","ND","ND","ND","0.0","ND","ND","ND","ND","ND","0"],
    [55320,"2016-08-27T19:00:00","40.1","ND","ND","ND","ND","0.0","ND","ND","ND","ND","ND","0"],
    [55321,"2016-08-27T20:00:00","24","ND","ND","ND","ND","0.0","ND","ND","ND","ND","ND","0"],
    [55322,"2016-08-27T21:00:00","20.3","ND","ND","ND","ND","0.0","ND","ND","ND","ND","ND","0"],
    [55323,"2016-08-27T22:00:00","39.9","ND","ND","ND","ND","0.5","ND","ND","ND","ND","ND","0"],
    [55324,"2016-08-27T23:00:00","39.7","ND","ND","ND","ND","0.6","ND","ND","ND","ND","ND","0"],
    [55325,"2016-08-28T00:00:00","32","ND","ND","ND","ND","0.6","ND","ND","ND","ND","ND","0"],
    [55326,"2016-08-28T01:00:00","30.4","ND","ND","ND","ND","0.8","ND","ND","ND","ND","ND","0"],
    [55327,"2016-08-28T02:00:00","18.3","ND","ND","ND","ND","0.2","ND","ND","ND","ND","ND","0"],
    [55328,"2016-08-28T03:00:00","32.7","ND","ND","ND","ND","0.0","ND","ND","ND","ND","ND","0"],
    [55329,"2016-08-28T04:00:00","41","ND","ND","ND","ND","0.2","ND","ND","ND","ND","ND","0"],
    [55330,"2016-08-28T05:00:00","43.3","ND","ND","ND","ND","0.5","ND","ND","ND","ND","ND","0"],
    [55331,"2016-08-28T06:00:00","39.9","ND","ND","ND","ND","0.2","ND","ND","ND","ND","ND","0"],
    [55332,"2016-08-28T07:00:00","38.4","ND","ND","ND","ND","0.1","ND","ND","ND","ND","ND","0"],
    [55333,"2016-08-28T08:00:00","61.3","ND","ND","ND","ND","0.5","ND","ND","ND","ND","ND","0"],
    [55334,"2016-08-28T09:00:00","67.2","ND","ND","ND","ND","0.9","ND","ND","ND","ND","ND","0"],
    [55335,"2016-08-28T10:00:00","62.4","ND","ND","ND","ND","0.3","ND","ND","ND","ND","ND","0"],
    [55336,"2016-08-28T11:00:00","36.9","ND","ND","ND","ND","0.2","ND","ND","ND","ND","ND","0"],
    [55337,"2016-08-28T12:00:00","19.1","ND","ND","ND","ND","0.1","ND","ND","ND","ND","ND","0"],
    [55338,"2016-08-28T13:00:00","23.3","ND","ND","ND","ND","0.0","ND","ND","ND","ND","ND","0"],
    [55339,"2016-08-28T14:00:00","25.6","ND","ND","ND","ND","0.0","ND","ND","ND","ND","ND","0"],
    [55340,"2016-08-28T15:00:00","27.3","ND","ND","ND","ND","0.2","ND","ND","ND","ND","ND","0"],
    [55341,"2016-08-28T16:00:00","29.5","ND","ND","ND","ND","0.1","ND","ND","ND","ND","ND","0"],
    [55342,"2016-08-28T17:00:00","20.5","ND","ND","ND","ND","0.0","ND","ND","ND","ND","ND","0"],
    [55343,"2016-08-28T18:00:00","5.6","ND","ND","ND","ND","0.0","ND","ND","ND","ND","ND","0"],
    [55344,"2016-08-28T19:00:00","3.1","ND","ND","ND","ND","0.0","ND","ND","ND","ND","ND","0"],
    [55345,"2016-08-28T20:00:00","19.5","ND","ND","ND","ND","0.0","ND","ND","ND","ND","ND","0"],
    [55346,"2016-08-28T21:00:00","41.8","ND","ND","ND","ND","0.0","ND","ND","ND","ND","ND","13.72"],
    [55347,"2016-08-28T22:00:00","46.5","ND","ND","ND","ND","0.1","ND","ND","ND","ND","ND","19.3"],
    [55348,"2016-08-28T23:00:00","67.7","ND","ND","ND","ND","0.0","ND","ND","ND","ND","ND","0"],
    [55349,"2016-08-29T00:00:00","49.7","ND","ND","ND","ND","0.0","ND","ND","ND","ND","ND","0"],
    [55350,"2016-08-29T01:00:00","27.3","ND","ND","ND","ND","0.0","ND","ND","ND","ND","ND","0.25"],
    [55351,"2016-08-29T02:00:00","31.4","ND","ND","ND","ND","0.0","ND","ND","ND","ND","ND","0"],
    [55352,"2016-08-29T03:00:00","27.3","ND","ND","ND","ND","0.0","ND","ND","ND","ND","ND","0"],
    [55353,"2016-08-29T04:00:00","25.4","ND","ND","ND","ND","0.2","ND","ND","ND","ND","ND","0"],
    [55354,"2016-08-29T05:00:00","22.8","ND","ND","ND","ND","0.2","ND","ND","ND","ND","ND","0"],
    [55355,"2016-08-29T06:00:00","29.7","ND","ND","ND","ND","0.2","ND","ND","ND","ND","ND","0"],
    [55356,"2016-08-29T07:00:00","43.1","ND","ND","ND","ND","0.0","ND","ND","ND","ND","ND","0"],
    [55357,"2016-08-29T08:00:00","47.2","ND","ND","ND","ND","0.1","ND","ND","ND","ND","ND","0"],
    [55358,"2016-08-29T09:00:00","48.7","ND","ND","ND","ND","0.2","ND","ND","ND","ND","ND","0"],
    [55359,"2016-08-29T10:00:00","45.5","ND","ND","ND","ND","ND","ND","ND","ND","ND","ND","0"],
    [55360,"2016-08-29T11:00:00","42.6","ND","ND","ND","ND","ND","ND","ND","ND","ND","ND","0"],
    [55361,"2016-08-29T12:00:00","45.5","ND","ND","ND","ND","ND","ND","ND","ND","ND","ND","0"],
    [55362,"2016-08-29T13:00:00","49.2","ND","ND","ND","ND","ND","ND","ND","ND","ND","ND","0"],
    [55363,"2016-08-29T14:00:00","52.9","ND","ND","ND","ND","ND","ND","ND","ND","ND","ND","0"],
    [55364,"2016-08-29T15:00:00","25.9","ND","ND","ND","ND","ND","ND","ND","ND","ND","ND","0"],
    [55365,"2016-08-29T16:00:00","3.8","ND","ND","ND","ND","ND","ND","ND","ND","ND","ND","0"],
    [55366,"2016-08-29T17:00:00","1.3","ND","ND","ND","ND","ND","ND","ND","ND","ND","ND","0"],
    [55367,"2016-08-29T18:00:00","2.6","ND","ND","ND","ND","ND","ND","ND","ND","ND","ND","0"],
    [55368,"2016-08-29T19:00:00","15","ND","ND","ND","ND","ND","ND","ND","ND","ND","ND","0"],
    [55369,"2016-08-29T20:00:00","18.4","ND","ND","ND","ND","ND","ND","ND","ND","ND","ND","0"],
    [55370,"2016-08-29T21:00:00","28.6","ND","ND","ND","ND","ND","ND","ND","ND","ND","ND","0"],
    [55371,"2016-08-29T22:00:00","27.6","ND","ND","ND","ND","ND","ND","ND","ND","ND","ND","0"],
    [55372,"2016-08-29T23:00:00","18.9","ND","ND","ND","ND","ND","ND","ND","ND","ND","ND","0"],
    [55373,"2016-08-30T00:00:00","24","ND","ND","ND","ND","ND","ND","ND","ND","ND","ND","0"],
    [55374,"2016-08-30T01:00:00","24.7","ND","ND","ND","ND","ND","ND","ND","ND","ND","ND","0"],
    [55375,"2016-08-30T02:00:00","32.8","ND","ND","ND","ND","ND","ND","ND","ND","ND","ND","0"],
    [55376,"2016-08-30T03:00:00","33.2","ND","ND","ND","ND","ND","ND","ND","ND","ND","ND","0"],
    [55377,"2016-08-30T04:00:00","30.1","ND","ND","ND","ND","ND","ND","ND","ND","ND","ND","0"],
    [55378,"2016-08-30T05:00:00","35.3","ND","ND","ND","ND","ND","ND","ND","ND","ND","ND","0"],
    [55379,"2016-08-30T06:00:00","52.7","ND","ND","ND","ND","ND","ND","ND","ND","ND","ND","0"],
    [55380,"2016-08-30T07:00:00","54.7","ND","ND","ND","ND","ND","ND","ND","ND","ND","ND","0"],
    [55381,"2016-08-30T08:00:00","49.4","ND","ND","ND","ND","ND","ND","ND","ND","ND","ND","0"],
    [55382,"2016-08-30T09:00:00","46","ND","ND","ND","ND","ND","ND","ND","ND","ND","ND","0"],
    [55383,"2016-08-30T10:00:00","52.4","ND","ND","ND","ND","ND","ND","ND","ND","ND","ND","0"],
    [55384,"2016-08-30T11:00:00","53.2","ND","ND","ND","ND","ND","ND","ND","ND","ND","ND","0"],
    [55385,"2016-08-30T12:00:00","56.1","ND","ND","ND","ND","ND","ND","ND","ND","ND","ND","0"],
    [55386,"2016-08-30T13:00:00","38.6","ND","ND","ND","ND","ND","ND","ND","ND","ND","ND","0"],
    [55387,"2016-08-30T14:00:00","36.1","ND","ND","ND","ND","ND","ND","ND","ND","ND","ND","0"],
    [55388,"2016-08-30T15:00:00","41.8","ND","ND","ND","ND","ND","ND","ND","ND","ND","ND","0"],
    [55389,"2016-08-30T16:00:00","23.2","ND","ND","ND","ND","ND","ND","ND","ND","ND","ND","0"],
    [55390,"2016-08-30T17:00:00","12.9","ND","ND","ND","ND","ND","ND","ND","ND","ND","ND","0"],
    [55391,"2016-08-30T18:00:00","20.5","ND","ND","ND","ND","ND","ND","ND","ND","ND","ND","0"],
    [55392,"2016-08-30T19:00:00","15.2","ND","ND","ND","ND","ND","ND","ND","ND","ND","ND","0"],
    [55393,"2016-08-30T20:00:00","16.6","ND","ND","ND","ND","ND","ND","ND","ND","ND","ND","0"],
    [55394,"2016-08-30T21:00:00","3","ND","ND","ND","ND","ND","ND","ND","ND","ND","ND","0"],
    [55395,"2016-08-30T22:00:00","31.5","ND","ND","ND","ND","ND","ND","ND","ND","ND","ND","0"],
    [55396,"2016-08-30T23:00:00","36.7","ND","ND","ND","ND","ND","ND","ND","ND","ND","ND","0"],
    [55397,"2016-08-31T00:00:00","28.5","ND","ND","ND","ND","ND","ND","ND","ND","ND","ND","0"],
    [55398,"2016-08-31T01:00:00","23.8","ND","ND","ND","ND","ND","ND","ND","ND","ND","ND","0"],
    [55399,"2016-08-31T02:00:00","32.1","ND","ND","ND","ND","ND","ND","ND","ND","ND","ND","0"],
    [55400,"2016-08-31T03:00:00","38.2","ND","ND","ND","ND","ND","ND","ND","ND","ND","ND","0"],
    [55401,"2016-08-31T04:00:00","50.3","ND","ND","ND","ND","ND","ND","ND","ND","ND","ND","0"],
    [55402,"2016-08-31T05:00:00","43.2","ND","ND","ND","ND","ND","ND","ND","ND","ND","ND","0"],
    [55403,"2016-08-31T06:00:00","48.8","ND","ND","ND","ND","ND","ND","ND","ND","ND","ND","0"],
    [55404,"2016-08-31T07:00:00","68.6","ND","ND","ND","ND","ND","ND","ND","ND","ND","ND","0"],
    [55405,"2016-08-31T08:00:00","67.9","ND","ND","ND","ND","ND","ND","ND","ND","ND","ND","0"],
    [55406,"2016-08-31T09:00:00","60.6","ND","ND","ND","ND","ND","ND","ND","ND","ND","ND","0"],
    [55407,"2016-08-31T10:00:00","72.4","ND","ND","ND","ND","ND","ND","ND","ND","ND","ND","0"],
    [55408,"2016-08-31T11:00:00","58.3","ND","ND","ND","ND","ND","ND","ND","ND","ND","ND","0"],
    [55409,"2016-08-31T12:00:00","39.2","ND","ND","ND","ND","ND","ND","ND","ND","ND","ND","0"],
    [55410,"2016-08-31T13:00:00","28.6","ND","ND","ND","ND","ND","ND","ND","ND","ND","ND","0"],
    [55411,"2016-08-31T14:00:00","31.9","ND","ND","ND","ND","ND","ND","ND","ND","ND","ND","0"],
    [55412,"2016-08-31T15:00:00","26.1","ND","ND","ND","ND","ND","ND","ND","ND","ND","ND","0"],
    [55413,"2016-08-31T16:00:00","8.8","ND","ND","ND","ND","ND","ND","ND","ND","ND","ND","0"],
    [55414,"2016-08-31T17:00:00","2","ND","ND","ND","ND","ND","ND","ND","ND","ND","ND","0"],
    [55415,"2016-08-31T18:00:00","35.6","ND","ND","ND","ND","ND","ND","ND","ND","ND","ND","0"],
    [55416,"2016-08-31T19:00:00","54.2","ND","ND","ND","ND","ND","ND","ND","ND","ND","ND","0"],
    [55417,"2016-08-31T20:00:00","29.6","ND","ND","ND","ND","ND","ND","ND","ND","ND","ND","0"],
    [55418,"2016-08-31T21:00:00","19","ND","ND","ND","ND","ND","ND","ND","ND","ND","ND","1.27"],
    [55419,"2016-08-31T22:00:00","13.3","ND","ND","ND","ND","ND","ND","ND","ND","ND","ND","0.25"],
    [55420,"2016-08-31T23:00:00","6.7","ND","ND","ND","ND","ND","ND","ND","ND","ND","ND","0"],
    [55421,"2016-09-01T00:00:00","8","ND","ND","ND","ND","ND","ND","ND","ND","ND","ND","0"],
    [55422,"2016-09-01T01:00:00","17.8","ND","ND","ND","ND","0.8","ND","ND","ND","ND","ND","0"],
    [55423,"2016-09-01T02:00:00","12.9","ND","ND","ND","ND","0.9","ND","ND","ND","ND","ND","1.78"],
    [55424,"2016-09-01T03:00:00","18.9","ND","ND","ND","ND","1.0","ND","ND","ND","ND","ND","6.86"],
    [55425,"2016-09-01T04:00:00","20.4","ND","ND","ND","ND","1.0","ND","ND","ND","ND","ND","3.3"],
    [55426,"2016-09-01T05:00:00","7.6","ND","ND","ND","ND","1.0","ND","ND","ND","ND","ND","0.76"],
    [55427,"2016-09-01T06:00:00","9.2","ND","ND","ND","ND","1.0","ND","ND","ND","ND","ND","3.3"],
    [55428,"2016-09-01T07:00:00","9.2","ND","ND","ND","ND","0.3","ND","ND","ND","ND","ND","19.05"],
    [55429,"2016-09-01T08:00:00","12.4","ND","ND","ND","ND","0.9","ND","ND","ND","ND","ND","7.11"],
    [55430,"2016-09-01T09:00:00","15.1","ND","ND","ND","ND","1.0","ND","ND","ND","ND","ND","3.3"],
    [55431,"2016-09-01T10:00:00","23","ND","ND","ND","ND","0.6","ND","ND","ND","ND","ND","0.76"],
    [55432,"2016-09-01T11:00:00","69","ND","ND","ND","ND","0.6","ND","ND","ND","ND","ND","0.25"],
    [55433,"2016-09-01T12:00:00","19.2","ND","ND","ND","ND","1.1","ND","ND","ND","ND","ND","0"],
    [55434,"2016-09-01T13:00:00","5.4","ND","ND","ND","ND","1.0","ND","ND","ND","ND","ND","0"],
    [55435,"2016-09-01T14:00:00","12.9","ND","ND","ND","ND","0.8","ND","ND","ND","ND","ND","0"],
    [55436,"2016-09-01T15:00:00","18","ND","ND","ND","ND","0.6","ND","ND","ND","ND","ND","0"],
    [55437,"2016-09-01T16:00:00","17.6","ND","ND","ND","ND","0.7","ND","ND","ND","ND","ND","0"],
    [55438,"2016-09-01T17:00:00","12.3","ND","ND","ND","ND","0.6","ND","ND","ND","ND","ND","0"],
    [55439,"2016-09-01T18:00:00","ND","ND","ND","ND","ND","0.5","ND","ND","ND","ND","ND","0"],
    [55440,"2016-09-01T19:00:00","ND","ND","ND","ND","ND","0.7","ND","ND","ND","ND","ND","0"],
    [55441,"2016-09-01T20:00:00","17.1","ND","ND","ND","ND","0.3","ND","ND","ND","ND","ND","0"],
    [55442,"2016-09-01T21:00:00","50.9","ND","ND","ND","ND","0.5","ND","ND","ND","ND","ND","0"],
    [55443,"2016-09-01T22:00:00","52.2","ND","ND","ND","ND","0.8","ND","ND","ND","ND","ND","0"],
    [55444,"2016-09-01T23:00:00","49.3","ND","ND","ND","ND","1.3","ND","ND","ND","ND","ND","0"],
    [55445,"2016-09-02T00:00:00","35.9","ND","ND","ND","ND","1.2","ND","ND","ND","ND","ND","0"],
    [55446,"2016-09-02T01:00:00","45.6","ND","ND","ND","ND","1.3","ND","ND","ND","ND","ND","0"],
    [55447,"2016-09-02T02:00:00","40.4","ND","ND","ND","ND","0.8","ND","ND","ND","ND","ND","0"],
    [55448,"2016-09-02T03:00:00","30.5","ND","ND","ND","ND","1.3","ND","ND","ND","ND","ND","0"],
    [55449,"2016-09-02T04:00:00","37.5","ND","ND","ND","ND","2.0","ND","ND","ND","ND","ND","0"],
    [55450,"2016-09-02T05:00:00","33.4","ND","ND","ND","ND","2.0","ND","ND","ND","ND","ND","0"],
    [55451,"2016-09-02T06:00:00","34.9","ND","ND","ND","ND","2.0","ND","ND","ND","ND","ND","0"],
    [55452,"2016-09-02T07:00:00","41.8","ND","ND","ND","ND","1.9","ND","ND","ND","ND","ND","0"],
    [55453,"2016-09-02T08:00:00","48.3","ND","ND","ND","ND","1.6","ND","ND","ND","ND","ND","0"],
    [55454,"2016-09-02T09:00:00","65.1","ND","ND","ND","ND","1.1","ND","ND","ND","ND","ND","0"],
    [55455,"2016-09-02T10:00:00","63.9","ND","ND","ND","ND","1.9","ND","ND","ND","ND","ND","0"],
    [55456,"2016-09-02T11:00:00","60.1","ND","ND","ND","ND","1.7","ND","ND","ND","ND","ND","0"],
    [55457,"2016-09-02T12:00:00","35.4","ND","ND","ND","ND","1.0","ND","ND","ND","ND","ND","0"],
    [55458,"2016-09-02T13:00:00","37","ND","ND","ND","ND","0.9","ND","ND","ND","ND","ND","0"],
    [55459,"2016-09-02T14:00:00","41.3","ND","ND","ND","ND","1.0","ND","ND","ND","ND","ND","0"],
    [55460,"2016-09-02T15:00:00","29.3","ND","ND","ND","ND","0.7","ND","ND","ND","ND","ND","0"],
    [55461,"2016-09-02T16:00:00","7.6","ND","ND","ND","ND","0.9","ND","ND","ND","ND","ND","0"],
    [55462,"2016-09-02T17:00:00","9","ND","ND","ND","ND","0.8","ND","ND","ND","ND","ND","0"],
    [55463,"2016-09-02T18:00:00","3.2","ND","ND","ND","ND","0.9","ND","ND","ND","ND","ND","0"],
    [55464,"2016-09-02T19:00:00","ND","ND","ND","ND","ND","0.5","ND","ND","ND","ND","ND","0"],
    [55465,"2016-09-02T20:00:00","6.4","ND","ND","ND","ND","1.0","ND","ND","ND","ND","ND","0"],
    [55466,"2016-09-02T21:00:00","45.7","ND","ND","ND","ND","0.6","ND","ND","ND","ND","ND","0"],
    [55467,"2016-09-02T22:00:00","74.1","ND","ND","ND","ND","0.9","ND","ND","ND","ND","ND","0"],
    [55468,"2016-09-02T23:00:00","52.9","ND","ND","ND","ND","1.4","ND","ND","ND","ND","ND","0"],
    [55469,"2016-09-03T00:00:00","57.7","ND","ND","ND","ND","2.0","ND","ND","ND","ND","ND","0"],
    [55470,"2016-09-03T01:00:00","67.7","ND","ND","ND","ND","1.4","ND","ND","ND","ND","ND","0"],
    [55471,"2016-09-03T02:00:00","66.6","ND","ND","ND","ND","1.0","ND","ND","ND","ND","ND","0"],
    [55472,"2016-09-03T03:00:00","56.6","ND","ND","ND","ND","1.1","ND","ND","ND","ND","ND","0"],
    [55473,"2016-09-03T04:00:00","46.8","ND","ND","ND","ND","1.0","ND","ND","ND","ND","ND","0"],
    [55474,"2016-09-03T05:00:00","56.8","ND","ND","ND","ND","1.0","ND","ND","ND","ND","ND","0"],
    [55475,"2016-09-03T06:00:00","54.8","ND","ND","ND","ND","1.4","ND","ND","ND","ND","ND","0"],
    [55476,"2016-09-03T07:00:00","56.3","ND","ND","ND","ND","1.3","ND","ND","ND","ND","ND","0"],
    [55477,"2016-09-03T08:00:00","67.6","ND","ND","ND","ND","2.2","ND","ND","ND","ND","ND","0"],
    [55478,"2016-09-03T09:00:00","76.1","ND","ND","ND","ND","1.3","ND","ND","ND","ND","ND","0"],
    [55479,"2016-09-03T10:00:00","52.4","ND","ND","ND","ND","1.0","ND","ND","ND","ND","ND","0"],
    [55480,"2016-09-03T11:00:00","39.4","ND","ND","ND","ND","0.9","ND","ND","ND","ND","ND","0"],
    [55481,"2016-09-03T12:00:00","30.8","ND","ND","ND","ND","1.1","ND","ND","ND","ND","ND","0"],
    [55482,"2016-09-03T13:00:00","19.3","ND","ND","ND","ND","0.9","ND","ND","ND","ND","ND","0"],
    [55483,"2016-09-03T14:00:00","28.2","ND","ND","ND","ND","0.6","ND","ND","ND","ND","ND","0"],
    [55484,"2016-09-03T15:00:00","29.8","ND","ND","ND","ND","0.6","ND","ND","ND","ND","ND","0"],
    [55485,"2016-09-03T16:00:00","26","ND","ND","ND","ND","0.6","ND","ND","ND","ND","ND","0"],
    [55486,"2016-09-03T17:00:00","16.2","ND","ND","ND","ND","0.9","ND","ND","ND","ND","ND","0"],
    [55487,"2016-09-03T18:00:00","4.6","ND","ND","ND","ND","0.6","ND","ND","ND","ND","ND","0"],
    [55488,"2016-09-03T19:00:00","1.1","ND","ND","ND","ND","0.5","ND","ND","ND","ND","ND","0"],
    [55489,"2016-09-03T20:00:00","12.2","ND","ND","ND","ND","0.8","ND","ND","ND","ND","ND","0"],
    [55490,"2016-09-03T21:00:00","30.2","ND","ND","ND","ND","0.8","ND","ND","ND","ND","ND","0"],
    [55491,"2016-09-03T22:00:00","36.1","ND","ND","ND","ND","0.9","ND","ND","ND","ND","ND","0"],
    [55492,"2016-09-03T23:00:00","28.1","ND","ND","ND","ND","1.0","ND","ND","ND","ND","ND","0"],
    [55493,"2016-09-04T00:00:00","20.7","ND","ND","ND","ND","1.3","ND","ND","ND","ND","ND","0"],
    [55494,"2016-09-04T01:00:00","12.1","ND","ND","ND","ND","1.0","ND","ND","ND","ND","ND","0"],
    [55495,"2016-09-04T02:00:00","22","ND","ND","ND","ND","0.9","ND","ND","ND","ND","ND","0"],
    [55496,"2016-09-04T03:00:00","21.1","ND","ND","ND","ND","1.1","ND","ND","ND","ND","ND","0"],
    [55497,"2016-09-04T04:00:00","25.9","ND","ND","ND","ND","1.3","ND","ND","ND","ND","ND","0"],
    [55498,"2016-09-04T05:00:00","35","ND","ND","ND","ND","1.0","ND","ND","ND","ND","ND","0"],
    [55499,"2016-09-04T06:00:00","37.3","ND","ND","ND","ND","1.6","ND","ND","ND","ND","ND","0"],
    [55500,"2016-09-04T07:00:00","37.4","ND","ND","ND","ND","1.2","ND","ND","ND","ND","ND","0"],
    [55501,"2016-09-04T08:00:00","40.3","ND","ND","ND","ND","1.2","ND","ND","ND","ND","ND","0"],
    [55502,"2016-09-04T09:00:00","42.4","ND","ND","ND","ND","1.9","ND","ND","ND","ND","ND","0"],
    [55503,"2016-09-04T10:00:00","45.2","ND","ND","ND","ND","1.4","ND","ND","ND","ND","ND","0"],
    [55504,"2016-09-04T11:00:00","45.7","ND","ND","ND","ND","1.3","ND","ND","ND","ND","ND","0"],
    [55505,"2016-09-04T12:00:00","32.2","ND","ND","ND","ND","1.1","ND","ND","ND","ND","ND","0"],
    [55506,"2016-09-04T13:00:00","27.1","ND","ND","ND","ND","1.0","ND","ND","ND","ND","ND","0"],
    [55507,"2016-09-04T14:00:00","36.5","ND","ND","ND","ND","0.9","ND","ND","ND","ND","ND","0"],
    [55508,"2016-09-04T15:00:00","13.8","ND","ND","ND","ND","1.2","ND","ND","ND","ND","ND","0"],
    [55509,"2016-09-04T16:00:00","9.3","ND","ND","ND","ND","0.8","ND","ND","ND","ND","ND","0"],
    [55510,"2016-09-04T17:00:00","23.5","ND","ND","ND","ND","0.6","ND","ND","ND","ND","ND","7.87"],
    [55511,"2016-09-04T18:00:00","18.7","ND","ND","ND","ND","1.0","ND","ND","ND","ND","ND","3.81"],
    [55512,"2016-09-04T19:00:00","34.4","ND","ND","ND","ND","1.1","ND","ND","ND","ND","ND","0"],
    [55513,"2016-09-04T20:00:00","24.9","ND","ND","ND","ND","2.8","ND","ND","ND","ND","ND","0"],
    [55514,"2016-09-04T21:00:00","10.9","ND","ND","ND","ND","1.7","ND","ND","ND","ND","ND","0"],
    [55515,"2016-09-04T22:00:00","19.5","ND","ND","ND","ND","2.4","ND","ND","ND","ND","ND","0"],
    [55516,"2016-09-04T23:00:00","27.5","ND","ND","ND","ND","3.8","ND","ND","ND","ND","ND","0"],
    [55517,"2016-09-05T00:00:00","20.8","ND","ND","ND","ND","3.3","ND","ND","ND","ND","ND","0"],
    [55518,"2016-09-05T01:00:00","17.5","ND","ND","ND","ND","2.4","ND","ND","ND","ND","ND","0"],
    [55519,"2016-09-05T02:00:00","24.3","ND","ND","ND","ND","2.7","ND","ND","ND","ND","ND","0"],
    [55520,"2016-09-05T03:00:00","23.3","ND","ND","ND","ND","1.7","ND","ND","ND","ND","ND","0"],
    [55521,"2016-09-05T04:00:00","100","ND","ND","ND","ND","2.0","ND","ND","ND","ND","ND","0"],
    [55522,"2016-09-05T05:00:00","69.2","ND","ND","ND","ND","2.3","ND","ND","ND","ND","ND","0"],
    [55523,"2016-09-05T06:00:00","39.9","ND","ND","ND","ND","1.7","ND","ND","ND","ND","ND","0"],
    [55524,"2016-09-05T07:00:00","40","ND","ND","ND","ND","1.2","ND","ND","ND","ND","ND","0"],
    [55525,"2016-09-05T08:00:00","64.6","ND","ND","ND","ND","1.4","ND","ND","ND","ND","ND","0"],
    [55526,"2016-09-05T09:00:00","79.2","ND","ND","ND","ND","1.6","ND","ND","ND","ND","ND","0"],
    [55527,"2016-09-05T10:00:00","65.2","ND","ND","ND","ND","1.5","ND","ND","ND","ND","ND","0"],
    [55528,"2016-09-05T11:00:00","56.5","ND","ND","ND","ND","1.6","ND","ND","ND","ND","ND","0"],
    [55529,"2016-09-05T12:00:00","29.1","ND","ND","ND","ND","1.4","ND","ND","ND","ND","ND","0"],
    [55530,"2016-09-05T13:00:00","18","ND","ND","ND","ND","0.9","ND","ND","ND","ND","ND","0"],
    [55531,"2016-09-05T14:00:00","25.5","ND","ND","ND","ND","1.1","ND","ND","ND","ND","ND","0"],
    [55532,"2016-09-05T15:00:00","25.1","ND","ND","ND","ND","0.8","ND","ND","ND","ND","ND","0"],
    [55533,"2016-09-05T16:00:00","17.4","ND","ND","ND","ND","0.7","ND","ND","ND","ND","ND","0"],
    [55534,"2016-09-05T17:00:00","8.4","ND","ND","ND","ND","0.7","ND","ND","ND","ND","ND","0"],
    [55535,"2016-09-05T18:00:00","5.9","ND","ND","ND","ND","1.0","ND","ND","ND","ND","ND","0"],
    [55536,"2016-09-05T19:00:00","4.2","ND","ND","ND","ND","0.9","ND","ND","ND","ND","ND","0"],
    [55537,"2016-09-05T20:00:00","22.3","ND","ND","ND","ND","0.5","ND","ND","ND","ND","ND","0"],
    [55538,"2016-09-05T21:00:00","38.4","ND","ND","ND","ND","1.2","ND","ND","ND","ND","ND","0"],
    [55539,"2016-09-05T22:00:00","33","ND","ND","ND","ND","1.1","ND","ND","ND","ND","ND","0"],
    [55540,"2016-09-05T23:00:00","24.5","ND","ND","ND","ND","0.7","ND","ND","ND","ND","ND","0"],
    [55541,"2016-09-06T00:00:00","11.3","ND","ND","ND","ND","1.2","ND","ND","ND","ND","ND","0"],
    [55542,"2016-09-06T01:00:00","9.6","ND","ND","ND","ND","1.4","ND","ND","ND","ND","ND","0.51"],
    [55543,"2016-09-06T02:00:00","16.3","ND","ND","ND","ND","0.6","ND","ND","ND","ND","ND","0.25"],
    [55544,"2016-09-06T03:00:00","23.8","ND","ND","ND","ND","1.3","ND","ND","ND","ND","ND","0"],
    [55545,"2016-09-06T04:00:00","58.9","ND","ND","ND","ND","1.2","ND","ND","ND","ND","ND","0"],
    [55546,"2016-09-06T05:00:00","40.9","ND","ND","ND","ND","1.3","ND","ND","ND","ND","ND","0"],
    [55547,"2016-09-06T06:00:00","24.2","ND","ND","ND","ND","1.0","ND","ND","ND","ND","ND","0"],
    [55548,"2016-09-06T07:00:00","20.4","ND","ND","ND","ND","0.8","ND","ND","ND","ND","ND","0"],
    [55549,"2016-09-06T08:00:00","49.7","ND","ND","ND","ND","0.7","ND","ND","ND","ND","ND","0"],
    [55550,"2016-09-06T09:00:00","61.9","ND","ND","ND","ND","1.2","ND","ND","ND","ND","ND","0"],
    [55551,"2016-09-06T10:00:00","54.4","ND","ND","ND","ND","0.9","ND","ND","ND","ND","ND","0"],
    [55552,"2016-09-06T11:00:00","50.5","ND","ND","ND","ND","1.1","ND","ND","ND","ND","ND","0"],
    [55553,"2016-09-06T12:00:00","27.5","ND","ND","ND","ND","0.9","ND","ND","ND","ND","ND","0"],
    [55554,"2016-09-06T13:00:00","20.5","ND","ND","ND","ND","1.1","ND","ND","ND","ND","ND","0"],
    [55555,"2016-09-06T14:00:00","17.2","ND","ND","ND","ND","1.0","ND","ND","ND","ND","ND","0"],
    [55556,"2016-09-06T15:00:00","16.1","ND","ND","ND","ND","1.0","ND","ND","ND","ND","ND","0"],
    [55557,"2016-09-06T16:00:00","6","ND","ND","ND","ND","1.2","ND","ND","ND","ND","ND","0"],
    [55558,"2016-09-06T17:00:00","6.9","ND","ND","ND","ND","1.0","ND","ND","ND","ND","ND","0"],
    [55559,"2016-09-06T18:00:00","ND","ND","ND","ND","ND","0.5","ND","ND","ND","ND","ND","0"],
    [55560,"2016-09-06T19:00:00","ND","ND","ND","ND","ND","0.8","ND","ND","ND","ND","ND","1.27"],
    [55561,"2016-09-06T20:00:00","47.1","ND","ND","ND","ND","0.6","ND","ND","ND","ND","ND","0.51"],
    [55562,"2016-09-06T21:00:00","65.7","ND","ND","ND","ND","0.3","ND","ND","ND","ND","ND","0.25"],
    [55563,"2016-09-06T22:00:00","36","ND","ND","ND","ND","1.2","ND","ND","ND","ND","ND","0"],
    [55564,"2016-09-06T23:00:00","19.8","ND","ND","ND","ND","0.5","ND","ND","ND","ND","ND","0"],
    [55565,"2016-09-07T00:00:00","14.1","ND","ND","ND","ND","0.8","ND","ND","ND","ND","ND","0"],
    [55566,"2016-09-07T01:00:00","21","ND","ND","ND","ND","0.8","ND","ND","ND","ND","ND","0"],
    [55567,"2016-09-07T02:00:00","29.3","ND","ND","ND","ND","1.3","ND","ND","ND","ND","ND","0"],
    [55568,"2016-09-07T03:00:00","37.9","ND","ND","ND","ND","1.2","ND","ND","ND","ND","ND","0"],
    [55569,"2016-09-07T04:00:00","80.8","ND","ND","ND","ND","2.0","ND","ND","ND","ND","ND","0"],
    [55570,"2016-09-07T05:00:00","69","ND","ND","ND","ND","1.7","ND","ND","ND","ND","ND","0"],
    [55571,"2016-09-07T06:00:00","75","ND","ND","ND","ND","2.5","ND","ND","ND","ND","ND","0"],
    [55572,"2016-09-07T07:00:00","72.1","ND","ND","ND","ND","2.5","ND","ND","ND","ND","ND","0"],
    [55573,"2016-09-07T08:00:00","71.5","ND","ND","ND","ND","2.9","ND","ND","ND","ND","ND","0"],
    [55574,"2016-09-07T09:00:00","69","ND","ND","ND","ND","4.3","ND","ND","ND","ND","ND","0"],
    [55575,"2016-09-07T10:00:00","65.3","ND","ND","ND","ND","3.4","ND","ND","ND","ND","ND","0"],
    [55576,"2016-09-07T11:00:00","52.3","ND","ND","ND","ND","3.2","ND","ND","ND","ND","ND","0"],
    [55577,"2016-09-07T12:00:00","40.8","ND","ND","ND","ND","1.8","ND","ND","ND","ND","ND","0"],
    [55578,"2016-09-07T13:00:00","23.2","ND","ND","ND","ND","1.7","ND","ND","ND","ND","ND","0"],
    [55579,"2016-09-07T14:00:00","29.3","ND","ND","ND","ND","1.8","ND","ND","ND","ND","ND","0"],
    [55580,"2016-09-07T15:00:00","35.6","ND","ND","ND","ND","1.4","ND","ND","ND","ND","ND","0"],
    [55581,"2016-09-07T16:00:00","23.1","ND","ND","ND","ND","1.1","ND","ND","ND","ND","ND","0"],
    [55582,"2016-09-07T17:00:00","7.3","ND","ND","ND","ND","0.8","ND","ND","ND","ND","ND","0"],
    [55583,"2016-09-07T18:00:00","8.5","ND","ND","ND","ND","0.6","ND","ND","ND","ND","ND","0"],
    [55584,"2016-09-07T19:00:00","22.4","ND","ND","ND","ND","0.8","ND","ND","ND","ND","ND","0"],
    [55585,"2016-09-07T20:00:00","35.9","ND","ND","ND","ND","1.0","ND","ND","ND","ND","ND","0"],
    [55586,"2016-09-07T21:00:00","22.8","ND","ND","ND","ND","1.5","ND","ND","ND","ND","ND","0"],
    [55587,"2016-09-07T22:00:00","38","ND","ND","ND","ND","0.7","ND","ND","ND","ND","ND","0"],
    [55588,"2016-09-07T23:00:00","50.3","ND","ND","ND","ND","1.6","ND","ND","ND","ND","ND","0"],
    [55589,"2016-09-08T00:00:00","ND","ND","ND","ND","ND","0.9","ND","ND","ND","ND","ND","0"],
    [55590,"2016-09-08T01:00:00","106.7","ND","ND","ND","ND","0.8","ND","ND","ND","ND","ND","0"],
    [55591,"2016-09-08T02:00:00","25.5","ND","ND","ND","ND","1.2","ND","ND","ND","ND","ND","0"],
    [55592,"2016-09-08T03:00:00","35.8","ND","ND","ND","ND","1.2","ND","ND","ND","ND","ND","0"],
    [55593,"2016-09-08T04:00:00","45.5","ND","ND","ND","ND","1.4","ND","ND","ND","ND","ND","0"],
    [55594,"2016-09-08T05:00:00","48","ND","ND","ND","ND","2.2","ND","ND","ND","ND","ND","0"],
    [55595,"2016-09-08T06:00:00","34.6","ND","ND","ND","ND","2.7","ND","ND","ND","ND","ND","0"],
    [55596,"2016-09-08T07:00:00","33.3","ND","ND","ND","ND","1.6","ND","ND","ND","ND","ND","0"],
    [55597,"2016-09-08T08:00:00","59.3","ND","ND","ND","ND","1.2","ND","ND","ND","ND","ND","0"],
    [55598,"2016-09-08T09:00:00","69.6","ND","ND","ND","ND","1.4","ND","ND","ND","ND","ND","0"],
    [55599,"2016-09-08T10:00:00","59.5","ND","ND","ND","ND","1.5","ND","ND","ND","ND","ND","0"],
    [55600,"2016-09-08T11:00:00","49.9","ND","ND","ND","ND","7.1","ND","ND","ND","ND","ND","0"],
    [55601,"2016-09-08T12:00:00","27.9","ND","ND","ND","ND","1.4","ND","ND","ND","ND","ND","0"],
    [55602,"2016-09-08T13:00:00","ND","ND","ND","ND","ND","ND","ND","ND","ND","ND","ND","0"],
    [55603,"2016-09-08T14:00:00","24.3","ND","ND","ND","ND","4.2","ND","ND","ND","ND","ND","0"],
    [55604,"2016-09-08T15:00:00","25","ND","ND","ND","ND","3.6","ND","ND","ND","ND","ND","0"],
    [55605,"2016-09-08T16:00:00","23.3","ND","ND","ND","ND","2.8","ND","ND","ND","ND","ND","0"],
    [55606,"2016-09-08T17:00:00","21.4","ND","ND","ND","ND","2.6","ND","ND","ND","ND","ND","0"],
    [55607,"2016-09-08T18:00:00","8.4","ND","ND","ND","ND","2.8","ND","ND","ND","ND","ND","0"],
    [55608,"2016-09-08T19:00:00","1.7","ND","ND","ND","ND","2.4","ND","ND","ND","ND","ND","0"],
    [55609,"2016-09-08T20:00:00","12.5","ND","ND","ND","ND","2.6","ND","ND","ND","ND","ND","0"],
    [55610,"2016-09-08T21:00:00","29.5","ND","ND","ND","ND","4.9","ND","ND","ND","ND","ND","0"],
    [55611,"2016-09-08T22:00:00","30.6","ND","ND","ND","ND","6.6","ND","ND","ND","ND","ND","0"],
    [55612,"2016-09-08T23:00:00","22.5","ND","ND","ND","ND","6.6","ND","ND","ND","ND","ND","0"],
    [55613,"2016-09-09T00:00:00","19.1","ND","ND","ND","ND","4.7","ND","ND","ND","ND","ND","0"],
    [55614,"2016-09-09T01:00:00","35","ND","ND","ND","ND","5.2","ND","ND","ND","ND","ND","0"],
    [55615,"2016-09-09T02:00:00","25.3","ND","ND","ND","ND","5.6","ND","ND","ND","ND","ND","0"],
    [55616,"2016-09-09T03:00:00","16","ND","ND","ND","ND","4.3","ND","ND","ND","ND","ND","0"],
    [55617,"2016-09-09T04:00:00","18.6","ND","ND","ND","ND","4.6","ND","ND","ND","ND","ND","0"],
    [55618,"2016-09-09T05:00:00","12","ND","ND","ND","ND","4.0","ND","ND","ND","ND","ND","0.76"],
    [55619,"2016-09-09T06:00:00","6.1","ND","ND","ND","ND","3.0","ND","ND","ND","ND","ND","0"],
    [55620,"2016-09-09T07:00:00","20.3","ND","ND","ND","ND","5.0","ND","ND","ND","ND","ND","2.03"],
    [55621,"2016-09-09T08:00:00","26.9","ND","ND","ND","ND","4.2","ND","ND","ND","ND","ND","1.27"],
    [55622,"2016-09-09T09:00:00","39.9","ND","ND","ND","ND","5.0","ND","ND","ND","ND","ND","0"],
    [55623,"2016-09-09T10:00:00","22.4","ND","ND","ND","ND","4.3","ND","ND","ND","ND","ND","0"],
    [55624,"2016-09-09T11:00:00","3","ND","ND","ND","ND","3.2","ND","ND","ND","ND","ND","0"],
    [55625,"2016-09-09T12:00:00","3.2","ND","ND","ND","ND","2.3","ND","ND","ND","ND","ND","0"],
    [55626,"2016-09-09T13:00:00","9.5","ND","ND","ND","ND","1.1","ND","ND","ND","ND","ND","0"],
    [55627,"2016-09-09T14:00:00","8.3","ND","ND","ND","ND","1.1","ND","ND","ND","ND","ND","0"],
    [55628,"2016-09-09T15:00:00","9.8","ND","ND","ND","ND","1.4","ND","ND","ND","ND","ND","0"],
    [55629,"2016-09-09T16:00:00","8","ND","ND","ND","ND","1.2","ND","ND","ND","ND","ND","0"],
    [55630,"2016-09-09T17:00:00","ND","ND","ND","ND","ND","1.2","ND","ND","ND","ND","ND","0"],
    [55631,"2016-09-09T18:00:00","ND","ND","ND","ND","ND","0.8","ND","ND","ND","ND","ND","0"],
    [55632,"2016-09-09T19:00:00","ND","ND","ND","ND","ND","1.3","ND","ND","ND","ND","ND","0"],
    [55633,"2016-09-09T20:00:00","11","ND","ND","ND","ND","1.9","ND","ND","ND","ND","ND","0"],
    [55634,"2016-09-09T21:00:00","29.6","ND","ND","ND","ND","1.7","ND","ND","ND","ND","ND","0"],
    [55635,"2016-09-09T22:00:00","39","ND","ND","ND","ND","2.2","ND","ND","ND","ND","ND","0"],
    [55636,"2016-09-09T23:00:00","24.8","ND","ND","ND","ND","2.4","ND","ND","ND","ND","ND","0"],
    [55637,"2016-09-10T00:00:00","18.8","ND","ND","ND","ND","3.7","ND","ND","ND","ND","ND","0"],
    [55638,"2016-09-10T01:00:00","11.9","ND","ND","ND","ND","2.6","ND","ND","ND","ND","ND","0"],
    [55639,"2016-09-10T02:00:00","20.7","ND","ND","ND","ND","2.1","ND","ND","ND","ND","ND","0"],
    [55640,"2016-09-10T03:00:00","16.7","ND","ND","ND","ND","2.6","ND","ND","ND","ND","ND","0"],
    [55641,"2016-09-10T04:00:00","15","ND","ND","ND","ND","4.0","ND","ND","ND","ND","ND","0"],
    [55642,"2016-09-10T05:00:00","11","ND","ND","ND","ND","9.5","ND","ND","ND","ND","ND","0"],
    [55643,"2016-09-10T06:00:00","13.1","ND","ND","ND","ND","7.4","ND","ND","ND","ND","ND","0"],
    [55644,"2016-09-10T07:00:00","19.7","ND","ND","ND","ND","4.2","ND","ND","ND","ND","ND","0"],
    [55645,"2016-09-10T08:00:00","24.5","ND","ND","ND","ND","3.1","ND","ND","ND","ND","ND","0"],
    [55646,"2016-09-10T09:00:00","35.5","ND","ND","ND","ND","3.7","ND","ND","ND","ND","ND","0"],
    [55647,"2016-09-10T10:00:00","28.2","ND","ND","ND","ND","2.2","ND","ND","ND","ND","ND","0"],
    [55648,"2016-09-10T11:00:00","4.2","ND","ND","ND","ND","1.6","ND","ND","ND","ND","ND","0"],
    [55649,"2016-09-10T12:00:00","7.1","ND","ND","ND","ND","1.7","ND","ND","ND","ND","ND","0"],
    [55650,"2016-09-10T13:00:00","14.4","ND","ND","ND","ND","1.2","ND","ND","ND","ND","ND","0"],
    [55651,"2016-09-10T14:00:00","13.5","ND","ND","ND","ND","0.8","ND","ND","ND","ND","ND","0"],
    [55652,"2016-09-10T15:00:00","8.8","ND","ND","ND","ND","0.7","ND","ND","ND","ND","ND","0"],
    [55653,"2016-09-10T16:00:00","4.2","ND","ND","ND","ND","0.9","ND","ND","ND","ND","ND","6.6"],
    [55654,"2016-09-10T17:00:00","12.9","ND","ND","ND","ND","1.5","ND","ND","ND","ND","ND","0"],
    [55655,"2016-09-10T18:00:00","31","ND","ND","ND","ND","1.9","ND","ND","ND","ND","ND","0"],
    [55656,"2016-09-10T19:00:00","19.3","ND","ND","ND","ND","3.0","ND","ND","ND","ND","ND","0.25"],
    [55657,"2016-09-10T20:00:00","13.1","ND","ND","ND","ND","1.9","ND","ND","ND","ND","ND","0"],
    [55658,"2016-09-10T21:00:00","25.6","ND","ND","ND","ND","4.4","ND","ND","ND","ND","ND","0"],
    [55659,"2016-09-10T22:00:00","5.9","ND","ND","ND","ND","4.0","ND","ND","ND","ND","ND","0"],
    [55660,"2016-09-10T23:00:00","20.5","ND","ND","ND","ND","4.4","ND","ND","ND","ND","ND","0"],
    [55661,"2016-09-11T00:00:00","26.1","ND","ND","ND","ND","4.7","ND","ND","ND","ND","ND","0"],
    [55662,"2016-09-11T01:00:00","12","ND","ND","ND","ND","4.6","ND","ND","ND","ND","ND","0"],
    [55663,"2016-09-11T02:00:00","27.5","ND","ND","ND","ND","3.9","ND","ND","ND","ND","ND","0"],
    [55664,"2016-09-11T03:00:00","23.4","ND","ND","ND","ND","3.3","ND","ND","ND","ND","ND","0"],
    [55665,"2016-09-11T04:00:00","10.3","ND","ND","ND","ND","2.5","ND","ND","ND","ND","ND","0"],
    [55666,"2016-09-11T05:00:00","23.9","ND","ND","ND","ND","3.2","ND","ND","ND","ND","ND","0"],
    [55667,"2016-09-11T06:00:00","29.1","ND","ND","ND","ND","4.3","ND","ND","ND","ND","ND","0"],
    [55668,"2016-09-11T07:00:00","14.5","ND","ND","ND","ND","3.9","ND","ND","ND","ND","ND","0"],
    [55669,"2016-09-11T08:00:00","32.8","ND","ND","ND","ND","3.9","ND","ND","ND","ND","ND","0"],
    [55670,"2016-09-11T09:00:00","22.4","ND","ND","ND","ND","2.3","ND","ND","ND","ND","ND","0"],
    [55671,"2016-09-11T10:00:00","7.1","ND","ND","ND","ND","2.5","ND","ND","ND","ND","ND","0"],
    [55672,"2016-09-11T11:00:00","1.3","ND","ND","ND","ND","1.3","ND","ND","ND","ND","ND","0"],
    [55673,"2016-09-11T12:00:00","3.2","ND","ND","ND","ND","1.5","ND","ND","ND","ND","ND","0"],
    [55674,"2016-09-11T13:00:00","ND","ND","ND","ND","ND","1.3","ND","ND","ND","ND","ND","0"],
    [55675,"2016-09-11T14:00:00","ND","ND","ND","ND","ND","1.1","ND","ND","ND","ND","ND","0"],
    [55676,"2016-09-11T15:00:00","ND","ND","ND","ND","ND","0.8","ND","ND","ND","ND","ND","0"],
    [55677,"2016-09-11T16:00:00","ND","ND","ND","ND","ND","0.5","ND","ND","ND","ND","ND","0"],
    [55678,"2016-09-11T17:00:00","ND","ND","ND","ND","ND","1.1","ND","ND","ND","ND","ND","0"],
    [55679,"2016-09-11T18:00:00","ND","ND","ND","ND","ND","0.9","ND","ND","ND","ND","ND","0"],
    [55680,"2016-09-11T19:00:00","23.3","ND","ND","ND","ND","1.6","ND","ND","ND","ND","ND","0"],
    [55681,"2016-09-11T20:00:00","66.7","ND","ND","ND","ND","2.0","ND","ND","ND","ND","ND","0"],
    [55682,"2016-09-11T21:00:00","47.2","ND","ND","ND","ND","3.6","ND","ND","ND","ND","ND","0"],
    [55683,"2016-09-11T22:00:00","23.2","ND","ND","ND","ND","2.4","ND","ND","ND","ND","ND","0"],
    [55684,"2016-09-11T23:00:00","4.5","ND","ND","ND","ND","1.7","ND","ND","ND","ND","ND","0"],
    [55685,"2016-09-12T00:00:00","6.4","ND","ND","ND","ND","1.3","ND","ND","ND","ND","ND","0"],
    [55686,"2016-09-12T01:00:00","3.8","ND","ND","ND","ND","2.2","ND","ND","ND","ND","ND","0"],
    [55687,"2016-09-12T02:00:00","ND","ND","ND","ND","ND","3.5","ND","ND","ND","ND","ND","0"],
    [55688,"2016-09-12T03:00:00","9.1","ND","ND","ND","ND","4.9","ND","ND","ND","ND","ND","0"],
    [55689,"2016-09-12T04:00:00","20.2","ND","ND","ND","ND","9.9","ND","ND","ND","ND","ND","0"],
    [55690,"2016-09-12T05:00:00","28.4","ND","ND","ND","ND","7.4","ND","ND","ND","ND","ND","0"],
    [55691,"2016-09-12T06:00:00","21.9","ND","ND","ND","ND","5.2","ND","ND","ND","ND","ND","0"],
    [55692,"2016-09-12T07:00:00","20.6","ND","ND","ND","ND","5.9","ND","ND","ND","ND","ND","0"],
    [55693,"2016-09-12T08:00:00","36.9","ND","ND","ND","ND","7.1","ND","ND","ND","ND","ND","0"],
    [55694,"2016-09-12T09:00:00","40.3","ND","ND","ND","ND","7.3","ND","ND","ND","ND","ND","0"],
    [55695,"2016-09-12T10:00:00","23","ND","ND","ND","ND","5.6","ND","ND","ND","ND","ND","0"],
    [55696,"2016-09-12T11:00:00","13.3","ND","ND","ND","ND","3.1","ND","ND","ND","ND","ND","0"],
    [55697,"2016-09-12T12:00:00","7.9","ND","ND","ND","ND","1.1","ND","ND","ND","ND","ND","0"],
    [55698,"2016-09-12T13:00:00","7.5","ND","ND","ND","ND","1.5","ND","ND","ND","ND","ND","0"],
    [55699,"2016-09-12T14:00:00","6.4","ND","ND","ND","ND","1.0","ND","ND","ND","ND","ND","0"],
    [55700,"2016-09-12T15:00:00","17.6","ND","ND","ND","ND","0.9","ND","ND","ND","ND","ND","0"],
    [55701,"2016-09-12T16:00:00","10.5","ND","ND","ND","ND","1.3","ND","ND","ND","ND","ND","0"],
    [55702,"2016-09-12T17:00:00","8.8","ND","ND","ND","ND","1.1","ND","ND","ND","ND","ND","0"],
    [55703,"2016-09-12T18:00:00","1.7","ND","ND","ND","ND","1.1","ND","ND","ND","ND","ND","0"],
    [55704,"2016-09-12T19:00:00","ND","ND","ND","ND","ND","1.1","ND","ND","ND","ND","ND","0"],
    [55705,"2016-09-12T20:00:00","3.6","ND","ND","ND","ND","1.1","ND","ND","ND","ND","ND","0"],
    [55706,"2016-09-12T21:00:00","10.1","ND","ND","ND","ND","0.7","ND","ND","ND","ND","ND","0"],
    [55707,"2016-09-12T22:00:00","20.6","ND","ND","ND","ND","1.4","ND","ND","ND","ND","ND","0"],
    [55708,"2016-09-12T23:00:00","23.5","ND","ND","ND","ND","2.0","ND","ND","ND","ND","ND","0"],
    [55709,"2016-09-13T00:00:00","20.8","ND","ND","ND","ND","1.8","ND","ND","ND","ND","ND","0"],
    [55710,"2016-09-13T01:00:00","10","ND","ND","ND","ND","1.3","ND","ND","ND","ND","ND","0"],
    [55711,"2016-09-13T02:00:00","24.8","ND","ND","ND","ND","1.3","ND","ND","ND","ND","ND","0"],
    [55712,"2016-09-13T03:00:00","14.1","ND","ND","ND","ND","1.3","ND","ND","ND","ND","ND","0"],
    [55713,"2016-09-13T04:00:00","7.2","ND","ND","ND","ND","1.0","ND","ND","ND","ND","ND","0"],
    [55714,"2016-09-13T05:00:00","15.2","ND","ND","ND","ND","1.8","ND","ND","ND","ND","ND","0"],
    [55715,"2016-09-13T06:00:00","24.2","ND","ND","ND","ND","1.5","ND","ND","ND","ND","ND","0"],
    [55716,"2016-09-13T07:00:00","15.5","ND","ND","ND","ND","1.1","ND","ND","ND","ND","ND","0"],
    [55717,"2016-09-13T08:00:00","25.7","ND","ND","ND","ND","1.1","ND","ND","ND","ND","ND","0"],
    [55718,"2016-09-13T09:00:00","35","ND","ND","ND","ND","1.9","ND","ND","ND","ND","ND","0"],
    [55719,"2016-09-13T10:00:00","27.5","ND","ND","ND","ND","1.8","ND","ND","ND","ND","ND","0"],
    [55720,"2016-09-13T11:00:00","15","ND","ND","ND","ND","1.5","ND","ND","ND","ND","ND","0"],
    [55721,"2016-09-13T12:00:00","14.6","ND","ND","ND","ND","1.6","ND","ND","ND","ND","ND","0"],
    [55722,"2016-09-13T13:00:00","19.9","ND","ND","ND","ND","1.3","ND","ND","ND","ND","ND","0"],
    [55723,"2016-09-13T14:00:00","6.8","ND","ND","ND","ND","0.8","ND","ND","ND","ND","ND","0"],
    [55724,"2016-09-13T15:00:00","2.1","ND","ND","ND","ND","1.4","ND","ND","ND","ND","ND","0"],
    [55725,"2016-09-13T16:00:00","9.9","ND","ND","ND","ND","1.3","ND","ND","ND","ND","ND","0"],
    [55726,"2016-09-13T17:00:00","4.7","ND","ND","ND","ND","1.1","ND","ND","ND","ND","ND","0"],
    [55727,"2016-09-13T18:00:00","ND","ND","ND","ND","ND","1.2","ND","ND","ND","ND","ND","0"],
    [55728,"2016-09-13T19:00:00","ND","ND","ND","ND","ND","0.5","ND","ND","ND","ND","ND","0"],
    [55729,"2016-09-13T20:00:00","19.3","ND","ND","ND","ND","0.6","ND","ND","ND","ND","ND","0"],
    [55730,"2016-09-13T21:00:00","31.2","ND","ND","ND","ND","1.2","ND","ND","ND","ND","ND","4.83"],
    [55731,"2016-09-13T22:00:00","23.6","ND","ND","ND","ND","0.9","ND","ND","ND","ND","ND","5.84"],
    [55732,"2016-09-13T23:00:00","16.4","ND","ND","ND","ND","1.1","ND","ND","ND","ND","ND","0.25"],
    [55733,"2016-09-14T00:00:00","13.9","ND","ND","ND","ND","1.5","ND","ND","ND","ND","ND","2.79"],
    [55734,"2016-09-14T01:00:00","ND","ND","ND","ND","ND","1.1","ND","ND","ND","ND","ND","3.56"],
    [55735,"2016-09-14T02:00:00","ND","ND","ND","ND","ND","1.3","ND","ND","ND","ND","ND","3.3"],
    [55736,"2016-09-14T03:00:00","ND","ND","ND","ND","ND","1.1","ND","ND","ND","ND","ND","1.02"],
    [55737,"2016-09-14T04:00:00","ND","ND","ND","ND","ND","1.0","ND","ND","ND","ND","ND","0.25"],
    [55738,"2016-09-14T05:00:00","ND","ND","ND","ND","ND","1.0","ND","ND","ND","ND","ND","0"],
    [55739,"2016-09-14T06:00:00","ND","ND","ND","ND","ND","1.2","ND","ND","ND","ND","ND","0"],
    [55740,"2016-09-14T07:00:00","ND","ND","ND","ND","ND","0.8","ND","ND","ND","ND","ND","0"],
    [55741,"2016-09-14T08:00:00","ND","ND","ND","ND","ND","0.8","ND","ND","ND","ND","ND","0"],
    [55742,"2016-09-14T09:00:00","ND","ND","ND","ND","ND","0.8","ND","ND","ND","ND","ND","0"],
    [55743,"2016-09-14T10:00:00","ND","ND","ND","ND","ND","0.7","ND","ND","ND","ND","ND","0"],
    [55744,"2016-09-14T11:00:00","ND","ND","ND","ND","ND","1.6","ND","ND","ND","ND","ND","0"],
    [55745,"2016-09-14T12:00:00","ND","ND","ND","ND","ND","1.0","ND","ND","ND","ND","ND","0"],
    [55746,"2016-09-14T13:00:00","ND","ND","ND","ND","ND","0.9","ND","ND","ND","ND","ND","0"],
    [55747,"2016-09-14T14:00:00","ND","ND","ND","ND","ND","1.0","ND","ND","ND","ND","ND","0"],
    [55748,"2016-09-14T15:00:00","ND","ND","ND","ND","ND","1.6","ND","ND","ND","ND","ND","0"],
    [55749,"2016-09-14T16:00:00","ND","ND","ND","ND","ND","0.3","ND","ND","ND","ND","ND","0"],
    [55750,"2016-09-14T17:00:00","ND","ND","ND","ND","ND","1.9","ND","ND","ND","ND","ND","0"],
    [55751,"2016-09-14T18:00:00","ND","ND","ND","ND","ND","1.4","ND","ND","ND","ND","ND","0"],
    [55752,"2016-09-14T19:00:00","ND","ND","ND","ND","ND","1.1","ND","ND","ND","ND","ND","0"],
    [55753,"2016-09-14T20:00:00","ND","ND","ND","ND","ND","1.0","ND","ND","ND","ND","ND","0"],
    [55754,"2016-09-14T21:00:00","ND","ND","ND","ND","ND","0.9","ND","ND","ND","ND","ND","0"],
    [55755,"2016-09-14T22:00:00","ND","ND","ND","ND","ND","0.8","ND","ND","ND","ND","ND","0"],
    [55756,"2016-09-14T23:00:00","ND","ND","ND","ND","ND","0.8","ND","ND","ND","ND","ND","0.25"],
    [55757,"2016-09-15T00:00:00","ND","ND","ND","ND","ND","1.2","ND","ND","ND","ND","ND","0"],
    [55758,"2016-09-15T01:00:00","ND","ND","ND","ND","ND","1.4","ND","ND","ND","ND","ND","0.25"],
    [55759,"2016-09-15T02:00:00","ND","ND","ND","ND","ND","2.4","ND","ND","ND","ND","ND","0.25"],
    [55760,"2016-09-15T03:00:00","ND","ND","ND","ND","ND","2.6","ND","ND","ND","ND","ND","0"],
    [55761,"2016-09-15T04:00:00","ND","ND","ND","ND","ND","2.5","ND","ND","ND","ND","ND","0"],
    [55762,"2016-09-15T05:00:00","ND","ND","ND","ND","ND","1.6","ND","ND","ND","ND","ND","0"],
    [55763,"2016-09-15T06:00:00","ND","ND","ND","ND","ND","1.6","ND","ND","ND","ND","ND","0"],
    [55764,"2016-09-15T07:00:00","ND","ND","ND","ND","ND","1.3","ND","ND","ND","ND","ND","0"],
    [55765,"2016-09-15T08:00:00","ND","ND","ND","ND","ND","1.0","ND","ND","ND","ND","ND","0"],
    [55766,"2016-09-15T09:00:00","ND","ND","ND","ND","ND","1.4","ND","ND","ND","ND","ND","0"],
    [55767,"2016-09-15T10:00:00","ND","ND","ND","ND","ND","1.2","ND","ND","ND","ND","ND","0"],
    [55768,"2016-09-15T11:00:00","ND","ND","ND","ND","ND","1.6","ND","ND","ND","ND","ND","0"],
    [55769,"2016-09-15T12:00:00","ND","ND","ND","ND","ND","1.9","ND","ND","ND","ND","ND","0"],
    [55770,"2016-09-15T13:00:00","ND","ND","ND","ND","ND","1.1","ND","ND","ND","ND","ND","0"],
    [55771,"2016-09-15T14:00:00","ND","ND","ND","ND","ND","1.3","ND","ND","ND","ND","ND","0"],
    [55772,"2016-09-15T15:00:00","ND","ND","ND","ND","ND","1.2","ND","ND","ND","ND","ND","0"],
    [55773,"2016-09-15T16:00:00","ND","ND","ND","ND","ND","1.1","ND","ND","ND","ND","ND","0"],
    [55774,"2016-09-15T17:00:00","ND","ND","ND","ND","ND","1.2","ND","ND","ND","ND","ND","0"],
    [55775,"2016-09-15T18:00:00","ND","ND","ND","ND","ND","0.7","ND","ND","ND","ND","ND","0"],
    [55776,"2016-09-15T19:00:00","ND","ND","ND","ND","ND","1.1","ND","ND","ND","ND","ND","0"],
    [55777,"2016-09-15T20:00:00","ND","ND","ND","ND","ND","1.2","ND","ND","ND","ND","ND","0"],
    [55778,"2016-09-15T21:00:00","ND","ND","ND","ND","ND","1.3","ND","ND","ND","ND","ND","0"],
    [55779,"2016-09-15T22:00:00","ND","ND","ND","ND","ND","1.5","ND","ND","ND","ND","ND","0"],
    [55780,"2016-09-15T23:00:00","ND","ND","ND","ND","ND","0.9","ND","ND","ND","ND","ND","0"],
    [55781,"2016-09-16T00:00:00","ND","ND","ND","ND","ND","1.3","ND","ND","ND","ND","ND","0"],
    [55782,"2016-09-16T01:00:00","ND","ND","ND","ND","ND","0.9","ND","ND","ND","ND","ND","0"],
    [55783,"2016-09-16T02:00:00","ND","ND","ND","ND","ND","1.0","ND","ND","ND","ND","ND","0"],
    [55784,"2016-09-16T03:00:00","ND","ND","ND","ND","ND","1.7","ND","ND","ND","ND","ND","0"],
    [55785,"2016-09-16T04:00:00","ND","ND","ND","ND","ND","1.5","ND","ND","ND","ND","ND","0"],
    [55786,"2016-09-16T05:00:00","ND","ND","ND","ND","ND","0.9","ND","ND","ND","ND","ND","0"],
    [55787,"2016-09-16T06:00:00","ND","ND","ND","ND","ND","1.0","ND","ND","ND","ND","ND","0"],
    [55788,"2016-09-16T07:00:00","ND","ND","ND","ND","ND","1.3","ND","ND","ND","ND","ND","0"],
    [55789,"2016-09-16T08:00:00","ND","ND","ND","ND","ND","1.4","ND","ND","ND","ND","ND","0"],
    [55790,"2016-09-16T09:00:00","ND","ND","ND","ND","ND","1.4","ND","ND","ND","ND","ND","0"],
    [55791,"2016-09-16T10:00:00","ND","ND","ND","ND","ND","1.5","ND","ND","ND","ND","ND","0"],
    [55792,"2016-09-16T11:00:00","ND","ND","ND","ND","ND","1.3","ND","ND","ND","ND","ND","0"],
    [55793,"2016-09-16T12:00:00","15.8","ND","ND","ND","ND","0.8","ND","ND","ND","ND","ND","0"],
    [55794,"2016-09-16T13:00:00","39.4","ND","ND","ND","ND","1.3","ND","ND","ND","ND","ND","0"],
    [55795,"2016-09-16T14:00:00","29.7","ND","ND","ND","ND","0.8","ND","ND","ND","ND","ND","0"],
    [55796,"2016-09-16T15:00:00","26.3","ND","ND","ND","ND","1.0","ND","ND","ND","ND","ND","0"],
    [55797,"2016-09-16T16:00:00","19.9","ND","ND","ND","ND","1.4","ND","ND","ND","ND","ND","0"],
    [55798,"2016-09-16T17:00:00","16.1","ND","ND","ND","ND","0.6","ND","ND","ND","ND","ND","0"],
    [55799,"2016-09-16T18:00:00","10.6","ND","ND","ND","ND","0.5","ND","ND","ND","ND","ND","0"],
    [55800,"2016-09-16T19:00:00","12.1","ND","ND","ND","ND","0.7","ND","ND","ND","ND","ND","0"],
    [55801,"2016-09-16T20:00:00","13.3","ND","ND","ND","ND","0.9","ND","ND","ND","ND","ND","0"],
    [55802,"2016-09-16T21:00:00","21.7","ND","ND","ND","ND","0.5","ND","ND","ND","ND","ND","0"],
    [55803,"2016-09-16T22:00:00","27.8","ND","ND","ND","ND","0.8","ND","ND","ND","ND","ND","0"],
    [55804,"2016-09-16T23:00:00","28.5","ND","ND","ND","ND","1.2","ND","ND","ND","ND","ND","0"],
    [55805,"2016-09-17T00:00:00","27.4","ND","ND","ND","ND","0.8","ND","ND","ND","ND","ND","0"],
    [55806,"2016-09-17T01:00:00","22.4","ND","ND","ND","ND","0.7","ND","ND","ND","ND","ND","0"],
    [55807,"2016-09-17T02:00:00","18.9","ND","ND","ND","ND","0.9","ND","ND","ND","ND","ND","0"],
    [55808,"2016-09-17T03:00:00","23.6","ND","ND","ND","ND","1.6","ND","ND","ND","ND","ND","0"],
    [55809,"2016-09-17T04:00:00","23.6","ND","ND","ND","ND","1.0","ND","ND","ND","ND","ND","0"],
    [55810,"2016-09-17T05:00:00","17.7","ND","ND","ND","ND","1.2","ND","ND","ND","ND","ND","0"],
    [55811,"2016-09-17T06:00:00","17.9","ND","ND","ND","ND","1.1","ND","ND","ND","ND","ND","0"],
    [55812,"2016-09-17T07:00:00","25.9","ND","ND","ND","ND","1.2","ND","ND","ND","ND","ND","0"],
    [55813,"2016-09-17T08:00:00","32.2","ND","ND","ND","ND","0.8","ND","ND","ND","ND","ND","0"],
    [55814,"2016-09-17T09:00:00","29","ND","ND","ND","ND","1.2","ND","ND","ND","ND","ND","0"],
    [55815,"2016-09-17T10:00:00","23.3","ND","ND","ND","ND","1.2","ND","ND","ND","ND","ND","0"],
    [55816,"2016-09-17T11:00:00","19.1","ND","ND","ND","ND","0.6","ND","ND","ND","ND","ND","0"],
    [55817,"2016-09-17T12:00:00","12.4","ND","ND","ND","ND","0.5","ND","ND","ND","ND","ND","0"],
    [55818,"2016-09-17T13:00:00","9.6","ND","ND","ND","ND","1.6","ND","ND","ND","ND","ND","0"],
    [55819,"2016-09-17T14:00:00","17.8","ND","ND","ND","ND","1.2","ND","ND","ND","ND","ND","0"],
    [55820,"2016-09-17T15:00:00","17","ND","ND","ND","ND","1.6","ND","ND","ND","ND","ND","0"],
    [55821,"2016-09-17T16:00:00","9.3","ND","ND","ND","ND","1.3","ND","ND","ND","ND","ND","0"],
    [55822,"2016-09-17T17:00:00","ND","ND","ND","ND","ND","1.3","ND","ND","ND","ND","ND","0"],
    [55823,"2016-09-17T18:00:00","ND","ND","ND","ND","ND","1.3","ND","ND","ND","ND","ND","0"],
    [55824,"2016-09-17T19:00:00","ND","ND","ND","ND","ND","1.2","ND","ND","ND","ND","ND","0"],
    [55825,"2016-09-17T20:00:00","3.3","ND","ND","ND","ND","0.9","ND","ND","ND","ND","ND","0"],
    [55826,"2016-09-17T21:00:00","31.9","ND","ND","ND","ND","1.4","ND","ND","ND","ND","ND","0"],
    [55827,"2016-09-17T22:00:00","35.6","ND","ND","ND","ND","1.1","ND","ND","ND","ND","ND","0"],
    [55828,"2016-09-17T23:00:00","25.6","ND","ND","ND","ND","1.0","ND","ND","ND","ND","ND","0"],
    [55829,"2016-09-18T00:00:00","28.2","ND","ND","ND","ND","1.6","ND","ND","ND","ND","ND","0"],
    [55830,"2016-09-18T01:00:00","27.1","ND","ND","ND","ND","1.6","ND","ND","ND","ND","ND","0"],
    [55831,"2016-09-18T02:00:00","22.8","ND","ND","ND","ND","1.6","ND","ND","ND","ND","ND","0"],
    [55832,"2016-09-18T03:00:00","15.3","ND","ND","ND","ND","1.5","ND","ND","ND","ND","ND","0"],
    [55833,"2016-09-18T04:00:00","11.5","ND","ND","ND","ND","1.2","ND","ND","ND","ND","ND","0"],
    [55834,"2016-09-18T05:00:00","16.2","ND","ND","ND","ND","1.4","ND","ND","ND","ND","ND","0"],
    [55835,"2016-09-18T06:00:00","24.8","ND","ND","ND","ND","1.3","ND","ND","ND","ND","ND","0"],
    [55836,"2016-09-18T07:00:00","20.9","ND","ND","ND","ND","1.4","ND","ND","ND","ND","ND","0"],
    [55837,"2016-09-18T08:00:00","24.1","ND","ND","ND","ND","1.3","ND","ND","ND","ND","ND","0"],
    [55838,"2016-09-18T09:00:00","18.9","ND","ND","ND","ND","0.8","ND","ND","ND","ND","ND","0"],
    [55839,"2016-09-18T10:00:00","6.4","ND","ND","ND","ND","0.8","ND","ND","ND","ND","ND","0"],
    [55840,"2016-09-18T11:00:00","ND","ND","ND","ND","ND","1.2","ND","ND","ND","ND","ND","0"],
    [55841,"2016-09-18T12:00:00","3","ND","ND","ND","ND","0.9","ND","ND","ND","ND","ND","0"],
    [55842,"2016-09-18T13:00:00","4.1","ND","ND","ND","ND","1.2","ND","ND","ND","ND","ND","0"],
    [55843,"2016-09-18T14:00:00","17.1","ND","ND","ND","ND","1.5","ND","ND","ND","ND","ND","0"],
    [55844,"2016-09-18T15:00:00","8.5","ND","ND","ND","ND","1.3","ND","ND","ND","ND","ND","0"],
    [55845,"2016-09-18T16:00:00","ND","ND","ND","ND","ND","0.6","ND","ND","ND","ND","ND","0"],
    [55846,"2016-09-18T17:00:00","ND","ND","ND","ND","ND","1.4","ND","ND","ND","ND","ND","0"],
    [55847,"2016-09-18T18:00:00","ND","ND","ND","ND","ND","1.0","ND","ND","ND","ND","ND","0"],
    [55848,"2016-09-18T19:00:00","ND","ND","ND","ND","ND","0.9","ND","ND","ND","ND","ND","0"],
    [55849,"2016-09-18T20:00:00","14.7","ND","ND","ND","ND","1.0","ND","ND","ND","ND","ND","0"],
    [55850,"2016-09-18T21:00:00","25.7","ND","ND","ND","ND","1.5","ND","ND","ND","ND","ND","0"],
    [55851,"2016-09-18T22:00:00","24.9","ND","ND","ND","ND","1.0","ND","ND","ND","ND","ND","0"],
    [55852,"2016-09-18T23:00:00","27.1","ND","ND","ND","ND","0.8","ND","ND","ND","ND","ND","0"],
    [55853,"2016-09-19T00:00:00","30.4","ND","ND","ND","ND","1.9","ND","ND","ND","ND","ND","0"],
    [55854,"2016-09-19T01:00:00","30.5","ND","ND","ND","ND","1.9","ND","ND","ND","ND","ND","0"],
    [55855,"2016-09-19T02:00:00","28.1","ND","ND","ND","ND","3.3","ND","ND","ND","ND","ND","0"],
    [55856,"2016-09-19T03:00:00","21.3","ND","ND","ND","ND","3.5","ND","ND","ND","ND","ND","0"],
    [55857,"2016-09-19T04:00:00","19.9","ND","ND","ND","ND","3.2","ND","ND","ND","ND","ND","0"],
    [55858,"2016-09-19T05:00:00","22.5","ND","ND","ND","ND","2.7","ND","ND","ND","ND","ND","0"],
    [55859,"2016-09-19T06:00:00","34.5","ND","ND","ND","ND","3.0","ND","ND","ND","ND","ND","0"],
    [55860,"2016-09-19T07:00:00","42.1","ND","ND","ND","ND","2.7","ND","ND","ND","ND","ND","0"],
    [55861,"2016-09-19T08:00:00","62.3","ND","ND","ND","ND","2.2","ND","ND","ND","ND","ND","0"],
    [55862,"2016-09-19T09:00:00","58.7","ND","ND","ND","ND","3.3","ND","ND","ND","ND","ND","0"],
    [55863,"2016-09-19T10:00:00","30","ND","ND","ND","ND","3.4","ND","ND","ND","ND","ND","0"],
    [55864,"2016-09-19T11:00:00","15.8","ND","ND","ND","ND","1.8","ND","ND","ND","ND","ND","0"],
    [55865,"2016-09-19T12:00:00","10.2","ND","ND","ND","ND","1.3","ND","ND","ND","ND","ND","0"],
    [55866,"2016-09-19T13:00:00","13.4","ND","ND","ND","ND","1.8","ND","ND","ND","ND","ND","0"],
    [55867,"2016-09-19T14:00:00","18.2","ND","ND","ND","ND","1.4","ND","ND","ND","ND","ND","0"],
    [55868,"2016-09-19T15:00:00","12.9","ND","ND","ND","ND","0.8","ND","ND","ND","ND","ND","0"],
    [55869,"2016-09-19T16:00:00","15.5","ND","ND","ND","ND","0.6","ND","ND","ND","ND","ND","0"],
    [55870,"2016-09-19T17:00:00","20.2","ND","ND","ND","ND","0.9","ND","ND","ND","ND","ND","0"],
    [55871,"2016-09-19T18:00:00","ND","ND","ND","ND","ND","0.7","ND","ND","ND","ND","ND","0"],
    [55872,"2016-09-19T19:00:00","ND","ND","ND","ND","ND","1.2","ND","ND","ND","ND","ND","0"],
    [55873,"2016-09-19T20:00:00","ND","ND","ND","ND","ND","0.5","ND","ND","ND","ND","ND","0"],
    [55874,"2016-09-19T21:00:00","18","ND","ND","ND","ND","1.3","ND","ND","ND","ND","ND","0"],
    [55875,"2016-09-19T22:00:00","46.8","ND","ND","ND","ND","1.8","ND","ND","ND","ND","ND","0"],
    [55876,"2016-09-19T23:00:00","42","ND","ND","ND","ND","1.5","ND","ND","ND","ND","ND","0"],
    [55877,"2016-09-20T00:00:00","23.7","ND","ND","ND","ND","1.5","ND","ND","ND","ND","ND","0"],
    [55878,"2016-09-20T01:00:00","20.3","ND","ND","ND","ND","1.6","ND","ND","ND","ND","ND","0"],
    [55879,"2016-09-20T02:00:00","15.2","ND","ND","ND","ND","1.3","ND","ND","ND","ND","ND","0"],
    [55880,"2016-09-20T03:00:00","14.1","ND","ND","ND","ND","1.5","ND","ND","ND","ND","ND","0"],
    [55881,"2016-09-20T04:00:00","13.4","ND","ND","ND","ND","1.3","ND","ND","ND","ND","ND","0"],
    [55882,"2016-09-20T05:00:00","10.4","ND","ND","ND","ND","1.4","ND","ND","ND","ND","ND","0"],
    [55883,"2016-09-20T06:00:00","28.8","ND","ND","ND","ND","1.5","ND","ND","ND","ND","ND","0"],
    [55884,"2016-09-20T07:00:00","43.2","ND","ND","ND","ND","1.4","ND","ND","ND","ND","ND","0"],
    [55885,"2016-09-20T08:00:00","51.4","ND","ND","ND","ND","2.7","ND","ND","ND","ND","ND","0"],
    [55886,"2016-09-20T09:00:00","38.2","ND","ND","ND","ND","4.4","ND","ND","ND","ND","ND","0"],
    [55887,"2016-09-20T10:00:00","22.4","ND","ND","ND","ND","3.2","ND","ND","ND","ND","ND","0"],
    [55888,"2016-09-20T11:00:00","22","ND","ND","ND","ND","2.7","ND","ND","ND","ND","ND","0"],
    [55889,"2016-09-20T12:00:00","18.4","ND","ND","ND","ND","1.7","ND","ND","ND","ND","ND","0"],
    [55890,"2016-09-20T13:00:00","20.8","ND","ND","ND","ND","1.4","ND","ND","ND","ND","ND","0"],
    [55891,"2016-09-20T14:00:00","32.2","ND","ND","ND","ND","2.2","ND","ND","ND","ND","ND","0"],
    [55892,"2016-09-20T15:00:00","20.8","ND","ND","ND","ND","0.9","ND","ND","ND","ND","ND","0"],
    [55893,"2016-09-20T16:00:00","24.8","ND","ND","ND","ND","0.1","ND","ND","ND","ND","ND","0"],
    [55894,"2016-09-20T17:00:00","18","ND","ND","ND","ND","0.5","ND","ND","ND","ND","ND","0"],
    [55895,"2016-09-20T18:00:00","5.1","ND","ND","ND","ND","0.3","ND","ND","ND","ND","ND","0"],
    [55896,"2016-09-20T19:00:00","2","ND","ND","ND","ND","0.3","ND","ND","ND","ND","ND","0"],
    [55897,"2016-09-20T20:00:00","ND","ND","ND","ND","ND","1.2","ND","ND","ND","ND","ND","0"],
    [55898,"2016-09-20T21:00:00","29","ND","ND","ND","ND","1.2","ND","ND","ND","ND","ND","0"],
    [55899,"2016-09-20T22:00:00","61.7","ND","ND","ND","ND","0.7","ND","ND","ND","ND","ND","0"],
    [55900,"2016-09-20T23:00:00","38.3","ND","ND","ND","ND","0.7","ND","ND","ND","ND","ND","0"],
    [55901,"2016-09-21T00:00:00","30.8","ND","ND","ND","ND","1.0","ND","ND","ND","ND","ND","0"],
    [55902,"2016-09-21T01:00:00","23","ND","ND","ND","ND","0.6","ND","ND","ND","ND","ND","0"],
    [55903,"2016-09-21T02:00:00","8.3","ND","ND","ND","ND","1.2","ND","ND","ND","ND","ND","0"],
    [55904,"2016-09-21T03:00:00","15.9","ND","ND","ND","ND","1.4","ND","ND","ND","ND","ND","0"],
    [55905,"2016-09-21T04:00:00","22.4","ND","ND","ND","ND","1.0","ND","ND","ND","ND","ND","0"],
    [55906,"2016-09-21T05:00:00","23","ND","ND","ND","ND","0.9","ND","ND","ND","ND","ND","0"],
    [55907,"2016-09-21T06:00:00","26.3","ND","ND","ND","ND","1.8","ND","ND","ND","ND","ND","0"],
    [55908,"2016-09-21T07:00:00","33.9","ND","ND","ND","ND","1.8","ND","ND","ND","ND","ND","0"],
    [55909,"2016-09-21T08:00:00","58.1","ND","ND","ND","ND","1.9","ND","ND","ND","ND","ND","0"],
    [55910,"2016-09-21T09:00:00","36.6","ND","ND","ND","ND","1.4","ND","ND","ND","ND","ND","0"],
    [55911,"2016-09-21T10:00:00","38.8","ND","ND","ND","ND","1.8","ND","ND","ND","ND","ND","0"],
    [55912,"2016-09-21T11:00:00","34.8","ND","ND","ND","ND","1.6","ND","ND","ND","ND","ND","0"],
    [55913,"2016-09-21T12:00:00","21.8","ND","ND","ND","ND","1.1","ND","ND","ND","ND","ND","0"],
    [55914,"2016-09-21T13:00:00","17.4","ND","ND","ND","ND","1.4","ND","ND","ND","ND","ND","0"],
    [55915,"2016-09-21T14:00:00","16.2","ND","ND","ND","ND","1.1","ND","ND","ND","ND","ND","0"],
    [55916,"2016-09-21T15:00:00","7.4","ND","ND","ND","ND","0.9","ND","ND","ND","ND","ND","0"],
    [55917,"2016-09-21T16:00:00","ND","ND","ND","ND","ND","0.9","ND","ND","ND","ND","ND","0"],
    [55918,"2016-09-21T17:00:00","ND","ND","ND","ND","ND","1.0","ND","ND","ND","ND","ND","0"],
    [55919,"2016-09-21T18:00:00","1.4","ND","ND","ND","ND","0.4","ND","ND","ND","ND","ND","0"],
    [55920,"2016-09-21T19:00:00","5.8","ND","ND","ND","ND","0.7","ND","ND","ND","ND","ND","0"],
    [55921,"2016-09-21T20:00:00","24.2","ND","ND","ND","ND","1.2","ND","ND","ND","ND","ND","0"],
    [55922,"2016-09-21T21:00:00","23.5","ND","ND","ND","ND","1.1","ND","ND","ND","ND","ND","0"],
    [55923,"2016-09-21T22:00:00","25.4","ND","ND","ND","ND","1.3","ND","ND","ND","ND","ND","0"],
    [55924,"2016-09-21T23:00:00","29.8","ND","ND","ND","ND","1.3","ND","ND","ND","ND","ND","0"],
    [55925,"2016-09-22T00:00:00","22.1","ND","ND","ND","ND","1.3","ND","ND","ND","ND","ND","0"],
    [55926,"2016-09-22T01:00:00","19","ND","ND","ND","ND","1.9","ND","ND","ND","ND","ND","0"],
    [55927,"2016-09-22T02:00:00","23.6","ND","ND","ND","ND","2.6","ND","ND","ND","ND","ND","0"],
    [55928,"2016-09-22T03:00:00","23.6","ND","ND","ND","ND","1.8","ND","ND","ND","ND","ND","0"],
    [55929,"2016-09-22T04:00:00","17.4","ND","ND","ND","ND","1.8","ND","ND","ND","ND","ND","0"],
    [55930,"2016-09-22T05:00:00","13.2","ND","ND","ND","ND","1.8","ND","ND","ND","ND","ND","0"],
    [55931,"2016-09-22T06:00:00","15.4","ND","ND","ND","ND","1.3","ND","ND","ND","ND","ND","0"],
    [55932,"2016-09-22T07:00:00","19.6","ND","ND","ND","ND","1.7","ND","ND","ND","ND","ND","0"],
    [55933,"2016-09-22T08:00:00","51.3","ND","ND","ND","ND","2.1","ND","ND","ND","ND","ND","0"],
    [55934,"2016-09-22T09:00:00","36.5","ND","ND","ND","ND","3.1","ND","ND","ND","ND","ND","0"],
    [55935,"2016-09-22T10:00:00","20.6","ND","ND","ND","ND","2.5","ND","ND","ND","ND","ND","0"],
    [55936,"2016-09-22T11:00:00","12","ND","ND","ND","ND","1.8","ND","ND","ND","ND","ND","0"],
    [55937,"2016-09-22T12:00:00","14.7","ND","ND","ND","ND","1.6","ND","ND","ND","ND","ND","0"],
    [55938,"2016-09-22T13:00:00","14.5","ND","ND","ND","ND","1.4","ND","ND","ND","ND","ND","0"],
    [55939,"2016-09-22T14:00:00","9.2","ND","ND","ND","ND","0.7","ND","ND","ND","ND","ND","0"],
    [55940,"2016-09-22T15:00:00","5.2","ND","ND","ND","ND","1.4","ND","ND","ND","ND","ND","0"],
    [55941,"2016-09-22T16:00:00","ND","ND","ND","ND","ND","0.9","ND","ND","ND","ND","ND","0"],
    [55942,"2016-09-22T17:00:00","ND","ND","ND","ND","ND","1.2","ND","ND","ND","ND","ND","0"],
    [55943,"2016-09-22T18:00:00","ND","ND","ND","ND","ND","0.9","ND","ND","ND","ND","ND","0"],
    [55944,"2016-09-22T19:00:00","ND","ND","ND","ND","ND","0.8","ND","ND","ND","ND","ND","0"],
    [55945,"2016-09-22T20:00:00","ND","ND","ND","ND","ND","0.8","ND","ND","ND","ND","ND","0"],
    [55946,"2016-09-22T21:00:00","18.6","ND","ND","ND","ND","1.1","ND","ND","ND","ND","ND","0"],
    [55947,"2016-09-22T22:00:00","28.7","ND","ND","ND","ND","1.0","ND","ND","ND","ND","ND","0"],
    [55948,"2016-09-22T23:00:00","25.5","ND","ND","ND","ND","1.0","ND","ND","ND","ND","ND","0"],
    [55949,"2016-09-23T00:00:00","30.3","ND","ND","ND","ND","0.5","ND","ND","ND","ND","ND","0"],
    [55950,"2016-09-23T01:00:00","19.3","ND","ND","ND","ND","0.8","ND","ND","ND","ND","ND","0"],
    [55951,"2016-09-23T02:00:00","4.8","ND","ND","ND","ND","1.2","ND","ND","ND","ND","ND","0"],
    [55952,"2016-09-23T03:00:00","19.7","ND","ND","ND","ND","2.3","ND","ND","ND","ND","ND","0"],
    [55953,"2016-09-23T04:00:00","15.1","ND","ND","ND","ND","1.7","ND","ND","ND","ND","ND","0"],
    [55954,"2016-09-23T05:00:00","9.2","ND","ND","ND","ND","1.2","ND","ND","ND","ND","ND","0"],
    [55955,"2016-09-23T06:00:00","6.2","ND","ND","ND","ND","1.3","ND","ND","ND","ND","ND","0"],
    [55956,"2016-09-23T07:00:00","16","ND","ND","ND","ND","1.2","ND","ND","ND","ND","ND","0"],
    [55957,"2016-09-23T08:00:00","26.6","ND","ND","ND","ND","1.1","ND","ND","ND","ND","ND","0"],
    [55958,"2016-09-23T09:00:00","22.4","ND","ND","ND","ND","0.8","ND","ND","ND","ND","ND","0"],
    [55959,"2016-09-23T10:00:00","20.2","ND","ND","ND","ND","1.3","ND","ND","ND","ND","ND","0"],
    [55960,"2016-09-23T11:00:00","10.9","ND","ND","ND","ND","1.3","ND","ND","ND","ND","ND","0"],
    [55961,"2016-09-23T12:00:00","ND","ND","ND","ND","ND","1.6","ND","ND","ND","ND","ND","0"],
    [55962,"2016-09-23T13:00:00","ND","ND","ND","ND","ND","1.3","ND","ND","ND","ND","ND","0"],
    [55963,"2016-09-23T14:00:00","18.1","ND","ND","ND","ND","1.2","ND","ND","ND","ND","ND","0"],
    [55964,"2016-09-23T15:00:00","16.4","ND","ND","ND","ND","1.0","ND","ND","ND","ND","ND","0"],
    [55965,"2016-09-23T16:00:00","6.1","ND","ND","ND","ND","1.2","ND","ND","ND","ND","ND","0"],
    [55966,"2016-09-23T17:00:00","7.9","ND","ND","ND","ND","1.4","ND","ND","ND","ND","ND","0"],
    [55967,"2016-09-23T18:00:00","ND","ND","ND","ND","ND","1.0","ND","ND","ND","ND","ND","0"],
    [55968,"2016-09-23T19:00:00","ND","ND","ND","ND","ND","0.9","ND","ND","ND","ND","ND","0"],
    [55969,"2016-09-23T20:00:00","4.7","ND","ND","ND","ND","1.5","ND","ND","ND","ND","ND","0"],
    [55970,"2016-09-23T21:00:00","25.1","ND","ND","ND","ND","2.1","ND","ND","ND","ND","ND","0"],
    [55971,"2016-09-23T22:00:00","44.3","ND","ND","ND","ND","3.7","ND","ND","ND","ND","ND","0"],
    [55972,"2016-09-23T23:00:00","42","ND","ND","ND","ND","3.7","ND","ND","ND","ND","ND","0"],
    [55973,"2016-09-24T00:00:00","31.5","ND","ND","ND","ND","2.3","ND","ND","ND","ND","ND","0"],
    [55974,"2016-09-24T01:00:00","27.1","ND","ND","ND","ND","3.3","ND","ND","ND","ND","ND","0"],
    [55975,"2016-09-24T02:00:00","15.9","ND","ND","ND","ND","4.2","ND","ND","ND","ND","ND","0"],
    [55976,"2016-09-24T03:00:00","20.8","ND","ND","ND","ND","4.0","ND","ND","ND","ND","ND","0"],
    [55977,"2016-09-24T04:00:00","25.9","ND","ND","ND","ND","3.9","ND","ND","ND","ND","ND","0"],
    [55978,"2016-09-24T05:00:00","21.7","ND","ND","ND","ND","2.4","ND","ND","ND","ND","ND","0"],
    [55979,"2016-09-24T06:00:00","19","ND","ND","ND","ND","4.8","ND","ND","ND","ND","ND","0"],
    [55980,"2016-09-24T07:00:00","23.1","ND","ND","ND","ND","6.2","ND","ND","ND","ND","ND","0"],
    [55981,"2016-09-24T08:00:00","27.1","ND","ND","ND","ND","5.5","ND","ND","ND","ND","ND","0"],
    [55982,"2016-09-24T09:00:00","38.3","ND","ND","ND","ND","7.8","ND","ND","ND","ND","ND","0.25"],
    [55983,"2016-09-24T10:00:00","27.8","ND","ND","ND","ND","4.0","ND","ND","ND","ND","ND","0"],
    [55984,"2016-09-24T11:00:00","20","ND","ND","ND","ND","3.0","ND","ND","ND","ND","ND","0"],
    [55985,"2016-09-24T12:00:00","12.1","ND","ND","ND","ND","1.8","ND","ND","ND","ND","ND","0"],
    [55986,"2016-09-24T13:00:00","20.2","ND","ND","ND","ND","1.7","ND","ND","ND","ND","ND","0"],
    [55987,"2016-09-24T14:00:00","12","ND","ND","ND","ND","1.2","ND","ND","ND","ND","ND","0"],
    [55988,"2016-09-24T15:00:00","4","ND","ND","ND","ND","1.4","ND","ND","ND","ND","ND","0"],
    [55989,"2016-09-24T16:00:00","ND","ND","ND","ND","ND","1.7","ND","ND","ND","ND","ND","17.53"],
    [55990,"2016-09-24T17:00:00","29.6","ND","ND","ND","ND","1.7","ND","ND","ND","ND","ND","0.51"],
    [55991,"2016-09-24T18:00:00","37.2","ND","ND","ND","ND","1.7","ND","ND","ND","ND","ND","0.25"],
    [55992,"2016-09-24T19:00:00","11.9","ND","ND","ND","ND","2.0","ND","ND","ND","ND","ND","0"],
    [55993,"2016-09-24T20:00:00","6.6","ND","ND","ND","ND","2.5","ND","ND","ND","ND","ND","0"],
    [55994,"2016-09-24T21:00:00","4.6","ND","ND","ND","ND","2.8","ND","ND","ND","ND","ND","0"],
    [55995,"2016-09-24T22:00:00","2.2","ND","ND","ND","ND","3.1","ND","ND","ND","ND","ND","0"],
    [55996,"2016-09-24T23:00:00","10.4","ND","ND","ND","ND","4.7","ND","ND","ND","ND","ND","0"],
    [55997,"2016-09-25T00:00:00","17.5","ND","ND","ND","ND","2.0","ND","ND","ND","ND","ND","0"],
    [55998,"2016-09-25T01:00:00","21","ND","ND","ND","ND","2.3","ND","ND","ND","ND","ND","0"],
    [55999,"2016-09-25T02:00:00","12.7","ND","ND","ND","ND","1.4","ND","ND","ND","ND","ND","0"],
    [56000,"2016-09-25T03:00:00","10.4","ND","ND","ND","ND","1.4","ND","ND","ND","ND","ND","0"],
    [56001,"2016-09-25T04:00:00","16.4","ND","ND","ND","ND","4.7","ND","ND","ND","ND","ND","0"],
    [56002,"2016-09-25T05:00:00","19.7","ND","ND","ND","ND","4.0","ND","ND","ND","ND","ND","0"],
    [56003,"2016-09-25T06:00:00","21.4","ND","ND","ND","ND","6.0","ND","ND","ND","ND","ND","0"],
    [56004,"2016-09-25T07:00:00","21.7","ND","ND","ND","ND","5.3","ND","ND","ND","ND","ND","0"],
    [56005,"2016-09-25T08:00:00","22","ND","ND","ND","ND","5.6","ND","ND","ND","ND","ND","0"],
    [56006,"2016-09-25T09:00:00","31.3","ND","ND","ND","ND","4.7","ND","ND","ND","ND","ND","0"],
    [56007,"2016-09-25T10:00:00","23.1","ND","ND","ND","ND","2.7","ND","ND","ND","ND","ND","0"],
    [56008,"2016-09-25T11:00:00","13.6","ND","ND","ND","ND","1.6","ND","ND","ND","ND","ND","0"],
    [56009,"2016-09-25T12:00:00","5.4","ND","ND","ND","ND","1.1","ND","ND","ND","ND","ND","0"],
    [56010,"2016-09-25T13:00:00","7","ND","ND","ND","ND","1.0","ND","ND","ND","ND","ND","0"],
    [56011,"2016-09-25T14:00:00","11.9","ND","ND","ND","ND","0.8","ND","ND","ND","ND","ND","0"],
    [56012,"2016-09-25T15:00:00","6.8","ND","ND","ND","ND","0.8","ND","ND","ND","ND","ND","0"],
    [56013,"2016-09-25T16:00:00","18.4","ND","ND","ND","ND","0.9","ND","ND","ND","ND","ND","0"],
    [56014,"2016-09-25T17:00:00","14.2","ND","ND","ND","ND","1.0","ND","ND","ND","ND","ND","0"],
    [56015,"2016-09-25T18:00:00","ND","ND","ND","ND","ND","1.4","ND","ND","ND","ND","ND","0"],
    [56016,"2016-09-25T19:00:00","ND","ND","ND","ND","ND","1.5","ND","ND","ND","ND","ND","0"],
    [56017,"2016-09-25T20:00:00","ND","ND","ND","ND","ND","1.3","ND","ND","ND","ND","ND","0"],
    [56018,"2016-09-25T21:00:00","12.8","ND","ND","ND","ND","3.3","ND","ND","ND","ND","ND","0"],
    [56019,"2016-09-25T22:00:00","30.1","ND","ND","ND","ND","4.4","ND","ND","ND","ND","ND","0"],
    [56020,"2016-09-25T23:00:00","28.1","ND","ND","ND","ND","3.4","ND","ND","ND","ND","ND","0"],
    [56021,"2016-09-26T00:00:00","18.4","ND","ND","ND","ND","2.7","ND","ND","ND","ND","ND","0"],
    [56022,"2016-09-26T01:00:00","23.6","ND","ND","ND","ND","3.2","ND","ND","ND","ND","ND","0"],
    [56023,"2016-09-26T02:00:00","36.6","ND","ND","ND","ND","3.1","ND","ND","ND","ND","ND","0"],
    [56024,"2016-09-26T03:00:00","14.7","ND","ND","ND","ND","5.2","ND","ND","ND","ND","ND","0"],
    [56025,"2016-09-26T04:00:00","20.2","ND","ND","ND","ND","5.8","ND","ND","ND","ND","ND","0"],
    [56026,"2016-09-26T05:00:00","16.6","ND","ND","ND","ND","2.5","ND","ND","ND","ND","ND","0"],
    [56027,"2016-09-26T06:00:00","10.8","ND","ND","ND","ND","2.4","ND","ND","ND","ND","ND","0"],
    [56028,"2016-09-26T07:00:00","24","ND","ND","ND","ND","3.0","ND","ND","ND","ND","ND","0"],
    [56029,"2016-09-26T08:00:00","24.5","ND","ND","ND","ND","2.0","ND","ND","ND","ND","ND","0"],
    [56030,"2016-09-26T09:00:00","12.5","ND","ND","ND","ND","3.2","ND","ND","ND","ND","ND","0"],
    [56031,"2016-09-26T10:00:00","28.9","ND","ND","ND","ND","2.8","ND","ND","ND","ND","ND","0"],
    [56032,"2016-09-26T11:00:00","21.8","ND","ND","ND","ND","1.8","ND","ND","ND","ND","ND","0"],
    [56033,"2016-09-26T12:00:00","14.7","ND","ND","ND","ND","1.4","ND","ND","ND","ND","ND","0"],
    [56034,"2016-09-26T13:00:00","11.9","ND","ND","ND","ND","0.8","ND","ND","ND","ND","ND","0"],
    [56035,"2016-09-26T14:00:00","4.9","ND","ND","ND","ND","1.1","ND","ND","ND","ND","ND","0"],
    [56036,"2016-09-26T15:00:00","ND","ND","ND","ND","ND","0.9","ND","ND","ND","ND","ND","0"],
    [56037,"2016-09-26T16:00:00","19.5","ND","ND","ND","ND","1.4","ND","ND","ND","ND","ND","0"],
    [56038,"2016-09-26T17:00:00","22.8","ND","ND","ND","ND","1.1","ND","ND","ND","ND","ND","0"],
    [56039,"2016-09-26T18:00:00","2.3","ND","ND","ND","ND","0.9","ND","ND","ND","ND","ND","0"],
    [56040,"2016-09-26T19:00:00","1.8","ND","ND","ND","ND","1.0","ND","ND","ND","ND","ND","0"],
    [56041,"2016-09-26T20:00:00","7.3","ND","ND","ND","ND","2.2","ND","ND","ND","ND","ND","0"],
    [56042,"2016-09-26T21:00:00","21.1","ND","ND","ND","ND","2.3","ND","ND","ND","ND","ND","0"],
    [56043,"2016-09-26T22:00:00","26.9","ND","ND","ND","ND","4.3","ND","ND","ND","ND","ND","0"],
    [56044,"2016-09-26T23:00:00","28.8","ND","ND","ND","ND","2.8","ND","ND","ND","ND","ND","0"],
    [56045,"2016-09-27T00:00:00","23.3","ND","ND","ND","ND","3.1","ND","ND","ND","ND","ND","0"],
    [56046,"2016-09-27T01:00:00","11.2","ND","ND","ND","ND","3.0","ND","ND","ND","ND","ND","0"],
    [56047,"2016-09-27T02:00:00","17.7","ND","ND","ND","ND","2.8","ND","ND","ND","ND","ND","0"],
    [56048,"2016-09-27T03:00:00","19.3","ND","ND","ND","ND","3.5","ND","ND","ND","ND","ND","0"],
    [56049,"2016-09-27T04:00:00","14.5","ND","ND","ND","ND","4.2","ND","ND","ND","ND","ND","0"],
    [56050,"2016-09-27T05:00:00","17.3","ND","ND","ND","ND","3.9","ND","ND","ND","ND","ND","0"],
    [56051,"2016-09-27T06:00:00","23.4","ND","ND","ND","ND","6.1","ND","ND","ND","ND","ND","0"],
    [56052,"2016-09-27T07:00:00","34.5","ND","ND","ND","ND","5.5","ND","ND","ND","ND","ND","0"],
    [56053,"2016-09-27T08:00:00","46.6","ND","ND","ND","ND","4.3","ND","ND","ND","ND","ND","0"],
    [56054,"2016-09-27T09:00:00","36.7","ND","ND","ND","ND","2.8","ND","ND","ND","ND","ND","0"],
    [56055,"2016-09-27T10:00:00","17.6","ND","ND","ND","ND","2.8","ND","ND","ND","ND","ND","0"],
    [56056,"2016-09-27T11:00:00","19.2","ND","ND","ND","ND","1.7","ND","ND","ND","ND","ND","0"],
    [56057,"2016-09-27T12:00:00","21.2","ND","ND","ND","ND","1.5","ND","ND","ND","ND","ND","0"],
    [56058,"2016-09-27T13:00:00","16.1","ND","ND","ND","ND","1.4","ND","ND","ND","ND","ND","0"],
    [56059,"2016-09-27T14:00:00","19.3","ND","ND","ND","ND","1.2","ND","ND","ND","ND","ND","0"],
    [56060,"2016-09-27T15:00:00","9.7","ND","ND","ND","ND","1.1","ND","ND","ND","ND","ND","0"],
    [56061,"2016-09-27T16:00:00","ND","ND","ND","ND","ND","1.2","ND","ND","ND","ND","ND","0"],
    [56062,"2016-09-27T17:00:00","ND","ND","ND","ND","ND","0.7","ND","ND","ND","ND","ND","0"],
    [56063,"2016-09-27T18:00:00","ND","ND","ND","ND","ND","0.3","ND","ND","ND","ND","ND","0"],
    [56064,"2016-09-27T19:00:00","ND","ND","ND","ND","ND","0.8","ND","ND","ND","ND","ND","0"],
    [56065,"2016-09-27T20:00:00","ND","ND","ND","ND","ND","1.1","ND","ND","ND","ND","ND","0"],
    [56066,"2016-09-27T21:00:00","30.1","ND","ND","ND","ND","3.2","ND","ND","ND","ND","ND","0"],
    [56067,"2016-09-27T22:00:00","43.9","ND","ND","ND","ND","3.2","ND","ND","ND","ND","ND","0"],
    [56068,"2016-09-27T23:00:00","37.8","ND","ND","ND","ND","4.4","ND","ND","ND","ND","ND","0"],
    [56069,"2016-09-28T00:00:00","21.9","ND","ND","ND","ND","7.0","ND","ND","ND","ND","ND","0"],
    [56070,"2016-09-28T01:00:00","10.5","ND","ND","ND","ND","3.8","ND","ND","ND","ND","ND","0"],
    [56071,"2016-09-28T02:00:00","2.3","ND","ND","ND","ND","7.5","ND","ND","ND","ND","ND","0"],
    [56072,"2016-09-28T03:00:00","11.8","ND","ND","ND","ND","5.9","ND","ND","ND","ND","ND","0"],
    [56073,"2016-09-28T04:00:00","25","ND","ND","ND","ND","4.4","ND","ND","ND","ND","ND","0"],
    [56074,"2016-09-28T05:00:00","17.3","ND","ND","ND","ND","3.2","ND","ND","ND","ND","ND","0"],
    [56075,"2016-09-28T06:00:00","19.7","ND","ND","ND","ND","5.9","ND","ND","ND","ND","ND","0"],
    [56076,"2016-09-28T07:00:00","33.9","ND","ND","ND","ND","4.8","ND","ND","ND","ND","ND","0"],
    [56077,"2016-09-28T08:00:00","46","ND","ND","ND","ND","6.7","ND","ND","ND","ND","ND","0"],
    [56078,"2016-09-28T09:00:00","38.1","ND","ND","ND","ND","8.0","ND","ND","ND","ND","ND","0"],
    [56079,"2016-09-28T10:00:00","36","ND","ND","ND","ND","3.2","ND","ND","ND","ND","ND","0"],
    [56080,"2016-09-28T11:00:00","21.4","ND","ND","ND","ND","1.3","ND","ND","ND","ND","ND","0"],
    [56081,"2016-09-28T12:00:00","18.4","ND","ND","ND","ND","1.1","ND","ND","ND","ND","ND","0"],
    [56082,"2016-09-28T13:00:00","18.8","ND","ND","ND","ND","1.1","ND","ND","ND","ND","ND","0"],
    [56083,"2016-09-28T14:00:00","15.9","ND","ND","ND","ND","1.0","ND","ND","ND","ND","ND","0"],
    [56084,"2016-09-28T15:00:00","18.8","ND","ND","ND","ND","0.9","ND","ND","ND","ND","ND","0"],
    [56085,"2016-09-28T16:00:00","ND","ND","ND","ND","ND","0.5","ND","ND","ND","ND","ND","0"],
    [56086,"2016-09-28T17:00:00","ND","ND","ND","ND","ND","0.9","ND","ND","ND","ND","ND","0"],
    [56087,"2016-09-28T18:00:00","ND","ND","ND","ND","ND","1.5","ND","ND","ND","ND","ND","0"],
    [56088,"2016-09-28T19:00:00","ND","ND","ND","ND","ND","1.7","ND","ND","ND","ND","ND","0"],
    [56089,"2016-09-28T20:00:00","11.5","ND","ND","ND","ND","1.0","ND","ND","ND","ND","ND","0"],
    [56090,"2016-09-28T21:00:00","26.5","ND","ND","ND","ND","2.8","ND","ND","ND","ND","ND","0"],
    [56091,"2016-09-28T22:00:00","37.3","ND","ND","ND","ND","3.6","ND","ND","ND","ND","ND","0"],
    [56092,"2016-09-28T23:00:00","43.7","ND","ND","ND","ND","4.2","ND","ND","ND","ND","ND","0"],
    [56093,"2016-09-29T00:00:00","29.2","ND","ND","ND","ND","4.5","ND","ND","ND","ND","ND","0"],
    [56094,"2016-09-29T01:00:00","9.7","ND","ND","ND","ND","5.7","ND","ND","ND","ND","ND","0"],
    [56095,"2016-09-29T02:00:00","6.3","ND","ND","ND","ND","3.2","ND","ND","ND","ND","ND","0"],
    [56096,"2016-09-29T03:00:00","10.5","ND","ND","ND","ND","3.3","ND","ND","ND","ND","ND","0"],
    [56097,"2016-09-29T04:00:00","15.1","ND","ND","ND","ND","3.1","ND","ND","ND","ND","ND","0"],
    [56098,"2016-09-29T05:00:00","18.4","ND","ND","ND","ND","3.2","ND","ND","ND","ND","ND","0"],
    [56099,"2016-09-29T06:00:00","20.2","ND","ND","ND","ND","3.5","ND","ND","ND","ND","ND","0"],
    [56100,"2016-09-29T07:00:00","26.8","ND","ND","ND","ND","3.3","ND","ND","ND","ND","ND","0"],
    [56101,"2016-09-29T08:00:00","32.6","ND","ND","ND","ND","2.9","ND","ND","ND","ND","ND","0"],
    [56102,"2016-09-29T09:00:00","30.7","ND","ND","ND","ND","4.5","ND","ND","ND","ND","ND","0"],
    [56103,"2016-09-29T10:00:00","24.1","ND","ND","ND","ND","2.4","ND","ND","ND","ND","ND","0"],
    [56104,"2016-09-29T11:00:00","20.2","ND","ND","ND","ND","1.4","ND","ND","ND","ND","ND","0"],
    [56105,"2016-09-29T12:00:00","14.9","ND","ND","ND","ND","1.3","ND","ND","ND","ND","ND","0"],
    [56106,"2016-09-29T13:00:00","14.5","ND","ND","ND","ND","1.2","ND","ND","ND","ND","ND","0"],
    [56107,"2016-09-29T14:00:00","7","ND","ND","ND","ND","0.8","ND","ND","ND","ND","ND","0.76"],
    [56108,"2016-09-29T15:00:00","28.1","ND","ND","ND","ND","0.9","ND","ND","ND","ND","ND","0.25"],
    [56109,"2016-09-29T16:00:00","1.6","ND","ND","ND","ND","0.9","ND","ND","ND","ND","ND","0"],
    [56110,"2016-09-29T17:00:00","4.6","ND","ND","ND","ND","1.9","ND","ND","ND","ND","ND","0"],
    [56111,"2016-09-29T18:00:00","37.8","ND","ND","ND","ND","1.9","ND","ND","ND","ND","ND","0"],
    [56112,"2016-09-29T19:00:00","29.5","ND","ND","ND","ND","0.9","ND","ND","ND","ND","ND","0"],
    [56113,"2016-09-29T20:00:00","12.7","ND","ND","ND","ND","1.3","ND","ND","ND","ND","ND","0"],
    [56114,"2016-09-29T21:00:00","13.6","ND","ND","ND","ND","3.2","ND","ND","ND","ND","ND","0"],
    [56115,"2016-09-29T22:00:00","26.4","ND","ND","ND","ND","4.9","ND","ND","ND","ND","ND","0"],
    [56116,"2016-09-29T23:00:00","21","ND","ND","ND","ND","5.9","ND","ND","ND","ND","ND","0"],
    [56117,"2016-09-30T00:00:00","46.2","ND","ND","ND","ND","6.5","ND","ND","ND","ND","ND","0"],
    [56118,"2016-09-30T01:00:00","65","ND","ND","ND","ND","16.1","ND","ND","ND","ND","ND","0"],
    [56119,"2016-09-30T02:00:00","32.4","ND","ND","ND","ND","13.3","ND","ND","ND","ND","ND","0"],
    [56120,"2016-09-30T03:00:00","23.7","ND","ND","ND","ND","8.7","ND","ND","ND","ND","ND","0"],
    [56121,"2016-09-30T04:00:00","25.1","ND","ND","ND","ND","10.8","ND","ND","ND","ND","ND","0"],
    [56122,"2016-09-30T05:00:00","32.6","ND","ND","ND","ND","13.3","ND","ND","ND","ND","ND","0"],
    [56123,"2016-09-30T06:00:00","36.5","ND","ND","ND","ND","16.3","ND","ND","ND","ND","ND","0"],
    [56124,"2016-09-30T07:00:00","37","ND","ND","ND","ND","7.7","ND","ND","ND","ND","ND","0"],
    [56125,"2016-09-30T08:00:00","39.4","ND","ND","ND","ND","5.9","ND","ND","ND","ND","ND","0"],
    [56126,"2016-09-30T09:00:00","36.2","ND","ND","ND","ND","3.1","ND","ND","ND","ND","ND","0"],
    [56127,"2016-09-30T10:00:00","24.1","ND","ND","ND","ND","2.5","ND","ND","ND","ND","ND","0"],
    [56128,"2016-09-30T11:00:00","23.7","ND","ND","ND","ND","2.1","ND","ND","ND","ND","ND","0"],
    [56129,"2016-09-30T12:00:00","26.9","ND","ND","ND","ND","2.1","ND","ND","ND","ND","ND","0"],
    [56130,"2016-09-30T13:00:00","25.3","ND","ND","ND","ND","1.1","ND","ND","ND","ND","ND","0"],
    [56131,"2016-09-30T14:00:00","ND","ND","ND","ND","ND","0.9","ND","ND","ND","ND","ND","0"],
    [56132,"2016-09-30T15:00:00","ND","ND","ND","ND","ND","1.2","ND","ND","ND","ND","ND","0"],
    [56133,"2016-09-30T16:00:00","ND","ND","ND","ND","ND","0.6","ND","ND","ND","ND","ND","0"],
    [56134,"2016-09-30T17:00:00","ND","ND","ND","ND","ND","1.3","ND","ND","ND","ND","ND","0"],
    [56135,"2016-09-30T18:00:00","57.5","ND","ND","ND","ND","1.5","ND","ND","ND","ND","ND","3.05"],
    [56136,"2016-09-30T19:00:00","80.6","ND","ND","ND","ND","1.1","ND","ND","ND","ND","ND","2.29"],
    [56137,"2016-09-30T20:00:00","75.7","ND","ND","ND","ND","4.7","ND","ND","ND","ND","ND","0.25"],
    [56138,"2016-09-30T21:00:00","35.9","ND","ND","ND","ND","4.1","ND","ND","ND","ND","ND","0.25"],
    [56139,"2016-09-30T22:00:00","18.5","ND","ND","ND","ND","4.5","ND","ND","ND","ND","ND","0.51"],
    [56140,"2016-09-30T23:00:00","31.5","ND","ND","ND","ND","3.6","ND","ND","ND","ND","ND","1.78"],
    [56141,"2016-10-01T00:00:00","30.8","ND","ND","ND","ND","2.0","ND","ND","ND","ND","ND","4.32"],
    [56142,"2016-10-01T01:00:00","12.6","ND","ND","ND","ND","1.7","ND","ND","ND","ND","ND","7.37"],
    [56143,"2016-10-01T02:00:00","ND","ND","ND","ND","ND","1.8","ND","ND","ND","ND","ND","6.1"],
    [56144,"2016-10-01T03:00:00","ND","ND","ND","ND","ND","2.2","ND","ND","ND","ND","ND","2.03"],
    [56145,"2016-10-01T04:00:00","ND","ND","ND","ND","ND","1.7","ND","ND","ND","ND","ND","1.02"],
    [56146,"2016-10-01T05:00:00","ND","ND","ND","ND","ND","1.2","ND","ND","ND","ND","ND","7.11"],
    [56147,"2016-10-01T06:00:00","8","ND","ND","ND","ND","1.7","ND","ND","ND","ND","ND","7.62"],
    [56148,"2016-10-01T07:00:00","9.1","ND","ND","ND","ND","1.2","ND","ND","ND","ND","ND","2.29"],
    [56149,"2016-10-01T08:00:00","12.3","ND","ND","ND","ND","0.8","ND","ND","ND","ND","ND","0.51"],
    [56150,"2016-10-01T09:00:00","13.2","ND","ND","ND","ND","1.0","ND","ND","ND","ND","ND","0"],
    [56151,"2016-10-01T10:00:00","2.5","ND","ND","ND","ND","0.4","ND","ND","ND","ND","ND","0"],
    [56152,"2016-10-01T11:00:00","1.6","ND","ND","ND","ND","0.6","ND","ND","ND","ND","ND","0"],
    [56153,"2016-10-01T12:00:00","8","ND","ND","ND","ND","1.0","ND","ND","ND","ND","ND","0"],
    [56154,"2016-10-01T13:00:00","13.8","ND","ND","ND","ND","1.8","ND","ND","ND","ND","ND","0"],
    [56155,"2016-10-01T14:00:00","10.8","ND","ND","ND","ND","1.6","ND","ND","ND","ND","ND","19.05"],
    [56156,"2016-10-01T15:00:00","34.8","ND","ND","ND","ND","1.4","ND","ND","ND","ND","ND","0"],
    [56157,"2016-10-01T16:00:00","3.7","ND","ND","ND","ND","0.8","ND","ND","ND","ND","ND","0"],
    [56158,"2016-10-01T17:00:00","ND","ND","ND","ND","ND","1.0","ND","ND","ND","ND","ND","0"],
    [56159,"2016-10-01T18:00:00","ND","ND","ND","ND","ND","0.8","ND","ND","ND","ND","ND","0"],
    [56160,"2016-10-01T19:00:00","ND","ND","ND","ND","ND","1.2","ND","ND","ND","ND","ND","0"],
    [56161,"2016-10-01T20:00:00","12.6","ND","ND","ND","ND","2.5","ND","ND","ND","ND","ND","0"],
    [56162,"2016-10-01T21:00:00","34.9","ND","ND","ND","ND","6.6","ND","ND","ND","ND","ND","0"],
    [56163,"2016-10-01T22:00:00","31.4","ND","ND","ND","ND","2.0","ND","ND","ND","ND","ND","0"],
    [56164,"2016-10-01T23:00:00","29.4","ND","ND","ND","ND","2.9","ND","ND","ND","ND","ND","0"],
    [56165,"2016-10-02T00:00:00","26.7","ND","ND","ND","ND","2.6","ND","ND","ND","ND","ND","0"],
    [56166,"2016-10-02T01:00:00","21.3","ND","ND","ND","ND","2.0","ND","ND","ND","ND","ND","0"],
    [56167,"2016-10-02T02:00:00","4.5","ND","ND","ND","ND","1.8","ND","ND","ND","ND","ND","0"],
    [56168,"2016-10-02T03:00:00","9.4","ND","ND","ND","ND","1.9","ND","ND","ND","ND","ND","0"],
    [56169,"2016-10-02T04:00:00","8.5","ND","ND","ND","ND","1.7","ND","ND","ND","ND","ND","0"],
    [56170,"2016-10-02T05:00:00","11.7","ND","ND","ND","ND","3.5","ND","ND","ND","ND","ND","0"],
    [56171,"2016-10-02T06:00:00","13.7","ND","ND","ND","ND","2.1","ND","ND","ND","ND","ND","0"],
    [56172,"2016-10-02T07:00:00","7","ND","ND","ND","ND","2.7","ND","ND","ND","ND","ND","0"],
    [56173,"2016-10-02T08:00:00","11.9","ND","ND","ND","ND","2.2","ND","ND","ND","ND","ND","0"],
    [56174,"2016-10-02T09:00:00","12.5","ND","ND","ND","ND","1.3","ND","ND","ND","ND","ND","0"],
    [56175,"2016-10-02T10:00:00","2.2","ND","ND","ND","ND","1.3","ND","ND","ND","ND","ND","0"],
    [56176,"2016-10-02T11:00:00","2.4","ND","ND","ND","ND","1.1","ND","ND","ND","ND","ND","0"],
    [56177,"2016-10-02T12:00:00","8.7","ND","ND","ND","ND","1.3","ND","ND","ND","ND","ND","0"],
    [56178,"2016-10-02T13:00:00","5.1","ND","ND","ND","ND","1.2","ND","ND","ND","ND","ND","0"],
    [56179,"2016-10-02T14:00:00","9.5","ND","ND","ND","ND","1.1","ND","ND","ND","ND","ND","0"],
    [56180,"2016-10-02T15:00:00","16.3","ND","ND","ND","ND","1.5","ND","ND","ND","ND","ND","27.94"],
    [56181,"2016-10-02T16:00:00","4.2","ND","ND","ND","ND","1.2","ND","ND","ND","ND","ND","7.62"],
    [56182,"2016-10-02T17:00:00","22.2","ND","ND","ND","ND","0.9","ND","ND","ND","ND","ND","0.25"],
    [56183,"2016-10-02T18:00:00","9.2","ND","ND","ND","ND","1.0","ND","ND","ND","ND","ND","0"],
    [56184,"2016-10-02T19:00:00","0.3","ND","ND","ND","ND","0.9","ND","ND","ND","ND","ND","0"],
    [56185,"2016-10-02T20:00:00","16.1","ND","ND","ND","ND","1.5","ND","ND","ND","ND","ND","1.52"],
    [56186,"2016-10-02T21:00:00","17.7","ND","ND","ND","ND","1.3","ND","ND","ND","ND","ND","7.87"],
    [56187,"2016-10-02T22:00:00","18.5","ND","ND","ND","ND","2.1","ND","ND","ND","ND","ND","0"],
    [56188,"2016-10-02T23:00:00","11.4","ND","ND","ND","ND","2.6","ND","ND","ND","ND","ND","14.73"],
    [56189,"2016-10-03T00:00:00","8.2","ND","ND","ND","ND","0.8","ND","ND","ND","ND","ND","1.78"],
    [56190,"2016-10-03T01:00:00","1.3","ND","ND","ND","ND","1.0","ND","ND","ND","ND","ND","0.25"],
    [56191,"2016-10-03T02:00:00","5.4","ND","ND","ND","ND","1.3","ND","ND","ND","ND","ND","1.02"],
    [56192,"2016-10-03T03:00:00","7.3","ND","ND","ND","ND","1.6","ND","ND","ND","ND","ND","0.25"],
    [56193,"2016-10-03T04:00:00","10.8","ND","ND","ND","ND","1.4","ND","ND","ND","ND","ND","0"],
    [56194,"2016-10-03T05:00:00","11.2","ND","ND","ND","ND","1.1","ND","ND","ND","ND","ND","0"],
    [56195,"2016-10-03T06:00:00","9.8","ND","ND","ND","ND","2.5","ND","ND","ND","ND","ND","0"],
    [56196,"2016-10-03T07:00:00","10.7","ND","ND","ND","ND","2.4","ND","ND","ND","ND","ND","0.25"],
    [56197,"2016-10-03T08:00:00","21.2","ND","ND","ND","ND","2.1","ND","ND","ND","ND","ND","0"],
    [56198,"2016-10-03T09:00:00","23.8","ND","ND","ND","ND","6.3","ND","ND","ND","ND","ND","0"],
    [56199,"2016-10-03T10:00:00","27.7","ND","ND","ND","ND","2.4","ND","ND","ND","ND","ND","0"],
    [56200,"2016-10-03T11:00:00","10.4","ND","ND","ND","ND","1.4","ND","ND","ND","ND","ND","0"],
    [56201,"2016-10-03T12:00:00","9.4","ND","ND","ND","ND","0.4","ND","ND","ND","ND","ND","0"],
    [56202,"2016-10-03T13:00:00","ND","ND","ND","ND","ND","0.7","ND","ND","ND","ND","ND","0"],
    [56203,"2016-10-03T14:00:00","ND","ND","ND","ND","ND","0.9","ND","ND","ND","ND","ND","0"],
    [56204,"2016-10-03T15:00:00","12","ND","ND","ND","ND","1.1","ND","ND","ND","ND","ND","0"],
    [56205,"2016-10-03T16:00:00","13.5","ND","ND","ND","ND","1.0","ND","ND","ND","ND","ND","0"],
    [56206,"2016-10-03T17:00:00","1.2","ND","ND","ND","ND","0.8","ND","ND","ND","ND","ND","0"],
    [56207,"2016-10-03T18:00:00","ND","ND","ND","ND","ND","0.8","ND","ND","ND","ND","ND","0"],
    [56208,"2016-10-03T19:00:00","1.6","ND","ND","ND","ND","0.7","ND","ND","ND","ND","ND","0"],
    [56209,"2016-10-03T20:00:00","5.6","ND","ND","ND","ND","0.9","ND","ND","ND","ND","ND","0"],
    [56210,"2016-10-03T21:00:00","16","ND","ND","ND","ND","1.4","ND","ND","ND","ND","ND","0"],
    [56211,"2016-10-03T22:00:00","30.9","ND","ND","ND","ND","2.7","ND","ND","ND","ND","ND","0"],
    [56212,"2016-10-03T23:00:00","35.2","ND","ND","ND","ND","2.0","ND","ND","ND","ND","ND","0"],
    [56213,"2016-10-04T00:00:00","19.6","ND","ND","ND","ND","2.1","ND","ND","ND","ND","ND","0"],
    [56214,"2016-10-04T01:00:00","22.2","ND","ND","ND","ND","2.4","ND","ND","ND","ND","ND","7.37"],
    [56215,"2016-10-04T02:00:00","30.6","ND","ND","ND","ND","1.5","ND","ND","ND","ND","ND","10.67"],
    [56216,"2016-10-04T03:00:00","13.6","ND","ND","ND","ND","1.5","ND","ND","ND","ND","ND","3.56"],
    [56217,"2016-10-04T04:00:00","4","ND","ND","ND","ND","5.8","ND","ND","ND","ND","ND","1.27"],
    [56218,"2016-10-04T05:00:00","5.5","ND","ND","ND","ND","1.7","ND","ND","ND","ND","ND","0.25"],
    [56219,"2016-10-04T06:00:00","7","ND","ND","ND","ND","1.4","ND","ND","ND","ND","ND","1.02"],
    [56220,"2016-10-04T07:00:00","4.8","ND","ND","ND","ND","1.0","ND","ND","ND","ND","ND","0"],
    [56221,"2016-10-04T08:00:00","ND","ND","ND","ND","ND","0.3","ND","ND","ND","ND","ND","0"],
    [56222,"2016-10-04T09:00:00","ND","ND","ND","ND","ND","1.0","ND","ND","ND","ND","ND","0"],
    [56223,"2016-10-04T10:00:00","ND","ND","ND","ND","ND","2.9","ND","ND","ND","ND","ND","0"],
    [56224,"2016-10-04T11:00:00","21.4","ND","ND","ND","ND","1.8","ND","ND","ND","ND","ND","0"],
    [56225,"2016-10-04T12:00:00","17.6","ND","ND","ND","ND","1.7","ND","ND","ND","ND","ND","0"],
    [56226,"2016-10-04T13:00:00","10.4","ND","ND","ND","ND","0.7","ND","ND","ND","ND","ND","0"],
    [56227,"2016-10-04T14:00:00","18.2","ND","ND","ND","ND","0.9","ND","ND","ND","ND","ND","0"],
    [56228,"2016-10-04T15:00:00","15.9","ND","ND","ND","ND","0.6","ND","ND","ND","ND","ND","0"],
    [56229,"2016-10-04T16:00:00","ND","ND","ND","ND","ND","0.7","ND","ND","ND","ND","ND","0"],
    [56230,"2016-10-04T17:00:00","ND","ND","ND","ND","ND","1.0","ND","ND","ND","ND","ND","0"],
    [56231,"2016-10-04T18:00:00","ND","ND","ND","ND","ND","0.9","ND","ND","ND","ND","ND","0"],
    [56232,"2016-10-04T19:00:00","ND","ND","ND","ND","ND","0.8","ND","ND","ND","ND","ND","0"],
    [56233,"2016-10-04T20:00:00","13.8","ND","ND","ND","ND","0.8","ND","ND","ND","ND","ND","0"],
    [56234,"2016-10-04T21:00:00","40.7","ND","ND","ND","ND","1.2","ND","ND","ND","ND","ND","0"],
    [56235,"2016-10-04T22:00:00","42.3","ND","ND","ND","ND","4.3","ND","ND","ND","ND","ND","0"],
    [56236,"2016-10-04T23:00:00","30.8","ND","ND","ND","ND","3.4","ND","ND","ND","ND","ND","0"],
    [56237,"2016-10-05T00:00:00","28.9","ND","ND","ND","ND","1.7","ND","ND","ND","ND","ND","0"],
    [56238,"2016-10-05T01:00:00","15.6","ND","ND","ND","ND","1.9","ND","ND","ND","ND","ND","0"],
    [56239,"2016-10-05T02:00:00","1.7","ND","ND","ND","ND","2.5","ND","ND","ND","ND","ND","0"],
    [56240,"2016-10-05T03:00:00","8.3","ND","ND","ND","ND","1.9","ND","ND","ND","ND","ND","0"],
    [56241,"2016-10-05T04:00:00","11","ND","ND","ND","ND","1.2","ND","ND","ND","ND","ND","0"],
    [56242,"2016-10-05T05:00:00","18.2","ND","ND","ND","ND","0.6","ND","ND","ND","ND","ND","0"],
    [56243,"2016-10-05T06:00:00","24.4","ND","ND","ND","ND","0.9","ND","ND","ND","ND","ND","0"],
    [56244,"2016-10-05T07:00:00","25.3","ND","ND","ND","ND","1.8","ND","ND","ND","ND","ND","0"],
    [56245,"2016-10-05T08:00:00","47.3","ND","ND","ND","ND","2.3","ND","ND","ND","ND","ND","0"],
    [56246,"2016-10-05T09:00:00","49.4","ND","ND","ND","ND","2.1","ND","ND","ND","ND","ND","0"],
    [56247,"2016-10-05T10:00:00","25.1","ND","ND","ND","ND","1.4","ND","ND","ND","ND","ND","0"],
    [56248,"2016-10-05T11:00:00","4.7","ND","ND","ND","ND","0.9","ND","ND","ND","ND","ND","0"],
    [56249,"2016-10-05T12:00:00","1.2","ND","ND","ND","ND","1.6","ND","ND","ND","ND","ND","0"],
    [56250,"2016-10-05T13:00:00","19.8","ND","ND","ND","ND","2.5","ND","ND","ND","ND","ND","0"],
    [56251,"2016-10-05T14:00:00","23.4","ND","ND","ND","ND","1.2","ND","ND","ND","ND","ND","0"],
    [56252,"2016-10-05T15:00:00","9","ND","ND","ND","ND","0.8","ND","ND","ND","ND","ND","0"],
    [56253,"2016-10-05T16:00:00","15.2","ND","ND","ND","ND","0.8","ND","ND","ND","ND","ND","0"],
    [56254,"2016-10-05T17:00:00","3.1","ND","ND","ND","ND","0.7","ND","ND","ND","ND","ND","0"],
    [56255,"2016-10-05T18:00:00","ND","ND","ND","ND","ND","0.6","ND","ND","ND","ND","ND","0"],
    [56256,"2016-10-05T19:00:00","ND","ND","ND","ND","ND","1.4","ND","ND","ND","ND","ND","0"],
    [56257,"2016-10-05T20:00:00","5.4","ND","ND","ND","ND","1.9","ND","ND","ND","ND","ND","0"],
    [56258,"2016-10-05T21:00:00","27.8","ND","ND","ND","ND","1.7","ND","ND","ND","ND","ND","0"],
    [56259,"2016-10-05T22:00:00","46.2","ND","ND","ND","ND","4.2","ND","ND","ND","ND","ND","0"],
    [56260,"2016-10-05T23:00:00","38.3","ND","ND","ND","ND","2.5","ND","ND","ND","ND","ND","0"],
    [56261,"2016-10-06T00:00:00","21.2","ND","ND","ND","ND","2.8","ND","ND","ND","ND","ND","0"],
    [56262,"2016-10-06T01:00:00","18.7","ND","ND","ND","ND","3.2","ND","ND","ND","ND","ND","0"],
    [56263,"2016-10-06T02:00:00","11.4","ND","ND","ND","ND","2.8","ND","ND","ND","ND","ND","0"],
    [56264,"2016-10-06T03:00:00","16.5","ND","ND","ND","ND","3.5","ND","ND","ND","ND","ND","0"],
    [56265,"2016-10-06T04:00:00","13.8","ND","ND","ND","ND","2.0","ND","ND","ND","ND","ND","0"],
    [56266,"2016-10-06T05:00:00","12.5","ND","ND","ND","ND","2.1","ND","ND","ND","ND","ND","0"],
    [56267,"2016-10-06T06:00:00","10.4","ND","ND","ND","ND","1.8","ND","ND","ND","ND","ND","0"],
    [56268,"2016-10-06T07:00:00","11.7","ND","ND","ND","ND","2.1","ND","ND","ND","ND","ND","0"],
    [56269,"2016-10-06T08:00:00","25.3","ND","ND","ND","ND","2.7","ND","ND","ND","ND","ND","0"],
    [56270,"2016-10-06T09:00:00","29.9","ND","ND","ND","ND","2.3","ND","ND","ND","ND","ND","0"],
    [56271,"2016-10-06T10:00:00","21.1","ND","ND","ND","ND","1.3","ND","ND","ND","ND","ND","0"],
    [56272,"2016-10-06T11:00:00","9.4","ND","ND","ND","ND","1.5","ND","ND","ND","ND","ND","0"],
    [56273,"2016-10-06T12:00:00","11.9","ND","ND","ND","ND","1.1","ND","ND","ND","ND","ND","0"],
    [56274,"2016-10-06T13:00:00","4.7","ND","ND","ND","ND","1.1","ND","ND","ND","ND","ND","0"],
    [56275,"2016-10-06T14:00:00","7.9","ND","ND","ND","ND","0.9","ND","ND","ND","ND","ND","0"],
    [56276,"2016-10-06T15:00:00","ND","ND","ND","ND","ND","1.0","ND","ND","ND","ND","ND","0"],
    [56277,"2016-10-06T16:00:00","ND","ND","ND","ND","ND","0.9","ND","ND","ND","ND","ND","0"],
    [56278,"2016-10-06T17:00:00","ND","ND","ND","ND","ND","0.9","ND","ND","ND","ND","ND","0"],
    [56279,"2016-10-06T18:00:00","28","ND","ND","ND","ND","2.0","ND","ND","ND","ND","ND","0"],
    [56280,"2016-10-06T19:00:00","39.5","ND","ND","ND","ND","1.2","ND","ND","ND","ND","ND","3.3"],
    [56281,"2016-10-06T20:00:00","31.6","ND","ND","ND","ND","1.4","ND","ND","ND","ND","ND","0.51"],
    [56282,"2016-10-06T21:00:00","26.7","ND","ND","ND","ND","1.2","ND","ND","ND","ND","ND","0.25"],
    [56283,"2016-10-06T22:00:00","16.6","ND","ND","ND","ND","1.3","ND","ND","ND","ND","ND","0"],
    [56284,"2016-10-06T23:00:00","6.6","ND","ND","ND","ND","1.9","ND","ND","ND","ND","ND","0"],
    [56285,"2016-10-07T00:00:00","9.3","ND","ND","ND","ND","2.9","ND","ND","ND","ND","ND","0"],
    [56286,"2016-10-07T01:00:00","13","ND","ND","ND","ND","2.0","ND","ND","ND","ND","ND","0"],
    [56287,"2016-10-07T02:00:00","1.5","ND","ND","ND","ND","1.9","ND","ND","ND","ND","ND","0"],
    [56288,"2016-10-07T03:00:00","1.6","ND","ND","ND","ND","2.4","ND","ND","ND","ND","ND","0"],
    [56289,"2016-10-07T04:00:00","8.8","ND","ND","ND","ND","1.5","ND","ND","ND","ND","ND","0"],
    [56290,"2016-10-07T05:00:00","20.6","ND","ND","ND","ND","4.5","ND","ND","ND","ND","ND","0"],
    [56291,"2016-10-07T06:00:00","22.2","ND","ND","ND","ND","5.0","ND","ND","ND","ND","ND","0"],
    [56292,"2016-10-07T07:00:00","30.3","ND","ND","ND","ND","4.1","ND","ND","ND","ND","ND","0"],
    [56293,"2016-10-07T08:00:00","29.9","ND","ND","ND","ND","4.3","ND","ND","ND","ND","ND","0"],
    [56294,"2016-10-07T09:00:00","30.7","ND","ND","ND","ND","2.8","ND","ND","ND","ND","ND","0"],
    [56295,"2016-10-07T10:00:00","22.2","ND","ND","ND","ND","1.9","ND","ND","ND","ND","ND","0"],
    [56296,"2016-10-07T11:00:00","3.7","ND","ND","ND","ND","1.4","ND","ND","ND","ND","ND","0"],
    [56297,"2016-10-07T12:00:00","ND","ND","ND","ND","ND","1.1","ND","ND","ND","ND","ND","0"],
    [56298,"2016-10-07T13:00:00","8.2","ND","ND","ND","ND","1.6","ND","ND","ND","ND","ND","0"],
    [56299,"2016-10-07T14:00:00","9.7","ND","ND","ND","ND","1.5","ND","ND","ND","ND","ND","0"],
    [56300,"2016-10-07T15:00:00","9.3","ND","ND","ND","ND","1.4","ND","ND","ND","ND","ND","12.19"],
    [56301,"2016-10-07T16:00:00","9.6","ND","ND","ND","ND","1.1","ND","ND","ND","ND","ND","8.38"],
    [56302,"2016-10-07T17:00:00","38.6","ND","ND","ND","ND","1.0","ND","ND","ND","ND","ND","0.51"],
    [56303,"2016-10-07T18:00:00","17","ND","ND","ND","ND","1.8","ND","ND","ND","ND","ND","0"],
    [56304,"2016-10-07T19:00:00","11.6","ND","ND","ND","ND","0.8","ND","ND","ND","ND","ND","0"],
    [56305,"2016-10-07T20:00:00","11","ND","ND","ND","ND","0.9","ND","ND","ND","ND","ND","0"],
    [56306,"2016-10-07T21:00:00","11.6","ND","ND","ND","ND","1.1","ND","ND","ND","ND","ND","0"],
    [56307,"2016-10-07T22:00:00","25.2","ND","ND","ND","ND","1.5","ND","ND","ND","ND","ND","0"],
    [56308,"2016-10-07T23:00:00","18.7","ND","ND","ND","ND","2.7","ND","ND","ND","ND","ND","0"],
    [56309,"2016-10-08T00:00:00","4","ND","ND","ND","ND","1.9","ND","ND","ND","ND","ND","0"],
    [56310,"2016-10-08T01:00:00","2","ND","ND","ND","ND","2.1","ND","ND","ND","ND","ND","0"],
    [56311,"2016-10-08T02:00:00","16.9","ND","ND","ND","ND","3.1","ND","ND","ND","ND","ND","0"],
    [56312,"2016-10-08T03:00:00","30.5","ND","ND","ND","ND","2.9","ND","ND","ND","ND","ND","0"],
    [56313,"2016-10-08T04:00:00","31.2","ND","ND","ND","ND","10.9","ND","ND","ND","ND","ND","0"],
    [56314,"2016-10-08T05:00:00","28.6","ND","ND","ND","ND","11.6","ND","ND","ND","ND","ND","0"],
    [56315,"2016-10-08T06:00:00","22.7","ND","ND","ND","ND","6.0","ND","ND","ND","ND","ND","0"],
    [56316,"2016-10-08T07:00:00","19.5","ND","ND","ND","ND","2.2","ND","ND","ND","ND","ND","0"],
    [56317,"2016-10-08T08:00:00","15.8","ND","ND","ND","ND","1.1","ND","ND","ND","ND","ND","0"],
    [56318,"2016-10-08T09:00:00","22.8","ND","ND","ND","ND","1.8","ND","ND","ND","ND","ND","0"],
    [56319,"2016-10-08T10:00:00","26.1","ND","ND","ND","ND","0.8","ND","ND","ND","ND","ND","0"],
    [56320,"2016-10-08T11:00:00","10.7","ND","ND","ND","ND","1.5","ND","ND","ND","ND","ND","0"],
    [56321,"2016-10-08T12:00:00","0.2","ND","ND","ND","ND","0.9","ND","ND","ND","ND","ND","0"],
    [56322,"2016-10-08T13:00:00","7.6","ND","ND","ND","ND","1.6","ND","ND","ND","ND","ND","0"],
    [56323,"2016-10-08T14:00:00","19.7","ND","ND","ND","ND","2.3","ND","ND","ND","ND","ND","0"],
    [56324,"2016-10-08T15:00:00","11.5","ND","ND","ND","ND","2.2","ND","ND","ND","ND","ND","0"],
    [56325,"2016-10-08T16:00:00","3","ND","ND","ND","ND","1.4","ND","ND","ND","ND","ND","0"],
    [56326,"2016-10-08T17:00:00","ND","ND","ND","ND","ND","1.2","ND","ND","ND","ND","ND","0"],
    [56327,"2016-10-08T18:00:00","ND","ND","ND","ND","ND","0.5","ND","ND","ND","ND","ND","0"],
    [56328,"2016-10-08T19:00:00","8.8","ND","ND","ND","ND","0.8","ND","ND","ND","ND","ND","0"],
    [56329,"2016-10-08T20:00:00","37.5","ND","ND","ND","ND","0.9","ND","ND","ND","ND","ND","0"],
    [56330,"2016-10-08T21:00:00","28.8","ND","ND","ND","ND","2.6","ND","ND","ND","ND","ND","0"],
    [56331,"2016-10-08T22:00:00","18.6","ND","ND","ND","ND","0.9","ND","ND","ND","ND","ND","0"],
    [56332,"2016-10-08T23:00:00","14","ND","ND","ND","ND","1.5","ND","ND","ND","ND","ND","0"],
    [56333,"2016-10-09T00:00:00","9.6","ND","ND","ND","ND","2.7","ND","ND","ND","ND","ND","5.33"],
    [56334,"2016-10-09T01:00:00","9.9","ND","ND","ND","ND","1.9","ND","ND","ND","ND","ND","0.51"],
    [56335,"2016-10-09T02:00:00","ND","ND","ND","ND","ND","2.5","ND","ND","ND","ND","ND","0.51"],
    [56336,"2016-10-09T03:00:00","ND","ND","ND","ND","ND","2.2","ND","ND","ND","ND","ND","0"],
    [56337,"2016-10-09T04:00:00","2.6","ND","ND","ND","ND","1.5","ND","ND","ND","ND","ND","0"],
    [56338,"2016-10-09T05:00:00","10.6","ND","ND","ND","ND","2.4","ND","ND","ND","ND","ND","0"],
    [56339,"2016-10-09T06:00:00","10.5","ND","ND","ND","ND","1.6","ND","ND","ND","ND","ND","0.25"],
    [56340,"2016-10-09T07:00:00","ND","ND","ND","ND","ND","0.9","ND","ND","ND","ND","ND","0"],
    [56341,"2016-10-09T08:00:00","7.2","ND","ND","ND","ND","1.1","ND","ND","ND","ND","ND","0"],
    [56342,"2016-10-09T09:00:00","5.6","ND","ND","ND","ND","0.8","ND","ND","ND","ND","ND","0"],
    [56343,"2016-10-09T10:00:00","9.4","ND","ND","ND","ND","1.5","ND","ND","ND","ND","ND","0"],
    [56344,"2016-10-09T11:00:00","7.2","ND","ND","ND","ND","0.8","ND","ND","ND","ND","ND","0"],
    [56345,"2016-10-09T12:00:00","3.5","ND","ND","ND","ND","1.1","ND","ND","ND","ND","ND","0"],
    [56346,"2016-10-09T13:00:00","3.6","ND","ND","ND","ND","1.3","ND","ND","ND","ND","ND","0"],
    [56347,"2016-10-09T14:00:00","ND","ND","ND","ND","ND","1.3","ND","ND","ND","ND","ND","0"],
    [56348,"2016-10-09T15:00:00","1.3","ND","ND","ND","ND","1.0","ND","ND","ND","ND","ND","0.51"],
    [56349,"2016-10-09T16:00:00","18.6","ND","ND","ND","ND","1.4","ND","ND","ND","ND","ND","1.02"],
    [56350,"2016-10-09T17:00:00","21.3","ND","ND","ND","ND","1.0","ND","ND","ND","ND","ND","1.02"],
    [56351,"2016-10-09T18:00:00","13.8","ND","ND","ND","ND","0.8","ND","ND","ND","ND","ND","0.25"],
    [56352,"2016-10-09T19:00:00","8.7","ND","ND","ND","ND","1.4","ND","ND","ND","ND","ND","0"],
    [56353,"2016-10-09T20:00:00","7","ND","ND","ND","ND","0.5","ND","ND","ND","ND","ND","0"],
    [56354,"2016-10-09T21:00:00","10.5","ND","ND","ND","ND","0.8","ND","ND","ND","ND","ND","0.25"],
    [56355,"2016-10-09T22:00:00","13.9","ND","ND","ND","ND","3.3","ND","ND","ND","ND","ND","0"],
    [56356,"2016-10-09T23:00:00","11.9","ND","ND","ND","ND","4.6","ND","ND","ND","ND","ND","0"],
    [56357,"2016-10-10T00:00:00","12.4","ND","ND","ND","ND","3.1","ND","ND","ND","ND","ND","0"],
    [56358,"2016-10-10T01:00:00","8.1","ND","ND","ND","ND","1.9","ND","ND","ND","ND","ND","0"],
    [56359,"2016-10-10T02:00:00","10.8","ND","ND","ND","ND","2.4","ND","ND","ND","ND","ND","0"],
    [56360,"2016-10-10T03:00:00","11.9","ND","ND","ND","ND","2.7","ND","ND","ND","ND","ND","0"],
    [56361,"2016-10-10T04:00:00","18.4","ND","ND","ND","ND","2.6","ND","ND","ND","ND","ND","0"],
    [56362,"2016-10-10T05:00:00","17.5","ND","ND","ND","ND","2.2","ND","ND","ND","ND","ND","0"],
    [56363,"2016-10-10T06:00:00","15.4","ND","ND","ND","ND","2.2","ND","ND","ND","ND","ND","0"],
    [56364,"2016-10-10T07:00:00","17.1","ND","ND","ND","ND","3.3","ND","ND","ND","ND","ND","0"],
    [56365,"2016-10-10T08:00:00","36.8","ND","ND","ND","ND","3.9","ND","ND","ND","ND","ND","0"],
    [56366,"2016-10-10T09:00:00","46.1","ND","ND","ND","ND","3.1","ND","ND","ND","ND","ND","0"],
    [56367,"2016-10-10T10:00:00","30.9","ND","ND","ND","ND","2.4","ND","ND","ND","ND","ND","0"],
    [56368,"2016-10-10T11:00:00","17.5","ND","ND","ND","ND","1.7","ND","ND","ND","ND","ND","0"],
    [56369,"2016-10-10T12:00:00","11.2","ND","ND","ND","ND","1.2","ND","ND","ND","ND","ND","0"],
    [56370,"2016-10-10T13:00:00","12.8","ND","ND","ND","ND","1.0","ND","ND","ND","ND","ND","0"],
    [56371,"2016-10-10T14:00:00","14.3","ND","ND","ND","ND","1.4","ND","ND","ND","ND","ND","0"],
    [56372,"2016-10-10T15:00:00","14.9","ND","ND","ND","ND","0.8","ND","ND","ND","ND","ND","0"],
    [56373,"2016-10-10T16:00:00","13","ND","ND","ND","ND","1.2","ND","ND","ND","ND","ND","0"],
    [56374,"2016-10-10T17:00:00","4.3","ND","ND","ND","ND","1.6","ND","ND","ND","ND","ND","0"],
    [56375,"2016-10-10T18:00:00","3.4","ND","ND","ND","ND","1.6","ND","ND","ND","ND","ND","0"],
    [56376,"2016-10-10T19:00:00","11.9","ND","ND","ND","ND","1.1","ND","ND","ND","ND","ND","0"],
    [56377,"2016-10-10T20:00:00","25.5","ND","ND","ND","ND","1.0","ND","ND","ND","ND","ND","0"],
    [56378,"2016-10-10T21:00:00","18.8","ND","ND","ND","ND","1.3","ND","ND","ND","ND","ND","0"],
    [56379,"2016-10-10T22:00:00","20.5","ND","ND","ND","ND","2.4","ND","ND","ND","ND","ND","0"],
    [56380,"2016-10-10T23:00:00","23.5","ND","ND","ND","ND","1.6","ND","ND","ND","ND","ND","0"],
    [56381,"2016-10-11T00:00:00","17.7","ND","ND","ND","ND","1.2","ND","ND","ND","ND","ND","0"],
    [56382,"2016-10-11T01:00:00","9.1","ND","ND","ND","ND","1.0","ND","ND","ND","ND","ND","0"],
    [56383,"2016-10-11T02:00:00","8.6","ND","ND","ND","ND","1.3","ND","ND","ND","ND","ND","0"],
    [56384,"2016-10-11T03:00:00","18","ND","ND","ND","ND","1.6","ND","ND","ND","ND","ND","0"],
    [56385,"2016-10-11T04:00:00","36.8","ND","ND","ND","ND","1.8","ND","ND","ND","ND","ND","0"],
    [56386,"2016-10-11T05:00:00","33.5","ND","ND","ND","ND","1.3","ND","ND","ND","ND","ND","0"],
    [56387,"2016-10-11T06:00:00","34.2","ND","ND","ND","ND","1.2","ND","ND","ND","ND","ND","0"],
    [56388,"2016-10-11T07:00:00","35.5","ND","ND","ND","ND","2.4","ND","ND","ND","ND","ND","0"],
    [56389,"2016-10-11T08:00:00","41.5","ND","ND","ND","ND","2.9","ND","ND","ND","ND","ND","0"],
    [56390,"2016-10-11T09:00:00","43","ND","ND","ND","ND","3.0","ND","ND","ND","ND","ND","0"],
    [56391,"2016-10-11T10:00:00","36.2","ND","ND","ND","ND","2.6","ND","ND","ND","ND","ND","0"],
    [56392,"2016-10-11T11:00:00","16","ND","ND","ND","ND","2.4","ND","ND","ND","ND","ND","0.51"],
    [56393,"2016-10-11T12:00:00","20","ND","ND","ND","ND","1.7","ND","ND","ND","ND","ND","0.25"],
    [56394,"2016-10-11T13:00:00","25.5","ND","ND","ND","ND","1.4","ND","ND","ND","ND","ND","0.25"],
    [56395,"2016-10-11T14:00:00","0.5","ND","ND","ND","ND","1.7","ND","ND","ND","ND","ND","0"],
    [56396,"2016-10-11T15:00:00","0.1","ND","ND","ND","ND","1.7","ND","ND","ND","ND","ND","7.11"],
    [56397,"2016-10-11T16:00:00","19.6","ND","ND","ND","ND","1.5","ND","ND","ND","ND","ND","0.51"],
    [56398,"2016-10-11T17:00:00","19.4","ND","ND","ND","ND","1.2","ND","ND","ND","ND","ND","0.51"],
    [56399,"2016-10-11T18:00:00","6.8","ND","ND","ND","ND","1.6","ND","ND","ND","ND","ND","0.51"],
    [56400,"2016-10-11T19:00:00","13.6","ND","ND","ND","ND","1.1","ND","ND","ND","ND","ND","0.25"],
    [56401,"2016-10-11T20:00:00","17.8","ND","ND","ND","ND","1.2","ND","ND","ND","ND","ND","0"],
    [56402,"2016-10-11T21:00:00","16.7","ND","ND","ND","ND","1.1","ND","ND","ND","ND","ND","0.25"],
    [56403,"2016-10-11T22:00:00","20.2","ND","ND","ND","ND","1.4","ND","ND","ND","ND","ND","0"],
    [56404,"2016-10-11T23:00:00","16.6","ND","ND","ND","ND","1.1","ND","ND","ND","ND","ND","0"],
    [56405,"2016-10-12T00:00:00","12.2","ND","ND","ND","ND","0.9","ND","ND","ND","ND","ND","0"],
    [56406,"2016-10-12T01:00:00","ND","ND","ND","ND","ND","1.9","ND","ND","ND","ND","ND","0"],
    [56407,"2016-10-12T02:00:00","14","ND","ND","ND","ND","2.0","ND","ND","ND","ND","ND","0"],
    [56408,"2016-10-12T03:00:00","38.3","ND","ND","ND","ND","1.7","ND","ND","ND","ND","ND","0"],
    [56409,"2016-10-12T04:00:00","52.6","ND","ND","ND","ND","2.0","ND","ND","ND","ND","ND","0"],
    [56410,"2016-10-12T05:00:00","47.4","ND","ND","ND","ND","2.2","ND","ND","ND","ND","ND","0"],
    [56411,"2016-10-12T06:00:00","34.1","ND","ND","ND","ND","2.0","ND","ND","ND","ND","ND","0"],
    [56412,"2016-10-12T07:00:00","42.2","ND","ND","ND","ND","2.2","ND","ND","ND","ND","ND","0"],
    [56413,"2016-10-12T08:00:00","47.1","ND","ND","ND","ND","1.9","ND","ND","ND","ND","ND","0"],
    [56414,"2016-10-12T09:00:00","51.5","ND","ND","ND","ND","1.4","ND","ND","ND","ND","ND","0"],
    [56415,"2016-10-12T10:00:00","33.8","ND","ND","ND","ND","1.9","ND","ND","ND","ND","ND","0"],
    [56416,"2016-10-12T11:00:00","30.5","ND","ND","ND","ND","2.9","ND","ND","ND","ND","ND","0"],
    [56417,"2016-10-12T12:00:00","20.3","ND","ND","ND","ND","2.2","ND","ND","ND","ND","ND","0"],
    [56418,"2016-10-12T13:00:00","14.3","ND","ND","ND","ND","1.6","ND","ND","ND","ND","ND","0"],
    [56419,"2016-10-12T14:00:00","4.2","ND","ND","ND","ND","1.7","ND","ND","ND","ND","ND","0"],
    [56420,"2016-10-12T15:00:00","8.2","ND","ND","ND","ND","1.5","ND","ND","ND","ND","ND","0"],
    [56421,"2016-10-12T16:00:00","6.1","ND","ND","ND","ND","1.4","ND","ND","ND","ND","ND","0"],
    [56422,"2016-10-12T17:00:00","1.2","ND","ND","ND","ND","1.3","ND","ND","ND","ND","ND","0"],
    [56423,"2016-10-12T18:00:00","3.5","ND","ND","ND","ND","1.5","ND","ND","ND","ND","ND","0"],
    [56424,"2016-10-12T19:00:00","ND","ND","ND","ND","ND","1.2","ND","ND","ND","ND","ND","0"],
    [56425,"2016-10-12T20:00:00","5.7","ND","ND","ND","ND","0.6","ND","ND","ND","ND","ND","0"],
    [56426,"2016-10-12T21:00:00","32.6","ND","ND","ND","ND","0.6","ND","ND","ND","ND","ND","0"],
    [56427,"2016-10-12T22:00:00","45.9","ND","ND","ND","ND","1.3","ND","ND","ND","ND","ND","0"],
    [56428,"2016-10-12T23:00:00","26.1","ND","ND","ND","ND","1.3","ND","ND","ND","ND","ND","0"],
    [56429,"2016-10-13T00:00:00","21.2","ND","ND","ND","ND","1.2","ND","ND","ND","ND","ND","0"],
    [56430,"2016-10-13T01:00:00","24.7","ND","ND","ND","ND","0.9","ND","ND","ND","ND","ND","0"],
    [56431,"2016-10-13T02:00:00","ND","ND","ND","ND","ND","1.0","ND","ND","ND","ND","ND","0"],
    [56432,"2016-10-13T03:00:00","5.5","ND","ND","ND","ND","1.3","ND","ND","ND","ND","ND","0"],
    [56433,"2016-10-13T04:00:00","18.8","ND","ND","ND","ND","0.5","ND","ND","ND","ND","ND","0"],
    [56434,"2016-10-13T05:00:00","17.6","ND","ND","ND","ND","1.2","ND","ND","ND","ND","ND","0"],
    [56435,"2016-10-13T06:00:00","13","ND","ND","ND","ND","1.3","ND","ND","ND","ND","ND","0"],
    [56436,"2016-10-13T07:00:00","30.9","ND","ND","ND","ND","1.1","ND","ND","ND","ND","ND","0"],
    [56437,"2016-10-13T08:00:00","56.2","ND","ND","ND","ND","1.9","ND","ND","ND","ND","ND","0"],
    [56438,"2016-10-13T09:00:00","46.3","ND","ND","ND","ND","1.9","ND","ND","ND","ND","ND","0"],
    [56439,"2016-10-13T10:00:00","26.3","ND","ND","ND","ND","1.8","ND","ND","ND","ND","ND","0"],
    [56440,"2016-10-13T11:00:00","11.2","ND","ND","ND","36.1","1.6","ND","ND","ND","ND","ND","0"],
    [56441,"2016-10-13T12:00:00","3.1","ND","ND","ND","65.7","1.6","ND","ND","ND","ND","ND","0"],
    [56442,"2016-10-13T13:00:00","16.1","ND","ND","ND","80.9","1.1","ND","ND","ND","ND","ND","0"],
    [56443,"2016-10-13T14:00:00","15.9","ND","ND","ND","60.4","1.1","ND","ND","ND","ND","ND","0"],
    [56444,"2016-10-13T15:00:00","ND","ND","ND","ND","26.9","0.9","ND","ND","ND","ND","ND","0"],
    [56445,"2016-10-13T16:00:00","8.9","ND","ND","ND","10.5","1.7","ND","ND","ND","ND","ND","0"],
    [56446,"2016-10-13T17:00:00","4.9","ND","ND","ND","10.3","1.2","ND","ND","ND","ND","ND","0"],
    [56447,"2016-10-13T18:00:00","0.1","ND","ND","ND","6.1","1.4","ND","ND","ND","ND","ND","0"],
    [56448,"2016-10-13T19:00:00","9.6","ND","ND","ND","2.4","1.0","ND","ND","ND","ND","ND","0"],
    [56449,"2016-10-13T20:00:00","24.5","ND","ND","ND","3.4","1.2","ND","ND","ND","ND","ND","0"],
    [56450,"2016-10-13T21:00:00","20.8","ND","ND","ND","6.0","1.6","ND","ND","ND","ND","ND","0"],
    [56451,"2016-10-13T22:00:00","13.7","ND","ND","ND","2.9","1.7","ND","ND","ND","ND","ND","0"],
    [56452,"2016-10-13T23:00:00","24.6","ND","ND","ND","2.2","0.1","ND","ND","ND","ND","ND","0"],
    [56453,"2016-10-14T00:00:00","36.3","ND","ND","ND","3.6","0.8","ND","ND","ND","ND","ND","0"],
    [56454,"2016-10-14T01:00:00","43.5","ND","ND","ND","3.2","3.5","ND","ND","ND","ND","ND","0"],
    [56455,"2016-10-14T02:00:00","39.6","ND","ND","ND","4.6","3.1","ND","ND","ND","ND","ND","0"],
    [56456,"2016-10-14T03:00:00","17.6","ND","ND","ND","9.6","1.4","ND","ND","ND","ND","ND","0"],
    [56457,"2016-10-14T04:00:00","6.3","ND","ND","ND","17.2","0.3","ND","ND","ND","ND","ND","0"],
    [56458,"2016-10-14T05:00:00","ND","ND","ND","ND","13.8","0.2","ND","ND","ND","ND","ND","0"],
    [56459,"2016-10-14T06:00:00","11.7","ND","ND","ND","3.1","0.5","ND","ND","ND","ND","ND","0"],
    [56460,"2016-10-14T07:00:00","23.7","ND","ND","ND","2.6","2.0","ND","ND","ND","ND","ND","0"],
    [56461,"2016-10-14T08:00:00","27.3","ND","ND","ND","5.3","2.3","ND","ND","ND","ND","ND","0"],
    [56462,"2016-10-14T09:00:00","32.9","ND","ND","ND","7.6","3.1","ND","ND","ND","ND","ND","0"],
    [56463,"2016-10-14T10:00:00","21.3","ND","ND","ND","16.9","2.4","ND","ND","ND","ND","ND","0"],
    [56464,"2016-10-14T11:00:00","17.8","ND","ND","ND","31.8","2.2","ND","ND","ND","ND","ND","0"],
    [56465,"2016-10-14T12:00:00","13.3","ND","ND","ND","43.5","1.5","ND","ND","ND","ND","ND","0"],
    [56466,"2016-10-14T13:00:00","16.2","ND","ND","ND","66.4","1.4","ND","ND","ND","ND","ND","0"],
    [56467,"2016-10-14T14:00:00","21.3","ND","ND","ND","86.2","1.2","ND","ND","ND","ND","ND","0"],
    [56468,"2016-10-14T15:00:00","24.9","ND","ND","ND","79.4","1.6","ND","ND","ND","ND","ND","0"],
    [56469,"2016-10-14T16:00:00","28.9","ND","ND","ND","72.2","1.6","ND","ND","ND","ND","ND","0"],
    [56470,"2016-10-14T17:00:00","10.3","ND","ND","ND","43.9","1.7","ND","ND","ND","ND","ND","0"],
    [56471,"2016-10-14T18:00:00","ND","ND","ND","ND","10.0","1.1","ND","ND","ND","ND","ND","0"],
    [56472,"2016-10-14T19:00:00","5.1","ND","ND","ND","6.6","0.9","ND","ND","ND","ND","ND","0"],
    [56473,"2016-10-14T20:00:00","56.2","ND","ND","ND","2.0","0.9","ND","ND","ND","ND","ND","0"],
    [56474,"2016-10-14T21:00:00","51.3","ND","ND","ND","1.1","0.8","ND","ND","ND","ND","ND","0"],
    [56475,"2016-10-14T22:00:00","63.2","ND","ND","ND","1.2","1.4","ND","ND","ND","ND","ND","0"],
    [56476,"2016-10-14T23:00:00","55.6","ND","ND","ND","1.0","1.0","ND","ND","ND","ND","ND","0"],
    [56477,"2016-10-15T00:00:00","29.9","ND","ND","ND","0.8","1.6","ND","ND","ND","ND","ND","0"],
    [56478,"2016-10-15T01:00:00","14.2","ND","ND","ND","1.0","1.7","ND","ND","ND","ND","ND","0"],
    [56479,"2016-10-15T02:00:00","7.5","ND","ND","ND","0.7","1.6","ND","ND","ND","ND","ND","0"],
    [56480,"2016-10-15T03:00:00","20.3","ND","ND","ND","0.7","1.1","ND","ND","ND","ND","ND","0"],
    [56481,"2016-10-15T04:00:00","20.6","ND","ND","ND","0.6","1.4","ND","ND","ND","ND","ND","0"],
    [56482,"2016-10-15T05:00:00","19.2","ND","ND","ND","0.9","1.0","ND","ND","ND","ND","ND","0"],
    [56483,"2016-10-15T06:00:00","24.9","ND","ND","ND","0.8","1.6","ND","ND","ND","ND","ND","0"],
    [56484,"2016-10-15T07:00:00","28.1","ND","ND","ND","1.0","1.4","ND","ND","ND","ND","ND","0"],
    [56485,"2016-10-15T08:00:00","44.9","ND","ND","ND","1.3","1.5","ND","ND","ND","ND","ND","0"],
    [56486,"2016-10-15T09:00:00","47.2","ND","ND","ND","2.8","1.8","ND","ND","ND","ND","ND","0"],
    [56487,"2016-10-15T10:00:00","46.3","ND","ND","ND","10.9","1.4","ND","ND","ND","ND","ND","0"],
    [56488,"2016-10-15T11:00:00","39.8","ND","ND","ND","29.1","1.3","ND","ND","ND","ND","ND","0"],
    [56489,"2016-10-15T12:00:00","2.2","ND","ND","ND","24.9","1.6","ND","ND","ND","ND","ND","0"],
    [56490,"2016-10-15T13:00:00","ND","ND","ND","ND","32.4","0.8","ND","ND","ND","ND","ND","0"],
    [56491,"2016-10-15T14:00:00","0.9","ND","ND","ND","29.5","1.0","ND","ND","ND","ND","ND","0"],
    [56492,"2016-10-15T15:00:00","9.1","ND","ND","ND","27.2","0.7","ND","ND","ND","ND","ND","0"],
    [56493,"2016-10-15T16:00:00","2.5","ND","ND","ND","21.4","0.9","ND","ND","ND","ND","ND","0"],
    [56494,"2016-10-15T17:00:00","ND","ND","ND","ND","18.7","1.5","ND","ND","ND","ND","ND","0"],
    [56495,"2016-10-15T18:00:00","ND","ND","ND","ND","16.6","0.9","ND","ND","ND","ND","ND","0"],
    [56496,"2016-10-15T19:00:00","22.9","ND","ND","ND","7.9","1.2","ND","ND","ND","ND","ND","0"],
    [56497,"2016-10-15T20:00:00","25.7","ND","ND","ND","10.7","1.4","ND","ND","ND","ND","ND","0"],
    [56498,"2016-10-15T21:00:00","26.2","ND","ND","ND","2.7","3.5","ND","ND","ND","ND","ND","0"],
    [56499,"2016-10-15T22:00:00","32","ND","ND","ND","0.8","3.9","ND","ND","ND","ND","ND","0"],
    [56500,"2016-10-15T23:00:00","34.6","ND","ND","ND","0.6","2.2","ND","ND","ND","ND","ND","0"],
    [56501,"2016-10-16T00:00:00","30.7","ND","ND","ND","0.8","2.2","ND","ND","ND","ND","ND","0"],
    [56502,"2016-10-16T01:00:00","14.9","ND","ND","ND","0.8","2.0","ND","ND","ND","ND","ND","0"],
    [56503,"2016-10-16T02:00:00","ND","ND","ND","ND","0.7","1.0","ND","ND","ND","ND","ND","0"],
    [56504,"2016-10-16T03:00:00","11.1","ND","ND","ND","0.5","1.4","ND","ND","ND","ND","ND","0"],
    [56505,"2016-10-16T04:00:00","6.8","ND","ND","ND","0.7","1.9","ND","ND","ND","ND","ND","0.25"],
    [56506,"2016-10-16T05:00:00","8","ND","ND","ND","1.0","2.5","ND","ND","ND","ND","ND","0"],
    [56507,"2016-10-16T06:00:00","15.3","ND","ND","ND","4.3","2.5","ND","ND","ND","ND","ND","0.25"],
    [56508,"2016-10-16T07:00:00","17.8","ND","ND","ND","4.9","2.0","ND","ND","ND","ND","ND","0"],
    [56509,"2016-10-16T08:00:00","28.1","ND","ND","ND","10.3","2.2","ND","ND","ND","ND","ND","0.25"],
    [56510,"2016-10-16T09:00:00","23.4","ND","ND","ND","24.1","1.3","ND","ND","ND","ND","ND","0"],
    [56511,"2016-10-16T10:00:00","19","ND","ND","ND","39.8","1.2","ND","ND","ND","ND","ND","0.25"],
    [56512,"2016-10-16T11:00:00","10.3","ND","ND","ND","46.9","0.7","ND","ND","ND","ND","ND","0"],
    [56513,"2016-10-16T12:00:00","19.7","ND","ND","ND","56.2","1.3","ND","ND","ND","ND","ND","0"],
    [56514,"2016-10-16T13:00:00","16.1","ND","ND","ND","71.0","1.1","ND","ND","ND","ND","ND","0"],
    [56515,"2016-10-16T14:00:00","9.7","ND","ND","ND","72.1","1.1","ND","ND","ND","ND","ND","0"],
    [56516,"2016-10-16T15:00:00","7.8","ND","ND","ND","68.2","1.2","ND","ND","ND","ND","ND","0"],
    [56517,"2016-10-16T16:00:00","5.3","ND","ND","ND","43.1","1.4","ND","ND","ND","ND","ND","1.02"],
    [56518,"2016-10-16T17:00:00","ND","ND","ND","ND","19.1","1.2","ND","ND","ND","ND","ND","1.52"],
    [56519,"2016-10-16T18:00:00","31.8","ND","ND","ND","7.3","0.8","ND","ND","ND","ND","ND","0"],
    [56520,"2016-10-16T19:00:00","18.1","ND","ND","ND","1.6","1.3","ND","ND","ND","ND","ND","0.25"],
    [56521,"2016-10-16T20:00:00","8.2","ND","ND","ND","1.0","1.1","ND","ND","ND","ND","ND","0.25"],
    [56522,"2016-10-16T21:00:00","1.7","ND","ND","ND","1.0","0.7","ND","ND","ND","ND","ND","0.51"],
    [56523,"2016-10-16T22:00:00","13","ND","ND","ND","1.2","1.0","ND","ND","ND","ND","ND","0"],
    [56524,"2016-10-16T23:00:00","25","ND","ND","ND","0.9","0.7","ND","ND","ND","ND","ND","0.25"],
    [56525,"2016-10-17T00:00:00","16.6","ND","ND","ND","0.9","1.2","ND","ND","ND","ND","ND","0.25"],
    [56526,"2016-10-17T01:00:00","14.8","ND","ND","ND","0.9","1.2","ND","ND","ND","ND","ND","0"],
    [56527,"2016-10-17T02:00:00","14","ND","ND","ND","0.8","0.7","ND","ND","ND","ND","ND","0"],
    [56528,"2016-10-17T03:00:00","12.9","ND","ND","ND","0.8","0.7","ND","ND","ND","ND","ND","0"],
    [56529,"2016-10-17T04:00:00","10.6","ND","ND","ND","0.8","1.5","ND","ND","ND","ND","ND","0"],
    [56530,"2016-10-17T05:00:00","16","ND","ND","ND","0.8","1.7","ND","ND","ND","ND","ND","0"],
    [56531,"2016-10-17T06:00:00","9.8","ND","ND","ND","0.9","2.4","ND","ND","ND","ND","ND","0"],
    [56532,"2016-10-17T07:00:00","7.6","ND","ND","ND","0.7","1.7","ND","ND","ND","ND","ND","0"],
    [56533,"2016-10-17T08:00:00","20.8","ND","ND","ND","2.0","1.8","ND","ND","ND","ND","ND","0"],
    [56534,"2016-10-17T09:00:00","16.8","ND","ND","ND","10.3","1.7","ND","ND","ND","ND","ND","0"],
    [56535,"2016-10-17T10:00:00","17","ND","ND","ND","17.9","1.8","ND","ND","ND","ND","ND","0"],
    [56536,"2016-10-17T11:00:00","16.6","ND","ND","ND","32.8","1.7","ND","ND","ND","ND","ND","0"],
    [56537,"2016-10-17T12:00:00","4.3","ND","ND","ND","49.9","0.6","ND","ND","ND","ND","ND","0.25"],
    [56538,"2016-10-17T13:00:00","12","ND","ND","ND","55.5","1.4","ND","ND","ND","ND","ND","0.25"],
    [56539,"2016-10-17T14:00:00","12.1","ND","ND","ND","65.3","1.0","ND","ND","ND","ND","ND","0"],
    [56540,"2016-10-17T15:00:00","ND","ND","ND","ND","33.8","1.2","ND","ND","ND","ND","ND","0"],
    [56541,"2016-10-17T16:00:00","ND","ND","ND","ND","15.5","1.1","ND","ND","ND","ND","ND","0"],
    [56542,"2016-10-17T17:00:00","1.6","ND","ND","ND","14.8","1.4","ND","ND","ND","ND","ND","0"],
    [56543,"2016-10-17T18:00:00","1.1","ND","ND","ND","10.8","1.1","ND","ND","ND","ND","ND","0"],
    [56544,"2016-10-17T19:00:00","0.5","ND","ND","ND","8.3","1.0","ND","ND","ND","ND","ND","0"],
    [56545,"2016-10-17T20:00:00","10.3","ND","ND","ND","6.5","0.5","ND","ND","ND","ND","ND","0"],
    [56546,"2016-10-17T21:00:00","18.6","ND","ND","ND","2.5","1.1","ND","ND","ND","ND","ND","0"],
    [56547,"2016-10-17T22:00:00","14.5","ND","ND","ND","1.2","1.0","ND","ND","ND","ND","ND","0"],
    [56548,"2016-10-17T23:00:00","17","ND","ND","ND","0.9","1.1","ND","ND","ND","ND","ND","0"],
    [56549,"2016-10-18T00:00:00","24.9","ND","ND","ND","3.0","1.0","ND","ND","ND","ND","ND","0"],
    [56550,"2016-10-18T01:00:00","21.3","ND","ND","ND","6.5","1.3","ND","ND","ND","ND","ND","0"],
    [56551,"2016-10-18T02:00:00","21.8","ND","ND","ND","4.4","1.5","ND","ND","ND","ND","ND","0"],
    [56552,"2016-10-18T03:00:00","15.5","ND","ND","ND","2.5","1.2","ND","ND","ND","ND","ND","0"],
    [56553,"2016-10-18T04:00:00","14.9","ND","ND","ND","2.3","1.4","ND","ND","ND","ND","ND","9.91"],
    [56554,"2016-10-18T05:00:00","12","ND","ND","ND","0.7","3.9","ND","ND","ND","ND","ND","1.78"],
    [56555,"2016-10-18T06:00:00","8.7","ND","ND","ND","1.2","4.7","ND","ND","ND","ND","ND","1.02"],
    [56556,"2016-10-18T07:00:00","9.5","ND","ND","ND","0.8","4.6","ND","ND","ND","ND","ND","1.52"],
    [56557,"2016-10-18T08:00:00","10.7","ND","ND","ND","0.8","4.4","ND","ND","ND","ND","ND","7.37"],
    [56558,"2016-10-18T09:00:00","16","ND","ND","ND","1.0","3.4","ND","ND","ND","ND","ND","0.76"],
    [56559,"2016-10-18T10:00:00","19.1","ND","ND","ND","5.7","2.8","ND","ND","ND","ND","ND","0"],
    [56560,"2016-10-18T11:00:00","4.7","ND","ND","ND","27.7","1.6","ND","ND","ND","ND","ND","0"],
    [56561,"2016-10-18T12:00:00","ND","ND","ND","ND","29.1","1.9","ND","ND","ND","ND","ND","0"],
    [56562,"2016-10-18T13:00:00","4.4","ND","ND","ND","35.3","1.3","ND","ND","ND","ND","ND","0"],
    [56563,"2016-10-18T14:00:00","6.9","ND","ND","ND","29.7","2.0","ND","ND","ND","ND","ND","0"],
    [56564,"2016-10-18T15:00:00","8.5","ND","ND","ND","23.3","1.0","ND","ND","ND","ND","ND","0"],
    [56565,"2016-10-18T16:00:00","16","ND","ND","ND","22.7","1.6","ND","ND","ND","ND","ND","0"],
    [56566,"2016-10-18T17:00:00","13.8","ND","ND","ND","17.4","1.6","ND","ND","ND","ND","ND","0"],
    [56567,"2016-10-18T18:00:00","1.6","ND","ND","ND","11.0","2.9","ND","ND","ND","ND","ND","0"],
    [56568,"2016-10-18T19:00:00","0.7","ND","ND","ND","3.6","3.8","ND","ND","ND","ND","ND","0"],
    [56569,"2016-10-18T20:00:00","26.7","ND","ND","ND","1.4","3.8","ND","ND","ND","ND","ND","0"],
    [56570,"2016-10-18T21:00:00","31.8","ND","ND","ND","1.3","3.6","ND","ND","ND","ND","ND","0"],
    [56571,"2016-10-18T22:00:00","28.7","ND","ND","ND","0.9","3.5","ND","ND","ND","ND","ND","0"],
    [56572,"2016-10-18T23:00:00","29.9","ND","ND","ND","0.8","3.7","ND","ND","ND","ND","ND","0"],
    [56573,"2016-10-19T00:00:00","18.2","ND","ND","ND","1.3","2.6","ND","ND","ND","ND","ND","0"],
    [56574,"2016-10-19T01:00:00","13.3","ND","ND","ND","2.4","2.1","ND","ND","ND","ND","ND","0"],
    [56575,"2016-10-19T02:00:00","5.2","ND","ND","ND","1.2","1.8","ND","ND","ND","ND","ND","0"],
    [56576,"2016-10-19T03:00:00","23.1","ND","ND","ND","0.8","1.1","ND","ND","ND","ND","ND","0"],
    [56577,"2016-10-19T04:00:00","26.3","ND","ND","ND","0.7","1.8","ND","ND","ND","ND","ND","0"],
    [56578,"2016-10-19T05:00:00","18.2","ND","ND","ND","0.9","0.8","ND","ND","ND","ND","ND","0"],
    [56579,"2016-10-19T06:00:00","17.1","ND","ND","ND","0.9","1.4","ND","ND","ND","ND","ND","0"],
    [56580,"2016-10-19T07:00:00","22.8","ND","ND","ND","0.8","3.9","ND","ND","ND","ND","ND","0"],
    [56581,"2016-10-19T08:00:00","46.1","ND","ND","ND","1.4","4.9","ND","ND","ND","ND","ND","0"],
    [56582,"2016-10-19T09:00:00","34.1","ND","ND","ND","9.3","3.5","ND","ND","ND","ND","ND","0"],
    [56583,"2016-10-19T10:00:00","19.3","ND","ND","ND","19.5","2.4","ND","ND","ND","ND","ND","0"],
    [56584,"2016-10-19T11:00:00","20.8","ND","ND","ND","40.3","1.6","ND","ND","ND","ND","ND","0"],
    [56585,"2016-10-19T12:00:00","18.9","ND","ND","ND","47.6","1.6","ND","ND","ND","ND","ND","0"],
    [56586,"2016-10-19T13:00:00","13.6","ND","ND","ND","55.2","1.2","ND","ND","ND","ND","ND","0"],
    [56587,"2016-10-19T14:00:00","8.3","ND","ND","ND","53.4","0.8","ND","ND","ND","ND","ND","0"],
    [56588,"2016-10-19T15:00:00","9.5","ND","ND","ND","30.1","1.1","ND","ND","ND","ND","ND","0"],
    [56589,"2016-10-19T16:00:00","3.9","ND","ND","ND","18.4","1.1","ND","ND","ND","ND","ND","0"],
    [56590,"2016-10-19T17:00:00","ND","ND","ND","ND","16.0","1.7","ND","ND","ND","ND","ND","0"],
    [56591,"2016-10-19T18:00:00","ND","ND","ND","ND","13.4","1.3","ND","ND","ND","ND","ND","0"],
    [56592,"2016-10-19T19:00:00","2.5","ND","ND","ND","2.9","0.9","ND","ND","ND","ND","ND","0"],
    [56593,"2016-10-19T20:00:00","37","ND","ND","ND","1.2","1.1","ND","ND","ND","ND","ND","0"],
    [56594,"2016-10-19T21:00:00","44.2","ND","ND","ND","1.3","0.9","ND","ND","ND","ND","ND","0"],
    [56595,"2016-10-19T22:00:00","45.7","ND","ND","ND","1.2","1.0","ND","ND","ND","ND","ND","0"],
    [56596,"2016-10-19T23:00:00","44.4","ND","ND","ND","1.0","1.2","ND","ND","ND","ND","ND","0"],
    [56597,"2016-10-20T00:00:00","26.4","ND","ND","ND","1.0","1.1","ND","ND","ND","ND","ND","0"],
    [56598,"2016-10-20T01:00:00","11.2","ND","ND","ND","1.0","1.3","ND","ND","ND","ND","ND","0"],
    [56599,"2016-10-20T02:00:00","7.7","ND","ND","ND","1.0","1.3","ND","ND","ND","ND","ND","0"],
    [56600,"2016-10-20T03:00:00","9.4","ND","ND","ND","0.7","1.5","ND","ND","ND","ND","ND","0"],
    [56601,"2016-10-20T04:00:00","16.6","ND","ND","ND","0.9","1.3","ND","ND","ND","ND","ND","0"],
    [56602,"2016-10-20T05:00:00","19.8","ND","ND","ND","0.8","1.4","ND","ND","ND","ND","ND","0"],
    [56603,"2016-10-20T06:00:00","16.6","ND","ND","ND","1.1","0.9","ND","ND","ND","ND","ND","0.25"],
    [56604,"2016-10-20T07:00:00","14.1","ND","ND","ND","1.0","1.5","ND","ND","ND","ND","ND","0"],
    [56605,"2016-10-20T08:00:00","34.8","ND","ND","ND","1.4","1.1","ND","ND","ND","ND","ND","0"],
    [56606,"2016-10-20T09:00:00","38.2","ND","ND","ND","1.8","1.6","ND","ND","ND","ND","ND","0"],
    [56607,"2016-10-20T10:00:00","37.8","ND","ND","ND","5.7","1.7","ND","ND","ND","ND","ND","0"],
    [56608,"2016-10-20T11:00:00","12.4","ND","ND","ND","26.1","1.4","ND","ND","ND","ND","ND","0"],
    [56609,"2016-10-20T12:00:00","13.8","ND","ND","ND","45.5","1.4","ND","ND","ND","ND","ND","0"],
    [56610,"2016-10-20T13:00:00","17.3","ND","ND","ND","63.8","1.1","ND","ND","ND","ND","ND","0"],
    [56611,"2016-10-20T14:00:00","5.1","ND","ND","ND","60.2","1.1","ND","ND","ND","ND","ND","0"],
    [56612,"2016-10-20T15:00:00","23.3","ND","ND","ND","39.4","0.8","ND","ND","ND","ND","ND","0"],
    [56613,"2016-10-20T16:00:00","6.5","ND","ND","ND","28.5","0.8","ND","ND","ND","ND","ND","0"],
    [56614,"2016-10-20T17:00:00","ND","ND","ND","ND","19.5","0.5","ND","ND","ND","ND","ND","0"],
    [56615,"2016-10-20T18:00:00","ND","ND","ND","ND","13.0","0.8","ND","ND","ND","ND","ND","0"],
    [56616,"2016-10-20T19:00:00","ND","ND","ND","ND","8.8","1.0","ND","ND","ND","ND","ND","0"],
    [56617,"2016-10-20T20:00:00","9.5","ND","ND","ND","1.7","1.3","ND","ND","ND","ND","ND","0"],
    [56618,"2016-10-20T21:00:00","26.9","ND","ND","ND","1.8","0.6","ND","ND","ND","ND","ND","0"],
    [56619,"2016-10-20T22:00:00","35.2","ND","ND","ND","1.2","1.2","ND","ND","ND","ND","ND","0"],
    [56620,"2016-10-20T23:00:00","32.8","ND","ND","ND","1.0","1.2","ND","ND","ND","ND","ND","0"],
    [56621,"2016-10-21T00:00:00","15.5","ND","ND","ND","1.0","1.2","ND","ND","ND","ND","ND","0"],
    [56622,"2016-10-21T01:00:00","19.9","ND","ND","ND","1.0","1.4","ND","ND","ND","ND","ND","0"],
    [56623,"2016-10-21T02:00:00","10.6","ND","ND","ND","0.9","1.5","ND","ND","ND","ND","ND","0"],
    [56624,"2016-10-21T03:00:00","28.7","ND","ND","ND","0.9","1.6","ND","ND","ND","ND","ND","0"],
    [56625,"2016-10-21T04:00:00","36.6","ND","ND","ND","0.9","1.7","ND","ND","ND","ND","ND","0"],
    [56626,"2016-10-21T05:00:00","25","ND","ND","ND","1.0","1.4","ND","ND","ND","ND","ND","0"],
    [56627,"2016-10-21T06:00:00","36","ND","ND","ND","1.1","1.3","ND","ND","ND","ND","ND","0"],
    [56628,"2016-10-21T07:00:00","37.6","ND","ND","ND","1.0","1.8","ND","ND","ND","ND","ND","0"],
    [56629,"2016-10-21T08:00:00","44","ND","ND","ND","1.8","2.4","ND","ND","ND","ND","ND","0"],
    [56630,"2016-10-21T09:00:00","37.2","ND","ND","ND","5.1","2.7","ND","ND","ND","ND","ND","0"],
    [56631,"2016-10-21T10:00:00","32.7","ND","ND","ND","21.5","1.9","ND","ND","ND","ND","ND","0"],
    [56632,"2016-10-21T11:00:00","21.3","ND","ND","ND","39.1","1.9","ND","ND","ND","ND","ND","0"],
    [56633,"2016-10-21T12:00:00","12.9","ND","ND","ND","46.1","1.9","ND","ND","ND","ND","ND","0"],
    [56634,"2016-10-21T13:00:00","8.8","ND","ND","ND","44.4","1.5","ND","ND","ND","ND","ND","0"],
    [56635,"2016-10-21T14:00:00","6.7","ND","ND","ND","29.3","1.4","ND","ND","ND","ND","ND","0"],
    [56636,"2016-10-21T15:00:00","ND","ND","ND","ND","27.1","1.4","ND","ND","ND","ND","ND","0"],
    [56637,"2016-10-21T16:00:00","ND","ND","ND","ND","26.4","0.9","ND","ND","ND","ND","ND","0"],
    [56638,"2016-10-21T17:00:00","ND","ND","ND","ND","23.5","1.4","ND","ND","ND","ND","ND","0"],
    [56639,"2016-10-21T18:00:00","ND","ND","ND","ND","17.5","0.8","ND","ND","ND","ND","ND","0"],
    [56640,"2016-10-21T19:00:00","11.8","ND","ND","ND","9.1","1.0","ND","ND","ND","ND","ND","0"],
    [56641,"2016-10-21T20:00:00","34.8","ND","ND","ND","2.3","1.8","ND","ND","ND","ND","ND","0"],
    [56642,"2016-10-21T21:00:00","33.8","ND","ND","ND","2.9","2.0","ND","ND","ND","ND","ND","0"],
    [56643,"2016-10-21T22:00:00","22.2","ND","ND","ND","3.3","2.6","ND","ND","ND","ND","ND","0"],
    [56644,"2016-10-21T23:00:00","23.2","ND","ND","ND","4.1","2.7","ND","ND","ND","ND","ND","0"],
    [56645,"2016-10-22T00:00:00","27.4","ND","ND","ND","2.8","2.8","ND","ND","ND","ND","ND","0"],
    [56646,"2016-10-22T01:00:00","30.5","ND","ND","ND","3.0","2.6","ND","ND","ND","ND","ND","0"],
    [56647,"2016-10-22T02:00:00","23.2","ND","ND","ND","3.9","2.7","ND","ND","ND","ND","ND","0"],
    [56648,"2016-10-22T03:00:00","21.4","ND","ND","ND","2.7","2.5","ND","ND","ND","ND","ND","0"],
    [56649,"2016-10-22T04:00:00","20.4","ND","ND","ND","5.0","2.0","ND","ND","ND","ND","ND","0"],
    [56650,"2016-10-22T05:00:00","25.2","ND","ND","ND","3.7","2.9","ND","ND","ND","ND","ND","0"],
    [56651,"2016-10-22T06:00:00","31.5","ND","ND","ND","3.6","3.3","ND","ND","ND","ND","ND","0"],
    [56652,"2016-10-22T07:00:00","26.1","ND","ND","ND","4.6","3.0","ND","ND","ND","ND","ND","0"],
    [56653,"2016-10-22T08:00:00","41","ND","ND","ND","6.1","3.4","ND","ND","ND","ND","ND","0"],
    [56654,"2016-10-22T09:00:00","42.4","ND","ND","ND","13.5","2.4","ND","ND","ND","ND","ND","0"],
    [56655,"2016-10-22T10:00:00","38.8","ND","ND","ND","24.5","1.9","ND","ND","ND","ND","ND","0"],
    [56656,"2016-10-22T11:00:00","16","ND","ND","ND","50.7","1.6","ND","ND","ND","ND","ND","0"],
    [56657,"2016-10-22T12:00:00","8.1","ND","ND","ND","65.1","1.2","ND","ND","ND","ND","ND","0"],
    [56658,"2016-10-22T13:00:00","7.3","ND","ND","ND","28.6","0.9","ND","ND","ND","ND","ND","0"],
    [56659,"2016-10-22T14:00:00","ND","ND","ND","ND","31.9","0.9","ND","ND","ND","ND","ND","0.51"],
    [56660,"2016-10-22T15:00:00","25","ND","ND","ND","12.3","1.6","ND","ND","ND","ND","ND","0"],
    [56661,"2016-10-22T16:00:00","58.6","ND","ND","ND","13.7","3.5","ND","ND","ND","ND","ND","0"],
    [56662,"2016-10-22T17:00:00","24.3","ND","ND","ND","12.7","3.0","ND","ND","ND","ND","ND","0"],
    [56663,"2016-10-22T18:00:00","3.9","ND","ND","ND","7.5","1.9","ND","ND","ND","ND","ND","0"],
    [56664,"2016-10-22T19:00:00","0.4","ND","ND","ND","7.7","1.3","ND","ND","ND","ND","ND","0"],
    [56665,"2016-10-22T20:00:00","4.1","ND","ND","ND","3.3","1.9","ND","ND","ND","ND","ND","0"],
    [56666,"2016-10-22T21:00:00","24.9","ND","ND","ND","3.0","2.0","ND","ND","ND","ND","ND","0"],
    [56667,"2016-10-22T22:00:00","28.8","ND","ND","ND","3.2","3.7","ND","ND","ND","ND","ND","0"],
    [56668,"2016-10-22T23:00:00","20.5","ND","ND","ND","2.9","6.0","ND","ND","ND","ND","ND","0"],
    [56669,"2016-10-23T00:00:00","21.4","ND","ND","ND","2.5","3.7","ND","ND","ND","ND","ND","0"],
    [56670,"2016-10-23T01:00:00","18.1","ND","ND","ND","2.0","2.6","ND","ND","ND","ND","ND","0"],
    [56671,"2016-10-23T02:00:00","21.9","ND","ND","ND","2.2","2.0","ND","ND","ND","ND","ND","0"],
    [56672,"2016-10-23T03:00:00","23.1","ND","ND","ND","4.2","2.0","ND","ND","ND","ND","ND","0"],
    [56673,"2016-10-23T04:00:00","7.1","ND","ND","ND","11.4","1.0","ND","ND","ND","ND","ND","0"],
    [56674,"2016-10-23T05:00:00","ND","ND","ND","ND","17.2","1.3","ND","ND","ND","ND","ND","0.76"],
    [56675,"2016-10-23T06:00:00","4.2","ND","ND","ND","10.2","0.8","ND","ND","ND","ND","ND","8.64"],
    [56676,"2016-10-23T07:00:00","7","ND","ND","ND","16.1","0.5","ND","ND","ND","ND","ND","3.56"],
    [56677,"2016-10-23T08:00:00","4.8","ND","ND","ND","19.3","0.8","ND","ND","ND","ND","ND","0.25"],
    [56678,"2016-10-23T09:00:00","9.6","ND","ND","ND","28.0","1.4","ND","ND","ND","ND","ND","0"],
    [56679,"2016-10-23T10:00:00","ND","ND","ND","ND","33.4","0.4","ND","ND","ND","ND","ND","0"],
    [56680,"2016-10-23T11:00:00","3.3","ND","ND","ND","45.1","0.9","ND","ND","ND","ND","ND","0"],
    [56681,"2016-10-23T12:00:00","7.1","ND","ND","ND","67.7","1.1","ND","ND","ND","ND","ND","0"],
    [56682,"2016-10-23T13:00:00","ND","ND","ND","ND","92.9","0.9","ND","ND","ND","ND","ND","0"],
    [56683,"2016-10-23T14:00:00","ND","ND","ND","ND","85.4","1.2","ND","ND","ND","ND","ND","0"],
    [56684,"2016-10-23T15:00:00","ND","ND","ND","ND","80.2","1.3","ND","ND","ND","ND","ND","0"],
    [56685,"2016-10-23T16:00:00","4.5","ND","ND","ND","65.4","1.1","ND","ND","ND","ND","ND","0"],
    [56686,"2016-10-23T17:00:00","10.7","ND","ND","ND","65.6","0.3","ND","ND","ND","ND","ND","0"],
    [56687,"2016-10-23T18:00:00","3.3","ND","ND","ND","36.3","1.6","ND","ND","ND","ND","ND","0"],
    [56688,"2016-10-23T19:00:00","10.9","ND","ND","ND","17.5","1.6","ND","ND","ND","ND","ND","0"],
    [56689,"2016-10-23T20:00:00","22.2","ND","ND","ND","3.5","2.0","ND","ND","ND","ND","ND","0"],
    [56690,"2016-10-23T21:00:00","27.7","ND","ND","ND","3.7","2.4","ND","ND","ND","ND","ND","0"],
    [56691,"2016-10-23T22:00:00","17.1","ND","ND","ND","2.3","3.0","ND","ND","ND","ND","ND","0"],
    [56692,"2016-10-23T23:00:00","13.2","ND","ND","ND","2.2","1.8","ND","ND","ND","ND","ND","0"],
    [56693,"2016-10-24T00:00:00","ND","ND","ND","ND","2.3","2.2","ND","ND","ND","ND","ND","0"],
    [56694,"2016-10-24T01:00:00","5.8","ND","ND","ND","2.3","1.8","ND","ND","ND","ND","ND","0"],
    [56695,"2016-10-24T02:00:00","29.8","ND","ND","ND","2.4","2.8","ND","ND","ND","ND","ND","0"],
    [56696,"2016-10-24T03:00:00","34","ND","ND","ND","2.6","3.0","ND","ND","ND","ND","ND","0"],
    [56697,"2016-10-24T04:00:00","15.3","ND","ND","ND","2.9","2.3","ND","ND","ND","ND","ND","0"],
    [56698,"2016-10-24T05:00:00","4.9","ND","ND","ND","2.4","2.2","ND","ND","ND","ND","ND","0"],
    [56699,"2016-10-24T06:00:00","11.5","ND","ND","ND","1.9","2.1","ND","ND","ND","ND","ND","0"],
    [56700,"2016-10-24T07:00:00","17","ND","ND","ND","2.4","1.8","ND","ND","ND","ND","ND","0"],
    [56701,"2016-10-24T08:00:00","18.9","ND","ND","ND","4.0","2.2","ND","ND","ND","ND","ND","0"],
    [56702,"2016-10-24T09:00:00","14.8","ND","ND","ND","7.7","3.3","ND","ND","ND","ND","ND","0"],
    [56703,"2016-10-24T10:00:00","34.4","ND","ND","ND","21.7","3.5","ND","ND","ND","ND","ND","0"],
    [56704,"2016-10-24T11:00:00","19.9","ND","ND","ND","50.5","2.3","ND","ND","ND","ND","ND","0"],
    [56705,"2016-10-24T12:00:00","2.1","ND","ND","ND","49.2","1.1","ND","ND","ND","ND","ND","0"],
    [56706,"2016-10-24T13:00:00","ND","ND","ND","ND","35.0","0.6","ND","ND","ND","ND","ND","0"],
    [56707,"2016-10-24T14:00:00","ND","ND","ND","ND","28.7","1.3","ND","ND","ND","ND","ND","0"],
    [56708,"2016-10-24T15:00:00","ND","ND","ND","ND","26.8","0.8","ND","ND","ND","ND","ND","0"],
    [56709,"2016-10-24T16:00:00","3.7","ND","ND","ND","25.6","0.8","ND","ND","ND","ND","ND","0"],
    [56710,"2016-10-24T17:00:00","ND","ND","ND","ND","20.8","0.7","ND","ND","ND","ND","ND","0"],
    [56711,"2016-10-24T18:00:00","7.9","ND","ND","ND","15.5","1.2","ND","ND","ND","ND","ND","0"],
    [56712,"2016-10-24T19:00:00","12","ND","ND","ND","5.2","1.2","ND","ND","ND","ND","ND","0"],
    [56713,"2016-10-24T20:00:00","21.6","ND","ND","ND","11.7","1.1","ND","ND","ND","ND","ND","0"],
    [56714,"2016-10-24T21:00:00","41","ND","ND","ND","15.3","1.8","ND","ND","ND","ND","ND","0"],
    [56715,"2016-10-24T22:00:00","45","ND","ND","ND","12.9","0.9","ND","ND","ND","ND","ND","0"],
    [56716,"2016-10-24T23:00:00","18.4","ND","ND","ND","25.0","1.1","ND","ND","ND","ND","ND","0"],
    [56717,"2016-10-25T00:00:00","8.8","ND","ND","ND","22.4","1.6","ND","ND","ND","ND","ND","0"],
    [56718,"2016-10-25T01:00:00","6.6","ND","ND","ND","18.6","0.7","ND","ND","ND","ND","ND","4.83"],
    [56719,"2016-10-25T02:00:00","9.7","ND","ND","ND","10.4","1.2","ND","ND","ND","ND","ND","4.83"],
    [56720,"2016-10-25T03:00:00","12.3","ND","ND","ND","10.2","0.4","ND","ND","ND","ND","ND","3.56"],
    [56721,"2016-10-25T04:00:00","9.7","ND","ND","ND","6.7","2.0","ND","ND","ND","ND","ND","0.76"],
    [56722,"2016-10-25T05:00:00","5.5","ND","ND","ND","8.5","1.3","ND","ND","ND","ND","ND","0.51"],
    [56723,"2016-10-25T06:00:00","4","ND","ND","ND","4.8","4.5","ND","ND","ND","ND","ND","1.52"],
    [56724,"2016-10-25T07:00:00","7.9","ND","ND","ND","2.8","8.0","ND","ND","ND","ND","ND","0"],
    [56725,"2016-10-25T08:00:00","15.4","ND","ND","ND","3.5","6.0","ND","ND","ND","ND","ND","0.25"],
    [56726,"2016-10-25T09:00:00","20.3","ND","ND","ND","8.4","3.7","ND","ND","ND","ND","ND","0"],
    [56727,"2016-10-25T10:00:00","10.3","ND","ND","ND","19.0","3.3","ND","ND","ND","ND","ND","0"],
    [56728,"2016-10-25T11:00:00","21.4","ND","ND","ND","35.7","2.4","ND","ND","ND","ND","ND","0.25"],
    [56729,"2016-10-25T12:00:00","17.7","ND","ND","ND","35.2","2.4","ND","ND","ND","ND","ND","0"],
    [56730,"2016-10-25T13:00:00","19.6","ND","ND","ND","16.8","3.2","ND","ND","ND","ND","ND","0"],
    [56731,"2016-10-25T14:00:00","14.7","ND","ND","ND","15.1","3.3","ND","ND","ND","ND","ND","0"],
    [56732,"2016-10-25T15:00:00","9.1","ND","ND","ND","25.6","2.7","ND","ND","ND","ND","ND","0"],
    [56733,"2016-10-25T16:00:00","4.1","ND","ND","ND","21.4","0.8","ND","ND","ND","ND","ND","0"],
    [56734,"2016-10-25T17:00:00","ND","ND","ND","ND","16.1","1.5","ND","ND","ND","ND","ND","0"],
    [56735,"2016-10-25T18:00:00","ND","ND","ND","ND","3.7","1.2","ND","ND","ND","ND","ND","0"],
    [56736,"2016-10-25T19:00:00","1.2","ND","ND","ND","2.7","0.9","ND","ND","ND","ND","ND","0"],
    [56737,"2016-10-25T20:00:00","15.7","ND","ND","ND","2.4","1.5","ND","ND","ND","ND","ND","0"],
    [56738,"2016-10-25T21:00:00","10.2","ND","ND","ND","2.1","0.5","ND","ND","ND","ND","ND","0"],
    [56739,"2016-10-25T22:00:00","12.5","ND","ND","ND","2.0","0.8","ND","ND","ND","ND","ND","0"],
    [56740,"2016-10-25T23:00:00","7.6","ND","ND","ND","1.8","0.5","ND","ND","ND","ND","ND","0"],
    [56741,"2016-10-26T00:00:00","17.7","ND","ND","ND","3.1","2.6","ND","ND","ND","ND","ND","0"],
    [56742,"2016-10-26T01:00:00","35","ND","ND","ND","2.6","2.5","ND","ND","ND","ND","ND","0"],
    [56743,"2016-10-26T02:00:00","19.1","ND","ND","ND","3.1","2.6","ND","ND","ND","ND","ND","0"],
    [56744,"2016-10-26T03:00:00","29.5","ND","ND","ND","3.1","2.9","ND","ND","ND","ND","ND","0"],
    [56745,"2016-10-26T04:00:00","28.1","ND","ND","ND","4.2","2.0","ND","ND","ND","ND","ND","0"],
    [56746,"2016-10-26T05:00:00","32.1","ND","ND","ND","2.9","2.6","ND","ND","ND","ND","ND","0"],
    [56747,"2016-10-26T06:00:00","25.1","ND","ND","ND","4.0","2.4","ND","ND","ND","ND","ND","0"],
    [56748,"2016-10-26T07:00:00","36.1","ND","ND","ND","4.7","2.9","ND","ND","ND","ND","ND","0"],
    [56749,"2016-10-26T08:00:00","34.4","ND","ND","ND","6.3","2.3","ND","ND","ND","ND","ND","0"],
    [56750,"2016-10-26T09:00:00","27.5","ND","ND","ND","13.0","2.2","ND","ND","ND","ND","ND","0"],
    [56751,"2016-10-26T10:00:00","13.3","ND","ND","ND","29.0","1.5","ND","ND","ND","ND","ND","0"],
    [56752,"2016-10-26T11:00:00","19.2","ND","ND","ND","50.9","1.1","ND","ND","ND","ND","ND","0"],
    [56753,"2016-10-26T12:00:00","6.6","ND","ND","ND","69.4","1.3","ND","ND","ND","ND","ND","0"],
    [56754,"2016-10-26T13:00:00","ND","ND","ND","ND","79.5","1.2","ND","ND","ND","ND","ND","0"],
    [56755,"2016-10-26T14:00:00","7.6","ND","ND","ND","49.3","1.4","ND","ND","ND","ND","ND","0"],
    [56756,"2016-10-26T15:00:00","13.8","ND","ND","ND","17.7","1.1","ND","ND","ND","ND","ND","0"],
    [56757,"2016-10-26T16:00:00","ND","ND","ND","ND","15.1","1.0","ND","ND","ND","ND","ND","0"],
    [56758,"2016-10-26T17:00:00","ND","ND","ND","ND","12.4","0.9","ND","ND","ND","ND","ND","0"],
    [56759,"2016-10-26T18:00:00","ND","ND","ND","ND","10.3","0.7","ND","ND","ND","ND","ND","0"],
    [56760,"2016-10-26T19:00:00","ND","ND","ND","ND","11.8","0.5","ND","ND","ND","ND","ND","0"],
    [56761,"2016-10-26T20:00:00","9.2","ND","ND","ND","2.4","1.0","ND","ND","ND","ND","ND","0"],
    [56762,"2016-10-26T21:00:00","28.7","ND","ND","ND","4.0","1.6","ND","ND","ND","ND","ND","0"],
    [56763,"2016-10-26T22:00:00","24.4","ND","ND","ND","2.3","1.4","ND","ND","ND","ND","ND","0"],
    [56764,"2016-10-26T23:00:00","29.2","ND","ND","ND","2.3","1.5","ND","ND","ND","ND","ND","0"],
    [56765,"2016-10-27T00:00:00","24.5","ND","ND","ND","2.2","1.3","ND","ND","ND","ND","ND","0"],
    [56766,"2016-10-27T01:00:00","25.5","ND","ND","ND","1.7","1.8","ND","ND","ND","ND","ND","0"],
    [56767,"2016-10-27T02:00:00","19.5","ND","ND","ND","2.3","3.2","ND","ND","ND","ND","ND","0"],
    [56768,"2016-10-27T03:00:00","11.5","ND","ND","ND","1.9","2.8","ND","ND","ND","ND","ND","0"],
    [56769,"2016-10-27T04:00:00","17.9","ND","ND","ND","2.3","2.4","ND","ND","ND","ND","ND","0"],
    [56770,"2016-10-27T05:00:00","10.6","ND","ND","ND","1.9","1.8","ND","ND","ND","ND","ND","0"],
    [56771,"2016-10-27T06:00:00","9.8","ND","ND","ND","2.3","2.1","ND","ND","ND","ND","ND","0"],
    [56772,"2016-10-27T07:00:00","27.9","ND","ND","ND","2.5","5.9","ND","ND","ND","ND","ND","0"],
    [56773,"2016-10-27T08:00:00","49","ND","ND","ND","6.9","5.7","ND","ND","ND","ND","ND","0"],
    [56774,"2016-10-27T09:00:00","40.5","ND","ND","ND","22.9","2.8","ND","ND","ND","ND","ND","0"],
    [56775,"2016-10-27T10:00:00","18.6","ND","ND","ND","36.9","1.9","ND","ND","ND","ND","ND","0"],
    [56776,"2016-10-27T11:00:00","5.9","ND","ND","ND","55.4","1.4","ND","ND","ND","ND","ND","0"],
    [56777,"2016-10-27T12:00:00","ND","ND","ND","ND","76.3","1.1","ND","ND","ND","ND","ND","0"],
    [56778,"2016-10-27T13:00:00","18.9","ND","ND","ND","87.5","1.4","ND","ND","ND","ND","ND","0"],
    [56779,"2016-10-27T14:00:00","18.8","ND","ND","ND","107.9","0.9","ND","ND","ND","ND","ND","0"],
    [56780,"2016-10-27T15:00:00","17.3","ND","ND","ND","58.4","0.9","ND","ND","ND","ND","ND","0"],
    [56781,"2016-10-27T16:00:00","16","ND","ND","ND","34.7","1.4","ND","ND","ND","ND","ND","0"],
    [56782,"2016-10-27T17:00:00","1","ND","ND","ND","28.4","1.0","ND","ND","ND","ND","ND","0"],
    [56783,"2016-10-27T18:00:00","ND","ND","ND","ND","17.8","0.8","ND","ND","ND","ND","ND","0"],
    [56784,"2016-10-27T19:00:00","ND","ND","ND","ND","8.2","1.0","ND","ND","ND","ND","ND","0"],
    [56785,"2016-10-27T20:00:00","11.4","ND","ND","ND","7.8","1.2","ND","ND","ND","ND","ND","0"],
    [56786,"2016-10-27T21:00:00","19.3","ND","ND","ND","5.7","1.3","ND","ND","ND","ND","ND","0"],
    [56787,"2016-10-27T22:00:00","32.9","ND","ND","ND","2.4","2.0","ND","ND","ND","ND","ND","0"],
    [56788,"2016-10-27T23:00:00","32.6","ND","ND","ND","3.3","2.2","ND","ND","ND","ND","ND","0"],
    [56789,"2016-10-28T00:00:00","19.5","ND","ND","ND","3.5","1.1","ND","ND","ND","ND","ND","0"],
    [56790,"2016-10-28T01:00:00","13.9","ND","ND","ND","2.6","2.5","ND","ND","ND","ND","ND","0"],
    [56791,"2016-10-28T02:00:00","13.2","ND","ND","ND","2.6","2.1","ND","ND","ND","ND","ND","0"],
    [56792,"2016-10-28T03:00:00","20.7","ND","ND","ND","3.7","2.1","ND","ND","ND","ND","ND","0"],
    [56793,"2016-10-28T04:00:00","25.3","ND","ND","ND","2.8","2.1","ND","ND","ND","ND","ND","0"],
    [56794,"2016-10-28T05:00:00","17.7","ND","ND","ND","3.2","2.0","ND","ND","ND","ND","ND","0"],
    [56795,"2016-10-28T06:00:00","17.8","ND","ND","ND","2.7","2.0","ND","ND","ND","ND","ND","0"],
    [56796,"2016-10-28T07:00:00","16.2","ND","ND","ND","3.7","1.4","ND","ND","ND","ND","ND","0"],
    [56797,"2016-10-28T08:00:00","8.5","ND","ND","ND","14.3","1.0","ND","ND","ND","ND","ND","0"],
    [56798,"2016-10-28T09:00:00","5.6","ND","ND","ND","25.1","0.7","ND","ND","ND","ND","ND","0"],
    [56799,"2016-10-28T10:00:00","2","ND","ND","ND","44.9","1.2","ND","ND","ND","ND","ND","0"],
    [56800,"2016-10-28T11:00:00","7.8","ND","ND","ND","51.7","1.2","ND","ND","ND","ND","ND","0"],
    [56801,"2016-10-28T12:00:00","22.7","ND","ND","ND","80.4","1.0","ND","ND","ND","ND","ND","0"],
    [56802,"2016-10-28T13:00:00","17.8","ND","ND","ND","100.0","1.0","ND","ND","ND","ND","ND","0"],
    [56803,"2016-10-28T14:00:00","23.6","ND","ND","ND","104.3","1.2","ND","ND","ND","ND","ND","0"],
    [56804,"2016-10-28T15:00:00","28.6","ND","ND","ND","80.3","2.1","ND","ND","ND","ND","ND","0"],
    [56805,"2016-10-28T16:00:00","26.1","ND","ND","ND","38.7","1.6","ND","ND","ND","ND","ND","0"],
    [56806,"2016-10-28T17:00:00","3.5","ND","ND","ND","18.6","0.5","ND","ND","ND","ND","ND","0"],
    [56807,"2016-10-28T18:00:00","ND","ND","ND","ND","14.6","1.0","ND","ND","ND","ND","ND","0"],
    [56808,"2016-10-28T19:00:00","1.2","ND","ND","ND","12.4","1.3","ND","ND","ND","ND","ND","0"],
    [56809,"2016-10-28T20:00:00","18.2","ND","ND","ND","9.6","0.8","ND","ND","ND","ND","ND","0"],
    [56810,"2016-10-28T21:00:00","34.9","ND","ND","ND","3.8","1.8","ND","ND","ND","ND","ND","0"],
    [56811,"2016-10-28T22:00:00","41.3","ND","ND","ND","2.2","2.6","ND","ND","ND","ND","ND","0"],
    [56812,"2016-10-28T23:00:00","24.9","ND","ND","ND","2.1","2.5","ND","ND","ND","ND","ND","0"],
    [56813,"2016-10-29T00:00:00","10","ND","ND","ND","2.1","2.0","ND","ND","ND","ND","ND","0"],
    [56814,"2016-10-29T01:00:00","10.2","ND","ND","ND","5.7","2.5","ND","ND","ND","ND","ND","0"],
    [56815,"2016-10-29T02:00:00","15.3","ND","ND","ND","10.0","1.4","ND","ND","ND","ND","ND","31.24"],
    [56816,"2016-10-29T03:00:00","11.7","ND","ND","ND","2.8","4.2","ND","ND","ND","ND","ND","11.94"],
    [56817,"2016-10-29T04:00:00","4.4","ND","ND","ND","2.5","5.6","ND","ND","ND","ND","ND","2.79"],
    [56818,"2016-10-29T05:00:00","8","ND","ND","ND","1.7","5.2","ND","ND","ND","ND","ND","1.52"],
    [56819,"2016-10-29T06:00:00","5.8","ND","ND","ND","2.5","2.4","ND","ND","ND","ND","ND","0"],
    [56820,"2016-10-29T07:00:00","0.8","ND","ND","ND","2.7","2.0","ND","ND","ND","ND","ND","0"],
    [56821,"2016-10-29T08:00:00","8.8","ND","ND","ND","3.4","1.7","ND","ND","ND","ND","ND","0.25"],
    [56822,"2016-10-29T09:00:00","15.5","ND","ND","ND","6.8","1.2","ND","ND","ND","ND","ND","0"],
    [56823,"2016-10-29T10:00:00","16.3","ND","ND","ND","21.5","1.8","ND","ND","ND","ND","ND","0"],
    [56824,"2016-10-29T11:00:00","20.3","ND","ND","ND","43.1","1.2","ND","ND","ND","ND","ND","0"],
    [56825,"2016-10-29T12:00:00","5.1","ND","ND","ND","43.1","1.1","ND","ND","ND","ND","ND","0"],
    [56826,"2016-10-29T13:00:00","4.6","ND","ND","ND","57.4","1.3","ND","ND","ND","ND","ND","0"],
    [56827,"2016-10-29T14:00:00","5.7","ND","ND","ND","61.0","2.0","ND","ND","ND","ND","ND","0"],
    [56828,"2016-10-29T15:00:00","7.9","ND","ND","ND","51.0","1.8","ND","ND","ND","ND","ND","0"],
    [56829,"2016-10-29T16:00:00","ND","ND","ND","ND","45.9","1.1","ND","ND","ND","ND","ND","0"],
    [56830,"2016-10-29T17:00:00","15.1","ND","ND","ND","24.2","1.6","ND","ND","ND","ND","ND","0"],
    [56831,"2016-10-29T18:00:00","13.2","ND","ND","ND","15.1","0.9","ND","ND","ND","ND","ND","0"],
    [56832,"2016-10-29T19:00:00","4.7","ND","ND","ND","4.0","1.1","ND","ND","ND","ND","ND","0"],
    [56833,"2016-10-29T20:00:00","25.5","ND","ND","ND","3.1","1.0","ND","ND","ND","ND","ND","0"],
    [56834,"2016-10-29T21:00:00","36","ND","ND","ND","3.6","1.4","ND","ND","ND","ND","ND","0"],
    [56835,"2016-10-29T22:00:00","24.6","ND","ND","ND","3.1","2.5","ND","ND","ND","ND","ND","0"],
    [56836,"2016-10-29T23:00:00","31.8","ND","ND","ND","3.3","2.2","ND","ND","ND","ND","ND","0"],
    [56837,"2016-10-30T00:00:00","32.8","ND","ND","ND","3.3","2.0","ND","ND","ND","ND","ND","0"],
    [56838,"2016-10-30T01:00:00","23.8","ND","ND","ND","2.9","1.8","ND","ND","ND","ND","ND","0"],
    [56839,"2016-10-30T02:00:00","19.1","ND","ND","ND","2.8","2.0","ND","ND","ND","ND","ND","0"],
    [56840,"2016-10-30T03:00:00","24.3","ND","ND","ND","3.3","2.7","ND","ND","ND","ND","ND","0"],
    [56841,"2016-10-30T04:00:00","19.3","ND","ND","ND","3.2","3.9","ND","ND","ND","ND","ND","0"],
    [56842,"2016-10-30T05:00:00","20.9","ND","ND","ND","2.9","3.1","ND","ND","ND","ND","ND","0"],
    [56843,"2016-10-30T06:00:00","18.9","ND","ND","ND","2.8","2.0","ND","ND","ND","ND","ND","0"],
    [56844,"2016-10-30T07:00:00","21.7","ND","ND","ND","3.2","2.2","ND","ND","ND","ND","ND","0"],
    [56845,"2016-10-30T08:00:00","24","ND","ND","ND","6.3","1.2","ND","ND","ND","ND","ND","0"],
    [56846,"2016-10-30T09:00:00","19.7","ND","ND","ND","19.7","1.5","ND","ND","ND","ND","ND","0"],
    [56847,"2016-10-30T10:00:00","17.4","ND","ND","ND","38.2","1.4","ND","ND","ND","ND","ND","0"],
    [56848,"2016-10-30T11:00:00","10.4","ND","ND","ND","65.6","1.4","ND","ND","ND","ND","ND","0"],
    [56849,"2016-10-30T12:00:00","7.6","ND","ND","ND","87.3","1.3","ND","ND","ND","ND","ND","0"],
    [56850,"2016-10-30T13:00:00","15.9","ND","ND","ND","93.1","0.8","ND","ND","ND","ND","ND","0"],
    [56851,"2016-10-30T14:00:00","12.2","ND","ND","ND","77.5","1.3","ND","ND","ND","ND","ND","0"],
    [56852,"2016-10-30T15:00:00","16.3","ND","ND","ND","29.2","0.8","ND","ND","ND","ND","ND","0"],
    [56853,"2016-10-30T16:00:00","ND","ND","ND","ND","23.5","0.7","ND","ND","ND","ND","ND","0"],
    [56854,"2016-10-30T17:00:00","ND","ND","ND","ND","20.7","0.2","ND","ND","ND","ND","ND","0"],
    [56855,"2016-10-30T18:00:00","14.4","ND","ND","ND","13.1","0.3","ND","ND","ND","ND","ND","0"],
    [56856,"2016-10-30T19:00:00","ND","ND","ND","ND","8.6","0.9","ND","ND","ND","ND","ND","0"],
    [56857,"2016-10-30T20:00:00","7.1","ND","ND","ND","2.0","1.0","ND","ND","ND","ND","ND","0"],
    [56858,"2016-10-30T21:00:00","24.9","ND","ND","ND","2.3","1.8","ND","ND","ND","ND","ND","0"],
    [56859,"2016-10-30T22:00:00","22.7","ND","ND","ND","1.9","1.7","ND","ND","ND","ND","ND","0"],
    [56860,"2016-10-30T23:00:00","16.4","ND","ND","ND","1.9","1.7","ND","ND","ND","ND","ND","0"],
    [56861,"2016-10-31T00:00:00","13.9","ND","ND","ND","2.0","2.9","ND","ND","ND","ND","ND","0"],
    [56862,"2016-10-31T01:00:00","15.7","ND","ND","ND","1.8","1.5","ND","ND","ND","ND","ND","0"],
    [56863,"2016-10-31T02:00:00","19","ND","ND","ND","2.5","2.2","ND","ND","ND","ND","ND","0"],
    [56864,"2016-10-31T03:00:00","11.1","ND","ND","ND","2.0","2.6","ND","ND","ND","ND","ND","0"],
    [56865,"2016-10-31T04:00:00","14.1","ND","ND","ND","1.9","2.0","ND","ND","ND","ND","ND","0"],
    [56866,"2016-10-31T05:00:00","11.4","ND","ND","ND","1.9","2.0","ND","ND","ND","ND","ND","0"],
    [56867,"2016-10-31T06:00:00","15.8","ND","ND","ND","2.6","2.0","ND","ND","ND","ND","ND","0"],
    [56868,"2016-10-31T07:00:00","26.9","ND","ND","ND","3.6","2.2","ND","ND","ND","ND","ND","0"],
    [56869,"2016-10-31T08:00:00","29.2","ND","ND","ND","4.2","4.3","ND","ND","ND","ND","ND","0"],
    [56870,"2016-10-31T09:00:00","29.6","ND","ND","ND","7.4","3.9","ND","ND","ND","ND","ND","0"],
    [56871,"2016-10-31T10:00:00","15.8","ND","ND","ND","18.1","2.2","ND","ND","ND","ND","ND","0"],
    [56872,"2016-10-31T11:00:00","11.7","ND","ND","ND","37.2","1.6","ND","ND","ND","ND","ND","0"],
    [56873,"2016-10-31T12:00:00","20","ND","ND","ND","54.1","1.4","ND","ND","ND","ND","ND","0"],
    [56874,"2016-10-31T13:00:00","ND","ND","ND","ND","66.1","1.2","ND","ND","ND","ND","ND","0"],
    [56875,"2016-10-31T14:00:00","1.1","ND","ND","ND","17.7","0.9","ND","ND","ND","ND","ND","5.08"],
    [56876,"2016-10-31T15:00:00","11.4","ND","ND","ND","16.9","0.8","ND","ND","ND","ND","ND","1.02"],
    [56877,"2016-10-31T16:00:00","6.2","ND","ND","ND","18.1","0.7","ND","ND","ND","ND","ND","0"],
    [56878,"2016-10-31T17:00:00","ND","ND","ND","ND","14.6","0.9","ND","ND","ND","ND","ND","0"],
    [56879,"2016-10-31T18:00:00","6","ND","ND","ND","10.3","0.7","ND","ND","ND","ND","ND","0"],
    [56880,"2016-10-31T19:00:00","49.8","ND","ND","ND","3.2","1.2","ND","ND","ND","ND","ND","2.79"],
    [56881,"2016-10-31T20:00:00","35.7","ND","ND","ND","2.2","0.9","ND","ND","ND","ND","ND","0.76"],
    [56882,"2016-10-31T21:00:00","6","ND","ND","ND","2.8","0.9","ND","ND","ND","ND","ND","0.25"],
    [56883,"2016-10-31T22:00:00","14.5","ND","ND","ND","3.1","0.9","ND","ND","ND","ND","ND","0"],
    [56884,"2016-10-31T23:00:00","14.6","ND","ND","ND","3.4","2.4","ND","ND","ND","ND","ND","0"],
    [56885,"2016-11-01T00:00:00","10.8","ND","ND","ND","2.9","1.3","ND","ND","ND","ND","ND","0"],
    [56886,"2016-11-01T01:00:00","12.2","ND","ND","ND","2.9","1.1","ND","ND","ND","ND","ND","0"],
    [56887,"2016-11-01T02:00:00","5.8","ND","ND","ND","2.1","1.2","ND","ND","ND","ND","ND","0"],
    [56888,"2016-11-01T03:00:00","11","ND","ND","ND","2.7","1.8","ND","ND","ND","ND","ND","0"],
    [56889,"2016-11-01T04:00:00","16.8","ND","ND","ND","3.7","2.6","ND","ND","ND","ND","ND","0"],
    [56890,"2016-11-01T05:00:00","17.6","ND","ND","ND","3.6","1.6","ND","ND","ND","ND","ND","0"],
    [56891,"2016-11-01T06:00:00","18.1","ND","ND","ND","4.5","2.9","ND","ND","ND","ND","ND","0"],
    [56892,"2016-11-01T07:00:00","23.5","ND","ND","ND","4.5","7.6","ND","ND","ND","ND","ND","0"],
    [56893,"2016-11-01T08:00:00","32.4","ND","ND","ND","4.7","6.1","ND","ND","ND","ND","ND","0"],
    [56894,"2016-11-01T09:00:00","33.8","ND","ND","ND","8.8","3.8","ND","ND","ND","ND","ND","0"],
    [56895,"2016-11-01T10:00:00","26.1","ND","ND","ND","23.8","2.9","ND","ND","ND","ND","ND","0"],
    [56896,"2016-11-01T11:00:00","14.1","ND","ND","ND","47.4","1.6","ND","ND","ND","ND","ND","0"],
    [56897,"2016-11-01T12:00:00","8.3","ND","ND","ND","51.1","1.5","ND","ND","ND","ND","ND","0"],
    [56898,"2016-11-01T13:00:00","13.5","ND","ND","ND","66.2","1.0","ND","ND","ND","ND","ND","0"],
    [56899,"2016-11-01T14:00:00","13.7","ND","ND","ND","76.8","1.4","ND","ND","ND","ND","ND","0"],
    [56900,"2016-11-01T15:00:00","21.9","ND","ND","ND","69.2","1.1","ND","ND","ND","ND","ND","0"],
    [56901,"2016-11-01T16:00:00","14.7","ND","ND","ND","76.2","1.4","ND","ND","ND","ND","ND","0"],
    [56902,"2016-11-01T17:00:00","1.1","ND","ND","ND","41.4","1.1","ND","ND","ND","ND","ND","0"],
    [56903,"2016-11-01T18:00:00","ND","ND","ND","ND","15.0","0.7","ND","ND","ND","ND","ND","0"],
    [56904,"2016-11-01T19:00:00","0.3","ND","ND","ND","4.3","1.1","ND","ND","ND","ND","ND","0"],
    [56905,"2016-11-01T20:00:00","6","ND","ND","ND","6.2","0.9","ND","ND","ND","ND","ND","0"],
    [56906,"2016-11-01T21:00:00","37.4","ND","ND","ND","14.4","1.0","ND","ND","ND","ND","ND","0"],
    [56907,"2016-11-01T22:00:00","52.3","ND","ND","ND","7.9","1.2","ND","ND","ND","ND","ND","0"],
    [56908,"2016-11-01T23:00:00","29.5","ND","ND","ND","4.1","1.1","ND","ND","ND","ND","ND","0"],
    [56909,"2016-11-02T00:00:00","23.8","ND","ND","ND","7.8","1.4","ND","ND","ND","ND","ND","0"],
    [56910,"2016-11-02T01:00:00","18.1","ND","ND","ND","7.4","0.5","ND","ND","ND","ND","ND","0"],
    [56911,"2016-11-02T02:00:00","13.7","ND","ND","ND","5.1","0.8","ND","ND","ND","ND","ND","0"],
    [56912,"2016-11-02T03:00:00","12.5","ND","ND","ND","3.3","1.5","ND","ND","ND","ND","ND","0"],
    [56913,"2016-11-02T04:00:00","18.1","ND","ND","ND","3.8","2.0","ND","ND","ND","ND","ND","0"],
    [56914,"2016-11-02T05:00:00","30.4","ND","ND","ND","4.8","3.2","ND","ND","ND","ND","ND","0"],
    [56915,"2016-11-02T06:00:00","20.8","ND","ND","ND","5.9","2.4","ND","ND","ND","ND","ND","0"],
    [56916,"2016-11-02T07:00:00","20.8","ND","ND","ND","4.0","2.6","ND","ND","ND","ND","ND","0"],
    [56917,"2016-11-02T08:00:00","24.9","ND","ND","ND","6.9","1.7","ND","ND","ND","ND","ND","0"],
    [56918,"2016-11-02T09:00:00","17","ND","ND","ND","15.7","1.5","ND","ND","ND","ND","ND","0"],
    [56919,"2016-11-02T10:00:00","9.6","ND","ND","ND","26.1","0.5","ND","ND","ND","ND","ND","0"],
    [56920,"2016-11-02T11:00:00","20.1","ND","ND","ND","26.7","0.8","ND","ND","ND","ND","ND","0"],
    [56921,"2016-11-02T12:00:00","35.6","ND","ND","ND","47.5","1.9","ND","ND","ND","ND","ND","0"],
    [56922,"2016-11-02T13:00:00","21.7","ND","ND","ND","59.6","0.8","ND","ND","ND","ND","ND","0"],
    [56923,"2016-11-02T14:00:00","2","ND","ND","ND","53.8","0.9","ND","ND","ND","ND","ND","0"],
    [56924,"2016-11-02T15:00:00","7.9","ND","ND","ND","50.2","1.3","ND","ND","ND","ND","ND","0"],
    [56925,"2016-11-02T16:00:00","2.2","ND","ND","ND","34.3","1.2","ND","ND","ND","ND","ND","0"],
    [56926,"2016-11-02T17:00:00","6.5","ND","ND","ND","23.8","1.3","ND","ND","ND","ND","ND","0"],
    [56927,"2016-11-02T18:00:00","ND","ND","ND","ND","10.0","0.3","ND","ND","ND","ND","ND","0"],
    [56928,"2016-11-02T19:00:00","ND","ND","ND","ND","7.3","0.6","ND","ND","ND","ND","ND","0"],
    [56929,"2016-11-02T20:00:00","7.7","ND","ND","ND","2.8","1.2","ND","ND","ND","ND","ND","0"],
    [56930,"2016-11-02T21:00:00","31.6","ND","ND","ND","2.5","1.3","ND","ND","ND","ND","ND","0"],
    [56931,"2016-11-02T22:00:00","44","ND","ND","ND","3.0","1.4","ND","ND","ND","ND","ND","0"],
    [56932,"2016-11-02T23:00:00","37.5","ND","ND","ND","2.6","1.2","ND","ND","ND","ND","ND","0"],
    [56933,"2016-11-03T00:00:00","22.9","ND","ND","ND","3.2","2.8","ND","ND","ND","ND","ND","0"],
    [56934,"2016-11-03T01:00:00","23.7","ND","ND","ND","3.0","3.2","ND","ND","ND","ND","ND","0"],
    [56935,"2016-11-03T02:00:00","16","ND","ND","ND","3.1","3.1","ND","ND","ND","ND","ND","0"],
    [56936,"2016-11-03T03:00:00","21","ND","ND","ND","2.9","2.6","ND","ND","ND","ND","ND","0"],
    [56937,"2016-11-03T04:00:00","24.7","ND","ND","ND","3.0","2.3","ND","ND","ND","ND","ND","0"],
    [56938,"2016-11-03T05:00:00","17.1","ND","ND","ND","2.6","2.5","ND","ND","ND","ND","ND","0"],
    [56939,"2016-11-03T06:00:00","14.3","ND","ND","ND","2.6","2.1","ND","ND","ND","ND","ND","0"],
    [56940,"2016-11-03T07:00:00","12.6","ND","ND","ND","2.8","1.0","ND","ND","ND","ND","ND","0"],
    [56941,"2016-11-03T08:00:00","20.2","ND","ND","ND","6.5","1.5","ND","ND","ND","ND","ND","0"],
    [56942,"2016-11-03T09:00:00","27.8","ND","ND","ND","16.7","1.4","ND","ND","ND","ND","ND","0"],
    [56943,"2016-11-03T10:00:00","21.5","ND","ND","ND","34.7","1.7","ND","ND","ND","ND","ND","0"],
    [56944,"2016-11-03T11:00:00","10.3","ND","ND","ND","39.9","1.5","ND","ND","ND","ND","ND","0"],
    [56945,"2016-11-03T12:00:00","0.9","ND","ND","ND","41.6","1.1","ND","ND","ND","ND","ND","0"],
    [56946,"2016-11-03T13:00:00","19.2","ND","ND","ND","36.5","0.7","ND","ND","ND","ND","ND","0"],
    [56947,"2016-11-03T14:00:00","16.6","ND","ND","ND","45.6","0.7","ND","ND","ND","ND","ND","0"],
    [56948,"2016-11-03T15:00:00","0.4","ND","ND","ND","18.4","0.8","ND","ND","ND","ND","ND","0"],
    [56949,"2016-11-03T16:00:00","2.2","ND","ND","ND","17.0","0.7","ND","ND","ND","ND","ND","0"],
    [56950,"2016-11-03T17:00:00","ND","ND","ND","ND","13.9","1.1","ND","ND","ND","ND","ND","0"],
    [56951,"2016-11-03T18:00:00","ND","ND","ND","ND","8.7","0.4","ND","ND","ND","ND","ND","0"],
    [56952,"2016-11-03T19:00:00","ND","ND","ND","ND","4.2","0.6","ND","ND","ND","ND","ND","0"],
    [56953,"2016-11-03T20:00:00","16.6","ND","ND","ND","3.2","0.9","ND","ND","ND","ND","ND","0"],
    [56954,"2016-11-03T21:00:00","33.7","ND","ND","ND","1.7","0.7","ND","ND","ND","ND","ND","0"],
    [56955,"2016-11-03T22:00:00","33.8","ND","ND","ND","2.0","1.3","ND","ND","ND","ND","ND","0"],
    [56956,"2016-11-03T23:00:00","28.6","ND","ND","ND","2.1","1.9","ND","ND","ND","ND","ND","0"],
    [56957,"2016-11-04T00:00:00","27.3","ND","ND","ND","2.2","1.7","ND","ND","ND","ND","ND","0"],
    [56958,"2016-11-04T01:00:00","19.1","ND","ND","ND","5.4","1.6","ND","ND","ND","ND","ND","0"],
    [56959,"2016-11-04T02:00:00","4.3","ND","ND","ND","4.9","2.4","ND","ND","ND","ND","ND","0"],
    [56960,"2016-11-04T03:00:00","134.8","ND","ND","ND","6.7","3.0","ND","ND","ND","ND","ND","0"],
    [56961,"2016-11-04T04:00:00","75.6","ND","ND","ND","9.2","2.7","ND","ND","ND","ND","ND","0"],
    [56962,"2016-11-04T05:00:00","13.8","ND","ND","ND","5.7","3.1","ND","ND","ND","ND","ND","0"],
    [56963,"2016-11-04T06:00:00","17","ND","ND","ND","3.1","2.6","ND","ND","ND","ND","ND","0"],
    [56964,"2016-11-04T07:00:00","20.7","ND","ND","ND","5.0","3.6","ND","ND","ND","ND","ND","0"],
    [56965,"2016-11-04T08:00:00","46.1","ND","ND","ND","5.1","4.8","ND","ND","ND","ND","ND","0"],
    [56966,"2016-11-04T09:00:00","31.5","ND","ND","ND","11.0","3.9","ND","ND","ND","ND","ND","0"],
    [56967,"2016-11-04T10:00:00","2.7","ND","ND","ND","17.6","1.4","ND","ND","ND","ND","ND","0"],
    [56968,"2016-11-04T11:00:00","5.4","ND","ND","ND","39.4","1.4","ND","ND","ND","ND","ND","0"],
    [56969,"2016-11-04T12:00:00","1.5","ND","ND","ND","59.8","0.9","ND","ND","ND","ND","ND","0"],
    [56970,"2016-11-04T13:00:00","8.5","ND","ND","ND","62.0","0.7","ND","ND","ND","ND","ND","0"],
    [56971,"2016-11-04T14:00:00","7","ND","ND","ND","58.4","0.6","ND","ND","ND","ND","ND","0"],
    [56972,"2016-11-04T15:00:00","9.3","ND","ND","ND","53.8","1.1","ND","ND","ND","ND","ND","0"],
    [56973,"2016-11-04T16:00:00","21.9","ND","ND","ND","26.5","0.5","ND","ND","ND","ND","ND","0"],
    [56974,"2016-11-04T17:00:00","11.6","ND","ND","ND","17.3","1.1","ND","ND","ND","ND","ND","0"],
    [56975,"2016-11-04T18:00:00","9.2","ND","ND","ND","7.2","1.2","ND","ND","ND","ND","ND","0"],
    [56976,"2016-11-04T19:00:00","21.5","ND","ND","ND","4.1","1.0","ND","ND","ND","ND","ND","0"],
    [56977,"2016-11-04T20:00:00","22.1","ND","ND","ND","3.1","1.6","ND","ND","ND","ND","ND","0"],
    [56978,"2016-11-04T21:00:00","14.3","ND","ND","ND","3.8","0.7","ND","ND","ND","ND","ND","0"],
    [56979,"2016-11-04T22:00:00","4.9","ND","ND","ND","14.9","0.6","ND","ND","ND","ND","ND","0"],
    [56980,"2016-11-04T23:00:00","2","ND","ND","ND","9.7","0.8","ND","ND","ND","ND","ND","0"],
    [56981,"2016-11-05T00:00:00","24.2","ND","ND","ND","3.8","3.7","ND","ND","ND","ND","ND","0"],
    [56982,"2016-11-05T01:00:00","52.7","ND","ND","ND","4.7","8.1","ND","ND","ND","ND","ND","0"],
    [56983,"2016-11-05T02:00:00","38.3","ND","ND","ND","3.3","2.3","ND","ND","ND","ND","ND","0"],
    [56984,"2016-11-05T03:00:00","22.4","ND","ND","ND","2.9","5.7","ND","ND","ND","ND","ND","0"],
    [56985,"2016-11-05T04:00:00","20.9","ND","ND","ND","3.2","3.7","ND","ND","ND","ND","ND","0"],
    [56986,"2016-11-05T05:00:00","17.4","ND","ND","ND","3.0","3.0","ND","ND","ND","ND","ND","0"],
    [56987,"2016-11-05T06:00:00","16","ND","ND","ND","3.1","2.2","ND","ND","ND","ND","ND","0"],
    [56988,"2016-11-05T07:00:00","19.4","ND","ND","ND","3.5","2.0","ND","ND","ND","ND","ND","0"],
    [56989,"2016-11-05T08:00:00","21.7","ND","ND","ND","6.0","1.8","ND","ND","ND","ND","ND","0"],
    [56990,"2016-11-05T09:00:00","26.8","ND","ND","ND","11.3","1.1","ND","ND","ND","ND","ND","0"],
    [56991,"2016-11-05T10:00:00","35.9","ND","ND","ND","35.2","1.7","ND","ND","ND","ND","ND","0"],
    [56992,"2016-11-05T11:00:00","13.1","ND","ND","ND","51.9","1.2","ND","ND","ND","ND","ND","0"],
    [56993,"2016-11-05T12:00:00","11.5","ND","ND","ND","65.2","2.0","ND","ND","ND","ND","ND","0"],
    [56994,"2016-11-05T13:00:00","20.3","ND","ND","ND","87.4","1.3","ND","ND","ND","ND","ND","0"],
    [56995,"2016-11-05T14:00:00","17.7","ND","ND","ND","84.0","1.3","ND","ND","ND","ND","ND","0"],
    [56996,"2016-11-05T15:00:00","11","ND","ND","ND","74.2","2.0","ND","ND","ND","ND","ND","0"],
    [56997,"2016-11-05T16:00:00","8.8","ND","ND","ND","35.2","0.7","ND","ND","ND","ND","ND","0"],
    [56998,"2016-11-05T17:00:00","9.7","ND","ND","ND","35.5","1.2","ND","ND","ND","ND","ND","0"],
    [56999,"2016-11-05T18:00:00","1","ND","ND","ND","33.2","1.0","ND","ND","ND","ND","ND","0"],
    [57000,"2016-11-05T19:00:00","1.1","ND","ND","ND","18.0","1.0","ND","ND","ND","ND","ND","0"],
    [57001,"2016-11-05T20:00:00","6.5","ND","ND","ND","4.5","1.2","ND","ND","ND","ND","ND","0"],
    [57002,"2016-11-05T21:00:00","23.4","ND","ND","ND","2.5","2.5","ND","ND","ND","ND","ND","0"],
    [57003,"2016-11-05T22:00:00","26.5","ND","ND","ND","2.5","2.4","ND","ND","ND","ND","ND","0"],
    [57004,"2016-11-05T23:00:00","19.7","ND","ND","ND","2.5","2.6","ND","ND","ND","ND","ND","0"],
    [57005,"2016-11-06T00:00:00","11.1","ND","ND","ND","2.0","1.8","ND","ND","ND","ND","ND","0"],
    [57006,"2016-11-06T01:00:00","6.3","ND","ND","ND","3.1","2.5","ND","ND","ND","ND","ND","0"],
    [57007,"2016-11-06T02:00:00","25","ND","ND","ND","4.1","2.7","ND","ND","ND","ND","ND","0"],
    [57008,"2016-11-06T03:00:00","22","ND","ND","ND","5.5","2.2","ND","ND","ND","ND","ND","0"],
    [57009,"2016-11-06T04:00:00","27.6","ND","ND","ND","4.5","1.9","ND","ND","ND","ND","ND","2.03"],
    [57010,"2016-11-06T05:00:00","23.3","ND","ND","ND","2.7","1.5","ND","ND","ND","ND","ND","1.02"],
    [57011,"2016-11-06T06:00:00","21.5","ND","ND","ND","1.9","1.9","ND","ND","ND","ND","ND","0.25"],
    [57012,"2016-11-06T07:00:00","15.1","ND","ND","ND","2.4","2.1","ND","ND","ND","ND","ND","0.51"],
    [57013,"2016-11-06T08:00:00","13.9","ND","ND","ND","2.4","2.5","ND","ND","ND","ND","ND","0"],
    [57014,"2016-11-06T09:00:00","21.8","ND","ND","ND","7.4","2.0","ND","ND","ND","ND","ND","0"],
    [57015,"2016-11-06T10:00:00","8.1","ND","ND","ND","19.3","1.7","ND","ND","ND","ND","ND","0"],
    [57016,"2016-11-06T11:00:00","4.7","ND","ND","ND","26.2","1.5","ND","ND","ND","ND","ND","0"],
    [57017,"2016-11-06T12:00:00","2.2","ND","ND","ND","38.7","1.3","ND","ND","ND","ND","ND","0"],
    [57018,"2016-11-06T13:00:00","2.7","ND","ND","ND","56.8","1.1","ND","ND","ND","ND","ND","0"],
    [57019,"2016-11-06T14:00:00","1.1","ND","ND","ND","43.5","1.3","ND","ND","ND","ND","ND","0"],
    [57020,"2016-11-06T15:00:00","3.6","ND","ND","ND","37.4","0.9","ND","ND","ND","ND","ND","0"],
    [57021,"2016-11-06T16:00:00","3.4","ND","ND","ND","23.6","1.0","ND","ND","ND","ND","ND","0"],
    [57022,"2016-11-06T17:00:00","ND","ND","ND","ND","18.4","1.0","ND","ND","ND","ND","ND","0"],
    [57023,"2016-11-06T18:00:00","ND","ND","ND","ND","14.0","0.9","ND","ND","ND","ND","ND","0"],
    [57024,"2016-11-06T19:00:00","ND","ND","ND","ND","8.7","1.1","ND","ND","ND","ND","ND","0"],
    [57025,"2016-11-06T20:00:00","14.1","ND","ND","ND","12.0","1.0","ND","ND","ND","ND","ND","0"],
    [57026,"2016-11-06T21:00:00","7.8","ND","ND","ND","19.1","1.4","ND","ND","ND","ND","ND","0"],
    [57027,"2016-11-06T22:00:00","13.4","ND","ND","ND","13.4","1.4","ND","ND","ND","ND","ND","0"],
    [57028,"2016-11-06T23:00:00","25.4","ND","ND","ND","11.1","0.9","ND","ND","ND","ND","ND","0"],
    [57029,"2016-11-07T00:00:00","18","ND","ND","ND","6.1","1.4","ND","ND","ND","ND","ND","0"],
    [57030,"2016-11-07T01:00:00","24.2","ND","ND","ND","4.2","2.6","ND","ND","ND","ND","ND","0"],
    [57031,"2016-11-07T02:00:00","42","ND","ND","ND","3.1","3.1","ND","ND","ND","ND","ND","0"],
    [57032,"2016-11-07T03:00:00","34.3","ND","ND","ND","3.4","2.6","ND","ND","ND","ND","ND","0"],
    [57033,"2016-11-07T04:00:00","28.7","ND","ND","ND","3.7","2.2","ND","ND","ND","ND","ND","0"],
    [57034,"2016-11-07T05:00:00","27.6","ND","ND","ND","3.3","3.2","ND","ND","ND","ND","ND","0.25"],
    [57035,"2016-11-07T06:00:00","28.4","ND","ND","ND","3.5","3.6","ND","ND","ND","ND","ND","0"],
    [57036,"2016-11-07T07:00:00","29.5","ND","ND","ND","4.2","3.5","ND","ND","ND","ND","ND","0"],
    [57037,"2016-11-07T08:00:00","29.2","ND","ND","ND","5.8","2.8","ND","ND","ND","ND","ND","0"],
    [57038,"2016-11-07T09:00:00","24","ND","ND","ND","12.8","1.7","ND","ND","ND","ND","ND","0"],
    [57039,"2016-11-07T10:00:00","16.5","ND","ND","ND","38.5","1.1","ND","ND","ND","ND","ND","0"],
    [57040,"2016-11-07T11:00:00","6.1","ND","ND","ND","60.2","0.9","ND","ND","ND","ND","ND","0"],
    [57041,"2016-11-07T12:00:00","2.1","ND","ND","ND","67.2","0.9","ND","ND","ND","ND","ND","0"],
    [57042,"2016-11-07T13:00:00","3.8","ND","ND","ND","67.1","1.1","ND","ND","ND","ND","ND","0"],
    [57043,"2016-11-07T14:00:00","2.3","ND","ND","ND","27.6","0.9","ND","ND","ND","ND","ND","0"],
    [57044,"2016-11-07T15:00:00","ND","ND","ND","ND","19.8","1.3","ND","ND","ND","ND","ND","0.25"],
    [57045,"2016-11-07T16:00:00","27.1","ND","ND","ND","15.1","1.6","ND","ND","ND","ND","ND","0.76"],
    [57046,"2016-11-07T17:00:00","24","ND","ND","ND","28.4","1.2","ND","ND","ND","ND","ND","0.25"],
    [57047,"2016-11-07T18:00:00","6.2","ND","ND","ND","27.2","0.8","ND","ND","ND","ND","ND","0"],
    [57048,"2016-11-07T19:00:00","5","ND","ND","ND","8.1","1.0","ND","ND","ND","ND","ND","0"],
    [57049,"2016-11-07T20:00:00","15.6","ND","ND","ND","4.6","1.2","ND","ND","ND","ND","ND","0"],
    [57050,"2016-11-07T21:00:00","23","ND","ND","ND","6.3","1.8","ND","ND","ND","ND","ND","0"],
    [57051,"2016-11-07T22:00:00","3.6","ND","ND","ND","3.3","3.7","ND","ND","ND","ND","ND","0"],
    [57052,"2016-11-07T23:00:00","4.3","ND","ND","ND","4.0","2.9","ND","ND","ND","ND","ND","0"],
    [57053,"2016-11-08T00:00:00","9.4","ND","ND","ND","8.8","1.4","ND","ND","ND","ND","ND","0"],
    [57054,"2016-11-08T01:00:00","6.7","ND","ND","ND","6.0","1.7","ND","ND","ND","ND","ND","0"],
    [57055,"2016-11-08T02:00:00","11","ND","ND","ND","3.8","1.8","ND","ND","ND","ND","ND","0"],
    [57056,"2016-11-08T03:00:00","10.3","ND","ND","ND","3.5","1.5","ND","ND","ND","ND","ND","0"],
    [57057,"2016-11-08T04:00:00","7.2","ND","ND","ND","3.6","1.8","ND","ND","ND","ND","ND","0"],
    [57058,"2016-11-08T05:00:00","11.6","ND","ND","ND","3.7","1.4","ND","ND","ND","ND","ND","0"],
    [57059,"2016-11-08T06:00:00","14.5","ND","ND","ND","2.9","1.6","ND","ND","ND","ND","ND","0"],
    [57060,"2016-11-08T07:00:00","17.4","ND","ND","ND","3.2","1.1","ND","ND","ND","ND","ND","0"],
    [57061,"2016-11-08T08:00:00","23.4","ND","ND","ND","4.9","1.7","ND","ND","ND","ND","ND","0"],
    [57062,"2016-11-08T09:00:00","30","ND","ND","ND","6.3","1.3","ND","ND","ND","ND","ND","0"],
    [57063,"2016-11-08T10:00:00","31.5","ND","ND","ND","30.2","2.1","ND","ND","ND","ND","ND","0"],
    [57064,"2016-11-08T11:00:00","14.9","ND","ND","ND","61.6","1.8","ND","ND","ND","ND","ND","0"],
    [57065,"2016-11-08T12:00:00","2.5","ND","ND","ND","64.1","1.0","ND","ND","ND","ND","ND","0"],
    [57066,"2016-11-08T13:00:00","ND","ND","ND","ND","62.5","0.7","ND","ND","ND","ND","ND","0"],
    [57067,"2016-11-08T14:00:00","3.6","ND","ND","ND","66.4","1.7","ND","ND","ND","ND","ND","0"],
    [57068,"2016-11-08T15:00:00","21.4","ND","ND","ND","81.4","1.0","ND","ND","ND","ND","ND","0"],
    [57069,"2016-11-08T16:00:00","24.6","ND","ND","ND","61.6","1.2","ND","ND","ND","ND","ND","0"],
    [57070,"2016-11-08T17:00:00","5.8","ND","ND","ND","31.4","0.6","ND","ND","ND","ND","ND","0"],
    [57071,"2016-11-08T18:00:00","ND","ND","ND","ND","21.0","0.5","ND","ND","ND","ND","ND","0"],
    [57072,"2016-11-08T19:00:00","ND","ND","ND","ND","14.4","1.0","ND","ND","ND","ND","ND","0"],
    [57073,"2016-11-08T20:00:00","15.4","ND","ND","ND","3.9","1.8","ND","ND","ND","ND","ND","0"],
    [57074,"2016-11-08T21:00:00","41.2","ND","ND","ND","2.3","1.2","ND","ND","ND","ND","ND","0"],
    [57075,"2016-11-08T22:00:00","35.8","ND","ND","ND","2.2","1.5","ND","ND","ND","ND","ND","0"],
    [57076,"2016-11-08T23:00:00","20.6","ND","ND","ND","1.9","1.6","ND","ND","ND","ND","ND","0"],
    [57077,"2016-11-09T00:00:00","11.3","ND","ND","ND","2.0","1.7","ND","ND","ND","ND","ND","0"],
    [57078,"2016-11-09T01:00:00","15.3","ND","ND","ND","2.3","2.6","ND","ND","ND","ND","ND","0"],
    [57079,"2016-11-09T02:00:00","17.7","ND","ND","ND","3.1","2.8","ND","ND","ND","ND","ND","0"],
    [57080,"2016-11-09T03:00:00","15.6","ND","ND","ND","3.5","2.8","ND","ND","ND","ND","ND","0"],
    [57081,"2016-11-09T04:00:00","9","ND","ND","ND","4.7","1.9","ND","ND","ND","ND","ND","0"],
    [57082,"2016-11-09T05:00:00","12.4","ND","ND","ND","2.7","2.3","ND","ND","ND","ND","ND","0"],
    [57083,"2016-11-09T06:00:00","15.7","ND","ND","ND","2.2","2.0","ND","ND","ND","ND","ND","0.25"],
    [57084,"2016-11-09T07:00:00","26.6","ND","ND","ND","2.7","1.5","ND","ND","ND","ND","ND","1.27"],
    [57085,"2016-11-09T08:00:00","26.7","ND","ND","ND","3.7","1.7","ND","ND","ND","ND","ND","0.51"],
    [57086,"2016-11-09T09:00:00","21.8","ND","ND","ND","9.7","0.9","ND","ND","ND","ND","ND","0"],
    [57087,"2016-11-09T10:00:00","14.6","ND","ND","ND","29.6","1.0","ND","ND","ND","ND","ND","0"],
    [57088,"2016-11-09T11:00:00","5","ND","ND","ND","44.5","1.7","ND","ND","ND","ND","ND","0"],
    [57089,"2016-11-09T12:00:00","12.1","ND","ND","ND","77.7","0.9","ND","ND","ND","ND","ND","0"],
    [57090,"2016-11-09T13:00:00","6.4","ND","ND","ND","83.5","0.7","ND","ND","ND","ND","ND","0"],
    [57091,"2016-11-09T14:00:00","11.2","ND","ND","ND","83.5","1.4","ND","ND","ND","ND","ND","0"],
    [57092,"2016-11-09T15:00:00","10.9","ND","ND","ND","49.2","0.7","ND","ND","ND","ND","ND","0"],
    [57093,"2016-11-09T16:00:00","10.1","ND","ND","ND","30.8","0.5","ND","ND","ND","ND","ND","0"],
    [57094,"2016-11-09T17:00:00","11.1","ND","ND","ND","22.6","0.7","ND","ND","ND","ND","ND","0"],
    [57095,"2016-11-09T18:00:00","ND","ND","ND","ND","11.5","0.6","ND","ND","ND","ND","ND","0"],
    [57096,"2016-11-09T19:00:00","ND","ND","ND","ND","3.2","0.3","ND","ND","ND","ND","ND","0"],
    [57097,"2016-11-09T20:00:00","7.3","ND","ND","ND","3.8","0.8","ND","ND","ND","ND","ND","0"],
    [57098,"2016-11-09T21:00:00","30.5","ND","ND","ND","2.7","1.9","ND","ND","ND","ND","ND","0"],
    [57099,"2016-11-09T22:00:00","38.3","ND","ND","ND","3.4","2.3","ND","ND","ND","ND","ND","0"],
    [57100,"2016-11-09T23:00:00","37.4","ND","ND","ND","3.0","3.5","ND","ND","ND","ND","ND","0"],
    [57101,"2016-11-10T00:00:00","21.4","ND","ND","ND","2.7","2.7","ND","ND","ND","ND","ND","0"],
    [57102,"2016-11-10T01:00:00","12.5","ND","ND","ND","2.7","3.1","ND","ND","ND","ND","ND","0"],
    [57103,"2016-11-10T02:00:00","0.4","ND","ND","ND","2.7","3.0","ND","ND","ND","ND","ND","0"],
    [57104,"2016-11-10T03:00:00","12.9","ND","ND","ND","2.2","1.6","ND","ND","ND","ND","ND","0"],
    [57105,"2016-11-10T04:00:00","17","ND","ND","ND","2.4","1.4","ND","ND","ND","ND","ND","0"],
    [57106,"2016-11-10T05:00:00","17.8","ND","ND","ND","2.8","3.6","ND","ND","ND","ND","ND","0"],
    [57107,"2016-11-10T06:00:00","13.8","ND","ND","ND","3.1","2.5","ND","ND","ND","ND","ND","0"],
    [57108,"2016-11-10T07:00:00","22.1","ND","ND","ND","4.1","2.7","ND","ND","ND","ND","ND","0"],
    [57109,"2016-11-10T08:00:00","28.7","ND","ND","ND","4.9","2.8","ND","ND","ND","ND","ND","0"],
    [57110,"2016-11-10T09:00:00","54","ND","ND","ND","6.6","2.6","ND","ND","ND","ND","ND","0"],
    [57111,"2016-11-10T10:00:00","28.7","ND","ND","ND","14.8","2.1","ND","ND","ND","ND","ND","0"],
    [57112,"2016-11-10T11:00:00","16.7","ND","ND","ND","26.3","1.9","ND","ND","ND","ND","ND","0"],
    [57113,"2016-11-10T12:00:00","10.1","ND","ND","ND","35.2","1.9","ND","ND","ND","ND","ND","0"],
    [57114,"2016-11-10T13:00:00","11.3","ND","ND","ND","30.3","1.8","ND","ND","ND","ND","ND","0"],
    [57115,"2016-11-10T14:00:00","6.6","ND","ND","ND","24.5","1.1","ND","ND","ND","ND","ND","0"],
    [57116,"2016-11-10T15:00:00","ND","ND","ND","ND","14.4","0.7","ND","ND","ND","ND","ND","0"],
    [57117,"2016-11-10T16:00:00","ND","ND","ND","ND","9.6","0.8","ND","ND","ND","ND","ND","0"],
    [57118,"2016-11-10T17:00:00","12.3","ND","ND","ND","4.9","1.1","ND","ND","ND","ND","ND","0"],
    [57119,"2016-11-10T18:00:00","16.3","ND","ND","ND","6.9","0.8","ND","ND","ND","ND","ND","0"],
    [57120,"2016-11-10T19:00:00","8.4","ND","ND","ND","6.3","0.7","ND","ND","ND","ND","ND","0"],
    [57121,"2016-11-10T20:00:00","18.8","ND","ND","ND","4.4","2.3","ND","ND","ND","ND","ND","0"],
    [57122,"2016-11-10T21:00:00","31","ND","ND","ND","4.2","2.5","ND","ND","ND","ND","ND","0"],
    [57123,"2016-11-10T22:00:00","20.4","ND","ND","ND","3.9","2.8","ND","ND","ND","ND","ND","0"],
    [57124,"2016-11-10T23:00:00","33.4","ND","ND","ND","4.3","3.4","ND","ND","ND","ND","ND","0"],
    [57125,"2016-11-11T00:00:00","25","ND","ND","ND","4.9","2.9","ND","ND","ND","ND","ND","0"],
    [57126,"2016-11-11T01:00:00","10.8","ND","ND","ND","5.0","2.7","ND","ND","ND","ND","ND","0.51"],
    [57127,"2016-11-11T02:00:00","13.9","ND","ND","ND","2.9","2.1","ND","ND","ND","ND","ND","4.06"],
    [57128,"2016-11-11T03:00:00","9.4","ND","ND","ND","2.0","1.6","ND","ND","ND","ND","ND","13.97"],
    [57129,"2016-11-11T04:00:00","10","ND","ND","ND","1.9","1.9","ND","ND","ND","ND","ND","5.59"],
    [57130,"2016-11-11T05:00:00","7.1","ND","ND","ND","1.9","1.9","ND","ND","ND","ND","ND","6.35"],
    [57131,"2016-11-11T06:00:00","2.8","ND","ND","ND","2.6","0.9","ND","ND","ND","ND","ND","4.57"],
    [57132,"2016-11-11T07:00:00","3.3","ND","ND","ND","2.8","1.9","ND","ND","ND","ND","ND","0.76"],
    [57133,"2016-11-11T08:00:00","2.3","ND","ND","ND","3.1","4.3","ND","ND","ND","ND","ND","0.51"],
    [57134,"2016-11-11T09:00:00","5.7","ND","ND","ND","2.5","4.1","ND","ND","ND","ND","ND","0"],
    [57135,"2016-11-11T10:00:00","10","ND","ND","ND","3.2","2.7","ND","ND","ND","ND","ND","0"],
    [57136,"2016-11-11T11:00:00","22.7","ND","ND","ND","8.2","4.7","ND","ND","ND","ND","ND","0"],
    [57137,"2016-11-11T12:00:00","12.2","ND","ND","ND","21.9","2.6","ND","ND","ND","ND","ND","0"],
    [57138,"2016-11-11T13:00:00","0.8","ND","ND","ND","18.0","2.7","ND","ND","ND","ND","ND","0.25"],
    [57139,"2016-11-11T14:00:00","3.1","ND","ND","ND","12.8","2.2","ND","ND","ND","ND","ND","1.78"],
    [57140,"2016-11-11T15:00:00","11.9","ND","ND","ND","6.7","2.2","ND","ND","ND","ND","ND","2.03"],
    [57141,"2016-11-11T16:00:00","9.5","ND","ND","ND","12.7","3.2","ND","ND","ND","ND","ND","0.51"],
    [57142,"2016-11-11T17:00:00","16.2","ND","ND","ND","7.4","5.2","ND","ND","ND","ND","ND","0.25"],
    [57143,"2016-11-11T18:00:00","10.8","ND","ND","ND","10.7","4.4","ND","ND","ND","ND","ND","0"],
    [57144,"2016-11-11T19:00:00","4.3","ND","ND","ND","4.0","2.5","ND","ND","ND","ND","ND","0"],
    [57145,"2016-11-11T20:00:00","11.5","ND","ND","ND","4.2","2.0","ND","ND","ND","ND","ND","0"],
    [57146,"2016-11-11T21:00:00","20.4","ND","ND","ND","4.9","2.4","ND","ND","ND","ND","ND","0"],
    [57147,"2016-11-11T22:00:00","26.9","ND","ND","ND","5.2","1.6","ND","ND","ND","ND","ND","0"],
    [57148,"2016-11-11T23:00:00","22.8","ND","ND","ND","5.0","1.6","ND","ND","ND","ND","ND","0"],
    [57149,"2016-11-12T00:00:00","25.6","ND","ND","ND","4.0","1.8","ND","ND","ND","ND","ND","0"],
    [57150,"2016-11-12T01:00:00","21.6","ND","ND","ND","4.3","2.2","ND","ND","ND","ND","ND","0"],
    [57151,"2016-11-12T02:00:00","9.4","ND","ND","ND","4.2","3.0","ND","ND","ND","ND","ND","0"],
    [57152,"2016-11-12T03:00:00","7.6","ND","ND","ND","3.3","1.1","ND","ND","ND","ND","ND","0.25"],
    [57153,"2016-11-12T04:00:00","11.7","ND","ND","ND","3.3","1.3","ND","ND","ND","ND","ND","0"],
    [57154,"2016-11-12T05:00:00","22.2","ND","ND","ND","3.3","1.1","ND","ND","ND","ND","ND","0"],
    [57155,"2016-11-12T06:00:00","32.4","ND","ND","ND","4.0","3.8","ND","ND","ND","ND","ND","0"],
    [57156,"2016-11-12T07:00:00","24.3","ND","ND","ND","6.2","9.7","ND","ND","ND","ND","ND","0"],
    [57157,"2016-11-12T08:00:00","35.8","ND","ND","ND","7.2","12.2","ND","ND","ND","ND","ND","0"],
    [57158,"2016-11-12T09:00:00","52.4","ND","ND","ND","7.0","8.4","ND","ND","ND","ND","ND","0"],
    [57159,"2016-11-12T10:00:00","41","ND","ND","ND","16.5","5.1","ND","ND","ND","ND","ND","0"],
    [57160,"2016-11-12T11:00:00","20.9","ND","ND","ND","33.8","3.1","ND","ND","ND","ND","ND","0"],
    [57161,"2016-11-12T12:00:00","8.6","ND","ND","ND","43.9","2.0","ND","ND","ND","ND","ND","0"],
    [57162,"2016-11-12T13:00:00","12.4","ND","ND","ND","61.4","1.5","ND","ND","ND","ND","ND","0"],
    [57163,"2016-11-12T14:00:00","21.1","ND","ND","ND","78.2","1.3","ND","ND","ND","ND","ND","0"],
    [57164,"2016-11-12T15:00:00","20.4","ND","ND","ND","62.9","1.7","ND","ND","ND","ND","ND","0"],
    [57165,"2016-11-12T16:00:00","9.2","ND","ND","ND","26.2","0.7","ND","ND","ND","ND","ND","0"],
    [57166,"2016-11-12T17:00:00","ND","ND","ND","ND","23.7","0.9","ND","ND","ND","ND","ND","0"],
    [57167,"2016-11-12T18:00:00","ND","ND","ND","ND","9.3","0.8","ND","ND","ND","ND","ND","0"],
    [57168,"2016-11-12T19:00:00","4.3","ND","ND","ND","4.6","0.6","ND","ND","ND","ND","ND","0"],
    [57169,"2016-11-12T20:00:00","20.6","ND","ND","ND","2.4","0.5","ND","ND","ND","ND","ND","0"],
    [57170,"2016-11-12T21:00:00","31.7","ND","ND","ND","3.1","2.1","ND","ND","ND","ND","ND","0"],
    [57171,"2016-11-12T22:00:00","31.7","ND","ND","ND","2.7","2.2","ND","ND","ND","ND","ND","0"],
    [57172,"2016-11-12T23:00:00","17.7","ND","ND","ND","2.5","1.5","ND","ND","ND","ND","ND","0"],
    [57173,"2016-11-13T00:00:00","15.5","ND","ND","ND","3.4","1.4","ND","ND","ND","ND","ND","3.3"],
    [57174,"2016-11-13T01:00:00","2.9","ND","ND","ND","10.2","0.8","ND","ND","ND","ND","ND","0.25"],
    [57175,"2016-11-13T02:00:00","5.7","ND","ND","ND","9.7","0.7","ND","ND","ND","ND","ND","0"],
    [57176,"2016-11-13T03:00:00","16.1","ND","ND","ND","7.6","0.4","ND","ND","ND","ND","ND","0.25"],
    [57177,"2016-11-13T04:00:00","11.7","ND","ND","ND","6.6","1.2","ND","ND","ND","ND","ND","0.25"],
    [57178,"2016-11-13T05:00:00","5.8","ND","ND","ND","3.3","1.2","ND","ND","ND","ND","ND","0"],
    [57179,"2016-11-13T06:00:00","17","ND","ND","ND","3.0","3.3","ND","ND","ND","ND","ND","0"],
    [57180,"2016-11-13T07:00:00","6.3","ND","ND","ND","3.1","1.5","ND","ND","ND","ND","ND","0"],
    [57181,"2016-11-13T08:00:00","14.1","ND","ND","ND","7.2","2.0","ND","ND","ND","ND","ND","0"],
    [57182,"2016-11-13T09:00:00","9.6","ND","ND","ND","13.2","1.2","ND","ND","ND","ND","ND","0"],
    [57183,"2016-11-13T10:00:00","20","ND","ND","ND","24.2","0.9","ND","ND","ND","ND","ND","0"],
    [57184,"2016-11-13T11:00:00","3.4","ND","ND","ND","49.5","1.2","ND","ND","ND","ND","ND","0"],
    [57185,"2016-11-13T12:00:00","ND","ND","ND","ND","61.9","1.0","ND","ND","ND","ND","ND","0"],
    [57186,"2016-11-13T13:00:00","2.7","ND","ND","ND","63.5","1.3","ND","ND","ND","ND","ND","0"],
    [57187,"2016-11-13T14:00:00","16.4","ND","ND","ND","68.7","1.0","ND","ND","ND","ND","ND","0"],
    [57188,"2016-11-13T15:00:00","17.3","ND","ND","ND","76.7","1.2","ND","ND","ND","ND","ND","0"],
    [57189,"2016-11-13T16:00:00","16.7","ND","ND","ND","82.6","1.2","ND","ND","ND","ND","ND","0"],
    [57190,"2016-11-13T17:00:00","7.8","ND","ND","ND","35.1","0.7","ND","ND","ND","ND","ND","0"],
    [57191,"2016-11-13T18:00:00","ND","ND","ND","ND","20.2","1.4","ND","ND","ND","ND","ND","0"],
    [57192,"2016-11-13T19:00:00","ND","ND","ND","ND","11.2","0.9","ND","ND","ND","ND","ND","0"],
    [57193,"2016-11-13T20:00:00","2","ND","ND","ND","3.7","0.9","ND","ND","ND","ND","ND","0"],
    [57194,"2016-11-13T21:00:00","17.6","ND","ND","ND","3.7","1.1","ND","ND","ND","ND","ND","0"],
    [57195,"2016-11-13T22:00:00","34.8","ND","ND","ND","2.7","1.6","ND","ND","ND","ND","ND","0"],
    [57196,"2016-11-13T23:00:00","37.7","ND","ND","ND","2.6","2.0","ND","ND","ND","ND","ND","0"],
    [57197,"2016-11-14T00:00:00","27.9","ND","ND","ND","2.2","1.7","ND","ND","ND","ND","ND","0"],
    [57198,"2016-11-14T01:00:00","8.5","ND","ND","ND","2.1","2.1","ND","ND","ND","ND","ND","0"],
    [57199,"2016-11-14T02:00:00","ND","ND","ND","ND","2.0","2.8","ND","ND","ND","ND","ND","0"],
    [57200,"2016-11-14T03:00:00","3.8","ND","ND","ND","3.8","1.6","ND","ND","ND","ND","ND","0"],
    [57201,"2016-11-14T04:00:00","4.4","ND","ND","ND","3.9","1.7","ND","ND","ND","ND","ND","0"],
    [57202,"2016-11-14T05:00:00","14.6","ND","ND","ND","1.7","1.5","ND","ND","ND","ND","ND","0"],
    [57203,"2016-11-14T06:00:00","11.5","ND","ND","ND","2.4","3.6","ND","ND","ND","ND","ND","0"],
    [57204,"2016-11-14T07:00:00","6.7","ND","ND","ND","5.9","3.4","ND","ND","ND","ND","ND","0"],
    [57205,"2016-11-14T08:00:00","ND","ND","ND","ND","10.3","2.3","ND","ND","ND","ND","ND","0"],
    [57206,"2016-11-14T09:00:00","13.8","ND","ND","ND","10.9","1.7","ND","ND","ND","ND","ND","0"],
    [57207,"2016-11-14T10:00:00","15.6","ND","ND","ND","23.3","1.4","ND","ND","ND","ND","ND","0"],
    [57208,"2016-11-14T11:00:00","ND","ND","ND","ND","25.7","1.1","ND","ND","ND","ND","ND","0"],
    [57209,"2016-11-14T12:00:00","3.4","ND","ND","ND","35.7","1.0","ND","ND","ND","ND","ND","0"],
    [57210,"2016-11-14T13:00:00","17","ND","ND","ND","44.1","0.7","ND","ND","ND","ND","ND","0"],
    [57211,"2016-11-14T14:00:00","5.7","ND","ND","ND","35.2","1.7","ND","ND","ND","ND","ND","0"],
    [57212,"2016-11-14T15:00:00","3.2","ND","ND","ND","33.3","1.9","ND","ND","ND","ND","ND","0"],
    [57213,"2016-11-14T16:00:00","4.6","ND","ND","ND","26.5","2.0","ND","ND","ND","ND","ND","0"],
    [57214,"2016-11-14T17:00:00","2.6","ND","ND","ND","21.0","1.2","ND","ND","ND","ND","ND","0"],
    [57215,"2016-11-14T18:00:00","ND","ND","ND","ND","15.3","0.8","ND","ND","ND","ND","ND","0"],
    [57216,"2016-11-14T19:00:00","ND","ND","ND","ND","16.0","0.8","ND","ND","ND","ND","ND","0"],
    [57217,"2016-11-14T20:00:00","ND","ND","ND","ND","15.8","1.0","ND","ND","ND","ND","ND","0"],
    [57218,"2016-11-14T21:00:00","11.9","ND","ND","ND","6.3","1.0","ND","ND","ND","ND","ND","3.05"],
    [57219,"2016-11-14T22:00:00","47.8","ND","ND","ND","4.2","1.1","ND","ND","ND","ND","ND","8.89"],
    [57220,"2016-11-14T23:00:00","25.5","ND","ND","ND","3.9","0.8","ND","ND","ND","ND","ND","11.94"],
    [57221,"2016-11-15T00:00:00","9.4","ND","ND","ND","1.9","0.9","ND","ND","ND","ND","ND","1.52"],
    [57222,"2016-11-15T01:00:00","8.1","ND","ND","ND","1.9","1.6","ND","ND","ND","ND","ND","0.25"],
    [57223,"2016-11-15T02:00:00","9.6","ND","ND","ND","2.4","1.3","ND","ND","ND","ND","ND","0.25"],
    [57224,"2016-11-15T03:00:00","0.7","ND","ND","ND","3.0","1.0","ND","ND","ND","ND","ND","0"],
    [57225,"2016-11-15T04:00:00","7.6","ND","ND","ND","2.8","3.7","ND","ND","ND","ND","ND","0"],
    [57226,"2016-11-15T05:00:00","9","ND","ND","ND","2.5","3.3","ND","ND","ND","ND","ND","0"],
    [57227,"2016-11-15T06:00:00","11","ND","ND","ND","2.2","2.3","ND","ND","ND","ND","ND","0"],
    [57228,"2016-11-15T07:00:00","9.5","ND","ND","ND","2.6","1.7","ND","ND","ND","ND","ND","0"],
    [57229,"2016-11-15T08:00:00","3.3","ND","ND","ND","3.0","1.4","ND","ND","ND","ND","ND","0"],
    [57230,"2016-11-15T09:00:00","18","ND","ND","ND","7.4","1.5","ND","ND","ND","ND","ND","0"],
    [57231,"2016-11-15T10:00:00","26.3","ND","ND","ND","21.3","0.9","ND","ND","ND","ND","ND","0"],
    [57232,"2016-11-15T11:00:00","2.7","ND","ND","ND","29.8","1.1","ND","ND","ND","ND","ND","0"],
    [57233,"2016-11-15T12:00:00","7","ND","ND","ND","52.6","1.2","ND","ND","ND","ND","ND","0"],
    [57234,"2016-11-15T13:00:00","8","ND","ND","ND","41.7","1.2","ND","ND","ND","ND","ND","0"],
    [57235,"2016-11-15T14:00:00","7.6","ND","ND","ND","21.9","1.3","ND","ND","ND","ND","ND","5.59"],
    [57236,"2016-11-15T15:00:00","11.4","ND","ND","ND","11.0","1.1","ND","ND","ND","ND","ND","7.62"],
    [57237,"2016-11-15T16:00:00","28.7","ND","ND","ND","18.6","1.2","ND","ND","ND","ND","ND","0.25"],
    [57238,"2016-11-15T17:00:00","3.1","ND","ND","ND","13.3","1.0","ND","ND","ND","ND","ND","0"],
    [57239,"2016-11-15T18:00:00","16.2","ND","ND","ND","7.0","1.1","ND","ND","ND","ND","ND","0"],
    [57240,"2016-11-15T19:00:00","27.5","ND","ND","ND","1.9","0.9","ND","ND","ND","ND","ND","0"],
    [57241,"2016-11-15T20:00:00","33.6","ND","ND","ND","1.6","1.8","ND","ND","ND","ND","ND","0"],
    [57242,"2016-11-15T21:00:00","16.3","ND","ND","ND","1.6","1.6","ND","ND","ND","ND","ND","0"],
    [57243,"2016-11-15T22:00:00","18.9","ND","ND","ND","1.8","1.3","ND","ND","ND","ND","ND","0"],
    [57244,"2016-11-15T23:00:00","27.2","ND","ND","ND","1.6","1.4","ND","ND","ND","ND","ND","0"],
    [57245,"2016-11-16T00:00:00","21.4","ND","ND","ND","1.2","1.5","ND","ND","ND","ND","ND","0"],
    [57246,"2016-11-16T01:00:00","16.3","ND","ND","ND","1.2","2.1","ND","ND","ND","ND","ND","0"],
    [57247,"2016-11-16T02:00:00","18.1","ND","ND","ND","1.2","1.3","ND","ND","ND","ND","ND","0"],
    [57248,"2016-11-16T03:00:00","21.8","ND","ND","ND","1.4","2.5","ND","ND","ND","ND","ND","0"],
    [57249,"2016-11-16T04:00:00","32.9","ND","ND","ND","1.8","5.3","ND","ND","ND","ND","ND","0"],
    [57250,"2016-11-16T05:00:00","34","ND","ND","ND","1.3","3.8","ND","ND","ND","ND","ND","0"],
    [57251,"2016-11-16T06:00:00","25.1","ND","ND","ND","1.2","3.6","ND","ND","ND","ND","ND","0"],
    [57252,"2016-11-16T07:00:00","22","ND","ND","ND","2.1","2.7","ND","ND","ND","ND","ND","0"],
    [57253,"2016-11-16T08:00:00","44.3","ND","ND","ND","3.4","4.2","ND","ND","ND","ND","ND","0"],
    [57254,"2016-11-16T09:00:00","38.5","ND","ND","ND","15.2","4.9","ND","ND","ND","ND","ND","0"],
    [57255,"2016-11-16T10:00:00","22.6","ND","ND","ND","29.0","2.7","ND","ND","ND","ND","ND","0"],
    [57256,"2016-11-16T11:00:00","17.4","ND","ND","ND","38.1","2.5","ND","ND","ND","ND","ND","0"],
    [57257,"2016-11-16T12:00:00","19.6","ND","ND","ND","35.7","2.0","ND","ND","ND","ND","ND","0.25"],
    [57258,"2016-11-16T13:00:00","11.6","ND","ND","ND","32.7","1.2","ND","ND","ND","ND","ND","0"],
    [57259,"2016-11-16T14:00:00","7.1","ND","ND","ND","24.4","1.2","ND","ND","ND","ND","ND","0"],
    [57260,"2016-11-16T15:00:00","ND","ND","ND","ND","17.2","1.1","ND","ND","ND","ND","ND","0"],
    [57261,"2016-11-16T16:00:00","3.2","ND","ND","ND","19.3","0.9","ND","ND","ND","ND","ND","0"],
    [57262,"2016-11-16T17:00:00","4.8","ND","ND","ND","12.6","0.6","ND","ND","ND","ND","ND","0"],
    [57263,"2016-11-16T18:00:00","5.1","ND","ND","ND","8.3","0.5","ND","ND","ND","ND","ND","0"],
    [57264,"2016-11-16T19:00:00","2.4","ND","ND","ND","4.7","1.1","ND","ND","ND","ND","ND","0"],
    [57265,"2016-11-16T20:00:00","10.5","ND","ND","ND","3.0","1.1","ND","ND","ND","ND","ND","0"],
    [57266,"2016-11-16T21:00:00","27.5","ND","ND","ND","1.6","0.7","ND","ND","ND","ND","ND","0"],
    [57267,"2016-11-16T22:00:00","27.6","ND","ND","ND","1.4","1.4","ND","ND","ND","ND","ND","0"],
    [57268,"2016-11-16T23:00:00","26.2","ND","ND","ND","1.5","1.9","ND","ND","ND","ND","ND","0"],
    [57269,"2016-11-17T00:00:00","25.6","ND","ND","ND","1.1","2.0","ND","ND","ND","ND","ND","0"],
    [57270,"2016-11-17T01:00:00","22.5","ND","ND","ND","1.0","0.9","ND","ND","ND","ND","ND","0"],
    [57271,"2016-11-17T02:00:00","16.5","ND","ND","ND","1.1","2.6","ND","ND","ND","ND","ND","0"],
    [57272,"2016-11-17T03:00:00","17.4","ND","ND","ND","1.1","3.8","ND","ND","ND","ND","ND","0"],
    [57273,"2016-11-17T04:00:00","15.9","ND","ND","ND","1.0","3.2","ND","ND","ND","ND","ND","0"],
    [57274,"2016-11-17T05:00:00","13.7","ND","ND","ND","1.1","2.1","ND","ND","ND","ND","ND","0"],
    [57275,"2016-11-17T06:00:00","12.8","ND","ND","ND","0.9","1.9","ND","ND","ND","ND","ND","0"],
    [57276,"2016-11-17T07:00:00","14.8","ND","ND","ND","1.3","2.7","ND","ND","ND","ND","ND","0"],
    [57277,"2016-11-17T08:00:00","26.2","ND","ND","ND","2.3","3.9","ND","ND","ND","ND","ND","0"],
    [57278,"2016-11-17T09:00:00","39","ND","ND","ND","9.3","3.1","ND","ND","ND","ND","ND","0"],
    [57279,"2016-11-17T10:00:00","26.9","ND","ND","ND","30.9","2.2","ND","ND","ND","ND","ND","0"],
    [57280,"2016-11-17T11:00:00","13.8","ND","ND","ND","41.8","2.0","ND","ND","ND","ND","ND","0"],
    [57281,"2016-11-17T12:00:00","15.2","ND","ND","ND","55.2","1.6","ND","ND","ND","ND","ND","0"],
    [57282,"2016-11-17T13:00:00","14.3","ND","ND","ND","59.3","1.4","ND","ND","ND","ND","ND","0"],
    [57283,"2016-11-17T14:00:00","27.5","ND","ND","ND","61.5","1.6","ND","ND","ND","ND","ND","0"],
    [57284,"2016-11-17T15:00:00","10.5","ND","ND","ND","16.4","0.8","ND","ND","ND","ND","ND","0"],
    [57285,"2016-11-17T16:00:00","5.2","ND","ND","ND","12.9","0.9","ND","ND","ND","ND","ND","0"],
    [57286,"2016-11-17T17:00:00","7.8","ND","ND","ND","11.0","1.1","ND","ND","ND","ND","ND","0"],
    [57287,"2016-11-17T18:00:00","4.4","ND","ND","ND","6.7","1.2","ND","ND","ND","ND","ND","0"],
    [57288,"2016-11-17T19:00:00","ND","ND","ND","ND","2.1","0.6","ND","ND","ND","ND","ND","0"],
    [57289,"2016-11-17T20:00:00","ND","ND","ND","ND","2.9","1.2","ND","ND","ND","ND","ND","0"],
    [57290,"2016-11-17T21:00:00","5.6","ND","ND","ND","2.2","2.0","ND","ND","ND","ND","ND","0"],
    [57291,"2016-11-17T22:00:00","29.2","ND","ND","ND","1.4","4.7","ND","ND","ND","ND","ND","0"],
    [57292,"2016-11-17T23:00:00","34.4","ND","ND","ND","1.6","3.5","ND","ND","ND","ND","ND","0"],
    [57293,"2016-11-18T00:00:00","38.9","ND","ND","ND","1.4","2.3","ND","ND","ND","ND","ND","0"],
    [57294,"2016-11-18T01:00:00","40.2","ND","ND","ND","1.4","4.2","ND","ND","ND","ND","ND","0"],
    [57295,"2016-11-18T02:00:00","21.3","ND","ND","ND","1.1","2.9","ND","ND","ND","ND","ND","0"],
    [57296,"2016-11-18T03:00:00","18.5","ND","ND","ND","1.8","3.0","ND","ND","ND","ND","ND","0"],
    [57297,"2016-11-18T04:00:00","14.3","ND","ND","ND","1.6","2.5","ND","ND","ND","ND","ND","0"],
    [57298,"2016-11-18T05:00:00","15.8","ND","ND","ND","1.2","2.7","ND","ND","ND","ND","ND","0"],
    [57299,"2016-11-18T06:00:00","24.3","ND","ND","ND","1.4","4.9","ND","ND","ND","ND","ND","0"],
    [57300,"2016-11-18T07:00:00","24.1","ND","ND","ND","2.0","6.0","ND","ND","ND","ND","ND","0"],
    [57301,"2016-11-18T08:00:00","33.1","ND","ND","ND","4.4","9.4","ND","ND","ND","ND","ND","0"],
    [57302,"2016-11-18T09:00:00","32.1","ND","ND","ND","7.4","9.1","ND","ND","ND","ND","ND","0"],
    [57303,"2016-11-18T10:00:00","25.4","ND","ND","ND","12.3","4.7","ND","ND","ND","ND","ND","0"],
    [57304,"2016-11-18T11:00:00","14.9","ND","ND","ND","28.5","2.7","ND","ND","ND","ND","ND","0"],
    [57305,"2016-11-18T12:00:00","17.3","ND","ND","ND","52.5","2.3","ND","ND","ND","ND","ND","0"],
    [57306,"2016-11-18T13:00:00","13.6","ND","ND","ND","43.7","1.7","ND","ND","ND","ND","ND","0"],
    [57307,"2016-11-18T14:00:00","4.9","ND","ND","ND","25.0","1.6","ND","ND","ND","ND","ND","0"],
    [57308,"2016-11-18T15:00:00","ND","ND","ND","ND","13.1","1.0","ND","ND","ND","ND","ND","0"],
    [57309,"2016-11-18T16:00:00","2.7","ND","ND","ND","15.0","0.7","ND","ND","ND","ND","ND","0"],
    [57310,"2016-11-18T17:00:00","8.7","ND","ND","ND","12.8","0.9","ND","ND","ND","ND","ND","0"],
    [57311,"2016-11-18T18:00:00","2.3","ND","ND","ND","6.7","0.7","ND","ND","ND","ND","ND","0"],
    [57312,"2016-11-18T19:00:00","ND","ND","ND","ND","5.1","1.3","ND","ND","ND","ND","ND","0"],
    [57313,"2016-11-18T20:00:00","4.6","ND","ND","ND","3.1","1.1","ND","ND","ND","ND","ND","0"],
    [57314,"2016-11-18T21:00:00","21.1","ND","ND","ND","2.5","1.4","ND","ND","ND","ND","ND","0"],
    [57315,"2016-11-18T22:00:00","48.9","ND","ND","ND","4.8","2.4","ND","ND","ND","ND","ND","0"],
    [57316,"2016-11-18T23:00:00","35.7","ND","ND","ND","7.2","1.3","ND","ND","ND","ND","ND","0"],
    [57317,"2016-11-19T00:00:00","13.1","ND","ND","ND","2.9","1.4","ND","ND","ND","ND","ND","0"],
    [57318,"2016-11-19T01:00:00","10.1","ND","ND","ND","2.5","3.4","ND","ND","ND","ND","ND","0"],
    [57319,"2016-11-19T02:00:00","13","ND","ND","ND","2.1","2.4","ND","ND","ND","ND","ND","0"],
    [57320,"2016-11-19T03:00:00","7.6","ND","ND","ND","2.0","2.2","ND","ND","ND","ND","ND","0"],
    [57321,"2016-11-19T04:00:00","5.7","ND","ND","ND","3.2","2.6","ND","ND","ND","ND","ND","0"],
    [57322,"2016-11-19T05:00:00","6.2","ND","ND","ND","2.0","4.4","ND","ND","ND","ND","ND","0"],
    [57323,"2016-11-19T06:00:00","8.5","ND","ND","ND","1.4","4.3","ND","ND","ND","ND","ND","0"],
    [57324,"2016-11-19T07:00:00","11.9","ND","ND","ND","1.5","3.2","ND","ND","ND","ND","ND","0"],
    [57325,"2016-11-19T08:00:00","12.2","ND","ND","ND","1.1","6.3","ND","ND","ND","ND","ND","0"],
    [57326,"2016-11-19T09:00:00","14.6","ND","ND","ND","2.1","4.1","ND","ND","ND","ND","ND","0"],
    [57327,"2016-11-19T10:00:00","15.6","ND","ND","ND","4.2","3.1","ND","ND","ND","ND","ND","0"],
    [57328,"2016-11-19T11:00:00","8.8","ND","ND","ND","6.0","1.4","ND","ND","ND","ND","ND","0"],
    [57329,"2016-11-19T12:00:00","10.5","ND","ND","ND","21.5","1.4","ND","ND","ND","ND","ND","0"],
    [57330,"2016-11-19T13:00:00","3.3","ND","ND","ND","31.1","1.6","ND","ND","ND","ND","ND","0"],
    [57331,"2016-11-19T14:00:00","7.3","ND","ND","ND","35.4","2.2","ND","ND","ND","ND","ND","0"],
    [57332,"2016-11-19T15:00:00","9.9","ND","ND","ND","50.9","1.9","ND","ND","ND","ND","ND","0"],
    [57333,"2016-11-19T16:00:00","8.3","ND","ND","ND","39.7","1.7","ND","ND","ND","ND","ND","0"],
    [57334,"2016-11-19T17:00:00","5.5","ND","ND","ND","19.9","1.5","ND","ND","ND","ND","ND","0"],
    [57335,"2016-11-19T18:00:00","4.7","ND","ND","ND","14.8","1.1","ND","ND","ND","ND","ND","0"],
    [57336,"2016-11-19T19:00:00","ND","ND","ND","ND","11.3","0.9","ND","ND","ND","ND","ND","0"],
    [57337,"2016-11-19T20:00:00","ND","ND","ND","ND","7.3","0.6","ND","ND","ND","ND","ND","0"],
    [57338,"2016-11-19T21:00:00","2","ND","ND","ND","1.7","3.0","ND","ND","ND","ND","ND","0"],
    [57339,"2016-11-19T22:00:00","24.9","ND","ND","ND","1.6","1.6","ND","ND","ND","ND","ND","0"],
    [57340,"2016-11-19T23:00:00","30.4","ND","ND","ND","1.3","1.2","ND","ND","ND","ND","ND","0"],
    [57341,"2016-11-20T00:00:00","19.1","ND","ND","ND","1.1","0.9","ND","ND","ND","ND","ND","0"],
    [57342,"2016-11-20T01:00:00","17.3","ND","ND","ND","1.0","1.9","ND","ND","ND","ND","ND","0"],
    [57343,"2016-11-20T02:00:00","13.7","ND","ND","ND","0.7","1.4","ND","ND","ND","ND","ND","0"],
    [57344,"2016-11-20T03:00:00","13.6","ND","ND","ND","1.0","1.6","ND","ND","ND","ND","ND","0"],
    [57345,"2016-11-20T04:00:00","17.8","ND","ND","ND","0.8","1.8","ND","ND","ND","ND","ND","0"],
    [57346,"2016-11-20T05:00:00","12","ND","ND","ND","0.8","1.8","ND","ND","ND","ND","ND","0"],
    [57347,"2016-11-20T06:00:00","10.4","ND","ND","ND","0.9","1.5","ND","ND","ND","ND","ND","0"],
    [57348,"2016-11-20T07:00:00","19.2","ND","ND","ND","1.2","2.0","ND","ND","ND","ND","ND","0"],
    [57349,"2016-11-20T08:00:00","29.8","ND","ND","ND","2.6","2.7","ND","ND","ND","ND","ND","0"],
    [57350,"2016-11-20T09:00:00","34.7","ND","ND","ND","13.1","3.0","ND","ND","ND","ND","ND","0"],
    [57351,"2016-11-20T10:00:00","17.7","ND","ND","ND","40.4","1.8","ND","ND","ND","ND","ND","0"],
    [57352,"2016-11-20T11:00:00","5.8","ND","ND","ND","74.3","1.0","ND","ND","ND","ND","ND","0"],
    [57353,"2016-11-20T12:00:00","12.7","ND","ND","ND","110.9","1.2","ND","ND","ND","ND","ND","0"],
    [57354,"2016-11-20T13:00:00","15.3","ND","ND","ND","98.2","1.4","ND","ND","ND","ND","ND","0"],
    [57355,"2016-11-20T14:00:00","17","ND","ND","ND","92.4","0.9","ND","ND","ND","ND","ND","0"],
    [57356,"2016-11-20T15:00:00","9.6","ND","ND","ND","19.9","0.9","ND","ND","ND","ND","ND","0"],
    [57357,"2016-11-20T16:00:00","1.2","ND","ND","ND","19.9","0.9","ND","ND","ND","ND","ND","0"],
    [57358,"2016-11-20T17:00:00","ND","ND","ND","ND","17.7","0.9","ND","ND","ND","ND","ND","0"],
    [57359,"2016-11-20T18:00:00","ND","ND","ND","ND","10.3","0.8","ND","ND","ND","ND","ND","0"],
    [57360,"2016-11-20T19:00:00","ND","ND","ND","ND","4.0","1.3","ND","ND","ND","ND","ND","0"],
    [57361,"2016-11-20T20:00:00","ND","ND","ND","ND","2.2","1.8","ND","ND","ND","ND","ND","0"],
    [57362,"2016-11-20T21:00:00","13","ND","ND","ND","2.5","2.0","ND","ND","ND","ND","ND","0"],
    [57363,"2016-11-20T22:00:00","38.4","ND","ND","ND","1.7","2.6","ND","ND","ND","ND","ND","0"],
    [57364,"2016-11-20T23:00:00","38.4","ND","ND","ND","1.1","2.1","ND","ND","ND","ND","ND","0"],
    [57365,"2016-11-21T00:00:00","26","ND","ND","ND","1.0","1.4","ND","ND","ND","ND","ND","0"],
    [57366,"2016-11-21T01:00:00","15.4","ND","ND","ND","0.9","1.7","ND","ND","ND","ND","ND","0"],
    [57367,"2016-11-21T02:00:00","13.9","ND","ND","ND","1.1","2.6","ND","ND","ND","ND","ND","0"],
    [57368,"2016-11-21T03:00:00","6.9","ND","ND","ND","1.0","1.4","ND","ND","ND","ND","ND","0"],
    [57369,"2016-11-21T04:00:00","8.9","ND","ND","ND","1.0","1.2","ND","ND","ND","ND","ND","0"],
    [57370,"2016-11-21T05:00:00","5.3","ND","ND","ND","1.1","1.5","ND","ND","ND","ND","ND","0"],
    [57371,"2016-11-21T06:00:00","16.4","ND","ND","ND","1.4","3.4","ND","ND","ND","ND","ND","0"],
    [57372,"2016-11-21T07:00:00","35.3","ND","ND","ND","2.2","8.1","ND","ND","ND","ND","ND","0"],
    [57373,"2016-11-21T08:00:00","75.5","ND","ND","ND","4.5","6.3","ND","ND","ND","ND","ND","0"],
    [57374,"2016-11-21T09:00:00","66.4","ND","ND","ND","15.7","3.3","ND","ND","ND","ND","ND","0"],
    [57375,"2016-11-21T10:00:00","30","ND","ND","ND","31.6","2.3","ND","ND","ND","ND","ND","0"],
    [57376,"2016-11-21T11:00:00","24.5","ND","ND","ND","48.8","1.2","ND","ND","ND","ND","ND","0"],
    [57377,"2016-11-21T12:00:00","ND","ND","ND","ND","63.8","1.1","ND","ND","ND","ND","ND","0"],
    [57378,"2016-11-21T13:00:00","ND","ND","ND","ND","77.7","1.0","ND","ND","ND","ND","ND","0"],
    [57379,"2016-11-21T14:00:00","10.4","ND","ND","ND","95.2","1.1","ND","ND","ND","ND","ND","0"],
    [57380,"2016-11-21T15:00:00","32.2","ND","ND","ND","97.6","1.3","ND","ND","ND","ND","ND","0"],
    [57381,"2016-11-21T16:00:00","10.5","ND","ND","ND","50.2","0.6","ND","ND","ND","ND","ND","0"],
    [57382,"2016-11-21T17:00:00","ND","ND","ND","ND","23.8","1.0","ND","ND","ND","ND","ND","0"],
    [57383,"2016-11-21T18:00:00","3.6","ND","ND","ND","13.0","1.7","ND","ND","ND","ND","ND","0"],
    [57384,"2016-11-21T19:00:00","1.5","ND","ND","ND","2.0","1.3","ND","ND","ND","ND","ND","0"],
    [57385,"2016-11-21T20:00:00","77.7","ND","ND","ND","2.2","1.1","ND","ND","ND","ND","ND","0"],
    [57386,"2016-11-21T21:00:00","83.7","ND","ND","ND","1.8","4.5","ND","ND","ND","ND","ND","0"],
    [57387,"2016-11-21T22:00:00","44.9","ND","ND","ND","1.6","3.4","ND","ND","ND","ND","ND","0"],
    [57388,"2016-11-21T23:00:00","30.4","ND","ND","ND","1.3","2.8","ND","ND","ND","ND","ND","0"],
    [57389,"2016-11-22T00:00:00","6.9","ND","ND","ND","1.0","1.9","ND","ND","ND","ND","ND","0"],
    [57390,"2016-11-22T01:00:00","20","ND","ND","ND","0.8","1.7","ND","ND","ND","ND","ND","0"],
    [57391,"2016-11-22T02:00:00","5","ND","ND","ND","1.0","1.5","ND","ND","ND","ND","ND","0"],
    [57392,"2016-11-22T03:00:00","ND","ND","ND","ND","1.5","1.4","ND","ND","ND","ND","ND","0"],
    [57393,"2016-11-22T04:00:00","ND","ND","ND","ND","1.5","1.3","ND","ND","ND","ND","ND","0"],
    [57394,"2016-11-22T05:00:00","18.6","ND","ND","ND","1.8","3.5","ND","ND","ND","ND","ND","0"],
    [57395,"2016-11-22T06:00:00","ND","ND","ND","ND","1.7","3.6","ND","ND","ND","ND","ND","0"],
    [57396,"2016-11-22T07:00:00","127.3","ND","ND","ND","1.9","1.5","ND","ND","ND","ND","ND","0"],
    [57397,"2016-11-22T08:00:00","161","ND","ND","ND","4.3","3.9","ND","ND","ND","ND","ND","0"],
    [57398,"2016-11-22T09:00:00","84.3","ND","ND","ND","12.1","3.0","ND","ND","ND","ND","ND","0"],
    [57399,"2016-11-22T10:00:00","74.3","ND","ND","ND","38.6","3.6","ND","ND","ND","ND","ND","0"],
    [57400,"2016-11-22T11:00:00","86","ND","ND","ND","56.9","2.9","ND","ND","ND","ND","ND","0"],
    [57401,"2016-11-22T12:00:00","57","ND","ND","ND","71.4","0.4","ND","ND","ND","ND","ND","0"],
    [57402,"2016-11-22T13:00:00","25.6","ND","ND","ND","91.0","1.1","ND","ND","ND","ND","ND","0"],
    [57403,"2016-11-22T14:00:00","33","ND","ND","ND","98.8","0.9","ND","ND","ND","ND","ND","0"],
    [57404,"2016-11-22T15:00:00","42.3","ND","ND","ND","104.6","0.7","ND","ND","ND","ND","ND","0"],
    [57405,"2016-11-22T16:00:00","28.4","ND","ND","ND","49.2","0.5","ND","ND","ND","ND","ND","0"],
    [57406,"2016-11-22T17:00:00","4.8","ND","ND","ND","24.1","0.5","ND","ND","ND","ND","ND","0"],
    [57407,"2016-11-22T18:00:00","ND","ND","ND","ND","9.9","1.3","ND","ND","ND","ND","ND","0"],
    [57408,"2016-11-22T19:00:00","ND","ND","ND","ND","6.5","1.3","ND","ND","ND","ND","ND","0"],
    [57409,"2016-11-22T20:00:00","10.3","ND","ND","ND","3.3","1.6","ND","ND","ND","ND","ND","0"],
    [57410,"2016-11-22T21:00:00","52.2","ND","ND","ND","2.0","4.9","ND","ND","ND","ND","ND","0"],
    [57411,"2016-11-22T22:00:00","51.5","ND","ND","ND","1.9","3.0","ND","ND","ND","ND","ND","0"],
    [57412,"2016-11-22T23:00:00","42.1","ND","ND","ND","1.7","2.8","ND","ND","ND","ND","ND","0"],
    [57413,"2016-11-23T00:00:00","18.6","ND","ND","ND","1.8","2.5","ND","ND","ND","ND","ND","0"],
    [57414,"2016-11-23T01:00:00","14.1","ND","ND","ND","1.1","2.6","ND","ND","ND","ND","ND","0"],
    [57415,"2016-11-23T02:00:00","9.5","ND","ND","ND","1.2","2.4","ND","ND","ND","ND","ND","0"],
    [57416,"2016-11-23T03:00:00","0.8","ND","ND","ND","1.3","3.4","ND","ND","ND","ND","ND","0"],
    [57417,"2016-11-23T04:00:00","ND","ND","ND","ND","1.1","2.9","ND","ND","ND","ND","ND","0"],
    [57418,"2016-11-23T05:00:00","0.6","ND","ND","ND","1.0","2.5","ND","ND","ND","ND","ND","0"],
    [57419,"2016-11-23T06:00:00","1","ND","ND","ND","1.2","2.9","ND","ND","ND","ND","ND","0"],
    [57420,"2016-11-23T07:00:00","44.2","ND","ND","ND","2.5","4.7","ND","ND","ND","ND","ND","0"],
    [57421,"2016-11-23T08:00:00","113.1","ND","ND","ND","3.8","4.1","ND","ND","ND","ND","ND","0"],
    [57422,"2016-11-23T09:00:00","101.3","ND","ND","ND","9.2","2.9","ND","ND","ND","ND","ND","0"],
    [57423,"2016-11-23T10:00:00","67.2","ND","ND","ND","51.5","1.5","ND","ND","ND","ND","ND","0"],
    [57424,"2016-11-23T11:00:00","31.8","ND","ND","ND","88.8","1.8","ND","ND","ND","ND","ND","0"],
    [57425,"2016-11-23T12:00:00","17.6","ND","ND","ND","79.7","1.4","ND","ND","ND","ND","ND","0"],
    [57426,"2016-11-23T13:00:00","5.3","ND","ND","ND","89.6","1.1","ND","ND","ND","ND","ND","0"],
    [57427,"2016-11-23T14:00:00","19.2","ND","ND","ND","84.4","1.2","ND","ND","ND","ND","ND","0"],
    [57428,"2016-11-23T15:00:00","25","ND","ND","ND","37.4","0.8","ND","ND","ND","ND","ND","0"],
    [57429,"2016-11-23T16:00:00","22.4","ND","ND","ND","27.3","0.8","ND","ND","ND","ND","ND","0"],
    [57430,"2016-11-23T17:00:00","8","ND","ND","ND","23.2","0.9","ND","ND","ND","ND","ND","0"],
    [57431,"2016-11-23T18:00:00","2.3","ND","ND","ND","12.0","1.8","ND","ND","ND","ND","ND","0"],
    [57432,"2016-11-23T19:00:00","20.3","ND","ND","ND","3.4","0.9","ND","ND","ND","ND","ND","0"],
    [57433,"2016-11-23T20:00:00","56.9","ND","ND","ND","1.8","1.6","ND","ND","ND","ND","ND","0"],
    [57434,"2016-11-23T21:00:00","41","ND","ND","ND","1.8","3.0","ND","ND","ND","ND","ND","0"],
    [57435,"2016-11-23T22:00:00","29.1","ND","ND","ND","2.0","3.5","ND","ND","ND","ND","ND","0"],
    [57436,"2016-11-23T23:00:00","26","ND","ND","ND","1.7","2.5","ND","ND","ND","ND","ND","0"],
    [57437,"2016-11-24T00:00:00","29.9","ND","ND","ND","1.6","3.6","ND","ND","ND","ND","ND","0"],
    [57438,"2016-11-24T01:00:00","31.6","ND","ND","ND","1.6","2.5","ND","ND","ND","ND","ND","0"],
    [57439,"2016-11-24T02:00:00","21.3","ND","ND","ND","1.5","2.0","ND","ND","ND","ND","ND","0"],
    [57440,"2016-11-24T03:00:00","15.8","ND","ND","ND","1.2","2.2","ND","ND","ND","ND","ND","0"],
    [57441,"2016-11-24T04:00:00","17.9","ND","ND","ND","1.4","2.5","ND","ND","ND","ND","ND","0"],
    [57442,"2016-11-24T05:00:00","19.2","ND","ND","ND","1.6","2.0","ND","ND","ND","ND","ND","0"],
    [57443,"2016-11-24T06:00:00","17.3","ND","ND","ND","1.9","1.7","ND","ND","ND","ND","ND","0"],
    [57444,"2016-11-24T07:00:00","23.2","ND","ND","ND","2.6","3.0","ND","ND","ND","ND","ND","0"],
    [57445,"2016-11-24T08:00:00","41.6","ND","ND","ND","4.6","3.5","ND","ND","ND","ND","ND","0"],
    [57446,"2016-11-24T09:00:00","41.5","ND","ND","ND","27.0","3.0","ND","ND","ND","ND","ND","0"],
    [57447,"2016-11-24T10:00:00","27.1","ND","ND","ND","43.3","1.8","ND","ND","ND","ND","ND","0"],
    [57448,"2016-11-24T11:00:00","21.2","ND","ND","ND","51.6","1.7","ND","ND","ND","ND","ND","0"],
    [57449,"2016-11-24T12:00:00","25.2","ND","ND","ND","61.0","2.3","ND","ND","ND","ND","ND","0"],
    [57450,"2016-11-24T13:00:00","20.1","ND","ND","ND","45.6","1.3","ND","ND","ND","ND","ND","0"],
    [57451,"2016-11-24T14:00:00","6.5","ND","ND","ND","28.3","0.5","ND","ND","ND","ND","ND","0"],
    [57452,"2016-11-24T15:00:00","2.4","ND","ND","ND","23.5","0.8","ND","ND","ND","ND","ND","0"],
    [57453,"2016-11-24T16:00:00","1","ND","ND","ND","18.6","0.5","ND","ND","ND","ND","ND","0"],
    [57454,"2016-11-24T17:00:00","ND","ND","ND","ND","17.2","0.4","ND","ND","ND","ND","ND","0"],
    [57455,"2016-11-24T18:00:00","ND","ND","ND","ND","15.2","0.6","ND","ND","ND","ND","ND","0"],
    [57456,"2016-11-24T19:00:00","11.5","ND","ND","ND","5.8","1.1","ND","ND","ND","ND","ND","0"],
    [57457,"2016-11-24T20:00:00","24.9","ND","ND","ND","3.4","2.2","ND","ND","ND","ND","ND","0"],
    [57458,"2016-11-24T21:00:00","33","ND","ND","ND","3.5","0.8","ND","ND","ND","ND","ND","0"],
    [57459,"2016-11-24T22:00:00","41.9","ND","ND","ND","3.2","1.0","ND","ND","ND","ND","ND","0"],
    [57460,"2016-11-24T23:00:00","28.7","ND","ND","ND","3.2","3.0","ND","ND","ND","ND","ND","0"],
    [57461,"2016-11-25T00:00:00","23.6","ND","ND","ND","3.2","2.1","ND","ND","ND","ND","ND","0"],
    [57462,"2016-11-25T01:00:00","9.2","ND","ND","ND","3.0","2.5","ND","ND","ND","ND","ND","0"],
    [57463,"2016-11-25T02:00:00","ND","ND","ND","ND","3.2","2.0","ND","ND","ND","ND","ND","0"],
    [57464,"2016-11-25T03:00:00","6.1","ND","ND","ND","6.5","1.4","ND","ND","ND","ND","ND","0"],
    [57465,"2016-11-25T04:00:00","20.7","ND","ND","ND","4.0","1.7","ND","ND","ND","ND","ND","0"],
    [57466,"2016-11-25T05:00:00","28.5","ND","ND","ND","2.7","2.2","ND","ND","ND","ND","ND","0"],
    [57467,"2016-11-25T06:00:00","14.6","ND","ND","ND","2.5","1.6","ND","ND","ND","ND","ND","0"],
    [57468,"2016-11-25T07:00:00","11.4","ND","ND","ND","2.7","1.4","ND","ND","ND","ND","ND","0"],
    [57469,"2016-11-25T08:00:00","23.9","ND","ND","ND","3.5","1.9","ND","ND","ND","ND","ND","0"],
    [57470,"2016-11-25T09:00:00","43.3","ND","ND","ND","9.4","1.8","ND","ND","ND","ND","ND","0"],
    [57471,"2016-11-25T10:00:00","17.8","ND","ND","ND","20.8","1.8","ND","ND","ND","ND","ND","0"],
    [57472,"2016-11-25T11:00:00","7.9","ND","ND","ND","21.9","2.2","ND","ND","ND","ND","ND","0"],
    [57473,"2016-11-25T12:00:00","14.6","ND","ND","ND","25.6","1.8","ND","ND","ND","ND","ND","0"],
    [57474,"2016-11-25T13:00:00","17.1","ND","ND","ND","29.1","1.3","ND","ND","ND","ND","ND","0"],
    [57475,"2016-11-25T14:00:00","5.8","ND","ND","ND","26.0","0.9","ND","ND","ND","ND","ND","0"],
    [57476,"2016-11-25T15:00:00","1.6","ND","ND","ND","20.3","0.7","ND","ND","ND","ND","ND","0"],
    [57477,"2016-11-25T16:00:00","ND","ND","ND","ND","20.1","0.7","ND","ND","ND","ND","ND","0"],
    [57478,"2016-11-25T17:00:00","ND","ND","ND","ND","9.7","1.0","ND","ND","ND","ND","ND","0"],
    [57479,"2016-11-25T18:00:00","ND","ND","ND","ND","8.2","0.3","ND","ND","ND","ND","ND","0"],
    [57480,"2016-11-25T19:00:00","6.2","ND","ND","ND","6.2","1.2","ND","ND","ND","ND","ND","0"],
    [57481,"2016-11-25T20:00:00","51.5","ND","ND","ND","6.0","0.9","ND","ND","ND","ND","ND","0"],
    [57482,"2016-11-25T21:00:00","40.1","ND","ND","ND","2.8","1.1","ND","ND","ND","ND","ND","2.03"],
    [57483,"2016-11-25T22:00:00","18.8","ND","ND","ND","2.6","1.5","ND","ND","ND","ND","ND","7.11"],
    [57484,"2016-11-25T23:00:00","7.5","ND","ND","ND","2.3","1.4","ND","ND","ND","ND","ND","4.32"],
    [57485,"2016-11-26T00:00:00","0.5","ND","ND","ND","2.5","1.6","ND","ND","ND","ND","ND","3.56"],
    [57486,"2016-11-26T01:00:00","7.3","ND","ND","ND","2.9","0.7","ND","ND","ND","ND","ND","2.79"],
    [57487,"2016-11-26T02:00:00","4.1","ND","ND","ND","2.5","0.7","ND","ND","ND","ND","ND","1.78"],
    [57488,"2016-11-26T03:00:00","3","ND","ND","ND","2.3","1.0","ND","ND","ND","ND","ND","0.76"],
    [57489,"2016-11-26T04:00:00","ND","ND","ND","ND","2.6","0.5","ND","ND","ND","ND","ND","0"],
    [57490,"2016-11-26T05:00:00","6.2","ND","ND","ND","1.7","1.7","ND","ND","ND","ND","ND","0.25"],
    [57491,"2016-11-26T06:00:00","13.3","ND","ND","ND","1.7","6.2","ND","ND","ND","ND","ND","0"],
    [57492,"2016-11-26T07:00:00","8.9","ND","ND","ND","1.6","1.8","ND","ND","ND","ND","ND","0"],
    [57493,"2016-11-26T08:00:00","15.6","ND","ND","ND","1.6","2.0","ND","ND","ND","ND","ND","0"],
    [57494,"2016-11-26T09:00:00","15.4","ND","ND","ND","2.0","1.6","ND","ND","ND","ND","ND","0"],
    [57495,"2016-11-26T10:00:00","12.1","ND","ND","ND","6.7","0.9","ND","ND","ND","ND","ND","0.25"],
    [57496,"2016-11-26T11:00:00","11.6","ND","ND","ND","7.7","1.0","ND","ND","ND","ND","ND","2.03"],
    [57497,"2016-11-26T12:00:00","23","ND","ND","ND","25.7","0.9","ND","ND","ND","ND","ND","0"],
    [57498,"2016-11-26T13:00:00","8.5","ND","ND","ND","39.8","0.7","ND","ND","ND","ND","ND","0"],
    [57499,"2016-11-26T14:00:00","ND","ND","ND","ND","38.4","0.9","ND","ND","ND","ND","ND","0"],
    [57500,"2016-11-26T15:00:00","8.7","ND","ND","ND","29.1","1.1","ND","ND","ND","ND","ND","0"],
    [57501,"2016-11-26T16:00:00","3.6","ND","ND","ND","16.7","0.8","ND","ND","ND","ND","ND","0"],
    [57502,"2016-11-26T17:00:00","ND","ND","ND","ND","15.5","0.9","ND","ND","ND","ND","ND","0"],
    [57503,"2016-11-26T18:00:00","ND","ND","ND","ND","15.8","0.8","ND","ND","ND","ND","ND","0"],
    [57504,"2016-11-26T19:00:00","4.6","ND","ND","ND","8.5","0.9","ND","ND","ND","ND","ND","0"],
    [57505,"2016-11-26T20:00:00","32.9","ND","ND","ND","2.6","1.4","ND","ND","ND","ND","ND","0"],
    [57506,"2016-11-26T21:00:00","33.6","ND","ND","ND","2.2","1.6","ND","ND","ND","ND","ND","0"],
    [57507,"2016-11-26T22:00:00","27.8","ND","ND","ND","3.4","1.1","ND","ND","ND","ND","ND","0"],
    [57508,"2016-11-26T23:00:00","24.2","ND","ND","ND","2.1","1.2","ND","ND","ND","ND","ND","0"],
    [57509,"2016-11-27T00:00:00","12.1","ND","ND","ND","1.6","1.4","ND","ND","ND","ND","ND","0"],
    [57510,"2016-11-27T01:00:00","18.7","ND","ND","ND","1.8","3.7","ND","ND","ND","ND","ND","0"],
    [57511,"2016-11-27T02:00:00","23","ND","ND","ND","1.6","1.8","ND","ND","ND","ND","ND","0"],
    [57512,"2016-11-27T03:00:00","26.1","ND","ND","ND","1.6","3.5","ND","ND","ND","ND","ND","0"],
    [57513,"2016-11-27T04:00:00","24.2","ND","ND","ND","1.8","4.2","ND","ND","ND","ND","ND","0"],
    [57514,"2016-11-27T05:00:00","29.3","ND","ND","ND","1.6","5.2","ND","ND","ND","ND","ND","0"],
    [57515,"2016-11-27T06:00:00","24.2","ND","ND","ND","1.6","3.2","ND","ND","ND","ND","ND","0"],
    [57516,"2016-11-27T07:00:00","17.8","ND","ND","ND","1.7","2.6","ND","ND","ND","ND","ND","0"],
    [57517,"2016-11-27T08:00:00","25","ND","ND","ND","2.1","4.4","ND","ND","ND","ND","ND","0"],
    [57518,"2016-11-27T09:00:00","26.7","ND","ND","ND","7.5","3.5","ND","ND","ND","ND","ND","0"],
    [57519,"2016-11-27T10:00:00","26.3","ND","ND","ND","26.8","2.9","ND","ND","ND","ND","ND","0"],
    [57520,"2016-11-27T11:00:00","14.4","ND","ND","ND","36.3","2.0","ND","ND","ND","ND","ND","0"],
    [57521,"2016-11-27T12:00:00","8.8","ND","ND","ND","46.6","1.5","ND","ND","ND","ND","ND","0"],
    [57522,"2016-11-27T13:00:00","7.5","ND","ND","ND","46.8","1.8","ND","ND","ND","ND","ND","0"],
    [57523,"2016-11-27T14:00:00","ND","ND","ND","ND","20.7","1.0","ND","ND","ND","ND","ND","0"],
    [57524,"2016-11-27T15:00:00","ND","ND","ND","ND","17.4","0.6","ND","ND","ND","ND","ND","0"],
    [57525,"2016-11-27T16:00:00","ND","ND","ND","ND","20.2","0.1","ND","ND","ND","ND","ND","0"],
    [57526,"2016-11-27T17:00:00","ND","ND","ND","ND","21.3","1.0","ND","ND","ND","ND","ND","0"],
    [57527,"2016-11-27T18:00:00","11.1","ND","ND","ND","15.0","1.3","ND","ND","ND","ND","ND","0"],
    [57528,"2016-11-27T19:00:00","11.2","ND","ND","ND","7.0","1.1","ND","ND","ND","ND","ND","0"],
    [57529,"2016-11-27T20:00:00","ND","ND","ND","ND","3.5","0.7","ND","ND","ND","ND","ND","0"],
    [57530,"2016-11-27T21:00:00","13.9","ND","ND","ND","2.4","2.6","ND","ND","ND","ND","ND","0"],
    [57531,"2016-11-27T22:00:00","31.5","ND","ND","ND","2.7","4.3","ND","ND","ND","ND","ND","0"],
    [57532,"2016-11-27T23:00:00","36.4","ND","ND","ND","2.8","3.2","ND","ND","ND","ND","ND","0"],
    [57533,"2016-11-28T00:00:00","21.8","ND","ND","ND","2.3","3.2","ND","ND","ND","ND","ND","0"],
    [57534,"2016-11-28T01:00:00","18.3","ND","ND","ND","2.2","1.6","ND","ND","ND","ND","ND","0"],
    [57535,"2016-11-28T02:00:00","7.3","ND","ND","ND","2.0","1.1","ND","ND","ND","ND","ND","0"],
    [57536,"2016-11-28T03:00:00","8.3","ND","ND","ND","2.0","1.8","ND","ND","ND","ND","ND","0"],
    [57537,"2016-11-28T04:00:00","13.9","ND","ND","ND","2.2","2.3","ND","ND","ND","ND","ND","0"],
    [57538,"2016-11-28T05:00:00","18","ND","ND","ND","2.1","1.7","ND","ND","ND","ND","ND","0"],
    [57539,"2016-11-28T06:00:00","27.8","ND","ND","ND","2.5","6.3","ND","ND","ND","ND","ND","0"],
    [57540,"2016-11-28T07:00:00","26.6","ND","ND","ND","2.6","4.2","ND","ND","ND","ND","ND","0"],
    [57541,"2016-11-28T08:00:00","31.7","ND","ND","ND","2.7","2.8","ND","ND","ND","ND","ND","0"],
    [57542,"2016-11-28T09:00:00","37.4","ND","ND","ND","8.6","2.4","ND","ND","ND","ND","ND","0"],
    [57543,"2016-11-28T10:00:00","22.8","ND","ND","ND","41.9","1.6","ND","ND","ND","ND","ND","0"],
    [57544,"2016-11-28T11:00:00","9","ND","ND","ND","49.0","1.4","ND","ND","ND","ND","ND","0"],
    [57545,"2016-11-28T12:00:00","14.1","ND","ND","ND","70.7","1.3","ND","ND","ND","ND","ND","0"],
    [57546,"2016-11-28T13:00:00","15.5","ND","ND","ND","86.1","1.5","ND","ND","ND","ND","ND","0"],
    [57547,"2016-11-28T14:00:00","20.1","ND","ND","ND","92.0","1.3","ND","ND","ND","ND","ND","0"],
    [57548,"2016-11-28T15:00:00","24.2","ND","ND","ND","28.7","1.3","ND","ND","ND","ND","ND","0"],
    [57549,"2016-11-28T16:00:00","4.9","ND","ND","ND","14.0","0.4","ND","ND","ND","ND","ND","0"],
    [57550,"2016-11-28T17:00:00","ND","ND","ND","ND","29.2","1.0","ND","ND","ND","ND","ND","0"],
    [57551,"2016-11-28T18:00:00","ND","ND","ND","ND","28.2","1.4","ND","ND","ND","ND","ND","0"],
    [57552,"2016-11-28T19:00:00","5","ND","ND","ND","11.5","0.9","ND","ND","ND","ND","ND","0"],
    [57553,"2016-11-28T20:00:00","26.6","ND","ND","ND","11.4","1.3","ND","ND","ND","ND","ND","0"],
    [57554,"2016-11-28T21:00:00","39.3","ND","ND","ND","2.6","3.3","ND","ND","ND","ND","ND","0"],
    [57555,"2016-11-28T22:00:00","31.2","ND","ND","ND","4.2","1.3","ND","ND","ND","ND","ND","0"],
    [57556,"2016-11-28T23:00:00","18.1","ND","ND","ND","4.1","1.1","ND","ND","ND","ND","ND","0"],
    [57557,"2016-11-29T00:00:00","14","ND","ND","ND","2.0","1.5","ND","ND","ND","ND","ND","0"],
    [57558,"2016-11-29T01:00:00","13.2","ND","ND","ND","1.2","1.2","ND","ND","ND","ND","ND","0"],
    [57559,"2016-11-29T02:00:00","3.2","ND","ND","ND","0.9","0.9","ND","ND","ND","ND","ND","0"],
    [57560,"2016-11-29T03:00:00","4.6","ND","ND","ND","0.9","1.8","ND","ND","ND","ND","ND","0"],
    [57561,"2016-11-29T04:00:00","13.1","ND","ND","ND","0.9","2.1","ND","ND","ND","ND","ND","0"],
    [57562,"2016-11-29T05:00:00","18.3","ND","ND","ND","0.9","2.9","ND","ND","ND","ND","ND","0"],
    [57563,"2016-11-29T06:00:00","17","ND","ND","ND","0.9","3.2","ND","ND","ND","ND","ND","0"],
    [57564,"2016-11-29T07:00:00","18.4","ND","ND","ND","1.0","2.9","ND","ND","ND","ND","ND","0"],
    [57565,"2016-11-29T08:00:00","27.1","ND","ND","ND","1.2","2.5","ND","ND","ND","ND","ND","0"],
    [57566,"2016-11-29T09:00:00","30.7","ND","ND","ND","1.8","2.5","ND","ND","ND","ND","ND","0"],
    [57567,"2016-11-29T10:00:00","34.8","ND","ND","ND","4.3","3.5","ND","ND","ND","ND","ND","0"],
    [57568,"2016-11-29T11:00:00","ND","ND","ND","ND","ND","ND","ND","ND","ND","ND","ND","ND"],
    [57569,"2016-11-29T12:00:00","ND","ND","ND","ND","ND","ND","ND","ND","ND","ND","ND","ND"],
    [57570,"2016-11-29T13:00:00","ND","ND","ND","ND","ND","ND","ND","ND","ND","ND","ND","ND"],
    [57571,"2016-11-29T14:00:00","ND","ND","ND","ND","ND","ND","ND","ND","ND","ND","ND","ND"],
    [57572,"2016-11-29T15:00:00","ND","ND","ND","ND","ND","ND","ND","ND","ND","ND","ND","ND"],
    [57573,"2016-11-29T16:00:00","ND","ND","ND","ND","ND","ND","ND","ND","ND","ND","ND","ND"],
    [57574,"2016-11-29T17:00:00","ND","ND","ND","ND","ND","ND","ND","ND","ND","ND","ND","ND"],
    [57575,"2016-11-29T18:00:00","57.3","ND","ND","ND","14.1","2.4","ND","ND","ND","ND","ND","0"],
    [57576,"2016-11-29T19:00:00","28.1","ND","ND","ND","5.3","3.6","ND","ND","ND","ND","ND","0"],
    [57577,"2016-11-29T20:00:00","30.8","ND","ND","ND","6.7","3.4","ND","ND","ND","ND","ND","0"],
    [57578,"2016-11-29T21:00:00","11.6","ND","ND","ND","7.7","3.7","ND","ND","ND","ND","ND","0"],
    [57579,"2016-11-29T22:00:00","9.2","ND","ND","ND","5.3","3.2","ND","ND","ND","ND","ND","0"],
    [57580,"2016-11-29T23:00:00","18.2","ND","ND","ND","2.2","4.3","ND","ND","ND","ND","ND","0"],
    [57581,"2016-11-30T00:00:00","22.7","ND","ND","ND","2.6","6.7","ND","ND","ND","ND","ND","0"],
    [57582,"2016-11-30T01:00:00","18.8","ND","ND","ND","2.1","6.4","ND","ND","ND","ND","ND","0"],
    [57583,"2016-11-30T02:00:00","25.2","ND","ND","ND","2.4","4.8","ND","ND","ND","ND","ND","0"],
    [57584,"2016-11-30T03:00:00","17.7","ND","ND","ND","3.1","6.0","ND","ND","ND","ND","ND","0"],
    [57585,"2016-11-30T04:00:00","20.3","ND","ND","ND","2.4","6.9","ND","ND","ND","ND","ND","0"],
    [57586,"2016-11-30T05:00:00","24.7","ND","ND","ND","1.9","5.6","ND","ND","ND","ND","ND","0"],
    [57587,"2016-11-30T06:00:00","25.2","ND","ND","ND","2.2","6.6","ND","ND","ND","ND","ND","0"],
    [57588,"2016-11-30T07:00:00","31.9","ND","ND","ND","2.3","6.2","ND","ND","ND","ND","ND","0"],
    [57589,"2016-11-30T08:00:00","45.5","ND","ND","ND","4.3","6.0","ND","ND","ND","ND","ND","0"],
    [57590,"2016-11-30T09:00:00","38.3","ND","ND","ND","12.7","7.0","ND","ND","ND","ND","ND","0"],
    [57591,"2016-11-30T10:00:00","27.7","ND","ND","ND","25.3","5.0","ND","ND","ND","ND","ND","0"],
    [57592,"2016-11-30T11:00:00","22.7","ND","ND","ND","57.3","3.3","ND","ND","ND","ND","ND","0"],
    [57593,"2016-11-30T12:00:00","21.6","ND","ND","ND","80.0","2.4","ND","ND","ND","ND","ND","0"],
    [57594,"2016-11-30T13:00:00","7.6","ND","ND","ND","91.1","2.8","ND","ND","ND","ND","ND","0"],
    [57595,"2016-11-30T14:00:00","ND","ND","ND","ND","111.0","2.6","ND","ND","ND","ND","ND","0"],
    [57596,"2016-11-30T15:00:00","32.6","ND","ND","ND","92.8","2.3","ND","ND","ND","ND","ND","0"],
    [57597,"2016-11-30T16:00:00","18.1","ND","ND","ND","56.0","2.1","ND","ND","ND","ND","ND","0"],
    [57598,"2016-11-30T17:00:00","21.6","ND","ND","ND","48.6","2.3","ND","ND","ND","ND","ND","0"],
    [57599,"2016-11-30T18:00:00","0.5","ND","ND","ND","44.9","2.4","ND","ND","ND","ND","ND","0"],
    [57600,"2016-11-30T19:00:00","2.3","ND","ND","ND","30.7","2.3","ND","ND","ND","ND","ND","0"],
    [57601,"2016-11-30T20:00:00","50","ND","ND","ND","25.1","3.0","ND","ND","ND","ND","ND","0"],
    [57602,"2016-11-30T21:00:00","67.9","ND","ND","ND","25.2","2.7","ND","ND","ND","ND","ND","0"],
    [57603,"2016-11-30T22:00:00","46.3","ND","ND","ND","23.3","4.4","ND","ND","ND","ND","ND","0"],
    [57604,"2016-11-30T23:00:00","31.5","ND","ND","ND","22.4","3.4","ND","ND","ND","ND","ND","0"],
    [57605,"2016-12-01T00:00:00","36.2","ND","ND","ND","23.5","3.2","ND","ND","ND","ND","ND","0"],
    [57606,"2016-12-01T01:00:00","28.9","ND","ND","ND","25.6","2.9","ND","ND","ND","ND","ND","0"],
    [57607,"2016-12-01T02:00:00","16.9","ND","ND","ND","22.6","4.3","ND","ND","ND","ND","ND","0"],
    [57608,"2016-12-01T03:00:00","31.8","ND","ND","ND","20.1","6.6","ND","ND","ND","ND","ND","0"],
    [57609,"2016-12-01T04:00:00","35","ND","ND","ND","21.4","7.3","ND","ND","ND","ND","ND","0"],
    [57610,"2016-12-01T05:00:00","29","ND","ND","ND","20.7","9.6","ND","ND","ND","ND","ND","0"],
    [57611,"2016-12-01T06:00:00","23.5","ND","ND","ND","21.1","11.3","ND","ND","ND","ND","ND","0"],
    [57612,"2016-12-01T07:00:00","19.2","ND","ND","ND","20.3","6.1","ND","ND","ND","ND","ND","0"],
    [57613,"2016-12-01T08:00:00","35.4","ND","ND","ND","19.6","8.1","ND","ND","ND","ND","ND","0"],
    [57614,"2016-12-01T09:00:00","44.6","ND","ND","ND","23.4","8.3","ND","ND","ND","ND","ND","0"],
    [57615,"2016-12-01T10:00:00","42.3","ND","ND","ND","30.9","6.2","ND","ND","ND","ND","ND","0"],
    [57616,"2016-12-01T11:00:00","9.6","ND","ND","ND","39.8","2.5","ND","ND","ND","ND","ND","0"],
    [57617,"2016-12-01T12:00:00","10.9","ND","ND","ND","47.2","2.8","ND","ND","ND","ND","ND","0"],
    [57618,"2016-12-01T13:00:00","8.2","ND","ND","ND","39.3","2.4","ND","ND","ND","ND","ND","0"],
    [57619,"2016-12-01T14:00:00","ND","ND","ND","ND","24.9","2.2","ND","ND","ND","ND","ND","0"],
    [57620,"2016-12-01T15:00:00","31.3","ND","ND","ND","23.0","1.8","ND","ND","ND","ND","ND","0"],
    [57621,"2016-12-01T16:00:00","26.8","ND","ND","ND","34.0","2.0","ND","ND","ND","ND","ND","0"],
    [57622,"2016-12-01T17:00:00","11.8","ND","ND","ND","32.2","1.7","ND","ND","ND","ND","ND","0"],
    [57623,"2016-12-01T18:00:00","ND","ND","ND","ND","25.4","2.3","ND","ND","ND","ND","ND","0"],
    [57624,"2016-12-01T19:00:00","19.7","ND","ND","ND","16.0","2.8","ND","ND","ND","ND","ND","0"],
    [57625,"2016-12-01T20:00:00","30.1","ND","ND","ND","14.1","3.1","ND","ND","ND","ND","ND","0"],
    [57626,"2016-12-01T21:00:00","20.1","ND","ND","ND","13.2","5.9","ND","ND","ND","ND","ND","0"],
    [57627,"2016-12-01T22:00:00","20.6","ND","ND","ND","12.9","2.6","ND","ND","ND","ND","ND","0"],
    [57628,"2016-12-01T23:00:00","20.5","ND","ND","ND","12.3","5.2","ND","ND","ND","ND","ND","0"],
    [57629,"2016-12-02T00:00:00","20.5","ND","ND","ND","12.0","6.7","ND","ND","ND","ND","ND","0"],
    [57630,"2016-12-02T01:00:00","27.2","ND","ND","ND","12.0","5.4","ND","ND","ND","ND","ND","0"],
    [57631,"2016-12-02T02:00:00","18.4","ND","ND","ND","11.1","6.0","ND","ND","ND","ND","ND","0"],
    [57632,"2016-12-02T03:00:00","21.3","ND","ND","ND","10.3","7.8","ND","ND","ND","ND","ND","0"],
    [57633,"2016-12-02T04:00:00","24.6","ND","ND","ND","10.2","6.8","ND","ND","ND","ND","ND","0"],
    [57634,"2016-12-02T05:00:00","30.5","ND","ND","ND","10.1","6.0","ND","ND","ND","ND","ND","0"],
    [57635,"2016-12-02T06:00:00","27.7","ND","ND","ND","10.3","4.3","ND","ND","ND","ND","ND","0"],
    [57636,"2016-12-02T07:00:00","22.3","ND","ND","ND","10.9","4.5","ND","ND","ND","ND","ND","0"],
    [57637,"2016-12-02T08:00:00","32.1","ND","ND","ND","11.0","6.4","ND","ND","ND","ND","ND","0"],
    [57638,"2016-12-02T09:00:00","28.7","ND","ND","ND","10.7","5.2","ND","ND","ND","ND","ND","0"],
    [57639,"2016-12-02T10:00:00","34.6","ND","ND","ND","16.9","5.6","ND","ND","ND","ND","ND","0"],
    [57640,"2016-12-02T11:00:00","26.9","ND","ND","ND","42.6","3.9","ND","ND","ND","ND","ND","0"],
    [57641,"2016-12-02T12:00:00","16.4","ND","ND","ND","82.8","3.1","ND","ND","ND","ND","ND","0"],
    [57642,"2016-12-02T13:00:00","ND","ND","ND","ND","50.1","3.3","ND","ND","ND","ND","ND","0"],
    [57643,"2016-12-02T14:00:00","21.8","ND","ND","ND","25.9","3.5","ND","ND","ND","ND","ND","0"],
    [57644,"2016-12-02T15:00:00","16.4","ND","ND","ND","25.6","2.4","ND","ND","ND","ND","ND","0"],
    [57645,"2016-12-02T16:00:00","0.7","ND","ND","ND","23.5","2.6","ND","ND","ND","ND","ND","0"],
    [57646,"2016-12-02T17:00:00","1.6","ND","ND","ND","20.3","2.5","ND","ND","ND","ND","ND","0"],
    [57647,"2016-12-02T18:00:00","ND","ND","ND","ND","17.3","2.9","ND","ND","ND","ND","ND","0"],
    [57648,"2016-12-02T19:00:00","5.7","ND","ND","ND","13.8","2.8","ND","ND","ND","ND","ND","0"],
    [57649,"2016-12-02T20:00:00","26.7","ND","ND","ND","14.1","2.9","ND","ND","ND","ND","ND","0"],
    [57650,"2016-12-02T21:00:00","26.9","ND","ND","ND","12.5","3.4","ND","ND","ND","ND","ND","0"],
    [57651,"2016-12-02T22:00:00","26.3","ND","ND","ND","12.6","4.4","ND","ND","ND","ND","ND","0"],
    [57652,"2016-12-02T23:00:00","27.5","ND","ND","ND","11.0","2.8","ND","ND","ND","ND","ND","0"],
    [57653,"2016-12-03T00:00:00","18.8","ND","ND","ND","10.2","3.2","ND","ND","ND","ND","ND","0"],
    [57654,"2016-12-03T01:00:00","24.2","ND","ND","ND","9.1","4.6","ND","ND","ND","ND","ND","0"],
    [57655,"2016-12-03T02:00:00","22.7","ND","ND","ND","9.4","4.9","ND","ND","ND","ND","ND","0"],
    [57656,"2016-12-03T03:00:00","25.5","ND","ND","ND","11.4","3.8","ND","ND","ND","ND","ND","0"],
    [57657,"2016-12-03T04:00:00","21.7","ND","ND","ND","10.8","3.6","ND","ND","ND","ND","ND","0"],
    [57658,"2016-12-03T05:00:00","16.9","ND","ND","ND","10.3","3.4","ND","ND","ND","ND","ND","0"],
    [57659,"2016-12-03T06:00:00","14.7","ND","ND","ND","9.8","6.1","ND","ND","ND","ND","ND","0"],
    [57660,"2016-12-03T07:00:00","9.3","ND","ND","ND","8.6","4.3","ND","ND","ND","ND","ND","0"],
    [57661,"2016-12-03T08:00:00","9.5","ND","ND","ND","8.5","3.8","ND","ND","ND","ND","ND","0"],
    [57662,"2016-12-03T09:00:00","15.7","ND","ND","ND","9.5","3.6","ND","ND","ND","ND","ND","0.76"],
    [57663,"2016-12-03T10:00:00","16.2","ND","ND","ND","9.6","3.7","ND","ND","ND","ND","ND","1.52"],
    [57664,"2016-12-03T11:00:00","11.9","ND","ND","ND","9.0","4.1","ND","ND","ND","ND","ND","4.57"],
    [57665,"2016-12-03T12:00:00","10.6","ND","ND","ND","8.1","7.4","ND","ND","ND","ND","ND","4.06"],
    [57666,"2016-12-03T13:00:00","16.3","ND","ND","ND","9.2","6.8","ND","ND","ND","ND","ND","1.78"],
    [57667,"2016-12-03T14:00:00","16.9","ND","ND","ND","13.3","5.6","ND","ND","ND","ND","ND","0.51"],
    [57668,"2016-12-03T15:00:00","7.5","ND","ND","ND","21.9","3.9","ND","ND","ND","ND","ND","0.25"],
    [57669,"2016-12-03T16:00:00","5.2","ND","ND","ND","27.5","3.1","ND","ND","ND","ND","ND","0"],
    [57670,"2016-12-03T17:00:00","1.1","ND","ND","ND","26.9","2.6","ND","ND","ND","ND","ND","0"],
    [57671,"2016-12-03T18:00:00","ND","ND","ND","ND","22.4","2.6","ND","ND","ND","ND","ND","0"],
    [57672,"2016-12-03T19:00:00","14.4","ND","ND","ND","11.6","2.6","ND","ND","ND","ND","ND","0"],
    [57673,"2016-12-03T20:00:00","33","ND","ND","ND","9.8","2.0","ND","ND","ND","ND","ND","0"],
    [57674,"2016-12-03T21:00:00","25.1","ND","ND","ND","8.9","3.0","ND","ND","ND","ND","ND","0"],
    [57675,"2016-12-03T22:00:00","21","ND","ND","ND","9.2","2.3","ND","ND","ND","ND","ND","0"],
    [57676,"2016-12-03T23:00:00","17.5","ND","ND","ND","9.2","2.0","ND","ND","ND","ND","ND","0"],
    [57677,"2016-12-04T00:00:00","25","ND","ND","ND","12.7","2.6","ND","ND","ND","ND","ND","0"],
    [57678,"2016-12-04T01:00:00","20.1","ND","ND","ND","21.9","2.9","ND","ND","ND","ND","ND","0"],
    [57679,"2016-12-04T02:00:00","4.5","ND","ND","ND","21.8","2.4","ND","ND","ND","ND","ND","0"],
    [57680,"2016-12-04T03:00:00","19.7","ND","ND","ND","21.9","2.9","ND","ND","ND","ND","ND","0"],
    [57681,"2016-12-04T04:00:00","21.9","ND","ND","ND","21.4","4.6","ND","ND","ND","ND","ND","0"],
    [57682,"2016-12-04T05:00:00","24.3","ND","ND","ND","20.7","4.4","ND","ND","ND","ND","ND","0"],
    [57683,"2016-12-04T06:00:00","22.8","ND","ND","ND","21.0","5.0","ND","ND","ND","ND","ND","0"],
    [57684,"2016-12-04T07:00:00","27.4","ND","ND","ND","14.3","5.7","ND","ND","ND","ND","ND","0"],
    [57685,"2016-12-04T08:00:00","34.9","ND","ND","ND","16.4","6.1","ND","ND","ND","ND","ND","0"],
    [57686,"2016-12-04T09:00:00","45.3","ND","ND","ND","22.9","5.8","ND","ND","ND","ND","ND","0"],
    [57687,"2016-12-04T10:00:00","29.1","ND","ND","ND","40.1","4.6","ND","ND","ND","ND","ND","0"],
    [57688,"2016-12-04T11:00:00","19.1","ND","ND","ND","57.4","3.3","ND","ND","ND","ND","ND","0"],
    [57689,"2016-12-04T12:00:00","23.5","ND","ND","ND","73.5","3.7","ND","ND","ND","ND","ND","0"],
    [57690,"2016-12-04T13:00:00","5.8","ND","ND","ND","87.1","3.1","ND","ND","ND","ND","ND","0"],
    [57691,"2016-12-04T14:00:00","ND","ND","ND","ND","50.4","2.6","ND","ND","ND","ND","ND","0"],
    [57692,"2016-12-04T15:00:00","ND","ND","ND","ND","28.3","2.7","ND","ND","ND","ND","ND","0.25"],
    [57693,"2016-12-04T16:00:00","29.4","ND","ND","ND","23.8","2.0","ND","ND","ND","ND","ND","0"],
    [57694,"2016-12-04T17:00:00","39.2","ND","ND","ND","23.1","3.2","ND","ND","ND","ND","ND","0"],
    [57695,"2016-12-04T18:00:00","14","ND","ND","ND","21.1","3.4","ND","ND","ND","ND","ND","0"],
    [57696,"2016-12-04T19:00:00","3.2","ND","ND","ND","22.2","2.1","ND","ND","ND","ND","ND","0"],
    [57697,"2016-12-04T20:00:00","ND","ND","ND","ND","18.8","2.3","ND","ND","ND","ND","ND","0"],
    [57698,"2016-12-04T21:00:00","ND","ND","ND","ND","14.8","3.6","ND","ND","ND","ND","ND","0"],
    [57699,"2016-12-04T22:00:00","7.7","ND","ND","ND","14.2","7.9","ND","ND","ND","ND","ND","0"],
    [57700,"2016-12-04T23:00:00","44.6","ND","ND","ND","3.4","4.1","ND","ND","ND","ND","ND","0"],
    [57701,"2016-12-05T00:00:00","39.4","ND","ND","ND","2.8","3.4","ND","ND","ND","ND","ND","0.25"],
    [57702,"2016-12-05T01:00:00","25.5","ND","ND","ND","8.0","5.0","ND","ND","ND","ND","ND","0.25"],
    [57703,"2016-12-05T02:00:00","19.6","ND","ND","ND","6.0","3.4","ND","ND","ND","ND","ND","0"],
    [57704,"2016-12-05T03:00:00","16.7","ND","ND","ND","2.7","3.9","ND","ND","ND","ND","ND","0.25"],
    [57705,"2016-12-05T04:00:00","15.4","ND","ND","ND","0.7","5.1","ND","ND","ND","ND","ND","0"],
    [57706,"2016-12-05T05:00:00","25.5","ND","ND","ND","2.1","4.4","ND","ND","ND","ND","ND","0"],
    [57707,"2016-12-05T06:00:00","34","ND","ND","ND","3.7","4.3","ND","ND","ND","ND","ND","0"],
    [57708,"2016-12-05T07:00:00","35.4","ND","ND","ND","11.0","4.5","ND","ND","ND","ND","ND","0"],
    [57709,"2016-12-05T08:00:00","26.7","ND","ND","ND","10.7","2.6","ND","ND","ND","ND","ND","0.25"],
    [57710,"2016-12-05T09:00:00","30.6","ND","ND","ND","9.0","2.7","ND","ND","ND","ND","ND","0"],
    [57711,"2016-12-05T10:00:00","20.3","ND","ND","ND","17.1","2.5","ND","ND","ND","ND","ND","0"],
    [57712,"2016-12-05T11:00:00","19.9","ND","ND","ND","46.3","2.4","ND","ND","ND","ND","ND","0"],
    [57713,"2016-12-05T12:00:00","10.8","ND","ND","ND","74.0","2.2","ND","ND","ND","ND","ND","0"],
    [57714,"2016-12-05T13:00:00","4.7","ND","ND","ND","99.9","1.9","ND","ND","ND","ND","ND","0"],
    [57715,"2016-12-05T14:00:00","16.8","ND","ND","ND","107.7","2.1","ND","ND","ND","ND","ND","0"],
    [57716,"2016-12-05T15:00:00","1.6","ND","ND","ND","63.8","2.1","ND","ND","ND","ND","ND","0"],
    [57717,"2016-12-05T16:00:00","ND","ND","ND","ND","23.7","1.9","ND","ND","ND","ND","ND","0"],
    [57718,"2016-12-05T17:00:00","23.6","ND","ND","ND","16.7","2.0","ND","ND","ND","ND","ND","0"],
    [57719,"2016-12-05T18:00:00","49.2","ND","ND","ND","15.8","2.1","ND","ND","ND","ND","ND","0"],
    [57720,"2016-12-05T19:00:00","21.8","ND","ND","ND","14.3","3.4","ND","ND","ND","ND","ND","0"],
    [57721,"2016-12-05T20:00:00","24","ND","ND","ND","15.0","2.4","ND","ND","ND","ND","ND","0"],
    [57722,"2016-12-05T21:00:00","22.9","ND","ND","ND","13.0","1.7","ND","ND","ND","ND","ND","0"],
    [57723,"2016-12-05T22:00:00","11.9","ND","ND","ND","12.3","2.1","ND","ND","ND","ND","ND","0"],
    [57724,"2016-12-05T23:00:00","5.3","ND","ND","ND","14.0","2.5","ND","ND","ND","ND","ND","0"],
    [57725,"2016-12-06T00:00:00","25.2","ND","ND","ND","12.9","3.6","ND","ND","ND","ND","ND","0.25"],
    [57726,"2016-12-06T01:00:00","31.4","ND","ND","ND","12.7","3.7","ND","ND","ND","ND","ND","0.25"],
    [57727,"2016-12-06T02:00:00","11.1","ND","ND","ND","11.7","3.1","ND","ND","ND","ND","ND","0"],
    [57728,"2016-12-06T03:00:00","14.8","ND","ND","ND","13.6","9.3","ND","ND","ND","ND","ND","0.51"],
    [57729,"2016-12-06T04:00:00","12.3","ND","ND","ND","11.4","7.7","ND","ND","ND","ND","ND","0.25"],
    [57730,"2016-12-06T05:00:00","8","ND","ND","ND","11.4","7.5","ND","ND","ND","ND","ND","0.25"],
    [57731,"2016-12-06T06:00:00","14.2","ND","ND","ND","11.4","7.0","ND","ND","ND","ND","ND","0.25"],
    [57732,"2016-12-06T07:00:00","29.5","ND","ND","ND","9.2","9.1","ND","ND","ND","ND","ND","0.25"],
    [57733,"2016-12-06T08:00:00","15.6","ND","ND","ND","9.5","4.7","ND","ND","ND","ND","ND","0"],
    [57734,"2016-12-06T09:00:00","29","ND","ND","ND","12.6","4.7","ND","ND","ND","ND","ND","0"],
    [57735,"2016-12-06T10:00:00","40.7","ND","ND","ND","28.7","4.2","ND","ND","ND","ND","ND","0"],
    [57736,"2016-12-06T11:00:00","25.2","ND","ND","ND","53.3","3.6","ND","ND","ND","ND","ND","0"],
    [57737,"2016-12-06T12:00:00","20.7","ND","ND","ND","89.8","2.5","ND","ND","ND","ND","ND","0"],
    [57738,"2016-12-06T13:00:00","15.5","ND","ND","ND","97.0","2.2","ND","ND","ND","ND","ND","0"],
    [57739,"2016-12-06T14:00:00","10.7","ND","ND","ND","87.9","1.9","ND","ND","ND","ND","ND","0"],
    [57740,"2016-12-06T15:00:00","21.6","ND","ND","ND","80.1","2.6","ND","ND","ND","ND","ND","0"],
    [57741,"2016-12-06T16:00:00","9","ND","ND","ND","31.7","2.1","ND","ND","ND","ND","ND","0"],
    [57742,"2016-12-06T17:00:00","ND","ND","ND","ND","23.0","2.1","ND","ND","ND","ND","ND","0"],
    [57743,"2016-12-06T18:00:00","ND","ND","ND","ND","20.0","1.8","ND","ND","ND","ND","ND","0"],
    [57744,"2016-12-06T19:00:00","ND","ND","ND","ND","16.8","2.5","ND","ND","ND","ND","ND","0"],
    [57745,"2016-12-06T20:00:00","17.4","ND","ND","ND","16.6","2.2","ND","ND","ND","ND","ND","0"],
    [57746,"2016-12-06T21:00:00","43.9","ND","ND","ND","15.8","2.3","ND","ND","ND","ND","ND","0"],
    [57747,"2016-12-06T22:00:00","45.3","ND","ND","ND","19.0","2.2","ND","ND","ND","ND","ND","0"],
    [57748,"2016-12-06T23:00:00","19.4","ND","ND","ND","15.0","2.7","ND","ND","ND","ND","ND","0"],
    [57749,"2016-12-07T00:00:00","31.3","ND","ND","ND","14.7","3.7","ND","ND","ND","ND","ND","0"],
    [57750,"2016-12-07T01:00:00","44.6","ND","ND","ND","13.3","7.0","ND","ND","ND","ND","ND","0"],
    [57751,"2016-12-07T02:00:00","19.2","ND","ND","ND","12.5","4.7","ND","ND","ND","ND","ND","0"],
    [57752,"2016-12-07T03:00:00","20.7","ND","ND","ND","12.6","4.9","ND","ND","ND","ND","ND","0"],
    [57753,"2016-12-07T04:00:00","23","ND","ND","ND","11.2","4.0","ND","ND","ND","ND","ND","0"],
    [57754,"2016-12-07T05:00:00","24.5","ND","ND","ND","10.7","3.2","ND","ND","ND","ND","ND","0"],
    [57755,"2016-12-07T06:00:00","24.3","ND","ND","ND","9.5","3.0","ND","ND","ND","ND","ND","0"],
    [57756,"2016-12-07T07:00:00","17.6","ND","ND","ND","9.7","2.8","ND","ND","ND","ND","ND","0"],
    [57757,"2016-12-07T08:00:00","26.2","ND","ND","ND","10.0","3.8","ND","ND","ND","ND","ND","0"],
    [57758,"2016-12-07T09:00:00","28","ND","ND","ND","12.7","3.9","ND","ND","ND","ND","ND","0"],
    [57759,"2016-12-07T10:00:00","13.1","ND","ND","ND","16.9","2.9","ND","ND","ND","ND","ND","0"],
    [57760,"2016-12-07T11:00:00","22.9","ND","ND","ND","40.7","2.7","ND","ND","ND","ND","ND","0"],
    [57761,"2016-12-07T12:00:00","8.8","ND","ND","ND","58.6","2.3","ND","ND","ND","ND","ND","0"],
    [57762,"2016-12-07T13:00:00","1","ND","ND","ND","61.6","2.7","ND","ND","ND","ND","ND","0"],
    [57763,"2016-12-07T14:00:00","20","ND","ND","ND","52.4","3.4","ND","ND","ND","ND","ND","0"],
    [57764,"2016-12-07T15:00:00","23","ND","ND","ND","47.0","3.0","ND","ND","ND","ND","ND","0"],
    [57765,"2016-12-07T16:00:00","4.2","ND","ND","ND","30.1","3.3","ND","ND","ND","ND","ND","0"],
    [57766,"2016-12-07T17:00:00","ND","ND","ND","ND","17.9","2.4","ND","ND","ND","ND","ND","0"],
    [57767,"2016-12-07T18:00:00","ND","ND","ND","ND","14.6","2.1","ND","ND","ND","ND","ND","0"],
    [57768,"2016-12-07T19:00:00","23","ND","ND","ND","12.2","2.2","ND","ND","ND","ND","ND","0"],
    [57769,"2016-12-07T20:00:00","45.4","ND","ND","ND","12.4","2.9","ND","ND","ND","ND","ND","0"],
    [57770,"2016-12-07T21:00:00","35.5","ND","ND","ND","12.2","4.1","ND","ND","ND","ND","ND","0"],
    [57771,"2016-12-07T22:00:00","27","ND","ND","ND","10.4","5.7","ND","ND","ND","ND","ND","0"],
    [57772,"2016-12-07T23:00:00","27.6","ND","ND","ND","10.6","4.7","ND","ND","ND","ND","ND","0"],
    [57773,"2016-12-08T00:00:00","36.1","ND","ND","ND","10.5","3.9","ND","ND","ND","ND","ND","0"],
    [57774,"2016-12-08T01:00:00","24.5","ND","ND","ND","10.1","3.7","ND","ND","ND","ND","ND","0"],
    [57775,"2016-12-08T02:00:00","4","ND","ND","ND","9.9","4.8","ND","ND","ND","ND","ND","0"],
    [57776,"2016-12-08T03:00:00","16.6","ND","ND","ND","9.1","3.8","ND","ND","ND","ND","ND","0"],
    [57777,"2016-12-08T04:00:00","24","ND","ND","ND","9.0","4.8","ND","ND","ND","ND","ND","0"],
    [57778,"2016-12-08T05:00:00","31.5","ND","ND","ND","8.4","5.8","ND","ND","ND","ND","ND","0"],
    [57779,"2016-12-08T06:00:00","31.2","ND","ND","ND","8.5","4.2","ND","ND","ND","ND","ND","0"],
    [57780,"2016-12-08T07:00:00","23.6","ND","ND","ND","7.8","4.5","ND","ND","ND","ND","ND","0"],
    [57781,"2016-12-08T08:00:00","30.5","ND","ND","ND","8.7","8.9","ND","ND","ND","ND","ND","0"],
    [57782,"2016-12-08T09:00:00","42.8","ND","ND","ND","17.8","5.2","ND","ND","ND","ND","ND","0"],
    [57783,"2016-12-08T10:00:00","17.2","ND","ND","ND","48.4","3.8","ND","ND","ND","ND","ND","0"],
    [57784,"2016-12-08T11:00:00","10","ND","ND","ND","64.2","2.9","ND","ND","ND","ND","ND","0"],
    [57785,"2016-12-08T12:00:00","5.5","ND","ND","ND","67.0","2.7","ND","ND","ND","ND","ND","0"],
    [57786,"2016-12-08T13:00:00","7.1","ND","ND","ND","32.5","3.1","ND","ND","ND","ND","ND","0"],
    [57787,"2016-12-08T14:00:00","9.5","ND","ND","ND","41.9","2.7","ND","ND","ND","ND","ND","0"],
    [57788,"2016-12-08T15:00:00","1","ND","ND","ND","26.3","2.9","ND","ND","ND","ND","ND","0"],
    [57789,"2016-12-08T16:00:00","ND","ND","ND","ND","27.9","2.4","ND","ND","ND","ND","ND","0"],
    [57790,"2016-12-08T17:00:00","ND","ND","ND","ND","21.4","2.5","ND","ND","ND","ND","ND","0"],
    [57791,"2016-12-08T18:00:00","ND","ND","ND","ND","16.0","3.2","ND","ND","ND","ND","ND","0"],
    [57792,"2016-12-08T19:00:00","7.1","ND","ND","ND","13.0","3.1","ND","ND","ND","ND","ND","0"],
    [57793,"2016-12-08T20:00:00","35.5","ND","ND","ND","11.6","3.2","ND","ND","ND","ND","ND","0"],
    [57794,"2016-12-08T21:00:00","21.6","ND","ND","ND","12.7","2.4","ND","ND","ND","ND","ND","0"],
    [57795,"2016-12-08T22:00:00","29","ND","ND","ND","17.0","1.6","ND","ND","ND","ND","ND","0"],
    [57796,"2016-12-08T23:00:00","26.8","ND","ND","ND","17.5","2.1","ND","ND","ND","ND","ND","0"],
    [57797,"2016-12-09T00:00:00","14.7","ND","ND","ND","15.4","3.0","ND","ND","ND","ND","ND","0"],
    [57798,"2016-12-09T01:00:00","21.3","ND","ND","ND","16.1","4.1","ND","ND","ND","ND","ND","0"],
    [57799,"2016-12-09T02:00:00","16.6","ND","ND","ND","15.1","4.7","ND","ND","ND","ND","ND","0"],
    [57800,"2016-12-09T03:00:00","9.5","ND","ND","ND","10.7","4.5","ND","ND","ND","ND","ND","0"],
    [57801,"2016-12-09T04:00:00","8.8","ND","ND","ND","9.2","5.5","ND","ND","ND","ND","ND","0"],
    [57802,"2016-12-09T05:00:00","5.1","ND","ND","ND","8.5","8.3","ND","ND","ND","ND","ND","0"],
    [57803,"2016-12-09T06:00:00","13.7","ND","ND","ND","7.9","7.3","ND","ND","ND","ND","ND","0"],
    [57804,"2016-12-09T07:00:00","13.7","ND","ND","ND","8.6","8.8","ND","ND","ND","ND","ND","0"],
    [57805,"2016-12-09T08:00:00","10.5","ND","ND","ND","8.3","5.3","ND","ND","ND","ND","ND","0"],
    [57806,"2016-12-09T09:00:00","20","ND","ND","ND","11.7","4.6","ND","ND","ND","ND","ND","0"],
    [57807,"2016-12-09T10:00:00","21.2","ND","ND","ND","21.3","3.9","ND","ND","ND","ND","ND","0"],
    [57808,"2016-12-09T11:00:00","11","ND","ND","ND","36.1","3.5","ND","ND","ND","ND","ND","0"],
    [57809,"2016-12-09T12:00:00","20.6","ND","ND","ND","68.6","3.3","ND","ND","ND","ND","ND","0"],
    [57810,"2016-12-09T13:00:00","9.3","ND","ND","ND","68.3","2.3","ND","ND","ND","ND","ND","0"],
    [57811,"2016-12-09T14:00:00","8.9","ND","ND","ND","53.1","2.8","ND","ND","ND","ND","ND","0"],
    [57812,"2016-12-09T15:00:00","16.4","ND","ND","ND","31.2","2.5","ND","ND","ND","ND","ND","0"],
    [57813,"2016-12-09T16:00:00","ND","ND","ND","ND","21.4","1.8","ND","ND","ND","ND","ND","0"],
    [57814,"2016-12-09T17:00:00","ND","ND","ND","ND","19.9","2.1","ND","ND","ND","ND","ND","0"],
    [57815,"2016-12-09T18:00:00","ND","ND","ND","ND","15.9","2.2","ND","ND","ND","ND","ND","0"],
    [57816,"2016-12-09T19:00:00","ND","ND","ND","ND","13.4","1.9","ND","ND","ND","ND","ND","0"],
    [57817,"2016-12-09T20:00:00","27.3","ND","ND","ND","12.7","2.1","ND","ND","ND","ND","ND","0"],
    [57818,"2016-12-09T21:00:00","45.7","ND","ND","ND","11.2","3.3","ND","ND","ND","ND","ND","0"],
    [57819,"2016-12-09T22:00:00","42.9","ND","ND","ND","12.1","2.5","ND","ND","ND","ND","ND","0"],
    [57820,"2016-12-09T23:00:00","50.8","ND","ND","ND","11.5","3.1","ND","ND","ND","ND","ND","0"],
    [57821,"2016-12-10T00:00:00","31.3","ND","ND","ND","12.1","2.9","ND","ND","ND","ND","ND","0"],
    [57822,"2016-12-10T01:00:00","16.6","ND","ND","ND","11.9","2.7","ND","ND","ND","ND","ND","0"],
    [57823,"2016-12-10T02:00:00","12.6","ND","ND","ND","13.3","6.6","ND","ND","ND","ND","ND","0"],
    [57824,"2016-12-10T03:00:00","19.9","ND","ND","ND","13.7","8.4","ND","ND","ND","ND","ND","0"],
    [57825,"2016-12-10T04:00:00","24.1","ND","ND","ND","12.8","9.0","ND","ND","ND","ND","ND","0"],
    [57826,"2016-12-10T05:00:00","18.5","ND","ND","ND","12.6","7.2","ND","ND","ND","ND","ND","0"],
    [57827,"2016-12-10T06:00:00","16.7","ND","ND","ND","12.9","7.6","ND","ND","ND","ND","ND","0"],
    [57828,"2016-12-10T07:00:00","34.1","ND","ND","ND","11.0","8.8","ND","ND","ND","ND","ND","0"],
    [57829,"2016-12-10T08:00:00","43.7","ND","ND","ND","14.5","9.1","ND","ND","ND","ND","ND","0"],
    [57830,"2016-12-10T09:00:00","26.4","ND","ND","ND","21.8","6.4","ND","ND","ND","ND","ND","0"],
    [57831,"2016-12-10T10:00:00","10.8","ND","ND","ND","20.8","4.0","ND","ND","ND","ND","ND","0"],
    [57832,"2016-12-10T11:00:00","17.8","ND","ND","ND","37.9","3.3","ND","ND","ND","ND","ND","0"],
    [57833,"2016-12-10T12:00:00","13.4","ND","ND","ND","70.5","3.0","ND","ND","ND","ND","ND","0"],
    [57834,"2016-12-10T13:00:00","11.8","ND","ND","ND","104.3","2.5","ND","ND","ND","ND","ND","0"],
    [57835,"2016-12-10T14:00:00","11","ND","ND","ND","110.0","2.6","ND","ND","ND","ND","ND","0"],
    [57836,"2016-12-10T15:00:00","13.7","ND","ND","ND","68.5","2.6","ND","ND","ND","ND","ND","0"],
    [57837,"2016-12-10T16:00:00","10.2","ND","ND","ND","44.5","2.2","ND","ND","ND","ND","ND","0"],
    [57838,"2016-12-10T17:00:00","15.4","ND","ND","ND","41.8","1.7","ND","ND","ND","ND","ND","0"],
    [57839,"2016-12-10T18:00:00","ND","ND","ND","ND","33.9","2.9","ND","ND","ND","ND","ND","0"],
    [57840,"2016-12-10T19:00:00","ND","ND","ND","ND","19.4","2.5","ND","ND","ND","ND","ND","0"],
    [57841,"2016-12-10T20:00:00","14.6","ND","ND","ND","16.0","3.0","ND","ND","ND","ND","ND","0"],
    [57842,"2016-12-10T21:00:00","33.9","ND","ND","ND","15.6","3.0","ND","ND","ND","ND","ND","0"],
    [57843,"2016-12-10T22:00:00","40.6","ND","ND","ND","14.8","4.5","ND","ND","ND","ND","ND","0"],
    [57844,"2016-12-10T23:00:00","26.1","ND","ND","ND","14.1","5.1","ND","ND","ND","ND","ND","0"],
    [57845,"2016-12-11T00:00:00","21.6","ND","ND","ND","13.3","4.0","ND","ND","ND","ND","ND","0"],
    [57846,"2016-12-11T01:00:00","29.6","ND","ND","ND","13.0","4.3","ND","ND","ND","ND","ND","0"],
    [57847,"2016-12-11T02:00:00","20.2","ND","ND","ND","13.0","4.6","ND","ND","ND","ND","ND","0"],
    [57848,"2016-12-11T03:00:00","21.1","ND","ND","ND","13.2","3.4","ND","ND","ND","ND","ND","0"],
    [57849,"2016-12-11T04:00:00","15.9","ND","ND","ND","13.5","3.5","ND","ND","ND","ND","ND","0"],
    [57850,"2016-12-11T05:00:00","17.7","ND","ND","ND","12.2","3.5","ND","ND","ND","ND","ND","0"],
    [57851,"2016-12-11T06:00:00","15.2","ND","ND","ND","10.9","3.6","ND","ND","ND","ND","ND","0"],
    [57852,"2016-12-11T07:00:00","12.6","ND","ND","ND","9.6","5.4","ND","ND","ND","ND","ND","0"],
    [57853,"2016-12-11T08:00:00","18.8","ND","ND","ND","12.0","3.7","ND","ND","ND","ND","ND","0"],
    [57854,"2016-12-11T09:00:00","16.1","ND","ND","ND","24.0","3.2","ND","ND","ND","ND","ND","0"],
    [57855,"2016-12-11T10:00:00","3.3","ND","ND","ND","26.8","3.3","ND","ND","ND","ND","ND","0"],
    [57856,"2016-12-11T11:00:00","6.2","ND","ND","ND","35.5","3.2","ND","ND","ND","ND","ND","0"],
    [57857,"2016-12-11T12:00:00","12.8","ND","ND","ND","66.4","2.6","ND","ND","ND","ND","ND","0"],
    [57858,"2016-12-11T13:00:00","9.1","ND","ND","ND","92.8","2.4","ND","ND","ND","ND","ND","0"],
    [57859,"2016-12-11T14:00:00","3.9","ND","ND","ND","77.9","3.3","ND","ND","ND","ND","ND","0"],
    [57860,"2016-12-11T15:00:00","7","ND","ND","ND","40.9","3.3","ND","ND","ND","ND","ND","0"],
    [57861,"2016-12-11T16:00:00","ND","ND","ND","ND","27.7","1.9","ND","ND","ND","ND","ND","0"],
    [57862,"2016-12-11T17:00:00","ND","ND","ND","ND","24.6","2.6","ND","ND","ND","ND","ND","0"],
    [57863,"2016-12-11T18:00:00","1.1","ND","ND","ND","23.7","2.8","ND","ND","ND","ND","ND","0"],
    [57864,"2016-12-11T19:00:00","ND","ND","ND","ND","18.9","2.7","ND","ND","ND","ND","ND","0"],
    [57865,"2016-12-11T20:00:00","11.3","ND","ND","ND","14.3","2.8","ND","ND","ND","ND","ND","0"],
    [57866,"2016-12-11T21:00:00","22.8","ND","ND","ND","12.1","2.7","ND","ND","ND","ND","ND","0"],
    [57867,"2016-12-11T22:00:00","36.4","ND","ND","ND","11.8","3.9","ND","ND","ND","ND","ND","0"],
    [57868,"2016-12-11T23:00:00","23.5","ND","ND","ND","11.5","2.7","ND","ND","ND","ND","ND","0"],
    [57869,"2016-12-12T00:00:00","22.1","ND","ND","ND","12.6","3.0","ND","ND","ND","ND","ND","0"],
    [57870,"2016-12-12T01:00:00","24.4","ND","ND","ND","11.5","3.7","ND","ND","ND","ND","ND","0"],
    [57871,"2016-12-12T02:00:00","7.5","ND","ND","ND","11.1","4.6","ND","ND","ND","ND","ND","0"],
    [57872,"2016-12-12T03:00:00","23.9","ND","ND","ND","11.7","4.6","ND","ND","ND","ND","ND","0"],
    [57873,"2016-12-12T04:00:00","18.7","ND","ND","ND","9.0","4.4","ND","ND","ND","ND","ND","0"],
    [57874,"2016-12-12T05:00:00","20","ND","ND","ND","9.2","4.7","ND","ND","ND","ND","ND","0"],
    [57875,"2016-12-12T06:00:00","15.1","ND","ND","ND","9.4","3.6","ND","ND","ND","ND","ND","0"],
    [57876,"2016-12-12T07:00:00","21.3","ND","ND","ND","9.1","4.3","ND","ND","ND","ND","ND","0"],
    [57877,"2016-12-12T08:00:00","32.7","ND","ND","ND","9.8","4.6","ND","ND","ND","ND","ND","0"],
    [57878,"2016-12-12T09:00:00","25","ND","ND","ND","12.5","3.0","ND","ND","ND","ND","ND","0"],
    [57879,"2016-12-12T10:00:00","20.9","ND","ND","ND","21.3","2.6","ND","ND","ND","ND","ND","0"],
    [57880,"2016-12-12T11:00:00","13","ND","ND","ND","35.6","2.7","ND","ND","ND","ND","ND","0"],
    [57881,"2016-12-12T12:00:00","26.6","ND","ND","ND","62.2","2.8","ND","ND","ND","ND","ND","0"],
    [57882,"2016-12-12T13:00:00","16.9","ND","ND","ND","86.0","2.2","ND","ND","ND","ND","ND","0"],
    [57883,"2016-12-12T14:00:00","18.1","ND","ND","ND","108.7","2.2","ND","ND","ND","ND","ND","0"],
    [57884,"2016-12-12T15:00:00","13.5","ND","ND","ND","109.1","2.3","ND","ND","ND","ND","ND","0"],
    [57885,"2016-12-12T16:00:00","21.4","ND","ND","ND","67.0","2.1","ND","ND","ND","ND","ND","0"],
    [57886,"2016-12-12T17:00:00","1.4","ND","ND","ND","28.4","2.0","ND","ND","ND","ND","ND","0"],
    [57887,"2016-12-12T18:00:00","ND","ND","ND","ND","21.2","2.5","ND","ND","ND","ND","ND","0"],
    [57888,"2016-12-12T19:00:00","3","ND","ND","ND","17.0","2.8","ND","ND","ND","ND","ND","0"],
    [57889,"2016-12-12T20:00:00","26.9","ND","ND","ND","13.3","2.2","ND","ND","ND","ND","ND","0"],
    [57890,"2016-12-12T21:00:00","38.2","ND","ND","ND","12.6","5.0","ND","ND","ND","ND","ND","0"],
    [57891,"2016-12-12T22:00:00","44.8","ND","ND","ND","12.4","6.7","ND","ND","ND","ND","ND","0"],
    [57892,"2016-12-12T23:00:00","22.3","ND","ND","ND","12.9","3.7","ND","ND","ND","ND","ND","0"],
    [57893,"2016-12-13T00:00:00","21.2","ND","ND","ND","11.5","3.5","ND","ND","ND","ND","ND","0"],
    [57894,"2016-12-13T01:00:00","13.1","ND","ND","ND","10.8","2.9","ND","ND","ND","ND","ND","0"],
    [57895,"2016-12-13T02:00:00","1.9","ND","ND","ND","8.8","3.0","ND","ND","ND","ND","ND","0"],
    [57896,"2016-12-13T03:00:00","10.1","ND","ND","ND","9.1","2.7","ND","ND","ND","ND","ND","0"],
    [57897,"2016-12-13T04:00:00","20.1","ND","ND","ND","8.2","4.4","ND","ND","ND","ND","ND","0"],
    [57898,"2016-12-13T05:00:00","19.2","ND","ND","ND","8.2","3.8","ND","ND","ND","ND","ND","0"],
    [57899,"2016-12-13T06:00:00","12.3","ND","ND","ND","6.3","4.0","ND","ND","ND","ND","ND","0"],
    [57900,"2016-12-13T07:00:00","31.9","ND","ND","ND","6.6","4.5","ND","ND","ND","ND","ND","0"],
    [57901,"2016-12-13T08:00:00","38.4","ND","ND","ND","8.6","5.4","ND","ND","ND","ND","ND","0"],
    [57902,"2016-12-13T09:00:00","44.4","ND","ND","ND","14.0","5.9","ND","ND","ND","ND","ND","0"],
    [57903,"2016-12-13T10:00:00","33.7","ND","ND","ND","25.4","4.4","ND","ND","ND","ND","ND","0"],
    [57904,"2016-12-13T11:00:00","21.2","ND","ND","ND","52.8","3.5","ND","ND","ND","ND","ND","0"],
    [57905,"2016-12-13T12:00:00","17.8","ND","ND","ND","82.7","2.8","ND","ND","ND","ND","ND","0"],
    [57906,"2016-12-13T13:00:00","12.3","ND","ND","ND","48.3","3.2","ND","ND","ND","ND","ND","0"],
    [57907,"2016-12-13T14:00:00","ND","ND","ND","ND","27.1","2.4","ND","ND","ND","ND","ND","0"],
    [57908,"2016-12-13T15:00:00","ND","ND","ND","ND","27.4","2.7","ND","ND","ND","ND","ND","0"],
    [57909,"2016-12-13T16:00:00","ND","ND","ND","ND","28.0","1.8","ND","ND","ND","ND","ND","0"],
    [57910,"2016-12-13T17:00:00","ND","ND","ND","ND","22.6","2.6","ND","ND","ND","ND","ND","0"],
    [57911,"2016-12-13T18:00:00","ND","ND","ND","ND","15.1","1.7","ND","ND","ND","ND","ND","0"],
    [57912,"2016-12-13T19:00:00","6.1","ND","ND","ND","13.7","2.5","ND","ND","ND","ND","ND","0"],
    [57913,"2016-12-13T20:00:00","17.2","ND","ND","ND","12.0","2.5","ND","ND","ND","ND","ND","0"],
    [57914,"2016-12-13T21:00:00","25.9","ND","ND","ND","12.8","5.0","ND","ND","ND","ND","ND","0"],
    [57915,"2016-12-13T22:00:00","29.6","ND","ND","ND","13.8","3.3","ND","ND","ND","ND","ND","0"],
    [57916,"2016-12-13T23:00:00","22","ND","ND","ND","12.6","2.9","ND","ND","ND","ND","ND","0"],
    [57917,"2016-12-14T00:00:00","26.1","ND","ND","ND","11.5","3.2","ND","ND","ND","ND","ND","0"],
    [57918,"2016-12-14T01:00:00","14.1","ND","ND","ND","10.8","4.3","ND","ND","ND","ND","ND","0"],
    [57919,"2016-12-14T02:00:00","ND","ND","ND","ND","9.7","4.7","ND","ND","ND","ND","ND","0"],
    [57920,"2016-12-14T03:00:00","9.1","ND","ND","ND","11.2","4.1","ND","ND","ND","ND","ND","0"],
    [57921,"2016-12-14T04:00:00","19.3","ND","ND","ND","10.3","4.7","ND","ND","ND","ND","ND","0"],
    [57922,"2016-12-14T05:00:00","19.8","ND","ND","ND","8.8","4.8","ND","ND","ND","ND","ND","0"],
    [57923,"2016-12-14T06:00:00","23","ND","ND","ND","8.2","9.0","ND","ND","ND","ND","ND","0"],
    [57924,"2016-12-14T07:00:00","31.4","ND","ND","ND","8.7","ND","ND","ND","ND","ND","ND","0"],
    [57925,"2016-12-14T08:00:00","52","ND","ND","ND","10.1","13.6","ND","ND","ND","ND","ND","0"],
    [57926,"2016-12-14T09:00:00","55.7","ND","ND","ND","16.1","9.8","ND","ND","ND","ND","ND","0"],
    [57927,"2016-12-14T10:00:00","30.1","ND","ND","ND","28.9","5.5","ND","ND","ND","ND","ND","0"],
    [57928,"2016-12-14T11:00:00","18.8","ND","ND","ND","48.9","3.8","ND","ND","ND","ND","ND","0"],
    [57929,"2016-12-14T12:00:00","20.1","ND","ND","ND","69.5","3.2","ND","ND","ND","ND","ND","0"],
    [57930,"2016-12-14T13:00:00","29.2","ND","ND","ND","82.4","3.2","ND","ND","ND","ND","ND","0"],
    [57931,"2016-12-14T14:00:00","13.3","ND","ND","ND","93.7","3.1","ND","ND","ND","ND","ND","0"],
    [57932,"2016-12-14T15:00:00","17.2","ND","ND","ND","46.5","2.8","ND","ND","ND","ND","ND","0"],
    [57933,"2016-12-14T16:00:00","7.2","ND","ND","ND","29.1","2.3","ND","ND","ND","ND","ND","0"],
    [57934,"2016-12-14T17:00:00","ND","ND","ND","ND","26.8","2.1","ND","ND","ND","ND","ND","0"],
    [57935,"2016-12-14T18:00:00","ND","ND","ND","ND","23.2","2.3","ND","ND","ND","ND","ND","0"],
    [57936,"2016-12-14T19:00:00","ND","ND","ND","ND","15.8","2.5","ND","ND","ND","ND","ND","0"],
    [57937,"2016-12-14T20:00:00","4.9","ND","ND","ND","14.4","2.6","ND","ND","ND","ND","ND","0"],
    [57938,"2016-12-14T21:00:00","34.9","ND","ND","ND","13.3","3.4","ND","ND","ND","ND","ND","0"],
    [57939,"2016-12-14T22:00:00","43.9","ND","ND","ND","16.2","3.9","ND","ND","ND","ND","ND","0"],
    [57940,"2016-12-14T23:00:00","23.9","ND","ND","ND","11.9","2.4","ND","ND","ND","ND","ND","0"],
    [57941,"2016-12-15T00:00:00","32.4","ND","ND","ND","13.8","7.3","ND","ND","ND","ND","ND","0"],
    [57942,"2016-12-15T01:00:00","33.6","ND","ND","ND","12.2","10.2","ND","ND","ND","ND","ND","0"],
    [57943,"2016-12-15T02:00:00","35.2","ND","ND","ND","14.0","5.0","ND","ND","ND","ND","ND","0"],
    [57944,"2016-12-15T03:00:00","34.6","ND","ND","ND","13.1","5.5","ND","ND","ND","ND","ND","0"],
    [57945,"2016-12-15T04:00:00","29","ND","ND","ND","10.4","6.5","ND","ND","ND","ND","ND","0"],
    [57946,"2016-12-15T05:00:00","23.7","ND","ND","ND","10.4","5.6","ND","ND","ND","ND","ND","0"],
    [57947,"2016-12-15T06:00:00","22","ND","ND","ND","9.0","5.8","ND","ND","ND","ND","ND","0"],
    [57948,"2016-12-15T07:00:00","23.2","ND","ND","ND","9.9","5.7","ND","ND","ND","ND","ND","0"],
    [57949,"2016-12-15T08:00:00","51.9","ND","ND","ND","12.2","6.3","ND","ND","ND","ND","ND","0"],
    [57950,"2016-12-15T09:00:00","44","ND","ND","ND","13.1","5.8","ND","ND","ND","ND","ND","0"],
    [57951,"2016-12-15T10:00:00","34.8","ND","ND","ND","15.2","5.5","ND","ND","ND","ND","ND","0"],
    [57952,"2016-12-15T11:00:00","32.3","ND","ND","ND","35.8","4.9","ND","ND","ND","ND","ND","0"],
    [57953,"2016-12-15T12:00:00","19.2","ND","ND","ND","80.0","3.7","ND","ND","ND","ND","ND","0"],
    [57954,"2016-12-15T13:00:00","10.2","ND","ND","ND","102.2","3.1","ND","ND","ND","ND","ND","0"],
    [57955,"2016-12-15T14:00:00","9.7","ND","ND","ND","105.6","2.9","ND","ND","ND","ND","ND","0"],
    [57956,"2016-12-15T15:00:00","13.1","ND","ND","ND","39.7","2.7","ND","ND","ND","ND","ND","0"],
    [57957,"2016-12-15T16:00:00","8.9","ND","ND","ND","32.2","1.7","ND","ND","ND","ND","ND","0"],
    [57958,"2016-12-15T17:00:00","4.9","ND","ND","ND","24.1","2.1","ND","ND","ND","ND","ND","0"],
    [57959,"2016-12-15T18:00:00","ND","ND","ND","ND","18.7","2.6","ND","ND","ND","ND","ND","0"],
    [57960,"2016-12-15T19:00:00","ND","ND","ND","ND","16.6","2.2","ND","ND","ND","ND","ND","0"],
    [57961,"2016-12-15T20:00:00","9","ND","ND","ND","9.9","3.0","ND","ND","ND","ND","ND","0"],
    [57962,"2016-12-15T21:00:00","36.4","ND","ND","ND","13.4","2.0","ND","ND","ND","ND","ND","0"],
    [57963,"2016-12-15T22:00:00","35.5","ND","ND","ND","10.1","1.8","ND","ND","ND","ND","ND","0"],
    [57964,"2016-12-15T23:00:00","14.5","ND","ND","ND","9.9","2.7","ND","ND","ND","ND","ND","0"],
    [57965,"2016-12-16T00:00:00","5.1","ND","ND","ND","8.0","2.7","ND","ND","ND","ND","ND","0"],
    [57966,"2016-12-16T01:00:00","9.3","ND","ND","ND","9.6","3.9","ND","ND","ND","ND","ND","0"],
    [57967,"2016-12-16T02:00:00","2.8","ND","ND","ND","6.9","5.2","ND","ND","ND","ND","ND","0"],
    [57968,"2016-12-16T03:00:00","17.8","ND","ND","ND","5.7","5.2","ND","ND","ND","ND","ND","0"],
    [57969,"2016-12-16T04:00:00","28.6","ND","ND","ND","5.6","6.6","ND","ND","ND","ND","ND","0"],
    [57970,"2016-12-16T05:00:00","30.1","ND","ND","ND","4.6","8.6","ND","ND","ND","ND","ND","0"],
    [57971,"2016-12-16T06:00:00","27.9","ND","ND","ND","4.8","10.8","ND","ND","ND","ND","ND","0"],
    [57972,"2016-12-16T07:00:00","30.6","ND","ND","ND","4.6","7.4","ND","ND","ND","ND","ND","0"],
    [57973,"2016-12-16T08:00:00","45.9","ND","ND","ND","5.3","8.3","ND","ND","ND","ND","ND","0"],
    [57974,"2016-12-16T09:00:00","52","ND","ND","ND","13.0","7.7","ND","ND","ND","ND","ND","0"],
    [57975,"2016-12-16T10:00:00","24.1","ND","ND","ND","23.5","4.6","ND","ND","ND","ND","ND","0"],
    [57976,"2016-12-16T11:00:00","11","ND","ND","ND","45.0","3.2","ND","ND","ND","ND","ND","0"],
    [57977,"2016-12-16T12:00:00","8","ND","ND","ND","56.7","3.1","ND","ND","ND","ND","ND","0"],
    [57978,"2016-12-16T13:00:00","13.6","ND","ND","ND","55.9","3.0","ND","ND","ND","ND","ND","0"],
    [57979,"2016-12-16T14:00:00","11.8","ND","ND","ND","49.6","2.9","ND","ND","ND","ND","ND","0"],
    [57980,"2016-12-16T15:00:00","10.7","ND","ND","ND","52.4","1.9","ND","ND","ND","ND","ND","0"],
    [57981,"2016-12-16T16:00:00","0.7","ND","ND","ND","34.5","2.1","ND","ND","ND","ND","ND","0"],
    [57982,"2016-12-16T17:00:00","ND","ND","ND","ND","26.1","1.9","ND","ND","ND","ND","ND","0"],
    [57983,"2016-12-16T18:00:00","27","ND","ND","ND","33.5","2.3","ND","ND","ND","ND","ND","0"],
    [57984,"2016-12-16T19:00:00","55.3","ND","ND","ND","24.1","2.3","ND","ND","ND","ND","ND","0"],
    [57985,"2016-12-16T20:00:00","47.7","ND","ND","ND","16.5","3.6","ND","ND","ND","ND","ND","0.25"],
    [57986,"2016-12-16T21:00:00","29","ND","ND","ND","15.0","7.9","ND","ND","ND","ND","ND","0"],
    [57987,"2016-12-16T22:00:00","20.3","ND","ND","ND","15.8","6.6","ND","ND","ND","ND","ND","0"],
    [57988,"2016-12-16T23:00:00","12.9","ND","ND","ND","14.8","4.6","ND","ND","ND","ND","ND","0"],
    [57989,"2016-12-17T00:00:00","9.3","ND","ND","ND","14.1","4.2","ND","ND","ND","ND","ND","0"],
    [57990,"2016-12-17T01:00:00","10.8","ND","ND","ND","13.6","3.7","ND","ND","ND","ND","ND","0"],
    [57991,"2016-12-17T02:00:00","9.4","ND","ND","ND","14.0","3.3","ND","ND","ND","ND","ND","0"],
    [57992,"2016-12-17T03:00:00","17.3","ND","ND","ND","13.6","3.1","ND","ND","ND","ND","ND","0"],
    [57993,"2016-12-17T04:00:00","4.5","ND","ND","ND","13.4","2.5","ND","ND","ND","ND","ND","0"],
    [57994,"2016-12-17T05:00:00","7.5","ND","ND","ND","13.2","2.9","ND","ND","ND","ND","ND","0"],
    [57995,"2016-12-17T06:00:00","19.3","ND","ND","ND","13.3","5.7","ND","ND","ND","ND","ND","0"],
    [57996,"2016-12-17T07:00:00","29.8","ND","ND","ND","13.5","8.2","ND","ND","ND","ND","ND","0"],
    [57997,"2016-12-17T08:00:00","38.6","ND","ND","ND","13.9","6.3","ND","ND","ND","ND","ND","0"],
    [57998,"2016-12-17T09:00:00","45.5","ND","ND","ND","19.6","8.0","ND","ND","ND","ND","ND","0"],
    [57999,"2016-12-17T10:00:00","32.3","ND","ND","ND","33.1","6.4","ND","ND","ND","ND","ND","0"],
    [58000,"2016-12-17T11:00:00","5.5","ND","ND","ND","43.2","3.2","ND","ND","ND","ND","ND","0"],
    [58001,"2016-12-17T12:00:00","0.4","ND","ND","ND","56.6","3.0","ND","ND","ND","ND","ND","0"],
    [58002,"2016-12-17T13:00:00","6.8","ND","ND","ND","62.4","2.1","ND","ND","ND","ND","ND","0"],
    [58003,"2016-12-17T14:00:00","4.8","ND","ND","ND","52.6","2.6","ND","ND","ND","ND","ND","0"],
    [58004,"2016-12-17T15:00:00","5","ND","ND","ND","39.6","2.1","ND","ND","ND","ND","ND","0"],
    [58005,"2016-12-17T16:00:00","2.1","ND","ND","ND","35.4","1.9","ND","ND","ND","ND","ND","0"],
    [58006,"2016-12-17T17:00:00","ND","ND","ND","ND","34.0","2.6","ND","ND","ND","ND","ND","0"],
    [58007,"2016-12-17T18:00:00","ND","ND","ND","ND","31.0","2.8","ND","ND","ND","ND","ND","0"],
    [58008,"2016-12-17T19:00:00","ND","ND","ND","ND","19.2","1.6","ND","ND","ND","ND","ND","0"],
    [58009,"2016-12-17T20:00:00","36.3","ND","ND","ND","22.9","2.1","ND","ND","ND","ND","ND","0"],
    [58010,"2016-12-17T21:00:00","94.6","ND","ND","ND","18.9","2.0","ND","ND","ND","ND","ND","0"],
    [58011,"2016-12-17T22:00:00","47.6","ND","ND","ND","17.7","3.7","ND","ND","ND","ND","ND","0"],
    [58012,"2016-12-17T23:00:00","19.1","ND","ND","ND","17.7","6.3","ND","ND","ND","ND","ND","0"],
    [58013,"2016-12-18T00:00:00","20.6","ND","ND","ND","15.7","5.3","ND","ND","ND","ND","ND","0"],
    [58014,"2016-12-18T01:00:00","14.2","ND","ND","ND","15.1","7.7","ND","ND","ND","ND","ND","0"],
    [58015,"2016-12-18T02:00:00","15.8","ND","ND","ND","15.0","8.2","ND","ND","ND","ND","ND","0"],
    [58016,"2016-12-18T03:00:00","22","ND","ND","ND","14.9","6.0","ND","ND","ND","ND","ND","0"],
    [58017,"2016-12-18T04:00:00","23.3","ND","ND","ND","14.5","ND","ND","ND","ND","ND","ND","0"],
    [58018,"2016-12-18T05:00:00","22.2","ND","ND","ND","14.0","ND","ND","ND","ND","ND","ND","0"],
    [58019,"2016-12-18T06:00:00","25.5","ND","ND","ND","13.9","ND","ND","ND","ND","ND","ND","0"],
    [58020,"2016-12-18T07:00:00","22.8","ND","ND","ND","14.4","ND","ND","ND","ND","ND","ND","0"],
    [58021,"2016-12-18T08:00:00","39.9","ND","ND","ND","17.7","ND","ND","ND","ND","ND","ND","0"],
    [58022,"2016-12-18T09:00:00","32.9","ND","ND","ND","21.1","9.0","ND","ND","ND","ND","ND","0"],
    [58023,"2016-12-18T10:00:00","23.5","ND","ND","ND","25.6","5.9","ND","ND","ND","ND","ND","0"],
    [58024,"2016-12-18T11:00:00","9.4","ND","ND","ND","43.2","4.0","ND","ND","ND","ND","ND","0"],
    [58025,"2016-12-18T12:00:00","22.4","ND","ND","ND","70.5","3.5","ND","ND","ND","ND","ND","0"],
    [58026,"2016-12-18T13:00:00","5.7","ND","ND","ND","79.7","2.4","ND","ND","ND","ND","ND","0"],
    [58027,"2016-12-18T14:00:00","8.8","ND","ND","ND","99.2","3.0","ND","ND","ND","ND","ND","0"],
    [58028,"2016-12-18T15:00:00","7.9","ND","ND","ND","86.4","3.3","ND","ND","ND","ND","ND","0"],
    [58029,"2016-12-18T16:00:00","19.6","ND","ND","ND","57.2","2.9","ND","ND","ND","ND","ND","0"],
    [58030,"2016-12-18T17:00:00","7.4","ND","ND","ND","39.5","2.1","ND","ND","ND","ND","ND","0"],
    [58031,"2016-12-18T18:00:00","ND","ND","ND","ND","38.4","2.1","ND","ND","ND","ND","ND","0"],
    [58032,"2016-12-18T19:00:00","ND","ND","ND","ND","26.5","2.8","ND","ND","ND","ND","ND","0"],
    [58033,"2016-12-18T20:00:00","6.7","ND","ND","ND","17.2","3.1","ND","ND","ND","ND","ND","0"],
    [58034,"2016-12-18T21:00:00","27.3","ND","ND","ND","16.8","5.0","ND","ND","ND","ND","ND","0"],
    [58035,"2016-12-18T22:00:00","37.8","ND","ND","ND","17.4","5.8","ND","ND","ND","ND","ND","0"],
    [58036,"2016-12-18T23:00:00","38","ND","ND","ND","17.5","5.8","ND","ND","ND","ND","ND","0"],
    [58037,"2016-12-19T00:00:00","22.3","ND","ND","ND","15.6","4.8","ND","ND","ND","ND","ND","0"],
    [58038,"2016-12-19T01:00:00","9.6","ND","ND","ND","16.2","5.7","ND","ND","ND","ND","ND","0"],
    [58039,"2016-12-19T02:00:00","6.8","ND","ND","ND","15.2","4.5","ND","ND","ND","ND","ND","0"],
    [58040,"2016-12-19T03:00:00","9","ND","ND","ND","15.0","4.3","ND","ND","ND","ND","ND","0"],
    [58041,"2016-12-19T04:00:00","18.6","ND","ND","ND","14.3","7.3","ND","ND","ND","ND","ND","0"],
    [58042,"2016-12-19T05:00:00","19.3","ND","ND","ND","13.9","6.1","ND","ND","ND","ND","ND","0"],
    [58043,"2016-12-19T06:00:00","16.9","ND","ND","ND","14.0","4.9","ND","ND","ND","ND","ND","0"],
    [58044,"2016-12-19T07:00:00","21.6","ND","ND","ND","14.3","4.9","ND","ND","ND","ND","ND","0"],
    [58045,"2016-12-19T08:00:00","32.6","ND","ND","ND","14.9","7.6","ND","ND","ND","ND","ND","0"],
    [58046,"2016-12-19T09:00:00","43.6","ND","ND","ND","18.1","7.2","ND","ND","ND","ND","ND","0"],
    [58047,"2016-12-19T10:00:00","42.7","ND","ND","ND","23.4","6.1","ND","ND","ND","ND","ND","0"],
    [58048,"2016-12-19T11:00:00","26.7","ND","ND","ND","41.1","4.7","ND","ND","ND","ND","ND","0"],
    [58049,"2016-12-19T12:00:00","23.4","ND","ND","ND","50.2","3.6","ND","ND","ND","ND","ND","0"],
    [58050,"2016-12-19T13:00:00","14.7","ND","ND","ND","66.9","3.4","ND","ND","ND","ND","ND","0"],
    [58051,"2016-12-19T14:00:00","16.4","ND","ND","ND","89.4","3.3","ND","ND","ND","ND","ND","0"],
    [58052,"2016-12-19T15:00:00","11.8","ND","ND","ND","96.1","2.6","ND","ND","ND","ND","ND","0"],
    [58053,"2016-12-19T16:00:00","19","ND","ND","ND","80.1","2.6","ND","ND","ND","ND","ND","0"],
    [58054,"2016-12-19T17:00:00","8.2","ND","ND","ND","33.6","2.2","ND","ND","ND","ND","ND","0"],
    [58055,"2016-12-19T18:00:00","ND","ND","ND","ND","28.2","2.7","ND","ND","ND","ND","ND","0"],
    [58056,"2016-12-19T19:00:00","0.6","ND","ND","ND","25.0","3.6","ND","ND","ND","ND","ND","0"],
    [58057,"2016-12-19T20:00:00","4.1","ND","ND","ND","25.5","2.8","ND","ND","ND","ND","ND","0"],
    [58058,"2016-12-19T21:00:00","12.4","ND","ND","ND","23.8","5.4","ND","ND","ND","ND","ND","0"],
    [58059,"2016-12-19T22:00:00","38.6","ND","ND","ND","22.4","8.2","ND","ND","ND","ND","ND","0"],
    [58060,"2016-12-19T23:00:00","35.2","ND","ND","ND","22.5","5.9","ND","ND","ND","ND","ND","0"],
    [58061,"2016-12-20T00:00:00","23.2","ND","ND","ND","21.5","4.5","ND","ND","ND","ND","ND","0"],
    [58062,"2016-12-20T01:00:00","17.2","ND","ND","ND","21.6","5.8","ND","ND","ND","ND","ND","0"],
    [58063,"2016-12-20T02:00:00","17.9","ND","ND","ND","20.3","6.0","ND","ND","ND","ND","ND","0"],
    [58064,"2016-12-20T03:00:00","18.8","ND","ND","ND","19.8","4.7","ND","ND","ND","ND","ND","0"],
    [58065,"2016-12-20T04:00:00","16","ND","ND","ND","18.7","4.5","ND","ND","ND","ND","ND","0"],
    [58066,"2016-12-20T05:00:00","15.8","ND","ND","ND","18.4","5.5","ND","ND","ND","ND","ND","0"],
    [58067,"2016-12-20T06:00:00","31.9","ND","ND","ND","18.8","7.3","ND","ND","ND","ND","ND","0"],
    [58068,"2016-12-20T07:00:00","39","ND","ND","ND","18.8","5.8","ND","ND","ND","ND","ND","0"],
    [58069,"2016-12-20T08:00:00","47","ND","ND","ND","19.4","7.2","ND","ND","ND","ND","ND","0"],
    [58070,"2016-12-20T09:00:00","28.3","ND","ND","ND","21.4","5.7","ND","ND","ND","ND","ND","0"],
    [58071,"2016-12-20T10:00:00","26.2","ND","ND","ND","23.1","6.0","ND","ND","ND","ND","ND","0"],
    [58072,"2016-12-20T11:00:00","24.3","ND","ND","ND","29.2","3.5","ND","ND","ND","ND","ND","0"],
    [58073,"2016-12-20T12:00:00","22.8","ND","ND","ND","34.6","3.6","ND","ND","ND","ND","ND","0"],
    [58074,"2016-12-20T13:00:00","23.2","ND","ND","ND","46.7","3.8","ND","ND","ND","ND","ND","0"],
    [58075,"2016-12-20T14:00:00","16.6","ND","ND","ND","79.5","3.3","ND","ND","ND","ND","ND","0"],
    [58076,"2016-12-20T15:00:00","18.8","ND","ND","ND","44.0","2.7","ND","ND","ND","ND","ND","0.25"],
    [58077,"2016-12-20T16:00:00","23.8","ND","ND","ND","30.0","2.5","ND","ND","ND","ND","ND","0"],
    [58078,"2016-12-20T17:00:00","12.8","ND","ND","ND","27.4","2.4","ND","ND","ND","ND","ND","0"],
    [58079,"2016-12-20T18:00:00","9.8","ND","ND","ND","22.3","5.0","ND","ND","ND","ND","ND","0"],
    [58080,"2016-12-20T19:00:00","6.1","ND","ND","ND","19.1","4.6","ND","ND","ND","ND","ND","0"],
    [58081,"2016-12-20T20:00:00","5.5","ND","ND","ND","18.6","4.5","ND","ND","ND","ND","ND","0"],
    [58082,"2016-12-20T21:00:00","9","ND","ND","ND","18.3","ND","ND","ND","ND","ND","ND","0"],
    [58083,"2016-12-20T22:00:00","8.5","ND","ND","ND","17.8","12.4","ND","ND","ND","ND","ND","0"],
    [58084,"2016-12-20T23:00:00","7.5","ND","ND","ND","17.7","7.0","ND","ND","ND","ND","ND","0"],
    [58085,"2016-12-21T00:00:00","7.6","ND","ND","ND","17.5","8.6","ND","ND","ND","ND","ND","0.51"],
    [58086,"2016-12-21T01:00:00","10.5","ND","ND","ND","16.1","4.7","ND","ND","ND","ND","ND","1.27"],
    [58087,"2016-12-21T02:00:00","5.2","ND","ND","ND","16.7","2.6","ND","ND","ND","ND","ND","8.64"],
    [58088,"2016-12-21T03:00:00","1.7","ND","ND","ND","16.6","12.2","ND","ND","ND","ND","ND","8.38"],
    [58089,"2016-12-21T04:00:00","6.6","ND","ND","ND","16.3","2.9","ND","ND","ND","ND","ND","6.6"],
    [58090,"2016-12-21T05:00:00","5","ND","ND","ND","16.4","2.3","ND","ND","ND","ND","ND","4.57"],
    [58091,"2016-12-21T06:00:00","0.9","ND","ND","ND","15.8","2.5","ND","ND","ND","ND","ND","4.57"],
    [58092,"2016-12-21T07:00:00","ND","ND","ND","ND","16.3","2.6","ND","ND","ND","ND","ND","4.83"],
    [58093,"2016-12-21T08:00:00","3.7","ND","ND","ND","15.3","2.4","ND","ND","ND","ND","ND","4.06"],
    [58094,"2016-12-21T09:00:00","12.9","ND","ND","ND","16.4","2.3","ND","ND","ND","ND","ND","3.81"],
    [58095,"2016-12-21T10:00:00","14.5","ND","ND","ND","18.3","3.2","ND","ND","ND","ND","ND","3.56"],
    [58096,"2016-12-21T11:00:00","13.1","ND","ND","ND","25.3","2.3","ND","ND","ND","ND","ND","3.56"],
    [58097,"2016-12-21T12:00:00","4.5","ND","ND","ND","22.9","4.7","ND","ND","ND","ND","ND","3.05"],
    [58098,"2016-12-21T13:00:00","14.5","ND","ND","ND","25.1","4.3","ND","ND","ND","ND","ND","3.05"],
    [58099,"2016-12-21T14:00:00","23.7","ND","ND","ND","35.2","2.9","ND","ND","ND","ND","ND","2.79"],
    [58100,"2016-12-21T15:00:00","10.9","ND","ND","ND","28.4","3.7","ND","ND","ND","ND","ND","2.54"],
    [58101,"2016-12-21T16:00:00","ND","ND","ND","ND","28.4","2.0","ND","ND","ND","ND","ND","1.78"],
    [58102,"2016-12-21T17:00:00","1.2","ND","ND","ND","26.3","2.1","ND","ND","ND","ND","ND","1.02"],
    [58103,"2016-12-21T18:00:00","15.8","ND","ND","ND","19.2","1.8","ND","ND","ND","ND","ND","0.76"],
    [58104,"2016-12-21T19:00:00","23.5","ND","ND","ND","18.3","4.0","ND","ND","ND","ND","ND","0.51"],
    [58105,"2016-12-21T20:00:00","11","ND","ND","ND","17.2","2.8","ND","ND","ND","ND","ND","0.51"],
    [58106,"2016-12-21T21:00:00","1.5","ND","ND","ND","17.0","2.6","ND","ND","ND","ND","ND","0.25"],
    [58107,"2016-12-21T22:00:00","25.6","ND","ND","ND","16.1","3.3","ND","ND","ND","ND","ND","0.25"],
    [58108,"2016-12-21T23:00:00","8.1","ND","ND","ND","16.0","2.3","ND","ND","ND","ND","ND","0"],
    [58109,"2016-12-22T00:00:00","8.3","ND","ND","ND","15.5","2.7","ND","ND","ND","ND","ND","0.25"],
    [58110,"2016-12-22T01:00:00","12.4","ND","ND","ND","15.0","3.0","ND","ND","ND","ND","ND","0"],
    [58111,"2016-12-22T02:00:00","4.6","ND","ND","ND","14.9","2.9","ND","ND","ND","ND","ND","0"],
    [58112,"2016-12-22T03:00:00","6.7","ND","ND","ND","15.5","3.7","ND","ND","ND","ND","ND","0"],
    [58113,"2016-12-22T04:00:00","8.4","ND","ND","ND","14.3","8.4","ND","ND","ND","ND","ND","0.25"],
    [58114,"2016-12-22T05:00:00","8.2","ND","ND","ND","14.4","7.4","ND","ND","ND","ND","ND","0"],
    [58115,"2016-12-22T06:00:00","18.1","ND","ND","ND","15.2","5.6","ND","ND","ND","ND","ND","0"],
    [58116,"2016-12-22T07:00:00","20.4","ND","ND","ND","14.8","3.2","ND","ND","ND","ND","ND","0"],
    [58117,"2016-12-22T08:00:00","28.5","ND","ND","ND","14.2","2.1","ND","ND","ND","ND","ND","0"],
    [58118,"2016-12-22T09:00:00","44.3","ND","ND","ND","19.3","3.2","ND","ND","ND","ND","ND","0"],
    [58119,"2016-12-22T10:00:00","24.1","ND","ND","ND","24.5","2.8","ND","ND","ND","ND","ND","0"],
    [58120,"2016-12-22T11:00:00","17.7","ND","ND","ND","46.8","2.6","ND","ND","ND","ND","ND","0"],
    [58121,"2016-12-22T12:00:00","6.1","ND","ND","ND","62.3","2.7","ND","ND","ND","ND","ND","0"],
    [58122,"2016-12-22T13:00:00","15.4","ND","ND","ND","80.6","2.6","ND","ND","ND","ND","ND","0"],
    [58123,"2016-12-22T14:00:00","10.2","ND","ND","ND","90.8","2.1","ND","ND","ND","ND","ND","0"],
    [58124,"2016-12-22T15:00:00","21.8","ND","ND","ND","51.4","3.1","ND","ND","ND","ND","ND","0"],
    [58125,"2016-12-22T16:00:00","13.6","ND","ND","ND","49.9","3.2","ND","ND","ND","ND","ND","0"],
    [58126,"2016-12-22T17:00:00","9.7","ND","ND","ND","29.5","2.6","ND","ND","ND","ND","ND","0"],
    [58127,"2016-12-22T18:00:00","1.6","ND","ND","ND","25.0","2.1","ND","ND","ND","ND","ND","0"],
    [58128,"2016-12-22T19:00:00","ND","ND","ND","ND","20.2","2.5","ND","ND","ND","ND","ND","0"],
    [58129,"2016-12-22T20:00:00","16.7","ND","ND","ND","17.6","2.1","ND","ND","ND","ND","ND","0"],
    [58130,"2016-12-22T21:00:00","44.6","ND","ND","ND","17.5","2.6","ND","ND","ND","ND","ND","0"],
    [58131,"2016-12-22T22:00:00","46","ND","ND","ND","17.0","6.3","ND","ND","ND","ND","ND","0"],
    [58132,"2016-12-22T23:00:00","38.5","ND","ND","ND","15.0","3.8","ND","ND","ND","ND","ND","0"],
    [58133,"2016-12-23T00:00:00","31.6","ND","ND","ND","15.9","3.2","ND","ND","ND","ND","ND","0"],
    [58134,"2016-12-23T01:00:00","19.4","ND","ND","ND","14.8","3.9","ND","ND","ND","ND","ND","0"],
    [58135,"2016-12-23T02:00:00","ND","ND","ND","ND","15.2","3.3","ND","ND","ND","ND","ND","0"],
    [58136,"2016-12-23T03:00:00","11.1","ND","ND","ND","15.6","3.6","ND","ND","ND","ND","ND","0"],
    [58137,"2016-12-23T04:00:00","29.6","ND","ND","ND","14.4","5.4","ND","ND","ND","ND","ND","0"],
    [58138,"2016-12-23T05:00:00","28.8","ND","ND","ND","13.7","5.8","ND","ND","ND","ND","ND","0"],
    [58139,"2016-12-23T06:00:00","21.2","ND","ND","ND","14.8","5.2","ND","ND","ND","ND","ND","0"],
    [58140,"2016-12-23T07:00:00","34.6","ND","ND","ND","13.6","4.2","ND","ND","ND","ND","ND","0"],
    [58141,"2016-12-23T08:00:00","55.2","ND","ND","ND","14.2","5.0","ND","ND","ND","ND","ND","0"],
    [58142,"2016-12-23T09:00:00","40.8","ND","ND","ND","16.3","5.1","ND","ND","ND","ND","ND","0"],
    [58143,"2016-12-23T10:00:00","31.1","ND","ND","ND","32.8","3.4","ND","ND","ND","ND","ND","0"],
    [58144,"2016-12-23T11:00:00","9.3","ND","ND","ND","46.3","2.9","ND","ND","ND","ND","ND","0"],
    [58145,"2016-12-23T12:00:00","9.2","ND","ND","ND","67.6","2.8","ND","ND","ND","ND","ND","0"],
    [58146,"2016-12-23T13:00:00","11.5","ND","ND","ND","106.9","2.4","ND","ND","ND","ND","ND","0"],
    [58147,"2016-12-23T14:00:00","19.9","ND","ND","ND","101.9","2.1","ND","ND","ND","ND","ND","0"],
    [58148,"2016-12-23T15:00:00","8","ND","ND","ND","61.7","2.3","ND","ND","ND","ND","ND","0"],
    [58149,"2016-12-23T16:00:00","1.6","ND","ND","ND","39.1","2.4","ND","ND","ND","ND","ND","0"],
    [58150,"2016-12-23T17:00:00","4.7","ND","ND","ND","35.5","2.2","ND","ND","ND","ND","ND","0"],
    [58151,"2016-12-23T18:00:00","ND","ND","ND","ND","27.1","2.2","ND","ND","ND","ND","ND","0"],
    [58152,"2016-12-23T19:00:00","ND","ND","ND","ND","20.1","2.4","ND","ND","ND","ND","ND","0"],
    [58153,"2016-12-23T20:00:00","26.9","ND","ND","ND","15.9","3.4","ND","ND","ND","ND","ND","0"],
    [58154,"2016-12-23T21:00:00","43.7","ND","ND","ND","15.7","4.0","ND","ND","ND","ND","ND","0"],
    [58155,"2016-12-23T22:00:00","37.9","ND","ND","ND","16.5","5.0","ND","ND","ND","ND","ND","0"],
    [58156,"2016-12-23T23:00:00","30.8","ND","ND","ND","16.8","4.2","ND","ND","ND","ND","ND","0"],
    [58157,"2016-12-24T00:00:00","16.1","ND","ND","ND","15.0","3.1","ND","ND","ND","ND","ND","0"],
    [58158,"2016-12-24T01:00:00","18.5","ND","ND","ND","13.6","3.3","ND","ND","ND","ND","ND","0"],
    [58159,"2016-12-24T02:00:00","15.3","ND","ND","ND","13.5","3.6","ND","ND","ND","ND","ND","0"],
    [58160,"2016-12-24T03:00:00","15.4","ND","ND","ND","13.1","ND","ND","ND","ND","ND","ND","0"],
    [58161,"2016-12-24T04:00:00","21.2","ND","ND","ND","12.2","12.4","ND","ND","ND","ND","ND","0"],
    [58162,"2016-12-24T05:00:00","11.1","ND","ND","ND","12.9","8.4","ND","ND","ND","ND","ND","0"],
    [58163,"2016-12-24T06:00:00","11.2","ND","ND","ND","11.4","6.7","ND","ND","ND","ND","ND","0"],
    [58164,"2016-12-24T07:00:00","12","ND","ND","ND","11.9","5.6","ND","ND","ND","ND","ND","0"],
    [58165,"2016-12-24T08:00:00","17.3","ND","ND","ND","10.1","4.0","ND","ND","ND","ND","ND","0"],
    [58166,"2016-12-24T09:00:00","19.7","ND","ND","ND","12.8","3.6","ND","ND","ND","ND","ND","0"],
    [58167,"2016-12-24T10:00:00","23.2","ND","ND","ND","25.9","4.0","ND","ND","ND","ND","ND","0"],
    [58168,"2016-12-24T11:00:00","6.8","ND","ND","ND","38.3","2.4","ND","ND","ND","ND","ND","0"],
    [58169,"2016-12-24T12:00:00","ND","ND","ND","ND","50.6","2.1","ND","ND","ND","ND","ND","0"],
    [58170,"2016-12-24T13:00:00","6","ND","ND","ND","57.0","2.2","ND","ND","ND","ND","ND","0"],
    [58171,"2016-12-24T14:00:00","2.8","ND","ND","ND","39.8","2.4","ND","ND","ND","ND","ND","0"],
    [58172,"2016-12-24T15:00:00","3.1","ND","ND","ND","36.3","2.4","ND","ND","ND","ND","ND","0"],
    [58173,"2016-12-24T16:00:00","ND","ND","ND","ND","25.5","2.3","ND","ND","ND","ND","ND","0"],
    [58174,"2016-12-24T17:00:00","ND","ND","ND","ND","24.3","2.4","ND","ND","ND","ND","ND","0"],
    [58175,"2016-12-24T18:00:00","1.2","ND","ND","ND","18.7","2.4","ND","ND","ND","ND","ND","0"],
    [58176,"2016-12-24T19:00:00","1.3","ND","ND","ND","13.1","2.5","ND","ND","ND","ND","ND","0"],
    [58177,"2016-12-24T20:00:00","14.2","ND","ND","ND","10.8","2.7","ND","ND","ND","ND","ND","0"],
    [58178,"2016-12-24T21:00:00","26.7","ND","ND","ND","10.2","2.6","ND","ND","ND","ND","ND","0"],
    [58179,"2016-12-24T22:00:00","29.3","ND","ND","ND","9.8","2.4","ND","ND","ND","ND","ND","0"],
    [58180,"2016-12-24T23:00:00","19.7","ND","ND","ND","9.9","4.2","ND","ND","ND","ND","ND","0"],
    [58181,"2016-12-25T00:00:00","20.8","ND","ND","ND","9.1","10.6","ND","ND","ND","ND","ND","0"],
    [58182,"2016-12-25T01:00:00","15.4","ND","ND","ND","8.6","9.0","ND","ND","ND","ND","ND","0"],
    [58183,"2016-12-25T02:00:00","14.3","ND","ND","ND","7.4","8.5","ND","ND","ND","ND","ND","0"],
    [58184,"2016-12-25T03:00:00","18.5","ND","ND","ND","7.3","7.9","ND","ND","ND","ND","ND","0"],
    [58185,"2016-12-25T04:00:00","17.7","ND","ND","ND","7.9","9.0","ND","ND","ND","ND","ND","0"],
    [58186,"2016-12-25T05:00:00","13.4","ND","ND","ND","6.7","7.6","ND","ND","ND","ND","ND","0"],
    [58187,"2016-12-25T06:00:00","9.8","ND","ND","ND","6.6","7.4","ND","ND","ND","ND","ND","0"],
    [58188,"2016-12-25T07:00:00","16.9","ND","ND","ND","6.3","6.9","ND","ND","ND","ND","ND","0"],
    [58189,"2016-12-25T08:00:00","18","ND","ND","ND","7.6","5.3","ND","ND","ND","ND","ND","0"],
    [58190,"2016-12-25T09:00:00","14.7","ND","ND","ND","12.8","3.8","ND","ND","ND","ND","ND","0"],
    [58191,"2016-12-25T10:00:00","14.5","ND","ND","ND","29.2","3.7","ND","ND","ND","ND","ND","0"],
    [58192,"2016-12-25T11:00:00","6.7","ND","ND","ND","47.2","3.0","ND","ND","ND","ND","ND","0"],
    [58193,"2016-12-25T12:00:00","13","ND","ND","ND","73.6","2.3","ND","ND","ND","ND","ND","0"],
    [58194,"2016-12-25T13:00:00","10.9","ND","ND","ND","86.2","2.7","ND","ND","ND","ND","ND","0"],
    [58195,"2016-12-25T14:00:00","4","ND","ND","ND","71.0","2.0","ND","ND","ND","ND","ND","0"],
    [58196,"2016-12-25T15:00:00","5.5","ND","ND","ND","26.8","2.0","ND","ND","ND","ND","ND","0"],
    [58197,"2016-12-25T16:00:00","1.7","ND","ND","ND","24.4","2.5","ND","ND","ND","ND","ND","0"],
    [58198,"2016-12-25T17:00:00","ND","ND","ND","ND","17.2","1.9","ND","ND","ND","ND","ND","0"],
    [58199,"2016-12-25T18:00:00","ND","ND","ND","ND","15.3","2.5","ND","ND","ND","ND","ND","0"],
    [58200,"2016-12-25T19:00:00","2.7","ND","ND","ND","13.7","2.5","ND","ND","ND","ND","ND","0"],
    [58201,"2016-12-25T20:00:00","5.5","ND","ND","ND","12.3","2.9","ND","ND","ND","ND","ND","0"],
    [58202,"2016-12-25T21:00:00","13.9","ND","ND","ND","10.9","4.8","ND","ND","ND","ND","ND","0"],
    [58203,"2016-12-25T22:00:00","23.1","ND","ND","ND","8.3","4.7","ND","ND","ND","ND","ND","0"],
    [58204,"2016-12-25T23:00:00","28","ND","ND","ND","8.8","3.4","ND","ND","ND","ND","ND","0"],
    [58205,"2016-12-26T00:00:00","19.7","ND","ND","ND","7.5","4.5","ND","ND","ND","ND","ND","0"],
    [58206,"2016-12-26T01:00:00","21","ND","ND","ND","8.1","8.2","ND","ND","ND","ND","ND","0"],
    [58207,"2016-12-26T02:00:00","5.9","ND","ND","ND","7.2","11.7","ND","ND","ND","ND","ND","0"],
    [58208,"2016-12-26T03:00:00","10.4","ND","ND","ND","7.4","12.2","ND","ND","ND","ND","ND","0"],
    [58209,"2016-12-26T04:00:00","1.4","ND","ND","ND","7.5","7.7","ND","ND","ND","ND","ND","0"],
    [58210,"2016-12-26T05:00:00","3.7","ND","ND","ND","6.1","5.8","ND","ND","ND","ND","ND","0"],
    [58211,"2016-12-26T06:00:00","14.2","ND","ND","ND","6.0","5.3","ND","ND","ND","ND","ND","0"],
    [58212,"2016-12-26T07:00:00","17.1","ND","ND","ND","6.4","6.6","ND","ND","ND","ND","ND","0"],
    [58213,"2016-12-26T08:00:00","20.3","ND","ND","ND","5.9","7.6","ND","ND","ND","ND","ND","0"],
    [58214,"2016-12-26T09:00:00","28.3","ND","ND","ND","7.5","ND","ND","ND","ND","ND","ND","0"],
    [58215,"2016-12-26T10:00:00","ND","ND","ND","ND","ND","ND","ND","ND","ND","ND","ND","ND"],
    [58216,"2016-12-26T11:00:00","69.4","ND","ND","ND","9.3","4.2","ND","ND","ND","ND","ND","0"],
    [58217,"2016-12-26T12:00:00","98.4","ND","ND","ND","28.5","3.6","ND","ND","ND","ND","ND","0"],
    [58218,"2016-12-26T13:00:00","24.4","ND","ND","ND","33.4","3.5","ND","ND","ND","ND","ND","0"],
    [58219,"2016-12-26T14:00:00","13.7","ND","ND","ND","49.7","2.9","ND","ND","ND","ND","ND","0"],
    [58220,"2016-12-26T15:00:00","12.8","ND","ND","ND","27.2","2.6","ND","ND","ND","ND","ND","0"],
    [58221,"2016-12-26T16:00:00","2.1","ND","ND","ND","23.8","2.3","ND","ND","ND","ND","ND","0"],
    [58222,"2016-12-26T17:00:00","ND","ND","ND","ND","20.2","2.3","ND","ND","ND","ND","ND","0"],
    [58223,"2016-12-26T18:00:00","3.7","ND","ND","ND","18.5","2.3","ND","ND","ND","ND","ND","0"],
    [58224,"2016-12-26T19:00:00","33.9","ND","ND","ND","12.0","2.8","ND","ND","ND","ND","ND","0"],
    [58225,"2016-12-26T20:00:00","42.9","ND","ND","ND","14.0","3.5","ND","ND","ND","ND","ND","0"],
    [58226,"2016-12-26T21:00:00","11.5","ND","ND","ND","7.3","2.5","ND","ND","ND","ND","ND","0"],
    [58227,"2016-12-26T22:00:00","19.6","ND","ND","ND","12.3","2.0","ND","ND","ND","ND","ND","0"],
    [58228,"2016-12-26T23:00:00","18.3","ND","ND","ND","15.0","3.4","ND","ND","ND","ND","ND","0"],
    [58229,"2016-12-27T00:00:00","20.4","ND","ND","ND","14.9","3.3","ND","ND","ND","ND","ND","0"],
    [58230,"2016-12-27T01:00:00","13","ND","ND","ND","15.4","3.8","ND","ND","ND","ND","ND","0"],
    [58231,"2016-12-27T02:00:00","9.1","ND","ND","ND","17.4","3.9","ND","ND","ND","ND","ND","0"],
    [58232,"2016-12-27T03:00:00","12","ND","ND","ND","20.7","3.1","ND","ND","ND","ND","ND","0"],
    [58233,"2016-12-27T04:00:00","11.9","ND","ND","ND","16.4","4.3","ND","ND","ND","ND","ND","0"],
    [58234,"2016-12-27T05:00:00","10.3","ND","ND","ND","15.8","5.0","ND","ND","ND","ND","ND","0"],
    [58235,"2016-12-27T06:00:00","15.1","ND","ND","ND","16.1","5.5","ND","ND","ND","ND","ND","0"],
    [58236,"2016-12-27T07:00:00","19.8","ND","ND","ND","16.7","4.7","ND","ND","ND","ND","ND","0"],
    [58237,"2016-12-27T08:00:00","21.8","ND","ND","ND","16.9","4.1","ND","ND","ND","ND","ND","0"],
    [58238,"2016-12-27T09:00:00","26","ND","ND","ND","21.2","5.6","ND","ND","ND","ND","ND","0"],
    [58239,"2016-12-27T10:00:00","24.3","ND","ND","ND","25.4","3.0","ND","ND","ND","ND","ND","0"],
    [58240,"2016-12-27T11:00:00","6.6","ND","ND","ND","23.2","3.7","ND","ND","ND","ND","ND","0"],
    [58241,"2016-12-27T12:00:00","6.6","ND","ND","ND","30.1","2.4","ND","ND","ND","ND","ND","0"],
    [58242,"2016-12-27T13:00:00","ND","ND","ND","ND","30.4","1.8","ND","ND","ND","ND","ND","0"],
    [58243,"2016-12-27T14:00:00","ND","ND","ND","ND","33.8","2.3","ND","ND","ND","ND","ND","0"],
    [58244,"2016-12-27T15:00:00","6.8","ND","ND","ND","43.3","1.9","ND","ND","ND","ND","ND","0"],
    [58245,"2016-12-27T16:00:00","12.2","ND","ND","ND","43.7","2.0","ND","ND","ND","ND","ND","0"],
    [58246,"2016-12-27T17:00:00","30","ND","ND","ND","29.2","2.2","ND","ND","ND","ND","ND","0"],
    [58247,"2016-12-27T18:00:00","24.2","ND","ND","ND","20.0","2.4","ND","ND","ND","ND","ND","0"],
    [58248,"2016-12-27T19:00:00","23.2","ND","ND","ND","18.6","2.9","ND","ND","ND","ND","ND","0"],
    [58249,"2016-12-27T20:00:00","18.3","ND","ND","ND","20.1","4.7","ND","ND","ND","ND","ND","0"],
    [58250,"2016-12-27T21:00:00","66.9","ND","ND","ND","19.2","5.6","ND","ND","ND","ND","ND","0"],
    [58251,"2016-12-27T22:00:00","16","ND","ND","ND","16.5","4.4","ND","ND","ND","ND","ND","0"],
    [58252,"2016-12-27T23:00:00","8.3","ND","ND","ND","17.2","4.6","ND","ND","ND","ND","ND","0"],
    [58253,"2016-12-28T00:00:00","15.4","ND","ND","ND","15.7","3.6","ND","ND","ND","ND","ND","0"],
    [58254,"2016-12-28T01:00:00","22.9","ND","ND","ND","14.4","10.7","ND","ND","ND","ND","ND","0"],
    [58255,"2016-12-28T02:00:00","18.1","ND","ND","ND","13.3","10.9","ND","ND","ND","ND","ND","0"],
    [58256,"2016-12-28T03:00:00","39.9","ND","ND","ND","18.2","8.3","ND","ND","ND","ND","ND","0"],
    [58257,"2016-12-28T04:00:00","34.6","ND","ND","ND","17.1","ND","ND","ND","ND","ND","ND","0"],
    [58258,"2016-12-28T05:00:00","17.4","ND","ND","ND","17.2","11.2","ND","ND","ND","ND","ND","0"],
    [58259,"2016-12-28T06:00:00","24.5","ND","ND","ND","18.3","9.1","ND","ND","ND","ND","ND","0"],
    [58260,"2016-12-28T07:00:00","25.1","ND","ND","ND","17.2","9.5","ND","ND","ND","ND","ND","0"],
    [58261,"2016-12-28T08:00:00","28.1","ND","ND","ND","18.6","12.2","ND","ND","ND","ND","ND","0"],
    [58262,"2016-12-28T09:00:00","36.9","ND","ND","ND","20.7","9.5","ND","ND","ND","ND","ND","0"],
    [58263,"2016-12-28T10:00:00","33.4","ND","ND","ND","30.2","8.1","ND","ND","ND","ND","ND","0"],
    [58264,"2016-12-28T11:00:00","21.2","ND","ND","ND","50.2","4.1","ND","ND","ND","ND","ND","0"],
    [58265,"2016-12-28T12:00:00","16.4","ND","ND","ND","75.2","2.9","ND","ND","ND","ND","ND","0"],
    [58266,"2016-12-28T13:00:00","17.1","ND","ND","ND","94.2","3.2","ND","ND","ND","ND","ND","0"],
    [58267,"2016-12-28T14:00:00","22","ND","ND","ND","96.1","2.7","ND","ND","ND","ND","ND","0"],
    [58268,"2016-12-28T15:00:00","16.1","ND","ND","ND","68.7","2.5","ND","ND","ND","ND","ND","0"],
    [58269,"2016-12-28T16:00:00","5.6","ND","ND","ND","43.4","1.9","ND","ND","ND","ND","ND","0"],
    [58270,"2016-12-28T17:00:00","1.2","ND","ND","ND","33.2","2.2","ND","ND","ND","ND","ND","0"],
    [58271,"2016-12-28T18:00:00","4.8","ND","ND","ND","24.0","2.0","ND","ND","ND","ND","ND","0"],
    [58272,"2016-12-28T19:00:00","ND","ND","ND","ND","18.0","2.5","ND","ND","ND","ND","ND","0"],
    [58273,"2016-12-28T20:00:00","5.2","ND","ND","ND","7.0","2.4","ND","ND","ND","ND","ND","0"],
    [58274,"2016-12-28T21:00:00","19.8","ND","ND","ND","6.7","2.9","ND","ND","ND","ND","ND","0"],
    [58275,"2016-12-28T22:00:00","27.6","ND","ND","ND","9.4","4.6","ND","ND","ND","ND","ND","0"],
    [58276,"2016-12-28T23:00:00","19.5","ND","ND","ND","10.9","4.5","ND","ND","ND","ND","ND","0"],
    [58277,"2016-12-29T00:00:00","11.2","ND","ND","ND","11.0","6.3","ND","ND","ND","ND","ND","0"],
    [58278,"2016-12-29T01:00:00","13.4","ND","ND","ND","12.4","4.4","ND","ND","ND","ND","ND","0"],
    [58279,"2016-12-29T02:00:00","12.3","ND","ND","ND","15.7","5.4","ND","ND","ND","ND","ND","0"],
    [58280,"2016-12-29T03:00:00","20.7","ND","ND","ND","18.2","4.6","ND","ND","ND","ND","ND","0"],
    [58281,"2016-12-29T04:00:00","19.7","ND","ND","ND","17.4","7.2","ND","ND","ND","ND","ND","0"],
    [58282,"2016-12-29T05:00:00","21.8","ND","ND","ND","17.2","5.8","ND","ND","ND","ND","ND","0"],
    [58283,"2016-12-29T06:00:00","20.8","ND","ND","ND","17.1","5.9","ND","ND","ND","ND","ND","0"],
    [58284,"2016-12-29T07:00:00","25","ND","ND","ND","17.2","3.8","ND","ND","ND","ND","ND","0"],
    [58285,"2016-12-29T08:00:00","18.4","ND","ND","ND","17.4","4.4","ND","ND","ND","ND","ND","0"],
    [58286,"2016-12-29T09:00:00","19.9","ND","ND","ND","20.1","2.9","ND","ND","ND","ND","ND","0"],
    [58287,"2016-12-29T10:00:00","12.9","ND","ND","ND","25.9","2.8","ND","ND","ND","ND","ND","0"],
    [58288,"2016-12-29T11:00:00","3.4","ND","ND","ND","42.0","2.4","ND","ND","ND","ND","ND","0"],
    [58289,"2016-12-29T12:00:00","14.4","ND","ND","ND","65.7","2.6","ND","ND","ND","ND","ND","0"],
    [58290,"2016-12-29T13:00:00","17.5","ND","ND","ND","66.1","3.0","ND","ND","ND","ND","ND","0"],
    [58291,"2016-12-29T14:00:00","25.2","ND","ND","ND","77.0","3.3","ND","ND","ND","ND","ND","0"],
    [58292,"2016-12-29T15:00:00","12.1","ND","ND","ND","45.9","3.7","ND","ND","ND","ND","ND","0"],
    [58293,"2016-12-29T16:00:00","ND","ND","ND","ND","24.4","2.5","ND","ND","ND","ND","ND","0"],
    [58294,"2016-12-29T17:00:00","ND","ND","ND","ND","16.3","2.2","ND","ND","ND","ND","ND","0"],
    [58295,"2016-12-29T18:00:00","ND","ND","ND","ND","15.7","2.4","ND","ND","ND","ND","ND","0"],
    [58296,"2016-12-29T19:00:00","1.1","ND","ND","ND","7.8","2.2","ND","ND","ND","ND","ND","0"],
    [58297,"2016-12-29T20:00:00","22.6","ND","ND","ND","4.0","2.2","ND","ND","ND","ND","ND","0"],
    [58298,"2016-12-29T21:00:00","25.1","ND","ND","ND","9.0","2.4","ND","ND","ND","ND","ND","0"],
    [58299,"2016-12-29T22:00:00","22.5","ND","ND","ND","25.1","2.5","ND","ND","ND","ND","ND","0"],
    [58300,"2016-12-29T23:00:00","17.7","ND","ND","ND","13.4","1.9","ND","ND","ND","ND","ND","0"],
    [58301,"2016-12-30T00:00:00","2.5","ND","ND","ND","8.0","1.6","ND","ND","ND","ND","ND","0"],
    [58302,"2016-12-30T01:00:00","ND","ND","ND","ND","3.2","2.2","ND","ND","ND","ND","ND","0"],
    [58303,"2016-12-30T02:00:00","5.6","ND","ND","ND","6.8","4.9","ND","ND","ND","ND","ND","0"],
    [58304,"2016-12-30T03:00:00","22.4","ND","ND","ND","7.6","5.2","ND","ND","ND","ND","ND","0"],
    [58305,"2016-12-30T04:00:00","17.5","ND","ND","ND","3.8","4.3","ND","ND","ND","ND","ND","0"],
    [58306,"2016-12-30T05:00:00","19.1","ND","ND","ND","2.5","10.1","ND","ND","ND","ND","ND","0"],
    [58307,"2016-12-30T06:00:00","20.2","ND","ND","ND","2.7","7.6","ND","ND","ND","ND","ND","0"],
    [58308,"2016-12-30T07:00:00","21.6","ND","ND","ND","3.1","6.3","ND","ND","ND","ND","ND","0"],
    [58309,"2016-12-30T08:00:00","27.9","ND","ND","ND","4.9","4.7","ND","ND","ND","ND","ND","0"],
    [58310,"2016-12-30T09:00:00","26.1","ND","ND","ND","17.9","4.2","ND","ND","ND","ND","ND","0"],
    [58311,"2016-12-30T10:00:00","20.5","ND","ND","ND","25.1","4.4","ND","ND","ND","ND","ND","0"],
    [58312,"2016-12-30T11:00:00","15.9","ND","ND","ND","67.0","3.0","ND","ND","ND","ND","ND","0"],
    [58313,"2016-12-30T12:00:00","5.1","ND","ND","ND","88.7","1.9","ND","ND","ND","ND","ND","0"],
    [58314,"2016-12-30T13:00:00","7.4","ND","ND","ND","95.1","2.1","ND","ND","ND","ND","ND","0"],
    [58315,"2016-12-30T14:00:00","17.2","ND","ND","ND","103.7","2.5","ND","ND","ND","ND","ND","0"],
    [58316,"2016-12-30T15:00:00","10.1","ND","ND","ND","89.1","2.4","ND","ND","ND","ND","ND","0"],
    [58317,"2016-12-30T16:00:00","8.5","ND","ND","ND","60.2","3.2","ND","ND","ND","ND","ND","0"],
    [58318,"2016-12-30T17:00:00","7.3","ND","ND","ND","27.0","2.4","ND","ND","ND","ND","ND","0"],
    [58319,"2016-12-30T18:00:00","ND","ND","ND","ND","19.3","2.0","ND","ND","ND","ND","ND","0"],
    [58320,"2016-12-30T19:00:00","3.9","ND","ND","ND","24.1","2.1","ND","ND","ND","ND","ND","0"],
    [58321,"2016-12-30T20:00:00","19.8","ND","ND","ND","20.1","2.2","ND","ND","ND","ND","ND","0"],
    [58322,"2016-12-30T21:00:00","22.1","ND","ND","ND","11.2","2.4","ND","ND","ND","ND","ND","0"],
    [58323,"2016-12-30T22:00:00","22.9","ND","ND","ND","12.0","4.4","ND","ND","ND","ND","ND","0"],
    [58324,"2016-12-30T23:00:00","16","ND","ND","ND","11.7","2.9","ND","ND","ND","ND","ND","0"],
    [58325,"2016-12-31T00:00:00","10.3","ND","ND","ND","11.9","2.5","ND","ND","ND","ND","ND","0"],
    [58326,"2016-12-31T01:00:00","6.3","ND","ND","ND","13.1","2.1","ND","ND","ND","ND","ND","0"],
    [58327,"2016-12-31T02:00:00","4.6","ND","ND","ND","13.3","3.3","ND","ND","ND","ND","ND","0"],
    [58328,"2016-12-31T03:00:00","6.8","ND","ND","ND","10.9","2.7","ND","ND","ND","ND","ND","0"],
    [58329,"2016-12-31T04:00:00","9","ND","ND","ND","10.1","3.8","ND","ND","ND","ND","ND","0"],
    [58330,"2016-12-31T05:00:00","11.5","ND","ND","ND","10.1","4.1","ND","ND","ND","ND","ND","0"],
    [58331,"2016-12-31T06:00:00","7.2","ND","ND","ND","9.9","3.6","ND","ND","ND","ND","ND","0"],
    [58332,"2016-12-31T07:00:00","8","ND","ND","ND","8.9","2.8","ND","ND","ND","ND","ND","0"],
    [58333,"2016-12-31T08:00:00","14.7","ND","ND","ND","9.2","5.2","ND","ND","ND","ND","ND","0"],
    [58334,"2016-12-31T09:00:00","25.7","ND","ND","ND","14.4","4.2","ND","ND","ND","ND","ND","0"],
    [58335,"2016-12-31T10:00:00","18.3","ND","ND","ND","23.7","6.0","ND","ND","ND","ND","ND","0"],
    [58336,"2016-12-31T11:00:00","6.7","ND","ND","ND","40.0","3.6","ND","ND","ND","ND","ND","0"],
    [58337,"2016-12-31T12:00:00","3","ND","ND","ND","45.2","2.7","ND","ND","ND","ND","ND","0"],
    [58338,"2016-12-31T13:00:00","7.3","ND","ND","ND","44.5","2.6","ND","ND","ND","ND","ND","0"],
    [58339,"2016-12-31T14:00:00","10.9","ND","ND","ND","48.0","3.5","ND","ND","ND","ND","ND","0"],
    [58340,"2016-12-31T15:00:00","16.5","ND","ND","ND","56.2","3.8","ND","ND","ND","ND","ND","0"],
    [58341,"2016-12-31T16:00:00","6","ND","ND","ND","57.4","3.5","ND","ND","ND","ND","ND","0"],
    [58342,"2016-12-31T17:00:00","4.9","ND","ND","ND","52.7","3.3","ND","ND","ND","ND","ND","0"],
    [58343,"2016-12-31T18:00:00","9.5","ND","ND","ND","41.2","2.6","ND","ND","ND","ND","ND","0"],
    [58344,"2016-12-31T19:00:00","12.7","ND","ND","ND","13.9","3.3","ND","ND","ND","ND","ND","0"],
    [58345,"2016-12-31T20:00:00","23.2","ND","ND","ND","10.5","2.9","ND","ND","ND","ND","ND","0"],
    [58346,"2016-12-31T21:00:00","14.6","ND","ND","ND","6.4","2.4","ND","ND","ND","ND","ND","0"],
    [58347,"2016-12-31T22:00:00","13.8","ND","ND","ND","6.0","3.4","ND","ND","ND","ND","ND","0"],
    [58348,"2016-12-31T23:00:00","15.6","ND","ND","ND","7.3","5.0","ND","ND","ND","ND","ND","0"],
    [58349,"2017-01-01T00:00:00","21","ND","ND","ND","7.1","5.4","ND","ND","ND","ND","ND","0"],
    [58350,"2017-01-01T01:00:00","17.7","ND","ND","ND","8.5","5.0","ND","ND","ND","ND","ND","0"],
    [58351,"2017-01-01T02:00:00","25.5","ND","ND","ND","8.4","5.2","ND","ND","ND","ND","ND","0"],
    [58352,"2017-01-01T03:00:00","22.1","ND","ND","ND","7.5","7.1","ND","ND","ND","ND","ND","0"],
    [58353,"2017-01-01T04:00:00","24.1","ND","ND","ND","7.9","6.9","ND","ND","ND","ND","ND","0"],
    [58354,"2017-01-01T05:00:00","32.4","ND","ND","ND","9.1","6.6","ND","ND","ND","ND","ND","0"],
    [58355,"2017-01-01T06:00:00","43.8","ND","ND","ND","8.1","10.0","ND","ND","ND","ND","ND","0"],
    [58356,"2017-01-01T07:00:00","21.1","ND","ND","ND","7.2","ND","ND","ND","ND","ND","ND","0"],
    [58357,"2017-01-01T08:00:00","24.9","ND","ND","ND","11.0","ND","ND","ND","ND","ND","ND","0"],
    [58358,"2017-01-01T09:00:00","31.2","ND","ND","ND","19.0","ND","ND","ND","ND","ND","ND","0"],
    [58359,"2017-01-01T10:00:00","19.2","ND","ND","ND","42.6","6.9","ND","ND","ND","ND","ND","0"],
    [58360,"2017-01-01T11:00:00","4.4","ND","ND","ND","71.4","3.9","ND","ND","ND","ND","ND","0"],
    [58361,"2017-01-01T12:00:00","1.4","ND","ND","ND","68.6","2.9","ND","ND","ND","ND","ND","0"],
    [58362,"2017-01-01T13:00:00","14.8","ND","ND","ND","73.9","3.0","ND","ND","ND","ND","ND","0"],
    [58363,"2017-01-01T14:00:00","6.6","ND","ND","ND","40.6","2.0","ND","ND","ND","ND","ND","0"],
    [58364,"2017-01-01T15:00:00","ND","ND","ND","ND","27.5","2.2","ND","ND","ND","ND","ND","0"],
    [58365,"2017-01-01T16:00:00","ND","ND","ND","ND","31.0","1.8","ND","ND","ND","ND","ND","0"],
    [58366,"2017-01-01T17:00:00","ND","ND","ND","ND","26.8","2.6","ND","ND","ND","ND","ND","0"],
    [58367,"2017-01-01T18:00:00","ND","ND","ND","ND","20.4","2.4","ND","ND","ND","ND","ND","0"],
    [58368,"2017-01-01T19:00:00","ND","ND","ND","ND","14.1","2.5","ND","ND","ND","ND","ND","0"],
    [58369,"2017-01-01T20:00:00","9.8","ND","ND","ND","11.6","2.6","ND","ND","ND","ND","ND","0"],
    [58370,"2017-01-01T21:00:00","15.3","ND","ND","ND","7.1","2.4","ND","ND","ND","ND","ND","0"],
    [58371,"2017-01-01T22:00:00","16.7","ND","ND","ND","10.2","1.9","ND","ND","ND","ND","ND","0"],
    [58372,"2017-01-01T23:00:00","6.9","ND","ND","ND","7.3","2.5","ND","ND","ND","ND","ND","0"],
    [58373,"2017-01-02T00:00:00","3.2","ND","ND","ND","7.6","3.0","ND","ND","ND","ND","ND","0"],
    [58374,"2017-01-02T01:00:00","6.5","ND","ND","ND","4.5","10.3","ND","ND","ND","ND","ND","0"],
    [58375,"2017-01-02T02:00:00","20.4","ND","ND","ND","4.0","9.3","ND","ND","ND","ND","ND","0"],
    [58376,"2017-01-02T03:00:00","15.7","ND","ND","ND","4.6","8.6","ND","ND","ND","ND","ND","0"],
    [58377,"2017-01-02T04:00:00","11.2","ND","ND","ND","5.8","5.5","ND","ND","ND","ND","ND","0"],
    [58378,"2017-01-02T05:00:00","9.2","ND","ND","ND","5.7","4.0","ND","ND","ND","ND","ND","0"],
    [58379,"2017-01-02T06:00:00","5.8","ND","ND","ND","5.6","3.8","ND","ND","ND","ND","ND","0"],
    [58380,"2017-01-02T07:00:00","7.7","ND","ND","ND","5.4","3.3","ND","ND","ND","ND","ND","0"],
    [58381,"2017-01-02T08:00:00","19.6","ND","ND","ND","10.6","4.7","ND","ND","ND","ND","ND","0"],
    [58382,"2017-01-02T09:00:00","45.4","ND","ND","ND","14.2","3.8","ND","ND","ND","ND","ND","0"],
    [58383,"2017-01-02T10:00:00","61.4","ND","ND","ND","26.5","4.0","ND","ND","ND","ND","ND","0"],
    [58384,"2017-01-02T11:00:00","13.7","ND","ND","ND","34.8","3.1","ND","ND","ND","ND","ND","0"],
    [58385,"2017-01-02T12:00:00","7.2","ND","ND","ND","44.4","2.5","ND","ND","ND","ND","ND","0"],
    [58386,"2017-01-02T13:00:00","1.9","ND","ND","ND","60.1","2.7","ND","ND","ND","ND","ND","0"],
    [58387,"2017-01-02T14:00:00","8.6","ND","ND","ND","80.1","2.1","ND","ND","ND","ND","ND","0"],
    [58388,"2017-01-02T15:00:00","11","ND","ND","ND","84.5","2.5","ND","ND","ND","ND","ND","0"],
    [58389,"2017-01-02T16:00:00","6","ND","ND","ND","54.1","2.3","ND","ND","ND","ND","ND","0"],
    [58390,"2017-01-02T17:00:00","ND","ND","ND","ND","38.2","2.4","ND","ND","ND","ND","ND","0"],
    [58391,"2017-01-02T18:00:00","10.4","ND","ND","ND","20.5","2.4","ND","ND","ND","ND","ND","0"],
    [58392,"2017-01-02T19:00:00","ND","ND","ND","ND","9.6","2.8","ND","ND","ND","ND","ND","0"],
    [58393,"2017-01-02T20:00:00","2.5","ND","ND","ND","5.0","2.2","ND","ND","ND","ND","ND","0"],
    [58394,"2017-01-02T21:00:00","18.8","ND","ND","ND","5.8","3.0","ND","ND","ND","ND","ND","0"],
    [58395,"2017-01-02T22:00:00","27.3","ND","ND","ND","7.9","4.9","ND","ND","ND","ND","ND","0"],
    [58396,"2017-01-02T23:00:00","18.4","ND","ND","ND","7.5","4.1","ND","ND","ND","ND","ND","0"],
    [58397,"2017-01-03T00:00:00","13.4","ND","ND","ND","7.4","4.3","ND","ND","ND","ND","ND","0"],
    [58398,"2017-01-03T01:00:00","15.5","ND","ND","ND","5.9","4.3","ND","ND","ND","ND","ND","0"],
    [58399,"2017-01-03T02:00:00","9.9","ND","ND","ND","5.9","5.3","ND","ND","ND","ND","ND","0"],
    [58400,"2017-01-03T03:00:00","15.4","ND","ND","ND","7.1","5.5","ND","ND","ND","ND","ND","0"],
    [58401,"2017-01-03T04:00:00","14.8","ND","ND","ND","7.8","4.8","ND","ND","ND","ND","ND","0"],
    [58402,"2017-01-03T05:00:00","9.6","ND","ND","ND","6.9","5.3","ND","ND","ND","ND","ND","0"],
    [58403,"2017-01-03T06:00:00","9","ND","ND","ND","5.6","5.5","ND","ND","ND","ND","ND","0"],
    [58404,"2017-01-03T07:00:00","13.9","ND","ND","ND","7.6","5.1","ND","ND","ND","ND","ND","0"],
    [58405,"2017-01-03T08:00:00","25.1","ND","ND","ND","9.7","5.7","ND","ND","ND","ND","ND","0"],
    [58406,"2017-01-03T09:00:00","24.6","ND","ND","ND","17.5","4.6","ND","ND","ND","ND","ND","0"],
    [58407,"2017-01-03T10:00:00","16.4","ND","ND","ND","34.7","3.6","ND","ND","ND","ND","ND","0"],
    [58408,"2017-01-03T11:00:00","13.5","ND","ND","ND","63.9","2.6","ND","ND","ND","ND","ND","0"],
    [58409,"2017-01-03T12:00:00","17","ND","ND","ND","98.7","3.0","ND","ND","ND","ND","ND","0"],
    [58410,"2017-01-03T13:00:00","11.7","ND","ND","ND","88.2","3.2","ND","ND","ND","ND","ND","0"],
    [58411,"2017-01-03T14:00:00","18.1","ND","ND","ND","79.2","2.7","ND","ND","ND","ND","ND","0"],
    [58412,"2017-01-03T15:00:00","6.4","ND","ND","ND","56.5","3.0","ND","ND","ND","ND","ND","0"],
    [58413,"2017-01-03T16:00:00","4.1","ND","ND","ND","32.9","2.1","ND","ND","ND","ND","ND","0"],
    [58414,"2017-01-03T17:00:00","1","ND","ND","ND","28.0","2.6","ND","ND","ND","ND","ND","0"],
    [58415,"2017-01-03T18:00:00","ND","ND","ND","ND","22.7","1.7","ND","ND","ND","ND","ND","0"],
    [58416,"2017-01-03T19:00:00","ND","ND","ND","ND","15.0","2.3","ND","ND","ND","ND","ND","0"],
    [58417,"2017-01-03T20:00:00","19.6","ND","ND","ND","6.3","2.8","ND","ND","ND","ND","ND","0"],
    [58418,"2017-01-03T21:00:00","28.9","ND","ND","ND","4.5","4.4","ND","ND","ND","ND","ND","0"],
    [58419,"2017-01-03T22:00:00","38.6","ND","ND","ND","6.7","6.8","ND","ND","ND","ND","ND","0"],
    [58420,"2017-01-03T23:00:00","26.1","ND","ND","ND","6.1","4.2","ND","ND","ND","ND","ND","0"],
    [58421,"2017-01-04T00:00:00","18.4","ND","ND","ND","5.8","3.7","ND","ND","ND","ND","ND","0"],
    [58422,"2017-01-04T01:00:00","12.9","ND","ND","ND","5.6","5.3","ND","ND","ND","ND","ND","0"],
    [58423,"2017-01-04T02:00:00","6","ND","ND","ND","6.3","4.5","ND","ND","ND","ND","ND","0"],
    [58424,"2017-01-04T03:00:00","9.2","ND","ND","ND","6.5","3.6","ND","ND","ND","ND","ND","0"],
    [58425,"2017-01-04T04:00:00","11.8","ND","ND","ND","12.1","3.5","ND","ND","ND","ND","ND","0"],
    [58426,"2017-01-04T05:00:00","19.8","ND","ND","ND","13.2","3.2","ND","ND","ND","ND","ND","0"],
    [58427,"2017-01-04T06:00:00","11.9","ND","ND","ND","13.0","2.6","ND","ND","ND","ND","ND","0"],
    [58428,"2017-01-04T07:00:00","11.8","ND","ND","ND","10.6","2.8","ND","ND","ND","ND","ND","0"],
    [58429,"2017-01-04T08:00:00","16.1","ND","ND","ND","9.2","12.3","ND","ND","ND","ND","ND","0"],
    [58430,"2017-01-04T09:00:00","3.3","ND","ND","ND","9.4","13.2","ND","ND","ND","ND","ND","0"],
    [58431,"2017-01-04T10:00:00","12","ND","ND","ND","11.6","8.8","ND","ND","ND","ND","ND","0"],
    [58432,"2017-01-04T11:00:00","25.7","ND","ND","ND","18.4","9.5","ND","ND","ND","ND","ND","0"],
    [58433,"2017-01-04T12:00:00","25.6","ND","ND","ND","30.4","6.1","ND","ND","ND","ND","ND","0"],
    [58434,"2017-01-04T13:00:00","19.9","ND","ND","ND","54.0","4.5","ND","ND","ND","ND","ND","0"],
    [58435,"2017-01-04T14:00:00","10.8","ND","ND","ND","70.5","3.5","ND","ND","ND","ND","ND","0"],
    [58436,"2017-01-04T15:00:00","12.5","ND","ND","ND","69.6","2.8","ND","ND","ND","ND","ND","0"],
    [58437,"2017-01-04T16:00:00","7.7","ND","ND","ND","50.1","4.5","ND","ND","ND","ND","ND","0"],
    [58438,"2017-01-04T17:00:00","4.2","ND","ND","ND","26.7","7.3","ND","ND","ND","ND","ND","0"],
    [58439,"2017-01-04T18:00:00","18.5","ND","ND","ND","22.2","ND","ND","ND","ND","ND","ND","0"],
    [58440,"2017-01-04T19:00:00","17.7","ND","ND","ND","14.3","13.2","ND","ND","ND","ND","ND","0"],
    [58441,"2017-01-04T20:00:00","30.5","ND","ND","ND","13.9","7.6","ND","ND","ND","ND","ND","0"],
    [58442,"2017-01-04T21:00:00","22.1","ND","ND","ND","9.9","7.0","ND","ND","ND","ND","ND","0"],
    [58443,"2017-01-04T22:00:00","13.8","ND","ND","ND","9.9","6.9","ND","ND","ND","ND","ND","0"],
    [58444,"2017-01-04T23:00:00","21.6","ND","ND","ND","8.9","8.5","ND","ND","ND","ND","ND","0"],
    [58445,"2017-01-05T00:00:00","18.6","ND","ND","ND","9.0","6.1","ND","ND","ND","ND","ND","0"],
    [58446,"2017-01-05T01:00:00","4.6","ND","ND","ND","7.2","6.1","ND","ND","ND","ND","ND","0"],
    [58447,"2017-01-05T02:00:00","6.8","ND","ND","ND","5.4","5.2","ND","ND","ND","ND","ND","0"],
    [58448,"2017-01-05T03:00:00","11.3","ND","ND","ND","5.1","5.1","ND","ND","ND","ND","ND","0"],
    [58449,"2017-01-05T04:00:00","18.4","ND","ND","ND","5.7","4.3","ND","ND","ND","ND","ND","0"],
    [58450,"2017-01-05T05:00:00","24.1","ND","ND","ND","5.8","8.0","ND","ND","ND","ND","ND","0"],
    [58451,"2017-01-05T06:00:00","21.8","ND","ND","ND","4.4","ND","ND","ND","ND","ND","ND","0"],
    [58452,"2017-01-05T07:00:00","11","ND","ND","ND","5.7","12.9","ND","ND","ND","ND","ND","0"],
    [58453,"2017-01-05T08:00:00","28.5","ND","ND","ND","6.8","9.4","ND","ND","ND","ND","ND","0"],
    [58454,"2017-01-05T09:00:00","29.1","ND","ND","ND","9.8","8.3","ND","ND","ND","ND","ND","0"],
    [58455,"2017-01-05T10:00:00","30.5","ND","ND","ND","12.5","7.9","ND","ND","ND","ND","ND","0"],
    [58456,"2017-01-05T11:00:00","18.4","ND","ND","ND","14.1","4.7","ND","ND","ND","ND","ND","0"],
    [58457,"2017-01-05T12:00:00","15.8","ND","ND","ND","19.8","2.9","ND","ND","ND","ND","ND","0"],
    [58458,"2017-01-05T13:00:00","17.7","ND","ND","ND","21.0","3.5","ND","ND","ND","ND","ND","0"],
    [58459,"2017-01-05T14:00:00","11.3","ND","ND","ND","19.0","7.9","ND","ND","ND","ND","ND","0"],
    [58460,"2017-01-05T15:00:00","12.9","ND","ND","ND","29.1","7.5","ND","ND","ND","ND","ND","0"],
    [58461,"2017-01-05T16:00:00","16.5","ND","ND","ND","32.6","3.9","ND","ND","ND","ND","ND","0"],
    [58462,"2017-01-05T17:00:00","13","ND","ND","ND","33.0","3.3","ND","ND","ND","ND","ND","0"],
    [58463,"2017-01-05T18:00:00","10","ND","ND","ND","23.1","4.2","ND","ND","ND","ND","ND","0"],
    [58464,"2017-01-05T19:00:00","13.8","ND","ND","ND","18.2","4.1","ND","ND","ND","ND","ND","0"],
    [58465,"2017-01-05T20:00:00","19.2","ND","ND","ND","13.0","4.0","ND","ND","ND","ND","ND","0"],
    [58466,"2017-01-05T21:00:00","25","ND","ND","ND","12.0","4.0","ND","ND","ND","ND","ND","0"],
    [58467,"2017-01-05T22:00:00","20.9","ND","ND","ND","11.9","3.4","ND","ND","ND","ND","ND","0"],
    [58468,"2017-01-05T23:00:00","19.2","ND","ND","ND","12.4","4.3","ND","ND","ND","ND","ND","0"],
    [58469,"2017-01-06T00:00:00","28","ND","ND","ND","11.1","5.3","ND","ND","ND","ND","ND","0"],
    [58470,"2017-01-06T01:00:00","18.2","ND","ND","ND","10.8","ND","ND","ND","ND","ND","ND","0"],
    [58471,"2017-01-06T02:00:00","19.8","ND","ND","ND","10.4","ND","ND","ND","ND","ND","ND","0"],
    [58472,"2017-01-06T03:00:00","18.1","ND","ND","ND","10.5","11.6","ND","ND","ND","ND","ND","0"],
    [58473,"2017-01-06T04:00:00","13","ND","ND","ND","10.3","13.1","ND","ND","ND","ND","ND","0"],
    [58474,"2017-01-06T05:00:00","12","ND","ND","ND","9.0","10.6","ND","ND","ND","ND","ND","0"],
    [58475,"2017-01-06T06:00:00","16.1","ND","ND","ND","9.1","6.1","ND","ND","ND","ND","ND","0"],
    [58476,"2017-01-06T07:00:00","19.3","ND","ND","ND","8.7","5.9","ND","ND","ND","ND","ND","0"],
    [58477,"2017-01-06T08:00:00","23.4","ND","ND","ND","9.0","5.3","ND","ND","ND","ND","ND","0"],
    [58478,"2017-01-06T09:00:00","33.8","ND","ND","ND","13.1","4.9","ND","ND","ND","ND","ND","0"],
    [58479,"2017-01-06T10:00:00","36.3","ND","ND","ND","30.5","5.3","ND","ND","ND","ND","ND","0"],
    [58480,"2017-01-06T11:00:00","20.6","ND","ND","ND","51.7","4.5","ND","ND","ND","ND","ND","0"],
    [58481,"2017-01-06T12:00:00","15.2","ND","ND","ND","87.4","3.8","ND","ND","ND","ND","ND","0"],
    [58482,"2017-01-06T13:00:00","13.6","ND","ND","ND","111.6","3.2","ND","ND","ND","ND","ND","0"],
    [58483,"2017-01-06T14:00:00","15.2","ND","ND","ND","92.5","3.5","ND","ND","ND","ND","ND","0"],
    [58484,"2017-01-06T15:00:00","11.4","ND","ND","ND","58.1","2.3","ND","ND","ND","ND","ND","0"],
    [58485,"2017-01-06T16:00:00","1.2","ND","ND","ND","34.9","2.1","ND","ND","ND","ND","ND","0"],
    [58486,"2017-01-06T17:00:00","ND","ND","ND","ND","20.8","2.1","ND","ND","ND","ND","ND","0"],
    [58487,"2017-01-06T18:00:00","ND","ND","ND","ND","17.7","2.3","ND","ND","ND","ND","ND","0"],
    [58488,"2017-01-06T19:00:00","ND","ND","ND","ND","16.8","2.1","ND","ND","ND","ND","ND","0"],
    [58489,"2017-01-06T20:00:00","19.3","ND","ND","ND","6.6","2.9","ND","ND","ND","ND","ND","0"],
    [58490,"2017-01-06T21:00:00","24.7","ND","ND","ND","5.9","4.7","ND","ND","ND","ND","ND","0"],
    [58491,"2017-01-06T22:00:00","27.5","ND","ND","ND","8.0","5.9","ND","ND","ND","ND","ND","0"],
    [58492,"2017-01-06T23:00:00","26.1","ND","ND","ND","8.3","5.1","ND","ND","ND","ND","ND","0"],
    [58493,"2017-01-07T00:00:00","26","ND","ND","ND","7.1","4.8","ND","ND","ND","ND","ND","0"],
    [58494,"2017-01-07T01:00:00","10.6","ND","ND","ND","6.6","4.7","ND","ND","ND","ND","ND","0"],
    [58495,"2017-01-07T02:00:00","5.5","ND","ND","ND","6.8","3.6","ND","ND","ND","ND","ND","0"],
    [58496,"2017-01-07T03:00:00","14.9","ND","ND","ND","6.8","5.6","ND","ND","ND","ND","ND","0"],
    [58497,"2017-01-07T04:00:00","24.5","ND","ND","ND","7.1","5.3","ND","ND","ND","ND","ND","0"],
    [58498,"2017-01-07T05:00:00","22.7","ND","ND","ND","8.0","4.9","ND","ND","ND","ND","ND","0"],
    [58499,"2017-01-07T06:00:00","18.6","ND","ND","ND","7.8","3.7","ND","ND","ND","ND","ND","0"],
    [58500,"2017-01-07T07:00:00","18.2","ND","ND","ND","8.1","3.7","ND","ND","ND","ND","ND","0"],
    [58501,"2017-01-07T08:00:00","22.1","ND","ND","ND","9.2","6.2","ND","ND","ND","ND","ND","0"],
    [58502,"2017-01-07T09:00:00","27.3","ND","ND","ND","13.3","5.7","ND","ND","ND","ND","ND","0"],
    [58503,"2017-01-07T10:00:00","38.2","ND","ND","ND","24.0","6.1","ND","ND","ND","ND","ND","0"],
    [58504,"2017-01-07T11:00:00","28.8","ND","ND","ND","34.7","5.6","ND","ND","ND","ND","ND","0"],
    [58505,"2017-01-07T12:00:00","21.8","ND","ND","ND","52.3","3.4","ND","ND","ND","ND","ND","0"],
    [58506,"2017-01-07T13:00:00","8.8","ND","ND","ND","61.1","3.0","ND","ND","ND","ND","ND","0"],
    [58507,"2017-01-07T14:00:00","16.1","ND","ND","ND","87.8","2.6","ND","ND","ND","ND","ND","0"],
    [58508,"2017-01-07T15:00:00","12.9","ND","ND","ND","85.5","1.9","ND","ND","ND","ND","ND","0"],
    [58509,"2017-01-07T16:00:00","6.1","ND","ND","ND","43.9","1.7","ND","ND","ND","ND","ND","0"],
    [58510,"2017-01-07T17:00:00","1","ND","ND","ND","34.6","2.0","ND","ND","ND","ND","ND","0"],
    [58511,"2017-01-07T18:00:00","ND","ND","ND","ND","28.5","2.3","ND","ND","ND","ND","ND","0"],
    [58512,"2017-01-07T19:00:00","2.1","ND","ND","ND","13.2","1.9","ND","ND","ND","ND","ND","0"],
    [58513,"2017-01-07T20:00:00","20","ND","ND","ND","10.1","3.0","ND","ND","ND","ND","ND","0"],
    [58514,"2017-01-07T21:00:00","23.2","ND","ND","ND","8.0","5.4","ND","ND","ND","ND","ND","0"],
    [58515,"2017-01-07T22:00:00","26.2","ND","ND","ND","7.0","6.2","ND","ND","ND","ND","ND","0"],
    [58516,"2017-01-07T23:00:00","17.8","ND","ND","ND","7.8","5.2","ND","ND","ND","ND","ND","0"],
    [58517,"2017-01-08T00:00:00","6.2","ND","ND","ND","17.8","1.8","ND","ND","ND","ND","ND","0"],
    [58518,"2017-01-08T01:00:00","ND","ND","ND","ND","27.0","1.5","ND","ND","ND","ND","ND","0"],
    [58519,"2017-01-08T02:00:00","8.7","ND","ND","ND","18.7","2.0","ND","ND","ND","ND","ND","0"],
    [58520,"2017-01-08T03:00:00","27.8","ND","ND","ND","14.3","2.4","ND","ND","ND","ND","ND","0"],
    [58521,"2017-01-08T04:00:00","13.3","ND","ND","ND","13.0","6.4","ND","ND","ND","ND","ND","0"],
    [58522,"2017-01-08T05:00:00","3.6","ND","ND","ND","12.6","6.8","ND","ND","ND","ND","ND","0"],
    [58523,"2017-01-08T06:00:00","5.2","ND","ND","ND","9.9","5.1","ND","ND","ND","ND","ND","0"],
    [58524,"2017-01-08T07:00:00","4.3","ND","ND","ND","10.1","10.0","ND","ND","ND","ND","ND","0"],
    [58525,"2017-01-08T08:00:00","7.6","ND","ND","ND","11.5","5.3","ND","ND","ND","ND","ND","0"],
    [58526,"2017-01-08T09:00:00","2.8","ND","ND","ND","11.3","3.5","ND","ND","ND","ND","ND","0"],
    [58527,"2017-01-08T10:00:00","13.6","ND","ND","ND","16.3","3.4","ND","ND","ND","ND","ND","0"],
    [58528,"2017-01-08T11:00:00","8.8","ND","ND","ND","20.8","2.3","ND","ND","ND","ND","ND","0"],
    [58529,"2017-01-08T12:00:00","8.6","ND","ND","ND","25.9","2.6","ND","ND","ND","ND","ND","0"],
    [58530,"2017-01-08T13:00:00","8.3","ND","ND","ND","37.7","2.8","ND","ND","ND","ND","ND","0"],
    [58531,"2017-01-08T14:00:00","7.7","ND","ND","ND","33.2","3.5","ND","ND","ND","ND","ND","0"],
    [58532,"2017-01-08T15:00:00","18.6","ND","ND","ND","30.9","5.7","ND","ND","ND","ND","ND","0"],
    [58533,"2017-01-08T16:00:00","5.5","ND","ND","ND","29.8","3.2","ND","ND","ND","ND","ND","0"],
    [58534,"2017-01-08T17:00:00","ND","ND","ND","ND","25.4","3.8","ND","ND","ND","ND","ND","0"],
    [58535,"2017-01-08T18:00:00","7.8","ND","ND","ND","20.1","5.9","ND","ND","ND","ND","ND","0"],
    [58536,"2017-01-08T19:00:00","11.3","ND","ND","ND","16.9","2.6","ND","ND","ND","ND","ND","0"],
    [58537,"2017-01-08T20:00:00","12.8","ND","ND","ND","8.4","2.8","ND","ND","ND","ND","ND","0"],
    [58538,"2017-01-08T21:00:00","13.9","ND","ND","ND","9.5","2.5","ND","ND","ND","ND","ND","0"],
    [58539,"2017-01-08T22:00:00","18.4","ND","ND","ND","10.9","2.5","ND","ND","ND","ND","ND","0"],
    [58540,"2017-01-08T23:00:00","17.8","ND","ND","ND","7.6","4.5","ND","ND","ND","ND","ND","0"],
    [58541,"2017-01-09T00:00:00","1.8","ND","ND","ND","6.1","8.8","ND","ND","ND","ND","ND","0"],
    [58542,"2017-01-09T01:00:00","ND","ND","ND","ND","6.4","9.3","ND","ND","ND","ND","ND","0"],
    [58543,"2017-01-09T02:00:00","12.4","ND","ND","ND","7.6","7.0","ND","ND","ND","ND","ND","0"],
    [58544,"2017-01-09T03:00:00","24.4","ND","ND","ND","5.1","5.9","ND","ND","ND","ND","ND","0"],
    [58545,"2017-01-09T04:00:00","16.6","ND","ND","ND","5.4","3.7","ND","ND","ND","ND","ND","0"],
    [58546,"2017-01-09T05:00:00","7.9","ND","ND","ND","3.1","2.7","ND","ND","ND","ND","ND","0"],
    [58547,"2017-01-09T06:00:00","ND","ND","ND","ND","2.1","2.5","ND","ND","ND","ND","ND","0"],
    [58548,"2017-01-09T07:00:00","4.2","ND","ND","ND","3.1","3.3","ND","ND","ND","ND","ND","0"],
    [58549,"2017-01-09T08:00:00","30.6","ND","ND","ND","5.0","10.5","ND","ND","ND","ND","ND","0"],
    [58550,"2017-01-09T09:00:00","55.6","ND","ND","ND","9.1","11.8","ND","ND","ND","ND","ND","0"],
    [58551,"2017-01-09T10:00:00","51.1","ND","ND","ND","29.3","10.7","ND","ND","ND","ND","ND","0"],
    [58552,"2017-01-09T11:00:00","14.8","ND","ND","ND","49.7","3.3","ND","ND","ND","ND","ND","0"],
    [58553,"2017-01-09T12:00:00","ND","ND","ND","ND","58.4","2.7","ND","ND","ND","ND","ND","0"],
    [58554,"2017-01-09T13:00:00","7.8","ND","ND","ND","74.3","2.8","ND","ND","ND","ND","ND","0"],
    [58555,"2017-01-09T14:00:00","17.3","ND","ND","ND","68.8","3.1","ND","ND","ND","ND","ND","0"],
    [58556,"2017-01-09T15:00:00","4","ND","ND","ND","37.3","2.1","ND","ND","ND","ND","ND","0"],
    [58557,"2017-01-09T16:00:00","ND","ND","ND","ND","38.1","1.6","ND","ND","ND","ND","ND","0"],
    [58558,"2017-01-09T17:00:00","ND","ND","ND","ND","24.8","2.2","ND","ND","ND","ND","ND","0"],
    [58559,"2017-01-09T18:00:00","7.9","ND","ND","ND","12.5","3.2","ND","ND","ND","ND","ND","0"],
    [58560,"2017-01-09T19:00:00","1.6","ND","ND","ND","7.5","3.1","ND","ND","ND","ND","ND","0"],
    [58561,"2017-01-09T20:00:00","31.7","ND","ND","ND","17.5","2.8","ND","ND","ND","ND","ND","0"],
    [58562,"2017-01-09T21:00:00","57.9","ND","ND","ND","15.0","2.3","ND","ND","ND","ND","ND","0"],
    [58563,"2017-01-09T22:00:00","33.9","ND","ND","ND","7.1","2.0","ND","ND","ND","ND","ND","0"],
    [58564,"2017-01-09T23:00:00","13.5","ND","ND","ND","7.9","2.4","ND","ND","ND","ND","ND","0"],
    [58565,"2017-01-10T00:00:00","17.9","ND","ND","ND","8.1","2.6","ND","ND","ND","ND","ND","0"],
    [58566,"2017-01-10T01:00:00","10.4","ND","ND","ND","7.7","3.0","ND","ND","ND","ND","ND","0"],
    [58567,"2017-01-10T02:00:00","13.1","ND","ND","ND","8.2","3.2","ND","ND","ND","ND","ND","0"],
    [58568,"2017-01-10T03:00:00","11.5","ND","ND","ND","7.9","3.6","ND","ND","ND","ND","ND","0"],
    [58569,"2017-01-10T04:00:00","9.4","ND","ND","ND","6.6","3.4","ND","ND","ND","ND","ND","0"],
    [58570,"2017-01-10T05:00:00","13.5","ND","ND","ND","6.7","4.3","ND","ND","ND","ND","ND","0"],
    [58571,"2017-01-10T06:00:00","13","ND","ND","ND","5.4","5.3","ND","ND","ND","ND","ND","0"],
    [58572,"2017-01-10T07:00:00","14","ND","ND","ND","4.5","3.2","ND","ND","ND","ND","ND","0"],
    [58573,"2017-01-10T08:00:00","69.2","ND","ND","ND","5.1","3.0","ND","ND","ND","ND","ND","0"],
    [58574,"2017-01-10T09:00:00","64.5","ND","ND","ND","18.1","2.5","ND","ND","ND","ND","ND","0"],
    [58575,"2017-01-10T10:00:00","19.2","ND","ND","ND","43.9","2.1","ND","ND","ND","ND","ND","0"],
    [58576,"2017-01-10T11:00:00","ND","ND","ND","ND","53.0","2.0","ND","ND","ND","ND","ND","0"],
    [58577,"2017-01-10T12:00:00","ND","ND","ND","ND","65.7","2.1","ND","ND","ND","ND","ND","0"],
    [58578,"2017-01-10T13:00:00","13.6","ND","ND","ND","90.7","1.7","ND","ND","ND","ND","ND","0"],
    [58579,"2017-01-10T14:00:00","18.7","ND","ND","ND","114.3","2.0","ND","ND","ND","ND","ND","0"],
    [58580,"2017-01-10T15:00:00","21.1","ND","ND","ND","76.7","2.2","ND","ND","ND","ND","ND","0"],
    [58581,"2017-01-10T16:00:00","1.3","ND","ND","ND","44.6","2.6","ND","ND","ND","ND","ND","0"],
    [58582,"2017-01-10T17:00:00","7.6","ND","ND","ND","25.6","2.0","ND","ND","ND","ND","ND","0"],
    [58583,"2017-01-10T18:00:00","8.2","ND","ND","ND","12.4","2.9","ND","ND","ND","ND","ND","0"],
    [58584,"2017-01-10T19:00:00","8.1","ND","ND","ND","4.9","2.6","ND","ND","ND","ND","ND","0"],
    [58585,"2017-01-10T20:00:00","11.1","ND","ND","ND","4.1","2.6","ND","ND","ND","ND","ND","0"],
    [58586,"2017-01-10T21:00:00","20.6","ND","ND","ND","3.5","2.4","ND","ND","ND","ND","ND","0"],
    [58587,"2017-01-10T22:00:00","19.5","ND","ND","ND","2.3","3.6","ND","ND","ND","ND","ND","0"],
    [58588,"2017-01-10T23:00:00","20.9","ND","ND","ND","2.0","3.6","ND","ND","ND","ND","ND","0"],
    [58589,"2017-01-11T00:00:00","15.6","ND","ND","ND","2.3","3.9","ND","ND","ND","ND","ND","0"],
    [58590,"2017-01-11T01:00:00","11.3","ND","ND","ND","6.2","4.1","ND","ND","ND","ND","ND","0"],
    [58591,"2017-01-11T02:00:00","19.4","ND","ND","ND","10.8","3.3","ND","ND","ND","ND","ND","0"],
    [58592,"2017-01-11T03:00:00","15.8","ND","ND","ND","11.5","2.4","ND","ND","ND","ND","ND","0"],
    [58593,"2017-01-11T04:00:00","9","ND","ND","ND","6.8","2.7","ND","ND","ND","ND","ND","0"],
    [58594,"2017-01-11T05:00:00","13.8","ND","ND","ND","2.3","3.8","ND","ND","ND","ND","ND","0"],
    [58595,"2017-01-11T06:00:00","16.1","ND","ND","ND","2.0","3.3","ND","ND","ND","ND","ND","0"],
    [58596,"2017-01-11T07:00:00","14.6","ND","ND","ND","1.6","2.7","ND","ND","ND","ND","ND","0"],
    [58597,"2017-01-11T08:00:00","16.3","ND","ND","ND","2.4","3.1","ND","ND","ND","ND","ND","0"],
    [58598,"2017-01-11T09:00:00","24.7","ND","ND","ND","3.1","3.1","ND","ND","ND","ND","ND","0"],
    [58599,"2017-01-11T10:00:00","13.3","ND","ND","ND","8.0","3.2","ND","ND","ND","ND","ND","0"],
    [58600,"2017-01-11T11:00:00","8.9","ND","ND","ND","31.8","2.3","ND","ND","ND","ND","ND","0"],
    [58601,"2017-01-11T12:00:00","7","ND","ND","ND","53.5","1.8","ND","ND","ND","ND","ND","0"],
    [58602,"2017-01-11T13:00:00","5.6","ND","ND","ND","65.2","1.9","ND","ND","ND","ND","ND","0"],
    [58603,"2017-01-11T14:00:00","5","ND","ND","ND","94.1","2.2","ND","ND","ND","ND","ND","0"],
    [58604,"2017-01-11T15:00:00","3.1","ND","ND","ND","80.0","2.2","ND","ND","ND","ND","ND","0"],
    [58605,"2017-01-11T16:00:00","8.6","ND","ND","ND","77.1","1.9","ND","ND","ND","ND","ND","0"],
    [58606,"2017-01-11T17:00:00","3.2","ND","ND","ND","32.5","2.0","ND","ND","ND","ND","ND","0"],
    [58607,"2017-01-11T18:00:00","3.6","ND","ND","ND","20.8","2.5","ND","ND","ND","ND","ND","0"],
    [58608,"2017-01-11T19:00:00","18.5","ND","ND","ND","23.0","2.3","ND","ND","ND","ND","ND","0"],
    [58609,"2017-01-11T20:00:00","14","ND","ND","ND","5.7","2.5","ND","ND","ND","ND","ND","0"],
    [58610,"2017-01-11T21:00:00","30.3","ND","ND","ND","2.9","3.5","ND","ND","ND","ND","ND","0"],
    [58611,"2017-01-11T22:00:00","25.5","ND","ND","ND","3.3","2.3","ND","ND","ND","ND","ND","0"],
    [58612,"2017-01-11T23:00:00","13.4","ND","ND","ND","4.1","1.7","ND","ND","ND","ND","ND","0"],
    [58613,"2017-01-12T00:00:00","5.3","ND","ND","ND","3.3","2.2","ND","ND","ND","ND","ND","0"],
    [58614,"2017-01-12T01:00:00","14.6","ND","ND","ND","5.3","4.1","ND","ND","ND","ND","ND","0"],
    [58615,"2017-01-12T02:00:00","15.5","ND","ND","ND","6.9","3.7","ND","ND","ND","ND","ND","0"],
    [58616,"2017-01-12T03:00:00","7.1","ND","ND","ND","5.2","3.1","ND","ND","ND","ND","ND","0"],
    [58617,"2017-01-12T04:00:00","5.8","ND","ND","ND","4.7","2.9","ND","ND","ND","ND","ND","0"],
    [58618,"2017-01-12T05:00:00","8","ND","ND","ND","2.2","3.3","ND","ND","ND","ND","ND","0"],
    [58619,"2017-01-12T06:00:00","14.6","ND","ND","ND","1.4","3.9","ND","ND","ND","ND","ND","0"],
    [58620,"2017-01-12T07:00:00","13.4","ND","ND","ND","2.1","4.7","ND","ND","ND","ND","ND","0"],
    [58621,"2017-01-12T08:00:00","21.6","ND","ND","ND","2.1","5.9","ND","ND","ND","ND","ND","0"],
    [58622,"2017-01-12T09:00:00","24.8","ND","ND","ND","4.8","5.3","ND","ND","ND","ND","ND","0"],
    [58623,"2017-01-12T10:00:00","19.4","ND","ND","ND","14.2","5.1","ND","ND","ND","ND","ND","0"],
    [58624,"2017-01-12T11:00:00","27.5","ND","ND","ND","38.2","5.3","ND","ND","ND","ND","ND","0"],
    [58625,"2017-01-12T12:00:00","17.2","ND","ND","ND","81.2","2.5","ND","ND","ND","ND","ND","0"],
    [58626,"2017-01-12T13:00:00","4.7","ND","ND","ND","115.1","2.4","ND","ND","ND","ND","ND","0"],
    [58627,"2017-01-12T14:00:00","8.5","ND","ND","ND","122.3","1.8","ND","ND","ND","ND","ND","0"],
    [58628,"2017-01-12T15:00:00","10","ND","ND","ND","111.7","2.0","ND","ND","ND","ND","ND","0"],
    [58629,"2017-01-12T16:00:00","13.4","ND","ND","ND","115.7","2.3","ND","ND","ND","ND","ND","0"],
    [58630,"2017-01-12T17:00:00","15.4","ND","ND","ND","92.2","1.8","ND","ND","ND","ND","ND","0"],
    [58631,"2017-01-12T18:00:00","12.6","ND","ND","ND","23.7","3.1","ND","ND","ND","ND","ND","0"],
    [58632,"2017-01-12T19:00:00","4.7","ND","ND","ND","10.9","2.0","ND","ND","ND","ND","ND","0"],
    [58633,"2017-01-12T20:00:00","ND","ND","ND","ND","7.8","2.3","ND","ND","ND","ND","ND","0"],
    [58634,"2017-01-12T21:00:00","2.5","ND","ND","ND","2.6","2.9","ND","ND","ND","ND","ND","0"],
    [58635,"2017-01-12T22:00:00","30.4","ND","ND","ND","2.2","3.7","ND","ND","ND","ND","ND","0"],
    [58636,"2017-01-12T23:00:00","43.8","ND","ND","ND","2.1","3.6","ND","ND","ND","ND","ND","0"],
    [58637,"2017-01-13T00:00:00","25.8","ND","ND","ND","2.0","3.8","ND","ND","ND","ND","ND","0"],
    [58638,"2017-01-13T01:00:00","11.8","ND","ND","ND","1.8","3.2","ND","ND","ND","ND","ND","0"],
    [58639,"2017-01-13T02:00:00","11.2","ND","ND","ND","1.6","3.5","ND","ND","ND","ND","ND","0"],
    [58640,"2017-01-13T03:00:00","19.9","ND","ND","ND","2.1","3.4","ND","ND","ND","ND","ND","0"],
    [58641,"2017-01-13T04:00:00","22.2","ND","ND","ND","2.6","3.9","ND","ND","ND","ND","ND","0"],
    [58642,"2017-01-13T05:00:00","17.8","ND","ND","ND","2.1","3.6","ND","ND","ND","ND","ND","0"],
    [58643,"2017-01-13T06:00:00","11.5","ND","ND","ND","2.6","8.9","ND","ND","ND","ND","ND","0"],
    [58644,"2017-01-13T07:00:00","18.2","ND","ND","ND","2.5","ND","ND","ND","ND","ND","ND","0"],
    [58645,"2017-01-13T08:00:00","13.4","ND","ND","ND","2.3","4.3","ND","ND","ND","ND","ND","0"],
    [58646,"2017-01-13T09:00:00","10.3","ND","ND","ND","3.8","3.2","ND","ND","ND","ND","ND","0"],
    [58647,"2017-01-13T10:00:00","10.7","ND","ND","ND","9.8","3.1","ND","ND","ND","ND","ND","0"],
    [58648,"2017-01-13T11:00:00","21.3","ND","ND","ND","23.1","3.0","ND","ND","ND","ND","ND","0"],
    [58649,"2017-01-13T12:00:00","24.2","ND","ND","ND","44.5","2.9","ND","ND","ND","ND","ND","0"],
    [58650,"2017-01-13T13:00:00","8.6","ND","ND","ND","64.1","2.2","ND","ND","ND","ND","ND","0"],
    [58651,"2017-01-13T14:00:00","12.3","ND","ND","ND","53.3","2.7","ND","ND","ND","ND","ND","0"],
    [58652,"2017-01-13T15:00:00","8.4","ND","ND","ND","24.1","1.5","ND","ND","ND","ND","ND","0"],
    [58653,"2017-01-13T16:00:00","1.5","ND","ND","ND","30.8","2.0","ND","ND","ND","ND","ND","0"],
    [58654,"2017-01-13T17:00:00","ND","ND","ND","ND","18.7","2.2","ND","ND","ND","ND","ND","0"],
    [58655,"2017-01-13T18:00:00","ND","ND","ND","ND","14.2","2.2","ND","ND","ND","ND","ND","0"],
    [58656,"2017-01-13T19:00:00","ND","ND","ND","ND","6.2","2.1","ND","ND","ND","ND","ND","0"],
    [58657,"2017-01-13T20:00:00","5.5","ND","ND","ND","3.9","2.0","ND","ND","ND","ND","ND","0"],
    [58658,"2017-01-13T21:00:00","38.1","ND","ND","ND","2.9","2.5","ND","ND","ND","ND","ND","0"],
    [58659,"2017-01-13T22:00:00","37.5","ND","ND","ND","2.8","3.8","ND","ND","ND","ND","ND","0"],
    [58660,"2017-01-13T23:00:00","34.4","ND","ND","ND","2.1","4.5","ND","ND","ND","ND","ND","0"],
    [58661,"2017-01-14T00:00:00","25.9","ND","ND","ND","1.8","3.8","ND","ND","ND","ND","ND","0"],
    [58662,"2017-01-14T01:00:00","17.4","ND","ND","ND","1.8","3.5","ND","ND","ND","ND","ND","0"],
    [58663,"2017-01-14T02:00:00","13","ND","ND","ND","2.4","4.9","ND","ND","ND","ND","ND","0"],
    [58664,"2017-01-14T03:00:00","28.6","ND","ND","ND","2.7","6.4","ND","ND","ND","ND","ND","0"],
    [58665,"2017-01-14T04:00:00","30.5","ND","ND","ND","3.0","12.4","ND","ND","ND","ND","ND","0"],
    [58666,"2017-01-14T05:00:00","16.1","ND","ND","ND","2.4","9.8","ND","ND","ND","ND","ND","0"],
    [58667,"2017-01-14T06:00:00","ND","ND","ND","ND","3.9","3.7","ND","ND","ND","ND","ND","0"],
    [58668,"2017-01-14T07:00:00","3","ND","ND","ND","1.9","3.5","ND","ND","ND","ND","ND","0"],
    [58669,"2017-01-14T08:00:00","23.8","ND","ND","ND","2.7","3.7","ND","ND","ND","ND","ND","0"],
    [58670,"2017-01-14T09:00:00","28.3","ND","ND","ND","6.4","4.4","ND","ND","ND","ND","ND","0"],
    [58671,"2017-01-14T10:00:00","20.4","ND","ND","ND","12.4","4.3","ND","ND","ND","ND","ND","0"],
    [58672,"2017-01-14T11:00:00","13.8","ND","ND","ND","13.8","3.1","ND","ND","ND","ND","ND","0"],
    [58673,"2017-01-14T12:00:00","20.8","ND","ND","ND","29.4","4.4","ND","ND","ND","ND","ND","0"],
    [58674,"2017-01-14T13:00:00","12","ND","ND","ND","79.0","2.5","ND","ND","ND","ND","ND","0"],
    [58675,"2017-01-14T14:00:00","9","ND","ND","ND","116.0","2.3","ND","ND","ND","ND","ND","0"],
    [58676,"2017-01-14T15:00:00","9.7","ND","ND","ND","136.0","1.8","ND","ND","ND","ND","ND","0"],
    [58677,"2017-01-14T16:00:00","13.4","ND","ND","ND","107.8","2.7","ND","ND","ND","ND","ND","0"],
    [58678,"2017-01-14T17:00:00","7.6","ND","ND","ND","20.2","2.2","ND","ND","ND","ND","ND","0"],
    [58679,"2017-01-14T18:00:00","3.6","ND","ND","ND","17.4","2.3","ND","ND","ND","ND","ND","0"],
    [58680,"2017-01-14T19:00:00","ND","ND","ND","ND","8.6","2.3","ND","ND","ND","ND","ND","0"],
    [58681,"2017-01-14T20:00:00","3.2","ND","ND","ND","3.4","3.1","ND","ND","ND","ND","ND","0"],
    [58682,"2017-01-14T21:00:00","10.8","ND","ND","ND","3.2","2.9","ND","ND","ND","ND","ND","0"],
    [58683,"2017-01-14T22:00:00","15.5","ND","ND","ND","2.8","3.9","ND","ND","ND","ND","ND","0"],
    [58684,"2017-01-14T23:00:00","22.9","ND","ND","ND","2.0","4.7","ND","ND","ND","ND","ND","0"],
    [58685,"2017-01-15T00:00:00","16.6","ND","ND","ND","2.0","7.7","ND","ND","ND","ND","ND","0"],
    [58686,"2017-01-15T01:00:00","14.1","ND","ND","ND","1.8","5.9","ND","ND","ND","ND","ND","0"],
    [58687,"2017-01-15T02:00:00","6.8","ND","ND","ND","1.4","4.5","ND","ND","ND","ND","ND","0"],
    [58688,"2017-01-15T03:00:00","6.2","ND","ND","ND","1.1","3.8","ND","ND","ND","ND","ND","0"],
    [58689,"2017-01-15T04:00:00","7.2","ND","ND","ND","1.1","2.4","ND","ND","ND","ND","ND","0"],
    [58690,"2017-01-15T05:00:00","6.4","ND","ND","ND","0.9","1.9","ND","ND","ND","ND","ND","0"],
    [58691,"2017-01-15T06:00:00","7.8","ND","ND","ND","1.0","3.0","ND","ND","ND","ND","ND","0"],
    [58692,"2017-01-15T07:00:00","3.9","ND","ND","ND","1.6","3.3","ND","ND","ND","ND","ND","0"],
    [58693,"2017-01-15T08:00:00","32.1","ND","ND","ND","4.1","5.0","ND","ND","ND","ND","ND","0"],
    [58694,"2017-01-15T09:00:00","36.9","ND","ND","ND","18.8","3.9","ND","ND","ND","ND","ND","0"],
    [58695,"2017-01-15T10:00:00","16.9","ND","ND","ND","43.0","2.5","ND","ND","ND","ND","ND","0"],
    [58696,"2017-01-15T11:00:00","8.6","ND","ND","ND","56.0","2.6","ND","ND","ND","ND","ND","0"],
    [58697,"2017-01-15T12:00:00","8.7","ND","ND","ND","71.7","2.4","ND","ND","ND","ND","ND","0"],
    [58698,"2017-01-15T13:00:00","4.4","ND","ND","ND","89.7","2.4","ND","ND","ND","ND","ND","0"],
    [58699,"2017-01-15T14:00:00","6.8","ND","ND","ND","68.4","2.1","ND","ND","ND","ND","ND","0"],
    [58700,"2017-01-15T15:00:00","2.1","ND","ND","ND","45.6","1.7","ND","ND","ND","ND","ND","0"],
    [58701,"2017-01-15T16:00:00","ND","ND","ND","ND","29.5","2.4","ND","ND","ND","ND","ND","0"],
    [58702,"2017-01-15T17:00:00","ND","ND","ND","ND","20.9","2.3","ND","ND","ND","ND","ND","0"],
    [58703,"2017-01-15T18:00:00","ND","ND","ND","ND","16.3","2.1","ND","ND","ND","ND","ND","0"],
    [58704,"2017-01-15T19:00:00","ND","ND","ND","ND","9.6","2.0","ND","ND","ND","ND","ND","0"],
    [58705,"2017-01-15T20:00:00","12.3","ND","ND","ND","10.0","2.4","ND","ND","ND","ND","ND","0"],
    [58706,"2017-01-15T21:00:00","15.1","ND","ND","ND","6.1","2.7","ND","ND","ND","ND","ND","0"],
    [58707,"2017-01-15T22:00:00","21.4","ND","ND","ND","2.4","3.6","ND","ND","ND","ND","ND","0"],
    [58708,"2017-01-15T23:00:00","18.6","ND","ND","ND","4.2","4.1","ND","ND","ND","ND","ND","0"],
    [58709,"2017-01-16T00:00:00","21.9","ND","ND","ND","3.7","3.0","ND","ND","ND","ND","ND","0"],
    [58710,"2017-01-16T01:00:00","10.7","ND","ND","ND","2.7","3.2","ND","ND","ND","ND","ND","0"],
    [58711,"2017-01-16T02:00:00","12.8","ND","ND","ND","3.4","3.3","ND","ND","ND","ND","ND","0"],
    [58712,"2017-01-16T03:00:00","14.3","ND","ND","ND","7.6","4.6","ND","ND","ND","ND","ND","0"],
    [58713,"2017-01-16T04:00:00","11.2","ND","ND","ND","4.4","5.2","ND","ND","ND","ND","ND","0"],
    [58714,"2017-01-16T05:00:00","10.4","ND","ND","ND","5.8","5.8","ND","ND","ND","ND","ND","0"],
    [58715,"2017-01-16T06:00:00","11.8","ND","ND","ND","3.0","8.1","ND","ND","ND","ND","ND","0"],
    [58716,"2017-01-16T07:00:00","14.1","ND","ND","ND","3.0","4.6","ND","ND","ND","ND","ND","0"],
    [58717,"2017-01-16T08:00:00","19","ND","ND","ND","4.2","4.3","ND","ND","ND","ND","ND","0"],
    [58718,"2017-01-16T09:00:00","17.9","ND","ND","ND","5.5","3.6","ND","ND","ND","ND","ND","0"],
    [58719,"2017-01-16T10:00:00","16","ND","ND","ND","10.4","3.2","ND","ND","ND","ND","ND","0"],
    [58720,"2017-01-16T11:00:00","17.8","ND","ND","ND","38.3","2.1","ND","ND","ND","ND","ND","0"],
    [58721,"2017-01-16T12:00:00","8.3","ND","ND","ND","79.2","1.8","ND","ND","ND","ND","ND","0"],
    [58722,"2017-01-16T13:00:00","2.7","ND","ND","ND","112.0","2.3","ND","ND","ND","ND","ND","0"],
    [58723,"2017-01-16T14:00:00","5.6","ND","ND","ND","110.9","2.3","ND","ND","ND","ND","ND","0"],
    [58724,"2017-01-16T15:00:00","6.6","ND","ND","ND","32.3","2.0","ND","ND","ND","ND","ND","0"],
    [58725,"2017-01-16T16:00:00","4.4","ND","ND","ND","13.1","2.4","ND","ND","ND","ND","ND","0"],
    [58726,"2017-01-16T17:00:00","4.5","ND","ND","ND","13.1","2.0","ND","ND","ND","ND","ND","0"],
    [58727,"2017-01-16T18:00:00","1.2","ND","ND","ND","8.5","2.3","ND","ND","ND","ND","ND","0"],
    [58728,"2017-01-16T19:00:00","ND","ND","ND","ND","11.4","2.2","ND","ND","ND","ND","ND","0"],
    [58729,"2017-01-16T20:00:00","9.1","ND","ND","ND","3.4","2.9","ND","ND","ND","ND","ND","0"],
    [58730,"2017-01-16T21:00:00","26.2","ND","ND","ND","2.6","2.8","ND","ND","ND","ND","ND","0"],
    [58731,"2017-01-16T22:00:00","28.8","ND","ND","ND","2.9","3.9","ND","ND","ND","ND","ND","0"],
    [58732,"2017-01-16T23:00:00","31.2","ND","ND","ND","2.0","5.5","ND","ND","ND","ND","ND","0"],
    [58733,"2017-01-17T00:00:00","16.7","ND","ND","ND","1.7","3.6","ND","ND","ND","ND","ND","0"],
    [58734,"2017-01-17T01:00:00","14","ND","ND","ND","1.6","3.4","ND","ND","ND","ND","ND","0"],
    [58735,"2017-01-17T02:00:00","20.6","ND","ND","ND","2.8","4.6","ND","ND","ND","ND","ND","0"],
    [58736,"2017-01-17T03:00:00","28.4","ND","ND","ND","2.4","6.8","ND","ND","ND","ND","ND","0"],
    [58737,"2017-01-17T04:00:00","20.8","ND","ND","ND","1.9","4.3","ND","ND","ND","ND","ND","0"],
    [58738,"2017-01-17T05:00:00","12.3","ND","ND","ND","1.7","3.9","ND","ND","ND","ND","ND","0"],
    [58739,"2017-01-17T06:00:00","10.4","ND","ND","ND","1.8","3.5","ND","ND","ND","ND","ND","0"],
    [58740,"2017-01-17T07:00:00","16.5","ND","ND","ND","2.0","2.9","ND","ND","ND","ND","ND","0"],
    [58741,"2017-01-17T08:00:00","29","ND","ND","ND","2.9","3.9","ND","ND","ND","ND","ND","0"],
    [58742,"2017-01-17T09:00:00","38.3","ND","ND","ND","5.6","5.3","ND","ND","ND","ND","ND","0"],
    [58743,"2017-01-17T10:00:00","25.6","ND","ND","ND","11.3","3.5","ND","ND","ND","ND","ND","0"],
    [58744,"2017-01-17T11:00:00","11.5","ND","ND","ND","28.5","2.2","ND","ND","ND","ND","ND","0"],
    [58745,"2017-01-17T12:00:00","12","ND","ND","ND","50.8","2.6","ND","ND","ND","ND","ND","0"],
    [58746,"2017-01-17T13:00:00","9","ND","ND","ND","73.6","2.3","ND","ND","ND","ND","ND","0"],
    [58747,"2017-01-17T14:00:00","9.3","ND","ND","ND","83.9","2.1","ND","ND","ND","ND","ND","0"],
    [58748,"2017-01-17T15:00:00","4.9","ND","ND","ND","62.2","2.0","ND","ND","ND","ND","ND","0"],
    [58749,"2017-01-17T16:00:00","ND","ND","ND","ND","18.3","1.9","ND","ND","ND","ND","ND","0"],
    [58750,"2017-01-17T17:00:00","ND","ND","ND","ND","15.6","2.0","ND","ND","ND","ND","ND","0"],
    [58751,"2017-01-17T18:00:00","ND","ND","ND","ND","16.2","2.0","ND","ND","ND","ND","ND","0"],
    [58752,"2017-01-17T19:00:00","ND","ND","ND","ND","4.9","2.2","ND","ND","ND","ND","ND","0"],
    [58753,"2017-01-17T20:00:00","17.5","ND","ND","ND","8.2","2.9","ND","ND","ND","ND","ND","0"],
    [58754,"2017-01-17T21:00:00","19.8","ND","ND","ND","8.2","2.3","ND","ND","ND","ND","ND","0"],
    [58755,"2017-01-17T22:00:00","15.1","ND","ND","ND","6.6","3.3","ND","ND","ND","ND","ND","0"],
    [58756,"2017-01-17T23:00:00","15.8","ND","ND","ND","8.5","2.4","ND","ND","ND","ND","ND","0"],
    [58757,"2017-01-18T00:00:00","17","ND","ND","ND","6.4","3.5","ND","ND","ND","ND","ND","0"],
    [58758,"2017-01-18T01:00:00","30.2","ND","ND","ND","3.2","5.0","ND","ND","ND","ND","ND","0"],
    [58759,"2017-01-18T02:00:00","33.3","ND","ND","ND","2.8","5.0","ND","ND","ND","ND","ND","0"],
    [58760,"2017-01-18T03:00:00","12.6","ND","ND","ND","9.3","2.6","ND","ND","ND","ND","ND","0"],
    [58761,"2017-01-18T04:00:00","5.7","ND","ND","ND","5.1","4.2","ND","ND","ND","ND","ND","0"],
    [58762,"2017-01-18T05:00:00","17.6","ND","ND","ND","2.3","4.6","ND","ND","ND","ND","ND","0"],
    [58763,"2017-01-18T06:00:00","15.8","ND","ND","ND","2.0","3.3","ND","ND","ND","ND","ND","0"],
    [58764,"2017-01-18T07:00:00","7.4","ND","ND","ND","1.8","2.3","ND","ND","ND","ND","ND","0"],
    [58765,"2017-01-18T08:00:00","3.3","ND","ND","ND","4.3","2.2","ND","ND","ND","ND","ND","0"],
    [58766,"2017-01-18T09:00:00","6.6","ND","ND","ND","5.8","2.4","ND","ND","ND","ND","ND","0"],
    [58767,"2017-01-18T10:00:00","10.2","ND","ND","ND","9.3","2.4","ND","ND","ND","ND","ND","0"],
    [58768,"2017-01-18T11:00:00","4.9","ND","ND","ND","15.4","2.1","ND","ND","ND","ND","ND","0"],
    [58769,"2017-01-18T12:00:00","3.6","ND","ND","ND","29.3","2.2","ND","ND","ND","ND","ND","0"],
    [58770,"2017-01-18T13:00:00","ND","ND","ND","ND","66.2","2.0","ND","ND","ND","ND","ND","0"],
    [58771,"2017-01-18T14:00:00","ND","ND","ND","ND","78.3","2.0","ND","ND","ND","ND","ND","0"],
    [58772,"2017-01-18T15:00:00","3.6","ND","ND","ND","69.4","1.7","ND","ND","ND","ND","ND","0"],
    [58773,"2017-01-18T16:00:00","21.6","ND","ND","ND","17.5","1.6","ND","ND","ND","ND","ND","0"],
    [58774,"2017-01-18T17:00:00","29.1","ND","ND","ND","6.2","2.0","ND","ND","ND","ND","ND","0"],
    [58775,"2017-01-18T18:00:00","ND","ND","ND","ND","7.5","1.8","ND","ND","ND","ND","ND","0"],
    [58776,"2017-01-18T19:00:00","4.6","ND","ND","ND","10.1","3.3","ND","ND","ND","ND","ND","0"],
    [58777,"2017-01-18T20:00:00","22.7","ND","ND","ND","7.0","2.6","ND","ND","ND","ND","ND","0"],
    [58778,"2017-01-18T21:00:00","19.8","ND","ND","ND","6.1","3.1","ND","ND","ND","ND","ND","0"],
    [58779,"2017-01-18T22:00:00","12","ND","ND","ND","2.4","4.2","ND","ND","ND","ND","ND","0"],
    [58780,"2017-01-18T23:00:00","12.6","ND","ND","ND","7.3","2.6","ND","ND","ND","ND","ND","0"],
    [58781,"2017-01-19T00:00:00","13.3","ND","ND","ND","2.6","2.6","ND","ND","ND","ND","ND","0"],
    [58782,"2017-01-19T01:00:00","9","ND","ND","ND","5.5","3.4","ND","ND","ND","ND","ND","0"],
    [58783,"2017-01-19T02:00:00","7.4","ND","ND","ND","8.9","3.7","ND","ND","ND","ND","ND","0"],
    [58784,"2017-01-19T03:00:00","5.8","ND","ND","ND","5.6","3.3","ND","ND","ND","ND","ND","0"],
    [58785,"2017-01-19T04:00:00","5","ND","ND","ND","1.8","3.4","ND","ND","ND","ND","ND","0"],
    [58786,"2017-01-19T05:00:00","10.5","ND","ND","ND","1.9","5.0","ND","ND","ND","ND","ND","0"],
    [58787,"2017-01-19T06:00:00","15.2","ND","ND","ND","1.7","5.9","ND","ND","ND","ND","ND","0"],
    [58788,"2017-01-19T07:00:00","20.9","ND","ND","ND","2.0","5.8","ND","ND","ND","ND","ND","0"],
    [58789,"2017-01-19T08:00:00","28.8","ND","ND","ND","3.2","7.5","ND","ND","ND","ND","ND","0"],
    [58790,"2017-01-19T09:00:00","38.4","ND","ND","ND","13.0","13.1","ND","ND","ND","ND","ND","0"],
    [58791,"2017-01-19T10:00:00","31.2","ND","ND","ND","33.6","7.5","ND","ND","ND","ND","ND","0"],
    [58792,"2017-01-19T11:00:00","20.5","ND","ND","ND","52.0","3.5","ND","ND","ND","ND","ND","0"],
    [58793,"2017-01-19T12:00:00","8.8","ND","ND","ND","56.0","2.9","ND","ND","ND","ND","ND","0"],
    [58794,"2017-01-19T13:00:00","19.5","ND","ND","ND","74.6","2.5","ND","ND","ND","ND","ND","0"],
    [58795,"2017-01-19T14:00:00","18.6","ND","ND","ND","97.3","2.2","ND","ND","ND","ND","ND","0"],
    [58796,"2017-01-19T15:00:00","10.9","ND","ND","ND","67.0","2.3","ND","ND","ND","ND","ND","0"],
    [58797,"2017-01-19T16:00:00","ND","ND","ND","ND","24.3","2.1","ND","ND","ND","ND","ND","0"],
    [58798,"2017-01-19T17:00:00","ND","ND","ND","ND","11.4","2.3","ND","ND","ND","ND","ND","0"],
    [58799,"2017-01-19T18:00:00","ND","ND","ND","ND","10.5","2.1","ND","ND","ND","ND","ND","0"],
    [58800,"2017-01-19T19:00:00","2","ND","ND","ND","6.9","2.8","ND","ND","ND","ND","ND","0"],
    [58801,"2017-01-19T20:00:00","10.8","ND","ND","ND","5.7","2.7","ND","ND","ND","ND","ND","0"],
    [58802,"2017-01-19T21:00:00","18.1","ND","ND","ND","3.6","2.9","ND","ND","ND","ND","ND","0"],
    [58803,"2017-01-19T22:00:00","20.4","ND","ND","ND","2.6","4.2","ND","ND","ND","ND","ND","0"],
    [58804,"2017-01-19T23:00:00","26","ND","ND","ND","2.4","3.3","ND","ND","ND","ND","ND","0"],
    [58805,"2017-01-20T00:00:00","30.1","ND","ND","ND","2.6","2.7","ND","ND","ND","ND","ND","0"],
    [58806,"2017-01-20T01:00:00","26.9","ND","ND","ND","2.7","4.5","ND","ND","ND","ND","ND","0"],
    [58807,"2017-01-20T02:00:00","19.7","ND","ND","ND","2.8","6.1","ND","ND","ND","ND","ND","0"],
    [58808,"2017-01-20T03:00:00","13.4","ND","ND","ND","11.2","2.4","ND","ND","ND","ND","ND","0"],
    [58809,"2017-01-20T04:00:00","8.7","ND","ND","ND","4.2","3.8","ND","ND","ND","ND","ND","0"],
    [58810,"2017-01-20T05:00:00","10.4","ND","ND","ND","10.3","2.8","ND","ND","ND","ND","ND","0"],
    [58811,"2017-01-20T06:00:00","ND","ND","ND","ND","11.9","2.2","ND","ND","ND","ND","ND","0"],
    [58812,"2017-01-20T07:00:00","ND","ND","ND","ND","3.3","2.3","ND","ND","ND","ND","ND","0"],
    [58813,"2017-01-20T08:00:00","14.6","ND","ND","ND","3.8","5.5","ND","ND","ND","ND","ND","0"],
    [58814,"2017-01-20T09:00:00","34.6","ND","ND","ND","8.8","3.1","ND","ND","ND","ND","ND","0"],
    [58815,"2017-01-20T10:00:00","22.6","ND","ND","ND","19.4","2.7","ND","ND","ND","ND","ND","0"],
    [58816,"2017-01-20T11:00:00","16.6","ND","ND","ND","34.0","2.8","ND","ND","ND","ND","ND","0"],
    [58817,"2017-01-20T12:00:00","3.7","ND","ND","ND","51.5","2.5","ND","ND","ND","ND","ND","0"],
    [58818,"2017-01-20T13:00:00","1","ND","ND","ND","60.5","2.1","ND","ND","ND","ND","ND","0"],
    [58819,"2017-01-20T14:00:00","14","ND","ND","ND","55.5","3.2","ND","ND","ND","ND","ND","0"],
    [58820,"2017-01-20T15:00:00","20.5","ND","ND","ND","45.9","3.5","ND","ND","ND","ND","ND","0"],
    [58821,"2017-01-20T16:00:00","8.8","ND","ND","ND","25.6","1.8","ND","ND","ND","ND","ND","0"],
    [58822,"2017-01-20T17:00:00","1.5","ND","ND","ND","20.5","2.8","ND","ND","ND","ND","ND","0"],
    [58823,"2017-01-20T18:00:00","ND","ND","ND","ND","15.0","1.9","ND","ND","ND","ND","ND","0"],
    [58824,"2017-01-20T19:00:00","1.5","ND","ND","ND","12.1","1.5","ND","ND","ND","ND","ND","0"],
    [58825,"2017-01-20T20:00:00","44.3","ND","ND","ND","4.6","2.3","ND","ND","ND","ND","ND","0"],
    [58826,"2017-01-20T21:00:00","55.3","ND","ND","ND","11.5","2.5","ND","ND","ND","ND","ND","0"],
    [58827,"2017-01-20T22:00:00","23.4","ND","ND","ND","13.2","1.9","ND","ND","ND","ND","ND","0"],
    [58828,"2017-01-20T23:00:00","11.2","ND","ND","ND","22.2","2.1","ND","ND","ND","ND","ND","0"],
    [58829,"2017-01-21T00:00:00","10.2","ND","ND","ND","12.9","4.7","ND","ND","ND","ND","ND","0"],
    [58830,"2017-01-21T01:00:00","35.9","ND","ND","ND","8.3","4.0","ND","ND","ND","ND","ND","0"],
    [58831,"2017-01-21T02:00:00","38.9","ND","ND","ND","5.3","3.5","ND","ND","ND","ND","ND","0"],
    [58832,"2017-01-21T03:00:00","18.3","ND","ND","ND","6.1","2.6","ND","ND","ND","ND","ND","0"],
    [58833,"2017-01-21T04:00:00","7.1","ND","ND","ND","4.5","2.9","ND","ND","ND","ND","ND","0"],
    [58834,"2017-01-21T05:00:00","1.1","ND","ND","ND","3.9","3.6","ND","ND","ND","ND","ND","0"],
    [58835,"2017-01-21T06:00:00","4.5","ND","ND","ND","2.5","2.6","ND","ND","ND","ND","ND","0"],
    [58836,"2017-01-21T07:00:00","4","ND","ND","ND","2.0","2.7","ND","ND","ND","ND","ND","0"],
    [58837,"2017-01-21T08:00:00","4.8","ND","ND","ND","3.3","2.7","ND","ND","ND","ND","ND","0"],
    [58838,"2017-01-21T09:00:00","9.3","ND","ND","ND","8.7","2.8","ND","ND","ND","ND","ND","0"],
    [58839,"2017-01-21T10:00:00","9.2","ND","ND","ND","12.6","2.9","ND","ND","ND","ND","ND","0"],
    [58840,"2017-01-21T11:00:00","12.1","ND","ND","ND","25.4","2.2","ND","ND","ND","ND","ND","0"],
    [58841,"2017-01-21T12:00:00","ND","ND","ND","ND","37.0","1.9","ND","ND","ND","ND","ND","0"],
    [58842,"2017-01-21T13:00:00","ND","ND","ND","ND","55.3","2.1","ND","ND","ND","ND","ND","0"],
    [58843,"2017-01-21T14:00:00","6.4","ND","ND","ND","75.7","1.8","ND","ND","ND","ND","ND","0"],
    [58844,"2017-01-21T15:00:00","9.4","ND","ND","ND","94.2","2.4","ND","ND","ND","ND","ND","0"],
    [58845,"2017-01-21T16:00:00","11.4","ND","ND","ND","82.2","1.9","ND","ND","ND","ND","ND","0"],
    [58846,"2017-01-21T17:00:00","10.7","ND","ND","ND","65.1","2.1","ND","ND","ND","ND","ND","0"],
    [58847,"2017-01-21T18:00:00","12.1","ND","ND","ND","65.2","3.0","ND","ND","ND","ND","ND","0"],
    [58848,"2017-01-21T19:00:00","12","ND","ND","ND","17.0","2.6","ND","ND","ND","ND","ND","0"],
    [58849,"2017-01-21T20:00:00","28.7","ND","ND","ND","2.1","1.8","ND","ND","ND","ND","ND","0"],
    [58850,"2017-01-21T21:00:00","26.1","ND","ND","ND","2.1","2.5","ND","ND","ND","ND","ND","0"],
    [58851,"2017-01-21T22:00:00","20.4","ND","ND","ND","2.1","2.1","ND","ND","ND","ND","ND","0"],
    [58852,"2017-01-21T23:00:00","23.8","ND","ND","ND","1.9","3.5","ND","ND","ND","ND","ND","0"],
    [58853,"2017-01-22T00:00:00","21.1","ND","ND","ND","1.4","3.8","ND","ND","ND","ND","ND","0"],
    [58854,"2017-01-22T01:00:00","9","ND","ND","ND","1.1","3.5","ND","ND","ND","ND","ND","0"],
    [58855,"2017-01-22T02:00:00","1","ND","ND","ND","0.9","2.7","ND","ND","ND","ND","ND","0"],
    [58856,"2017-01-22T03:00:00","2","ND","ND","ND","0.8","3.9","ND","ND","ND","ND","ND","0"],
    [58857,"2017-01-22T04:00:00","5.4","ND","ND","ND","1.6","7.4","ND","ND","ND","ND","ND","0"],
    [58858,"2017-01-22T05:00:00","26.1","ND","ND","ND","2.3","12.1","ND","ND","ND","ND","ND","0"],
    [58859,"2017-01-22T06:00:00","34.8","ND","ND","ND","1.4","13.3","ND","ND","ND","ND","ND","0"],
    [58860,"2017-01-22T07:00:00","37.5","ND","ND","ND","1.8","10.3","ND","ND","ND","ND","ND","0"],
    [58861,"2017-01-22T08:00:00","44.8","ND","ND","ND","2.2","11.6","ND","ND","ND","ND","ND","0"],
    [58862,"2017-01-22T09:00:00","63","ND","ND","ND","12.6","13.0","ND","ND","ND","ND","ND","0"],
    [58863,"2017-01-22T10:00:00","32.5","ND","ND","ND","38.1","8.5","ND","ND","ND","ND","ND","0"],
    [58864,"2017-01-22T11:00:00","14.9","ND","ND","ND","80.7","3.9","ND","ND","ND","ND","ND","0"],
    [58865,"2017-01-22T12:00:00","ND","ND","ND","ND","76.1","2.3","ND","ND","ND","ND","ND","0"],
    [58866,"2017-01-22T13:00:00","ND","ND","ND","ND","79.5","1.5","ND","ND","ND","ND","ND","0"],
    [58867,"2017-01-22T14:00:00","7","ND","ND","ND","90.6","2.2","ND","ND","ND","ND","ND","0"],
    [58868,"2017-01-22T15:00:00","14.4","ND","ND","ND","80.4","1.5","ND","ND","ND","ND","ND","0"],
    [58869,"2017-01-22T16:00:00","12","ND","ND","ND","86.2","1.9","ND","ND","ND","ND","ND","0"],
    [58870,"2017-01-22T17:00:00","3.5","ND","ND","ND","69.8","2.2","ND","ND","ND","ND","ND","0"],
    [58871,"2017-01-22T18:00:00","ND","ND","ND","ND","61.1","1.7","ND","ND","ND","ND","ND","0"],
    [58872,"2017-01-22T19:00:00","ND","ND","ND","ND","17.4","2.3","ND","ND","ND","ND","ND","0"],
    [58873,"2017-01-22T20:00:00","ND","ND","ND","ND","3.2","2.9","ND","ND","ND","ND","ND","0"],
    [58874,"2017-01-22T21:00:00","20.3","ND","ND","ND","2.7","3.7","ND","ND","ND","ND","ND","0"],
    [58875,"2017-01-22T22:00:00","45.4","ND","ND","ND","3.0","3.4","ND","ND","ND","ND","ND","0"],
    [58876,"2017-01-22T23:00:00","38.6","ND","ND","ND","1.9","3.2","ND","ND","ND","ND","ND","0"],
    [58877,"2017-01-23T00:00:00","9.3","ND","ND","ND","1.6","2.6","ND","ND","ND","ND","ND","0"],
    [58878,"2017-01-23T01:00:00","ND","ND","ND","ND","1.2","2.8","ND","ND","ND","ND","ND","0"],
    [58879,"2017-01-23T02:00:00","ND","ND","ND","ND","2.2","4.3","ND","ND","ND","ND","ND","0"],
    [58880,"2017-01-23T03:00:00","ND","ND","ND","ND","2.1","8.0","ND","ND","ND","ND","ND","0"],
    [58881,"2017-01-23T04:00:00","4.4","ND","ND","ND","1.8","9.9","ND","ND","ND","ND","ND","0"],
    [58882,"2017-01-23T05:00:00","37.8","ND","ND","ND","1.2","6.1","ND","ND","ND","ND","ND","0"],
    [58883,"2017-01-23T06:00:00","17.1","ND","ND","ND","1.5","5.3","ND","ND","ND","ND","ND","0"],
    [58884,"2017-01-23T07:00:00","19.4","ND","ND","ND","1.9","6.6","ND","ND","ND","ND","ND","0"],
    [58885,"2017-01-23T08:00:00","58.8","ND","ND","ND","4.3","5.7","ND","ND","ND","ND","ND","0"],
    [58886,"2017-01-23T09:00:00","49.9","ND","ND","ND","17.4","3.6","ND","ND","ND","ND","ND","0"],
    [58887,"2017-01-23T10:00:00","47","ND","ND","ND","40.5","4.8","ND","ND","ND","ND","ND","0"],
    [58888,"2017-01-23T11:00:00","42.3","ND","ND","ND","76.9","3.2","ND","ND","ND","ND","ND","0"],
    [58889,"2017-01-23T12:00:00","28.2","ND","ND","ND","105.5","2.4","ND","ND","ND","ND","ND","0"],
    [58890,"2017-01-23T13:00:00","38.8","ND","ND","ND","116.1","2.4","ND","ND","ND","ND","ND","0"],
    [58891,"2017-01-23T14:00:00","37.8","ND","ND","ND","146.9","1.9","ND","ND","ND","ND","ND","0"],
    [58892,"2017-01-23T15:00:00","27.9","ND","ND","ND","118.0","1.5","ND","ND","ND","ND","ND","0"],
    [58893,"2017-01-23T16:00:00","12.5","ND","ND","ND","44.8","2.0","ND","ND","ND","ND","ND","0"],
    [58894,"2017-01-23T17:00:00","2.3","ND","ND","ND","34.9","2.3","ND","ND","ND","ND","ND","0"],
    [58895,"2017-01-23T18:00:00","4.9","ND","ND","ND","25.6","1.9","ND","ND","ND","ND","ND","0"],
    [58896,"2017-01-23T19:00:00","ND","ND","ND","ND","13.3","2.2","ND","ND","ND","ND","ND","0"],
    [58897,"2017-01-23T20:00:00","1.4","ND","ND","ND","3.1","2.7","ND","ND","ND","ND","ND","0"],
    [58898,"2017-01-23T21:00:00","17","ND","ND","ND","2.5","3.3","ND","ND","ND","ND","ND","0"],
    [58899,"2017-01-23T22:00:00","40.4","ND","ND","ND","3.0","4.7","ND","ND","ND","ND","ND","0"],
    [58900,"2017-01-23T23:00:00","56.8","ND","ND","ND","2.2","6.1","ND","ND","ND","ND","ND","0"],
    [58901,"2017-01-24T00:00:00","39.5","ND","ND","ND","1.9","3.5","ND","ND","ND","ND","ND","0"],
    [58902,"2017-01-24T01:00:00","25.4","ND","ND","ND","1.7","3.5","ND","ND","ND","ND","ND","0"],
    [58903,"2017-01-24T02:00:00","17.4","ND","ND","ND","1.4","4.6","ND","ND","ND","ND","ND","0"],
    [58904,"2017-01-24T03:00:00","23.4","ND","ND","ND","1.6","4.7","ND","ND","ND","ND","ND","0"],
    [58905,"2017-01-24T04:00:00","23.2","ND","ND","ND","1.6","5.8","ND","ND","ND","ND","ND","0"],
    [58906,"2017-01-24T05:00:00","19.3","ND","ND","ND","3.0","6.6","ND","ND","ND","ND","ND","0"],
    [58907,"2017-01-24T06:00:00","11.1","ND","ND","ND","1.5","7.5","ND","ND","ND","ND","ND","0"],
    [58908,"2017-01-24T07:00:00","23","ND","ND","ND","1.9","6.5","ND","ND","ND","ND","ND","0"],
    [58909,"2017-01-24T08:00:00","55.8","ND","ND","ND","2.9","8.0","ND","ND","ND","ND","ND","0"],
    [58910,"2017-01-24T09:00:00","52.3","ND","ND","ND","13.2","5.6","ND","ND","ND","ND","ND","0"],
    [58911,"2017-01-24T10:00:00","38.1","ND","ND","ND","49.8","3.4","ND","ND","ND","ND","ND","0"],
    [58912,"2017-01-24T11:00:00","14.9","ND","ND","ND","72.1","2.3","ND","ND","ND","ND","ND","0"],
    [58913,"2017-01-24T12:00:00","12.2","ND","ND","ND","97.0","2.1","ND","ND","ND","ND","ND","0"],
    [58914,"2017-01-24T13:00:00","16.3","ND","ND","ND","114.4","1.8","ND","ND","ND","ND","ND","0"],
    [58915,"2017-01-24T14:00:00","21.5","ND","ND","ND","116.5","1.8","ND","ND","ND","ND","ND","0"],
    [58916,"2017-01-24T15:00:00","24.6","ND","ND","ND","42.8","2.1","ND","ND","ND","ND","ND","0"],
    [58917,"2017-01-24T16:00:00","16.8","ND","ND","ND","34.3","2.2","ND","ND","ND","ND","ND","0"],
    [58918,"2017-01-24T17:00:00","5.6","ND","ND","ND","34.1","2.0","ND","ND","ND","ND","ND","0"],
    [58919,"2017-01-24T18:00:00","ND","ND","ND","ND","25.3","2.0","ND","ND","ND","ND","ND","0"],
    [58920,"2017-01-24T19:00:00","ND","ND","ND","ND","25.7","2.7","ND","ND","ND","ND","ND","0"],
    [58921,"2017-01-24T20:00:00","7.1","ND","ND","ND","25.2","2.4","ND","ND","ND","ND","ND","0"],
    [58922,"2017-01-24T21:00:00","22.6","ND","ND","ND","5.7","3.4","ND","ND","ND","ND","ND","0"],
    [58923,"2017-01-24T22:00:00","28.8","ND","ND","ND","2.3","6.2","ND","ND","ND","ND","ND","0"],
    [58924,"2017-01-24T23:00:00","34.2","ND","ND","ND","2.0","4.9","ND","ND","ND","ND","ND","0"],
    [58925,"2017-01-25T00:00:00","28.6","ND","ND","ND","1.9","3.8","ND","ND","ND","ND","ND","0"],
    [58926,"2017-01-25T01:00:00","18.6","ND","ND","ND","3.7","3.5","ND","ND","ND","ND","ND","0"],
    [58927,"2017-01-25T02:00:00","16","ND","ND","ND","5.9","5.5","ND","ND","ND","ND","ND","0"],
    [58928,"2017-01-25T03:00:00","18.6","ND","ND","ND","5.7","6.1","ND","ND","ND","ND","ND","0"],
    [58929,"2017-01-25T04:00:00","17.3","ND","ND","ND","2.1","5.6","ND","ND","ND","ND","ND","0"],
    [58930,"2017-01-25T05:00:00","21.6","ND","ND","ND","1.7","6.0","ND","ND","ND","ND","ND","0"],
    [58931,"2017-01-25T06:00:00","25.6","ND","ND","ND","1.9","5.5","ND","ND","ND","ND","ND","0"],
    [58932,"2017-01-25T07:00:00","32.9","ND","ND","ND","3.8","6.1","ND","ND","ND","ND","ND","0"],
    [58933,"2017-01-25T08:00:00","50.8","ND","ND","ND","4.4","ND","ND","ND","ND","ND","ND","0"],
    [58934,"2017-01-25T09:00:00","59.6","ND","ND","ND","15.1","7.6","ND","ND","ND","ND","ND","0"],
    [58935,"2017-01-25T10:00:00","36.5","ND","ND","ND","38.6","4.9","ND","ND","ND","ND","ND","0"],
    [58936,"2017-01-25T11:00:00","36.1","ND","ND","ND","80.6","4.6","ND","ND","ND","ND","ND","0"],
    [58937,"2017-01-25T12:00:00","16.8","ND","ND","ND","113.0","2.9","ND","ND","ND","ND","ND","0"],
    [58938,"2017-01-25T13:00:00","14.8","ND","ND","ND","132.5","3.0","ND","ND","ND","ND","ND","0"],
    [58939,"2017-01-25T14:00:00","24.3","ND","ND","ND","160.2","2.5","ND","ND","ND","ND","ND","0"],
    [58940,"2017-01-25T15:00:00","27.6","ND","ND","ND","148.2","2.3","ND","ND","ND","ND","ND","0"],
    [58941,"2017-01-25T16:00:00","26.5","ND","ND","ND","76.4","2.0","ND","ND","ND","ND","ND","0"],
    [58942,"2017-01-25T17:00:00","22.8","ND","ND","ND","56.5","1.9","ND","ND","ND","ND","ND","0"],
    [58943,"2017-01-25T18:00:00","15.9","ND","ND","ND","43.9","1.9","ND","ND","ND","ND","ND","0"],
    [58944,"2017-01-25T19:00:00","9.4","ND","ND","ND","33.5","2.3","ND","ND","ND","ND","ND","0"],
    [58945,"2017-01-25T20:00:00","19","ND","ND","ND","12.9","3.8","ND","ND","ND","ND","ND","0"],
    [58946,"2017-01-25T21:00:00","30.9","ND","ND","ND","4.1","4.4","ND","ND","ND","ND","ND","0"],
    [58947,"2017-01-25T22:00:00","29.3","ND","ND","ND","2.6","4.7","ND","ND","ND","ND","ND","0"],
    [58948,"2017-01-25T23:00:00","24.6","ND","ND","ND","1.6","4.5","ND","ND","ND","ND","ND","0"],
    [58949,"2017-01-26T00:00:00","17.8","ND","ND","ND","1.7","4.7","ND","ND","ND","ND","ND","0"],
    [58950,"2017-01-26T01:00:00","16.5","ND","ND","ND","1.6","4.5","ND","ND","ND","ND","ND","0"],
    [58951,"2017-01-26T02:00:00","24.7","ND","ND","ND","1.8","7.5","ND","ND","ND","ND","ND","0"],
    [58952,"2017-01-26T03:00:00","32.8","ND","ND","ND","2.5","6.6","ND","ND","ND","ND","ND","0"],
    [58953,"2017-01-26T04:00:00","25.2","ND","ND","ND","1.6","6.7","ND","ND","ND","ND","ND","0"],
    [58954,"2017-01-26T05:00:00","26.7","ND","ND","ND","1.8","6.6","ND","ND","ND","ND","ND","0"],
    [58955,"2017-01-26T06:00:00","34.5","ND","ND","ND","2.0","9.0","ND","ND","ND","ND","ND","0"],
    [58956,"2017-01-26T07:00:00","38.9","ND","ND","ND","2.4","6.7","ND","ND","ND","ND","ND","0"],
    [58957,"2017-01-26T08:00:00","50.7","ND","ND","ND","3.5","7.4","ND","ND","ND","ND","ND","0"],
    [58958,"2017-01-26T09:00:00","52.3","ND","ND","ND","4.9","9.0","ND","ND","ND","ND","ND","0"],
    [58959,"2017-01-26T10:00:00","51.9","ND","ND","ND","17.7","6.8","ND","ND","ND","ND","ND","0"],
    [58960,"2017-01-26T11:00:00","51.9","ND","ND","ND","40.2","4.8","ND","ND","ND","ND","ND","0"],
    [58961,"2017-01-26T12:00:00","43.4","ND","ND","ND","92.9","3.9","ND","ND","ND","ND","ND","0"],
    [58962,"2017-01-26T13:00:00","24.5","ND","ND","ND","105.6","3.5","ND","ND","ND","ND","ND","0"],
    [58963,"2017-01-26T14:00:00","19.2","ND","ND","ND","116.8","2.4","ND","ND","ND","ND","ND","0"],
    [58964,"2017-01-26T15:00:00","26.1","ND","ND","ND","89.8","2.2","ND","ND","ND","ND","ND","0"],
    [58965,"2017-01-26T16:00:00","14.9","ND","ND","ND","46.6","2.5","ND","ND","ND","ND","ND","0"],
    [58966,"2017-01-26T17:00:00","13.5","ND","ND","ND","30.9","2.5","ND","ND","ND","ND","ND","0"],
    [58967,"2017-01-26T18:00:00","7.5","ND","ND","ND","23.0","2.0","ND","ND","ND","ND","ND","0"],
    [58968,"2017-01-26T19:00:00","3.1","ND","ND","ND","13.9","2.7","ND","ND","ND","ND","ND","0"],
    [58969,"2017-01-26T20:00:00","25.3","ND","ND","ND","3.5","4.1","ND","ND","ND","ND","ND","0"],
    [58970,"2017-01-26T21:00:00","23.6","ND","ND","ND","2.8","3.8","ND","ND","ND","ND","ND","0"],
    [58971,"2017-01-26T22:00:00","21.3","ND","ND","ND","2.2","3.4","ND","ND","ND","ND","ND","0"],
    [58972,"2017-01-26T23:00:00","25.5","ND","ND","ND","2.1","7.6","ND","ND","ND","ND","ND","0"],
    [58973,"2017-01-27T00:00:00","26.7","ND","ND","ND","2.0","5.3","ND","ND","ND","ND","ND","0"],
    [58974,"2017-01-27T01:00:00","21","ND","ND","ND","1.9","6.1","ND","ND","ND","ND","ND","0"],
    [58975,"2017-01-27T02:00:00","23.4","ND","ND","ND","1.6","4.7","ND","ND","ND","ND","ND","0"],
    [58976,"2017-01-27T03:00:00","28.3","ND","ND","ND","2.6","4.9","ND","ND","ND","ND","ND","0"],
    [58977,"2017-01-27T04:00:00","27.7","ND","ND","ND","2.3","8.8","ND","ND","ND","ND","ND","0"],
    [58978,"2017-01-27T05:00:00","29.7","ND","ND","ND","2.2","7.6","ND","ND","ND","ND","ND","0"],
    [58979,"2017-01-27T06:00:00","37.1","ND","ND","ND","2.0","8.5","ND","ND","ND","ND","ND","0"],
    [58980,"2017-01-27T07:00:00","30.9","ND","ND","ND","2.4","6.7","ND","ND","ND","ND","ND","0"],
    [58981,"2017-01-27T08:00:00","40.1","ND","ND","ND","3.2","7.5","ND","ND","ND","ND","ND","0"],
    [58982,"2017-01-27T09:00:00","57.8","ND","ND","ND","6.3","7.7","ND","ND","ND","ND","ND","0"],
    [58983,"2017-01-27T10:00:00","48.6","ND","ND","ND","33.1","5.6","ND","ND","ND","ND","ND","0"],
    [58984,"2017-01-27T11:00:00","24.3","ND","ND","ND","82.1","3.7","ND","ND","ND","ND","ND","0"],
    [58985,"2017-01-27T12:00:00","17.4","ND","ND","ND","85.5","3.8","ND","ND","ND","ND","ND","0"],
    [58986,"2017-01-27T13:00:00","25.8","ND","ND","ND","81.4","2.4","ND","ND","ND","ND","ND","0"],
    [58987,"2017-01-27T14:00:00","19.7","ND","ND","ND","91.1","2.5","ND","ND","ND","ND","ND","0"],
    [58988,"2017-01-27T15:00:00","15","ND","ND","ND","55.6","2.5","ND","ND","ND","ND","ND","0"],
    [58989,"2017-01-27T16:00:00","8.1","ND","ND","ND","36.7","1.9","ND","ND","ND","ND","ND","0"],
    [58990,"2017-01-27T17:00:00","7.4","ND","ND","ND","30.7","1.8","ND","ND","ND","ND","ND","0"],
    [58991,"2017-01-27T18:00:00","8.6","ND","ND","ND","24.7","2.7","ND","ND","ND","ND","ND","0"],
    [58992,"2017-01-27T19:00:00","ND","ND","ND","ND","22.0","2.5","ND","ND","ND","ND","ND","0"],
    [58993,"2017-01-27T20:00:00","4.5","ND","ND","ND","10.5","2.4","ND","ND","ND","ND","ND","0"],
    [58994,"2017-01-27T21:00:00","26.9","ND","ND","ND","2.9","3.2","ND","ND","ND","ND","ND","0"],
    [58995,"2017-01-27T22:00:00","39.4","ND","ND","ND","10.8","4.2","ND","ND","ND","ND","ND","0"],
    [58996,"2017-01-27T23:00:00","37.6","ND","ND","ND","5.2","3.6","ND","ND","ND","ND","ND","0"],
    [58997,"2017-01-28T00:00:00","24.4","ND","ND","ND","6.1","3.6","ND","ND","ND","ND","ND","0"],
    [58998,"2017-01-28T01:00:00","16.1","ND","ND","ND","8.1","4.9","ND","ND","ND","ND","ND","0"],
    [58999,"2017-01-28T02:00:00","11.1","ND","ND","ND","10.8","5.0","ND","ND","ND","ND","ND","0"],
    [59000,"2017-01-28T03:00:00","20.6","ND","ND","ND","10.5","3.7","ND","ND","ND","ND","ND","0"],
    [59001,"2017-01-28T04:00:00","12","ND","ND","ND","6.7","5.8","ND","ND","ND","ND","ND","0"],
    [59002,"2017-01-28T05:00:00","24.4","ND","ND","ND","2.6","6.1","ND","ND","ND","ND","ND","0"],
    [59003,"2017-01-28T06:00:00","27.9","ND","ND","ND","1.6","7.4","ND","ND","ND","ND","ND","0"],
    [59004,"2017-01-28T07:00:00","24.7","ND","ND","ND","1.6","7.3","ND","ND","ND","ND","ND","0"],
    [59005,"2017-01-28T08:00:00","34.1","ND","ND","ND","2.8","7.6","ND","ND","ND","ND","ND","0"],
    [59006,"2017-01-28T09:00:00","35.2","ND","ND","ND","6.9","7.2","ND","ND","ND","ND","ND","0"],
    [59007,"2017-01-28T10:00:00","35.2","ND","ND","ND","32.0","5.6","ND","ND","ND","ND","ND","0"],
    [59008,"2017-01-28T11:00:00","24.7","ND","ND","ND","63.9","4.8","ND","ND","ND","ND","ND","0"],
    [59009,"2017-01-28T12:00:00","19","ND","ND","ND","97.5","3.3","ND","ND","ND","ND","ND","0"],
    [59010,"2017-01-28T13:00:00","19.8","ND","ND","ND","119.6","2.2","ND","ND","ND","ND","ND","0"],
    [59011,"2017-01-28T14:00:00","14.5","ND","ND","ND","100.1","2.4","ND","ND","ND","ND","ND","0"],
    [59012,"2017-01-28T15:00:00","18","ND","ND","ND","70.5","2.0","ND","ND","ND","ND","ND","0"],
    [59013,"2017-01-28T16:00:00","11.1","ND","ND","ND","41.8","2.7","ND","ND","ND","ND","ND","0"],
    [59014,"2017-01-28T17:00:00","9.8","ND","ND","ND","42.8","2.3","ND","ND","ND","ND","ND","0"],
    [59015,"2017-01-28T18:00:00","3","ND","ND","ND","26.7","2.6","ND","ND","ND","ND","ND","0"],
    [59016,"2017-01-28T19:00:00","ND","ND","ND","ND","18.7","3.1","ND","ND","ND","ND","ND","0"],
    [59017,"2017-01-28T20:00:00","ND","ND","ND","ND","12.4","3.5","ND","ND","ND","ND","ND","0"],
    [59018,"2017-01-28T21:00:00","26.8","ND","ND","ND","3.7","3.4","ND","ND","ND","ND","ND","0"],
    [59019,"2017-01-28T22:00:00","35.3","ND","ND","ND","2.6","3.4","ND","ND","ND","ND","ND","0"],
    [59020,"2017-01-28T23:00:00","28.1","ND","ND","ND","2.0","5.0","ND","ND","ND","ND","ND","0"],
    [59021,"2017-01-29T00:00:00","17.2","ND","ND","ND","1.5","5.7","ND","ND","ND","ND","ND","0"],
    [59022,"2017-01-29T01:00:00","9.6","ND","ND","ND","1.3","2.9","ND","ND","ND","ND","ND","0"],
    [59023,"2017-01-29T02:00:00","10.8","ND","ND","ND","1.6","4.7","ND","ND","ND","ND","ND","0"],
    [59024,"2017-01-29T03:00:00","18.5","ND","ND","ND","2.1","5.4","ND","ND","ND","ND","ND","0"],
    [59025,"2017-01-29T04:00:00","19.7","ND","ND","ND","1.5","5.3","ND","ND","ND","ND","ND","0"],
    [59026,"2017-01-29T05:00:00","16.1","ND","ND","ND","3.0","5.7","ND","ND","ND","ND","ND","0"],
    [59027,"2017-01-29T06:00:00","9.6","ND","ND","ND","1.9","5.3","ND","ND","ND","ND","ND","0"],
    [59028,"2017-01-29T07:00:00","16.5","ND","ND","ND","3.2","4.4","ND","ND","ND","ND","ND","0"],
    [59029,"2017-01-29T08:00:00","18.3","ND","ND","ND","3.0","5.6","ND","ND","ND","ND","ND","0"],
    [59030,"2017-01-29T09:00:00","27.9","ND","ND","ND","9.5","6.5","ND","ND","ND","ND","ND","0"],
    [59031,"2017-01-29T10:00:00","27.5","ND","ND","ND","33.1","4.9","ND","ND","ND","ND","ND","0"],
    [59032,"2017-01-29T11:00:00","16","ND","ND","ND","58.5","3.1","ND","ND","ND","ND","ND","0"],
    [59033,"2017-01-29T12:00:00","12.3","ND","ND","ND","80.8","2.0","ND","ND","ND","ND","ND","0"],
    [59034,"2017-01-29T13:00:00","23.5","ND","ND","ND","77.3","2.4","ND","ND","ND","ND","ND","0"],
    [59035,"2017-01-29T14:00:00","20.3","ND","ND","ND","75.1","2.2","ND","ND","ND","ND","ND","0"],
    [59036,"2017-01-29T15:00:00","13.8","ND","ND","ND","63.4","1.8","ND","ND","ND","ND","ND","0"],
    [59037,"2017-01-29T16:00:00","7.6","ND","ND","ND","40.5","2.2","ND","ND","ND","ND","ND","0"],
    [59038,"2017-01-29T17:00:00","ND","ND","ND","ND","26.1","2.6","ND","ND","ND","ND","ND","0"],
    [59039,"2017-01-29T18:00:00","6.1","ND","ND","ND","23.1","2.2","ND","ND","ND","ND","ND","0"],
    [59040,"2017-01-29T19:00:00","3.5","ND","ND","ND","16.1","2.6","ND","ND","ND","ND","ND","0"],
    [59041,"2017-01-29T20:00:00","3.2","ND","ND","ND","6.7","2.8","ND","ND","ND","ND","ND","0"],
    [59042,"2017-01-29T21:00:00","13.4","ND","ND","ND","2.9","4.4","ND","ND","ND","ND","ND","0"],
    [59043,"2017-01-29T22:00:00","30.8","ND","ND","ND","2.1","4.7","ND","ND","ND","ND","ND","0"],
    [59044,"2017-01-29T23:00:00","23.9","ND","ND","ND","1.7","5.0","ND","ND","ND","ND","ND","0"],
    [59045,"2017-01-30T00:00:00","15.8","ND","ND","ND","1.7","5.0","ND","ND","ND","ND","ND","0"],
    [59046,"2017-01-30T01:00:00","15.4","ND","ND","ND","1.4","6.1","ND","ND","ND","ND","ND","0"],
    [59047,"2017-01-30T02:00:00","16.3","ND","ND","ND","5.0","4.1","ND","ND","ND","ND","ND","0"],
    [59048,"2017-01-30T03:00:00","15.7","ND","ND","ND","2.5","6.0","ND","ND","ND","ND","ND","0"],
    [59049,"2017-01-30T04:00:00","14.8","ND","ND","ND","4.8","5.5","ND","ND","ND","ND","ND","0"],
    [59050,"2017-01-30T05:00:00","8.7","ND","ND","ND","1.8","5.4","ND","ND","ND","ND","ND","0"],
    [59051,"2017-01-30T06:00:00","19","ND","ND","ND","2.0","5.2","ND","ND","ND","ND","ND","0"],
    [59052,"2017-01-30T07:00:00","21.9","ND","ND","ND","2.3","9.3","ND","ND","ND","ND","ND","0"],
    [59053,"2017-01-30T08:00:00","31.7","ND","ND","ND","3.9","6.5","ND","ND","ND","ND","ND","0"],
    [59054,"2017-01-30T09:00:00","36.6","ND","ND","ND","13.4","5.2","ND","ND","ND","ND","ND","0"],
    [59055,"2017-01-30T10:00:00","31.8","ND","ND","ND","38.2","4.4","ND","ND","ND","ND","ND","0"],
    [59056,"2017-01-30T11:00:00","13.5","ND","ND","ND","58.9","4.0","ND","ND","ND","ND","ND","0"],
    [59057,"2017-01-30T12:00:00","17.9","ND","ND","ND","56.9","2.7","ND","ND","ND","ND","ND","0"],
    [59058,"2017-01-30T13:00:00","13","ND","ND","ND","57.2","2.2","ND","ND","ND","ND","ND","0"],
    [59059,"2017-01-30T14:00:00","9.4","ND","ND","ND","59.0","2.7","ND","ND","ND","ND","ND","0"],
    [59060,"2017-01-30T15:00:00","4.6","ND","ND","ND","63.2","1.7","ND","ND","ND","ND","ND","0"],
    [59061,"2017-01-30T16:00:00","ND","ND","ND","ND","45.9","1.8","ND","ND","ND","ND","ND","0"],
    [59062,"2017-01-30T17:00:00","6.3","ND","ND","ND","26.3","2.0","ND","ND","ND","ND","ND","0"],
    [59063,"2017-01-30T18:00:00","5.7","ND","ND","ND","23.5","1.7","ND","ND","ND","ND","ND","0"],
    [59064,"2017-01-30T19:00:00","25.5","ND","ND","ND","6.0","3.4","ND","ND","ND","ND","ND","0"],
    [59065,"2017-01-30T20:00:00","43.6","ND","ND","ND","2.1","4.3","ND","ND","ND","ND","ND","0"],
    [59066,"2017-01-30T21:00:00","18.5","ND","ND","ND","1.7","6.1","ND","ND","ND","ND","ND","0"],
    [59067,"2017-01-30T22:00:00","16.2","ND","ND","ND","1.5","3.8","ND","ND","ND","ND","ND","0"],
    [59068,"2017-01-30T23:00:00","13.8","ND","ND","ND","1.5","3.5","ND","ND","ND","ND","ND","0"],
    [59069,"2017-01-31T00:00:00","10.9","ND","ND","ND","1.3","3.4","ND","ND","ND","ND","ND","0"],
    [59070,"2017-01-31T01:00:00","9.6","ND","ND","ND","1.0","2.8","ND","ND","ND","ND","ND","0"],
    [59071,"2017-01-31T02:00:00","5.2","ND","ND","ND","1.2","3.1","ND","ND","ND","ND","ND","0"],
    [59072,"2017-01-31T03:00:00","8.1","ND","ND","ND","1.1","3.7","ND","ND","ND","ND","ND","0"],
    [59073,"2017-01-31T04:00:00","12.2","ND","ND","ND","1.5","4.3","ND","ND","ND","ND","ND","0"],
    [59074,"2017-01-31T05:00:00","16.6","ND","ND","ND","1.3","7.0","ND","ND","ND","ND","ND","0"],
    [59075,"2017-01-31T06:00:00","19.2","ND","ND","ND","2.3","8.6","ND","ND","ND","ND","ND","0"],
    [59076,"2017-01-31T07:00:00","20.4","ND","ND","ND","1.2","11.4","ND","ND","ND","ND","ND","0"],
    [59077,"2017-01-31T08:00:00","23.7","ND","ND","ND","1.8","10.1","ND","ND","ND","ND","ND","0"],
    [59078,"2017-01-31T09:00:00","28.3","ND","ND","ND","3.7","7.9","ND","ND","ND","ND","ND","0"],
    [59079,"2017-01-31T10:00:00","36.6","ND","ND","ND","15.8","6.7","ND","ND","ND","ND","ND","0"],
    [59080,"2017-01-31T11:00:00","21","ND","ND","ND","49.3","3.7","ND","ND","ND","ND","ND","0"],
    [59081,"2017-01-31T12:00:00","8.8","ND","ND","ND","90.0","2.5","ND","ND","ND","ND","ND","0"],
    [59082,"2017-01-31T13:00:00","14.3","ND","ND","ND","113.1","2.7","ND","ND","ND","ND","ND","0"],
    [59083,"2017-01-31T14:00:00","24.2","ND","ND","ND","104.5","2.7","ND","ND","ND","ND","ND","0"],
    [59084,"2017-01-31T15:00:00","8.4","ND","ND","ND","43.6","2.0","ND","ND","ND","ND","ND","0"],
    [59085,"2017-01-31T16:00:00","1.2","ND","ND","ND","35.8","1.8","ND","ND","ND","ND","ND","0"],
    [59086,"2017-01-31T17:00:00","ND","ND","ND","ND","27.8","2.0","ND","ND","ND","ND","ND","0"],
    [59087,"2017-01-31T18:00:00","1.3","ND","ND","ND","12.0","2.0","ND","ND","ND","ND","ND","0"],
    [59088,"2017-01-31T19:00:00","28.9","ND","ND","ND","4.1","1.5","ND","ND","ND","ND","ND","0"],
    [59089,"2017-01-31T20:00:00","23.3","ND","ND","ND","5.9","3.1","ND","ND","ND","ND","ND","0"],
    [59090,"2017-01-31T21:00:00","ND","ND","ND","ND","4.1","2.1","ND","ND","ND","ND","ND","0"],
    [59091,"2017-01-31T22:00:00","16.7","ND","ND","ND","2.2","2.5","ND","ND","ND","ND","ND","0"],
    [59092,"2017-01-31T23:00:00","44.5","ND","ND","ND","2.5","7.6","ND","ND","ND","ND","ND","0"],
    [59093,"2017-02-01T00:00:00","33.1","ND","ND","ND","2.5","10.6","ND","ND","ND","ND","ND","0"],
    [59094,"2017-02-01T01:00:00","13.7","ND","ND","ND","3.6","4.2","ND","ND","ND","ND","ND","0"],
    [59095,"2017-02-01T02:00:00","13.4","ND","ND","ND","1.8","9.3","ND","ND","ND","ND","ND","0"],
    [59096,"2017-02-01T03:00:00","30.1","ND","ND","ND","1.5","8.3","ND","ND","ND","ND","ND","0"],
    [59097,"2017-02-01T04:00:00","23.3","ND","ND","ND","1.3","5.6","ND","ND","ND","ND","ND","0"],
    [59098,"2017-02-01T05:00:00","19.2","ND","ND","ND","1.6","7.7","ND","ND","ND","ND","ND","0"],
    [59099,"2017-02-01T06:00:00","30.9","ND","ND","ND","1.8","6.8","ND","ND","ND","ND","ND","0"],
    [59100,"2017-02-01T07:00:00","38.3","ND","ND","ND","1.6","5.9","ND","ND","ND","ND","ND","0"],
    [59101,"2017-02-01T08:00:00","31.7","ND","ND","ND","2.9","9.9","ND","ND","ND","ND","ND","0"],
    [59102,"2017-02-01T09:00:00","62.2","ND","ND","ND","6.5","6.6","ND","ND","ND","ND","ND","0"],
    [59103,"2017-02-01T10:00:00","46.8","ND","ND","ND","30.8","4.4","ND","ND","ND","ND","ND","0"],
    [59104,"2017-02-01T11:00:00","11.9","ND","ND","ND","57.8","2.6","ND","ND","ND","ND","ND","0"],
    [59105,"2017-02-01T12:00:00","3.4","ND","ND","ND","65.0","2.4","ND","ND","ND","ND","ND","0"],
    [59106,"2017-02-01T13:00:00","11","ND","ND","ND","81.2","2.1","ND","ND","ND","ND","ND","0"],
    [59107,"2017-02-01T14:00:00","15.8","ND","ND","ND","104.8","2.1","ND","ND","ND","ND","ND","0"],
    [59108,"2017-02-01T15:00:00","9.2","ND","ND","ND","102.9","2.1","ND","ND","ND","ND","ND","0"],
    [59109,"2017-02-01T16:00:00","17.2","ND","ND","ND","79.7","2.2","ND","ND","ND","ND","ND","0"],
    [59110,"2017-02-01T17:00:00","13.1","ND","ND","ND","35.1","1.8","ND","ND","ND","ND","ND","0"],
    [59111,"2017-02-01T18:00:00","ND","ND","ND","ND","21.9","2.2","ND","ND","ND","ND","ND","0"],
    [59112,"2017-02-01T19:00:00","ND","ND","ND","ND","13.8","2.3","ND","ND","ND","ND","ND","0"],
    [59113,"2017-02-01T20:00:00","3.3","ND","ND","ND","5.4","2.1","ND","ND","ND","ND","ND","0"],
    [59114,"2017-02-01T21:00:00","21.9","ND","ND","ND","2.7","3.8","ND","ND","ND","ND","ND","0"],
    [59115,"2017-02-01T22:00:00","26","ND","ND","ND","3.5","5.7","ND","ND","ND","ND","ND","0"],
    [59116,"2017-02-01T23:00:00","32.4","ND","ND","ND","1.8","3.6","ND","ND","ND","ND","ND","0"],
    [59117,"2017-02-02T00:00:00","21.1","ND","ND","ND","2.1","3.9","ND","ND","ND","ND","ND","0"],
    [59118,"2017-02-02T01:00:00","17","ND","ND","ND","1.9","7.9","ND","ND","ND","ND","ND","0"],
    [59119,"2017-02-02T02:00:00","23.2","ND","ND","ND","2.2","8.0","ND","ND","ND","ND","ND","0"],
    [59120,"2017-02-02T03:00:00","19.7","ND","ND","ND","1.8","5.8","ND","ND","ND","ND","ND","0"],
    [59121,"2017-02-02T04:00:00","15.2","ND","ND","ND","1.7","5.2","ND","ND","ND","ND","ND","0"],
    [59122,"2017-02-02T05:00:00","22.7","ND","ND","ND","1.9","7.0","ND","ND","ND","ND","ND","0"],
    [59123,"2017-02-02T06:00:00","21.6","ND","ND","ND","1.9","6.3","ND","ND","ND","ND","ND","0"],
    [59124,"2017-02-02T07:00:00","31.5","ND","ND","ND","2.2","6.2","ND","ND","ND","ND","ND","0"],
    [59125,"2017-02-02T08:00:00","51.8","ND","ND","ND","3.2","7.8","ND","ND","ND","ND","ND","0"],
    [59126,"2017-02-02T09:00:00","48.4","ND","ND","ND","6.6","8.7","ND","ND","ND","ND","ND","0"],
    [59127,"2017-02-02T10:00:00","36.3","ND","ND","ND","18.1","6.6","ND","ND","ND","ND","ND","0"],
    [59128,"2017-02-02T11:00:00","34.7","ND","ND","ND","83.5","4.9","ND","ND","ND","ND","ND","0"],
    [59129,"2017-02-02T12:00:00","21.4","ND","ND","ND","123.5","2.5","ND","ND","ND","ND","ND","0"],
    [59130,"2017-02-02T13:00:00","19.2","ND","ND","ND","122.9","2.7","ND","ND","ND","ND","ND","0"],
    [59131,"2017-02-02T14:00:00","11.9","ND","ND","ND","50.1","2.0","ND","ND","ND","ND","ND","0"],
    [59132,"2017-02-02T15:00:00","ND","ND","ND","ND","24.0","2.7","ND","ND","ND","ND","ND","0"],
    [59133,"2017-02-02T16:00:00","10.6","ND","ND","ND","24.3","2.1","ND","ND","ND","ND","ND","0"],
    [59134,"2017-02-02T17:00:00","9","ND","ND","ND","23.3","1.8","ND","ND","ND","ND","ND","0"],
    [59135,"2017-02-02T18:00:00","1.8","ND","ND","ND","21.1","2.3","ND","ND","ND","ND","ND","0"],
    [59136,"2017-02-02T19:00:00","ND","ND","ND","ND","15.6","2.5","ND","ND","ND","ND","ND","0"],
    [59137,"2017-02-02T20:00:00","7.9","ND","ND","ND","11.6","2.6","ND","ND","ND","ND","ND","0"],
    [59138,"2017-02-02T21:00:00","28.6","ND","ND","ND","2.9","3.0","ND","ND","ND","ND","ND","0"],
    [59139,"2017-02-02T22:00:00","26.2","ND","ND","ND","4.2","2.8","ND","ND","ND","ND","ND","0"],
    [59140,"2017-02-02T23:00:00","24.6","ND","ND","ND","1.9","4.5","ND","ND","ND","ND","ND","0"],
    [59141,"2017-02-03T00:00:00","20.1","ND","ND","ND","3.9","3.8","ND","ND","ND","ND","ND","0"],
    [59142,"2017-02-03T01:00:00","19.2","ND","ND","ND","5.2","5.8","ND","ND","ND","ND","ND","0"],
    [59143,"2017-02-03T02:00:00","13","ND","ND","ND","3.0","6.6","ND","ND","ND","ND","ND","0"],
    [59144,"2017-02-03T03:00:00","10.3","ND","ND","ND","2.7","5.3","ND","ND","ND","ND","ND","0"],
    [59145,"2017-02-03T04:00:00","12.4","ND","ND","ND","2.9","5.6","ND","ND","ND","ND","ND","0"],
    [59146,"2017-02-03T05:00:00","13.6","ND","ND","ND","1.7","6.1","ND","ND","ND","ND","ND","0"],
    [59147,"2017-02-03T06:00:00","8.9","ND","ND","ND","2.9","5.7","ND","ND","ND","ND","ND","0"],
    [59148,"2017-02-03T07:00:00","18.9","ND","ND","ND","2.1","6.6","ND","ND","ND","ND","ND","0"],
    [59149,"2017-02-03T08:00:00","32","ND","ND","ND","4.4","10.3","ND","ND","ND","ND","ND","0"],
    [59150,"2017-02-03T09:00:00","48.1","ND","ND","ND","7.4","10.6","ND","ND","ND","ND","ND","0"],
    [59151,"2017-02-03T10:00:00","25","ND","ND","ND","15.6","6.5","ND","ND","ND","ND","ND","0"],
    [59152,"2017-02-03T11:00:00","23.4","ND","ND","ND","48.5","4.4","ND","ND","ND","ND","ND","0"],
    [59153,"2017-02-03T12:00:00","16.6","ND","ND","ND","81.0","3.2","ND","ND","ND","ND","ND","0"],
    [59154,"2017-02-03T13:00:00","14.8","ND","ND","ND","93.1","2.5","ND","ND","ND","ND","ND","0"],
    [59155,"2017-02-03T14:00:00","11.6","ND","ND","ND","67.9","2.6","ND","ND","ND","ND","ND","0"],
    [59156,"2017-02-03T15:00:00","13.1","ND","ND","ND","38.7","1.9","ND","ND","ND","ND","ND","0"],
    [59157,"2017-02-03T16:00:00","9.5","ND","ND","ND","31.8","2.5","ND","ND","ND","ND","ND","0"],
    [59158,"2017-02-03T17:00:00","9.7","ND","ND","ND","27.0","2.1","ND","ND","ND","ND","ND","0"],
    [59159,"2017-02-03T18:00:00","ND","ND","ND","ND","24.9","2.1","ND","ND","ND","ND","ND","0"],
    [59160,"2017-02-03T19:00:00","ND","ND","ND","ND","15.3","2.0","ND","ND","ND","ND","ND","0"],
    [59161,"2017-02-03T20:00:00","6.4","ND","ND","ND","7.9","3.1","ND","ND","ND","ND","ND","0"],
    [59162,"2017-02-03T21:00:00","21.9","ND","ND","ND","2.9","3.5","ND","ND","ND","ND","ND","0"],
    [59163,"2017-02-03T22:00:00","34.9","ND","ND","ND","2.1","4.3","ND","ND","ND","ND","ND","0"],
    [59164,"2017-02-03T23:00:00","34.7","ND","ND","ND","1.9","4.6","ND","ND","ND","ND","ND","0"],
    [59165,"2017-02-04T00:00:00","30.6","ND","ND","ND","1.7","3.6","ND","ND","ND","ND","ND","0"],
    [59166,"2017-02-04T01:00:00","27.8","ND","ND","ND","1.6","4.8","ND","ND","ND","ND","ND","0"],
    [59167,"2017-02-04T02:00:00","29.3","ND","ND","ND","2.2","6.8","ND","ND","ND","ND","ND","0"],
    [59168,"2017-02-04T03:00:00","36","ND","ND","ND","1.6","6.6","ND","ND","ND","ND","ND","0"],
    [59169,"2017-02-04T04:00:00","20","ND","ND","ND","1.4","6.3","ND","ND","ND","ND","ND","0"],
    [59170,"2017-02-04T05:00:00","15.6","ND","ND","ND","1.3","6.3","ND","ND","ND","ND","ND","0"],
    [59171,"2017-02-04T06:00:00","22.7","ND","ND","ND","1.3","6.3","ND","ND","ND","ND","ND","0"],
    [59172,"2017-02-04T07:00:00","17.8","ND","ND","ND","1.9","6.6","ND","ND","ND","ND","ND","0"],
    [59173,"2017-02-04T08:00:00","29.7","ND","ND","ND","3.5","6.0","ND","ND","ND","ND","ND","0"],
    [59174,"2017-02-04T09:00:00","32.1","ND","ND","ND","4.4","6.4","ND","ND","ND","ND","ND","0"],
    [59175,"2017-02-04T10:00:00","32.6","ND","ND","ND","15.7","5.7","ND","ND","ND","ND","ND","0"],
    [59176,"2017-02-04T11:00:00","27.6","ND","ND","ND","39.4","3.9","ND","ND","ND","ND","ND","0"],
    [59177,"2017-02-04T12:00:00","5.7","ND","ND","ND","58.1","2.8","ND","ND","ND","ND","ND","0"],
    [59178,"2017-02-04T13:00:00","10.5","ND","ND","ND","78.9","3.0","ND","ND","ND","ND","ND","0"],
    [59179,"2017-02-04T14:00:00","18.7","ND","ND","ND","85.6","2.4","ND","ND","ND","ND","ND","0"],
    [59180,"2017-02-04T15:00:00","13.4","ND","ND","ND","79.7","2.4","ND","ND","ND","ND","ND","0"],
    [59181,"2017-02-04T16:00:00","10.1","ND","ND","ND","83.3","2.1","ND","ND","ND","ND","ND","0"],
    [59182,"2017-02-04T17:00:00","11.5","ND","ND","ND","70.4","2.0","ND","ND","ND","ND","ND","0"],
    [59183,"2017-02-04T18:00:00","14.4","ND","ND","ND","38.8","2.4","ND","ND","ND","ND","ND","0"],
    [59184,"2017-02-04T19:00:00","1.6","ND","ND","ND","26.9","2.6","ND","ND","ND","ND","ND","0"],
    [59185,"2017-02-04T20:00:00","6.9","ND","ND","ND","25.9","2.9","ND","ND","ND","ND","ND","0"],
    [59186,"2017-02-04T21:00:00","22.2","ND","ND","ND","6.7","5.2","ND","ND","ND","ND","ND","0"],
    [59187,"2017-02-04T22:00:00","29.2","ND","ND","ND","2.5","6.6","ND","ND","ND","ND","ND","0"],
    [59188,"2017-02-04T23:00:00","25","ND","ND","ND","1.9","4.8","ND","ND","ND","ND","ND","0"],
    [59189,"2017-02-05T00:00:00","20.6","ND","ND","ND","1.9","5.8","ND","ND","ND","ND","ND","0"],
    [59190,"2017-02-05T01:00:00","20","ND","ND","ND","1.7","5.1","ND","ND","ND","ND","ND","0"],
    [59191,"2017-02-05T02:00:00","17.2","ND","ND","ND","1.4","3.7","ND","ND","ND","ND","ND","0"],
    [59192,"2017-02-05T03:00:00","14.9","ND","ND","ND","1.5","8.7","ND","ND","ND","ND","ND","0"],
    [59193,"2017-02-05T04:00:00","18.9","ND","ND","ND","1.5","8.6","ND","ND","ND","ND","ND","0"],
    [59194,"2017-02-05T05:00:00","20.1","ND","ND","ND","1.2","7.9","ND","ND","ND","ND","ND","0"],
    [59195,"2017-02-05T06:00:00","22.9","ND","ND","ND","1.2","6.8","ND","ND","ND","ND","ND","0"],
    [59196,"2017-02-05T07:00:00","26.6","ND","ND","ND","1.6","8.3","ND","ND","ND","ND","ND","0"],
    [59197,"2017-02-05T08:00:00","32.9","ND","ND","ND","5.7","6.7","ND","ND","ND","ND","ND","0"],
    [59198,"2017-02-05T09:00:00","30.5","ND","ND","ND","21.7","5.4","ND","ND","ND","ND","ND","0"],
    [59199,"2017-02-05T10:00:00","20.1","ND","ND","ND","42.2","2.6","ND","ND","ND","ND","ND","0"],
    [59200,"2017-02-05T11:00:00","12.9","ND","ND","ND","57.8","3.0","ND","ND","ND","ND","ND","0"],
    [59201,"2017-02-05T12:00:00","11.9","ND","ND","ND","79.3","1.9","ND","ND","ND","ND","ND","0"],
    [59202,"2017-02-05T13:00:00","14.4","ND","ND","ND","91.8","2.1","ND","ND","ND","ND","ND","0"],
    [59203,"2017-02-05T14:00:00","19.5","ND","ND","ND","102.1","2.2","ND","ND","ND","ND","ND","0"],
    [59204,"2017-02-05T15:00:00","20.9","ND","ND","ND","104.6","1.8","ND","ND","ND","ND","ND","0"],
    [59205,"2017-02-05T16:00:00","17.8","ND","ND","ND","72.5","1.8","ND","ND","ND","ND","ND","0"],
    [59206,"2017-02-05T17:00:00","16.8","ND","ND","ND","51.5","2.1","ND","ND","ND","ND","ND","0"],
    [59207,"2017-02-05T18:00:00","9.2","ND","ND","ND","40.5","2.9","ND","ND","ND","ND","ND","0"],
    [59208,"2017-02-05T19:00:00","9.6","ND","ND","ND","28.9","2.6","ND","ND","ND","ND","ND","0"],
    [59209,"2017-02-05T20:00:00","10.7","ND","ND","ND","18.6","3.0","ND","ND","ND","ND","ND","0"],
    [59210,"2017-02-05T21:00:00","19.5","ND","ND","ND","2.8","4.8","ND","ND","ND","ND","ND","0"],
    [59211,"2017-02-05T22:00:00","24.3","ND","ND","ND","2.2","7.5","ND","ND","ND","ND","ND","0"],
    [59212,"2017-02-05T23:00:00","20.9","ND","ND","ND","2.1","6.0","ND","ND","ND","ND","ND","0"],
    [59213,"2017-02-06T00:00:00","15","ND","ND","ND","1.9","4.3","ND","ND","ND","ND","ND","0"],
    [59214,"2017-02-06T01:00:00","16.5","ND","ND","ND","1.8","4.5","ND","ND","ND","ND","ND","0"],
    [59215,"2017-02-06T02:00:00","14","ND","ND","ND","1.5","6.7","ND","ND","ND","ND","ND","0"],
    [59216,"2017-02-06T03:00:00","15.9","ND","ND","ND","1.5","5.8","ND","ND","ND","ND","ND","0"],
    [59217,"2017-02-06T04:00:00","13.5","ND","ND","ND","1.3","5.0","ND","ND","ND","ND","ND","0"],
    [59218,"2017-02-06T05:00:00","16","ND","ND","ND","1.3","6.3","ND","ND","ND","ND","ND","0"],
    [59219,"2017-02-06T06:00:00","21","ND","ND","ND","1.3","5.8","ND","ND","ND","ND","ND","0"],
    [59220,"2017-02-06T07:00:00","24.8","ND","ND","ND","1.6","4.5","ND","ND","ND","ND","ND","0"],
    [59221,"2017-02-06T08:00:00","44.7","ND","ND","ND","3.1","7.9","ND","ND","ND","ND","ND","0"],
    [59222,"2017-02-06T09:00:00","45.3","ND","ND","ND","9.0","5.7","ND","ND","ND","ND","ND","0"],
    [59223,"2017-02-06T10:00:00","25.7","ND","ND","ND","34.1","3.3","ND","ND","ND","ND","ND","0"],
    [59224,"2017-02-06T11:00:00","13.2","ND","ND","ND","54.7","2.7","ND","ND","ND","ND","ND","0"],
    [59225,"2017-02-06T12:00:00","13.4","ND","ND","ND","75.7","2.3","ND","ND","ND","ND","ND","0"],
    [59226,"2017-02-06T13:00:00","15.6","ND","ND","ND","94.1","2.4","ND","ND","ND","ND","ND","0"],
    [59227,"2017-02-06T14:00:00","16.2","ND","ND","ND","119.8","1.3","ND","ND","ND","ND","ND","0"],
    [59228,"2017-02-06T15:00:00","31.2","ND","ND","ND","80.2","1.6","ND","ND","ND","ND","ND","0"],
    [59229,"2017-02-06T16:00:00","23.1","ND","ND","ND","29.9","2.4","ND","ND","ND","ND","ND","0"],
    [59230,"2017-02-06T17:00:00","12.9","ND","ND","ND","32.6","2.4","ND","ND","ND","ND","ND","0"],
    [59231,"2017-02-06T18:00:00","7.7","ND","ND","ND","29.6","2.8","ND","ND","ND","ND","ND","0"],
    [59232,"2017-02-06T19:00:00","2.1","ND","ND","ND","18.6","2.9","ND","ND","ND","ND","ND","0"],
    [59233,"2017-02-06T20:00:00","6.1","ND","ND","ND","13.2","2.1","ND","ND","ND","ND","ND","0"],
    [59234,"2017-02-06T21:00:00","18.5","ND","ND","ND","2.7","3.7","ND","ND","ND","ND","ND","0"],
    [59235,"2017-02-06T22:00:00","31.6","ND","ND","ND","2.1","3.8","ND","ND","ND","ND","ND","0"],
    [59236,"2017-02-06T23:00:00","23.6","ND","ND","ND","1.8","4.0","ND","ND","ND","ND","ND","0"],
    [59237,"2017-02-07T00:00:00","17.5","ND","ND","ND","1.7","5.5","ND","ND","ND","ND","ND","0"],
    [59238,"2017-02-07T01:00:00","29.5","ND","ND","ND","2.0","7.5","ND","ND","ND","ND","ND","0"],
    [59239,"2017-02-07T02:00:00","24.9","ND","ND","ND","1.8","6.4","ND","ND","ND","ND","ND","0"],
    [59240,"2017-02-07T03:00:00","17.4","ND","ND","ND","4.0","5.3","ND","ND","ND","ND","ND","0"],
    [59241,"2017-02-07T04:00:00","16.5","ND","ND","ND","2.8","4.8","ND","ND","ND","ND","ND","0"],
    [59242,"2017-02-07T05:00:00","12.5","ND","ND","ND","2.0","4.3","ND","ND","ND","ND","ND","0"],
    [59243,"2017-02-07T06:00:00","13.2","ND","ND","ND","1.3","4.4","ND","ND","ND","ND","ND","0"],
    [59244,"2017-02-07T07:00:00","26","ND","ND","ND","1.6","4.4","ND","ND","ND","ND","ND","0"],
    [59245,"2017-02-07T08:00:00","48","ND","ND","ND","2.6","8.1","ND","ND","ND","ND","ND","0"],
    [59246,"2017-02-07T09:00:00","57.9","ND","ND","ND","6.4","5.9","ND","ND","ND","ND","ND","0"],
    [59247,"2017-02-07T10:00:00","35.6","ND","ND","ND","35.5","3.7","ND","ND","ND","ND","ND","0"],
    [59248,"2017-02-07T11:00:00","9.5","ND","ND","ND","51.9","2.6","ND","ND","ND","ND","ND","0"],
    [59249,"2017-02-07T12:00:00","22.7","ND","ND","ND","66.1","2.5","ND","ND","ND","ND","ND","0"],
    [59250,"2017-02-07T13:00:00","20.9","ND","ND","ND","86.4","1.6","ND","ND","ND","ND","ND","0"],
    [59251,"2017-02-07T14:00:00","14.2","ND","ND","ND","74.7","2.3","ND","ND","ND","ND","ND","0"],
    [59252,"2017-02-07T15:00:00","10.8","ND","ND","ND","36.2","1.9","ND","ND","ND","ND","ND","0"],
    [59253,"2017-02-07T16:00:00","9.7","ND","ND","ND","27.0","2.0","ND","ND","ND","ND","ND","0"],
    [59254,"2017-02-07T17:00:00","10","ND","ND","ND","27.5","1.9","ND","ND","ND","ND","ND","0"],
    [59255,"2017-02-07T18:00:00","8.8","ND","ND","ND","21.6","2.1","ND","ND","ND","ND","ND","0"],
    [59256,"2017-02-07T19:00:00","1.4","ND","ND","ND","13.0","2.6","ND","ND","ND","ND","ND","0"],
    [59257,"2017-02-07T20:00:00","22.9","ND","ND","ND","6.9","2.7","ND","ND","ND","ND","ND","0"],
    [59258,"2017-02-07T21:00:00","24.1","ND","ND","ND","2.7","3.8","ND","ND","ND","ND","ND","0"],
    [59259,"2017-02-07T22:00:00","28","ND","ND","ND","2.1","6.4","ND","ND","ND","ND","ND","0"],
    [59260,"2017-02-07T23:00:00","31.7","ND","ND","ND","2.0","8.3","ND","ND","ND","ND","ND","0"],
    [59261,"2017-02-08T00:00:00","17.7","ND","ND","ND","1.8","8.3","ND","ND","ND","ND","ND","0"],
    [59262,"2017-02-08T01:00:00","15.1","ND","ND","ND","1.9","6.0","ND","ND","ND","ND","ND","0"],
    [59263,"2017-02-08T02:00:00","10.8","ND","ND","ND","2.2","7.8","ND","ND","ND","ND","ND","0"],
    [59264,"2017-02-08T03:00:00","14.7","ND","ND","ND","1.7","5.6","ND","ND","ND","ND","ND","0"],
    [59265,"2017-02-08T04:00:00","17.2","ND","ND","ND","1.8","5.4","ND","ND","ND","ND","ND","0"],
    [59266,"2017-02-08T05:00:00","22.5","ND","ND","ND","1.5","5.2","ND","ND","ND","ND","ND","0"],
    [59267,"2017-02-08T06:00:00","23.7","ND","ND","ND","1.9","5.4","ND","ND","ND","ND","ND","0"],
    [59268,"2017-02-08T07:00:00","26","ND","ND","ND","2.5","5.8","ND","ND","ND","ND","ND","0"],
    [59269,"2017-02-08T08:00:00","47.8","ND","ND","ND","3.6","9.2","ND","ND","ND","ND","ND","0"],
    [59270,"2017-02-08T09:00:00","62.2","ND","ND","ND","9.8","6.4","ND","ND","ND","ND","ND","0"],
    [59271,"2017-02-08T10:00:00","36.7","ND","ND","ND","38.2","3.6","ND","ND","ND","ND","ND","0"],
    [59272,"2017-02-08T11:00:00","15.3","ND","ND","ND","52.4","2.0","ND","ND","ND","ND","ND","0"],
    [59273,"2017-02-08T12:00:00","15.9","ND","ND","ND","69.6","2.2","ND","ND","ND","ND","ND","0"],
    [59274,"2017-02-08T13:00:00","18.4","ND","ND","ND","78.4","2.0","ND","ND","ND","ND","ND","0"],
    [59275,"2017-02-08T14:00:00","11.6","ND","ND","ND","37.1","1.8","ND","ND","ND","ND","ND","0"],
    [59276,"2017-02-08T15:00:00","7.4","ND","ND","ND","23.9","2.0","ND","ND","ND","ND","ND","0"],
    [59277,"2017-02-08T16:00:00","14","ND","ND","ND","24.9","2.6","ND","ND","ND","ND","ND","0"],
    [59278,"2017-02-08T17:00:00","11.8","ND","ND","ND","26.0","2.0","ND","ND","ND","ND","ND","0"],
    [59279,"2017-02-08T18:00:00","1.4","ND","ND","ND","22.5","2.1","ND","ND","ND","ND","ND","0"],
    [59280,"2017-02-08T19:00:00","0.5","ND","ND","ND","16.6","2.2","ND","ND","ND","ND","ND","0"],
    [59281,"2017-02-08T20:00:00","17.7","ND","ND","ND","5.9","3.0","ND","ND","ND","ND","ND","0"],
    [59282,"2017-02-08T21:00:00","25","ND","ND","ND","3.2","3.8","ND","ND","ND","ND","ND","0"],
    [59283,"2017-02-08T22:00:00","24.7","ND","ND","ND","5.3","5.1","ND","ND","ND","ND","ND","0"],
    [59284,"2017-02-08T23:00:00","25.8","ND","ND","ND","2.9","3.9","ND","ND","ND","ND","ND","0"],
    [59285,"2017-02-09T00:00:00","18.9","ND","ND","ND","2.3","4.7","ND","ND","ND","ND","ND","0"],
    [59286,"2017-02-09T01:00:00","10.2","ND","ND","ND","2.5","4.4","ND","ND","ND","ND","ND","0"],
    [59287,"2017-02-09T02:00:00","5.5","ND","ND","ND","4.9","5.5","ND","ND","ND","ND","ND","0"],
    [59288,"2017-02-09T03:00:00","13","ND","ND","ND","5.4","5.5","ND","ND","ND","ND","ND","0"],
    [59289,"2017-02-09T04:00:00","15.4","ND","ND","ND","4.3","6.6","ND","ND","ND","ND","ND","0"],
    [59290,"2017-02-09T05:00:00","21.2","ND","ND","ND","2.6","6.1","ND","ND","ND","ND","ND","0"],
    [59291,"2017-02-09T06:00:00","26.4","ND","ND","ND","2.1","6.7","ND","ND","ND","ND","ND","0"],
    [59292,"2017-02-09T07:00:00","33.4","ND","ND","ND","2.3","7.1","ND","ND","ND","ND","ND","0"],
    [59293,"2017-02-09T08:00:00","33","ND","ND","ND","2.4","4.6","ND","ND","ND","ND","ND","0"],
    [59294,"2017-02-09T09:00:00","17.8","ND","ND","ND","4.4","3.7","ND","ND","ND","ND","ND","0"],
    [59295,"2017-02-09T10:00:00","20.5","ND","ND","ND","8.6","4.2","ND","ND","ND","ND","ND","0"],
    [59296,"2017-02-09T11:00:00","24.8","ND","ND","ND","33.7","3.1","ND","ND","ND","ND","ND","0"],
    [59297,"2017-02-09T12:00:00","17.3","ND","ND","ND","67.8","1.8","ND","ND","ND","ND","ND","0"],
    [59298,"2017-02-09T13:00:00","9.5","ND","ND","ND","82.5","1.8","ND","ND","ND","ND","ND","0"],
    [59299,"2017-02-09T14:00:00","5","ND","ND","ND","46.4","2.2","ND","ND","ND","ND","ND","0"],
    [59300,"2017-02-09T15:00:00","5.4","ND","ND","ND","29.4","2.1","ND","ND","ND","ND","ND","0"],
    [59301,"2017-02-09T16:00:00","1.2","ND","ND","ND","21.9","2.3","ND","ND","ND","ND","ND","0"],
    [59302,"2017-02-09T17:00:00","ND","ND","ND","ND","19.1","2.7","ND","ND","ND","ND","ND","0"],
    [59303,"2017-02-09T18:00:00","ND","ND","ND","ND","17.2","2.4","ND","ND","ND","ND","ND","0"],
    [59304,"2017-02-09T19:00:00","ND","ND","ND","ND","15.2","2.5","ND","ND","ND","ND","ND","0"],
    [59305,"2017-02-09T20:00:00","13.6","ND","ND","ND","7.1","2.4","ND","ND","ND","ND","ND","0"],
    [59306,"2017-02-09T21:00:00","22.9","ND","ND","ND","2.9","2.8","ND","ND","ND","ND","ND","0"],
    [59307,"2017-02-09T22:00:00","30.2","ND","ND","ND","3.0","4.8","ND","ND","ND","ND","ND","0"],
    [59308,"2017-02-09T23:00:00","32.9","ND","ND","ND","3.9","5.0","ND","ND","ND","ND","ND","0"],
    [59309,"2017-02-10T00:00:00","24.5","ND","ND","ND","3.8","3.9","ND","ND","ND","ND","ND","0"],
    [59310,"2017-02-10T01:00:00","21.6","ND","ND","ND","5.8","3.1","ND","ND","ND","ND","ND","0"],
    [59311,"2017-02-10T02:00:00","23.3","ND","ND","ND","4.4","4.8","ND","ND","ND","ND","ND","0"],
    [59312,"2017-02-10T03:00:00","35.3","ND","ND","ND","4.8","5.9","ND","ND","ND","ND","ND","0"],
    [59313,"2017-02-10T04:00:00","25.6","ND","ND","ND","10.3","4.6","ND","ND","ND","ND","ND","0"],
    [59314,"2017-02-10T05:00:00","13.4","ND","ND","ND","5.4","6.3","ND","ND","ND","ND","ND","0"],
    [59315,"2017-02-10T06:00:00","20.3","ND","ND","ND","1.8","4.7","ND","ND","ND","ND","ND","0"],
    [59316,"2017-02-10T07:00:00","19.4","ND","ND","ND","2.2","6.1","ND","ND","ND","ND","ND","0"],
    [59317,"2017-02-10T08:00:00","16.3","ND","ND","ND","3.0","4.9","ND","ND","ND","ND","ND","0"],
    [59318,"2017-02-10T09:00:00","22.5","ND","ND","ND","5.9","3.9","ND","ND","ND","ND","ND","0"],
    [59319,"2017-02-10T10:00:00","11","ND","ND","ND","11.4","3.4","ND","ND","ND","ND","ND","0"],
    [59320,"2017-02-10T11:00:00","4.7","ND","ND","ND","14.0","2.9","ND","ND","ND","ND","ND","0"],
    [59321,"2017-02-10T12:00:00","14.3","ND","ND","ND","25.9","2.6","ND","ND","ND","ND","ND","0"],
    [59322,"2017-02-10T13:00:00","6.1","ND","ND","ND","35.4","2.2","ND","ND","ND","ND","ND","0"],
    [59323,"2017-02-10T14:00:00","3.2","ND","ND","ND","42.9","2.5","ND","ND","ND","ND","ND","0"],
    [59324,"2017-02-10T15:00:00","12.4","ND","ND","ND","60.6","1.9","ND","ND","ND","ND","ND","0"],
    [59325,"2017-02-10T16:00:00","10.1","ND","ND","ND","36.3","2.1","ND","ND","ND","ND","ND","0"],
    [59326,"2017-02-10T17:00:00","13.9","ND","ND","ND","17.2","2.4","ND","ND","ND","ND","ND","0"],
    [59327,"2017-02-10T18:00:00","6.8","ND","ND","ND","11.1","1.9","ND","ND","ND","ND","ND","0"],
    [59328,"2017-02-10T19:00:00","2.8","ND","ND","ND","5.7","2.7","ND","ND","ND","ND","ND","0"],
    [59329,"2017-02-10T20:00:00","19.4","ND","ND","ND","3.0","3.7","ND","ND","ND","ND","ND","0"],
    [59330,"2017-02-10T21:00:00","24","ND","ND","ND","2.6","6.0","ND","ND","ND","ND","ND","0"],
    [59331,"2017-02-10T22:00:00","33.9","ND","ND","ND","5.5","3.9","ND","ND","ND","ND","ND","0"],
    [59332,"2017-02-10T23:00:00","19","ND","ND","ND","4.6","4.4","ND","ND","ND","ND","ND","0"],
    [59333,"2017-02-11T00:00:00","29.4","ND","ND","ND","2.8","5.9","ND","ND","ND","ND","ND","0"],
    [59334,"2017-02-11T01:00:00","28.3","ND","ND","ND","2.8","8.2","ND","ND","ND","ND","ND","0"],
    [59335,"2017-02-11T02:00:00","27.9","ND","ND","ND","2.2","4.9","ND","ND","ND","ND","ND","0"],
    [59336,"2017-02-11T03:00:00","17.3","ND","ND","ND","2.4","5.6","ND","ND","ND","ND","ND","0"],
    [59337,"2017-02-11T04:00:00","19.2","ND","ND","ND","2.8","8.4","ND","ND","ND","ND","ND","0"],
    [59338,"2017-02-11T05:00:00","31.5","ND","ND","ND","3.3","17.0","ND","ND","ND","ND","ND","0"],
    [59339,"2017-02-11T06:00:00","32.2","ND","ND","ND","2.6","10.1","ND","ND","ND","ND","ND","0"],
    [59340,"2017-02-11T07:00:00","29","ND","ND","ND","2.9","12.9","ND","ND","ND","ND","ND","0"],
    [59341,"2017-02-11T08:00:00","46.4","ND","ND","ND","2.9","12.7","ND","ND","ND","ND","ND","0"],
    [59342,"2017-02-11T09:00:00","56.6","ND","ND","ND","4.8","12.0","ND","ND","ND","ND","ND","0"],
    [59343,"2017-02-11T10:00:00","43.4","ND","ND","ND","13.2","8.0","ND","ND","ND","ND","ND","0"],
    [59344,"2017-02-11T11:00:00","21","ND","ND","ND","31.0","3.9","ND","ND","ND","ND","ND","0"],
    [59345,"2017-02-11T12:00:00","15","ND","ND","ND","66.8","2.3","ND","ND","ND","ND","ND","0"],
    [59346,"2017-02-11T13:00:00","20.7","ND","ND","ND","70.4","2.7","ND","ND","ND","ND","ND","0"],
    [59347,"2017-02-11T14:00:00","17.8","ND","ND","ND","45.4","2.0","ND","ND","ND","ND","ND","0"],
    [59348,"2017-02-11T15:00:00","16.1","ND","ND","ND","28.7","1.9","ND","ND","ND","ND","ND","0"],
    [59349,"2017-02-11T16:00:00","10.1","ND","ND","ND","21.2","1.9","ND","ND","ND","ND","ND","0"],
    [59350,"2017-02-11T17:00:00","3.8","ND","ND","ND","21.5","2.2","ND","ND","ND","ND","ND","0"],
    [59351,"2017-02-11T18:00:00","ND","ND","ND","ND","18.7","1.9","ND","ND","ND","ND","ND","0"],
    [59352,"2017-02-11T19:00:00","ND","ND","ND","ND","12.5","2.2","ND","ND","ND","ND","ND","0"],
    [59353,"2017-02-11T20:00:00","4","ND","ND","ND","9.6","2.9","ND","ND","ND","ND","ND","0"],
    [59354,"2017-02-11T21:00:00","19.8","ND","ND","ND","6.2","2.8","ND","ND","ND","ND","ND","0"],
    [59355,"2017-02-11T22:00:00","22.4","ND","ND","ND","7.3","3.1","ND","ND","ND","ND","ND","0"],
    [59356,"2017-02-11T23:00:00","21.7","ND","ND","ND","5.7","4.2","ND","ND","ND","ND","ND","0"],
    [59357,"2017-02-12T00:00:00","16.8","ND","ND","ND","4.1","8.7","ND","ND","ND","ND","ND","0"],
    [59358,"2017-02-12T01:00:00","21.1","ND","ND","ND","4.7","5.7","ND","ND","ND","ND","ND","0"],
    [59359,"2017-02-12T02:00:00","20.7","ND","ND","ND","7.0","7.0","ND","ND","ND","ND","ND","0"],
    [59360,"2017-02-12T03:00:00","21.5","ND","ND","ND","5.7","8.4","ND","ND","ND","ND","ND","0"],
    [59361,"2017-02-12T04:00:00","27.1","ND","ND","ND","4.0","5.6","ND","ND","ND","ND","ND","0"],
    [59362,"2017-02-12T05:00:00","24","ND","ND","ND","2.6","5.5","ND","ND","ND","ND","ND","0"],
    [59363,"2017-02-12T06:00:00","17.3","ND","ND","ND","2.1","5.8","ND","ND","ND","ND","ND","0"],
    [59364,"2017-02-12T07:00:00","20.3","ND","ND","ND","2.1","4.7","ND","ND","ND","ND","ND","0.25"],
    [59365,"2017-02-12T08:00:00","17.7","ND","ND","ND","2.1","6.0","ND","ND","ND","ND","ND","0"],
    [59366,"2017-02-12T09:00:00","12.9","ND","ND","ND","3.4","2.6","ND","ND","ND","ND","ND","0"],
    [59367,"2017-02-12T10:00:00","6.1","ND","ND","ND","3.7","2.7","ND","ND","ND","ND","ND","0"],
    [59368,"2017-02-12T11:00:00","12.7","ND","ND","ND","7.9","3.3","ND","ND","ND","ND","ND","0"],
    [59369,"2017-02-12T12:00:00","12.8","ND","ND","ND","18.5","2.5","ND","ND","ND","ND","ND","0"],
    [59370,"2017-02-12T13:00:00","2.5","ND","ND","ND","33.8","2.4","ND","ND","ND","ND","ND","0"],
    [59371,"2017-02-12T14:00:00","ND","ND","ND","ND","40.2","1.9","ND","ND","ND","ND","ND","0"],
    [59372,"2017-02-12T15:00:00","ND","ND","ND","ND","38.7","1.8","ND","ND","ND","ND","ND","0"],
    [59373,"2017-02-12T16:00:00","2.6","ND","ND","ND","38.6","2.2","ND","ND","ND","ND","ND","0"],
    [59374,"2017-02-12T17:00:00","ND","ND","ND","ND","15.1","2.1","ND","ND","ND","ND","ND","0"],
    [59375,"2017-02-12T18:00:00","ND","ND","ND","ND","12.2","2.1","ND","ND","ND","ND","ND","0"],
    [59376,"2017-02-12T19:00:00","ND","ND","ND","ND","10.3","2.2","ND","ND","ND","ND","ND","0"],
    [59377,"2017-02-12T20:00:00","ND","ND","ND","ND","5.4","2.7","ND","ND","ND","ND","ND","0"],
    [59378,"2017-02-12T21:00:00","12.7","ND","ND","ND","2.6","3.1","ND","ND","ND","ND","ND","0"],
    [59379,"2017-02-12T22:00:00","24.3","ND","ND","ND","4.7","3.1","ND","ND","ND","ND","ND","0"],
    [59380,"2017-02-12T23:00:00","21.1","ND","ND","ND","2.5","4.0","ND","ND","ND","ND","ND","0"],
    [59381,"2017-02-13T00:00:00","20","ND","ND","ND","3.0","4.0","ND","ND","ND","ND","ND","0"],
    [59382,"2017-02-13T01:00:00","9.6","ND","ND","ND","3.1","5.6","ND","ND","ND","ND","ND","0"],
    [59383,"2017-02-13T02:00:00","14.5","ND","ND","ND","2.9","4.5","ND","ND","ND","ND","ND","0"],
    [59384,"2017-02-13T03:00:00","22.3","ND","ND","ND","2.0","5.4","ND","ND","ND","ND","ND","0"],
    [59385,"2017-02-13T04:00:00","21.6","ND","ND","ND","2.3","4.7","ND","ND","ND","ND","ND","0"],
    [59386,"2017-02-13T05:00:00","12.4","ND","ND","ND","2.0","3.8","ND","ND","ND","ND","ND","0"],
    [59387,"2017-02-13T06:00:00","14","ND","ND","ND","2.2","4.0","ND","ND","ND","ND","ND","0"],
    [59388,"2017-02-13T07:00:00","19.3","ND","ND","ND","2.4","3.7","ND","ND","ND","ND","ND","0"],
    [59389,"2017-02-13T08:00:00","36.5","ND","ND","ND","2.9","3.4","ND","ND","ND","ND","ND","0"],
    [59390,"2017-02-13T09:00:00","15.4","ND","ND","ND","6.2","2.9","ND","ND","ND","ND","ND","0"],
    [59391,"2017-02-13T10:00:00","6.9","ND","ND","ND","20.4","3.0","ND","ND","ND","ND","ND","0"],
    [59392,"2017-02-13T11:00:00","11.2","ND","ND","ND","31.7","2.4","ND","ND","ND","ND","ND","0"],
    [59393,"2017-02-13T12:00:00","9.7","ND","ND","ND","36.5","2.2","ND","ND","ND","ND","ND","0"],
    [59394,"2017-02-13T13:00:00","17.4","ND","ND","ND","50.1","1.8","ND","ND","ND","ND","ND","0"],
    [59395,"2017-02-13T14:00:00","10.6","ND","ND","ND","55.2","1.6","ND","ND","ND","ND","ND","0"],
    [59396,"2017-02-13T15:00:00","13.8","ND","ND","ND","18.3","2.0","ND","ND","ND","ND","ND","0"],
    [59397,"2017-02-13T16:00:00","32.6","ND","ND","ND","4.7","2.4","ND","ND","ND","ND","ND","0"],
    [59398,"2017-02-13T17:00:00","12.9","ND","ND","ND","8.0","1.9","ND","ND","ND","ND","ND","0"],
    [59399,"2017-02-13T18:00:00","ND","ND","ND","ND","7.9","2.1","ND","ND","ND","ND","ND","0"],
    [59400,"2017-02-13T19:00:00","ND","ND","ND","ND","3.0","2.8","ND","ND","ND","ND","ND","0"],
    [59401,"2017-02-13T20:00:00","12","ND","ND","ND","2.9","3.0","ND","ND","ND","ND","ND","0"],
    [59402,"2017-02-13T21:00:00","31.2","ND","ND","ND","2.7","2.8","ND","ND","ND","ND","ND","0"],
    [59403,"2017-02-13T22:00:00","19.1","ND","ND","ND","2.6","3.5","ND","ND","ND","ND","ND","0"],
    [59404,"2017-02-13T23:00:00","13.1","ND","ND","ND","2.5","3.1","ND","ND","ND","ND","ND","0"],
    [59405,"2017-02-14T00:00:00","15.9","ND","ND","ND","2.4","4.1","ND","ND","ND","ND","ND","0"],
    [59406,"2017-02-14T01:00:00","26.1","ND","ND","ND","2.3","4.5","ND","ND","ND","ND","ND","0"],
    [59407,"2017-02-14T02:00:00","26.8","ND","ND","ND","2.4","5.4","ND","ND","ND","ND","ND","0"],
    [59408,"2017-02-14T03:00:00","30.9","ND","ND","ND","2.3","5.4","ND","ND","ND","ND","ND","0"],
    [59409,"2017-02-14T04:00:00","29.4","ND","ND","ND","2.2","4.1","ND","ND","ND","ND","ND","0"],
    [59410,"2017-02-14T05:00:00","17.6","ND","ND","ND","2.0","3.4","ND","ND","ND","ND","ND","0"],
    [59411,"2017-02-14T06:00:00","9.1","ND","ND","ND","2.2","3.0","ND","ND","ND","ND","ND","0"],
    [59412,"2017-02-14T07:00:00","25.2","ND","ND","ND","2.4","4.5","ND","ND","ND","ND","ND","0"],
    [59413,"2017-02-14T08:00:00","42.7","ND","ND","ND","2.8","5.7","ND","ND","ND","ND","ND","0"],
    [59414,"2017-02-14T09:00:00","26.9","ND","ND","ND","8.0","3.8","ND","ND","ND","ND","ND","0"],
    [59415,"2017-02-14T10:00:00","21.7","ND","ND","ND","19.9","3.3","ND","ND","ND","ND","ND","0"],
    [59416,"2017-02-14T11:00:00","10.5","ND","ND","ND","26.6","3.0","ND","ND","ND","ND","ND","0"],
    [59417,"2017-02-14T12:00:00","10.4","ND","ND","ND","35.0","2.1","ND","ND","ND","ND","ND","0"],
    [59418,"2017-02-14T13:00:00","11.9","ND","ND","ND","42.2","2.3","ND","ND","ND","ND","ND","0"],
    [59419,"2017-02-14T14:00:00","4.3","ND","ND","ND","37.4","2.7","ND","ND","ND","ND","ND","0"],
    [59420,"2017-02-14T15:00:00","14.9","ND","ND","ND","45.0","2.2","ND","ND","ND","ND","ND","0"],
    [59421,"2017-02-14T16:00:00","13.5","ND","ND","ND","43.8","1.8","ND","ND","ND","ND","ND","0"],
    [59422,"2017-02-14T17:00:00","10.7","ND","ND","ND","19.4","1.8","ND","ND","ND","ND","ND","0"],
    [59423,"2017-02-14T18:00:00","ND","ND","ND","ND","8.4","2.4","ND","ND","ND","ND","ND","0"],
    [59424,"2017-02-14T19:00:00","ND","ND","ND","ND","3.1","3.0","ND","ND","ND","ND","ND","0"],
    [59425,"2017-02-14T20:00:00","4.4","ND","ND","ND","2.8","3.7","ND","ND","ND","ND","ND","0"],
    [59426,"2017-02-14T21:00:00","16.4","ND","ND","ND","2.7","2.2","ND","ND","ND","ND","ND","0"],
    [59427,"2017-02-14T22:00:00","19.9","ND","ND","ND","3.2","4.8","ND","ND","ND","ND","ND","0"],
    [59428,"2017-02-14T23:00:00","39.2","ND","ND","ND","2.7","5.6","ND","ND","ND","ND","ND","0"],
    [59429,"2017-02-15T00:00:00","23.1","ND","ND","ND","2.3","3.7","ND","ND","ND","ND","ND","0"],
    [59430,"2017-02-15T01:00:00","20.3","ND","ND","ND","2.3","4.4","ND","ND","ND","ND","ND","0"],
    [59431,"2017-02-15T02:00:00","14.6","ND","ND","ND","2.4","8.6","ND","ND","ND","ND","ND","0"],
    [59432,"2017-02-15T03:00:00","14.2","ND","ND","ND","2.3","4.3","ND","ND","ND","ND","ND","0"],
    [59433,"2017-02-15T04:00:00","19.3","ND","ND","ND","2.2","3.9","ND","ND","ND","ND","ND","0"],
    [59434,"2017-02-15T05:00:00","19.8","ND","ND","ND","2.1","4.1","ND","ND","ND","ND","ND","0"],
    [59435,"2017-02-15T06:00:00","24.2","ND","ND","ND","2.1","3.8","ND","ND","ND","ND","ND","0"],
    [59436,"2017-02-15T07:00:00","44.5","ND","ND","ND","2.8","5.4","ND","ND","ND","ND","ND","0"],
    [59437,"2017-02-15T08:00:00","58.5","ND","ND","ND","2.9","5.5","ND","ND","ND","ND","ND","0"],
    [59438,"2017-02-15T09:00:00","42.1","ND","ND","ND","8.4","4.8","ND","ND","ND","ND","ND","0"],
    [59439,"2017-02-15T10:00:00","40.3","ND","ND","ND","21.2","3.6","ND","ND","ND","ND","ND","0"],
    [59440,"2017-02-15T11:00:00","20.7","ND","ND","ND","33.5","2.6","ND","ND","ND","ND","ND","0"],
    [59441,"2017-02-15T12:00:00","7.5","ND","ND","ND","44.9","2.2","ND","ND","ND","ND","ND","0"],
    [59442,"2017-02-15T13:00:00","13.4","ND","ND","ND","49.6","2.1","ND","ND","ND","ND","ND","0"],
    [59443,"2017-02-15T14:00:00","18.2","ND","ND","ND","47.5","2.1","ND","ND","ND","ND","ND","0"],
    [59444,"2017-02-15T15:00:00","22.9","ND","ND","ND","43.7","2.7","ND","ND","ND","ND","ND","0"],
    [59445,"2017-02-15T16:00:00","17.4","ND","ND","ND","29.9","1.8","ND","ND","ND","ND","ND","0"],
    [59446,"2017-02-15T17:00:00","18.3","ND","ND","ND","18.5","2.1","ND","ND","ND","ND","ND","0"],
    [59447,"2017-02-15T18:00:00","10.5","ND","ND","ND","17.4","2.3","ND","ND","ND","ND","ND","0"],
    [59448,"2017-02-15T19:00:00","ND","ND","ND","ND","9.1","2.5","ND","ND","ND","ND","ND","0"],
    [59449,"2017-02-15T20:00:00","ND","ND","ND","ND","6.3","2.2","ND","ND","ND","ND","ND","0"],
    [59450,"2017-02-15T21:00:00","21.8","ND","ND","ND","2.6","3.0","ND","ND","ND","ND","ND","0"],
    [59451,"2017-02-15T22:00:00","52.5","ND","ND","ND","2.8","4.9","ND","ND","ND","ND","ND","0"],
    [59452,"2017-02-15T23:00:00","43.5","ND","ND","ND","2.4","7.6","ND","ND","ND","ND","ND","0"],
    [59453,"2017-02-16T00:00:00","28","ND","ND","ND","2.5","4.8","ND","ND","ND","ND","ND","0"],
    [59454,"2017-02-16T01:00:00","15.5","ND","ND","ND","2.1","3.8","ND","ND","ND","ND","ND","0"],
    [59455,"2017-02-16T02:00:00","9.2","ND","ND","ND","2.3","2.4","ND","ND","ND","ND","ND","0"],
    [59456,"2017-02-16T03:00:00","14.9","ND","ND","ND","2.5","4.1","ND","ND","ND","ND","ND","0"],
    [59457,"2017-02-16T04:00:00","13.9","ND","ND","ND","2.1","3.5","ND","ND","ND","ND","ND","0"],
    [59458,"2017-02-16T05:00:00","8","ND","ND","ND","2.1","2.8","ND","ND","ND","ND","ND","0"],
    [59459,"2017-02-16T06:00:00","11.1","ND","ND","ND","2.1","2.6","ND","ND","ND","ND","ND","0"],
    [59460,"2017-02-16T07:00:00","30.3","ND","ND","ND","2.6","8.8","ND","ND","ND","ND","ND","0"],
    [59461,"2017-02-16T08:00:00","50","ND","ND","ND","3.2","7.7","ND","ND","ND","ND","ND","0"],
    [59462,"2017-02-16T09:00:00","42.6","ND","ND","ND","6.1","5.2","ND","ND","ND","ND","ND","0"],
    [59463,"2017-02-16T10:00:00","29","ND","ND","ND","17.7","3.8","ND","ND","ND","ND","ND","0"],
    [59464,"2017-02-16T11:00:00","21.8","ND","ND","ND","28.5","3.4","ND","ND","ND","ND","ND","0"],
    [59465,"2017-02-16T12:00:00","16.1","ND","ND","ND","44.4","1.9","ND","ND","ND","ND","ND","0"],
    [59466,"2017-02-16T13:00:00","18.3","ND","ND","ND","51.3","2.0","ND","ND","ND","ND","ND","0"],
    [59467,"2017-02-16T14:00:00","21.8","ND","ND","ND","47.7","2.2","ND","ND","ND","ND","ND","0"],
    [59468,"2017-02-16T15:00:00","20.9","ND","ND","ND","43.4","2.5","ND","ND","ND","ND","ND","0"],
    [59469,"2017-02-16T16:00:00","11.3","ND","ND","ND","11.3","2.3","ND","ND","ND","ND","ND","0"],
    [59470,"2017-02-16T17:00:00","2.1","ND","ND","ND","8.7","2.1","ND","ND","ND","ND","ND","0"],
    [59471,"2017-02-16T18:00:00","ND","ND","ND","ND","7.6","2.4","ND","ND","ND","ND","ND","0"],
    [59472,"2017-02-16T19:00:00","ND","ND","ND","ND","9.1","2.2","ND","ND","ND","ND","ND","0"],
    [59473,"2017-02-16T20:00:00","1.5","ND","ND","ND","3.9","2.8","ND","ND","ND","ND","ND","0"],
    [59474,"2017-02-16T21:00:00","16.9","ND","ND","ND","2.7","4.1","ND","ND","ND","ND","ND","0"],
    [59475,"2017-02-16T22:00:00","31.7","ND","ND","ND","2.7","4.1","ND","ND","ND","ND","ND","0"],
    [59476,"2017-02-16T23:00:00","18.5","ND","ND","ND","3.0","3.1","ND","ND","ND","ND","ND","0"],
    [59477,"2017-02-17T00:00:00","14.7","ND","ND","ND","3.3","3.3","ND","ND","ND","ND","ND","0"],
    [59478,"2017-02-17T01:00:00","19.4","ND","ND","ND","2.2","5.3","ND","ND","ND","ND","ND","0"],
    [59479,"2017-02-17T02:00:00","19.7","ND","ND","ND","2.7","4.5","ND","ND","ND","ND","ND","0"],
    [59480,"2017-02-17T03:00:00","21.4","ND","ND","ND","2.4","7.6","ND","ND","ND","ND","ND","0"],
    [59481,"2017-02-17T04:00:00","20.7","ND","ND","ND","2.4","5.0","ND","ND","ND","ND","ND","0"],
    [59482,"2017-02-17T05:00:00","16.6","ND","ND","ND","2.2","4.1","ND","ND","ND","ND","ND","0"],
    [59483,"2017-02-17T06:00:00","14","ND","ND","ND","2.2","4.0","ND","ND","ND","ND","ND","0"],
    [59484,"2017-02-17T07:00:00","21","ND","ND","ND","2.3","3.3","ND","ND","ND","ND","ND","0"],
    [59485,"2017-02-17T08:00:00","37.6","ND","ND","ND","2.7","4.0","ND","ND","ND","ND","ND","0"],
    [59486,"2017-02-17T09:00:00","34.7","ND","ND","ND","6.3","3.5","ND","ND","ND","ND","ND","0"],
    [59487,"2017-02-17T10:00:00","38.6","ND","ND","ND","19.6","3.1","ND","ND","ND","ND","ND","0"],
    [59488,"2017-02-17T11:00:00","18.8","ND","ND","ND","29.5","2.6","ND","ND","ND","ND","ND","0"],
    [59489,"2017-02-17T12:00:00","9.5","ND","ND","ND","33.4","2.1","ND","ND","ND","ND","ND","0"],
    [59490,"2017-02-17T13:00:00","9.9","ND","ND","ND","38.2","2.2","ND","ND","ND","ND","ND","0"],
    [59491,"2017-02-17T14:00:00","15.5","ND","ND","ND","36.8","1.9","ND","ND","ND","ND","ND","0"],
    [59492,"2017-02-17T15:00:00","25","ND","ND","ND","19.0","1.9","ND","ND","ND","ND","ND","0"],
    [59493,"2017-02-17T16:00:00","7.9","ND","ND","ND","7.4","2.2","ND","ND","ND","ND","ND","0"],
    [59494,"2017-02-17T17:00:00","ND","ND","ND","ND","7.7","2.4","ND","ND","ND","ND","ND","0"],
    [59495,"2017-02-17T18:00:00","ND","ND","ND","ND","6.1","2.4","ND","ND","ND","ND","ND","0"],
    [59496,"2017-02-17T19:00:00","ND","ND","ND","ND","4.1","2.2","ND","ND","ND","ND","ND","0"],
    [59497,"2017-02-17T20:00:00","15.3","ND","ND","ND","2.7","4.7","ND","ND","ND","ND","ND","0"],
    [59498,"2017-02-17T21:00:00","35.5","ND","ND","ND","2.9","3.5","ND","ND","ND","ND","ND","0"],
    [59499,"2017-02-17T22:00:00","30.4","ND","ND","ND","3.0","5.0","ND","ND","ND","ND","ND","0"],
    [59500,"2017-02-17T23:00:00","40.1","ND","ND","ND","2.5","5.6","ND","ND","ND","ND","ND","0"],
    [59501,"2017-02-18T00:00:00","32.5","ND","ND","ND","2.7","6.0","ND","ND","ND","ND","ND","0"],
    [59502,"2017-02-18T01:00:00","38.4","ND","ND","ND","2.6","4.1","ND","ND","ND","ND","ND","0"],
    [59503,"2017-02-18T02:00:00","39.6","ND","ND","ND","2.2","8.2","ND","ND","ND","ND","ND","0"],
    [59504,"2017-02-18T03:00:00","27.3","ND","ND","ND","2.1","9.6","ND","ND","ND","ND","ND","0"],
    [59505,"2017-02-18T04:00:00","22.6","ND","ND","ND","2.2","5.7","ND","ND","ND","ND","ND","0"],
    [59506,"2017-02-18T05:00:00","31.5","ND","ND","ND","2.4","12.6","ND","ND","ND","ND","ND","0"],
    [59507,"2017-02-18T06:00:00","34.9","ND","ND","ND","2.4","ND","ND","ND","ND","ND","ND","0"],
    [59508,"2017-02-18T07:00:00","32","ND","ND","ND","3.1","ND","ND","ND","ND","ND","ND","0"],
    [59509,"2017-02-18T08:00:00","42.2","ND","ND","ND","2.7","13.5","ND","ND","ND","ND","ND","0"],
    [59510,"2017-02-18T09:00:00","35","ND","ND","ND","5.7","5.5","ND","ND","ND","ND","ND","0"],
    [59511,"2017-02-18T10:00:00","30.5","ND","ND","ND","14.5","3.6","ND","ND","ND","ND","ND","0"],
    [59512,"2017-02-18T11:00:00","18.7","ND","ND","ND","27.5","2.9","ND","ND","ND","ND","ND","0"],
    [59513,"2017-02-18T12:00:00","7.8","ND","ND","ND","36.2","2.6","ND","ND","ND","ND","ND","0"],
    [59514,"2017-02-18T13:00:00","12.4","ND","ND","ND","37.4","2.4","ND","ND","ND","ND","ND","0"],
    [59515,"2017-02-18T14:00:00","13.6","ND","ND","ND","43.5","2.0","ND","ND","ND","ND","ND","0"],
    [59516,"2017-02-18T15:00:00","16.8","ND","ND","ND","40.0","2.2","ND","ND","ND","ND","ND","0"],
    [59517,"2017-02-18T16:00:00","16","ND","ND","ND","14.5","2.2","ND","ND","ND","ND","ND","0"],
    [59518,"2017-02-18T17:00:00","10.8","ND","ND","ND","14.5","1.8","ND","ND","ND","ND","ND","0"],
    [59519,"2017-02-18T18:00:00","4.5","ND","ND","ND","15.8","2.1","ND","ND","ND","ND","ND","0"],
    [59520,"2017-02-18T19:00:00","ND","ND","ND","ND","13.3","2.3","ND","ND","ND","ND","ND","0"],
    [59521,"2017-02-18T20:00:00","5.5","ND","ND","ND","4.6","3.2","ND","ND","ND","ND","ND","0"],
    [59522,"2017-02-18T21:00:00","25.7","ND","ND","ND","3.1","3.7","ND","ND","ND","ND","ND","0"],
    [59523,"2017-02-18T22:00:00","36","ND","ND","ND","2.8","5.2","ND","ND","ND","ND","ND","0"],
    [59524,"2017-02-18T23:00:00","35.9","ND","ND","ND","2.6","6.3","ND","ND","ND","ND","ND","0"],
    [59525,"2017-02-19T00:00:00","21.6","ND","ND","ND","2.5","3.7","ND","ND","ND","ND","ND","0"],
    [59526,"2017-02-19T01:00:00","15.9","ND","ND","ND","2.7","4.8","ND","ND","ND","ND","ND","0"],
    [59527,"2017-02-19T02:00:00","17.5","ND","ND","ND","2.6","5.8","ND","ND","ND","ND","ND","0"],
    [59528,"2017-02-19T03:00:00","21.5","ND","ND","ND","2.5","5.6","ND","ND","ND","ND","ND","0"],
    [59529,"2017-02-19T04:00:00","17","ND","ND","ND","2.4","14.3","ND","ND","ND","ND","ND","0"],
    [59530,"2017-02-19T05:00:00","20.4","ND","ND","ND","2.6","7.2","ND","ND","ND","ND","ND","0"],
    [59531,"2017-02-19T06:00:00","21.8","ND","ND","ND","2.5","7.6","ND","ND","ND","ND","ND","0"],
    [59532,"2017-02-19T07:00:00","21.8","ND","ND","ND","2.4","5.7","ND","ND","ND","ND","ND","0"],
    [59533,"2017-02-19T08:00:00","29.7","ND","ND","ND","2.9","8.4","ND","ND","ND","ND","ND","0"],
    [59534,"2017-02-19T09:00:00","28.1","ND","ND","ND","4.0","5.7","ND","ND","ND","ND","ND","0"],
    [59535,"2017-02-19T10:00:00","28.3","ND","ND","ND","10.4","4.5","ND","ND","ND","ND","ND","0"],
    [59536,"2017-02-19T11:00:00","19.5","ND","ND","ND","22.1","2.5","ND","ND","ND","ND","ND","0"],
    [59537,"2017-02-19T12:00:00","8.6","ND","ND","ND","28.3","2.2","ND","ND","ND","ND","ND","0"],
    [59538,"2017-02-19T13:00:00","6.3","ND","ND","ND","34.8","2.2","ND","ND","ND","ND","ND","0"],
    [59539,"2017-02-19T14:00:00","12.5","ND","ND","ND","40.0","1.9","ND","ND","ND","ND","ND","0"],
    [59540,"2017-02-19T15:00:00","8","ND","ND","ND","16.2","2.0","ND","ND","ND","ND","ND","0"],
    [59541,"2017-02-19T16:00:00","5.4","ND","ND","ND","13.1","2.6","ND","ND","ND","ND","ND","0"],
    [59542,"2017-02-19T17:00:00","6.3","ND","ND","ND","13.6","2.6","ND","ND","ND","ND","ND","0"],
    [59543,"2017-02-19T18:00:00","5.7","ND","ND","ND","13.9","2.5","ND","ND","ND","ND","ND","0"],
    [59544,"2017-02-19T19:00:00","ND","ND","ND","ND","12.5","2.5","ND","ND","ND","ND","ND","0"],
    [59545,"2017-02-19T20:00:00","5.3","ND","ND","ND","9.5","2.5","ND","ND","ND","ND","ND","0"],
    [59546,"2017-02-19T21:00:00","18.1","ND","ND","ND","6.7","2.5","ND","ND","ND","ND","ND","0"],
    [59547,"2017-02-19T22:00:00","29","ND","ND","ND","3.2","5.8","ND","ND","ND","ND","ND","0"],
    [59548,"2017-02-19T23:00:00","31.3","ND","ND","ND","2.6","4.5","ND","ND","ND","ND","ND","0"],
    [59549,"2017-02-20T00:00:00","20.2","ND","ND","ND","2.6","3.9","ND","ND","ND","ND","ND","0"],
    [59550,"2017-02-20T01:00:00","20.2","ND","ND","ND","2.6","5.7","ND","ND","ND","ND","ND","0"],
    [59551,"2017-02-20T02:00:00","25.7","ND","ND","ND","2.9","4.3","ND","ND","ND","ND","ND","0"],
    [59552,"2017-02-20T03:00:00","19.7","ND","ND","ND","3.2","4.2","ND","ND","ND","ND","ND","0"],
    [59553,"2017-02-20T04:00:00","25.7","ND","ND","ND","2.7","10.6","ND","ND","ND","ND","ND","0"],
    [59554,"2017-02-20T05:00:00","27.8","ND","ND","ND","2.4","11.7","ND","ND","ND","ND","ND","0"],
    [59555,"2017-02-20T06:00:00","24","ND","ND","ND","2.6","10.8","ND","ND","ND","ND","ND","0"],
    [59556,"2017-02-20T07:00:00","28.6","ND","ND","ND","2.3","7.5","ND","ND","ND","ND","ND","0"],
    [59557,"2017-02-20T08:00:00","27.4","ND","ND","ND","2.3","7.5","ND","ND","ND","ND","ND","0"],
    [59558,"2017-02-20T09:00:00","23.9","ND","ND","ND","2.9","6.7","ND","ND","ND","ND","ND","0"],
    [59559,"2017-02-20T10:00:00","17.8","ND","ND","ND","7.8","5.2","ND","ND","ND","ND","ND","0"],
    [59560,"2017-02-20T11:00:00","15","ND","ND","ND","22.3","3.6","ND","ND","ND","ND","ND","0"],
    [59561,"2017-02-20T12:00:00","11.1","ND","ND","ND","34.5","2.7","ND","ND","ND","ND","ND","0"],
    [59562,"2017-02-20T13:00:00","13.3","ND","ND","ND","47.2","2.2","ND","ND","ND","ND","ND","0"],
    [59563,"2017-02-20T14:00:00","14.7","ND","ND","ND","43.2","2.9","ND","ND","ND","ND","ND","0"],
    [59564,"2017-02-20T15:00:00","12.3","ND","ND","ND","34.1","2.6","ND","ND","ND","ND","ND","0"],
    [59565,"2017-02-20T16:00:00","13.2","ND","ND","ND","21.5","2.9","ND","ND","ND","ND","ND","0"],
    [59566,"2017-02-20T17:00:00","24.3","ND","ND","ND","6.7","2.5","ND","ND","ND","ND","ND","0"],
    [59567,"2017-02-20T18:00:00","21.9","ND","ND","ND","4.7","1.9","ND","ND","ND","ND","ND","0"],
    [59568,"2017-02-20T19:00:00","10.5","ND","ND","ND","2.9","2.4","ND","ND","ND","ND","ND","0"],
    [59569,"2017-02-20T20:00:00","14.5","ND","ND","ND","2.8","4.9","ND","ND","ND","ND","ND","0"],
    [59570,"2017-02-20T21:00:00","24.9","ND","ND","ND","2.9","4.0","ND","ND","ND","ND","ND","0"],
    [59571,"2017-02-20T22:00:00","19.2","ND","ND","ND","2.5","3.1","ND","ND","ND","ND","ND","0"],
    [59572,"2017-02-20T23:00:00","19.8","ND","ND","ND","2.5","4.7","ND","ND","ND","ND","ND","0"],
    [59573,"2017-02-21T00:00:00","26.4","ND","ND","ND","2.5","4.3","ND","ND","ND","ND","ND","0"],
    [59574,"2017-02-21T01:00:00","24.9","ND","ND","ND","2.4","5.7","ND","ND","ND","ND","ND","0"],
    [59575,"2017-02-21T02:00:00","25","ND","ND","ND","2.3","6.0","ND","ND","ND","ND","ND","0"],
    [59576,"2017-02-21T03:00:00","19.5","ND","ND","ND","2.3","6.3","ND","ND","ND","ND","ND","0"],
    [59577,"2017-02-21T04:00:00","15.2","ND","ND","ND","2.4","5.4","ND","ND","ND","ND","ND","0"],
    [59578,"2017-02-21T05:00:00","25.7","ND","ND","ND","2.3","5.8","ND","ND","ND","ND","ND","0"],
    [59579,"2017-02-21T06:00:00","19.9","ND","ND","ND","2.5","6.0","ND","ND","ND","ND","ND","0"],
    [59580,"2017-02-21T07:00:00","25","ND","ND","ND","2.6","6.1","ND","ND","ND","ND","ND","0"],
    [59581,"2017-02-21T08:00:00","36.2","ND","ND","ND","2.6","5.5","ND","ND","ND","ND","ND","0"],
    [59582,"2017-02-21T09:00:00","43.6","ND","ND","ND","3.7","5.2","ND","ND","ND","ND","ND","0"],
    [59583,"2017-02-21T10:00:00","30.4","ND","ND","ND","7.1","3.9","ND","ND","ND","ND","ND","0"],
    [59584,"2017-02-21T11:00:00","18.5","ND","ND","ND","16.6","3.3","ND","ND","ND","ND","ND","0"],
    [59585,"2017-02-21T12:00:00","6.6","ND","ND","ND","25.1","3.1","ND","ND","ND","ND","ND","0"],
    [59586,"2017-02-21T13:00:00","5.2","ND","ND","ND","28.5","1.9","ND","ND","ND","ND","ND","0"],
    [59587,"2017-02-21T14:00:00","6.8","ND","ND","ND","30.7","1.7","ND","ND","ND","ND","ND","0"],
    [59588,"2017-02-21T15:00:00","2.3","ND","ND","ND","ND","2.1","ND","ND","ND","ND","ND","0"],
    [59589,"2017-02-21T16:00:00","ND","ND","ND","ND","ND","2.4","ND","ND","ND","ND","ND","0"],
    [59590,"2017-02-21T17:00:00","1.4","ND","ND","ND","ND","2.6","ND","ND","ND","ND","ND","0"],
    [59591,"2017-02-21T18:00:00","3.3","ND","ND","ND","ND","2.5","ND","ND","ND","ND","ND","0"],
    [59592,"2017-02-21T19:00:00","ND","ND","ND","ND","ND","2.8","ND","ND","ND","ND","ND","0"],
    [59593,"2017-02-21T20:00:00","ND","ND","ND","ND","ND","3.1","ND","ND","ND","ND","ND","0"],
    [59594,"2017-02-21T21:00:00","ND","ND","ND","ND","ND","2.7","ND","ND","ND","ND","ND","0"],
    [59595,"2017-02-21T22:00:00","ND","ND","ND","ND","ND","3.0","ND","ND","ND","ND","ND","0"],
    [59596,"2017-02-21T23:00:00","39.1","ND","ND","ND","ND","3.0","ND","ND","ND","ND","ND","0"],
    [59597,"2017-02-22T00:00:00","66.1","ND","ND","ND","ND","4.1","ND","ND","ND","ND","ND","0"],
    [59598,"2017-02-22T01:00:00","44.9","ND","ND","ND","ND","3.2","ND","ND","ND","ND","ND","0"],
    [59599,"2017-02-22T02:00:00","30.5","ND","ND","ND","ND","4.3","ND","ND","ND","ND","ND","0"],
    [59600,"2017-02-22T03:00:00","29.4","ND","ND","ND","ND","4.7","ND","ND","ND","ND","ND","0"],
    [59601,"2017-02-22T04:00:00","26.9","ND","ND","ND","ND","3.5","ND","ND","ND","ND","ND","0"],
    [59602,"2017-02-22T05:00:00","12.2","ND","ND","ND","ND","3.1","ND","ND","ND","ND","ND","0"],
    [59603,"2017-02-22T06:00:00","23","ND","ND","ND","ND","3.0","ND","ND","ND","ND","ND","0"],
    [59604,"2017-02-22T07:00:00","24.6","ND","ND","ND","ND","2.7","ND","ND","ND","ND","ND","0"],
    [59605,"2017-02-22T08:00:00","40.7","ND","ND","ND","ND","3.9","ND","ND","ND","ND","ND","0"],
    [59606,"2017-02-22T09:00:00","42.7","ND","ND","ND","ND","3.0","ND","ND","ND","ND","ND","0"],
    [59607,"2017-02-22T10:00:00","15.7","ND","ND","ND","ND","2.4","ND","ND","ND","ND","ND","0"],
    [59608,"2017-02-22T11:00:00","11.6","ND","ND","ND","ND","2.5","ND","ND","ND","ND","ND","0"],
    [59609,"2017-02-22T12:00:00","29.7","ND","ND","ND","ND","3.3","ND","ND","ND","ND","ND","0"],
    [59610,"2017-02-22T13:00:00","34","ND","ND","ND","ND","2.6","ND","ND","ND","ND","ND","0"],
    [59611,"2017-02-22T14:00:00","13.6","ND","ND","ND","ND","3.3","ND","ND","ND","ND","ND","0"],
    [59612,"2017-02-22T15:00:00","3.2","ND","ND","ND","ND","3.2","ND","ND","ND","ND","ND","0"],
    [59613,"2017-02-22T16:00:00","3.9","ND","ND","ND","ND","2.9","ND","ND","ND","ND","ND","0"],
    [59614,"2017-02-22T17:00:00","13.7","ND","ND","ND","ND","4.1","ND","ND","ND","ND","ND","0"],
    [59615,"2017-02-22T18:00:00","3.5","ND","ND","ND","ND","8.3","ND","ND","ND","ND","ND","0"],
    [59616,"2017-02-22T19:00:00","21.9","ND","ND","ND","ND","4.0","ND","ND","ND","ND","ND","0"],
    [59617,"2017-02-22T20:00:00","27.8","ND","ND","ND","ND","4.4","ND","ND","ND","ND","ND","0"],
    [59618,"2017-02-22T21:00:00","24.1","ND","ND","ND","ND","2.7","ND","ND","ND","ND","ND","0"],
    [59619,"2017-02-22T22:00:00","23","ND","ND","ND","ND","3.3","ND","ND","ND","ND","ND","0"],
    [59620,"2017-02-22T23:00:00","12.1","ND","ND","ND","ND","3.7","ND","ND","ND","ND","ND","0"],
    [59621,"2017-02-23T00:00:00","7.3","ND","ND","ND","ND","5.1","ND","ND","ND","ND","ND","0"],
    [59622,"2017-02-23T01:00:00","17.1","ND","ND","ND","ND","8.1","ND","ND","ND","ND","ND","0"],
    [59623,"2017-02-23T02:00:00","23.6","ND","ND","ND","ND","4.8","ND","ND","ND","ND","ND","0"],
    [59624,"2017-02-23T03:00:00","22.7","ND","ND","ND","ND","4.6","ND","ND","ND","ND","ND","0"],
    [59625,"2017-02-23T04:00:00","20.8","ND","ND","ND","ND","4.2","ND","ND","ND","ND","ND","0"],
    [59626,"2017-02-23T05:00:00","13.1","ND","ND","ND","ND","4.0","ND","ND","ND","ND","ND","0"],
    [59627,"2017-02-23T06:00:00","15.6","ND","ND","ND","ND","10.1","ND","ND","ND","ND","ND","0"],
    [59628,"2017-02-23T07:00:00","25.3","ND","ND","ND","ND","18.6","ND","ND","ND","ND","ND","0"],
    [59629,"2017-02-23T08:00:00","60.3","ND","ND","ND","ND","13.4","ND","ND","ND","ND","ND","0"],
    [59630,"2017-02-23T09:00:00","64.3","ND","ND","ND","ND","9.4","ND","ND","ND","ND","ND","0"],
    [59631,"2017-02-23T10:00:00","50.5","ND","ND","ND","ND","6.3","ND","ND","ND","ND","ND","0"],
    [59632,"2017-02-23T11:00:00","37.5","ND","ND","ND","ND","3.8","ND","ND","ND","ND","ND","0"],
    [59633,"2017-02-23T12:00:00","7.9","ND","ND","ND","ND","3.1","ND","ND","ND","ND","ND","0"],
    [59634,"2017-02-23T13:00:00","10.4","ND","ND","ND","ND","2.7","ND","ND","ND","ND","ND","0"],
    [59635,"2017-02-23T14:00:00","10.5","ND","ND","ND","ND","2.3","ND","ND","ND","ND","ND","0"],
    [59636,"2017-02-23T15:00:00","21.9","ND","ND","ND","ND","2.4","ND","ND","ND","ND","ND","0"],
    [59637,"2017-02-23T16:00:00","22.8","ND","ND","ND","ND","2.6","ND","ND","ND","ND","ND","0"],
    [59638,"2017-02-23T17:00:00","8.4","ND","ND","ND","ND","2.6","ND","ND","ND","ND","ND","0"],
    [59639,"2017-02-23T18:00:00","1.5","ND","ND","ND","ND","2.3","ND","ND","ND","ND","ND","0"],
    [59640,"2017-02-23T19:00:00","ND","ND","ND","ND","ND","2.3","ND","ND","ND","ND","ND","0"],
    [59641,"2017-02-23T20:00:00","5.5","ND","ND","ND","ND","2.7","ND","ND","ND","ND","ND","0"],
    [59642,"2017-02-23T21:00:00","27.1","ND","ND","ND","ND","2.9","ND","ND","ND","ND","ND","0"],
    [59643,"2017-02-23T22:00:00","25.2","ND","ND","ND","ND","4.6","ND","ND","ND","ND","ND","0"],
    [59644,"2017-02-23T23:00:00","24.2","ND","ND","ND","ND","4.2","ND","ND","ND","ND","ND","0"],
    [59645,"2017-02-24T00:00:00","44.1","ND","ND","ND","ND","3.8","ND","ND","ND","ND","ND","0"],
    [59646,"2017-02-24T01:00:00","37.5","ND","ND","ND","ND","3.8","ND","ND","ND","ND","ND","0"],
    [59647,"2017-02-24T02:00:00","23.9","ND","ND","ND","ND","3.3","ND","ND","ND","ND","ND","0"],
    [59648,"2017-02-24T03:00:00","13.4","ND","ND","ND","ND","3.1","ND","ND","ND","ND","ND","0"],
    [59649,"2017-02-24T04:00:00","18.1","ND","ND","ND","ND","3.2","ND","ND","ND","ND","ND","0"],
    [59650,"2017-02-24T05:00:00","25","ND","ND","ND","ND","4.1","ND","ND","ND","ND","ND","0"],
    [59651,"2017-02-24T06:00:00","23.1","ND","ND","ND","ND","3.3","ND","ND","ND","ND","ND","0"],
    [59652,"2017-02-24T07:00:00","35","ND","ND","ND","ND","6.1","ND","ND","ND","ND","ND","0"],
    [59653,"2017-02-24T08:00:00","45.8","ND","ND","ND","ND","4.9","ND","ND","ND","ND","ND","0"],
    [59654,"2017-02-24T09:00:00","51.9","ND","ND","ND","ND","4.7","ND","ND","ND","ND","ND","0"],
    [59655,"2017-02-24T10:00:00","30","ND","ND","ND","ND","4.5","ND","ND","ND","ND","ND","0"],
    [59656,"2017-02-24T11:00:00","16.3","ND","ND","ND","ND","3.1","ND","ND","ND","ND","ND","0"],
    [59657,"2017-02-24T12:00:00","22.7","ND","ND","ND","ND","2.5","ND","ND","ND","ND","ND","0"],
    [59658,"2017-02-24T13:00:00","18.8","ND","ND","ND","ND","3.0","ND","ND","ND","ND","ND","0"],
    [59659,"2017-02-24T14:00:00","15.9","ND","ND","ND","ND","2.1","ND","ND","ND","ND","ND","0"],
    [59660,"2017-02-24T15:00:00","16.2","ND","ND","ND","ND","3.1","ND","ND","ND","ND","ND","0"],
    [59661,"2017-02-24T16:00:00","26.7","ND","ND","ND","ND","2.0","ND","ND","ND","ND","ND","0"],
    [59662,"2017-02-24T17:00:00","33.4","ND","ND","ND","ND","2.4","ND","ND","ND","ND","ND","0"],
    [59663,"2017-02-24T18:00:00","5.4","ND","ND","ND","ND","2.1","ND","ND","ND","ND","ND","0"],
    [59664,"2017-02-24T19:00:00","ND","ND","ND","ND","ND","2.5","ND","ND","ND","ND","ND","0"],
    [59665,"2017-02-24T20:00:00","3.6","ND","ND","ND","ND","2.6","ND","ND","ND","ND","ND","0"],
    [59666,"2017-02-24T21:00:00","20.2","ND","ND","ND","ND","3.1","ND","ND","ND","ND","ND","0"],
    [59667,"2017-02-24T22:00:00","33.7","ND","ND","ND","ND","4.0","ND","ND","ND","ND","ND","0"],
    [59668,"2017-02-24T23:00:00","36.2","ND","ND","ND","ND","4.8","ND","ND","ND","ND","ND","0"],
    [59669,"2017-02-25T00:00:00","28.5","ND","ND","ND","ND","4.5","ND","ND","ND","ND","ND","0"],
    [59670,"2017-02-25T01:00:00","32.6","ND","ND","ND","ND","4.5","ND","ND","ND","ND","ND","0"],
    [59671,"2017-02-25T02:00:00","21.6","ND","ND","ND","ND","4.3","ND","ND","ND","ND","ND","0"],
    [59672,"2017-02-25T03:00:00","19.4","ND","ND","ND","ND","4.3","ND","ND","ND","ND","ND","0"],
    [59673,"2017-02-25T04:00:00","20.5","ND","ND","ND","ND","5.8","ND","ND","ND","ND","ND","0"],
    [59674,"2017-02-25T05:00:00","24.6","ND","ND","ND","ND","4.1","ND","ND","ND","ND","ND","0"],
    [59675,"2017-02-25T06:00:00","21.4","ND","ND","ND","ND","7.1","ND","ND","ND","ND","ND","0"],
    [59676,"2017-02-25T07:00:00","28.4","ND","ND","ND","ND","5.6","ND","ND","ND","ND","ND","0"],
    [59677,"2017-02-25T08:00:00","29.8","ND","ND","ND","ND","4.6","ND","ND","ND","ND","ND","0"],
    [59678,"2017-02-25T09:00:00","30.3","ND","ND","ND","ND","4.1","ND","ND","ND","ND","ND","0"],
    [59679,"2017-02-25T10:00:00","16.5","ND","ND","ND","ND","3.4","ND","ND","ND","ND","ND","0"],
    [59680,"2017-02-25T11:00:00","14.9","ND","ND","ND","ND","3.1","ND","ND","ND","ND","ND","0"],
    [59681,"2017-02-25T12:00:00","23.1","ND","ND","ND","ND","2.6","ND","ND","ND","ND","ND","0"],
    [59682,"2017-02-25T13:00:00","22","ND","ND","ND","ND","2.8","ND","ND","ND","ND","ND","0"],
    [59683,"2017-02-25T14:00:00","15.4","ND","ND","ND","ND","2.0","ND","ND","ND","ND","ND","0"],
    [59684,"2017-02-25T15:00:00","11.4","ND","ND","ND","ND","2.6","ND","ND","ND","ND","ND","0"],
    [59685,"2017-02-25T16:00:00","3.6","ND","ND","ND","ND","2.8","ND","ND","ND","ND","ND","0"],
    [59686,"2017-02-25T17:00:00","ND","ND","ND","ND","ND","2.5","ND","ND","ND","ND","ND","0"],
    [59687,"2017-02-25T18:00:00","9.4","ND","ND","ND","ND","2.9","ND","ND","ND","ND","ND","0"],
    [59688,"2017-02-25T19:00:00","37.4","ND","ND","ND","ND","2.2","ND","ND","ND","ND","ND","0"],
    [59689,"2017-02-25T20:00:00","26.7","ND","ND","ND","ND","2.4","ND","ND","ND","ND","ND","0"],
    [59690,"2017-02-25T21:00:00","16.1","ND","ND","ND","ND","2.3","ND","ND","ND","ND","ND","0"],
    [59691,"2017-02-25T22:00:00","14.9","ND","ND","ND","ND","4.9","ND","ND","ND","ND","ND","0"],
    [59692,"2017-02-25T23:00:00","10.2","ND","ND","ND","ND","3.5","ND","ND","ND","ND","ND","0"],
    [59693,"2017-02-26T00:00:00","8.7","ND","ND","ND","ND","5.7","ND","ND","ND","ND","ND","0"],
    [59694,"2017-02-26T01:00:00","17.3","ND","ND","ND","ND","8.7","ND","ND","ND","ND","ND","0"],
    [59695,"2017-02-26T02:00:00","13.3","ND","ND","ND","ND","6.6","ND","ND","ND","ND","ND","0"],
    [59696,"2017-02-26T03:00:00","15.5","ND","ND","ND","ND","5.7","ND","ND","ND","ND","ND","0"],
    [59697,"2017-02-26T04:00:00","22.4","ND","ND","ND","ND","7.0","ND","ND","ND","ND","ND","0"],
    [59698,"2017-02-26T05:00:00","27.3","ND","ND","ND","ND","4.8","ND","ND","ND","ND","ND","0"],
    [59699,"2017-02-26T06:00:00","31.1","ND","ND","ND","ND","4.8","ND","ND","ND","ND","ND","0"],
    [59700,"2017-02-26T07:00:00","16.7","ND","ND","ND","ND","6.7","ND","ND","ND","ND","ND","0"],
    [59701,"2017-02-26T08:00:00","23.5","ND","ND","ND","ND","15.7","ND","ND","ND","ND","ND","0"],
    [59702,"2017-02-26T09:00:00","22.1","ND","ND","ND","ND","8.9","ND","ND","ND","ND","ND","0"],
    [59703,"2017-02-26T10:00:00","17.2","ND","ND","ND","ND","5.5","ND","ND","ND","ND","ND","0"],
    [59704,"2017-02-26T11:00:00","20.1","ND","ND","ND","ND","4.0","ND","ND","ND","ND","ND","0"],
    [59705,"2017-02-26T12:00:00","19.2","ND","ND","ND","ND","3.3","ND","ND","ND","ND","ND","0"],
    [59706,"2017-02-26T13:00:00","11.6","ND","ND","ND","ND","3.2","ND","ND","ND","ND","ND","0"],
    [59707,"2017-02-26T14:00:00","6.4","ND","ND","ND","ND","2.3","ND","ND","ND","ND","ND","0"],
    [59708,"2017-02-26T15:00:00","ND","ND","ND","ND","ND","2.7","ND","ND","ND","ND","ND","0"],
    [59709,"2017-02-26T16:00:00","4.9","ND","ND","ND","ND","2.6","ND","ND","ND","ND","ND","0"],
    [59710,"2017-02-26T17:00:00","23.2","ND","ND","ND","ND","2.1","ND","ND","ND","ND","ND","0"],
    [59711,"2017-02-26T18:00:00","15.8","ND","ND","ND","ND","2.9","ND","ND","ND","ND","ND","0"],
    [59712,"2017-02-26T19:00:00","18.4","ND","ND","ND","ND","3.0","ND","ND","ND","ND","ND","0"],
    [59713,"2017-02-26T20:00:00","16.1","ND","ND","ND","ND","3.1","ND","ND","ND","ND","ND","0"],
    [59714,"2017-02-26T21:00:00","20.2","ND","ND","ND","ND","2.8","ND","ND","ND","ND","ND","0"],
    [59715,"2017-02-26T22:00:00","23.1","ND","ND","ND","ND","4.0","ND","ND","ND","ND","ND","0"],
    [59716,"2017-02-26T23:00:00","23.6","ND","ND","ND","ND","3.7","ND","ND","ND","ND","ND","0"],
    [59717,"2017-02-27T00:00:00","14.8","ND","ND","ND","ND","3.2","ND","ND","ND","ND","ND","0"],
    [59718,"2017-02-27T01:00:00","10","ND","ND","ND","ND","3.3","ND","ND","ND","ND","ND","0"],
    [59719,"2017-02-27T02:00:00","7.3","ND","ND","ND","ND","4.6","ND","ND","ND","ND","ND","0"],
    [59720,"2017-02-27T03:00:00","17.1","ND","ND","ND","ND","4.9","ND","ND","ND","ND","ND","0"],
    [59721,"2017-02-27T04:00:00","26.8","ND","ND","ND","ND","6.4","ND","ND","ND","ND","ND","0"],
    [59722,"2017-02-27T05:00:00","26.7","ND","ND","ND","ND","4.2","ND","ND","ND","ND","ND","0"],
    [59723,"2017-02-27T06:00:00","23.4","ND","ND","ND","ND","4.0","ND","ND","ND","ND","ND","0"],
    [59724,"2017-02-27T07:00:00","18","ND","ND","ND","ND","3.2","ND","ND","ND","ND","ND","0"],
    [59725,"2017-02-27T08:00:00","17.3","ND","ND","ND","ND","2.9","ND","ND","ND","ND","ND","0"],
    [59726,"2017-02-27T09:00:00","16.1","ND","ND","ND","ND","2.8","ND","ND","ND","ND","ND","0"],
    [59727,"2017-02-27T10:00:00","23.8","ND","ND","ND","ND","3.8","ND","ND","ND","ND","ND","0"],
    [59728,"2017-02-27T11:00:00","9.3","ND","ND","ND","ND","3.3","ND","ND","ND","ND","ND","0"],
    [59729,"2017-02-27T12:00:00","8.7","ND","ND","ND","ND","2.9","ND","ND","ND","ND","ND","0"],
    [59730,"2017-02-27T13:00:00","7.3","ND","ND","ND","ND","2.6","ND","ND","ND","ND","ND","0"],
    [59731,"2017-02-27T14:00:00","13.9","ND","ND","ND","ND","2.5","ND","ND","ND","ND","ND","0"],
    [59732,"2017-02-27T15:00:00","10.4","ND","ND","ND","ND","2.3","ND","ND","ND","ND","ND","0"],
    [59733,"2017-02-27T16:00:00","2.6","ND","ND","ND","ND","2.6","ND","ND","ND","ND","ND","0"],
    [59734,"2017-02-27T17:00:00","6.7","ND","ND","ND","ND","2.3","ND","ND","ND","ND","ND","0"],
    [59735,"2017-02-27T18:00:00","ND","ND","ND","ND","ND","2.6","ND","ND","ND","ND","ND","0"],
    [59736,"2017-02-27T19:00:00","ND","ND","ND","ND","ND","2.3","ND","ND","ND","ND","ND","0"],
    [59737,"2017-02-27T20:00:00","6","ND","ND","ND","ND","2.5","ND","ND","ND","ND","ND","0"],
    [59738,"2017-02-27T21:00:00","16.5","ND","ND","ND","ND","2.4","ND","ND","ND","ND","ND","0"],
    [59739,"2017-02-27T22:00:00","28","ND","ND","ND","ND","3.2","ND","ND","ND","ND","ND","0"],
    [59740,"2017-02-27T23:00:00","34.5","ND","ND","ND","ND","3.5","ND","ND","ND","ND","ND","0"],
    [59741,"2017-02-28T00:00:00","24.7","ND","ND","ND","ND","2.7","ND","ND","ND","ND","ND","0"],
    [59742,"2017-02-28T01:00:00","18.4","ND","ND","ND","ND","2.8","ND","ND","ND","ND","ND","0"],
    [59743,"2017-02-28T02:00:00","30.8","ND","ND","ND","ND","2.6","ND","ND","ND","ND","ND","0"],
    [59744,"2017-02-28T03:00:00","15.6","ND","ND","ND","ND","2.2","ND","ND","ND","ND","ND","0"],
    [59745,"2017-02-28T04:00:00","12","ND","ND","ND","ND","2.3","ND","ND","ND","ND","ND","0"],
    [59746,"2017-02-28T05:00:00","7.8","ND","ND","ND","ND","2.3","ND","ND","ND","ND","ND","0"],
    [59747,"2017-02-28T06:00:00","10.7","ND","ND","ND","ND","2.6","ND","ND","ND","ND","ND","0"],
    [59748,"2017-02-28T07:00:00","11.2","ND","ND","ND","ND","3.0","ND","ND","ND","ND","ND","0"],
    [59749,"2017-02-28T08:00:00","11.5","ND","ND","ND","ND","2.5","ND","ND","ND","ND","ND","0"],
    [59750,"2017-02-28T09:00:00","20.6","ND","ND","ND","ND","3.2","ND","ND","ND","ND","ND","0"],
    [59751,"2017-02-28T10:00:00","19.1","ND","ND","ND","ND","2.7","ND","ND","ND","ND","ND","0"],
    [59752,"2017-02-28T11:00:00","18.9","ND","ND","ND","ND","3.2","ND","ND","ND","ND","ND","0"],
    [59753,"2017-02-28T12:00:00","18.9","ND","ND","ND","ND","2.8","ND","ND","ND","ND","ND","0"],
    [59754,"2017-02-28T13:00:00","10.5","ND","ND","ND","ND","2.5","ND","ND","ND","ND","ND","0"],
    [59755,"2017-02-28T14:00:00","5.5","ND","ND","ND","ND","2.1","ND","ND","ND","ND","ND","0"],
    [59756,"2017-02-28T15:00:00","ND","ND","ND","ND","ND","2.3","ND","ND","ND","ND","ND","0"],
    [59757,"2017-02-28T16:00:00","ND","ND","ND","ND","ND","2.0","ND","ND","ND","ND","ND","0"],
    [59758,"2017-02-28T17:00:00","6.2","ND","ND","ND","ND","1.9","ND","ND","ND","ND","ND","0"],
    [59759,"2017-02-28T18:00:00","18.9","ND","ND","ND","ND","2.2","ND","ND","ND","ND","ND","0"],
    [59760,"2017-02-28T19:00:00","28.5","ND","ND","ND","ND","2.9","ND","ND","ND","ND","ND","0"],
    [59761,"2017-02-28T20:00:00","19.3","ND","ND","ND","ND","2.6","ND","ND","ND","ND","ND","0"],
    [59762,"2017-02-28T21:00:00","14.8","ND","ND","ND","ND","2.5","ND","ND","ND","ND","ND","0"],
    [59763,"2017-02-28T22:00:00","21.4","ND","ND","ND","ND","5.2","ND","ND","ND","ND","ND","0"],
    [59764,"2017-02-28T23:00:00","21.6","ND","ND","ND","ND","5.6","ND","ND","ND","ND","ND","0"],
    [59765,"2017-03-01T00:00:00","13.1","ND","ND","ND","ND","5.2","ND","ND","ND","ND","ND","0"],
    [59766,"2017-03-01T01:00:00","12.8","ND","ND","ND","ND","5.3","ND","ND","ND","ND","ND","0"],
    [59767,"2017-03-01T02:00:00","18.2","ND","ND","ND","ND","9.6","ND","ND","ND","ND","ND","0"],
    [59768,"2017-03-01T03:00:00","23","ND","ND","ND","ND","8.4","ND","ND","ND","ND","ND","0"],
    [59769,"2017-03-01T04:00:00","19.5","ND","ND","ND","ND","4.0","ND","ND","ND","ND","ND","0"],
    [59770,"2017-03-01T05:00:00","14.2","ND","ND","ND","ND","3.7","ND","ND","ND","ND","ND","0"],
    [59771,"2017-03-01T06:00:00","16.2","ND","ND","ND","ND","3.8","ND","ND","ND","ND","ND","0"],
    [59772,"2017-03-01T07:00:00","36","ND","ND","ND","ND","4.8","ND","ND","ND","ND","ND","0"],
    [59773,"2017-03-01T08:00:00","39.2","ND","ND","ND","ND","5.2","ND","ND","ND","ND","ND","0"],
    [59774,"2017-03-01T09:00:00","47","ND","ND","ND","ND","5.2","ND","ND","ND","ND","ND","0"],
    [59775,"2017-03-01T10:00:00","39.2","ND","ND","ND","ND","5.9","ND","ND","ND","ND","ND","0"],
    [59776,"2017-03-01T11:00:00","15.5","ND","ND","ND","ND","3.8","ND","ND","ND","ND","ND","0"],
    [59777,"2017-03-01T12:00:00","3.1","ND","ND","ND","ND","2.8","ND","ND","ND","ND","ND","0"],
    [59778,"2017-03-01T13:00:00","5","ND","ND","ND","ND","2.8","ND","ND","ND","ND","ND","0"],
    [59779,"2017-03-01T14:00:00","8.6","ND","ND","ND","ND","2.5","ND","ND","ND","ND","ND","0"],
    [59780,"2017-03-01T15:00:00","10.9","ND","ND","ND","ND","2.6","ND","ND","ND","ND","ND","0"],
    [59781,"2017-03-01T16:00:00","6.4","ND","ND","ND","ND","2.0","ND","ND","ND","ND","ND","0"],
    [59782,"2017-03-01T17:00:00","ND","ND","ND","ND","ND","2.3","ND","ND","ND","ND","ND","0"],
    [59783,"2017-03-01T18:00:00","ND","ND","ND","ND","ND","2.6","ND","ND","ND","ND","ND","0"],
    [59784,"2017-03-01T19:00:00","ND","ND","ND","ND","ND","2.5","ND","ND","ND","ND","ND","0"],
    [59785,"2017-03-01T20:00:00","6.8","ND","ND","ND","ND","2.6","ND","ND","ND","ND","ND","0"],
    [59786,"2017-03-01T21:00:00","52.6","ND","ND","ND","ND","2.6","ND","ND","ND","ND","ND","0"],
    [59787,"2017-03-01T22:00:00","42.3","ND","ND","ND","ND","2.4","ND","ND","ND","ND","ND","0"],
    [59788,"2017-03-01T23:00:00","14.3","ND","ND","ND","ND","2.8","ND","ND","ND","ND","ND","0"],
    [59789,"2017-03-02T00:00:00","7.6","ND","ND","ND","ND","2.3","ND","ND","ND","ND","ND","0"],
    [59790,"2017-03-02T01:00:00","11","ND","ND","ND","ND","5.3","ND","ND","ND","ND","ND","0"],
    [59791,"2017-03-02T02:00:00","17.8","ND","ND","ND","ND","9.1","ND","ND","ND","ND","ND","0"],
    [59792,"2017-03-02T03:00:00","15.3","ND","ND","ND","ND","6.6","ND","ND","ND","ND","ND","0"],
    [59793,"2017-03-02T04:00:00","11.6","ND","ND","ND","ND","6.9","ND","ND","ND","ND","ND","0"],
    [59794,"2017-03-02T05:00:00","18.9","ND","ND","ND","ND","6.9","ND","ND","ND","ND","ND","0"],
    [59795,"2017-03-02T06:00:00","18","ND","ND","ND","ND","4.7","ND","ND","ND","ND","ND","0"],
    [59796,"2017-03-02T07:00:00","20.6","ND","ND","ND","ND","5.6","ND","ND","ND","ND","ND","0"],
    [59797,"2017-03-02T08:00:00","26.7","ND","ND","ND","ND","5.2","ND","ND","ND","ND","ND","0"],
    [59798,"2017-03-02T09:00:00","36.2","ND","ND","ND","ND","5.4","ND","ND","ND","ND","ND","0"],
    [59799,"2017-03-02T10:00:00","31.7","ND","ND","ND","ND","3.2","ND","ND","ND","ND","ND","0"],
    [59800,"2017-03-02T11:00:00","14","ND","ND","ND","ND","2.7","ND","ND","ND","ND","ND","0"],
    [59801,"2017-03-02T12:00:00","7.7","ND","ND","ND","ND","2.3","ND","ND","ND","ND","ND","0"],
    [59802,"2017-03-02T13:00:00","6.7","ND","ND","ND","ND","2.4","ND","ND","ND","ND","ND","0"],
    [59803,"2017-03-02T14:00:00","8.5","ND","ND","ND","ND","2.6","ND","ND","ND","ND","ND","0"],
    [59804,"2017-03-02T15:00:00","17.3","ND","ND","ND","ND","2.2","ND","ND","ND","ND","ND","0"],
    [59805,"2017-03-02T16:00:00","9.7","ND","ND","ND","ND","2.6","ND","ND","ND","ND","ND","0"],
    [59806,"2017-03-02T17:00:00","13.5","ND","ND","ND","ND","2.1","ND","ND","ND","ND","ND","0"],
    [59807,"2017-03-02T18:00:00","4.7","ND","ND","ND","ND","2.6","ND","ND","ND","ND","ND","0"],
    [59808,"2017-03-02T19:00:00","1","ND","ND","ND","ND","2.3","ND","ND","ND","ND","ND","0"],
    [59809,"2017-03-02T20:00:00","10.5","ND","ND","ND","ND","2.4","ND","ND","ND","ND","ND","0"],
    [59810,"2017-03-02T21:00:00","24.9","ND","ND","ND","ND","3.1","ND","ND","ND","ND","ND","0"],
    [59811,"2017-03-02T22:00:00","35.9","ND","ND","ND","ND","3.8","ND","ND","ND","ND","ND","0"],
    [59812,"2017-03-02T23:00:00","25.3","ND","ND","ND","ND","4.3","ND","ND","ND","ND","ND","0"],
    [59813,"2017-03-03T00:00:00","27.7","ND","ND","ND","ND","3.9","ND","ND","ND","ND","ND","0"],
    [59814,"2017-03-03T01:00:00","24.9","ND","ND","ND","ND","4.2","ND","ND","ND","ND","ND","0"],
    [59815,"2017-03-03T02:00:00","18.9","ND","ND","ND","ND","4.2","ND","ND","ND","ND","ND","0"],
    [59816,"2017-03-03T03:00:00","25.8","ND","ND","ND","ND","4.5","ND","ND","ND","ND","ND","0"],
    [59817,"2017-03-03T04:00:00","21.9","ND","ND","ND","ND","4.6","ND","ND","ND","ND","ND","0"],
    [59818,"2017-03-03T05:00:00","17.3","ND","ND","ND","ND","3.6","ND","ND","ND","ND","ND","0"],
    [59819,"2017-03-03T06:00:00","16","ND","ND","ND","ND","6.1","ND","ND","ND","ND","ND","0"],
    [59820,"2017-03-03T07:00:00","16.1","ND","ND","ND","ND","3.9","ND","ND","ND","ND","ND","0"],
    [59821,"2017-03-03T08:00:00","35.1","ND","ND","ND","ND","6.0","ND","ND","ND","ND","ND","0"],
    [59822,"2017-03-03T09:00:00","29.3","ND","ND","ND","ND","3.5","ND","ND","ND","ND","ND","0"],
    [59823,"2017-03-03T10:00:00","19.6","ND","ND","ND","ND","2.8","ND","ND","ND","ND","ND","0"],
    [59824,"2017-03-03T11:00:00","23.2","ND","ND","ND","ND","3.1","ND","ND","ND","ND","ND","0"],
    [59825,"2017-03-03T12:00:00","3.6","ND","ND","ND","ND","2.7","ND","ND","ND","ND","ND","0"],
    [59826,"2017-03-03T13:00:00","ND","ND","ND","ND","ND","2.4","ND","ND","ND","ND","ND","0"],
    [59827,"2017-03-03T14:00:00","1.7","ND","ND","ND","ND","2.1","ND","ND","ND","ND","ND","0"],
    [59828,"2017-03-03T15:00:00","2.4","ND","ND","ND","ND","1.7","ND","ND","ND","ND","ND","0"],
    [59829,"2017-03-03T16:00:00","ND","ND","ND","ND","ND","2.2","ND","ND","ND","ND","ND","0"],
    [59830,"2017-03-03T17:00:00","ND","ND","ND","ND","ND","2.0","ND","ND","ND","ND","ND","0"],
    [59831,"2017-03-03T18:00:00","ND","ND","ND","ND","ND","1.9","ND","ND","ND","ND","ND","0"],
    [59832,"2017-03-03T19:00:00","ND","ND","ND","ND","ND","2.1","ND","ND","ND","ND","ND","0"],
    [59833,"2017-03-03T20:00:00","7.2","ND","ND","ND","ND","3.0","ND","ND","ND","ND","ND","0"],
    [59834,"2017-03-03T21:00:00","43.8","ND","ND","ND","ND","2.7","ND","ND","ND","ND","ND","0"],
    [59835,"2017-03-03T22:00:00","32.3","ND","ND","ND","ND","3.2","ND","ND","ND","ND","ND","0"],
    [59836,"2017-03-03T23:00:00","37.4","ND","ND","ND","ND","2.9","ND","ND","ND","ND","ND","0"],
    [59837,"2017-03-04T00:00:00","24.5","ND","ND","ND","ND","4.0","ND","ND","ND","ND","ND","0"],
    [59838,"2017-03-04T01:00:00","23.9","ND","ND","ND","ND","3.3","ND","ND","ND","ND","ND","0"],
    [59839,"2017-03-04T02:00:00","13.1","ND","ND","ND","ND","4.6","ND","ND","ND","ND","ND","0"],
    [59840,"2017-03-04T03:00:00","7.5","ND","ND","ND","ND","5.7","ND","ND","ND","ND","ND","0"],
    [59841,"2017-03-04T04:00:00","9.7","ND","ND","ND","ND","5.4","ND","ND","ND","ND","ND","0"],
    [59842,"2017-03-04T05:00:00","20","ND","ND","ND","ND","3.9","ND","ND","ND","ND","ND","0"],
    [59843,"2017-03-04T06:00:00","20","ND","ND","ND","ND","4.0","ND","ND","ND","ND","ND","0"],
    [59844,"2017-03-04T07:00:00","22.4","ND","ND","ND","ND","3.5","ND","ND","ND","ND","ND","0"],
    [59845,"2017-03-04T08:00:00","58.5","ND","ND","ND","ND","7.3","ND","ND","ND","ND","ND","0"],
    [59846,"2017-03-04T09:00:00","67.2","ND","ND","ND","ND","8.7","ND","ND","ND","ND","ND","0"],
    [59847,"2017-03-04T10:00:00","41.9","ND","ND","ND","ND","5.2","ND","ND","ND","ND","ND","0"],
    [59848,"2017-03-04T11:00:00","26.4","ND","ND","ND","ND","3.3","ND","ND","ND","ND","ND","0"],
    [59849,"2017-03-04T12:00:00","16","ND","ND","ND","ND","2.6","ND","ND","ND","ND","ND","0"],
    [59850,"2017-03-04T13:00:00","15.4","ND","ND","ND","ND","2.8","ND","ND","ND","ND","ND","0"],
    [59851,"2017-03-04T14:00:00","22.5","ND","ND","ND","ND","2.6","ND","ND","ND","ND","ND","0"],
    [59852,"2017-03-04T15:00:00","18","ND","ND","ND","ND","1.9","ND","ND","ND","ND","ND","0"],
    [59853,"2017-03-04T16:00:00","17.7","ND","ND","ND","ND","2.3","ND","ND","ND","ND","ND","0"],
    [59854,"2017-03-04T17:00:00","12.3","ND","ND","ND","ND","2.3","ND","ND","ND","ND","ND","0"],
    [59855,"2017-03-04T18:00:00","14","ND","ND","ND","ND","2.5","ND","ND","ND","ND","ND","0"],
    [59856,"2017-03-04T19:00:00","5.5","ND","ND","ND","ND","2.2","ND","ND","ND","ND","ND","0"],
    [59857,"2017-03-04T20:00:00","9.5","ND","ND","ND","ND","2.5","ND","ND","ND","ND","ND","0"],
    [59858,"2017-03-04T21:00:00","15.6","ND","ND","ND","ND","2.7","ND","ND","ND","ND","ND","0"],
    [59859,"2017-03-04T22:00:00","28.3","ND","ND","ND","ND","4.8","ND","ND","ND","ND","ND","0"],
    [59860,"2017-03-04T23:00:00","24.5","ND","ND","ND","ND","5.3","ND","ND","ND","ND","ND","0"],
    [59861,"2017-03-05T00:00:00","20.1","ND","ND","ND","ND","4.9","ND","ND","ND","ND","ND","0"],
    [59862,"2017-03-05T01:00:00","17.2","ND","ND","ND","ND","4.4","ND","ND","ND","ND","ND","0"],
    [59863,"2017-03-05T02:00:00","14.6","ND","ND","ND","ND","4.9","ND","ND","ND","ND","ND","0"],
    [59864,"2017-03-05T03:00:00","20.7","ND","ND","ND","ND","6.0","ND","ND","ND","ND","ND","0"],
    [59865,"2017-03-05T04:00:00","20.5","ND","ND","ND","ND","5.8","ND","ND","ND","ND","ND","0"],
    [59866,"2017-03-05T05:00:00","22.8","ND","ND","ND","ND","4.9","ND","ND","ND","ND","ND","0"],
    [59867,"2017-03-05T06:00:00","22.4","ND","ND","ND","ND","5.5","ND","ND","ND","ND","ND","0"],
    [59868,"2017-03-05T07:00:00","20.9","ND","ND","ND","ND","5.4","ND","ND","ND","ND","ND","0"],
    [59869,"2017-03-05T08:00:00","29","ND","ND","ND","ND","3.9","ND","ND","ND","ND","ND","0"],
    [59870,"2017-03-05T09:00:00","18.7","ND","ND","ND","ND","3.2","ND","ND","ND","ND","ND","0"],
    [59871,"2017-03-05T10:00:00","18.9","ND","ND","ND","ND","4.0","ND","ND","ND","ND","ND","0"],
    [59872,"2017-03-05T11:00:00","15","ND","ND","ND","ND","2.9","ND","ND","ND","ND","ND","0"],
    [59873,"2017-03-05T12:00:00","1.7","ND","ND","ND","ND","2.4","ND","ND","ND","ND","ND","0"],
    [59874,"2017-03-05T13:00:00","8.2","ND","ND","ND","ND","2.4","ND","ND","ND","ND","ND","0"],
    [59875,"2017-03-05T14:00:00","9.8","ND","ND","ND","ND","2.8","ND","ND","ND","ND","ND","0"],
    [59876,"2017-03-05T15:00:00","9.9","ND","ND","ND","ND","2.8","ND","ND","ND","ND","ND","0"],
    [59877,"2017-03-05T16:00:00","9.2","ND","ND","ND","ND","2.7","ND","ND","ND","ND","ND","0"],
    [59878,"2017-03-05T17:00:00","0.8","ND","ND","ND","ND","3.7","ND","ND","ND","ND","ND","0"],
    [59879,"2017-03-05T18:00:00","3.9","ND","ND","ND","ND","2.2","ND","ND","ND","ND","ND","0"],
    [59880,"2017-03-05T19:00:00","3.2","ND","ND","ND","ND","2.9","ND","ND","ND","ND","ND","0"],
    [59881,"2017-03-05T20:00:00","4.3","ND","ND","ND","ND","3.2","ND","ND","ND","ND","ND","0"],
    [59882,"2017-03-05T21:00:00","21.8","ND","ND","ND","ND","3.5","ND","ND","ND","ND","ND","0"],
    [59883,"2017-03-05T22:00:00","20.5","ND","ND","ND","ND","4.9","ND","ND","ND","ND","ND","0"],
    [59884,"2017-03-05T23:00:00","18","ND","ND","ND","ND","6.6","ND","ND","ND","ND","ND","0"],
    [59885,"2017-03-06T00:00:00","16.2","ND","ND","ND","ND","4.4","ND","ND","ND","ND","ND","0"],
    [59886,"2017-03-06T01:00:00","12.4","ND","ND","ND","ND","5.3","ND","ND","ND","ND","ND","0"],
    [59887,"2017-03-06T02:00:00","11.8","ND","ND","ND","ND","3.1","ND","ND","ND","ND","ND","0"],
    [59888,"2017-03-06T03:00:00","13.3","ND","ND","ND","ND","3.7","ND","ND","ND","ND","ND","0"],
    [59889,"2017-03-06T04:00:00","15.7","ND","ND","ND","ND","4.3","ND","ND","ND","ND","ND","0"],
    [59890,"2017-03-06T05:00:00","15.3","ND","ND","ND","ND","4.6","ND","ND","ND","ND","ND","0"],
    [59891,"2017-03-06T06:00:00","16","ND","ND","ND","ND","6.2","ND","ND","ND","ND","ND","0"],
    [59892,"2017-03-06T07:00:00","23.7","ND","ND","ND","ND","5.8","ND","ND","ND","ND","ND","0"],
    [59893,"2017-03-06T08:00:00","31.5","ND","ND","ND","ND","6.3","ND","ND","ND","ND","ND","0"],
    [59894,"2017-03-06T09:00:00","33.6","ND","ND","ND","ND","6.4","ND","ND","ND","ND","ND","0"],
    [59895,"2017-03-06T10:00:00","30.1","ND","ND","ND","ND","5.1","ND","ND","ND","ND","ND","0"],
    [59896,"2017-03-06T11:00:00","20.3","ND","ND","ND","ND","3.8","ND","ND","ND","ND","ND","0"],
    [59897,"2017-03-06T12:00:00","17.7","ND","ND","ND","ND","3.0","ND","ND","ND","ND","ND","0"],
    [59898,"2017-03-06T13:00:00","19.6","ND","ND","ND","ND","2.8","ND","ND","ND","ND","ND","0"],
    [59899,"2017-03-06T14:00:00","14.2","ND","ND","ND","ND","2.0","ND","ND","ND","ND","ND","0"],
    [59900,"2017-03-06T15:00:00","16.5","ND","ND","ND","ND","2.7","ND","ND","ND","ND","ND","0"],
    [59901,"2017-03-06T16:00:00","12.8","ND","ND","ND","ND","2.2","ND","ND","ND","ND","ND","0"],
    [59902,"2017-03-06T17:00:00","11.7","ND","ND","ND","ND","2.6","ND","ND","ND","ND","ND","0"],
    [59903,"2017-03-06T18:00:00","3.1","ND","ND","ND","ND","2.8","ND","ND","ND","ND","ND","0"],
    [59904,"2017-03-06T19:00:00","17.1","ND","ND","ND","ND","2.5","ND","ND","ND","ND","ND","0"],
    [59905,"2017-03-06T20:00:00","27.7","ND","ND","ND","ND","2.8","ND","ND","ND","ND","ND","0"],
    [59906,"2017-03-06T21:00:00","3.2","ND","ND","ND","ND","3.6","ND","ND","ND","ND","ND","0"],
    [59907,"2017-03-06T22:00:00","15","ND","ND","ND","ND","3.4","ND","ND","ND","ND","ND","0"],
    [59908,"2017-03-06T23:00:00","20.5","ND","ND","ND","ND","3.1","ND","ND","ND","ND","ND","0"],
    [59909,"2017-03-07T00:00:00","0.9","ND","ND","ND","ND","3.5","ND","ND","ND","ND","ND","0"],
    [59910,"2017-03-07T01:00:00","4","ND","ND","ND","ND","3.3","ND","ND","ND","ND","ND","0"],
    [59911,"2017-03-07T02:00:00","7.3","ND","ND","ND","ND","3.4","ND","ND","ND","ND","ND","0"],
    [59912,"2017-03-07T03:00:00","1.6","ND","ND","ND","ND","2.8","ND","ND","ND","ND","ND","0"],
    [59913,"2017-03-07T04:00:00","12","ND","ND","ND","ND","5.0","ND","ND","ND","ND","ND","0"],
    [59914,"2017-03-07T05:00:00","21.7","ND","ND","ND","ND","5.4","ND","ND","ND","ND","ND","0"],
    [59915,"2017-03-07T06:00:00","9.1","ND","ND","ND","ND","5.6","ND","ND","ND","ND","ND","0"],
    [59916,"2017-03-07T07:00:00","8.5","ND","ND","ND","ND","4.7","ND","ND","ND","ND","ND","0"],
    [59917,"2017-03-07T08:00:00","11.8","ND","ND","ND","ND","3.8","ND","ND","ND","ND","ND","0"],
    [59918,"2017-03-07T09:00:00","15.8","ND","ND","ND","ND","2.7","ND","ND","ND","ND","ND","0"],
    [59919,"2017-03-07T10:00:00","10.1","ND","ND","ND","ND","2.5","ND","ND","ND","ND","ND","0"],
    [59920,"2017-03-07T11:00:00","15.2","ND","ND","ND","ND","2.4","ND","ND","ND","ND","ND","0"],
    [59921,"2017-03-07T12:00:00","7.8","ND","ND","ND","ND","2.6","ND","ND","ND","ND","ND","0"],
    [59922,"2017-03-07T13:00:00","6.2","ND","ND","ND","ND","2.4","ND","ND","ND","ND","ND","0"],
    [59923,"2017-03-07T14:00:00","12.1","ND","ND","ND","ND","2.1","ND","ND","ND","ND","ND","0"],
    [59924,"2017-03-07T15:00:00","8.2","ND","ND","ND","ND","2.9","ND","ND","ND","ND","ND","0"],
    [59925,"2017-03-07T16:00:00","28.6","ND","ND","ND","ND","3.1","ND","ND","ND","ND","ND","0"],
    [59926,"2017-03-07T17:00:00","17.6","ND","ND","ND","ND","2.6","ND","ND","ND","ND","ND","0"],
    [59927,"2017-03-07T18:00:00","5.9","ND","ND","ND","ND","2.3","ND","ND","ND","ND","ND","0"],
    [59928,"2017-03-07T19:00:00","14.8","ND","ND","ND","ND","3.4","ND","ND","ND","ND","ND","0"],
    [59929,"2017-03-07T20:00:00","16.8","ND","ND","ND","ND","2.8","ND","ND","ND","ND","ND","0"],
    [59930,"2017-03-07T21:00:00","16.4","ND","ND","ND","ND","4.0","ND","ND","ND","ND","ND","0"],
    [59931,"2017-03-07T22:00:00","23.7","ND","ND","ND","ND","4.5","ND","ND","ND","ND","ND","0"],
    [59932,"2017-03-07T23:00:00","18.2","ND","ND","ND","ND","3.0","ND","ND","ND","ND","ND","0"],
    [59933,"2017-03-08T00:00:00","21.2","ND","ND","ND","ND","4.0","ND","ND","ND","ND","ND","0"],
    [59934,"2017-03-08T01:00:00","15","ND","ND","ND","ND","3.9","ND","ND","ND","ND","ND","0"],
    [59935,"2017-03-08T02:00:00","10","ND","ND","ND","ND","2.2","ND","ND","ND","ND","ND","0"],
    [59936,"2017-03-08T03:00:00","12.8","ND","ND","ND","ND","2.8","ND","ND","ND","ND","ND","0"],
    [59937,"2017-03-08T04:00:00","9.2","ND","ND","ND","ND","3.3","ND","ND","ND","ND","ND","0"],
    [59938,"2017-03-08T05:00:00","8.1","ND","ND","ND","ND","2.4","ND","ND","ND","ND","ND","0"],
    [59939,"2017-03-08T06:00:00","5.5","ND","ND","ND","ND","2.6","ND","ND","ND","ND","ND","0"],
    [59940,"2017-03-08T07:00:00","1.2","ND","ND","ND","ND","2.9","ND","ND","ND","ND","ND","0"],
    [59941,"2017-03-08T08:00:00","1.2","ND","ND","ND","ND","2.6","ND","ND","ND","ND","ND","0"],
    [59942,"2017-03-08T09:00:00","14.2","ND","ND","ND","ND","2.8","ND","ND","ND","ND","ND","0"],
    [59943,"2017-03-08T10:00:00","18.3","ND","ND","ND","ND","2.6","ND","ND","ND","ND","ND","0"],
    [59944,"2017-03-08T11:00:00","13.2","ND","ND","ND","ND","2.9","ND","ND","ND","ND","ND","0"],
    [59945,"2017-03-08T12:00:00","9.3","ND","ND","ND","ND","3.6","ND","ND","ND","ND","ND","0"],
    [59946,"2017-03-08T13:00:00","14.5","ND","ND","ND","ND","3.7","ND","ND","ND","ND","ND","0"],
    [59947,"2017-03-08T14:00:00","12.7","ND","ND","ND","ND","3.4","ND","ND","ND","ND","ND","0"],
    [59948,"2017-03-08T15:00:00","9","ND","ND","ND","ND","2.5","ND","ND","ND","ND","ND","0"],
    [59949,"2017-03-08T16:00:00","8.9","ND","ND","ND","ND","2.0","ND","ND","ND","ND","ND","0"],
    [59950,"2017-03-08T17:00:00","7.4","ND","ND","ND","ND","2.2","ND","ND","ND","ND","ND","0"],
    [59951,"2017-03-08T18:00:00","7.6","ND","ND","ND","ND","3.2","ND","ND","ND","ND","ND","0"],
    [59952,"2017-03-08T19:00:00","10.2","ND","ND","ND","ND","3.7","ND","ND","ND","ND","ND","0"],
    [59953,"2017-03-08T20:00:00","23.6","ND","ND","ND","ND","2.9","ND","ND","ND","ND","ND","0"],
    [59954,"2017-03-08T21:00:00","24.8","ND","ND","ND","ND","5.0","ND","ND","ND","ND","ND","0"],
    [59955,"2017-03-08T22:00:00","21.3","ND","ND","ND","ND","4.0","ND","ND","ND","ND","ND","0"],
    [59956,"2017-03-08T23:00:00","16.7","ND","ND","ND","ND","2.4","ND","ND","ND","ND","ND","0"],
    [59957,"2017-03-09T00:00:00","21","ND","ND","ND","ND","2.9","ND","ND","ND","ND","ND","0"],
    [59958,"2017-03-09T01:00:00","16","ND","ND","ND","ND","4.1","ND","ND","ND","ND","ND","0"],
    [59959,"2017-03-09T02:00:00","18.9","ND","ND","ND","ND","6.5","ND","ND","ND","ND","ND","0"],
    [59960,"2017-03-09T03:00:00","22.7","ND","ND","ND","ND","6.0","ND","ND","ND","ND","ND","0"],
    [59961,"2017-03-09T04:00:00","17.7","ND","ND","ND","ND","4.2","ND","ND","ND","ND","ND","0"],
    [59962,"2017-03-09T05:00:00","20.7","ND","ND","ND","ND","6.3","ND","ND","ND","ND","ND","0"],
    [59963,"2017-03-09T06:00:00","16.7","ND","ND","ND","ND","4.5","ND","ND","ND","ND","ND","0"],
    [59964,"2017-03-09T07:00:00","17.8","ND","ND","ND","ND","4.1","ND","ND","ND","ND","ND","0"],
    [59965,"2017-03-09T08:00:00","25.4","ND","ND","ND","ND","4.2","ND","ND","ND","ND","ND","0"],
    [59966,"2017-03-09T09:00:00","27.6","ND","ND","ND","ND","3.5","ND","ND","ND","ND","ND","0"],
    [59967,"2017-03-09T10:00:00","20.6","ND","ND","ND","ND","3.4","ND","ND","ND","ND","ND","0"],
    [59968,"2017-03-09T11:00:00","9.7","ND","ND","ND","ND","2.5","ND","ND","ND","ND","ND","0"],
    [59969,"2017-03-09T12:00:00","11.2","ND","ND","ND","ND","3.4","ND","ND","ND","ND","ND","0"],
    [59970,"2017-03-09T13:00:00","13.8","ND","ND","ND","ND","2.6","ND","ND","ND","ND","ND","0"],
    [59971,"2017-03-09T14:00:00","15.4","ND","ND","ND","ND","2.6","ND","ND","ND","ND","ND","0"],
    [59972,"2017-03-09T15:00:00","4.3","ND","ND","ND","ND","2.3","ND","ND","ND","ND","ND","0"],
    [59973,"2017-03-09T16:00:00","4.6","ND","ND","ND","ND","1.9","ND","ND","ND","ND","ND","0"],
    [59974,"2017-03-09T17:00:00","ND","ND","ND","ND","ND","2.3","ND","ND","ND","ND","ND","0"],
    [59975,"2017-03-09T18:00:00","1","ND","ND","ND","ND","2.9","ND","ND","ND","ND","ND","0"],
    [59976,"2017-03-09T19:00:00","27","ND","ND","ND","ND","3.2","ND","ND","ND","ND","ND","0"],
    [59977,"2017-03-09T20:00:00","36.8","ND","ND","ND","ND","3.2","ND","ND","ND","ND","ND","0"],
    [59978,"2017-03-09T21:00:00","23","ND","ND","ND","ND","2.8","ND","ND","ND","ND","ND","0"],
    [59979,"2017-03-09T22:00:00","16.2","ND","ND","ND","ND","2.7","ND","ND","ND","ND","ND","0"],
    [59980,"2017-03-09T23:00:00","21","ND","ND","ND","ND","3.0","ND","ND","ND","ND","ND","0"],
    [59981,"2017-03-10T00:00:00","27.7","ND","ND","ND","ND","3.2","ND","ND","ND","ND","ND","0"],
    [59982,"2017-03-10T01:00:00","33","ND","ND","ND","ND","4.8","ND","ND","ND","ND","ND","0"],
    [59983,"2017-03-10T02:00:00","31.1","ND","ND","ND","ND","4.4","ND","ND","ND","ND","ND","0"],
    [59984,"2017-03-10T03:00:00","24.9","ND","ND","ND","ND","4.5","ND","ND","ND","ND","ND","0"],
    [59985,"2017-03-10T04:00:00","28.6","ND","ND","ND","ND","7.8","ND","ND","ND","ND","ND","0"],
    [59986,"2017-03-10T05:00:00","17.5","ND","ND","ND","ND","4.2","ND","ND","ND","ND","ND","0"],
    [59987,"2017-03-10T06:00:00","ND","ND","ND","ND","ND","2.2","ND","ND","ND","ND","ND","0"],
    [59988,"2017-03-10T07:00:00","1.5","ND","ND","ND","ND","2.3","ND","ND","ND","ND","ND","0"],
    [59989,"2017-03-10T08:00:00","4.9","ND","ND","ND","ND","3.4","ND","ND","ND","ND","ND","0"],
    [59990,"2017-03-10T09:00:00","9.8","ND","ND","ND","ND","2.9","ND","ND","ND","ND","ND","0"],
    [59991,"2017-03-10T10:00:00","26.5","ND","ND","ND","ND","2.4","ND","ND","ND","ND","ND","0"],
    [59992,"2017-03-10T11:00:00","2","ND","ND","ND","ND","1.9","ND","ND","ND","ND","ND","0"],
    [59993,"2017-03-10T12:00:00","ND","ND","ND","ND","ND","1.7","ND","ND","ND","ND","ND","0"],
    [59994,"2017-03-10T13:00:00","ND","ND","ND","ND","ND","2.1","ND","ND","ND","ND","ND","0"],
    [59995,"2017-03-10T14:00:00","18","ND","ND","ND","ND","2.1","ND","ND","ND","ND","ND","0"],
    [59996,"2017-03-10T15:00:00","33.7","ND","ND","ND","ND","2.7","ND","ND","ND","ND","ND","0"],
    [59997,"2017-03-10T16:00:00","11.6","ND","ND","ND","ND","2.7","ND","ND","ND","ND","ND","0"],
    [59998,"2017-03-10T17:00:00","5.3","ND","ND","ND","ND","3.1","ND","ND","ND","ND","ND","0"],
    [59999,"2017-03-10T18:00:00","11.4","ND","ND","ND","ND","5.1","ND","ND","ND","ND","ND","0"],
    [60000,"2017-03-10T19:00:00","17.9","ND","ND","ND","ND","6.0","ND","ND","ND","ND","ND","0"],
    [60001,"2017-03-10T20:00:00","25.1","ND","ND","ND","ND","3.3","ND","ND","ND","ND","ND","0"],
    [60002,"2017-03-10T21:00:00","17.8","ND","ND","ND","ND","2.1","ND","ND","ND","ND","ND","0"],
    [60003,"2017-03-10T22:00:00","13.1","ND","ND","ND","ND","3.7","ND","ND","ND","ND","ND","0"],
    [60004,"2017-03-10T23:00:00","17","ND","ND","ND","ND","3.6","ND","ND","ND","ND","ND","0"],
    [60005,"2017-03-11T00:00:00","23.6","ND","ND","ND","ND","2.9","ND","ND","ND","ND","ND","0"],
    [60006,"2017-03-11T01:00:00","10.9","ND","ND","ND","ND","2.1","ND","ND","ND","ND","ND","0"],
    [60007,"2017-03-11T02:00:00","11.6","ND","ND","ND","ND","3.4","ND","ND","ND","ND","ND","0"],
    [60008,"2017-03-11T03:00:00","28","ND","ND","ND","ND","5.5","ND","ND","ND","ND","ND","0"],
    [60009,"2017-03-11T04:00:00","26.8","ND","ND","ND","ND","8.0","ND","ND","ND","ND","ND","0"],
    [60010,"2017-03-11T05:00:00","27.7","ND","ND","ND","ND","8.4","ND","ND","ND","ND","ND","0"],
    [60011,"2017-03-11T06:00:00","24.2","ND","ND","ND","ND","4.7","ND","ND","ND","ND","ND","0"],
    [60012,"2017-03-11T07:00:00","16.3","ND","ND","ND","ND","3.1","ND","ND","ND","ND","ND","0"],
    [60013,"2017-03-11T08:00:00","21.5","ND","ND","ND","ND","5.2","ND","ND","ND","ND","ND","0"],
    [60014,"2017-03-11T09:00:00","27.4","ND","ND","ND","ND","5.4","ND","ND","ND","ND","ND","0"],
    [60015,"2017-03-11T10:00:00","28.9","ND","ND","ND","ND","6.2","ND","ND","ND","ND","ND","0"],
    [60016,"2017-03-11T11:00:00","20","ND","ND","ND","ND","2.7","ND","ND","ND","ND","ND","0"],
    [60017,"2017-03-11T12:00:00","1.2","ND","ND","ND","ND","1.8","ND","ND","ND","ND","ND","0"],
    [60018,"2017-03-11T13:00:00","4.9","ND","ND","ND","ND","2.7","ND","ND","ND","ND","ND","0"],
    [60019,"2017-03-11T14:00:00","13","ND","ND","ND","ND","1.9","ND","ND","ND","ND","ND","0"],
    [60020,"2017-03-11T15:00:00","12.9","ND","ND","ND","ND","2.1","ND","ND","ND","ND","ND","0"],
    [60021,"2017-03-11T16:00:00","ND","ND","ND","ND","ND","1.6","ND","ND","ND","ND","ND","0"],
    [60022,"2017-03-11T17:00:00","ND","ND","ND","ND","ND","2.2","ND","ND","ND","ND","ND","0"],
    [60023,"2017-03-11T18:00:00","10.1","ND","ND","ND","ND","2.4","ND","ND","ND","ND","ND","0"],
    [60024,"2017-03-11T19:00:00","3.5","ND","ND","ND","ND","2.2","ND","ND","ND","ND","ND","0"],
    [60025,"2017-03-11T20:00:00","10.1","ND","ND","ND","ND","1.8","ND","ND","ND","ND","ND","0"],
    [60026,"2017-03-11T21:00:00","10.4","ND","ND","ND","ND","1.7","ND","ND","ND","ND","ND","0"],
    [60027,"2017-03-11T22:00:00","9.9","ND","ND","ND","ND","1.5","ND","ND","ND","ND","ND","0"],
    [60028,"2017-03-11T23:00:00","10.2","ND","ND","ND","ND","1.8","ND","ND","ND","ND","ND","0"],
    [60029,"2017-03-12T00:00:00","9","ND","ND","ND","ND","2.9","ND","ND","ND","ND","ND","0"],
    [60030,"2017-03-12T01:00:00","4.2","ND","ND","ND","ND","3.0","ND","ND","ND","ND","ND","0"],
    [60031,"2017-03-12T02:00:00","ND","ND","ND","ND","ND","3.5","ND","ND","ND","ND","ND","0"],
    [60032,"2017-03-12T03:00:00","1.6","ND","ND","ND","ND","11.1","ND","ND","ND","ND","ND","0"],
    [60033,"2017-03-12T04:00:00","12.8","ND","ND","ND","ND","12.7","ND","ND","ND","ND","ND","0"],
    [60034,"2017-03-12T05:00:00","14.5","ND","ND","ND","ND","8.6","ND","ND","ND","ND","ND","0"],
    [60035,"2017-03-12T06:00:00","7.2","ND","ND","ND","ND","3.9","ND","ND","ND","ND","ND","0"],
    [60036,"2017-03-12T07:00:00","5.1","ND","ND","ND","ND","2.7","ND","ND","ND","ND","ND","0"],
    [60037,"2017-03-12T08:00:00","8.7","ND","ND","ND","ND","2.3","ND","ND","ND","ND","ND","0"],
    [60038,"2017-03-12T09:00:00","11.1","ND","ND","ND","ND","2.5","ND","ND","ND","ND","ND","0"],
    [60039,"2017-03-12T10:00:00","13.7","ND","ND","ND","ND","3.0","ND","ND","ND","ND","ND","0"],
    [60040,"2017-03-12T11:00:00","7.2","ND","ND","ND","ND","2.8","ND","ND","ND","ND","ND","0"],
    [60041,"2017-03-12T12:00:00","1.7","ND","ND","ND","ND","2.2","ND","ND","ND","ND","ND","0"],
    [60042,"2017-03-12T13:00:00","5.9","ND","ND","ND","ND","2.4","ND","ND","ND","ND","ND","0"],
    [60043,"2017-03-12T14:00:00","7.4","ND","ND","ND","ND","2.4","ND","ND","ND","ND","ND","0"],
    [60044,"2017-03-12T15:00:00","1.6","ND","ND","ND","ND","2.0","ND","ND","ND","ND","ND","0"],
    [60045,"2017-03-12T16:00:00","2.3","ND","ND","ND","ND","2.2","ND","ND","ND","ND","ND","0"],
    [60046,"2017-03-12T17:00:00","ND","ND","ND","ND","ND","2.2","ND","ND","ND","ND","ND","0"],
    [60047,"2017-03-12T18:00:00","ND","ND","ND","ND","ND","2.3","ND","ND","ND","ND","ND","0"],
    [60048,"2017-03-12T19:00:00","5.5","ND","ND","ND","ND","2.0","ND","ND","ND","ND","ND","0"],
    [60049,"2017-03-12T20:00:00","22.5","ND","ND","ND","ND","2.5","ND","ND","ND","ND","ND","0"],
    [60050,"2017-03-12T21:00:00","29.3","ND","ND","ND","ND","2.6","ND","ND","ND","ND","ND","0"],
    [60051,"2017-03-12T22:00:00","18.5","ND","ND","ND","ND","5.6","ND","ND","ND","ND","ND","0"],
    [60052,"2017-03-12T23:00:00","13.8","ND","ND","ND","ND","4.5","ND","ND","ND","ND","ND","0"],
    [60053,"2017-03-13T00:00:00","11.4","ND","ND","ND","ND","11.9","ND","ND","ND","ND","ND","0"],
    [60054,"2017-03-13T01:00:00","17.1","ND","ND","ND","ND","7.6","ND","ND","ND","ND","ND","0"],
    [60055,"2017-03-13T02:00:00","19.7","ND","ND","ND","ND","7.4","ND","ND","ND","ND","ND","0"],
    [60056,"2017-03-13T03:00:00","26.3","ND","ND","ND","ND","6.6","ND","ND","ND","ND","ND","0"],
    [60057,"2017-03-13T04:00:00","13.2","ND","ND","ND","ND","5.7","ND","ND","ND","ND","ND","0"],
    [60058,"2017-03-13T05:00:00","14.6","ND","ND","ND","ND","5.0","ND","ND","ND","ND","ND","0"],
    [60059,"2017-03-13T06:00:00","17.4","ND","ND","ND","ND","6.7","ND","ND","ND","ND","ND","0"],
    [60060,"2017-03-13T07:00:00","28.4","ND","ND","ND","ND","6.0","ND","ND","ND","ND","ND","0"],
    [60061,"2017-03-13T08:00:00","38","ND","ND","ND","ND","6.3","ND","ND","ND","ND","ND","0"],
    [60062,"2017-03-13T09:00:00","39.4","ND","ND","ND","ND","9.8","ND","ND","ND","ND","ND","0"],
    [60063,"2017-03-13T10:00:00","28.2","ND","ND","ND","ND","4.4","ND","ND","ND","ND","ND","0"],
    [60064,"2017-03-13T11:00:00","22.8","ND","ND","ND","17.3","3.0","ND","ND","ND","ND","ND","0"],
    [60065,"2017-03-13T12:00:00","10","ND","ND","ND","24.3","3.3","ND","ND","ND","ND","ND","0"],
    [60066,"2017-03-13T13:00:00","9.4","ND","ND","ND","32.0","2.7","ND","ND","ND","ND","ND","0"],
    [60067,"2017-03-13T14:00:00","13.2","ND","ND","ND","31.5","2.1","ND","ND","ND","ND","ND","0"],
    [60068,"2017-03-13T15:00:00","8.7","ND","ND","ND","42.2","2.3","ND","ND","ND","ND","ND","0"],
    [60069,"2017-03-13T16:00:00","4.1","ND","ND","ND","ND","2.1","ND","ND","ND","ND","ND","0"],
    [60070,"2017-03-13T17:00:00","3","ND","ND","ND","159.9","3.1","ND","ND","ND","ND","ND","0"],
    [60071,"2017-03-13T18:00:00","21.6","ND","ND","ND","55.9","2.7","ND","ND","ND","ND","ND","0"],
    [60072,"2017-03-13T19:00:00","7.3","ND","ND","ND","12.4","2.9","ND","ND","ND","ND","ND","0"],
    [60073,"2017-03-13T20:00:00","4.4","ND","ND","ND","3.0","4.0","ND","ND","ND","ND","ND","0"],
    [60074,"2017-03-13T21:00:00","26.4","ND","ND","ND","0.0","2.7","ND","ND","ND","ND","ND","0"],
    [60075,"2017-03-13T22:00:00","10.9","ND","ND","ND","0.0","3.4","ND","ND","ND","ND","ND","0"],
    [60076,"2017-03-13T23:00:00","6","ND","ND","ND","0.0","3.3","ND","ND","ND","ND","ND","0"],
    [60077,"2017-03-14T00:00:00","6.3","ND","ND","ND","0.0","2.8","ND","ND","ND","ND","ND","0"],
    [60078,"2017-03-14T01:00:00","5.2","ND","ND","ND","0.0","2.6","ND","ND","ND","ND","ND","0"],
    [60079,"2017-03-14T02:00:00","6.1","ND","ND","ND","0.0","2.7","ND","ND","ND","ND","ND","0"],
    [60080,"2017-03-14T03:00:00","11.8","ND","ND","ND","0.0","2.9","ND","ND","ND","ND","ND","0"],
    [60081,"2017-03-14T04:00:00","16.3","ND","ND","ND","0.0","3.3","ND","ND","ND","ND","ND","0"],
    [60082,"2017-03-14T05:00:00","14.3","ND","ND","ND","0.0","3.6","ND","ND","ND","ND","ND","0"],
    [60083,"2017-03-14T06:00:00","16.4","ND","ND","ND","0.0","4.9","ND","ND","ND","ND","ND","0"],
    [60084,"2017-03-14T07:00:00","16.9","ND","ND","ND","0.0","3.2","ND","ND","ND","ND","ND","0"],
    [60085,"2017-03-14T08:00:00","25.3","ND","ND","ND","0.0","4.6","ND","ND","ND","ND","ND","0"],
    [60086,"2017-03-14T09:00:00","33","ND","ND","ND","8.4","6.6","ND","ND","ND","ND","ND","0"],
    [60087,"2017-03-14T10:00:00","19.3","ND","ND","ND","41.3","4.0","ND","ND","ND","ND","ND","0"],
    [60088,"2017-03-14T11:00:00","2","ND","ND","ND","75.3","2.6","ND","ND","ND","ND","ND","0"],
    [60089,"2017-03-14T12:00:00","8.8","ND","ND","ND","75.4","2.5","ND","ND","ND","ND","ND","0"],
    [60090,"2017-03-14T13:00:00","2.5","ND","ND","ND","49.1","2.7","ND","ND","ND","ND","ND","0"],
    [60091,"2017-03-14T14:00:00","2.2","ND","ND","ND","35.1","2.1","ND","ND","ND","ND","ND","0"],
    [60092,"2017-03-14T15:00:00","ND","ND","ND","ND","51.0","1.9","ND","ND","ND","ND","ND","0"],
    [60093,"2017-03-14T16:00:00","ND","ND","ND","ND","51.5","2.7","ND","ND","ND","ND","ND","0"],
    [60094,"2017-03-14T17:00:00","ND","ND","ND","ND","35.3","2.2","ND","ND","ND","ND","ND","0"],
    [60095,"2017-03-14T18:00:00","71.2","ND","ND","ND","18.7","2.6","ND","ND","ND","ND","ND","0"],
    [60096,"2017-03-14T19:00:00","ND","ND","ND","ND","10.9","2.2","ND","ND","ND","ND","ND","0"],
    [60097,"2017-03-14T20:00:00","77","ND","ND","ND","11.7","2.1","ND","ND","ND","ND","ND","0"],
    [60098,"2017-03-14T21:00:00","25.2","ND","ND","ND","9.4","2.3","ND","ND","ND","ND","ND","0"],
    [60099,"2017-03-14T22:00:00","17.4","ND","ND","ND","0.1","3.0","ND","ND","ND","ND","ND","0"],
    [60100,"2017-03-14T23:00:00","21.7","ND","ND","ND","0.9","2.8","ND","ND","ND","ND","ND","0"],
    [60101,"2017-03-15T00:00:00","23","ND","ND","ND","0.3","2.9","ND","ND","ND","ND","ND","0"],
    [60102,"2017-03-15T01:00:00","20.5","ND","ND","ND","0.0","5.4","ND","ND","ND","ND","ND","0"],
    [60103,"2017-03-15T02:00:00","22.1","ND","ND","ND","1.7","3.8","ND","ND","ND","ND","ND","0"],
    [60104,"2017-03-15T03:00:00","16.8","ND","ND","ND","0.1","4.8","ND","ND","ND","ND","ND","0"],
    [60105,"2017-03-15T04:00:00","23.4","ND","ND","ND","0.0","5.7","ND","ND","ND","ND","ND","0"],
    [60106,"2017-03-15T05:00:00","18","ND","ND","ND","0.0","7.1","ND","ND","ND","ND","ND","0"],
    [60107,"2017-03-15T06:00:00","28.2","ND","ND","ND","0.0","5.6","ND","ND","ND","ND","ND","0"],
    [60108,"2017-03-15T07:00:00","20.5","ND","ND","ND","0.0","4.0","ND","ND","ND","ND","ND","0"],
    [60109,"2017-03-15T08:00:00","26.5","ND","ND","ND","0.0","4.0","ND","ND","ND","ND","ND","0"],
    [60110,"2017-03-15T09:00:00","25.2","ND","ND","ND","0.0","4.8","ND","ND","ND","ND","ND","0"],
    [60111,"2017-03-15T10:00:00","20.3","ND","ND","ND","4.3","3.2","ND","ND","ND","ND","ND","0"],
    [60112,"2017-03-15T11:00:00","15.7","ND","ND","ND","9.6","3.2","ND","ND","ND","ND","ND","0"],
    [60113,"2017-03-15T12:00:00","5.1","ND","ND","ND","30.4","2.1","ND","ND","ND","ND","ND","0"],
    [60114,"2017-03-15T13:00:00","8.5","ND","ND","ND","45.9","2.4","ND","ND","ND","ND","ND","0"],
    [60115,"2017-03-15T14:00:00","6.3","ND","ND","ND","83.4","2.5","ND","ND","ND","ND","ND","0"],
    [60116,"2017-03-15T15:00:00","ND","ND","ND","ND","86.5","2.3","ND","ND","ND","ND","ND","0"],
    [60117,"2017-03-15T16:00:00","ND","ND","ND","ND","80.8","2.1","ND","ND","ND","ND","ND","0"],
    [60118,"2017-03-15T17:00:00","6.3","ND","ND","ND","71.0","2.4","ND","ND","ND","ND","ND","0"],
    [60119,"2017-03-15T18:00:00","20.2","ND","ND","ND","40.5","2.8","ND","ND","ND","ND","ND","0"],
    [60120,"2017-03-15T19:00:00","27.9","ND","ND","ND","2.4","3.3","ND","ND","ND","ND","ND","0"],
    [60121,"2017-03-15T20:00:00","25.9","ND","ND","ND","0.2","3.7","ND","ND","ND","ND","ND","0"],
    [60122,"2017-03-15T21:00:00","32.9","ND","ND","ND","0.0","2.8","ND","ND","ND","ND","ND","0"],
    [60123,"2017-03-15T22:00:00","27.3","ND","ND","ND","0.0","4.9","ND","ND","ND","ND","ND","0"],
    [60124,"2017-03-15T23:00:00","22.1","ND","ND","ND","0.0","3.2","ND","ND","ND","ND","ND","0"],
    [60125,"2017-03-16T00:00:00","19.8","ND","ND","ND","0.0","2.9","ND","ND","ND","ND","ND","0"],
    [60126,"2017-03-16T01:00:00","21.1","ND","ND","ND","0.0","3.1","ND","ND","ND","ND","ND","0"],
    [60127,"2017-03-16T02:00:00","28.6","ND","ND","ND","0.0","2.4","ND","ND","ND","ND","ND","0"],
    [60128,"2017-03-16T03:00:00","27.1","ND","ND","ND","0.0","2.8","ND","ND","ND","ND","ND","0"],
    [60129,"2017-03-16T04:00:00","16.6","ND","ND","ND","0.0","3.0","ND","ND","ND","ND","ND","0"],
    [60130,"2017-03-16T05:00:00","19.1","ND","ND","ND","0.2","5.6","ND","ND","ND","ND","ND","0"],
    [60131,"2017-03-16T06:00:00","28.7","ND","ND","ND","0.0","4.5","ND","ND","ND","ND","ND","0"],
    [60132,"2017-03-16T07:00:00","36.1","ND","ND","ND","0.0","4.1","ND","ND","ND","ND","ND","0"],
    [60133,"2017-03-16T08:00:00","38.8","ND","ND","ND","0.0","7.2","ND","ND","ND","ND","ND","0"],
    [60134,"2017-03-16T09:00:00","34.7","ND","ND","ND","3.8","9.3","ND","ND","ND","ND","ND","0"],
    [60135,"2017-03-16T10:00:00","48.9","ND","ND","ND","24.7","6.3","ND","ND","ND","ND","ND","0"],
    [60136,"2017-03-16T11:00:00","15.7","ND","ND","ND","56.6","3.5","ND","ND","ND","ND","ND","0"],
    [60137,"2017-03-16T12:00:00","3.3","ND","ND","ND","79.3","3.1","ND","ND","ND","ND","ND","0"],
    [60138,"2017-03-16T13:00:00","3.5","ND","ND","ND","112.6","2.6","ND","ND","ND","ND","ND","0"],
    [60139,"2017-03-16T14:00:00","12.2","ND","ND","ND","120.3","2.3","ND","ND","ND","ND","ND","0"],
    [60140,"2017-03-16T15:00:00","12.9","ND","ND","ND","117.8","2.6","ND","ND","ND","ND","ND","0"],
    [60141,"2017-03-16T16:00:00","11.3","ND","ND","ND","59.9","2.2","ND","ND","ND","ND","ND","0"],
    [60142,"2017-03-16T17:00:00","10.9","ND","ND","ND","27.9","2.9","ND","ND","ND","ND","ND","0"],
    [60143,"2017-03-16T18:00:00","5.3","ND","ND","ND","22.8","2.5","ND","ND","ND","ND","ND","0"],
    [60144,"2017-03-16T19:00:00","ND","ND","ND","ND","16.9","2.5","ND","ND","ND","ND","ND","0"],
    [60145,"2017-03-16T20:00:00","6.8","ND","ND","ND","3.3","2.8","ND","ND","ND","ND","ND","0"],
    [60146,"2017-03-16T21:00:00","21.3","ND","ND","ND","0.5","3.2","ND","ND","ND","ND","ND","0"],
    [60147,"2017-03-16T22:00:00","30.3","ND","ND","ND","0.5","3.2","ND","ND","ND","ND","ND","0"],
    [60148,"2017-03-16T23:00:00","29.2","ND","ND","ND","0.2","3.9","ND","ND","ND","ND","ND","0"],
    [60149,"2017-03-17T00:00:00","23.5","ND","ND","ND","1.3","3.7","ND","ND","ND","ND","ND","0"],
    [60150,"2017-03-17T01:00:00","9","ND","ND","ND","0.4","3.3","ND","ND","ND","ND","ND","0"],
    [60151,"2017-03-17T02:00:00","2.3","ND","ND","ND","0.2","3.2","ND","ND","ND","ND","ND","0"],
    [60152,"2017-03-17T03:00:00","4.4","ND","ND","ND","1.8","3.2","ND","ND","ND","ND","ND","0"],
    [60153,"2017-03-17T04:00:00","14","ND","ND","ND","0.1","3.9","ND","ND","ND","ND","ND","0"],
    [60154,"2017-03-17T05:00:00","26.6","ND","ND","ND","2.7","3.7","ND","ND","ND","ND","ND","0"],
    [60155,"2017-03-17T06:00:00","17.4","ND","ND","ND","12.3","2.1","ND","ND","ND","ND","ND","0"],
    [60156,"2017-03-17T07:00:00","3.9","ND","ND","ND","1.9","2.1","ND","ND","ND","ND","ND","0"],
    [60157,"2017-03-17T08:00:00","16.3","ND","ND","ND","0.3","2.6","ND","ND","ND","ND","ND","0"],
    [60158,"2017-03-17T09:00:00","13.8","ND","ND","ND","0.6","3.2","ND","ND","ND","ND","ND","0"],
    [60159,"2017-03-17T10:00:00","19.1","ND","ND","ND","3.0","2.9","ND","ND","ND","ND","ND","0"],
    [60160,"2017-03-17T11:00:00","31.2","ND","ND","ND","5.4","5.2","ND","ND","ND","ND","ND","0"],
    [60161,"2017-03-17T12:00:00","18","ND","ND","ND","23.0","2.6","ND","ND","ND","ND","ND","0"],
    [60162,"2017-03-17T13:00:00","ND","ND","ND","ND","47.5","2.3","ND","ND","ND","ND","ND","0"],
    [60163,"2017-03-17T14:00:00","2.9","ND","ND","ND","64.6","2.1","ND","ND","ND","ND","ND","0"],
    [60164,"2017-03-17T15:00:00","1.8","ND","ND","ND","54.9","2.3","ND","ND","ND","ND","ND","0"],
    [60165,"2017-03-17T16:00:00","3.5","ND","ND","ND","45.5","2.8","ND","ND","ND","ND","ND","0"],
    [60166,"2017-03-17T17:00:00","18.7","ND","ND","ND","23.6","2.0","ND","ND","ND","ND","ND","0"],
    [60167,"2017-03-17T18:00:00","1.1","ND","ND","ND","17.8","2.0","ND","ND","ND","ND","ND","0"],
    [60168,"2017-03-17T19:00:00","ND","ND","ND","ND","3.6","2.5","ND","ND","ND","ND","ND","0"],
    [60169,"2017-03-17T20:00:00","8.3","ND","ND","ND","0.1","2.1","ND","ND","ND","ND","ND","0"],
    [60170,"2017-03-17T21:00:00","25.6","ND","ND","ND","0.3","2.4","ND","ND","ND","ND","ND","0"],
    [60171,"2017-03-17T22:00:00","36.8","ND","ND","ND","0.2","2.3","ND","ND","ND","ND","ND","0"],
    [60172,"2017-03-17T23:00:00","29.2","ND","ND","ND","0.1","3.5","ND","ND","ND","ND","ND","0"],
    [60173,"2017-03-18T00:00:00","39.2","ND","ND","ND","0.1","3.9","ND","ND","ND","ND","ND","0"],
    [60174,"2017-03-18T01:00:00","28.8","ND","ND","ND","0.0","4.1","ND","ND","ND","ND","ND","0"],
    [60175,"2017-03-18T02:00:00","11.5","ND","ND","ND","0.0","3.6","ND","ND","ND","ND","ND","0"],
    [60176,"2017-03-18T03:00:00","14.8","ND","ND","ND","0.3","3.9","ND","ND","ND","ND","ND","0"],
    [60177,"2017-03-18T04:00:00","14.3","ND","ND","ND","0.4","3.7","ND","ND","ND","ND","ND","0"],
    [60178,"2017-03-18T05:00:00","14.4","ND","ND","ND","0.0","3.5","ND","ND","ND","ND","ND","0"],
    [60179,"2017-03-18T06:00:00","14.9","ND","ND","ND","0.0","3.4","ND","ND","ND","ND","ND","0"],
    [60180,"2017-03-18T07:00:00","18.5","ND","ND","ND","0.0","3.5","ND","ND","ND","ND","ND","0"],
    [60181,"2017-03-18T08:00:00","28.6","ND","ND","ND","5.0","3.1","ND","ND","ND","ND","ND","0"],
    [60182,"2017-03-18T09:00:00","15","ND","ND","ND","22.0","2.9","ND","ND","ND","ND","ND","0"],
    [60183,"2017-03-18T10:00:00","5.4","ND","ND","ND","36.4","2.6","ND","ND","ND","ND","ND","0"],
    [60184,"2017-03-18T11:00:00","5.4","ND","ND","ND","43.7","3.2","ND","ND","ND","ND","ND","0"],
    [60185,"2017-03-18T12:00:00","13.7","ND","ND","ND","52.2","2.1","ND","ND","ND","ND","ND","0"],
    [60186,"2017-03-18T13:00:00","6.9","ND","ND","ND","66.7","2.3","ND","ND","ND","ND","ND","0"],
    [60187,"2017-03-18T14:00:00","ND","ND","ND","ND","75.7","1.4","ND","ND","ND","ND","ND","0"],
    [60188,"2017-03-18T15:00:00","2","ND","ND","ND","74.8","2.1","ND","ND","ND","ND","ND","0"],
    [60189,"2017-03-18T16:00:00","11.4","ND","ND","ND","79.2","2.3","ND","ND","ND","ND","ND","0"],
    [60190,"2017-03-18T17:00:00","14.5","ND","ND","ND","27.5","2.4","ND","ND","ND","ND","ND","0"],
    [60191,"2017-03-18T18:00:00","3.4","ND","ND","ND","26.8","2.6","ND","ND","ND","ND","ND","0"],
    [60192,"2017-03-18T19:00:00","9.5","ND","ND","ND","27.7","2.4","ND","ND","ND","ND","ND","0"],
    [60193,"2017-03-18T20:00:00","28","ND","ND","ND","28.1","2.8","ND","ND","ND","ND","ND","0"],
    [60194,"2017-03-18T21:00:00","27.3","ND","ND","ND","26.5","5.0","ND","ND","ND","ND","ND","0"],
    [60195,"2017-03-18T22:00:00","21.5","ND","ND","ND","3.1","6.2","ND","ND","ND","ND","ND","0"],
    [60196,"2017-03-18T23:00:00","26.9","ND","ND","ND","1.0","4.6","ND","ND","ND","ND","ND","0"],
    [60197,"2017-03-19T00:00:00","22.7","ND","ND","ND","4.2","2.8","ND","ND","ND","ND","ND","0"],
    [60198,"2017-03-19T01:00:00","10","ND","ND","ND","2.9","2.2","ND","ND","ND","ND","ND","0"],
    [60199,"2017-03-19T02:00:00","12.5","ND","ND","ND","0.4","3.2","ND","ND","ND","ND","ND","0"],
    [60200,"2017-03-19T03:00:00","17.6","ND","ND","ND","1.4","4.2","ND","ND","ND","ND","ND","0"],
    [60201,"2017-03-19T04:00:00","20.1","ND","ND","ND","4.1","5.0","ND","ND","ND","ND","ND","0"],
    [60202,"2017-03-19T05:00:00","20.2","ND","ND","ND","6.3","3.1","ND","ND","ND","ND","ND","0"],
    [60203,"2017-03-19T06:00:00","12.4","ND","ND","ND","2.0","3.7","ND","ND","ND","ND","ND","0"],
    [60204,"2017-03-19T07:00:00","11.9","ND","ND","ND","2.2","3.6","ND","ND","ND","ND","ND","0"],
    [60205,"2017-03-19T08:00:00","11.3","ND","ND","ND","1.6","3.6","ND","ND","ND","ND","ND","0"],
    [60206,"2017-03-19T09:00:00","13.8","ND","ND","ND","10.8","3.9","ND","ND","ND","ND","ND","0"],
    [60207,"2017-03-19T10:00:00","12.8","ND","ND","ND","17.0","4.6","ND","ND","ND","ND","ND","0"],
    [60208,"2017-03-19T11:00:00","26.5","ND","ND","ND","23.8","4.9","ND","ND","ND","ND","ND","0"],
    [60209,"2017-03-19T12:00:00","12.8","ND","ND","ND","63.4","2.7","ND","ND","ND","ND","ND","0"],
    [60210,"2017-03-19T13:00:00","2.4","ND","ND","ND","88.8","2.0","ND","ND","ND","ND","ND","0"],
    [60211,"2017-03-19T14:00:00","9.9","ND","ND","ND","100.6","2.1","ND","ND","ND","ND","ND","0"],
    [60212,"2017-03-19T15:00:00","19.2","ND","ND","ND","122.1","2.6","ND","ND","ND","ND","ND","0"],
    [60213,"2017-03-19T16:00:00","10.2","ND","ND","ND","66.2","2.1","ND","ND","ND","ND","ND","0"],
    [60214,"2017-03-19T17:00:00","ND","ND","ND","ND","25.2","2.0","ND","ND","ND","ND","ND","0"],
    [60215,"2017-03-19T18:00:00","6.7","ND","ND","ND","21.3","2.4","ND","ND","ND","ND","ND","0"],
    [60216,"2017-03-19T19:00:00","13.4","ND","ND","ND","9.2","3.0","ND","ND","ND","ND","ND","0"],
    [60217,"2017-03-19T20:00:00","27.5","ND","ND","ND","13.9","3.3","ND","ND","ND","ND","ND","0"],
    [60218,"2017-03-19T21:00:00","19.9","ND","ND","ND","2.6","2.8","ND","ND","ND","ND","ND","0"],
    [60219,"2017-03-19T22:00:00","20.8","ND","ND","ND","0.7","3.2","ND","ND","ND","ND","ND","0"],
    [60220,"2017-03-19T23:00:00","12.8","ND","ND","ND","0.7","4.2","ND","ND","ND","ND","ND","0"],
    [60221,"2017-03-20T00:00:00","12.2","ND","ND","ND","0.5","5.0","ND","ND","ND","ND","ND","0"],
    [60222,"2017-03-20T01:00:00","12.8","ND","ND","ND","0.6","4.2","ND","ND","ND","ND","ND","0"],
    [60223,"2017-03-20T02:00:00","17.8","ND","ND","ND","0.4","3.9","ND","ND","ND","ND","ND","0"],
    [60224,"2017-03-20T03:00:00","16.1","ND","ND","ND","0.5","7.0","ND","ND","ND","ND","ND","0"],
    [60225,"2017-03-20T04:00:00","16","ND","ND","ND","0.5","7.4","ND","ND","ND","ND","ND","0"],
    [60226,"2017-03-20T05:00:00","18.7","ND","ND","ND","0.4","6.0","ND","ND","ND","ND","ND","0"],
    [60227,"2017-03-20T06:00:00","17.2","ND","ND","ND","0.3","4.8","ND","ND","ND","ND","ND","0"],
    [60228,"2017-03-20T07:00:00","21.5","ND","ND","ND","0.3","4.8","ND","ND","ND","ND","ND","0"],
    [60229,"2017-03-20T08:00:00","14.5","ND","ND","ND","13.4","2.3","ND","ND","ND","ND","ND","0"],
    [60230,"2017-03-20T09:00:00","6.1","ND","ND","ND","11.2","2.6","ND","ND","ND","ND","ND","0"],
    [60231,"2017-03-20T10:00:00","31.7","ND","ND","ND","13.2","2.9","ND","ND","ND","ND","ND","0"],
    [60232,"2017-03-20T11:00:00","22.9","ND","ND","ND","39.9","2.9","ND","ND","ND","ND","ND","0"],
    [60233,"2017-03-20T12:00:00","6.1","ND","ND","ND","58.2","2.4","ND","ND","ND","ND","ND","0"],
    [60234,"2017-03-20T13:00:00","ND","ND","ND","ND","80.3","2.3","ND","ND","ND","ND","ND","0"],
    [60235,"2017-03-20T14:00:00","ND","ND","ND","ND","91.6","2.5","ND","ND","ND","ND","ND","0"],
    [60236,"2017-03-20T15:00:00","ND","ND","ND","ND","94.7","2.6","ND","ND","ND","ND","ND","0"],
    [60237,"2017-03-20T16:00:00","ND","ND","ND","ND","67.1","2.3","ND","ND","ND","ND","ND","0"],
    [60238,"2017-03-20T17:00:00","2.4","ND","ND","ND","57.7","2.7","ND","ND","ND","ND","ND","0"],
    [60239,"2017-03-20T18:00:00","ND","ND","ND","ND","37.5","2.3","ND","ND","ND","ND","ND","0"],
    [60240,"2017-03-20T19:00:00","4.4","ND","ND","ND","18.3","2.2","ND","ND","ND","ND","ND","0"],
    [60241,"2017-03-20T20:00:00","23.7","ND","ND","ND","11.5","2.7","ND","ND","ND","ND","ND","0"],
    [60242,"2017-03-20T21:00:00","40.5","ND","ND","ND","2.2","3.2","ND","ND","ND","ND","ND","0"],
    [60243,"2017-03-20T22:00:00","37.3","ND","ND","ND","9.0","2.2","ND","ND","ND","ND","ND","0"],
    [60244,"2017-03-20T23:00:00","11.5","ND","ND","ND","2.6","2.2","ND","ND","ND","ND","ND","0"],
    [60245,"2017-03-21T00:00:00","13.8","ND","ND","ND","0.5","3.3","ND","ND","ND","ND","ND","0"],
    [60246,"2017-03-21T01:00:00","12.4","ND","ND","ND","0.6","3.4","ND","ND","ND","ND","ND","0"],
    [60247,"2017-03-21T02:00:00","10.9","ND","ND","ND","0.6","3.4","ND","ND","ND","ND","ND","0"],
    [60248,"2017-03-21T03:00:00","11.2","ND","ND","ND","0.6","4.6","ND","ND","ND","ND","ND","0"],
    [60249,"2017-03-21T04:00:00","24.9","ND","ND","ND","0.7","7.3","ND","ND","ND","ND","ND","0"],
    [60250,"2017-03-21T05:00:00","29.5","ND","ND","ND","0.6","7.0","ND","ND","ND","ND","ND","0"],
    [60251,"2017-03-21T06:00:00","26","ND","ND","ND","0.6","6.7","ND","ND","ND","ND","ND","0"],
    [60252,"2017-03-21T07:00:00","24.6","ND","ND","ND","0.5","5.0","ND","ND","ND","ND","ND","0"],
    [60253,"2017-03-21T08:00:00","31","ND","ND","ND","1.1","7.1","ND","ND","ND","ND","ND","0"],
    [60254,"2017-03-21T09:00:00","43.1","ND","ND","ND","4.6","10.6","ND","ND","ND","ND","ND","0"],
    [60255,"2017-03-21T10:00:00","29.7","ND","ND","ND","11.7","5.6","ND","ND","ND","ND","ND","0"],
    [60256,"2017-03-21T11:00:00","13.5","ND","ND","ND","37.4","3.7","ND","ND","ND","ND","ND","0"],
    [60257,"2017-03-21T12:00:00","6.1","ND","ND","ND","76.1","2.9","ND","ND","ND","ND","ND","0"],
    [60258,"2017-03-21T13:00:00","2.7","ND","ND","ND","92.7","2.5","ND","ND","ND","ND","ND","0"],
    [60259,"2017-03-21T14:00:00","14.7","ND","ND","ND","97.9","2.4","ND","ND","ND","ND","ND","0"],
    [60260,"2017-03-21T15:00:00","16.4","ND","ND","ND","103.6","2.5","ND","ND","ND","ND","ND","0"],
    [60261,"2017-03-21T16:00:00","12.9","ND","ND","ND","86.3","2.4","ND","ND","ND","ND","ND","0"],
    [60262,"2017-03-21T17:00:00","3.8","ND","ND","ND","42.9","2.6","ND","ND","ND","ND","ND","0"],
    [60263,"2017-03-21T18:00:00","ND","ND","ND","ND","18.4","3.1","ND","ND","ND","ND","ND","0"],
    [60264,"2017-03-21T19:00:00","4.1","ND","ND","ND","2.2","2.9","ND","ND","ND","ND","ND","0"],
    [60265,"2017-03-21T20:00:00","23.4","ND","ND","ND","5.9","4.7","ND","ND","ND","ND","ND","0"],
    [60266,"2017-03-21T21:00:00","34.4","ND","ND","ND","1.8","2.9","ND","ND","ND","ND","ND","0"],
    [60267,"2017-03-21T22:00:00","46.6","ND","ND","ND","1.5","3.2","ND","ND","ND","ND","ND","0"],
    [60268,"2017-03-21T23:00:00","35.1","ND","ND","ND","1.0","3.3","ND","ND","ND","ND","ND","0"],
    [60269,"2017-03-22T00:00:00","29.5","ND","ND","ND","1.1","6.0","ND","ND","ND","ND","ND","0"],
    [60270,"2017-03-22T01:00:00","19.7","ND","ND","ND","1.0","7.0","ND","ND","ND","ND","ND","0"],
    [60271,"2017-03-22T02:00:00","4.9","ND","ND","ND","0.8","5.1","ND","ND","ND","ND","ND","0"],
    [60272,"2017-03-22T03:00:00","15.6","ND","ND","ND","0.7","5.3","ND","ND","ND","ND","ND","0"],
    [60273,"2017-03-22T04:00:00","28.6","ND","ND","ND","0.9","4.8","ND","ND","ND","ND","ND","0"],
    [60274,"2017-03-22T05:00:00","21.3","ND","ND","ND","2.6","4.2","ND","ND","ND","ND","ND","0"],
    [60275,"2017-03-22T06:00:00","4.8","ND","ND","ND","0.7","3.5","ND","ND","ND","ND","ND","0"],
    [60276,"2017-03-22T07:00:00","19.3","ND","ND","ND","0.4","2.8","ND","ND","ND","ND","ND","0"],
    [60277,"2017-03-22T08:00:00","24.3","ND","ND","ND","0.6","2.8","ND","ND","ND","ND","ND","0"],
    [60278,"2017-03-22T09:00:00","17.2","ND","ND","ND","2.5","3.8","ND","ND","ND","ND","ND","0"],
    [60279,"2017-03-22T10:00:00","25.2","ND","ND","ND","26.4","3.3","ND","ND","ND","ND","ND","0"],
    [60280,"2017-03-22T11:00:00","11.7","ND","ND","ND","75.6","3.1","ND","ND","ND","ND","ND","0"],
    [60281,"2017-03-22T12:00:00","5.6","ND","ND","ND","113.3","2.9","ND","ND","ND","ND","ND","0"],
    [60282,"2017-03-22T13:00:00","10.3","ND","ND","ND","101.4","2.1","ND","ND","ND","ND","ND","0"],
    [60283,"2017-03-22T14:00:00","3.3","ND","ND","ND","39.0","2.2","ND","ND","ND","ND","ND","0"],
    [60284,"2017-03-22T15:00:00","ND","ND","ND","ND","31.6","2.2","ND","ND","ND","ND","ND","0"],
    [60285,"2017-03-22T16:00:00","ND","ND","ND","ND","25.3","2.0","ND","ND","ND","ND","ND","0"],
    [60286,"2017-03-22T17:00:00","ND","ND","ND","ND","16.5","2.2","ND","ND","ND","ND","ND","0"],
    [60287,"2017-03-22T18:00:00","ND","ND","ND","ND","10.5","2.8","ND","ND","ND","ND","ND","0"],
    [60288,"2017-03-22T19:00:00","26.1","ND","ND","ND","2.3","2.3","ND","ND","ND","ND","ND","0"],
    [60289,"2017-03-22T20:00:00","36.6","ND","ND","ND","0.3","1.8","ND","ND","ND","ND","ND","0"],
    [60290,"2017-03-22T21:00:00","34.1","ND","ND","ND","0.9","3.2","ND","ND","ND","ND","ND","0"],
    [60291,"2017-03-22T22:00:00","23.5","ND","ND","ND","0.4","4.2","ND","ND","ND","ND","ND","0"],
    [60292,"2017-03-22T23:00:00","20.4","ND","ND","ND","0.3","3.5","ND","ND","ND","ND","ND","0"],
    [60293,"2017-03-23T00:00:00","10.7","ND","ND","ND","0.3","3.4","ND","ND","ND","ND","ND","0"],
    [60294,"2017-03-23T01:00:00","10.9","ND","ND","ND","0.1","4.4","ND","ND","ND","ND","ND","0"],
    [60295,"2017-03-23T02:00:00","4.4","ND","ND","ND","0.1","2.4","ND","ND","ND","ND","ND","0"],
    [60296,"2017-03-23T03:00:00","4.5","ND","ND","ND","0.1","3.2","ND","ND","ND","ND","ND","0"],
    [60297,"2017-03-23T04:00:00","8.5","ND","ND","ND","0.1","3.4","ND","ND","ND","ND","ND","0"],
    [60298,"2017-03-23T05:00:00","13.2","ND","ND","ND","0.1","3.1","ND","ND","ND","ND","ND","0"],
    [60299,"2017-03-23T06:00:00","16.2","ND","ND","ND","0.2","4.0","ND","ND","ND","ND","ND","0"],
    [60300,"2017-03-23T07:00:00","23.1","ND","ND","ND","0.2","6.5","ND","ND","ND","ND","ND","0"],
    [60301,"2017-03-23T08:00:00","29","ND","ND","ND","0.2","8.4","ND","ND","ND","ND","ND","0"],
    [60302,"2017-03-23T09:00:00","32.8","ND","ND","ND","7.4","6.3","ND","ND","ND","ND","ND","0"],
    [60303,"2017-03-23T10:00:00","23.1","ND","ND","ND","28.1","4.6","ND","ND","ND","ND","ND","0"],
    [60304,"2017-03-23T11:00:00","15.8","ND","ND","ND","59.8","3.0","ND","ND","ND","ND","ND","0"],
    [60305,"2017-03-23T12:00:00","7.8","ND","ND","ND","115.4","2.5","ND","ND","ND","ND","ND","0"],
    [60306,"2017-03-23T13:00:00","16.7","ND","ND","ND","156.6","2.8","ND","ND","ND","ND","ND","0"],
    [60307,"2017-03-23T14:00:00","16.9","ND","ND","ND","146.2","2.4","ND","ND","ND","ND","ND","0"],
    [60308,"2017-03-23T15:00:00","9.5","ND","ND","ND","95.0","2.6","ND","ND","ND","ND","ND","0"],
    [60309,"2017-03-23T16:00:00","ND","ND","ND","ND","28.1","3.1","ND","ND","ND","ND","ND","0"],
    [60310,"2017-03-23T17:00:00","9.4","ND","ND","ND","17.2","3.6","ND","ND","ND","ND","ND","0"],
    [60311,"2017-03-23T18:00:00","13.8","ND","ND","ND","16.3","2.5","ND","ND","ND","ND","ND","0"],
    [60312,"2017-03-23T19:00:00","ND","ND","ND","ND","13.4","2.8","ND","ND","ND","ND","ND","0"],
    [60313,"2017-03-23T20:00:00","ND","ND","ND","ND","13.3","2.4","ND","ND","ND","ND","ND","0"],
    [60314,"2017-03-23T21:00:00","26.3","ND","ND","ND","10.0","2.6","ND","ND","ND","ND","ND","0"],
    [60315,"2017-03-23T22:00:00","34","ND","ND","ND","6.3","3.8","ND","ND","ND","ND","ND","0"],
    [60316,"2017-03-23T23:00:00","27.5","ND","ND","ND","0.2","5.5","ND","ND","ND","ND","ND","0"],
    [60317,"2017-03-24T00:00:00","19.4","ND","ND","ND","0.2","5.3","ND","ND","ND","ND","ND","0"],
    [60318,"2017-03-24T01:00:00","10.7","ND","ND","ND","0.2","4.3","ND","ND","ND","ND","ND","0"],
    [60319,"2017-03-24T02:00:00","ND","ND","ND","ND","0.2","4.4","ND","ND","ND","ND","ND","0"],
    [60320,"2017-03-24T03:00:00","ND","ND","ND","ND","0.1","3.8","ND","ND","ND","ND","ND","0"],
    [60321,"2017-03-24T04:00:00","4.6","ND","ND","ND","0.1","4.7","ND","ND","ND","ND","ND","0"],
    [60322,"2017-03-24T05:00:00","8","ND","ND","ND","0.1","3.7","ND","ND","ND","ND","ND","0"],
    [60323,"2017-03-24T06:00:00","5.1","ND","ND","ND","0.1","3.5","ND","ND","ND","ND","ND","0"],
    [60324,"2017-03-24T07:00:00","13","ND","ND","ND","0.0","3.1","ND","ND","ND","ND","ND","0"],
    [60325,"2017-03-24T08:00:00","9.3","ND","ND","ND","0.1","2.4","ND","ND","ND","ND","ND","0"],
    [60326,"2017-03-24T09:00:00","7.2","ND","ND","ND","0.5","2.4","ND","ND","ND","ND","ND","0"],
    [60327,"2017-03-24T10:00:00","11.8","ND","ND","ND","9.4","2.4","ND","ND","ND","ND","ND","0"],
    [60328,"2017-03-24T11:00:00","3.8","ND","ND","ND","28.5","2.3","ND","ND","ND","ND","ND","0"],
    [60329,"2017-03-24T12:00:00","9.6","ND","ND","ND","40.5","2.3","ND","ND","ND","ND","ND","0"],
    [60330,"2017-03-24T13:00:00","4.6","ND","ND","ND","63.8","2.4","ND","ND","ND","ND","ND","0"],
    [60331,"2017-03-24T14:00:00","4.7","ND","ND","ND","89.3","2.7","ND","ND","ND","ND","ND","0"],
    [60332,"2017-03-24T15:00:00","7.6","ND","ND","ND","103.2","1.7","ND","ND","ND","ND","ND","0"],
    [60333,"2017-03-24T16:00:00","7.9","ND","ND","ND","92.4","2.8","ND","ND","ND","ND","ND","0"],
    [60334,"2017-03-24T17:00:00","19.7","ND","ND","ND","82.9","2.0","ND","ND","ND","ND","ND","0"],
    [60335,"2017-03-24T18:00:00","4.8","ND","ND","ND","35.0","2.4","ND","ND","ND","ND","ND","0"],
    [60336,"2017-03-24T19:00:00","ND","ND","ND","ND","4.1","2.3","ND","ND","ND","ND","ND","0"],
    [60337,"2017-03-24T20:00:00","ND","ND","ND","ND","0.4","2.7","ND","ND","ND","ND","ND","0"],
    [60338,"2017-03-24T21:00:00","11.7","ND","ND","ND","0.1","2.7","ND","ND","ND","ND","ND","0"],
    [60339,"2017-03-24T22:00:00","21.1","ND","ND","ND","0.1","2.8","ND","ND","ND","ND","ND","0"],
    [60340,"2017-03-24T23:00:00","26.4","ND","ND","ND","0.2","3.2","ND","ND","ND","ND","ND","0"],
    [60341,"2017-03-25T00:00:00","25.8","ND","ND","ND","1.2","2.7","ND","ND","ND","ND","ND","0"],
    [60342,"2017-03-25T01:00:00","9.9","ND","ND","ND","2.2","3.0","ND","ND","ND","ND","ND","0"],
    [60343,"2017-03-25T02:00:00","1.5","ND","ND","ND","0.6","3.8","ND","ND","ND","ND","ND","0"],
    [60344,"2017-03-25T03:00:00","31.2","ND","ND","ND","0.1","5.4","ND","ND","ND","ND","ND","0"],
    [60345,"2017-03-25T04:00:00","39.4","ND","ND","ND","0.1","5.0","ND","ND","ND","ND","ND","0"],
    [60346,"2017-03-25T05:00:00","22.7","ND","ND","ND","0.0","4.3","ND","ND","ND","ND","ND","0"],
    [60347,"2017-03-25T06:00:00","23.3","ND","ND","ND","0.0","3.8","ND","ND","ND","ND","ND","0"],
    [60348,"2017-03-25T07:00:00","15","ND","ND","ND","0.0","2.7","ND","ND","ND","ND","ND","0"],
    [60349,"2017-03-25T08:00:00","44.8","ND","ND","ND","3.2","4.1","ND","ND","ND","ND","ND","0"],
    [60350,"2017-03-25T09:00:00","41.8","ND","ND","ND","19.6","4.2","ND","ND","ND","ND","ND","0"],
    [60351,"2017-03-25T10:00:00","16.7","ND","ND","ND","62.2","3.2","ND","ND","ND","ND","ND","0"],
    [60352,"2017-03-25T11:00:00","11","ND","ND","ND","85.8","2.9","ND","ND","ND","ND","ND","0"],
    [60353,"2017-03-25T12:00:00","14.4","ND","ND","ND","110.3","2.9","ND","ND","ND","ND","ND","0"],
    [60354,"2017-03-25T13:00:00","12.2","ND","ND","ND","114.0","2.3","ND","ND","ND","ND","ND","0"],
    [60355,"2017-03-25T14:00:00","12.5","ND","ND","ND","114.8","1.9","ND","ND","ND","ND","ND","0"],
    [60356,"2017-03-25T15:00:00","10.8","ND","ND","ND","122.9","2.6","ND","ND","ND","ND","ND","0"],
    [60357,"2017-03-25T16:00:00","15.6","ND","ND","ND","88.4","3.0","ND","ND","ND","ND","ND","0"],
    [60358,"2017-03-25T17:00:00","ND","ND","ND","ND","22.8","1.9","ND","ND","ND","ND","ND","0"],
    [60359,"2017-03-25T18:00:00","7.4","ND","ND","ND","2.6","1.6","ND","ND","ND","ND","ND","0"],
    [60360,"2017-03-25T19:00:00","29.9","ND","ND","ND","9.4","3.4","ND","ND","ND","ND","ND","0"],
    [60361,"2017-03-25T20:00:00","18.4","ND","ND","ND","11.8","2.3","ND","ND","ND","ND","ND","0"],
    [60362,"2017-03-25T21:00:00","11.7","ND","ND","ND","0.5","2.5","ND","ND","ND","ND","ND","0"],
    [60363,"2017-03-25T22:00:00","11.6","ND","ND","ND","0.5","2.8","ND","ND","ND","ND","ND","0"],
    [60364,"2017-03-25T23:00:00","13.5","ND","ND","ND","0.3","2.8","ND","ND","ND","ND","ND","0"],
    [60365,"2017-03-26T00:00:00","21.1","ND","ND","ND","0.4","2.7","ND","ND","ND","ND","ND","0"],
    [60366,"2017-03-26T01:00:00","12.1","ND","ND","ND","0.5","3.5","ND","ND","ND","ND","ND","0"],
    [60367,"2017-03-26T02:00:00","21.2","ND","ND","ND","1.7","5.6","ND","ND","ND","ND","ND","0"],
    [60368,"2017-03-26T03:00:00","10","ND","ND","ND","4.4","4.1","ND","ND","ND","ND","ND","0"],
    [60369,"2017-03-26T04:00:00","11.8","ND","ND","ND","4.7","3.6","ND","ND","ND","ND","ND","0"],
    [60370,"2017-03-26T05:00:00","11.7","ND","ND","ND","6.0","4.1","ND","ND","ND","ND","ND","0"],
    [60371,"2017-03-26T06:00:00","13.1","ND","ND","ND","1.8","5.6","ND","ND","ND","ND","ND","0"],
    [60372,"2017-03-26T07:00:00","5.4","ND","ND","ND","2.8","4.4","ND","ND","ND","ND","ND","0"],
    [60373,"2017-03-26T08:00:00","7.7","ND","ND","ND","2.0","5.4","ND","ND","ND","ND","ND","0"],
    [60374,"2017-03-26T09:00:00","7.5","ND","ND","ND","0.6","3.4","ND","ND","ND","ND","ND","0"],
    [60375,"2017-03-26T10:00:00","7.6","ND","ND","ND","1.9","2.9","ND","ND","ND","ND","ND","0"],
    [60376,"2017-03-26T11:00:00","12","ND","ND","ND","8.9","3.7","ND","ND","ND","ND","ND","0"],
    [60377,"2017-03-26T12:00:00","3.3","ND","ND","ND","13.7","2.5","ND","ND","ND","ND","ND","0"],
    [60378,"2017-03-26T13:00:00","ND","ND","ND","ND","19.4","2.6","ND","ND","ND","ND","ND","0"],
    [60379,"2017-03-26T14:00:00","ND","ND","ND","ND","38.2","2.0","ND","ND","ND","ND","ND","0"],
    [60380,"2017-03-26T15:00:00","1","ND","ND","ND","60.0","2.7","ND","ND","ND","ND","ND","0"],
    [60381,"2017-03-26T16:00:00","7.3","ND","ND","ND","65.9","2.4","ND","ND","ND","ND","ND","0"],
    [60382,"2017-03-26T17:00:00","5.6","ND","ND","ND","82.7","2.4","ND","ND","ND","ND","ND","0"],
    [60383,"2017-03-26T18:00:00","ND","ND","ND","ND","65.2","2.5","ND","ND","ND","ND","ND","0"],
    [60384,"2017-03-26T19:00:00","13.3","ND","ND","ND","10.7","4.4","ND","ND","ND","ND","ND","0"],
    [60385,"2017-03-26T20:00:00","34.2","ND","ND","ND","2.4","3.5","ND","ND","ND","ND","ND","0"],
    [60386,"2017-03-26T21:00:00","21.7","ND","ND","ND","11.5","4.1","ND","ND","ND","ND","ND","0"],
    [60387,"2017-03-26T22:00:00","13.8","ND","ND","ND","0.6","4.3","ND","ND","ND","ND","ND","0"],
    [60388,"2017-03-26T23:00:00","13.9","ND","ND","ND","0.2","4.0","ND","ND","ND","ND","ND","0"],
    [60389,"2017-03-27T00:00:00","15.5","ND","ND","ND","0.3","2.8","ND","ND","ND","ND","ND","0"],
    [60390,"2017-03-27T01:00:00","8.9","ND","ND","ND","1.0","3.4","ND","ND","ND","ND","ND","0"],
    [60391,"2017-03-27T02:00:00","2","ND","ND","ND","0.1","3.4","ND","ND","ND","ND","ND","0"],
    [60392,"2017-03-27T03:00:00","13.2","ND","ND","ND","0.0","3.0","ND","ND","ND","ND","ND","0"],
    [60393,"2017-03-27T04:00:00","15.2","ND","ND","ND","0.1","2.9","ND","ND","ND","ND","ND","0"],
    [60394,"2017-03-27T05:00:00","13.7","ND","ND","ND","0.0","3.5","ND","ND","ND","ND","ND","0"],
    [60395,"2017-03-27T06:00:00","14","ND","ND","ND","0.1","12.7","ND","ND","ND","ND","ND","0"],
    [60396,"2017-03-27T07:00:00","28.2","ND","ND","ND","0.1","13.1","ND","ND","ND","ND","ND","0"],
    [60397,"2017-03-27T08:00:00","28.7","ND","ND","ND","0.1","12.7","ND","ND","ND","ND","ND","0"],
    [60398,"2017-03-27T09:00:00","25.7","ND","ND","ND","0.5","7.6","ND","ND","ND","ND","ND","0"],
    [60399,"2017-03-27T10:00:00","18.8","ND","ND","ND","16.9","4.7","ND","ND","ND","ND","ND","0"],
    [60400,"2017-03-27T11:00:00","20","ND","ND","ND","35.2","4.3","ND","ND","ND","ND","ND","0"],
    [60401,"2017-03-27T12:00:00","26.5","ND","ND","ND","92.5","4.1","ND","ND","ND","ND","ND","0"],
    [60402,"2017-03-27T13:00:00","11.4","ND","ND","ND","104.9","2.2","ND","ND","ND","ND","ND","0"],
    [60403,"2017-03-27T14:00:00","4.4","ND","ND","ND","88.8","2.0","ND","ND","ND","ND","ND","0"],
    [60404,"2017-03-27T15:00:00","6.4","ND","ND","ND","105.2","2.5","ND","ND","ND","ND","ND","0"],
    [60405,"2017-03-27T16:00:00","1.6","ND","ND","ND","132.8","2.6","ND","ND","ND","ND","ND","0"],
    [60406,"2017-03-27T17:00:00","16.2","ND","ND","ND","141.1","2.5","ND","ND","ND","ND","ND","0"],
    [60407,"2017-03-27T18:00:00","25.3","ND","ND","ND","94.7","2.4","ND","ND","ND","ND","ND","0"],
    [60408,"2017-03-27T19:00:00","18.3","ND","ND","ND","49.6","3.5","ND","ND","ND","ND","ND","0"],
    [60409,"2017-03-27T20:00:00","6.8","ND","ND","ND","19.1","2.8","ND","ND","ND","ND","ND","0"],
    [60410,"2017-03-27T21:00:00","14.9","ND","ND","ND","5.3","2.8","ND","ND","ND","ND","ND","0"],
    [60411,"2017-03-27T22:00:00","27.8","ND","ND","ND","0.8","2.8","ND","ND","ND","ND","ND","0"],
    [60412,"2017-03-27T23:00:00","24.9","ND","ND","ND","0.8","3.6","ND","ND","ND","ND","ND","0"],
    [60413,"2017-03-28T00:00:00","23.8","ND","ND","ND","0.5","3.4","ND","ND","ND","ND","ND","0"],
    [60414,"2017-03-28T01:00:00","22.3","ND","ND","ND","0.6","3.5","ND","ND","ND","ND","ND","0"],
    [60415,"2017-03-28T02:00:00","18.1","ND","ND","ND","0.4","3.5","ND","ND","ND","ND","ND","0"],
    [60416,"2017-03-28T03:00:00","24.2","ND","ND","ND","0.3","5.9","ND","ND","ND","ND","ND","0"],
    [60417,"2017-03-28T04:00:00","19.2","ND","ND","ND","0.2","4.3","ND","ND","ND","ND","ND","0"],
    [60418,"2017-03-28T05:00:00","18.5","ND","ND","ND","0.2","3.6","ND","ND","ND","ND","ND","0"],
    [60419,"2017-03-28T06:00:00","19.3","ND","ND","ND","0.2","3.4","ND","ND","ND","ND","ND","0"],
    [60420,"2017-03-28T07:00:00","24.3","ND","ND","ND","0.3","4.0","ND","ND","ND","ND","ND","0"],
    [60421,"2017-03-28T08:00:00","31.6","ND","ND","ND","1.8","3.6","ND","ND","ND","ND","ND","0"],
    [60422,"2017-03-28T09:00:00","21.4","ND","ND","ND","15.9","3.2","ND","ND","ND","ND","ND","0"],
    [60423,"2017-03-28T10:00:00","16.3","ND","ND","ND","32.3","2.9","ND","ND","ND","ND","ND","0"],
    [60424,"2017-03-28T11:00:00","10.6","ND","ND","ND","56.3","3.2","ND","ND","ND","ND","ND","0"],
    [60425,"2017-03-28T12:00:00","13","ND","ND","ND","75.0","2.7","ND","ND","ND","ND","ND","0"],
    [60426,"2017-03-28T13:00:00","14.8","ND","ND","ND","96.1","2.8","ND","ND","ND","ND","ND","0"],
    [60427,"2017-03-28T14:00:00","17","ND","ND","ND","91.7","2.6","ND","ND","ND","ND","ND","0"],
    [60428,"2017-03-28T15:00:00","16.8","ND","ND","ND","60.4","2.9","ND","ND","ND","ND","ND","0"],
    [60429,"2017-03-28T16:00:00","9","ND","ND","ND","26.7","2.3","ND","ND","ND","ND","ND","0"],
    [60430,"2017-03-28T17:00:00","1.3","ND","ND","ND","23.8","2.1","ND","ND","ND","ND","ND","0"],
    [60431,"2017-03-28T18:00:00","2.1","ND","ND","ND","10.3","2.7","ND","ND","ND","ND","ND","0"],
    [60432,"2017-03-28T19:00:00","23.1","ND","ND","ND","3.8","3.1","ND","ND","ND","ND","ND","0"],
    [60433,"2017-03-28T20:00:00","27.7","ND","ND","ND","0.8","2.9","ND","ND","ND","ND","ND","0"],
    [60434,"2017-03-28T21:00:00","30.5","ND","ND","ND","1.0","3.5","ND","ND","ND","ND","ND","0"],
    [60435,"2017-03-28T22:00:00","10.1","ND","ND","ND","1.8","2.2","ND","ND","ND","ND","ND","0"],
    [60436,"2017-03-28T23:00:00","8.2","ND","ND","ND","0.4","3.6","ND","ND","ND","ND","ND","0"],
    [60437,"2017-03-29T00:00:00","15","ND","ND","ND","0.5","2.8","ND","ND","ND","ND","ND","0"],
    [60438,"2017-03-29T01:00:00","11.9","ND","ND","ND","0.4","4.6","ND","ND","ND","ND","ND","0"],
    [60439,"2017-03-29T02:00:00","2","ND","ND","ND","0.3","4.0","ND","ND","ND","ND","ND","0"],
    [60440,"2017-03-29T03:00:00","12.4","ND","ND","ND","0.3","4.1","ND","ND","ND","ND","ND","0"],
    [60441,"2017-03-29T04:00:00","16.8","ND","ND","ND","0.2","4.2","ND","ND","ND","ND","ND","0"],
    [60442,"2017-03-29T05:00:00","16.4","ND","ND","ND","0.1","3.2","ND","ND","ND","ND","ND","0"],
    [60443,"2017-03-29T06:00:00","17.9","ND","ND","ND","0.2","4.0","ND","ND","ND","ND","ND","0"],
    [60444,"2017-03-29T07:00:00","28.3","ND","ND","ND","0.2","4.8","ND","ND","ND","ND","ND","0"],
    [60445,"2017-03-29T08:00:00","37.2","ND","ND","ND","0.4","4.3","ND","ND","ND","ND","ND","0"],
    [60446,"2017-03-29T09:00:00","35.1","ND","ND","ND","8.5","4.9","ND","ND","ND","ND","ND","0"],
    [60447,"2017-03-29T10:00:00","36.3","ND","ND","ND","55.3","3.8","ND","ND","ND","ND","ND","0"],
    [60448,"2017-03-29T11:00:00","11.5","ND","ND","ND","86.2","3.0","ND","ND","ND","ND","ND","0"],
    [60449,"2017-03-29T12:00:00","5.3","ND","ND","ND","92.1","3.0","ND","ND","ND","ND","ND","0"],
    [60450,"2017-03-29T13:00:00","8.5","ND","ND","ND","55.3","2.6","ND","ND","ND","ND","ND","0"],
    [60451,"2017-03-29T14:00:00","5.9","ND","ND","ND","12.3","2.6","ND","ND","ND","ND","ND","0"],
    [60452,"2017-03-29T15:00:00","32.7","ND","ND","ND","7.6","5.4","ND","ND","ND","ND","ND","0"],
    [60453,"2017-03-29T16:00:00","23.8","ND","ND","ND","13.3","3.6","ND","ND","ND","ND","ND","0"],
    [60454,"2017-03-29T17:00:00","1.1","ND","ND","ND","12.6","2.1","ND","ND","ND","ND","ND","0"],
    [60455,"2017-03-29T18:00:00","ND","ND","ND","ND","7.7","2.3","ND","ND","ND","ND","ND","0"],
    [60456,"2017-03-29T19:00:00","3.2","ND","ND","ND","2.1","2.6","ND","ND","ND","ND","ND","0"],
    [60457,"2017-03-29T20:00:00","25.6","ND","ND","ND","0.2","2.3","ND","ND","ND","ND","ND","0"],
    [60458,"2017-03-29T21:00:00","23.6","ND","ND","ND","0.1","2.2","ND","ND","ND","ND","ND","0"],
    [60459,"2017-03-29T22:00:00","16.3","ND","ND","ND","0.2","3.1","ND","ND","ND","ND","ND","0"],
    [60460,"2017-03-29T23:00:00","21.5","ND","ND","ND","0.1","3.8","ND","ND","ND","ND","ND","0"],
    [60461,"2017-03-30T00:00:00","20.4","ND","ND","ND","0.1","3.3","ND","ND","ND","ND","ND","0"],
    [60462,"2017-03-30T01:00:00","13","ND","ND","ND","0.1","4.3","ND","ND","ND","ND","ND","0"],
    [60463,"2017-03-30T02:00:00","9.3","ND","ND","ND","0.1","5.2","ND","ND","ND","ND","ND","0"],
    [60464,"2017-03-30T03:00:00","19.4","ND","ND","ND","0.0","5.2","ND","ND","ND","ND","ND","0"],
    [60465,"2017-03-30T04:00:00","29.1","ND","ND","ND","0.0","5.8","ND","ND","ND","ND","ND","0"],
    [60466,"2017-03-30T05:00:00","26","ND","ND","ND","0.0","6.2","ND","ND","ND","ND","ND","0"],
    [60467,"2017-03-30T06:00:00","19.2","ND","ND","ND","0.0","5.2","ND","ND","ND","ND","ND","0"],
    [60468,"2017-03-30T07:00:00","24.5","ND","ND","ND","0.0","9.9","ND","ND","ND","ND","ND","0"],
    [60469,"2017-03-30T08:00:00","ND","ND","ND","ND","0.1","10.4","ND","ND","ND","ND","ND","0"],
    [60470,"2017-03-30T09:00:00","ND","ND","ND","ND","1.5","5.1","ND","ND","ND","ND","ND","0"],
    [60471,"2017-03-30T10:00:00","45.8","ND","ND","ND","12.8","4.5","ND","ND","ND","ND","ND","0"],
    [60472,"2017-03-30T11:00:00","21.2","ND","ND","ND","27.8","4.2","ND","ND","ND","ND","ND","0"],
    [60473,"2017-03-30T12:00:00","2.3","ND","ND","ND","40.2","3.5","ND","ND","ND","ND","ND","0"],
    [60474,"2017-03-30T13:00:00","ND","ND","ND","ND","48.9","2.3","ND","ND","ND","ND","ND","0"],
    [60475,"2017-03-30T14:00:00","ND","ND","ND","ND","56.7","2.6","ND","ND","ND","ND","ND","0"],
    [60476,"2017-03-30T15:00:00","5.7","ND","ND","ND","35.9","2.7","ND","ND","ND","ND","ND","0"],
    [60477,"2017-03-30T16:00:00","19.5","ND","ND","ND","6.5","2.7","ND","ND","ND","ND","ND","0"],
    [60478,"2017-03-30T17:00:00","18.8","ND","ND","ND","7.2","2.4","ND","ND","ND","ND","ND","0"],
    [60479,"2017-03-30T18:00:00","14.3","ND","ND","ND","2.9","2.4","ND","ND","ND","ND","ND","0"],
    [60480,"2017-03-30T19:00:00","19.3","ND","ND","ND","0.5","2.2","ND","ND","ND","ND","ND","0"],
    [60481,"2017-03-30T20:00:00","23.6","ND","ND","ND","0.3","2.7","ND","ND","ND","ND","ND","0"],
    [60482,"2017-03-30T21:00:00","1.2","ND","ND","ND","2.5","2.3","ND","ND","ND","ND","ND","0"],
    [60483,"2017-03-30T22:00:00","ND","ND","ND","ND","0.5","2.8","ND","ND","ND","ND","ND","0"],
    [60484,"2017-03-30T23:00:00","10.4","ND","ND","ND","1.9","1.9","ND","ND","ND","ND","ND","0"],
    [60485,"2017-03-31T00:00:00","8.4","ND","ND","ND","1.6","2.1","ND","ND","ND","ND","ND","0"],
    [60486,"2017-03-31T01:00:00","17.3","ND","ND","ND","0.9","2.0","ND","ND","ND","ND","ND","0"],
    [60487,"2017-03-31T02:00:00","17.5","ND","ND","ND","0.6","1.9","ND","ND","ND","ND","ND","0"],
    [60488,"2017-03-31T03:00:00","6.7","ND","ND","ND","3.6","2.0","ND","ND","ND","ND","ND","0"],
    [60489,"2017-03-31T04:00:00","0.9","ND","ND","ND","10.3","2.1","ND","ND","ND","ND","ND","0"],
    [60490,"2017-03-31T05:00:00","ND","ND","ND","ND","10.3","2.8","ND","ND","ND","ND","ND","0"],
    [60491,"2017-03-31T06:00:00","3.7","ND","ND","ND","3.4","2.6","ND","ND","ND","ND","ND","0"],
    [60492,"2017-03-31T07:00:00","5.8","ND","ND","ND","0.0","3.1","ND","ND","ND","ND","ND","0"],
    [60493,"2017-03-31T08:00:00","6.8","ND","ND","ND","0.1","2.0","ND","ND","ND","ND","ND","0"],
    [60494,"2017-03-31T09:00:00","8.2","ND","ND","ND","0.0","2.1","ND","ND","ND","ND","ND","0"],
    [60495,"2017-03-31T10:00:00","10.5","ND","ND","ND","0.5","2.4","ND","ND","ND","ND","ND","0"],
    [60496,"2017-03-31T11:00:00","15.2","ND","ND","ND","15.1","2.3","ND","ND","ND","ND","ND","0"],
    [60497,"2017-03-31T12:00:00","3.4","ND","ND","ND","30.9","2.3","ND","ND","ND","ND","ND","0"],
    [60498,"2017-03-31T13:00:00","11.6","ND","ND","ND","46.5","2.5","ND","ND","ND","ND","ND","0"],
    [60499,"2017-03-31T14:00:00","ND","ND","ND","ND","77.4","2.1","ND","ND","ND","ND","ND","0"],
    [60500,"2017-03-31T15:00:00","ND","ND","ND","ND","84.6","2.7","ND","ND","ND","ND","ND","0"],
    [60501,"2017-03-31T16:00:00","5.8","ND","ND","ND","79.7","2.7","ND","ND","ND","ND","ND","0"],
    [60502,"2017-03-31T17:00:00","9.4","ND","ND","ND","51.8","2.6","ND","ND","ND","ND","ND","0"],
    [60503,"2017-03-31T18:00:00","1.3","ND","ND","ND","23.4","2.1","ND","ND","ND","ND","ND","0"],
    [60504,"2017-03-31T19:00:00","ND","ND","ND","ND","3.0","2.4","ND","ND","ND","ND","ND","0"],
    [60505,"2017-03-31T20:00:00","11.7","ND","ND","ND","0.8","2.7","ND","ND","ND","ND","ND","0"],
    [60506,"2017-03-31T21:00:00","8.8","ND","ND","ND","7.0","4.1","ND","ND","ND","ND","ND","0"],
    [60507,"2017-03-31T22:00:00","7.9","ND","ND","ND","3.3","3.7","ND","ND","ND","ND","ND","0"],
    [60508,"2017-03-31T23:00:00","35.3","ND","ND","ND","0.2","3.5","ND","ND","ND","ND","ND","0"],
    [60509,"2017-04-01T00:00:00","35.2","ND","ND","ND","0.1","6.1","ND","ND","ND","ND","ND","0"],
    [60510,"2017-04-01T01:00:00","43.3","ND","ND","ND","0.5","9.5","ND","ND","ND","ND","ND","0"],
    [60511,"2017-04-01T02:00:00","34.3","ND","ND","ND","0.1","5.4","ND","ND","ND","ND","ND","0"],
    [60512,"2017-04-01T03:00:00","29.2","ND","ND","ND","0.2","6.2","ND","ND","ND","ND","ND","0"],
    [60513,"2017-04-01T04:00:00","24.5","ND","ND","ND","0.2","5.2","ND","ND","ND","ND","ND","0"],
    [60514,"2017-04-01T05:00:00","19.2","ND","ND","ND","0.1","5.1","ND","ND","ND","ND","ND","0"],
    [60515,"2017-04-01T06:00:00","17.1","ND","ND","ND","0.3","6.0","ND","ND","ND","ND","ND","0"],
    [60516,"2017-04-01T07:00:00","19.4","ND","ND","ND","0.2","5.2","ND","ND","ND","ND","ND","0"],
    [60517,"2017-04-01T08:00:00","19.8","ND","ND","ND","0.2","7.0","ND","ND","ND","ND","ND","0"],
    [60518,"2017-04-01T09:00:00","30.8","ND","ND","ND","2.5","7.8","ND","ND","ND","ND","ND","0"],
    [60519,"2017-04-01T10:00:00","24.7","ND","ND","ND","14.4","5.6","ND","ND","ND","ND","ND","0"],
    [60520,"2017-04-01T11:00:00","21","ND","ND","ND","47.9","3.8","ND","ND","ND","ND","ND","0"],
    [60521,"2017-04-01T12:00:00","18.5","ND","ND","ND","94.2","2.7","ND","ND","ND","ND","ND","0"],
    [60522,"2017-04-01T13:00:00","9.8","ND","ND","ND","92.1","2.6","ND","ND","ND","ND","ND","0"],
    [60523,"2017-04-01T14:00:00","7.2","ND","ND","ND","79.5","2.5","ND","ND","ND","ND","ND","0"],
    [60524,"2017-04-01T15:00:00","13.4","ND","ND","ND","92.5","2.5","ND","ND","ND","ND","ND","0"],
    [60525,"2017-04-01T16:00:00","15.9","ND","ND","ND","103.3","2.2","ND","ND","ND","ND","ND","0"],
    [60526,"2017-04-01T17:00:00","11.2","ND","ND","ND","113.4","2.3","ND","ND","ND","ND","ND","0"],
    [60527,"2017-04-01T18:00:00","8.3","ND","ND","ND","74.5","3.2","ND","ND","ND","ND","ND","0"],
    [60528,"2017-04-01T19:00:00","9.7","ND","ND","ND","9.7","3.5","ND","ND","ND","ND","ND","0"],
    [60529,"2017-04-01T20:00:00","9.1","ND","ND","ND","2.5","2.8","ND","ND","ND","ND","ND","0"],
    [60530,"2017-04-01T21:00:00","28.6","ND","ND","ND","1.0","2.6","ND","ND","ND","ND","ND","0"],
    [60531,"2017-04-01T22:00:00","29.5","ND","ND","ND","0.5","2.9","ND","ND","ND","ND","ND","0"],
    [60532,"2017-04-01T23:00:00","24.5","ND","ND","ND","0.4","2.9","ND","ND","ND","ND","ND","0"],
    [60533,"2017-04-02T00:00:00","17.6","ND","ND","ND","0.3","3.0","ND","ND","ND","ND","ND","0"],
    [60534,"2017-04-02T01:00:00","14.1","ND","ND","ND","0.2","4.2","ND","ND","ND","ND","ND","0"],
    [60535,"2017-04-02T02:00:00","31.4","ND","ND","ND","0.4","7.3","ND","ND","ND","ND","ND","0"],
    [60536,"2017-04-02T03:00:00","36.6","ND","ND","ND","0.3","7.3","ND","ND","ND","ND","ND","0"],
    [60537,"2017-04-02T04:00:00","26.8","ND","ND","ND","1.2","5.2","ND","ND","ND","ND","ND","0"],
    [60538,"2017-04-02T05:00:00","14.2","ND","ND","ND","0.3","4.5","ND","ND","ND","ND","ND","0"],
    [60539,"2017-04-02T06:00:00","23.4","ND","ND","ND","0.5","5.3","ND","ND","ND","ND","ND","0"],
    [60540,"2017-04-02T07:00:00","25.3","ND","ND","ND","0.3","5.0","ND","ND","ND","ND","ND","0"],
    [60541,"2017-04-02T08:00:00","28.5","ND","ND","ND","0.5","7.2","ND","ND","ND","ND","ND","0"],
    [60542,"2017-04-02T09:00:00","19","ND","ND","ND","3.5","6.0","ND","ND","ND","ND","ND","0"],
    [60543,"2017-04-02T10:00:00","25.8","ND","ND","ND","30.7","3.8","ND","ND","ND","ND","ND","0"],
    [60544,"2017-04-02T11:00:00","4.3","ND","ND","ND","80.4","3.3","ND","ND","ND","ND","ND","0"],
    [60545,"2017-04-02T12:00:00","15.5","ND","ND","ND","129.0","3.1","ND","ND","ND","ND","ND","0"],
    [60546,"2017-04-02T13:00:00","6.4","ND","ND","ND","114.4","2.1","ND","ND","ND","ND","ND","0"],
    [60547,"2017-04-02T14:00:00","13","ND","ND","ND","117.9","2.5","ND","ND","ND","ND","ND","0"],
    [60548,"2017-04-02T15:00:00","18","ND","ND","ND","132.2","2.5","ND","ND","ND","ND","ND","0"],
    [60549,"2017-04-02T16:00:00","16.3","ND","ND","ND","87.4","2.5","ND","ND","ND","ND","ND","0"],
    [60550,"2017-04-02T17:00:00","2","ND","ND","ND","39.4","2.0","ND","ND","ND","ND","ND","0"],
    [60551,"2017-04-02T18:00:00","ND","ND","ND","ND","32.3","2.0","ND","ND","ND","ND","ND","0"],
    [60552,"2017-04-02T19:00:00","ND","ND","ND","ND","24.3","2.2","ND","ND","ND","ND","ND","0"],
    [60553,"2017-04-02T20:00:00","13.3","ND","ND","ND","5.7","2.5","ND","ND","ND","ND","ND","0"],
    [60554,"2017-04-02T21:00:00","32.1","ND","ND","ND","2.1","2.7","ND","ND","ND","ND","ND","0"],
    [60555,"2017-04-02T22:00:00","28.6","ND","ND","ND","0.6","3.7","ND","ND","ND","ND","ND","0"],
    [60556,"2017-04-02T23:00:00","20.1","ND","ND","ND","0.8","3.5","ND","ND","ND","ND","ND","0"],
    [60557,"2017-04-03T00:00:00","7.6","ND","ND","ND","1.0","4.6","ND","ND","ND","ND","ND","0"],
    [60558,"2017-04-03T01:00:00","10.4","ND","ND","ND","0.8","3.5","ND","ND","ND","ND","ND","0"],
    [60559,"2017-04-03T02:00:00","1.2","ND","ND","ND","1.5","3.8","ND","ND","ND","ND","ND","0"],
    [60560,"2017-04-03T03:00:00","5.7","ND","ND","ND","2.8","3.5","ND","ND","ND","ND","ND","0"],
    [60561,"2017-04-03T04:00:00","12.6","ND","ND","ND","2.4","3.4","ND","ND","ND","ND","ND","0"],
    [60562,"2017-04-03T05:00:00","15.1","ND","ND","ND","1.3","2.9","ND","ND","ND","ND","ND","0"],
    [60563,"2017-04-03T06:00:00","14.2","ND","ND","ND","0.6","2.9","ND","ND","ND","ND","ND","0"],
    [60564,"2017-04-03T07:00:00","19.5","ND","ND","ND","0.6","2.5","ND","ND","ND","ND","ND","0"],
    [60565,"2017-04-03T08:00:00","36.1","ND","ND","ND","1.7","3.3","ND","ND","ND","ND","ND","0"],
    [60566,"2017-04-03T09:00:00","27.4","ND","ND","ND","6.9","2.9","ND","ND","ND","ND","ND","0"],
    [60567,"2017-04-03T10:00:00","25.9","ND","ND","ND","35.8","3.1","ND","ND","ND","ND","ND","0"],
    [60568,"2017-04-03T11:00:00","11.1","ND","ND","ND","61.9","3.0","ND","ND","ND","ND","ND","0"],
    [60569,"2017-04-03T12:00:00","8.1","ND","ND","ND","92.6","2.6","ND","ND","ND","ND","ND","0"],
    [60570,"2017-04-03T13:00:00","11.5","ND","ND","ND","126.0","2.0","ND","ND","ND","ND","ND","0"],
    [60571,"2017-04-03T14:00:00","16","ND","ND","ND","112.7","2.3","ND","ND","ND","ND","ND","0"],
    [60572,"2017-04-03T15:00:00","7.3","ND","ND","ND","80.5","2.3","ND","ND","ND","ND","ND","0"],
    [60573,"2017-04-03T16:00:00","4.6","ND","ND","ND","54.9","2.8","ND","ND","ND","ND","ND","0"],
    [60574,"2017-04-03T17:00:00","5.7","ND","ND","ND","33.8","2.4","ND","ND","ND","ND","ND","0"],
    [60575,"2017-04-03T18:00:00","5.6","ND","ND","ND","19.4","1.9","ND","ND","ND","ND","ND","0"],
    [60576,"2017-04-03T19:00:00","ND","ND","ND","ND","17.5","2.0","ND","ND","ND","ND","ND","0"],
    [60577,"2017-04-03T20:00:00","11.4","ND","ND","ND","16.1","2.4","ND","ND","ND","ND","ND","0"],
    [60578,"2017-04-03T21:00:00","23.8","ND","ND","ND","2.2","3.8","ND","ND","ND","ND","ND","0"],
    [60579,"2017-04-03T22:00:00","31.7","ND","ND","ND","0.5","4.3","ND","ND","ND","ND","ND","0"],
    [60580,"2017-04-03T23:00:00","29.8","ND","ND","ND","1.8","3.5","ND","ND","ND","ND","ND","0"],
    [60581,"2017-04-04T00:00:00","21.2","ND","ND","ND","1.0","4.9","ND","ND","ND","ND","ND","0"],
    [60582,"2017-04-04T01:00:00","28.2","ND","ND","ND","0.8","4.5","ND","ND","ND","ND","ND","0"],
    [60583,"2017-04-04T02:00:00","24.6","ND","ND","ND","0.7","3.8","ND","ND","ND","ND","ND","0"],
    [60584,"2017-04-04T03:00:00","15.8","ND","ND","ND","0.8","4.3","ND","ND","ND","ND","ND","0"],
    [60585,"2017-04-04T04:00:00","21","ND","ND","ND","0.9","4.4","ND","ND","ND","ND","ND","0"],
    [60586,"2017-04-04T05:00:00","22","ND","ND","ND","1.3","3.7","ND","ND","ND","ND","ND","0"],
    [60587,"2017-04-04T06:00:00","20.2","ND","ND","ND","0.9","5.4","ND","ND","ND","ND","ND","0"],
    [60588,"2017-04-04T07:00:00","21.9","ND","ND","ND","1.2","5.3","ND","ND","ND","ND","ND","0"],
    [60589,"2017-04-04T08:00:00","40.7","ND","ND","ND","2.9","4.6","ND","ND","ND","ND","ND","0"],
    [60590,"2017-04-04T09:00:00","33.1","ND","ND","ND","19.9","3.5","ND","ND","ND","ND","ND","0"],
    [60591,"2017-04-04T10:00:00","25.7","ND","ND","ND","42.2","3.3","ND","ND","ND","ND","ND","0"],
    [60592,"2017-04-04T11:00:00","13.5","ND","ND","ND","80.0","2.9","ND","ND","ND","ND","ND","0"],
    [60593,"2017-04-04T12:00:00","0.7","ND","ND","ND","101.8","2.6","ND","ND","ND","ND","ND","0"],
    [60594,"2017-04-04T13:00:00","13.5","ND","ND","ND","130.7","2.8","ND","ND","ND","ND","ND","0"],
    [60595,"2017-04-04T14:00:00","23.6","ND","ND","ND","130.4","2.5","ND","ND","ND","ND","ND","0"],
    [60596,"2017-04-04T15:00:00","17.4","ND","ND","ND","46.8","1.9","ND","ND","ND","ND","ND","0"],
    [60597,"2017-04-04T16:00:00","1.7","ND","ND","ND","37.4","2.1","ND","ND","ND","ND","ND","0"],
    [60598,"2017-04-04T17:00:00","ND","ND","ND","ND","37.4","2.1","ND","ND","ND","ND","ND","0"],
    [60599,"2017-04-04T18:00:00","ND","ND","ND","ND","27.5","2.0","ND","ND","ND","ND","ND","0"],
    [60600,"2017-04-04T19:00:00","ND","ND","ND","ND","18.8","2.1","ND","ND","ND","ND","ND","0"],
    [60601,"2017-04-04T20:00:00","9.6","ND","ND","ND","4.0","2.3","ND","ND","ND","ND","ND","0"],
    [60602,"2017-04-04T21:00:00","29.2","ND","ND","ND","1.6","3.0","ND","ND","ND","ND","ND","0"],
    [60603,"2017-04-04T22:00:00","43.4","ND","ND","ND","0.4","5.4","ND","ND","ND","ND","ND","0"],
    [60604,"2017-04-04T23:00:00","40.2","ND","ND","ND","0.4","3.7","ND","ND","ND","ND","ND","0"],
    [60605,"2017-04-05T00:00:00","26.9","ND","ND","ND","0.5","3.6","ND","ND","ND","ND","ND","0"],
    [60606,"2017-04-05T01:00:00","25.5","ND","ND","ND","0.6","2.8","ND","ND","ND","ND","ND","0"],
    [60607,"2017-04-05T02:00:00","13.6","ND","ND","ND","0.5","3.9","ND","ND","ND","ND","ND","0"],
    [60608,"2017-04-05T03:00:00","24.2","ND","ND","ND","0.7","3.5","ND","ND","ND","ND","ND","0"],
    [60609,"2017-04-05T04:00:00","26.7","ND","ND","ND","0.8","4.7","ND","ND","ND","ND","ND","0"],
    [60610,"2017-04-05T05:00:00","21.7","ND","ND","ND","0.2","3.4","ND","ND","ND","ND","ND","0"],
    [60611,"2017-04-05T06:00:00","25.4","ND","ND","ND","0.2","4.1","ND","ND","ND","ND","ND","0"],
    [60612,"2017-04-05T07:00:00","30.6","ND","ND","ND","0.2","4.0","ND","ND","ND","ND","ND","0"],
    [60613,"2017-04-05T08:00:00","40.9","ND","ND","ND","3.2","2.8","ND","ND","ND","ND","ND","0"],
    [60614,"2017-04-05T09:00:00","25.5","ND","ND","ND","20.7","2.9","ND","ND","ND","ND","ND","0"],
    [60615,"2017-04-05T10:00:00","20.2","ND","ND","ND","56.2","3.2","ND","ND","ND","ND","ND","0"],
    [60616,"2017-04-05T11:00:00","25","ND","ND","ND","97.8","2.9","ND","ND","ND","ND","ND","0"],
    [60617,"2017-04-05T12:00:00","22.7","ND","ND","ND","101.8","2.4","ND","ND","ND","ND","ND","0"],
    [60618,"2017-04-05T13:00:00","21.6","ND","ND","ND","116.2","2.1","ND","ND","ND","ND","ND","0"],
    [60619,"2017-04-05T14:00:00","25.2","ND","ND","ND","126.0","2.1","ND","ND","ND","ND","ND","0"],
    [60620,"2017-04-05T15:00:00","12.8","ND","ND","ND","51.0","2.5","ND","ND","ND","ND","ND","0"],
    [60621,"2017-04-05T16:00:00","2","ND","ND","ND","39.9","2.1","ND","ND","ND","ND","ND","0"],
    [60622,"2017-04-05T17:00:00","10.8","ND","ND","ND","36.3","2.0","ND","ND","ND","ND","ND","0"],
    [60623,"2017-04-05T18:00:00","2.9","ND","ND","ND","32.8","2.5","ND","ND","ND","ND","ND","0"],
    [60624,"2017-04-05T19:00:00","11.3","ND","ND","ND","24.1","3.1","ND","ND","ND","ND","ND","0"],
    [60625,"2017-04-05T20:00:00","15.4","ND","ND","ND","6.9","3.1","ND","ND","ND","ND","ND","0"],
    [60626,"2017-04-05T21:00:00","27.9","ND","ND","ND","3.0","4.1","ND","ND","ND","ND","ND","0"],
    [60627,"2017-04-05T22:00:00","39.3","ND","ND","ND","0.7","3.5","ND","ND","ND","ND","ND","0"],
    [60628,"2017-04-05T23:00:00","44.6","ND","ND","ND","0.4","2.7","ND","ND","ND","ND","ND","0"],
    [60629,"2017-04-06T00:00:00","28","ND","ND","ND","0.1","3.0","ND","ND","ND","ND","ND","0"],
    [60630,"2017-04-06T01:00:00","21.9","ND","ND","ND","0.6","6.1","ND","ND","ND","ND","ND","0"],
    [60631,"2017-04-06T02:00:00","19.9","ND","ND","ND","0.3","4.9","ND","ND","ND","ND","ND","0"],
    [60632,"2017-04-06T03:00:00","26.2","ND","ND","ND","0.3","4.5","ND","ND","ND","ND","ND","0"],
    [60633,"2017-04-06T04:00:00","37.5","ND","ND","ND","0.8","5.2","ND","ND","ND","ND","ND","0"],
    [60634,"2017-04-06T05:00:00","35.4","ND","ND","ND","0.3","4.2","ND","ND","ND","ND","ND","0"],
    [60635,"2017-04-06T06:00:00","23","ND","ND","ND","0.0","3.5","ND","ND","ND","ND","ND","0"],
    [60636,"2017-04-06T07:00:00","34.6","ND","ND","ND","0.1","3.3","ND","ND","ND","ND","ND","0"],
    [60637,"2017-04-06T08:00:00","53.8","ND","ND","ND","2.6","5.9","ND","ND","ND","ND","ND","0"],
    [60638,"2017-04-06T09:00:00","44.7","ND","ND","ND","27.7","4.6","ND","ND","ND","ND","ND","0"],
    [60639,"2017-04-06T10:00:00","33.4","ND","ND","ND","73.8","4.2","ND","ND","ND","ND","ND","0"],
    [60640,"2017-04-06T11:00:00","24.8","ND","ND","ND","115.1","3.1","ND","ND","ND","ND","ND","0"],
    [60641,"2017-04-06T12:00:00","19","ND","ND","ND","114.3","2.6","ND","ND","ND","ND","ND","0"],
    [60642,"2017-04-06T13:00:00","19.9","ND","ND","ND","129.9","2.1","ND","ND","ND","ND","ND","0"],
    [60643,"2017-04-06T14:00:00","27.4","ND","ND","ND","143.8","2.3","ND","ND","ND","ND","ND","0"],
    [60644,"2017-04-06T15:00:00","27.7","ND","ND","ND","92.4","1.9","ND","ND","ND","ND","ND","0"],
    [60645,"2017-04-06T16:00:00","10.2","ND","ND","ND","48.3","2.8","ND","ND","ND","ND","ND","0"],
    [60646,"2017-04-06T17:00:00","0.4","ND","ND","ND","27.8","2.4","ND","ND","ND","ND","ND","0"],
    [60647,"2017-04-06T18:00:00","ND","ND","ND","ND","23.2","2.1","ND","ND","ND","ND","ND","0"],
    [60648,"2017-04-06T19:00:00","1","ND","ND","ND","4.2","2.6","ND","ND","ND","ND","ND","0"],
    [60649,"2017-04-06T20:00:00","11.5","ND","ND","ND","3.5","2.4","ND","ND","ND","ND","ND","0"],
    [60650,"2017-04-06T21:00:00","33.8","ND","ND","ND","0.2","3.2","ND","ND","ND","ND","ND","0"],
    [60651,"2017-04-06T22:00:00","40.8","ND","ND","ND","0.4","4.9","ND","ND","ND","ND","ND","0"],
    [60652,"2017-04-06T23:00:00","39","ND","ND","ND","0.4","3.5","ND","ND","ND","ND","ND","0"],
    [60653,"2017-04-07T00:00:00","33.2","ND","ND","ND","0.1","2.9","ND","ND","ND","ND","ND","0"],
    [60654,"2017-04-07T01:00:00","23.8","ND","ND","ND","0.1","4.2","ND","ND","ND","ND","ND","0"],
    [60655,"2017-04-07T02:00:00","14.6","ND","ND","ND","0.1","4.2","ND","ND","ND","ND","ND","0"],
    [60656,"2017-04-07T03:00:00","19.8","ND","ND","ND","0.5","4.7","ND","ND","ND","ND","ND","0"],
    [60657,"2017-04-07T04:00:00","18.9","ND","ND","ND","0.1","3.4","ND","ND","ND","ND","ND","0"],
    [60658,"2017-04-07T05:00:00","21.3","ND","ND","ND","0.2","4.6","ND","ND","ND","ND","ND","0"],
    [60659,"2017-04-07T06:00:00","22.3","ND","ND","ND","0.3","4.9","ND","ND","ND","ND","ND","0"],
    [60660,"2017-04-07T07:00:00","34.5","ND","ND","ND","0.5","5.0","ND","ND","ND","ND","ND","0"],
    [60661,"2017-04-07T08:00:00","45.3","ND","ND","ND","1.4","4.3","ND","ND","ND","ND","ND","0"],
    [60662,"2017-04-07T09:00:00","49.1","ND","ND","ND","18.0","3.4","ND","ND","ND","ND","ND","0"],
    [60663,"2017-04-07T10:00:00","34.2","ND","ND","ND","67.5","3.9","ND","ND","ND","ND","ND","0"],
    [60664,"2017-04-07T11:00:00","23.7","ND","ND","ND","91.4","1.7","ND","ND","ND","ND","ND","0"],
    [60665,"2017-04-07T12:00:00","18.7","ND","ND","ND","100.6","2.3","ND","ND","ND","ND","ND","0"],
    [60666,"2017-04-07T13:00:00","17.1","ND","ND","ND","93.3","2.0","ND","ND","ND","ND","ND","0"],
    [60667,"2017-04-07T14:00:00","18.3","ND","ND","ND","105.8","3.2","ND","ND","ND","ND","ND","0"],
    [60668,"2017-04-07T15:00:00","14.2","ND","ND","ND","65.3","2.0","ND","ND","ND","ND","ND","0"],
    [60669,"2017-04-07T16:00:00","2","ND","ND","ND","30.6","2.4","ND","ND","ND","ND","ND","0"],
    [60670,"2017-04-07T17:00:00","10","ND","ND","ND","21.5","2.6","ND","ND","ND","ND","ND","0"],
    [60671,"2017-04-07T18:00:00","4.6","ND","ND","ND","20.9","2.0","ND","ND","ND","ND","ND","0"],
    [60672,"2017-04-07T19:00:00","17","ND","ND","ND","4.0","2.2","ND","ND","ND","ND","ND","0"],
    [60673,"2017-04-07T20:00:00","24.9","ND","ND","ND","0.6","2.4","ND","ND","ND","ND","ND","0"],
    [60674,"2017-04-07T21:00:00","25","ND","ND","ND","2.2","3.0","ND","ND","ND","ND","ND","0"],
    [60675,"2017-04-07T22:00:00","27.6","ND","ND","ND","1.7","3.6","ND","ND","ND","ND","ND","0"],
    [60676,"2017-04-07T23:00:00","19.6","ND","ND","ND","1.8","4.0","ND","ND","ND","ND","ND","0"],
    [60677,"2017-04-08T00:00:00","24.1","ND","ND","ND","1.3","4.1","ND","ND","ND","ND","ND","0"],
    [60678,"2017-04-08T01:00:00","17.9","ND","ND","ND","1.3","4.9","ND","ND","ND","ND","ND","0"],
    [60679,"2017-04-08T02:00:00","22.3","ND","ND","ND","7.0","2.7","ND","ND","ND","ND","ND","0"],
    [60680,"2017-04-08T03:00:00","20.6","ND","ND","ND","8.2","3.0","ND","ND","ND","ND","ND","0"],
    [60681,"2017-04-08T04:00:00","17.9","ND","ND","ND","2.3","4.1","ND","ND","ND","ND","ND","0"],
    [60682,"2017-04-08T05:00:00","22.2","ND","ND","ND","1.1","5.6","ND","ND","ND","ND","ND","0"],
    [60683,"2017-04-08T06:00:00","44","ND","ND","ND","0.8","6.3","ND","ND","ND","ND","ND","0"],
    [60684,"2017-04-08T07:00:00","35.8","ND","ND","ND","0.6","6.7","ND","ND","ND","ND","ND","0"],
    [60685,"2017-04-08T08:00:00","41.5","ND","ND","ND","2.3","5.7","ND","ND","ND","ND","ND","0"],
    [60686,"2017-04-08T09:00:00","40.5","ND","ND","ND","3.7","5.4","ND","ND","ND","ND","ND","0"],
    [60687,"2017-04-08T10:00:00","44.3","ND","ND","ND","29.4","2.4","ND","ND","ND","ND","ND","0"],
    [60688,"2017-04-08T11:00:00","13.8","ND","ND","ND","68.5","1.2","ND","ND","ND","ND","ND","0"],
    [60689,"2017-04-08T12:00:00","13.2","ND","ND","ND","100.5","0.9","ND","ND","ND","ND","ND","0"],
    [60690,"2017-04-08T13:00:00","12.5","ND","ND","ND","133.6","1.0","ND","ND","ND","ND","ND","0"],
    [60691,"2017-04-08T14:00:00","8.5","ND","ND","ND","84.2","1.6","ND","ND","ND","ND","ND","0"],
    [60692,"2017-04-08T15:00:00","9.1","ND","ND","ND","41.7","1.0","ND","ND","ND","ND","ND","0"],
    [60693,"2017-04-08T16:00:00","2.3","ND","ND","ND","33.1","1.2","ND","ND","ND","ND","ND","0"],
    [60694,"2017-04-08T17:00:00","ND","ND","ND","ND","30.4","0.9","ND","ND","ND","ND","ND","0"],
    [60695,"2017-04-08T18:00:00","0.8","ND","ND","ND","29.7","0.9","ND","ND","ND","ND","ND","0"],
    [60696,"2017-04-08T19:00:00","20.7","ND","ND","ND","3.7","0.2","ND","ND","ND","ND","ND","0"],
    [60697,"2017-04-08T20:00:00","32.3","ND","ND","ND","14.6","1.5","ND","ND","ND","ND","ND","0"],
    [60698,"2017-04-08T21:00:00","18","ND","ND","ND","12.1","2.0","ND","ND","ND","ND","ND","0"],
    [60699,"2017-04-08T22:00:00","20.8","ND","ND","ND","2.5","3.4","ND","ND","ND","ND","ND","0"],
    [60700,"2017-04-08T23:00:00","14.8","ND","ND","ND","9.6","2.2","ND","ND","ND","ND","ND","0"],
    [60701,"2017-04-09T00:00:00","12.2","ND","ND","ND","16.0","2.0","ND","ND","ND","ND","ND","0"],
    [60702,"2017-04-09T01:00:00","4.5","ND","ND","ND","4.9","1.9","ND","ND","ND","ND","ND","0"],
    [60703,"2017-04-09T02:00:00","1.9","ND","ND","ND","2.3","2.2","ND","ND","ND","ND","ND","0"],
    [60704,"2017-04-09T03:00:00","5.1","ND","ND","ND","5.2","2.2","ND","ND","ND","ND","ND","0"],
    [60705,"2017-04-09T04:00:00","2.1","ND","ND","ND","6.1","1.7","ND","ND","ND","ND","ND","0"],
    [60706,"2017-04-09T05:00:00","10.2","ND","ND","ND","3.5","2.0","ND","ND","ND","ND","ND","0"],
    [60707,"2017-04-09T06:00:00","13.3","ND","ND","ND","1.8","2.2","ND","ND","ND","ND","ND","0"],
    [60708,"2017-04-09T07:00:00","17.9","ND","ND","ND","0.3","2.7","ND","ND","ND","ND","ND","0"],
    [60709,"2017-04-09T08:00:00","8.5","ND","ND","ND","4.8","1.4","ND","ND","ND","ND","ND","0"],
    [60710,"2017-04-09T09:00:00","4.7","ND","ND","ND","7.8","0.9","ND","ND","ND","ND","ND","0"],
    [60711,"2017-04-09T10:00:00","3.3","ND","ND","ND","21.5","1.2","ND","ND","ND","ND","ND","0"],
    [60712,"2017-04-09T11:00:00","5.8","ND","ND","ND","34.2","1.1","ND","ND","ND","ND","ND","0"],
    [60713,"2017-04-09T12:00:00","9.9","ND","ND","ND","42.1","0.8","ND","ND","ND","ND","ND","0"],
    [60714,"2017-04-09T13:00:00","9.6","ND","ND","ND","70.2","0.9","ND","ND","ND","ND","ND","0"],
    [60715,"2017-04-09T14:00:00","6.5","ND","ND","ND","85.0","1.1","ND","ND","ND","ND","ND","0"],
    [60716,"2017-04-09T15:00:00","8","ND","ND","ND","91.3","0.7","ND","ND","ND","ND","ND","0"],
    [60717,"2017-04-09T16:00:00","14.2","ND","ND","ND","89.4","1.3","ND","ND","ND","ND","ND","0"],
    [60718,"2017-04-09T17:00:00","7.5","ND","ND","ND","37.1","1.1","ND","ND","ND","ND","ND","0"],
    [60719,"2017-04-09T18:00:00","ND","ND","ND","ND","13.9","2.1","ND","ND","ND","ND","ND","0"],
    [60720,"2017-04-09T19:00:00","6.5","ND","ND","ND","7.1","6.5","ND","ND","ND","ND","ND","0"],
    [60721,"2017-04-09T20:00:00","7.1","ND","ND","ND","1.4","7.9","ND","ND","ND","ND","ND","0"],
    [60722,"2017-04-09T21:00:00","20.4","ND","ND","ND","0.5","7.1","ND","ND","ND","ND","ND","0"],
    [60723,"2017-04-09T22:00:00","22.8","ND","ND","ND","3.0","4.0","ND","ND","ND","ND","ND","0"],
    [60724,"2017-04-09T23:00:00","2.9","ND","ND","ND","1.0","2.3","ND","ND","ND","ND","ND","0"],
    [60725,"2017-04-10T00:00:00","2.8","ND","ND","ND","1.2","1.9","ND","ND","ND","ND","ND","0"],
    [60726,"2017-04-10T01:00:00","15.5","ND","ND","ND","0.3","1.4","ND","ND","ND","ND","ND","0"],
    [60727,"2017-04-10T02:00:00","19.2","ND","ND","ND","0.1","1.9","ND","ND","ND","ND","ND","0"],
    [60728,"2017-04-10T03:00:00","19.2","ND","ND","ND","0.4","3.5","ND","ND","ND","ND","ND","0"],
    [60729,"2017-04-10T04:00:00","18.8","ND","ND","ND","0.2","3.0","ND","ND","ND","ND","ND","0"],
    [60730,"2017-04-10T05:00:00","14.2","ND","ND","ND","0.0","3.9","ND","ND","ND","ND","ND","0"],
    [60731,"2017-04-10T06:00:00","15.3","ND","ND","ND","0.0","6.8","ND","ND","ND","ND","ND","0"],
    [60732,"2017-04-10T07:00:00","18.2","ND","ND","ND","0.1","16.2","ND","ND","ND","ND","ND","0"],
    [60733,"2017-04-10T08:00:00","35.5","ND","ND","ND","0.7","8.9","ND","ND","ND","ND","ND","0"],
    [60734,"2017-04-10T09:00:00","37.4","ND","ND","ND","13.6","3.1","ND","ND","ND","ND","ND","0"],
    [60735,"2017-04-10T10:00:00","5.6","ND","ND","ND","40.6","2.0","ND","ND","ND","ND","ND","0"],
    [60736,"2017-04-10T11:00:00","2.3","ND","ND","ND","49.6","1.7","ND","ND","ND","ND","ND","0"],
    [60737,"2017-04-10T12:00:00","4.6","ND","ND","ND","68.6","1.5","ND","ND","ND","ND","ND","0"],
    [60738,"2017-04-10T13:00:00","16.6","ND","ND","ND","101.0","1.2","ND","ND","ND","ND","ND","0"],
    [60739,"2017-04-10T14:00:00","12.4","ND","ND","ND","123.4","1.2","ND","ND","ND","ND","ND","0"],
    [60740,"2017-04-10T15:00:00","16.6","ND","ND","ND","135.9","0.9","ND","ND","ND","ND","ND","0"],
    [60741,"2017-04-10T16:00:00","14.7","ND","ND","ND","119.6","1.0","ND","ND","ND","ND","ND","0"],
    [60742,"2017-04-10T17:00:00","20.2","ND","ND","ND","66.6","1.0","ND","ND","ND","ND","ND","0"],
    [60743,"2017-04-10T18:00:00","4.6","ND","ND","ND","12.1","0.9","ND","ND","ND","ND","ND","0"],
    [60744,"2017-04-10T19:00:00","ND","ND","ND","ND","1.3","0.4","ND","ND","ND","ND","ND","0"],
    [60745,"2017-04-10T20:00:00","ND","ND","ND","ND","0.7","1.0","ND","ND","ND","ND","ND","0"],
    [60746,"2017-04-10T21:00:00","ND","ND","ND","ND","0.2","1.6","ND","ND","ND","ND","ND","0"],
    [60747,"2017-04-10T22:00:00","54.4","ND","ND","ND","0.0","1.1","ND","ND","ND","ND","ND","0"],
    [60748,"2017-04-10T23:00:00","37.6","ND","ND","ND","0.0","1.6","ND","ND","ND","ND","ND","0"],
    [60749,"2017-04-11T00:00:00","24.9","ND","ND","ND","1.4","1.3","ND","ND","ND","ND","ND","0"],
    [60750,"2017-04-11T01:00:00","19.3","ND","ND","ND","6.5","1.0","ND","ND","ND","ND","ND","0"],
    [60751,"2017-04-11T02:00:00","ND","ND","ND","ND","17.8","1.0","ND","ND","ND","ND","ND","0"],
    [60752,"2017-04-11T03:00:00","8.1","ND","ND","ND","4.3","3.5","ND","ND","ND","ND","ND","0"],
    [60753,"2017-04-11T04:00:00","13.1","ND","ND","ND","10.7","1.9","ND","ND","ND","ND","ND","0"],
    [60754,"2017-04-11T05:00:00","11.6","ND","ND","ND","3.6","4.3","ND","ND","ND","ND","ND","0"],
    [60755,"2017-04-11T06:00:00","19.4","ND","ND","ND","2.0","3.0","ND","ND","ND","ND","ND","0"],
    [60756,"2017-04-11T07:00:00","25.2","ND","ND","ND","0.0","5.8","ND","ND","ND","ND","ND","0"],
    [60757,"2017-04-11T08:00:00","38.5","ND","ND","ND","0.1","10.2","ND","ND","ND","ND","ND","0"],
    [60758,"2017-04-11T09:00:00","24.9","ND","ND","ND","1.9","5.6","ND","ND","ND","ND","ND","0"],
    [60759,"2017-04-11T10:00:00","15.2","ND","ND","ND","1.9","3.5","ND","ND","ND","ND","ND","0"],
    [60760,"2017-04-11T11:00:00","11.4","ND","ND","ND","4.9","1.8","ND","ND","ND","ND","ND","0"],
    [60761,"2017-04-11T12:00:00","19.3","ND","ND","ND","17.9","2.4","ND","ND","ND","ND","ND","0"],
    [60762,"2017-04-11T13:00:00","18.4","ND","ND","ND","54.2","1.8","ND","ND","ND","ND","ND","0"],
    [60763,"2017-04-11T14:00:00","1.4","ND","ND","ND","86.3","1.2","ND","ND","ND","ND","ND","0"],
    [60764,"2017-04-11T15:00:00","0.6","ND","ND","ND","57.6","1.4","ND","ND","ND","ND","ND","0"],
    [60765,"2017-04-11T16:00:00","0.8","ND","ND","ND","39.2","1.2","ND","ND","ND","ND","ND","0"],
    [60766,"2017-04-11T17:00:00","2.4","ND","ND","ND","24.6","1.7","ND","ND","ND","ND","ND","0"],
    [60767,"2017-04-11T18:00:00","3.1","ND","ND","ND","15.4","1.5","ND","ND","ND","ND","ND","0"],
    [60768,"2017-04-11T19:00:00","8.2","ND","ND","ND","2.1","0.8","ND","ND","ND","ND","ND","0"],
    [60769,"2017-04-11T20:00:00","17.9","ND","ND","ND","0.2","1.6","ND","ND","ND","ND","ND","0"],
    [60770,"2017-04-11T21:00:00","22.4","ND","ND","ND","0.0","1.9","ND","ND","ND","ND","ND","0"],
    [60771,"2017-04-11T22:00:00","24.2","ND","ND","ND","0.5","1.3","ND","ND","ND","ND","ND","0"],
    [60772,"2017-04-11T23:00:00","24.8","ND","ND","ND","0.0","1.2","ND","ND","ND","ND","ND","0"],
    [60773,"2017-04-12T00:00:00","23","ND","ND","ND","0.0","1.4","ND","ND","ND","ND","ND","0"],
    [60774,"2017-04-12T01:00:00","23.1","ND","ND","ND","0.0","2.9","ND","ND","ND","ND","ND","0"],
    [60775,"2017-04-12T02:00:00","30","ND","ND","ND","0.0","3.8","ND","ND","ND","ND","ND","0"],
    [60776,"2017-04-12T03:00:00","33.5","ND","ND","ND","3.1","4.7","ND","ND","ND","ND","ND","0"],
    [60777,"2017-04-12T04:00:00","27.9","ND","ND","ND","2.7","5.0","ND","ND","ND","ND","ND","0"],
    [60778,"2017-04-12T05:00:00","13.1","ND","ND","ND","0.5","4.1","ND","ND","ND","ND","ND","0"],
    [60779,"2017-04-12T06:00:00","15","ND","ND","ND","0.0","2.5","ND","ND","ND","ND","ND","0"],
    [60780,"2017-04-12T07:00:00","15.5","ND","ND","ND","0.0","2.7","ND","ND","ND","ND","ND","0"],
    [60781,"2017-04-12T08:00:00","23.4","ND","ND","ND","0.0","2.0","ND","ND","ND","ND","ND","0"],
    [60782,"2017-04-12T09:00:00","17.9","ND","ND","ND","8.4","1.4","ND","ND","ND","ND","ND","0"],
    [60783,"2017-04-12T10:00:00","14.6","ND","ND","ND","35.3","1.9","ND","ND","ND","ND","ND","0"],
    [60784,"2017-04-12T11:00:00","12.5","ND","ND","ND","53.9","1.9","ND","ND","ND","ND","ND","0"],
    [60785,"2017-04-12T12:00:00","4","ND","ND","ND","68.1","1.3","ND","ND","ND","ND","ND","0"],
    [60786,"2017-04-12T13:00:00","1.1","ND","ND","ND","92.5","1.2","ND","ND","ND","ND","ND","0"],
    [60787,"2017-04-12T14:00:00","8.6","ND","ND","ND","120.1","1.4","ND","ND","ND","ND","ND","0"],
    [60788,"2017-04-12T15:00:00","7.8","ND","ND","ND","128.9","1.1","ND","ND","ND","ND","ND","0"],
    [60789,"2017-04-12T16:00:00","18.1","ND","ND","ND","110.4","0.9","ND","ND","ND","ND","ND","0"],
    [60790,"2017-04-12T17:00:00","10.3","ND","ND","ND","80.1","0.9","ND","ND","ND","ND","ND","0"],
    [60791,"2017-04-12T18:00:00","21.9","ND","ND","ND","50.7","2.3","ND","ND","ND","ND","ND","0"],
    [60792,"2017-04-12T19:00:00","22.1","ND","ND","ND","45.4","2.1","ND","ND","ND","ND","ND","0"],
    [60793,"2017-04-12T20:00:00","18.7","ND","ND","ND","14.7","1.6","ND","ND","ND","ND","ND","0"],
    [60794,"2017-04-12T21:00:00","13.2","ND","ND","ND","3.9","1.4","ND","ND","ND","ND","ND","0"],
    [60795,"2017-04-12T22:00:00","10.8","ND","ND","ND","5.5","1.4","ND","ND","ND","ND","ND","0"],
    [60796,"2017-04-12T23:00:00","31.8","ND","ND","ND","0.0","2.7","ND","ND","ND","ND","ND","0"],
    [60797,"2017-04-13T00:00:00","19.4","ND","ND","ND","2.9","3.7","ND","ND","ND","ND","ND","0"],
    [60798,"2017-04-13T01:00:00","ND","ND","ND","ND","2.2","1.6","ND","ND","ND","ND","ND","0"],
    [60799,"2017-04-13T02:00:00","15.3","ND","ND","ND","1.2","2.0","ND","ND","ND","ND","ND","0"],
    [60800,"2017-04-13T03:00:00","44.1","ND","ND","ND","0.9","1.8","ND","ND","ND","ND","ND","0"],
    [60801,"2017-04-13T04:00:00","40.8","ND","ND","ND","0.9","3.7","ND","ND","ND","ND","ND","0"],
    [60802,"2017-04-13T05:00:00","34.9","ND","ND","ND","0.7","2.8","ND","ND","ND","ND","ND","0"],
    [60803,"2017-04-13T06:00:00","26.7","ND","ND","ND","0.5","3.1","ND","ND","ND","ND","ND","0"],
    [60804,"2017-04-13T07:00:00","26.3","ND","ND","ND","0.5","3.4","ND","ND","ND","ND","ND","0"],
    [60805,"2017-04-13T08:00:00","36.1","ND","ND","ND","4.2","4.3","ND","ND","ND","ND","ND","0"],
    [60806,"2017-04-13T09:00:00","18.6","ND","ND","ND","18.5","3.3","ND","ND","ND","ND","ND","0"],
    [60807,"2017-04-13T10:00:00","9.9","ND","ND","ND","42.3","2.0","ND","ND","ND","ND","ND","0"],
    [60808,"2017-04-13T11:00:00","2","ND","ND","ND","74.9","0.8","ND","ND","ND","ND","ND","0"],
    [60809,"2017-04-13T12:00:00","3.8","ND","ND","ND","97.0","1.4","ND","ND","ND","ND","ND","0"],
    [60810,"2017-04-13T13:00:00","9.1","ND","ND","ND","104.9","1.0","ND","ND","ND","ND","ND","0"],
    [60811,"2017-04-13T14:00:00","13.2","ND","ND","ND","102.3","0.7","ND","ND","ND","ND","ND","0"],
    [60812,"2017-04-13T15:00:00","8.5","ND","ND","ND","84.9","0.8","ND","ND","ND","ND","ND","0"],
    [60813,"2017-04-13T16:00:00","7.4","ND","ND","ND","62.8","1.2","ND","ND","ND","ND","ND","0"],
    [60814,"2017-04-13T17:00:00","15.1","ND","ND","ND","43.4","0.6","ND","ND","ND","ND","ND","0"],
    [60815,"2017-04-13T18:00:00","ND","ND","ND","ND","40.3","0.6","ND","ND","ND","ND","ND","0"],
    [60816,"2017-04-13T19:00:00","ND","ND","ND","ND","27.4","1.3","ND","ND","ND","ND","ND","0"],
    [60817,"2017-04-13T20:00:00","4.9","ND","ND","ND","19.1","0.6","ND","ND","ND","ND","ND","0"],
    [60818,"2017-04-13T21:00:00","15.7","ND","ND","ND","14.7","1.2","ND","ND","ND","ND","ND","0"],
    [60819,"2017-04-13T22:00:00","14.5","ND","ND","ND","13.7","1.7","ND","ND","ND","ND","ND","0"],
    [60820,"2017-04-13T23:00:00","2.5","ND","ND","ND","12.7","1.5","ND","ND","ND","ND","ND","0"],
    [60821,"2017-04-14T00:00:00","6.1","ND","ND","ND","8.8","1.6","ND","ND","ND","ND","ND","0"],
    [60822,"2017-04-14T01:00:00","1.4","ND","ND","ND","8.1","1.7","ND","ND","ND","ND","ND","0"],
    [60823,"2017-04-14T02:00:00","ND","ND","ND","ND","9.8","2.2","ND","ND","ND","ND","ND","0"],
    [60824,"2017-04-14T03:00:00","ND","ND","ND","ND","17.9","0.5","ND","ND","ND","ND","ND","0"],
    [60825,"2017-04-14T04:00:00","6.9","ND","ND","ND","10.0","0.5","ND","ND","ND","ND","ND","0"],
    [60826,"2017-04-14T05:00:00","21.3","ND","ND","ND","3.9","1.3","ND","ND","ND","ND","ND","0"],
    [60827,"2017-04-14T06:00:00","11.1","ND","ND","ND","3.8","1.8","ND","ND","ND","ND","ND","0"],
    [60828,"2017-04-14T07:00:00","9","ND","ND","ND","2.7","2.6","ND","ND","ND","ND","ND","0"],
    [60829,"2017-04-14T08:00:00","0.3","ND","ND","ND","3.5","2.0","ND","ND","ND","ND","ND","0"],
    [60830,"2017-04-14T09:00:00","14.4","ND","ND","ND","3.8","3.5","ND","ND","ND","ND","ND","0"],
    [60831,"2017-04-14T10:00:00","14.5","ND","ND","ND","23.5","2.2","ND","ND","ND","ND","ND","0"],
    [60832,"2017-04-14T11:00:00","ND","ND","ND","ND","38.7","1.7","ND","ND","ND","ND","ND","0"],
    [60833,"2017-04-14T12:00:00","ND","ND","ND","ND","43.4","1.2","ND","ND","ND","ND","ND","0"],
    [60834,"2017-04-14T13:00:00","ND","ND","ND","ND","37.4","1.0","ND","ND","ND","ND","ND","0"],
    [60835,"2017-04-14T14:00:00","1.5","ND","ND","ND","33.1","1.0","ND","ND","ND","ND","ND","0"],
    [60836,"2017-04-14T15:00:00","0.4","ND","ND","ND","28.0","0.7","ND","ND","ND","ND","ND","0"],
    [60837,"2017-04-14T16:00:00","ND","ND","ND","ND","36.4","1.6","ND","ND","ND","ND","ND","0"],
    [60838,"2017-04-14T17:00:00","8.2","ND","ND","ND","37.5","0.7","ND","ND","ND","ND","ND","0"],
    [60839,"2017-04-14T18:00:00","22.8","ND","ND","ND","22.8","0.9","ND","ND","ND","ND","ND","0"],
    [60840,"2017-04-14T19:00:00","24.1","ND","ND","ND","11.1","0.9","ND","ND","ND","ND","ND","0"],
    [60841,"2017-04-14T20:00:00","14.3","ND","ND","ND","2.6","0.7","ND","ND","ND","ND","ND","0"],
    [60842,"2017-04-14T21:00:00","10.9","ND","ND","ND","4.4","0.6","ND","ND","ND","ND","ND","0"],
    [60843,"2017-04-14T22:00:00","6.7","ND","ND","ND","7.2","0.9","ND","ND","ND","ND","ND","0"],
    [60844,"2017-04-14T23:00:00","2.1","ND","ND","ND","5.2","1.8","ND","ND","ND","ND","ND","0"],
    [60845,"2017-04-15T00:00:00","12","ND","ND","ND","0.9","2.0","ND","ND","ND","ND","ND","0"],
    [60846,"2017-04-15T01:00:00","12.2","ND","ND","ND","0.9","1.7","ND","ND","ND","ND","ND","0"],
    [60847,"2017-04-15T02:00:00","14.9","ND","ND","ND","1.2","1.1","ND","ND","ND","ND","ND","0"],
    [60848,"2017-04-15T03:00:00","12.9","ND","ND","ND","1.3","1.9","ND","ND","ND","ND","ND","0"],
    [60849,"2017-04-15T04:00:00","6.2","ND","ND","ND","1.7","2.1","ND","ND","ND","ND","ND","0"],
    [60850,"2017-04-15T05:00:00","7.2","ND","ND","ND","2.1","1.5","ND","ND","ND","ND","ND","0"],
    [60851,"2017-04-15T06:00:00","5.1","ND","ND","ND","0.6","1.8","ND","ND","ND","ND","ND","0"],
    [60852,"2017-04-15T07:00:00","14","ND","ND","ND","0.4","4.1","ND","ND","ND","ND","ND","0"],
    [60853,"2017-04-15T08:00:00","29.2","ND","ND","ND","2.4","5.7","ND","ND","ND","ND","ND","0"],
    [60854,"2017-04-15T09:00:00","28.8","ND","ND","ND","7.3","3.5","ND","ND","ND","ND","ND","0"],
    [60855,"2017-04-15T10:00:00","18.4","ND","ND","ND","22.3","2.7","ND","ND","ND","ND","ND","0"],
    [60856,"2017-04-15T11:00:00","11.3","ND","ND","ND","41.5","2.2","ND","ND","ND","ND","ND","0"],
    [60857,"2017-04-15T12:00:00","5.5","ND","ND","ND","67.6","1.1","ND","ND","ND","ND","ND","0"],
    [60858,"2017-04-15T13:00:00","4.8","ND","ND","ND","91.1","0.9","ND","ND","ND","ND","ND","0"],
    [60859,"2017-04-15T14:00:00","14.6","ND","ND","ND","105.9","0.7","ND","ND","ND","ND","ND","0"],
    [60860,"2017-04-15T15:00:00","20.8","ND","ND","ND","109.8","1.1","ND","ND","ND","ND","ND","0"],
    [60861,"2017-04-15T16:00:00","18.6","ND","ND","ND","84.3","1.5","ND","ND","ND","ND","ND","0"],
    [60862,"2017-04-15T17:00:00","4","ND","ND","ND","26.2","0.5","ND","ND","ND","ND","ND","0"],
    [60863,"2017-04-15T18:00:00","1.3","ND","ND","ND","20.1","0.8","ND","ND","ND","ND","ND","0"],
    [60864,"2017-04-15T19:00:00","ND","ND","ND","ND","11.8","1.1","ND","ND","ND","ND","ND","0"],
    [60865,"2017-04-15T20:00:00","11.6","ND","ND","ND","1.5","0.9","ND","ND","ND","ND","ND","0"],
    [60866,"2017-04-15T21:00:00","21.4","ND","ND","ND","1.9","1.3","ND","ND","ND","ND","ND","0"],
    [60867,"2017-04-15T22:00:00","23.3","ND","ND","ND","1.0","3.1","ND","ND","ND","ND","ND","0"],
    [60868,"2017-04-15T23:00:00","26.1","ND","ND","ND","1.0","2.6","ND","ND","ND","ND","ND","0"],
    [60869,"2017-04-16T00:00:00","23.5","ND","ND","ND","0.7","2.5","ND","ND","ND","ND","ND","0"],
    [60870,"2017-04-16T01:00:00","16.4","ND","ND","ND","0.6","2.3","ND","ND","ND","ND","ND","0"],
    [60871,"2017-04-16T02:00:00","15.5","ND","ND","ND","0.9","2.4","ND","ND","ND","ND","ND","0"],
    [60872,"2017-04-16T03:00:00","13.2","ND","ND","ND","0.7","2.5","ND","ND","ND","ND","ND","0"],
    [60873,"2017-04-16T04:00:00","13.4","ND","ND","ND","1.1","1.9","ND","ND","ND","ND","ND","0"],
    [60874,"2017-04-16T05:00:00","12.1","ND","ND","ND","0.8","2.0","ND","ND","ND","ND","ND","0"],
    [60875,"2017-04-16T06:00:00","15.7","ND","ND","ND","0.6","1.9","ND","ND","ND","ND","ND","0"],
    [60876,"2017-04-16T07:00:00","24.4","ND","ND","ND","0.5","3.0","ND","ND","ND","ND","ND","0"],
    [60877,"2017-04-16T08:00:00","26.8","ND","ND","ND","0.5","2.8","ND","ND","ND","ND","ND","0"],
    [60878,"2017-04-16T09:00:00","24.1","ND","ND","ND","4.5","2.0","ND","ND","ND","ND","ND","0"],
    [60879,"2017-04-16T10:00:00","17","ND","ND","ND","25.8","2.0","ND","ND","ND","ND","ND","0"],
    [60880,"2017-04-16T11:00:00","1.7","ND","ND","ND","37.0","1.3","ND","ND","ND","ND","ND","0"],
    [60881,"2017-04-16T12:00:00","ND","ND","ND","ND","46.1","1.4","ND","ND","ND","ND","ND","0"],
    [60882,"2017-04-16T13:00:00","6.1","ND","ND","ND","57.2","1.6","ND","ND","ND","ND","ND","0"],
    [60883,"2017-04-16T14:00:00","14.6","ND","ND","ND","66.4","1.1","ND","ND","ND","ND","ND","0"],
    [60884,"2017-04-16T15:00:00","4","ND","ND","ND","54.2","0.9","ND","ND","ND","ND","ND","0"],
    [60885,"2017-04-16T16:00:00","2.6","ND","ND","ND","41.4","1.1","ND","ND","ND","ND","ND","0"],
    [60886,"2017-04-16T17:00:00","ND","ND","ND","ND","22.7","0.5","ND","ND","ND","ND","ND","0"],
    [60887,"2017-04-16T18:00:00","ND","ND","ND","ND","14.5","1.0","ND","ND","ND","ND","ND","0"],
    [60888,"2017-04-16T19:00:00","ND","ND","ND","ND","10.9","0.7","ND","ND","ND","ND","ND","0"],
    [60889,"2017-04-16T20:00:00","7.9","ND","ND","ND","3.7","0.7","ND","ND","ND","ND","ND","0"],
    [60890,"2017-04-16T21:00:00","13.9","ND","ND","ND","0.9","1.5","ND","ND","ND","ND","ND","0"],
    [60891,"2017-04-16T22:00:00","25","ND","ND","ND","0.7","2.2","ND","ND","ND","ND","ND","0"],
    [60892,"2017-04-16T23:00:00","24.8","ND","ND","ND","8.2","1.5","ND","ND","ND","ND","ND","0"],
    [60893,"2017-04-17T00:00:00","16","ND","ND","ND","1.5","2.1","ND","ND","ND","ND","ND","0"],
    [60894,"2017-04-17T01:00:00","14","ND","ND","ND","2.5","1.7","ND","ND","ND","ND","ND","0"],
    [60895,"2017-04-17T02:00:00","3.7","ND","ND","ND","1.0","1.9","ND","ND","ND","ND","ND","0"],
    [60896,"2017-04-17T03:00:00","5.9","ND","ND","ND","0.9","2.0","ND","ND","ND","ND","ND","0"],
    [60897,"2017-04-17T04:00:00","11.3","ND","ND","ND","0.2","2.1","ND","ND","ND","ND","ND","0"],
    [60898,"2017-04-17T05:00:00","9","ND","ND","ND","0.2","1.5","ND","ND","ND","ND","ND","0"],
    [60899,"2017-04-17T06:00:00","1.4","ND","ND","ND","0.2","0.9","ND","ND","ND","ND","ND","0"],
    [60900,"2017-04-17T07:00:00","ND","ND","ND","ND","0.1","1.0","ND","ND","ND","ND","ND","0"],
    [60901,"2017-04-17T08:00:00","4.5","ND","ND","ND","0.1","1.8","ND","ND","ND","ND","ND","0"],
    [60902,"2017-04-17T09:00:00","9.1","ND","ND","ND","0.1","1.4","ND","ND","ND","ND","ND","0"],
    [60903,"2017-04-17T10:00:00","25.5","ND","ND","ND","1.8","2.1","ND","ND","ND","ND","ND","0"],
    [60904,"2017-04-17T11:00:00","18.2","ND","ND","ND","18.5","1.7","ND","ND","ND","ND","ND","0"],
    [60905,"2017-04-17T12:00:00","2.7","ND","ND","ND","42.0","1.9","ND","ND","ND","ND","ND","0"],
    [60906,"2017-04-17T13:00:00","ND","ND","ND","ND","62.8","1.8","ND","ND","ND","ND","ND","0"],
    [60907,"2017-04-17T14:00:00","5.6","ND","ND","ND","78.2","1.4","ND","ND","ND","ND","ND","0"],
    [60908,"2017-04-17T15:00:00","4.2","ND","ND","ND","36.7","1.7","ND","ND","ND","ND","ND","0"],
    [60909,"2017-04-17T16:00:00","1.1","ND","ND","ND","5.3","0.7","ND","ND","ND","ND","ND","0"],
    [60910,"2017-04-17T17:00:00","25","ND","ND","ND","1.8","0.7","ND","ND","ND","ND","ND","0"],
    [60911,"2017-04-17T18:00:00","15.3","ND","ND","ND","0.8","3.6","ND","ND","ND","ND","ND","0"],
    [60912,"2017-04-17T19:00:00","15.1","ND","ND","ND","0.5","10.5","ND","ND","ND","ND","ND","0"],
    [60913,"2017-04-17T20:00:00","17.1","ND","ND","ND","0.3","4.6","ND","ND","ND","ND","ND","0"],
    [60914,"2017-04-17T21:00:00","10.8","ND","ND","ND","0.3","1.7","ND","ND","ND","ND","ND","0"],
    [60915,"2017-04-17T22:00:00","2.5","ND","ND","ND","0.1","1.4","ND","ND","ND","ND","ND","0"],
    [60916,"2017-04-17T23:00:00","3","ND","ND","ND","0.1","1.3","ND","ND","ND","ND","ND","0"],
    [60917,"2017-04-18T00:00:00","5.8","ND","ND","ND","0.0","1.5","ND","ND","ND","ND","ND","0"],
    [60918,"2017-04-18T01:00:00","3.2","ND","ND","ND","0.0","1.3","ND","ND","ND","ND","ND","0"],
    [60919,"2017-04-18T02:00:00","1.5","ND","ND","ND","0.0","1.2","ND","ND","ND","ND","ND","0"],
    [60920,"2017-04-18T03:00:00","5.7","ND","ND","ND","0.0","1.6","ND","ND","ND","ND","ND","0"],
    [60921,"2017-04-18T04:00:00","12","ND","ND","ND","0.0","3.1","ND","ND","ND","ND","ND","0"],
    [60922,"2017-04-18T05:00:00","14.3","ND","ND","ND","0.0","2.3","ND","ND","ND","ND","ND","0"],
    [60923,"2017-04-18T06:00:00","19.1","ND","ND","ND","0.0","2.0","ND","ND","ND","ND","ND","0"],
    [60924,"2017-04-18T07:00:00","21","ND","ND","ND","0.0","1.6","ND","ND","ND","ND","ND","0"],
    [60925,"2017-04-18T08:00:00","19.8","ND","ND","ND","0.1","2.9","ND","ND","ND","ND","ND","0"],
    [60926,"2017-04-18T09:00:00","35.6","ND","ND","ND","3.2","1.1","ND","ND","ND","ND","ND","0"],
    [60927,"2017-04-18T10:00:00","20","ND","ND","ND","39.5","0.9","ND","ND","ND","ND","ND","0"],
    [60928,"2017-04-18T11:00:00","1.9","ND","ND","ND","62.9","1.3","ND","ND","ND","ND","ND","0"],
    [60929,"2017-04-18T12:00:00","6","ND","ND","ND","78.2","1.1","ND","ND","ND","ND","ND","0"],
    [60930,"2017-04-18T13:00:00","9.1","ND","ND","ND","79.2","1.2","ND","ND","ND","ND","ND","0"],
    [60931,"2017-04-18T14:00:00","15.3","ND","ND","ND","80.9","1.2","ND","ND","ND","ND","ND","0"],
    [60932,"2017-04-18T15:00:00","9.1","ND","ND","ND","56.6","0.8","ND","ND","ND","ND","ND","0"],
    [60933,"2017-04-18T16:00:00","ND","ND","ND","ND","18.3","1.5","ND","ND","ND","ND","ND","0"],
    [60934,"2017-04-18T17:00:00","4.3","ND","ND","ND","8.0","1.6","ND","ND","ND","ND","ND","0"],
    [60935,"2017-04-18T18:00:00","12.1","ND","ND","ND","3.1","0.7","ND","ND","ND","ND","ND","0"],
    [60936,"2017-04-18T19:00:00","10","ND","ND","ND","0.8","1.1","ND","ND","ND","ND","ND","0"],
    [60937,"2017-04-18T20:00:00","22.1","ND","ND","ND","0.6","1.2","ND","ND","ND","ND","ND","0"],
    [60938,"2017-04-18T21:00:00","35.8","ND","ND","ND","0.5","1.1","ND","ND","ND","ND","ND","0"],
    [60939,"2017-04-18T22:00:00","22.7","ND","ND","ND","2.6","1.4","ND","ND","ND","ND","ND","0"],
    [60940,"2017-04-18T23:00:00","13.4","ND","ND","ND","0.2","1.7","ND","ND","ND","ND","ND","0"],
    [60941,"2017-04-19T00:00:00","13","ND","ND","ND","0.3","1.0","ND","ND","ND","ND","ND","0"],
    [60942,"2017-04-19T01:00:00","2","ND","ND","ND","0.2","0.5","ND","ND","ND","ND","ND","0"],
    [60943,"2017-04-19T02:00:00","ND","ND","ND","ND","0.6","0.9","ND","ND","ND","ND","ND","0"],
    [60944,"2017-04-19T03:00:00","1.2","ND","ND","ND","2.1","1.2","ND","ND","ND","ND","ND","0"],
    [60945,"2017-04-19T04:00:00","1","ND","ND","ND","0.6","1.1","ND","ND","ND","ND","ND","0"],
    [60946,"2017-04-19T05:00:00","10.5","ND","ND","ND","0.1","1.0","ND","ND","ND","ND","ND","0"],
    [60947,"2017-04-19T06:00:00","6","ND","ND","ND","0.3","2.0","ND","ND","ND","ND","ND","0"],
    [60948,"2017-04-19T07:00:00","ND","ND","ND","ND","0.0","3.2","ND","ND","ND","ND","ND","0"],
    [60949,"2017-04-19T08:00:00","ND","ND","ND","ND","0.0","3.1","ND","ND","ND","ND","ND","0"],
    [60950,"2017-04-19T09:00:00","ND","ND","ND","ND","0.3","1.1","ND","ND","ND","ND","ND","0"],
    [60951,"2017-04-19T10:00:00","11.9","ND","ND","ND","0.0","1.2","ND","ND","ND","ND","ND","0"],
    [60952,"2017-04-19T11:00:00","36.2","ND","ND","ND","80.8","1.8","ND","ND","ND","ND","ND","30.73"],
    [60953,"2017-04-19T12:00:00","42.1","ND","ND","ND","135.3","0.4","ND","ND","ND","ND","ND","0"],
    [60954,"2017-04-19T13:00:00","13.7","ND","ND","ND","73.0","ND","ND","ND","ND","ND","ND","0.25"],
    [60955,"2017-04-19T14:00:00","1","ND","ND","ND","102.3","ND","ND","ND","ND","ND","ND","0"],
    [60956,"2017-04-19T15:00:00","4.4","ND","ND","ND","60.1","ND","ND","ND","ND","ND","ND","0"],
    [60957,"2017-04-19T16:00:00","ND","ND","ND","ND","36.4","ND","ND","ND","ND","ND","ND","0"],
    [60958,"2017-04-19T17:00:00","ND","ND","ND","ND","19.0","ND","ND","ND","ND","ND","ND","0"],
    [60959,"2017-04-19T18:00:00","0.9","ND","ND","ND","11.4","ND","ND","ND","ND","ND","ND","0"],
    [60960,"2017-04-19T19:00:00","5","ND","ND","ND","3.5","0.1","ND","ND","ND","ND","ND","0"],
    [60961,"2017-04-19T20:00:00","28.8","ND","ND","ND","0.1","0.3","ND","ND","ND","ND","ND","0"],
    [60962,"2017-04-19T21:00:00","35.1","ND","ND","ND","2.2","0.1","ND","ND","ND","ND","ND","0"],
    [60963,"2017-04-19T22:00:00","21.6","ND","ND","ND","8.6","0.2","ND","ND","ND","ND","ND","0"],
    [60964,"2017-04-19T23:00:00","20.6","ND","ND","ND","0.5","0.2","ND","ND","ND","ND","ND","0"],
    [60965,"2017-04-20T00:00:00","15.4","ND","ND","ND","0.7","0.1","ND","ND","ND","ND","ND","0"],
    [60966,"2017-04-20T01:00:00","9.6","ND","ND","ND","0.4","0.1","ND","ND","ND","ND","ND","0"],
    [60967,"2017-04-20T02:00:00","3.7","ND","ND","ND","0.9","0.1","ND","ND","ND","ND","ND","0"],
    [60968,"2017-04-20T03:00:00","19.1","ND","ND","ND","0.0","0.5","ND","ND","ND","ND","ND","0"],
    [60969,"2017-04-20T04:00:00","17.5","ND","ND","ND","0.0","0.5","ND","ND","ND","ND","ND","0"],
    [60970,"2017-04-20T05:00:00","9.9","ND","ND","ND","0.0","0.7","ND","ND","ND","ND","ND","0"],
    [60971,"2017-04-20T06:00:00","14.7","ND","ND","ND","0.0","0.8","ND","ND","ND","ND","ND","0"],
    [60972,"2017-04-20T07:00:00","23.9","ND","ND","ND","0.0","0.8","ND","ND","ND","ND","ND","0"],
    [60973,"2017-04-20T08:00:00","29.1","ND","ND","ND","0.2","0.7","ND","ND","ND","ND","ND","0"],
    [60974,"2017-04-20T09:00:00","38.6","ND","ND","ND","3.8","0.5","ND","ND","ND","ND","ND","0"],
    [60975,"2017-04-20T10:00:00","29.3","ND","ND","ND","15.2","0.1","ND","ND","ND","ND","ND","0"],
    [60976,"2017-04-20T11:00:00","12.9","ND","ND","ND","15.6","0.1","ND","ND","ND","ND","ND","0"],
    [60977,"2017-04-20T12:00:00","7.1","ND","ND","ND","36.6","0.2","ND","ND","ND","ND","ND","0"],
    [60978,"2017-04-20T13:00:00","ND","ND","ND","ND","23.8","0.1","ND","ND","ND","ND","ND","0"],
    [60979,"2017-04-20T14:00:00","9.2","ND","ND","ND","14.0","0.3","ND","ND","ND","ND","ND","0"],
    [60980,"2017-04-20T15:00:00","12.3","ND","ND","ND","6.4","0.1","ND","ND","ND","ND","ND","0.25"],
    [60981,"2017-04-20T16:00:00","15","ND","ND","ND","1.7","0.3","ND","ND","ND","ND","ND","3.81"],
    [60982,"2017-04-20T17:00:00","22","ND","ND","ND","0.3","1.0","ND","ND","ND","ND","ND","4.06"],
    [60983,"2017-04-20T18:00:00","8","ND","ND","ND","0.1","0.2","ND","ND","ND","ND","ND","6.86"],
    [60984,"2017-04-20T19:00:00","ND","ND","ND","ND","0.1","0.1","ND","ND","ND","ND","ND","5.59"],
    [60985,"2017-04-20T20:00:00","ND","ND","ND","ND","0.0","0.0","ND","ND","ND","ND","ND","0.51"],
    [60986,"2017-04-20T21:00:00","1.3","ND","ND","ND","0.0","0.0","ND","ND","ND","ND","ND","0"],
    [60987,"2017-04-20T22:00:00","4.7","ND","ND","ND","0.0","0.1","ND","ND","ND","ND","ND","0.25"],
    [60988,"2017-04-20T23:00:00","8.4","ND","ND","ND","0.0","0.2","ND","ND","ND","ND","ND","0"],
    [60989,"2017-04-21T00:00:00","10.3","ND","ND","ND","0.0","0.3","ND","ND","ND","ND","ND","0"],
    [60990,"2017-04-21T01:00:00","11.2","ND","ND","ND","0.0","0.1","ND","ND","ND","ND","ND","0"],
    [60991,"2017-04-21T02:00:00","19.9","ND","ND","ND","0.0","0.1","ND","ND","ND","ND","ND","0"],
    [60992,"2017-04-21T03:00:00","27.8","ND","ND","ND","0.0","0.2","ND","ND","ND","ND","ND","0"],
    [60993,"2017-04-21T04:00:00","12","ND","ND","ND","0.0","0.2","ND","ND","ND","ND","ND","0"],
    [60994,"2017-04-21T05:00:00","10.9","ND","ND","ND","0.0","0.9","ND","ND","ND","ND","ND","0"],
    [60995,"2017-04-21T06:00:00","18.4","ND","ND","ND","0.0","1.2","ND","ND","ND","ND","ND","0"],
    [60996,"2017-04-21T07:00:00","30.5","ND","ND","ND","0.0","1.4","ND","ND","ND","ND","ND","0"],
    [60997,"2017-04-21T08:00:00","30.2","ND","ND","ND","0.0","1.9","ND","ND","ND","ND","ND","0"],
    [60998,"2017-04-21T09:00:00","41.1","ND","ND","ND","0.1","1.5","ND","ND","ND","ND","ND","0"],
    [60999,"2017-04-21T10:00:00","30.2","ND","ND","ND","7.9","1.1","ND","ND","ND","ND","ND","0"],
    [61000,"2017-04-21T11:00:00","17.8","ND","ND","ND","24.6","0.2","ND","ND","ND","ND","ND","0"],
    [61001,"2017-04-21T12:00:00","5.8","ND","ND","ND","30.5","0.1","ND","ND","ND","ND","ND","0"],
    [61002,"2017-04-21T13:00:00","13.5","ND","ND","ND","51.6","0.2","ND","ND","ND","ND","ND","0"],
    [61003,"2017-04-21T14:00:00","12.9","ND","ND","ND","67.5","0.2","ND","ND","ND","ND","ND","0"],
    [61004,"2017-04-21T15:00:00","8.7","ND","ND","ND","70.6","0.0","ND","ND","ND","ND","ND","0"],
    [61005,"2017-04-21T16:00:00","8.3","ND","ND","ND","72.0","0.1","ND","ND","ND","ND","ND","0"],
    [61006,"2017-04-21T17:00:00","9.1","ND","ND","ND","57.9","0.2","ND","ND","ND","ND","ND","0"],
    [61007,"2017-04-21T18:00:00","13.5","ND","ND","ND","46.4","0.0","ND","ND","ND","ND","ND","0"],
    [61008,"2017-04-21T19:00:00","17.1","ND","ND","ND","9.2","0.1","ND","ND","ND","ND","ND","0"],
    [61009,"2017-04-21T20:00:00","31.6","ND","ND","ND","0.3","0.2","ND","ND","ND","ND","ND","0"],
    [61010,"2017-04-21T21:00:00","35.8","ND","ND","ND","0.1","0.2","ND","ND","ND","ND","ND","0"],
    [61011,"2017-04-21T22:00:00","31.1","ND","ND","ND","0.0","0.1","ND","ND","ND","ND","ND","0"],
    [61012,"2017-04-21T23:00:00","32.1","ND","ND","ND","0.0","0.3","ND","ND","ND","ND","ND","0"],
    [61013,"2017-04-22T00:00:00","28.5","ND","ND","ND","0.0","0.1","ND","ND","ND","ND","ND","0"],
    [61014,"2017-04-22T01:00:00","18.2","ND","ND","ND","0.0","0.0","ND","ND","ND","ND","ND","0"],
    [61015,"2017-04-22T02:00:00","14.9","ND","ND","ND","0.0","0.4","ND","ND","ND","ND","ND","0"],
    [61016,"2017-04-22T03:00:00","26.5","ND","ND","ND","0.0","1.7","ND","ND","ND","ND","ND","0"],
    [61017,"2017-04-22T04:00:00","27","ND","ND","ND","0.0","2.8","ND","ND","ND","ND","ND","0"],
    [61018,"2017-04-22T05:00:00","33.8","ND","ND","ND","0.0","4.0","ND","ND","ND","ND","ND","0"],
    [61019,"2017-04-22T06:00:00","42.9","ND","ND","ND","0.0","4.1","ND","ND","ND","ND","ND","0"],
    [61020,"2017-04-22T07:00:00","37","ND","ND","ND","0.0","4.4","ND","ND","ND","ND","ND","0"],
    [61021,"2017-04-22T08:00:00","34.3","ND","ND","ND","1.2","3.4","ND","ND","ND","ND","ND","0"],
    [61022,"2017-04-22T09:00:00","36.8","ND","ND","ND","11.0","3.2","ND","ND","ND","ND","ND","0"],
    [61023,"2017-04-22T10:00:00","31","ND","ND","ND","51.2","1.0","ND","ND","ND","ND","ND","0"],
    [61024,"2017-04-22T11:00:00","17.6","ND","ND","ND","84.3","0.2","ND","ND","ND","ND","ND","0"],
    [61025,"2017-04-22T12:00:00","10.6","ND","ND","ND","90.3","0.1","ND","ND","ND","ND","ND","0"],
    [61026,"2017-04-22T13:00:00","2.3","ND","ND","ND","86.4","0.1","ND","ND","ND","ND","ND","0"],
    [61027,"2017-04-22T14:00:00","12.2","ND","ND","ND","118.1","0.1","ND","ND","ND","ND","ND","0"],
    [61028,"2017-04-22T15:00:00","16.4","ND","ND","ND","116.0","0.1","ND","ND","ND","ND","ND","0"],
    [61029,"2017-04-22T16:00:00","19.7","ND","ND","ND","75.9","0.0","ND","ND","ND","ND","ND","0"],
    [61030,"2017-04-22T17:00:00","8.3","ND","ND","ND","44.9","0.1","ND","ND","ND","ND","ND","0"],
    [61031,"2017-04-22T18:00:00","7.2","ND","ND","ND","21.0","0.2","ND","ND","ND","ND","ND","0"],
    [61032,"2017-04-22T19:00:00","0.6","ND","ND","ND","7.0","0.2","ND","ND","ND","ND","ND","0"],
    [61033,"2017-04-22T20:00:00","7.4","ND","ND","ND","0.8","0.1","ND","ND","ND","ND","ND","0"],
    [61034,"2017-04-22T21:00:00","22.2","ND","ND","ND","0.6","0.4","ND","ND","ND","ND","ND","0"],
    [61035,"2017-04-22T22:00:00","21.1","ND","ND","ND","0.8","0.9","ND","ND","ND","ND","ND","0"],
    [61036,"2017-04-22T23:00:00","7.5","ND","ND","ND","0.9","0.2","ND","ND","ND","ND","ND","0"],
    [61037,"2017-04-23T00:00:00","2.7","ND","ND","ND","0.9","0.4","ND","ND","ND","ND","ND","0"],
    [61038,"2017-04-23T01:00:00","4.8","ND","ND","ND","0.1","0.8","ND","ND","ND","ND","ND","0"],
    [61039,"2017-04-23T02:00:00","3.1","ND","ND","ND","0.0","1.5","ND","ND","ND","ND","ND","0"],
    [61040,"2017-04-23T03:00:00","6.1","ND","ND","ND","0.3","0.4","ND","ND","ND","ND","ND","0"],
    [61041,"2017-04-23T04:00:00","12.8","ND","ND","ND","0.2","0.6","ND","ND","ND","ND","ND","0"],
    [61042,"2017-04-23T05:00:00","25.7","ND","ND","ND","0.4","0.7","ND","ND","ND","ND","ND","0"],
    [61043,"2017-04-23T06:00:00","32.5","ND","ND","ND","0.5","1.5","ND","ND","ND","ND","ND","0"],
    [61044,"2017-04-23T07:00:00","26.5","ND","ND","ND","0.6","2.5","ND","ND","ND","ND","ND","0"],
    [61045,"2017-04-23T08:00:00","34.3","ND","ND","ND","2.6","3.5","ND","ND","ND","ND","ND","0"],
    [61046,"2017-04-23T09:00:00","34","ND","ND","ND","13.3","2.4","ND","ND","ND","ND","ND","0"],
    [61047,"2017-04-23T10:00:00","16.3","ND","ND","ND","42.6","0.5","ND","ND","ND","ND","ND","0"],
    [61048,"2017-04-23T11:00:00","9.1","ND","ND","ND","78.9","0.1","ND","ND","ND","ND","ND","0"],
    [61049,"2017-04-23T12:00:00","11.9","ND","ND","ND","91.7","0.1","ND","ND","ND","ND","ND","0"],
    [61050,"2017-04-23T13:00:00","13.4","ND","ND","ND","85.5","0.1","ND","ND","ND","ND","ND","0"],
    [61051,"2017-04-23T14:00:00","16","ND","ND","ND","92.8","0.1","ND","ND","ND","ND","ND","0"],
    [61052,"2017-04-23T15:00:00","12.7","ND","ND","ND","46.1","0.2","ND","ND","ND","ND","ND","0"],
    [61053,"2017-04-23T16:00:00","4.3","ND","ND","ND","24.9","0.1","ND","ND","ND","ND","ND","0"],
    [61054,"2017-04-23T17:00:00","ND","ND","ND","ND","22.0","0.0","ND","ND","ND","ND","ND","0"],
    [61055,"2017-04-23T18:00:00","ND","ND","ND","ND","19.9","0.1","ND","ND","ND","ND","ND","0"],
    [61056,"2017-04-23T19:00:00","3.9","ND","ND","ND","7.3","0.1","ND","ND","ND","ND","ND","0"],
    [61057,"2017-04-23T20:00:00","21","ND","ND","ND","1.9","0.1","ND","ND","ND","ND","ND","0"],
    [61058,"2017-04-23T21:00:00","24.1","ND","ND","ND","2.0","0.2","ND","ND","ND","ND","ND","0"],
    [61059,"2017-04-23T22:00:00","22.2","ND","ND","ND","2.2","0.2","ND","ND","ND","ND","ND","0.25"],
    [61060,"2017-04-23T23:00:00","15","ND","ND","ND","1.5","0.4","ND","ND","ND","ND","ND","0"],
    [61061,"2017-04-24T00:00:00","10.9","ND","ND","ND","1.9","0.3","ND","ND","ND","ND","ND","0.25"],
    [61062,"2017-04-24T01:00:00","13.2","ND","ND","ND","0.4","0.2","ND","ND","ND","ND","ND","0"],
    [61063,"2017-04-24T02:00:00","9.6","ND","ND","ND","0.1","0.1","ND","ND","ND","ND","ND","0"],
    [61064,"2017-04-24T03:00:00","9.8","ND","ND","ND","0.1","0.3","ND","ND","ND","ND","ND","0"],
    [61065,"2017-04-24T04:00:00","10.9","ND","ND","ND","2.8","0.2","ND","ND","ND","ND","ND","0"],
    [61066,"2017-04-24T05:00:00","5.5","ND","ND","ND","1.6","0.1","ND","ND","ND","ND","ND","0"],
    [61067,"2017-04-24T06:00:00","9.2","ND","ND","ND","0.1","0.3","ND","ND","ND","ND","ND","0"],
    [61068,"2017-04-24T07:00:00","22.7","ND","ND","ND","0.5","2.0","ND","ND","ND","ND","ND","0"],
    [61069,"2017-04-24T08:00:00","40","ND","ND","ND","1.8","7.6","ND","ND","ND","ND","ND","0"],
    [61070,"2017-04-24T09:00:00","33.8","ND","ND","ND","5.3","2.5","ND","ND","ND","ND","ND","0"],
    [61071,"2017-04-24T10:00:00","26.9","ND","ND","ND","17.8","2.4","ND","ND","ND","ND","ND","0"],
    [61072,"2017-04-24T11:00:00","14.3","ND","ND","ND","ND","5.3","ND","ND","ND","ND","ND","0"],
    [61073,"2017-04-24T12:00:00","14.7","ND","ND","ND","ND","8.3","ND","ND","ND","ND","ND","0"],
    [61074,"2017-04-24T13:00:00","12.7","ND","ND","ND","ND","4.4","ND","ND","ND","ND","ND","0"],
    [61075,"2017-04-24T14:00:00","0.9","ND","ND","ND","ND","3.5","ND","ND","ND","ND","ND","0"],
    [61076,"2017-04-24T15:00:00","6.7","ND","ND","ND","ND","3.2","ND","ND","ND","ND","ND","0"],
    [61077,"2017-04-24T16:00:00","17.8","ND","ND","ND","ND","3.8","ND","ND","ND","ND","ND","0"],
    [61078,"2017-04-24T17:00:00","4.6","ND","ND","ND","ND","3.7","ND","ND","ND","ND","ND","0"],
    [61079,"2017-04-24T18:00:00","12.7","ND","ND","ND","ND","2.8","ND","ND","ND","ND","ND","0"],
    [61080,"2017-04-24T19:00:00","4.5","ND","ND","ND","ND","1.7","ND","ND","ND","ND","ND","0"],
    [61081,"2017-04-24T20:00:00","ND","ND","ND","ND","ND","1.8","ND","ND","ND","ND","ND","0"],
    [61082,"2017-04-24T21:00:00","47.6","ND","ND","ND","ND","1.9","ND","ND","ND","ND","ND","0"],
    [61083,"2017-04-24T22:00:00","100.6","ND","ND","ND","ND","1.6","ND","ND","ND","ND","ND","0"],
    [61084,"2017-04-24T23:00:00","56.4","ND","ND","ND","ND","2.0","ND","ND","ND","ND","ND","0"],
    [61085,"2017-04-25T00:00:00","31.4","ND","ND","ND","ND","1.9","ND","ND","ND","ND","ND","0"],
    [61086,"2017-04-25T01:00:00","27.2","ND","ND","ND","ND","1.8","ND","ND","ND","ND","ND","0"],
    [61087,"2017-04-25T02:00:00","20.4","ND","ND","ND","ND","1.7","ND","ND","ND","ND","ND","0"],
    [61088,"2017-04-25T03:00:00","20.2","ND","ND","ND","ND","2.0","ND","ND","ND","ND","ND","0"],
    [61089,"2017-04-25T04:00:00","14.2","ND","ND","ND","ND","1.6","ND","ND","ND","ND","ND","0"],
    [61090,"2017-04-25T05:00:00","16.3","ND","ND","ND","ND","1.7","ND","ND","ND","ND","ND","0"],
    [61091,"2017-04-25T06:00:00","26.3","ND","ND","ND","ND","4.2","ND","ND","ND","ND","ND","0"],
    [61092,"2017-04-25T07:00:00","29.6","ND","ND","ND","5.4","13.9","ND","ND","ND","ND","ND","0"],
    [61093,"2017-04-25T08:00:00","39.8","ND","ND","ND","9.5","10.8","ND","ND","ND","ND","ND","0"],
    [61094,"2017-04-25T09:00:00","46.7","ND","ND","ND","16.6","6.3","ND","ND","ND","ND","ND","0"],
    [61095,"2017-04-25T10:00:00","22.3","ND","ND","ND","32.2","3.2","ND","ND","ND","ND","ND","0"],
    [61096,"2017-04-25T11:00:00","2.9","ND","ND","ND","47.2","2.2","ND","ND","ND","ND","ND","0"],
    [61097,"2017-04-25T12:00:00","9.7","ND","ND","ND","50.6","2.2","ND","ND","ND","ND","ND","0"],
    [61098,"2017-04-25T13:00:00","5","ND","ND","ND","20.0","1.2","ND","ND","ND","ND","ND","0"],
    [61099,"2017-04-25T14:00:00","1.1","ND","ND","ND","17.3","1.1","ND","ND","ND","ND","ND","0"],
    [61100,"2017-04-25T15:00:00","ND","ND","ND","ND","19.2","0.8","ND","ND","ND","ND","ND","0.25"],
    [61101,"2017-04-25T16:00:00","ND","ND","ND","ND","ND","ND","ND","ND","ND","ND","ND","ND"],
    [61102,"2017-04-25T17:00:00","35.8","ND","ND","ND","13.4","0.5","ND","ND","ND","ND","ND","0"],
    [61103,"2017-04-25T18:00:00","18.7","ND","ND","ND","12.8","0.6","ND","ND","ND","ND","ND","0"],
    [61104,"2017-04-25T19:00:00","ND","ND","ND","ND","3.7","1.1","ND","ND","ND","ND","ND","0"],
    [61105,"2017-04-25T20:00:00","12.8","ND","ND","ND","3.5","1.0","ND","ND","ND","ND","ND","0"],
    [61106,"2017-04-25T21:00:00","46.5","ND","ND","ND","0.1","1.8","ND","ND","ND","ND","ND","0"],
    [61107,"2017-04-25T22:00:00","52.3","ND","ND","ND","0.5","2.6","ND","ND","ND","ND","ND","0"],
    [61108,"2017-04-25T23:00:00","56.6","ND","ND","ND","0.1","5.0","ND","ND","ND","ND","ND","0"],
    [61109,"2017-04-26T00:00:00","39.7","ND","ND","ND","0.5","3.3","ND","ND","ND","ND","ND","0"],
    [61110,"2017-04-26T01:00:00","24.3","ND","ND","ND","0.3","7.1","ND","ND","ND","ND","ND","0"],
    [61111,"2017-04-26T02:00:00","15.8","ND","ND","ND","0.5","4.8","ND","ND","ND","ND","ND","0"],
    [61112,"2017-04-26T03:00:00","13.7","ND","ND","ND","8.7","1.6","ND","ND","ND","ND","ND","0"],
    [61113,"2017-04-26T04:00:00","13.1","ND","ND","ND","10.1","1.8","ND","ND","ND","ND","ND","1.52"],
    [61114,"2017-04-26T05:00:00","4","ND","ND","ND","7.4","1.1","ND","ND","ND","ND","ND","8.64"],
    [61115,"2017-04-26T06:00:00","4.9","ND","ND","ND","2.8","0.9","ND","ND","ND","ND","ND","9.65"],
    [61116,"2017-04-26T07:00:00","3.4","ND","ND","ND","0.1","0.9","ND","ND","ND","ND","ND","63.5"],
    [61117,"2017-04-26T08:00:00","6.4","ND","ND","ND","0.2","0.5","ND","ND","ND","ND","ND","9.65"],
    [61118,"2017-04-26T09:00:00","13.3","ND","ND","ND","0.2","0.7","ND","ND","ND","ND","ND","1.02"],
    [61119,"2017-04-26T10:00:00","13.1","ND","ND","ND","4.1","0.7","ND","ND","ND","ND","ND","0.51"],
    [61120,"2017-04-26T11:00:00","22.6","ND","ND","ND","9.3","1.4","ND","ND","ND","ND","ND","0.25"],
    [61121,"2017-04-26T12:00:00","3.3","ND","ND","ND","18.6","1.1","ND","ND","ND","ND","ND","0.25"],
    [61122,"2017-04-26T13:00:00","5.6","ND","ND","ND","30.0","0.6","ND","ND","ND","ND","ND","0"],
    [61123,"2017-04-26T14:00:00","18.7","ND","ND","ND","84.5","0.6","ND","ND","ND","ND","ND","0"],
    [61124,"2017-04-26T15:00:00","1.9","ND","ND","ND","90.7","0.5","ND","ND","ND","ND","ND","0"],
    [61125,"2017-04-26T16:00:00","12.8","ND","ND","ND","50.1","1.0","ND","ND","ND","ND","ND","0"],
    [61126,"2017-04-26T17:00:00","10.9","ND","ND","ND","58.9","0.6","ND","ND","ND","ND","ND","0"],
    [61127,"2017-04-26T18:00:00","4.8","ND","ND","ND","39.7","2.1","ND","ND","ND","ND","ND","0"],
    [61128,"2017-04-26T19:00:00","12.2","ND","ND","ND","14.3","2.9","ND","ND","ND","ND","ND","0"],
    [61129,"2017-04-26T20:00:00","27.6","ND","ND","ND","0.4","2.8","ND","ND","ND","ND","ND","0"],
    [61130,"2017-04-26T21:00:00","29.8","ND","ND","ND","0.5","2.1","ND","ND","ND","ND","ND","0"],
    [61131,"2017-04-26T22:00:00","18","ND","ND","ND","0.4","1.1","ND","ND","ND","ND","ND","0"],
    [61132,"2017-04-26T23:00:00","15.6","ND","ND","ND","0.2","1.5","ND","ND","ND","ND","ND","0"],
    [61133,"2017-04-27T00:00:00","12.8","ND","ND","ND","0.0","1.2","ND","ND","ND","ND","ND","0"],
    [61134,"2017-04-27T01:00:00","13.5","ND","ND","ND","0.0","0.9","ND","ND","ND","ND","ND","0"],
    [61135,"2017-04-27T02:00:00","9.1","ND","ND","ND","0.0","1.4","ND","ND","ND","ND","ND","0"],
    [61136,"2017-04-27T03:00:00","11.7","ND","ND","ND","0.1","2.5","ND","ND","ND","ND","ND","0"],
    [61137,"2017-04-27T04:00:00","19.9","ND","ND","ND","0.0","3.8","ND","ND","ND","ND","ND","0"],
    [61138,"2017-04-27T05:00:00","22.8","ND","ND","ND","0.1","7.0","ND","ND","ND","ND","ND","0"],
    [61139,"2017-04-27T06:00:00","19.3","ND","ND","ND","0.0","6.8","ND","ND","ND","ND","ND","0"],
    [61140,"2017-04-27T07:00:00","24.7","ND","ND","ND","0.1","4.9","ND","ND","ND","ND","ND","0"],
    [61141,"2017-04-27T08:00:00","35","ND","ND","ND","0.4","4.5","ND","ND","ND","ND","ND","0"],
    [61142,"2017-04-27T09:00:00","35.3","ND","ND","ND","9.9","3.2","ND","ND","ND","ND","ND","0"],
    [61143,"2017-04-27T10:00:00","25.7","ND","ND","ND","38.4","2.3","ND","ND","ND","ND","ND","0"],
    [61144,"2017-04-27T11:00:00","17.5","ND","ND","ND","72.6","1.0","ND","ND","ND","ND","ND","0"],
    [61145,"2017-04-27T12:00:00","10.5","ND","ND","ND","101.1","1.0","ND","ND","ND","ND","ND","0"],
    [61146,"2017-04-27T13:00:00","20.3","ND","ND","ND","114.0","0.3","ND","ND","ND","ND","ND","0"],
    [61147,"2017-04-27T14:00:00","19.6","ND","ND","ND","119.6","1.0","ND","ND","ND","ND","ND","0"],
    [61148,"2017-04-27T15:00:00","18.1","ND","ND","ND","103.8","1.2","ND","ND","ND","ND","ND","0"],
    [61149,"2017-04-27T16:00:00","12.6","ND","ND","ND","53.3","0.5","ND","ND","ND","ND","ND","0"],
    [61150,"2017-04-27T17:00:00","2.8","ND","ND","ND","27.8","1.0","ND","ND","ND","ND","ND","0"],
    [61151,"2017-04-27T18:00:00","ND","ND","ND","ND","15.6","0.3","ND","ND","ND","ND","ND","0"],
    [61152,"2017-04-27T19:00:00","ND","ND","ND","ND","4.8","1.0","ND","ND","ND","ND","ND","0"],
    [61153,"2017-04-27T20:00:00","4.7","ND","ND","ND","2.0","1.5","ND","ND","ND","ND","ND","0"],
    [61154,"2017-04-27T21:00:00","40.3","ND","ND","ND","1.3","1.7","ND","ND","ND","ND","ND","0"],
    [61155,"2017-04-27T22:00:00","38.7","ND","ND","ND","1.4","1.5","ND","ND","ND","ND","ND","0"],
    [61156,"2017-04-27T23:00:00","38.3","ND","ND","ND","1.0","1.2","ND","ND","ND","ND","ND","0"],
    [61157,"2017-04-28T00:00:00","22.2","ND","ND","ND","0.7","1.5","ND","ND","ND","ND","ND","0"],
    [61158,"2017-04-28T01:00:00","8.8","ND","ND","ND","0.4","1.8","ND","ND","ND","ND","ND","0"],
    [61159,"2017-04-28T02:00:00","4.2","ND","ND","ND","0.5","1.5","ND","ND","ND","ND","ND","0"],
    [61160,"2017-04-28T03:00:00","15.8","ND","ND","ND","0.6","1.5","ND","ND","ND","ND","ND","0"],
    [61161,"2017-04-28T04:00:00","13.4","ND","ND","ND","0.6","1.8","ND","ND","ND","ND","ND","0"],
    [61162,"2017-04-28T05:00:00","22.3","ND","ND","ND","0.6","2.7","ND","ND","ND","ND","ND","0"],
    [61163,"2017-04-28T06:00:00","28.8","ND","ND","ND","0.2","1.9","ND","ND","ND","ND","ND","0"],
    [61164,"2017-04-28T07:00:00","37.2","ND","ND","ND","0.5","1.9","ND","ND","ND","ND","ND","0"],
    [61165,"2017-04-28T08:00:00","42.8","ND","ND","ND","1.3","2.8","ND","ND","ND","ND","ND","0"],
    [61166,"2017-04-28T09:00:00","39.2","ND","ND","ND","4.2","2.4","ND","ND","ND","ND","ND","0"],
    [61167,"2017-04-28T10:00:00","46.5","ND","ND","ND","38.3","2.2","ND","ND","ND","ND","ND","0"],
    [61168,"2017-04-28T11:00:00","ND","ND","ND","ND","ND","ND","ND","ND","ND","ND","ND","ND"],
    [61169,"2017-04-28T12:00:00","ND","ND","ND","ND","ND","ND","ND","ND","ND","ND","ND","ND"],
    [61170,"2017-04-28T13:00:00","ND","ND","ND","ND","ND","ND","ND","ND","ND","ND","ND","ND"],
    [61171,"2017-04-28T14:00:00","ND","ND","ND","ND","ND","ND","ND","ND","ND","ND","ND","ND"],
    [61172,"2017-04-28T15:00:00","ND","ND","ND","ND","ND","ND","ND","ND","ND","ND","ND","ND"],
    [61173,"2017-04-28T16:00:00","25.4","ND","ND","ND","81.2","0.5","ND","ND","ND","ND","ND","ND"],
    [61174,"2017-04-28T17:00:00","1.6","ND","ND","ND","44.5","0.5","ND","ND","ND","ND","ND","ND"],
    [61175,"2017-04-28T18:00:00","ND","ND","ND","ND","32.0","0.7","ND","ND","ND","ND","ND","ND"],
    [61176,"2017-04-28T19:00:00","4.5","ND","ND","ND","18.7","0.5","ND","ND","ND","ND","ND","ND"],
    [61177,"2017-04-28T20:00:00","24.9","ND","ND","ND","11.5","0.9","ND","ND","ND","ND","ND","ND"],
    [61178,"2017-04-28T21:00:00","32.7","ND","ND","ND","ND","2.1","ND","ND","ND","ND","ND","ND"],
    [61179,"2017-04-28T22:00:00","25.4","ND","ND","ND","ND","1.1","ND","ND","ND","ND","ND","ND"],
    [61180,"2017-04-28T23:00:00","22.8","ND","ND","ND","ND","1.3","ND","ND","ND","ND","ND","ND"],
    [61181,"2017-04-29T00:00:00","23.3","ND","ND","ND","ND","2.1","ND","ND","ND","ND","ND","ND"],
    [61182,"2017-04-29T01:00:00","16.7","ND","ND","ND","ND","2.0","ND","ND","ND","ND","ND","ND"],
    [61183,"2017-04-29T02:00:00","0.5","ND","ND","ND","ND","2.3","ND","ND","ND","ND","ND","ND"],
    [61184,"2017-04-29T03:00:00","16","ND","ND","ND","0.2","1.9","ND","ND","ND","ND","ND","ND"],
    [61185,"2017-04-29T04:00:00","27.5","ND","ND","ND","2.3","1.7","ND","ND","ND","ND","ND","ND"],
    [61186,"2017-04-29T05:00:00","22.9","ND","ND","ND","ND","1.5","ND","ND","ND","ND","ND","ND"],
    [61187,"2017-04-29T06:00:00","23.2","ND","ND","ND","ND","1.0","ND","ND","ND","ND","ND","ND"],
    [61188,"2017-04-29T07:00:00","15.9","ND","ND","ND","ND","1.5","ND","ND","ND","ND","ND","ND"],
    [61189,"2017-04-29T08:00:00","25.7","ND","ND","ND","ND","2.2","ND","ND","ND","ND","ND","ND"],
    [61190,"2017-04-29T09:00:00","25.5","ND","ND","ND","3.4","2.0","ND","ND","ND","ND","ND","ND"],
    [61191,"2017-04-29T10:00:00","25.8","ND","ND","ND","15.2","2.6","ND","ND","ND","ND","ND","ND"],
    [61192,"2017-04-29T11:00:00","14","ND","ND","ND","41.4","1.2","ND","ND","ND","ND","ND","ND"],
    [61193,"2017-04-29T12:00:00","7.3","ND","ND","ND","72.0","1.0","ND","ND","ND","ND","ND","ND"],
    [61194,"2017-04-29T13:00:00","0.7","ND","ND","ND","78.6","0.8","ND","ND","ND","ND","ND","ND"],
    [61195,"2017-04-29T14:00:00","11.1","ND","ND","ND","83.0","0.4","ND","ND","ND","ND","ND","ND"],
    [61196,"2017-04-29T15:00:00","9.6","ND","ND","ND","33.5","0.8","ND","ND","ND","ND","ND","ND"],
    [61197,"2017-04-29T16:00:00","ND","ND","ND","ND","24.7","0.5","ND","ND","ND","ND","ND","ND"],
    [61198,"2017-04-29T17:00:00","ND","ND","ND","ND","22.5","0.3","ND","ND","ND","ND","ND","ND"],
    [61199,"2017-04-29T18:00:00","ND","ND","ND","ND","15.4","0.5","ND","ND","ND","ND","ND","ND"],
    [61200,"2017-04-29T19:00:00","5.2","ND","ND","ND","2.7","0.6","ND","ND","ND","ND","ND","ND"],
    [61201,"2017-04-29T20:00:00","14.9","ND","ND","ND","7.6","0.4","ND","ND","ND","ND","ND","ND"],
    [61202,"2017-04-29T21:00:00","6.2","ND","ND","ND","5.9","0.8","ND","ND","ND","ND","ND","ND"],
    [61203,"2017-04-29T22:00:00","19.1","ND","ND","ND","ND","1.1","ND","ND","ND","ND","ND","ND"],
    [61204,"2017-04-29T23:00:00","15.8","ND","ND","ND","1.1","1.6","ND","ND","ND","ND","ND","ND"],
    [61205,"2017-04-30T00:00:00","22.6","ND","ND","ND","5.4","0.8","ND","ND","ND","ND","ND","ND"],
    [61206,"2017-04-30T01:00:00","20","ND","ND","ND","ND","1.4","ND","ND","ND","ND","ND","ND"],
    [61207,"2017-04-30T02:00:00","10.4","ND","ND","ND","0.1","1.9","ND","ND","ND","ND","ND","ND"],
    [61208,"2017-04-30T03:00:00","12.1","ND","ND","ND","ND","1.7","ND","ND","ND","ND","ND","ND"],
    [61209,"2017-04-30T04:00:00","14.6","ND","ND","ND","ND","1.8","ND","ND","ND","ND","ND","ND"],
    [61210,"2017-04-30T05:00:00","12.5","ND","ND","ND","ND","2.6","ND","ND","ND","ND","ND","ND"],
    [61211,"2017-04-30T06:00:00","15.6","ND","ND","ND","ND","2.2","ND","ND","ND","ND","ND","ND"],
    [61212,"2017-04-30T07:00:00","11.7","ND","ND","ND","ND","1.8","ND","ND","ND","ND","ND","ND"],
    [61213,"2017-04-30T08:00:00","17.8","ND","ND","ND","1.0","1.8","ND","ND","ND","ND","ND","ND"],
    [61214,"2017-04-30T09:00:00","15.8","ND","ND","ND","12.7","1.5","ND","ND","ND","ND","ND","ND"],
    [61215,"2017-04-30T10:00:00","11.4","ND","ND","ND","24.1","1.5","ND","ND","ND","ND","ND","ND"],
    [61216,"2017-04-30T11:00:00","3.6","ND","ND","ND","20.8","1.5","ND","ND","ND","ND","ND","ND"],
    [61217,"2017-04-30T12:00:00","11.8","ND","ND","ND","26.6","1.4","ND","ND","ND","ND","ND","ND"],
    [61218,"2017-04-30T13:00:00","16","ND","ND","ND","47.1","1.1","ND","ND","ND","ND","ND","ND"],
    [61219,"2017-04-30T14:00:00","5.2","ND","ND","ND","43.6","1.5","ND","ND","ND","ND","ND","ND"],
    [61220,"2017-04-30T15:00:00","0.1","ND","ND","ND","25.2","1.0","ND","ND","ND","ND","ND","ND"],
    [61221,"2017-04-30T16:00:00","5.5","ND","ND","ND","0.1","0.5","ND","ND","ND","ND","ND","ND"],
    [61222,"2017-04-30T17:00:00","24.7","ND","ND","ND","ND","0.5","ND","ND","ND","ND","ND","ND"],
    [61223,"2017-04-30T18:00:00","15.1","ND","ND","ND","ND","0.9","ND","ND","ND","ND","ND","ND"],
    [61224,"2017-04-30T19:00:00","4.3","ND","ND","ND","ND","0.7","ND","ND","ND","ND","ND","ND"],
    [61225,"2017-04-30T20:00:00","6.8","ND","ND","ND","ND","0.6","ND","ND","ND","ND","ND","ND"],
    [61226,"2017-04-30T21:00:00","2.5","ND","ND","ND","ND","0.6","ND","ND","ND","ND","ND","ND"],
    [61227,"2017-04-30T22:00:00","2.5","ND","ND","ND","ND","0.8","ND","ND","ND","ND","ND","ND"],
    [61228,"2017-04-30T23:00:00","1.3","ND","ND","ND","0.9","0.6","ND","ND","ND","ND","ND","ND"],
    [61229,"2017-05-01T00:00:00","0.5","ND","ND","ND","ND","0.9","ND","ND","ND","ND","ND","ND"],
    [61230,"2017-05-01T01:00:00","13","ND","ND","ND","ND","1.7","ND","ND","ND","ND","ND","ND"],
    [61231,"2017-05-01T02:00:00","18.2","ND","ND","ND","ND","0.7","ND","ND","ND","ND","ND","ND"],
    [61232,"2017-05-01T03:00:00","6.4","ND","ND","ND","ND","0.8","ND","ND","ND","ND","ND","ND"],
    [61233,"2017-05-01T04:00:00","8.4","ND","ND","ND","ND","1.2","ND","ND","ND","ND","ND","ND"],
    [61234,"2017-05-01T05:00:00","8.2","ND","ND","ND","ND","1.0","ND","ND","ND","ND","ND","ND"],
    [61235,"2017-05-01T06:00:00","3.2","ND","ND","ND","ND","0.8","ND","ND","ND","ND","ND","ND"],
    [61236,"2017-05-01T07:00:00","ND","ND","ND","ND","ND","0.9","ND","ND","ND","ND","ND","ND"],
    [61237,"2017-05-01T08:00:00","21.3","ND","ND","ND","4.1","1.3","ND","ND","ND","ND","ND","ND"],
    [61238,"2017-05-01T09:00:00","15.8","ND","ND","ND","9.9","1.6","ND","ND","ND","ND","ND","ND"],
    [61239,"2017-05-01T10:00:00","24.3","ND","ND","ND","19.1","1.3","ND","ND","ND","ND","ND","ND"],
    [61240,"2017-05-01T11:00:00","16.4","ND","ND","ND","39.7","0.9","ND","ND","ND","ND","ND","ND"],
    [61241,"2017-05-01T12:00:00","13.1","ND","ND","ND","72.6","0.6","ND","ND","ND","ND","ND","ND"],
    [61242,"2017-05-01T13:00:00","5.8","ND","ND","ND","73.7","0.7","ND","ND","ND","ND","ND","ND"],
    [61243,"2017-05-01T14:00:00","3.3","ND","ND","ND","74.3","0.7","ND","ND","ND","ND","ND","ND"],
    [61244,"2017-05-01T15:00:00","0.9","ND","ND","ND","37.3","0.4","ND","ND","ND","ND","ND","ND"],
    [61245,"2017-05-01T16:00:00","0.8","ND","ND","ND","9.3","0.4","ND","ND","ND","ND","ND","ND"],
    [61246,"2017-05-01T17:00:00","21.4","ND","ND","ND","ND","1.7","ND","ND","ND","ND","ND","ND"],
    [61247,"2017-05-01T18:00:00","27.1","ND","ND","ND","ND","3.1","ND","ND","ND","ND","ND","ND"],
    [61248,"2017-05-01T19:00:00","14.1","ND","ND","ND","1.8","2.0","ND","ND","ND","ND","ND","ND"],
    [61249,"2017-05-01T20:00:00","3.8","ND","ND","ND","ND","1.6","ND","ND","ND","ND","ND","ND"],
    [61250,"2017-05-01T21:00:00","7.5","ND","ND","ND","ND","1.4","ND","ND","ND","ND","ND","ND"],
    [61251,"2017-05-01T22:00:00","13.9","ND","ND","ND","ND","1.7","ND","ND","ND","ND","ND","ND"],
    [61252,"2017-05-01T23:00:00","10.6","ND","ND","ND","ND","2.4","ND","ND","ND","ND","ND","ND"],
    [61253,"2017-05-02T00:00:00","5.9","ND","ND","ND","ND","3.1","ND","ND","ND","ND","ND","ND"],
    [61254,"2017-05-02T01:00:00","7.6","ND","ND","ND","ND","4.8","ND","ND","ND","ND","ND","ND"],
    [61255,"2017-05-02T02:00:00","6.3","ND","ND","ND","ND","4.9","ND","ND","ND","ND","ND","ND"],
    [61256,"2017-05-02T03:00:00","4.3","ND","ND","ND","ND","3.5","ND","ND","ND","ND","ND","ND"],
    [61257,"2017-05-02T04:00:00","0.8","ND","ND","ND","ND","2.6","ND","ND","ND","ND","ND","ND"],
    [61258,"2017-05-02T05:00:00","7.4","ND","ND","ND","ND","4.5","ND","ND","ND","ND","ND","ND"],
    [61259,"2017-05-02T06:00:00","8.1","ND","ND","ND","ND","8.7","ND","ND","ND","ND","ND","ND"],
    [61260,"2017-05-02T07:00:00","15.2","ND","ND","ND","ND","9.1","ND","ND","ND","ND","ND","ND"],
    [61261,"2017-05-02T08:00:00","19","ND","ND","ND","ND","8.1","ND","ND","ND","ND","ND","ND"],
    [61262,"2017-05-02T09:00:00","14.9","ND","ND","ND","ND","3.9","ND","ND","ND","ND","ND","ND"],
    [61263,"2017-05-02T10:00:00","11","ND","ND","ND","6.0","2.0","ND","ND","ND","ND","ND","ND"],
    [61264,"2017-05-02T11:00:00","8.3","ND","ND","ND","14.6","1.4","ND","ND","ND","ND","ND","ND"],
    [61265,"2017-05-02T12:00:00","1.9","ND","ND","ND","37.5","0.8","ND","ND","ND","ND","ND","0"],
    [61266,"2017-05-02T13:00:00","0.5","ND","ND","ND","57.7","0.7","ND","ND","ND","ND","ND","0"],
    [61267,"2017-05-02T14:00:00","4.4","ND","ND","ND","54.0","0.5","ND","ND","ND","ND","ND","0"],
    [61268,"2017-05-02T15:00:00","1.7","ND","ND","ND","35.4","0.8","ND","ND","ND","ND","ND","0"],
    [61269,"2017-05-02T16:00:00","3.7","ND","ND","ND","21.0","0.3","ND","ND","ND","ND","ND","0"],
    [61270,"2017-05-02T17:00:00","2.7","ND","ND","ND","11.7","0.6","ND","ND","ND","ND","ND","0"],
    [61271,"2017-05-02T18:00:00","ND","ND","ND","ND","3.5","0.8","ND","ND","ND","ND","ND","0"],
    [61272,"2017-05-02T19:00:00","2.9","ND","ND","ND","0.8","0.6","ND","ND","ND","ND","ND","0"],
    [61273,"2017-05-02T20:00:00","13.6","ND","ND","ND","1.3","1.3","ND","ND","ND","ND","ND","0"],
    [61274,"2017-05-02T21:00:00","30.4","ND","ND","ND","1.3","0.9","ND","ND","ND","ND","ND","0"],
    [61275,"2017-05-02T22:00:00","32.7","ND","ND","ND","1.8","1.1","ND","ND","ND","ND","ND","0"],
    [61276,"2017-05-02T23:00:00","16.6","ND","ND","ND","2.1","1.7","ND","ND","ND","ND","ND","0"],
    [61277,"2017-05-03T00:00:00","11.5","ND","ND","ND","1.6","1.6","ND","ND","ND","ND","ND","0"],
    [61278,"2017-05-03T01:00:00","9.3","ND","ND","ND","0.9","1.3","ND","ND","ND","ND","ND","0"],
    [61279,"2017-05-03T02:00:00","12.8","ND","ND","ND","0.7","1.7","ND","ND","ND","ND","ND","0"],
    [61280,"2017-05-03T03:00:00","20","ND","ND","ND","0.7","2.5","ND","ND","ND","ND","ND","0"],
    [61281,"2017-05-03T04:00:00","16.8","ND","ND","ND","0.6","1.7","ND","ND","ND","ND","ND","0"],
    [61282,"2017-05-03T05:00:00","16","ND","ND","ND","0.6","2.4","ND","ND","ND","ND","ND","0"],
    [61283,"2017-05-03T06:00:00","20.2","ND","ND","ND","0.5","2.3","ND","ND","ND","ND","ND","0"],
    [61284,"2017-05-03T07:00:00","20.8","ND","ND","ND","0.5","3.7","ND","ND","ND","ND","ND","0"],
    [61285,"2017-05-03T08:00:00","32.9","ND","ND","ND","1.1","ND","ND","ND","ND","ND","ND","0"],
    [61286,"2017-05-03T09:00:00","42.6","ND","ND","ND","6.2","13.2","ND","ND","ND","ND","ND","0"],
    [61287,"2017-05-03T10:00:00","27.9","ND","ND","ND","24.4","6.1","ND","ND","ND","ND","ND","0"],
    [61288,"2017-05-03T11:00:00","33.8","ND","ND","ND","48.2","1.6","ND","ND","ND","ND","ND","0"],
    [61289,"2017-05-03T12:00:00","13.5","ND","ND","ND","60.7","0.8","ND","ND","ND","ND","ND","0"],
    [61290,"2017-05-03T13:00:00","3","ND","ND","ND","67.2","1.4","ND","ND","ND","ND","ND","0"],
    [61291,"2017-05-03T14:00:00","ND","ND","ND","ND","47.5","0.9","ND","ND","ND","ND","ND","0"],
    [61292,"2017-05-03T15:00:00","2.4","ND","ND","ND","31.6","0.6","ND","ND","ND","ND","ND","0"],
    [61293,"2017-05-03T16:00:00","ND","ND","ND","ND","30.4","1.4","ND","ND","ND","ND","ND","0"],
    [61294,"2017-05-03T17:00:00","11.2","ND","ND","ND","19.2","0.9","ND","ND","ND","ND","ND","0.51"],
    [61295,"2017-05-03T18:00:00","33.1","ND","ND","ND","8.0","0.9","ND","ND","ND","ND","ND","1.02"],
    [61296,"2017-05-03T19:00:00","25","ND","ND","ND","3.1","0.5","ND","ND","ND","ND","ND","0.51"],
    [61297,"2017-05-03T20:00:00","18.3","ND","ND","ND","1.4","0.9","ND","ND","ND","ND","ND","0.25"],
    [61298,"2017-05-03T21:00:00","15","ND","ND","ND","1.0","0.6","ND","ND","ND","ND","ND","0"],
    [61299,"2017-05-03T22:00:00","18.7","ND","ND","ND","0.9","1.4","ND","ND","ND","ND","ND","0"],
    [61300,"2017-05-03T23:00:00","16.1","ND","ND","ND","1.3","1.7","ND","ND","ND","ND","ND","0"],
    [61301,"2017-05-04T00:00:00","16.9","ND","ND","ND","0.7","1.8","ND","ND","ND","ND","ND","0"],
    [61302,"2017-05-04T01:00:00","26.4","ND","ND","ND","0.6","2.7","ND","ND","ND","ND","ND","0"],
    [61303,"2017-05-04T02:00:00","23.7","ND","ND","ND","0.5","4.1","ND","ND","ND","ND","ND","0"],
    [61304,"2017-05-04T03:00:00","23.8","ND","ND","ND","0.5","6.0","ND","ND","ND","ND","ND","0"],
    [61305,"2017-05-04T04:00:00","22.6","ND","ND","ND","0.6","5.4","ND","ND","ND","ND","ND","0"],
    [61306,"2017-05-04T05:00:00","16.8","ND","ND","ND","0.5","4.0","ND","ND","ND","ND","ND","0"],
    [61307,"2017-05-04T06:00:00","21.6","ND","ND","ND","0.5","4.3","ND","ND","ND","ND","ND","0"],
    [61308,"2017-05-04T07:00:00","30.8","ND","ND","ND","0.5","3.5","ND","ND","ND","ND","ND","0"],
    [61309,"2017-05-04T08:00:00","30.6","ND","ND","ND","0.8","4.5","ND","ND","ND","ND","ND","0"],
    [61310,"2017-05-04T09:00:00","46.9","ND","ND","ND","1.4","3.9","ND","ND","ND","ND","ND","0"],
    [61311,"2017-05-04T10:00:00","37","ND","ND","ND","19.0","2.3","ND","ND","ND","ND","ND","0"],
    [61312,"2017-05-04T11:00:00","15.6","ND","ND","ND","80.2","2.1","ND","ND","ND","ND","ND","0"],
    [61313,"2017-05-04T12:00:00","17.4","ND","ND","ND","145.7","1.2","ND","ND","ND","ND","ND","0"],
    [61314,"2017-05-04T13:00:00","20.6","ND","ND","ND","129.2","0.8","ND","ND","ND","ND","ND","0"],
    [61315,"2017-05-04T14:00:00","11","ND","ND","ND","47.5","0.3","ND","ND","ND","ND","ND","0"],
    [61316,"2017-05-04T15:00:00","2","ND","ND","ND","39.8","0.8","ND","ND","ND","ND","ND","0.25"],
    [61317,"2017-05-04T16:00:00","9.5","ND","ND","ND","50.2","0.8","ND","ND","ND","ND","ND","0"],
    [61318,"2017-05-04T17:00:00","3.3","ND","ND","ND","24.3","0.4","ND","ND","ND","ND","ND","0"],
    [61319,"2017-05-04T18:00:00","2.2","ND","ND","ND","9.5","0.6","ND","ND","ND","ND","ND","6.1"],
    [61320,"2017-05-04T19:00:00","31.9","ND","ND","ND","2.3","0.7","ND","ND","ND","ND","ND","0.51"],
    [61321,"2017-05-04T20:00:00","32.2","ND","ND","ND","0.8","0.9","ND","ND","ND","ND","ND","0"],
    [61322,"2017-05-04T21:00:00","17.7","ND","ND","ND","0.7","0.6","ND","ND","ND","ND","ND","0"],
    [61323,"2017-05-04T22:00:00","15.2","ND","ND","ND","0.6","2.1","ND","ND","ND","ND","ND","0.25"],
    [61324,"2017-05-04T23:00:00","9","ND","ND","ND","0.5","2.3","ND","ND","ND","ND","ND","0"],
    [61325,"2017-05-05T00:00:00","13.9","ND","ND","ND","0.4","1.6","ND","ND","ND","ND","ND","0"],
    [61326,"2017-05-05T01:00:00","5.8","ND","ND","ND","0.4","2.6","ND","ND","ND","ND","ND","0"],
    [61327,"2017-05-05T02:00:00","1.7","ND","ND","ND","0.2","2.2","ND","ND","ND","ND","ND","0"],
    [61328,"2017-05-05T03:00:00","8.9","ND","ND","ND","0.2","1.1","ND","ND","ND","ND","ND","0"],
    [61329,"2017-05-05T04:00:00","2","ND","ND","ND","0.1","0.6","ND","ND","ND","ND","ND","0"],
    [61330,"2017-05-05T05:00:00","2.7","ND","ND","ND","0.1","0.9","ND","ND","ND","ND","ND","0"],
    [61331,"2017-05-05T06:00:00","12.5","ND","ND","ND","0.1","0.8","ND","ND","ND","ND","ND","0"],
    [61332,"2017-05-05T07:00:00","32.4","ND","ND","ND","0.2","1.7","ND","ND","ND","ND","ND","0"],
    [61333,"2017-05-05T08:00:00","38.7","ND","ND","ND","0.4","1.8","ND","ND","ND","ND","ND","0"],
    [61334,"2017-05-05T09:00:00","42.8","ND","ND","ND","2.4","1.7","ND","ND","ND","ND","ND","0"],
    [61335,"2017-05-05T10:00:00","33.5","ND","ND","ND","14.4","2.1","ND","ND","ND","ND","ND","0"],
    [61336,"2017-05-05T11:00:00","21.6","ND","ND","ND","35.0","1.0","ND","ND","ND","ND","ND","0"],
    [61337,"2017-05-05T12:00:00","13.8","ND","ND","ND","53.5","0.3","ND","ND","ND","ND","ND","0"],
    [61338,"2017-05-05T13:00:00","3.9","ND","ND","ND","65.4","0.2","ND","ND","ND","ND","ND","0"],
    [61339,"2017-05-05T14:00:00","6.6","ND","ND","ND","78.8","0.4","ND","ND","ND","ND","ND","0"],
    [61340,"2017-05-05T15:00:00","16.6","ND","ND","ND","77.7","0.7","ND","ND","ND","ND","ND","0"],
    [61341,"2017-05-05T16:00:00","12","ND","ND","ND","43.1","0.9","ND","ND","ND","ND","ND","0"],
    [61342,"2017-05-05T17:00:00","1.3","ND","ND","ND","14.9","0.8","ND","ND","ND","ND","ND","0"],
    [61343,"2017-05-05T18:00:00","ND","ND","ND","ND","7.3","0.3","ND","ND","ND","ND","ND","0"],
    [61344,"2017-05-05T19:00:00","9.8","ND","ND","ND","1.5","0.5","ND","ND","ND","ND","ND","0"],
    [61345,"2017-05-05T20:00:00","40.4","ND","ND","ND","1.4","0.7","ND","ND","ND","ND","ND","0"],
    [61346,"2017-05-05T21:00:00","15.1","ND","ND","ND","1.9","0.5","ND","ND","ND","ND","ND","0"],
    [61347,"2017-05-05T22:00:00","4.4","ND","ND","ND","3.0","0.4","ND","ND","ND","ND","ND","0"],
    [61348,"2017-05-05T23:00:00","9.9","ND","ND","ND","1.9","0.2","ND","ND","ND","ND","ND","4.32"],
    [61349,"2017-05-06T00:00:00","7.3","ND","ND","ND","1.5","0.6","ND","ND","ND","ND","ND","2.03"],
    [61350,"2017-05-06T01:00:00","1.9","ND","ND","ND","2.5","0.5","ND","ND","ND","ND","ND","2.79"],
    [61351,"2017-05-06T02:00:00","ND","ND","ND","ND","2.8","1.3","ND","ND","ND","ND","ND","4.83"],
    [61352,"2017-05-06T03:00:00","0.9","ND","ND","ND","2.3","1.0","ND","ND","ND","ND","ND","4.57"],
    [61353,"2017-05-06T04:00:00","1.4","ND","ND","ND","3.5","0.1","ND","ND","ND","ND","ND","1.78"],
    [61354,"2017-05-06T05:00:00","ND","ND","ND","ND","4.0","0.1","ND","ND","ND","ND","ND","9.14"],
    [61355,"2017-05-06T06:00:00","ND","ND","ND","ND","1.0","0.6","ND","ND","ND","ND","ND","1.52"],
    [61356,"2017-05-06T07:00:00","1.9","ND","ND","ND","0.6","0.3","ND","ND","ND","ND","ND","0.76"],
    [61357,"2017-05-06T08:00:00","10.6","ND","ND","ND","0.3","0.4","ND","ND","ND","ND","ND","0.51"],
    [61358,"2017-05-06T09:00:00","20.2","ND","ND","ND","0.8","1.1","ND","ND","ND","ND","ND","0"],
    [61359,"2017-05-06T10:00:00","20.5","ND","ND","ND","5.8","0.3","ND","ND","ND","ND","ND","0.25"],
    [61360,"2017-05-06T11:00:00","10","ND","ND","ND","17.0","0.5","ND","ND","ND","ND","ND","0"],
    [61361,"2017-05-06T12:00:00","15.2","ND","ND","ND","24.4","0.9","ND","ND","ND","ND","ND","0"],
    [61362,"2017-05-06T13:00:00","13.8","ND","ND","ND","37.6","0.5","ND","ND","ND","ND","ND","0"],
    [61363,"2017-05-06T14:00:00","10.2","ND","ND","ND","54.7","0.6","ND","ND","ND","ND","ND","0"],
    [61364,"2017-05-06T15:00:00","ND","ND","ND","ND","54.4","0.6","ND","ND","ND","ND","ND","0"],
    [61365,"2017-05-06T16:00:00","11.8","ND","ND","ND","56.8","0.1","ND","ND","ND","ND","ND","0"],
    [61366,"2017-05-06T17:00:00","1.7","ND","ND","ND","40.5","0.6","ND","ND","ND","ND","ND","0"],
    [61367,"2017-05-06T18:00:00","5.4","ND","ND","ND","16.4","0.1","ND","ND","ND","ND","ND","0.25"],
    [61368,"2017-05-06T19:00:00","32.2","ND","ND","ND","3.7","0.6","ND","ND","ND","ND","ND","0"],
    [61369,"2017-05-06T20:00:00","24.4","ND","ND","ND","1.9","1.0","ND","ND","ND","ND","ND","0"],
    [61370,"2017-05-06T21:00:00","15.1","ND","ND","ND","0.8","0.6","ND","ND","ND","ND","ND","0"],
    [61371,"2017-05-06T22:00:00","16.2","ND","ND","ND","1.2","2.3","ND","ND","ND","ND","ND","0"],
    [61372,"2017-05-06T23:00:00","21.9","ND","ND","ND","0.6","2.5","ND","ND","ND","ND","ND","0"],
    [61373,"2017-05-07T00:00:00","24.3","ND","ND","ND","0.6","3.3","ND","ND","ND","ND","ND","0"],
    [61374,"2017-05-07T01:00:00","19.3","ND","ND","ND","0.5","2.2","ND","ND","ND","ND","ND","0"],
    [61375,"2017-05-07T02:00:00","15.3","ND","ND","ND","0.5","2.1","ND","ND","ND","ND","ND","0"],
    [61376,"2017-05-07T03:00:00","16.1","ND","ND","ND","0.5","2.2","ND","ND","ND","ND","ND","0"],
    [61377,"2017-05-07T04:00:00","18.8","ND","ND","ND","0.6","3.5","ND","ND","ND","ND","ND","0"],
    [61378,"2017-05-07T05:00:00","19.1","ND","ND","ND","0.4","3.5","ND","ND","ND","ND","ND","66.04"],
    [61379,"2017-05-07T06:00:00","4.2","ND","ND","ND","0.3","2.4","ND","ND","ND","ND","ND","22.86"],
    [61380,"2017-05-07T07:00:00","5.5","ND","ND","ND","0.3","1.5","ND","ND","ND","ND","ND","2.54"],
    [61381,"2017-05-07T08:00:00","14.5","ND","ND","ND","0.3","2.0","ND","ND","ND","ND","ND","0.51"],
    [61382,"2017-05-07T09:00:00","13.1","ND","ND","ND","0.7","1.2","ND","ND","ND","ND","ND","0.51"],
    [61383,"2017-05-07T10:00:00","12","ND","ND","ND","7.1","1.3","ND","ND","ND","ND","ND","0"],
    [61384,"2017-05-07T11:00:00","0.9","ND","ND","ND","18.9","1.3","ND","ND","ND","ND","ND","0"],
    [61385,"2017-05-07T12:00:00","7","ND","ND","ND","37.7","1.0","ND","ND","ND","ND","ND","0"],
    [61386,"2017-05-07T13:00:00","9.6","ND","ND","ND","60.0","0.7","ND","ND","ND","ND","ND","0"],
    [61387,"2017-05-07T14:00:00","1.7","ND","ND","ND","60.6","0.5","ND","ND","ND","ND","ND","0"],
    [61388,"2017-05-07T15:00:00","4.5","ND","ND","ND","65.9","0.6","ND","ND","ND","ND","ND","0"],
    [61389,"2017-05-07T16:00:00","14.6","ND","ND","ND","75.1","0.6","ND","ND","ND","ND","ND","0"],
    [61390,"2017-05-07T17:00:00","6.1","ND","ND","ND","71.6","0.3","ND","ND","ND","ND","ND","0"],
    [61391,"2017-05-07T18:00:00","ND","ND","ND","ND","12.7","0.5","ND","ND","ND","ND","ND","15.75"],
    [61392,"2017-05-07T19:00:00","18.4","ND","ND","ND","0.8","0.7","ND","ND","ND","ND","ND","0.25"],
    [61393,"2017-05-07T20:00:00","22.6","ND","ND","ND","0.5","0.9","ND","ND","ND","ND","ND","0"],
    [61394,"2017-05-07T21:00:00","9.8","ND","ND","ND","0.5","4.2","ND","ND","ND","ND","ND","0"],
    [61395,"2017-05-07T22:00:00","11.2","ND","ND","ND","0.6","4.9","ND","ND","ND","ND","ND","0"],
    [61396,"2017-05-07T23:00:00","14.1","ND","ND","ND","0.5","2.0","ND","ND","ND","ND","ND","0"],
    [61397,"2017-05-08T00:00:00","7.9","ND","ND","ND","0.5","1.4","ND","ND","ND","ND","ND","0.25"],
    [61398,"2017-05-08T01:00:00","6.9","ND","ND","ND","0.4","1.3","ND","ND","ND","ND","ND","0"],
    [61399,"2017-05-08T02:00:00","ND","ND","ND","ND","0.4","0.7","ND","ND","ND","ND","ND","0"],
    [61400,"2017-05-08T03:00:00","ND","ND","ND","ND","0.6","0.9","ND","ND","ND","ND","ND","0"],
    [61401,"2017-05-08T04:00:00","9","ND","ND","ND","0.6","1.1","ND","ND","ND","ND","ND","0"],
    [61402,"2017-05-08T05:00:00","8.9","ND","ND","ND","0.5","1.0","ND","ND","ND","ND","ND","2.03"],
    [61403,"2017-05-08T06:00:00","2.8","ND","ND","ND","0.2","0.9","ND","ND","ND","ND","ND","0.76"],
    [61404,"2017-05-08T07:00:00","9.7","ND","ND","ND","0.3","1.8","ND","ND","ND","ND","ND","0.25"],
    [61405,"2017-05-08T08:00:00","16.4","ND","ND","ND","0.4","2.6","ND","ND","ND","ND","ND","0"],
    [61406,"2017-05-08T09:00:00","18.5","ND","ND","ND","0.5","6.4","ND","ND","ND","ND","ND","0"],
    [61407,"2017-05-08T10:00:00","24.1","ND","ND","ND","4.8","3.5","ND","ND","ND","ND","ND","0"],
    [61408,"2017-05-08T11:00:00","15.4","ND","ND","ND","26.2","1.4","ND","ND","ND","ND","ND","0"],
    [61409,"2017-05-08T12:00:00","1.5","ND","ND","ND","35.2","1.0","ND","ND","ND","ND","ND","0"],
    [61410,"2017-05-08T13:00:00","9.1","ND","ND","ND","27.1","0.8","ND","ND","ND","ND","ND","3.56"],
    [61411,"2017-05-08T14:00:00","33.9","ND","ND","ND","61.1","0.9","ND","ND","ND","ND","ND","0"],
    [61412,"2017-05-08T15:00:00","10.5","ND","ND","ND","88.1","0.8","ND","ND","ND","ND","ND","0"],
    [61413,"2017-05-08T16:00:00","4.8","ND","ND","ND","65.1","0.8","ND","ND","ND","ND","ND","0"],
    [61414,"2017-05-08T17:00:00","4","ND","ND","ND","12.4","0.4","ND","ND","ND","ND","ND","0"],
    [61415,"2017-05-08T18:00:00","17.9","ND","ND","ND","0.9","0.6","ND","ND","ND","ND","ND","0.51"],
    [61416,"2017-05-08T19:00:00","11.6","ND","ND","ND","1.2","0.6","ND","ND","ND","ND","ND","1.52"],
    [61417,"2017-05-08T20:00:00","15.5","ND","ND","ND","0.5","1.4","ND","ND","ND","ND","ND","0.76"],
    [61418,"2017-05-08T21:00:00","11.3","ND","ND","ND","0.7","0.9","ND","ND","ND","ND","ND","0"],
    [61419,"2017-05-08T22:00:00","9","ND","ND","ND","0.6","0.6","ND","ND","ND","ND","ND","0"],
    [61420,"2017-05-08T23:00:00","21.4","ND","ND","ND","0.6","0.8","ND","ND","ND","ND","ND","0"],
    [61421,"2017-05-09T00:00:00","5.9","ND","ND","ND","0.4","0.5","ND","ND","ND","ND","ND","0"],
    [61422,"2017-05-09T01:00:00","10.2","ND","ND","ND","0.4","1.5","ND","ND","ND","ND","ND","0"],
    [61423,"2017-05-09T02:00:00","16.4","ND","ND","ND","0.3","1.9","ND","ND","ND","ND","ND","0"],
    [61424,"2017-05-09T03:00:00","15.5","ND","ND","ND","0.3","1.2","ND","ND","ND","ND","ND","0"],
    [61425,"2017-05-09T04:00:00","13.1","ND","ND","ND","0.3","0.8","ND","ND","ND","ND","ND","0"],
    [61426,"2017-05-09T05:00:00","8.4","ND","ND","ND","0.3","0.9","ND","ND","ND","ND","ND","0"],
    [61427,"2017-05-09T06:00:00","9.2","ND","ND","ND","0.2","0.6","ND","ND","ND","ND","ND","0"],
    [61428,"2017-05-09T07:00:00","11.2","ND","ND","ND","0.2","1.5","ND","ND","ND","ND","ND","0.76"],
    [61429,"2017-05-09T08:00:00","9.5","ND","ND","ND","0.2","1.5","ND","ND","ND","ND","ND","3.05"],
    [61430,"2017-05-09T09:00:00","15.2","ND","ND","ND","0.3","3.2","ND","ND","ND","ND","ND","0.76"],
    [61431,"2017-05-09T10:00:00","12.2","ND","ND","ND","0.9","2.2","ND","ND","ND","ND","ND","0"],
    [61432,"2017-05-09T11:00:00","14","ND","ND","ND","11.9","1.9","ND","ND","ND","ND","ND","0"],
    [61433,"2017-05-09T12:00:00","13","ND","ND","ND","25.7","0.9","ND","ND","ND","ND","ND","0"],
    [61434,"2017-05-09T13:00:00","2.9","ND","ND","ND","31.2","2.2","ND","ND","ND","ND","ND","0"],
    [61435,"2017-05-09T14:00:00","13.2","ND","ND","ND","27.1","2.3","ND","ND","ND","ND","ND","0"],
    [61436,"2017-05-09T15:00:00","10.1","ND","ND","ND","14.8","1.1","ND","ND","ND","ND","ND","0"],
    [61437,"2017-05-09T16:00:00","ND","ND","ND","ND","10.1","0.7","ND","ND","ND","ND","ND","0"],
    [61438,"2017-05-09T17:00:00","ND","ND","ND","ND","7.8","0.5","ND","ND","ND","ND","ND","0"],
    [61439,"2017-05-09T18:00:00","0.6","ND","ND","ND","2.9","0.1","ND","ND","ND","ND","ND","0"],
    [61440,"2017-05-09T19:00:00","24.4","ND","ND","ND","1.5","0.6","ND","ND","ND","ND","ND","0"],
    [61441,"2017-05-09T20:00:00","42.8","ND","ND","ND","1.5","0.8","ND","ND","ND","ND","ND","0"],
    [61442,"2017-05-09T21:00:00","28.3","ND","ND","ND","1.0","0.9","ND","ND","ND","ND","ND","0"],
    [61443,"2017-05-09T22:00:00","16.6","ND","ND","ND","1.1","0.8","ND","ND","ND","ND","ND","0"],
    [61444,"2017-05-09T23:00:00","14.9","ND","ND","ND","0.6","1.4","ND","ND","ND","ND","ND","0"],
    [61445,"2017-05-10T00:00:00","18.8","ND","ND","ND","0.5","2.8","ND","ND","ND","ND","ND","0"],
    [61446,"2017-05-10T01:00:00","20.3","ND","ND","ND","1.2","2.5","ND","ND","ND","ND","ND","0"],
    [61447,"2017-05-10T02:00:00","6.4","ND","ND","ND","3.9","0.7","ND","ND","ND","ND","ND","0.76"],
    [61448,"2017-05-10T03:00:00","2.4","ND","ND","ND","3.7","0.5","ND","ND","ND","ND","ND","2.03"],
    [61449,"2017-05-10T04:00:00","0.5","ND","ND","ND","3.4","1.0","ND","ND","ND","ND","ND","2.29"],
    [61450,"2017-05-10T05:00:00","0.6","ND","ND","ND","2.3","0.9","ND","ND","ND","ND","ND","2.29"],
    [61451,"2017-05-10T06:00:00","1.6","ND","ND","ND","0.4","0.9","ND","ND","ND","ND","ND","0.51"],
    [61452,"2017-05-10T07:00:00","4.9","ND","ND","ND","0.3","1.7","ND","ND","ND","ND","ND","0"],
    [61453,"2017-05-10T08:00:00","14.6","ND","ND","ND","0.4","4.6","ND","ND","ND","ND","ND","0"],
    [61454,"2017-05-10T09:00:00","21.1","ND","ND","ND","1.2","3.5","ND","ND","ND","ND","ND","0"],
    [61455,"2017-05-10T10:00:00","13","ND","ND","ND","14.7","1.9","ND","ND","ND","ND","ND","0"],
    [61456,"2017-05-10T11:00:00","7.7","ND","ND","ND","58.1","1.1","ND","ND","ND","ND","ND","0"],
    [61457,"2017-05-10T12:00:00","3.3","ND","ND","ND","ND","1.2","ND","ND","ND","ND","ND","0"],
    [61458,"2017-05-10T13:00:00","7.1","ND","ND","ND","ND","1.2","ND","ND","ND","ND","ND","0"],
    [61459,"2017-05-10T14:00:00","11.8","ND","ND","ND","72.7","0.8","ND","ND","ND","ND","ND","0"],
    [61460,"2017-05-10T15:00:00","11","ND","ND","ND","32.4","0.2","ND","ND","ND","ND","ND","0.76"],
    [61461,"2017-05-10T16:00:00","23.4","ND","ND","ND","7.9","0.4","ND","ND","ND","ND","ND","0"],
    [61462,"2017-05-10T17:00:00","9.8","ND","ND","ND","2.5","0.2","ND","ND","ND","ND","ND","0.76"],
    [61463,"2017-05-10T18:00:00","7.7","ND","ND","ND","1.1","0.5","ND","ND","ND","ND","ND","4.06"],
    [61464,"2017-05-10T19:00:00","4.5","ND","ND","ND","2.4","0.3","ND","ND","ND","ND","ND","0.25"],
    [61465,"2017-05-10T20:00:00","8.2","ND","ND","ND","1.0","0.6","ND","ND","ND","ND","ND","0"],
    [61466,"2017-05-10T21:00:00","9.8","ND","ND","ND","1.3","0.5","ND","ND","ND","ND","ND","0.51"],
    [61467,"2017-05-10T22:00:00","6.2","ND","ND","ND","1.1","1.0","ND","ND","ND","ND","ND","1.52"],
    [61468,"2017-05-10T23:00:00","6.7","ND","ND","ND","0.6","0.7","ND","ND","ND","ND","ND","1.78"],
    [61469,"2017-05-11T00:00:00","5.5","ND","ND","ND","0.5","2.3","ND","ND","ND","ND","ND","0.25"],
    [61470,"2017-05-11T01:00:00","2.2","ND","ND","ND","0.4","1.8","ND","ND","ND","ND","ND","0"],
    [61471,"2017-05-11T02:00:00","0.4","ND","ND","ND","0.5","0.8","ND","ND","ND","ND","ND","0.25"],
    [61472,"2017-05-11T03:00:00","ND","ND","ND","ND","0.6","0.5","ND","ND","ND","ND","ND","0"],
    [61473,"2017-05-11T04:00:00","1.3","ND","ND","ND","0.5","0.6","ND","ND","ND","ND","ND","0"],
    [61474,"2017-05-11T05:00:00","1.7","ND","ND","ND","0.2","0.3","ND","ND","ND","ND","ND","0"],
    [61475,"2017-05-11T06:00:00","ND","ND","ND","ND","0.0","0.3","ND","ND","ND","ND","ND","0"],
    [61476,"2017-05-11T07:00:00","7.6","ND","ND","ND","0.0","0.5","ND","ND","ND","ND","ND","0"],
    [61477,"2017-05-11T08:00:00","17.3","ND","ND","ND","0.0","0.9","ND","ND","ND","ND","ND","0"],
    [61478,"2017-05-11T09:00:00","25.7","ND","ND","ND","0.4","0.6","ND","ND","ND","ND","ND","0"],
    [61479,"2017-05-11T10:00:00","30.8","ND","ND","ND","5.6","0.6","ND","ND","ND","ND","ND","0"],
    [61480,"2017-05-11T11:00:00","19.6","ND","ND","ND","17.8","0.5","ND","ND","ND","ND","ND","0"],
    [61481,"2017-05-11T12:00:00","5.1","ND","ND","ND","38.5","0.5","ND","ND","ND","ND","ND","0"],
    [61482,"2017-05-11T13:00:00","11.2","ND","ND","ND","66.4","0.2","ND","ND","ND","ND","ND","0"],
    [61483,"2017-05-11T14:00:00","ND","ND","ND","ND","63.2","0.1","ND","ND","ND","ND","ND","0"],
    [61484,"2017-05-11T15:00:00","131.7","ND","ND","ND","46.7","0.4","ND","ND","ND","ND","ND","0"],
    [61485,"2017-05-11T16:00:00","17.7","ND","ND","ND","17.7","0.2","ND","ND","ND","ND","ND","0"],
    [61486,"2017-05-11T17:00:00","0.8","ND","ND","ND","8.4","0.0","ND","ND","ND","ND","ND","0"],
    [61487,"2017-05-11T18:00:00","ND","ND","ND","ND","3.9","0.3","ND","ND","ND","ND","ND","0"],
    [61488,"2017-05-11T19:00:00","ND","ND","ND","ND","2.7","0.4","ND","ND","ND","ND","ND","0"],
    [61489,"2017-05-11T20:00:00","0.7","ND","ND","ND","5.7","0.3","ND","ND","ND","ND","ND","0"],
    [61490,"2017-05-11T21:00:00","21.4","ND","ND","ND","0.5","0.4","ND","ND","ND","ND","ND","0"],
    [61491,"2017-05-11T22:00:00","49.8","ND","ND","ND","1.3","0.6","ND","ND","ND","ND","ND","0"],
    [61492,"2017-05-11T23:00:00","43.3","ND","ND","ND","3.1","0.5","ND","ND","ND","ND","ND","0"],
    [61493,"2017-05-12T00:00:00","19","ND","ND","ND","6.1","0.2","ND","ND","ND","ND","ND","24.64"],
    [61494,"2017-05-12T01:00:00","2.1","ND","ND","ND","3.1","0.1","ND","ND","ND","ND","ND","35.05"],
    [61495,"2017-05-12T02:00:00","6.5","ND","ND","ND","3.0","0.3","ND","ND","ND","ND","ND","5.33"],
    [61496,"2017-05-12T03:00:00","8.8","ND","ND","ND","1.8","0.4","ND","ND","ND","ND","ND","0.25"],
    [61497,"2017-05-12T04:00:00","9.2","ND","ND","ND","0.8","0.3","ND","ND","ND","ND","ND","0.25"],
    [61498,"2017-05-12T05:00:00","4.2","ND","ND","ND","0.6","0.3","ND","ND","ND","ND","ND","0"],
    [61499,"2017-05-12T06:00:00","1.6","ND","ND","ND","0.3","0.3","ND","ND","ND","ND","ND","0.51"],
    [61500,"2017-05-12T07:00:00","4.4","ND","ND","ND","0.2","0.3","ND","ND","ND","ND","ND","0"],
    [61501,"2017-05-12T08:00:00","13.5","ND","ND","ND","0.6","0.2","ND","ND","ND","ND","ND","0"],
    [61502,"2017-05-12T09:00:00","6.9","ND","ND","ND","13.3","0.1","ND","ND","ND","ND","ND","0"],
    [61503,"2017-05-12T10:00:00","ND","ND","ND","ND","34.3","0.3","ND","ND","ND","ND","ND","0"],
    [61504,"2017-05-12T11:00:00","4.3","ND","ND","ND","46.3","0.2","ND","ND","ND","ND","ND","0"],
    [61505,"2017-05-12T12:00:00","6.6","ND","ND","ND","36.6","0.3","ND","ND","ND","ND","ND","0"],
    [61506,"2017-05-12T13:00:00","15.5","ND","ND","ND","48.8","0.3","ND","ND","ND","ND","ND","0"],
    [61507,"2017-05-12T14:00:00","19.9","ND","ND","ND","65.6","0.3","ND","ND","ND","ND","ND","0"],
    [61508,"2017-05-12T15:00:00","26.2","ND","ND","ND","91.8","0.1","ND","ND","ND","ND","ND","0"],
    [61509,"2017-05-12T16:00:00","5.7","ND","ND","ND","79.2","0.2","ND","ND","ND","ND","ND","0"],
    [61510,"2017-05-12T17:00:00","16.7","ND","ND","ND","11.4","0.2","ND","ND","ND","ND","ND","0"],
    [61511,"2017-05-12T18:00:00","21.5","ND","ND","ND","1.4","0.5","ND","ND","ND","ND","ND","0"],
    [61512,"2017-05-12T19:00:00","20.1","ND","ND","ND","1.0","0.8","ND","ND","ND","ND","ND","0"],
    [61513,"2017-05-12T20:00:00","13.2","ND","ND","ND","0.8","0.5","ND","ND","ND","ND","ND","0"],
    [61514,"2017-05-12T21:00:00","22.7","ND","ND","ND","0.8","0.5","ND","ND","ND","ND","ND","0"],
    [61515,"2017-05-12T22:00:00","20.9","ND","ND","ND","0.6","0.3","ND","ND","ND","ND","ND","0"],
    [61516,"2017-05-12T23:00:00","7.8","ND","ND","ND","0.5","0.3","ND","ND","ND","ND","ND","0"],
    [61517,"2017-05-13T00:00:00","9.8","ND","ND","ND","0.6","0.3","ND","ND","ND","ND","ND","0"],
    [61518,"2017-05-13T01:00:00","6.6","ND","ND","ND","0.4","0.4","ND","ND","ND","ND","ND","0"],
    [61519,"2017-05-13T02:00:00","9.6","ND","ND","ND","0.3","0.8","ND","ND","ND","ND","ND","0"],
    [61520,"2017-05-13T03:00:00","17.2","ND","ND","ND","0.4","0.8","ND","ND","ND","ND","ND","15.75"],
    [61521,"2017-05-13T04:00:00","9","ND","ND","ND","0.6","0.3","ND","ND","ND","ND","ND","1.02"],
    [61522,"2017-05-13T05:00:00","3.9","ND","ND","ND","0.3","0.2","ND","ND","ND","ND","ND","0.76"],
    [61523,"2017-05-13T06:00:00","3.7","ND","ND","ND","0.1","0.2","ND","ND","ND","ND","ND","0.76"],
    [61524,"2017-05-13T07:00:00","1.9","ND","ND","ND","0.2","0.2","ND","ND","ND","ND","ND","1.78"],
    [61525,"2017-05-13T08:00:00","11.6","ND","ND","ND","0.3","0.6","ND","ND","ND","ND","ND","0.25"],
    [61526,"2017-05-13T09:00:00","15.4","ND","ND","ND","0.4","0.3","ND","ND","ND","ND","ND","0"],
    [61527,"2017-05-13T10:00:00","17.5","ND","ND","ND","0.9","0.2","ND","ND","ND","ND","ND","0.25"],
    [61528,"2017-05-13T11:00:00","1.9","ND","ND","ND","10.0","0.0","ND","ND","ND","ND","ND","0"],
    [61529,"2017-05-13T12:00:00","5.4","ND","ND","ND","23.3","0.2","ND","ND","ND","ND","ND","0"],
    [61530,"2017-05-13T13:00:00","12.5","ND","ND","ND","71.7","0.1","ND","ND","ND","ND","ND","0"],
    [61531,"2017-05-13T14:00:00","9.4","ND","ND","ND","84.6","0.2","ND","ND","ND","ND","ND","0"],
    [61532,"2017-05-13T15:00:00","12.5","ND","ND","ND","90.9","0.1","ND","ND","ND","ND","ND","0"],
    [61533,"2017-05-13T16:00:00","5.2","ND","ND","ND","116.1","0.3","ND","ND","ND","ND","ND","0"],
    [61534,"2017-05-13T17:00:00","0.7","ND","ND","ND","88.3","0.3","ND","ND","ND","ND","ND","0"],
    [61535,"2017-05-13T18:00:00","0.4","ND","ND","ND","54.9","0.4","ND","ND","ND","ND","ND","0"],
    [61536,"2017-05-13T19:00:00","16.4","ND","ND","ND","7.3","0.7","ND","ND","ND","ND","ND","0"],
    [61537,"2017-05-13T20:00:00","20.9","ND","ND","ND","0.7","0.7","ND","ND","ND","ND","ND","0"],
    [61538,"2017-05-13T21:00:00","26.9","ND","ND","ND","0.5","0.5","ND","ND","ND","ND","ND","0"],
    [61539,"2017-05-13T22:00:00","25.3","ND","ND","ND","0.3","0.4","ND","ND","ND","ND","ND","0"],
    [61540,"2017-05-13T23:00:00","18.1","ND","ND","ND","0.4","0.5","ND","ND","ND","ND","ND","0"],
    [61541,"2017-05-14T00:00:00","25.2","ND","ND","ND","0.5","0.6","ND","ND","ND","ND","ND","0"],
    [61542,"2017-05-14T01:00:00","11.6","ND","ND","ND","0.6","1.6","ND","ND","ND","ND","ND","0"],
    [61543,"2017-05-14T02:00:00","14.2","ND","ND","ND","0.5","2.2","ND","ND","ND","ND","ND","0"],
    [61544,"2017-05-14T03:00:00","23.3","ND","ND","ND","0.5","8.8","ND","ND","ND","ND","ND","0.25"],
    [61545,"2017-05-14T04:00:00","13.3","ND","ND","ND","0.9","4.5","ND","ND","ND","ND","ND","0"],
    [61546,"2017-05-14T05:00:00","11.2","ND","ND","ND","0.4","10.5","ND","ND","ND","ND","ND","2.54"],
    [61547,"2017-05-14T06:00:00","8.2","ND","ND","ND","0.2","8.3","ND","ND","ND","ND","ND","2.79"],
    [61548,"2017-05-14T07:00:00","8.6","ND","ND","ND","0.2","3.0","ND","ND","ND","ND","ND","0.76"],
    [61549,"2017-05-14T08:00:00","8.2","ND","ND","ND","0.3","0.8","ND","ND","ND","ND","ND","0.51"],
    [61550,"2017-05-14T09:00:00","6.1","ND","ND","ND","0.7","0.4","ND","ND","ND","ND","ND","0"],
    [61551,"2017-05-14T10:00:00","10","ND","ND","ND","5.1","0.9","ND","ND","ND","ND","ND","0"],
    [61552,"2017-05-14T11:00:00","5.9","ND","ND","ND","10.4","0.4","ND","ND","ND","ND","ND","0"],
    [61553,"2017-05-14T12:00:00","7","ND","ND","ND","29.8","0.3","ND","ND","ND","ND","ND","0"],
    [61554,"2017-05-14T13:00:00","1.6","ND","ND","ND","31.7","0.2","ND","ND","ND","ND","ND","0"],
    [61555,"2017-05-14T14:00:00","3.4","ND","ND","ND","44.9","0.2","ND","ND","ND","ND","ND","0"],
    [61556,"2017-05-14T15:00:00","9.1","ND","ND","ND","61.5","0.2","ND","ND","ND","ND","ND","0"],
    [61557,"2017-05-14T16:00:00","2.6","ND","ND","ND","61.8","0.2","ND","ND","ND","ND","ND","0"],
    [61558,"2017-05-14T17:00:00","ND","ND","ND","ND","47.5","0.2","ND","ND","ND","ND","ND","0"],
    [61559,"2017-05-14T18:00:00","1.6","ND","ND","ND","35.3","0.5","ND","ND","ND","ND","ND","0"],
    [61560,"2017-05-14T19:00:00","20.2","ND","ND","ND","4.1","0.5","ND","ND","ND","ND","ND","0"],
    [61561,"2017-05-14T20:00:00","25.2","ND","ND","ND","3.7","0.6","ND","ND","ND","ND","ND","0"],
    [61562,"2017-05-14T21:00:00","17.9","ND","ND","ND","0.8","0.3","ND","ND","ND","ND","ND","0"],
    [61563,"2017-05-14T22:00:00","14","ND","ND","ND","0.4","0.5","ND","ND","ND","ND","ND","0"],
    [61564,"2017-05-14T23:00:00","14.7","ND","ND","ND","0.5","0.4","ND","ND","ND","ND","ND","0"],
    [61565,"2017-05-15T00:00:00","13.3","ND","ND","ND","0.3","0.6","ND","ND","ND","ND","ND","0"],
    [61566,"2017-05-15T01:00:00","17","ND","ND","ND","0.3","0.6","ND","ND","ND","ND","ND","0"],
    [61567,"2017-05-15T02:00:00","25.2","ND","ND","ND","0.4","0.6","ND","ND","ND","ND","ND","0"],
    [61568,"2017-05-15T03:00:00","21.6","ND","ND","ND","0.4","0.7","ND","ND","ND","ND","ND","0.25"],
    [61569,"2017-05-15T04:00:00","14","ND","ND","ND","0.4","1.3","ND","ND","ND","ND","ND","0.76"],
    [61570,"2017-05-15T05:00:00","4.6","ND","ND","ND","0.2","1.0","ND","ND","ND","ND","ND","0.51"],
    [61571,"2017-05-15T06:00:00","1.4","ND","ND","ND","0.2","0.8","ND","ND","ND","ND","ND","0"],
    [61572,"2017-05-15T07:00:00","14.2","ND","ND","ND","0.4","0.8","ND","ND","ND","ND","ND","0.25"],
    [61573,"2017-05-15T08:00:00","27.9","ND","ND","ND","0.2","6.8","ND","ND","ND","ND","ND","0"],
    [61574,"2017-05-15T09:00:00","33.5","ND","ND","ND","1.2","9.2","ND","ND","ND","ND","ND","0"],
    [61575,"2017-05-15T10:00:00","28.7","ND","ND","ND","11.3","5.4","ND","ND","ND","ND","ND","0"],
    [61576,"2017-05-15T11:00:00","15.8","ND","ND","ND","51.4","0.8","ND","ND","ND","ND","ND","0"],
    [61577,"2017-05-15T12:00:00","11","ND","ND","ND","97.3","0.4","ND","ND","ND","ND","ND","0"],
    [61578,"2017-05-15T13:00:00","6.5","ND","ND","ND","118.8","0.2","ND","ND","ND","ND","ND","0"],
    [61579,"2017-05-15T14:00:00","10.4","ND","ND","ND","96.5","0.2","ND","ND","ND","ND","ND","0"],
    [61580,"2017-05-15T15:00:00","5.7","ND","ND","ND","29.8","0.2","ND","ND","ND","ND","ND","0"],
    [61581,"2017-05-15T16:00:00","10.9","ND","ND","ND","41.4","0.4","ND","ND","ND","ND","ND","0"],
    [61582,"2017-05-15T17:00:00","ND","ND","ND","ND","10.4","0.2","ND","ND","ND","ND","ND","0.25"],
    [61583,"2017-05-15T18:00:00","22","ND","ND","ND","2.4","0.1","ND","ND","ND","ND","ND","2.03"],
    [61584,"2017-05-15T19:00:00","31","ND","ND","ND","1.7","0.2","ND","ND","ND","ND","ND","8.38"],
    [61585,"2017-05-15T20:00:00","13.7","ND","ND","ND","1.1","0.2","ND","ND","ND","ND","ND","0.76"],
    [61586,"2017-05-15T21:00:00","5","ND","ND","ND","3.8","0.1","ND","ND","ND","ND","ND","1.52"],
    [61587,"2017-05-15T22:00:00","ND","ND","ND","ND","1.3","0.4","ND","ND","ND","ND","ND","0.25"],
    [61588,"2017-05-15T23:00:00","8.6","ND","ND","ND","0.3","0.9","ND","ND","ND","ND","ND","0"],
    [61589,"2017-05-16T00:00:00","9.1","ND","ND","ND","0.3","2.7","ND","ND","ND","ND","ND","1.52"],
    [61590,"2017-05-16T01:00:00","8","ND","ND","ND","0.1","5.5","ND","ND","ND","ND","ND","2.03"],
    [61591,"2017-05-16T02:00:00","ND","ND","ND","ND","0.2","1.5","ND","ND","ND","ND","ND","2.03"],
    [61592,"2017-05-16T03:00:00","2.4","ND","ND","ND","1.5","0.5","ND","ND","ND","ND","ND","2.54"],
    [61593,"2017-05-16T04:00:00","ND","ND","ND","ND","6.0","0.2","ND","ND","ND","ND","ND","2.03"],
    [61594,"2017-05-16T05:00:00","ND","ND","ND","ND","1.9","0.2","ND","ND","ND","ND","ND","1.27"],
    [61595,"2017-05-16T06:00:00","6.8","ND","ND","ND","0.2","0.7","ND","ND","ND","ND","ND","0.76"],
    [61596,"2017-05-16T07:00:00","12.7","ND","ND","ND","0.0","6.1","ND","ND","ND","ND","ND","0.25"],
    [61597,"2017-05-16T08:00:00","15.3","ND","ND","ND","0.1","ND","ND","ND","ND","ND","ND","0"],
    [61598,"2017-05-16T09:00:00","19.2","ND","ND","ND","0.2","3.8","ND","ND","ND","ND","ND","0"],
    [61599,"2017-05-16T10:00:00","20","ND","ND","ND","11.6","0.4","ND","ND","ND","ND","ND","0"],
    [61600,"2017-05-16T11:00:00","11.8","ND","ND","ND","45.0","0.3","ND","ND","ND","ND","ND","0"],
    [61601,"2017-05-16T12:00:00","1.4","ND","ND","ND","79.8","0.2","ND","ND","ND","ND","ND","0"],
    [61602,"2017-05-16T13:00:00","ND","ND","ND","ND","101.1","0.2","ND","ND","ND","ND","ND","0"],
    [61603,"2017-05-16T14:00:00","0.8","ND","ND","ND","99.6","0.3","ND","ND","ND","ND","ND","0"],
    [61604,"2017-05-16T15:00:00","5.3","ND","ND","ND","87.4","0.2","ND","ND","ND","ND","ND","0"],
    [61605,"2017-05-16T16:00:00","11.9","ND","ND","ND","71.9","0.2","ND","ND","ND","ND","ND","0"],
    [61606,"2017-05-16T17:00:00","18.4","ND","ND","ND","61.9","1.1","ND","ND","ND","ND","ND","0"],
    [61607,"2017-05-16T18:00:00","25.7","ND","ND","ND","34.5","1.5","ND","ND","ND","ND","ND","0"],
    [61608,"2017-05-16T19:00:00","5.7","ND","ND","ND","4.0","0.3","ND","ND","ND","ND","ND","0"],
    [61609,"2017-05-16T20:00:00","12.6","ND","ND","ND","1.0","0.3","ND","ND","ND","ND","ND","0"],
    [61610,"2017-05-16T21:00:00","20.4","ND","ND","ND","0.6","0.8","ND","ND","ND","ND","ND","0"],
    [61611,"2017-05-16T22:00:00","22.7","ND","ND","ND","14.5","0.3","ND","ND","ND","ND","ND","0"],
    [61612,"2017-05-16T23:00:00","2.7","ND","ND","ND","14.0","0.3","ND","ND","ND","ND","ND","0"],
    [61613,"2017-05-17T00:00:00","2.1","ND","ND","ND","4.5","0.4","ND","ND","ND","ND","ND","0"],
    [61614,"2017-05-17T01:00:00","3.7","ND","ND","ND","2.9","0.3","ND","ND","ND","ND","ND","0"],
    [61615,"2017-05-17T02:00:00","5.1","ND","ND","ND","0.8","0.2","ND","ND","ND","ND","ND","0"],
    [61616,"2017-05-17T03:00:00","9.4","ND","ND","ND","0.5","0.6","ND","ND","ND","ND","ND","0"],
    [61617,"2017-05-17T04:00:00","12.2","ND","ND","ND","0.3","1.0","ND","ND","ND","ND","ND","0"],
    [61618,"2017-05-17T05:00:00","12.7","ND","ND","ND","0.3","1.8","ND","ND","ND","ND","ND","0"],
    [61619,"2017-05-17T06:00:00","19.9","ND","ND","ND","0.2","0.8","ND","ND","ND","ND","ND","0"],
    [61620,"2017-05-17T07:00:00","24.2","ND","ND","ND","0.5","1.7","ND","ND","ND","ND","ND","0"],
    [61621,"2017-05-17T08:00:00","37.2","ND","ND","ND","2.1","2.0","ND","ND","ND","ND","ND","0"],
    [61622,"2017-05-17T09:00:00","39","ND","ND","ND","9.2","2.2","ND","ND","ND","ND","ND","0"],
    [61623,"2017-05-17T10:00:00","29.5","ND","ND","ND","34.0","1.5","ND","ND","ND","ND","ND","0"],
    [61624,"2017-05-17T11:00:00","25.1","ND","ND","ND","76.0","1.3","ND","ND","ND","ND","ND","0"],
    [61625,"2017-05-17T12:00:00","21.8","ND","ND","ND","91.9","0.5","ND","ND","ND","ND","ND","0"],
    [61626,"2017-05-17T13:00:00","23.4","ND","ND","ND","104.6","0.4","ND","ND","ND","ND","ND","0"],
    [61627,"2017-05-17T14:00:00","23.5","ND","ND","ND","122.1","0.6","ND","ND","ND","ND","ND","0"],
    [61628,"2017-05-17T15:00:00","8.2","ND","ND","ND","45.4","0.3","ND","ND","ND","ND","ND","0"],
    [61629,"2017-05-17T16:00:00","13.7","ND","ND","ND","27.3","0.5","ND","ND","ND","ND","ND","0"],
    [61630,"2017-05-17T17:00:00","5.3","ND","ND","ND","15.9","0.3","ND","ND","ND","ND","ND","0"],
    [61631,"2017-05-17T18:00:00","ND","ND","ND","ND","8.3","0.3","ND","ND","ND","ND","ND","0"],
    [61632,"2017-05-17T19:00:00","4","ND","ND","ND","2.1","0.3","ND","ND","ND","ND","ND","0"],
    [61633,"2017-05-17T20:00:00","23.7","ND","ND","ND","3.7","0.5","ND","ND","ND","ND","ND","0"],
    [61634,"2017-05-17T21:00:00","19.4","ND","ND","ND","1.5","0.4","ND","ND","ND","ND","ND","0"],
    [61635,"2017-05-17T22:00:00","76.9","ND","ND","ND","1.4","0.7","ND","ND","ND","ND","ND","0"],
    [61636,"2017-05-17T23:00:00","32.2","ND","ND","ND","1.1","0.9","ND","ND","ND","ND","ND","0"],
    [61637,"2017-05-18T00:00:00","18.4","ND","ND","ND","1.0","0.3","ND","ND","ND","ND","ND","0"],
    [61638,"2017-05-18T01:00:00","15.3","ND","ND","ND","0.9","0.8","ND","ND","ND","ND","ND","0"],
    [61639,"2017-05-18T02:00:00","11","ND","ND","ND","0.9","0.7","ND","ND","ND","ND","ND","0"],
    [61640,"2017-05-18T03:00:00","20.5","ND","ND","ND","0.9","0.8","ND","ND","ND","ND","ND","0"],
    [61641,"2017-05-18T04:00:00","15.4","ND","ND","ND","0.7","1.2","ND","ND","ND","ND","ND","0"],
    [61642,"2017-05-18T05:00:00","9","ND","ND","ND","0.5","2.1","ND","ND","ND","ND","ND","0"],
    [61643,"2017-05-18T06:00:00","22.6","ND","ND","ND","0.6","2.4","ND","ND","ND","ND","ND","0"],
    [61644,"2017-05-18T07:00:00","24.5","ND","ND","ND","0.5","2.0","ND","ND","ND","ND","ND","0"],
    [61645,"2017-05-18T08:00:00","29.4","ND","ND","ND","0.9","1.4","ND","ND","ND","ND","ND","0"],
    [61646,"2017-05-18T09:00:00","18.8","ND","ND","ND","3.4","1.1","ND","ND","ND","ND","ND","0"],
    [61647,"2017-05-18T10:00:00","23.4","ND","ND","ND","19.0","2.1","ND","ND","ND","ND","ND","0"],
    [61648,"2017-05-18T11:00:00","27.6","ND","ND","ND","40.0","0.6","ND","ND","ND","ND","ND","0"],
    [61649,"2017-05-18T12:00:00","14.1","ND","ND","ND","47.4","0.8","ND","ND","ND","ND","ND","0"],
    [61650,"2017-05-18T13:00:00","16.5","ND","ND","ND","61.5","0.4","ND","ND","ND","ND","ND","0"],
    [61651,"2017-05-18T14:00:00","21.4","ND","ND","ND","84.0","0.5","ND","ND","ND","ND","ND","0"],
    [61652,"2017-05-18T15:00:00","19.9","ND","ND","ND","77.2","0.3","ND","ND","ND","ND","ND","0"],
    [61653,"2017-05-18T16:00:00","5.2","ND","ND","ND","35.5","0.2","ND","ND","ND","ND","ND","0"],
    [61654,"2017-05-18T17:00:00","ND","ND","ND","ND","23.8","0.3","ND","ND","ND","ND","ND","0"],
    [61655,"2017-05-18T18:00:00","ND","ND","ND","ND","22.6","0.2","ND","ND","ND","ND","ND","0"],
    [61656,"2017-05-18T19:00:00","8.9","ND","ND","ND","4.1","0.1","ND","ND","ND","ND","ND","0"],
    [61657,"2017-05-18T20:00:00","36.4","ND","ND","ND","5.7","0.7","ND","ND","ND","ND","ND","0"],
    [61658,"2017-05-18T21:00:00","34.4","ND","ND","ND","13.5","0.9","ND","ND","ND","ND","ND","0"],
    [61659,"2017-05-18T22:00:00","30.9","ND","ND","ND","1.1","0.7","ND","ND","ND","ND","ND","0"],
    [61660,"2017-05-18T23:00:00","36.6","ND","ND","ND","1.2","0.6","ND","ND","ND","ND","ND","0"],
    [61661,"2017-05-19T00:00:00","30.5","ND","ND","ND","0.4","0.9","ND","ND","ND","ND","ND","0"],
    [61662,"2017-05-19T01:00:00","17.8","ND","ND","ND","0.8","0.6","ND","ND","ND","ND","ND","0"],
    [61663,"2017-05-19T02:00:00","15.3","ND","ND","ND","0.5","0.9","ND","ND","ND","ND","ND","0"],
    [61664,"2017-05-19T03:00:00","20.1","ND","ND","ND","0.7","3.8","ND","ND","ND","ND","ND","0"],
    [61665,"2017-05-19T04:00:00","19.2","ND","ND","ND","0.1","3.0","ND","ND","ND","ND","ND","0"],
    [61666,"2017-05-19T05:00:00","21.5","ND","ND","ND","0.2","7.7","ND","ND","ND","ND","ND","0"],
    [61667,"2017-05-19T06:00:00","30.8","ND","ND","ND","0.5","5.5","ND","ND","ND","ND","ND","0"],
    [61668,"2017-05-19T07:00:00","25.1","ND","ND","ND","0.8","5.9","ND","ND","ND","ND","ND","0"],
    [61669,"2017-05-19T08:00:00","38.5","ND","ND","ND","1.4","7.2","ND","ND","ND","ND","ND","0"],
    [61670,"2017-05-19T09:00:00","34.2","ND","ND","ND","7.2","2.6","ND","ND","ND","ND","ND","0"],
    [61671,"2017-05-19T10:00:00","18.4","ND","ND","ND","28.0","1.1","ND","ND","ND","ND","ND","0"],
    [61672,"2017-05-19T11:00:00","ND","ND","ND","ND","72.7","0.5","ND","ND","ND","ND","ND","0"],
    [61673,"2017-05-19T12:00:00","13","ND","ND","ND","87.5","0.5","ND","ND","ND","ND","ND","0"],
    [61674,"2017-05-19T13:00:00","12.3","ND","ND","ND","85.0","0.3","ND","ND","ND","ND","ND","0"],
    [61675,"2017-05-19T14:00:00","20.3","ND","ND","ND","99.3","0.2","ND","ND","ND","ND","ND","0"],
    [61676,"2017-05-19T15:00:00","20.9","ND","ND","ND","64.0","0.3","ND","ND","ND","ND","ND","0"],
    [61677,"2017-05-19T16:00:00","6.6","ND","ND","ND","19.6","0.1","ND","ND","ND","ND","ND","0"],
    [61678,"2017-05-19T17:00:00","2.1","ND","ND","ND","19.0","0.2","ND","ND","ND","ND","ND","0"],
    [61679,"2017-05-19T18:00:00","ND","ND","ND","ND","10.8","0.2","ND","ND","ND","ND","ND","0"],
    [61680,"2017-05-19T19:00:00","0.9","ND","ND","ND","3.8","0.3","ND","ND","ND","ND","ND","0"],
    [61681,"2017-05-19T20:00:00","8.9","ND","ND","ND","5.1","0.4","ND","ND","ND","ND","ND","0"],
    [61682,"2017-05-19T21:00:00","25.4","ND","ND","ND","1.3","1.0","ND","ND","ND","ND","ND","0"],
    [61683,"2017-05-19T22:00:00","25.7","ND","ND","ND","0.8","0.6","ND","ND","ND","ND","ND","0"],
    [61684,"2017-05-19T23:00:00","15.8","ND","ND","ND","1.9","0.6","ND","ND","ND","ND","ND","0"],
    [61685,"2017-05-20T00:00:00","19.7","ND","ND","ND","0.3","0.5","ND","ND","ND","ND","ND","0"],
    [61686,"2017-05-20T01:00:00","21","ND","ND","ND","0.5","1.3","ND","ND","ND","ND","ND","0"],
    [61687,"2017-05-20T02:00:00","32.1","ND","ND","ND","0.4","2.6","ND","ND","ND","ND","ND","0"],
    [61688,"2017-05-20T03:00:00","32.3","ND","ND","ND","0.6","2.9","ND","ND","ND","ND","ND","0"],
    [61689,"2017-05-20T04:00:00","33","ND","ND","ND","0.7","3.1","ND","ND","ND","ND","ND","0"],
    [61690,"2017-05-20T05:00:00","28.9","ND","ND","ND","0.5","2.9","ND","ND","ND","ND","ND","0"],
    [61691,"2017-05-20T06:00:00","22.3","ND","ND","ND","0.5","5.2","ND","ND","ND","ND","ND","0"],
    [61692,"2017-05-20T07:00:00","27.7","ND","ND","ND","0.7","4.9","ND","ND","ND","ND","ND","0"],
    [61693,"2017-05-20T08:00:00","27.8","ND","ND","ND","1.5","4.2","ND","ND","ND","ND","ND","0"],
    [61694,"2017-05-20T09:00:00","32","ND","ND","ND","2.4","3.8","ND","ND","ND","ND","ND","0"],
    [61695,"2017-05-20T10:00:00","22.3","ND","ND","ND","7.8","2.5","ND","ND","ND","ND","ND","0"],
    [61696,"2017-05-20T11:00:00","10.4","ND","ND","ND","23.8","1.2","ND","ND","ND","ND","ND","0"],
    [61697,"2017-05-20T12:00:00","20.2","ND","ND","ND","45.4","0.8","ND","ND","ND","ND","ND","0"],
    [61698,"2017-05-20T13:00:00","22.1","ND","ND","ND","37.3","1.8","ND","ND","ND","ND","ND","0"],
    [61699,"2017-05-20T14:00:00","10.4","ND","ND","ND","37.8","0.6","ND","ND","ND","ND","ND","0"],
    [61700,"2017-05-20T15:00:00","6.7","ND","ND","ND","23.9","0.4","ND","ND","ND","ND","ND","0"],
    [61701,"2017-05-20T16:00:00","ND","ND","ND","ND","20.7","0.1","ND","ND","ND","ND","ND","0"],
    [61702,"2017-05-20T17:00:00","ND","ND","ND","ND","14.4","0.1","ND","ND","ND","ND","ND","0"],
    [61703,"2017-05-20T18:00:00","3.4","ND","ND","ND","10.7","0.2","ND","ND","ND","ND","ND","0"],
    [61704,"2017-05-20T19:00:00","2.8","ND","ND","ND","6.9","0.3","ND","ND","ND","ND","ND","0"],
    [61705,"2017-05-20T20:00:00","8","ND","ND","ND","2.4","0.3","ND","ND","ND","ND","ND","0"],
    [61706,"2017-05-20T21:00:00","14.6","ND","ND","ND","0.2","0.6","ND","ND","ND","ND","ND","0"],
    [61707,"2017-05-20T22:00:00","9.3","ND","ND","ND","0.7","4.3","ND","ND","ND","ND","ND","0"],
    [61708,"2017-05-20T23:00:00","25.4","ND","ND","ND","1.7","1.4","ND","ND","ND","ND","ND","0"],
    [61709,"2017-05-21T00:00:00","3.2","ND","ND","ND","0.1","0.9","ND","ND","ND","ND","ND","0"],
    [61710,"2017-05-21T01:00:00","2.9","ND","ND","ND","0.2","1.0","ND","ND","ND","ND","ND","0"],
    [61711,"2017-05-21T02:00:00","1.2","ND","ND","ND","0.1","1.9","ND","ND","ND","ND","ND","0"],
    [61712,"2017-05-21T03:00:00","11","ND","ND","ND","1.3","2.2","ND","ND","ND","ND","ND","0"],
    [61713,"2017-05-21T04:00:00","16.1","ND","ND","ND","1.1","1.3","ND","ND","ND","ND","ND","0"],
    [61714,"2017-05-21T05:00:00","15.7","ND","ND","ND","0.5","1.5","ND","ND","ND","ND","ND","0"],
    [61715,"2017-05-21T06:00:00","10.4","ND","ND","ND","0.5","2.8","ND","ND","ND","ND","ND","0"],
    [61716,"2017-05-21T07:00:00","15.1","ND","ND","ND","0.5","2.0","ND","ND","ND","ND","ND","0"],
    [61717,"2017-05-21T08:00:00","15.7","ND","ND","ND","0.1","1.3","ND","ND","ND","ND","ND","8.38"],
    [61718,"2017-05-21T09:00:00","22","ND","ND","ND","0.5","1.5","ND","ND","ND","ND","ND","0"],
    [61719,"2017-05-21T10:00:00","15","ND","ND","ND","5.4","0.9","ND","ND","ND","ND","ND","0"],
    [61720,"2017-05-21T11:00:00","9.4","ND","ND","ND","21.5","1.0","ND","ND","ND","ND","ND","0"],
    [61721,"2017-05-21T12:00:00","7.8","ND","ND","ND","43.3","0.7","ND","ND","ND","ND","ND","0"],
    [61722,"2017-05-21T13:00:00","1.5","ND","ND","ND","51.1","0.3","ND","ND","ND","ND","ND","0"],
    [61723,"2017-05-21T14:00:00","4.1","ND","ND","ND","51.5","1.4","ND","ND","ND","ND","ND","0"],
    [61724,"2017-05-21T15:00:00","2.8","ND","ND","ND","28.2","0.4","ND","ND","ND","ND","ND","0"],
    [61725,"2017-05-21T16:00:00","0.7","ND","ND","ND","18.5","0.2","ND","ND","ND","ND","ND","0"],
    [61726,"2017-05-21T17:00:00","ND","ND","ND","ND","16.3","0.4","ND","ND","ND","ND","ND","0"],
    [61727,"2017-05-21T18:00:00","ND","ND","ND","ND","11.6","0.2","ND","ND","ND","ND","ND","0"],
    [61728,"2017-05-21T19:00:00","ND","ND","ND","ND","3.4","0.5","ND","ND","ND","ND","ND","0"],
    [61729,"2017-05-21T20:00:00","12.5","ND","ND","ND","0.9","0.3","ND","ND","ND","ND","ND","0"],
    [61730,"2017-05-21T21:00:00","22.3","ND","ND","ND","1.2","0.7","ND","ND","ND","ND","ND","0.51"],
    [61731,"2017-05-21T22:00:00","28.5","ND","ND","ND","1.6","0.4","ND","ND","ND","ND","ND","17.27"],
    [61732,"2017-05-21T23:00:00","37.9","ND","ND","ND","0.6","0.2","ND","ND","ND","ND","ND","0.51"],
    [61733,"2017-05-22T00:00:00","19.6","ND","ND","ND","0.4","0.1","ND","ND","ND","ND","ND","0.25"],
    [61734,"2017-05-22T01:00:00","10.5","ND","ND","ND","0.5","0.3","ND","ND","ND","ND","ND","0"],
    [61735,"2017-05-22T02:00:00","11.3","ND","ND","ND","0.5","3.0","ND","ND","ND","ND","ND","0"],
    [61736,"2017-05-22T03:00:00","10.1","ND","ND","ND","1.4","0.7","ND","ND","ND","ND","ND","2.54"],
    [61737,"2017-05-22T04:00:00","0.9","ND","ND","ND","3.0","0.1","ND","ND","ND","ND","ND","5.59"],
    [61738,"2017-05-22T05:00:00","0.8","ND","ND","ND","2.1","0.2","ND","ND","ND","ND","ND","12.7"],
    [61739,"2017-05-22T06:00:00","5.4","ND","ND","ND","0.5","0.2","ND","ND","ND","ND","ND","0"],
    [61740,"2017-05-22T07:00:00","9.3","ND","ND","ND","0.3","0.1","ND","ND","ND","ND","ND","0.25"],
    [61741,"2017-05-22T08:00:00","11.1","ND","ND","ND","0.6","0.6","ND","ND","ND","ND","ND","0"],
    [61742,"2017-05-22T09:00:00","13.3","ND","ND","ND","0.4","1.5","ND","ND","ND","ND","ND","0"],
    [61743,"2017-05-22T10:00:00","20.7","ND","ND","ND","1.8","1.9","ND","ND","ND","ND","ND","0"],
    [61744,"2017-05-22T11:00:00","15","ND","ND","ND","7.5","0.9","ND","ND","ND","ND","ND","0"],
    [61745,"2017-05-22T12:00:00","3.8","ND","ND","ND","10.6","0.5","ND","ND","ND","ND","ND","0"],
    [61746,"2017-05-22T13:00:00","6.3","ND","ND","ND","9.3","1.0","ND","ND","ND","ND","ND","0.51"],
    [61747,"2017-05-22T14:00:00","10","ND","ND","ND","11.6","3.6","ND","ND","ND","ND","ND","0.25"],
    [61748,"2017-05-22T15:00:00","6.6","ND","ND","ND","12.3","3.5","ND","ND","ND","ND","ND","0"],
    [61749,"2017-05-22T16:00:00","4.1","ND","ND","ND","22.2","1.5","ND","ND","ND","ND","ND","0"],
    [61750,"2017-05-22T17:00:00","1.5","ND","ND","ND","25.6","0.4","ND","ND","ND","ND","ND","0"],
    [61751,"2017-05-22T18:00:00","9.6","ND","ND","ND","11.8","0.5","ND","ND","ND","ND","ND","0"],
    [61752,"2017-05-22T19:00:00","14.4","ND","ND","ND","1.6","1.7","ND","ND","ND","ND","ND","0"],
    [61753,"2017-05-22T20:00:00","25.6","ND","ND","ND","0.4","2.4","ND","ND","ND","ND","ND","0"],
    [61754,"2017-05-22T21:00:00","32","ND","ND","ND","0.4","1.1","ND","ND","ND","ND","ND","0"],
    [61755,"2017-05-22T22:00:00","20.2","ND","ND","ND","0.3","1.0","ND","ND","ND","ND","ND","0"],
    [61756,"2017-05-22T23:00:00","19.6","ND","ND","ND","0.3","2.4","ND","ND","ND","ND","ND","0"],
    [61757,"2017-05-23T00:00:00","20.4","ND","ND","ND","0.2","3.1","ND","ND","ND","ND","ND","0"],
    [61758,"2017-05-23T01:00:00","10.9","ND","ND","ND","0.1","1.5","ND","ND","ND","ND","ND","0"],
    [61759,"2017-05-23T02:00:00","0.9","ND","ND","ND","0.1","0.9","ND","ND","ND","ND","ND","0"],
    [61760,"2017-05-23T03:00:00","3.3","ND","ND","ND","0.1","4.1","ND","ND","ND","ND","ND","0"],
    [61761,"2017-05-23T04:00:00","9.5","ND","ND","ND","0.0","1.0","ND","ND","ND","ND","ND","0"],
    [61762,"2017-05-23T05:00:00","12.2","ND","ND","ND","0.0","8.2","ND","ND","ND","ND","ND","0"],
    [61763,"2017-05-23T06:00:00","19.2","ND","ND","ND","0.0","ND","ND","ND","ND","ND","ND","0"],
    [61764,"2017-05-23T07:00:00","29.4","ND","ND","ND","0.1","ND","ND","ND","ND","ND","ND","0"],
    [61765,"2017-05-23T08:00:00","48.3","ND","ND","ND","0.6","12.4","ND","ND","ND","ND","ND","0"],
    [61766,"2017-05-23T09:00:00","59.9","ND","ND","ND","2.6","8.2","ND","ND","ND","ND","ND","0"],
    [61767,"2017-05-23T10:00:00","30.7","ND","ND","ND","25.4","7.1","ND","ND","ND","ND","ND","0"],
    [61768,"2017-05-23T11:00:00","16.3","ND","ND","ND","68.9","2.5","ND","ND","ND","ND","ND","0"],
    [61769,"2017-05-23T12:00:00","ND","ND","ND","ND","119.8","1.5","ND","ND","ND","ND","ND","0"],
    [61770,"2017-05-23T13:00:00","6.1","ND","ND","ND","106.3","0.9","ND","ND","ND","ND","ND","0"],
    [61771,"2017-05-23T14:00:00","13.6","ND","ND","ND","83.6","0.6","ND","ND","ND","ND","ND","0"],
    [61772,"2017-05-23T15:00:00","14.4","ND","ND","ND","85.2","0.7","ND","ND","ND","ND","ND","0"],
    [61773,"2017-05-23T16:00:00","13.8","ND","ND","ND","85.8","0.8","ND","ND","ND","ND","ND","0"],
    [61774,"2017-05-23T17:00:00","11.6","ND","ND","ND","47.7","0.6","ND","ND","ND","ND","ND","0"],
    [61775,"2017-05-23T18:00:00","7.2","ND","ND","ND","22.1","0.8","ND","ND","ND","ND","ND","0"],
    [61776,"2017-05-23T19:00:00","ND","ND","ND","ND","21.8","0.5","ND","ND","ND","ND","ND","0"],
    [61777,"2017-05-23T20:00:00","12.4","ND","ND","ND","2.0","0.4","ND","ND","ND","ND","ND","0"],
    [61778,"2017-05-23T21:00:00","35.5","ND","ND","ND","1.0","1.1","ND","ND","ND","ND","ND","0"],
    [61779,"2017-05-23T22:00:00","31","ND","ND","ND","0.6","2.4","ND","ND","ND","ND","ND","0"],
    [61780,"2017-05-23T23:00:00","16.8","ND","ND","ND","0.8","0.9","ND","ND","ND","ND","ND","0"],
    [61781,"2017-05-24T00:00:00","19.9","ND","ND","ND","0.8","1.2","ND","ND","ND","ND","ND","0"],
    [61782,"2017-05-24T01:00:00","16","ND","ND","ND","0.6","0.7","ND","ND","ND","ND","ND","0"],
    [61783,"2017-05-24T02:00:00","16.1","ND","ND","ND","0.6","0.9","ND","ND","ND","ND","ND","0"],
    [61784,"2017-05-24T03:00:00","15.4","ND","ND","ND","0.5","2.3","ND","ND","ND","ND","ND","0"],
    [61785,"2017-05-24T04:00:00","28.2","ND","ND","ND","0.6","3.4","ND","ND","ND","ND","ND","0"],
    [61786,"2017-05-24T05:00:00","41","ND","ND","ND","0.6","2.8","ND","ND","ND","ND","ND","0"],
    [61787,"2017-05-24T06:00:00","33.6","ND","ND","ND","0.5","2.6","ND","ND","ND","ND","ND","0"],
    [61788,"2017-05-24T07:00:00","21.9","ND","ND","ND","0.7","2.2","ND","ND","ND","ND","ND","0"],
    [61789,"2017-05-24T08:00:00","44.7","ND","ND","ND","3.2","3.4","ND","ND","ND","ND","ND","0"],
    [61790,"2017-05-24T09:00:00","24.6","ND","ND","ND","19.3","3.9","ND","ND","ND","ND","ND","0"],
    [61791,"2017-05-24T10:00:00","30.5","ND","ND","ND","64.0","3.3","ND","ND","ND","ND","ND","0"],
    [61792,"2017-05-24T11:00:00","27.5","ND","ND","ND","116.1","1.6","ND","ND","ND","ND","ND","0"],
    [61793,"2017-05-24T12:00:00","18.5","ND","ND","ND","147.0","0.8","ND","ND","ND","ND","ND","0"],
    [61794,"2017-05-24T13:00:00","23.7","ND","ND","ND","156.9","0.6","ND","ND","ND","ND","ND","0"],
    [61795,"2017-05-24T14:00:00","15.1","ND","ND","ND","163.1","0.4","ND","ND","ND","ND","ND","0"],
    [61796,"2017-05-24T15:00:00","26.8","ND","ND","ND","127.0","0.8","ND","ND","ND","ND","ND","0"],
    [61797,"2017-05-24T16:00:00","22.8","ND","ND","ND","32.5","0.4","ND","ND","ND","ND","ND","0"],
    [61798,"2017-05-24T17:00:00","24.7","ND","ND","ND","34.0","0.4","ND","ND","ND","ND","ND","0"],
    [61799,"2017-05-24T18:00:00","37","ND","ND","ND","17.8","0.4","ND","ND","ND","ND","ND","0"],
    [61800,"2017-05-24T19:00:00","1.7","ND","ND","ND","10.5","0.5","ND","ND","ND","ND","ND","0"],
    [61801,"2017-05-24T20:00:00","ND","ND","ND","ND","1.8","0.6","ND","ND","ND","ND","ND","0"],
    [61802,"2017-05-24T21:00:00","98.6","ND","ND","ND","1.2","1.3","ND","ND","ND","ND","ND","0"],
    [61803,"2017-05-24T22:00:00","99.8","ND","ND","ND","1.1","3.4","ND","ND","ND","ND","ND","0"],
    [61804,"2017-05-24T23:00:00","45.1","ND","ND","ND","1.7","2.0","ND","ND","ND","ND","ND","0"],
    [61805,"2017-05-25T00:00:00","21.6","ND","ND","ND","1.4","2.4","ND","ND","ND","ND","ND","0"],
    [61806,"2017-05-25T01:00:00","22.1","ND","ND","ND","1.2","2.0","ND","ND","ND","ND","ND","0"],
    [61807,"2017-05-25T02:00:00","25.7","ND","ND","ND","1.2","2.9","ND","ND","ND","ND","ND","0"],
    [61808,"2017-05-25T03:00:00","11.5","ND","ND","ND","1.1","3.6","ND","ND","ND","ND","ND","0"],
    [61809,"2017-05-25T04:00:00","9.8","ND","ND","ND","1.6","2.6","ND","ND","ND","ND","ND","0"],
    [61810,"2017-05-25T05:00:00","17.4","ND","ND","ND","1.2","1.1","ND","ND","ND","ND","ND","0"],
    [61811,"2017-05-25T06:00:00","13.5","ND","ND","ND","0.8","0.9","ND","ND","ND","ND","ND","0"],
    [61812,"2017-05-25T07:00:00","26.2","ND","ND","ND","0.9","0.6","ND","ND","ND","ND","ND","0"],
    [61813,"2017-05-25T08:00:00","52.7","ND","ND","ND","3.4","2.1","ND","ND","ND","ND","ND","0"],
    [61814,"2017-05-25T09:00:00","ND","ND","ND","ND","7.2","4.3","ND","ND","ND","ND","ND","0"],
    [61815,"2017-05-25T10:00:00","53.6","ND","ND","ND","18.5","1.8","ND","ND","ND","ND","ND","0"],
    [61816,"2017-05-25T11:00:00","77.2","ND","ND","ND","40.5","1.3","ND","ND","ND","ND","ND","0"],
    [61817,"2017-05-25T12:00:00","39.3","ND","ND","ND","65.2","0.9","ND","ND","ND","ND","ND","0"],
    [61818,"2017-05-25T13:00:00","27.5","ND","ND","ND","112.4","0.8","ND","ND","ND","ND","ND","0"],
    [61819,"2017-05-25T14:00:00","16.9","ND","ND","ND","116.8","0.3","ND","ND","ND","ND","ND","0"],
    [61820,"2017-05-25T15:00:00","24.1","ND","ND","ND","111.2","0.3","ND","ND","ND","ND","ND","0"],
    [61821,"2017-05-25T16:00:00","9.6","ND","ND","ND","25.9","0.3","ND","ND","ND","ND","ND","0"],
    [61822,"2017-05-25T17:00:00","9.5","ND","ND","ND","30.2","0.3","ND","ND","ND","ND","ND","0"],
    [61823,"2017-05-25T18:00:00","4.8","ND","ND","ND","26.2","0.3","ND","ND","ND","ND","ND","0"],
    [61824,"2017-05-25T19:00:00","ND","ND","ND","ND","9.2","0.2","ND","ND","ND","ND","ND","0"],
    [61825,"2017-05-25T20:00:00","10.2","ND","ND","ND","1.6","0.4","ND","ND","ND","ND","ND","0"],
    [61826,"2017-05-25T21:00:00","31.8","ND","ND","ND","1.3","0.9","ND","ND","ND","ND","ND","0"],
    [61827,"2017-05-25T22:00:00","35.9","ND","ND","ND","0.9","2.5","ND","ND","ND","ND","ND","0"],
    [61828,"2017-05-25T23:00:00","37.5","ND","ND","ND","1.1","1.3","ND","ND","ND","ND","ND","0"],
    [61829,"2017-05-26T00:00:00","22.8","ND","ND","ND","0.7","0.9","ND","ND","ND","ND","ND","0"],
    [61830,"2017-05-26T01:00:00","6","ND","ND","ND","1.0","3.3","ND","ND","ND","ND","ND","0"],
    [61831,"2017-05-26T02:00:00","3.4","ND","ND","ND","0.7","3.4","ND","ND","ND","ND","ND","0"],
    [61832,"2017-05-26T03:00:00","16.3","ND","ND","ND","0.4","3.0","ND","ND","ND","ND","ND","0"],
    [61833,"2017-05-26T04:00:00","17","ND","ND","ND","0.5","1.4","ND","ND","ND","ND","ND","0"],
    [61834,"2017-05-26T05:00:00","14.3","ND","ND","ND","0.4","1.4","ND","ND","ND","ND","ND","0"],
    [61835,"2017-05-26T06:00:00","10.8","ND","ND","ND","0.2","0.7","ND","ND","ND","ND","ND","0"],
    [61836,"2017-05-26T07:00:00","23.5","ND","ND","ND","0.9","1.1","ND","ND","ND","ND","ND","0"],
    [61837,"2017-05-26T08:00:00","71.7","ND","ND","ND","1.6","4.7","ND","ND","ND","ND","ND","0"],
    [61838,"2017-05-26T09:00:00","55.8","ND","ND","ND","11.7","2.8","ND","ND","ND","ND","ND","0"],
    [61839,"2017-05-26T10:00:00","28.8","ND","ND","ND","37.4","1.5","ND","ND","ND","ND","ND","0"],
    [61840,"2017-05-26T11:00:00","22.1","ND","ND","ND","58.1","0.9","ND","ND","ND","ND","ND","0"],
    [61841,"2017-05-26T12:00:00","20.9","ND","ND","ND","75.6","0.7","ND","ND","ND","ND","ND","0"],
    [61842,"2017-05-26T13:00:00","12.9","ND","ND","ND","90.2","0.4","ND","ND","ND","ND","ND","0"],
    [61843,"2017-05-26T14:00:00","12.9","ND","ND","ND","91.7","0.8","ND","ND","ND","ND","ND","0"],
    [61844,"2017-05-26T15:00:00","8.5","ND","ND","ND","60.2","0.5","ND","ND","ND","ND","ND","0"],
    [61845,"2017-05-26T16:00:00","18.4","ND","ND","ND","17.8","0.3","ND","ND","ND","ND","ND","0"],
    [61846,"2017-05-26T17:00:00","ND","ND","ND","ND","9.9","0.3","ND","ND","ND","ND","ND","0"],
    [61847,"2017-05-26T18:00:00","ND","ND","ND","ND","7.5","0.3","ND","ND","ND","ND","ND","0"],
    [61848,"2017-05-26T19:00:00","22.5","ND","ND","ND","6.4","0.4","ND","ND","ND","ND","ND","0"],
    [61849,"2017-05-26T20:00:00","74.7","ND","ND","ND","0.6","0.4","ND","ND","ND","ND","ND","0"],
    [61850,"2017-05-26T21:00:00","64.4","ND","ND","ND","1.0","2.7","ND","ND","ND","ND","ND","0"],
    [61851,"2017-05-26T22:00:00","54.5","ND","ND","ND","1.8","3.9","ND","ND","ND","ND","ND","0"],
    [61852,"2017-05-26T23:00:00","40.5","ND","ND","ND","1.6","3.0","ND","ND","ND","ND","ND","0"],
    [61853,"2017-05-27T00:00:00","23.9","ND","ND","ND","1.5","3.9","ND","ND","ND","ND","ND","0"],
    [61854,"2017-05-27T01:00:00","26.1","ND","ND","ND","1.8","4.5","ND","ND","ND","ND","ND","0"],
    [61855,"2017-05-27T02:00:00","33.2","ND","ND","ND","1.6","3.6","ND","ND","ND","ND","ND","0"],
    [61856,"2017-05-27T03:00:00","25","ND","ND","ND","1.5","2.3","ND","ND","ND","ND","ND","0"],
    [61857,"2017-05-27T04:00:00","19.7","ND","ND","ND","1.0","2.4","ND","ND","ND","ND","ND","0"],
    [61858,"2017-05-27T05:00:00","20.6","ND","ND","ND","1.1","5.4","ND","ND","ND","ND","ND","0"],
    [61859,"2017-05-27T06:00:00","15.9","ND","ND","ND","0.9","4.2","ND","ND","ND","ND","ND","0"],
    [61860,"2017-05-27T07:00:00","17.7","ND","ND","ND","1.2","2.7","ND","ND","ND","ND","ND","0"],
    [61861,"2017-05-27T08:00:00","37.3","ND","ND","ND","2.0","5.2","ND","ND","ND","ND","ND","0"],
    [61862,"2017-05-27T09:00:00","38.1","ND","ND","ND","9.6","2.6","ND","ND","ND","ND","ND","0"],
    [61863,"2017-05-27T10:00:00","23","ND","ND","ND","40.8","1.5","ND","ND","ND","ND","ND","0"],
    [61864,"2017-05-27T11:00:00","19.6","ND","ND","ND","46.0","1.1","ND","ND","ND","ND","ND","0"],
    [61865,"2017-05-27T12:00:00","17","ND","ND","ND","94.1","0.8","ND","ND","ND","ND","ND","0"],
    [61866,"2017-05-27T13:00:00","ND","ND","ND","ND","126.9","0.6","ND","ND","ND","ND","ND","0"],
    [61867,"2017-05-27T14:00:00","140.9","ND","ND","ND","95.0","1.7","ND","ND","ND","ND","ND","0"],
    [61868,"2017-05-27T15:00:00","ND","ND","ND","ND","52.3","0.4","ND","ND","ND","ND","ND","0"],
    [61869,"2017-05-27T16:00:00","72.4","ND","ND","ND","37.6","0.3","ND","ND","ND","ND","ND","0"],
    [61870,"2017-05-27T17:00:00","9.4","ND","ND","ND","33.8","0.2","ND","ND","ND","ND","ND","0"],
    [61871,"2017-05-27T18:00:00","ND","ND","ND","ND","24.1","0.2","ND","ND","ND","ND","ND","0"],
    [61872,"2017-05-27T19:00:00","ND","ND","ND","ND","6.2","0.3","ND","ND","ND","ND","ND","0"],
    [61873,"2017-05-27T20:00:00","ND","ND","ND","ND","1.5","0.3","ND","ND","ND","ND","ND","0"],
    [61874,"2017-05-27T21:00:00","11.6","ND","ND","ND","0.2","0.5","ND","ND","ND","ND","ND","0"],
    [61875,"2017-05-27T22:00:00","41.6","ND","ND","ND","0.0","6.7","ND","ND","ND","ND","ND","0"],
    [61876,"2017-05-27T23:00:00","45.8","ND","ND","ND","0.0","3.2","ND","ND","ND","ND","ND","0"],
    [61877,"2017-05-28T00:00:00","26.9","ND","ND","ND","0.0","1.0","ND","ND","ND","ND","ND","0"],
    [61878,"2017-05-28T01:00:00","26.2","ND","ND","ND","0.0","0.9","ND","ND","ND","ND","ND","0"],
    [61879,"2017-05-28T02:00:00","24.4","ND","ND","ND","0.0","1.9","ND","ND","ND","ND","ND","0"],
    [61880,"2017-05-28T03:00:00","16.4","ND","ND","ND","0.0","1.0","ND","ND","ND","ND","ND","0"],
    [61881,"2017-05-28T04:00:00","15.2","ND","ND","ND","0.0","1.2","ND","ND","ND","ND","ND","0"],
    [61882,"2017-05-28T05:00:00","22.5","ND","ND","ND","0.0","3.8","ND","ND","ND","ND","ND","0"],
    [61883,"2017-05-28T06:00:00","11.9","ND","ND","ND","0.0","6.0","ND","ND","ND","ND","ND","0"],
    [61884,"2017-05-28T07:00:00","19.9","ND","ND","ND","0.0","5.0","ND","ND","ND","ND","ND","0"],
    [61885,"2017-05-28T08:00:00","50.2","ND","ND","ND","6.1","9.1","ND","ND","ND","ND","ND","0"],
    [61886,"2017-05-28T09:00:00","47.3","ND","ND","ND","29.4","8.5","ND","ND","ND","ND","ND","0"],
    [61887,"2017-05-28T10:00:00","25.8","ND","ND","ND","60.4","3.1","ND","ND","ND","ND","ND","0"],
    [61888,"2017-05-28T11:00:00","14.3","ND","ND","ND","59.4","0.9","ND","ND","ND","ND","ND","0"],
    [61889,"2017-05-28T12:00:00","2.4","ND","ND","ND","58.8","0.7","ND","ND","ND","ND","ND","0"],
    [61890,"2017-05-28T13:00:00","6.1","ND","ND","ND","80.1","0.8","ND","ND","ND","ND","ND","0"],
    [61891,"2017-05-28T14:00:00","16.5","ND","ND","ND","68.9","0.7","ND","ND","ND","ND","ND","0"],
    [61892,"2017-05-28T15:00:00","14.6","ND","ND","ND","36.9","0.3","ND","ND","ND","ND","ND","0"],
    [61893,"2017-05-28T16:00:00","13.4","ND","ND","ND","36.8","0.3","ND","ND","ND","ND","ND","0"],
    [61894,"2017-05-28T17:00:00","13","ND","ND","ND","35.0","0.4","ND","ND","ND","ND","ND","0"],
    [61895,"2017-05-28T18:00:00","4.5","ND","ND","ND","30.4","0.3","ND","ND","ND","ND","ND","0"],
    [61896,"2017-05-28T19:00:00","1","ND","ND","ND","21.1","0.5","ND","ND","ND","ND","ND","0"],
    [61897,"2017-05-28T20:00:00","4.2","ND","ND","ND","4.1","0.2","ND","ND","ND","ND","ND","0"],
    [61898,"2017-05-28T21:00:00","10.6","ND","ND","ND","0.2","2.9","ND","ND","ND","ND","ND","0"],
    [61899,"2017-05-28T22:00:00","15.9","ND","ND","ND","0.0","2.3","ND","ND","ND","ND","ND","0"],
    [61900,"2017-05-28T23:00:00","14.9","ND","ND","ND","0.0","2.1","ND","ND","ND","ND","ND","0"],
    [61901,"2017-05-29T00:00:00","14.9","ND","ND","ND","0.0","2.1","ND","ND","ND","ND","ND","0"],
    [61902,"2017-05-29T01:00:00","15.1","ND","ND","ND","0.0","1.3","ND","ND","ND","ND","ND","0"],
    [61903,"2017-05-29T02:00:00","15.6","ND","ND","ND","0.4","0.8","ND","ND","ND","ND","ND","0"],
    [61904,"2017-05-29T03:00:00","17.9","ND","ND","ND","0.0","6.8","ND","ND","ND","ND","ND","0"],
    [61905,"2017-05-29T04:00:00","20","ND","ND","ND","0.0","4.5","ND","ND","ND","ND","ND","0"],
    [61906,"2017-05-29T05:00:00","20.3","ND","ND","ND","0.0","3.9","ND","ND","ND","ND","ND","0"],
    [61907,"2017-05-29T06:00:00","17.5","ND","ND","ND","0.0","3.0","ND","ND","ND","ND","ND","0"],
    [61908,"2017-05-29T07:00:00","19.6","ND","ND","ND","0.1","2.4","ND","ND","ND","ND","ND","0"],
    [61909,"2017-05-29T08:00:00","23.9","ND","ND","ND","4.1","2.5","ND","ND","ND","ND","ND","0"],
    [61910,"2017-05-29T09:00:00","26.4","ND","ND","ND","12.8","5.1","ND","ND","ND","ND","ND","0"],
    [61911,"2017-05-29T10:00:00","34","ND","ND","ND","29.4","3.8","ND","ND","ND","ND","ND","0"],
    [61912,"2017-05-29T11:00:00","26.9","ND","ND","ND","28.9","1.7","ND","ND","ND","ND","ND","0"],
    [61913,"2017-05-29T12:00:00","15.8","ND","ND","ND","56.0","1.1","ND","ND","ND","ND","ND","0"],
    [61914,"2017-05-29T13:00:00","8.8","ND","ND","ND","74.6","0.3","ND","ND","ND","ND","ND","0"],
    [61915,"2017-05-29T14:00:00","15.4","ND","ND","ND","80.6","1.0","ND","ND","ND","ND","ND","0"],
    [61916,"2017-05-29T15:00:00","16.2","ND","ND","ND","64.6","0.8","ND","ND","ND","ND","ND","0"],
    [61917,"2017-05-29T16:00:00","9.6","ND","ND","ND","30.4","0.7","ND","ND","ND","ND","ND","0"],
    [61918,"2017-05-29T17:00:00","6.4","ND","ND","ND","22.0","0.3","ND","ND","ND","ND","ND","0"],
    [61919,"2017-05-29T18:00:00","3","ND","ND","ND","17.3","0.2","ND","ND","ND","ND","ND","0"],
    [61920,"2017-05-29T19:00:00","ND","ND","ND","ND","7.9","0.6","ND","ND","ND","ND","ND","0"],
    [61921,"2017-05-29T20:00:00","1.2","ND","ND","ND","6.9","0.5","ND","ND","ND","ND","ND","0"],
    [61922,"2017-05-29T21:00:00","ND","ND","ND","ND","0.2","1.9","ND","ND","ND","ND","ND","0"],
    [61923,"2017-05-29T22:00:00","ND","ND","ND","ND","0.1","4.5","ND","ND","ND","ND","ND","0"],
    [61924,"2017-05-29T23:00:00","18.8","ND","ND","ND","0.0","3.5","ND","ND","ND","ND","ND","0"],
    [61925,"2017-05-30T00:00:00","37.2","ND","ND","ND","0.0","0.9","ND","ND","ND","ND","ND","0"],
    [61926,"2017-05-30T01:00:00","28.6","ND","ND","ND","0.0","0.5","ND","ND","ND","ND","ND","0"],
    [61927,"2017-05-30T02:00:00","17.2","ND","ND","ND","0.0","0.7","ND","ND","ND","ND","ND","0"],
    [61928,"2017-05-30T03:00:00","12.7","ND","ND","ND","0.0","0.6","ND","ND","ND","ND","ND","0"],
    [61929,"2017-05-30T04:00:00","8.9","ND","ND","ND","0.0","2.6","ND","ND","ND","ND","ND","0"],
    [61930,"2017-05-30T05:00:00","14.7","ND","ND","ND","0.0","11.4","ND","ND","ND","ND","ND","0"],
    [61931,"2017-05-30T06:00:00","30.5","ND","ND","ND","0.0","8.2","ND","ND","ND","ND","ND","0"],
    [61932,"2017-05-30T07:00:00","35.8","ND","ND","ND","0.0","5.2","ND","ND","ND","ND","ND","0"],
    [61933,"2017-05-30T08:00:00","37.9","ND","ND","ND","4.7","1.2","ND","ND","ND","ND","ND","0"],
    [61934,"2017-05-30T09:00:00","23","ND","ND","ND","28.4","0.9","ND","ND","ND","ND","ND","0"],
    [61935,"2017-05-30T10:00:00","13.8","ND","ND","ND","65.2","0.9","ND","ND","ND","ND","ND","0"],
    [61936,"2017-05-30T11:00:00","21.1","ND","ND","ND","108.4","0.5","ND","ND","ND","ND","ND","0"],
    [61937,"2017-05-30T12:00:00","27.2","ND","ND","ND","98.9","1.7","ND","ND","ND","ND","ND","0"],
    [61938,"2017-05-30T13:00:00","26.6","ND","ND","ND","87.3","0.6","ND","ND","ND","ND","ND","0"],
    [61939,"2017-05-30T14:00:00","20.9","ND","ND","ND","28.5","0.3","ND","ND","ND","ND","ND","0"],
    [61940,"2017-05-30T15:00:00","18.9","ND","ND","ND","26.3","0.4","ND","ND","ND","ND","ND","0"],
    [61941,"2017-05-30T16:00:00","15.2","ND","ND","ND","27.0","0.3","ND","ND","ND","ND","ND","0"],
    [61942,"2017-05-30T17:00:00","18.5","ND","ND","ND","24.3","0.3","ND","ND","ND","ND","ND","0"],
    [61943,"2017-05-30T18:00:00","6.6","ND","ND","ND","18.1","0.5","ND","ND","ND","ND","ND","0"],
    [61944,"2017-05-30T19:00:00","2.1","ND","ND","ND","7.7","0.6","ND","ND","ND","ND","ND","0"],
    [61945,"2017-05-30T20:00:00","9","ND","ND","ND","4.6","0.8","ND","ND","ND","ND","ND","0"],
    [61946,"2017-05-30T21:00:00","14","ND","ND","ND","0.1","2.3","ND","ND","ND","ND","ND","0"],
    [61947,"2017-05-30T22:00:00","3.4","ND","ND","ND","0.0","3.2","ND","ND","ND","ND","ND","0"],
    [61948,"2017-05-30T23:00:00","4.8","ND","ND","ND","0.0","2.3","ND","ND","ND","ND","ND","0"],
    [61949,"2017-05-31T00:00:00","23.1","ND","ND","ND","0.0","2.9","ND","ND","ND","ND","ND","0"],
    [61950,"2017-05-31T01:00:00","32.1","ND","ND","ND","0.0","1.7","ND","ND","ND","ND","ND","0"],
    [61951,"2017-05-31T02:00:00","25.6","ND","ND","ND","0.0","1.5","ND","ND","ND","ND","ND","0"],
    [61952,"2017-05-31T03:00:00","19.6","ND","ND","ND","0.5","1.2","ND","ND","ND","ND","ND","0"],
    [61953,"2017-05-31T04:00:00","25.8","ND","ND","ND","1.6","1.4","ND","ND","ND","ND","ND","0"],
    [61954,"2017-05-31T05:00:00","25.3","ND","ND","ND","0.2","4.2","ND","ND","ND","ND","ND","0"],
    [61955,"2017-05-31T06:00:00","39.9","ND","ND","ND","0.0","5.8","ND","ND","ND","ND","ND","0"],
    [61956,"2017-05-31T07:00:00","41.6","ND","ND","ND","0.0","4.0","ND","ND","ND","ND","ND","0"],
    [61957,"2017-05-31T08:00:00","35.3","ND","ND","ND","3.0","2.3","ND","ND","ND","ND","ND","0"],
    [61958,"2017-05-31T09:00:00","30.7","ND","ND","ND","8.1","3.7","ND","ND","ND","ND","ND","0"],
    [61959,"2017-05-31T10:00:00","21.9","ND","ND","ND","9.2","2.0","ND","ND","ND","ND","ND","0"],
    [61960,"2017-05-31T11:00:00","3.6","ND","ND","ND","61.3","1.8","ND","ND","ND","ND","ND","0"],
    [61961,"2017-05-31T12:00:00","70.1","ND","ND","ND","ND","3.0","ND","ND","ND","ND","ND","0"],
    [61962,"2017-05-31T13:00:00","47.1","ND","ND","ND","48.6","3.8","ND","ND","ND","ND","ND","0"],
    [61963,"2017-05-31T14:00:00","27.6","ND","ND","ND","64.7","1.8","ND","ND","ND","ND","ND","0"],
    [61964,"2017-05-31T15:00:00","111.4","ND","ND","ND","38.8","0.8","ND","ND","ND","ND","ND","0"],
    [61965,"2017-05-31T16:00:00","50.6","ND","ND","ND","22.9","0.6","ND","ND","ND","ND","ND","0"],
    [61966,"2017-05-31T17:00:00","24.8","ND","ND","ND","17.7","0.3","ND","ND","ND","ND","ND","0"],
    [61967,"2017-05-31T18:00:00","29.3","ND","ND","ND","9.9","0.5","ND","ND","ND","ND","ND","0"],
    [61968,"2017-05-31T19:00:00","20.9","ND","ND","ND","2.6","0.5","ND","ND","ND","ND","ND","0"],
    [61969,"2017-05-31T20:00:00","32.9","ND","ND","ND","1.1","0.9","ND","ND","ND","ND","ND","0"],
    [61970,"2017-05-31T21:00:00","62.1","ND","ND","ND","0.0","1.0","ND","ND","ND","ND","ND","0"],
    [61971,"2017-05-31T22:00:00","54.4","ND","ND","ND","0.0","4.5","ND","ND","ND","ND","ND","0"],
    [61972,"2017-05-31T23:00:00","38.9","ND","ND","ND","0.1","4.2","ND","ND","ND","ND","ND","0"],
    [61973,"2017-06-01T00:00:00","38.6","ND","ND","ND","0.0","1.5","ND","ND","ND","ND","ND","0"],
    [61974,"2017-06-01T01:00:00","37.8","ND","ND","ND","0","1.7","ND","ND","ND","ND","0","0"],
    [61975,"2017-06-01T02:00:00","36","ND","ND","ND","0.0","2.0","ND","ND","ND","ND","0","0"],
    [61976,"2017-06-01T03:00:00","30","ND","ND","ND","0.0","2.0","ND","ND","ND","ND","0","0"],
    [61977,"2017-06-01T04:00:00","62.2","ND","ND","ND","0.0","3.9","ND","ND","ND","ND","0","0"],
    [61978,"2017-06-01T05:00:00","75.5","ND","ND","ND","0.0","4.3","ND","ND","ND","ND","0","0"],
    [61979,"2017-06-01T06:00:00","37.8","ND","ND","ND","2.5","8.1","ND","ND","ND","ND","0","0"],
    [61980,"2017-06-01T07:00:00","44.4","ND","ND","ND","0.0","6.6","ND","ND","ND","ND","44","0"],
    [61981,"2017-06-01T08:00:00","56.4","ND","ND","ND","0.4","6.4","ND","ND","ND","ND","337","0"],
    [61982,"2017-06-01T09:00:00","78.4","ND","ND","ND","8.3","6.6","ND","ND","ND","ND","642","0"],
    [61983,"2017-06-01T10:00:00","78.4","ND","ND","ND","35.8","3.8","ND","ND","ND","ND","666","0"],
    [61984,"2017-06-01T11:00:00","68.7","ND","ND","ND","89.4","2.5","ND","ND","ND","ND","667","0"],
    [61985,"2017-06-01T12:00:00","63.3","ND","ND","ND","113.2","0.6","ND","ND","ND","ND","667","0"],
    [61986,"2017-06-01T13:00:00","55","ND","ND","ND","82.2","0.4","ND","ND","ND","ND","668","0"],
    [61987,"2017-06-01T14:00:00","41.3","ND","ND","ND","90.7","0.6","ND","ND","ND","ND","668","0"],
    [61988,"2017-06-01T15:00:00","47.1","ND","ND","ND","75.5","0.8","ND","ND","ND","ND","660","0"],
    [61989,"2017-06-01T16:00:00","32.9","ND","ND","ND","46.0","0.2","ND","ND","ND","ND","641","0"],
    [61990,"2017-06-01T17:00:00","28","ND","ND","ND","35.2","0.2","ND","ND","ND","ND","550","0"],
    [61991,"2017-06-01T18:00:00","30.9","ND","ND","ND","26.5","0.4","ND","ND","ND","ND","153","0"],
    [61992,"2017-06-01T19:00:00","33.1","ND","ND","ND","17.0","0.3","ND","ND","ND","ND","5","0"],
    [61993,"2017-06-01T20:00:00","32.1","ND","ND","ND","7.5","0.5","ND","ND","ND","ND","0","0"],
    [61994,"2017-06-01T21:00:00","21.6","ND","ND","ND","3.5","0.6","ND","ND","ND","ND","0","0"],
    [61995,"2017-06-01T22:00:00","40.1","ND","ND","ND","0.0","2.9","ND","ND","ND","ND","0","0"],
    [61996,"2017-06-01T23:00:00","59.7","ND","ND","ND","0.0","3.6","ND","ND","ND","ND","0","0"],
    [61997,"2017-06-02T00:00:00","38.4","ND","ND","ND","0.0","2.3","ND","ND","ND","ND","0","0"],
    [61998,"2017-06-02T01:00:00","28.7","ND","ND","ND","0.0","2.8","ND","ND","ND","ND","0","0"],
    [61999,"2017-06-02T02:00:00","33","ND","ND","ND","0.3","1.7","ND","ND","ND","ND","0","0"],
    [62000,"2017-06-02T03:00:00","34.3","ND","ND","ND","0.0","1.2","ND","ND","ND","ND","0","0"],
    [62001,"2017-06-02T04:00:00","35.6","ND","ND","ND","0.0","1.6","ND","ND","ND","ND","0","0"],
    [62002,"2017-06-02T05:00:00","56.4","ND","ND","ND","0.0","4.8","ND","ND","ND","ND","0","0"],
    [62003,"2017-06-02T06:00:00","68.9","ND","ND","ND","0.0","7.2","ND","ND","ND","ND","0","0"],
    [62004,"2017-06-02T07:00:00","77.7","ND","ND","ND","0.0","4.7","ND","ND","ND","ND","206","0"],
    [62005,"2017-06-02T08:00:00","86.3","ND","ND","ND","5.3","4.0","ND","ND","ND","ND","648","0"],
    [62006,"2017-06-02T09:00:00","72.6","ND","ND","ND","23.2","2.2","ND","ND","ND","ND","662","0"],
    [62007,"2017-06-02T10:00:00","59.8","ND","ND","ND","39.3","0.9","ND","ND","ND","ND","666","0"],
    [62008,"2017-06-02T11:00:00","46.1","ND","ND","ND","53.8","0.4","ND","ND","ND","ND","667","0"],
    [62009,"2017-06-02T12:00:00","47.9","ND","ND","ND","90.7","0.6","ND","ND","ND","ND","668","0"],
    [62010,"2017-06-02T13:00:00","52.9","ND","ND","ND","117.4","0.4","ND","ND","ND","ND","662","0"],
    [62011,"2017-06-02T14:00:00","57.9","ND","ND","ND","144.1","0.5","ND","ND","ND","ND","643","0"],
    [62012,"2017-06-02T15:00:00","58.1","ND","ND","ND","94.0","0.3","ND","ND","ND","ND","620","0"],
    [62013,"2017-06-02T16:00:00","38.4","ND","ND","ND","36.7","0.5","ND","ND","ND","ND","669","0"],
    [62014,"2017-06-02T17:00:00","36.5","ND","ND","ND","33.5","0.4","ND","ND","ND","ND","353","0"],
    [62015,"2017-06-02T18:00:00","39","ND","ND","ND","34.0","0.6","ND","ND","ND","ND","101","0"],
    [62016,"2017-06-02T19:00:00","37.7","ND","ND","ND","8.9","0.4","ND","ND","ND","ND","5","0"],
    [62017,"2017-06-02T20:00:00","39.8","ND","ND","ND","4.0","1.9","ND","ND","ND","ND","0","0"],
    [62018,"2017-06-02T21:00:00","34.6","ND","ND","ND","0.1","1.6","ND","ND","ND","ND","0","0"],
    [62019,"2017-06-02T22:00:00","33.8","ND","ND","ND","0.0","3.9","ND","ND","ND","ND","0","0"],
    [62020,"2017-06-02T23:00:00","47","ND","ND","ND","0.1","3.1","ND","ND","ND","ND","0","0"],
    [62021,"2017-06-03T00:00:00","56.8","ND","ND","ND","0.0","3.7","ND","ND","ND","ND","0","0"],
    [62022,"2017-06-03T01:00:00","50","ND","ND","ND","0.0","2.5","ND","ND","ND","ND","0","0"],
    [62023,"2017-06-03T02:00:00","38.6","ND","ND","ND","0.0","2.5","ND","ND","ND","ND","0","0"],
    [62024,"2017-06-03T03:00:00","32.3","ND","ND","ND","0.0","2.3","ND","ND","ND","ND","0","0"],
    [62025,"2017-06-03T04:00:00","34.9","ND","ND","ND","0.0","2.0","ND","ND","ND","ND","0","0"],
    [62026,"2017-06-03T05:00:00","28.1","ND","ND","ND","0.0","1.8","ND","ND","ND","ND","0","0"],
    [62027,"2017-06-03T06:00:00","37.5","ND","ND","ND","0.0","1.0","ND","ND","ND","ND","0","0"],
    [62028,"2017-06-03T07:00:00","62.7","ND","ND","ND","0.0","5.4","ND","ND","ND","ND","90","0"],
    [62029,"2017-06-03T08:00:00","86","ND","ND","ND","3.3","4.2","ND","ND","ND","ND","543","0"],
    [62030,"2017-06-03T09:00:00","85.9","ND","ND","ND","28.1","2.6","ND","ND","ND","ND","666","0"],
    [62031,"2017-06-03T10:00:00","81.4","ND","ND","ND","74.8","0.9","ND","ND","ND","ND","666","0"],
    [62032,"2017-06-03T11:00:00","70.8","ND","ND","ND","114.2","0.9","ND","ND","ND","ND","667","0"],
    [62033,"2017-06-03T12:00:00","64.6","ND","ND","ND","117.2","0.8","ND","ND","ND","ND","667","0"],
    [62034,"2017-06-03T13:00:00","65.5","ND","ND","ND","140.0","0.4","ND","ND","ND","ND","668","0"],
    [62035,"2017-06-03T14:00:00","70.8","ND","ND","ND","162.7","0.5","ND","ND","ND","ND","668","0"],
    [62036,"2017-06-03T15:00:00","64.7","ND","ND","ND","120.6","0.6","ND","ND","ND","ND","661","0"],
    [62037,"2017-06-03T16:00:00","35.9","ND","ND","ND","41.8","0.3","ND","ND","ND","ND","597","0"],
    [62038,"2017-06-03T17:00:00","22.2","ND","ND","ND","24.8","0.3","ND","ND","ND","ND","239","0"],
    [62039,"2017-06-03T18:00:00","21.7","ND","ND","ND","20.5","0.4","ND","ND","ND","ND","91","0"],
    [62040,"2017-06-03T19:00:00","23.3","ND","ND","ND","14.2","0.5","ND","ND","ND","ND","0","0"],
    [62041,"2017-06-03T20:00:00","21.1","ND","ND","ND","6.6","0.4","ND","ND","ND","ND","0","0"],
    [62042,"2017-06-03T21:00:00","4.6","ND","ND","ND","22.3","0.3","ND","ND","ND","ND","0","0"],
    [62043,"2017-06-03T22:00:00","ND","ND","ND","ND","10.1","3.2","ND","ND","ND","ND","0","0"],
    [62044,"2017-06-03T23:00:00","6.1","ND","ND","ND","5.8","6.1","ND","ND","ND","ND","0","0"],
    [62045,"2017-06-04T00:00:00","27.2","ND","ND","ND","3.6","1.7","ND","ND","ND","ND","0","0"],
    [62046,"2017-06-04T01:00:00","39.5","ND","ND","ND","6.6","2.2","ND","ND","ND","ND","0","0"],
    [62047,"2017-06-04T02:00:00","42.3","ND","ND","ND","2.2","2.2","ND","ND","ND","ND","0","0"],
    [62048,"2017-06-04T03:00:00","43.4","ND","ND","ND","0.1","3.6","ND","ND","ND","ND","0","0"],
    [62049,"2017-06-04T04:00:00","52.6","ND","ND","ND","0.0","5.8","ND","ND","ND","ND","0","0"],
    [62050,"2017-06-04T05:00:00","50.7","ND","ND","ND","0.0","4.2","ND","ND","ND","ND","0","0"],
    [62051,"2017-06-04T06:00:00","51","ND","ND","ND","0.0","4.4","ND","ND","ND","ND","0","0"],
    [62052,"2017-06-04T07:00:00","71.1","ND","ND","ND","0.0","4.1","ND","ND","ND","ND","98","0"],
    [62053,"2017-06-04T08:00:00","86.2","ND","ND","ND","3.4","4.4","ND","ND","ND","ND","315","0"],
    [62054,"2017-06-04T09:00:00","64.7","ND","ND","ND","20.9","2.8","ND","ND","ND","ND","665","0"],
    [62055,"2017-06-04T10:00:00","45","ND","ND","ND","43.7","1.0","ND","ND","ND","ND","666","0"],
    [62056,"2017-06-04T11:00:00","42.1","ND","ND","ND","46.3","1.6","ND","ND","ND","ND","666","0"],
    [62057,"2017-06-04T12:00:00","43.8","ND","ND","ND","48.2","2.2","ND","ND","ND","ND","667","0"],
    [62058,"2017-06-04T13:00:00","47","ND","ND","ND","76.3","1.3","ND","ND","ND","ND","666","0"],
    [62059,"2017-06-04T14:00:00","45.8","ND","ND","ND","99.2","0.9","ND","ND","ND","ND","652","0"],
    [62060,"2017-06-04T15:00:00","56.9","ND","ND","ND","128.9","0.6","ND","ND","ND","ND","664","0"],
    [62061,"2017-06-04T16:00:00","57","ND","ND","ND","116.7","0.4","ND","ND","ND","ND","475","0"],
    [62062,"2017-06-04T17:00:00","42.6","ND","ND","ND","94.9","0.4","ND","ND","ND","ND","469","0"],
    [62063,"2017-06-04T18:00:00","30.5","ND","ND","ND","29.8","0.3","ND","ND","ND","ND","134","0"],
    [62064,"2017-06-04T19:00:00","17.6","ND","ND","ND","7.2","0.6","ND","ND","ND","ND","4","0"],
    [62065,"2017-06-04T20:00:00","7.9","ND","ND","ND","0.7","0.5","ND","ND","ND","ND","0","0"],
    [62066,"2017-06-04T21:00:00","15.9","ND","ND","ND","0.8","0.7","ND","ND","ND","ND","0","0"],
    [62067,"2017-06-04T22:00:00","38.5","ND","ND","ND","0.6","2.7","ND","ND","ND","ND","0","0"],
    [62068,"2017-06-04T23:00:00","45.6","ND","ND","ND","0.0","4.4","ND","ND","ND","ND","0","0"],
    [62069,"2017-06-05T00:00:00","26.9","ND","ND","ND","0.0","3.1","ND","ND","ND","ND","0","0"],
    [62070,"2017-06-05T01:00:00","23.8","ND","ND","ND","0.0","2.7","ND","ND","ND","ND","0","0"],
    [62071,"2017-06-05T02:00:00","18.4","ND","ND","ND","0.0","2.3","ND","ND","ND","ND","0","0"],
    [62072,"2017-06-05T03:00:00","29.8","ND","ND","ND","0.0","2.2","ND","ND","ND","ND","0","0"],
    [62073,"2017-06-05T04:00:00","35.3","ND","ND","ND","0.2","1.8","ND","ND","ND","ND","0","0"],
    [62074,"2017-06-05T05:00:00","45.7","ND","ND","ND","0.0","3.0","ND","ND","ND","ND","0","0"],
    [62075,"2017-06-05T06:00:00","54.1","ND","ND","ND","0.0","3.1","ND","ND","ND","ND","0","0"],
    [62076,"2017-06-05T07:00:00","53.8","ND","ND","ND","0.0","2.2","ND","ND","ND","ND","157","0"],
    [62077,"2017-06-05T08:00:00","57.5","ND","ND","ND","2.2","2.3","ND","ND","ND","ND","388","0"],
    [62078,"2017-06-05T09:00:00","57.5","ND","ND","ND","12.9","3.2","ND","ND","ND","ND","633","0"],
    [62079,"2017-06-05T10:00:00","70","ND","ND","ND","36.8","3.0","ND","ND","ND","ND","666","0"],
    [62080,"2017-06-05T11:00:00","74.1","ND","ND","ND","86.9","1.9","ND","ND","ND","ND","667","0"],
    [62081,"2017-06-05T12:00:00","75","ND","ND","ND","140.7","0.9","ND","ND","ND","ND","667","0"],
    [62082,"2017-06-05T13:00:00","67.5","ND","ND","ND","152.4","0.7","ND","ND","ND","ND","668","0"],
    [62083,"2017-06-05T14:00:00","54.7","ND","ND","ND","132.3","0.3","ND","ND","ND","ND","666","0"],
    [62084,"2017-06-05T15:00:00","48.6","ND","ND","ND","123.9","0.4","ND","ND","ND","ND","578","0"],
    [62085,"2017-06-05T16:00:00","42","ND","ND","ND","103.8","0.3","ND","ND","ND","ND","667","0"],
    [62086,"2017-06-05T17:00:00","48.1","ND","ND","ND","89.4","0.4","ND","ND","ND","ND","633","0"],
    [62087,"2017-06-05T18:00:00","56.7","ND","ND","ND","53.1","0.6","ND","ND","ND","ND","145","0"],
    [62088,"2017-06-05T19:00:00","51.9","ND","ND","ND","34.3","0.7","ND","ND","ND","ND","0","0"],
    [62089,"2017-06-05T20:00:00","63.9","ND","ND","ND","7.7","0.7","ND","ND","ND","ND","0","0"],
    [62090,"2017-06-05T21:00:00","38.2","ND","ND","ND","0.1","1.4","ND","ND","ND","ND","0","0"],
    [62091,"2017-06-05T22:00:00","4","ND","ND","ND","0.0","5.4","ND","ND","ND","ND","0","0"],
    [62092,"2017-06-05T23:00:00","36.4","ND","ND","ND","0.0","6.2","ND","ND","ND","ND","0","0"],
    [62093,"2017-06-06T00:00:00","67.9","ND","ND","ND","0.0","2.6","ND","ND","ND","ND","0","0"],
    [62094,"2017-06-06T01:00:00","39.2","ND","ND","ND","1.9","2.4","ND","ND","ND","ND","0","0"],
    [62095,"2017-06-06T02:00:00","26.9","ND","ND","ND","1.8","2.3","ND","ND","ND","ND","0","0"],
    [62096,"2017-06-06T03:00:00","29.6","ND","ND","ND","0.2","2.1","ND","ND","ND","ND","0","0"],
    [62097,"2017-06-06T04:00:00","30.8","ND","ND","ND","0.0","2.1","ND","ND","ND","ND","0","0"],
    [62098,"2017-06-06T05:00:00","33.5","ND","ND","ND","0.0","1.9","ND","ND","ND","ND","0","0"],
    [62099,"2017-06-06T06:00:00","32","ND","ND","ND","0.0","3.1","ND","ND","ND","ND","0","0"],
    [62100,"2017-06-06T07:00:00","52.2","ND","ND","ND","0.0","4.5","ND","ND","ND","ND","204","0"],
    [62101,"2017-06-06T08:00:00","124.9","ND","ND","ND","3.2","3.3","ND","ND","ND","ND","565","0"],
    [62102,"2017-06-06T09:00:00","138.7","ND","ND","ND","21.7","4.0","ND","ND","ND","ND","666","0"],
    [62103,"2017-06-06T10:00:00","69.9","ND","ND","ND","45.9","1.3","ND","ND","ND","ND","666","0"],
    [62104,"2017-06-06T11:00:00","37.1","ND","ND","ND","62.7","0.6","ND","ND","ND","ND","666","0"],
    [62105,"2017-06-06T12:00:00","38.9","ND","ND","ND","84.0","0.6","ND","ND","ND","ND","668","0"],
    [62106,"2017-06-06T13:00:00","46.8","ND","ND","ND","98.3","0.6","ND","ND","ND","ND","668","0"],
    [62107,"2017-06-06T14:00:00","51.8","ND","ND","ND","105.3","0.7","ND","ND","ND","ND","641","0"],
    [62108,"2017-06-06T15:00:00","50.5","ND","ND","ND","78.0","0.3","ND","ND","ND","ND","654","0"],
    [62109,"2017-06-06T16:00:00","33","ND","ND","ND","33.8","0.3","ND","ND","ND","ND","630","0"],
    [62110,"2017-06-06T17:00:00","29.2","ND","ND","ND","33.5","0.1","ND","ND","ND","ND","651","0"],
    [62111,"2017-06-06T18:00:00","37.4","ND","ND","ND","29.7","0.3","ND","ND","ND","ND","156","0"],
    [62112,"2017-06-06T19:00:00","27.1","ND","ND","ND","22.3","0.2","ND","ND","ND","ND","0","0"],
    [62113,"2017-06-06T20:00:00","20.3","ND","ND","ND","7.0","0.6","ND","ND","ND","ND","0","0"],
    [62114,"2017-06-06T21:00:00","1.8","ND","ND","ND","4.4","1.2","ND","ND","ND","ND","0","0"],
    [62115,"2017-06-06T22:00:00","ND","ND","ND","ND","8.2","2.3","ND","ND","ND","ND","0","0"],
    [62116,"2017-06-06T23:00:00","ND","ND","ND","ND","0.1","1.8","ND","ND","ND","ND","0","0"],
    [62117,"2017-06-07T00:00:00","50.7","ND","ND","ND","1.0","0.9","ND","ND","ND","ND","0","0"],
    [62118,"2017-06-07T01:00:00","122.3","ND","ND","ND","4.4","1.4","ND","ND","ND","ND","0","0"],
    [62119,"2017-06-07T02:00:00","62.6","ND","ND","ND","1.6","1.6","ND","ND","ND","ND","0","0"],
    [62120,"2017-06-07T03:00:00","45.4","ND","ND","ND","0.8","2.1","ND","ND","ND","ND","0","0"],
    [62121,"2017-06-07T04:00:00","57.1","ND","ND","ND","0.0","2.8","ND","ND","ND","ND","0","0"],
    [62122,"2017-06-07T05:00:00","65.7","ND","ND","ND","0.0","3.2","ND","ND","ND","ND","0","0"],
    [62123,"2017-06-07T06:00:00","61.8","ND","ND","ND","0.0","3.6","ND","ND","ND","ND","0","0"],
    [62124,"2017-06-07T07:00:00","73.2","ND","ND","ND","0.0","6.7","ND","ND","ND","ND","24","5.59"],
    [62125,"2017-06-07T08:00:00","75.8","ND","ND","ND","0.0","4.6","ND","ND","ND","ND","76","1.52"],
    [62126,"2017-06-07T09:00:00","58.7","ND","ND","ND","0.0","1.1","ND","ND","ND","ND","434","0.25"],
    [62127,"2017-06-07T10:00:00","ND","ND","ND","ND","ND","ND","ND","ND","ND","ND","ND","ND"],
    [62128,"2017-06-07T11:00:00","ND","ND","ND","ND","ND","ND","ND","ND","ND","ND","ND","ND"],
    [62129,"2017-06-07T12:00:00","ND","ND","ND","ND","ND","ND","ND","ND","ND","ND","ND","ND"],
    [62130,"2017-06-07T13:00:00","14.8","ND","ND","ND","34.2","1.1","ND","ND","ND","ND","536","0"],
    [62131,"2017-06-07T14:00:00","2.2","ND","ND","ND","6.9","2.0","ND","ND","ND","ND","200","2.54"],
    [62132,"2017-06-07T15:00:00","27.7","ND","ND","ND","1.2","3.4","ND","ND","ND","ND","189","5.33"],
    [62133,"2017-06-07T16:00:00","80.8","ND","ND","ND","2.2","1.0","ND","ND","ND","ND","436","0.76"],
    [62134,"2017-06-07T17:00:00","12.8","ND","ND","ND","3.2","0.7","ND","ND","ND","ND","128","0.51"],
    [62135,"2017-06-07T18:00:00","ND","ND","ND","ND","1.5","1.4","ND","ND","ND","ND","67","0.25"],
    [62136,"2017-06-07T19:00:00","4.9","ND","ND","ND","0.7","1.6","ND","ND","ND","ND","0","0.25"],
    [62137,"2017-06-07T20:00:00","ND","ND","ND","ND","0.4","1.0","ND","ND","ND","ND","0","0.25"],
    [62138,"2017-06-07T21:00:00","48.9","ND","ND","ND","0.6","0.3","ND","ND","ND","ND","0","1.52"],
    [62139,"2017-06-07T22:00:00","104.6","ND","ND","ND","0.6","0.3","ND","ND","ND","ND","0","1.78"],
    [62140,"2017-06-07T23:00:00","52.8","ND","ND","ND","0.5","ND","ND","ND","ND","ND","0","0.25"],
    [62141,"2017-06-08T00:00:00","29.6","ND","ND","ND","1.3","ND","ND","ND","ND","ND","0","0"],
    [62142,"2017-06-08T01:00:00","27.5","ND","ND","ND","1.9","ND","ND","ND","ND","ND","0","2.29"],
    [62143,"2017-06-08T02:00:00","22.1","ND","ND","ND","2.8","ND","ND","ND","ND","ND","0","1.02"],
    [62144,"2017-06-08T03:00:00","15.4","ND","ND","ND","6.6","ND","ND","ND","ND","ND","0","0.25"],
    [62145,"2017-06-08T04:00:00","2.8","ND","ND","ND","4.7","ND","ND","ND","ND","ND","0","0"],
    [62146,"2017-06-08T05:00:00","15.1","ND","ND","ND","4.2","ND","ND","ND","ND","ND","0","0"],
    [62147,"2017-06-08T06:00:00","12.4","ND","ND","ND","1.6","ND","ND","ND","ND","ND","0","0"],
    [62148,"2017-06-08T07:00:00","18.7","ND","ND","ND","1.2","ND","ND","ND","ND","ND","65","0.25"],
    [62149,"2017-06-08T08:00:00","39.3","ND","ND","ND","1.2","ND","ND","ND","ND","ND","217","0.25"],
    [62150,"2017-06-08T09:00:00","55.9","ND","ND","ND","3.2","ND","ND","ND","ND","ND","579","0"],
    [62151,"2017-06-08T10:00:00","48","ND","ND","ND","32.0","ND","ND","ND","ND","ND","664","0"],
    [62152,"2017-06-08T11:00:00","46.8","ND","ND","ND","55.5","ND","ND","ND","ND","ND","665","0"],
    [62153,"2017-06-08T12:00:00","37","ND","ND","ND","61.5","ND","ND","ND","ND","ND","666","0"],
    [62154,"2017-06-08T13:00:00","11","ND","ND","ND","73.8","ND","ND","ND","ND","ND","665","0"],
    [62155,"2017-06-08T14:00:00","4.4","ND","ND","ND","81.6","ND","ND","ND","ND","ND","665","0"],
    [62156,"2017-06-08T15:00:00","51.3","ND","ND","ND","70.2","ND","ND","ND","ND","ND","665","0"],
    [62157,"2017-06-08T16:00:00","42.6","ND","ND","ND","75.8","ND","ND","ND","ND","ND","665","0"],
    [62158,"2017-06-08T17:00:00","13.6","ND","ND","ND","76.8","ND","ND","ND","ND","ND","323","0"],
    [62159,"2017-06-08T18:00:00","7.9","ND","ND","ND","44.7","ND","ND","ND","ND","ND","50","0"],
    [62160,"2017-06-08T19:00:00","18.1","ND","ND","ND","7.2","ND","ND","ND","ND","ND","0","0.51"],
    [62161,"2017-06-08T20:00:00","55.4","ND","ND","ND","0.0","ND","ND","ND","ND","ND","0","0.76"],
    [62162,"2017-06-08T21:00:00","47.4","ND","ND","ND","0.4","ND","ND","ND","ND","ND","0","1.27"],
    [62163,"2017-06-08T22:00:00","30.4","ND","ND","ND","0.0","ND","ND","ND","ND","ND","0","1.27"],
    [62164,"2017-06-08T23:00:00","26.2","ND","ND","ND","0.0","ND","ND","ND","ND","ND","0","0.76"],
    [62165,"2017-06-09T00:00:00","5.9","ND","ND","ND","0.0","ND","ND","ND","ND","ND","0","0.51"],
    [62166,"2017-06-09T01:00:00","15.3","ND","ND","ND","0.0","ND","ND","ND","ND","ND","0","0"],
    [62167,"2017-06-09T02:00:00","4.2","ND","ND","ND","0.0","ND","ND","ND","ND","ND","0","0.51"],
    [62168,"2017-06-09T03:00:00","3.5","ND","ND","ND","0.0","ND","ND","ND","ND","ND","0","0"],
    [62169,"2017-06-09T04:00:00","11.3","ND","ND","ND","0.0","ND","ND","ND","ND","ND","0","0"],
    [62170,"2017-06-09T05:00:00","37.7","ND","ND","ND","0.0","ND","ND","ND","ND","ND","0","0"],
    [62171,"2017-06-09T06:00:00","23.5","ND","ND","ND","0.0","ND","ND","ND","ND","ND","0","0"],
    [62172,"2017-06-09T07:00:00","19.4","ND","ND","ND","0.0","ND","ND","ND","ND","ND","87","0.25"],
    [62173,"2017-06-09T08:00:00","52.6","ND","ND","ND","0.0","ND","ND","ND","ND","ND","214","0"],
    [62174,"2017-06-09T09:00:00","65.3","ND","ND","ND","0.0","ND","ND","ND","ND","ND","398","0"],
    [62175,"2017-06-09T10:00:00","64.5","ND","ND","ND","7.0","ND","ND","ND","ND","ND","664","0"],
    [62176,"2017-06-09T11:00:00","60.4","ND","ND","ND","39.0","ND","ND","ND","ND","ND","664","0"],
    [62177,"2017-06-09T12:00:00","34.1","ND","ND","ND","65.0","ND","ND","ND","ND","ND","664","0"],
    [62178,"2017-06-09T13:00:00","28.4","ND","ND","ND","70.6","ND","ND","ND","ND","ND","664","0"],
    [62179,"2017-06-09T14:00:00","29.7","ND","ND","ND","75.9","ND","ND","ND","ND","ND","663","0"],
    [62180,"2017-06-09T15:00:00","33.3","ND","ND","ND","81.0","ND","ND","ND","ND","ND","654","0"],
    [62181,"2017-06-09T16:00:00","33","ND","ND","ND","89.8","ND","ND","ND","ND","ND","657","0"],
    [62182,"2017-06-09T17:00:00","59.2","ND","ND","ND","61.1","ND","ND","ND","ND","ND","562","0"],
    [62183,"2017-06-09T18:00:00","68","ND","ND","ND","32.0","ND","ND","ND","ND","ND","267","0"],
    [62184,"2017-06-09T19:00:00","57","ND","ND","ND","11.2","ND","ND","ND","ND","ND","9","0"],
    [62185,"2017-06-09T20:00:00","50.8","ND","ND","ND","0.3","ND","ND","ND","ND","ND","0","0"],
    [62186,"2017-06-09T21:00:00","58.2","ND","ND","ND","0.0","ND","ND","ND","ND","ND","0","0"],
    [62187,"2017-06-09T22:00:00","66.4","ND","ND","ND","0.0","ND","ND","ND","ND","ND","0","0"],
    [62188,"2017-06-09T23:00:00","69.5","ND","ND","ND","0.1","ND","ND","ND","ND","ND","0","0"],
    [62189,"2017-06-10T00:00:00","75.3","ND","ND","ND","0.0","ND","ND","ND","ND","ND","0","0"],
    [62190,"2017-06-10T01:00:00","90","ND","ND","ND","0.0","ND","ND","ND","ND","ND","0","0"],
    [62191,"2017-06-10T02:00:00","68.3","ND","ND","ND","0.0","ND","ND","ND","ND","ND","0","0"],
    [62192,"2017-06-10T03:00:00","47.8","ND","ND","ND","0.0","ND","ND","ND","ND","ND","0","0"],
    [62193,"2017-06-10T04:00:00","39.4","ND","ND","ND","0.0","ND","ND","ND","ND","ND","0","0"],
    [62194,"2017-06-10T05:00:00","40.1","ND","ND","ND","0.0","ND","ND","ND","ND","ND","0","0"],
    [62195,"2017-06-10T06:00:00","40.5","ND","ND","ND","0.0","ND","ND","ND","ND","ND","0","0"],
    [62196,"2017-06-10T07:00:00","50.6","ND","ND","ND","0.0","ND","ND","ND","ND","ND","146","0"],
    [62197,"2017-06-10T08:00:00","84.9","ND","ND","ND","3.3","ND","ND","ND","ND","ND","569","0"],
    [62198,"2017-06-10T09:00:00","98.7","ND","ND","ND","14.9","ND","ND","ND","ND","ND","668","0"],
    [62199,"2017-06-10T10:00:00","81.5","ND","ND","ND","27.3","ND","ND","ND","ND","ND","651","0"],
    [62200,"2017-06-10T11:00:00","86.2","ND","ND","ND","68.6","ND","ND","ND","ND","ND","672","0"],
    [62201,"2017-06-10T12:00:00","83.9","ND","ND","ND","134.8","ND","ND","ND","ND","ND","673","0"],
    [62202,"2017-06-10T13:00:00","77.4","ND","ND","ND","148.1","ND","ND","ND","ND","ND","673","0"],
    [62203,"2017-06-10T14:00:00","75","ND","ND","ND","140.3","ND","ND","ND","ND","ND","674","0"],
    [62204,"2017-06-10T15:00:00","65.7","ND","ND","ND","84.0","ND","ND","ND","ND","ND","674","0"],
    [62205,"2017-06-10T16:00:00","48.1","ND","ND","ND","61.1","ND","ND","ND","ND","ND","579","0"],
    [62206,"2017-06-10T17:00:00","32.4","ND","ND","ND","38.6","ND","ND","ND","ND","ND","578","0"],
    [62207,"2017-06-10T18:00:00","26.8","ND","ND","ND","29.3","ND","ND","ND","ND","ND","263","0"],
    [62208,"2017-06-10T19:00:00","27","ND","ND","ND","15.7","ND","ND","ND","ND","ND","11","0"],
    [62209,"2017-06-10T20:00:00","30.4","ND","ND","ND","4.7","ND","ND","ND","ND","ND","0","0"],
    [62210,"2017-06-10T21:00:00","42.7","ND","ND","ND","1.7","ND","ND","ND","ND","ND","0","0"],
    [62211,"2017-06-10T22:00:00","66.1","ND","ND","ND","0.1","ND","ND","ND","ND","ND","0","0"],
    [62212,"2017-06-10T23:00:00","50.6","ND","ND","ND","0.0","ND","ND","ND","ND","ND","0","0"],
    [62213,"2017-06-11T00:00:00","32.5","ND","ND","ND","0.5","ND","ND","ND","ND","ND","0","0"],
    [62214,"2017-06-11T01:00:00","57.8","ND","ND","ND","0.0","ND","ND","ND","ND","ND","0","0"],
    [62215,"2017-06-11T02:00:00","45.8","ND","ND","ND","0.0","ND","ND","ND","ND","ND","0","0"],
    [62216,"2017-06-11T03:00:00","42.5","ND","ND","ND","0.0","ND","ND","ND","ND","ND","0","0"],
    [62217,"2017-06-11T04:00:00","37.4","ND","ND","ND","0.0","ND","ND","ND","ND","ND","0","0.76"],
    [62218,"2017-06-11T05:00:00","25.1","ND","ND","ND","0.0","ND","ND","ND","ND","ND","0","0"],
    [62219,"2017-06-11T06:00:00","22.4","ND","ND","ND","0.0","ND","ND","ND","ND","ND","0","0"],
    [62220,"2017-06-11T07:00:00","16.2","ND","ND","ND","0.0","ND","ND","ND","ND","ND","122","0"],
    [62221,"2017-06-11T08:00:00","19.7","ND","ND","ND","2.3","ND","ND","ND","ND","ND","497","0"],
    [62222,"2017-06-11T09:00:00","20.3","ND","ND","ND","18.9","ND","ND","ND","ND","ND","662","0"],
    [62223,"2017-06-11T10:00:00","22.4","ND","ND","ND","35.7","ND","ND","ND","ND","ND","667","0"],
    [62224,"2017-06-11T11:00:00","18.8","ND","ND","ND","63.4","ND","ND","ND","ND","ND","672","0"],
    [62225,"2017-06-11T12:00:00","15.8","ND","ND","ND","73.0","ND","ND","ND","ND","ND","672","0"],
    [62226,"2017-06-11T13:00:00","20.6","ND","ND","ND","73.9","ND","ND","ND","ND","ND","661","0"],
    [62227,"2017-06-11T14:00:00","28.6","ND","ND","ND","34.9","ND","ND","ND","ND","ND","462","1.02"],
    [62228,"2017-06-11T15:00:00","29.6","ND","ND","ND","19.2","ND","ND","ND","ND","ND","673","0"],
    [62229,"2017-06-11T16:00:00","13.2","ND","ND","ND","16.4","ND","ND","ND","ND","ND","447","0"],
    [62230,"2017-06-11T17:00:00","7.6","ND","ND","ND","23.4","ND","ND","ND","ND","ND","601","0"],
    [62231,"2017-06-11T18:00:00","13.8","ND","ND","ND","25.0","ND","ND","ND","ND","ND","244","0"],
    [62232,"2017-06-11T19:00:00","10.8","ND","ND","ND","21.4","ND","ND","ND","ND","ND","5","0"],
    [62233,"2017-06-11T20:00:00","7.3","ND","ND","ND","16.2","ND","ND","ND","ND","ND","0","0"],
    [62234,"2017-06-11T21:00:00","12.7","ND","ND","ND","3.4","ND","ND","ND","ND","ND","0","4.57"],
    [62235,"2017-06-11T22:00:00","7.7","ND","ND","ND","8.0","ND","ND","ND","ND","ND","0","0.25"],
    [62236,"2017-06-11T23:00:00","2.3","ND","ND","ND","1.1","ND","ND","ND","ND","ND","0","0"],
    [62237,"2017-06-12T00:00:00","11.7","ND","ND","ND","0.1","ND","ND","ND","ND","ND","0","0"],
    [62238,"2017-06-12T01:00:00","16","ND","ND","ND","0.0","ND","ND","ND","ND","ND","0","0.25"],
    [62239,"2017-06-12T02:00:00","21.1","ND","ND","ND","0.0","ND","ND","ND","ND","ND","0","0.25"],
    [62240,"2017-06-12T03:00:00","18.3","ND","ND","ND","0.0","ND","ND","ND","ND","ND","0","0"],
    [62241,"2017-06-12T04:00:00","21.3","ND","ND","ND","0.4","0.9","ND","ND","ND","ND","0","1.27"],
    [62242,"2017-06-12T05:00:00","20.3","ND","ND","ND","0.0","2.2","ND","ND","ND","ND","0","3.3"],
    [62243,"2017-06-12T06:00:00","18.2","ND","ND","ND","0.0","6.2","ND","ND","ND","ND","0","2.54"],
    [62244,"2017-06-12T07:00:00","8.5","ND","ND","ND","0.0","4.4","ND","ND","ND","ND","36","0.25"],
    [62245,"2017-06-12T08:00:00","10.4","ND","ND","ND","0.0","1.7","ND","ND","ND","ND","87","0"],
    [62246,"2017-06-12T09:00:00","7.8","ND","ND","ND","0.1","0.6","ND","ND","ND","ND","296","0"],
    [62247,"2017-06-12T10:00:00","ND","ND","ND","ND","ND","ND","ND","ND","ND","ND","ND","ND"],
    [62248,"2017-06-12T11:00:00","ND","ND","ND","ND","ND","ND","ND","ND","ND","ND","ND","ND"],
    [62249,"2017-06-12T12:00:00","ND","ND","ND","ND","ND","ND","ND","ND","ND","ND","ND","ND"],
    [62250,"2017-06-12T13:00:00","ND","ND","ND","ND","ND","ND","ND","ND","ND","ND","ND","ND"],
    [62251,"2017-06-12T14:00:00","ND","ND","ND","ND","ND","ND","ND","ND","ND","ND","ND","ND"],
    [62252,"2017-06-12T15:00:00","ND","ND","ND","ND","ND","ND","ND","ND","ND","ND","ND","ND"],
    [62253,"2017-06-12T16:00:00","ND","ND","ND","ND","ND","ND","ND","ND","ND","ND","313","0"],
    [62254,"2017-06-12T17:00:00","ND","ND","ND","ND","55.9","ND","ND","ND","ND","ND","238","0"],
    [62255,"2017-06-12T18:00:00","ND","ND","ND","ND","40.0","2.0","ND","ND","ND","ND","77","0"],
    [62256,"2017-06-12T19:00:00","ND","ND","ND","ND","5.8","2.0","ND","ND","ND","ND","5","0"],
    [62257,"2017-06-12T20:00:00","ND","ND","ND","ND","0.0","0.8","ND","ND","ND","ND","0","0"],
    [62258,"2017-06-12T21:00:00","ND","ND","ND","ND","0.0","0.5","ND","ND","ND","ND","0","0.25"],
    [62259,"2017-06-12T22:00:00","114.5","ND","ND","ND","0.0","0.6","ND","ND","ND","ND","0","0.51"],
    [62260,"2017-06-12T23:00:00","59.4","ND","ND","ND","4.7","0.7","ND","ND","ND","ND","0","6.86"],
    [62261,"2017-06-13T00:00:00","21.9","ND","ND","ND","0.7","0.3","ND","ND","ND","ND","0","4.06"],
    [62262,"2017-06-13T01:00:00","21.4","ND","ND","ND","2.0","0.3","ND","ND","ND","ND","0","0"],
    [62263,"2017-06-13T02:00:00","23.3","ND","ND","ND","0.0","0.4","ND","ND","ND","ND","0","0.51"],
    [62264,"2017-06-13T03:00:00","22.2","ND","ND","ND","0.0","0.2","ND","ND","ND","ND","0","0"],
    [62265,"2017-06-13T04:00:00","36.3","ND","ND","ND","0.0","0.6","ND","ND","ND","ND","0","1.27"],
    [62266,"2017-06-13T05:00:00","26.1","ND","ND","ND","0.0","0.7","ND","ND","ND","ND","0","0.76"],
    [62267,"2017-06-13T06:00:00","32.1","ND","ND","ND","0.0","2.8","ND","ND","ND","ND","0","0.51"],
    [62268,"2017-06-13T07:00:00","29","ND","ND","ND","0.0","2.6","ND","ND","ND","ND","29","0.25"],
    [62269,"2017-06-13T08:00:00","39.7","ND","ND","ND","0.0","3.2","ND","ND","ND","ND","154","0.25"],
    [62270,"2017-06-13T09:00:00","60.4","ND","ND","ND","0.0","4.2","ND","ND","ND","ND","470","0"],
    [62271,"2017-06-13T10:00:00","67.5","ND","ND","ND","2.6","2.6","ND","ND","ND","ND","637","0"],
    [62272,"2017-06-13T11:00:00","39.3","ND","ND","ND","192.9","1.6","ND","ND","ND","ND","665","0"],
    [62273,"2017-06-13T12:00:00","19","ND","ND","ND","38.0","0.9","ND","ND","ND","ND","631","0"],
    [62274,"2017-06-13T13:00:00","ND","ND","ND","ND","47.5","0.4","ND","ND","ND","ND","661","0"],
    [62275,"2017-06-13T14:00:00","17.7","ND","ND","ND","52.9","0.2","ND","ND","ND","ND","665","0"],
    [62276,"2017-06-13T15:00:00","46.5","ND","ND","ND","71.6","0.4","ND","ND","ND","ND","666","0"],
    [62277,"2017-06-13T16:00:00","28.3","ND","ND","ND","83.3","0.4","ND","ND","ND","ND","525","0"],
    [62278,"2017-06-13T17:00:00","6.2","ND","ND","ND","61.6","0.3","ND","ND","ND","ND","497","0"],
    [62279,"2017-06-13T18:00:00","31.3","ND","ND","ND","51.0","0.2","ND","ND","ND","ND","137","0"],
    [62280,"2017-06-13T19:00:00","45.9","ND","ND","ND","23.7","0.4","ND","ND","ND","ND","7","0"],
    [62281,"2017-06-13T20:00:00","42.5","ND","ND","ND","0.6","1.6","ND","ND","ND","ND","0","0"],
    [62282,"2017-06-13T21:00:00","51.5","ND","ND","ND","1.1","1.5","ND","ND","ND","ND","0","0"],
    [62283,"2017-06-13T22:00:00","54.9","ND","ND","ND","1.5","1.2","ND","ND","ND","ND","0","0"],
    [62284,"2017-06-13T23:00:00","64.2","ND","ND","ND","0.2","1.7","ND","ND","ND","ND","0","0"],
    [62285,"2017-06-14T00:00:00","57","ND","ND","ND","0.0","1.5","ND","ND","ND","ND","0","0"],
    [62286,"2017-06-14T01:00:00","51.2","ND","ND","ND","0.3","1.4","ND","ND","ND","ND","0","0"],
    [62287,"2017-06-14T02:00:00","54","ND","ND","ND","0.0","2.9","ND","ND","ND","ND","0","0"],
    [62288,"2017-06-14T03:00:00","46.1","ND","ND","ND","0.0","2.1","ND","ND","ND","ND","0","0"],
    [62289,"2017-06-14T04:00:00","31.8","ND","ND","ND","0.0","1.1","ND","ND","ND","ND","0","0"],
    [62290,"2017-06-14T05:00:00","40.4","ND","ND","ND","0.0","2.5","ND","ND","ND","ND","0","0"],
    [62291,"2017-06-14T06:00:00","55","ND","ND","ND","0.0","4.1","ND","ND","ND","ND","0","0"],
    [62292,"2017-06-14T07:00:00","74.9","ND","ND","ND","0.0","3.2","ND","ND","ND","ND","68","0"],
    [62293,"2017-06-14T08:00:00","96.6","ND","ND","ND","0.0","4.4","ND","ND","ND","ND","235","0"],
    [62294,"2017-06-14T09:00:00","108.4","ND","ND","ND","0.0","4.3","ND","ND","ND","ND","606","0"],
    [62295,"2017-06-14T10:00:00","93","ND","ND","ND","11.5","3.7","ND","ND","ND","ND","665","0"],
    [62296,"2017-06-14T11:00:00","74.2","ND","ND","ND","50.2","2.2","ND","ND","ND","ND","665","0"],
    [62297,"2017-06-14T12:00:00","66.2","ND","ND","ND","129.4","0.7","ND","ND","ND","ND","666","0"],
    [62298,"2017-06-14T13:00:00","54.8","ND","ND","ND","156.8","0.5","ND","ND","ND","ND","666","0"],
    [62299,"2017-06-14T14:00:00","30.4","ND","ND","ND","103.5","0.3","ND","ND","ND","ND","654","0"],
    [62300,"2017-06-14T15:00:00","24.9","ND","ND","ND","94.3","0.4","ND","ND","ND","ND","664","0"],
    [62301,"2017-06-14T16:00:00","43","ND","ND","ND","111.1","0.2","ND","ND","ND","ND","629","0"],
    [62302,"2017-06-14T17:00:00","38","ND","ND","ND","46.0","0.2","ND","ND","ND","ND","578","0"],
    [62303,"2017-06-14T18:00:00","3.8","ND","ND","ND","27.1","0.2","ND","ND","ND","ND","155","0"],
    [62304,"2017-06-14T19:00:00","ND","ND","ND","ND","0.9","0.2","ND","ND","ND","ND","5","0"],
    [62305,"2017-06-14T20:00:00","20.1","ND","ND","ND","1.9","0.7","ND","ND","ND","ND","0","0"],
    [62306,"2017-06-14T21:00:00","47","ND","ND","ND","4.8","1.2","ND","ND","ND","ND","0","0"],
    [62307,"2017-06-14T22:00:00","73.3","ND","ND","ND","0.0","1.2","ND","ND","ND","ND","0","0"],
    [62308,"2017-06-14T23:00:00","89.6","ND","ND","ND","0.0","0.6","ND","ND","ND","ND","0","0"],
    [62309,"2017-06-15T00:00:00","64.7","ND","ND","ND","0.0","0.9","ND","ND","ND","ND","0","0"],
    [62310,"2017-06-15T01:00:00","49.5","ND","ND","ND","0.0","0.8","ND","ND","ND","ND","0","0"],
    [62311,"2017-06-15T02:00:00","36","ND","ND","ND","0.0","3.3","ND","ND","ND","ND","0","0"],
    [62312,"2017-06-15T03:00:00","61.7","ND","ND","ND","0.0","3.4","ND","ND","ND","ND","0","0"],
    [62313,"2017-06-15T04:00:00","51.6","ND","ND","ND","0.0","1.0","ND","ND","ND","ND","0","0"],
    [62314,"2017-06-15T05:00:00","39.5","ND","ND","ND","0.0","0.8","ND","ND","ND","ND","0","0"],
    [62315,"2017-06-15T06:00:00","41.6","ND","ND","ND","0.0","1.2","ND","ND","ND","ND","0","0"],
    [62316,"2017-06-15T07:00:00","61.9","ND","ND","ND","0.0","2.0","ND","ND","ND","ND","97","0"],
    [62317,"2017-06-15T08:00:00","80.8","ND","ND","ND","0.1","3.3","ND","ND","ND","ND","281","0"],
    [62318,"2017-06-15T09:00:00","57.1","ND","ND","ND","1.5","2.2","ND","ND","ND","ND","594","0"],
    [62319,"2017-06-15T10:00:00","23.6","ND","ND","ND","8.8","1.3","ND","ND","ND","ND","663","0"],
    [62320,"2017-06-15T11:00:00","57.5","ND","ND","ND","16.7","0.6","ND","ND","ND","ND","664","0"],
    [62321,"2017-06-15T12:00:00","55.8","ND","ND","ND","21.8","1.0","ND","ND","ND","ND","664","0"],
    [62322,"2017-06-15T13:00:00","42.5","ND","ND","ND","63.1","0.4","ND","ND","ND","ND","664","0"],
    [62323,"2017-06-15T14:00:00","35.8","ND","ND","ND","111.1","0.7","ND","ND","ND","ND","664","0"],
    [62324,"2017-06-15T15:00:00","33.6","ND","ND","ND","115.0","0.3","ND","ND","ND","ND","664","0"],
    [62325,"2017-06-15T16:00:00","34.2","ND","ND","ND","112.9","0.2","ND","ND","ND","ND","663","0"],
    [62326,"2017-06-15T17:00:00","43.3","ND","ND","ND","107.6","0.3","ND","ND","ND","ND","551","0"],
    [62327,"2017-06-15T18:00:00","42.5","ND","ND","ND","44.7","0.3","ND","ND","ND","ND","334","0"],
    [62328,"2017-06-15T19:00:00","2.4","ND","ND","ND","9.1","0.3","ND","ND","ND","ND","7","0"],
    [62329,"2017-06-15T20:00:00","18.4","ND","ND","ND","0.7","0.3","ND","ND","ND","ND","0","0"],
    [62330,"2017-06-15T21:00:00","85.4","ND","ND","ND","0.2","0.3","ND","ND","ND","ND","0","0"],
    [62331,"2017-06-15T22:00:00","107.3","ND","ND","ND","1.8","0.7","ND","ND","ND","ND","0","0"],
    [62332,"2017-06-15T23:00:00","49","ND","ND","ND","0.2","2.9","ND","ND","ND","ND","0","0"],
    [62333,"2017-06-16T00:00:00","46.7","ND","ND","ND","0.0","3.4","ND","ND","ND","ND","0","0"],
    [62334,"2017-06-16T01:00:00","43.5","ND","ND","ND","4.1","0.8","ND","ND","ND","ND","0","0"],
    [62335,"2017-06-16T02:00:00","25.5","ND","ND","ND","11.7","0.3","ND","ND","ND","ND","0","0"],
    [62336,"2017-06-16T03:00:00","22.4","ND","ND","ND","8.4","0.5","ND","ND","ND","ND","0","0"],
    [62337,"2017-06-16T04:00:00","24","ND","ND","ND","9.1","0.7","ND","ND","ND","ND","0","0"],
    [62338,"2017-06-16T05:00:00","19.7","ND","ND","ND","0.5","1.2","ND","ND","ND","ND","0","0"],
    [62339,"2017-06-16T06:00:00","39.3","ND","ND","ND","0.0","1.3","ND","ND","ND","ND","0","0"],
    [62340,"2017-06-16T07:00:00","53.5","ND","ND","ND","0.0","1.7","ND","ND","ND","ND","78","0"],
    [62341,"2017-06-16T08:00:00","74.6","ND","ND","ND","0.6","2.5","ND","ND","ND","ND","244","0"],
    [62342,"2017-06-16T09:00:00","73.3","ND","ND","ND","2.2","2.6","ND","ND","ND","ND","562","0"],
    [62343,"2017-06-16T10:00:00","75.2","ND","ND","ND","30.3","1.3","ND","ND","ND","ND","664","0"],
    [62344,"2017-06-16T11:00:00","56.2","ND","ND","ND","74.1","0.4","ND","ND","ND","ND","664","0"],
    [62345,"2017-06-16T12:00:00","36.5","ND","ND","ND","104.5","0.4","ND","ND","ND","ND","664","0"],
    [62346,"2017-06-16T13:00:00","18.6","ND","ND","ND","110.8","0.2","ND","ND","ND","ND","664","0"],
    [62347,"2017-06-16T14:00:00","52.2","ND","ND","ND","91.1","0.4","ND","ND","ND","ND","638","0"],
    [62348,"2017-06-16T15:00:00","38.8","ND","ND","ND","77.2","0.3","ND","ND","ND","ND","615","0"],
    [62349,"2017-06-16T16:00:00","29.4","ND","ND","ND","31.1","0.3","ND","ND","ND","ND","599","0"],
    [62350,"2017-06-16T17:00:00","1.1","ND","ND","ND","22.8","0.1","ND","ND","ND","ND","602","0"],
    [62351,"2017-06-16T18:00:00","2","ND","ND","ND","13.7","0.3","ND","ND","ND","ND","144","0"],
    [62352,"2017-06-16T19:00:00","ND","ND","ND","ND","9.4","0.2","ND","ND","ND","ND","6","0"],
    [62353,"2017-06-16T20:00:00","33.5","ND","ND","ND","1.5","0.3","ND","ND","ND","ND","0","0"],
    [62354,"2017-06-16T21:00:00","80.3","ND","ND","ND","0.0","0.2","ND","ND","ND","ND","0","0"],
    [62355,"2017-06-16T22:00:00","71.5","ND","ND","ND","0.0","0.7","ND","ND","ND","ND","0","0"],
    [62356,"2017-06-16T23:00:00","67.9","ND","ND","ND","0.0","0.8","ND","ND","ND","ND","0","0"],
    [62357,"2017-06-17T00:00:00","30.4","ND","ND","ND","0.0","0.7","ND","ND","ND","ND","0","0"],
    [62358,"2017-06-17T01:00:00","28.3","ND","ND","ND","0.0","0.6","ND","ND","ND","ND","0","0"],
    [62359,"2017-06-17T02:00:00","31.7","ND","ND","ND","0.1","1.6","ND","ND","ND","ND","0","0"],
    [62360,"2017-06-17T03:00:00","35.2","ND","ND","ND","0.3","0.7","ND","ND","ND","ND","0","0"],
    [62361,"2017-06-17T04:00:00","30.3","ND","ND","ND","0.2","0.7","ND","ND","ND","ND","0","0"],
    [62362,"2017-06-17T05:00:00","32.4","ND","ND","ND","0.0","1.3","ND","ND","ND","ND","0","0"],
    [62363,"2017-06-17T06:00:00","30.3","ND","ND","ND","0.0","1.5","ND","ND","ND","ND","0","0"],
    [62364,"2017-06-17T07:00:00","39.1","ND","ND","ND","0.0","0.8","ND","ND","ND","ND","101","0"],
    [62365,"2017-06-17T08:00:00","49.4","ND","ND","ND","0.2","1.3","ND","ND","ND","ND","357","0"],
    [62366,"2017-06-17T09:00:00","65.2","ND","ND","ND","10.4","0.6","ND","ND","ND","ND","625","0"],
    [62367,"2017-06-17T10:00:00","45.2","ND","ND","ND","20.9","0.9","ND","ND","ND","ND","585","0"],
    [62368,"2017-06-17T11:00:00","36.6","ND","ND","ND","33.7","0.9","ND","ND","ND","ND","664","0"],
    [62369,"2017-06-17T12:00:00","56.9","ND","ND","ND","40.0","0.7","ND","ND","ND","ND","624","0"],
    [62370,"2017-06-17T13:00:00","8.5","ND","ND","ND","23.6","0.2","ND","ND","ND","ND","663","0"],
    [62371,"2017-06-17T14:00:00","ND","ND","ND","ND","28.4","0.3","ND","ND","ND","ND","664","0"],
    [62372,"2017-06-17T15:00:00","6.8","ND","ND","ND","27.0","0.2","ND","ND","ND","ND","664","0"],
    [62373,"2017-06-17T16:00:00","9.9","ND","ND","ND","28.1","0.2","ND","ND","ND","ND","656","0"],
    [62374,"2017-06-17T17:00:00","ND","ND","ND","ND","24.0","0.2","ND","ND","ND","ND","479","0"],
    [62375,"2017-06-17T18:00:00","ND","ND","ND","ND","11.8","0.3","ND","ND","ND","ND","33","0"],
    [62376,"2017-06-17T19:00:00","ND","ND","ND","ND","1.8","1.7","ND","ND","ND","ND","0","0.51"],
    [62377,"2017-06-17T20:00:00","ND","ND","ND","ND","0.3","2.5","ND","ND","ND","ND","0","0"],
    [62378,"2017-06-17T21:00:00","63.2","ND","ND","ND","0.2","1.4","ND","ND","ND","ND","0","0"],
    [62379,"2017-06-17T22:00:00","28.4","ND","ND","ND","0.3","0.6","ND","ND","ND","ND","0","0"],
    [62380,"2017-06-17T23:00:00","17.9","ND","ND","ND","0.1","0.8","ND","ND","ND","ND","0","0"],
    [62381,"2017-06-18T00:00:00","15.9","ND","ND","ND","0.0","1.0","ND","ND","ND","ND","0","0"],
    [62382,"2017-06-18T01:00:00","32.7","ND","ND","ND","0.1","1.2","ND","ND","ND","ND","0","0"],
    [62383,"2017-06-18T02:00:00","40.9","ND","ND","ND","0.0","2.8","ND","ND","ND","ND","0","0"],
    [62384,"2017-06-18T03:00:00","26.9","ND","ND","ND","0.1","2.0","ND","ND","ND","ND","0","0"],
    [62385,"2017-06-18T04:00:00","29.2","ND","ND","ND","0.1","2.8","ND","ND","ND","ND","0","0"],
    [62386,"2017-06-18T05:00:00","38.6","ND","ND","ND","0.0","5.1","ND","ND","ND","ND","0","0"],
    [62387,"2017-06-18T06:00:00","36.3","ND","ND","ND","0.0","2.9","ND","ND","ND","ND","0","0"],
    [62388,"2017-06-18T07:00:00","32.3","ND","ND","ND","0.1","2.2","ND","ND","ND","ND","79","0"],
    [62389,"2017-06-18T08:00:00","39.8","ND","ND","ND","0.8","4.6","ND","ND","ND","ND","381","0"],
    [62390,"2017-06-18T09:00:00","51.7","ND","ND","ND","10.4","3.5","ND","ND","ND","ND","662","0"],
    [62391,"2017-06-18T10:00:00","45","ND","ND","ND","25.6","1.8","ND","ND","ND","ND","663","0"],
    [62392,"2017-06-18T11:00:00","36.9","ND","ND","ND","39.1","1.3","ND","ND","ND","ND","664","0"],
    [62393,"2017-06-18T12:00:00","38.7","ND","ND","ND","55.0","0.6","ND","ND","ND","ND","664","0"],
    [62394,"2017-06-18T13:00:00","39.1","ND","ND","ND","67.4","0.7","ND","ND","ND","ND","664","0"],
    [62395,"2017-06-18T14:00:00","22.6","ND","ND","ND","68.1","0.2","ND","ND","ND","ND","664","0"],
    [62396,"2017-06-18T15:00:00","17","ND","ND","ND","65.0","0.5","ND","ND","ND","ND","603","0"],
    [62397,"2017-06-18T16:00:00","7.3","ND","ND","ND","34.9","0.3","ND","ND","ND","ND","331","0"],
    [62398,"2017-06-18T17:00:00","0.5","ND","ND","ND","17.9","0.3","ND","ND","ND","ND","487","0"],
    [62399,"2017-06-18T18:00:00","ND","ND","ND","ND","16.1","0.3","ND","ND","ND","ND","265","0"],
    [62400,"2017-06-18T19:00:00","ND","ND","ND","ND","5.7","0.2","ND","ND","ND","ND","2","0"],
    [62401,"2017-06-18T20:00:00","2.2","ND","ND","ND","1.3","0.4","ND","ND","ND","ND","0","0"],
    [62402,"2017-06-18T21:00:00","62.7","ND","ND","ND","0.9","0.7","ND","ND","ND","ND","0","0"],
    [62403,"2017-06-18T22:00:00","69","ND","ND","ND","0.7","1.4","ND","ND","ND","ND","0","0"],
    [62404,"2017-06-18T23:00:00","74.3","ND","ND","ND","0.9","0.5","ND","ND","ND","ND","0","0"],
    [62405,"2017-06-19T00:00:00","38.2","ND","ND","ND","2.6","0.6","ND","ND","ND","ND","0","0"],
    [62406,"2017-06-19T01:00:00","26.6","ND","ND","ND","2.2","0.6","ND","ND","ND","ND","0","0.51"],
    [62407,"2017-06-19T02:00:00","29.3","ND","ND","ND","1.9","1.3","ND","ND","ND","ND","0","2.79"],
    [62408,"2017-06-19T03:00:00","27.8","ND","ND","ND","0.8","1.2","ND","ND","ND","ND","0","1.78"],
    [62409,"2017-06-19T04:00:00","16.9","ND","ND","ND","0.9","0.6","ND","ND","ND","ND","0","1.78"],
    [62410,"2017-06-19T05:00:00","1.2","ND","ND","ND","3.9","0.3","ND","ND","ND","ND","0","0.51"],
    [62411,"2017-06-19T06:00:00","0.9","ND","ND","ND","1.9","0.2","ND","ND","ND","ND","0","1.02"],
    [62412,"2017-06-19T07:00:00","8.8","ND","ND","ND","0.1","1.3","ND","ND","ND","ND","35","0"],
    [62413,"2017-06-19T08:00:00","31.7","ND","ND","ND","0.3","1.3","ND","ND","ND","ND","197","0"],
    [62414,"2017-06-19T09:00:00","42.6","ND","ND","ND","2.5","0.7","ND","ND","ND","ND","401","0"],
    [62415,"2017-06-19T10:00:00","18.6","ND","ND","ND","10.7","0.7","ND","ND","ND","ND","648","0"],
    [62416,"2017-06-19T11:00:00","21.5","ND","ND","ND","32.9","0.4","ND","ND","ND","ND","663","0"],
    [62417,"2017-06-19T12:00:00","15","ND","ND","ND","60.1","0.3","ND","ND","ND","ND","664","0"],
    [62418,"2017-06-19T13:00:00","13.1","ND","ND","ND","87.8","0.3","ND","ND","ND","ND","664","0"],
    [62419,"2017-06-19T14:00:00","20.5","ND","ND","ND","100.6","0.1","ND","ND","ND","ND","662","0"],
    [62420,"2017-06-19T15:00:00","19.9","ND","ND","ND","98.6","0.3","ND","ND","ND","ND","664","0"],
    [62421,"2017-06-19T16:00:00","28.6","ND","ND","ND","87.8","0.5","ND","ND","ND","ND","498","0"],
    [62422,"2017-06-19T17:00:00","18.4","ND","ND","ND","25.7","0.1","ND","ND","ND","ND","220","0"],
    [62423,"2017-06-19T18:00:00","6.1","ND","ND","ND","12.0","0.1","ND","ND","ND","ND","132","0"],
    [62424,"2017-06-19T19:00:00","ND","ND","ND","ND","4.0","0.2","ND","ND","ND","ND","3","0"],
    [62425,"2017-06-19T20:00:00","21.9","ND","ND","ND","0.6","0.3","ND","ND","ND","ND","0","0"],
    [62426,"2017-06-19T21:00:00","47.1","ND","ND","ND","0.5","0.4","ND","ND","ND","ND","0","0"],
    [62427,"2017-06-19T22:00:00","43","ND","ND","ND","0.4","0.6","ND","ND","ND","ND","0","0"],
    [62428,"2017-06-19T23:00:00","38.2","ND","ND","ND","0.3","0.6","ND","ND","ND","ND","0","0"],
    [62429,"2017-06-20T00:00:00","34.3","ND","ND","ND","0.3","0.6","ND","ND","ND","ND","0","0"],
    [62430,"2017-06-20T01:00:00","30.9","ND","ND","ND","0.2","0.6","ND","ND","ND","ND","0","0"],
    [62431,"2017-06-20T02:00:00","21.7","ND","ND","ND","0.1","0.5","ND","ND","ND","ND","0","0"],
    [62432,"2017-06-20T03:00:00","27.2","ND","ND","ND","0.2","0.7","ND","ND","ND","ND","0","0"],
    [62433,"2017-06-20T04:00:00","37","ND","ND","ND","0.2","1.6","ND","ND","ND","ND","0","0"],
    [62434,"2017-06-20T05:00:00","35","ND","ND","ND","0.2","2.5","ND","ND","ND","ND","0","0"],
    [62435,"2017-06-20T06:00:00","39.9","ND","ND","ND","2.3","3.0","ND","ND","ND","ND","0","0"],
    [62436,"2017-06-20T07:00:00","52","ND","ND","ND","2.6","2.6","ND","ND","ND","ND","127","0"],
    [62437,"2017-06-20T08:00:00","83","ND","ND","ND","1.1","2.3","ND","ND","ND","ND","586","0"],
    [62438,"2017-06-20T09:00:00","87.5","ND","ND","ND","5.2","1.3","ND","ND","ND","ND","664","0"],
    [62439,"2017-06-20T10:00:00","32.3","ND","ND","ND","16.1","1.1","ND","ND","ND","ND","665","0"],
    [62440,"2017-06-20T11:00:00","44.6","ND","ND","ND","47.3","0.7","ND","ND","ND","ND","667","0"],
    [62441,"2017-06-20T12:00:00","48.1","ND","ND","ND","88.4","0.3","ND","ND","ND","ND","665","0"],
    [62442,"2017-06-20T13:00:00","ND","ND","ND","ND","108.7","0.5","ND","ND","ND","ND","664","0"],
    [62443,"2017-06-20T14:00:00","54.4","ND","ND","ND","99.0","0.4","ND","ND","ND","ND","664","0"],
    [62444,"2017-06-20T15:00:00","169.6","ND","ND","ND","55.6","0.4","ND","ND","ND","ND","663","0"],
    [62445,"2017-06-20T16:00:00","70.5","ND","ND","ND","20.5","0.1","ND","ND","ND","ND","625","0"],
    [62446,"2017-06-20T17:00:00","4.2","ND","ND","ND","16.0","0.2","ND","ND","ND","ND","307","0"],
    [62447,"2017-06-20T18:00:00","ND","ND","ND","ND","14.2","0.1","ND","ND","ND","ND","122","0"],
    [62448,"2017-06-20T19:00:00","ND","ND","ND","ND","6.4","0.2","ND","ND","ND","ND","5","0"],
    [62449,"2017-06-20T20:00:00","65.5","ND","ND","ND","4.3","0.2","ND","ND","ND","ND","0","30.73"],
    [62450,"2017-06-20T21:00:00","165.6","ND","ND","ND","1.4","0.4","ND","ND","ND","ND","0","12.45"],
    [62451,"2017-06-20T22:00:00","99","ND","ND","ND","0.4","0.6","ND","ND","ND","ND","0","2.03"],
    [62452,"2017-06-20T23:00:00","24.3","ND","ND","ND","0.3","0.5","ND","ND","ND","ND","0","4.06"],
    [62453,"2017-06-21T00:00:00","8.5","ND","ND","ND","0.4","0.5","ND","ND","ND","ND","0","2.03"],
    [62454,"2017-06-21T01:00:00","5.2","ND","ND","ND","1.0","0.6","ND","ND","ND","ND","0","3.56"],
    [62455,"2017-06-21T02:00:00","5.2","ND","ND","ND","0.5","0.5","ND","ND","ND","ND","0","0"],
    [62456,"2017-06-21T03:00:00","12.8","ND","ND","ND","0.3","0.5","ND","ND","ND","ND","0","0"],
    [62457,"2017-06-21T04:00:00","18.3","ND","ND","ND","0.2","0.5","ND","ND","ND","ND","0","0"],
    [62458,"2017-06-21T05:00:00","20","ND","ND","ND","0.2","0.6","ND","ND","ND","ND","0","0"],
    [62459,"2017-06-21T06:00:00","13.4","ND","ND","ND","0.2","0.8","ND","ND","ND","ND","0","0"],
    [62460,"2017-06-21T07:00:00","17.2","ND","ND","ND","0.2","1.3","ND","ND","ND","ND","31","0"],
    [62461,"2017-06-21T08:00:00","32.5","ND","ND","ND","0.3","1.1","ND","ND","ND","ND","121","0.25"],
    [62462,"2017-06-21T09:00:00","36","ND","ND","ND","0.7","1.6","ND","ND","ND","ND","402","0"],
    [62463,"2017-06-21T10:00:00","29.3","ND","ND","ND","4.1","1.6","ND","ND","ND","ND","595","0"],
    [62464,"2017-06-21T11:00:00","35.9","ND","ND","ND","18.3","1.3","ND","ND","ND","ND","663","0"],
    [62465,"2017-06-21T12:00:00","40.3","ND","ND","ND","39.1","0.6","ND","ND","ND","ND","664","0"],
    [62466,"2017-06-21T13:00:00","20.3","ND","ND","ND","50.1","0.4","ND","ND","ND","ND","664","0"],
    [62467,"2017-06-21T14:00:00","16.7","ND","ND","ND","63.3","0.5","ND","ND","ND","ND","664","0"],
    [62468,"2017-06-21T15:00:00","32.4","ND","ND","ND","63.6","0.1","ND","ND","ND","ND","597","0"],
    [62469,"2017-06-21T16:00:00","16.2","ND","ND","ND","60.0","0.2","ND","ND","ND","ND","356","0"],
    [62470,"2017-06-21T17:00:00","34.1","ND","ND","ND","20.7","0.4","ND","ND","ND","ND","188","0"],
    [62471,"2017-06-21T18:00:00","25.4","ND","ND","ND","6.2","0.3","ND","ND","ND","ND","125","0"],
    [62472,"2017-06-21T19:00:00","31","ND","ND","ND","1.1","0.5","ND","ND","ND","ND","6","0"],
    [62473,"2017-06-21T20:00:00","69.9","ND","ND","ND","0.7","0.2","ND","ND","ND","ND","0","0"],
    [62474,"2017-06-21T21:00:00","50.3","ND","ND","ND","0.7","0.6","ND","ND","ND","ND","0","0"],
    [62475,"2017-06-21T22:00:00","54.4","ND","ND","ND","0.6","0.3","ND","ND","ND","ND","0","0"],
    [62476,"2017-06-21T23:00:00","58.9","ND","ND","ND","0.2","0.6","ND","ND","ND","ND","0","0"],
    [62477,"2017-06-22T00:00:00","41.4","ND","ND","ND","0.2","0.5","ND","ND","ND","ND","0","0"],
    [62478,"2017-06-22T01:00:00","50.3","ND","ND","ND","0.1","0.8","ND","ND","ND","ND","0","0"],
    [62479,"2017-06-22T02:00:00","29.8","ND","ND","ND","0.3","0.6","ND","ND","ND","ND","0","0"],
    [62480,"2017-06-22T03:00:00","49.2","ND","ND","ND","0.3","0.8","ND","ND","ND","ND","0","0"],
    [62481,"2017-06-22T04:00:00","63.9","ND","ND","ND","0.3","1.1","ND","ND","ND","ND","0","0"],
    [62482,"2017-06-22T05:00:00","58.7","ND","ND","ND","0.2","0.6","ND","ND","ND","ND","0","0"],
    [62483,"2017-06-22T06:00:00","45.5","ND","ND","ND","0.5","1.4","ND","ND","ND","ND","0","0"],
    [62484,"2017-06-22T07:00:00","63.5","ND","ND","ND","0.3","1.6","ND","ND","ND","ND","120","0"],
    [62485,"2017-06-22T08:00:00","82.5","ND","ND","ND","1.1","2.0","ND","ND","ND","ND","374","0"],
    [62486,"2017-06-22T09:00:00","87.2","ND","ND","ND","2.5","2.1","ND","ND","ND","ND","651","0"],
    [62487,"2017-06-22T10:00:00","89","ND","ND","ND","8.1","1.7","ND","ND","ND","ND","665","0"],
    [62488,"2017-06-22T11:00:00","89","ND","ND","ND","29.7","1.3","ND","ND","ND","ND","652","0"],
    [62489,"2017-06-22T12:00:00","11.7","ND","ND","ND","49.8","0.5","ND","ND","ND","ND","664","0"],
    [62490,"2017-06-22T13:00:00","50.7","ND","ND","ND","61.7","0.4","ND","ND","ND","ND","665","0"],
    [62491,"2017-06-22T14:00:00","45.5","ND","ND","ND","71.2","0.3","ND","ND","ND","ND","583","0"],
    [62492,"2017-06-22T15:00:00","36.2","ND","ND","ND","46.7","0.2","ND","ND","ND","ND","476","0"],
    [62493,"2017-06-22T16:00:00","18.1","ND","ND","ND","15.2","0.2","ND","ND","ND","ND","665","0"],
    [62494,"2017-06-22T17:00:00","11.7","ND","ND","ND","16.2","0.2","ND","ND","ND","ND","643","0"],
    [62495,"2017-06-22T18:00:00","1.9","ND","ND","ND","12.4","0.3","ND","ND","ND","ND","231","0"],
    [62496,"2017-06-22T19:00:00","ND","ND","ND","ND","2.4","0.2","ND","ND","ND","ND","11","0"],
    [62497,"2017-06-22T20:00:00","13.1","ND","ND","ND","0.5","0.2","ND","ND","ND","ND","0","0"],
    [62498,"2017-06-22T21:00:00","108.9","ND","ND","ND","0.0","0.1","ND","ND","ND","ND","0","0"],
    [62499,"2017-06-22T22:00:00","108.6","ND","ND","ND","0.0","0.4","ND","ND","ND","ND","0","0"],
    [62500,"2017-06-22T23:00:00","70.3","ND","ND","ND","0.0","0.3","ND","ND","ND","ND","0","0"],
    [62501,"2017-06-23T00:00:00","49.8","ND","ND","ND","0.0","0.3","ND","ND","ND","ND","0","0"],
    [62502,"2017-06-23T01:00:00","46.8","ND","ND","ND","0.5","0.8","ND","ND","ND","ND","0","0"],
    [62503,"2017-06-23T02:00:00","58.7","ND","ND","ND","0.0","0.9","ND","ND","ND","ND","0","0"],
    [62504,"2017-06-23T03:00:00","45.5","ND","ND","ND","0.0","2.1","ND","ND","ND","ND","0","0"],
    [62505,"2017-06-23T04:00:00","40.6","ND","ND","ND","0.1","1.1","ND","ND","ND","ND","0","0"],
    [62506,"2017-06-23T05:00:00","49.1","ND","ND","ND","0.0","1.5","ND","ND","ND","ND","0","0"],
    [62507,"2017-06-23T06:00:00","44.3","ND","ND","ND","0.0","2.4","ND","ND","ND","ND","0","0"],
    [62508,"2017-06-23T07:00:00","55.1","ND","ND","ND","0.0","1.6","ND","ND","ND","ND","64","0"],
    [62509,"2017-06-23T08:00:00","60.8","ND","ND","ND","0.1","1.9","ND","ND","ND","ND","335","0"],
    [62510,"2017-06-23T09:00:00","98","ND","ND","ND","2.3","2.7","ND","ND","ND","ND","663","0"],
    [62511,"2017-06-23T10:00:00","73.9","ND","ND","ND","9.0","1.7","ND","ND","ND","ND","664","0"],
    [62512,"2017-06-23T11:00:00","ND","ND","ND","ND","ND","ND","ND","ND","ND","ND","ND","ND"],
    [62513,"2017-06-23T12:00:00","ND","ND","ND","ND","ND","ND","ND","ND","ND","ND","ND","ND"],
    [62514,"2017-06-23T13:00:00","29.3","ND","ND","ND","54.5","0.3","ND","ND","ND","ND","659","0"],
    [62515,"2017-06-23T14:00:00","24","ND","ND","ND","60.4","0.3","ND","ND","ND","ND","664","0"],
    [62516,"2017-06-23T15:00:00","12.7","ND","ND","ND","56.3","0.2","ND","ND","ND","ND","664","0"],
    [62517,"2017-06-23T16:00:00","15.4","ND","ND","ND","52.7","0.4","ND","ND","ND","ND","554","0"],
    [62518,"2017-06-23T17:00:00","26.3","ND","ND","ND","31.6","0.2","ND","ND","ND","ND","653","0"],
    [62519,"2017-06-23T18:00:00","11.4","ND","ND","ND","18.8","0.1","ND","ND","ND","ND","270","0"],
    [62520,"2017-06-23T19:00:00","ND","ND","ND","ND","4.5","0.1","ND","ND","ND","ND","7","0"],
    [62521,"2017-06-23T20:00:00","ND","ND","ND","ND","1.7","0.3","ND","ND","ND","ND","0","0"],
    [62522,"2017-06-23T21:00:00","10.5","ND","ND","ND","0.7","0.5","ND","ND","ND","ND","0","0"],
    [62523,"2017-06-23T22:00:00","75.2","ND","ND","ND","0.2","0.4","ND","ND","ND","ND","0","0"],
    [62524,"2017-06-23T23:00:00","97.7","ND","ND","ND","0.0","0.7","ND","ND","ND","ND","0","0"],
    [62525,"2017-06-24T00:00:00","50.7","ND","ND","ND","0.0","0.9","ND","ND","ND","ND","0","0"],
    [62526,"2017-06-24T01:00:00","66.8","ND","ND","ND","0.0","0.7","ND","ND","ND","ND","0","0"],
    [62527,"2017-06-24T02:00:00","42.5","ND","ND","ND","0.0","0.6","ND","ND","ND","ND","0","0"],
    [62528,"2017-06-24T03:00:00","38.7","ND","ND","ND","0.0","0.7","ND","ND","ND","ND","0","0"],
    [62529,"2017-06-24T04:00:00","52.7","ND","ND","ND","0.0","1.8","ND","ND","ND","ND","0","0"],
    [62530,"2017-06-24T05:00:00","57.3","ND","ND","ND","0.0","2.6","ND","ND","ND","ND","0","0"],
    [62531,"2017-06-24T06:00:00","59.3","ND","ND","ND","0.0","1.4","ND","ND","ND","ND","0","0"],
    [62532,"2017-06-24T07:00:00","72","ND","ND","ND","16.2","3.4","ND","ND","ND","ND","113","0"],
    [62533,"2017-06-24T08:00:00","106.3","ND","ND","ND","0.8","7.7","ND","ND","ND","ND","379","0"],
    [62534,"2017-06-24T09:00:00","96.8","ND","ND","ND","14.0","6.0","ND","ND","ND","ND","657","0"],
    [62535,"2017-06-24T10:00:00","74.4","ND","ND","ND","47.0","2.3","ND","ND","ND","ND","664","0"],
    [62536,"2017-06-24T11:00:00","66.8","ND","ND","ND","92.1","0.9","ND","ND","ND","ND","655","0"],
    [62537,"2017-06-24T12:00:00","41.4","ND","ND","ND","119.0","0.7","ND","ND","ND","ND","662","0"],
    [62538,"2017-06-24T13:00:00","15.2","ND","ND","ND","131.1","0.3","ND","ND","ND","ND","664","0"],
    [62539,"2017-06-24T14:00:00","63.6","ND","ND","ND","144.7","0.5","ND","ND","ND","ND","664","0"],
    [62540,"2017-06-24T15:00:00","45.5","ND","ND","ND","55.8","0.1","ND","ND","ND","ND","654","0"],
    [62541,"2017-06-24T16:00:00","16.9","ND","ND","ND","36.1","0.2","ND","ND","ND","ND","664","0"],
    [62542,"2017-06-24T17:00:00","2.6","ND","ND","ND","26.8","0.2","ND","ND","ND","ND","558","0"],
    [62543,"2017-06-24T18:00:00","ND","ND","ND","ND","21.3","0.2","ND","ND","ND","ND","317","0"],
    [62544,"2017-06-24T19:00:00","ND","ND","ND","ND","10.7","0.3","ND","ND","ND","ND","6","0"],
    [62545,"2017-06-24T20:00:00","26","ND","ND","ND","7.7","0.2","ND","ND","ND","ND","0","0"],
    [62546,"2017-06-24T21:00:00","42","ND","ND","ND","2.1","0.2","ND","ND","ND","ND","0","0"],
    [62547,"2017-06-24T22:00:00","61.6","ND","ND","ND","7.2","0.4","ND","ND","ND","ND","0","0"],
    [62548,"2017-06-24T23:00:00","26.5","ND","ND","ND","2.4","0.3","ND","ND","ND","ND","0","0"],
    [62549,"2017-06-25T00:00:00","18.9","ND","ND","ND","0.0","0.4","ND","ND","ND","ND","0","0"],
    [62550,"2017-06-25T01:00:00","23.9","ND","ND","ND","0.0","0.3","ND","ND","ND","ND","0","0"],
    [62551,"2017-06-25T02:00:00","16.5","ND","ND","ND","0.0","0.9","ND","ND","ND","ND","0","0"],
    [62552,"2017-06-25T03:00:00","32.8","ND","ND","ND","0.0","1.4","ND","ND","ND","ND","0","0"],
    [62553,"2017-06-25T04:00:00","35.9","ND","ND","ND","0.0","0.6","ND","ND","ND","ND","0","0"],
    [62554,"2017-06-25T05:00:00","33.5","ND","ND","ND","0.0","1.0","ND","ND","ND","ND","0","0"],
    [62555,"2017-06-25T06:00:00","32.2","ND","ND","ND","0.3","0.8","ND","ND","ND","ND","0","0"],
    [62556,"2017-06-25T07:00:00","29.4","ND","ND","ND","0.2","0.5","ND","ND","ND","ND","79","0"],
    [62557,"2017-06-25T08:00:00","31.8","ND","ND","ND","1.8","0.6","ND","ND","ND","ND","350","0"],
    [62558,"2017-06-25T09:00:00","36.7","ND","ND","ND","8.7","0.7","ND","ND","ND","ND","561","0"],
    [62559,"2017-06-25T10:00:00","34.4","ND","ND","ND","21.5","0.5","ND","ND","ND","ND","658","0"],
    [62560,"2017-06-25T11:00:00","25.5","ND","ND","ND","35.7","0.6","ND","ND","ND","ND","664","0"],
    [62561,"2017-06-25T12:00:00","30.1","ND","ND","ND","60.6","0.6","ND","ND","ND","ND","664","0"],
    [62562,"2017-06-25T13:00:00","28.1","ND","ND","ND","72.9","0.3","ND","ND","ND","ND","664","0"],
    [62563,"2017-06-25T14:00:00","28.4","ND","ND","ND","57.7","0.6","ND","ND","ND","ND","664","0"],
    [62564,"2017-06-25T15:00:00","22.3","ND","ND","ND","51.3","0.3","ND","ND","ND","ND","664","0"],
    [62565,"2017-06-25T16:00:00","9.6","ND","ND","ND","32.8","0.3","ND","ND","ND","ND","663","0"],
    [62566,"2017-06-25T17:00:00","ND","ND","ND","ND","23.6","0.2","ND","ND","ND","ND","552","0"],
    [62567,"2017-06-25T18:00:00","ND","ND","ND","ND","18.5","0.3","ND","ND","ND","ND","115","0"],
    [62568,"2017-06-25T19:00:00","ND","ND","ND","ND","11.2","0.3","ND","ND","ND","ND","0","0"],
    [62569,"2017-06-25T20:00:00","1.9","ND","ND","ND","11.1","0.4","ND","ND","ND","ND","0","0"],
    [62570,"2017-06-25T21:00:00","30.1","ND","ND","ND","0.4","0.4","ND","ND","ND","ND","0","0"],
    [62571,"2017-06-25T22:00:00","27.5","ND","ND","ND","0.3","0.4","ND","ND","ND","ND","0","0"],
    [62572,"2017-06-25T23:00:00","44.2","ND","ND","ND","0.3","1.3","ND","ND","ND","ND","0","0"],
    [62573,"2017-06-26T00:00:00","49.3","ND","ND","ND","0.1","1.5","ND","ND","ND","ND","0","0"],
    [62574,"2017-06-26T01:00:00","49.8","ND","ND","ND","0.0","1.0","ND","ND","ND","ND","0","0"],
    [62575,"2017-06-26T02:00:00","25.7","ND","ND","ND","0.4","0.8","ND","ND","ND","ND","0","1.02"],
    [62576,"2017-06-26T03:00:00","40.4","ND","ND","ND","0.1","0.4","ND","ND","ND","ND","0","4.32"],
    [62577,"2017-06-26T04:00:00","40.1","ND","ND","ND","0.0","1.1","ND","ND","ND","ND","0","0"],
    [62578,"2017-06-26T05:00:00","19.5","ND","ND","ND","0.0","0.8","ND","ND","ND","ND","0","0"],
    [62579,"2017-06-26T06:00:00","19.4","ND","ND","ND","0.0","0.7","ND","ND","ND","ND","0","0.25"],
    [62580,"2017-06-26T07:00:00","26.2","ND","ND","ND","0.0","0.9","ND","ND","ND","ND","127","0.25"],
    [62581,"2017-06-26T08:00:00","49.4","ND","ND","ND","0.0","1.4","ND","ND","ND","ND","292","0"],
    [62582,"2017-06-26T09:00:00","47.3","ND","ND","ND","1.8","1.7","ND","ND","ND","ND","617","0.25"],
    [62583,"2017-06-26T10:00:00","43.4","ND","ND","ND","20.3","0.9","ND","ND","ND","ND","664","0"],
    [62584,"2017-06-26T11:00:00","34.8","ND","ND","ND","44.5","0.6","ND","ND","ND","ND","667","0"],
    [62585,"2017-06-26T12:00:00","59.2","ND","ND","ND","73.7","0.3","ND","ND","ND","ND","667","0"],
    [62586,"2017-06-26T13:00:00","14.3","ND","ND","ND","81.3","0.3","ND","ND","ND","ND","665","0"],
    [62587,"2017-06-26T14:00:00","0.2","ND","ND","ND","85.6","0.2","ND","ND","ND","ND","664","0"],
    [62588,"2017-06-26T15:00:00","48","ND","ND","ND","74.1","0.4","ND","ND","ND","ND","531","0"],
    [62589,"2017-06-26T16:00:00","93.6","ND","ND","ND","28.8","0.2","ND","ND","ND","ND","552","0"],
    [62590,"2017-06-26T17:00:00","48.2","ND","ND","ND","29.5","0.3","ND","ND","ND","ND","668","0"],
    [62591,"2017-06-26T18:00:00","34","ND","ND","ND","25.2","0.2","ND","ND","ND","ND","208","0"],
    [62592,"2017-06-26T19:00:00","ND","ND","ND","ND","11.3","0.3","ND","ND","ND","ND","0","0"],
    [62593,"2017-06-26T20:00:00","59.3","ND","ND","ND","2.1","0.4","ND","ND","ND","ND","0","0"],
    [62594,"2017-06-26T21:00:00","227.4","ND","ND","ND","2.7","0.6","ND","ND","ND","ND","0","0"],
    [62595,"2017-06-26T22:00:00","177.3","ND","ND","ND","0.2","0.4","ND","ND","ND","ND","0","0"],
    [62596,"2017-06-26T23:00:00","81.2","ND","ND","ND","1.4","1.4","ND","ND","ND","ND","0","0"],
    [62597,"2017-06-27T00:00:00","37.1","ND","ND","ND","1.3","1.0","ND","ND","ND","ND","0","0"],
    [62598,"2017-06-27T01:00:00","25.8","ND","ND","ND","2.0","0.5","ND","ND","ND","ND","0","0"],
    [62599,"2017-06-27T02:00:00","31.8","ND","ND","ND","12.8","0.3","ND","ND","ND","ND","0","0"],
    [62600,"2017-06-27T03:00:00","38.4","ND","ND","ND","7.8","0.3","ND","ND","ND","ND","0","0"],
    [62601,"2017-06-27T04:00:00","28.7","ND","ND","ND","2.5","0.5","ND","ND","ND","ND","0","0"],
    [62602,"2017-06-27T05:00:00","16.1","ND","ND","ND","3.3","0.3","ND","ND","ND","ND","0","0"],
    [62603,"2017-06-27T06:00:00","10","ND","ND","ND","0.1","0.3","ND","ND","ND","ND","0","0"],
    [62604,"2017-06-27T07:00:00","10.4","ND","ND","ND","0.0","0.2","ND","ND","ND","ND","141","0"],
    [62605,"2017-06-27T08:00:00","18.6","ND","ND","ND","0.1","0.4","ND","ND","ND","ND","312","0"],
    [62606,"2017-06-27T09:00:00","21.6","ND","ND","ND","0.0","0.9","ND","ND","ND","ND","189","0"],
    [62607,"2017-06-27T10:00:00","37.2","ND","ND","ND","2.0","0.7","ND","ND","ND","ND","488","0"],
    [62608,"2017-06-27T11:00:00","31.8","ND","ND","ND","ND","0.7","ND","ND","ND","ND","664","0"],
    [62609,"2017-06-27T12:00:00","34","ND","ND","ND","70.1","0.8","ND","ND","ND","ND","663","0"],
    [62610,"2017-06-27T13:00:00","19.4","ND","ND","ND","34.1","0.3","ND","ND","ND","ND","652","0"],
    [62611,"2017-06-27T14:00:00","10.3","ND","ND","ND","34.8","0.3","ND","ND","ND","ND","572","0"],
    [62612,"2017-06-27T15:00:00","28.7","ND","ND","ND","30.7","0.6","ND","ND","ND","ND","586","0"],
    [62613,"2017-06-27T16:00:00","36.4","ND","ND","ND","31.7","0.2","ND","ND","ND","ND","644","0"],
    [62614,"2017-06-27T17:00:00","28.1","ND","ND","ND","26.1","0.3","ND","ND","ND","ND","488","0"],
    [62615,"2017-06-27T18:00:00","15.3","ND","ND","ND","14.6","0.2","ND","ND","ND","ND","169","0"],
    [62616,"2017-06-27T19:00:00","ND","ND","ND","ND","2.5","0.3","ND","ND","ND","ND","4","0"],
    [62617,"2017-06-27T20:00:00","42.1","ND","ND","ND","0.4","0.2","ND","ND","ND","ND","0","0"],
    [62618,"2017-06-27T21:00:00","82.9","ND","ND","ND","0.2","0.2","ND","ND","ND","ND","0","0"],
    [62619,"2017-06-27T22:00:00","69.7","ND","ND","ND","0.1","0.5","ND","ND","ND","ND","0","0"],
    [62620,"2017-06-27T23:00:00","54.9","ND","ND","ND","0.1","0.5","ND","ND","ND","ND","0","0"],
    [62621,"2017-06-28T00:00:00","45.9","ND","ND","ND","0.0","0.6","ND","ND","ND","ND","0","0"],
    [62622,"2017-06-28T01:00:00","38.1","ND","ND","ND","0.0","0.6","ND","ND","ND","ND","0","0"],
    [62623,"2017-06-28T02:00:00","35","ND","ND","ND","0.0","0.6","ND","ND","ND","ND","0","0"],
    [62624,"2017-06-28T03:00:00","38.1","ND","ND","ND","0.0","1.4","ND","ND","ND","ND","0","0"],
    [62625,"2017-06-28T04:00:00","47.2","ND","ND","ND","0.3","0.7","ND","ND","ND","ND","0","0"],
    [62626,"2017-06-28T05:00:00","47.5","ND","ND","ND","0.1","2.7","ND","ND","ND","ND","0","0"],
    [62627,"2017-06-28T06:00:00","54.2","ND","ND","ND","0.0","1.3","ND","ND","ND","ND","0","0"],
    [62628,"2017-06-28T07:00:00","82.4","ND","ND","ND","0.1","1.4","ND","ND","ND","ND","42","0"],
    [62629,"2017-06-28T08:00:00","99.1","ND","ND","ND","0.2","1.4","ND","ND","ND","ND","163","0"],
    [62630,"2017-06-28T09:00:00","106.4","ND","ND","ND","0.1","1.7","ND","ND","ND","ND","385","0"],
    [62631,"2017-06-28T10:00:00","88.6","ND","ND","ND","3.1","1.6","ND","ND","ND","ND","640","0"],
    [62632,"2017-06-28T11:00:00","28.6","ND","ND","ND","22.6","0.9","ND","ND","ND","ND","664","0"],
    [62633,"2017-06-28T12:00:00","12.9","ND","ND","ND","41.4","0.6","ND","ND","ND","ND","664","0"],
    [62634,"2017-06-28T13:00:00","41.7","ND","ND","ND","46.3","0.5","ND","ND","ND","ND","664","0"],
    [62635,"2017-06-28T14:00:00","41.2","ND","ND","ND","52.7","0.3","ND","ND","ND","ND","581","0"],
    [62636,"2017-06-28T15:00:00","29.4","ND","ND","ND","49.0","0.2","ND","ND","ND","ND","622","0"],
    [62637,"2017-06-28T16:00:00","18","ND","ND","ND","35.2","0.3","ND","ND","ND","ND","527","0"],
    [62638,"2017-06-28T17:00:00","12.7","ND","ND","ND","16.8","0.4","ND","ND","ND","ND","284","0"],
    [62639,"2017-06-28T18:00:00","8.5","ND","ND","ND","8.0","0.2","ND","ND","ND","ND","164","0"],
    [62640,"2017-06-28T19:00:00","12.8","ND","ND","ND","2.0","0.2","ND","ND","ND","ND","4","0"],
    [62641,"2017-06-28T20:00:00","2.7","ND","ND","ND","0.1","0.4","ND","ND","ND","ND","0","0"],
    [62642,"2017-06-28T21:00:00","46.5","ND","ND","ND","0.1","0.4","ND","ND","ND","ND","0","0"],
    [62643,"2017-06-28T22:00:00","60.9","ND","ND","ND","0.2","0.6","ND","ND","ND","ND","0","0"],
    [62644,"2017-06-28T23:00:00","70.6","ND","ND","ND","0.2","0.7","ND","ND","ND","ND","0","0"],
    [62645,"2017-06-29T00:00:00","43.9","ND","ND","ND","0.0","0.3","ND","ND","ND","ND","0","0"],
    [62646,"2017-06-29T01:00:00","41.4","ND","ND","ND","0.0","0.8","ND","ND","ND","ND","0","0"],
    [62647,"2017-06-29T02:00:00","33.2","ND","ND","ND","0.2","1.5","ND","ND","ND","ND","0","0"],
    [62648,"2017-06-29T03:00:00","33.2","ND","ND","ND","0.0","2.3","ND","ND","ND","ND","0","0"],
    [62649,"2017-06-29T04:00:00","34.6","ND","ND","ND","0.0","2.8","ND","ND","ND","ND","0","0"],
    [62650,"2017-06-29T05:00:00","41.7","ND","ND","ND","0.0","1.9","ND","ND","ND","ND","0","0"],
    [62651,"2017-06-29T06:00:00","49.4","ND","ND","ND","0.6","2.4","ND","ND","ND","ND","0","0"],
    [62652,"2017-06-29T07:00:00","54.7","ND","ND","ND","0.3","2.0","ND","ND","ND","ND","49","0"],
    [62653,"2017-06-29T08:00:00","80.5","ND","ND","ND","0.1","1.8","ND","ND","ND","ND","333","0"],
    [62654,"2017-06-29T09:00:00","67.4","ND","ND","ND","4.8","1.0","ND","ND","ND","ND","657","0"],
    [62655,"2017-06-29T10:00:00","50.2","ND","ND","ND","38.3","1.0","ND","ND","ND","ND","664","0"],
    [62656,"2017-06-29T11:00:00","35.2","ND","ND","ND","66.1","0.4","ND","ND","ND","ND","664","0"],
    [62657,"2017-06-29T12:00:00","37.7","ND","ND","ND","88.2","0.2","ND","ND","ND","ND","664","0"],
    [62658,"2017-06-29T13:00:00","33.5","ND","ND","ND","104.3","0.3","ND","ND","ND","ND","666","0"],
    [62659,"2017-06-29T14:00:00","76.4","ND","ND","ND","116.2","0.4","ND","ND","ND","ND","661","0"],
    [62660,"2017-06-29T15:00:00","27.7","ND","ND","ND","89.4","0.3","ND","ND","ND","ND","561","0"],
    [62661,"2017-06-29T16:00:00","5.2","ND","ND","ND","62.7","0.1","ND","ND","ND","ND","659","0"],
    [62662,"2017-06-29T17:00:00","40.4","ND","ND","ND","23.0","0.3","ND","ND","ND","ND","432","0"],
    [62663,"2017-06-29T18:00:00","10.9","ND","ND","ND","16.2","0.3","ND","ND","ND","ND","26","0"],
    [62664,"2017-06-29T19:00:00","1.1","ND","ND","ND","2.3","0.3","ND","ND","ND","ND","0","0"],
    [62665,"2017-06-29T20:00:00","23.4","ND","ND","ND","1.7","0.5","ND","ND","ND","ND","0","0"],
    [62666,"2017-06-29T21:00:00","44.3","ND","ND","ND","0.5","0.7","ND","ND","ND","ND","0","0"],
    [62667,"2017-06-29T22:00:00","51","ND","ND","ND","0.3","0.8","ND","ND","ND","ND","0","0"],
    [62668,"2017-06-29T23:00:00","39.9","ND","ND","ND","0.0","1.9","ND","ND","ND","ND","0","0"],
    [62669,"2017-06-30T00:00:00","17.2","ND","ND","ND","0.1","0.4","ND","ND","ND","ND","0","0"],
    [62670,"2017-06-30T01:00:00","41.7","ND","ND","ND","0.0","0.7","ND","ND","ND","ND","0","0"],
    [62671,"2017-06-30T02:00:00","19.7","ND","ND","ND","0.1","0.7","ND","ND","ND","ND","0","0"],
    [62672,"2017-06-30T03:00:00","31.8","ND","ND","ND","0.0","0.5","ND","ND","ND","ND","0","0"],
    [62673,"2017-06-30T04:00:00","45.1","ND","ND","ND","0.0","1.2","ND","ND","ND","ND","0","0"],
    [62674,"2017-06-30T05:00:00","44.1","ND","ND","ND","0.0","1.2","ND","ND","ND","ND","0","0"],
    [62675,"2017-06-30T06:00:00","40.5","ND","ND","ND","0.0","0.7","ND","ND","ND","ND","0","0"],
    [62676,"2017-06-30T07:00:00","12.6","ND","ND","ND","0.0","0.1","ND","ND","ND","ND","71","0"],
    [62677,"2017-06-30T08:00:00","27.1","ND","ND","ND","0.1","0.8","ND","ND","ND","ND","424","0"],
    [62678,"2017-06-30T09:00:00","69.4","ND","ND","ND","1.8","3.1","ND","ND","ND","ND","664","0"],
    [62679,"2017-06-30T10:00:00","36.2","ND","ND","ND","16.3","0.8","ND","ND","ND","ND","578","0"],
    [62680,"2017-06-30T11:00:00","8.1","ND","ND","ND","50.3","0.5","ND","ND","ND","ND","648","0"],
    [62681,"2017-06-30T12:00:00","24.2","ND","ND","ND","74.2","0.2","ND","ND","ND","ND","644","0"],
    [62682,"2017-06-30T13:00:00","23.2","ND","ND","ND","81.7","0.2","ND","ND","ND","ND","664","0"],
    [62683,"2017-06-30T14:00:00","21","ND","ND","ND","74.0","0.3","ND","ND","ND","ND","594","0"],
    [62684,"2017-06-30T15:00:00","25.8","ND","ND","ND","70.6","0.3","ND","ND","ND","ND","664","0"],
    [62685,"2017-06-30T16:00:00","26.2","ND","ND","ND","65.7","0.3","ND","ND","ND","ND","665","0"],
    [62686,"2017-06-30T17:00:00","41.2","ND","ND","ND","65.4","0.2","ND","ND","ND","ND","652","0"],
    [62687,"2017-06-30T18:00:00","17.5","ND","ND","ND","48.3","0.3","ND","ND","ND","ND","233","0"],
    [62688,"2017-06-30T19:00:00","32","ND","ND","ND","8.8","0.6","ND","ND","ND","ND","8","0"],
    [62689,"2017-06-30T20:00:00","36","ND","ND","ND","1.0","1.2","ND","ND","ND","ND","0","0"],
    [62690,"2017-06-30T21:00:00","63.6","ND","ND","ND","0.8","1.0","ND","ND","ND","ND","0","0"],
    [62691,"2017-06-30T22:00:00","76.3","ND","ND","ND","0.9","0.8","ND","ND","ND","ND","0","0"],
    [62692,"2017-06-30T23:00:00","75.6","ND","ND","ND","0.8","1.0","ND","ND","ND","ND","0","0"],
    [62693,"2017-07-01T00:00:00","78.9","ND","ND","ND","0.2","0.9","ND","ND","ND","ND","0","0"],
    [62694,"2017-07-01T01:00:00","66.3","ND","ND","ND","0.6","0.7","ND","ND","ND","ND","0","0"],
    [62695,"2017-07-01T02:00:00","41.8","ND","ND","ND","0.1","0.3","ND","ND","ND","ND","0","0"],
    [62696,"2017-07-01T03:00:00","33.6","ND","ND","ND","0.1","0.4","ND","ND","ND","ND","0","0"],
    [62697,"2017-07-01T04:00:00","33.6","ND","ND","ND","0.0","0.4","ND","ND","ND","ND","0","0"],
    [62698,"2017-07-01T05:00:00","44.8","ND","ND","ND","0.0","0.4","ND","ND","ND","ND","0","0"],
    [62699,"2017-07-01T06:00:00","49.3","ND","ND","ND","0.0","0.7","ND","ND","ND","ND","0","0"],
    [62700,"2017-07-01T07:00:00","126.3","ND","ND","ND","0.1","2.2","ND","ND","ND","ND","77","0"],
    [62701,"2017-07-01T08:00:00","93.3","ND","ND","ND","1.3","2.4","ND","ND","ND","ND","350","0"],
    [62702,"2017-07-01T09:00:00","99.4","ND","ND","ND","7.9","1.7","ND","ND","ND","ND","513","0"],
    [62703,"2017-07-01T10:00:00","87.3","ND","ND","ND","37.8","1.3","ND","ND","ND","ND","668","0"],
    [62704,"2017-07-01T11:00:00","83","ND","ND","ND","65.8","0.8","ND","ND","ND","ND","670","0"],
    [62705,"2017-07-01T12:00:00","84.1","ND","ND","ND","107.9","0.7","ND","ND","ND","ND","671","0"],
    [62706,"2017-07-01T13:00:00","67.8","ND","ND","ND","119.1","ND","ND","ND","ND","ND","670","0"],
    [62707,"2017-07-01T14:00:00","53.8","ND","ND","ND","108.1","ND","ND","ND","ND","ND","672","0"],
    [62708,"2017-07-01T15:00:00","56.3","ND","ND","ND","99.9","ND","ND","ND","ND","ND","673","0"],
    [62709,"2017-07-01T16:00:00","68.6","ND","ND","ND","97.2","ND","ND","ND","ND","ND","658","0"],
    [62710,"2017-07-01T17:00:00","22.5","ND","ND","ND","52.2","0.2","ND","ND","ND","ND","588","0"],
    [62711,"2017-07-01T18:00:00","ND","ND","ND","ND","36.2","0.0","ND","ND","ND","ND","242","0"],
    [62712,"2017-07-01T19:00:00","ND","ND","ND","ND","13.3","0.3","ND","ND","ND","ND","0","0"],
    [62713,"2017-07-01T20:00:00","152.6","ND","ND","ND","15.7","0.2","ND","ND","ND","ND","0","0"],
    [62714,"2017-07-01T21:00:00","ND","ND","ND","ND","0.8","0.7","ND","ND","ND","ND","0","0"],
    [62715,"2017-07-01T22:00:00","152.6","ND","ND","ND","0.3","2.1","ND","ND","ND","ND","0","0"],
    [62716,"2017-07-01T23:00:00","92.8","ND","ND","ND","0.2","0.4","ND","ND","ND","ND","0","0"],
    [62717,"2017-07-02T00:00:00","64.6","ND","ND","ND","0.1","0.7","ND","ND","ND","ND","0","0"],
    [62718,"2017-07-02T01:00:00","46.5","ND","ND","ND","0.1","0.4","ND","ND","ND","ND","0","0"],
    [62719,"2017-07-02T02:00:00","36.4","ND","ND","ND","0.0","2.2","ND","ND","ND","ND","0","0"],
    [62720,"2017-07-02T03:00:00","46.7","ND","ND","ND","0.1","1.4","ND","ND","ND","ND","0","0"],
    [62721,"2017-07-02T04:00:00","44.1","ND","ND","ND","0.0","1.5","ND","ND","ND","ND","0","0"],
    [62722,"2017-07-02T05:00:00","39.9","ND","ND","ND","0.0","1.7","ND","ND","ND","ND","0","0"],
    [62723,"2017-07-02T06:00:00","45","ND","ND","ND","0.0","1.0","ND","ND","ND","ND","0","0"],
    [62724,"2017-07-02T07:00:00","46","ND","ND","ND","0.1","0.6","ND","ND","ND","ND","121","0"],
    [62725,"2017-07-02T08:00:00","39.4","ND","ND","ND","1.1","1.2","ND","ND","ND","ND","366","0"],
    [62726,"2017-07-02T09:00:00","45.4","ND","ND","ND","11.1","1.2","ND","ND","ND","ND","553","0"],
    [62727,"2017-07-02T10:00:00","25.2","ND","ND","ND","31.0","0.5","ND","ND","ND","ND","657","0"],
    [62728,"2017-07-02T11:00:00","51","ND","ND","ND","56.7","0.4","ND","ND","ND","ND","664","0"],
    [62729,"2017-07-02T12:00:00","28.7","ND","ND","ND","66.2","0.4","ND","ND","ND","ND","664","0"],
    [62730,"2017-07-02T13:00:00","5.9","ND","ND","ND","70.6","0.3","ND","ND","ND","ND","664","0"],
    [62731,"2017-07-02T14:00:00","8.8","ND","ND","ND","67.1","0.2","ND","ND","ND","ND","663","0"],
    [62732,"2017-07-02T15:00:00","16.8","ND","ND","ND","87.9","0.3","ND","ND","ND","ND","646","0"],
    [62733,"2017-07-02T16:00:00","33.9","ND","ND","ND","83.4","0.4","ND","ND","ND","ND","653","0"],
    [62734,"2017-07-02T17:00:00","24.1","ND","ND","ND","58.8","0.1","ND","ND","ND","ND","405","0"],
    [62735,"2017-07-02T18:00:00","5.3","ND","ND","ND","35.8","0.4","ND","ND","ND","ND","128","0"],
    [62736,"2017-07-02T19:00:00","13.4","ND","ND","ND","22.0","0.3","ND","ND","ND","ND","8","0"],
    [62737,"2017-07-02T20:00:00","13.4","ND","ND","ND","18.3","0.3","ND","ND","ND","ND","0","0"],
    [62738,"2017-07-02T21:00:00","ND","ND","ND","ND","6.7","0.6","ND","ND","ND","ND","0","0"],
    [62739,"2017-07-02T22:00:00","38.8","ND","ND","ND","0.1","0.9","ND","ND","ND","ND","0","0"],
    [62740,"2017-07-02T23:00:00","76.6","ND","ND","ND","0.0","0.8","ND","ND","ND","ND","0","0"],
    [62741,"2017-07-03T00:00:00","30.7","ND","ND","ND","0.0","0.8","ND","ND","ND","ND","0","0"],
    [62742,"2017-07-03T01:00:00","24.1","ND","ND","ND","0.0","0.8","ND","ND","ND","ND","0","0"],
    [62743,"2017-07-03T02:00:00","36.5","ND","ND","ND","0.1","1.2","ND","ND","ND","ND","0","0"],
    [62744,"2017-07-03T03:00:00","40.7","ND","ND","ND","0.2","1.2","ND","ND","ND","ND","0","0"],
    [62745,"2017-07-03T04:00:00","34.5","ND","ND","ND","0.4","2.3","ND","ND","ND","ND","0","0"],
    [62746,"2017-07-03T05:00:00","37.3","ND","ND","ND","0.1","1.5","ND","ND","ND","ND","0","0"],
    [62747,"2017-07-03T06:00:00","29.5","ND","ND","ND","0.0","0.9","ND","ND","ND","ND","0","0"],
    [62748,"2017-07-03T07:00:00","27.7","ND","ND","ND","0.0","1.2","ND","ND","ND","ND","116","0"],
    [62749,"2017-07-03T08:00:00","52.5","ND","ND","ND","5.0","1.6","ND","ND","ND","ND","565","0"],
    [62750,"2017-07-03T09:00:00","54.3","ND","ND","ND","14.2","1.6","ND","ND","ND","ND","663","0"],
    [62751,"2017-07-03T10:00:00","48.7","ND","ND","ND","41.0","1.0","ND","ND","ND","ND","664","0"],
    [62752,"2017-07-03T11:00:00","52","ND","ND","ND","62.3","0.7","ND","ND","ND","ND","665","0"],
    [62753,"2017-07-03T12:00:00","32.2","ND","ND","ND","76.5","0.5","ND","ND","ND","ND","665","0"],
    [62754,"2017-07-03T13:00:00","16.5","ND","ND","ND","84.8","0.4","ND","ND","ND","ND","660","0"],
    [62755,"2017-07-03T14:00:00","33.3","ND","ND","ND","58.8","0.5","ND","ND","ND","ND","649","0"],
    [62756,"2017-07-03T15:00:00","27.7","ND","ND","ND","43.4","0.2","ND","ND","ND","ND","653","0"],
    [62757,"2017-07-03T16:00:00","11.1","ND","ND","ND","29.5","0.2","ND","ND","ND","ND","174","0"],
    [62758,"2017-07-03T17:00:00","ND","ND","ND","ND","24.4","0.5","ND","ND","ND","ND","297","0"],
    [62759,"2017-07-03T18:00:00","16.9","ND","ND","ND","20.4","0.1","ND","ND","ND","ND","250","0"],
    [62760,"2017-07-03T19:00:00","3.9","ND","ND","ND","24.5","0.3","ND","ND","ND","ND","0","0"],
    [62761,"2017-07-03T20:00:00","4.7","ND","ND","ND","5.7","0.3","ND","ND","ND","ND","0","0"],
    [62762,"2017-07-03T21:00:00","28.2","ND","ND","ND","3.0","0.6","ND","ND","ND","ND","0","0"],
    [62763,"2017-07-03T22:00:00","46.4","ND","ND","ND","0.4","ND","ND","ND","ND","ND","0","0"],
    [62764,"2017-07-03T23:00:00","37.3","ND","ND","ND","0.3","ND","ND","ND","ND","ND","0","0"],
    [62765,"2017-07-04T00:00:00","21.5","ND","ND","ND","0.1","ND","ND","ND","ND","ND","0","0"],
    [62766,"2017-07-04T01:00:00","16","ND","ND","ND","0.3","ND","ND","ND","ND","ND","0","0"],
    [62767,"2017-07-04T02:00:00","14.1","ND","ND","ND","0.1","ND","ND","ND","ND","ND","0","0"],
    [62768,"2017-07-04T03:00:00","42.2","ND","ND","ND","0.0","ND","ND","ND","ND","ND","0","0"],
    [62769,"2017-07-04T04:00:00","52.4","ND","ND","ND","0.2","ND","ND","ND","ND","ND","0","0"],
    [62770,"2017-07-04T05:00:00","65.5","ND","ND","ND","0.1","ND","ND","ND","ND","ND","0","0"],
    [62771,"2017-07-04T06:00:00","51.9","ND","ND","ND","0.1","ND","ND","ND","ND","ND","0","0"],
    [62772,"2017-07-04T07:00:00","63.2","ND","ND","ND","0.1","ND","ND","ND","ND","ND","97","0"],
    [62773,"2017-07-04T08:00:00","58.3","ND","ND","ND","0.1","ND","ND","ND","ND","ND","239","0"],
    [62774,"2017-07-04T09:00:00","72.8","ND","ND","ND","2.8","ND","ND","ND","ND","ND","586","0"],
    [62775,"2017-07-04T10:00:00","76.1","ND","ND","ND","21.6","ND","ND","ND","ND","ND","669","0"],
    [62776,"2017-07-04T11:00:00","77.1","ND","ND","ND","55.4","1.6","ND","ND","ND","ND","670","0"],
    [62777,"2017-07-04T12:00:00","ND","ND","ND","ND","ND","ND","ND","ND","ND","ND","ND","ND"],
    [62778,"2017-07-04T13:00:00","33.9","ND","ND","ND","82.1","0.3","ND","ND","ND","ND","667","0"],
    [62779,"2017-07-04T14:00:00","3.4","ND","ND","ND","107.1","0.3","ND","ND","ND","ND","666","0"],
    [62780,"2017-07-04T15:00:00","86.9","ND","ND","ND","104.3","0.5","ND","ND","ND","ND","595","0"],
    [62781,"2017-07-04T16:00:00","26.2","ND","ND","ND","72.9","0.3","ND","ND","ND","ND","626","0"],
    [62782,"2017-07-04T17:00:00","105.7","ND","ND","ND","31.8","0.3","ND","ND","ND","ND","586","0"],
    [62783,"2017-07-04T18:00:00","54.5","ND","ND","ND","22.9","0.7","ND","ND","ND","ND","208","0"],
    [62784,"2017-07-04T19:00:00","58.8","ND","ND","ND","15.1","0.4","ND","ND","ND","ND","7","0"],
    [62785,"2017-07-04T20:00:00","ND","ND","ND","ND","4.0","0.1","ND","ND","ND","ND","0","0"],
    [62786,"2017-07-04T21:00:00","ND","ND","ND","ND","ND","0.7","ND","ND","ND","ND","0","0"],
    [62787,"2017-07-04T22:00:00","ND","ND","ND","ND","0.3","2.1","ND","ND","ND","ND","0","0"],
    [62788,"2017-07-04T23:00:00","ND","ND","ND","ND","0.2","2.6","ND","ND","ND","ND","0","0"],
    [62789,"2017-07-05T00:00:00","ND","ND","ND","ND","0.0","1.6","ND","ND","ND","ND","0","0"],
    [62790,"2017-07-05T01:00:00","103.9","ND","ND","ND","0.0","1.6","ND","ND","ND","ND","0","0"],
    [62791,"2017-07-05T02:00:00","94.1","ND","ND","ND","0.0","2.0","ND","ND","ND","ND","0","0"],
    [62792,"2017-07-05T03:00:00","75.1","ND","ND","ND","0.0","1.3","ND","ND","ND","ND","0","0"],
    [62793,"2017-07-05T04:00:00","66.9","ND","ND","ND","0.1","1.3","ND","ND","ND","ND","0","0"],
    [62794,"2017-07-05T05:00:00","58.2","ND","ND","ND","0.0","0.7","ND","ND","ND","ND","0","0"],
    [62795,"2017-07-05T06:00:00","42.2","ND","ND","ND","0.0","1.2","ND","ND","ND","ND","0","0"],
    [62796,"2017-07-05T07:00:00","56.1","ND","ND","ND","0.2","1.1","ND","ND","ND","ND","56","0"],
    [62797,"2017-07-05T08:00:00","71.8","ND","ND","ND","0.2","1.0","ND","ND","ND","ND","226","0"],
    [62798,"2017-07-05T09:00:00","93.6","ND","ND","ND","5.3","1.0","ND","ND","ND","ND","658","0"],
    [62799,"2017-07-05T10:00:00","101.6","ND","ND","ND","43.6","0.6","ND","ND","ND","ND","666","0"],
    [62800,"2017-07-05T11:00:00","25.2","ND","ND","ND","71.5","0.3","ND","ND","ND","ND","665","0"],
    [62801,"2017-07-05T12:00:00","ND","ND","ND","ND","87.3","0.3","ND","ND","ND","ND","665","0"],
    [62802,"2017-07-05T13:00:00","28.4","ND","ND","ND","102.9","0.5","ND","ND","ND","ND","659","0"],
    [62803,"2017-07-05T14:00:00","61.9","ND","ND","ND","96.4","0.3","ND","ND","ND","ND","665","0"],
    [62804,"2017-07-05T15:00:00","64.6","ND","ND","ND","107.1","0.1","ND","ND","ND","ND","665","0"],
    [62805,"2017-07-05T16:00:00","63.5","ND","ND","ND","86.8","0.7","ND","ND","ND","ND","648","0"],
    [62806,"2017-07-05T17:00:00","73.6","ND","ND","ND","55.8","0.2","ND","ND","ND","ND","433","0"],
    [62807,"2017-07-05T18:00:00","23.2","ND","ND","ND","37.0","0.3","ND","ND","ND","ND","151","0"],
    [62808,"2017-07-05T19:00:00","3.6","ND","ND","ND","20.5","0.0","ND","ND","ND","ND","8","0"],
    [62809,"2017-07-05T20:00:00","37.2","ND","ND","ND","3.5","0.6","ND","ND","ND","ND","0","0"],
    [62810,"2017-07-05T21:00:00","55.4","ND","ND","ND","4.3","1.4","ND","ND","ND","ND","0","0"],
    [62811,"2017-07-05T22:00:00","59.5","ND","ND","ND","0.0","1.7","ND","ND","ND","ND","0","0"],
    [62812,"2017-07-05T23:00:00","47","ND","ND","ND","0.0","0.8","ND","ND","ND","ND","0","0"],
    [62813,"2017-07-06T00:00:00","16.6","ND","ND","ND","0.0","1.3","ND","ND","ND","ND","0","0"],
    [62814,"2017-07-06T01:00:00","21.9","ND","ND","ND","0.0","1.2","ND","ND","ND","ND","0","0"],
    [62815,"2017-07-06T02:00:00","51.8","ND","ND","ND","0.0","0.9","ND","ND","ND","ND","0","0"],
    [62816,"2017-07-06T03:00:00","49.8","ND","ND","ND","0.0","1.0","ND","ND","ND","ND","0","0"],
    [62817,"2017-07-06T04:00:00","37.7","ND","ND","ND","0.0","0.6","ND","ND","ND","ND","0","0"],
    [62818,"2017-07-06T05:00:00","48.3","ND","ND","ND","0.0","2.4","ND","ND","ND","ND","0","0"],
    [62819,"2017-07-06T06:00:00","61.2","ND","ND","ND","0.0","3.4","ND","ND","ND","ND","0","0"],
    [62820,"2017-07-06T07:00:00","67.6","ND","ND","ND","0.1","3.4","ND","ND","ND","ND","64","0"],
    [62821,"2017-07-06T08:00:00","101.3","ND","ND","ND","0.6","3.9","ND","ND","ND","ND","422","0"],
    [62822,"2017-07-06T09:00:00","136.5","ND","ND","ND","5.9","2.6","ND","ND","ND","ND","664","0"],
    [62823,"2017-07-06T10:00:00","94.2","ND","ND","ND","23.3","1.1","ND","ND","ND","ND","664","0"],
    [62824,"2017-07-06T11:00:00","77.5","ND","ND","ND","54.6","0.8","ND","ND","ND","ND","664","0"],
    [62825,"2017-07-06T12:00:00","54.7","ND","ND","ND","109.6","0.6","ND","ND","ND","ND","665","0"],
    [62826,"2017-07-06T13:00:00","49.6","ND","ND","ND","105.0","0.4","ND","ND","ND","ND","665","0"],
    [62827,"2017-07-06T14:00:00","50.4","ND","ND","ND","133.1","0.3","ND","ND","ND","ND","665","0"],
    [62828,"2017-07-06T15:00:00","51.8","ND","ND","ND","136.1","0.4","ND","ND","ND","ND","653","0"],
    [62829,"2017-07-06T16:00:00","45.1","ND","ND","ND","86.0","0.7","ND","ND","ND","ND","568","0"],
    [62830,"2017-07-06T17:00:00","35.5","ND","ND","ND","64.5","0.3","ND","ND","ND","ND","606","0"],
    [62831,"2017-07-06T18:00:00","28.6","ND","ND","ND","53.6","0.3","ND","ND","ND","ND","245","0"],
    [62832,"2017-07-06T19:00:00","21.4","ND","ND","ND","30.1","0.4","ND","ND","ND","ND","9","0"],
    [62833,"2017-07-06T20:00:00","27","ND","ND","ND","6.7","0.4","ND","ND","ND","ND","0","0"],
    [62834,"2017-07-06T21:00:00","48.1","ND","ND","ND","21.8","0.3","ND","ND","ND","ND","0","0"],
    [62835,"2017-07-06T22:00:00","47.9","ND","ND","ND","1.2","0.7","ND","ND","ND","ND","0","0"],
    [62836,"2017-07-06T23:00:00","40.9","ND","ND","ND","0.1","1.2","ND","ND","ND","ND","0","0"],
    [62837,"2017-07-07T00:00:00","34.8","ND","ND","ND","0.8","0.8","ND","ND","ND","ND","0","0"],
    [62838,"2017-07-07T01:00:00","42.6","ND","ND","ND","0.4","1.0","ND","ND","ND","ND","0","0"],
    [62839,"2017-07-07T02:00:00","47.4","ND","ND","ND","0.8","1.0","ND","ND","ND","ND","0","0"],
    [62840,"2017-07-07T03:00:00","47.2","ND","ND","ND","1.9","1.3","ND","ND","ND","ND","0","0"],
    [62841,"2017-07-07T04:00:00","49.9","ND","ND","ND","0.1","1.8","ND","ND","ND","ND","0","0"],
    [62842,"2017-07-07T05:00:00","42.6","ND","ND","ND","0.0","1.6","ND","ND","ND","ND","0","0"],
    [62843,"2017-07-07T06:00:00","51.9","ND","ND","ND","0.0","1.2","ND","ND","ND","ND","0","0"],
    [62844,"2017-07-07T07:00:00","53.4","ND","ND","ND","0.0","1.2","ND","ND","ND","ND","71","0"],
    [62845,"2017-07-07T08:00:00","45.1","ND","ND","ND","0.5","1.9","ND","ND","ND","ND","314","0"],
    [62846,"2017-07-07T09:00:00","82.2","ND","ND","ND","5.1","1.3","ND","ND","ND","ND","518","0"],
    [62847,"2017-07-07T10:00:00","69.9","ND","ND","ND","23.5","0.9","ND","ND","ND","ND","664","0"],
    [62848,"2017-07-07T11:00:00","68.3","ND","ND","ND","49.0","0.5","ND","ND","ND","ND","664","0"],
    [62849,"2017-07-07T12:00:00","43","ND","ND","ND","56.5","0.5","ND","ND","ND","ND","665","0"],
    [62850,"2017-07-07T13:00:00","29","ND","ND","ND","85.7","0.3","ND","ND","ND","ND","665","0"],
    [62851,"2017-07-07T14:00:00","32","ND","ND","ND","84.1","0.5","ND","ND","ND","ND","657","0"],
    [62852,"2017-07-07T15:00:00","37.1","ND","ND","ND","51.9","0.4","ND","ND","ND","ND","569","0"],
    [62853,"2017-07-07T16:00:00","18.7","ND","ND","ND","27.1","0.3","ND","ND","ND","ND","643","0"],
    [62854,"2017-07-07T17:00:00","16.9","ND","ND","ND","33.4","0.2","ND","ND","ND","ND","618","0"],
    [62855,"2017-07-07T18:00:00","6.9","ND","ND","ND","21.5","0.3","ND","ND","ND","ND","172","0"],
    [62856,"2017-07-07T19:00:00","0.7","ND","ND","ND","10.3","0.4","ND","ND","ND","ND","6","0"],
    [62857,"2017-07-07T20:00:00","12.4","ND","ND","ND","7.6","0.3","ND","ND","ND","ND","0","0"],
    [62858,"2017-07-07T21:00:00","41.8","ND","ND","ND","0.6","0.4","ND","ND","ND","ND","0","0"],
    [62859,"2017-07-07T22:00:00","53.2","ND","ND","ND","0.2","0.8","ND","ND","ND","ND","0","0"],
    [62860,"2017-07-07T23:00:00","55.7","ND","ND","ND","0.0","2.5","ND","ND","ND","ND","0","0"],
    [62861,"2017-07-08T00:00:00","42.9","ND","ND","ND","0.0","0.8","ND","ND","ND","ND","0","0"],
    [62862,"2017-07-08T01:00:00","28.9","ND","ND","ND","0.0","1.6","ND","ND","ND","ND","0","0"],
    [62863,"2017-07-08T02:00:00","27.8","ND","ND","ND","0.1","1.5","ND","ND","ND","ND","0","0"],
    [62864,"2017-07-08T03:00:00","24.4","ND","ND","ND","0.5","1.0","ND","ND","ND","ND","0","0"],
    [62865,"2017-07-08T04:00:00","25.4","ND","ND","ND","0.2","1.1","ND","ND","ND","ND","0","0"],
    [62866,"2017-07-08T05:00:00","50.2","ND","ND","ND","0.0","0.9","ND","ND","ND","ND","0","0"],
    [62867,"2017-07-08T06:00:00","48","ND","ND","ND","0.0","0.8","ND","ND","ND","ND","1","0"],
    [62868,"2017-07-08T07:00:00","37.1","ND","ND","ND","0.0","1.0","ND","ND","ND","ND","95","0"],
    [62869,"2017-07-08T08:00:00","62.4","ND","ND","ND","1.1","0.7","ND","ND","ND","ND","374","0"],
    [62870,"2017-07-08T09:00:00","73.7","ND","ND","ND","14.6","1.8","ND","ND","ND","ND","663","0"],
    [62871,"2017-07-08T10:00:00","57.5","ND","ND","ND","42.0","0.9","ND","ND","ND","ND","660","0"],
    [62872,"2017-07-08T11:00:00","50.3","ND","ND","ND","65.9","0.6","ND","ND","ND","ND","665","0"],
    [62873,"2017-07-08T12:00:00","50.1","ND","ND","ND","87.6","0.5","ND","ND","ND","ND","665","0"],
    [62874,"2017-07-08T13:00:00","44.2","ND","ND","ND","96.5","0.5","ND","ND","ND","ND","665","0"],
    [62875,"2017-07-08T14:00:00","42.9","ND","ND","ND","103.8","0.4","ND","ND","ND","ND","657","0"],
    [62876,"2017-07-08T15:00:00","39.4","ND","ND","ND","104.5","0.3","ND","ND","ND","ND","478","0"],
    [62877,"2017-07-08T16:00:00","37.9","ND","ND","ND","35.6","0.2","ND","ND","ND","ND","148","0"],
    [62878,"2017-07-08T17:00:00","4.9","ND","ND","ND","21.3","0.3","ND","ND","ND","ND","188","0"],
    [62879,"2017-07-08T18:00:00","24.9","ND","ND","ND","12.0","0.1","ND","ND","ND","ND","95","0"],
    [62880,"2017-07-08T19:00:00","13","ND","ND","ND","1.8","0.5","ND","ND","ND","ND","8","0"],
    [62881,"2017-07-08T20:00:00","32.1","ND","ND","ND","0.3","0.3","ND","ND","ND","ND","0","0"],
    [62882,"2017-07-08T21:00:00","42.9","ND","ND","ND","0.0","1.0","ND","ND","ND","ND","0","0"],
    [62883,"2017-07-08T22:00:00","57.8","ND","ND","ND","0.0","1.0","ND","ND","ND","ND","0","0"],
    [62884,"2017-07-08T23:00:00","67.3","ND","ND","ND","0.0","0.5","ND","ND","ND","ND","0","0"],
    [62885,"2017-07-09T00:00:00","51","ND","ND","ND","0.0","0.7","ND","ND","ND","ND","0","0"],
    [62886,"2017-07-09T01:00:00","46.9","ND","ND","ND","0.0","1.7","ND","ND","ND","ND","0","0"],
    [62887,"2017-07-09T02:00:00","39.3","ND","ND","ND","0.0","0.5","ND","ND","ND","ND","0","0"],
    [62888,"2017-07-09T03:00:00","47.5","ND","ND","ND","0.0","0.8","ND","ND","ND","ND","0","0"],
    [62889,"2017-07-09T04:00:00","52","ND","ND","ND","0.0","1.4","ND","ND","ND","ND","0","0"],
    [62890,"2017-07-09T05:00:00","67.2","ND","ND","ND","0.0","2.5","ND","ND","ND","ND","0","0"],
    [62891,"2017-07-09T06:00:00","50.2","ND","ND","ND","0.0","3.0","ND","ND","ND","ND","1","0"],
    [62892,"2017-07-09T07:00:00","50.6","ND","ND","ND","0.0","2.9","ND","ND","ND","ND","46","0"],
    [62893,"2017-07-09T08:00:00","46.1","ND","ND","ND","0.1","4.3","ND","ND","ND","ND","318","0"],
    [62894,"2017-07-09T09:00:00","68.1","ND","ND","ND","7.7","3.1","ND","ND","ND","ND","642","0"],
    [62895,"2017-07-09T10:00:00","46.1","ND","ND","ND","24.6","1.3","ND","ND","ND","ND","664","0"],
    [62896,"2017-07-09T11:00:00","38.3","ND","ND","ND","50.3","0.9","ND","ND","ND","ND","664","0"],
    [62897,"2017-07-09T12:00:00","37.2","ND","ND","ND","77.4","0.5","ND","ND","ND","ND","665","0"],
    [62898,"2017-07-09T13:00:00","35.8","ND","ND","ND","113.2","0.4","ND","ND","ND","ND","665","0"],
    [62899,"2017-07-09T14:00:00","37.8","ND","ND","ND","132.3","0.5","ND","ND","ND","ND","665","0"],
    [62900,"2017-07-09T15:00:00","28.5","ND","ND","ND","129.6","0.3","ND","ND","ND","ND","664","0"],
    [62901,"2017-07-09T16:00:00","25.1","ND","ND","ND","120.9","0.3","ND","ND","ND","ND","616","0"],
    [62902,"2017-07-09T17:00:00","30.9","ND","ND","ND","45.8","0.4","ND","ND","ND","ND","393","0"],
    [62903,"2017-07-09T18:00:00","23.1","ND","ND","ND","30.3","0.4","ND","ND","ND","ND","157","0"],
    [62904,"2017-07-09T19:00:00","13.3","ND","ND","ND","19.2","0.2","ND","ND","ND","ND","8","0"],
    [62905,"2017-07-09T20:00:00","22.5","ND","ND","ND","8.2","0.3","ND","ND","ND","ND","0","0"],
    [62906,"2017-07-09T21:00:00","31.6","ND","ND","ND","2.7","0.3","ND","ND","ND","ND","0","0"],
    [62907,"2017-07-09T22:00:00","32.6","ND","ND","ND","0.0","1.0","ND","ND","ND","ND","0","0"],
    [62908,"2017-07-09T23:00:00","39.8","ND","ND","ND","0.0","1.4","ND","ND","ND","ND","0","0"],
    [62909,"2017-07-10T00:00:00","22.7","ND","ND","ND","0.0","0.6","ND","ND","ND","ND","0","0"],
    [62910,"2017-07-10T01:00:00","27.7","ND","ND","ND","0.0","1.0","ND","ND","ND","ND","0","0"],
    [62911,"2017-07-10T02:00:00","23.2","ND","ND","ND","0.0","1.1","ND","ND","ND","ND","0","0"],
    [62912,"2017-07-10T03:00:00","30.3","ND","ND","ND","0.1","1.8","ND","ND","ND","ND","0","0"],
    [62913,"2017-07-10T04:00:00","27.9","ND","ND","ND","0.3","1.2","ND","ND","ND","ND","0","0"],
    [62914,"2017-07-10T05:00:00","22.6","ND","ND","ND","0.0","1.1","ND","ND","ND","ND","0","0"],
    [62915,"2017-07-10T06:00:00","29.5","ND","ND","ND","0.0","0.9","ND","ND","ND","ND","1","0"],
    [62916,"2017-07-10T07:00:00","52.9","ND","ND","ND","0.0","2.6","ND","ND","ND","ND","133","0"],
    [62917,"2017-07-10T08:00:00","66.8","ND","ND","ND","1.8","1.4","ND","ND","ND","ND","473","0"],
    [62918,"2017-07-10T09:00:00","74.9","ND","ND","ND","15.7","1.5","ND","ND","ND","ND","661","0"],
    [62919,"2017-07-10T10:00:00","48.2","ND","ND","ND","52.7","0.5","ND","ND","ND","ND","664","0"],
    [62920,"2017-07-10T11:00:00","48.8","ND","ND","ND","77.3","0.3","ND","ND","ND","ND","665","0"],
    [62921,"2017-07-10T12:00:00","42","ND","ND","ND","94.1","0.3","ND","ND","ND","ND","665","0"],
    [62922,"2017-07-10T13:00:00","43.4","ND","ND","ND","104.0","0.2","ND","ND","ND","ND","620","0"],
    [62923,"2017-07-10T14:00:00","31.5","ND","ND","ND","72.3","0.3","ND","ND","ND","ND","623","0"],
    [62924,"2017-07-10T15:00:00","14.9","ND","ND","ND","67.8","0.4","ND","ND","ND","ND","596","0"],
    [62925,"2017-07-10T16:00:00","36.6","ND","ND","ND","54.6","0.3","ND","ND","ND","ND","473","0"],
    [62926,"2017-07-10T17:00:00","40.9","ND","ND","ND","50.7","0.2","ND","ND","ND","ND","234","0"],
    [62927,"2017-07-10T18:00:00","36.5","ND","ND","ND","23.5","0.5","ND","ND","ND","ND","93","0"],
    [62928,"2017-07-10T19:00:00","10.2","ND","ND","ND","6.6","0.2","ND","ND","ND","ND","7","0"],
    [62929,"2017-07-10T20:00:00","1","ND","ND","ND","4.0","0.3","ND","ND","ND","ND","0","0"],
    [62930,"2017-07-10T21:00:00","13","ND","ND","ND","0.5","0.4","ND","ND","ND","ND","0","0"],
    [62931,"2017-07-10T22:00:00","39.9","ND","ND","ND","0.0","1.1","ND","ND","ND","ND","0","0"],
    [62932,"2017-07-10T23:00:00","42.6","ND","ND","ND","0.0","1.8","ND","ND","ND","ND","0","0"],
    [62933,"2017-07-11T00:00:00","29.5","ND","ND","ND","0.0","1.5","ND","ND","ND","ND","0","0"],
    [62934,"2017-07-11T01:00:00","50.9","ND","ND","ND","0.0","1.2","ND","ND","ND","ND","0","0"],
    [62935,"2017-07-11T02:00:00","38.1","ND","ND","ND","0.0","1.3","ND","ND","ND","ND","0","0"],
    [62936,"2017-07-11T03:00:00","41.4","ND","ND","ND","0.0","1.1","ND","ND","ND","ND","0","0"],
    [62937,"2017-07-11T04:00:00","42.2","ND","ND","ND","0.0","2.3","ND","ND","ND","ND","0","0"],
    [62938,"2017-07-11T05:00:00","50.9","ND","ND","ND","0.0","1.6","ND","ND","ND","ND","0","0"],
    [62939,"2017-07-11T06:00:00","54.2","ND","ND","ND","0.0","2.6","ND","ND","ND","ND","0","0"],
    [62940,"2017-07-11T07:00:00","51.5","ND","ND","ND","0.0","3.0","ND","ND","ND","ND","79","0"],
    [62941,"2017-07-11T08:00:00","87.1","ND","ND","ND","0.2","3.5","ND","ND","ND","ND","267","0"],
    [62942,"2017-07-11T09:00:00","96.1","ND","ND","ND","1.9","5.4","ND","ND","ND","ND","623","0"],
    [62943,"2017-07-11T10:00:00","81.1","ND","ND","ND","5.8","6.2","ND","ND","ND","ND","664","0"],
    [62944,"2017-07-11T11:00:00","50.7","ND","ND","ND","31.5","2.2","ND","ND","ND","ND","664","0"],
    [62945,"2017-07-11T12:00:00","8.8","ND","ND","ND","71.6","1.4","ND","ND","ND","ND","665","0"],
    [62946,"2017-07-11T13:00:00","ND","ND","ND","ND","60.6","0.4","ND","ND","ND","ND","665","0"],
    [62947,"2017-07-11T14:00:00","ND","ND","ND","ND","72.2","0.5","ND","ND","ND","ND","665","0"],
    [62948,"2017-07-11T15:00:00","13","ND","ND","ND","69.6","0.2","ND","ND","ND","ND","665","0"],
    [62949,"2017-07-11T16:00:00","60.3","ND","ND","ND","ND","0.3","ND","ND","ND","ND","628","0"],
    [62950,"2017-07-11T17:00:00","69.1","ND","ND","ND","79.0","0.3","ND","ND","ND","ND","643","0"],
    [62951,"2017-07-11T18:00:00","ND","ND","ND","ND","71.5","0.4","ND","ND","ND","ND","226","0"],
    [62952,"2017-07-11T19:00:00","ND","ND","ND","ND","23.6","0.3","ND","ND","ND","ND","4","0"],
    [62953,"2017-07-11T20:00:00","ND","ND","ND","ND","7.8","0.3","ND","ND","ND","ND","0","0"],
    [62954,"2017-07-11T21:00:00","ND","ND","ND","ND","2.9","0.2","ND","ND","ND","ND","0","0"],
    [62955,"2017-07-11T22:00:00","172","ND","ND","ND","2.3","0.5","ND","ND","ND","ND","0","0"],
    [62956,"2017-07-11T23:00:00","76","ND","ND","ND","0.9","0.3","ND","ND","ND","ND","0","0"],
    [62957,"2017-07-12T00:00:00","74.6","ND","ND","ND","0.1","0.4","ND","ND","ND","ND","0","0"],
    [62958,"2017-07-12T01:00:00","56.6","ND","ND","ND","0.6","0.4","ND","ND","ND","ND","0","0"],
    [62959,"2017-07-12T02:00:00","46.3","ND","ND","ND","0.0","0.7","ND","ND","ND","ND","0","0"],
    [62960,"2017-07-12T03:00:00","58.1","ND","ND","ND","0.0","0.7","ND","ND","ND","ND","0","0"],
    [62961,"2017-07-12T04:00:00","51.6","ND","ND","ND","0.0","0.5","ND","ND","ND","ND","0","0"],
    [62962,"2017-07-12T05:00:00","45.3","ND","ND","ND","0.0","0.6","ND","ND","ND","ND","0","0"],
    [62963,"2017-07-12T06:00:00","33.7","ND","ND","ND","0.0","0.5","ND","ND","ND","ND","0","0"],
    [62964,"2017-07-12T07:00:00","44.2","ND","ND","ND","0.0","0.6","ND","ND","ND","ND","146","0"],
    [62965,"2017-07-12T08:00:00","95.3","ND","ND","ND","3.8","0.9","ND","ND","ND","ND","593","0"],
    [62966,"2017-07-12T09:00:00","120.8","ND","ND","ND","18.7","0.8","ND","ND","ND","ND","610","0"],
    [62967,"2017-07-12T10:00:00","62.4","ND","ND","ND","25.0","0.7","ND","ND","ND","ND","664","0"],
    [62968,"2017-07-12T11:00:00","13.4","ND","ND","ND","44.7","0.4","ND","ND","ND","ND","664","0"],
    [62969,"2017-07-12T12:00:00","ND","ND","ND","ND","74.2","0.3","ND","ND","ND","ND","664","0"],
    [62970,"2017-07-12T13:00:00","50.2","ND","ND","ND","90.4","0.3","ND","ND","ND","ND","640","0"],
    [62971,"2017-07-12T14:00:00","29","ND","ND","ND","118.3","0.4","ND","ND","ND","ND","665","0"],
    [62972,"2017-07-12T15:00:00","43.8","ND","ND","ND","107.2","0.3","ND","ND","ND","ND","665","0"],
    [62973,"2017-07-12T16:00:00","46.5","ND","ND","ND","99.7","0.3","ND","ND","ND","ND","665","0"],
    [62974,"2017-07-12T17:00:00","43.2","ND","ND","ND","76.9","0.3","ND","ND","ND","ND","601","0"],
    [62975,"2017-07-12T18:00:00","12","ND","ND","ND","46.0","0.5","ND","ND","ND","ND","210","0"],
    [62976,"2017-07-12T19:00:00","67.3","ND","ND","ND","34.5","0.5","ND","ND","ND","ND","12","0"],
    [62977,"2017-07-12T20:00:00","92.2","ND","ND","ND","21.3","0.3","ND","ND","ND","ND","0","0"],
    [62978,"2017-07-12T21:00:00","60.9","ND","ND","ND","7.5","0.3","ND","ND","ND","ND","0","0"],
    [62979,"2017-07-12T22:00:00","66.4","ND","ND","ND","0.3","0.5","ND","ND","ND","ND","0","0"],
    [62980,"2017-07-12T23:00:00","62.7","ND","ND","ND","0.5","0.5","ND","ND","ND","ND","0","0"],
    [62981,"2017-07-13T00:00:00","43.6","ND","ND","ND","0.3","0.9","ND","ND","ND","ND","0","0"],
    [62982,"2017-07-13T01:00:00","32.5","ND","ND","ND","0.5","0.4","ND","ND","ND","ND","0","0"],
    [62983,"2017-07-13T02:00:00","23.4","ND","ND","ND","2.9","0.6","ND","ND","ND","ND","0","0"],
    [62984,"2017-07-13T03:00:00","16.5","ND","ND","ND","0.6","0.5","ND","ND","ND","ND","0","0"],
    [62985,"2017-07-13T04:00:00","36","ND","ND","ND","0.0","0.2","ND","ND","ND","ND","0","0"],
    [62986,"2017-07-13T05:00:00","44.2","ND","ND","ND","0.0","0.6","ND","ND","ND","ND","0","0"],
    [62987,"2017-07-13T06:00:00","55.5","ND","ND","ND","0.0","0.5","ND","ND","ND","ND","0","0"],
    [62988,"2017-07-13T07:00:00","70.5","ND","ND","ND","0.8","0.5","ND","ND","ND","ND","155","0"],
    [62989,"2017-07-13T08:00:00","106.8","ND","ND","ND","5.5","1.0","ND","ND","ND","ND","587","0"],
    [62990,"2017-07-13T09:00:00","112.7","ND","ND","ND","16.7","1.1","ND","ND","ND","ND","664","0"],
    [62991,"2017-07-13T10:00:00","62.5","ND","ND","ND","49.7","0.7","ND","ND","ND","ND","664","0"],
    [62992,"2017-07-13T11:00:00","0.6","ND","ND","ND","106.6","0.5","ND","ND","ND","ND","665","0"],
    [62993,"2017-07-13T12:00:00","1.7","ND","ND","ND","132.7","0.5","ND","ND","ND","ND","665","0"],
    [62994,"2017-07-13T13:00:00","46.6","ND","ND","ND","130.5","0.5","ND","ND","ND","ND","636","0"],
    [62995,"2017-07-13T14:00:00","77.8","ND","ND","ND","121.7","0.6","ND","ND","ND","ND","665","0"],
    [62996,"2017-07-13T15:00:00","91.9","ND","ND","ND","64.8","0.5","ND","ND","ND","ND","660","0"],
    [62997,"2017-07-13T16:00:00","69.2","ND","ND","ND","47.4","0.6","ND","ND","ND","ND","450","0"],
    [62998,"2017-07-13T17:00:00","38.6","ND","ND","ND","39.7","0.1","ND","ND","ND","ND","357","0"],
    [62999,"2017-07-13T18:00:00","32.5","ND","ND","ND","31.8","0.5","ND","ND","ND","ND","110","0"],
    [63000,"2017-07-13T19:00:00","20.3","ND","ND","ND","25.5","0.2","ND","ND","ND","ND","6","0"],
    [63001,"2017-07-13T20:00:00","30.3","ND","ND","ND","19.8","0.5","ND","ND","ND","ND","0","0"],
    [63002,"2017-07-13T21:00:00","36.5","ND","ND","ND","2.1","0.3","ND","ND","ND","ND","0","0"],
    [63003,"2017-07-13T22:00:00","34.3","ND","ND","ND","2.8","0.6","ND","ND","ND","ND","0","0"],
    [63004,"2017-07-13T23:00:00","34.1","ND","ND","ND","0.1","0.5","ND","ND","ND","ND","0","0"],
    [63005,"2017-07-14T00:00:00","29.5","ND","ND","ND","0.7","0.3","ND","ND","ND","ND","0","0"],
    [63006,"2017-07-14T01:00:00","34.1","ND","ND","ND","0.0","0.4","ND","ND","ND","ND","0","0"],
    [63007,"2017-07-14T02:00:00","33.8","ND","ND","ND","0.0","0.5","ND","ND","ND","ND","0","0"],
    [63008,"2017-07-14T03:00:00","36","ND","ND","ND","0.0","0.5","ND","ND","ND","ND","0","0"],
    [63009,"2017-07-14T04:00:00","41.7","ND","ND","ND","0.3","0.7","ND","ND","ND","ND","0","0"],
    [63010,"2017-07-14T05:00:00","36.5","ND","ND","ND","0.6","0.6","ND","ND","ND","ND","0","0"],
    [63011,"2017-07-14T06:00:00","34.3","ND","ND","ND","0.0","0.4","ND","ND","ND","ND","0","0"],
    [63012,"2017-07-14T07:00:00","34.8","ND","ND","ND","0.1","0.5","ND","ND","ND","ND","155","0"],
    [63013,"2017-07-14T08:00:00","48.6","ND","ND","ND","5.3","0.7","ND","ND","ND","ND","613","0"],
    [63014,"2017-07-14T09:00:00","54.8","ND","ND","ND","27.0","0.6","ND","ND","ND","ND","664","0"],
    [63015,"2017-07-14T10:00:00","40.6","ND","ND","ND","47.7","0.4","ND","ND","ND","ND","665","0"],
    [63016,"2017-07-14T11:00:00","34.7","ND","ND","ND","69.8","0.4","ND","ND","ND","ND","662","0"],
    [63017,"2017-07-14T12:00:00","28.1","ND","ND","ND","91.3","0.4","ND","ND","ND","ND","665","0"],
    [63018,"2017-07-14T13:00:00","37.7","ND","ND","ND","100.6","0.4","ND","ND","ND","ND","665","0"],
    [63019,"2017-07-14T14:00:00","38.2","ND","ND","ND","42.5","0.5","ND","ND","ND","ND","665","0"],
    [63020,"2017-07-14T15:00:00","19.3","ND","ND","ND","30.5","0.2","ND","ND","ND","ND","665","0"],
    [63021,"2017-07-14T16:00:00","3.1","ND","ND","ND","30.0","0.6","ND","ND","ND","ND","665","0"],
    [63022,"2017-07-14T17:00:00","4.3","ND","ND","ND","31.0","0.1","ND","ND","ND","ND","575","0"],
    [63023,"2017-07-14T18:00:00","3","ND","ND","ND","35.3","0.5","ND","ND","ND","ND","284","0"],
    [63024,"2017-07-14T19:00:00","ND","ND","ND","ND","21.7","0.5","ND","ND","ND","ND","8","0"],
    [63025,"2017-07-14T20:00:00","12","ND","ND","ND","8.4","0.3","ND","ND","ND","ND","0","0"],
    [63026,"2017-07-14T21:00:00","37.8","ND","ND","ND","3.0","0.1","ND","ND","ND","ND","0","0"],
    [63027,"2017-07-14T22:00:00","38.8","ND","ND","ND","0.4","0.3","ND","ND","ND","ND","0","0"],
    [63028,"2017-07-14T23:00:00","53.1","ND","ND","ND","0.2","0.4","ND","ND","ND","ND","0","0"],
    [63029,"2017-07-15T00:00:00","53.5","ND","ND","ND","0.0","0.3","ND","ND","ND","ND","0","0"],
    [63030,"2017-07-15T01:00:00","59","ND","ND","ND","0.5","0.5","ND","ND","ND","ND","0","0"],
    [63031,"2017-07-15T02:00:00","14.7","ND","ND","ND","0.5","0.4","ND","ND","ND","ND","0","0"],
    [63032,"2017-07-15T03:00:00","23.2","ND","ND","ND","4.2","0.5","ND","ND","ND","ND","0","0"],
    [63033,"2017-07-15T04:00:00","28.9","ND","ND","ND","4.3","0.6","ND","ND","ND","ND","0","0"],
    [63034,"2017-07-15T05:00:00","28.7","ND","ND","ND","0.0","0.3","ND","ND","ND","ND","0","0"],
    [63035,"2017-07-15T06:00:00","35.8","ND","ND","ND","0.0","0.3","ND","ND","ND","ND","0","0"],
    [63036,"2017-07-15T07:00:00","40.6","ND","ND","ND","0.0","0.4","ND","ND","ND","ND","124","0"],
    [63037,"2017-07-15T08:00:00","68.6","ND","ND","ND","6.9","0.6","ND","ND","ND","ND","592","0"],
    [63038,"2017-07-15T09:00:00","62.9","ND","ND","ND","21.4","0.4","ND","ND","ND","ND","622","0"],
    [63039,"2017-07-15T10:00:00","36.9","ND","ND","ND","46.8","0.5","ND","ND","ND","ND","664","0"],
    [63040,"2017-07-15T11:00:00","35.8","ND","ND","ND","66.6","0.3","ND","ND","ND","ND","665","0"],
    [63041,"2017-07-15T12:00:00","36.3","ND","ND","ND","97.6","0.5","ND","ND","ND","ND","665","0"],
    [63042,"2017-07-15T13:00:00","35.8","ND","ND","ND","97.1","0.4","ND","ND","ND","ND","659","0"],
    [63043,"2017-07-15T14:00:00","35.5","ND","ND","ND","98.5","0.3","ND","ND","ND","ND","665","0"],
    [63044,"2017-07-15T15:00:00","33.4","ND","ND","ND","93.3","0.5","ND","ND","ND","ND","612","0"],
    [63045,"2017-07-15T16:00:00","25.9","ND","ND","ND","40.2","0.3","ND","ND","ND","ND","638","0"],
    [63046,"2017-07-15T17:00:00","19.7","ND","ND","ND","24.0","0.4","ND","ND","ND","ND","263","0"],
    [63047,"2017-07-15T18:00:00","ND","ND","ND","ND","19.3","0.5","ND","ND","ND","ND","94","0"],
    [63048,"2017-07-15T19:00:00","1.3","ND","ND","ND","13.8","0.3","ND","ND","ND","ND","7","0"],
    [63049,"2017-07-15T20:00:00","39.2","ND","ND","ND","3.7","0.3","ND","ND","ND","ND","0","0"],
    [63050,"2017-07-15T21:00:00","54.9","ND","ND","ND","3.0","0.6","ND","ND","ND","ND","0","0"],
    [63051,"2017-07-15T22:00:00","40.7","ND","ND","ND","21.8","0.5","ND","ND","ND","ND","0","0"],
    [63052,"2017-07-15T23:00:00","29.8","ND","ND","ND","17.1","0.3","ND","ND","ND","ND","0","0"],
    [63053,"2017-07-16T00:00:00","17.3","ND","ND","ND","21.6","0.3","ND","ND","ND","ND","0","0"],
    [63054,"2017-07-16T01:00:00","18.6","ND","ND","ND","23.5","0.2","ND","ND","ND","ND","0","0"],
    [63055,"2017-07-16T02:00:00","3.9","ND","ND","ND","23.7","0.4","ND","ND","ND","ND","0","0"],
    [63056,"2017-07-16T03:00:00","7.1","ND","ND","ND","17.0","0.3","ND","ND","ND","ND","0","0"],
    [63057,"2017-07-16T04:00:00","16.8","ND","ND","ND","6.3","0.4","ND","ND","ND","ND","0","0"],
    [63058,"2017-07-16T05:00:00","13.9","ND","ND","ND","3.8","0.3","ND","ND","ND","ND","0","0"],
    [63059,"2017-07-16T06:00:00","20.4","ND","ND","ND","8.2","0.6","ND","ND","ND","ND","0","0"],
    [63060,"2017-07-16T07:00:00","27.3","ND","ND","ND","0.9","0.5","ND","ND","ND","ND","166","0"],
    [63061,"2017-07-16T08:00:00","40.1","ND","ND","ND","15.1","0.6","ND","ND","ND","ND","613","0"],
    [63062,"2017-07-16T09:00:00","28.6","ND","ND","ND","26.3","0.5","ND","ND","ND","ND","664","0"],
    [63063,"2017-07-16T10:00:00","11.2","ND","ND","ND","37.6","0.4","ND","ND","ND","ND","664","0"],
    [63064,"2017-07-16T11:00:00","23","ND","ND","ND","55.9","0.4","ND","ND","ND","ND","664","0"],
    [63065,"2017-07-16T12:00:00","31.9","ND","ND","ND","82.0","0.5","ND","ND","ND","ND","665","0"],
    [63066,"2017-07-16T13:00:00","33.2","ND","ND","ND","100.9","0.2","ND","ND","ND","ND","665","0"],
    [63067,"2017-07-16T14:00:00","39.4","ND","ND","ND","101.2","0.4","ND","ND","ND","ND","659","0"],
    [63068,"2017-07-16T15:00:00","29.3","ND","ND","ND","43.3","0.3","ND","ND","ND","ND","664","0"],
    [63069,"2017-07-16T16:00:00","7.1","ND","ND","ND","32.5","0.3","ND","ND","ND","ND","622","0"],
    [63070,"2017-07-16T17:00:00","ND","ND","ND","ND","30.0","0.4","ND","ND","ND","ND","639","0"],
    [63071,"2017-07-16T18:00:00","2.8","ND","ND","ND","20.7","0.2","ND","ND","ND","ND","183","0"],
    [63072,"2017-07-16T19:00:00","ND","ND","ND","ND","10.4","0.3","ND","ND","ND","ND","8","0"],
    [63073,"2017-07-16T20:00:00","15.1","ND","ND","ND","2.3","0.4","ND","ND","ND","ND","0","0"],
    [63074,"2017-07-16T21:00:00","46.1","ND","ND","ND","3.9","0.2","ND","ND","ND","ND","0","0"],
    [63075,"2017-07-16T22:00:00","41.7","ND","ND","ND","0.1","0.3","ND","ND","ND","ND","0","0"],
    [63076,"2017-07-16T23:00:00","29","ND","ND","ND","1.2","0.5","ND","ND","ND","ND","0","0"],
    [63077,"2017-07-17T00:00:00","18.1","ND","ND","ND","0.0","0.4","ND","ND","ND","ND","0","0"],
    [63078,"2017-07-17T01:00:00","34.1","ND","ND","ND","0.0","0.5","ND","ND","ND","ND","0","0"],
    [63079,"2017-07-17T02:00:00","38.7","ND","ND","ND","0.0","0.7","ND","ND","ND","ND","0","0"],
    [63080,"2017-07-17T03:00:00","29.5","ND","ND","ND","0.3","0.6","ND","ND","ND","ND","0","0"],
    [63081,"2017-07-17T04:00:00","35.4","ND","ND","ND","0.1","0.6","ND","ND","ND","ND","0","0"],
    [63082,"2017-07-17T05:00:00","31.1","ND","ND","ND","0.0","0.6","ND","ND","ND","ND","0","0"],
    [63083,"2017-07-17T06:00:00","30.6","ND","ND","ND","0.0","0.5","ND","ND","ND","ND","0","0"],
    [63084,"2017-07-17T07:00:00","40.5","ND","ND","ND","0.0","0.6","ND","ND","ND","ND","92","0"],
    [63085,"2017-07-17T08:00:00","46.7","ND","ND","ND","0.3","0.6","ND","ND","ND","ND","349","0"],
    [63086,"2017-07-17T09:00:00","75.4","ND","ND","ND","3.5","0.5","ND","ND","ND","ND","410","0"],
    [63087,"2017-07-17T10:00:00","54.2","ND","ND","ND","25.4","0.9","ND","ND","ND","ND","664","0"],
    [63088,"2017-07-17T11:00:00","40.6","ND","ND","ND","47.3","0.7","ND","ND","ND","ND","665","0"],
    [63089,"2017-07-17T12:00:00","27.8","ND","ND","ND","64.6","0.6","ND","ND","ND","ND","665","0"],
    [63090,"2017-07-17T13:00:00","29.4","ND","ND","ND","54.2","0.5","ND","ND","ND","ND","663","0"],
    [63091,"2017-07-17T14:00:00","17.3","ND","ND","ND","48.4","0.5","ND","ND","ND","ND","665","0"],
    [63092,"2017-07-17T15:00:00","16.9","ND","ND","ND","45.5","0.3","ND","ND","ND","ND","604","0"],
    [63093,"2017-07-17T16:00:00","9","ND","ND","ND","39.1","0.3","ND","ND","ND","ND","550","0"],
    [63094,"2017-07-17T17:00:00","11.7","ND","ND","ND","31.4","0.5","ND","ND","ND","ND","556","0"],
    [63095,"2017-07-17T18:00:00","8.9","ND","ND","ND","16.6","0.2","ND","ND","ND","ND","235","0"],
    [63096,"2017-07-17T19:00:00","ND","ND","ND","ND","1.5","0.4","ND","ND","ND","ND","9","0"],
    [63097,"2017-07-17T20:00:00","40","ND","ND","ND","0.7","0.3","ND","ND","ND","ND","0","0"],
    [63098,"2017-07-17T21:00:00","42.5","ND","ND","ND","0.4","0.4","ND","ND","ND","ND","0","0"],
    [63099,"2017-07-17T22:00:00","37.9","ND","ND","ND","0.2","0.3","ND","ND","ND","ND","0","0"],
    [63100,"2017-07-17T23:00:00","58.2","ND","ND","ND","0.6","0.2","ND","ND","ND","ND","0","0"],
    [63101,"2017-07-18T00:00:00","57.9","ND","ND","ND","2.2","0.5","ND","ND","ND","ND","0","0"],
    [63102,"2017-07-18T01:00:00","40.9","ND","ND","ND","3.1","0.8","ND","ND","ND","ND","0","0"],
    [63103,"2017-07-18T02:00:00","53.6","ND","ND","ND","1.9","1.0","ND","ND","ND","ND","0","0"],
    [63104,"2017-07-18T03:00:00","37.7","ND","ND","ND","2.7","1.0","ND","ND","ND","ND","0","0"],
    [63105,"2017-07-18T04:00:00","40","ND","ND","ND","0.1","0.7","ND","ND","ND","ND","0","0"],
    [63106,"2017-07-18T05:00:00","39","ND","ND","ND","0.0","1.1","ND","ND","ND","ND","0","0"],
    [63107,"2017-07-18T06:00:00","46.1","ND","ND","ND","0.0","0.7","ND","ND","ND","ND","0","0"],
    [63108,"2017-07-18T07:00:00","42.3","ND","ND","ND","0.0","0.5","ND","ND","ND","ND","84","0"],
    [63109,"2017-07-18T08:00:00","53.3","ND","ND","ND","2.5","0.7","ND","ND","ND","ND","376","0"],
    [63110,"2017-07-18T09:00:00","54.7","ND","ND","ND","20.1","0.6","ND","ND","ND","ND","664","0"],
    [63111,"2017-07-18T10:00:00","51.4","ND","ND","ND","43.8","0.5","ND","ND","ND","ND","660","0"],
    [63112,"2017-07-18T11:00:00","28","ND","ND","ND","77.4","0.6","ND","ND","ND","ND","661","0"],
    [63113,"2017-07-18T12:00:00","29.3","ND","ND","ND","102.0","0.3","ND","ND","ND","ND","665","0"],
    [63114,"2017-07-18T13:00:00","31","ND","ND","ND","126.4","0.5","ND","ND","ND","ND","665","0"],
    [63115,"2017-07-18T14:00:00","35.2","ND","ND","ND","144.6","0.3","ND","ND","ND","ND","665","0"],
    [63116,"2017-07-18T15:00:00","35.6","ND","ND","ND","99.1","0.4","ND","ND","ND","ND","628","0"],
    [63117,"2017-07-18T16:00:00","38","ND","ND","ND","104.1","0.3","ND","ND","ND","ND","434","0"],
    [63118,"2017-07-18T17:00:00","34.1","ND","ND","ND","56.9","0.3","ND","ND","ND","ND","225","0"],
    [63119,"2017-07-18T18:00:00","31.9","ND","ND","ND","49.8","0.5","ND","ND","ND","ND","200","0"],
    [63120,"2017-07-18T19:00:00","29.2","ND","ND","ND","18.2","0.2","ND","ND","ND","ND","6","0"],
    [63121,"2017-07-18T20:00:00","40.7","ND","ND","ND","18.5","0.3","ND","ND","ND","ND","0","0"],
    [63122,"2017-07-18T21:00:00","36.3","ND","ND","ND","22.4","0.2","ND","ND","ND","ND","0","0"],
    [63123,"2017-07-18T22:00:00","18.1","ND","ND","ND","24.6","0.2","ND","ND","ND","ND","0","0"],
    [63124,"2017-07-18T23:00:00","11.3","ND","ND","ND","2.7","0.3","ND","ND","ND","ND","0","0"],
    [63125,"2017-07-19T00:00:00","49.2","ND","ND","ND","0.1","0.4","ND","ND","ND","ND","0","1.27"],
    [63126,"2017-07-19T01:00:00","28.6","ND","ND","ND","0.0","0.3","ND","ND","ND","ND","0","0.25"],
    [63127,"2017-07-19T02:00:00","18.2","ND","ND","ND","0.0","0.4","ND","ND","ND","ND","0","0.25"],
    [63128,"2017-07-19T03:00:00","14.5","ND","ND","ND","0.0","0.3","ND","ND","ND","ND","0","0"],
    [63129,"2017-07-19T04:00:00","7.6","ND","ND","ND","0.0","0.3","ND","ND","ND","ND","0","0"],
    [63130,"2017-07-19T05:00:00","26.4","ND","ND","ND","0.0","0.7","ND","ND","ND","ND","0","0"],
    [63131,"2017-07-19T06:00:00","38.3","ND","ND","ND","0.0","0.5","ND","ND","ND","ND","0","0"],
    [63132,"2017-07-19T07:00:00","39.8","ND","ND","ND","0.0","0.6","ND","ND","ND","ND","64","0"],
    [63133,"2017-07-19T08:00:00","44.8","ND","ND","ND","0.1","0.7","ND","ND","ND","ND","443","0"],
    [63134,"2017-07-19T09:00:00","69.6","ND","ND","ND","6.8","0.8","ND","ND","ND","ND","658","0"],
    [63135,"2017-07-19T10:00:00","40.1","ND","ND","ND","27.8","0.5","ND","ND","ND","ND","664","0"],
    [63136,"2017-07-19T11:00:00","15.1","ND","ND","ND","42.9","0.4","ND","ND","ND","ND","665","0"],
    [63137,"2017-07-19T12:00:00","15.5","ND","ND","ND","67.5","0.3","ND","ND","ND","ND","665","0"],
    [63138,"2017-07-19T13:00:00","20.2","ND","ND","ND","100.0","0.4","ND","ND","ND","ND","650","0"],
    [63139,"2017-07-19T14:00:00","30.3","ND","ND","ND","113.5","0.5","ND","ND","ND","ND","662","0"],
    [63140,"2017-07-19T15:00:00","42.5","ND","ND","ND","51.4","0.3","ND","ND","ND","ND","619","0"],
    [63141,"2017-07-19T16:00:00","19.7","ND","ND","ND","26.0","0.1","ND","ND","ND","ND","580","0"],
    [63142,"2017-07-19T17:00:00","14","ND","ND","ND","28.5","0.3","ND","ND","ND","ND","612","0"],
    [63143,"2017-07-19T18:00:00","12.6","ND","ND","ND","21.5","0.3","ND","ND","ND","ND","152","0"],
    [63144,"2017-07-19T19:00:00","29.3","ND","ND","ND","15.8","0.4","ND","ND","ND","ND","0","0"],
    [63145,"2017-07-19T20:00:00","16.5","ND","ND","ND","13.4","0.3","ND","ND","ND","ND","0","0"],
    [63146,"2017-07-19T21:00:00","8.3","ND","ND","ND","12.4","0.3","ND","ND","ND","ND","0","0"],
    [63147,"2017-07-19T22:00:00","42.1","ND","ND","ND","10.3","0.4","ND","ND","ND","ND","0","0"],
    [63148,"2017-07-19T23:00:00","46.1","ND","ND","ND","3.7","0.3","ND","ND","ND","ND","0","0"],
    [63149,"2017-07-20T00:00:00","34.4","ND","ND","ND","0.3","0.6","ND","ND","ND","ND","0","0"],
    [63150,"2017-07-20T01:00:00","27.6","ND","ND","ND","0.0","1.2","ND","ND","ND","ND","0","0"],
    [63151,"2017-07-20T02:00:00","26.9","ND","ND","ND","0.1","1.0","ND","ND","ND","ND","0","0"],
    [63152,"2017-07-20T03:00:00","26.9","ND","ND","ND","0.1","1.1","ND","ND","ND","ND","0","0"],
    [63153,"2017-07-20T04:00:00","26.3","ND","ND","ND","1.0","0.7","ND","ND","ND","ND","0","0"],
    [63154,"2017-07-20T05:00:00","10.3","ND","ND","ND","1.0","0.7","ND","ND","ND","ND","0","0"],
    [63155,"2017-07-20T06:00:00","11.7","ND","ND","ND","0.2","0.2","ND","ND","ND","ND","0","0"],
    [63156,"2017-07-20T07:00:00","42.6","ND","ND","ND","0.0","0.4","ND","ND","ND","ND","138","0"],
    [63157,"2017-07-20T08:00:00","51.4","ND","ND","ND","0.8","0.5","ND","ND","ND","ND","451","0"],
    [63158,"2017-07-20T09:00:00","50.3","ND","ND","ND","11.8","0.6","ND","ND","ND","ND","651","0"],
    [63159,"2017-07-20T10:00:00","47.8","ND","ND","ND","32.3","0.6","ND","ND","ND","ND","659","0"],
    [63160,"2017-07-20T11:00:00","43.1","ND","ND","ND","53.6","0.5","ND","ND","ND","ND","651","0"],
    [63161,"2017-07-20T12:00:00","32","ND","ND","ND","79.0","0.3","ND","ND","ND","ND","665","0"],
    [63162,"2017-07-20T13:00:00","33.7","ND","ND","ND","99.3","0.4","ND","ND","ND","ND","653","0"],
    [63163,"2017-07-20T14:00:00","22.2","ND","ND","ND","107.1","0.4","ND","ND","ND","ND","665","0"],
    [63164,"2017-07-20T15:00:00","15.5","ND","ND","ND","81.8","0.4","ND","ND","ND","ND","665","0"],
    [63165,"2017-07-20T16:00:00","12.5","ND","ND","ND","57.4","0.3","ND","ND","ND","ND","619","0"],
    [63166,"2017-07-20T17:00:00","5.8","ND","ND","ND","51.0","0.3","ND","ND","ND","ND","528","0"],
    [63167,"2017-07-20T18:00:00","6.7","ND","ND","ND","41.1","0.4","ND","ND","ND","ND","163","0"],
    [63168,"2017-07-20T19:00:00","ND","ND","ND","ND","14.8","0.2","ND","ND","ND","ND","13","0"],
    [63169,"2017-07-20T20:00:00","2.3","ND","ND","ND","0.5","0.2","ND","ND","ND","ND","0","0"],
    [63170,"2017-07-20T21:00:00","25.8","ND","ND","ND","0.1","0.3","ND","ND","ND","ND","0","0"],
    [63171,"2017-07-20T22:00:00","38.5","ND","ND","ND","0.0","0.3","ND","ND","ND","ND","0","0"],
    [63172,"2017-07-20T23:00:00","67.2","ND","ND","ND","0.0","0.4","ND","ND","ND","ND","0","0"],
    [63173,"2017-07-21T00:00:00","65.7","ND","ND","ND","0.0","0.5","ND","ND","ND","ND","0","0"],
    [63174,"2017-07-21T01:00:00","34.3","ND","ND","ND","0.4","0.6","ND","ND","ND","ND","0","0"],
    [63175,"2017-07-21T02:00:00","25.9","ND","ND","ND","0.0","0.6","ND","ND","ND","ND","0","0"],
    [63176,"2017-07-21T03:00:00","36.4","ND","ND","ND","0.0","0.6","ND","ND","ND","ND","0","0"],
    [63177,"2017-07-21T04:00:00","48.8","ND","ND","ND","0.0","0.6","ND","ND","ND","ND","0","0"],
    [63178,"2017-07-21T05:00:00","39.9","ND","ND","ND","0.0","0.8","ND","ND","ND","ND","0","0"],
    [63179,"2017-07-21T06:00:00","34.1","ND","ND","ND","0.0","0.5","ND","ND","ND","ND","0","0"],
    [63180,"2017-07-21T07:00:00","52.9","ND","ND","ND","0.0","0.7","ND","ND","ND","ND","165","0"],
    [63181,"2017-07-21T08:00:00","94.9","ND","ND","ND","0.9","0.6","ND","ND","ND","ND","470","0"],
    [63182,"2017-07-21T09:00:00","84.1","ND","ND","ND","17.7","0.6","ND","ND","ND","ND","610","0"],
    [63183,"2017-07-21T10:00:00","79.9","ND","ND","ND","57.8","0.7","ND","ND","ND","ND","666","0"],
    [63184,"2017-07-21T11:00:00","31.7","ND","ND","ND","76.6","0.4","ND","ND","ND","ND","665","0"],
    [63185,"2017-07-21T12:00:00","14.2","ND","ND","ND","114.6","0.6","ND","ND","ND","ND","662","0"],
    [63186,"2017-07-21T13:00:00","41.2","ND","ND","ND","146.5","0.5","ND","ND","ND","ND","638","0"],
    [63187,"2017-07-21T14:00:00","49.5","ND","ND","ND","142.4","0.6","ND","ND","ND","ND","665","0"],
    [63188,"2017-07-21T15:00:00","42.4","ND","ND","ND","123.3","0.2","ND","ND","ND","ND","646","0"],
    [63189,"2017-07-21T16:00:00","33.3","ND","ND","ND","51.2","0.3","ND","ND","ND","ND","606","0"],
    [63190,"2017-07-21T17:00:00","35.1","ND","ND","ND","46.3","0.2","ND","ND","ND","ND","552","0"],
    [63191,"2017-07-21T18:00:00","23.9","ND","ND","ND","29.3","0.4","ND","ND","ND","ND","125","0"],
    [63192,"2017-07-21T19:00:00","3.2","ND","ND","ND","22.8","0.3","ND","ND","ND","ND","11","0"],
    [63193,"2017-07-21T20:00:00","5.2","ND","ND","ND","10.0","0.3","ND","ND","ND","ND","0","0"],
    [63194,"2017-07-21T21:00:00","43.8","ND","ND","ND","0.3","0.4","ND","ND","ND","ND","0","0"],
    [63195,"2017-07-21T22:00:00","52.7","ND","ND","ND","0.0","0.3","ND","ND","ND","ND","0","0"],
    [63196,"2017-07-21T23:00:00","46","ND","ND","ND","0.0","0.5","ND","ND","ND","ND","0","0"],
    [63197,"2017-07-22T00:00:00","38","ND","ND","ND","0.0","0.4","ND","ND","ND","ND","0","0"],
    [63198,"2017-07-22T01:00:00","31.4","ND","ND","ND","0.0","0.3","ND","ND","ND","ND","0","0"],
    [63199,"2017-07-22T02:00:00","31.2","ND","ND","ND","0.0","0.7","ND","ND","ND","ND","0","0"],
    [63200,"2017-07-22T03:00:00","55.6","ND","ND","ND","0.0","0.4","ND","ND","ND","ND","0","0"],
    [63201,"2017-07-22T04:00:00","38.1","ND","ND","ND","0.0","0.4","ND","ND","ND","ND","0","0"],
    [63202,"2017-07-22T05:00:00","50.4","ND","ND","ND","0.0","0.7","ND","ND","ND","ND","0","0"],
    [63203,"2017-07-22T06:00:00","43.1","ND","ND","ND","0.0","0.6","ND","ND","ND","ND","0","0"],
    [63204,"2017-07-22T07:00:00","56.2","ND","ND","ND","0.0","0.6","ND","ND","ND","ND","100","0"],
    [63205,"2017-07-22T08:00:00","89.4","ND","ND","ND","0.5","0.6","ND","ND","ND","ND","444","0"],
    [63206,"2017-07-22T09:00:00","83","ND","ND","ND","3.7","0.3","ND","ND","ND","ND","643","0"],
    [63207,"2017-07-22T10:00:00","82.4","ND","ND","ND","5.3","0.8","ND","ND","ND","ND","664","0"],
    [63208,"2017-07-22T11:00:00","79.2","ND","ND","ND","52.2","0.5","ND","ND","ND","ND","664","0"],
    [63209,"2017-07-22T12:00:00","63.8","ND","ND","ND","70.1","0.3","ND","ND","ND","ND","664","0"],
    [63210,"2017-07-22T13:00:00","46.1","ND","ND","ND","86.0","0.6","ND","ND","ND","ND","665","0"],
    [63211,"2017-07-22T14:00:00","22.8","ND","ND","ND","84.9","0.3","ND","ND","ND","ND","665","0"],
    [63212,"2017-07-22T15:00:00","30.8","ND","ND","ND","85.6","0.4","ND","ND","ND","ND","631","0"],
    [63213,"2017-07-22T16:00:00","31.9","ND","ND","ND","73.3","0.4","ND","ND","ND","ND","638","0"],
    [63214,"2017-07-22T17:00:00","23.8","ND","ND","ND","58.5","0.5","ND","ND","ND","ND","416","0"],
    [63215,"2017-07-22T18:00:00","10.8","ND","ND","ND","24.9","0.1","ND","ND","ND","ND","159","0"],
    [63216,"2017-07-22T19:00:00","8.8","ND","ND","ND","14.8","0.3","ND","ND","ND","ND","9","0"],
    [63217,"2017-07-22T20:00:00","18.6","ND","ND","ND","7.3","0.3","ND","ND","ND","ND","0","0"],
    [63218,"2017-07-22T21:00:00","35.1","ND","ND","ND","1.3","0.6","ND","ND","ND","ND","0","0"],
    [63219,"2017-07-22T22:00:00","36.2","ND","ND","ND","0.0","0.6","ND","ND","ND","ND","0","0"],
    [63220,"2017-07-22T23:00:00","32.2","ND","ND","ND","0.0","0.4","ND","ND","ND","ND","0","0"],
    [63221,"2017-07-23T00:00:00","32.2","ND","ND","ND","0.0","0.6","ND","ND","ND","ND","0","0"],
    [63222,"2017-07-23T01:00:00","17.3","ND","ND","ND","0.0","0.6","ND","ND","ND","ND","0","0"],
    [63223,"2017-07-23T02:00:00","20.6","ND","ND","ND","0.0","0.4","ND","ND","ND","ND","0","0"],
    [63224,"2017-07-23T03:00:00","25.8","ND","ND","ND","0.0","0.7","ND","ND","ND","ND","0","0"],
    [63225,"2017-07-23T04:00:00","32.4","ND","ND","ND","0.0","0.4","ND","ND","ND","ND","0","0"],
    [63226,"2017-07-23T05:00:00","26.8","ND","ND","ND","0.0","0.3","ND","ND","ND","ND","0","0"],
    [63227,"2017-07-23T06:00:00","12.8","ND","ND","ND","0.0","0.5","ND","ND","ND","ND","0","0"],
    [63228,"2017-07-23T07:00:00","26.5","ND","ND","ND","0.0","0.5","ND","ND","ND","ND","84","0"],
    [63229,"2017-07-23T08:00:00","46.2","ND","ND","ND","0.9","0.5","ND","ND","ND","ND","502","0"],
    [63230,"2017-07-23T09:00:00","51.5","ND","ND","ND","16.3","0.7","ND","ND","ND","ND","664","0"],
    [63231,"2017-07-23T10:00:00","33.5","ND","ND","ND","38.9","0.7","ND","ND","ND","ND","663","0"],
    [63232,"2017-07-23T11:00:00","25.9","ND","ND","ND","66.6","0.4","ND","ND","ND","ND","664","0"],
    [63233,"2017-07-23T12:00:00","32.6","ND","ND","ND","83.7","0.5","ND","ND","ND","ND","665","0"],
    [63234,"2017-07-23T13:00:00","36.9","ND","ND","ND","94.9","0.3","ND","ND","ND","ND","658","0"],
    [63235,"2017-07-23T14:00:00","27.8","ND","ND","ND","79.9","0.4","ND","ND","ND","ND","654","0"],
    [63236,"2017-07-23T15:00:00","16.5","ND","ND","ND","59.3","0.5","ND","ND","ND","ND","634","0"],
    [63237,"2017-07-23T16:00:00","12.3","ND","ND","ND","43.6","0.3","ND","ND","ND","ND","581","0"],
    [63238,"2017-07-23T17:00:00","7.3","ND","ND","ND","37.3","0.3","ND","ND","ND","ND","399","0"],
    [63239,"2017-07-23T18:00:00","9.1","ND","ND","ND","23.6","0.3","ND","ND","ND","ND","229","0"],
    [63240,"2017-07-23T19:00:00","3.1","ND","ND","ND","18.9","0.3","ND","ND","ND","ND","10","0"],
    [63241,"2017-07-23T20:00:00","10.5","ND","ND","ND","6.1","0.3","ND","ND","ND","ND","0","0"],
    [63242,"2017-07-23T21:00:00","35.5","ND","ND","ND","0.5","0.3","ND","ND","ND","ND","0","0"],
    [63243,"2017-07-23T22:00:00","40.5","ND","ND","ND","0.0","0.4","ND","ND","ND","ND","0","0"],
    [63244,"2017-07-23T23:00:00","37.2","ND","ND","ND","0.3","0.6","ND","ND","ND","ND","0","0"],
    [63245,"2017-07-24T00:00:00","31.9","ND","ND","ND","0.0","0.5","ND","ND","ND","ND","0","0"],
    [63246,"2017-07-24T01:00:00","31.6","ND","ND","ND","0.2","0.6","ND","ND","ND","ND","0","0"],
    [63247,"2017-07-24T02:00:00","37.4","ND","ND","ND","0.9","0.8","ND","ND","ND","ND","0","0"],
    [63248,"2017-07-24T03:00:00","28.3","ND","ND","ND","2.1","0.4","ND","ND","ND","ND","0","0"],
    [63249,"2017-07-24T04:00:00","22.2","ND","ND","ND","3.5","0.6","ND","ND","ND","ND","0","0"],
    [63250,"2017-07-24T05:00:00","29.2","ND","ND","ND","1.4","0.3","ND","ND","ND","ND","0","0"],
    [63251,"2017-07-24T06:00:00","33.8","ND","ND","ND","0.0","0.9","ND","ND","ND","ND","0","0"],
    [63252,"2017-07-24T07:00:00","46.3","ND","ND","ND","0.1","0.3","ND","ND","ND","ND","103","0"],
    [63253,"2017-07-24T08:00:00","49","ND","ND","ND","4.5","0.7","ND","ND","ND","ND","537","0"],
    [63254,"2017-07-24T09:00:00","47.5","ND","ND","ND","14.6","0.7","ND","ND","ND","ND","663","0"],
    [63255,"2017-07-24T10:00:00","54.7","ND","ND","ND","38.1","0.5","ND","ND","ND","ND","664","0"],
    [63256,"2017-07-24T11:00:00","34.2","ND","ND","ND","53.6","0.3","ND","ND","ND","ND","665","0"],
    [63257,"2017-07-24T12:00:00","34.6","ND","ND","ND","74.5","0.4","ND","ND","ND","ND","665","0"],
    [63258,"2017-07-24T13:00:00","30","ND","ND","ND","92.4","0.3","ND","ND","ND","ND","665","0"],
    [63259,"2017-07-24T14:00:00","29.7","ND","ND","ND","106.5","0.2","ND","ND","ND","ND","665","0"],
    [63260,"2017-07-24T15:00:00","39.9","ND","ND","ND","101.6","0.5","ND","ND","ND","ND","665","0"],
    [63261,"2017-07-24T16:00:00","38.3","ND","ND","ND","106.2","0.5","ND","ND","ND","ND","528","0"],
    [63262,"2017-07-24T17:00:00","37.9","ND","ND","ND","73.4","0.4","ND","ND","ND","ND","335","0"],
    [63263,"2017-07-24T18:00:00","32.5","ND","ND","ND","46.4","0.5","ND","ND","ND","ND","187","0"],
    [63264,"2017-07-24T19:00:00","31.1","ND","ND","ND","13.0","0.4","ND","ND","ND","ND","10","0"],
    [63265,"2017-07-24T20:00:00","31.7","ND","ND","ND","3.3","0.2","ND","ND","ND","ND","0","0"],
    [63266,"2017-07-24T21:00:00","45.4","ND","ND","ND","4.1","0.5","ND","ND","ND","ND","0","0"],
    [63267,"2017-07-24T22:00:00","52.1","ND","ND","ND","0.0","0.5","ND","ND","ND","ND","0","0"],
    [63268,"2017-07-24T23:00:00","39.2","ND","ND","ND","0.0","0.6","ND","ND","ND","ND","0","0"],
    [63269,"2017-07-25T00:00:00","26.4","ND","ND","ND","0.0","0.6","ND","ND","ND","ND","0","0"],
    [63270,"2017-07-25T01:00:00","10.8","ND","ND","ND","0.1","0.7","ND","ND","ND","ND","0","0"],
    [63271,"2017-07-25T02:00:00","31.3","ND","ND","ND","0.1","0.6","ND","ND","ND","ND","0","0"],
    [63272,"2017-07-25T03:00:00","35.5","ND","ND","ND","1.1","0.7","ND","ND","ND","ND","0","0"],
    [63273,"2017-07-25T04:00:00","30.1","ND","ND","ND","2.9","0.7","ND","ND","ND","ND","0","0"],
    [63274,"2017-07-25T05:00:00","29.1","ND","ND","ND","0.6","0.6","ND","ND","ND","ND","0","0"],
    [63275,"2017-07-25T06:00:00","31.3","ND","ND","ND","0.1","0.8","ND","ND","ND","ND","0","0"],
    [63276,"2017-07-25T07:00:00","41.3","ND","ND","ND","0.1","0.5","ND","ND","ND","ND","71","0"],
    [63277,"2017-07-25T08:00:00","62.4","ND","ND","ND","0.8","0.6","ND","ND","ND","ND","305","0"],
    [63278,"2017-07-25T09:00:00","80.7","ND","ND","ND","13.4","0.6","ND","ND","ND","ND","664","0"],
    [63279,"2017-07-25T10:00:00","57.3","ND","ND","ND","44.3","0.4","ND","ND","ND","ND","664","0"],
    [63280,"2017-07-25T11:00:00","33.4","ND","ND","ND","74.2","0.4","ND","ND","ND","ND","665","0"],
    [63281,"2017-07-25T12:00:00","32","ND","ND","ND","96.9","0.4","ND","ND","ND","ND","653","0"],
    [63282,"2017-07-25T13:00:00","37.7","ND","ND","ND","102.3","0.4","ND","ND","ND","ND","665","0"],
    [63283,"2017-07-25T14:00:00","33.1","ND","ND","ND","89.2","0.4","ND","ND","ND","ND","665","0"],
    [63284,"2017-07-25T15:00:00","33.2","ND","ND","ND","91.2","0.5","ND","ND","ND","ND","664","0"],
    [63285,"2017-07-25T16:00:00","35.3","ND","ND","ND","100.1","0.3","ND","ND","ND","ND","665","0"],
    [63286,"2017-07-25T17:00:00","43","ND","ND","ND","66.0","0.5","ND","ND","ND","ND","422","0"],
    [63287,"2017-07-25T18:00:00","26.1","ND","ND","ND","36.5","0.4","ND","ND","ND","ND","102","0"],
    [63288,"2017-07-25T19:00:00","24.8","ND","ND","ND","23.9","0.2","ND","ND","ND","ND","6","0"],
    [63289,"2017-07-25T20:00:00","21.8","ND","ND","ND","25.7","0.3","ND","ND","ND","ND","0","0"],
    [63290,"2017-07-25T21:00:00","32.6","ND","ND","ND","10.6","0.3","ND","ND","ND","ND","0","0"],
    [63291,"2017-07-25T22:00:00","39.9","ND","ND","ND","3.4","0.3","ND","ND","ND","ND","0","0"],
    [63292,"2017-07-25T23:00:00","37.1","ND","ND","ND","1.5","0.7","ND","ND","ND","ND","0","0"],
    [63293,"2017-07-26T00:00:00","27.3","ND","ND","ND","0.1","0.6","ND","ND","ND","ND","0","0"],
    [63294,"2017-07-26T01:00:00","15.5","ND","ND","ND","0.1","0.6","ND","ND","ND","ND","0","0"],
    [63295,"2017-07-26T02:00:00","2.7","ND","ND","ND","0.0","0.3","ND","ND","ND","ND","0","0"],
    [63296,"2017-07-26T03:00:00","1.9","ND","ND","ND","0.1","0.8","ND","ND","ND","ND","0","0"],
    [63297,"2017-07-26T04:00:00","31.8","ND","ND","ND","0.0","0.7","ND","ND","ND","ND","0","0"],
    [63298,"2017-07-26T05:00:00","20.8","ND","ND","ND","0.0","0.3","ND","ND","ND","ND","0","0"],
    [63299,"2017-07-26T06:00:00","32","ND","ND","ND","0.0","0.5","ND","ND","ND","ND","0","0"],
    [63300,"2017-07-26T07:00:00","32.7","ND","ND","ND","0.0","0.6","ND","ND","ND","ND","128","0"],
    [63301,"2017-07-26T08:00:00","66.2","ND","ND","ND","1.6","0.4","ND","ND","ND","ND","619","0"],
    [63302,"2017-07-26T09:00:00","61.6","ND","ND","ND","17.2","0.5","ND","ND","ND","ND","664","0"],
    [63303,"2017-07-26T10:00:00","12.9","ND","ND","ND","48.7","0.3","ND","ND","ND","ND","664","0"],
    [63304,"2017-07-26T11:00:00","33.2","ND","ND","ND","191.0","0.9","ND","ND","ND","ND","665","0"],
    [63305,"2017-07-26T12:00:00","29.4","ND","ND","ND","79.0","0.2","ND","ND","ND","ND","665","0"],
    [63306,"2017-07-26T13:00:00","37.9","ND","ND","ND","99.2","0.2","ND","ND","ND","ND","665","0"],
    [63307,"2017-07-26T14:00:00","23.4","ND","ND","ND","106.0","0.3","ND","ND","ND","ND","665","0"],
    [63308,"2017-07-26T15:00:00","ND","ND","ND","ND","94.6","0.1","ND","ND","ND","ND","665","0"],
    [63309,"2017-07-26T16:00:00","2.1","ND","ND","ND","92.9","0.3","ND","ND","ND","ND","630","0"],
    [63310,"2017-07-26T17:00:00","50.3","ND","ND","ND","74.7","0.3","ND","ND","ND","ND","327","0"],
    [63311,"2017-07-26T18:00:00","70.4","ND","ND","ND","55.0","0.4","ND","ND","ND","ND","201","0"],
    [63312,"2017-07-26T19:00:00","47.6","ND","ND","ND","33.7","0.3","ND","ND","ND","ND","5","0"],
    [63313,"2017-07-26T20:00:00","26.4","ND","ND","ND","29.5","0.5","ND","ND","ND","ND","0","0"],
    [63314,"2017-07-26T21:00:00","34.5","ND","ND","ND","13.8","0.7","ND","ND","ND","ND","0","0"],
    [63315,"2017-07-26T22:00:00","52.1","ND","ND","ND","0.1","1.8","ND","ND","ND","ND","0","0"],
    [63316,"2017-07-26T23:00:00","57.2","ND","ND","ND","0.0","1.9","ND","ND","ND","ND","0","0"],
    [63317,"2017-07-27T00:00:00","41.3","ND","ND","ND","2.7","0.6","ND","ND","ND","ND","0","0"],
    [63318,"2017-07-27T01:00:00","45.4","ND","ND","ND","0.6","0.9","ND","ND","ND","ND","0","0"],
    [63319,"2017-07-27T02:00:00","8","ND","ND","ND","1.0","0.8","ND","ND","ND","ND","0","0"],
    [63320,"2017-07-27T03:00:00","20.5","ND","ND","ND","0.0","1.0","ND","ND","ND","ND","0","0"],
    [63321,"2017-07-27T04:00:00","22.2","ND","ND","ND","4.6","1.2","ND","ND","ND","ND","0","0"],
    [63322,"2017-07-27T05:00:00","19.5","ND","ND","ND","1.5","2.4","ND","ND","ND","ND","0","0"],
    [63323,"2017-07-27T06:00:00","48.7","ND","ND","ND","0.1","0.9","ND","ND","ND","ND","0","0"],
    [63324,"2017-07-27T07:00:00","24.4","ND","ND","ND","0.0","0.7","ND","ND","ND","ND","75","0"],
    [63325,"2017-07-27T08:00:00","105.4","ND","ND","ND","4.0","2.2","ND","ND","ND","ND","545","0"],
    [63326,"2017-07-27T09:00:00","120.4","ND","ND","ND","12.8","3.2","ND","ND","ND","ND","638","0"],
    [63327,"2017-07-27T10:00:00","56.7","ND","ND","ND","59.8","0.9","ND","ND","ND","ND","665","0"],
    [63328,"2017-07-27T11:00:00","30.2","ND","ND","ND","83.1","0.3","ND","ND","ND","ND","664","0"],
    [63329,"2017-07-27T12:00:00","22.1","ND","ND","ND","95.1","0.3","ND","ND","ND","ND","665","0"],
    [63330,"2017-07-27T13:00:00","29.3","ND","ND","ND","99.1","0.2","ND","ND","ND","ND","665","0"],
    [63331,"2017-07-27T14:00:00","33.7","ND","ND","ND","91.8","0.3","ND","ND","ND","ND","665","0"],
    [63332,"2017-07-27T15:00:00","14.7","ND","ND","ND","88.8","0.4","ND","ND","ND","ND","665","0"],
    [63333,"2017-07-27T16:00:00","3.9","ND","ND","ND","92.1","0.3","ND","ND","ND","ND","665","0"],
    [63334,"2017-07-27T17:00:00","33","ND","ND","ND","62.5","0.4","ND","ND","ND","ND","513","0"],
    [63335,"2017-07-27T18:00:00","3.9","ND","ND","ND","59.0","0.7","ND","ND","ND","ND","339","0"],
    [63336,"2017-07-27T19:00:00","1.1","ND","ND","ND","35.5","0.9","ND","ND","ND","ND","9","0"],
    [63337,"2017-07-27T20:00:00","56.1","ND","ND","ND","18.4","0.6","ND","ND","ND","ND","0","0"],
    [63338,"2017-07-27T21:00:00","73.1","ND","ND","ND","17.2","0.2","ND","ND","ND","ND","0","0"],
    [63339,"2017-07-27T22:00:00","58.4","ND","ND","ND","7.6","0.8","ND","ND","ND","ND","0","0"],
    [63340,"2017-07-27T23:00:00","72.3","ND","ND","ND","1.3","1.0","ND","ND","ND","ND","0","0"],
    [63341,"2017-07-28T00:00:00","47.5","ND","ND","ND","5.5","0.7","ND","ND","ND","ND","0","0"],
    [63342,"2017-07-28T01:00:00","33.5","ND","ND","ND","16.5","0.4","ND","ND","ND","ND","0","0"],
    [63343,"2017-07-28T02:00:00","ND","ND","ND","ND","23.2","0.3","ND","ND","ND","ND","0","0"],
    [63344,"2017-07-28T03:00:00","ND","ND","ND","ND","24.2","0.5","ND","ND","ND","ND","0","0"],
    [63345,"2017-07-28T04:00:00","ND","ND","ND","ND","22.7","1.0","ND","ND","ND","ND","0","0"],
    [63346,"2017-07-28T05:00:00","14.9","ND","ND","ND","6.8","1.7","ND","ND","ND","ND","0","0"],
    [63347,"2017-07-28T06:00:00","128.6","ND","ND","ND","0.5","5.1","ND","ND","ND","ND","0","0"],
    [63348,"2017-07-28T07:00:00","163.2","ND","ND","ND","0.4","8.1","ND","ND","ND","ND","74","0"],
    [63349,"2017-07-28T08:00:00","140.1","ND","ND","ND","4.1","4.6","ND","ND","ND","ND","402","0"],
    [63350,"2017-07-28T09:00:00","105.1","ND","ND","ND","18.0","2.8","ND","ND","ND","ND","658","0"],
    [63351,"2017-07-28T10:00:00","31","ND","ND","ND","51.2","0.8","ND","ND","ND","ND","664","0"],
    [63352,"2017-07-28T11:00:00","ND","ND","ND","ND","72.3","0.4","ND","ND","ND","ND","665","0"],
    [63353,"2017-07-28T12:00:00","ND","ND","ND","ND","74.6","0.3","ND","ND","ND","ND","665","0"],
    [63354,"2017-07-28T13:00:00","17.1","ND","ND","ND","96.1","0.2","ND","ND","ND","ND","665","0"],
    [63355,"2017-07-28T14:00:00","33.6","ND","ND","ND","126.3","0.2","ND","ND","ND","ND","665","0"],
    [63356,"2017-07-28T15:00:00","66.8","ND","ND","ND","106.5","0.2","ND","ND","ND","ND","665","0"],
    [63357,"2017-07-28T16:00:00","45.8","ND","ND","ND","80.1","0.3","ND","ND","ND","ND","663","0"],
    [63358,"2017-07-28T17:00:00","27.4","ND","ND","ND","75.3","0.3","ND","ND","ND","ND","621","0"],
    [63359,"2017-07-28T18:00:00","34.8","ND","ND","ND","46.1","0.3","ND","ND","ND","ND","227","0"],
    [63360,"2017-07-28T19:00:00","53.2","ND","ND","ND","21.9","0.5","ND","ND","ND","ND","8","0"],
    [63361,"2017-07-28T20:00:00","53","ND","ND","ND","11.3","0.6","ND","ND","ND","ND","0","0"],
    [63362,"2017-07-28T21:00:00","53.5","ND","ND","ND","3.5","0.6","ND","ND","ND","ND","0","0"],
    [63363,"2017-07-28T22:00:00","72.3","ND","ND","ND","0.9","1.6","ND","ND","ND","ND","0","0"],
    [63364,"2017-07-28T23:00:00","73.7","ND","ND","ND","0.2","0.8","ND","ND","ND","ND","0","0"],
    [63365,"2017-07-29T00:00:00","55.4","ND","ND","ND","0.0","4.7","ND","ND","ND","ND","0","0"],
    [63366,"2017-07-29T01:00:00","34.3","ND","ND","ND","0.1","1.8","ND","ND","ND","ND","0","0"],
    [63367,"2017-07-29T02:00:00","36.3","ND","ND","ND","0.2","1.6","ND","ND","ND","ND","0","0"],
    [63368,"2017-07-29T03:00:00","43.7","ND","ND","ND","0.0","1.7","ND","ND","ND","ND","0","0"],
    [63369,"2017-07-29T04:00:00","34.3","ND","ND","ND","0.0","2.0","ND","ND","ND","ND","0","0"],
    [63370,"2017-07-29T05:00:00","52.3","ND","ND","ND","0.0","3.8","ND","ND","ND","ND","0","0"],
    [63371,"2017-07-29T06:00:00","66.6","ND","ND","ND","0.0","4.4","ND","ND","ND","ND","0","0"],
    [63372,"2017-07-29T07:00:00","62","ND","ND","ND","0.1","4.4","ND","ND","ND","ND","58","0"],
    [63373,"2017-07-29T08:00:00","72.1","ND","ND","ND","1.1","3.7","ND","ND","ND","ND","298","0"],
    [63374,"2017-07-29T09:00:00","67.5","ND","ND","ND","7.0","2.3","ND","ND","ND","ND","513","0"],
    [63375,"2017-07-29T10:00:00","67.3","ND","ND","ND","23.6","2.0","ND","ND","ND","ND","662","0"],
    [63376,"2017-07-29T11:00:00","66.1","ND","ND","ND","63.1","0.7","ND","ND","ND","ND","664","0"],
    [63377,"2017-07-29T12:00:00","12.8","ND","ND","ND","88.7","0.3","ND","ND","ND","ND","665","0"],
    [63378,"2017-07-29T13:00:00","1.6","ND","ND","ND","91.2","0.3","ND","ND","ND","ND","665","0"],
    [63379,"2017-07-29T14:00:00","9.7","ND","ND","ND","101.7","0.4","ND","ND","ND","ND","665","0"],
    [63380,"2017-07-29T15:00:00","19.7","ND","ND","ND","127.4","0.2","ND","ND","ND","ND","665","0"],
    [63381,"2017-07-29T16:00:00","60.1","ND","ND","ND","101.6","0.3","ND","ND","ND","ND","665","0"],
    [63382,"2017-07-29T17:00:00","80.6","ND","ND","ND","71.0","0.3","ND","ND","ND","ND","460","0"],
    [63383,"2017-07-29T18:00:00","34.9","ND","ND","ND","28.7","0.3","ND","ND","ND","ND","158","0"],
    [63384,"2017-07-29T19:00:00","ND","ND","ND","ND","11.6","0.8","ND","ND","ND","ND","7","0"],
    [63385,"2017-07-29T20:00:00","27.2","ND","ND","ND","6.9","0.6","ND","ND","ND","ND","0","0"],
    [63386,"2017-07-29T21:00:00","37.5","ND","ND","ND","1.0","0.8","ND","ND","ND","ND","0","0"],
    [63387,"2017-07-29T22:00:00","70.9","ND","ND","ND","0.2","0.5","ND","ND","ND","ND","0","0"],
    [63388,"2017-07-29T23:00:00","76.8","ND","ND","ND","1.3","1.8","ND","ND","ND","ND","0","0"],
    [63389,"2017-07-30T00:00:00","66.5","ND","ND","ND","0.0","1.5","ND","ND","ND","ND","0","0"],
    [63390,"2017-07-30T01:00:00","61.6","ND","ND","ND","0.0","0.9","ND","ND","ND","ND","0","0"],
    [63391,"2017-07-30T02:00:00","60.9","ND","ND","ND","0.0","1.2","ND","ND","ND","ND","0","0"],
    [63392,"2017-07-30T03:00:00","67.1","ND","ND","ND","0.0","5.0","ND","ND","ND","ND","0","0"],
    [63393,"2017-07-30T04:00:00","106.6","ND","ND","ND","0.1","4.8","ND","ND","ND","ND","0","0"],
    [63394,"2017-07-30T05:00:00","93.3","ND","ND","ND","0.0","6.0","ND","ND","ND","ND","0","0"],
    [63395,"2017-07-30T06:00:00","73.2","ND","ND","ND","0.0","4.7","ND","ND","ND","ND","0","0"],
    [63396,"2017-07-30T07:00:00","69.4","ND","ND","ND","0.1","5.2","ND","ND","ND","ND","113","0"],
    [63397,"2017-07-30T08:00:00","55.5","ND","ND","ND","4.7","1.4","ND","ND","ND","ND","429","0"],
    [63398,"2017-07-30T09:00:00","37","ND","ND","ND","19.3","1.3","ND","ND","ND","ND","613","0"],
    [63399,"2017-07-30T10:00:00","45.6","ND","ND","ND","40.4","1.0","ND","ND","ND","ND","664","0"],
    [63400,"2017-07-30T11:00:00","15","ND","ND","ND","61.2","0.4","ND","ND","ND","ND","664","0"],
    [63401,"2017-07-30T12:00:00","ND","ND","ND","ND","70.0","0.4","ND","ND","ND","ND","664","0"],
    [63402,"2017-07-30T13:00:00","ND","ND","ND","ND","92.9","0.2","ND","ND","ND","ND","665","0"],
    [63403,"2017-07-30T14:00:00","37.5","ND","ND","ND","108.4","0.2","ND","ND","ND","ND","665","0"],
    [63404,"2017-07-30T15:00:00","63.8","ND","ND","ND","83.4","0.3","ND","ND","ND","ND","606","0"],
    [63405,"2017-07-30T16:00:00","46.8","ND","ND","ND","79.0","0.4","ND","ND","ND","ND","434","0"],
    [63406,"2017-07-30T17:00:00","54.6","ND","ND","ND","80.1","0.4","ND","ND","ND","ND","380","0"],
    [63407,"2017-07-30T18:00:00","50.1","ND","ND","ND","76.2","0.6","ND","ND","ND","ND","166","0"],
    [63408,"2017-07-30T19:00:00","36.2","ND","ND","ND","55.9","0.4","ND","ND","ND","ND","6","0"],
    [63409,"2017-07-30T20:00:00","47.6","ND","ND","ND","5.8","0.3","ND","ND","ND","ND","0","0"],
    [63410,"2017-07-30T21:00:00","67.9","ND","ND","ND","0.1","0.7","ND","ND","ND","ND","0","0"],
    [63411,"2017-07-30T22:00:00","71.6","ND","ND","ND","0.0","2.9","ND","ND","ND","ND","0","0"],
    [63412,"2017-07-30T23:00:00","51.2","ND","ND","ND","0.0","1.5","ND","ND","ND","ND","0","0"],
    [63413,"2017-07-31T00:00:00","43.7","ND","ND","ND","0.6","1.7","ND","ND","ND","ND","0","0"],
    [63414,"2017-07-31T01:00:00","41.1","ND","ND","ND","7.8","1.6","ND","ND","ND","ND","0","0"],
    [63415,"2017-07-31T02:00:00","6.3","ND","ND","ND","6.7","2.0","ND","ND","ND","ND","0","0"],
    [63416,"2017-07-31T03:00:00","ND","ND","ND","ND","1.2","2.7","ND","ND","ND","ND","0","0"],
    [63417,"2017-07-31T04:00:00","12.9","ND","ND","ND","0.1","3.6","ND","ND","ND","ND","0","0"],
    [63418,"2017-07-31T05:00:00","36.3","ND","ND","ND","0.0","2.2","ND","ND","ND","ND","0","0"],
    [63419,"2017-07-31T06:00:00","46.1","ND","ND","ND","0.0","1.5","ND","ND","ND","ND","0","0"],
    [63420,"2017-07-31T07:00:00","48.4","ND","ND","ND","0.0","2.2","ND","ND","ND","ND","103","0"],
    [63421,"2017-07-31T08:00:00","74.4","ND","ND","ND","2.0","2.1","ND","ND","ND","ND","435","0"],
    [63422,"2017-07-31T09:00:00","84.9","ND","ND","ND","9.5","1.9","ND","ND","ND","ND","661","0"],
    [63423,"2017-07-31T10:00:00","51","ND","ND","ND","35.3","1.2","ND","ND","ND","ND","664","0"],
    [63424,"2017-07-31T11:00:00","6.1","ND","ND","ND","79.9","0.3","ND","ND","ND","ND","665","0"],
    [63425,"2017-07-31T12:00:00","ND","ND","ND","ND","87.1","0.3","ND","ND","ND","ND","665","0"],
    [63426,"2017-07-31T13:00:00","15.3","ND","ND","ND","78.9","0.1","ND","ND","ND","ND","665","0"],
    [63427,"2017-07-31T14:00:00","49.6","ND","ND","ND","74.3","0.2","ND","ND","ND","ND","665","0"],
    [63428,"2017-07-31T15:00:00","22.4","ND","ND","ND","67.4","0.3","ND","ND","ND","ND","665","0"],
    [63429,"2017-07-31T16:00:00","24.7","ND","ND","ND","58.9","0.3","ND","ND","ND","ND","658","0"],
    [63430,"2017-07-31T17:00:00","21.6","ND","ND","ND","62.6","0.3","ND","ND","ND","ND","660","0"],
    [63431,"2017-07-31T18:00:00","8.6","ND","ND","ND","52.6","0.3","ND","ND","ND","ND","354","0"],
    [63432,"2017-07-31T19:00:00","ND","ND","ND","ND","29.5","0.6","ND","ND","ND","ND","14","0"],
    [63433,"2017-07-31T20:00:00","14.3","ND","ND","ND","25.2","0.2","ND","ND","ND","ND","0","0"],
    [63434,"2017-07-31T21:00:00","37.3","ND","ND","ND","23.9","0.3","ND","ND","ND","ND","0","0"],
    [63435,"2017-07-31T22:00:00","10.8","ND","ND","ND","10.2","1.4","ND","ND","ND","ND","0","0"],
    [63436,"2017-07-31T23:00:00","81.3","ND","ND","ND","0.0","3.3","ND","ND","ND","ND","0","0"],
    [63437,"2017-08-01T00:00:00","95.6","ND","ND","ND","0.0","2.5","ND","ND","ND","ND","0","0"],
    [63438,"2017-08-01T01:00:00","94.2","ND","ND","ND","0.0","4.4","ND","ND","ND","ND","0","0"],
    [63439,"2017-08-01T02:00:00","58","ND","ND","ND","0.1","1.5","ND","ND","ND","ND","0","0"],
    [63440,"2017-08-01T03:00:00","30.1","ND","ND","ND","1.5","1.0","ND","ND","ND","ND","0","0"],
    [63441,"2017-08-01T04:00:00","21.3","ND","ND","ND","1.2","0.6","ND","ND","ND","ND","0","0"],
    [63442,"2017-08-01T05:00:00","39.8","ND","ND","ND","0.2","2.2","ND","ND","ND","ND","0","0"],
    [63443,"2017-08-01T06:00:00","49.8","ND","ND","ND","0.0","3.2","ND","ND","ND","ND","0","0"],
    [63444,"2017-08-01T07:00:00","61.2","ND","ND","ND","0.3","2.3","ND","ND","ND","ND","102","0"],
    [63445,"2017-08-01T08:00:00","64.9","ND","ND","ND","3.8","3.4","ND","ND","ND","ND","340","0"],
    [63446,"2017-08-01T09:00:00","63","ND","ND","ND","12.3","3.7","ND","ND","ND","ND","544","0"],
    [63447,"2017-08-01T10:00:00","119.9","ND","ND","ND","38.8","1.6","ND","ND","ND","ND","664","0"],
    [63448,"2017-08-01T11:00:00","34.6","ND","ND","ND","63.4","0.6","ND","ND","ND","ND","665","0"],
    [63449,"2017-08-01T12:00:00","30.2","ND","ND","ND","75.1","0.4","ND","ND","ND","ND","665","0"],
    [63450,"2017-08-01T13:00:00","39.5","ND","ND","ND","107.1","0.4","ND","ND","ND","ND","665","0"],
    [63451,"2017-08-01T14:00:00","39.1","ND","ND","ND","123.7","0.6","ND","ND","ND","ND","665","0"],
    [63452,"2017-08-01T15:00:00","35.1","ND","ND","ND","110.3","0.4","ND","ND","ND","ND","645","0"],
    [63453,"2017-08-01T16:00:00","22.5","ND","ND","ND","68.0","0.5","ND","ND","ND","ND","659","0"],
    [63454,"2017-08-01T17:00:00","46","ND","ND","ND","49.8","0.3","ND","ND","ND","ND","658","0"],
    [63455,"2017-08-01T18:00:00","66","ND","ND","ND","47.0","0.3","ND","ND","ND","ND","257","0"],
    [63456,"2017-08-01T19:00:00","15.2","ND","ND","ND","21.7","0.4","ND","ND","ND","ND","9","0"],
    [63457,"2017-08-01T20:00:00","ND","ND","ND","ND","9.6","0.3","ND","ND","ND","ND","0","0"],
    [63458,"2017-08-01T21:00:00","29.5","ND","ND","ND","0.1","1.7","ND","ND","ND","ND","0","0"],
    [63459,"2017-08-01T22:00:00","78.8","ND","ND","ND","0.0","2.5","ND","ND","ND","ND","0","0"],
    [63460,"2017-08-01T23:00:00","71.3","ND","ND","ND","0.0","1.6","ND","ND","ND","ND","0","0"],
    [63461,"2017-08-02T00:00:00","56.9","ND","ND","ND","0.0","1.4","ND","ND","ND","ND","0","0"],
    [63462,"2017-08-02T01:00:00","61.3","ND","ND","ND","0.2","1.9","ND","ND","ND","ND","0","0"],
    [63463,"2017-08-02T02:00:00","42.8","ND","ND","ND","0.0","1.2","ND","ND","ND","ND","0","0"],
    [63464,"2017-08-02T03:00:00","26.1","ND","ND","ND","0.7","2.6","ND","ND","ND","ND","0","0"],
    [63465,"2017-08-02T04:00:00","33.4","ND","ND","ND","0.2","2.1","ND","ND","ND","ND","0","0"],
    [63466,"2017-08-02T05:00:00","38.3","ND","ND","ND","0.5","1.8","ND","ND","ND","ND","0","0"],
    [63467,"2017-08-02T06:00:00","40","ND","ND","ND","0.2","2.8","ND","ND","ND","ND","0","0"],
    [63468,"2017-08-02T07:00:00","71.2","ND","ND","ND","0.2","2.9","ND","ND","ND","ND","126","0"],
    [63469,"2017-08-02T08:00:00","116.9","ND","ND","ND","3.7","7.8","ND","ND","ND","ND","571","0"],
    [63470,"2017-08-02T09:00:00","130.9","ND","ND","ND","19.3","3.6","ND","ND","ND","ND","664","0"],
    [63471,"2017-08-02T10:00:00","88.9","ND","ND","ND","70.6","1.5","ND","ND","ND","ND","664","0"],
    [63472,"2017-08-02T11:00:00","61.8","ND","ND","ND","121.7","0.6","ND","ND","ND","ND","665","0"],
    [63473,"2017-08-02T12:00:00","47.6","ND","ND","ND","136.0","0.6","ND","ND","ND","ND","665","0"],
    [63474,"2017-08-02T13:00:00","43.3","ND","ND","ND","170.7","0.6","ND","ND","ND","ND","665","0"],
    [63475,"2017-08-02T14:00:00","60.5","ND","ND","ND","156.7","0.4","ND","ND","ND","ND","646","0"],
    [63476,"2017-08-02T15:00:00","38.8","ND","ND","ND","49.0","0.3","ND","ND","ND","ND","663","0"],
    [63477,"2017-08-02T16:00:00","46.4","ND","ND","ND","52.5","0.3","ND","ND","ND","ND","669","0"],
    [63478,"2017-08-02T17:00:00","60.5","ND","ND","ND","42.1","0.3","ND","ND","ND","ND","623","0"],
    [63479,"2017-08-02T18:00:00","38.5","ND","ND","ND","32.5","0.3","ND","ND","ND","ND","225","0"],
    [63480,"2017-08-02T19:00:00","ND","ND","ND","ND","16.3","0.5","ND","ND","ND","ND","7","0"],
    [63481,"2017-08-02T20:00:00","ND","ND","ND","ND","4.2","0.6","ND","ND","ND","ND","0","0"],
    [63482,"2017-08-02T21:00:00","93.6","ND","ND","ND","0.5","0.6","ND","ND","ND","ND","0","0"],
    [63483,"2017-08-02T22:00:00","131.5","ND","ND","ND","0.0","3.4","ND","ND","ND","ND","0","0"],
    [63484,"2017-08-02T23:00:00","107.6","ND","ND","ND","0.0","1.7","ND","ND","ND","ND","0","0"],
    [63485,"2017-08-03T00:00:00","71.5","ND","ND","ND","0.0","1.1","ND","ND","ND","ND","0","0"],
    [63486,"2017-08-03T01:00:00","43.6","ND","ND","ND","0.0","1.9","ND","ND","ND","ND","0","0"],
    [63487,"2017-08-03T02:00:00","30.2","ND","ND","ND","0.0","1.4","ND","ND","ND","ND","0","0"],
    [63488,"2017-08-03T03:00:00","41.8","ND","ND","ND","0.0","1.4","ND","ND","ND","ND","0","0"],
    [63489,"2017-08-03T04:00:00","32.8","ND","ND","ND","0.1","1.1","ND","ND","ND","ND","0","0"],
    [63490,"2017-08-03T05:00:00","40.6","ND","ND","ND","0.0","3.7","ND","ND","ND","ND","0","0"],
    [63491,"2017-08-03T06:00:00","53.9","ND","ND","ND","0.0","1.5","ND","ND","ND","ND","0","0"],
    [63492,"2017-08-03T07:00:00","67.8","ND","ND","ND","0.2","2.6","ND","ND","ND","ND","130","0"],
    [63493,"2017-08-03T08:00:00","107.4","ND","ND","ND","3.3","5.1","ND","ND","ND","ND","565","0"],
    [63494,"2017-08-03T09:00:00","98.6","ND","ND","ND","22.3","2.3","ND","ND","ND","ND","664","0"],
    [63495,"2017-08-03T10:00:00","63.6","ND","ND","ND","50.9","0.8","ND","ND","ND","ND","664","0"],
    [63496,"2017-08-03T11:00:00","48.6","ND","ND","ND","103.7","0.6","ND","ND","ND","ND","665","0"],
    [63497,"2017-08-03T12:00:00","45.5","ND","ND","ND","125.9","0.3","ND","ND","ND","ND","665","0"],
    [63498,"2017-08-03T13:00:00","33.8","ND","ND","ND","132.5","0.3","ND","ND","ND","ND","665","0"],
    [63499,"2017-08-03T14:00:00","41.4","ND","ND","ND","151.6","0.1","ND","ND","ND","ND","662","0"],
    [63500,"2017-08-03T15:00:00","44","ND","ND","ND","141.3","0.3","ND","ND","ND","ND","652","0"],
    [63501,"2017-08-03T16:00:00","52.8","ND","ND","ND","86.4","0.1","ND","ND","ND","ND","665","0"],
    [63502,"2017-08-03T17:00:00","45.4","ND","ND","ND","60.8","0.4","ND","ND","ND","ND","646","0"],
    [63503,"2017-08-03T18:00:00","34.3","ND","ND","ND","49.0","0.1","ND","ND","ND","ND","215","0"],
    [63504,"2017-08-03T19:00:00","16.7","ND","ND","ND","45.3","0.1","ND","ND","ND","ND","8","0"],
    [63505,"2017-08-03T20:00:00","40","ND","ND","ND","25.2","0.4","ND","ND","ND","ND","0","0"],
    [63506,"2017-08-03T21:00:00","46.2","ND","ND","ND","2.3","1.0","ND","ND","ND","ND","0","0"],
    [63507,"2017-08-03T22:00:00","40.5","ND","ND","ND","5.1","0.7","ND","ND","ND","ND","0","0"],
    [63508,"2017-08-03T23:00:00","27.5","ND","ND","ND","14.4","0.9","ND","ND","ND","ND","0","0"],
    [63509,"2017-08-04T00:00:00","17.5","ND","ND","ND","4.6","1.5","ND","ND","ND","ND","0","3.56"],
    [63510,"2017-08-04T01:00:00","18.9","ND","ND","ND","0.0","1.4","ND","ND","ND","ND","0","8.13"],
    [63511,"2017-08-04T02:00:00","29.9","ND","ND","ND","0.0","0.7","ND","ND","ND","ND","0","0"],
    [63512,"2017-08-04T03:00:00","30.8","ND","ND","ND","0.0","0.9","ND","ND","ND","ND","0","0"],
    [63513,"2017-08-04T04:00:00","25","ND","ND","ND","0.0","0.7","ND","ND","ND","ND","0","0.25"],
    [63514,"2017-08-04T05:00:00","24.7","ND","ND","ND","0.0","0.8","ND","ND","ND","ND","0","0"],
    [63515,"2017-08-04T06:00:00","37.5","ND","ND","ND","0.0","2.0","ND","ND","ND","ND","0","0"],
    [63516,"2017-08-04T07:00:00","48.9","ND","ND","ND","0.0","2.6","ND","ND","ND","ND","65","0"],
    [63517,"2017-08-04T08:00:00","77.5","ND","ND","ND","0.0","4.4","ND","ND","ND","ND","276","0"],
    [63518,"2017-08-04T09:00:00","89.4","ND","ND","ND","0.3","3.0","ND","ND","ND","ND","507","0"],
    [63519,"2017-08-04T10:00:00","86.4","ND","ND","ND","13.6","1.0","ND","ND","ND","ND","659","0"],
    [63520,"2017-08-04T11:00:00","54.2","ND","ND","ND","52.4","0.7","ND","ND","ND","ND","664","0"],
    [63521,"2017-08-04T12:00:00","34","ND","ND","ND","82.0","0.3","ND","ND","ND","ND","597","0"],
    [63522,"2017-08-04T13:00:00","27.2","ND","ND","ND","55.7","0.3","ND","ND","ND","ND","579","0"],
    [63523,"2017-08-04T14:00:00","21","ND","ND","ND","31.2","0.3","ND","ND","ND","ND","579","0"],
    [63524,"2017-08-04T15:00:00","16.6","ND","ND","ND","45.6","0.4","ND","ND","ND","ND","664","0"],
    [63525,"2017-08-04T16:00:00","ND","ND","ND","ND","34.9","0.5","ND","ND","ND","ND","659","0"],
    [63526,"2017-08-04T17:00:00","ND","ND","ND","ND","31.3","0.7","ND","ND","ND","ND","581","0"],
    [63527,"2017-08-04T18:00:00","ND","ND","ND","ND","25.3","0.8","ND","ND","ND","ND","261","0"],
    [63528,"2017-08-04T19:00:00","ND","ND","ND","ND","10.2","3.0","ND","ND","ND","ND","11","0"],
    [63529,"2017-08-04T20:00:00","37.9","ND","ND","ND","0.6","3.7","ND","ND","ND","ND","0","0"],
    [63530,"2017-08-04T21:00:00","93.1","ND","ND","ND","0.1","0.7","ND","ND","ND","ND","0","0"],
    [63531,"2017-08-04T22:00:00","62.3","ND","ND","ND","0.0","1.0","ND","ND","ND","ND","0","0"],
    [63532,"2017-08-04T23:00:00","34.5","ND","ND","ND","0.2","0.7","ND","ND","ND","ND","0","0"],
    [63533,"2017-08-05T00:00:00","14.1","ND","ND","ND","0.0","0.8","ND","ND","ND","ND","0","0"],
    [63534,"2017-08-05T01:00:00","15.2","ND","ND","ND","0.0","0.6","ND","ND","ND","ND","0","0"],
    [63535,"2017-08-05T02:00:00","33","ND","ND","ND","0.1","3.0","ND","ND","ND","ND","0","0"],
    [63536,"2017-08-05T03:00:00","110","ND","ND","ND","0.0","3.2","ND","ND","ND","ND","0","0"],
    [63537,"2017-08-05T04:00:00","53.4","ND","ND","ND","0.0","3.8","ND","ND","ND","ND","0","0"],
    [63538,"2017-08-05T05:00:00","24.2","ND","ND","ND","0.0","2.2","ND","ND","ND","ND","0","0"],
    [63539,"2017-08-05T06:00:00","26.1","ND","ND","ND","0.0","2.8","ND","ND","ND","ND","0","0"],
    [63540,"2017-08-05T07:00:00","85.5","ND","ND","ND","0.0","5.0","ND","ND","ND","ND","110","0"],
    [63541,"2017-08-05T08:00:00","114","ND","ND","ND","0.2","3.0","ND","ND","ND","ND","473","0"],
    [63542,"2017-08-05T09:00:00","124.1","ND","ND","ND","11.2","2.3","ND","ND","ND","ND","656","0"],
    [63543,"2017-08-05T10:00:00","100.1","ND","ND","ND","47.9","1.6","ND","ND","ND","ND","664","0"],
    [63544,"2017-08-05T11:00:00","67.3","ND","ND","ND","97.3","0.6","ND","ND","ND","ND","664","0"],
    [63545,"2017-08-05T12:00:00","44.2","ND","ND","ND","124.6","1.1","ND","ND","ND","ND","665","0"],
    [63546,"2017-08-05T13:00:00","46.9","ND","ND","ND","135.3","1.0","ND","ND","ND","ND","665","0"],
    [63547,"2017-08-05T14:00:00","40.8","ND","ND","ND","148.1","0.6","ND","ND","ND","ND","665","0"],
    [63548,"2017-08-05T15:00:00","44.6","ND","ND","ND","122.7","0.6","ND","ND","ND","ND","665","0"],
    [63549,"2017-08-05T16:00:00","33.6","ND","ND","ND","106.0","0.6","ND","ND","ND","ND","540","0"],
    [63550,"2017-08-05T17:00:00","22.7","ND","ND","ND","52.4","0.2","ND","ND","ND","ND","544","0"],
    [63551,"2017-08-05T18:00:00","11.7","ND","ND","ND","44.8","0.3","ND","ND","ND","ND","344","0"],
    [63552,"2017-08-05T19:00:00","1.7","ND","ND","ND","34.6","0.3","ND","ND","ND","ND","21","0"],
    [63553,"2017-08-05T20:00:00","4.1","ND","ND","ND","24.5","0.3","ND","ND","ND","ND","0","0"],
    [63554,"2017-08-05T21:00:00","32.9","ND","ND","ND","3.6","1.4","ND","ND","ND","ND","0","0"],
    [63555,"2017-08-05T22:00:00","34.2","ND","ND","ND","0.8","3.3","ND","ND","ND","ND","0","0"],
    [63556,"2017-08-05T23:00:00","33.4","ND","ND","ND","0.1","1.8","ND","ND","ND","ND","0","0"],
    [63557,"2017-08-06T00:00:00","40.4","ND","ND","ND","1.9","1.5","ND","ND","ND","ND","0","0"],
    [63558,"2017-08-06T01:00:00","56.7","ND","ND","ND","0.6","1.0","ND","ND","ND","ND","0","0"],
    [63559,"2017-08-06T02:00:00","42.5","ND","ND","ND","0.5","1.7","ND","ND","ND","ND","0","0"],
    [63560,"2017-08-06T03:00:00","39.3","ND","ND","ND","3.0","2.2","ND","ND","ND","ND","0","0"],
    [63561,"2017-08-06T04:00:00","46.4","ND","ND","ND","0.6","2.3","ND","ND","ND","ND","0","0"],
    [63562,"2017-08-06T05:00:00","38","ND","ND","ND","3.8","1.4","ND","ND","ND","ND","0","0"],
    [63563,"2017-08-06T06:00:00","40.2","ND","ND","ND","0.7","2.7","ND","ND","ND","ND","0","0"],
    [63564,"2017-08-06T07:00:00","51.7","ND","ND","ND","0.0","1.1","ND","ND","ND","ND","107","0"],
    [63565,"2017-08-06T08:00:00","50.3","ND","ND","ND","4.4","2.0","ND","ND","ND","ND","569","0"],
    [63566,"2017-08-06T09:00:00","64.3","ND","ND","ND","28.0","2.6","ND","ND","ND","ND","655","0"],
    [63567,"2017-08-06T10:00:00","58","ND","ND","ND","64.1","1.0","ND","ND","ND","ND","664","0"],
    [63568,"2017-08-06T11:00:00","40.9","ND","ND","ND","94.7","0.3","ND","ND","ND","ND","665","0"],
    [63569,"2017-08-06T12:00:00","33","ND","ND","ND","113.7","0.2","ND","ND","ND","ND","665","0"],
    [63570,"2017-08-06T13:00:00","42.9","ND","ND","ND","120.8","0.2","ND","ND","ND","ND","665","0"],
    [63571,"2017-08-06T14:00:00","40","ND","ND","ND","124.7","0.2","ND","ND","ND","ND","665","0"],
    [63572,"2017-08-06T15:00:00","30.4","ND","ND","ND","119.0","0.3","ND","ND","ND","ND","665","0"],
    [63573,"2017-08-06T16:00:00","33.7","ND","ND","ND","83.1","0.2","ND","ND","ND","ND","568","0"],
    [63574,"2017-08-06T17:00:00","17.3","ND","ND","ND","65.9","0.2","ND","ND","ND","ND","568","0"],
    [63575,"2017-08-06T18:00:00","8.2","ND","ND","ND","51.4","0.4","ND","ND","ND","ND","296","0"],
    [63576,"2017-08-06T19:00:00","ND","ND","ND","ND","33.7","0.3","ND","ND","ND","ND","7","0"],
    [63577,"2017-08-06T20:00:00","2.4","ND","ND","ND","16.8","0.5","ND","ND","ND","ND","0","0"],
    [63578,"2017-08-06T21:00:00","25.3","ND","ND","ND","0.1","3.3","ND","ND","ND","ND","0","0"],
    [63579,"2017-08-06T22:00:00","55.8","ND","ND","ND","0.2","3.1","ND","ND","ND","ND","0","0"],
    [63580,"2017-08-06T23:00:00","57.5","ND","ND","ND","0.0","2.0","ND","ND","ND","ND","0","0"],
    [63581,"2017-08-07T00:00:00","56.3","ND","ND","ND","0.0","2.6","ND","ND","ND","ND","0","0"],
    [63582,"2017-08-07T01:00:00","65.4","ND","ND","ND","1.1","2.3","ND","ND","ND","ND","0","0"],
    [63583,"2017-08-07T02:00:00","69.6","ND","ND","ND","6.1","2.3","ND","ND","ND","ND","0","0"],
    [63584,"2017-08-07T03:00:00","65.6","ND","ND","ND","3.1","2.6","ND","ND","ND","ND","0","0"],
    [63585,"2017-08-07T04:00:00","57.5","ND","ND","ND","3.4","1.8","ND","ND","ND","ND","0","0"],
    [63586,"2017-08-07T05:00:00","70.5","ND","ND","ND","4.4","1.8","ND","ND","ND","ND","0","0"],
    [63587,"2017-08-07T06:00:00","66.4","ND","ND","ND","2.7","2.2","ND","ND","ND","ND","0","0"],
    [63588,"2017-08-07T07:00:00","52.2","ND","ND","ND","0.3","3.1","ND","ND","ND","ND","95","0"],
    [63589,"2017-08-07T08:00:00","54.5","ND","ND","ND","4.6","2.2","ND","ND","ND","ND","472","0"],
    [63590,"2017-08-07T09:00:00","61.9","ND","ND","ND","23.3","2.1","ND","ND","ND","ND","628","0"],
    [63591,"2017-08-07T10:00:00","55.4","ND","ND","ND","57.6","1.0","ND","ND","ND","ND","664","0"],
    [63592,"2017-08-07T11:00:00","40.9","ND","ND","ND","70.5","0.3","ND","ND","ND","ND","665","0"],
    [63593,"2017-08-07T12:00:00","22.8","ND","ND","ND","87.7","0.3","ND","ND","ND","ND","665","0"],
    [63594,"2017-08-07T13:00:00","23.3","ND","ND","ND","103.5","0.5","ND","ND","ND","ND","665","0"],
    [63595,"2017-08-07T14:00:00","33","ND","ND","ND","109.7","0.4","ND","ND","ND","ND","666","0"],
    [63596,"2017-08-07T15:00:00","51","ND","ND","ND","96.8","0.4","ND","ND","ND","ND","669","0"],
    [63597,"2017-08-07T16:00:00","46.9","ND","ND","ND","56.0","0.2","ND","ND","ND","ND","671","0"],
    [63598,"2017-08-07T17:00:00","44.3","ND","ND","ND","48.0","ND","ND","ND","ND","ND","667","0"],
    [63599,"2017-08-07T18:00:00","44.4","ND","ND","ND","42.4","ND","ND","ND","ND","ND","257","0"],
    [63600,"2017-08-07T19:00:00","34.9","ND","ND","ND","30.8","ND","ND","ND","ND","ND","8","0"],
    [63601,"2017-08-07T20:00:00","30.9","ND","ND","ND","23.1","ND","ND","ND","ND","ND","0","0"],
    [63602,"2017-08-07T21:00:00","25.9","ND","ND","ND","16.5","ND","ND","ND","ND","ND","0","0"],
    [63603,"2017-08-07T22:00:00","40.8","ND","ND","ND","13.3","ND","ND","ND","ND","ND","0","0"],
    [63604,"2017-08-07T23:00:00","4.5","ND","ND","ND","5.8","1.4","ND","ND","ND","ND","0","0"],
    [63605,"2017-08-08T00:00:00","ND","ND","ND","ND","7.4","0.7","ND","ND","ND","ND","0","0"],
    [63606,"2017-08-08T01:00:00","129.7","ND","ND","ND","6.0","1.9","ND","ND","ND","ND","0","0"],
    [63607,"2017-08-08T02:00:00","ND","ND","ND","ND","6.3","1.7","ND","ND","ND","ND","0","0"],
    [63608,"2017-08-08T03:00:00","115.4","ND","ND","ND","9.9","2.8","ND","ND","ND","ND","0","0"],
    [63609,"2017-08-08T04:00:00","51.3","ND","ND","ND","6.9","2.6","ND","ND","ND","ND","0","0"],
    [63610,"2017-08-08T05:00:00","43","ND","ND","ND","1.3","1.8","ND","ND","ND","ND","0","0"],
    [63611,"2017-08-08T06:00:00","39.9","ND","ND","ND","0.7","1.4","ND","ND","ND","ND","0","0"],
    [63612,"2017-08-08T07:00:00","53.3","ND","ND","ND","0.0","1.9","ND","ND","ND","ND","125","0"],
    [63613,"2017-08-08T08:00:00","51.5","ND","ND","ND","3.4","1.8","ND","ND","ND","ND","537","0"],
    [63614,"2017-08-08T09:00:00","38.4","ND","ND","ND","25.1","0.9","ND","ND","ND","ND","644","0"],
    [63615,"2017-08-08T10:00:00","33.6","ND","ND","ND","50.9","0.9","ND","ND","ND","ND","650","0"],
    [63616,"2017-08-08T11:00:00","34","ND","ND","ND","56.4","0.4","ND","ND","ND","ND","664","0"],
    [63617,"2017-08-08T12:00:00","38.5","ND","ND","ND","87.4","0.5","ND","ND","ND","ND","665","0"],
    [63618,"2017-08-08T13:00:00","42.7","ND","ND","ND","122.8","0.5","ND","ND","ND","ND","665","0"],
    [63619,"2017-08-08T14:00:00","35.9","ND","ND","ND","137.9","0.4","ND","ND","ND","ND","665","0"],
    [63620,"2017-08-08T15:00:00","28","ND","ND","ND","135.1","0.4","ND","ND","ND","ND","647","0"],
    [63621,"2017-08-08T16:00:00","29.7","ND","ND","ND","107.2","0.2","ND","ND","ND","ND","550","0"],
    [63622,"2017-08-08T17:00:00","36.7","ND","ND","ND","85.5","0.2","ND","ND","ND","ND","557","0"],
    [63623,"2017-08-08T18:00:00","26.5","ND","ND","ND","60.8","0.3","ND","ND","ND","ND","162","0"],
    [63624,"2017-08-08T19:00:00","0.7","ND","ND","ND","34.9","0.4","ND","ND","ND","ND","6","0"],
    [63625,"2017-08-08T20:00:00","8.5","ND","ND","ND","32.5","0.5","ND","ND","ND","ND","0","0"],
    [63626,"2017-08-08T21:00:00","44.2","ND","ND","ND","6.6","1.5","ND","ND","ND","ND","0","0"],
    [63627,"2017-08-08T22:00:00","55.9","ND","ND","ND","0.4","2.1","ND","ND","ND","ND","0","0"],
    [63628,"2017-08-08T23:00:00","44.4","ND","ND","ND","0.2","2.7","ND","ND","ND","ND","0","0"],
    [63629,"2017-08-09T00:00:00","34.5","ND","ND","ND","1.2","2.8","ND","ND","ND","ND","0","0"],
    [63630,"2017-08-09T01:00:00","32.9","ND","ND","ND","0.8","3.6","ND","ND","ND","ND","0","0"],
    [63631,"2017-08-09T02:00:00","50.3","ND","ND","ND","3.4","2.6","ND","ND","ND","ND","0","0"],
    [63632,"2017-08-09T03:00:00","38.4","ND","ND","ND","3.9","1.2","ND","ND","ND","ND","0","0"],
    [63633,"2017-08-09T04:00:00","34.3","ND","ND","ND","4.2","0.8","ND","ND","ND","ND","0","0"],
    [63634,"2017-08-09T05:00:00","33.5","ND","ND","ND","2.2","0.8","ND","ND","ND","ND","0","0"],
    [63635,"2017-08-09T06:00:00","23.3","ND","ND","ND","0.0","1.3","ND","ND","ND","ND","0","0"],
    [63636,"2017-08-09T07:00:00","38.1","ND","ND","ND","0.0","1.9","ND","ND","ND","ND","50","0"],
    [63637,"2017-08-09T08:00:00","58.9","ND","ND","ND","0.1","2.2","ND","ND","ND","ND","247","0"],
    [63638,"2017-08-09T09:00:00","61.5","ND","ND","ND","1.6","1.8","ND","ND","ND","ND","452","0"],
    [63639,"2017-08-09T10:00:00","56.9","ND","ND","ND","16.2","1.5","ND","ND","ND","ND","658","0"],
    [63640,"2017-08-09T11:00:00","45.3","ND","ND","ND","31.9","1.2","ND","ND","ND","ND","664","0"],
    [63641,"2017-08-09T12:00:00","37.8","ND","ND","ND","40.7","0.6","ND","ND","ND","ND","665","0"],
    [63642,"2017-08-09T13:00:00","21.8","ND","ND","ND","79.2","0.4","ND","ND","ND","ND","665","0"],
    [63643,"2017-08-09T14:00:00","16.5","ND","ND","ND","87.8","0.1","ND","ND","ND","ND","665","0"],
    [63644,"2017-08-09T15:00:00","18.8","ND","ND","ND","72.4","0.3","ND","ND","ND","ND","518","0"],
    [63645,"2017-08-09T16:00:00","22.5","ND","ND","ND","65.0","0.2","ND","ND","ND","ND","229","0"],
    [63646,"2017-08-09T17:00:00","32.3","ND","ND","ND","28.5","0.3","ND","ND","ND","ND","78","0.25"],
    [63647,"2017-08-09T18:00:00","13.9","ND","ND","ND","1.6","0.2","ND","ND","ND","ND","159","0"],
    [63648,"2017-08-09T19:00:00","30.8","ND","ND","ND","0.1","0.6","ND","ND","ND","ND","9","0"],
    [63649,"2017-08-09T20:00:00","30.3","ND","ND","ND","0.0","1.2","ND","ND","ND","ND","0","0"],
    [63650,"2017-08-09T21:00:00","49.4","ND","ND","ND","0.0","0.9","ND","ND","ND","ND","0","0"],
    [63651,"2017-08-09T22:00:00","54.1","ND","ND","ND","0.0","0.8","ND","ND","ND","ND","0","0"],
    [63652,"2017-08-09T23:00:00","29.9","ND","ND","ND","0.0","1.6","ND","ND","ND","ND","0","0"],
    [63653,"2017-08-10T00:00:00","23.2","ND","ND","ND","0.0","2.3","ND","ND","ND","ND","0","0"],
    [63654,"2017-08-10T01:00:00","32.4","ND","ND","ND","0.0","1.0","ND","ND","ND","ND","0","0"],
    [63655,"2017-08-10T02:00:00","ND","ND","ND","ND","0.0","0.7","ND","ND","ND","ND","0","0"],
    [63656,"2017-08-10T03:00:00","9.6","ND","ND","ND","0.0","0.8","ND","ND","ND","ND","0","0"],
    [63657,"2017-08-10T04:00:00","49.1","ND","ND","ND","0.0","4.3","ND","ND","ND","ND","0","0"],
    [63658,"2017-08-10T05:00:00","66.7","ND","ND","ND","0.0","4.5","ND","ND","ND","ND","0","0"],
    [63659,"2017-08-10T06:00:00","65.5","ND","ND","ND","0.0","2.6","ND","ND","ND","ND","0","0"],
    [63660,"2017-08-10T07:00:00","80.1","ND","ND","ND","0.0","2.0","ND","ND","ND","ND","81","0"],
    [63661,"2017-08-10T08:00:00","69.3","ND","ND","ND","0.1","2.4","ND","ND","ND","ND","319","0"],
    [63662,"2017-08-10T09:00:00","77.6","ND","ND","ND","2.4","3.8","ND","ND","ND","ND","546","0"],
    [63663,"2017-08-10T10:00:00","89.8","ND","ND","ND","37.9","0.7","ND","ND","ND","ND","664","0"],
    [63664,"2017-08-10T11:00:00","62.2","ND","ND","ND","76.7","0.6","ND","ND","ND","ND","660","0"],
    [63665,"2017-08-10T12:00:00","38","ND","ND","ND","105.9","0.5","ND","ND","ND","ND","665","0"],
    [63666,"2017-08-10T13:00:00","42.5","ND","ND","ND","131.5","0.3","ND","ND","ND","ND","665","0"],
    [63667,"2017-08-10T14:00:00","44","ND","ND","ND","167.8","0.3","ND","ND","ND","ND","665","0"],
    [63668,"2017-08-10T15:00:00","41.4","ND","ND","ND","158.4","0.2","ND","ND","ND","ND","659","0"],
    [63669,"2017-08-10T16:00:00","35.8","ND","ND","ND","109.2","0.4","ND","ND","ND","ND","650","0"],
    [63670,"2017-08-10T17:00:00","30.6","ND","ND","ND","70.2","0.5","ND","ND","ND","ND","645","0"],
    [63671,"2017-08-10T18:00:00","21.3","ND","ND","ND","63.5","0.1","ND","ND","ND","ND","114","0"],
    [63672,"2017-08-10T19:00:00","ND","ND","ND","ND","34.2","0.3","ND","ND","ND","ND","0","0"],
    [63673,"2017-08-10T20:00:00","14.7","ND","ND","ND","21.9","0.3","ND","ND","ND","ND","0","0"],
    [63674,"2017-08-10T21:00:00","37.2","ND","ND","ND","6.5","0.5","ND","ND","ND","ND","0","0"],
    [63675,"2017-08-10T22:00:00","46.2","ND","ND","ND","2.8","1.2","ND","ND","ND","ND","0","0"],
    [63676,"2017-08-10T23:00:00","42.8","ND","ND","ND","0.0","3.7","ND","ND","ND","ND","0","0"],
    [63677,"2017-08-11T00:00:00","38.1","ND","ND","ND","0.0","4.4","ND","ND","ND","ND","0","0"],
    [63678,"2017-08-11T01:00:00","27.2","ND","ND","ND","0.5","1.6","ND","ND","ND","ND","0","0"],
    [63679,"2017-08-11T02:00:00","25.3","ND","ND","ND","4.1","1.3","ND","ND","ND","ND","0","0"],
    [63680,"2017-08-11T03:00:00","34.9","ND","ND","ND","2.8","1.1","ND","ND","ND","ND","0","0"],
    [63681,"2017-08-11T04:00:00","38.3","ND","ND","ND","1.8","0.9","ND","ND","ND","ND","0","0"],
    [63682,"2017-08-11T05:00:00","35.4","ND","ND","ND","0.8","1.2","ND","ND","ND","ND","0","0"],
    [63683,"2017-08-11T06:00:00","40.5","ND","ND","ND","0.0","1.6","ND","ND","ND","ND","0","0"],
    [63684,"2017-08-11T07:00:00","32.7","ND","ND","ND","0.0","0.7","ND","ND","ND","ND","17","0"],
    [63685,"2017-08-11T08:00:00","28.1","ND","ND","ND","0.0","0.8","ND","ND","ND","ND","105","0"],
    [63686,"2017-08-11T09:00:00","19.5","ND","ND","ND","0.0","0.9","ND","ND","ND","ND","324","0"],
    [63687,"2017-08-11T10:00:00","18.6","ND","ND","ND","0.4","0.5","ND","ND","ND","ND","90","0"],
    [63688,"2017-08-11T11:00:00","8.7","ND","ND","ND","7.4","0.4","ND","ND","ND","ND","497","0"],
    [63689,"2017-08-11T12:00:00","9.5","ND","ND","ND","22.3","0.4","ND","ND","ND","ND","554","0"],
    [63690,"2017-08-11T13:00:00","21.4","ND","ND","ND","56.1","0.5","ND","ND","ND","ND","664","0"],
    [63691,"2017-08-11T14:00:00","20.5","ND","ND","ND","81.8","0.3","ND","ND","ND","ND","664","0"],
    [63692,"2017-08-11T15:00:00","19.2","ND","ND","ND","100.6","0.5","ND","ND","ND","ND","650","0"],
    [63693,"2017-08-11T16:00:00","21","ND","ND","ND","111.2","0.3","ND","ND","ND","ND","457","0"],
    [63694,"2017-08-11T17:00:00","37.9","ND","ND","ND","71.9","0.2","ND","ND","ND","ND","193","0"],
    [63695,"2017-08-11T18:00:00","3.3","ND","ND","ND","12.7","0.2","ND","ND","ND","ND","183","0"],
    [63696,"2017-08-11T19:00:00","ND","ND","ND","ND","3.0","0.3","ND","ND","ND","ND","10","0"],
    [63697,"2017-08-11T20:00:00","28.8","ND","ND","ND","0.2","0.7","ND","ND","ND","ND","0","0"],
    [63698,"2017-08-11T21:00:00","63.9","ND","ND","ND","0.3","0.3","ND","ND","ND","ND","0","0"],
    [63699,"2017-08-11T22:00:00","63.9","ND","ND","ND","0.0","0.8","ND","ND","ND","ND","0","0"],
    [63700,"2017-08-11T23:00:00","43.2","ND","ND","ND","0.0","2.2","ND","ND","ND","ND","0","0"],
    [63701,"2017-08-12T00:00:00","37.9","ND","ND","ND","0.0","1.0","ND","ND","ND","ND","0","0"],
    [63702,"2017-08-12T01:00:00","24.6","ND","ND","ND","0.0","0.5","ND","ND","ND","ND","0","0"],
    [63703,"2017-08-12T02:00:00","10.7","ND","ND","ND","0.0","0.3","ND","ND","ND","ND","0","0"],
    [63704,"2017-08-12T03:00:00","28.4","ND","ND","ND","0.0","0.9","ND","ND","ND","ND","0","0"],
    [63705,"2017-08-12T04:00:00","52.3","ND","ND","ND","0.0","0.8","ND","ND","ND","ND","0","0"],
    [63706,"2017-08-12T05:00:00","46","ND","ND","ND","0.0","3.3","ND","ND","ND","ND","0","0"],
    [63707,"2017-08-12T06:00:00","64.2","ND","ND","ND","0.0","3.0","ND","ND","ND","ND","0","0"],
    [63708,"2017-08-12T07:00:00","79.3","ND","ND","ND","0.0","3.0","ND","ND","ND","ND","107","0"],
    [63709,"2017-08-12T08:00:00","72.8","ND","ND","ND","0.2","2.3","ND","ND","ND","ND","357","0"],
    [63710,"2017-08-12T09:00:00","49.9","ND","ND","ND","3.9","1.7","ND","ND","ND","ND","615","0"],
    [63711,"2017-08-12T10:00:00","36.4","ND","ND","ND","9.4","1.3","ND","ND","ND","ND","664","0"],
    [63712,"2017-08-12T11:00:00","38.2","ND","ND","ND","31.2","1.3","ND","ND","ND","ND","664","0"],
    [63713,"2017-08-12T12:00:00","30","ND","ND","ND","87.8","0.5","ND","ND","ND","ND","666","0"],
    [63714,"2017-08-12T13:00:00","67.7","ND","ND","ND","123.5","0.8","ND","ND","ND","ND","668","0"],
    [63715,"2017-08-12T14:00:00","85.4","ND","ND","ND","141.2","0.7","ND","ND","ND","ND","670","0"],
    [63716,"2017-08-12T15:00:00","67.2","ND","ND","ND","107.9","0.9","ND","ND","ND","ND","671","0"],
    [63717,"2017-08-12T16:00:00","57.4","ND","ND","ND","66.6","ND","ND","ND","ND","ND","610","0"],
    [63718,"2017-08-12T17:00:00","36.2","ND","ND","ND","30.7","ND","ND","ND","ND","ND","257","0"],
    [63719,"2017-08-12T18:00:00","32.5","ND","ND","ND","22.5","ND","ND","ND","ND","ND","77","0"],
    [63720,"2017-08-12T19:00:00","25.2","ND","ND","ND","18.9","ND","ND","ND","ND","ND","6","0"],
    [63721,"2017-08-12T20:00:00","28.7","ND","ND","ND","3.6","ND","ND","ND","ND","ND","0","0"],
    [63722,"2017-08-12T21:00:00","44.4","ND","ND","ND","0.9","ND","ND","ND","ND","ND","0","0"],
    [63723,"2017-08-12T22:00:00","45.8","ND","ND","ND","0.6","ND","ND","ND","ND","ND","0","0"],
    [63724,"2017-08-12T23:00:00","63.5","ND","ND","ND","0.1","1.9","ND","ND","ND","ND","0","0"],
    [63725,"2017-08-13T00:00:00","ND","ND","ND","ND","ND","2.7","ND","ND","ND","ND","0","0"],
    [63726,"2017-08-13T01:00:00","ND","ND","ND","ND","ND","1.9","ND","ND","ND","ND","0","0"],
    [63727,"2017-08-13T02:00:00","124.6","ND","ND","ND","0.0","1.5","ND","ND","ND","ND","0","0"],
    [63728,"2017-08-13T03:00:00","ND","ND","ND","ND","1.1","1.8","ND","ND","ND","ND","0","0"],
    [63729,"2017-08-13T04:00:00","136.1","ND","ND","ND","1.0","3.7","ND","ND","ND","ND","0","0"],
    [63730,"2017-08-13T05:00:00","109.8","ND","ND","ND","0.0","3.2","ND","ND","ND","ND","0","0"],
    [63731,"2017-08-13T06:00:00","68.1","ND","ND","ND","0.0","2.4","ND","ND","ND","ND","0","0"],
    [63732,"2017-08-13T07:00:00","36.4","ND","ND","ND","0.0","1.8","ND","ND","ND","ND","136","0"],
    [63733,"2017-08-13T08:00:00","27.4","ND","ND","ND","0.0","1.4","ND","ND","ND","ND","325","0"],
    [63734,"2017-08-13T09:00:00","29.9","ND","ND","ND","7.3","1.4","ND","ND","ND","ND","651","0"],
    [63735,"2017-08-13T10:00:00","36.9","ND","ND","ND","39.3","0.7","ND","ND","ND","ND","636","0"],
    [63736,"2017-08-13T11:00:00","38.6","ND","ND","ND","71.8","0.6","ND","ND","ND","ND","655","0"],
    [63737,"2017-08-13T12:00:00","35.1","ND","ND","ND","107.6","0.5","ND","ND","ND","ND","665","0"],
    [63738,"2017-08-13T13:00:00","35.6","ND","ND","ND","127.0","0.4","ND","ND","ND","ND","665","0"],
    [63739,"2017-08-13T14:00:00","32.7","ND","ND","ND","119.1","0.5","ND","ND","ND","ND","665","0"],
    [63740,"2017-08-13T15:00:00","24.8","ND","ND","ND","76.6","0.4","ND","ND","ND","ND","643","0"],
    [63741,"2017-08-13T16:00:00","5.4","ND","ND","ND","47.1","0.2","ND","ND","ND","ND","648","0"],
    [63742,"2017-08-13T17:00:00","1","ND","ND","ND","48.8","0.2","ND","ND","ND","ND","566","0"],
    [63743,"2017-08-13T18:00:00","ND","ND","ND","ND","40.9","0.2","ND","ND","ND","ND","205","0"],
    [63744,"2017-08-13T19:00:00","ND","ND","ND","ND","27.8","0.2","ND","ND","ND","ND","9","0"],
    [63745,"2017-08-13T20:00:00","13.5","ND","ND","ND","0.5","0.4","ND","ND","ND","ND","0","0"],
    [63746,"2017-08-13T21:00:00","57","ND","ND","ND","6.7","0.5","ND","ND","ND","ND","0","0"],
    [63747,"2017-08-13T22:00:00","53","ND","ND","ND","0.6","3.8","ND","ND","ND","ND","0","0"],
    [63748,"2017-08-13T23:00:00","77.9","ND","ND","ND","0.3","2.4","ND","ND","ND","ND","0","0"],
    [63749,"2017-08-14T00:00:00","47.8","ND","ND","ND","0.0","3.3","ND","ND","ND","ND","0","0"],
    [63750,"2017-08-14T01:00:00","15.2","ND","ND","ND","0.0","1.3","ND","ND","ND","ND","0","0"],
    [63751,"2017-08-14T02:00:00","15","ND","ND","ND","0.2","1.4","ND","ND","ND","ND","0","0"],
    [63752,"2017-08-14T03:00:00","27.1","ND","ND","ND","0.1","1.3","ND","ND","ND","ND","0","0"],
    [63753,"2017-08-14T04:00:00","17.6","ND","ND","ND","0.0","1.0","ND","ND","ND","ND","0","0"],
    [63754,"2017-08-14T05:00:00","16.8","ND","ND","ND","0.0","0.6","ND","ND","ND","ND","0","0"],
    [63755,"2017-08-14T06:00:00","20.1","ND","ND","ND","0.0","0.9","ND","ND","ND","ND","0","0"],
    [63756,"2017-08-14T07:00:00","45.8","ND","ND","ND","0.0","2.2","ND","ND","ND","ND","110","0"],
    [63757,"2017-08-14T08:00:00","65.6","ND","ND","ND","1.5","2.4","ND","ND","ND","ND","467","0"],
    [63758,"2017-08-14T09:00:00","71.5","ND","ND","ND","17.2","1.5","ND","ND","ND","ND","662","0"],
    [63759,"2017-08-14T10:00:00","46.2","ND","ND","ND","40.8","0.5","ND","ND","ND","ND","664","0"],
    [63760,"2017-08-14T11:00:00","21.7","ND","ND","ND","63.3","0.3","ND","ND","ND","ND","666","0"],
    [63761,"2017-08-14T12:00:00","ND","ND","ND","ND","ND","ND","ND","ND","ND","ND","ND","ND"],
    [63762,"2017-08-14T13:00:00","ND","ND","ND","ND","ND","ND","ND","ND","ND","ND","ND","ND"],
    [63763,"2017-08-14T14:00:00","ND","ND","ND","ND","ND","ND","ND","ND","ND","ND","ND","ND"],
    [63764,"2017-08-14T15:00:00","ND","ND","ND","ND","ND","ND","ND","ND","ND","ND","ND","ND"],
    [63765,"2017-08-14T16:00:00","ND","ND","ND","ND","ND","ND","ND","ND","ND","ND","ND","ND"],
    [63766,"2017-08-14T17:00:00","ND","ND","ND","ND","ND","ND","ND","ND","ND","ND","ND","ND"],
    [63767,"2017-08-14T18:00:00","ND","ND","ND","ND","ND","ND","ND","ND","ND","ND","ND","ND"],
    [63768,"2017-08-14T19:00:00","ND","ND","ND","ND","ND","ND","ND","ND","ND","ND","ND","ND"],
    [63769,"2017-08-14T20:00:00","ND","ND","ND","ND","ND","ND","ND","ND","ND","ND","ND","ND"],
    [63770,"2017-08-14T21:00:00","ND","ND","ND","ND","ND","ND","ND","ND","ND","ND","ND","ND"],
    [63771,"2017-08-14T22:00:00","ND","ND","ND","ND","ND","ND","ND","ND","ND","ND","ND","ND"],
    [63772,"2017-08-14T23:00:00","ND","ND","ND","ND","ND","ND","ND","ND","ND","ND","ND","ND"],
    [63773,"2017-08-15T00:00:00","ND","ND","ND","ND","ND","ND","ND","ND","ND","ND","ND","ND"],
    [63774,"2017-08-15T01:00:00","ND","ND","ND","ND","ND","ND","ND","ND","ND","ND","ND","ND"],
    [63775,"2017-08-15T02:00:00","ND","ND","ND","ND","ND","ND","ND","ND","ND","ND","ND","ND"],
    [63776,"2017-08-15T03:00:00","ND","ND","ND","ND","ND","ND","ND","ND","ND","ND","ND","ND"],
    [63777,"2017-08-15T04:00:00","ND","ND","ND","ND","ND","ND","ND","ND","ND","ND","ND","ND"],
    [63778,"2017-08-15T05:00:00","ND","ND","ND","ND","ND","ND","ND","ND","ND","ND","ND","ND"],
    [63779,"2017-08-15T06:00:00","ND","ND","ND","ND","ND","ND","ND","ND","ND","ND","ND","ND"],
    [63780,"2017-08-15T07:00:00","ND","ND","ND","ND","ND","ND","ND","ND","ND","ND","ND","ND"],
    [63781,"2017-08-15T08:00:00","ND","ND","ND","ND","ND","ND","ND","ND","ND","ND","ND","ND"],
    [63782,"2017-08-15T09:00:00","ND","ND","ND","ND","ND","ND","ND","ND","ND","ND","ND","ND"],
    [63783,"2017-08-15T10:00:00","ND","ND","ND","ND","ND","ND","ND","ND","ND","ND","ND","ND"],
    [63784,"2017-08-15T11:00:00","ND","ND","ND","ND","ND","ND","ND","ND","ND","ND","ND","ND"],
    [63785,"2017-08-15T12:00:00","ND","ND","ND","ND","ND","ND","ND","ND","ND","ND","ND","ND"],
    [63786,"2017-08-15T13:00:00","ND","ND","ND","ND","ND","ND","ND","ND","ND","ND","ND","ND"],
    [63787,"2017-08-15T14:00:00","ND","ND","ND","ND","ND","ND","ND","ND","ND","ND","ND","ND"],
    [63788,"2017-08-15T15:00:00","ND","ND","ND","ND","ND","ND","ND","ND","ND","ND","ND","ND"],
    [63789,"2017-08-15T16:00:00","ND","ND","ND","ND","ND","ND","ND","ND","ND","ND","ND","ND"],
    [63790,"2017-08-15T17:00:00","ND","ND","ND","ND","ND","ND","ND","ND","ND","ND","ND","ND"],
    [63791,"2017-08-15T18:00:00","ND","ND","ND","ND","ND","ND","ND","ND","ND","ND","ND","ND"],
    [63792,"2017-08-15T19:00:00","ND","ND","ND","ND","ND","ND","ND","ND","ND","ND","ND","ND"],
    [63793,"2017-08-15T20:00:00","ND","ND","ND","ND","ND","ND","ND","ND","ND","ND","ND","ND"],
    [63794,"2017-08-15T21:00:00","ND","ND","ND","ND","ND","ND","ND","ND","ND","ND","ND","ND"],
    [63795,"2017-08-15T22:00:00","ND","ND","ND","ND","ND","ND","ND","ND","ND","ND","ND","ND"],
    [63796,"2017-08-15T23:00:00","ND","ND","ND","ND","ND","ND","ND","ND","ND","ND","ND","ND"],
    [63797,"2017-08-16T00:00:00","ND","ND","ND","ND","ND","ND","ND","ND","ND","ND","ND","ND"],
    [63798,"2017-08-16T01:00:00","ND","ND","ND","ND","ND","ND","ND","ND","ND","ND","ND","ND"],
    [63799,"2017-08-16T02:00:00","ND","ND","ND","ND","ND","ND","ND","ND","ND","ND","ND","ND"],
    [63800,"2017-08-16T03:00:00","ND","ND","ND","ND","ND","ND","ND","ND","ND","ND","ND","ND"],
    [63801,"2017-08-16T04:00:00","ND","ND","ND","ND","ND","ND","ND","ND","ND","ND","ND","ND"],
    [63802,"2017-08-16T05:00:00","ND","ND","ND","ND","ND","ND","ND","ND","ND","ND","ND","ND"],
    [63803,"2017-08-16T06:00:00","ND","ND","ND","ND","ND","ND","ND","ND","ND","ND","ND","ND"],
    [63804,"2017-08-16T07:00:00","ND","ND","ND","ND","ND","ND","ND","ND","ND","ND","ND","ND"],
    [63805,"2017-08-16T08:00:00","ND","ND","ND","ND","ND","ND","ND","ND","ND","ND","ND","ND"],
    [63806,"2017-08-16T09:00:00","ND","ND","ND","ND","ND","ND","ND","ND","ND","ND","ND","ND"],
    [63807,"2017-08-16T10:00:00","ND","ND","ND","ND","ND","ND","ND","ND","ND","ND","ND","ND"],
    [63808,"2017-08-16T11:00:00","ND","ND","ND","ND","ND","ND","ND","ND","ND","ND","ND","ND"],
    [63809,"2017-08-16T12:00:00","ND","ND","ND","ND","ND","ND","ND","ND","ND","ND","ND","ND"],
    [63810,"2017-08-16T13:00:00","ND","ND","ND","ND","ND","ND","ND","ND","ND","ND","ND","ND"],
    [63811,"2017-08-16T14:00:00","ND","ND","ND","ND","ND","ND","ND","ND","ND","ND","ND","ND"],
    [63812,"2017-08-16T15:00:00","ND","ND","ND","ND","ND","ND","ND","ND","ND","ND","ND","ND"],
    [63813,"2017-08-16T16:00:00","ND","ND","ND","ND","ND","ND","ND","ND","ND","ND","ND","ND"],
    [63814,"2017-08-16T17:00:00","ND","ND","ND","ND","ND","ND","ND","ND","ND","ND","ND","ND"],
    [63815,"2017-08-16T18:00:00","ND","ND","ND","ND","ND","ND","ND","ND","ND","ND","ND","ND"],
    [63816,"2017-08-16T19:00:00","ND","ND","ND","ND","ND","ND","ND","ND","ND","ND","ND","ND"],
    [63817,"2017-08-16T20:00:00","ND","ND","ND","ND","ND","ND","ND","ND","ND","ND","ND","ND"],
    [63818,"2017-08-16T21:00:00","ND","ND","ND","ND","ND","ND","ND","ND","ND","ND","ND","ND"],
    [63819,"2017-08-16T22:00:00","ND","ND","ND","ND","ND","ND","ND","ND","ND","ND","ND","ND"],
    [63820,"2017-08-16T23:00:00","ND","ND","ND","ND","ND","ND","ND","ND","ND","ND","ND","ND"],
    [63821,"2017-08-17T00:00:00","ND","ND","ND","ND","ND","ND","ND","ND","ND","ND","ND","ND"],
    [63822,"2017-08-17T01:00:00","ND","ND","ND","ND","ND","ND","ND","ND","ND","ND","ND","ND"],
    [63823,"2017-08-17T02:00:00","ND","ND","ND","ND","ND","ND","ND","ND","ND","ND","ND","ND"],
    [63824,"2017-08-17T03:00:00","ND","ND","ND","ND","ND","ND","ND","ND","ND","ND","ND","ND"],
    [63825,"2017-08-17T04:00:00","ND","ND","ND","ND","ND","ND","ND","ND","ND","ND","ND","ND"],
    [63826,"2017-08-17T05:00:00","ND","ND","ND","ND","ND","ND","ND","ND","ND","ND","ND","ND"],
    [63827,"2017-08-17T06:00:00","ND","ND","ND","ND","ND","ND","ND","ND","ND","ND","ND","ND"],
    [63828,"2017-08-17T07:00:00","ND","ND","ND","ND","ND","ND","ND","ND","ND","ND","ND","ND"],
    [63829,"2017-08-17T08:00:00","ND","ND","ND","ND","ND","ND","ND","ND","ND","ND","ND","ND"],
    [63830,"2017-08-17T09:00:00","ND","ND","ND","ND","ND","ND","ND","ND","ND","ND","ND","ND"],
    [63831,"2017-08-17T10:00:00","69.2","ND","ND","ND","36.4","0.8","ND","ND","ND","ND","532","0"],
    [63832,"2017-08-17T11:00:00","62.5","ND","ND","ND","56.5","0.2","ND","ND","ND","ND","663","0"],
    [63833,"2017-08-17T12:00:00","55.1","ND","ND","ND","93.5","0.5","ND","ND","ND","ND","666","0"],
    [63834,"2017-08-17T13:00:00","56.8","ND","ND","ND","80.1","0.7","ND","ND","ND","ND","666","0"],
    [63835,"2017-08-17T14:00:00","38.4","ND","ND","ND","74.3","0.5","ND","ND","ND","ND","666","0"],
    [63836,"2017-08-17T15:00:00","34.1","ND","ND","ND","73.1","0.3","ND","ND","ND","ND","667","0"],
    [63837,"2017-08-17T16:00:00","38.6","ND","ND","ND","40.3","0.2","ND","ND","ND","ND","667","0"],
    [63838,"2017-08-17T17:00:00","23.6","ND","ND","ND","38.4","0.2","ND","ND","ND","ND","615","0"],
    [63839,"2017-08-17T18:00:00","ND","ND","ND","ND","33.7","0.2","ND","ND","ND","ND","195","0"],
    [63840,"2017-08-17T19:00:00","ND","ND","ND","ND","22.3","0.4","ND","ND","ND","ND","6","0"],
    [63841,"2017-08-17T20:00:00","77.7","ND","ND","ND","8.3","0.3","ND","ND","ND","ND","0","0"],
    [63842,"2017-08-17T21:00:00","114.1","ND","ND","ND","10.6","1.0","ND","ND","ND","ND","0","0"],
    [63843,"2017-08-17T22:00:00","148","ND","ND","ND","2.3","2.6","ND","ND","ND","ND","0","0"],
    [63844,"2017-08-17T23:00:00","132.4","ND","ND","ND","2.0","1.5","ND","ND","ND","ND","0","0"],
    [63845,"2017-08-18T00:00:00","104.9","ND","ND","ND","1.4","1.4","ND","ND","ND","ND","0","0"],
    [63846,"2017-08-18T01:00:00","70.8","ND","ND","ND","1.4","4.4","ND","ND","ND","ND","0","0"],
    [63847,"2017-08-18T02:00:00","26.4","ND","ND","ND","2.6","1.8","ND","ND","ND","ND","0","0"],
    [63848,"2017-08-18T03:00:00","28.6","ND","ND","ND","4.0","1.8","ND","ND","ND","ND","0","0"],
    [63849,"2017-08-18T04:00:00","47.6","ND","ND","ND","3.4","1.2","ND","ND","ND","ND","0","0"],
    [63850,"2017-08-18T05:00:00","57.3","ND","ND","ND","2.4","1.2","ND","ND","ND","ND","0","0"],
    [63851,"2017-08-18T06:00:00","34.8","ND","ND","ND","7.6","0.9","ND","ND","ND","ND","0","5.33"],
    [63852,"2017-08-18T07:00:00","ND","ND","ND","ND","8.9","0.2","ND","ND","ND","ND","104","0.25"],
    [63853,"2017-08-18T08:00:00","21.5","ND","ND","ND","6.9","0.9","ND","ND","ND","ND","617","0"],
    [63854,"2017-08-18T09:00:00","70","ND","ND","ND","16.0","0.2","ND","ND","ND","ND","619","0"],
    [63855,"2017-08-18T10:00:00","30.7","ND","ND","ND","23.4","0.4","ND","ND","ND","ND","638","0"],
    [63856,"2017-08-18T11:00:00","60.2","ND","ND","ND","37.6","0.3","ND","ND","ND","ND","664","0"],
    [63857,"2017-08-18T12:00:00","44.9","ND","ND","ND","47.1","0.4","ND","ND","ND","ND","664","0"],
    [63858,"2017-08-18T13:00:00","44.3","ND","ND","ND","55.2","0.9","ND","ND","ND","ND","664","0"],
    [63859,"2017-08-18T14:00:00","34.7","ND","ND","ND","63.6","0.4","ND","ND","ND","ND","663","0"],
    [63860,"2017-08-18T15:00:00","30.5","ND","ND","ND","41.6","0.3","ND","ND","ND","ND","654","0"],
    [63861,"2017-08-18T16:00:00","8.4","ND","ND","ND","29.7","0.2","ND","ND","ND","ND","665","0"],
    [63862,"2017-08-18T17:00:00","ND","ND","ND","ND","30.8","0.1","ND","ND","ND","ND","647","0"],
    [63863,"2017-08-18T18:00:00","ND","ND","ND","ND","20.5","0.4","ND","ND","ND","ND","249","0"],
    [63864,"2017-08-18T19:00:00","ND","ND","ND","ND","13.4","0.1","ND","ND","ND","ND","7","0"],
    [63865,"2017-08-18T20:00:00","36.8","ND","ND","ND","8.4","0.4","ND","ND","ND","ND","0","0"],
    [63866,"2017-08-18T21:00:00","177.7","ND","ND","ND","3.6","0.7","ND","ND","ND","ND","0","0"],
    [63867,"2017-08-18T22:00:00","127.7","ND","ND","ND","3.0","1.0","ND","ND","ND","ND","0","0"],
    [63868,"2017-08-18T23:00:00","91.8","ND","ND","ND","0.9","1.5","ND","ND","ND","ND","0","0"],
    [63869,"2017-08-19T00:00:00","98.1","ND","ND","ND","1.2","2.2","ND","ND","ND","ND","0","0"],
    [63870,"2017-08-19T01:00:00","67.6","ND","ND","ND","0.8","1.4","ND","ND","ND","ND","0","0"],
    [63871,"2017-08-19T02:00:00","35.4","ND","ND","ND","1.4","1.8","ND","ND","ND","ND","0","0"],
    [63872,"2017-08-19T03:00:00","26","ND","ND","ND","1.2","2.2","ND","ND","ND","ND","0","0"],
    [63873,"2017-08-19T04:00:00","16.4","ND","ND","ND","4.1","1.4","ND","ND","ND","ND","0","0"],
    [63874,"2017-08-19T05:00:00","7","ND","ND","ND","7.9","0.4","ND","ND","ND","ND","0","1.78"],
    [63875,"2017-08-19T06:00:00","11.6","ND","ND","ND","1.1","0.9","ND","ND","ND","ND","0","0.25"],
    [63876,"2017-08-19T07:00:00","14.2","ND","ND","ND","2.0","0.6","ND","ND","ND","ND","27","0"],
    [63877,"2017-08-19T08:00:00","16.3","ND","ND","ND","3.5","0.4","ND","ND","ND","ND","163","0"],
    [63878,"2017-08-19T09:00:00","20.4","ND","ND","ND","9.8","0.6","ND","ND","ND","ND","452","0"],
    [63879,"2017-08-19T10:00:00","20.2","ND","ND","ND","24.3","0.6","ND","ND","ND","ND","664","0"],
    [63880,"2017-08-19T11:00:00","17.8","ND","ND","ND","33.2","0.4","ND","ND","ND","ND","664","0"],
    [63881,"2017-08-19T12:00:00","17.7","ND","ND","ND","35.2","0.3","ND","ND","ND","ND","664","0"],
    [63882,"2017-08-19T13:00:00","25.8","ND","ND","ND","47.9","0.6","ND","ND","ND","ND","664","0"],
    [63883,"2017-08-19T14:00:00","25.2","ND","ND","ND","59.3","0.3","ND","ND","ND","ND","664","0"],
    [63884,"2017-08-19T15:00:00","37.5","ND","ND","ND","85.3","0.3","ND","ND","ND","ND","664","0"],
    [63885,"2017-08-19T16:00:00","27.8","ND","ND","ND","65.9","0.5","ND","ND","ND","ND","646","0"],
    [63886,"2017-08-19T17:00:00","19.8","ND","ND","ND","47.0","0.3","ND","ND","ND","ND","356","0"],
    [63887,"2017-08-19T18:00:00","11.6","ND","ND","ND","46.2","0.3","ND","ND","ND","ND","150","0"],
    [63888,"2017-08-19T19:00:00","6.9","ND","ND","ND","24.8","0.2","ND","ND","ND","ND","7","0"],
    [63889,"2017-08-19T20:00:00","38.8","ND","ND","ND","8.3","0.8","ND","ND","ND","ND","0","0"],
    [63890,"2017-08-19T21:00:00","21.8","ND","ND","ND","6.6","0.7","ND","ND","ND","ND","0","0"],
    [63891,"2017-08-19T22:00:00","32.2","ND","ND","ND","5.8","2.0","ND","ND","ND","ND","0","0"],
    [63892,"2017-08-19T23:00:00","37.7","ND","ND","ND","2.5","2.4","ND","ND","ND","ND","0","0"],
    [63893,"2017-08-20T00:00:00","35.4","ND","ND","ND","2.6","2.9","ND","ND","ND","ND","0","0"],
    [63894,"2017-08-20T01:00:00","36","ND","ND","ND","2.1","2.2","ND","ND","ND","ND","0","0"],
    [63895,"2017-08-20T02:00:00","31","ND","ND","ND","1.8","2.2","ND","ND","ND","ND","0","0"],
    [63896,"2017-08-20T03:00:00","32.7","ND","ND","ND","2.1","2.1","ND","ND","ND","ND","0","0"],
    [63897,"2017-08-20T04:00:00","35.8","ND","ND","ND","0.7","2.0","ND","ND","ND","ND","0","0"],
    [63898,"2017-08-20T05:00:00","29.7","ND","ND","ND","0.6","2.2","ND","ND","ND","ND","0","0"],
    [63899,"2017-08-20T06:00:00","22.2","ND","ND","ND","0.5","0.9","ND","ND","ND","ND","0","6.1"],
    [63900,"2017-08-20T07:00:00","12.3","ND","ND","ND","0.5","1.4","ND","ND","ND","ND","21","0"],
    [63901,"2017-08-20T08:00:00","18.3","ND","ND","ND","0.5","3.5","ND","ND","ND","ND","224","0"],
    [63902,"2017-08-20T09:00:00","20.9","ND","ND","ND","2.4","1.4","ND","ND","ND","ND","537","0"],
    [63903,"2017-08-20T10:00:00","29.5","ND","ND","ND","15.8","0.9","ND","ND","ND","ND","642","0"],
    [63904,"2017-08-20T11:00:00","20.5","ND","ND","ND","24.2","0.5","ND","ND","ND","ND","547","0"],
    [63905,"2017-08-20T12:00:00","22.3","ND","ND","ND","42.7","0.6","ND","ND","ND","ND","664","0"],
    [63906,"2017-08-20T13:00:00","26.8","ND","ND","ND","57.4","0.3","ND","ND","ND","ND","665","0"],
    [63907,"2017-08-20T14:00:00","14.1","ND","ND","ND","58.4","0.2","ND","ND","ND","ND","622","0"],
    [63908,"2017-08-20T15:00:00","6","ND","ND","ND","50.0","0.3","ND","ND","ND","ND","582","0"],
    [63909,"2017-08-20T16:00:00","14.3","ND","ND","ND","36.2","0.4","ND","ND","ND","ND","654","0"],
    [63910,"2017-08-20T17:00:00","22.7","ND","ND","ND","20.6","0.2","ND","ND","ND","ND","479","0"],
    [63911,"2017-08-20T18:00:00","ND","ND","ND","ND","19.0","0.2","ND","ND","ND","ND","191","0"],
    [63912,"2017-08-20T19:00:00","ND","ND","ND","ND","18.5","0.2","ND","ND","ND","ND","5","0"],
    [63913,"2017-08-20T20:00:00","ND","ND","ND","ND","15.1","0.3","ND","ND","ND","ND","0","0"],
    [63914,"2017-08-20T21:00:00","27.2","ND","ND","ND","1.9","0.3","ND","ND","ND","ND","0","0"],
    [63915,"2017-08-20T22:00:00","51.1","ND","ND","ND","0.7","0.5","ND","ND","ND","ND","0","0"],
    [63916,"2017-08-20T23:00:00","20.9","ND","ND","ND","0.5","0.3","ND","ND","ND","ND","0","0"],
    [63917,"2017-08-21T00:00:00","13.7","ND","ND","ND","0.6","0.6","ND","ND","ND","ND","0","0"],
    [63918,"2017-08-21T01:00:00","14.8","ND","ND","ND","0.6","0.6","ND","ND","ND","ND","0","0"],
    [63919,"2017-08-21T02:00:00","26.8","ND","ND","ND","1.1","2.9","ND","ND","ND","ND","0","0"],
    [63920,"2017-08-21T03:00:00","35.5","ND","ND","ND","0.7","2.1","ND","ND","ND","ND","0","0"],
    [63921,"2017-08-21T04:00:00","29.6","ND","ND","ND","0.6","0.8","ND","ND","ND","ND","0","0"],
    [63922,"2017-08-21T05:00:00","28.2","ND","ND","ND","0.8","0.9","ND","ND","ND","ND","0","0"],
    [63923,"2017-08-21T06:00:00","33.3","ND","ND","ND","0.9","1.3","ND","ND","ND","ND","0","0"],
    [63924,"2017-08-21T07:00:00","39.9","ND","ND","ND","1.0","2.4","ND","ND","ND","ND","47","0"],
    [63925,"2017-08-21T08:00:00","42.1","ND","ND","ND","1.2","4.3","ND","ND","ND","ND","280","0"],
    [63926,"2017-08-21T09:00:00","64","ND","ND","ND","2.2","3.5","ND","ND","ND","ND","620","0"],
    [63927,"2017-08-21T10:00:00","61","ND","ND","ND","4.4","3.7","ND","ND","ND","ND","664","0"],
    [63928,"2017-08-21T11:00:00","53.4","ND","ND","ND","14.2","1.7","ND","ND","ND","ND","664","0"],
    [63929,"2017-08-21T12:00:00","27.9","ND","ND","ND","36.1","0.4","ND","ND","ND","ND","665","0"],
    [63930,"2017-08-21T13:00:00","14.5","ND","ND","ND","51.1","0.2","ND","ND","ND","ND","656","0"],
    [63931,"2017-08-21T14:00:00","16.2","ND","ND","ND","64.7","0.2","ND","ND","ND","ND","665","0"],
    [63932,"2017-08-21T15:00:00","17.4","ND","ND","ND","59.6","0.1","ND","ND","ND","ND","665","0"],
    [63933,"2017-08-21T16:00:00","10.8","ND","ND","ND","54.6","0.2","ND","ND","ND","ND","628","0"],
    [63934,"2017-08-21T17:00:00","21","ND","ND","ND","47.8","0.2","ND","ND","ND","ND","656","0"],
    [63935,"2017-08-21T18:00:00","15.4","ND","ND","ND","32.5","0.3","ND","ND","ND","ND","257","0"],
    [63936,"2017-08-21T19:00:00","0.9","ND","ND","ND","15.4","0.3","ND","ND","ND","ND","6","0"],
    [63937,"2017-08-21T20:00:00","12","ND","ND","ND","3.6","0.5","ND","ND","ND","ND","0","0"],
    [63938,"2017-08-21T21:00:00","47.7","ND","ND","ND","3.5","1.1","ND","ND","ND","ND","0","0"],
    [63939,"2017-08-21T22:00:00","44.9","ND","ND","ND","1.0","1.9","ND","ND","ND","ND","0","0"],
    [63940,"2017-08-21T23:00:00","40.8","ND","ND","ND","1.1","1.0","ND","ND","ND","ND","0","0"],
    [63941,"2017-08-22T00:00:00","34","ND","ND","ND","0.9","1.4","ND","ND","ND","ND","0","0"],
    [63942,"2017-08-22T01:00:00","18.4","ND","ND","ND","0.9","2.5","ND","ND","ND","ND","0","0"],
    [63943,"2017-08-22T02:00:00","29.6","ND","ND","ND","0.5","1.2","ND","ND","ND","ND","0","0"],
    [63944,"2017-08-22T03:00:00","24.5","ND","ND","ND","1.0","0.6","ND","ND","ND","ND","0","0"],
    [63945,"2017-08-22T04:00:00","34.2","ND","ND","ND","1.1","2.0","ND","ND","ND","ND","0","0"],
    [63946,"2017-08-22T05:00:00","27.5","ND","ND","ND","0.9","1.5","ND","ND","ND","ND","0","0"],
    [63947,"2017-08-22T06:00:00","22.3","ND","ND","ND","0.9","0.8","ND","ND","ND","ND","0","0"],
    [63948,"2017-08-22T07:00:00","30.9","ND","ND","ND","1.4","0.7","ND","ND","ND","ND","120","0"],
    [63949,"2017-08-22T08:00:00","43.7","ND","ND","ND","1.7","1.2","ND","ND","ND","ND","628","0"],
    [63950,"2017-08-22T09:00:00","55.9","ND","ND","ND","6.4","1.6","ND","ND","ND","ND","640","0"],
    [63951,"2017-08-22T10:00:00","34.9","ND","ND","ND","23.2","0.6","ND","ND","ND","ND","661","0"],
    [63952,"2017-08-22T11:00:00","45.7","ND","ND","ND","50.1","1.0","ND","ND","ND","ND","643","0"],
    [63953,"2017-08-22T12:00:00","46.8","ND","ND","ND","85.3","0.4","ND","ND","ND","ND","665","0"],
    [63954,"2017-08-22T13:00:00","41.6","ND","ND","ND","61.8","0.3","ND","ND","ND","ND","665","0"],
    [63955,"2017-08-22T14:00:00","36.4","ND","ND","ND","67.0","1.1","ND","ND","ND","ND","665","0"],
    [63956,"2017-08-22T15:00:00","47.6","ND","ND","ND","56.7","0.9","ND","ND","ND","ND","665","0"],
    [63957,"2017-08-22T16:00:00","35.8","ND","ND","ND","46.3","0.3","ND","ND","ND","ND","665","0"],
    [63958,"2017-08-22T17:00:00","16.9","ND","ND","ND","36.9","0.2","ND","ND","ND","ND","665","0"],
    [63959,"2017-08-22T18:00:00","4","ND","ND","ND","28.5","0.3","ND","ND","ND","ND","226","0"],
    [63960,"2017-08-22T19:00:00","ND","ND","ND","ND","12.1","0.4","ND","ND","ND","ND","10","0"],
    [63961,"2017-08-22T20:00:00","21.2","ND","ND","ND","12.7","0.2","ND","ND","ND","ND","0","0"],
    [63962,"2017-08-22T21:00:00","41.9","ND","ND","ND","1.8","0.5","ND","ND","ND","ND","0","0"],
    [63963,"2017-08-22T22:00:00","78.7","ND","ND","ND","1.3","2.3","ND","ND","ND","ND","0","0"],
    [63964,"2017-08-22T23:00:00","64.4","ND","ND","ND","1.1","2.4","ND","ND","ND","ND","0","0"],
    [63965,"2017-08-23T00:00:00","45.6","ND","ND","ND","1.1","1.6","ND","ND","ND","ND","0","0"],
    [63966,"2017-08-23T01:00:00","44.5","ND","ND","ND","1.1","1.4","ND","ND","ND","ND","0","0"],
    [63967,"2017-08-23T02:00:00","51","ND","ND","ND","1.5","2.5","ND","ND","ND","ND","0","0"],
    [63968,"2017-08-23T03:00:00","43.6","ND","ND","ND","1.1","2.1","ND","ND","ND","ND","0","0"],
    [63969,"2017-08-23T04:00:00","42.2","ND","ND","ND","0.9","2.1","ND","ND","ND","ND","0","0"],
    [63970,"2017-08-23T05:00:00","45.5","ND","ND","ND","1.0","1.3","ND","ND","ND","ND","0","0"],
    [63971,"2017-08-23T06:00:00","32.9","ND","ND","ND","0.9","1.2","ND","ND","ND","ND","0","0"],
    [63972,"2017-08-23T07:00:00","50.5","ND","ND","ND","2.7","3.8","ND","ND","ND","ND","118","0"],
    [63973,"2017-08-23T08:00:00","94.3","ND","ND","ND","3.5","3.1","ND","ND","ND","ND","371","0"],
    [63974,"2017-08-23T09:00:00","108.5","ND","ND","ND","6.4","2.8","ND","ND","ND","ND","642","0"],
    [63975,"2017-08-23T10:00:00","90.5","ND","ND","ND","15.7","1.6","ND","ND","ND","ND","664","0"],
    [63976,"2017-08-23T11:00:00","59.5","ND","ND","ND","48.7","0.6","ND","ND","ND","ND","664","0"],
    [63977,"2017-08-23T12:00:00","35.1","ND","ND","ND","73.3","0.3","ND","ND","ND","ND","665","0"],
    [63978,"2017-08-23T13:00:00","15.7","ND","ND","ND","83.4","0.4","ND","ND","ND","ND","665","0"],
    [63979,"2017-08-23T14:00:00","34.1","ND","ND","ND","97.4","0.2","ND","ND","ND","ND","665","0"],
    [63980,"2017-08-23T15:00:00","45.5","ND","ND","ND","42.7","0.2","ND","ND","ND","ND","665","0"],
    [63981,"2017-08-23T16:00:00","25.2","ND","ND","ND","22.2","0.3","ND","ND","ND","ND","665","0"],
    [63982,"2017-08-23T17:00:00","20.8","ND","ND","ND","22.1","0.3","ND","ND","ND","ND","571","0"],
    [63983,"2017-08-23T18:00:00","18.6","ND","ND","ND","21.0","0.3","ND","ND","ND","ND","150","0"],
    [63984,"2017-08-23T19:00:00","3.5","ND","ND","ND","18.8","0.1","ND","ND","ND","ND","0","0"],
    [63985,"2017-08-23T20:00:00","5.2","ND","ND","ND","11.6","0.4","ND","ND","ND","ND","0","0"],
    [63986,"2017-08-23T21:00:00","24.2","ND","ND","ND","1.4","0.9","ND","ND","ND","ND","0","0"],
    [63987,"2017-08-23T22:00:00","39.5","ND","ND","ND","0.9","2.0","ND","ND","ND","ND","0","0"],
    [63988,"2017-08-23T23:00:00","29.8","ND","ND","ND","0.9","1.8","ND","ND","ND","ND","0","0"],
    [63989,"2017-08-24T00:00:00","25.4","ND","ND","ND","0.7","1.3","ND","ND","ND","ND","0","0"],
    [63990,"2017-08-24T01:00:00","24.3","ND","ND","ND","0.9","1.2","ND","ND","ND","ND","0","0"],
    [63991,"2017-08-24T02:00:00","26.4","ND","ND","ND","1.2","0.6","ND","ND","ND","ND","0","0"],
    [63992,"2017-08-24T03:00:00","30.9","ND","ND","ND","0.9","0.7","ND","ND","ND","ND","0","0"],
    [63993,"2017-08-24T04:00:00","33.8","ND","ND","ND","1.0","1.8","ND","ND","ND","ND","0","0"],
    [63994,"2017-08-24T05:00:00","48.9","ND","ND","ND","0.8","1.4","ND","ND","ND","ND","0","0"],
    [63995,"2017-08-24T06:00:00","52.6","ND","ND","ND","0.8","1.6","ND","ND","ND","ND","0","0"],
    [63996,"2017-08-24T07:00:00","51.4","ND","ND","ND","1.4","1.2","ND","ND","ND","ND","51","0"],
    [63997,"2017-08-24T08:00:00","83.4","ND","ND","ND","2.5","2.0","ND","ND","ND","ND","280","0"],
    [63998,"2017-08-24T09:00:00","93","ND","ND","ND","6.5","2.7","ND","ND","ND","ND","656","0"],
    [63999,"2017-08-24T10:00:00","77","ND","ND","ND","20.3","1.5","ND","ND","ND","ND","664","0"],
    [64000,"2017-08-24T11:00:00","59.7","ND","ND","ND","40.9","0.5","ND","ND","ND","ND","664","0"],
    [64001,"2017-08-24T12:00:00","35.5","ND","ND","ND","60.8","0.4","ND","ND","ND","ND","665","0"],
    [64002,"2017-08-24T13:00:00","41.7","ND","ND","ND","87.5","0.6","ND","ND","ND","ND","665","0"],
    [64003,"2017-08-24T14:00:00","38","ND","ND","ND","84.9","0.3","ND","ND","ND","ND","650","0"],
    [64004,"2017-08-24T15:00:00","25.6","ND","ND","ND","28.9","0.4","ND","ND","ND","ND","604","0"],
    [64005,"2017-08-24T16:00:00","22.8","ND","ND","ND","37.6","0.3","ND","ND","ND","ND","493","0"],
    [64006,"2017-08-24T17:00:00","23.9","ND","ND","ND","44.5","0.3","ND","ND","ND","ND","646","0"],
    [64007,"2017-08-24T18:00:00","22","ND","ND","ND","31.6","0.3","ND","ND","ND","ND","167","0"],
    [64008,"2017-08-24T19:00:00","3.9","ND","ND","ND","22.2","0.5","ND","ND","ND","ND","0","0"],
    [64009,"2017-08-24T20:00:00","22.4","ND","ND","ND","7.6","0.5","ND","ND","ND","ND","0","0"],
    [64010,"2017-08-24T21:00:00","42.6","ND","ND","ND","3.8","0.4","ND","ND","ND","ND","0","0"],
    [64011,"2017-08-24T22:00:00","47.8","ND","ND","ND","1.3","1.4","ND","ND","ND","ND","0","0"],
    [64012,"2017-08-24T23:00:00","48","ND","ND","ND","1.0","4.5","ND","ND","ND","ND","0","0"],
    [64013,"2017-08-25T00:00:00","34","ND","ND","ND","1.2","1.9","ND","ND","ND","ND","0","0"],
    [64014,"2017-08-25T01:00:00","25.9","ND","ND","ND","1.6","0.9","ND","ND","ND","ND","0","0"],
    [64015,"2017-08-25T02:00:00","26.4","ND","ND","ND","2.2","0.7","ND","ND","ND","ND","0","0"],
    [64016,"2017-08-25T03:00:00","19.5","ND","ND","ND","1.7","1.2","ND","ND","ND","ND","0","0"],
    [64017,"2017-08-25T04:00:00","27.3","ND","ND","ND","1.6","1.1","ND","ND","ND","ND","0","0"],
    [64018,"2017-08-25T05:00:00","35.6","ND","ND","ND","1.7","1.4","ND","ND","ND","ND","0","0"],
    [64019,"2017-08-25T06:00:00","38.1","ND","ND","ND","1.1","1.1","ND","ND","ND","ND","0","0"],
    [64020,"2017-08-25T07:00:00","33.9","ND","ND","ND","1.5","1.4","ND","ND","ND","ND","63","0"],
    [64021,"2017-08-25T08:00:00","45.1","ND","ND","ND","2.1","1.5","ND","ND","ND","ND","410","0"],
    [64022,"2017-08-25T09:00:00","55.8","ND","ND","ND","3.3","1.2","ND","ND","ND","ND","532","0"],
    [64023,"2017-08-25T10:00:00","52.4","ND","ND","ND","19.4","1.2","ND","ND","ND","ND","658","0"],
    [64024,"2017-08-25T11:00:00","38.5","ND","ND","ND","37.6","0.8","ND","ND","ND","ND","664","0"],
    [64025,"2017-08-25T12:00:00","28","ND","ND","ND","140.6","0.5","ND","ND","ND","ND","665","0"],
    [64026,"2017-08-25T13:00:00","27","ND","ND","ND","56.8","0.3","ND","ND","ND","ND","665","0"],
    [64027,"2017-08-25T14:00:00","32.3","ND","ND","ND","67.9","0.5","ND","ND","ND","ND","665","0"],
    [64028,"2017-08-25T15:00:00","30.1","ND","ND","ND","65.1","0.4","ND","ND","ND","ND","665","0"],
    [64029,"2017-08-25T16:00:00","23.9","ND","ND","ND","51.6","0.4","ND","ND","ND","ND","661","0"],
    [64030,"2017-08-25T17:00:00","23.6","ND","ND","ND","26.2","0.2","ND","ND","ND","ND","427","0"],
    [64031,"2017-08-25T18:00:00","7.1","ND","ND","ND","17.5","0.2","ND","ND","ND","ND","292","0"],
    [64032,"2017-08-25T19:00:00","10.6","ND","ND","ND","13.5","0.4","ND","ND","ND","ND","5","0"],
    [64033,"2017-08-25T20:00:00","18.9","ND","ND","ND","14.0","0.4","ND","ND","ND","ND","0","0"],
    [64034,"2017-08-25T21:00:00","35.7","ND","ND","ND","2.5","1.2","ND","ND","ND","ND","0","0"],
    [64035,"2017-08-25T22:00:00","44.9","ND","ND","ND","1.0","2.9","ND","ND","ND","ND","0","0"],
    [64036,"2017-08-25T23:00:00","35.7","ND","ND","ND","1.1","0.8","ND","ND","ND","ND","0","0"],
    [64037,"2017-08-26T00:00:00","34.2","ND","ND","ND","0.7","0.8","ND","ND","ND","ND","0","0"],
    [64038,"2017-08-26T01:00:00","34.2","ND","ND","ND","0.8","0.9","ND","ND","ND","ND","0","0"],
    [64039,"2017-08-26T02:00:00","30.9","ND","ND","ND","0.8","1.5","ND","ND","ND","ND","0","0"],
    [64040,"2017-08-26T03:00:00","33.6","ND","ND","ND","0.8","1.3","ND","ND","ND","ND","0","0"],
    [64041,"2017-08-26T04:00:00","44.6","ND","ND","ND","2.2","1.0","ND","ND","ND","ND","0","0"],
    [64042,"2017-08-26T05:00:00","66.7","ND","ND","ND","1.4","1.3","ND","ND","ND","ND","0","0"],
    [64043,"2017-08-26T06:00:00","57.8","ND","ND","ND","1.4","1.7","ND","ND","ND","ND","0","0"],
    [64044,"2017-08-26T07:00:00","73.5","ND","ND","ND","2.3","2.3","ND","ND","ND","ND","77","0"],
    [64045,"2017-08-26T08:00:00","77.6","ND","ND","ND","3.2","2.4","ND","ND","ND","ND","390","0"],
    [64046,"2017-08-26T09:00:00","63.1","ND","ND","ND","10.4","1.1","ND","ND","ND","ND","663","0"],
    [64047,"2017-08-26T10:00:00","52.4","ND","ND","ND","37.8","1.0","ND","ND","ND","ND","664","0"],
    [64048,"2017-08-26T11:00:00","46.6","ND","ND","ND","61.5","0.3","ND","ND","ND","ND","665","0"],
    [64049,"2017-08-26T12:00:00","35.4","ND","ND","ND","63.8","0.3","ND","ND","ND","ND","665","0"],
    [64050,"2017-08-26T13:00:00","40.9","ND","ND","ND","85.6","0.3","ND","ND","ND","ND","665","0"],
    [64051,"2017-08-26T14:00:00","44.2","ND","ND","ND","73.7","0.3","ND","ND","ND","ND","665","0"],
    [64052,"2017-08-26T15:00:00","37.7","ND","ND","ND","28.2","0.1","ND","ND","ND","ND","665","0"],
    [64053,"2017-08-26T16:00:00","21.6","ND","ND","ND","29.1","0.2","ND","ND","ND","ND","665","0"],
    [64054,"2017-08-26T17:00:00","7.6","ND","ND","ND","30.0","0.4","ND","ND","ND","ND","627","0"],
    [64055,"2017-08-26T18:00:00","ND","ND","ND","ND","33.2","0.2","ND","ND","ND","ND","217","0"],
    [64056,"2017-08-26T19:00:00","ND","ND","ND","ND","18.8","0.3","ND","ND","ND","ND","7","0"],
    [64057,"2017-08-26T20:00:00","ND","ND","ND","ND","22.8","0.3","ND","ND","ND","ND","0","0"],
    [64058,"2017-08-26T21:00:00","23.4","ND","ND","ND","10.6","1.1","ND","ND","ND","ND","0","0"],
    [64059,"2017-08-26T22:00:00","36.9","ND","ND","ND","10.1","1.9","ND","ND","ND","ND","0","0"],
    [64060,"2017-08-26T23:00:00","26.3","ND","ND","ND","14.1","1.4","ND","ND","ND","ND","0","0"],
    [64061,"2017-08-27T00:00:00","17.7","ND","ND","ND","6.5","0.6","ND","ND","ND","ND","0","0"],
    [64062,"2017-08-27T01:00:00","15.2","ND","ND","ND","5.8","0.9","ND","ND","ND","ND","0","0"],
    [64063,"2017-08-27T02:00:00","19","ND","ND","ND","4.9","3.0","ND","ND","ND","ND","0","0"],
    [64064,"2017-08-27T03:00:00","35.3","ND","ND","ND","3.1","2.7","ND","ND","ND","ND","0","0"],
    [64065,"2017-08-27T04:00:00","38.6","ND","ND","ND","1.6","2.8","ND","ND","ND","ND","0","0"],
    [64066,"2017-08-27T05:00:00","39.1","ND","ND","ND","2.1","1.9","ND","ND","ND","ND","0","0"],
    [64067,"2017-08-27T06:00:00","30.5","ND","ND","ND","0.7","5.4","ND","ND","ND","ND","0","0"],
    [64068,"2017-08-27T07:00:00","42.6","ND","ND","ND","1.3","2.8","ND","ND","ND","ND","48","0"],
    [64069,"2017-08-27T08:00:00","35","ND","ND","ND","8.8","0.9","ND","ND","ND","ND","247","0"],
    [64070,"2017-08-27T09:00:00","33.2","ND","ND","ND","14.9","0.9","ND","ND","ND","ND","661","0"],
    [64071,"2017-08-27T10:00:00","46.6","ND","ND","ND","27.2","1.0","ND","ND","ND","ND","664","0"],
    [64072,"2017-08-27T11:00:00","54.2","ND","ND","ND","48.4","1.2","ND","ND","ND","ND","664","0"],
    [64073,"2017-08-27T12:00:00","41.5","ND","ND","ND","72.5","0.9","ND","ND","ND","ND","664","0"],
    [64074,"2017-08-27T13:00:00","37.4","ND","ND","ND","79.8","0.6","ND","ND","ND","ND","665","0"],
    [64075,"2017-08-27T14:00:00","34.6","ND","ND","ND","66.4","0.3","ND","ND","ND","ND","665","0"],
    [64076,"2017-08-27T15:00:00","21.8","ND","ND","ND","31.6","0.6","ND","ND","ND","ND","665","0"],
    [64077,"2017-08-27T16:00:00","9.7","ND","ND","ND","28.4","0.3","ND","ND","ND","ND","609","0"],
    [64078,"2017-08-27T17:00:00","1.1","ND","ND","ND","25.7","0.2","ND","ND","ND","ND","415","0"],
    [64079,"2017-08-27T18:00:00","ND","ND","ND","ND","24.5","0.1","ND","ND","ND","ND","277","0"],
    [64080,"2017-08-27T19:00:00","ND","ND","ND","ND","21.1","0.4","ND","ND","ND","ND","8","0"],
    [64081,"2017-08-27T20:00:00","2.5","ND","ND","ND","15.6","0.2","ND","ND","ND","ND","0","0"],
    [64082,"2017-08-27T21:00:00","6.7","ND","ND","ND","19.3","0.4","ND","ND","ND","ND","0","0"],
    [64083,"2017-08-27T22:00:00","29.8","ND","ND","ND","15.0","0.2","ND","ND","ND","ND","0","0"],
    [64084,"2017-08-27T23:00:00","53.1","ND","ND","ND","14.2","0.4","ND","ND","ND","ND","0","0"],
    [64085,"2017-08-28T00:00:00","35.3","ND","ND","ND","7.2","0.9","ND","ND","ND","ND","0","0"],
    [64086,"2017-08-28T01:00:00","46.1","ND","ND","ND","1.7","1.1","ND","ND","ND","ND","0","0"],
    [64087,"2017-08-28T02:00:00","38.3","ND","ND","ND","1.2","1.2","ND","ND","ND","ND","0","0"],
    [64088,"2017-08-28T03:00:00","23.2","ND","ND","ND","0.5","1.9","ND","ND","ND","ND","0","0"],
    [64089,"2017-08-28T04:00:00","24.7","ND","ND","ND","0.9","1.3","ND","ND","ND","ND","0","0"],
    [64090,"2017-08-28T05:00:00","24.3","ND","ND","ND","1.1","1.1","ND","ND","ND","ND","0","0"],
    [64091,"2017-08-28T06:00:00","22","ND","ND","ND","0.9","1.7","ND","ND","ND","ND","0","0"],
    [64092,"2017-08-28T07:00:00","26.9","ND","ND","ND","0.9","0.8","ND","ND","ND","ND","104","0"],
    [64093,"2017-08-28T08:00:00","35.5","ND","ND","ND","1.4","1.5","ND","ND","ND","ND","297","0"],
    [64094,"2017-08-28T09:00:00","53.6","ND","ND","ND","2.8","3.2","ND","ND","ND","ND","613","0"],
    [64095,"2017-08-28T10:00:00","38.4","ND","ND","ND","8.4","1.3","ND","ND","ND","ND","574","0"],
    [64096,"2017-08-28T11:00:00","29.1","ND","ND","ND","17.6","0.7","ND","ND","ND","ND","545","0"],
    [64097,"2017-08-28T12:00:00","24.5","ND","ND","ND","26.8","0.4","ND","ND","ND","ND","642","0"],
    [64098,"2017-08-28T13:00:00","31.4","ND","ND","ND","44.0","0.6","ND","ND","ND","ND","664","0"],
    [64099,"2017-08-28T14:00:00","30.2","ND","ND","ND","60.7","0.2","ND","ND","ND","ND","665","0"],
    [64100,"2017-08-28T15:00:00","18.8","ND","ND","ND","42.3","0.3","ND","ND","ND","ND","662","0"],
    [64101,"2017-08-28T16:00:00","21.2","ND","ND","ND","26.7","0.2","ND","ND","ND","ND","648","0"],
    [64102,"2017-08-28T17:00:00","15.2","ND","ND","ND","28.4","0.3","ND","ND","ND","ND","515","0"],
    [64103,"2017-08-28T18:00:00","2.4","ND","ND","ND","21.2","0.3","ND","ND","ND","ND","113","0"],
    [64104,"2017-08-28T19:00:00","ND","ND","ND","ND","13.4","0.3","ND","ND","ND","ND","0","0"],
    [64105,"2017-08-28T20:00:00","2.4","ND","ND","ND","12.1","0.3","ND","ND","ND","ND","0","0"],
    [64106,"2017-08-28T21:00:00","13.9","ND","ND","ND","5.8","0.5","ND","ND","ND","ND","0","0"],
    [64107,"2017-08-28T22:00:00","24.3","ND","ND","ND","11.0","0.4","ND","ND","ND","ND","0","0"],
    [64108,"2017-08-28T23:00:00","36.9","ND","ND","ND","1.5","1.7","ND","ND","ND","ND","0","0"],
    [64109,"2017-08-29T00:00:00","59.1","ND","ND","ND","1.1","2.8","ND","ND","ND","ND","0","0"],
    [64110,"2017-08-29T01:00:00","56.7","ND","ND","ND","1.3","2.2","ND","ND","ND","ND","0","0"],
    [64111,"2017-08-29T02:00:00","34.9","ND","ND","ND","1.4","1.3","ND","ND","ND","ND","0","0"],
    [64112,"2017-08-29T03:00:00","30.9","ND","ND","ND","0.9","3.6","ND","ND","ND","ND","0","0"],
    [64113,"2017-08-29T04:00:00","32.9","ND","ND","ND","3.2","1.5","ND","ND","ND","ND","0","0"],
    [64114,"2017-08-29T05:00:00","32.8","ND","ND","ND","0.9","2.6","ND","ND","ND","ND","0","0"],
    [64115,"2017-08-29T06:00:00","39.3","ND","ND","ND","0.7","2.4","ND","ND","ND","ND","0","0"],
    [64116,"2017-08-29T07:00:00","36.1","ND","ND","ND","1.2","1.4","ND","ND","ND","ND","169","0"],
    [64117,"2017-08-29T08:00:00","31.3","ND","ND","ND","4.1","0.9","ND","ND","ND","ND","506","0"],
    [64118,"2017-08-29T09:00:00","48","ND","ND","ND","8.5","0.8","ND","ND","ND","ND","607","0"],
    [64119,"2017-08-29T10:00:00","50.1","ND","ND","ND","14.0","0.9","ND","ND","ND","ND","613","0"],
    [64120,"2017-08-29T11:00:00","50.6","ND","ND","ND","21.3","0.8","ND","ND","ND","ND","664","0"],
    [64121,"2017-08-29T12:00:00","44.6","ND","ND","ND","23.9","1.6","ND","ND","ND","ND","664","0"],
    [64122,"2017-08-29T13:00:00","42.4","ND","ND","ND","45.2","1.4","ND","ND","ND","ND","665","0"],
    [64123,"2017-08-29T14:00:00","32.9","ND","ND","ND","55.2","0.6","ND","ND","ND","ND","665","0"],
    [64124,"2017-08-29T15:00:00","30.4","ND","ND","ND","56.3","0.6","ND","ND","ND","ND","636","0"],
    [64125,"2017-08-29T16:00:00","25.1","ND","ND","ND","31.1","0.1","ND","ND","ND","ND","651","0"],
    [64126,"2017-08-29T17:00:00","14.3","ND","ND","ND","26.6","0.5","ND","ND","ND","ND","664","0"],
    [64127,"2017-08-29T18:00:00","4.8","ND","ND","ND","21.5","0.2","ND","ND","ND","ND","274","0"],
    [64128,"2017-08-29T19:00:00","ND","ND","ND","ND","13.4","0.3","ND","ND","ND","ND","0","0"],
    [64129,"2017-08-29T20:00:00","5.5","ND","ND","ND","6.1","0.3","ND","ND","ND","ND","0","0"],
    [64130,"2017-08-29T21:00:00","30.9","ND","ND","ND","7.3","0.6","ND","ND","ND","ND","0","0"],
    [64131,"2017-08-29T22:00:00","30.7","ND","ND","ND","12.5","0.2","ND","ND","ND","ND","0","0"],
    [64132,"2017-08-29T23:00:00","15.8","ND","ND","ND","8.5","0.4","ND","ND","ND","ND","0","0"],
    [64133,"2017-08-30T00:00:00","21.5","ND","ND","ND","2.3","3.0","ND","ND","ND","ND","0","0"],
    [64134,"2017-08-30T01:00:00","46.5","ND","ND","ND","3.2","3.2","ND","ND","ND","ND","0","0"],
    [64135,"2017-08-30T02:00:00","59.3","ND","ND","ND","4.6","2.9","ND","ND","ND","ND","0","0"],
    [64136,"2017-08-30T03:00:00","41.9","ND","ND","ND","1.9","2.6","ND","ND","ND","ND","0","0"],
    [64137,"2017-08-30T04:00:00","38.4","ND","ND","ND","0.8","1.2","ND","ND","ND","ND","0","0"],
    [64138,"2017-08-30T05:00:00","24.3","ND","ND","ND","0.7","2.5","ND","ND","ND","ND","0","0"],
    [64139,"2017-08-30T06:00:00","23.3","ND","ND","ND","1.0","2.4","ND","ND","ND","ND","0","0"],
    [64140,"2017-08-30T07:00:00","49","ND","ND","ND","2.1","4.1","ND","ND","ND","ND","65","0"],
    [64141,"2017-08-30T08:00:00","76","ND","ND","ND","2.2","3.1","ND","ND","ND","ND","210","0"],
    [64142,"2017-08-30T09:00:00","55.7","ND","ND","ND","5.9","1.7","ND","ND","ND","ND","610","0"],
    [64143,"2017-08-30T10:00:00","45.6","ND","ND","ND","18.6","0.9","ND","ND","ND","ND","664","0"],
    [64144,"2017-08-30T11:00:00","28.6","ND","ND","ND","28.1","0.4","ND","ND","ND","ND","664","0"],
    [64145,"2017-08-30T12:00:00","22.3","ND","ND","ND","39.6","0.3","ND","ND","ND","ND","665","0"],
    [64146,"2017-08-30T13:00:00","24.4","ND","ND","ND","54.7","0.2","ND","ND","ND","ND","665","0"],
    [64147,"2017-08-30T14:00:00","27","ND","ND","ND","55.6","0.4","ND","ND","ND","ND","630","0"],
    [64148,"2017-08-30T15:00:00","25.7","ND","ND","ND","52.6","0.7","ND","ND","ND","ND","665","0"],
    [64149,"2017-08-30T16:00:00","19.9","ND","ND","ND","32.5","0.3","ND","ND","ND","ND","643","0"],
    [64150,"2017-08-30T17:00:00","20.6","ND","ND","ND","26.7","0.1","ND","ND","ND","ND","391","0"],
    [64151,"2017-08-30T18:00:00","7.9","ND","ND","ND","21.6","0.2","ND","ND","ND","ND","280","0"],
    [64152,"2017-08-30T19:00:00","12","ND","ND","ND","13.8","0.2","ND","ND","ND","ND","4","0"],
    [64153,"2017-08-30T20:00:00","7","ND","ND","ND","9.8","0.3","ND","ND","ND","ND","0","0"],
    [64154,"2017-08-30T21:00:00","26.6","ND","ND","ND","3.2","0.7","ND","ND","ND","ND","0","0"],
    [64155,"2017-08-30T22:00:00","42.5","ND","ND","ND","1.3","1.0","ND","ND","ND","ND","0","0"],
    [64156,"2017-08-30T23:00:00","29.8","ND","ND","ND","0.8","1.2","ND","ND","ND","ND","0","0"],
    [64157,"2017-08-31T00:00:00","35.7","ND","ND","ND","1.1","2.4","ND","ND","ND","ND","0","0"],
    [64158,"2017-08-31T01:00:00","49.8","ND","ND","ND","1.3","1.9","ND","ND","ND","ND","0","0"],
    [64159,"2017-08-31T02:00:00","47.3","ND","ND","ND","1.6","1.1","ND","ND","ND","ND","0","0"],
    [64160,"2017-08-31T03:00:00","32.2","ND","ND","ND","7.4","0.8","ND","ND","ND","ND","0","0"],
    [64161,"2017-08-31T04:00:00","32","ND","ND","ND","3.2","1.7","ND","ND","ND","ND","0","0"],
    [64162,"2017-08-31T05:00:00","55.9","ND","ND","ND","2.6","2.0","ND","ND","ND","ND","0","0"],
    [64163,"2017-08-31T06:00:00","67.8","ND","ND","ND","1.7","1.7","ND","ND","ND","ND","0","0"],
    [64164,"2017-08-31T07:00:00","62.8","ND","ND","ND","1.6","1.9","ND","ND","ND","ND","34","0"],
    [64165,"2017-08-31T08:00:00","35.2","ND","ND","ND","2.1","1.7","ND","ND","ND","ND","408","0"],
    [64166,"2017-08-31T09:00:00","47.8","ND","ND","ND","8.4","1.4","ND","ND","ND","ND","662","0"],
    [64167,"2017-08-31T10:00:00","59.4","ND","ND","ND","23.0","1.3","ND","ND","ND","ND","664","0"],
    [64168,"2017-08-31T11:00:00","52","ND","ND","ND","56.3","0.5","ND","ND","ND","ND","665","0"],
    [64169,"2017-08-31T12:00:00","27.2","ND","ND","ND","64.1","0.3","ND","ND","ND","ND","665","0"],
    [64170,"2017-08-31T13:00:00","4.1","ND","ND","ND","69.9","0.5","ND","ND","ND","ND","665","0"],
    [64171,"2017-08-31T14:00:00","2.1","ND","ND","ND","53.8","0.2","ND","ND","ND","ND","664","0"],
    [64172,"2017-08-31T15:00:00","ND","ND","ND","ND","54.4","0.2","ND","ND","ND","ND","659","0"],
    [64173,"2017-08-31T16:00:00","8.3","ND","ND","ND","62.8","0.4","ND","ND","ND","ND","649","0"],
    [64174,"2017-08-31T17:00:00","6","ND","ND","ND","58.0","0.3","ND","ND","ND","ND","499","0"],
    [64175,"2017-08-31T18:00:00","5.7","ND","ND","ND","50.2","0.4","ND","ND","ND","ND","199","0"],
    [64176,"2017-08-31T19:00:00","80.5","ND","ND","ND","14.6","0.5","ND","ND","ND","ND","5","0"],
    [64177,"2017-08-31T20:00:00","75","ND","ND","ND","6.9","1.1","ND","ND","ND","ND","0","0"],
    [64178,"2017-08-31T21:00:00","50.7","ND","ND","ND","6.7","0.8","ND","ND","ND","ND","0","0"],
    [64179,"2017-08-31T22:00:00","66.4","ND","ND","ND","1.8","2.5","ND","ND","ND","ND","0","0"],
    [64180,"2017-08-31T23:00:00","91.8","ND","ND","ND","1.3","1.8","ND","ND","ND","ND","0","0"],
    [64181,"2017-09-01T00:00:00","70.4","ND","ND","ND","1.5","1.5","ND","ND","ND","ND","0","0"],
    [64182,"2017-09-01T01:00:00","59.7","ND","ND","ND","2.4","1.7","ND","ND","ND","ND","0","0"],
    [64183,"2017-09-01T02:00:00","61.7","ND","ND","ND","1.3","3.4","ND","ND","ND","ND","0","0"],
    [64184,"2017-09-01T03:00:00","44","ND","ND","ND","1.1","1.4","ND","ND","ND","ND","0","0"],
    [64185,"2017-09-01T04:00:00","39.1","ND","ND","ND","1.0","4.0","ND","ND","ND","ND","0","0"],
    [64186,"2017-09-01T05:00:00","41.5","ND","ND","ND","1.1","3.6","ND","ND","ND","ND","0","0"],
    [64187,"2017-09-01T06:00:00","39.1","ND","ND","ND","1.4","3.4","ND","ND","ND","ND","0","0"],
    [64188,"2017-09-01T07:00:00","65.1","ND","ND","ND","3.2","7.0","ND","ND","ND","ND","108","0"],
    [64189,"2017-09-01T08:00:00","112.3","ND","ND","ND","5.7","6.7","ND","ND","ND","ND","633","0"],
    [64190,"2017-09-01T09:00:00","149.6","ND","ND","ND","12.4","5.3","ND","ND","ND","ND","664","0"],
    [64191,"2017-09-01T10:00:00","100.6","ND","ND","ND","22.4","2.8","ND","ND","ND","ND","664","0"],
    [64192,"2017-09-01T11:00:00","65.1","ND","ND","ND","54.1","0.8","ND","ND","ND","ND","665","0"],
    [64193,"2017-09-01T12:00:00","45.8","ND","ND","ND","71.1","0.3","ND","ND","ND","ND","665","0"],
    [64194,"2017-09-01T13:00:00","39.1","ND","ND","ND","84.6","0.5","ND","ND","ND","ND","665","0"],
    [64195,"2017-09-01T14:00:00","32.5","ND","ND","ND","84.3","0.3","ND","ND","ND","ND","665","0"],
    [64196,"2017-09-01T15:00:00","28.5","ND","ND","ND","83.0","0.4","ND","ND","ND","ND","665","0"],
    [64197,"2017-09-01T16:00:00","29.4","ND","ND","ND","87.3","0.6","ND","ND","ND","ND","665","0"],
    [64198,"2017-09-01T17:00:00","38","ND","ND","ND","66.1","0.3","ND","ND","ND","ND","593","0"],
    [64199,"2017-09-01T18:00:00","19.2","ND","ND","ND","43.5","0.5","ND","ND","ND","ND","176","0"],
    [64200,"2017-09-01T19:00:00","22.5","ND","ND","ND","13.5","0.5","ND","ND","ND","ND","4","0"],
    [64201,"2017-09-01T20:00:00","45.3","ND","ND","ND","8.0","0.5","ND","ND","ND","ND","0","0"],
    [64202,"2017-09-01T21:00:00","63.5","ND","ND","ND","2.3","1.1","ND","ND","ND","ND","0","0"],
    [64203,"2017-09-01T22:00:00","75","ND","ND","ND","1.9","1.5","ND","ND","ND","ND","0","0"],
    [64204,"2017-09-01T23:00:00","63.3","ND","ND","ND","1.5","1.9","ND","ND","ND","ND","0","0"],
    [64205,"2017-09-02T00:00:00","51.5","ND","ND","ND","3.2","1.4","ND","ND","ND","ND","0","0"],
    [64206,"2017-09-02T01:00:00","42.9","ND","ND","ND","2.3","1.4","ND","ND","ND","ND","0","0"],
    [64207,"2017-09-02T02:00:00","92.8","ND","ND","ND","6.6","3.1","ND","ND","ND","ND","0","0"],
    [64208,"2017-09-02T03:00:00","94","ND","ND","ND","3.6","1.7","ND","ND","ND","ND","0","0"],
    [64209,"2017-09-02T04:00:00","75.4","ND","ND","ND","2.8","2.5","ND","ND","ND","ND","0","0"],
    [64210,"2017-09-02T05:00:00","91","ND","ND","ND","3.0","2.5","ND","ND","ND","ND","0","0"],
    [64211,"2017-09-02T06:00:00","91.1","ND","ND","ND","2.7","1.4","ND","ND","ND","ND","0","0"],
    [64212,"2017-09-02T07:00:00","84.2","ND","ND","ND","2.9","1.4","ND","ND","ND","ND","55","0"],
    [64213,"2017-09-02T08:00:00","112.1","ND","ND","ND","4.3","4.7","ND","ND","ND","ND","297","0"],
    [64214,"2017-09-02T09:00:00","105.4","ND","ND","ND","11.4","3.5","ND","ND","ND","ND","641","0"],
    [64215,"2017-09-02T10:00:00","90.6","ND","ND","ND","36.5","1.7","ND","ND","ND","ND","664","0"],
    [64216,"2017-09-02T11:00:00","55.4","ND","ND","ND","49.3","0.5","ND","ND","ND","ND","665","0"],
    [64217,"2017-09-02T12:00:00","38.2","ND","ND","ND","45.2","0.5","ND","ND","ND","ND","665","0"],
    [64218,"2017-09-02T13:00:00","31.9","ND","ND","ND","53.2","0.6","ND","ND","ND","ND","665","0"],
    [64219,"2017-09-02T14:00:00","29","ND","ND","ND","63.1","0.5","ND","ND","ND","ND","665","0"],
    [64220,"2017-09-02T15:00:00","34.6","ND","ND","ND","57.7","0.6","ND","ND","ND","ND","665","0"],
    [64221,"2017-09-02T16:00:00","32.7","ND","ND","ND","44.3","0.9","ND","ND","ND","ND","643","0"],
    [64222,"2017-09-02T17:00:00","25.7","ND","ND","ND","24.1","0.3","ND","ND","ND","ND","473","0"],
    [64223,"2017-09-02T18:00:00","10.9","ND","ND","ND","20.0","0.5","ND","ND","ND","ND","98","0"],
    [64224,"2017-09-02T19:00:00","9.3","ND","ND","ND","14.5","0.2","ND","ND","ND","ND","0","0"],
    [64225,"2017-09-02T20:00:00","13.1","ND","ND","ND","11.0","0.5","ND","ND","ND","ND","0","0"],
    [64226,"2017-09-02T21:00:00","21.4","ND","ND","ND","1.5","0.9","ND","ND","ND","ND","0","0"],
    [64227,"2017-09-02T22:00:00","30.4","ND","ND","ND","2.2","1.4","ND","ND","ND","ND","0","0"],
    [64228,"2017-09-02T23:00:00","35.8","ND","ND","ND","1.4","1.9","ND","ND","ND","ND","0","0"],
    [64229,"2017-09-03T00:00:00","26.4","ND","ND","ND","1.2","1.2","ND","ND","ND","ND","0","0"],
    [64230,"2017-09-03T01:00:00","30.2","ND","ND","ND","1.1","1.8","ND","ND","ND","ND","0","0"],
    [64231,"2017-09-03T02:00:00","35.6","ND","ND","ND","1.1","1.3","ND","ND","ND","ND","0","0"],
    [64232,"2017-09-03T03:00:00","35.8","ND","ND","ND","1.3","1.3","ND","ND","ND","ND","0","0"],
    [64233,"2017-09-03T04:00:00","38.6","ND","ND","ND","0.9","2.5","ND","ND","ND","ND","0","0"],
    [64234,"2017-09-03T05:00:00","31.7","ND","ND","ND","0.9","1.8","ND","ND","ND","ND","0","0"],
    [64235,"2017-09-03T06:00:00","45.4","ND","ND","ND","0.7","3.4","ND","ND","ND","ND","0","0"],
    [64236,"2017-09-03T07:00:00","38.1","ND","ND","ND","1.0","2.6","ND","ND","ND","ND","142","0"],
    [64237,"2017-09-03T08:00:00","46","ND","ND","ND","7.0","2.6","ND","ND","ND","ND","612","0"],
    [64238,"2017-09-03T09:00:00","52.7","ND","ND","ND","17.4","2.0","ND","ND","ND","ND","664","0"],
    [64239,"2017-09-03T10:00:00","47.6","ND","ND","ND","42.9","1.0","ND","ND","ND","ND","654","0"],
    [64240,"2017-09-03T11:00:00","39.2","ND","ND","ND","61.3","0.8","ND","ND","ND","ND","643","0"],
    [64241,"2017-09-03T12:00:00","32","ND","ND","ND","80.3","0.3","ND","ND","ND","ND","660","0"],
    [64242,"2017-09-03T13:00:00","24.6","ND","ND","ND","75.1","0.4","ND","ND","ND","ND","665","0"],
    [64243,"2017-09-03T14:00:00","1.5","ND","ND","ND","70.3","0.2","ND","ND","ND","ND","665","0"],
    [64244,"2017-09-03T15:00:00","2.2","ND","ND","ND","67.2","0.2","ND","ND","ND","ND","666","0"],
    [64245,"2017-09-03T16:00:00","22.9","ND","ND","ND","59.8","0.2","ND","ND","ND","ND","544","0"],
    [64246,"2017-09-03T17:00:00","8.4","ND","ND","ND","56.5","0.4","ND","ND","ND","ND","182","0"],
    [64247,"2017-09-03T18:00:00","3.2","ND","ND","ND","38.5","0.6","ND","ND","ND","ND","170","0"],
    [64248,"2017-09-03T19:00:00","44.2","ND","ND","ND","32.6","0.2","ND","ND","ND","ND","4","0"],
    [64249,"2017-09-03T20:00:00","50.7","ND","ND","ND","18.7","0.5","ND","ND","ND","ND","0","0"],
    [64250,"2017-09-03T21:00:00","44.3","ND","ND","ND","8.5","0.8","ND","ND","ND","ND","0","0"],
    [64251,"2017-09-03T22:00:00","48.5","ND","ND","ND","2.4","3.4","ND","ND","ND","ND","0","0"],
    [64252,"2017-09-03T23:00:00","64.8","ND","ND","ND","2.1","2.1","ND","ND","ND","ND","0","0"],
    [64253,"2017-09-04T00:00:00","47.2","ND","ND","ND","1.9","2.3","ND","ND","ND","ND","0","0"],
    [64254,"2017-09-04T01:00:00","49.4","ND","ND","ND","4.1","2.1","ND","ND","ND","ND","0","0"],
    [64255,"2017-09-04T02:00:00","49.3","ND","ND","ND","2.9","1.6","ND","ND","ND","ND","0","0"],
    [64256,"2017-09-04T03:00:00","41.3","ND","ND","ND","2.5","2.2","ND","ND","ND","ND","0","0"],
    [64257,"2017-09-04T04:00:00","56.1","ND","ND","ND","3.9","2.3","ND","ND","ND","ND","0","0"],
    [64258,"2017-09-04T05:00:00","29.9","ND","ND","ND","2.8","2.2","ND","ND","ND","ND","0","0"],
    [64259,"2017-09-04T06:00:00","40.2","ND","ND","ND","2.2","2.9","ND","ND","ND","ND","0","0"],
    [64260,"2017-09-04T07:00:00","67.9","ND","ND","ND","2.5","4.7","ND","ND","ND","ND","193","0"],
    [64261,"2017-09-04T08:00:00","91","ND","ND","ND","5.4","4.6","ND","ND","ND","ND","634","0"],
    [64262,"2017-09-04T09:00:00","96.5","ND","ND","ND","19.6","3.2","ND","ND","ND","ND","665","0"],
    [64263,"2017-09-04T10:00:00","86","ND","ND","ND","48.4","1.9","ND","ND","ND","ND","665","0"],
    [64264,"2017-09-04T11:00:00","60.5","ND","ND","ND","58.0","0.6","ND","ND","ND","ND","665","0"],
    [64265,"2017-09-04T12:00:00","32","ND","ND","ND","73.5","0.7","ND","ND","ND","ND","665","0"],
    [64266,"2017-09-04T13:00:00","33.3","ND","ND","ND","75.1","0.3","ND","ND","ND","ND","665","0"],
    [64267,"2017-09-04T14:00:00","31.4","ND","ND","ND","35.1","0.3","ND","ND","ND","ND","665","0"],
    [64268,"2017-09-04T15:00:00","18","ND","ND","ND","33.3","0.3","ND","ND","ND","ND","658","0"],
    [64269,"2017-09-04T16:00:00","19.2","ND","ND","ND","34.6","0.3","ND","ND","ND","ND","662","0"],
    [64270,"2017-09-04T17:00:00","23.2","ND","ND","ND","33.0","0.3","ND","ND","ND","ND","640","0"],
    [64271,"2017-09-04T18:00:00","13.1","ND","ND","ND","29.6","0.4","ND","ND","ND","ND","220","0"],
    [64272,"2017-09-04T19:00:00","0.7","ND","ND","ND","24.7","0.4","ND","ND","ND","ND","0","0"],
    [64273,"2017-09-04T20:00:00","11.7","ND","ND","ND","14.1","0.3","ND","ND","ND","ND","0","0"],
    [64274,"2017-09-04T21:00:00","39.8","ND","ND","ND","6.6","0.6","ND","ND","ND","ND","0","0"],
    [64275,"2017-09-04T22:00:00","38.3","ND","ND","ND","3.6","1.1","ND","ND","ND","ND","0","0"],
    [64276,"2017-09-04T23:00:00","33.9","ND","ND","ND","1.4","1.4","ND","ND","ND","ND","0","0"],
    [64277,"2017-09-05T00:00:00","18.7","ND","ND","ND","1.9","1.4","ND","ND","ND","ND","0","0"],
    [64278,"2017-09-05T01:00:00","34.9","ND","ND","ND","3.8","1.5","ND","ND","ND","ND","0","0"],
    [64279,"2017-09-05T02:00:00","35.4","ND","ND","ND","3.8","1.1","ND","ND","ND","ND","0","0"],
    [64280,"2017-09-05T03:00:00","31.3","ND","ND","ND","2.7","1.7","ND","ND","ND","ND","0","0"],
    [64281,"2017-09-05T04:00:00","45.3","ND","ND","ND","1.9","2.6","ND","ND","ND","ND","0","0"],
    [64282,"2017-09-05T05:00:00","42.9","ND","ND","ND","1.6","2.0","ND","ND","ND","ND","0","0"],
    [64283,"2017-09-05T06:00:00","53.8","ND","ND","ND","1.4","2.7","ND","ND","ND","ND","0","0"],
    [64284,"2017-09-05T07:00:00","67.4","ND","ND","ND","2.4","5.4","ND","ND","ND","ND","127","0"],
    [64285,"2017-09-05T08:00:00","75.4","ND","ND","ND","4.1","4.8","ND","ND","ND","ND","443","0"],
    [64286,"2017-09-05T09:00:00","76.2","ND","ND","ND","10.3","3.5","ND","ND","ND","ND","580","0"],
    [64287,"2017-09-05T10:00:00","70.6","ND","ND","ND","34.3","2.0","ND","ND","ND","ND","665","0"],
    [64288,"2017-09-05T11:00:00","59.4","ND","ND","ND","69.5","1.7","ND","ND","ND","ND","665","0"],
    [64289,"2017-09-05T12:00:00","54.6","ND","ND","ND","85.2","0.6","ND","ND","ND","ND","665","0"],
    [64290,"2017-09-05T13:00:00","41.2","ND","ND","ND","91.9","0.7","ND","ND","ND","ND","666","0"],
    [64291,"2017-09-05T14:00:00","54.4","ND","ND","ND","55.5","0.7","ND","ND","ND","ND","660","0"],
    [64292,"2017-09-05T15:00:00","53.9","ND","ND","ND","36.3","ND","ND","ND","ND","ND","663","0"],
    [64293,"2017-09-05T16:00:00","55.6","ND","ND","ND","36.1","ND","ND","ND","ND","ND","673","0"],
    [64294,"2017-09-05T17:00:00","46.3","ND","ND","ND","30.6","ND","ND","ND","ND","ND","481","0"],
    [64295,"2017-09-05T18:00:00","35.3","ND","ND","ND","25.7","ND","ND","ND","ND","ND","220","0"],
    [64296,"2017-09-05T19:00:00","37","ND","ND","ND","19.3","ND","ND","ND","ND","ND","0","0"],
    [64297,"2017-09-05T20:00:00","33.2","ND","ND","ND","16.6","ND","ND","ND","ND","ND","0","0"],
    [64298,"2017-09-05T21:00:00","36.7","ND","ND","ND","6.2","ND","ND","ND","ND","ND","0","0"],
    [64299,"2017-09-05T22:00:00","39.1","ND","ND","ND","4.4","ND","ND","ND","ND","ND","0","0"],
    [64300,"2017-09-05T23:00:00","53.5","ND","ND","ND","0.4","ND","ND","ND","ND","ND","0","0"],
    [64301,"2017-09-06T00:00:00","9.6","ND","ND","ND","ND","1.3","ND","ND","ND","ND","0","0"],
    [64302,"2017-09-06T01:00:00","ND","ND","ND","ND","0.1","1.3","ND","ND","ND","ND","0","0"],
    [64303,"2017-09-06T02:00:00","ND","ND","ND","ND","4.0","2.3","ND","ND","ND","ND","0","0"],
    [64304,"2017-09-06T03:00:00","ND","ND","ND","ND","5.8","1.5","ND","ND","ND","ND","0","0"],
    [64305,"2017-09-06T04:00:00","ND","ND","ND","ND","3.4","1.8","ND","ND","ND","ND","0","0"],
    [64306,"2017-09-06T05:00:00","88.5","ND","ND","ND","1.6","2.3","ND","ND","ND","ND","0","0"],
    [64307,"2017-09-06T06:00:00","75.1","ND","ND","ND","1.9","2.7","ND","ND","ND","ND","0","0"],
    [64308,"2017-09-06T07:00:00","98.6","ND","ND","ND","1.6","ND","ND","ND","ND","ND","26","0"],
    [64309,"2017-09-06T08:00:00","89.9","ND","ND","ND","1.2","ND","ND","ND","ND","ND","224","0"],
    [64310,"2017-09-06T09:00:00","44.5","ND","ND","ND","1.8","2.1","ND","ND","ND","ND","654","0"],
    [64311,"2017-09-06T10:00:00","26.2","ND","ND","ND","6.6","1.2","ND","ND","ND","ND","644","1.52"],
    [64312,"2017-09-06T11:00:00","35.7","ND","ND","ND","31.6","1.7","ND","ND","ND","ND","663","0.76"],
    [64313,"2017-09-06T12:00:00","26.4","ND","ND","ND","62.9","0.6","ND","ND","ND","ND","664","0"],
    [64314,"2017-09-06T13:00:00","4.7","ND","ND","ND","82.7","0.3","ND","ND","ND","ND","665","0"],
    [64315,"2017-09-06T14:00:00","3.7","ND","ND","ND","97.8","0.3","ND","ND","ND","ND","665","0"],
    [64316,"2017-09-06T15:00:00","11.7","ND","ND","ND","71.7","0.4","ND","ND","ND","ND","664","0"],
    [64317,"2017-09-06T16:00:00","36.5","ND","ND","ND","41.3","0.3","ND","ND","ND","ND","633","0"],
    [64318,"2017-09-06T17:00:00","34.7","ND","ND","ND","46.9","0.3","ND","ND","ND","ND","606","0"],
    [64319,"2017-09-06T18:00:00","6.9","ND","ND","ND","32.4","0.2","ND","ND","ND","ND","181","0"],
    [64320,"2017-09-06T19:00:00","0.1","ND","ND","ND","14.1","0.3","ND","ND","ND","ND","0","0"],
    [64321,"2017-09-06T20:00:00","18.3","ND","ND","ND","12.7","0.3","ND","ND","ND","ND","0","0"],
    [64322,"2017-09-06T21:00:00","22.4","ND","ND","ND","3.2","0.3","ND","ND","ND","ND","0","0"],
    [64323,"2017-09-06T22:00:00","37.7","ND","ND","ND","1.3","0.9","ND","ND","ND","ND","0","0"],
    [64324,"2017-09-06T23:00:00","61.3","ND","ND","ND","0.8","3.0","ND","ND","ND","ND","0","0"],
    [64325,"2017-09-07T00:00:00","51.6","ND","ND","ND","1.2","1.8","ND","ND","ND","ND","0","0"],
    [64326,"2017-09-07T01:00:00","65.2","ND","ND","ND","1.1","2.5","ND","ND","ND","ND","0","0"],
    [64327,"2017-09-07T02:00:00","43.5","ND","ND","ND","1.9","2.0","ND","ND","ND","ND","0","0"],
    [64328,"2017-09-07T03:00:00","35.7","ND","ND","ND","3.8","2.0","ND","ND","ND","ND","0","0"],
    [64329,"2017-09-07T04:00:00","35.1","ND","ND","ND","1.9","1.6","ND","ND","ND","ND","0","0"],
    [64330,"2017-09-07T05:00:00","26","ND","ND","ND","0.7","0.8","ND","ND","ND","ND","0","0.25"],
    [64331,"2017-09-07T06:00:00","16.4","ND","ND","ND","0.5","1.3","ND","ND","ND","ND","0","0"],
    [64332,"2017-09-07T07:00:00","6.7","ND","ND","ND","0.2","0.3","ND","ND","ND","ND","44","0"],
    [64333,"2017-09-07T08:00:00","9.4","ND","ND","ND","0.4","0.4","ND","ND","ND","ND","286","0"],
    [64334,"2017-09-07T09:00:00","24.7","ND","ND","ND","2.7","1.4","ND","ND","ND","ND","662","0"],
    [64335,"2017-09-07T10:00:00","29.6","ND","ND","ND","14.6","0.5","ND","ND","ND","ND","664","0"],
    [64336,"2017-09-07T11:00:00","20.6","ND","ND","ND","37.4","0.6","ND","ND","ND","ND","664","0"],
    [64337,"2017-09-07T12:00:00","19.7","ND","ND","ND","58.6","0.3","ND","ND","ND","ND","664","0"],
    [64338,"2017-09-07T13:00:00","19.7","ND","ND","ND","61.5","0.4","ND","ND","ND","ND","665","0"],
    [64339,"2017-09-07T14:00:00","22.6","ND","ND","ND","52.8","0.5","ND","ND","ND","ND","663","2.03"],
    [64340,"2017-09-07T15:00:00","16.3","ND","ND","ND","33.1","0.5","ND","ND","ND","ND","665","2.03"],
    [64341,"2017-09-07T16:00:00","13.5","ND","ND","ND","22.3","0.2","ND","ND","ND","ND","642","1.02"],
    [64342,"2017-09-07T17:00:00","3.2","ND","ND","ND","21.6","0.2","ND","ND","ND","ND","495","0.25"],
    [64343,"2017-09-07T18:00:00","ND","ND","ND","ND","17.4","0.1","ND","ND","ND","ND","126","0.25"],
    [64344,"2017-09-07T19:00:00","ND","ND","ND","ND","11.7","0.2","ND","ND","ND","ND","0","0"],
    [64345,"2017-09-07T20:00:00","ND","ND","ND","ND","7.1","0.4","ND","ND","ND","ND","0","0"],
    [64346,"2017-09-07T21:00:00","17","ND","ND","ND","14.2","0.3","ND","ND","ND","ND","0","0"],
    [64347,"2017-09-07T22:00:00","44.8","ND","ND","ND","1.1","1.7","ND","ND","ND","ND","0","0"],
    [64348,"2017-09-07T23:00:00","67","ND","ND","ND","1.0","1.5","ND","ND","ND","ND","0","0"],
    [64349,"2017-09-08T00:00:00","37.5","ND","ND","ND","0.5","1.2","ND","ND","ND","ND","0","0"],
    [64350,"2017-09-08T01:00:00","33.3","ND","ND","ND","0.7","0.6","ND","ND","ND","ND","0","0"],
    [64351,"2017-09-08T02:00:00","28.2","ND","ND","ND","0.8","0.6","ND","ND","ND","ND","0","0"],
    [64352,"2017-09-08T03:00:00","21.4","ND","ND","ND","1.1","0.8","ND","ND","ND","ND","0","0"],
    [64353,"2017-09-08T04:00:00","23.9","ND","ND","ND","1.5","1.1","ND","ND","ND","ND","0","0"],
    [64354,"2017-09-08T05:00:00","26.9","ND","ND","ND","2.8","1.7","ND","ND","ND","ND","0","0"],
    [64355,"2017-09-08T06:00:00","29.4","ND","ND","ND","1.1","1.4","ND","ND","ND","ND","0","0"],
    [64356,"2017-09-08T07:00:00","29","ND","ND","ND","1.0","2.0","ND","ND","ND","ND","83","0"],
    [64357,"2017-09-08T08:00:00","47.5","ND","ND","ND","1.8","1.3","ND","ND","ND","ND","242","0"],
    [64358,"2017-09-08T09:00:00","49","ND","ND","ND","6.5","1.0","ND","ND","ND","ND","558","0"],
    [64359,"2017-09-08T10:00:00","53.7","ND","ND","ND","13.3","1.0","ND","ND","ND","ND","578","0"],
    [64360,"2017-09-08T11:00:00","47.3","ND","ND","ND","12.0","1.3","ND","ND","ND","ND","156","0"],
    [64361,"2017-09-08T12:00:00","32.8","ND","ND","ND","5.8","0.6","ND","ND","ND","ND","317","1.52"],
    [64362,"2017-09-08T13:00:00","23.8","ND","ND","ND","6.9","0.5","ND","ND","ND","ND","535","3.05"],
    [64363,"2017-09-08T14:00:00","14.9","ND","ND","ND","16.9","0.3","ND","ND","ND","ND","664","2.54"],
    [64364,"2017-09-08T15:00:00","11.4","ND","ND","ND","26.9","0.5","ND","ND","ND","ND","576","2.29"],
    [64365,"2017-09-08T16:00:00","20.2","ND","ND","ND","20.0","0.4","ND","ND","ND","ND","569","1.78"],
    [64366,"2017-09-08T17:00:00","23","ND","ND","ND","16.3","0.3","ND","ND","ND","ND","297","1.02"],
    [64367,"2017-09-08T18:00:00","25.4","ND","ND","ND","12.5","0.3","ND","ND","ND","ND","85","1.02"],
    [64368,"2017-09-08T19:00:00","11.8","ND","ND","ND","13.2","0.5","ND","ND","ND","ND","0","0.51"],
    [64369,"2017-09-08T20:00:00","12.9","ND","ND","ND","5.1","0.5","ND","ND","ND","ND","0","0.25"],
    [64370,"2017-09-08T21:00:00","43","ND","ND","ND","1.8","0.5","ND","ND","ND","ND","0","0.25"],
    [64371,"2017-09-08T22:00:00","39.4","ND","ND","ND","1.6","0.7","ND","ND","ND","ND","0","0"],
    [64372,"2017-09-08T23:00:00","37.7","ND","ND","ND","2.1","1.2","ND","ND","ND","ND","0","0.25"],
    [64373,"2017-09-09T00:00:00","31","ND","ND","ND","2.3","1.4","ND","ND","ND","ND","0","0"],
    [64374,"2017-09-09T01:00:00","43.6","ND","ND","ND","1.4","1.0","ND","ND","ND","ND","0","0"],
    [64375,"2017-09-09T02:00:00","41","ND","ND","ND","1.0","1.0","ND","ND","ND","ND","0","0"],
    [64376,"2017-09-09T03:00:00","37","ND","ND","ND","1.4","1.7","ND","ND","ND","ND","0","0.25"],
    [64377,"2017-09-09T04:00:00","42.2","ND","ND","ND","1.3","2.5","ND","ND","ND","ND","0","0"],
    [64378,"2017-09-09T05:00:00","41","ND","ND","ND","1.1","1.6","ND","ND","ND","ND","0","0"],
    [64379,"2017-09-09T06:00:00","36.9","ND","ND","ND","0.9","0.9","ND","ND","ND","ND","0","0"],
    [64380,"2017-09-09T07:00:00","36.7","ND","ND","ND","1.1","0.8","ND","ND","ND","ND","54","0"],
    [64381,"2017-09-09T08:00:00","38.9","ND","ND","ND","1.3","1.9","ND","ND","ND","ND","192","0"],
    [64382,"2017-09-09T09:00:00","43.1","ND","ND","ND","2.3","2.2","ND","ND","ND","ND","441","0"],
    [64383,"2017-09-09T10:00:00","61.2","ND","ND","ND","7.7","1.7","ND","ND","ND","ND","650","0.25"],
    [64384,"2017-09-09T11:00:00","58.8","ND","ND","ND","26.8","1.5","ND","ND","ND","ND","664","0"],
    [64385,"2017-09-09T12:00:00","44.5","ND","ND","ND","55.5","0.5","ND","ND","ND","ND","664","0"],
    [64386,"2017-09-09T13:00:00","17.4","ND","ND","ND","58.9","0.3","ND","ND","ND","ND","664","0"],
    [64387,"2017-09-09T14:00:00","18.6","ND","ND","ND","63.5","0.2","ND","ND","ND","ND","658","0"],
    [64388,"2017-09-09T15:00:00","22.9","ND","ND","ND","47.2","0.4","ND","ND","ND","ND","663","0"],
    [64389,"2017-09-09T16:00:00","20.5","ND","ND","ND","37.4","0.3","ND","ND","ND","ND","664","0"],
    [64390,"2017-09-09T17:00:00","8.4","ND","ND","ND","22.1","0.1","ND","ND","ND","ND","373","0"],
    [64391,"2017-09-09T18:00:00","ND","ND","ND","ND","13.8","0.4","ND","ND","ND","ND","42","0"],
    [64392,"2017-09-09T19:00:00","4.4","ND","ND","ND","8.9","0.2","ND","ND","ND","ND","0","0"],
    [64393,"2017-09-09T20:00:00","13.8","ND","ND","ND","4.9","0.6","ND","ND","ND","ND","0","0"],
    [64394,"2017-09-09T21:00:00","22","ND","ND","ND","4.3","0.4","ND","ND","ND","ND","0","0"],
    [64395,"2017-09-09T22:00:00","41","ND","ND","ND","2.9","0.3","ND","ND","ND","ND","0","0"],
    [64396,"2017-09-09T23:00:00","33.1","ND","ND","ND","0.8","2.2","ND","ND","ND","ND","0","0"],
    [64397,"2017-09-10T00:00:00","20.1","ND","ND","ND","0.9","3.6","ND","ND","ND","ND","0","0"],
    [64398,"2017-09-10T01:00:00","25.2","ND","ND","ND","1.6","2.7","ND","ND","ND","ND","0","0"],
    [64399,"2017-09-10T02:00:00","20.1","ND","ND","ND","1.0","0.9","ND","ND","ND","ND","0","0.25"],
    [64400,"2017-09-10T03:00:00","25.7","ND","ND","ND","1.3","0.7","ND","ND","ND","ND","0","0"],
    [64401,"2017-09-10T04:00:00","19.6","ND","ND","ND","1.2","0.4","ND","ND","ND","ND","0","0.25"],
    [64402,"2017-09-10T05:00:00","18.4","ND","ND","ND","0.5","0.7","ND","ND","ND","ND","0","0.25"],
    [64403,"2017-09-10T06:00:00","29.3","ND","ND","ND","0.5","1.6","ND","ND","ND","ND","0","0.25"],
    [64404,"2017-09-10T07:00:00","22.7","ND","ND","ND","0.6","2.1","ND","ND","ND","ND","41","0.25"],
    [64405,"2017-09-10T08:00:00","31","ND","ND","ND","0.9","4.0","ND","ND","ND","ND","200","0"],
    [64406,"2017-09-10T09:00:00","29.9","ND","ND","ND","1.4","3.0","ND","ND","ND","ND","512","0"],
    [64407,"2017-09-10T10:00:00","32.1","ND","ND","ND","10.0","1.5","ND","ND","ND","ND","663","0.25"],
    [64408,"2017-09-10T11:00:00","25.8","ND","ND","ND","21.1","0.9","ND","ND","ND","ND","664","0"],
    [64409,"2017-09-10T12:00:00","25.4","ND","ND","ND","38.5","1.0","ND","ND","ND","ND","664","0"],
    [64410,"2017-09-10T13:00:00","20.1","ND","ND","ND","51.7","0.3","ND","ND","ND","ND","665","0"],
    [64411,"2017-09-10T14:00:00","17.3","ND","ND","ND","43.3","0.5","ND","ND","ND","ND","665","0"],
    [64412,"2017-09-10T15:00:00","9.7","ND","ND","ND","33.8","0.3","ND","ND","ND","ND","665","0"],
    [64413,"2017-09-10T16:00:00","4.6","ND","ND","ND","32.5","0.4","ND","ND","ND","ND","663","0"],
    [64414,"2017-09-10T17:00:00","4.2","ND","ND","ND","27.0","0.4","ND","ND","ND","ND","503","0.25"],
    [64415,"2017-09-10T18:00:00","9","ND","ND","ND","12.3","0.3","ND","ND","ND","ND","130","0"],
    [64416,"2017-09-10T19:00:00","2.1","ND","ND","ND","6.3","0.4","ND","ND","ND","ND","0","0"],
    [64417,"2017-09-10T20:00:00","1.2","ND","ND","ND","2.1","0.5","ND","ND","ND","ND","0","0"],
    [64418,"2017-09-10T21:00:00","22.3","ND","ND","ND","2.6","0.6","ND","ND","ND","ND","0","0"],
    [64419,"2017-09-10T22:00:00","34.7","ND","ND","ND","5.2","0.3","ND","ND","ND","ND","0","0"],
    [64420,"2017-09-10T23:00:00","38.1","ND","ND","ND","1.3","4.3","ND","ND","ND","ND","0","0"],
    [64421,"2017-09-11T00:00:00","27.2","ND","ND","ND","1.0","1.5","ND","ND","ND","ND","0","0"],
    [64422,"2017-09-11T01:00:00","26.8","ND","ND","ND","0.9","1.7","ND","ND","ND","ND","0","0"],
    [64423,"2017-09-11T02:00:00","19.7","ND","ND","ND","0.9","1.2","ND","ND","ND","ND","0","0"],
    [64424,"2017-09-11T03:00:00","22.9","ND","ND","ND","0.7","1.8","ND","ND","ND","ND","0","0"],
    [64425,"2017-09-11T04:00:00","21.2","ND","ND","ND","0.6","0.9","ND","ND","ND","ND","0","0"],
    [64426,"2017-09-11T05:00:00","24.7","ND","ND","ND","0.7","0.9","ND","ND","ND","ND","0","0"],
    [64427,"2017-09-11T06:00:00","23.1","ND","ND","ND","0.9","2.8","ND","ND","ND","ND","0","0.25"],
    [64428,"2017-09-11T07:00:00","40.9","ND","ND","ND","1.9","2.9","ND","ND","ND","ND","61","0"],
    [64429,"2017-09-11T08:00:00","62.8","ND","ND","ND","2.1","2.4","ND","ND","ND","ND","299","0"],
    [64430,"2017-09-11T09:00:00","59.3","ND","ND","ND","7.3","0.9","ND","ND","ND","ND","665","0"],
    [64431,"2017-09-11T10:00:00","74.3","ND","ND","ND","36.6","1.4","ND","ND","ND","ND","668","0"],
    [64432,"2017-09-11T11:00:00","73.2","ND","ND","ND","68.7","1.0","ND","ND","ND","ND","668","0"],
    [64433,"2017-09-11T12:00:00","61.1","ND","ND","ND","67.9","1.2","ND","ND","ND","ND","671","0.25"],
    [64434,"2017-09-11T13:00:00","56.1","ND","ND","ND","78.6","ND","ND","ND","ND","ND","672","0"],
    [64435,"2017-09-11T14:00:00","57.8","ND","ND","ND","69.7","ND","ND","ND","ND","ND","664","0"],
    [64436,"2017-09-11T15:00:00","48.2","ND","ND","ND","28.7","ND","ND","ND","ND","ND","636","0"],
    [64437,"2017-09-11T16:00:00","41.7","ND","ND","ND","23.5","ND","ND","ND","ND","ND","657","0"],
    [64438,"2017-09-11T17:00:00","46.7","ND","ND","ND","28.1","ND","ND","ND","ND","ND","652","0"],
    [64439,"2017-09-11T18:00:00","40.6","ND","ND","ND","21.5","ND","ND","ND","ND","ND","209","0"],
    [64440,"2017-09-11T19:00:00","34.7","ND","ND","ND","15.1","ND","ND","ND","ND","ND","0","0"],
    [64441,"2017-09-11T20:00:00","26.7","ND","ND","ND","5.9","ND","ND","ND","ND","ND","0","0"],
    [64442,"2017-09-11T21:00:00","33.4","ND","ND","ND","2.6","ND","ND","ND","ND","ND","0","0"],
    [64443,"2017-09-11T22:00:00","47.1","ND","ND","ND","0.4","1.8","ND","ND","ND","ND","0","0"],
    [64444,"2017-09-11T23:00:00","ND","ND","ND","ND","ND","0.8","ND","ND","ND","ND","0","0"],
    [64445,"2017-09-12T00:00:00","ND","ND","ND","ND","ND","1.6","ND","ND","ND","ND","0","0"],
    [64446,"2017-09-12T01:00:00","ND","ND","ND","ND","0.5","1.2","ND","ND","ND","ND","0","0"],
    [64447,"2017-09-12T02:00:00","ND","ND","ND","ND","0.6","1.4","ND","ND","ND","ND","0","0"],
    [64448,"2017-09-12T03:00:00","ND","ND","ND","ND","0.8","1.7","ND","ND","ND","ND","0","0"],
    [64449,"2017-09-12T04:00:00","114.6","ND","ND","ND","1.1","2.1","ND","ND","ND","ND","0","0"],
    [64450,"2017-09-12T05:00:00","102","ND","ND","ND","1.1","1.6","ND","ND","ND","ND","0","0"],
    [64451,"2017-09-12T06:00:00","90","ND","ND","ND","1.4","2.0","ND","ND","ND","ND","0","0.25"],
    [64452,"2017-09-12T07:00:00","72.1","ND","ND","ND","1.6","2.5","ND","ND","ND","ND","24","0"],
    [64453,"2017-09-12T08:00:00","68.3","ND","ND","ND","1.6","3.0","ND","ND","ND","ND","102","0"],
    [64454,"2017-09-12T09:00:00","57","ND","ND","ND","2.3","3.0","ND","ND","ND","ND","402","0"],
    [64455,"2017-09-12T10:00:00","43.8","ND","ND","ND","11.7","2.7","ND","ND","ND","ND","664","0"],
    [64456,"2017-09-12T11:00:00","27.4","ND","ND","ND","22.9","1.0","ND","ND","ND","ND","664","0"],
    [64457,"2017-09-12T12:00:00","23.5","ND","ND","ND","50.1","0.5","ND","ND","ND","ND","647","0"],
    [64458,"2017-09-12T13:00:00","34.2","ND","ND","ND","66.3","0.4","ND","ND","ND","ND","646","0"],
    [64459,"2017-09-12T14:00:00","15.5","ND","ND","ND","30.8","0.3","ND","ND","ND","ND","662","0"],
    [64460,"2017-09-12T15:00:00","22.8","ND","ND","ND","47.7","0.4","ND","ND","ND","ND","653","0"],
    [64461,"2017-09-12T16:00:00","19.7","ND","ND","ND","16.5","0.4","ND","ND","ND","ND","488","0"],
    [64462,"2017-09-12T17:00:00","7.4","ND","ND","ND","15.5","0.2","ND","ND","ND","ND","600","0.25"],
    [64463,"2017-09-12T18:00:00","3.1","ND","ND","ND","12.3","0.2","ND","ND","ND","ND","155","0"],
    [64464,"2017-09-12T19:00:00","ND","ND","ND","ND","7.9","0.3","ND","ND","ND","ND","0","0"],
    [64465,"2017-09-12T20:00:00","8","ND","ND","ND","2.8","0.5","ND","ND","ND","ND","0","0"],
    [64466,"2017-09-12T21:00:00","59.4","ND","ND","ND","1.1","0.7","ND","ND","ND","ND","0","0"],
    [64467,"2017-09-12T22:00:00","75.9","ND","ND","ND","0.8","1.5","ND","ND","ND","ND","0","0"],
    [64468,"2017-09-12T23:00:00","65.8","ND","ND","ND","0.6","2.0","ND","ND","ND","ND","0","0"],
    [64469,"2017-09-13T00:00:00","48.3","ND","ND","ND","0.8","3.6","ND","ND","ND","ND","0","0"],
    [64470,"2017-09-13T01:00:00","62.6","ND","ND","ND","1.7","2.8","ND","ND","ND","ND","0","0"],
    [64471,"2017-09-13T02:00:00","47.9","ND","ND","ND","2.3","1.3","ND","ND","ND","ND","0","0"],
    [64472,"2017-09-13T03:00:00","27.7","ND","ND","ND","1.2","1.6","ND","ND","ND","ND","0","0"],
    [64473,"2017-09-13T04:00:00","34.6","ND","ND","ND","1.2","0.9","ND","ND","ND","ND","0","0"],
    [64474,"2017-09-13T05:00:00","32.3","ND","ND","ND","1.1","3.5","ND","ND","ND","ND","0","0.25"],
    [64475,"2017-09-13T06:00:00","34.6","ND","ND","ND","2.1","3.4","ND","ND","ND","ND","0","0"],
    [64476,"2017-09-13T07:00:00","15.1","ND","ND","ND","1.0","1.6","ND","ND","ND","ND","117","0"],
    [64477,"2017-09-13T08:00:00","29.2","ND","ND","ND","3.4","1.4","ND","ND","ND","ND","622","0"],
    [64478,"2017-09-13T09:00:00","22","ND","ND","ND","12.1","0.6","ND","ND","ND","ND","664","0"],
    [64479,"2017-09-13T10:00:00","28.7","ND","ND","ND","18.2","0.8","ND","ND","ND","ND","664","0"],
    [64480,"2017-09-13T11:00:00","26.1","ND","ND","ND","39.2","0.4","ND","ND","ND","ND","665","0"],
    [64481,"2017-09-13T12:00:00","16.4","ND","ND","ND","ND","0.4","ND","ND","ND","ND","665","0"],
    [64482,"2017-09-13T13:00:00","26.9","ND","ND","ND","72.2","0.4","ND","ND","ND","ND","666","0"],
    [64483,"2017-09-13T14:00:00","35.8","ND","ND","ND","82.2","0.4","ND","ND","ND","ND","666","0"],
    [64484,"2017-09-13T15:00:00","30.8","ND","ND","ND","71.5","0.2","ND","ND","ND","ND","659","0"],
    [64485,"2017-09-13T16:00:00","31.3","ND","ND","ND","52.8","0.4","ND","ND","ND","ND","557","0"],
    [64486,"2017-09-13T17:00:00","31.7","ND","ND","ND","39.2","0.4","ND","ND","ND","ND","460","0"],
    [64487,"2017-09-13T18:00:00","20.4","ND","ND","ND","28.8","0.4","ND","ND","ND","ND","122","0"],
    [64488,"2017-09-13T19:00:00","13.8","ND","ND","ND","19.6","0.3","ND","ND","ND","ND","0","0"],
    [64489,"2017-09-13T20:00:00","31.8","ND","ND","ND","11.9","0.6","ND","ND","ND","ND","0","0"],
    [64490,"2017-09-13T21:00:00","47.3","ND","ND","ND","10.0","0.4","ND","ND","ND","ND","0","0"],
    [64491,"2017-09-13T22:00:00","27.3","ND","ND","ND","3.8","1.1","ND","ND","ND","ND","0","0"],
    [64492,"2017-09-13T23:00:00","25","ND","ND","ND","2.7","2.7","ND","ND","ND","ND","0","0"],
    [64493,"2017-09-14T00:00:00","23.4","ND","ND","ND","2.2","1.7","ND","ND","ND","ND","0","0"],
    [64494,"2017-09-14T01:00:00","30.4","ND","ND","ND","2.5","1.3","ND","ND","ND","ND","0","0"],
    [64495,"2017-09-14T02:00:00","39.2","ND","ND","ND","3.1","1.3","ND","ND","ND","ND","0","0"],
    [64496,"2017-09-14T03:00:00","34.6","ND","ND","ND","3.2","0.7","ND","ND","ND","ND","0","0"],
    [64497,"2017-09-14T04:00:00","47.9","ND","ND","ND","4.0","1.3","ND","ND","ND","ND","0","0"],
    [64498,"2017-09-14T05:00:00","45.9","ND","ND","ND","2.9","1.1","ND","ND","ND","ND","0","0"],
    [64499,"2017-09-14T06:00:00","49.9","ND","ND","ND","3.0","1.3","ND","ND","ND","ND","0","0"],
    [64500,"2017-09-14T07:00:00","71.7","ND","ND","ND","3.1","0.9","ND","ND","ND","ND","142","0"],
    [64501,"2017-09-14T08:00:00","83.1","ND","ND","ND","5.8","1.3","ND","ND","ND","ND","390","0"],
    [64502,"2017-09-14T09:00:00","80.2","ND","ND","ND","8.9","1.6","ND","ND","ND","ND","607","0"],
    [64503,"2017-09-14T10:00:00","78.2","ND","ND","ND","23.7","1.2","ND","ND","ND","ND","664","0"],
    [64504,"2017-09-14T11:00:00","52.1","ND","ND","ND","45.0","0.4","ND","ND","ND","ND","666","0"],
    [64505,"2017-09-14T12:00:00","33.2","ND","ND","ND","60.5","0.4","ND","ND","ND","ND","666","0"],
    [64506,"2017-09-14T13:00:00","39.9","ND","ND","ND","76.9","0.4","ND","ND","ND","ND","666","0"],
    [64507,"2017-09-14T14:00:00","22","ND","ND","ND","80.8","0.5","ND","ND","ND","ND","666","0"],
    [64508,"2017-09-14T15:00:00","0.7","ND","ND","ND","58.0","0.4","ND","ND","ND","ND","582","0"],
    [64509,"2017-09-14T16:00:00","34.7","ND","ND","ND","30.3","0.2","ND","ND","ND","ND","661","0"],
    [64510,"2017-09-14T17:00:00","60.2","ND","ND","ND","27.6","0.3","ND","ND","ND","ND","329","0"],
    [64511,"2017-09-14T18:00:00","26.8","ND","ND","ND","23.2","0.2","ND","ND","ND","ND","167","0"],
    [64512,"2017-09-14T19:00:00","9","ND","ND","ND","13.8","0.3","ND","ND","ND","ND","0","0"],
    [64513,"2017-09-14T20:00:00","25.4","ND","ND","ND","6.6","0.4","ND","ND","ND","ND","0","0"],
    [64514,"2017-09-14T21:00:00","49.7","ND","ND","ND","4.0","0.6","ND","ND","ND","ND","0","0"],
    [64515,"2017-09-14T22:00:00","40","ND","ND","ND","2.4","0.9","ND","ND","ND","ND","0","0"],
    [64516,"2017-09-14T23:00:00","27.7","ND","ND","ND","2.5","1.0","ND","ND","ND","ND","0","0"],
    [64517,"2017-09-15T00:00:00","19.4","ND","ND","ND","1.2","1.0","ND","ND","ND","ND","0","0"],
    [64518,"2017-09-15T01:00:00","34","ND","ND","ND","2.2","0.9","ND","ND","ND","ND","0","0"],
    [64519,"2017-09-15T02:00:00","18.7","ND","ND","ND","1.8","1.6","ND","ND","ND","ND","0","0"],
    [64520,"2017-09-15T03:00:00","22","ND","ND","ND","4.0","1.3","ND","ND","ND","ND","0","0"],
    [64521,"2017-09-15T04:00:00","31.6","ND","ND","ND","1.7","0.7","ND","ND","ND","ND","0","0.25"],
    [64522,"2017-09-15T05:00:00","12.5","ND","ND","ND","4.4","0.2","ND","ND","ND","ND","0","0"],
    [64523,"2017-09-15T06:00:00","12.6","ND","ND","ND","1.4","1.0","ND","ND","ND","ND","0","0.25"],
    [64524,"2017-09-15T07:00:00","30.2","ND","ND","ND","1.4","1.0","ND","ND","ND","ND","93","0.25"],
    [64525,"2017-09-15T08:00:00","29.3","ND","ND","ND","1.5","0.5","ND","ND","ND","ND","546","0.25"],
    [64526,"2017-09-15T09:00:00","23.8","ND","ND","ND","7.3","0.3","ND","ND","ND","ND","591","0.25"],
    [64527,"2017-09-15T10:00:00","13.6","ND","ND","ND","25.0","0.4","ND","ND","ND","ND","664","0.25"],
    [64528,"2017-09-15T11:00:00","16.4","ND","ND","ND","39.9","0.3","ND","ND","ND","ND","664","0.25"],
    [64529,"2017-09-15T12:00:00","18.8","ND","ND","ND","65.4","0.2","ND","ND","ND","ND","665","0.25"],
    [64530,"2017-09-15T13:00:00","9.2","ND","ND","ND","88.5","0.3","ND","ND","ND","ND","665","0"],
    [64531,"2017-09-15T14:00:00","21.1","ND","ND","ND","89.1","0.3","ND","ND","ND","ND","665","0.25"],
    [64532,"2017-09-15T15:00:00","19.7","ND","ND","ND","88.1","0.4","ND","ND","ND","ND","665","0"],
    [64533,"2017-09-15T16:00:00","23.8","ND","ND","ND","58.9","0.3","ND","ND","ND","ND","643","0"],
    [64534,"2017-09-15T17:00:00","21.5","ND","ND","ND","33.9","0.5","ND","ND","ND","ND","365","0"],
    [64535,"2017-09-15T18:00:00","5.1","ND","ND","ND","23.0","0.2","ND","ND","ND","ND","64","0"],
    [64536,"2017-09-15T19:00:00","4.6","ND","ND","ND","10.8","0.3","ND","ND","ND","ND","0","0"],
    [64537,"2017-09-15T20:00:00","42.9","ND","ND","ND","4.8","0.4","ND","ND","ND","ND","0","0.25"],
    [64538,"2017-09-15T21:00:00","43.4","ND","ND","ND","1.5","1.4","ND","ND","ND","ND","0","0"],
    [64539,"2017-09-15T22:00:00","35.3","ND","ND","ND","1.8","1.2","ND","ND","ND","ND","0","0"],
    [64540,"2017-09-15T23:00:00","31.5","ND","ND","ND","1.6","1.2","ND","ND","ND","ND","0","0.25"],
    [64541,"2017-09-16T00:00:00","24.2","ND","ND","ND","1.1","1.1","ND","ND","ND","ND","0","0"],
    [64542,"2017-09-16T01:00:00","19.4","ND","ND","ND","1.7","0.8","ND","ND","ND","ND","0","0"],
    [64543,"2017-09-16T02:00:00","ND","ND","ND","ND","6.0","0.5","ND","ND","ND","ND","0","0.25"],
    [64544,"2017-09-16T03:00:00","18.9","ND","ND","ND","1.0","1.0","ND","ND","ND","ND","0","0"],
    [64545,"2017-09-16T04:00:00","38.3","ND","ND","ND","1.3","0.4","ND","ND","ND","ND","0","0"],
    [64546,"2017-09-16T05:00:00","27.1","ND","ND","ND","2.1","0.5","ND","ND","ND","ND","0","0.25"],
    [64547,"2017-09-16T06:00:00","22.6","ND","ND","ND","1.5","0.3","ND","ND","ND","ND","0","0"],
    [64548,"2017-09-16T07:00:00","17.3","ND","ND","ND","1.3","0.2","ND","ND","ND","ND","72","0"],
    [64549,"2017-09-16T08:00:00","49.8","ND","ND","ND","2.4","1.2","ND","ND","ND","ND","296","0"],
    [64550,"2017-09-16T09:00:00","50.8","ND","ND","ND","5.7","0.6","ND","ND","ND","ND","509","0.25"],
    [64551,"2017-09-16T10:00:00","51.1","ND","ND","ND","21.2","0.5","ND","ND","ND","ND","661","0"],
    [64552,"2017-09-16T11:00:00","40.3","ND","ND","ND","43.0","0.4","ND","ND","ND","ND","665","0.25"],
    [64553,"2017-09-16T12:00:00","37.7","ND","ND","ND","74.5","0.4","ND","ND","ND","ND","665","0"],
    [64554,"2017-09-16T13:00:00","35.3","ND","ND","ND","84.7","0.6","ND","ND","ND","ND","665","0"],
    [64555,"2017-09-16T14:00:00","24.3","ND","ND","ND","63.7","0.4","ND","ND","ND","ND","665","0.25"],
    [64556,"2017-09-16T15:00:00","16.9","ND","ND","ND","66.4","0.2","ND","ND","ND","ND","659","0"],
    [64557,"2017-09-16T16:00:00","23","ND","ND","ND","51.5","0.3","ND","ND","ND","ND","629","0.25"],
    [64558,"2017-09-16T17:00:00","5.2","ND","ND","ND","25.6","0.2","ND","ND","ND","ND","523","0"],
    [64559,"2017-09-16T18:00:00","8.2","ND","ND","ND","22.0","0.3","ND","ND","ND","ND","203","0"],
    [64560,"2017-09-16T19:00:00","0.2","ND","ND","ND","13.5","0.2","ND","ND","ND","ND","0","0"],
    [64561,"2017-09-16T20:00:00","ND","ND","ND","ND","5.3","0.5","ND","ND","ND","ND","0","0.25"],
    [64562,"2017-09-16T21:00:00","23.3","ND","ND","ND","1.6","0.3","ND","ND","ND","ND","0","0"],
    [64563,"2017-09-16T22:00:00","49.6","ND","ND","ND","1.1","0.8","ND","ND","ND","ND","0","0"],
    [64564,"2017-09-16T23:00:00","45.5","ND","ND","ND","1.3","1.4","ND","ND","ND","ND","0","0.25"],
    [64565,"2017-09-17T00:00:00","27.5","ND","ND","ND","0.9","0.8","ND","ND","ND","ND","0","0"],
    [64566,"2017-09-17T01:00:00","22.7","ND","ND","ND","1.1","0.9","ND","ND","ND","ND","0","0"],
    [64567,"2017-09-17T02:00:00","12.8","ND","ND","ND","1.3","0.8","ND","ND","ND","ND","0","0"],
    [64568,"2017-09-17T03:00:00","25.3","ND","ND","ND","1.1","0.6","ND","ND","ND","ND","0","0"],
    [64569,"2017-09-17T04:00:00","35.5","ND","ND","ND","1.1","0.7","ND","ND","ND","ND","0","0.25"],
    [64570,"2017-09-17T05:00:00","30.9","ND","ND","ND","0.8","1.0","ND","ND","ND","ND","0","0"],
    [64571,"2017-09-17T06:00:00","27.4","ND","ND","ND","1.1","1.2","ND","ND","ND","ND","0","0"],
    [64572,"2017-09-17T07:00:00","31.9","ND","ND","ND","1.3","0.5","ND","ND","ND","ND","75","0.25"],
    [64573,"2017-09-17T08:00:00","31.8","ND","ND","ND","7.7","0.6","ND","ND","ND","ND","352","0"],
    [64574,"2017-09-17T09:00:00","29.7","ND","ND","ND","12.5","0.9","ND","ND","ND","ND","565","0"],
    [64575,"2017-09-17T10:00:00","34.8","ND","ND","ND","24.0","0.8","ND","ND","ND","ND","667","0"],
    [64576,"2017-09-17T11:00:00","40.4","ND","ND","ND","33.4","1.2","ND","ND","ND","ND","659","0.25"],
    [64577,"2017-09-17T12:00:00","46.3","ND","ND","ND","46.6","1.3","ND","ND","ND","ND","670","0"],
    [64578,"2017-09-17T13:00:00","39.7","ND","ND","ND","54.5","0.8","ND","ND","ND","ND","671","0.25"],
    [64579,"2017-09-17T14:00:00","42","ND","ND","ND","84.5","ND","ND","ND","ND","ND","672","0"],
    [64580,"2017-09-17T15:00:00","44","ND","ND","ND","88.4","ND","ND","ND","ND","ND","671","0"],
    [64581,"2017-09-17T16:00:00","48.3","ND","ND","ND","50.4","ND","ND","ND","ND","ND","558","0.25"],
    [64582,"2017-09-17T17:00:00","34","ND","ND","ND","24.7","ND","ND","ND","ND","ND","315","0"],
    [64583,"2017-09-17T18:00:00","25.5","ND","ND","ND","20.8","ND","ND","ND","ND","ND","65","0.25"],
    [64584,"2017-09-17T19:00:00","29.1","ND","ND","ND","11.4","ND","ND","ND","ND","ND","0","0"],
    [64585,"2017-09-17T20:00:00","30.8","ND","ND","ND","8.8","ND","ND","ND","ND","ND","0","0"],
    [64586,"2017-09-17T21:00:00","33","ND","ND","ND","4.0","ND","ND","ND","ND","ND","0","0"],
    [64587,"2017-09-17T22:00:00","49.5","ND","ND","ND","0.8","ND","ND","ND","ND","ND","0","0"],
    [64588,"2017-09-17T23:00:00","17.8","ND","ND","ND","0.0","1.8","ND","ND","ND","ND","0","0.25"],
    [64589,"2017-09-18T00:00:00","ND","ND","ND","ND","0.5","0.3","ND","ND","ND","ND","0","0"],
    [64590,"2017-09-18T01:00:00","41.9","ND","ND","ND","2.7","1.1","ND","ND","ND","ND","0","0"],
    [64591,"2017-09-18T02:00:00","ND","ND","ND","ND","0.8","1.1","ND","ND","ND","ND","0","0"],
    [64592,"2017-09-18T03:00:00","ND","ND","ND","ND","0.5","0.8","ND","ND","ND","ND","0","0"],
    [64593,"2017-09-18T04:00:00","89","ND","ND","ND","0.7","1.0","ND","ND","ND","ND","0","0.25"],
    [64594,"2017-09-18T05:00:00","54","ND","ND","ND","0.5","1.0","ND","ND","ND","ND","0","0"],
    [64595,"2017-09-18T06:00:00","67.5","ND","ND","ND","0.8","1.2","ND","ND","ND","ND","0","0"],
    [64596,"2017-09-18T07:00:00","93.5","ND","ND","ND","1.5","2.6","ND","ND","ND","ND","114","0"],
    [64597,"2017-09-18T08:00:00","146.3","ND","ND","ND","3.5","2.0","ND","ND","ND","ND","424","0"],
    [64598,"2017-09-18T09:00:00","91","ND","ND","ND","5.1","1.8","ND","ND","ND","ND","664","0.25"],
    [64599,"2017-09-18T10:00:00","59.1","ND","ND","ND","22.3","1.4","ND","ND","ND","ND","664","0"],
    [64600,"2017-09-18T11:00:00","46.2","ND","ND","ND","53.1","1.2","ND","ND","ND","ND","665","0.25"],
    [64601,"2017-09-18T12:00:00","31","ND","ND","ND","65.4","0.6","ND","ND","ND","ND","665","0"],
    [64602,"2017-09-18T13:00:00","22.3","ND","ND","ND","87.9","0.5","ND","ND","ND","ND","665","0.25"],
    [64603,"2017-09-18T14:00:00","8.4","ND","ND","ND","85.4","0.3","ND","ND","ND","ND","665","0"],
    [64604,"2017-09-18T15:00:00","ND","ND","ND","ND","103.2","0.2","ND","ND","ND","ND","662","0.25"],
    [64605,"2017-09-18T16:00:00","36.8","ND","ND","ND","72.0","0.3","ND","ND","ND","ND","654","0"],
    [64606,"2017-09-18T17:00:00","80.7","ND","ND","ND","53.0","0.4","ND","ND","ND","ND","489","0"],
    [64607,"2017-09-18T18:00:00","22.2","ND","ND","ND","36.4","0.3","ND","ND","ND","ND","98","0.25"],
    [64608,"2017-09-18T19:00:00","8.3","ND","ND","ND","29.6","0.4","ND","ND","ND","ND","0","0"],
    [64609,"2017-09-18T20:00:00","29.5","ND","ND","ND","9.4","0.9","ND","ND","ND","ND","0","0"],
    [64610,"2017-09-18T21:00:00","49.3","ND","ND","ND","8.3","0.5","ND","ND","ND","ND","0","0.25"],
    [64611,"2017-09-18T22:00:00","17.8","ND","ND","ND","6.6","0.6","ND","ND","ND","ND","0","0"],
    [64612,"2017-09-18T23:00:00","26.2","ND","ND","ND","5.9","0.4","ND","ND","ND","ND","0","0"],
    [64613,"2017-09-19T00:00:00","37.6","ND","ND","ND","8.3","0.4","ND","ND","ND","ND","0","0"],
    [64614,"2017-09-19T01:00:00","18.7","ND","ND","ND","4.6","0.6","ND","ND","ND","ND","0","0.25"],
    [64615,"2017-09-19T02:00:00","23","ND","ND","ND","0.8","0.8","ND","ND","ND","ND","0","0.25"],
    [64616,"2017-09-19T03:00:00","8.9","ND","ND","ND","0.5","0.7","ND","ND","ND","ND","0","0.76"],
    [64617,"2017-09-19T04:00:00","7.9","ND","ND","ND","0.3","2.6","ND","ND","ND","ND","0","0.76"],
    [64618,"2017-09-19T05:00:00","7.6","ND","ND","ND","0.5","0.9","ND","ND","ND","ND","0","0.76"],
    [64619,"2017-09-19T06:00:00","7.8","ND","ND","ND","0.5","0.8","ND","ND","ND","ND","0","0.76"],
    [64620,"2017-09-19T07:00:00","23.6","ND","ND","ND","0.5","0.5","ND","ND","ND","ND","218","1.02"],
    [64621,"2017-09-19T08:00:00","33.3","ND","ND","ND","0.8","0.5","ND","ND","ND","ND","454","0.51"],
    [64622,"2017-09-19T09:00:00","37.7","ND","ND","ND","3.7","0.6","ND","ND","ND","ND","654","1.02"],
    [64623,"2017-09-19T10:00:00","25.7","ND","ND","ND","14.0","0.8","ND","ND","ND","ND","640","4.06"],
    [64624,"2017-09-19T11:00:00","38.7","ND","ND","ND","42.6","1.2","ND","ND","ND","ND","664","11.18"],
    [64625,"2017-09-19T12:00:00","33","ND","ND","ND","67.7","0.4","ND","ND","ND","ND","665","10.67"],
    [64626,"2017-09-19T13:00:00","26","ND","ND","ND","79.4","0.5","ND","ND","ND","ND","662","8.64"],
    [64627,"2017-09-19T14:00:00","23","ND","ND","ND","74.7","0.5","ND","ND","ND","ND","665","7.11"],
    [64628,"2017-09-19T15:00:00","21.5","ND","ND","ND","88.2","0.6","ND","ND","ND","ND","665","5.33"],
    [64629,"2017-09-19T16:00:00","15.3","ND","ND","ND","94.9","0.4","ND","ND","ND","ND","665","4.06"],
    [64630,"2017-09-19T17:00:00","ND","ND","ND","ND","81.4","0.1","ND","ND","ND","ND","613","3.3"],
    [64631,"2017-09-19T18:00:00","5.7","ND","ND","ND","50.4","0.4","ND","ND","ND","ND","247","2.79"],
    [64632,"2017-09-19T19:00:00","76.1","ND","ND","ND","31.4","0.4","ND","ND","ND","ND","0","1.78"],
    [64633,"2017-09-19T20:00:00","72.3","ND","ND","ND","7.3","0.4","ND","ND","ND","ND","0","1.27"],
    [64634,"2017-09-19T21:00:00","53.1","ND","ND","ND","2.2","1.0","ND","ND","ND","ND","0","0.51"],
    [64635,"2017-09-19T22:00:00","33.1","ND","ND","ND","1.1","0.7","ND","ND","ND","ND","0","0.51"],
    [64636,"2017-09-19T23:00:00","29","ND","ND","ND","1.1","0.4","ND","ND","ND","ND","0","0.25"],
    [64637,"2017-09-20T00:00:00","17.3","ND","ND","ND","0.8","0.7","ND","ND","ND","ND","0","0"],
    [64638,"2017-09-20T01:00:00","7.8","ND","ND","ND","0.8","0.7","ND","ND","ND","ND","0","0.25"],
    [64639,"2017-09-20T02:00:00","13.8","ND","ND","ND","0.6","0.6","ND","ND","ND","ND","0","0.25"],
    [64640,"2017-09-20T03:00:00","33.9","ND","ND","ND","0.9","1.2","ND","ND","ND","ND","0","0"],
    [64641,"2017-09-20T04:00:00","54.7","ND","ND","ND","1.0","0.8","ND","ND","ND","ND","0","0"],
    [64642,"2017-09-20T05:00:00","52.9","ND","ND","ND","0.9","0.6","ND","ND","ND","ND","0","0"],
    [64643,"2017-09-20T06:00:00","54.9","ND","ND","ND","1.3","1.1","ND","ND","ND","ND","0","0"],
    [64644,"2017-09-20T07:00:00","58.9","ND","ND","ND","1.3","1.0","ND","ND","ND","ND","73","0"],
    [64645,"2017-09-20T08:00:00","70.5","ND","ND","ND","1.7","1.0","ND","ND","ND","ND","364","0.25"],
    [64646,"2017-09-20T09:00:00","70.2","ND","ND","ND","4.0","1.0","ND","ND","ND","ND","605","0"],
    [64647,"2017-09-20T10:00:00","55.5","ND","ND","ND","15.4","1.1","ND","ND","ND","ND","664","0"],
    [64648,"2017-09-20T11:00:00","45.8","ND","ND","ND","26.4","1.0","ND","ND","ND","ND","654","0"],
    [64649,"2017-09-20T12:00:00","43.3","ND","ND","ND","44.7","0.7","ND","ND","ND","ND","669","0"],
    [64650,"2017-09-20T13:00:00","38.1","ND","ND","ND","59.0","0.9","ND","ND","ND","ND","671","0"],
    [64651,"2017-09-20T14:00:00","29.1","ND","ND","ND","60.7","ND","ND","ND","ND","ND","666","0"],
    [64652,"2017-09-20T15:00:00","33.1","ND","ND","ND","44.9","ND","ND","ND","ND","ND","557","0"],
    [64653,"2017-09-20T16:00:00","37.8","ND","ND","ND","30.4","ND","ND","ND","ND","ND","673","0"],
    [64654,"2017-09-20T17:00:00","39.5","ND","ND","ND","29.6","ND","ND","ND","ND","ND","638","0"],
    [64655,"2017-09-20T18:00:00","33.7","ND","ND","ND","20.4","ND","ND","ND","ND","ND","125","0"],
    [64656,"2017-09-20T19:00:00","30.9","ND","ND","ND","7.6","ND","ND","ND","ND","ND","0","0"],
    [64657,"2017-09-20T20:00:00","37.7","ND","ND","ND","6.4","ND","ND","ND","ND","ND","0","0"],
    [64658,"2017-09-20T21:00:00","34.3","ND","ND","ND","4.0","ND","ND","ND","ND","ND","0","0"],
    [64659,"2017-09-20T22:00:00","43.6","ND","ND","ND","3.1","ND","ND","ND","ND","ND","0","0"],
    [64660,"2017-09-20T23:00:00","65.3","ND","ND","ND","0.3","ND","ND","ND","ND","ND","0","0"],
    [64661,"2017-09-21T00:00:00","ND","ND","ND","ND","ND","0.9","ND","ND","ND","ND","0","0"],
    [64662,"2017-09-21T01:00:00","ND","ND","ND","ND","ND","1.1","ND","ND","ND","ND","0","0"],
    [64663,"2017-09-21T02:00:00","ND","ND","ND","ND","2.6","2.0","ND","ND","ND","ND","0","0"],
    [64664,"2017-09-21T03:00:00","ND","ND","ND","ND","0.7","0.8","ND","ND","ND","ND","0","0"],
    [64665,"2017-09-21T04:00:00","ND","ND","ND","ND","1.2","0.8","ND","ND","ND","ND","0","0"],
    [64666,"2017-09-21T05:00:00","157.1","ND","ND","ND","0.9","0.7","ND","ND","ND","ND","0","0"],
    [64667,"2017-09-21T06:00:00","85.4","ND","ND","ND","0.8","0.8","ND","ND","ND","ND","0","0"],
    [64668,"2017-09-21T07:00:00","86.4","ND","ND","ND","1.2","0.5","ND","ND","ND","ND","174","0.25"],
    [64669,"2017-09-21T08:00:00","172.3","ND","ND","ND","3.6","1.1","ND","ND","ND","ND","452","0"],
    [64670,"2017-09-21T09:00:00","111.8","ND","ND","ND","21.0","1.3","ND","ND","ND","ND","664","0"],
    [64671,"2017-09-21T10:00:00","64.3","ND","ND","ND","42.8","0.8","ND","ND","ND","ND","661","0"],
    [64672,"2017-09-21T11:00:00","43.5","ND","ND","ND","54.7","0.4","ND","ND","ND","ND","665","0"],
    [64673,"2017-09-21T12:00:00","32.8","ND","ND","ND","61.7","0.7","ND","ND","ND","ND","664","0"],
    [64674,"2017-09-21T13:00:00","27.9","ND","ND","ND","58.2","0.5","ND","ND","ND","ND","664","0"],
    [64675,"2017-09-21T14:00:00","22.6","ND","ND","ND","30.3","0.3","ND","ND","ND","ND","656","0"],
    [64676,"2017-09-21T15:00:00","12.3","ND","ND","ND","26.9","0.2","ND","ND","ND","ND","665","0"],
    [64677,"2017-09-21T16:00:00","18.9","ND","ND","ND","23.3","0.3","ND","ND","ND","ND","665","0"],
    [64678,"2017-09-21T17:00:00","8.3","ND","ND","ND","21.1","0.4","ND","ND","ND","ND","491","0"],
    [64679,"2017-09-21T18:00:00","ND","ND","ND","ND","15.3","0.1","ND","ND","ND","ND","150","0"],
    [64680,"2017-09-21T19:00:00","ND","ND","ND","ND","10.9","0.2","ND","ND","ND","ND","0","0"],
    [64681,"2017-09-21T20:00:00","23","ND","ND","ND","2.5","0.3","ND","ND","ND","ND","0","0"],
    [64682,"2017-09-21T21:00:00","84.6","ND","ND","ND","1.3","0.3","ND","ND","ND","ND","0","0"],
    [64683,"2017-09-21T22:00:00","48","ND","ND","ND","0.8","1.0","ND","ND","ND","ND","0","0"],
    [64684,"2017-09-21T23:00:00","29.9","ND","ND","ND","0.8","1.2","ND","ND","ND","ND","0","0"],
    [64685,"2017-09-22T00:00:00","16.3","ND","ND","ND","1.1","1.2","ND","ND","ND","ND","0","0"],
    [64686,"2017-09-22T01:00:00","44.8","ND","ND","ND","1.4","0.6","ND","ND","ND","ND","0","0"],
    [64687,"2017-09-22T02:00:00","47.5","ND","ND","ND","1.4","0.7","ND","ND","ND","ND","0","0"],
    [64688,"2017-09-22T03:00:00","41.6","ND","ND","ND","1.9","0.9","ND","ND","ND","ND","0","0"],
    [64689,"2017-09-22T04:00:00","29","ND","ND","ND","1.6","0.7","ND","ND","ND","ND","0","0"],
    [64690,"2017-09-22T05:00:00","31.8","ND","ND","ND","1.5","0.7","ND","ND","ND","ND","0","0"],
    [64691,"2017-09-22T06:00:00","33","ND","ND","ND","1.1","0.7","ND","ND","ND","ND","0","0"],
    [64692,"2017-09-22T07:00:00","44","ND","ND","ND","1.8","0.7","ND","ND","ND","ND","91","0"],
    [64693,"2017-09-22T08:00:00","63.6","ND","ND","ND","3.0","1.3","ND","ND","ND","ND","398","0"],
    [64694,"2017-09-22T09:00:00","67.7","ND","ND","ND","6.7","1.2","ND","ND","ND","ND","563","0"],
    [64695,"2017-09-22T10:00:00","61.1","ND","ND","ND","29.4","0.8","ND","ND","ND","ND","664","0"],
    [64696,"2017-09-22T11:00:00","45.8","ND","ND","ND","57.7","1.0","ND","ND","ND","ND","665","0"],
    [64697,"2017-09-22T12:00:00","48.7","ND","ND","ND","75.3","0.5","ND","ND","ND","ND","665","0"],
    [64698,"2017-09-22T13:00:00","35.7","ND","ND","ND","81.8","0.6","ND","ND","ND","ND","665","0"],
    [64699,"2017-09-22T14:00:00","30.9","ND","ND","ND","81.5","0.4","ND","ND","ND","ND","665","0"],
    [64700,"2017-09-22T15:00:00","34.6","ND","ND","ND","50.6","0.3","ND","ND","ND","ND","665","0"],
    [64701,"2017-09-22T16:00:00","31.1","ND","ND","ND","27.0","0.3","ND","ND","ND","ND","662","0"],
    [64702,"2017-09-22T17:00:00","51","ND","ND","ND","28.7","0.7","ND","ND","ND","ND","600","0"],
    [64703,"2017-09-22T18:00:00","45.6","ND","ND","ND","23.3","1.0","ND","ND","ND","ND","129","0"],
    [64704,"2017-09-22T19:00:00","43.5","ND","ND","ND","15.2","ND","ND","ND","ND","ND","0","0"],
    [64705,"2017-09-22T20:00:00","41.4","ND","ND","ND","8.0","ND","ND","ND","ND","ND","0","0"],
    [64706,"2017-09-22T21:00:00","39","ND","ND","ND","7.4","ND","ND","ND","ND","ND","0","0"],
    [64707,"2017-09-22T22:00:00","35.5","ND","ND","ND","1.8","ND","ND","ND","ND","ND","0","0"],
    [64708,"2017-09-22T23:00:00","34.1","ND","ND","ND","1.5","ND","ND","ND","ND","ND","0","0"],
    [64709,"2017-09-23T00:00:00","39.9","ND","ND","ND","2.2","ND","ND","ND","ND","ND","0","0"],
    [64710,"2017-09-23T01:00:00","42.4","ND","ND","ND","1.5","ND","ND","ND","ND","ND","0","0"],
    [64711,"2017-09-23T02:00:00","35","ND","ND","ND","1.4","ND","ND","ND","ND","ND","0","0"],
    [64712,"2017-09-23T03:00:00","54.5","ND","ND","ND","1.1","ND","ND","ND","ND","ND","0","0"],
    [64713,"2017-09-23T04:00:00","35.5","ND","ND","ND","1.6","1.2","ND","ND","ND","ND","0","0"],
    [64714,"2017-09-23T05:00:00","ND","ND","ND","ND","ND","1.0","ND","ND","ND","ND","0","0.51"],
    [64715,"2017-09-23T06:00:00","ND","ND","ND","ND","0.1","0.7","ND","ND","ND","ND","0","0.76"],
    [64716,"2017-09-23T07:00:00","ND","ND","ND","ND","0.7","1.3","ND","ND","ND","ND","122","1.02"],
    [64717,"2017-09-23T08:00:00","ND","ND","ND","ND","0.9","0.6","ND","ND","ND","ND","384","1.27"],
    [64718,"2017-09-23T09:00:00","123.2","ND","ND","ND","1.6","1.1","ND","ND","ND","ND","597","1.52"],
    [64719,"2017-09-23T10:00:00","113.2","ND","ND","ND","3.7","1.2","ND","ND","ND","ND","664","1.52"],
    [64720,"2017-09-23T11:00:00","75","ND","ND","ND","15.5","0.5","ND","ND","ND","ND","664","1.02"],
    [64721,"2017-09-23T12:00:00","32.6","ND","ND","ND","41.9","0.6","ND","ND","ND","ND","664","0.51"],
    [64722,"2017-09-23T13:00:00","36.8","ND","ND","ND","50.2","0.4","ND","ND","ND","ND","665","0.51"],
    [64723,"2017-09-23T14:00:00","62.3","ND","ND","ND","53.7","0.5","ND","ND","ND","ND","652","0"],
    [64724,"2017-09-23T15:00:00","24.9","ND","ND","ND","31.1","0.4","ND","ND","ND","ND","440","0.25"],
    [64725,"2017-09-23T16:00:00","ND","ND","ND","ND","21.4","0.4","ND","ND","ND","ND","487","0"],
    [64726,"2017-09-23T17:00:00","3","ND","ND","ND","22.9","0.3","ND","ND","ND","ND","545","0.25"],
    [64727,"2017-09-23T18:00:00","3.2","ND","ND","ND","22.8","0.2","ND","ND","ND","ND","200","0"],
    [64728,"2017-09-23T19:00:00","ND","ND","ND","ND","14.7","0.2","ND","ND","ND","ND","0","0"],
    [64729,"2017-09-23T20:00:00","5.1","ND","ND","ND","8.9","0.3","ND","ND","ND","ND","0","0"],
    [64730,"2017-09-23T21:00:00","47.8","ND","ND","ND","18.6","0.3","ND","ND","ND","ND","0","0"],
    [64731,"2017-09-23T22:00:00","56.2","ND","ND","ND","9.9","0.1","ND","ND","ND","ND","0","0.25"],
    [64732,"2017-09-23T23:00:00","85.6","ND","ND","ND","7.7","0.6","ND","ND","ND","ND","0","0.51"],
    [64733,"2017-09-24T00:00:00","47.9","ND","ND","ND","1.4","1.2","ND","ND","ND","ND","0","0.51"],
    [64734,"2017-09-24T01:00:00","24.9","ND","ND","ND","0.6","0.8","ND","ND","ND","ND","0","0.51"],
    [64735,"2017-09-24T02:00:00","25.8","ND","ND","ND","0.8","0.9","ND","ND","ND","ND","0","0.25"],
    [64736,"2017-09-24T03:00:00","19","ND","ND","ND","0.9","0.4","ND","ND","ND","ND","0","0.76"],
    [64737,"2017-09-24T04:00:00","5.1","ND","ND","ND","1.3","0.4","ND","ND","ND","ND","0","1.02"],
    [64738,"2017-09-24T05:00:00","3.2","ND","ND","ND","1.0","0.4","ND","ND","ND","ND","0","1.27"],
    [64739,"2017-09-24T06:00:00","14.2","ND","ND","ND","0.6","0.3","ND","ND","ND","ND","0","1.02"],
    [64740,"2017-09-24T07:00:00","12.9","ND","ND","ND","0.6","0.3","ND","ND","ND","ND","180","0.76"],
    [64741,"2017-09-24T08:00:00","14.4","ND","ND","ND","3.5","0.2","ND","ND","ND","ND","592","0.76"],
    [64742,"2017-09-24T09:00:00","16","ND","ND","ND","21.4","0.3","ND","ND","ND","ND","664","0.51"],
    [64743,"2017-09-24T10:00:00","9.8","ND","ND","ND","42.4","0.3","ND","ND","ND","ND","664","1.02"],
    [64744,"2017-09-24T11:00:00","9.6","ND","ND","ND","50.9","0.2","ND","ND","ND","ND","664","0.76"],
    [64745,"2017-09-24T12:00:00","19.9","ND","ND","ND","60.2","0.2","ND","ND","ND","ND","665","0.76"],
    [64746,"2017-09-24T13:00:00","13.4","ND","ND","ND","52.7","0.3","ND","ND","ND","ND","665","0.51"],
    [64747,"2017-09-24T14:00:00","14.7","ND","ND","ND","61.9","0.3","ND","ND","ND","ND","665","0.76"],
    [64748,"2017-09-24T15:00:00","20.9","ND","ND","ND","76.6","0.6","ND","ND","ND","ND","665","0.51"],
    [64749,"2017-09-24T16:00:00","21.8","ND","ND","ND","75.1","0.3","ND","ND","ND","ND","660","0.51"],
    [64750,"2017-09-24T17:00:00","2.9","ND","ND","ND","59.2","0.4","ND","ND","ND","ND","312","0.51"],
    [64751,"2017-09-24T18:00:00","18","ND","ND","ND","32.1","0.2","ND","ND","ND","ND","114","0.25"],
    [64752,"2017-09-24T19:00:00","25.2","ND","ND","ND","17.7","0.3","ND","ND","ND","ND","0","0.51"],
    [64753,"2017-09-24T20:00:00","19","ND","ND","ND","10.4","0.3","ND","ND","ND","ND","0","0.25"],
    [64754,"2017-09-24T21:00:00","25.8","ND","ND","ND","3.5","0.2","ND","ND","ND","ND","0","0.25"],
    [64755,"2017-09-24T22:00:00","34.7","ND","ND","ND","1.6","0.4","ND","ND","ND","ND","0","0.25"],
    [64756,"2017-09-24T23:00:00","23.1","ND","ND","ND","1.0","0.5","ND","ND","ND","ND","0","0.25"],
    [64757,"2017-09-25T00:00:00","19.8","ND","ND","ND","0.9","0.5","ND","ND","ND","ND","0","0.51"],
    [64758,"2017-09-25T01:00:00","26.9","ND","ND","ND","1.0","0.8","ND","ND","ND","ND","0","0"],
    [64759,"2017-09-25T02:00:00","30.7","ND","ND","ND","2.0","1.0","ND","ND","ND","ND","0","0.25"],
    [64760,"2017-09-25T03:00:00","25.3","ND","ND","ND","1.6","0.9","ND","ND","ND","ND","0","0.25"],
    [64761,"2017-09-25T04:00:00","21.8","ND","ND","ND","0.9","0.8","ND","ND","ND","ND","0","0.25"],
    [64762,"2017-09-25T05:00:00","ND","ND","ND","ND","ND","0.6","ND","ND","ND","ND","0","0"],
    [64763,"2017-09-25T06:00:00","ND","ND","ND","ND","0.5","0.9","ND","ND","ND","ND","0","0.25"],
    [64764,"2017-09-25T07:00:00","ND","ND","ND","ND","0.3","2.1","ND","ND","ND","ND","74","0"],
    [64765,"2017-09-25T08:00:00","ND","ND","ND","ND","0.8","2.2","ND","ND","ND","ND","357","0"],
    [64766,"2017-09-25T09:00:00","ND","ND","ND","ND","1.4","1.9","ND","ND","ND","ND","658","0.25"],
    [64767,"2017-09-25T10:00:00","95.8","ND","ND","ND","14.5","1.3","ND","ND","ND","ND","662","0"],
    [64768,"2017-09-25T11:00:00","69.6","ND","ND","ND","27.0","0.7","ND","ND","ND","ND","664","0.25"],
    [64769,"2017-09-25T12:00:00","58.2","ND","ND","ND","41.5","0.5","ND","ND","ND","ND","665","0"],
    [64770,"2017-09-25T13:00:00","39.8","ND","ND","ND","68.2","0.4","ND","ND","ND","ND","666","0.25"],
    [64771,"2017-09-25T14:00:00","41.9","ND","ND","ND","56.3","0.3","ND","ND","ND","ND","665","0.25"],
    [64772,"2017-09-25T15:00:00","ND","ND","ND","ND","ND","ND","ND","ND","ND","ND","668","0.25"],
    [64773,"2017-09-25T16:00:00","ND","ND","ND","ND","ND","ND","ND","ND","ND","ND","471","0.25"],
    [64774,"2017-09-25T17:00:00","ND","ND","ND","ND","ND","ND","ND","ND","ND","ND","512","0.25"],
    [64775,"2017-09-25T18:00:00","ND","ND","ND","ND","ND","ND","ND","ND","ND","ND","121","0"],
    [64776,"2017-09-25T19:00:00","ND","ND","ND","ND","ND","ND","ND","ND","ND","ND","0","0.25"],
    [64777,"2017-09-25T20:00:00","ND","ND","ND","ND","ND","ND","ND","ND","ND","ND","0","0"],
    [64778,"2017-09-25T21:00:00","ND","ND","ND","ND","ND","ND","ND","ND","ND","ND","0","0"],
    [64779,"2017-09-25T22:00:00","ND","ND","ND","ND","ND","ND","ND","ND","ND","ND","0","0"],
    [64780,"2017-09-25T23:00:00","ND","ND","ND","ND","ND","ND","ND","ND","ND","ND","0","0"],
    [64781,"2017-09-26T00:00:00","ND","ND","ND","ND","ND","ND","ND","ND","ND","ND","0","0.25"],
    [64782,"2017-09-26T01:00:00","ND","ND","ND","ND","ND","ND","ND","ND","ND","ND","0","0"],
    [64783,"2017-09-26T02:00:00","ND","ND","ND","ND","ND","ND","ND","ND","ND","ND","0","0"],
    [64784,"2017-09-26T03:00:00","ND","ND","ND","ND","ND","ND","ND","ND","ND","ND","0","0"],
    [64785,"2017-09-26T04:00:00","ND","ND","ND","ND","ND","ND","ND","ND","ND","ND","0","0.25"],
    [64786,"2017-09-26T05:00:00","ND","ND","ND","ND","ND","ND","ND","ND","ND","ND","0","0"],
    [64787,"2017-09-26T06:00:00","ND","ND","ND","ND","ND","ND","ND","ND","ND","ND","0","0"],
    [64788,"2017-09-26T07:00:00","ND","ND","ND","ND","ND","ND","ND","ND","ND","ND","196","0"],
    [64789,"2017-09-26T08:00:00","ND","ND","ND","ND","ND","ND","ND","ND","ND","ND","667","0"],
    [64790,"2017-09-26T09:00:00","ND","ND","ND","ND","ND","ND","ND","ND","ND","ND","662","0.25"],
    [64791,"2017-09-26T10:00:00","ND","ND","ND","ND","ND","ND","ND","ND","ND","ND","662","0"],
    [64792,"2017-09-26T11:00:00","ND","ND","ND","ND","ND","ND","ND","ND","ND","ND","669","0"],
    [64793,"2017-09-26T12:00:00","10.2","ND","ND","ND","37.8","ND","ND","ND","ND","ND","669","0.25"],
    [64794,"2017-09-26T13:00:00","6.5","ND","ND","ND","96.4","0.5","ND","ND","ND","ND","666","0"],
    [64795,"2017-09-26T14:00:00","ND","ND","ND","ND","108.5","0.5","ND","ND","ND","ND","663","0.25"],
    [64796,"2017-09-26T15:00:00","77.9","ND","ND","ND","77.7","0.7","ND","ND","ND","ND","615","0"],
    [64797,"2017-09-26T16:00:00","134.2","ND","ND","ND","32.0","0.5","ND","ND","ND","ND","453","0.25"],
    [64798,"2017-09-26T17:00:00","83.9","ND","ND","ND","27.6","0.4","ND","ND","ND","ND","254","0"],
    [64799,"2017-09-26T18:00:00","39.2","ND","ND","ND","28.9","0.3","ND","ND","ND","ND","75","0"],
    [64800,"2017-09-26T19:00:00","ND","ND","ND","ND","11.0","0.3","ND","ND","ND","ND","0","0.25"],
    [64801,"2017-09-26T20:00:00","ND","ND","ND","ND","9.0","0.2","ND","ND","ND","ND","0","0"],
    [64802,"2017-09-26T21:00:00","ND","ND","ND","ND","0.4","0.5","ND","ND","ND","ND","0","0"],
    [64803,"2017-09-26T22:00:00","40","ND","ND","ND","0.0","0.5","ND","ND","ND","ND","0","0"],
    [64804,"2017-09-26T23:00:00","82.3","ND","ND","ND","0.0","1.1","ND","ND","ND","ND","0","0"],
    [64805,"2017-09-27T00:00:00","91","ND","ND","ND","0.0","1.1","ND","ND","ND","ND","0","0.25"],
    [64806,"2017-09-27T01:00:00","45.1","ND","ND","ND","0.0","0.9","ND","ND","ND","ND","0","0"],
    [64807,"2017-09-27T02:00:00","37.6","ND","ND","ND","0.0","0.8","ND","ND","ND","ND","0","0"],
    [64808,"2017-09-27T03:00:00","37.6","ND","ND","ND","0.2","0.8","ND","ND","ND","ND","0","0"],
    [64809,"2017-09-27T04:00:00","40.6","ND","ND","ND","0.0","1.0","ND","ND","ND","ND","0","0"],
    [64810,"2017-09-27T05:00:00","72.2","ND","ND","ND","0.0","0.7","ND","ND","ND","ND","0","0"],
    [64811,"2017-09-27T06:00:00","96.6","ND","ND","ND","0.0","0.8","ND","ND","ND","ND","2","0"],
    [64812,"2017-09-27T07:00:00","87.4","ND","ND","ND","0.0","1.1","ND","ND","ND","ND","170","0.25"],
    [64813,"2017-09-27T08:00:00","104","ND","ND","ND","1.1","1.8","ND","ND","ND","ND","551","0"],
    [64814,"2017-09-27T09:00:00","92.9","ND","ND","ND","22.8","1.5","ND","ND","ND","ND","665","0"],
    [64815,"2017-09-27T10:00:00","52.3","ND","ND","ND","50.2","0.7","ND","ND","ND","ND","664","0"],
    [64816,"2017-09-27T11:00:00","42","ND","ND","ND","88.1","0.9","ND","ND","ND","ND","666","0"],
    [64817,"2017-09-27T12:00:00","45.7","ND","ND","ND","116.4","0.6","ND","ND","ND","ND","668","0.25"],
    [64818,"2017-09-27T13:00:00","45.9","ND","ND","ND","128.1","0.8","ND","ND","ND","ND","668","0"],
    [64819,"2017-09-27T14:00:00","42","ND","ND","ND","115.1","1.0","ND","ND","ND","ND","667","0"],
    [64820,"2017-09-27T15:00:00","35.9","ND","ND","ND","76.8","0.4","ND","ND","ND","ND","662","0"],
    [64821,"2017-09-27T16:00:00","32.6","ND","ND","ND","41.9","0.9","ND","ND","ND","ND","669","0.25"],
    [64822,"2017-09-27T17:00:00","30.7","ND","ND","ND","41.4","0.7","ND","ND","ND","ND","669","0"],
    [64823,"2017-09-27T18:00:00","25.5","ND","ND","ND","33.0","0.7","ND","ND","ND","ND","217","0"],
    [64824,"2017-09-27T19:00:00","21.9","ND","ND","ND","20.7","0.5","ND","ND","ND","ND","0","0"],
    [64825,"2017-09-27T20:00:00","30","ND","ND","ND","8.0","0.5","ND","ND","ND","ND","0","0.25"],
    [64826,"2017-09-27T21:00:00","7.7","ND","ND","ND","9.8","0.3","ND","ND","ND","ND","0","0"],
    [64827,"2017-09-27T22:00:00","ND","ND","ND","ND","3.0","0.4","ND","ND","ND","ND","0","0"],
    [64828,"2017-09-27T23:00:00","ND","ND","ND","ND","3.8","1.1","ND","ND","ND","ND","0","0"],
    [64829,"2017-09-28T00:00:00","ND","ND","ND","ND","5.4","0.8","ND","ND","ND","ND","0","0"],
    [64830,"2017-09-28T01:00:00","1.4","ND","ND","ND","6.0","0.9","ND","ND","ND","ND","0","0"],
    [64831,"2017-09-28T02:00:00","14.2","ND","ND","ND","7.9","1.3","ND","ND","ND","ND","0","0"],
    [64832,"2017-09-28T03:00:00","25.3","ND","ND","ND","9.0","1.3","ND","ND","ND","ND","0","0"],
    [64833,"2017-09-28T04:00:00","30.3","ND","ND","ND","8.9","1.4","ND","ND","ND","ND","0","0"],
    [64834,"2017-09-28T05:00:00","52.6","ND","ND","ND","12.9","0.5","ND","ND","ND","ND","0","0"],
    [64835,"2017-09-28T06:00:00","69.4","ND","ND","ND","1.7","0.8","ND","ND","ND","ND","0","0.25"],
    [64836,"2017-09-28T07:00:00","52.8","ND","ND","ND","0.0","1.0","ND","ND","ND","ND","108","0"],
    [64837,"2017-09-28T08:00:00","80","ND","ND","ND","0.8","0.6","ND","ND","ND","ND","268","0"],
    [64838,"2017-09-28T09:00:00","90","ND","ND","ND","6.4","1.3","ND","ND","ND","ND","566","0"],
    [64839,"2017-09-28T10:00:00","76.2","ND","ND","ND","36.2","0.8","ND","ND","ND","ND","666","0"],
    [64840,"2017-09-28T11:00:00","34.6","ND","ND","ND","41.5","0.7","ND","ND","ND","ND","666","0"],
    [64841,"2017-09-28T12:00:00","ND","ND","ND","ND","ND","ND","ND","ND","ND","ND","ND","ND"],
    [64842,"2017-09-28T13:00:00","ND","ND","ND","ND","ND","ND","ND","ND","ND","ND","ND","ND"],
    [64843,"2017-09-28T14:00:00","ND","ND","ND","ND","ND","ND","ND","ND","ND","ND","ND","ND"],
    [64844,"2017-09-28T15:00:00","ND","ND","ND","ND","ND","ND","ND","ND","ND","ND","ND","ND"],
    [64845,"2017-09-28T16:00:00","ND","ND","ND","ND","ND","ND","ND","ND","ND","ND","ND","ND"],
    [64846,"2017-09-28T17:00:00","ND","ND","ND","ND","ND","ND","ND","ND","ND","ND","ND","ND"],
    [64847,"2017-09-28T18:00:00","ND","ND","ND","ND","ND","ND","ND","ND","ND","ND","ND","ND"],
    [64848,"2017-09-28T19:00:00","ND","ND","ND","ND","ND","ND","ND","ND","ND","ND","ND","ND"],
    [64849,"2017-09-28T20:00:00","ND","ND","ND","ND","ND","ND","ND","ND","ND","ND","ND","ND"],
    [64850,"2017-09-28T21:00:00","ND","ND","ND","ND","ND","ND","ND","ND","ND","ND","ND","ND"],
    [64851,"2017-09-28T22:00:00","ND","ND","ND","ND","ND","ND","ND","ND","ND","ND","ND","ND"],
    [64852,"2017-09-28T23:00:00","ND","ND","ND","ND","ND","ND","ND","ND","ND","ND","ND","ND"],
    [64853,"2017-09-29T00:00:00","ND","ND","ND","ND","ND","ND","ND","ND","ND","ND","ND","ND"],
    [64854,"2017-09-29T01:00:00","ND","ND","ND","ND","ND","ND","ND","ND","ND","ND","ND","ND"],
    [64855,"2017-09-29T02:00:00","ND","ND","ND","ND","ND","ND","ND","ND","ND","ND","ND","ND"],
    [64856,"2017-09-29T03:00:00","ND","ND","ND","ND","ND","ND","ND","ND","ND","ND","ND","ND"],
    [64857,"2017-09-29T04:00:00","ND","ND","ND","ND","ND","ND","ND","ND","ND","ND","ND","ND"],
    [64858,"2017-09-29T05:00:00","ND","ND","ND","ND","ND","ND","ND","ND","ND","ND","ND","ND"],
    [64859,"2017-09-29T06:00:00","ND","ND","ND","ND","ND","ND","ND","ND","ND","ND","ND","ND"],
    [64860,"2017-09-29T07:00:00","ND","ND","ND","ND","ND","ND","ND","ND","ND","ND","ND","ND"],
    [64861,"2017-09-29T08:00:00","ND","ND","ND","ND","ND","ND","ND","ND","ND","ND","ND","ND"],
    [64862,"2017-09-29T09:00:00","ND","ND","ND","ND","ND","ND","ND","ND","ND","ND","ND","ND"],
    [64863,"2017-09-29T10:00:00","ND","ND","ND","ND","ND","ND","ND","ND","ND","ND","ND","ND"],
    [64864,"2017-09-29T11:00:00","ND","ND","ND","ND","ND","ND","ND","ND","ND","ND","ND","ND"],
    [64865,"2017-09-29T12:00:00","ND","ND","ND","ND","ND","ND","ND","ND","ND","ND","ND","ND"],
    [64866,"2017-09-29T13:00:00","ND","ND","ND","ND","ND","ND","ND","ND","ND","ND","ND","ND"],
    [64867,"2017-09-29T14:00:00","ND","ND","ND","ND","ND","ND","ND","ND","ND","ND","ND","ND"],
    [64868,"2017-09-29T15:00:00","ND","ND","ND","ND","ND","ND","ND","ND","ND","ND","ND","ND"],
    [64869,"2017-09-29T16:00:00","ND","ND","ND","ND","ND","ND","ND","ND","ND","ND","ND","ND"],
    [64870,"2017-09-29T17:00:00","ND","ND","ND","ND","ND","ND","ND","ND","ND","ND","ND","ND"],
    [64871,"2017-09-29T18:00:00","ND","ND","ND","ND","ND","ND","ND","ND","ND","ND","ND","ND"],
    [64872,"2017-09-29T19:00:00","ND","ND","ND","ND","ND","ND","ND","ND","ND","ND","ND","ND"],
    [64873,"2017-09-29T20:00:00","ND","ND","ND","ND","ND","ND","ND","ND","ND","ND","ND","ND"],
    [64874,"2017-09-29T21:00:00","ND","ND","ND","ND","ND","ND","ND","ND","ND","ND","ND","ND"],
    [64875,"2017-09-29T22:00:00","ND","ND","ND","ND","ND","ND","ND","ND","ND","ND","ND","ND"],
    [64876,"2017-09-29T23:00:00","ND","ND","ND","ND","ND","ND","ND","ND","ND","ND","ND","ND"],
    [64877,"2017-09-30T00:00:00","ND","ND","ND","ND","ND","ND","ND","ND","ND","ND","ND","ND"],
    [64878,"2017-09-30T01:00:00","ND","ND","ND","ND","ND","ND","ND","ND","ND","ND","ND","ND"],
    [64879,"2017-09-30T02:00:00","ND","ND","ND","ND","ND","ND","ND","ND","ND","ND","ND","ND"],
    [64880,"2017-09-30T03:00:00","ND","ND","ND","ND","ND","ND","ND","ND","ND","ND","ND","ND"],
    [64881,"2017-09-30T04:00:00","ND","ND","ND","ND","ND","ND","ND","ND","ND","ND","ND","ND"],
    [64882,"2017-09-30T05:00:00","ND","ND","ND","ND","ND","ND","ND","ND","ND","ND","ND","ND"],
    [64883,"2017-09-30T06:00:00","ND","ND","ND","ND","ND","ND","ND","ND","ND","ND","ND","ND"],
    [64884,"2017-09-30T07:00:00","ND","ND","ND","ND","ND","ND","ND","ND","ND","ND","ND","ND"],
    [64885,"2017-09-30T08:00:00","ND","ND","ND","ND","ND","ND","ND","ND","ND","ND","ND","ND"],
    [64886,"2017-09-30T09:00:00","ND","ND","ND","ND","ND","ND","ND","ND","ND","ND","ND","ND"],
    [64887,"2017-09-30T10:00:00","ND","ND","ND","ND","ND","ND","ND","ND","ND","ND","ND","ND"],
    [64888,"2017-09-30T11:00:00","ND","ND","ND","ND","ND","ND","ND","ND","ND","ND","ND","ND"],
    [64889,"2017-09-30T12:00:00","ND","ND","ND","ND","ND","ND","ND","ND","ND","ND","ND","ND"],
    [64890,"2017-09-30T13:00:00","ND","ND","ND","ND","ND","ND","ND","ND","ND","ND","ND","ND"],
    [64891,"2017-09-30T14:00:00","ND","ND","ND","ND","ND","ND","ND","ND","ND","ND","ND","ND"],
    [64892,"2017-09-30T15:00:00","ND","ND","ND","ND","ND","ND","ND","ND","ND","ND","ND","ND"],
    [64893,"2017-09-30T16:00:00","ND","ND","ND","ND","ND","ND","ND","ND","ND","ND","ND","ND"],
    [64894,"2017-09-30T17:00:00","ND","ND","ND","ND","ND","ND","ND","ND","ND","ND","ND","ND"],
    [64895,"2017-09-30T18:00:00","ND","ND","ND","ND","ND","ND","ND","ND","ND","ND","ND","ND"],
    [64896,"2017-09-30T19:00:00","ND","ND","ND","ND","ND","ND","ND","ND","ND","ND","ND","ND"],
    [64897,"2017-09-30T20:00:00","ND","ND","ND","ND","ND","ND","ND","ND","ND","ND","ND","ND"],
    [64898,"2017-09-30T21:00:00","ND","ND","ND","ND","ND","ND","ND","ND","ND","ND","ND","ND"],
    [64899,"2017-09-30T22:00:00","ND","ND","ND","ND","ND","ND","ND","ND","ND","ND","ND","ND"],
    [64900,"2017-09-30T23:00:00","ND","ND","ND","ND","ND","ND","ND","ND","ND","ND","ND","ND"],
    [64901,"2017-10-01T00:00:00","ND","ND","ND","ND","ND","ND","ND","ND","ND","ND","ND","ND"],
    [64902,"2017-10-01T01:00:00","ND","ND","ND","ND","ND","ND","ND","ND","ND","ND","ND","ND"],
    [64903,"2017-10-01T02:00:00","ND","ND","ND","ND","ND","ND","ND","ND","ND","ND","ND","ND"],
    [64904,"2017-10-01T03:00:00","ND","ND","ND","ND","ND","ND","ND","ND","ND","ND","ND","ND"],
    [64905,"2017-10-01T04:00:00","ND","ND","ND","ND","ND","ND","ND","ND","ND","ND","ND","ND"],
    [64906,"2017-10-01T05:00:00","ND","ND","ND","ND","ND","ND","ND","ND","ND","ND","ND","ND"],
    [64907,"2017-10-01T06:00:00","ND","ND","ND","ND","ND","ND","ND","ND","ND","ND","ND","ND"],
    [64908,"2017-10-01T07:00:00","ND","ND","ND","ND","ND","ND","ND","ND","ND","ND","ND","ND"],
    [64909,"2017-10-01T08:00:00","ND","ND","ND","ND","ND","ND","ND","ND","ND","ND","ND","ND"],
    [64910,"2017-10-01T09:00:00","ND","ND","ND","ND","ND","ND","ND","ND","ND","ND","ND","ND"],
    [64911,"2017-10-01T10:00:00","ND","ND","ND","ND","ND","ND","ND","ND","ND","ND","ND","ND"],
    [64912,"2017-10-01T11:00:00","ND","ND","ND","ND","ND","ND","ND","ND","ND","ND","ND","ND"],
    [64913,"2017-10-01T12:00:00","ND","ND","ND","ND","ND","ND","ND","ND","ND","ND","ND","ND"],
    [64914,"2017-10-01T13:00:00","ND","ND","ND","ND","ND","ND","ND","ND","ND","ND","ND","ND"],
    [64915,"2017-10-01T14:00:00","ND","ND","ND","ND","ND","ND","ND","ND","ND","ND","ND","ND"],
    [64916,"2017-10-01T15:00:00","ND","ND","ND","ND","ND","ND","ND","ND","ND","ND","ND","ND"],
    [64917,"2017-10-01T16:00:00","ND","ND","ND","ND","ND","ND","ND","ND","ND","ND","ND","ND"],
    [64918,"2017-10-01T17:00:00","ND","ND","ND","ND","ND","ND","ND","ND","ND","ND","ND","ND"],
    [64919,"2017-10-01T18:00:00","ND","ND","ND","ND","ND","ND","ND","ND","ND","ND","ND","ND"],
    [64920,"2017-10-01T19:00:00","ND","ND","ND","ND","ND","ND","ND","ND","ND","ND","ND","ND"],
    [64921,"2017-10-01T20:00:00","ND","ND","ND","ND","ND","ND","ND","ND","ND","ND","ND","ND"],
    [64922,"2017-10-01T21:00:00","ND","ND","ND","ND","ND","ND","ND","ND","ND","ND","ND","ND"],
    [64923,"2017-10-01T22:00:00","ND","ND","ND","ND","ND","ND","ND","ND","ND","ND","ND","ND"],
    [64924,"2017-10-01T23:00:00","ND","ND","ND","ND","ND","ND","ND","ND","ND","ND","ND","ND"],
    [64925,"2017-10-02T00:00:00","ND","ND","ND","ND","ND","ND","ND","ND","ND","ND","ND","ND"],
    [64926,"2017-10-02T01:00:00","ND","ND","ND","ND","ND","ND","ND","ND","ND","ND","ND","ND"],
    [64927,"2017-10-02T02:00:00","ND","ND","ND","ND","ND","ND","ND","ND","ND","ND","ND","ND"],
    [64928,"2017-10-02T03:00:00","ND","ND","ND","ND","ND","ND","ND","ND","ND","ND","ND","ND"],
    [64929,"2017-10-02T04:00:00","ND","ND","ND","ND","ND","ND","ND","ND","ND","ND","ND","ND"],
    [64930,"2017-10-02T05:00:00","ND","ND","ND","ND","ND","ND","ND","ND","ND","ND","ND","ND"],
    [64931,"2017-10-02T06:00:00","ND","ND","ND","ND","ND","ND","ND","ND","ND","ND","ND","ND"],
    [64932,"2017-10-02T07:00:00","ND","ND","ND","ND","ND","ND","ND","ND","ND","ND","ND","ND"],
    [64933,"2017-10-02T08:00:00","ND","ND","ND","ND","ND","ND","ND","ND","ND","ND","ND","ND"],
    [64934,"2017-10-02T09:00:00","ND","ND","ND","ND","ND","ND","ND","ND","ND","ND","ND","ND"],
    [64935,"2017-10-02T10:00:00","ND","ND","ND","ND","ND","ND","ND","ND","ND","ND","ND","ND"],
    [64936,"2017-10-02T11:00:00","ND","ND","ND","ND","ND","ND","ND","ND","ND","ND","ND","ND"],
    [64937,"2017-10-02T12:00:00","ND","ND","ND","ND","ND","ND","ND","ND","ND","ND","ND","ND"],
    [64938,"2017-10-02T13:00:00","ND","ND","ND","ND","ND","ND","ND","ND","ND","ND","ND","ND"],
    [64939,"2017-10-02T14:00:00","ND","ND","ND","ND","ND","ND","ND","ND","ND","ND","ND","ND"],
    [64940,"2017-10-02T15:00:00","ND","ND","ND","ND","ND","ND","ND","ND","ND","ND","ND","ND"],
    [64941,"2017-10-02T16:00:00","ND","ND","ND","ND","ND","ND","ND","ND","ND","ND","ND","ND"],
    [64942,"2017-10-02T17:00:00","ND","ND","ND","ND","ND","ND","ND","ND","ND","ND","ND","ND"],
    [64943,"2017-10-02T18:00:00","ND","ND","ND","ND","ND","ND","ND","ND","ND","ND","ND","ND"],
    [64944,"2017-10-02T19:00:00","ND","ND","ND","ND","ND","ND","ND","ND","ND","ND","ND","ND"],
    [64945,"2017-10-02T20:00:00","ND","ND","ND","ND","ND","ND","ND","ND","ND","ND","ND","ND"],
    [64946,"2017-10-02T21:00:00","ND","ND","ND","ND","ND","ND","ND","ND","ND","ND","ND","ND"],
    [64947,"2017-10-02T22:00:00","ND","ND","ND","ND","ND","ND","ND","ND","ND","ND","ND","ND"],
    [64948,"2017-10-02T23:00:00","ND","ND","ND","ND","ND","ND","ND","ND","ND","ND","ND","ND"],
    [64949,"2017-10-03T00:00:00","ND","ND","ND","ND","ND","ND","ND","ND","ND","ND","ND","ND"],
    [64950,"2017-10-03T01:00:00","ND","ND","ND","ND","ND","ND","ND","ND","ND","ND","ND","ND"],
    [64951,"2017-10-03T02:00:00","ND","ND","ND","ND","ND","ND","ND","ND","ND","ND","ND","ND"],
    [64952,"2017-10-03T03:00:00","ND","ND","ND","ND","ND","ND","ND","ND","ND","ND","ND","ND"],
    [64953,"2017-10-03T04:00:00","ND","ND","ND","ND","ND","ND","ND","ND","ND","ND","ND","ND"],
    [64954,"2017-10-03T05:00:00","ND","ND","ND","ND","ND","ND","ND","ND","ND","ND","ND","ND"],
    [64955,"2017-10-03T06:00:00","ND","ND","ND","ND","ND","ND","ND","ND","ND","ND","ND","ND"],
    [64956,"2017-10-03T07:00:00","ND","ND","ND","ND","ND","ND","ND","ND","ND","ND","ND","ND"],
    [64957,"2017-10-03T08:00:00","ND","ND","ND","ND","ND","ND","ND","ND","ND","ND","ND","ND"],
    [64958,"2017-10-03T09:00:00","ND","ND","ND","ND","ND","ND","ND","ND","ND","ND","ND","ND"],
    [64959,"2017-10-03T10:00:00","ND","ND","ND","ND","ND","ND","ND","ND","ND","ND","ND","ND"],
    [64960,"2017-10-03T11:00:00","ND","ND","ND","ND","ND","ND","ND","ND","ND","ND","ND","ND"],
    [64961,"2017-10-03T12:00:00","ND","ND","ND","ND","ND","ND","ND","ND","ND","ND","ND","ND"],
    [64962,"2017-10-03T13:00:00","ND","ND","ND","ND","ND","ND","ND","ND","ND","ND","ND","ND"],
    [64963,"2017-10-03T14:00:00","ND","ND","ND","ND","ND","ND","ND","ND","ND","ND","ND","ND"],
    [64964,"2017-10-03T15:00:00","ND","ND","ND","ND","ND","ND","ND","ND","ND","ND","ND","ND"],
    [64965,"2017-10-03T16:00:00","ND","ND","ND","ND","ND","ND","ND","ND","ND","ND","ND","ND"],
    [64966,"2017-10-03T17:00:00","ND","ND","ND","ND","ND","ND","ND","ND","ND","ND","ND","ND"],
    [64967,"2017-10-03T18:00:00","ND","ND","ND","ND","ND","ND","ND","ND","ND","ND","ND","ND"],
    [64968,"2017-10-03T19:00:00","ND","ND","ND","ND","ND","ND","ND","ND","ND","ND","ND","ND"],
    [64969,"2017-10-03T20:00:00","ND","ND","ND","ND","ND","ND","ND","ND","ND","ND","ND","ND"],
    [64970,"2017-10-03T21:00:00","ND","ND","ND","ND","ND","ND","ND","ND","ND","ND","ND","ND"],
    [64971,"2017-10-03T22:00:00","ND","ND","ND","ND","ND","ND","ND","ND","ND","ND","ND","ND"],
    [64972,"2017-10-03T23:00:00","ND","ND","ND","ND","ND","ND","ND","ND","ND","ND","ND","ND"],
    [64973,"2017-10-04T00:00:00","ND","ND","ND","ND","ND","ND","ND","ND","ND","ND","ND","ND"],
    [64974,"2017-10-04T01:00:00","ND","ND","ND","ND","ND","ND","ND","ND","ND","ND","ND","ND"],
    [64975,"2017-10-04T02:00:00","ND","ND","ND","ND","ND","ND","ND","ND","ND","ND","ND","ND"],
    [64976,"2017-10-04T03:00:00","ND","ND","ND","ND","ND","ND","ND","ND","ND","ND","ND","ND"],
    [64977,"2017-10-04T04:00:00","ND","ND","ND","ND","ND","ND","ND","ND","ND","ND","ND","ND"],
    [64978,"2017-10-04T05:00:00","ND","ND","ND","ND","ND","ND","ND","ND","ND","ND","ND","ND"],
    [64979,"2017-10-04T06:00:00","ND","ND","ND","ND","ND","ND","ND","ND","ND","ND","ND","ND"],
    [64980,"2017-10-04T07:00:00","ND","ND","ND","ND","ND","ND","ND","ND","ND","ND","ND","ND"],
    [64981,"2017-10-04T08:00:00","ND","ND","ND","ND","ND","ND","ND","ND","ND","ND","ND","ND"],
    [64982,"2017-10-04T09:00:00","ND","ND","ND","ND","ND","ND","ND","ND","ND","ND","ND","ND"],
    [64983,"2017-10-04T10:00:00","ND","ND","ND","ND","ND","ND","ND","ND","ND","ND","ND","ND"],
    [64984,"2017-10-04T11:00:00","ND","ND","ND","ND","ND","ND","ND","ND","ND","ND","ND","ND"],
    [64985,"2017-10-04T12:00:00","ND","ND","ND","ND","ND","ND","ND","ND","ND","ND","ND","ND"],
    [64986,"2017-10-04T13:00:00","ND","ND","ND","ND","ND","ND","ND","ND","ND","ND","ND","ND"],
    [64987,"2017-10-04T14:00:00","ND","ND","ND","ND","ND","ND","ND","ND","ND","ND","ND","ND"],
    [64988,"2017-10-04T15:00:00","ND","ND","ND","ND","ND","ND","ND","ND","ND","ND","ND","ND"],
    [64989,"2017-10-04T16:00:00","ND","ND","ND","ND","ND","ND","ND","ND","ND","ND","ND","ND"],
    [64990,"2017-10-04T17:00:00","ND","ND","ND","ND","ND","ND","ND","ND","ND","ND","ND","ND"],
    [64991,"2017-10-04T18:00:00","ND","ND","ND","ND","ND","ND","ND","ND","ND","ND","ND","ND"],
    [64992,"2017-10-04T19:00:00","ND","ND","ND","ND","ND","ND","ND","ND","ND","ND","ND","ND"],
    [64993,"2017-10-04T20:00:00","ND","ND","ND","ND","ND","ND","ND","ND","ND","ND","ND","ND"],
    [64994,"2017-10-04T21:00:00","ND","ND","ND","ND","ND","ND","ND","ND","ND","ND","ND","ND"],
    [64995,"2017-10-04T22:00:00","ND","ND","ND","ND","ND","ND","ND","ND","ND","ND","ND","ND"],
    [64996,"2017-10-04T23:00:00","ND","ND","ND","ND","ND","ND","ND","ND","ND","ND","ND","ND"],
    [64997,"2017-10-05T00:00:00","ND","ND","ND","ND","ND","ND","ND","ND","ND","ND","ND","ND"],
    [64998,"2017-10-05T01:00:00","ND","ND","ND","ND","ND","ND","ND","ND","ND","ND","ND","ND"],
    [64999,"2017-10-05T02:00:00","ND","ND","ND","ND","ND","ND","ND","ND","ND","ND","ND","ND"],
    [65000,"2017-10-05T03:00:00","ND","ND","ND","ND","ND","ND","ND","ND","ND","ND","ND","ND"],
    [65001,"2017-10-05T04:00:00","ND","ND","ND","ND","ND","ND","ND","ND","ND","ND","ND","ND"],
    [65002,"2017-10-05T05:00:00","ND","ND","ND","ND","ND","ND","ND","ND","ND","ND","ND","ND"],
    [65003,"2017-10-05T06:00:00","ND","ND","ND","ND","ND","ND","ND","ND","ND","ND","ND","ND"],
    [65004,"2017-10-05T07:00:00","ND","ND","ND","ND","ND","ND","ND","ND","ND","ND","ND","ND"],
    [65005,"2017-10-05T08:00:00","ND","ND","ND","ND","ND","ND","ND","ND","ND","ND","ND","ND"],
    [65006,"2017-10-05T09:00:00","ND","ND","ND","ND","ND","ND","ND","ND","ND","ND","ND","ND"],
    [65007,"2017-10-05T10:00:00","ND","ND","ND","ND","ND","ND","ND","ND","ND","ND","ND","ND"],
    [65008,"2017-10-05T11:00:00","28.4","ND","ND","ND","41.9","ND","ND","ND","ND","ND","665","0"],
    [65009,"2017-10-05T12:00:00","71","ND","ND","ND","40.2","0.4","ND","ND","ND","ND","665","0.51"],
    [65010,"2017-10-05T13:00:00","41.3","ND","ND","ND","44.1","0.2","ND","ND","ND","ND","666","0"],
    [65011,"2017-10-05T14:00:00","23.4","ND","ND","ND","44.0","0.3","ND","ND","ND","ND","540","0.51"],
    [65012,"2017-10-05T15:00:00","16.8","ND","ND","ND","33.0","0.3","ND","ND","ND","ND","418","0"],
    [65013,"2017-10-05T16:00:00","16.2","ND","ND","ND","16.5","0.3","ND","ND","ND","ND","557","0.25"],
    [65014,"2017-10-05T17:00:00","19.9","ND","ND","ND","11.4","0.3","ND","ND","ND","ND","337","0.25"],
    [65015,"2017-10-05T18:00:00","23.2","ND","ND","ND","3.6","0.7","ND","ND","ND","ND","63","0.25"],
    [65016,"2017-10-05T19:00:00","27.9","ND","ND","ND","7.3","0.3","ND","ND","ND","ND","0","0.25"],
    [65017,"2017-10-05T20:00:00","36.2","ND","ND","ND","3.8","0.4","ND","ND","ND","ND","0","0"],
    [65018,"2017-10-05T21:00:00","31.7","ND","ND","ND","1.5","0.5","ND","ND","ND","ND","0","0"],
    [65019,"2017-10-05T22:00:00","15.1","ND","ND","ND","1.3","0.4","ND","ND","ND","ND","0","0.25"],
    [65020,"2017-10-05T23:00:00","9.3","ND","ND","ND","1.3","0.5","ND","ND","ND","ND","0","0.25"],
    [65021,"2017-10-06T00:00:00","26.1","ND","ND","ND","1.0","1.3","ND","ND","ND","ND","0","0"],
    [65022,"2017-10-06T01:00:00","29.6","ND","ND","ND","1.6","1.6","ND","ND","ND","ND","0","0.25"],
    [65023,"2017-10-06T02:00:00","28.7","ND","ND","ND","2.9","0.8","ND","ND","ND","ND","0","0.25"],
    [65024,"2017-10-06T03:00:00","30.1","ND","ND","ND","2.7","0.7","ND","ND","ND","ND","0","0"],
    [65025,"2017-10-06T04:00:00","31.7","ND","ND","ND","3.3","0.5","ND","ND","ND","ND","0","0.25"],
    [65026,"2017-10-06T05:00:00","37.6","ND","ND","ND","1.6","0.6","ND","ND","ND","ND","0","0.25"],
    [65027,"2017-10-06T06:00:00","47.7","ND","ND","ND","1.8","0.5","ND","ND","ND","ND","0","0"],
    [65028,"2017-10-06T07:00:00","46.4","ND","ND","ND","1.8","1.7","ND","ND","ND","ND","128","0.25"],
    [65029,"2017-10-06T08:00:00","47.7","ND","ND","ND","2.5","1.6","ND","ND","ND","ND","286","0.25"],
    [65030,"2017-10-06T09:00:00","38.5","ND","ND","ND","5.7","1.2","ND","ND","ND","ND","554","0"],
    [65031,"2017-10-06T10:00:00","33.7","ND","ND","ND","14.7","0.7","ND","ND","ND","ND","665","0.25"],
    [65032,"2017-10-06T11:00:00","39.5","ND","ND","ND","36.6","0.6","ND","ND","ND","ND","665","0.25"],
    [65033,"2017-10-06T12:00:00","38.6","ND","ND","ND","54.7","0.4","ND","ND","ND","ND","666","0.51"],
    [65034,"2017-10-06T13:00:00","35.8","ND","ND","ND","82.8","0.4","ND","ND","ND","ND","666","0"],
    [65035,"2017-10-06T14:00:00","42","ND","ND","ND","109.1","0.4","ND","ND","ND","ND","666","0.25"],
    [65036,"2017-10-06T15:00:00","42.4","ND","ND","ND","75.7","0.4","ND","ND","ND","ND","560","0.25"],
    [65037,"2017-10-06T16:00:00","19.8","ND","ND","ND","37.0","0.6","ND","ND","ND","ND","666","0.25"],
    [65038,"2017-10-06T17:00:00","5.8","ND","ND","ND","34.8","0.2","ND","ND","ND","ND","629","0.25"],
    [65039,"2017-10-06T18:00:00","ND","ND","ND","ND","16.2","0.2","ND","ND","ND","ND","174","0.51"],
    [65040,"2017-10-06T19:00:00","ND","ND","ND","ND","3.4","0.3","ND","ND","ND","ND","0","0"],
    [65041,"2017-10-06T20:00:00","35.3","ND","ND","ND","2.4","0.5","ND","ND","ND","ND","0","0.25"],
    [65042,"2017-10-06T21:00:00","69.2","ND","ND","ND","2.1","0.3","ND","ND","ND","ND","0","0.25"],
    [65043,"2017-10-06T22:00:00","39.9","ND","ND","ND","1.4","0.3","ND","ND","ND","ND","0","0.25"],
    [65044,"2017-10-06T23:00:00","42.9","ND","ND","ND","1.4","0.3","ND","ND","ND","ND","0","0.25"],
    [65045,"2017-10-07T00:00:00","70.6","ND","ND","ND","1.0","0.4","ND","ND","ND","ND","0","0.25"],
    [65046,"2017-10-07T01:00:00","74.1","ND","ND","ND","0.9","0.6","ND","ND","ND","ND","0","0.25"],
    [65047,"2017-10-07T02:00:00","43.7","ND","ND","ND","0.8","0.5","ND","ND","ND","ND","0","0.25"],
    [65048,"2017-10-07T03:00:00","34.9","ND","ND","ND","1.6","0.6","ND","ND","ND","ND","0","0.25"],
    [65049,"2017-10-07T04:00:00","35.4","ND","ND","ND","1.1","0.3","ND","ND","ND","ND","0","0"],
    [65050,"2017-10-07T05:00:00","35.6","ND","ND","ND","0.6","0.5","ND","ND","ND","ND","0","0"],
    [65051,"2017-10-07T06:00:00","27.7","ND","ND","ND","0.5","0.3","ND","ND","ND","ND","0","0.25"],
    [65052,"2017-10-07T07:00:00","35.1","ND","ND","ND","1.2","0.3","ND","ND","ND","ND","117","0.25"],
    [65053,"2017-10-07T08:00:00","47.7","ND","ND","ND","2.2","0.4","ND","ND","ND","ND","307","0"],
    [65054,"2017-10-07T09:00:00","69.3","ND","ND","ND","6.6","0.2","ND","ND","ND","ND","591","0.25"],
    [65055,"2017-10-07T10:00:00","79","ND","ND","ND","17.8","0.4","ND","ND","ND","ND","665","0.25"],
    [65056,"2017-10-07T11:00:00","58.5","ND","ND","ND","24.4","1.1","ND","ND","ND","ND","665","0"],
    [65057,"2017-10-07T12:00:00","57.6","ND","ND","ND","55.8","0.5","ND","ND","ND","ND","666","0.25"],
    [65058,"2017-10-07T13:00:00","56.4","ND","ND","ND","88.5","0.5","ND","ND","ND","ND","666","0.25"],
    [65059,"2017-10-07T14:00:00","33.8","ND","ND","ND","83.1","0.3","ND","ND","ND","ND","666","0.25"],
    [65060,"2017-10-07T15:00:00","21.2","ND","ND","ND","85.2","0.3","ND","ND","ND","ND","666","0.25"],
    [65061,"2017-10-07T16:00:00","16.4","ND","ND","ND","80.3","0.1","ND","ND","ND","ND","620","0"],
    [65062,"2017-10-07T17:00:00","11.4","ND","ND","ND","71.4","0.3","ND","ND","ND","ND","555","0.25"],
    [65063,"2017-10-07T18:00:00","3.5","ND","ND","ND","39.5","0.2","ND","ND","ND","ND","67","0.25"],
    [65064,"2017-10-07T19:00:00","1.8","ND","ND","ND","13.6","0.5","ND","ND","ND","ND","0","0"],
    [65065,"2017-10-07T20:00:00","ND","ND","ND","ND","12.6","0.2","ND","ND","ND","ND","0","0.25"],
    [65066,"2017-10-07T21:00:00","24.6","ND","ND","ND","2.8","0.5","ND","ND","ND","ND","0","0.25"],
    [65067,"2017-10-07T22:00:00","89.9","ND","ND","ND","1.5","0.6","ND","ND","ND","ND","0","0"],
    [65068,"2017-10-07T23:00:00","70.5","ND","ND","ND","1.4","0.5","ND","ND","ND","ND","0","0"],
    [65069,"2017-10-08T00:00:00","43","ND","ND","ND","1.5","0.3","ND","ND","ND","ND","0","0.25"],
    [65070,"2017-10-08T01:00:00","40.2","ND","ND","ND","0.9","0.5","ND","ND","ND","ND","0","0"],
    [65071,"2017-10-08T02:00:00","41.1","ND","ND","ND","0.7","0.4","ND","ND","ND","ND","0","0.25"],
    [65072,"2017-10-08T03:00:00","45.3","ND","ND","ND","0.3","0.3","ND","ND","ND","ND","0","0"],
    [65073,"2017-10-08T04:00:00","ND","ND","ND","ND","0.9","0.1","ND","ND","ND","ND","0","0"],
    [65074,"2017-10-08T05:00:00","ND","ND","ND","ND","3.5","1.0","ND","ND","ND","ND","0","0.25"],
    [65075,"2017-10-08T06:00:00","ND","ND","ND","ND","0.2","1.2","ND","ND","ND","ND","0","0"],
    [65076,"2017-10-08T07:00:00","ND","ND","ND","ND","0.9","0.9","ND","ND","ND","ND","245","0.25"],
    [65077,"2017-10-08T08:00:00","ND","ND","ND","ND","2.2","3.8","ND","ND","ND","ND","652","0"],
    [65078,"2017-10-08T09:00:00","ND","ND","ND","ND","15.3","2.7","ND","ND","ND","ND","664","0"],
    [65079,"2017-10-08T10:00:00","110.1","ND","ND","ND","30.7","1.4","ND","ND","ND","ND","665","0"],
    [65080,"2017-10-08T11:00:00","57.7","ND","ND","ND","57.3","0.9","ND","ND","ND","ND","666","0.25"],
    [65081,"2017-10-08T12:00:00","39.8","ND","ND","ND","78.1","0.4","ND","ND","ND","ND","668","0"],
    [65082,"2017-10-08T13:00:00","37.3","ND","ND","ND","94.0","0.3","ND","ND","ND","ND","668","0"],
    [65083,"2017-10-08T14:00:00","33.2","ND","ND","ND","110.4","0.4","ND","ND","ND","ND","668","0"],
    [65084,"2017-10-08T15:00:00","35.1","ND","ND","ND","89.3","0.4","ND","ND","ND","ND","566","0"],
    [65085,"2017-10-08T16:00:00","26.5","ND","ND","ND","32.9","0.6","ND","ND","ND","ND","232","0.25"],
    [65086,"2017-10-08T17:00:00","18.8","ND","ND","ND","38.4","0.3","ND","ND","ND","ND","247","0"],
    [65087,"2017-10-08T18:00:00","1","ND","ND","ND","34.1","0.2","ND","ND","ND","ND","33","0"],
    [65088,"2017-10-08T19:00:00","3","ND","ND","ND","24.3","0.3","ND","ND","ND","ND","0","0"],
    [65089,"2017-10-08T20:00:00","2.6","ND","ND","ND","10.5","0.8","ND","ND","ND","ND","0","0"],
    [65090,"2017-10-08T21:00:00","16","ND","ND","ND","4.6","0.3","ND","ND","ND","ND","0","0.25"],
    [65091,"2017-10-08T22:00:00","1","ND","ND","ND","2.0","0.7","ND","ND","ND","ND","0","0"],
    [65092,"2017-10-08T23:00:00","ND","ND","ND","ND","9.0","0.7","ND","ND","ND","ND","0","0"],
    [65093,"2017-10-09T00:00:00","8.2","ND","ND","ND","6.0","0.5","ND","ND","ND","ND","0","0"],
    [65094,"2017-10-09T01:00:00","28.2","ND","ND","ND","4.0","0.6","ND","ND","ND","ND","0","0"],
    [65095,"2017-10-09T02:00:00","3.4","ND","ND","ND","3.7","0.4","ND","ND","ND","ND","0","0"],
    [65096,"2017-10-09T03:00:00","33.8","ND","ND","ND","6.0","0.3","ND","ND","ND","ND","0","0.25"],
    [65097,"2017-10-09T04:00:00","49.1","ND","ND","ND","7.8","0.6","ND","ND","ND","ND","0","0"],
    [65098,"2017-10-09T05:00:00","48.3","ND","ND","ND","4.5","0.5","ND","ND","ND","ND","0","0"],
    [65099,"2017-10-09T06:00:00","57.7","ND","ND","ND","4.7","0.7","ND","ND","ND","ND","4","0.25"],
    [65100,"2017-10-09T07:00:00","91.8","ND","ND","ND","4.5","0.5","ND","ND","ND","ND","133","0"],
    [65101,"2017-10-09T08:00:00","96.1","ND","ND","ND","5.3","0.5","ND","ND","ND","ND","461","0"],
    [65102,"2017-10-09T09:00:00","112.1","ND","ND","ND","6.6","0.7","ND","ND","ND","ND","660","0"],
    [65103,"2017-10-09T10:00:00","119.8","ND","ND","ND","21.0","0.7","ND","ND","ND","ND","664","0"],
    [65104,"2017-10-09T11:00:00","54.4","ND","ND","ND","39.3","0.5","ND","ND","ND","ND","664","0"],
    [65105,"2017-10-09T12:00:00","24.4","ND","ND","ND","35.6","0.4","ND","ND","ND","ND","664","0"],
    [65106,"2017-10-09T13:00:00","49.3","ND","ND","ND","30.2","0.5","ND","ND","ND","ND","666","0"],
    [65107,"2017-10-09T14:00:00","21.7","ND","ND","ND","30.7","0.9","ND","ND","ND","ND","661","0"],
    [65108,"2017-10-09T15:00:00","24","ND","ND","ND","26.1","0.7","ND","ND","ND","ND","530","0"],
    [65109,"2017-10-09T16:00:00","ND","ND","ND","ND","ND","ND","ND","ND","ND","ND","576","0"],
    [65110,"2017-10-09T17:00:00","ND","ND","ND","ND","ND","ND","ND","ND","ND","ND","170","0"],
    [65111,"2017-10-09T18:00:00","ND","ND","ND","ND","ND","ND","ND","ND","ND","ND","24","0"],
    [65112,"2017-10-09T19:00:00","ND","ND","ND","ND","ND","ND","ND","ND","ND","ND","0","0"],
    [65113,"2017-10-09T20:00:00","ND","ND","ND","ND","ND","ND","ND","ND","ND","ND","0","0"],
    [65114,"2017-10-09T21:00:00","ND","ND","ND","ND","ND","ND","ND","ND","ND","ND","0","0"],
    [65115,"2017-10-09T22:00:00","ND","ND","ND","ND","ND","ND","ND","ND","ND","ND","0","0"],
    [65116,"2017-10-09T23:00:00","ND","ND","ND","ND","ND","ND","ND","ND","ND","ND","0","0"],
    [65117,"2017-10-10T00:00:00","ND","ND","ND","ND","ND","ND","ND","ND","ND","ND","0","0"],
    [65118,"2017-10-10T01:00:00","ND","ND","ND","ND","ND","ND","ND","ND","ND","ND","0","0.25"],
    [65119,"2017-10-10T02:00:00","ND","ND","ND","ND","ND","ND","ND","ND","ND","ND","0","0"],
    [65120,"2017-10-10T03:00:00","ND","ND","ND","ND","ND","ND","ND","ND","ND","ND","0","0"],
    [65121,"2017-10-10T04:00:00","ND","ND","ND","ND","ND","ND","ND","ND","ND","ND","0","0"],
    [65122,"2017-10-10T05:00:00","ND","ND","ND","ND","ND","ND","ND","ND","ND","ND","0","0"],
    [65123,"2017-10-10T06:00:00","ND","ND","ND","ND","ND","ND","ND","ND","ND","ND","0","0"],
    [65124,"2017-10-10T07:00:00","ND","ND","ND","ND","ND","ND","ND","ND","ND","ND","126","0"],
    [65125,"2017-10-10T08:00:00","ND","ND","ND","ND","ND","ND","ND","ND","ND","ND","324","0"],
    [65126,"2017-10-10T09:00:00","ND","ND","ND","ND","ND","ND","ND","ND","ND","ND","551","0.25"],
    [65127,"2017-10-10T10:00:00","1.1","ND","ND","ND","ND","ND","ND","ND","ND","ND","665","0"],
    [65128,"2017-10-10T11:00:00","10.6","ND","ND","ND","ND","0.7","ND","ND","ND","ND","665","0"],
    [65129,"2017-10-10T12:00:00","95.9","ND","ND","ND","59.1","0.4","ND","ND","ND","ND","665","0"],
    [65130,"2017-10-10T13:00:00","39.2","ND","ND","ND","97.3","0.2","ND","ND","ND","ND","665","0"],
    [65131,"2017-10-10T14:00:00","39.8","ND","ND","ND","85.7","0.7","ND","ND","ND","ND","665","0"],
    [65132,"2017-10-10T15:00:00","43.1","ND","ND","ND","91.8","0.4","ND","ND","ND","ND","664","0"],
    [65133,"2017-10-10T16:00:00","25.9","ND","ND","ND","49.3","0.4","ND","ND","ND","ND","630","0"],
    [65134,"2017-10-10T17:00:00","19.8","ND","ND","ND","30.4","0.2","ND","ND","ND","ND","419","0"],
    [65135,"2017-10-10T18:00:00","ND","ND","ND","ND","16.4","0.2","ND","ND","ND","ND","107","0"],
    [65136,"2017-10-10T19:00:00","8.7","ND","ND","ND","2.1","0.2","ND","ND","ND","ND","0","0"],
    [65137,"2017-10-10T20:00:00","78.2","ND","ND","ND","0.4","0.3","ND","ND","ND","ND","0","0"],
    [65138,"2017-10-10T21:00:00","56.3","ND","ND","ND","1.1","0.4","ND","ND","ND","ND","0","0"],
    [65139,"2017-10-10T22:00:00","44.9","ND","ND","ND","0.0","0.7","ND","ND","ND","ND","0","0"],
    [65140,"2017-10-10T23:00:00","63.3","ND","ND","ND","0.0","0.7","ND","ND","ND","ND","0","0"],
    [65141,"2017-10-11T00:00:00","54.2","ND","ND","ND","0.0","0.3","ND","ND","ND","ND","0","0"],
    [65142,"2017-10-11T01:00:00","49.5","ND","ND","ND","0.7","0.5","ND","ND","ND","ND","0","0"],
    [65143,"2017-10-11T02:00:00","35.3","ND","ND","ND","0.5","0.3","ND","ND","ND","ND","0","0"],
    [65144,"2017-10-11T03:00:00","32.1","ND","ND","ND","0.2","0.5","ND","ND","ND","ND","0","0"],
    [65145,"2017-10-11T04:00:00","37","ND","ND","ND","0.5","0.4","ND","ND","ND","ND","0","0"],
    [65146,"2017-10-11T05:00:00","44.4","ND","ND","ND","0.0","0.6","ND","ND","ND","ND","0","0"],
    [65147,"2017-10-11T06:00:00","42.1","ND","ND","ND","0.0","0.3","ND","ND","ND","ND","0","0"],
    [65148,"2017-10-11T07:00:00","46.2","ND","ND","ND","0.1","0.5","ND","ND","ND","ND","38","0"],
    [65149,"2017-10-11T08:00:00","46.1","ND","ND","ND","0.3","0.5","ND","ND","ND","ND","107","0"],
    [65150,"2017-10-11T09:00:00","44.4","ND","ND","ND","1.4","0.4","ND","ND","ND","ND","112","0"],
    [65151,"2017-10-11T10:00:00","20.9","ND","ND","ND","2.7","0.5","ND","ND","ND","ND","335","0"],
    [65152,"2017-10-11T11:00:00","26.3","ND","ND","ND","9.2","0.2","ND","ND","ND","ND","627","0"],
    [65153,"2017-10-11T12:00:00","49.4","ND","ND","ND","9.4","0.3","ND","ND","ND","ND","621","0"],
    [65154,"2017-10-11T13:00:00","33.9","ND","ND","ND","33.2","0.5","ND","ND","ND","ND","664","0"],
    [65155,"2017-10-11T14:00:00","3.2","ND","ND","ND","57.5","0.5","ND","ND","ND","ND","664","0"],
    [65156,"2017-10-11T15:00:00","24.3","ND","ND","ND","61.9","0.6","ND","ND","ND","ND","666","0"],
    [65157,"2017-10-11T16:00:00","75.1","ND","ND","ND","74.3","0.6","ND","ND","ND","ND","561","0"],
    [65158,"2017-10-11T17:00:00","15.5","ND","ND","ND","49.6","0.4","ND","ND","ND","ND","334","0"],
    [65159,"2017-10-11T18:00:00","3","ND","ND","ND","17.9","0.3","ND","ND","ND","ND","58","0"],
    [65160,"2017-10-11T19:00:00","60.8","ND","ND","ND","7.2","0.4","ND","ND","ND","ND","0","0"],
    [65161,"2017-10-11T20:00:00","92.3","ND","ND","ND","1.2","0.2","ND","ND","ND","ND","0","0"],
    [65162,"2017-10-11T21:00:00","35.2","ND","ND","ND","1.5","0.4","ND","ND","ND","ND","0","0"],
    [65163,"2017-10-11T22:00:00","39.6","ND","ND","ND","0.8","0.4","ND","ND","ND","ND","0","0"],
    [65164,"2017-10-11T23:00:00","89.3","ND","ND","ND","0.6","0.3","ND","ND","ND","ND","0","0"],
    [65165,"2017-10-12T00:00:00","68.6","ND","ND","ND","0.6","0.3","ND","ND","ND","ND","0","0"],
    [65166,"2017-10-12T01:00:00","41.2","ND","ND","ND","0.5","0.4","ND","ND","ND","ND","0","0"],
    [65167,"2017-10-12T02:00:00","42.1","ND","ND","ND","0.5","0.4","ND","ND","ND","ND","0","0"],
    [65168,"2017-10-12T03:00:00","30.3","ND","ND","ND","0.5","0.3","ND","ND","ND","ND","0","0"],
    [65169,"2017-10-12T04:00:00","23.9","ND","ND","ND","1.3","0.5","ND","ND","ND","ND","0","0"],
    [65170,"2017-10-12T05:00:00","39.2","ND","ND","ND","0.6","0.4","ND","ND","ND","ND","0","0"],
    [65171,"2017-10-12T06:00:00","54.3","ND","ND","ND","0.3","0.5","ND","ND","ND","ND","0","0"],
    [65172,"2017-10-12T07:00:00","52.4","ND","ND","ND","0.6","0.4","ND","ND","ND","ND","169","0"],
    [65173,"2017-10-12T08:00:00","67.7","ND","ND","ND","3.5","0.3","ND","ND","ND","ND","657","0"],
    [65174,"2017-10-12T09:00:00","53.4","ND","ND","ND","18.6","0.1","ND","ND","ND","ND","664","0"],
    [65175,"2017-10-12T10:00:00","38.3","ND","ND","ND","48.3","0.3","ND","ND","ND","ND","664","0"],
    [65176,"2017-10-12T11:00:00","42","ND","ND","ND","81.0","0.4","ND","ND","ND","ND","665","0"],
    [65177,"2017-10-12T12:00:00","48","ND","ND","ND","108.3","0.4","ND","ND","ND","ND","666","0"],
    [65178,"2017-10-12T13:00:00","52.3","ND","ND","ND","103.4","0.7","ND","ND","ND","ND","669","0"],
    [65179,"2017-10-12T14:00:00","57.2","ND","ND","ND","75.9","1.0","ND","ND","ND","ND","640","0"],
    [65180,"2017-10-12T15:00:00","60","ND","ND","ND","42.8","0.3","ND","ND","ND","ND","609","0"],
    [65181,"2017-10-12T16:00:00","11.2","ND","ND","ND","32.0","0.4","ND","ND","ND","ND","666","0"],
    [65182,"2017-10-12T17:00:00","ND","ND","ND","ND","32.1","0.2","ND","ND","ND","ND","487","0"],
    [65183,"2017-10-12T18:00:00","ND","ND","ND","ND","24.2","0.1","ND","ND","ND","ND","69","0"],
    [65184,"2017-10-12T19:00:00","75.8","ND","ND","ND","9.1","0.1","ND","ND","ND","ND","0","0"],
    [65185,"2017-10-12T20:00:00","139.2","ND","ND","ND","3.3","0.2","ND","ND","ND","ND","0","0"],
    [65186,"2017-10-12T21:00:00","124.9","ND","ND","ND","3.1","0.4","ND","ND","ND","ND","0","0"],
    [65187,"2017-10-12T22:00:00","78.3","ND","ND","ND","0.9","0.3","ND","ND","ND","ND","0","0"],
    [65188,"2017-10-12T23:00:00","57.9","ND","ND","ND","0.4","0.3","ND","ND","ND","ND","0","0"],
    [65189,"2017-10-13T00:00:00","57.3","ND","ND","ND","0.6","0.3","ND","ND","ND","ND","0","0"],
    [65190,"2017-10-13T01:00:00","59.5","ND","ND","ND","1.1","0.5","ND","ND","ND","ND","0","0"],
    [65191,"2017-10-13T02:00:00","57.9","ND","ND","ND","0.5","0.4","ND","ND","ND","ND","0","0"],
    [65192,"2017-10-13T03:00:00","45.9","ND","ND","ND","0.7","0.5","ND","ND","ND","ND","0","0"],
    [65193,"2017-10-13T04:00:00","33.6","ND","ND","ND","0.5","0.6","ND","ND","ND","ND","0","0"],
    [65194,"2017-10-13T05:00:00","47.1","ND","ND","ND","0.7","0.5","ND","ND","ND","ND","0","0"],
    [65195,"2017-10-13T06:00:00","66.4","ND","ND","ND","0.8","0.4","ND","ND","ND","ND","0","0"],
    [65196,"2017-10-13T07:00:00","72.9","ND","ND","ND","0.6","0.4","ND","ND","ND","ND","66","0"],
    [65197,"2017-10-13T08:00:00","59.5","ND","ND","ND","3.0","0.5","ND","ND","ND","ND","541","0"],
    [65198,"2017-10-13T09:00:00","66.4","ND","ND","ND","9.5","0.5","ND","ND","ND","ND","653","0"],
    [65199,"2017-10-13T10:00:00","53.1","ND","ND","ND","28.4","0.4","ND","ND","ND","ND","664","0"],
    [65200,"2017-10-13T11:00:00","54.3","ND","ND","ND","53.0","0.3","ND","ND","ND","ND","658","0"],
    [65201,"2017-10-13T12:00:00","45.7","ND","ND","ND","66.3","0.3","ND","ND","ND","ND","662","0"],
    [65202,"2017-10-13T13:00:00","40.6","ND","ND","ND","93.7","0.3","ND","ND","ND","ND","665","0"],
    [65203,"2017-10-13T14:00:00","32.6","ND","ND","ND","96.7","0.5","ND","ND","ND","ND","667","0"],
    [65204,"2017-10-13T15:00:00","54.8","ND","ND","ND","60.5","0.8","ND","ND","ND","ND","564","0"],
    [65205,"2017-10-13T16:00:00","43.9","ND","ND","ND","25.7","1.2","ND","ND","ND","ND","318","0"],
    [65206,"2017-10-13T17:00:00","37.3","ND","ND","ND","21.3","0.9","ND","ND","ND","ND","258","0"],
    [65207,"2017-10-13T18:00:00","54.9","ND","ND","ND","10.0","0.4","ND","ND","ND","ND","49","0"],
    [65208,"2017-10-13T19:00:00","ND","ND","ND","ND","4.3","0.0","ND","ND","ND","ND","0","0"],
    [65209,"2017-10-13T20:00:00","8.2","ND","ND","ND","1.6","0.1","ND","ND","ND","ND","0","0"],
    [65210,"2017-10-13T21:00:00","147.5","ND","ND","ND","1.5","0.2","ND","ND","ND","ND","0","0"],
    [65211,"2017-10-13T22:00:00","203","ND","ND","ND","1.3","0.2","ND","ND","ND","ND","0","0"],
    [65212,"2017-10-13T23:00:00","191","ND","ND","ND","1.1","0.2","ND","ND","ND","ND","0","0"],
    [65213,"2017-10-14T00:00:00","93.9","ND","ND","ND","1.1","0.2","ND","ND","ND","ND","0","0"],
    [65214,"2017-10-14T01:00:00","63.7","ND","ND","ND","1.4","0.7","ND","ND","ND","ND","0","0"],
    [65215,"2017-10-14T02:00:00","70.5","ND","ND","ND","0.9","0.4","ND","ND","ND","ND","0","0"],
    [65216,"2017-10-14T03:00:00","73.8","ND","ND","ND","0.7","0.4","ND","ND","ND","ND","0","0"],
    [65217,"2017-10-14T04:00:00","60","ND","ND","ND","0.8","0.5","ND","ND","ND","ND","0","0"],
    [65218,"2017-10-14T05:00:00","42.9","ND","ND","ND","0.8","0.3","ND","ND","ND","ND","0","0"],
    [65219,"2017-10-14T06:00:00","63.6","ND","ND","ND","0.8","0.3","ND","ND","ND","ND","0","0"],
    [65220,"2017-10-14T07:00:00","74.8","ND","ND","ND","1.1","0.7","ND","ND","ND","ND","90","0"],
    [65221,"2017-10-14T08:00:00","73.3","ND","ND","ND","2.2","0.6","ND","ND","ND","ND","269","0"],
    [65222,"2017-10-14T09:00:00","47.1","ND","ND","ND","5.6","0.4","ND","ND","ND","ND","553","0"],
    [65223,"2017-10-14T10:00:00","44.2","ND","ND","ND","13.2","0.5","ND","ND","ND","ND","664","0"],
    [65224,"2017-10-14T11:00:00","44.9","ND","ND","ND","30.9","0.6","ND","ND","ND","ND","664","0"],
    [65225,"2017-10-14T12:00:00","34.2","ND","ND","ND","50.3","0.4","ND","ND","ND","ND","654","0"],
    [65226,"2017-10-14T13:00:00","18.9","ND","ND","ND","51.0","0.3","ND","ND","ND","ND","656","0"],
    [65227,"2017-10-14T14:00:00","32","ND","ND","ND","70.6","0.6","ND","ND","ND","ND","664","0"],
    [65228,"2017-10-14T15:00:00","25.1","ND","ND","ND","76.2","0.5","ND","ND","ND","ND","578","0"],
    [65229,"2017-10-14T16:00:00","27.8","ND","ND","ND","79.7","0.4","ND","ND","ND","ND","499","0"],
    [65230,"2017-10-14T17:00:00","36.1","ND","ND","ND","73.3","0.3","ND","ND","ND","ND","568","0"],
    [65231,"2017-10-14T18:00:00","32.5","ND","ND","ND","23.8","0.4","ND","ND","ND","ND","177","0"],
    [65232,"2017-10-14T19:00:00","2.2","ND","ND","ND","8.7","0.5","ND","ND","ND","ND","0","0"],
    [65233,"2017-10-14T20:00:00","10.3","ND","ND","ND","1.8","0.4","ND","ND","ND","ND","0","0"],
    [65234,"2017-10-14T21:00:00","25.5","ND","ND","ND","2.9","0.3","ND","ND","ND","ND","0","0"],
    [65235,"2017-10-14T22:00:00","38.4","ND","ND","ND","1.2","0.4","ND","ND","ND","ND","0","0"],
    [65236,"2017-10-14T23:00:00","45.3","ND","ND","ND","0.5","0.3","ND","ND","ND","ND","0","0"],
    [65237,"2017-10-15T00:00:00","25.5","ND","ND","ND","0.5","0.3","ND","ND","ND","ND","0","0"],
    [65238,"2017-10-15T01:00:00","22.2","ND","ND","ND","0.4","0.7","ND","ND","ND","ND","0","0"],
    [65239,"2017-10-15T02:00:00","29.6","ND","ND","ND","0.4","0.3","ND","ND","ND","ND","0","0"],
    [65240,"2017-10-15T03:00:00","33.1","ND","ND","ND","0.5","0.4","ND","ND","ND","ND","0","0"],
    [65241,"2017-10-15T04:00:00","34.9","ND","ND","ND","0.5","0.3","ND","ND","ND","ND","0","0"],
    [65242,"2017-10-15T05:00:00","39.1","ND","ND","ND","1.0","0.3","ND","ND","ND","ND","0","0"],
    [65243,"2017-10-15T06:00:00","37.6","ND","ND","ND","0.7","0.5","ND","ND","ND","ND","0","0"],
    [65244,"2017-10-15T07:00:00","39.6","ND","ND","ND","1.1","0.4","ND","ND","ND","ND","92","0"],
    [65245,"2017-10-15T08:00:00","58.2","ND","ND","ND","2.5","0.3","ND","ND","ND","ND","411","0"],
    [65246,"2017-10-15T09:00:00","42.9","ND","ND","ND","13.6","0.5","ND","ND","ND","ND","663","0"],
    [65247,"2017-10-15T10:00:00","40.7","ND","ND","ND","35.3","0.2","ND","ND","ND","ND","640","0"],
    [65248,"2017-10-15T11:00:00","45.6","ND","ND","ND","57.1","0.3","ND","ND","ND","ND","664","0"],
    [65249,"2017-10-15T12:00:00","42.9","ND","ND","ND","77.6","0.4","ND","ND","ND","ND","664","0"],
    [65250,"2017-10-15T13:00:00","41","ND","ND","ND","101.7","0.2","ND","ND","ND","ND","665","0"],
    [65251,"2017-10-15T14:00:00","43.8","ND","ND","ND","87.9","0.3","ND","ND","ND","ND","664","0"],
    [65252,"2017-10-15T15:00:00","44.9","ND","ND","ND","108.0","0.4","ND","ND","ND","ND","664","0"],
    [65253,"2017-10-15T16:00:00","44.1","ND","ND","ND","109.7","0.2","ND","ND","ND","ND","562","0"],
    [65254,"2017-10-15T17:00:00","35.7","ND","ND","ND","116.3","0.2","ND","ND","ND","ND","432","0"],
    [65255,"2017-10-15T18:00:00","40.5","ND","ND","ND","81.7","0.1","ND","ND","ND","ND","75","0"],
    [65256,"2017-10-15T19:00:00","33.2","ND","ND","ND","35.4","0.3","ND","ND","ND","ND","0","0"],
    [65257,"2017-10-15T20:00:00","25.5","ND","ND","ND","14.3","0.2","ND","ND","ND","ND","0","0"],
    [65258,"2017-10-15T21:00:00","36.2","ND","ND","ND","4.3","0.3","ND","ND","ND","ND","0","0"],
    [65259,"2017-10-15T22:00:00","43.4","ND","ND","ND","2.8","0.3","ND","ND","ND","ND","0","0"],
    [65260,"2017-10-15T23:00:00","32.4","ND","ND","ND","1.5","0.7","ND","ND","ND","ND","0","0"],
    [65261,"2017-10-16T00:00:00","37","ND","ND","ND","1.3","0.4","ND","ND","ND","ND","0","0"],
    [65262,"2017-10-16T01:00:00","29.5","ND","ND","ND","1.3","0.5","ND","ND","ND","ND","0","0"],
    [65263,"2017-10-16T02:00:00","27.3","ND","ND","ND","1.2","0.5","ND","ND","ND","ND","0","0"],
    [65264,"2017-10-16T03:00:00","35.6","ND","ND","ND","1.2","0.4","ND","ND","ND","ND","0","0"],
    [65265,"2017-10-16T04:00:00","44","ND","ND","ND","1.9","0.3","ND","ND","ND","ND","0","0"],
    [65266,"2017-10-16T05:00:00","42.3","ND","ND","ND","1.6","0.3","ND","ND","ND","ND","0","0"],
    [65267,"2017-10-16T06:00:00","35.6","ND","ND","ND","1.6","0.4","ND","ND","ND","ND","0","0"],
    [65268,"2017-10-16T07:00:00","39.1","ND","ND","ND","2.3","0.3","ND","ND","ND","ND","180","0"],
    [65269,"2017-10-16T08:00:00","43.7","ND","ND","ND","8.7","0.5","ND","ND","ND","ND","466","0"],
    [65270,"2017-10-16T09:00:00","35.2","ND","ND","ND","26.1","0.4","ND","ND","ND","ND","664","0"],
    [65271,"2017-10-16T10:00:00","32.2","ND","ND","ND","52.2","0.2","ND","ND","ND","ND","664","0"],
    [65272,"2017-10-16T11:00:00","34.3","ND","ND","ND","77.4","0.3","ND","ND","ND","ND","665","0"],
    [65273,"2017-10-16T12:00:00","33.2","ND","ND","ND","96.1","0.4","ND","ND","ND","ND","665","0"],
    [65274,"2017-10-16T13:00:00","39.2","ND","ND","ND","66.2","0.2","ND","ND","ND","ND","665","0"],
    [65275,"2017-10-16T14:00:00","20.7","ND","ND","ND","36.5","0.2","ND","ND","ND","ND","665","0"],
    [65276,"2017-10-16T15:00:00","4.9","ND","ND","ND","32.0","0.3","ND","ND","ND","ND","665","0"],
    [65277,"2017-10-16T16:00:00","16.1","ND","ND","ND","30.0","0.2","ND","ND","ND","ND","527","0"],
    [65278,"2017-10-16T17:00:00","15.8","ND","ND","ND","29.0","0.2","ND","ND","ND","ND","374","0"],
    [65279,"2017-10-16T18:00:00","8.6","ND","ND","ND","12.2","0.3","ND","ND","ND","ND","55","0"],
    [65280,"2017-10-16T19:00:00","15","ND","ND","ND","6.9","0.3","ND","ND","ND","ND","0","0"],
    [65281,"2017-10-16T20:00:00","42.7","ND","ND","ND","2.6","0.4","ND","ND","ND","ND","0","0"],
    [65282,"2017-10-16T21:00:00","64.9","ND","ND","ND","0.4","0.4","ND","ND","ND","ND","0","0"],
    [65283,"2017-10-16T22:00:00","38.4","ND","ND","ND","0.9","0.4","ND","ND","ND","ND","0","0"],
    [65284,"2017-10-16T23:00:00","ND","ND","ND","ND","0.8","0.4","ND","ND","ND","ND","0","0"],
    [65285,"2017-10-17T00:00:00","71.3","ND","ND","ND","0.6","0.9","ND","ND","ND","ND","0","0"],
    [65286,"2017-10-17T01:00:00","95.8","ND","ND","ND","0.6","0.2","ND","ND","ND","ND","0","0"],
    [65287,"2017-10-17T02:00:00","51.7","ND","ND","ND","0.4","0.3","ND","ND","ND","ND","0","0"],
    [65288,"2017-10-17T03:00:00","25.4","ND","ND","ND","0.6","0.4","ND","ND","ND","ND","0","0"],
    [65289,"2017-10-17T04:00:00","51.7","ND","ND","ND","0.7","0.5","ND","ND","ND","ND","0","0"],
    [65290,"2017-10-17T05:00:00","61.6","ND","ND","ND","0.7","0.8","ND","ND","ND","ND","0","0"],
    [65291,"2017-10-17T06:00:00","61.6","ND","ND","ND","1.0","1.0","ND","ND","ND","ND","0","0"],
    [65292,"2017-10-17T07:00:00","69.4","ND","ND","ND","1.4","0.5","ND","ND","ND","ND","200","0"],
    [65293,"2017-10-17T08:00:00","54.1","ND","ND","ND","3.7","0.3","ND","ND","ND","ND","662","0"],
    [65294,"2017-10-17T09:00:00","56.7","ND","ND","ND","15.9","0.7","ND","ND","ND","ND","666","0"],
    [65295,"2017-10-17T10:00:00","64.6","ND","ND","ND","44.3","0.6","ND","ND","ND","ND","667","0"],
    [65296,"2017-10-17T11:00:00","61.5","ND","ND","ND","62.6","1.1","ND","ND","ND","ND","669","0"],
    [65297,"2017-10-17T12:00:00","69.6","ND","ND","ND","110.8","1.0","ND","ND","ND","ND","671","0"],
    [65298,"2017-10-17T13:00:00","93.3","ND","ND","ND","142.0","ND","ND","ND","ND","ND","671","0"],
    [65299,"2017-10-17T14:00:00","58.6","ND","ND","ND","66.3","0.6","ND","ND","ND","ND","659","0"],
    [65300,"2017-10-17T15:00:00","ND","ND","ND","ND","41.4","0.2","ND","ND","ND","ND","592","0"],
    [65301,"2017-10-17T16:00:00","ND","ND","ND","ND","ND","ND","ND","ND","ND","ND","ND","ND"],
    [65302,"2017-10-17T17:00:00","ND","ND","ND","ND","ND","ND","ND","ND","ND","ND","ND","ND"],
    [65303,"2017-10-17T18:00:00","ND","ND","ND","ND","ND","ND","ND","ND","ND","ND","ND","ND"],
    [65304,"2017-10-17T19:00:00","ND","ND","ND","ND","ND","ND","ND","ND","ND","ND","ND","ND"],
    [65305,"2017-10-17T20:00:00","ND","ND","ND","ND","ND","ND","ND","ND","ND","ND","ND","ND"],
    [65306,"2017-10-17T21:00:00","ND","ND","ND","ND","ND","ND","ND","ND","ND","ND","ND","ND"],
    [65307,"2017-10-17T22:00:00","ND","ND","ND","ND","ND","ND","ND","ND","ND","ND","ND","ND"],
    [65308,"2017-10-17T23:00:00","ND","ND","ND","ND","ND","ND","ND","ND","ND","ND","ND","ND"],
    [65309,"2017-10-18T00:00:00","ND","ND","ND","ND","ND","ND","ND","ND","ND","ND","ND","ND"],
    [65310,"2017-10-18T01:00:00","ND","ND","ND","ND","ND","ND","ND","ND","ND","ND","ND","ND"],
    [65311,"2017-10-18T02:00:00","ND","ND","ND","ND","ND","ND","ND","ND","ND","ND","ND","ND"],
    [65312,"2017-10-18T03:00:00","ND","ND","ND","ND","ND","ND","ND","ND","ND","ND","ND","ND"],
    [65313,"2017-10-18T04:00:00","ND","ND","ND","ND","ND","ND","ND","ND","ND","ND","ND","ND"],
    [65314,"2017-10-18T05:00:00","ND","ND","ND","ND","ND","ND","ND","ND","ND","ND","ND","ND"],
    [65315,"2017-10-18T06:00:00","ND","ND","ND","ND","ND","ND","ND","ND","ND","ND","ND","ND"],
    [65316,"2017-10-18T07:00:00","ND","ND","ND","ND","ND","ND","ND","ND","ND","ND","ND","ND"],
    [65317,"2017-10-18T08:00:00","ND","ND","ND","ND","ND","ND","ND","ND","ND","ND","ND","ND"],
    [65318,"2017-10-18T09:00:00","ND","ND","ND","ND","ND","ND","ND","ND","ND","ND","ND","ND"],
    [65319,"2017-10-18T10:00:00","66.4","ND","ND","ND","20.0","0.3","ND","ND","ND","ND","665","0"],
    [65320,"2017-10-18T11:00:00","88.7","ND","ND","ND","54.1","1.0","ND","ND","ND","ND","667","0"],
    [65321,"2017-10-18T12:00:00","106.7","ND","ND","ND","84.4","0.9","ND","ND","ND","ND","669","0"],
    [65322,"2017-10-18T13:00:00","86.5","ND","ND","ND","99.5","1.6","ND","ND","ND","ND","671","0"],
    [65323,"2017-10-18T14:00:00","60.9","ND","ND","ND","94.4","ND","ND","ND","ND","ND","668","0"],
    [65324,"2017-10-18T15:00:00","63.8","ND","ND","ND","49.3","ND","ND","ND","ND","ND","673","0"],
    [65325,"2017-10-18T16:00:00","45.2","ND","ND","ND","41.2","ND","ND","ND","ND","ND","674","0"],
    [65326,"2017-10-18T17:00:00","43.4","ND","ND","ND","35.5","ND","ND","ND","ND","ND","575","0"],
    [65327,"2017-10-18T18:00:00","43.1","ND","ND","ND","20.8","ND","ND","ND","ND","ND","156","0"],
    [65328,"2017-10-18T19:00:00","39.3","ND","ND","ND","13.7","ND","ND","ND","ND","ND","0","0"],
    [65329,"2017-10-18T20:00:00","37.3","ND","ND","ND","8.3","ND","ND","ND","ND","ND","0","0"],
    [65330,"2017-10-18T21:00:00","38.3","ND","ND","ND","3.8","ND","ND","ND","ND","ND","0","0"],
    [65331,"2017-10-18T22:00:00","36.9","ND","ND","ND","0.0","ND","ND","ND","ND","ND","0","0"],
    [65332,"2017-10-18T23:00:00","34.3","ND","ND","ND","0.0","ND","ND","ND","ND","ND","0","0"],
    [65333,"2017-10-19T00:00:00","31","ND","ND","ND","0.1","ND","ND","ND","ND","ND","0","0"],
    [65334,"2017-10-19T01:00:00","40.3","ND","ND","ND","0.3","ND","ND","ND","ND","ND","0","0"],
    [65335,"2017-10-19T02:00:00","39.9","ND","ND","ND","0.1","ND","ND","ND","ND","ND","0","0"],
    [65336,"2017-10-19T03:00:00","66.9","ND","ND","ND","0.3","ND","ND","ND","ND","ND","0","1.02"],
    [65337,"2017-10-19T04:00:00","ND","ND","ND","ND","3.3","0.8","ND","ND","ND","ND","0","3.81"],
    [65338,"2017-10-19T05:00:00","ND","ND","ND","ND","6.8","0.3","ND","ND","ND","ND","0","4.32"],
    [65339,"2017-10-19T06:00:00","ND","ND","ND","ND","1.0","0.8","ND","ND","ND","ND","0","4.83"],
    [65340,"2017-10-19T07:00:00","ND","ND","ND","ND","0.5","0.3","ND","ND","ND","ND","55","3.56"],
    [65341,"2017-10-19T08:00:00","ND","ND","ND","ND","0.5","0.4","ND","ND","ND","ND","262","3.56"],
    [65342,"2017-10-19T09:00:00","125.8","ND","ND","ND","1.2","0.4","ND","ND","ND","ND","631","3.3"],
    [65343,"2017-10-19T10:00:00","80.1","ND","ND","ND","8.1","0.5","ND","ND","ND","ND","663","2.54"],
    [65344,"2017-10-19T11:00:00","61.7","ND","ND","ND","26.9","0.7","ND","ND","ND","ND","663","2.79"],
    [65345,"2017-10-19T12:00:00","23.7","ND","ND","ND","53.7","0.3","ND","ND","ND","ND","664","2.03"],
    [65346,"2017-10-19T13:00:00","18.4","ND","ND","ND","70.5","0.6","ND","ND","ND","ND","664","1.02"],
    [65347,"2017-10-19T14:00:00","14.8","ND","ND","ND","95.4","0.4","ND","ND","ND","ND","665","0.76"],
    [65348,"2017-10-19T15:00:00","25.5","ND","ND","ND","87.4","0.5","ND","ND","ND","ND","665","0.25"],
    [65349,"2017-10-19T16:00:00","4.1","ND","ND","ND","73.0","0.4","ND","ND","ND","ND","664","0"],
    [65350,"2017-10-19T17:00:00","6.4","ND","ND","ND","40.3","0.5","ND","ND","ND","ND","439","0.25"],
    [65351,"2017-10-19T18:00:00","0.5","ND","ND","ND","18.4","0.2","ND","ND","ND","ND","85","0"],
    [65352,"2017-10-19T19:00:00","9.4","ND","ND","ND","7.1","0.3","ND","ND","ND","ND","0","0"],
    [65353,"2017-10-19T20:00:00","43.9","ND","ND","ND","4.5","0.2","ND","ND","ND","ND","0","0"],
    [65354,"2017-10-19T21:00:00","56.6","ND","ND","ND","1.2","0.4","ND","ND","ND","ND","0","0.25"],
    [65355,"2017-10-19T22:00:00","56","ND","ND","ND","1.1","0.5","ND","ND","ND","ND","0","0"],
    [65356,"2017-10-19T23:00:00","36.9","ND","ND","ND","1.6","0.5","ND","ND","ND","ND","0","0"],
    [65357,"2017-10-20T00:00:00","35.5","ND","ND","ND","1.1","0.5","ND","ND","ND","ND","0","0.25"],
    [65358,"2017-10-20T01:00:00","26.2","ND","ND","ND","1.0","0.6","ND","ND","ND","ND","0","0"],
    [65359,"2017-10-20T02:00:00","11","ND","ND","ND","0.9","0.3","ND","ND","ND","ND","0","0"],
    [65360,"2017-10-20T03:00:00","29.5","ND","ND","ND","1.4","0.3","ND","ND","ND","ND","0","0"],
    [65361,"2017-10-20T04:00:00","34.3","ND","ND","ND","1.8","0.5","ND","ND","ND","ND","0","0"],
    [65362,"2017-10-20T05:00:00","36.3","ND","ND","ND","1.7","1.0","ND","ND","ND","ND","0","0"],
    [65363,"2017-10-20T06:00:00","40.4","ND","ND","ND","1.8","0.6","ND","ND","ND","ND","0","0"],
    [65364,"2017-10-20T07:00:00","45.9","ND","ND","ND","1.8","0.9","ND","ND","ND","ND","59","0"],
    [65365,"2017-10-20T08:00:00","48.6","ND","ND","ND","2.5","0.7","ND","ND","ND","ND","383","0"],
    [65366,"2017-10-20T09:00:00","58.1","ND","ND","ND","8.5","0.7","ND","ND","ND","ND","663","0"],
    [65367,"2017-10-20T10:00:00","66.5","ND","ND","ND","23.5","0.7","ND","ND","ND","ND","664","0"],
    [65368,"2017-10-20T11:00:00","38.1","ND","ND","ND","54.0","0.5","ND","ND","ND","ND","664","0"],
    [65369,"2017-10-20T12:00:00","37.1","ND","ND","ND","76.9","0.6","ND","ND","ND","ND","665","0"],
    [65370,"2017-10-20T13:00:00","21","ND","ND","ND","47.1","0.5","ND","ND","ND","ND","665","0"],
    [65371,"2017-10-20T14:00:00","12","ND","ND","ND","39.1","0.4","ND","ND","ND","ND","665","0"],
    [65372,"2017-10-20T15:00:00","13.4","ND","ND","ND","23.3","0.3","ND","ND","ND","ND","665","0"],
    [65373,"2017-10-20T16:00:00","ND","ND","ND","ND","22.5","0.4","ND","ND","ND","ND","648","0"],
    [65374,"2017-10-20T17:00:00","ND","ND","ND","ND","19.3","0.4","ND","ND","ND","ND","433","0"],
    [65375,"2017-10-20T18:00:00","ND","ND","ND","ND","12.3","0.3","ND","ND","ND","ND","89","0"],
    [65376,"2017-10-20T19:00:00","26.6","ND","ND","ND","2.9","0.2","ND","ND","ND","ND","0","0"],
    [65377,"2017-10-20T20:00:00","74.6","ND","ND","ND","2.9","0.3","ND","ND","ND","ND","0","0"],
    [65378,"2017-10-20T21:00:00","42.5","ND","ND","ND","9.2","0.2","ND","ND","ND","ND","0","0"],
    [65379,"2017-10-20T22:00:00","34.8","ND","ND","ND","1.2","0.3","ND","ND","ND","ND","0","0"],
    [65380,"2017-10-20T23:00:00","25.4","ND","ND","ND","0.7","0.3","ND","ND","ND","ND","0","0"],
    [65381,"2017-10-21T00:00:00","35.5","ND","ND","ND","0.7","0.2","ND","ND","ND","ND","0","0"],
    [65382,"2017-10-21T01:00:00","24.8","ND","ND","ND","0.5","0.3","ND","ND","ND","ND","0","0"],
    [65383,"2017-10-21T02:00:00","21.9","ND","ND","ND","0.6","0.4","ND","ND","ND","ND","0","0"],
    [65384,"2017-10-21T03:00:00","40.4","ND","ND","ND","0.8","0.2","ND","ND","ND","ND","0","0"],
    [65385,"2017-10-21T04:00:00","29.6","ND","ND","ND","0.8","0.5","ND","ND","ND","ND","0","0"],
    [65386,"2017-10-21T05:00:00","24.2","ND","ND","ND","1.3","0.5","ND","ND","ND","ND","0","0"],
    [65387,"2017-10-21T06:00:00","26.7","ND","ND","ND","1.3","0.3","ND","ND","ND","ND","0","0"],
    [65388,"2017-10-21T07:00:00","41.4","ND","ND","ND","2.5","0.8","ND","ND","ND","ND","112","0"],
    [65389,"2017-10-21T08:00:00","67.6","ND","ND","ND","2.9","0.7","ND","ND","ND","ND","323","0"],
    [65390,"2017-10-21T09:00:00","61","ND","ND","ND","3.7","0.7","ND","ND","ND","ND","509","0"],
    [65391,"2017-10-21T10:00:00","ND","ND","ND","ND","ND","ND","ND","ND","ND","ND","ND","ND"],
    [65392,"2017-10-21T11:00:00","43.2","ND","ND","ND","38.5","0.7","ND","ND","ND","ND","599","0"],
    [65393,"2017-10-21T12:00:00","40.8","ND","ND","ND","58.5","0.4","ND","ND","ND","ND","664","0"],
    [65394,"2017-10-21T13:00:00","34.5","ND","ND","ND","72.3","0.5","ND","ND","ND","ND","664","0"],
    [65395,"2017-10-21T14:00:00","30","ND","ND","ND","82.9","0.4","ND","ND","ND","ND","662","0"],
    [65396,"2017-10-21T15:00:00","26.7","ND","ND","ND","37.8","0.3","ND","ND","ND","ND","402","0"],
    [65397,"2017-10-21T16:00:00","17.7","ND","ND","ND","33.8","0.5","ND","ND","ND","ND","636","0"],
    [65398,"2017-10-21T17:00:00","6.6","ND","ND","ND","31.5","0.2","ND","ND","ND","ND","426","0"],
    [65399,"2017-10-21T18:00:00","ND","ND","ND","ND","ND","ND","ND","ND","ND","ND","ND","ND"],
    [65400,"2017-10-21T19:00:00","1.9","ND","ND","ND","8.6","0.3","ND","ND","ND","ND","0","0"],
    [65401,"2017-10-21T20:00:00","26.3","ND","ND","ND","3.3","0.2","ND","ND","ND","ND","0","0"],
    [65402,"2017-10-21T21:00:00","33.9","ND","ND","ND","1.5","0.2","ND","ND","ND","ND","0","0"],
    [65403,"2017-10-21T22:00:00","45.5","ND","ND","ND","1.2","0.5","ND","ND","ND","ND","0","0"],
    [65404,"2017-10-21T23:00:00","46.6","ND","ND","ND","0.9","0.4","ND","ND","ND","ND","0","0"],
    [65405,"2017-10-22T00:00:00","27.5","ND","ND","ND","1.2","0.3","ND","ND","ND","ND","0","0"],
    [65406,"2017-10-22T01:00:00","30","ND","ND","ND","0.8","0.3","ND","ND","ND","ND","0","0"],
    [65407,"2017-10-22T02:00:00","ND","ND","ND","ND","ND","ND","ND","ND","ND","ND","ND","ND"],
    [65408,"2017-10-22T03:00:00","22.4","ND","ND","ND","1.5","0.2","ND","ND","ND","ND","0","0"],
    [65409,"2017-10-22T04:00:00","21.7","ND","ND","ND","1.6","0.5","ND","ND","ND","ND","0","0"],
    [65410,"2017-10-22T05:00:00","29","ND","ND","ND","1.9","0.7","ND","ND","ND","ND","0","0"],
    [65411,"2017-10-22T06:00:00","22.6","ND","ND","ND","1.6","0.3","ND","ND","ND","ND","0","0"],
    [65412,"2017-10-22T07:00:00","22.2","ND","ND","ND","2.0","1.0","ND","ND","ND","ND","37","0"],
    [65413,"2017-10-22T08:00:00","29.5","ND","ND","ND","3.2","0.6","ND","ND","ND","ND","310","0"],
    [65414,"2017-10-22T09:00:00","36","ND","ND","ND","5.4","0.5","ND","ND","ND","ND","352","0"],
    [65415,"2017-10-22T10:00:00","31.3","ND","ND","ND","4.3","1.0","ND","ND","ND","ND","238","0"],
    [65416,"2017-10-22T11:00:00","20.4","ND","ND","ND","6.7","1.4","ND","ND","ND","ND","411","0"],
    [65417,"2017-10-22T12:00:00","14.1","ND","ND","ND","8.9","1.2","ND","ND","ND","ND","558","0"],
    [65418,"2017-10-22T13:00:00","15.4","ND","ND","ND","14.9","1.1","ND","ND","ND","ND","663","0"],
    [65419,"2017-10-22T14:00:00","ND","ND","ND","ND","ND","ND","ND","ND","ND","ND","ND","ND"],
    [65420,"2017-10-22T15:00:00","ND","ND","ND","ND","ND","ND","ND","ND","ND","ND","ND","ND"],
    [65421,"2017-10-22T16:00:00","4","ND","ND","ND","31.0","0.5","ND","ND","ND","ND","528","0"],
    [65422,"2017-10-22T17:00:00","9.4","ND","ND","ND","32.1","0.5","ND","ND","ND","ND","313","0"],
    [65423,"2017-10-22T18:00:00","12.7","ND","ND","ND","27.4","0.3","ND","ND","ND","ND","47","0"],
    [65424,"2017-10-22T19:00:00","15.1","ND","ND","ND","14.5","0.2","ND","ND","ND","ND","0","0"],
    [65425,"2017-10-22T20:00:00","19.3","ND","ND","ND","7.0","0.4","ND","ND","ND","ND","0","0"],
    [65426,"2017-10-22T21:00:00","17.7","ND","ND","ND","4.7","0.4","ND","ND","ND","ND","0","0"],
    [65427,"2017-10-22T22:00:00","19.3","ND","ND","ND","5.1","0.4","ND","ND","ND","ND","0","0"],
    [65428,"2017-10-22T23:00:00","19","ND","ND","ND","5.6","0.7","ND","ND","ND","ND","0","0"],
    [65429,"2017-10-23T00:00:00","16.2","ND","ND","ND","2.7","0.6","ND","ND","ND","ND","0","0"],
    [65430,"2017-10-23T01:00:00","27.9","ND","ND","ND","1.8","3.1","ND","ND","ND","ND","0","0"],
    [65431,"2017-10-23T02:00:00","12","ND","ND","ND","2.9","2.1","ND","ND","ND","ND","0","0"],
    [65432,"2017-10-23T03:00:00","16","ND","ND","ND","2.5","1.4","ND","ND","ND","ND","0","0"],
    [65433,"2017-10-23T04:00:00","14.8","ND","ND","ND","1.8","0.9","ND","ND","ND","ND","0","0.51"],
    [65434,"2017-10-23T05:00:00","12.6","ND","ND","ND","1.4","0.4","ND","ND","ND","ND","0","0.76"],
    [65435,"2017-10-23T06:00:00","15","ND","ND","ND","1.3","0.6","ND","ND","ND","ND","0","1.27"],
    [65436,"2017-10-23T07:00:00","20","ND","ND","ND","1.6","0.4","ND","ND","ND","ND","93","0.76"],
    [65437,"2017-10-23T08:00:00","28.1","ND","ND","ND","1.6","0.5","ND","ND","ND","ND","191","0"],
    [65438,"2017-10-23T09:00:00","33.1","ND","ND","ND","3.7","0.5","ND","ND","ND","ND","639","0"],
    [65439,"2017-10-23T10:00:00","48.8","ND","ND","ND","12.1","0.7","ND","ND","ND","ND","665","0"],
    [65440,"2017-10-23T11:00:00","44.3","ND","ND","ND","35.4","0.6","ND","ND","ND","ND","664","0"],
    [65441,"2017-10-23T12:00:00","22","ND","ND","ND","68.5","0.6","ND","ND","ND","ND","664","0"],
    [65442,"2017-10-23T13:00:00","65.7","ND","ND","ND","72.6","0.4","ND","ND","ND","ND","666","0"],
    [65443,"2017-10-23T14:00:00","45.3","ND","ND","ND","64.0","0.7","ND","ND","ND","ND","645","0"],
    [65444,"2017-10-23T15:00:00","61.6","ND","ND","ND","39.2","0.6","ND","ND","ND","ND","667","0"],
    [65445,"2017-10-23T16:00:00","12","ND","ND","ND","21.2","1.0","ND","ND","ND","ND","663","0"],
    [65446,"2017-10-23T17:00:00","36.4","ND","ND","ND","12.9","0.8","ND","ND","ND","ND","288","0"],
    [65447,"2017-10-23T18:00:00","33.1","ND","ND","ND","6.3","0.9","ND","ND","ND","ND","35","0"],
    [65448,"2017-10-23T19:00:00","38.8","ND","ND","ND","9.1","0.5","ND","ND","ND","ND","0","0"],
    [65449,"2017-10-23T20:00:00","41.9","ND","ND","ND","8.2","0.4","ND","ND","ND","ND","0","0"],
    [65450,"2017-10-23T21:00:00","ND","ND","ND","ND","7.0","0.2","ND","ND","ND","ND","0","0"],
    [65451,"2017-10-23T22:00:00","83.5","ND","ND","ND","9.4","0.3","ND","ND","ND","ND","0","0"],
    [65452,"2017-10-23T23:00:00","138","ND","ND","ND","12.4","0.3","ND","ND","ND","ND","0","0.25"],
    [65453,"2017-10-24T00:00:00","144","ND","ND","ND","3.3","0.3","ND","ND","ND","ND","0","3.3"],
    [65454,"2017-10-24T01:00:00","125.8","ND","ND","ND","3.5","0.4","ND","ND","ND","ND","0","3.05"],
    [65455,"2017-10-24T02:00:00","65.1","ND","ND","ND","3.6","0.4","ND","ND","ND","ND","0","3.56"],
    [65456,"2017-10-24T03:00:00","29.3","ND","ND","ND","2.5","0.3","ND","ND","ND","ND","0","3.56"],
    [65457,"2017-10-24T04:00:00","25.3","ND","ND","ND","2.6","0.3","ND","ND","ND","ND","0","3.56"],
    [65458,"2017-10-24T05:00:00","24.7","ND","ND","ND","2.7","0.3","ND","ND","ND","ND","0","3.3"],
    [65459,"2017-10-24T06:00:00","21.9","ND","ND","ND","0.6","0.4","ND","ND","ND","ND","0","3.3"],
    [65460,"2017-10-24T07:00:00","26.2","ND","ND","ND","0.5","0.4","ND","ND","ND","ND","11","3.05"],
    [65461,"2017-10-24T08:00:00","24.6","ND","ND","ND","0.5","0.3","ND","ND","ND","ND","76","2.79"],
    [65462,"2017-10-24T09:00:00","22.1","ND","ND","ND","0.5","0.3","ND","ND","ND","ND","116","2.29"],
    [65463,"2017-10-24T10:00:00","39.5","ND","ND","ND","1.5","0.3","ND","ND","ND","ND","274","2.29"],
    [65464,"2017-10-24T11:00:00","55.4","ND","ND","ND","1.6","0.5","ND","ND","ND","ND","358","1.78"],
    [65465,"2017-10-24T12:00:00","28.5","ND","ND","ND","1.3","0.5","ND","ND","ND","ND","430","1.78"],
    [65466,"2017-10-24T13:00:00","25.3","ND","ND","ND","2.1","0.9","ND","ND","ND","ND","525","1.52"],
    [65467,"2017-10-24T14:00:00","23.3","ND","ND","ND","3.8","1.3","ND","ND","ND","ND","563","1.27"],
    [65468,"2017-10-24T15:00:00","35.3","ND","ND","ND","5.0","1.4","ND","ND","ND","ND","656","1.02"],
    [65469,"2017-10-24T16:00:00","29.3","ND","ND","ND","5.5","1.0","ND","ND","ND","ND","490","0.76"],
    [65470,"2017-10-24T17:00:00","15.5","ND","ND","ND","7.4","1.1","ND","ND","ND","ND","251","0.51"],
    [65471,"2017-10-24T18:00:00","23.7","ND","ND","ND","8.1","0.8","ND","ND","ND","ND","50","0"],
    [65472,"2017-10-24T19:00:00","29.7","ND","ND","ND","3.4","0.6","ND","ND","ND","ND","0","0"],
    [65473,"2017-10-24T20:00:00","36.1","ND","ND","ND","1.4","0.2","ND","ND","ND","ND","0","0"],
    [65474,"2017-10-24T21:00:00","36.9","ND","ND","ND","1.4","0.3","ND","ND","ND","ND","0","0"],
    [65475,"2017-10-24T22:00:00","32.3","ND","ND","ND","1.1","0.6","ND","ND","ND","ND","0","0"],
    [65476,"2017-10-24T23:00:00","31.9","ND","ND","ND","1.2","0.6","ND","ND","ND","ND","0","0"],
    [65477,"2017-10-25T00:00:00","26.4","ND","ND","ND","1.3","0.6","ND","ND","ND","ND","0","0"],
    [65478,"2017-10-25T01:00:00","19.2","ND","ND","ND","1.2","0.6","ND","ND","ND","ND","0","0"],
    [65479,"2017-10-25T02:00:00","7.4","ND","ND","ND","1.3","0.5","ND","ND","ND","ND","0","0"],
    [65480,"2017-10-25T03:00:00","16.7","ND","ND","ND","1.2","0.6","ND","ND","ND","ND","0","0"],
    [65481,"2017-10-25T04:00:00","56.7","ND","ND","ND","1.1","0.7","ND","ND","ND","ND","0","0"],
    [65482,"2017-10-25T05:00:00","43.1","ND","ND","ND","1.1","0.7","ND","ND","ND","ND","0","0"],
    [65483,"2017-10-25T06:00:00","39.3","ND","ND","ND","0.9","0.5","ND","ND","ND","ND","0","0"],
    [65484,"2017-10-25T07:00:00","51.6","ND","ND","ND","0.9","0.4","ND","ND","ND","ND","122","0"],
    [65485,"2017-10-25T08:00:00","104.9","ND","ND","ND","1.9","0.6","ND","ND","ND","ND","466","0"],
    [65486,"2017-10-25T09:00:00","102.4","ND","ND","ND","1.8","1.7","ND","ND","ND","ND","656","0"],
    [65487,"2017-10-25T10:00:00","76.1","ND","ND","ND","9.9","2.0","ND","ND","ND","ND","663","0"],
    [65488,"2017-10-25T11:00:00","62.1","ND","ND","ND","30.8","1.3","ND","ND","ND","ND","664","0"],
    [65489,"2017-10-25T12:00:00","49.2","ND","ND","ND","47.3","1.1","ND","ND","ND","ND","664","0"],
    [65490,"2017-10-25T13:00:00","56.8","ND","ND","ND","ND","2.8","ND","ND","ND","ND","666","0"],
    [65491,"2017-10-25T14:00:00","78.8","ND","ND","ND","55.4","1.9","ND","ND","ND","ND","665","0"],
    [65492,"2017-10-25T15:00:00","16.8","ND","ND","ND","81.5","1.1","ND","ND","ND","ND","666","0"],
    [65493,"2017-10-25T16:00:00","85","ND","ND","ND","79.6","1.3","ND","ND","ND","ND","622","0"],
    [65494,"2017-10-25T17:00:00","80.7","ND","ND","ND","53.7","1.8","ND","ND","ND","ND","324","0"],
    [65495,"2017-10-25T18:00:00","63.5","ND","ND","ND","16.7","ND","ND","ND","ND","ND","48","0"],
    [65496,"2017-10-25T19:00:00","53.7","ND","ND","ND","1.0","ND","ND","ND","ND","ND","0","0"],
    [65497,"2017-10-25T20:00:00","77.9","ND","ND","ND","1.0","ND","ND","ND","ND","ND","0","0"],
    [65498,"2017-10-25T21:00:00","75.2","ND","ND","ND","1.7","ND","ND","ND","ND","ND","0","0"],
    [65499,"2017-10-25T22:00:00","72","ND","ND","ND","0.5","ND","ND","ND","ND","ND","0","0"],
    [65500,"2017-10-25T23:00:00","88.1","ND","ND","ND","0.3","ND","ND","ND","ND","ND","0","0"],
    [65501,"2017-10-26T00:00:00","ND","ND","ND","ND","ND","2.0","ND","ND","ND","ND","0","0"],
    [65502,"2017-10-26T01:00:00","ND","ND","ND","ND","ND","1.7","ND","ND","ND","ND","0","0"],
    [65503,"2017-10-26T02:00:00","68.4","ND","ND","ND","1.4","1.4","ND","ND","ND","ND","0","0"],
    [65504,"2017-10-26T03:00:00","188.7","ND","ND","ND","3.7","1.2","ND","ND","ND","ND","0","0"],
    [65505,"2017-10-26T04:00:00","169.5","ND","ND","ND","3.5","0.8","ND","ND","ND","ND","0","0"],
    [65506,"2017-10-26T05:00:00","74.9","ND","ND","ND","12.2","0.2","ND","ND","ND","ND","0","1.02"],
    [65507,"2017-10-26T06:00:00","ND","ND","ND","ND","6.7","0.6","ND","ND","ND","ND","0","3.3"],
    [65508,"2017-10-26T07:00:00","ND","ND","ND","ND","2.4","0.6","ND","ND","ND","ND","24","3.05"],
    [65509,"2017-10-26T08:00:00","48.3","ND","ND","ND","1.3","0.9","ND","ND","ND","ND","236","2.29"],
    [65510,"2017-10-26T09:00:00","156","ND","ND","ND","1.7","1.2","ND","ND","ND","ND","485","2.03"],
    [65511,"2017-10-26T10:00:00","133.7","ND","ND","ND","4.7","1.3","ND","ND","ND","ND","581","1.78"],
    [65512,"2017-10-26T11:00:00","62.3","ND","ND","ND","9.6","1.1","ND","ND","ND","ND","642","1.52"],
    [65513,"2017-10-26T12:00:00","71.3","ND","ND","ND","15.7","1.4","ND","ND","ND","ND","663","1.02"],
    [65514,"2017-10-26T13:00:00","71.1","ND","ND","ND","25.2","1.0","ND","ND","ND","ND","664","0"],
    [65515,"2017-10-26T14:00:00","25.6","ND","ND","ND","30.5","0.6","ND","ND","ND","ND","664","0"],
    [65516,"2017-10-26T15:00:00","0.7","ND","ND","ND","31.8","0.5","ND","ND","ND","ND","664","0"],
    [65517,"2017-10-26T16:00:00","20.1","ND","ND","ND","33.3","0.3","ND","ND","ND","ND","664","0"],
    [65518,"2017-10-26T17:00:00","45.3","ND","ND","ND","34.7","0.3","ND","ND","ND","ND","469","0"],
    [65519,"2017-10-26T18:00:00","31","ND","ND","ND","11.2","1.7","ND","ND","ND","ND","40","0"],
    [65520,"2017-10-26T19:00:00","47.4","ND","ND","ND","0.8","2.6","ND","ND","ND","ND","0","0"],
    [65521,"2017-10-26T20:00:00","60.9","ND","ND","ND","0.6","1.3","ND","ND","ND","ND","0","0"],
    [65522,"2017-10-26T21:00:00","49.8","ND","ND","ND","0.8","1.7","ND","ND","ND","ND","0","0"],
    [65523,"2017-10-26T22:00:00","74.3","ND","ND","ND","0.4","1.6","ND","ND","ND","ND","0","0"],
    [65524,"2017-10-26T23:00:00","47.1","ND","ND","ND","0.2","0.4","ND","ND","ND","ND","0","0"],
    [65525,"2017-10-27T00:00:00","41.3","ND","ND","ND","0.1","0.2","ND","ND","ND","ND","0","0"],
    [65526,"2017-10-27T01:00:00","30.2","ND","ND","ND","0.0","0.5","ND","ND","ND","ND","0","0"],
    [65527,"2017-10-27T02:00:00","37.2","ND","ND","ND","0.1","0.4","ND","ND","ND","ND","0","0"],
    [65528,"2017-10-27T03:00:00","42","ND","ND","ND","0.3","1.3","ND","ND","ND","ND","0","0"],
    [65529,"2017-10-27T04:00:00","53.6","ND","ND","ND","0.5","4.1","ND","ND","ND","ND","0","0"],
    [65530,"2017-10-27T05:00:00","47.3","ND","ND","ND","2.8","3.0","ND","ND","ND","ND","0","0"],
    [65531,"2017-10-27T06:00:00","49.4","ND","ND","ND","2.2","2.4","ND","ND","ND","ND","0","0"],
    [65532,"2017-10-27T07:00:00","52.3","ND","ND","ND","0.8","2.1","ND","ND","ND","ND","120","0"],
    [65533,"2017-10-27T08:00:00","51.9","ND","ND","ND","0.7","1.1","ND","ND","ND","ND","311","0"],
    [65534,"2017-10-27T09:00:00","39.3","ND","ND","ND","6.7","0.6","ND","ND","ND","ND","655","0"],
    [65535,"2017-10-27T10:00:00","31.4","ND","ND","ND","39.1","0.4","ND","ND","ND","ND","664","0"],
    [65536,"2017-10-27T11:00:00","37.4","ND","ND","ND","64.6","0.4","ND","ND","ND","ND","664","0"],
    [65537,"2017-10-27T12:00:00","31.4","ND","ND","ND","86.3","0.3","ND","ND","ND","ND","664","0"],
    [65538,"2017-10-27T13:00:00","18.9","ND","ND","ND","98.1","0.4","ND","ND","ND","ND","665","0"],
    [65539,"2017-10-27T14:00:00","38.1","ND","ND","ND","98.5","0.6","ND","ND","ND","ND","667","0"],
    [65540,"2017-10-27T15:00:00","65.5","ND","ND","ND","40.8","0.8","ND","ND","ND","ND","670","0"],
    [65541,"2017-10-27T16:00:00","53.5","ND","ND","ND","26.0","ND","ND","ND","ND","ND","672","0"],
    [65542,"2017-10-27T17:00:00","46","ND","ND","ND","18.7","ND","ND","ND","ND","ND","346","0"],
    [65543,"2017-10-27T18:00:00","51.3","ND","ND","ND","5.7","ND","ND","ND","ND","ND","32","0"],
    [65544,"2017-10-27T19:00:00","42","ND","ND","ND","0.2","ND","ND","ND","ND","ND","0","0"],
    [65545,"2017-10-27T20:00:00","51.3","ND","ND","ND","0.5","ND","ND","ND","ND","ND","0","0"],
    [65546,"2017-10-27T21:00:00","54.9","ND","ND","ND","5.8","ND","ND","ND","ND","ND","0","0"],
    [65547,"2017-10-27T22:00:00","45.3","ND","ND","ND","3.5","ND","ND","ND","ND","ND","0","1.02"],
    [65548,"2017-10-27T23:00:00","40.4","ND","ND","ND","0.9","ND","ND","ND","ND","ND","0","4.06"],
    [65549,"2017-10-28T00:00:00","17","ND","ND","ND","1.0","ND","ND","ND","ND","ND","0","5.33"],
    [65550,"2017-10-28T01:00:00","21.7","ND","ND","ND","0.0","ND","ND","ND","ND","ND","0","4.32"],
    [65551,"2017-10-28T02:00:00","20.6","ND","ND","ND","0.0","ND","ND","ND","ND","ND","0","3.05"],
    [65552,"2017-10-28T03:00:00","15.5","ND","ND","ND","0.1","ND","ND","ND","ND","ND","0","1.52"],
    [65553,"2017-10-28T04:00:00","25.2","ND","ND","ND","0.0","ND","ND","ND","ND","ND","0","0"],
    [65554,"2017-10-28T05:00:00","33.9","ND","ND","ND","0.2","ND","ND","ND","ND","ND","0","0"],
    [65555,"2017-10-28T06:00:00","33.3","ND","ND","ND","0.6","1.3","ND","ND","ND","ND","0","0"],
    [65556,"2017-10-28T07:00:00","ND","ND","ND","ND","ND","1.6","ND","ND","ND","ND","46","0"],
    [65557,"2017-10-28T08:00:00","141.5","ND","ND","ND","1.0","1.6","ND","ND","ND","ND","93","0.25"],
    [65558,"2017-10-28T09:00:00","234.4","ND","ND","ND","0.9","1.8","ND","ND","ND","ND","171","0"],
    [65559,"2017-10-28T10:00:00","220.7","ND","ND","ND","1.8","0.7","ND","ND","ND","ND","387","0"],
    [65560,"2017-10-28T11:00:00","95.4","ND","ND","ND","6.9","0.5","ND","ND","ND","ND","530","0"],
    [65561,"2017-10-28T12:00:00","61.1","ND","ND","ND","12.1","0.5","ND","ND","ND","ND","484","0"],
    [65562,"2017-10-28T13:00:00","64.7","ND","ND","ND","25.7","0.3","ND","ND","ND","ND","657","0"],
    [65563,"2017-10-28T14:00:00","91.3","ND","ND","ND","54.9","0.4","ND","ND","ND","ND","664","0"],
    [65564,"2017-10-28T15:00:00","67.7","ND","ND","ND","83.1","0.3","ND","ND","ND","ND","630","0"],
    [65565,"2017-10-28T16:00:00","38","ND","ND","ND","56.0","0.4","ND","ND","ND","ND","323","0"],
    [65566,"2017-10-28T17:00:00","10.2","ND","ND","ND","33.3","0.4","ND","ND","ND","ND","157","0.51"],
    [65567,"2017-10-28T18:00:00","31.1","ND","ND","ND","6.8","0.4","ND","ND","ND","ND","26","2.29"],
    [65568,"2017-10-28T19:00:00","71.1","ND","ND","ND","1.2","0.5","ND","ND","ND","ND","0","2.03"],
    [65569,"2017-10-28T20:00:00","55.2","ND","ND","ND","0.1","0.5","ND","ND","ND","ND","0","0.51"],
    [65570,"2017-10-28T21:00:00","27.5","ND","ND","ND","0.1","0.5","ND","ND","ND","ND","0","0"],
    [65571,"2017-10-28T22:00:00","19.9","ND","ND","ND","0.1","1.9","ND","ND","ND","ND","0","0"],
    [65572,"2017-10-28T23:00:00","24.7","ND","ND","ND","0.2","1.4","ND","ND","ND","ND","0","0"],
    [65573,"2017-10-29T00:00:00","25.4","ND","ND","ND","0.1","1.6","ND","ND","ND","ND","0","0"],
    [65574,"2017-10-29T01:00:00","24.6","ND","ND","ND","0.2","1.4","ND","ND","ND","ND","0","0.25"],
    [65575,"2017-10-29T02:00:00","14.9","ND","ND","ND","0.2","0.8","ND","ND","ND","ND","0","0"],
    [65576,"2017-10-29T03:00:00","19.6","ND","ND","ND","0.1","0.6","ND","ND","ND","ND","0","0.25"],
    [65577,"2017-10-29T04:00:00","32.1","ND","ND","ND","0.1","0.6","ND","ND","ND","ND","0","0"],
    [65578,"2017-10-29T05:00:00","28.2","ND","ND","ND","0.0","0.8","ND","ND","ND","ND","0","0"],
    [65579,"2017-10-29T06:00:00","16.9","ND","ND","ND","0.0","2.3","ND","ND","ND","ND","0","0"],
    [65580,"2017-10-29T07:00:00","15.2","ND","ND","ND","0.0","6.0","ND","ND","ND","ND","62","0"],
    [65581,"2017-10-29T08:00:00","32.6","ND","ND","ND","0.2","6.3","ND","ND","ND","ND","175","0"],
    [65582,"2017-10-29T09:00:00","37.2","ND","ND","ND","0.2","2.3","ND","ND","ND","ND","406","0"],
    [65583,"2017-10-29T10:00:00","37.3","ND","ND","ND","3.8","0.6","ND","ND","ND","ND","637","0"],
    [65584,"2017-10-29T11:00:00","35.7","ND","ND","ND","14.5","0.6","ND","ND","ND","ND","650","0"],
    [65585,"2017-10-29T12:00:00","31.2","ND","ND","ND","24.2","0.4","ND","ND","ND","ND","663","0"],
    [65586,"2017-10-29T13:00:00","35.8","ND","ND","ND","34.4","1.0","ND","ND","ND","ND","663","0"],
    [65587,"2017-10-29T14:00:00","37.8","ND","ND","ND","55.1","0.8","ND","ND","ND","ND","664","0"],
    [65588,"2017-10-29T15:00:00","45.9","ND","ND","ND","60.0","0.5","ND","ND","ND","ND","663","0"],
    [65589,"2017-10-29T16:00:00","44.9","ND","ND","ND","29.7","1.7","ND","ND","ND","ND","599","0"],
    [65590,"2017-10-29T17:00:00","43.3","ND","ND","ND","45.4","1.2","ND","ND","ND","ND","396","0"],
    [65591,"2017-10-29T18:00:00","36.8","ND","ND","ND","27.1","0.8","ND","ND","ND","ND","70","0"],
    [65592,"2017-10-29T19:00:00","55.4","ND","ND","ND","2.2","0.6","ND","ND","ND","ND","0","0"],
    [65593,"2017-10-29T20:00:00","60.4","ND","ND","ND","0.2","0.9","ND","ND","ND","ND","0","0"],
    [65594,"2017-10-29T21:00:00","60.8","ND","ND","ND","0.0","0.6","ND","ND","ND","ND","0","0"],
    [65595,"2017-10-29T22:00:00","34.3","ND","ND","ND","0.2","0.3","ND","ND","ND","ND","0","0"],
    [65596,"2017-10-29T23:00:00","29.8","ND","ND","ND","0.0","1.4","ND","ND","ND","ND","0","0"],
    [65597,"2017-10-30T00:00:00","37.1","ND","ND","ND","0.0","3.5","ND","ND","ND","ND","0","0"],
    [65598,"2017-10-30T01:00:00","37.9","ND","ND","ND","0.0","1.3","ND","ND","ND","ND","0","0"],
    [65599,"2017-10-30T02:00:00","37.4","ND","ND","ND","0.8","0.7","ND","ND","ND","ND","0","0"],
    [65600,"2017-10-30T03:00:00","23.5","ND","ND","ND","3.9","0.5","ND","ND","ND","ND","0","0"],
    [65601,"2017-10-30T04:00:00","13.8","ND","ND","ND","1.9","0.5","ND","ND","ND","ND","0","0"],
    [65602,"2017-10-30T05:00:00","37.5","ND","ND","ND","0.3","1.3","ND","ND","ND","ND","0","0"],
    [65603,"2017-10-30T06:00:00","59.6","ND","ND","ND","0.4","1.8","ND","ND","ND","ND","0","0"],
    [65604,"2017-10-30T07:00:00","73.9","ND","ND","ND","0.7","5.3","ND","ND","ND","ND","50","0"],
    [65605,"2017-10-30T08:00:00","78.4","ND","ND","ND","0.8","4.4","ND","ND","ND","ND","181","0"],
    [65606,"2017-10-30T09:00:00","82","ND","ND","ND","1.3","2.8","ND","ND","ND","ND","455","0"],
    [65607,"2017-10-30T10:00:00","71","ND","ND","ND","4.4","2.4","ND","ND","ND","ND","632","0"],
    [65608,"2017-10-30T11:00:00","67.3","ND","ND","ND","27.6","1.1","ND","ND","ND","ND","663","0"],
    [65609,"2017-10-30T12:00:00","44.9","ND","ND","ND","53.1","0.4","ND","ND","ND","ND","664","0"],
    [65610,"2017-10-30T13:00:00","24.7","ND","ND","ND","74.4","0.3","ND","ND","ND","ND","647","0"],
    [65611,"2017-10-30T14:00:00","16.4","ND","ND","ND","80.0","0.4","ND","ND","ND","ND","663","0"],
    [65612,"2017-10-30T15:00:00","37.6","ND","ND","ND","52.7","0.3","ND","ND","ND","ND","632","0"],
    [65613,"2017-10-30T16:00:00","36","ND","ND","ND","37.2","1.3","ND","ND","ND","ND","438","0"],
    [65614,"2017-10-30T17:00:00","37.8","ND","ND","ND","25.4","2.3","ND","ND","ND","ND","433","0"],
    [65615,"2017-10-30T18:00:00","31.6","ND","ND","ND","9.9","0.6","ND","ND","ND","ND","47","0"],
    [65616,"2017-10-30T19:00:00","16.5","ND","ND","ND","0.8","0.4","ND","ND","ND","ND","0","0"],
    [65617,"2017-10-30T20:00:00","15.9","ND","ND","ND","4.0","0.2","ND","ND","ND","ND","0","0"],
    [65618,"2017-10-30T21:00:00","20.8","ND","ND","ND","2.0","0.2","ND","ND","ND","ND","0","0"],
    [65619,"2017-10-30T22:00:00","12.7","ND","ND","ND","2.9","0.1","ND","ND","ND","ND","0","0"],
    [65620,"2017-10-30T23:00:00","12.4","ND","ND","ND","0.3","0.2","ND","ND","ND","ND","0","0"],
    [65621,"2017-10-31T00:00:00","19.1","ND","ND","ND","0.4","1.1","ND","ND","ND","ND","0","0"],
    [65622,"2017-10-31T01:00:00","7.4","ND","ND","ND","0.6","0.5","ND","ND","ND","ND","0","0"],
    [65623,"2017-10-31T02:00:00","0.3","ND","ND","ND","0.9","1.1","ND","ND","ND","ND","0","0"],
    [65624,"2017-10-31T03:00:00","18","ND","ND","ND","1.0","0.9","ND","ND","ND","ND","0","0"],
    [65625,"2017-10-31T04:00:00","34","ND","ND","ND","0.4","1.0","ND","ND","ND","ND","0","0"],
    [65626,"2017-10-31T05:00:00","33.2","ND","ND","ND","0.5","1.3","ND","ND","ND","ND","0","0"],
    [65627,"2017-10-31T06:00:00","42.1","ND","ND","ND","0.5","1.5","ND","ND","ND","ND","0","0"],
    [65628,"2017-10-31T07:00:00","55.1","ND","ND","ND","0.7","2.5","ND","ND","ND","ND","121","0"],
    [65629,"2017-10-31T08:00:00","65.1","ND","ND","ND","1.1","1.8","ND","ND","ND","ND","191","0"],
    [65630,"2017-10-31T09:00:00","61.1","ND","ND","ND","2.0","3.5","ND","ND","ND","ND","508","0"],
    [65631,"2017-10-31T10:00:00","64.1","ND","ND","ND","10.4","2.0","ND","ND","ND","ND","663","0"],
    [65632,"2017-10-31T11:00:00","41.7","ND","ND","ND","32.2","1.1","ND","ND","ND","ND","651","0"],
    [65633,"2017-10-31T12:00:00","22.7","ND","ND","ND","61.0","0.3","ND","ND","ND","ND","665","0"],
    [65634,"2017-10-31T13:00:00","34.5","ND","ND","ND","83.7","0.4","ND","ND","ND","ND","668","0"],
    [65635,"2017-10-31T14:00:00","45.7","ND","ND","ND","90.1","0.4","ND","ND","ND","ND","670","0"],
    [65636,"2017-10-31T15:00:00","51.6","ND","ND","ND","93.7","0.4","ND","ND","ND","ND","672","0"],
    [65637,"2017-10-31T16:00:00","54.7","ND","ND","ND","83.2","ND","ND","ND","ND","ND","672","0"],
    [65638,"2017-10-31T17:00:00","54.4","ND","ND","ND","65.9","ND","ND","ND","ND","ND","418","0"],
    [65639,"2017-10-31T18:00:00","72.4","ND","ND","ND","17.0","0.3","ND","ND","ND","ND","19","0"],
    [65640,"2017-10-31T19:00:00","19.3","ND","ND","ND","3.4","0.2","ND","ND","ND","ND","0","0"],
    [65641,"2017-10-31T20:00:00","ND","ND","ND","ND","4.2","0.9","ND","ND","ND","ND","0","0"],
    [65642,"2017-10-31T21:00:00","102.7","ND","ND","ND","1.9","1.0","ND","ND","ND","ND","0","0"],
    [65643,"2017-10-31T22:00:00","168.8","ND","ND","ND","0.8","0.9","ND","ND","ND","ND","0","0"],
    [65644,"2017-10-31T23:00:00","158.7","ND","ND","ND","0.9","1.2","ND","ND","ND","ND","0","0"],
    [65645,"2017-11-01T00:00:00","118.6","ND","ND","ND","0.6","0.9","ND","ND","ND","ND","0","0"],
    [65646,"2017-11-01T01:00:00","101.2","ND","ND","ND","0.7","1.2","ND","ND","ND","ND","0","0"],
    [65647,"2017-11-01T02:00:00","62.2","ND","ND","ND","0.5","0.9","ND","ND","ND","ND","0","0"],
    [65648,"2017-11-01T03:00:00","51.6","ND","ND","ND","0.5","1.0","ND","ND","ND","ND","0","0"],
    [65649,"2017-11-01T04:00:00","71.5","ND","ND","ND","0.5","1.7","ND","ND","ND","ND","0","0"],
    [65650,"2017-11-01T05:00:00","81.1","ND","ND","ND","0.8","3.7","ND","ND","ND","ND","0","0"],
    [65651,"2017-11-01T06:00:00","88.7","ND","ND","ND","0.6","3.8","ND","ND","ND","ND","0","0"],
    [65652,"2017-11-01T07:00:00","106.7","ND","ND","ND","0.8","4.4","ND","ND","ND","ND","264","0"],
    [65653,"2017-11-01T08:00:00","113.3","ND","ND","ND","2.6","3.8","ND","ND","ND","ND","490","0"],
    [65654,"2017-11-01T09:00:00","102.4","ND","ND","ND","9.3","4.6","ND","ND","ND","ND","660","0"],
    [65655,"2017-11-01T10:00:00","85.3","ND","ND","ND","34.6","1.7","ND","ND","ND","ND","667","0"],
    [65656,"2017-11-01T11:00:00","48.2","ND","ND","ND","56.9","0.7","ND","ND","ND","ND","669","0"],
    [65657,"2017-11-01T12:00:00","39.6","ND","ND","ND","77.3","0.7","ND","ND","ND","ND","671","0"],
    [65658,"2017-11-01T13:00:00","41.7","ND","ND","ND","101.4","                                                                                                                                                                                                                                                                                                                                                                                                                                               ","ND","ND","ND","ND","672","0"],
    [65659,"2017-11-01T14:00:00","50.2","ND","ND","ND","109.0","ND","ND","ND","ND","ND","571","0"],
    [65660,"2017-11-01T15:00:00","47.2","ND","ND","ND","28.6","ND","ND","ND","ND","ND","655","0"],
    [65661,"2017-11-01T16:00:00","34.1","ND","ND","ND","23.6","ND","ND","ND","ND","ND","629","0"],
    [65662,"2017-11-01T17:00:00","ND","ND","ND","ND","ND","ND","ND","ND","ND","ND","ND","ND"],
    [65663,"2017-11-01T18:00:00","ND","ND","ND","ND","ND","ND","ND","ND","ND","ND","ND","ND"],
    [65664,"2017-11-01T19:00:00","ND","ND","ND","ND","ND","ND","ND","ND","ND","ND","ND","ND"],
    [65665,"2017-11-01T20:00:00","ND","ND","ND","ND","ND","ND","ND","ND","ND","ND","ND","ND"],
    [65666,"2017-11-01T21:00:00","ND","ND","ND","ND","ND","ND","ND","ND","ND","ND","ND","ND"],
    [65667,"2017-11-01T22:00:00","ND","ND","ND","ND","ND","ND","ND","ND","ND","ND","ND","ND"],
    [65668,"2017-11-01T23:00:00","ND","ND","ND","ND","ND","ND","ND","ND","ND","ND","ND","ND"],
    [65669,"2017-11-02T00:00:00","ND","ND","ND","ND","ND","ND","ND","ND","ND","ND","ND","ND"],
    [65670,"2017-11-02T01:00:00","ND","ND","ND","ND","ND","ND","ND","ND","ND","ND","ND","ND"],
    [65671,"2017-11-02T02:00:00","ND","ND","ND","ND","ND","ND","ND","ND","ND","ND","ND","ND"],
    [65672,"2017-11-02T03:00:00","ND","ND","ND","ND","ND","ND","ND","ND","ND","ND","ND","ND"],
    [65673,"2017-11-02T04:00:00","ND","ND","ND","ND","ND","ND","ND","ND","ND","ND","ND","ND"],
    [65674,"2017-11-02T05:00:00","ND","ND","ND","ND","ND","ND","ND","ND","ND","ND","ND","ND"],
    [65675,"2017-11-02T06:00:00","ND","ND","ND","ND","ND","ND","ND","ND","ND","ND","ND","ND"],
    [65676,"2017-11-02T07:00:00","ND","ND","ND","ND","ND","ND","ND","ND","ND","ND","ND","ND"],
    [65677,"2017-11-02T08:00:00","ND","ND","ND","ND","ND","ND","ND","ND","ND","ND","ND","ND"],
    [65678,"2017-11-02T09:00:00","ND","ND","ND","ND","ND","ND","ND","ND","ND","ND","ND","ND"],
    [65679,"2017-11-02T10:00:00","ND","ND","ND","ND","ND","ND","ND","ND","ND","ND","ND","ND"],
    [65680,"2017-11-02T11:00:00","ND","ND","ND","ND","ND","ND","ND","ND","ND","ND","ND","ND"],
    [65681,"2017-11-02T12:00:00","ND","ND","ND","ND","ND","ND","ND","ND","ND","ND","ND","ND"],
    [65682,"2017-11-02T13:00:00","ND","ND","ND","ND","ND","ND","ND","ND","ND","ND","ND","ND"],
    [65683,"2017-11-02T14:00:00","ND","ND","ND","ND","ND","ND","ND","ND","ND","ND","ND","ND"],
    [65684,"2017-11-02T15:00:00","ND","ND","ND","ND","ND","ND","ND","ND","ND","ND","ND","ND"],
    [65685,"2017-11-02T16:00:00","ND","ND","ND","ND","ND","ND","ND","ND","ND","ND","ND","ND"],
    [65686,"2017-11-02T17:00:00","ND","ND","ND","ND","ND","ND","ND","ND","ND","ND","ND","ND"],
    [65687,"2017-11-02T18:00:00","ND","ND","ND","ND","ND","ND","ND","ND","ND","ND","ND","ND"],
    [65688,"2017-11-02T19:00:00","ND","ND","ND","ND","ND","ND","ND","ND","ND","ND","ND","ND"],
    [65689,"2017-11-02T20:00:00","ND","ND","ND","ND","ND","ND","ND","ND","ND","ND","ND","ND"],
    [65690,"2017-11-02T21:00:00","ND","ND","ND","ND","ND","ND","ND","ND","ND","ND","ND","ND"],
    [65691,"2017-11-02T22:00:00","ND","ND","ND","ND","ND","ND","ND","ND","ND","ND","ND","ND"],
    [65692,"2017-11-02T23:00:00","ND","ND","ND","ND","ND","ND","ND","ND","ND","ND","ND","ND"],
    [65693,"2017-11-03T00:00:00","ND","ND","ND","ND","ND","ND","ND","ND","ND","ND","ND","ND"],
    [65694,"2017-11-03T01:00:00","ND","ND","ND","ND","ND","ND","ND","ND","ND","ND","ND","ND"],
    [65695,"2017-11-03T02:00:00","ND","ND","ND","ND","ND","ND","ND","ND","ND","ND","ND","ND"],
    [65696,"2017-11-03T03:00:00","ND","ND","ND","ND","ND","ND","ND","ND","ND","ND","ND","ND"],
    [65697,"2017-11-03T04:00:00","ND","ND","ND","ND","ND","ND","ND","ND","ND","ND","ND","ND"],
    [65698,"2017-11-03T05:00:00","ND","ND","ND","ND","ND","ND","ND","ND","ND","ND","ND","ND"],
    [65699,"2017-11-03T06:00:00","ND","ND","ND","ND","ND","ND","ND","ND","ND","ND","ND","ND"],
    [65700,"2017-11-03T07:00:00","ND","ND","ND","ND","ND","ND","ND","ND","ND","ND","ND","ND"],
    [65701,"2017-11-03T08:00:00","ND","ND","ND","ND","ND","ND","ND","ND","ND","ND","ND","ND"],
    [65702,"2017-11-03T09:00:00","ND","ND","ND","ND","ND","ND","ND","ND","ND","ND","ND","ND"],
    [65703,"2017-11-03T10:00:00","ND","ND","ND","ND","ND","ND","ND","ND","ND","ND","ND","ND"],
    [65704,"2017-11-03T11:00:00","ND","ND","ND","ND","ND","ND","ND","ND","ND","ND","ND","ND"],
    [65705,"2017-11-03T12:00:00","ND","ND","ND","ND","ND","ND","ND","ND","ND","ND","ND","ND"],
    [65706,"2017-11-03T13:00:00","ND","ND","ND","ND","ND","ND","ND","ND","ND","ND","ND","ND"],
    [65707,"2017-11-03T14:00:00","ND","ND","ND","ND","ND","ND","ND","ND","ND","ND","ND","ND"],
    [65708,"2017-11-03T15:00:00","ND","ND","ND","ND","ND","ND","ND","ND","ND","ND","ND","ND"],
    [65709,"2017-11-03T16:00:00","ND","ND","ND","ND","ND","ND","ND","ND","ND","ND","ND","ND"],
    [65710,"2017-11-03T17:00:00","ND","ND","ND","ND","ND","ND","ND","ND","ND","ND","ND","ND"],
    [65711,"2017-11-03T18:00:00","ND","ND","ND","ND","ND","ND","ND","ND","ND","ND","ND","ND"],
    [65712,"2017-11-03T19:00:00","ND","ND","ND","ND","ND","ND","ND","ND","ND","ND","ND","ND"],
    [65713,"2017-11-03T20:00:00","ND","ND","ND","ND","ND","ND","ND","ND","ND","ND","ND","ND"],
    [65714,"2017-11-03T21:00:00","ND","ND","ND","ND","ND","ND","ND","ND","ND","ND","ND","ND"],
    [65715,"2017-11-03T22:00:00","ND","ND","ND","ND","ND","ND","ND","ND","ND","ND","ND","ND"],
    [65716,"2017-11-03T23:00:00","ND","ND","ND","ND","ND","ND","ND","ND","ND","ND","ND","ND"],
    [65717,"2017-11-04T00:00:00","ND","ND","ND","ND","ND","ND","ND","ND","ND","ND","ND","ND"],
    [65718,"2017-11-04T01:00:00","ND","ND","ND","ND","ND","ND","ND","ND","ND","ND","ND","ND"],
    [65719,"2017-11-04T02:00:00","ND","ND","ND","ND","ND","ND","ND","ND","ND","ND","ND","ND"],
    [65720,"2017-11-04T03:00:00","ND","ND","ND","ND","ND","ND","ND","ND","ND","ND","ND","ND"],
    [65721,"2017-11-04T04:00:00","ND","ND","ND","ND","ND","ND","ND","ND","ND","ND","ND","ND"],
    [65722,"2017-11-04T05:00:00","ND","ND","ND","ND","ND","ND","ND","ND","ND","ND","ND","ND"],
    [65723,"2017-11-04T06:00:00","ND","ND","ND","ND","ND","ND","ND","ND","ND","ND","ND","ND"],
    [65724,"2017-11-04T07:00:00","ND","ND","ND","ND","ND","ND","ND","ND","ND","ND","ND","ND"],
    [65725,"2017-11-04T08:00:00","ND","ND","ND","ND","ND","ND","ND","ND","ND","ND","ND","ND"],
    [65726,"2017-11-04T09:00:00","ND","ND","ND","ND","ND","ND","ND","ND","ND","ND","ND","ND"],
    [65727,"2017-11-04T10:00:00","ND","ND","ND","ND","ND","ND","ND","ND","ND","ND","ND","ND"],
    [65728,"2017-11-04T11:00:00","ND","ND","ND","ND","ND","ND","ND","ND","ND","ND","ND","ND"],
    [65729,"2017-11-04T12:00:00","ND","ND","ND","ND","ND","ND","ND","ND","ND","ND","ND","ND"],
    [65730,"2017-11-04T13:00:00","ND","ND","ND","ND","ND","ND","ND","ND","ND","ND","ND","ND"],
    [65731,"2017-11-04T14:00:00","ND","ND","ND","ND","ND","ND","ND","ND","ND","ND","ND","ND"],
    [65732,"2017-11-04T15:00:00","ND","ND","ND","ND","ND","ND","ND","ND","ND","ND","ND","ND"],
    [65733,"2017-11-04T16:00:00","ND","ND","ND","ND","ND","ND","ND","ND","ND","ND","ND","ND"],
    [65734,"2017-11-04T17:00:00","ND","ND","ND","ND","ND","ND","ND","ND","ND","ND","ND","ND"],
    [65735,"2017-11-04T18:00:00","ND","ND","ND","ND","ND","ND","ND","ND","ND","ND","ND","ND"],
    [65736,"2017-11-04T19:00:00","ND","ND","ND","ND","ND","ND","ND","ND","ND","ND","ND","ND"],
    [65737,"2017-11-04T20:00:00","ND","ND","ND","ND","ND","ND","ND","ND","ND","ND","ND","ND"],
    [65738,"2017-11-04T21:00:00","ND","ND","ND","ND","ND","ND","ND","ND","ND","ND","ND","ND"],
    [65739,"2017-11-04T22:00:00","ND","ND","ND","ND","ND","ND","ND","ND","ND","ND","ND","ND"],
    [65740,"2017-11-04T23:00:00","ND","ND","ND","ND","ND","ND","ND","ND","ND","ND","ND","ND"],
    [65741,"2017-11-05T00:00:00","ND","ND","ND","ND","ND","ND","ND","ND","ND","ND","ND","ND"],
    [65742,"2017-11-05T01:00:00","ND","ND","ND","ND","ND","ND","ND","ND","ND","ND","ND","ND"],
    [65743,"2017-11-05T02:00:00","ND","ND","ND","ND","ND","ND","ND","ND","ND","ND","ND","ND"],
    [65744,"2017-11-05T03:00:00","ND","ND","ND","ND","ND","ND","ND","ND","ND","ND","ND","ND"],
    [65745,"2017-11-05T04:00:00","ND","ND","ND","ND","ND","ND","ND","ND","ND","ND","ND","ND"],
    [65746,"2017-11-05T05:00:00","ND","ND","ND","ND","ND","ND","ND","ND","ND","ND","ND","ND"],
    [65747,"2017-11-05T06:00:00","ND","ND","ND","ND","ND","ND","ND","ND","ND","ND","ND","ND"],
    [65748,"2017-11-05T07:00:00","ND","ND","ND","ND","ND","ND","ND","ND","ND","ND","ND","ND"],
    [65749,"2017-11-05T08:00:00","ND","ND","ND","ND","ND","ND","ND","ND","ND","ND","ND","ND"],
    [65750,"2017-11-05T09:00:00","ND","ND","ND","ND","ND","ND","ND","ND","ND","ND","ND","ND"],
    [65751,"2017-11-05T10:00:00","ND","ND","ND","ND","ND","ND","ND","ND","ND","ND","ND","ND"],
    [65752,"2017-11-05T11:00:00","ND","ND","ND","ND","ND","ND","ND","ND","ND","ND","ND","ND"],
    [65753,"2017-11-05T12:00:00","ND","ND","ND","ND","ND","ND","ND","ND","ND","ND","ND","ND"],
    [65754,"2017-11-05T13:00:00","ND","ND","ND","ND","ND","ND","ND","ND","ND","ND","ND","ND"],
    [65755,"2017-11-05T14:00:00","ND","ND","ND","ND","ND","ND","ND","ND","ND","ND","ND","ND"],
    [65756,"2017-11-05T15:00:00","ND","ND","ND","ND","ND","ND","ND","ND","ND","ND","ND","ND"],
    [65757,"2017-11-05T16:00:00","ND","ND","ND","ND","ND","ND","ND","ND","ND","ND","ND","ND"],
    [65758,"2017-11-05T17:00:00","ND","ND","ND","ND","ND","ND","ND","ND","ND","ND","ND","ND"],
    [65759,"2017-11-05T18:00:00","ND","ND","ND","ND","ND","ND","ND","ND","ND","ND","ND","ND"],
    [65760,"2017-11-05T19:00:00","ND","ND","ND","ND","ND","ND","ND","ND","ND","ND","ND","ND"],
    [65761,"2017-11-05T20:00:00","ND","ND","ND","ND","ND","ND","ND","ND","ND","ND","ND","ND"],
    [65762,"2017-11-05T21:00:00","ND","ND","ND","ND","ND","ND","ND","ND","ND","ND","ND","ND"],
    [65763,"2017-11-05T22:00:00","ND","ND","ND","ND","ND","ND","ND","ND","ND","ND","ND","ND"],
    [65764,"2017-11-05T23:00:00","ND","ND","ND","ND","ND","ND","ND","ND","ND","ND","ND","ND"],
    [65765,"2017-11-06T00:00:00","ND","ND","ND","ND","ND","ND","ND","ND","ND","ND","ND","ND"],
    [65766,"2017-11-06T01:00:00","ND","ND","ND","ND","ND","ND","ND","ND","ND","ND","ND","ND"],
    [65767,"2017-11-06T02:00:00","ND","ND","ND","ND","ND","ND","ND","ND","ND","ND","ND","ND"],
    [65768,"2017-11-06T03:00:00","ND","ND","ND","ND","ND","ND","ND","ND","ND","ND","ND","ND"],
    [65769,"2017-11-06T04:00:00","ND","ND","ND","ND","ND","ND","ND","ND","ND","ND","ND","ND"],
    [65770,"2017-11-06T05:00:00","ND","ND","ND","ND","ND","ND","ND","ND","ND","ND","ND","ND"],
    [65771,"2017-11-06T06:00:00","ND","ND","ND","ND","ND","ND","ND","ND","ND","ND","ND","ND"],
    [65772,"2017-11-06T07:00:00","ND","ND","ND","ND","ND","ND","ND","ND","ND","ND","ND","ND"],
    [65773,"2017-11-06T08:00:00","ND","ND","ND","ND","ND","ND","ND","ND","ND","ND","ND","ND"],
    [65774,"2017-11-06T09:00:00","ND","ND","ND","ND","ND","ND","ND","ND","ND","ND","ND","ND"],
    [65775,"2017-11-06T10:00:00","ND","ND","ND","ND","ND","ND","ND","ND","ND","ND","ND","ND"],
    [65776,"2017-11-06T11:00:00","ND","ND","ND","ND","ND","ND","ND","ND","ND","ND","ND","ND"],
    [65777,"2017-11-06T12:00:00","ND","ND","ND","ND","ND","ND","ND","ND","ND","ND","ND","ND"],
    [65778,"2017-11-06T13:00:00","ND","ND","ND","ND","ND","ND","ND","ND","ND","ND","ND","ND"],
    [65779,"2017-11-06T14:00:00","ND","ND","ND","ND","ND","ND","ND","ND","ND","ND","ND","ND"],
    [65780,"2017-11-06T15:00:00","ND","ND","ND","ND","ND","ND","ND","ND","ND","ND","ND","ND"],
    [65781,"2017-11-06T16:00:00","ND","ND","ND","ND","ND","ND","ND","ND","ND","ND","ND","ND"],
    [65782,"2017-11-06T17:00:00","ND","ND","ND","ND","ND","ND","ND","ND","ND","ND","ND","ND"],
    [65783,"2017-11-06T18:00:00","ND","ND","ND","ND","ND","ND","ND","ND","ND","ND","ND","ND"],
    [65784,"2017-11-06T19:00:00","ND","ND","ND","ND","ND","ND","ND","ND","ND","ND","ND","ND"],
    [65785,"2017-11-06T20:00:00","ND","ND","ND","ND","ND","ND","ND","ND","ND","ND","ND","ND"],
    [65786,"2017-11-06T21:00:00","ND","ND","ND","ND","ND","ND","ND","ND","ND","ND","ND","ND"],
    [65787,"2017-11-06T22:00:00","ND","ND","ND","ND","ND","ND","ND","ND","ND","ND","ND","ND"],
    [65788,"2017-11-06T23:00:00","ND","ND","ND","ND","ND","ND","ND","ND","ND","ND","ND","ND"],
    [65789,"2017-11-07T00:00:00","ND","ND","ND","ND","ND","ND","ND","ND","ND","ND","ND","ND"],
    [65790,"2017-11-07T01:00:00","ND","ND","ND","ND","ND","ND","ND","ND","ND","ND","ND","ND"],
    [65791,"2017-11-07T02:00:00","ND","ND","ND","ND","ND","ND","ND","ND","ND","ND","ND","ND"],
    [65792,"2017-11-07T03:00:00","ND","ND","ND","ND","ND","ND","ND","ND","ND","ND","ND","ND"],
    [65793,"2017-11-07T04:00:00","ND","ND","ND","ND","ND","ND","ND","ND","ND","ND","ND","ND"],
    [65794,"2017-11-07T05:00:00","ND","ND","ND","ND","ND","ND","ND","ND","ND","ND","ND","ND"],
    [65795,"2017-11-07T06:00:00","ND","ND","ND","ND","ND","ND","ND","ND","ND","ND","ND","ND"],
    [65796,"2017-11-07T07:00:00","ND","ND","ND","ND","ND","ND","ND","ND","ND","ND","ND","ND"],
    [65797,"2017-11-07T08:00:00","ND","ND","ND","ND","ND","ND","ND","ND","ND","ND","ND","ND"],
    [65798,"2017-11-07T09:00:00","ND","ND","ND","ND","ND","ND","ND","ND","ND","ND","ND","ND"],
    [65799,"2017-11-07T10:00:00","ND","ND","ND","ND","ND","ND","ND","ND","ND","ND","ND","ND"],
    [65800,"2017-11-07T11:00:00","ND","ND","ND","ND","ND","ND","ND","ND","ND","ND","ND","ND"],
    [65801,"2017-11-07T12:00:00","ND","ND","ND","ND","ND","ND","ND","ND","ND","ND","ND","ND"],
    [65802,"2017-11-07T13:00:00","ND","ND","ND","ND","ND","ND","ND","ND","ND","ND","ND","ND"],
    [65803,"2017-11-07T14:00:00","ND","ND","ND","ND","ND","ND","ND","ND","ND","ND","ND","ND"],
    [65804,"2017-11-07T15:00:00","ND","ND","ND","ND","ND","ND","ND","ND","ND","ND","ND","ND"],
    [65805,"2017-11-07T16:00:00","ND","ND","ND","ND","ND","ND","ND","ND","ND","ND","ND","ND"],
    [65806,"2017-11-07T17:00:00","ND","ND","ND","ND","ND","ND","ND","ND","ND","ND","ND","ND"],
    [65807,"2017-11-07T18:00:00","ND","ND","ND","ND","ND","ND","ND","ND","ND","ND","ND","ND"],
    [65808,"2017-11-07T19:00:00","ND","ND","ND","ND","ND","ND","ND","ND","ND","ND","ND","ND"],
    [65809,"2017-11-07T20:00:00","ND","ND","ND","ND","ND","ND","ND","ND","ND","ND","ND","ND"],
    [65810,"2017-11-07T21:00:00","ND","ND","ND","ND","ND","ND","ND","ND","ND","ND","ND","ND"],
    [65811,"2017-11-07T22:00:00","ND","ND","ND","ND","ND","ND","ND","ND","ND","ND","ND","ND"],
    [65812,"2017-11-07T23:00:00","ND","ND","ND","ND","ND","ND","ND","ND","ND","ND","ND","ND"],
    [65813,"2017-11-08T00:00:00","ND","ND","ND","ND","ND","ND","ND","ND","ND","ND","ND","ND"],
    [65814,"2017-11-08T01:00:00","ND","ND","ND","ND","ND","ND","ND","ND","ND","ND","ND","ND"],
    [65815,"2017-11-08T02:00:00","ND","ND","ND","ND","ND","ND","ND","ND","ND","ND","ND","ND"],
    [65816,"2017-11-08T03:00:00","ND","ND","ND","ND","ND","ND","ND","ND","ND","ND","ND","ND"],
    [65817,"2017-11-08T04:00:00","ND","ND","ND","ND","ND","ND","ND","ND","ND","ND","ND","ND"],
    [65818,"2017-11-08T05:00:00","ND","ND","ND","ND","ND","ND","ND","ND","ND","ND","ND","ND"],
    [65819,"2017-11-08T06:00:00","ND","ND","ND","ND","ND","ND","ND","ND","ND","ND","ND","ND"],
    [65820,"2017-11-08T07:00:00","ND","ND","ND","ND","ND","ND","ND","ND","ND","ND","ND","ND"],
    [65821,"2017-11-08T08:00:00","ND","ND","ND","ND","ND","ND","ND","ND","ND","ND","ND","ND"],
    [65822,"2017-11-08T09:00:00","ND","ND","ND","ND","ND","ND","ND","ND","ND","ND","ND","ND"],
    [65823,"2017-11-08T10:00:00","ND","ND","ND","ND","ND","ND","ND","ND","ND","ND","ND","ND"],
    [65824,"2017-11-08T11:00:00","ND","ND","ND","ND","ND","ND","ND","ND","ND","ND","ND","ND"],
    [65825,"2017-11-08T12:00:00","ND","ND","ND","ND","ND","ND","ND","ND","ND","ND","ND","ND"],
    [65826,"2017-11-08T13:00:00","ND","ND","ND","ND","ND","ND","ND","ND","ND","ND","ND","ND"],
    [65827,"2017-11-08T14:00:00","ND","ND","ND","ND","ND","ND","ND","ND","ND","ND","ND","ND"],
    [65828,"2017-11-08T15:00:00","ND","ND","ND","ND","ND","ND","ND","ND","ND","ND","ND","ND"],
    [65829,"2017-11-08T16:00:00","ND","ND","ND","ND","ND","ND","ND","ND","ND","ND","ND","ND"],
    [65830,"2017-11-08T17:00:00","ND","ND","ND","ND","ND","ND","ND","ND","ND","ND","ND","ND"],
    [65831,"2017-11-08T18:00:00","ND","ND","ND","ND","ND","ND","ND","ND","ND","ND","ND","ND"],
    [65832,"2017-11-08T19:00:00","ND","ND","ND","ND","ND","ND","ND","ND","ND","ND","ND","ND"],
    [65833,"2017-11-08T20:00:00","ND","ND","ND","ND","ND","ND","ND","ND","ND","ND","ND","ND"],
    [65834,"2017-11-08T21:00:00","ND","ND","ND","ND","ND","ND","ND","ND","ND","ND","ND","ND"],
    [65835,"2017-11-08T22:00:00","ND","ND","ND","ND","ND","ND","ND","ND","ND","ND","ND","ND"],
    [65836,"2017-11-08T23:00:00","ND","ND","ND","ND","ND","ND","ND","ND","ND","ND","ND","ND"],
    [65837,"2017-11-09T00:00:00","ND","ND","ND","ND","ND","ND","ND","ND","ND","ND","ND","ND"],
    [65838,"2017-11-09T01:00:00","ND","ND","ND","ND","ND","ND","ND","ND","ND","ND","ND","ND"],
    [65839,"2017-11-09T02:00:00","ND","ND","ND","ND","ND","ND","ND","ND","ND","ND","ND","ND"],
    [65840,"2017-11-09T03:00:00","ND","ND","ND","ND","ND","ND","ND","ND","ND","ND","ND","ND"],
    [65841,"2017-11-09T04:00:00","ND","ND","ND","ND","ND","ND","ND","ND","ND","ND","ND","ND"],
    [65842,"2017-11-09T05:00:00","ND","ND","ND","ND","ND","ND","ND","ND","ND","ND","ND","ND"],
    [65843,"2017-11-09T06:00:00","ND","ND","ND","ND","ND","ND","ND","ND","ND","ND","ND","ND"],
    [65844,"2017-11-09T07:00:00","ND","ND","ND","ND","ND","ND","ND","ND","ND","ND","ND","ND"],
    [65845,"2017-11-09T08:00:00","ND","ND","ND","ND","ND","ND","ND","ND","ND","ND","ND","ND"],
    [65846,"2017-11-09T09:00:00","ND","ND","ND","ND","ND","ND","ND","ND","ND","ND","ND","ND"],
    [65847,"2017-11-09T10:00:00","ND","ND","ND","ND","ND","ND","ND","ND","ND","ND","ND","ND"],
    [65848,"2017-11-09T11:00:00","ND","ND","ND","ND","ND","ND","ND","ND","ND","ND","ND","ND"],
    [65849,"2017-11-09T12:00:00","ND","ND","ND","ND","ND","ND","ND","ND","ND","ND","ND","ND"],
    [65850,"2017-11-09T13:00:00","ND","ND","ND","ND","ND","ND","ND","ND","ND","ND","ND","ND"],
    [65851,"2017-11-09T14:00:00","ND","ND","ND","ND","ND","ND","ND","ND","ND","ND","ND","ND"],
    [65852,"2017-11-09T15:00:00","ND","ND","ND","ND","ND","ND","ND","ND","ND","ND","ND","ND"],
    [65853,"2017-11-09T16:00:00","ND","ND","ND","ND","ND","ND","ND","ND","ND","ND","ND","ND"],
    [65854,"2017-11-09T17:00:00","ND","ND","ND","ND","ND","ND","ND","ND","ND","ND","ND","ND"],
    [65855,"2017-11-09T18:00:00","ND","ND","ND","ND","ND","ND","ND","ND","ND","ND","ND","ND"],
    [65856,"2017-11-09T19:00:00","ND","ND","ND","ND","ND","ND","ND","ND","ND","ND","ND","ND"],
    [65857,"2017-11-09T20:00:00","ND","ND","ND","ND","ND","ND","ND","ND","ND","ND","ND","ND"],
    [65858,"2017-11-09T21:00:00","ND","ND","ND","ND","ND","ND","ND","ND","ND","ND","ND","ND"],
    [65859,"2017-11-09T22:00:00","ND","ND","ND","ND","ND","ND","ND","ND","ND","ND","ND","ND"],
    [65860,"2017-11-09T23:00:00","ND","ND","ND","ND","ND","ND","ND","ND","ND","ND","ND","ND"],
    [65861,"2017-11-10T00:00:00","ND","ND","ND","ND","ND","ND","ND","ND","ND","ND","ND","ND"],
    [65862,"2017-11-10T01:00:00","ND","ND","ND","ND","ND","ND","ND","ND","ND","ND","ND","ND"],
    [65863,"2017-11-10T02:00:00","ND","ND","ND","ND","ND","ND","ND","ND","ND","ND","ND","ND"],
    [65864,"2017-11-10T03:00:00","ND","ND","ND","ND","ND","ND","ND","ND","ND","ND","ND","ND"],
    [65865,"2017-11-10T04:00:00","ND","ND","ND","ND","ND","ND","ND","ND","ND","ND","ND","ND"],
    [65866,"2017-11-10T05:00:00","ND","ND","ND","ND","ND","ND","ND","ND","ND","ND","ND","ND"],
    [65867,"2017-11-10T06:00:00","ND","ND","ND","ND","ND","ND","ND","ND","ND","ND","ND","ND"],
    [65868,"2017-11-10T07:00:00","ND","ND","ND","ND","ND","ND","ND","ND","ND","ND","ND","ND"],
    [65869,"2017-11-10T08:00:00","ND","ND","ND","ND","ND","ND","ND","ND","ND","ND","ND","ND"],
    [65870,"2017-11-10T09:00:00","ND","ND","ND","ND","ND","ND","ND","ND","ND","ND","ND","ND"],
    [65871,"2017-11-10T10:00:00","ND","ND","ND","ND","ND","ND","ND","ND","ND","ND","ND","ND"],
    [65872,"2017-11-10T11:00:00","ND","ND","ND","ND","ND","ND","ND","ND","ND","ND","ND","ND"],
    [65873,"2017-11-10T12:00:00","ND","ND","ND","ND","ND","ND","ND","ND","ND","ND","ND","ND"],
    [65874,"2017-11-10T13:00:00","ND","ND","ND","ND","ND","ND","ND","ND","ND","ND","ND","ND"],
    [65875,"2017-11-10T14:00:00","ND","ND","ND","ND","ND","ND","ND","ND","ND","ND","ND","ND"],
    [65876,"2017-11-10T15:00:00","ND","ND","ND","ND","ND","ND","ND","ND","ND","ND","ND","ND"],
    [65877,"2017-11-10T16:00:00","ND","ND","ND","ND","ND","ND","ND","ND","ND","ND","ND","ND"],
    [65878,"2017-11-10T17:00:00","ND","ND","ND","ND","ND","ND","ND","ND","ND","ND","ND","ND"],
    [65879,"2017-11-10T18:00:00","ND","ND","ND","ND","ND","ND","ND","ND","ND","ND","ND","ND"],
    [65880,"2017-11-10T19:00:00","ND","ND","ND","ND","ND","ND","ND","ND","ND","ND","ND","ND"],
    [65881,"2017-11-10T20:00:00","ND","ND","ND","ND","ND","ND","ND","ND","ND","ND","ND","ND"],
    [65882,"2017-11-10T21:00:00","ND","ND","ND","ND","ND","ND","ND","ND","ND","ND","ND","ND"],
    [65883,"2017-11-10T22:00:00","ND","ND","ND","ND","ND","ND","ND","ND","ND","ND","ND","ND"],
    [65884,"2017-11-10T23:00:00","ND","ND","ND","ND","ND","ND","ND","ND","ND","ND","ND","ND"],
    [65885,"2017-11-11T00:00:00","ND","ND","ND","ND","ND","ND","ND","ND","ND","ND","ND","ND"],
    [65886,"2017-11-11T01:00:00","ND","ND","ND","ND","ND","ND","ND","ND","ND","ND","ND","ND"],
    [65887,"2017-11-11T02:00:00","ND","ND","ND","ND","ND","ND","ND","ND","ND","ND","ND","ND"],
    [65888,"2017-11-11T03:00:00","ND","ND","ND","ND","ND","ND","ND","ND","ND","ND","ND","ND"],
    [65889,"2017-11-11T04:00:00","ND","ND","ND","ND","ND","ND","ND","ND","ND","ND","ND","ND"],
    [65890,"2017-11-11T05:00:00","ND","ND","ND","ND","ND","ND","ND","ND","ND","ND","ND","ND"],
    [65891,"2017-11-11T06:00:00","ND","ND","ND","ND","ND","ND","ND","ND","ND","ND","ND","ND"],
    [65892,"2017-11-11T07:00:00","ND","ND","ND","ND","ND","ND","ND","ND","ND","ND","ND","ND"],
    [65893,"2017-11-11T08:00:00","ND","ND","ND","ND","ND","ND","ND","ND","ND","ND","ND","ND"],
    [65894,"2017-11-11T09:00:00","ND","ND","ND","ND","ND","ND","ND","ND","ND","ND","ND","ND"],
    [65895,"2017-11-11T10:00:00","ND","ND","ND","ND","ND","ND","ND","ND","ND","ND","ND","ND"],
    [65896,"2017-11-11T11:00:00","ND","ND","ND","ND","ND","ND","ND","ND","ND","ND","ND","ND"],
    [65897,"2017-11-11T12:00:00","ND","ND","ND","ND","ND","ND","ND","ND","ND","ND","ND","ND"],
    [65898,"2017-11-11T13:00:00","ND","ND","ND","ND","ND","ND","ND","ND","ND","ND","ND","ND"],
    [65899,"2017-11-11T14:00:00","ND","ND","ND","ND","ND","ND","ND","ND","ND","ND","ND","ND"],
    [65900,"2017-11-11T15:00:00","ND","ND","ND","ND","ND","ND","ND","ND","ND","ND","ND","ND"],
    [65901,"2017-11-11T16:00:00","ND","ND","ND","ND","ND","ND","ND","ND","ND","ND","ND","ND"],
    [65902,"2017-11-11T17:00:00","ND","ND","ND","ND","ND","ND","ND","ND","ND","ND","ND","ND"],
    [65903,"2017-11-11T18:00:00","ND","ND","ND","ND","ND","ND","ND","ND","ND","ND","ND","ND"],
    [65904,"2017-11-11T19:00:00","ND","ND","ND","ND","ND","ND","ND","ND","ND","ND","ND","ND"],
    [65905,"2017-11-11T20:00:00","ND","ND","ND","ND","ND","ND","ND","ND","ND","ND","ND","ND"],
    [65906,"2017-11-11T21:00:00","ND","ND","ND","ND","ND","ND","ND","ND","ND","ND","ND","ND"],
    [65907,"2017-11-11T22:00:00","ND","ND","ND","ND","ND","ND","ND","ND","ND","ND","ND","ND"],
    [65908,"2017-11-11T23:00:00","ND","ND","ND","ND","ND","ND","ND","ND","ND","ND","ND","ND"],
    [65909,"2017-11-12T00:00:00","ND","ND","ND","ND","ND","ND","ND","ND","ND","ND","ND","ND"],
    [65910,"2017-11-12T01:00:00","ND","ND","ND","ND","ND","ND","ND","ND","ND","ND","ND","ND"],
    [65911,"2017-11-12T02:00:00","ND","ND","ND","ND","ND","ND","ND","ND","ND","ND","ND","ND"],
    [65912,"2017-11-12T03:00:00","ND","ND","ND","ND","ND","ND","ND","ND","ND","ND","ND","ND"],
    [65913,"2017-11-12T04:00:00","ND","ND","ND","ND","ND","ND","ND","ND","ND","ND","ND","ND"],
    [65914,"2017-11-12T05:00:00","ND","ND","ND","ND","ND","ND","ND","ND","ND","ND","ND","ND"],
    [65915,"2017-11-12T06:00:00","ND","ND","ND","ND","ND","ND","ND","ND","ND","ND","ND","ND"],
    [65916,"2017-11-12T07:00:00","ND","ND","ND","ND","ND","ND","ND","ND","ND","ND","ND","ND"],
    [65917,"2017-11-12T08:00:00","ND","ND","ND","ND","ND","ND","ND","ND","ND","ND","ND","ND"],
    [65918,"2017-11-12T09:00:00","ND","ND","ND","ND","ND","ND","ND","ND","ND","ND","ND","ND"],
    [65919,"2017-11-12T10:00:00","ND","ND","ND","ND","ND","ND","ND","ND","ND","ND","ND","ND"],
    [65920,"2017-11-12T11:00:00","ND","ND","ND","ND","ND","ND","ND","ND","ND","ND","ND","ND"],
    [65921,"2017-11-12T12:00:00","ND","ND","ND","ND","ND","ND","ND","ND","ND","ND","ND","ND"],
    [65922,"2017-11-12T13:00:00","ND","ND","ND","ND","ND","ND","ND","ND","ND","ND","ND","ND"],
    [65923,"2017-11-12T14:00:00","ND","ND","ND","ND","ND","ND","ND","ND","ND","ND","ND","ND"],
    [65924,"2017-11-12T15:00:00","ND","ND","ND","ND","ND","ND","ND","ND","ND","ND","ND","ND"],
    [65925,"2017-11-12T16:00:00","ND","ND","ND","ND","ND","ND","ND","ND","ND","ND","ND","ND"],
    [65926,"2017-11-12T17:00:00","ND","ND","ND","ND","ND","ND","ND","ND","ND","ND","ND","ND"],
    [65927,"2017-11-12T18:00:00","ND","ND","ND","ND","ND","ND","ND","ND","ND","ND","ND","ND"],
    [65928,"2017-11-12T19:00:00","ND","ND","ND","ND","ND","ND","ND","ND","ND","ND","ND","ND"],
    [65929,"2017-11-12T20:00:00","ND","ND","ND","ND","ND","ND","ND","ND","ND","ND","ND","ND"],
    [65930,"2017-11-12T21:00:00","ND","ND","ND","ND","ND","ND","ND","ND","ND","ND","ND","ND"],
    [65931,"2017-11-12T22:00:00","ND","ND","ND","ND","ND","ND","ND","ND","ND","ND","ND","ND"],
    [65932,"2017-11-12T23:00:00","ND","ND","ND","ND","ND","ND","ND","ND","ND","ND","ND","ND"],
    [65933,"2017-11-13T00:00:00","ND","ND","ND","ND","ND","ND","ND","ND","ND","ND","ND","ND"],
    [65934,"2017-11-13T01:00:00","ND","ND","ND","ND","ND","ND","ND","ND","ND","ND","ND","ND"],
    [65935,"2017-11-13T02:00:00","ND","ND","ND","ND","ND","ND","ND","ND","ND","ND","ND","ND"],
    [65936,"2017-11-13T03:00:00","ND","ND","ND","ND","ND","ND","ND","ND","ND","ND","ND","ND"],
    [65937,"2017-11-13T04:00:00","ND","ND","ND","ND","ND","ND","ND","ND","ND","ND","ND","ND"],
    [65938,"2017-11-13T05:00:00","ND","ND","ND","ND","ND","ND","ND","ND","ND","ND","ND","ND"],
    [65939,"2017-11-13T06:00:00","ND","ND","ND","ND","ND","ND","ND","ND","ND","ND","ND","ND"],
    [65940,"2017-11-13T07:00:00","ND","ND","ND","ND","ND","ND","ND","ND","ND","ND","ND","ND"],
    [65941,"2017-11-13T08:00:00","ND","ND","ND","ND","ND","ND","ND","ND","ND","ND","ND","ND"],
    [65942,"2017-11-13T09:00:00","ND","ND","ND","ND","ND","ND","ND","ND","ND","ND","ND","ND"],
    [65943,"2017-11-13T10:00:00","ND","ND","ND","ND","ND","ND","ND","ND","ND","ND","ND","ND"],
    [65944,"2017-11-13T11:00:00","ND","ND","ND","ND","ND","ND","ND","ND","ND","ND","ND","ND"],
    [65945,"2017-11-13T12:00:00","ND","ND","ND","ND","ND","ND","ND","ND","ND","ND","ND","ND"],
    [65946,"2017-11-13T13:00:00","ND","ND","ND","ND","ND","ND","ND","ND","ND","ND","ND","ND"],
    [65947,"2017-11-13T14:00:00","ND","ND","ND","ND","ND","ND","ND","ND","ND","ND","ND","ND"],
    [65948,"2017-11-13T15:00:00","ND","ND","ND","ND","ND","ND","ND","ND","ND","ND","ND","ND"],
    [65949,"2017-11-13T16:00:00","ND","ND","ND","ND","ND","ND","ND","ND","ND","ND","ND","ND"],
    [65950,"2017-11-13T17:00:00","ND","ND","ND","ND","ND","ND","ND","ND","ND","ND","ND","ND"],
    [65951,"2017-11-13T18:00:00","ND","ND","ND","ND","ND","ND","ND","ND","ND","ND","ND","ND"],
    [65952,"2017-11-13T19:00:00","ND","ND","ND","ND","ND","ND","ND","ND","ND","ND","ND","ND"],
    [65953,"2017-11-13T20:00:00","ND","ND","ND","ND","ND","ND","ND","ND","ND","ND","ND","ND"],
    [65954,"2017-11-13T21:00:00","ND","ND","ND","ND","ND","ND","ND","ND","ND","ND","ND","ND"],
    [65955,"2017-11-13T22:00:00","ND","ND","ND","ND","ND","ND","ND","ND","ND","ND","ND","ND"],
    [65956,"2017-11-13T23:00:00","ND","ND","ND","ND","ND","ND","ND","ND","ND","ND","ND","ND"],
    [65957,"2017-11-14T00:00:00","ND","ND","ND","ND","ND","ND","ND","ND","ND","ND","ND","ND"],
    [65958,"2017-11-14T01:00:00","ND","ND","ND","ND","ND","ND","ND","ND","ND","ND","ND","ND"],
    [65959,"2017-11-14T02:00:00","ND","ND","ND","ND","ND","ND","ND","ND","ND","ND","ND","ND"],
    [65960,"2017-11-14T03:00:00","ND","ND","ND","ND","ND","ND","ND","ND","ND","ND","ND","ND"],
    [65961,"2017-11-14T04:00:00","ND","ND","ND","ND","ND","ND","ND","ND","ND","ND","ND","ND"],
    [65962,"2017-11-14T05:00:00","ND","ND","ND","ND","ND","ND","ND","ND","ND","ND","ND","ND"],
    [65963,"2017-11-14T06:00:00","ND","ND","ND","ND","ND","ND","ND","ND","ND","ND","ND","ND"],
    [65964,"2017-11-14T07:00:00","ND","ND","ND","ND","ND","ND","ND","ND","ND","ND","ND","ND"],
    [65965,"2017-11-14T08:00:00","ND","ND","ND","ND","ND","ND","ND","ND","ND","ND","ND","ND"],
    [65966,"2017-11-14T09:00:00","ND","ND","ND","ND","ND","ND","ND","ND","ND","ND","ND","ND"],
    [65967,"2017-11-14T10:00:00","ND","ND","ND","ND","ND","ND","ND","ND","ND","ND","ND","ND"],
    [65968,"2017-11-14T11:00:00","ND","ND","ND","ND","ND","ND","ND","ND","ND","ND","ND","ND"],
    [65969,"2017-11-14T12:00:00","ND","ND","ND","ND","ND","ND","ND","ND","ND","ND","ND","ND"],
    [65970,"2017-11-14T13:00:00","ND","ND","ND","ND","ND","ND","ND","ND","ND","ND","ND","ND"],
    [65971,"2017-11-14T14:00:00","ND","ND","ND","ND","ND","ND","ND","ND","ND","ND","ND","ND"],
    [65972,"2017-11-14T15:00:00","ND","ND","ND","ND","ND","ND","ND","ND","ND","ND","ND","ND"],
    [65973,"2017-11-14T16:00:00","ND","ND","ND","ND","ND","ND","ND","ND","ND","ND","ND","ND"],
    [65974,"2017-11-14T17:00:00","ND","ND","ND","ND","ND","ND","ND","ND","ND","ND","ND","ND"],
    [65975,"2017-11-14T18:00:00","ND","ND","ND","ND","ND","ND","ND","ND","ND","ND","ND","ND"],
    [65976,"2017-11-14T19:00:00","ND","ND","ND","ND","ND","ND","ND","ND","ND","ND","ND","ND"],
    [65977,"2017-11-14T20:00:00","ND","ND","ND","ND","ND","ND","ND","ND","ND","ND","ND","ND"],
    [65978,"2017-11-14T21:00:00","ND","ND","ND","ND","ND","ND","ND","ND","ND","ND","ND","ND"],
    [65979,"2017-11-14T22:00:00","ND","ND","ND","ND","ND","ND","ND","ND","ND","ND","ND","ND"],
    [65980,"2017-11-14T23:00:00","ND","ND","ND","ND","ND","ND","ND","ND","ND","ND","ND","ND"],
    [65981,"2017-11-15T00:00:00","ND","ND","ND","ND","ND","ND","ND","ND","ND","ND","ND","ND"],
    [65982,"2017-11-15T01:00:00","ND","ND","ND","ND","ND","ND","ND","ND","ND","ND","ND","ND"],
    [65983,"2017-11-15T02:00:00","ND","ND","ND","ND","ND","ND","ND","ND","ND","ND","ND","ND"],
    [65984,"2017-11-15T03:00:00","ND","ND","ND","ND","ND","ND","ND","ND","ND","ND","ND","ND"],
    [65985,"2017-11-15T04:00:00","ND","ND","ND","ND","ND","ND","ND","ND","ND","ND","ND","ND"],
    [65986,"2017-11-15T05:00:00","ND","ND","ND","ND","ND","ND","ND","ND","ND","ND","ND","ND"],
    [65987,"2017-11-15T06:00:00","ND","ND","ND","ND","ND","ND","ND","ND","ND","ND","ND","ND"],
    [65988,"2017-11-15T07:00:00","ND","ND","ND","ND","ND","ND","ND","ND","ND","ND","ND","ND"],
    [65989,"2017-11-15T08:00:00","ND","ND","ND","ND","ND","ND","ND","ND","ND","ND","ND","ND"],
    [65990,"2017-11-15T09:00:00","ND","ND","ND","ND","ND","ND","ND","ND","ND","ND","ND","ND"],
    [65991,"2017-11-15T10:00:00","ND","ND","ND","ND","ND","ND","ND","ND","ND","ND","ND","ND"],
    [65992,"2017-11-15T11:00:00","ND","ND","ND","ND","ND","ND","ND","ND","ND","ND","ND","ND"],
    [65993,"2017-11-15T12:00:00","ND","ND","ND","ND","ND","ND","ND","ND","ND","ND","ND","ND"],
    [65994,"2017-11-15T13:00:00","ND","ND","ND","ND","ND","ND","ND","ND","ND","ND","ND","ND"],
    [65995,"2017-11-15T14:00:00","ND","ND","ND","ND","ND","ND","ND","ND","ND","ND","ND","ND"],
    [65996,"2017-11-15T15:00:00","ND","ND","ND","ND","ND","ND","ND","ND","ND","ND","ND","ND"],
    [65997,"2017-11-15T16:00:00","ND","ND","ND","ND","ND","ND","ND","ND","ND","ND","ND","ND"],
    [65998,"2017-11-15T17:00:00","ND","ND","ND","ND","ND","ND","ND","ND","ND","ND","ND","ND"],
    [65999,"2017-11-15T18:00:00","ND","ND","ND","ND","ND","ND","ND","ND","ND","ND","ND","ND"],
    [66000,"2017-11-15T19:00:00","ND","ND","ND","ND","ND","ND","ND","ND","ND","ND","ND","ND"],
    [66001,"2017-11-15T20:00:00","ND","ND","ND","ND","ND","ND","ND","ND","ND","ND","ND","ND"],
    [66002,"2017-11-15T21:00:00","ND","ND","ND","ND","ND","ND","ND","ND","ND","ND","ND","ND"],
    [66003,"2017-11-15T22:00:00","ND","ND","ND","ND","ND","ND","ND","ND","ND","ND","ND","ND"],
    [66004,"2017-11-15T23:00:00","ND","ND","ND","ND","ND","ND","ND","ND","ND","ND","ND","ND"],
    [66005,"2017-11-16T00:00:00","ND","ND","ND","ND","ND","ND","ND","ND","ND","ND","ND","ND"],
    [66006,"2017-11-16T01:00:00","ND","ND","ND","ND","ND","ND","ND","ND","ND","ND","ND","ND"],
    [66007,"2017-11-16T02:00:00","ND","ND","ND","ND","ND","ND","ND","ND","ND","ND","ND","ND"],
    [66008,"2017-11-16T03:00:00","ND","ND","ND","ND","ND","ND","ND","ND","ND","ND","ND","ND"],
    [66009,"2017-11-16T04:00:00","ND","ND","ND","ND","ND","ND","ND","ND","ND","ND","ND","ND"],
    [66010,"2017-11-16T05:00:00","ND","ND","ND","ND","ND","ND","ND","ND","ND","ND","ND","ND"],
    [66011,"2017-11-16T06:00:00","ND","ND","ND","ND","ND","ND","ND","ND","ND","ND","ND","ND"],
    [66012,"2017-11-16T07:00:00","ND","ND","ND","ND","ND","ND","ND","ND","ND","ND","ND","ND"],
    [66013,"2017-11-16T08:00:00","ND","ND","ND","ND","ND","ND","ND","ND","ND","ND","ND","ND"],
    [66014,"2017-11-16T09:00:00","ND","ND","ND","ND","ND","ND","ND","ND","ND","ND","ND","ND"],
    [66015,"2017-11-16T10:00:00","ND","ND","ND","ND","ND","ND","ND","ND","ND","ND","ND","ND"],
    [66016,"2017-11-16T11:00:00","ND","ND","ND","ND","ND","ND","ND","ND","ND","ND","ND","ND"],
    [66017,"2017-11-16T12:00:00","ND","ND","ND","ND","ND","ND","ND","ND","ND","ND","ND","ND"],
    [66018,"2017-11-16T13:00:00","ND","ND","ND","ND","ND","ND","ND","ND","ND","ND","ND","ND"],
    [66019,"2017-11-16T14:00:00","ND","ND","ND","ND","ND","ND","ND","ND","ND","ND","ND","ND"],
    [66020,"2017-11-16T15:00:00","ND","ND","ND","ND","ND","ND","ND","ND","ND","ND","ND","ND"],
    [66021,"2017-11-16T16:00:00","ND","ND","ND","ND","ND","ND","ND","ND","ND","ND","ND","ND"],
    [66022,"2017-11-16T17:00:00","ND","ND","ND","ND","ND","ND","ND","ND","ND","ND","ND","ND"],
    [66023,"2017-11-16T18:00:00","ND","ND","ND","ND","ND","ND","ND","ND","ND","ND","ND","ND"],
    [66024,"2017-11-16T19:00:00","ND","ND","ND","ND","ND","ND","ND","ND","ND","ND","ND","ND"],
    [66025,"2017-11-16T20:00:00","ND","ND","ND","ND","ND","ND","ND","ND","ND","ND","ND","ND"],
    [66026,"2017-11-16T21:00:00","ND","ND","ND","ND","ND","ND","ND","ND","ND","ND","ND","ND"],
    [66027,"2017-11-16T22:00:00","ND","ND","ND","ND","ND","ND","ND","ND","ND","ND","ND","ND"],
    [66028,"2017-11-16T23:00:00","ND","ND","ND","ND","ND","ND","ND","ND","ND","ND","ND","ND"],
    [66029,"2017-11-17T00:00:00","ND","ND","ND","ND","ND","ND","ND","ND","ND","ND","ND","ND"],
    [66030,"2017-11-17T01:00:00","ND","ND","ND","ND","ND","ND","ND","ND","ND","ND","ND","ND"],
    [66031,"2017-11-17T02:00:00","ND","ND","ND","ND","ND","ND","ND","ND","ND","ND","ND","ND"],
    [66032,"2017-11-17T03:00:00","ND","ND","ND","ND","ND","ND","ND","ND","ND","ND","ND","ND"],
    [66033,"2017-11-17T04:00:00","ND","ND","ND","ND","ND","ND","ND","ND","ND","ND","ND","ND"],
    [66034,"2017-11-17T05:00:00","ND","ND","ND","ND","ND","ND","ND","ND","ND","ND","ND","ND"],
    [66035,"2017-11-17T06:00:00","ND","ND","ND","ND","ND","ND","ND","ND","ND","ND","ND","ND"],
    [66036,"2017-11-17T07:00:00","ND","ND","ND","ND","ND","ND","ND","ND","ND","ND","ND","ND"],
    [66037,"2017-11-17T08:00:00","ND","ND","ND","ND","ND","ND","ND","ND","ND","ND","ND","ND"],
    [66038,"2017-11-17T09:00:00","ND","ND","ND","ND","ND","ND","ND","ND","ND","ND","ND","ND"],
    [66039,"2017-11-17T10:00:00","ND","ND","ND","ND","ND","ND","ND","ND","ND","ND","ND","ND"],
    [66040,"2017-11-17T11:00:00","ND","ND","ND","ND","ND","ND","ND","ND","ND","ND","ND","ND"],
    [66041,"2017-11-17T12:00:00","ND","ND","ND","ND","ND","ND","ND","ND","ND","ND","ND","ND"],
    [66042,"2017-11-17T13:00:00","ND","ND","ND","ND","ND","ND","ND","ND","ND","ND","ND","ND"],
    [66043,"2017-11-17T14:00:00","ND","ND","ND","ND","ND","ND","ND","ND","ND","ND","ND","ND"],
    [66044,"2017-11-17T15:00:00","ND","ND","ND","ND","ND","ND","ND","ND","ND","ND","ND","ND"],
    [66045,"2017-11-17T16:00:00","ND","ND","ND","ND","ND","ND","ND","ND","ND","ND","ND","ND"],
    [66046,"2017-11-17T17:00:00","ND","ND","ND","ND","ND","ND","ND","ND","ND","ND","ND","ND"],
    [66047,"2017-11-17T18:00:00","ND","ND","ND","ND","ND","ND","ND","ND","ND","ND","ND","ND"],
    [66048,"2017-11-17T19:00:00","ND","ND","ND","ND","ND","ND","ND","ND","ND","ND","ND","ND"],
    [66049,"2017-11-17T20:00:00","ND","ND","ND","ND","ND","ND","ND","ND","ND","ND","ND","ND"],
    [66050,"2017-11-17T21:00:00","ND","ND","ND","ND","ND","ND","ND","ND","ND","ND","ND","ND"],
    [66051,"2017-11-17T22:00:00","ND","ND","ND","ND","ND","ND","ND","ND","ND","ND","ND","ND"],
    [66052,"2017-11-17T23:00:00","ND","ND","ND","ND","ND","ND","ND","ND","ND","ND","ND","ND"],
    [66053,"2017-11-18T00:00:00","ND","ND","ND","ND","ND","ND","ND","ND","ND","ND","ND","ND"],
    [66054,"2017-11-18T01:00:00","ND","ND","ND","ND","ND","ND","ND","ND","ND","ND","ND","ND"],
    [66055,"2017-11-18T02:00:00","ND","ND","ND","ND","ND","ND","ND","ND","ND","ND","ND","ND"],
    [66056,"2017-11-18T03:00:00","ND","ND","ND","ND","ND","ND","ND","ND","ND","ND","ND","ND"],
    [66057,"2017-11-18T04:00:00","ND","ND","ND","ND","ND","ND","ND","ND","ND","ND","ND","ND"],
    [66058,"2017-11-18T05:00:00","ND","ND","ND","ND","ND","ND","ND","ND","ND","ND","ND","ND"],
    [66059,"2017-11-18T06:00:00","ND","ND","ND","ND","ND","ND","ND","ND","ND","ND","ND","ND"],
    [66060,"2017-11-18T07:00:00","ND","ND","ND","ND","ND","ND","ND","ND","ND","ND","ND","ND"],
    [66061,"2017-11-18T08:00:00","ND","ND","ND","ND","ND","ND","ND","ND","ND","ND","ND","ND"],
    [66062,"2017-11-18T09:00:00","ND","ND","ND","ND","ND","ND","ND","ND","ND","ND","ND","ND"],
    [66063,"2017-11-18T10:00:00","ND","ND","ND","ND","ND","ND","ND","ND","ND","ND","ND","ND"],
    [66064,"2017-11-18T11:00:00","ND","ND","ND","ND","ND","ND","ND","ND","ND","ND","ND","ND"],
    [66065,"2017-11-18T12:00:00","ND","ND","ND","ND","ND","ND","ND","ND","ND","ND","ND","ND"],
    [66066,"2017-11-18T13:00:00","ND","ND","ND","ND","ND","ND","ND","ND","ND","ND","ND","ND"],
    [66067,"2017-11-18T14:00:00","ND","ND","ND","ND","ND","ND","ND","ND","ND","ND","ND","ND"],
    [66068,"2017-11-18T15:00:00","ND","ND","ND","ND","ND","ND","ND","ND","ND","ND","ND","ND"],
    [66069,"2017-11-18T16:00:00","ND","ND","ND","ND","ND","ND","ND","ND","ND","ND","ND","ND"],
    [66070,"2017-11-18T17:00:00","ND","ND","ND","ND","ND","ND","ND","ND","ND","ND","ND","ND"],
    [66071,"2017-11-18T18:00:00","ND","ND","ND","ND","ND","ND","ND","ND","ND","ND","ND","ND"],
    [66072,"2017-11-18T19:00:00","ND","ND","ND","ND","ND","ND","ND","ND","ND","ND","ND","ND"],
    [66073,"2017-11-18T20:00:00","ND","ND","ND","ND","ND","ND","ND","ND","ND","ND","ND","ND"],
    [66074,"2017-11-18T21:00:00","ND","ND","ND","ND","ND","ND","ND","ND","ND","ND","ND","ND"],
    [66075,"2017-11-18T22:00:00","ND","ND","ND","ND","ND","ND","ND","ND","ND","ND","ND","ND"],
    [66076,"2017-11-18T23:00:00","ND","ND","ND","ND","ND","ND","ND","ND","ND","ND","ND","ND"],
    [66077,"2017-11-19T00:00:00","ND","ND","ND","ND","ND","ND","ND","ND","ND","ND","ND","ND"],
    [66078,"2017-11-19T01:00:00","ND","ND","ND","ND","ND","ND","ND","ND","ND","ND","ND","ND"],
    [66079,"2017-11-19T02:00:00","ND","ND","ND","ND","ND","ND","ND","ND","ND","ND","ND","ND"],
    [66080,"2017-11-19T03:00:00","ND","ND","ND","ND","ND","ND","ND","ND","ND","ND","ND","ND"],
    [66081,"2017-11-19T04:00:00","ND","ND","ND","ND","ND","ND","ND","ND","ND","ND","ND","ND"],
    [66082,"2017-11-19T05:00:00","ND","ND","ND","ND","ND","ND","ND","ND","ND","ND","ND","ND"],
    [66083,"2017-11-19T06:00:00","ND","ND","ND","ND","ND","ND","ND","ND","ND","ND","ND","ND"],
    [66084,"2017-11-19T07:00:00","ND","ND","ND","ND","ND","ND","ND","ND","ND","ND","ND","ND"],
    [66085,"2017-11-19T08:00:00","ND","ND","ND","ND","ND","ND","ND","ND","ND","ND","ND","ND"],
    [66086,"2017-11-19T09:00:00","ND","ND","ND","ND","ND","ND","ND","ND","ND","ND","ND","ND"],
    [66087,"2017-11-19T10:00:00","ND","ND","ND","ND","ND","ND","ND","ND","ND","ND","ND","ND"],
    [66088,"2017-11-19T11:00:00","ND","ND","ND","ND","ND","ND","ND","ND","ND","ND","ND","ND"],
    [66089,"2017-11-19T12:00:00","ND","ND","ND","ND","ND","ND","ND","ND","ND","ND","ND","ND"],
    [66090,"2017-11-19T13:00:00","ND","ND","ND","ND","ND","ND","ND","ND","ND","ND","ND","ND"],
    [66091,"2017-11-19T14:00:00","ND","ND","ND","ND","ND","ND","ND","ND","ND","ND","ND","ND"],
    [66092,"2017-11-19T15:00:00","ND","ND","ND","ND","ND","ND","ND","ND","ND","ND","ND","ND"],
    [66093,"2017-11-19T16:00:00","ND","ND","ND","ND","ND","ND","ND","ND","ND","ND","ND","ND"],
    [66094,"2017-11-19T17:00:00","ND","ND","ND","ND","ND","ND","ND","ND","ND","ND","ND","ND"],
    [66095,"2017-11-19T18:00:00","ND","ND","ND","ND","ND","ND","ND","ND","ND","ND","ND","ND"],
    [66096,"2017-11-19T19:00:00","ND","ND","ND","ND","ND","ND","ND","ND","ND","ND","ND","ND"],
    [66097,"2017-11-19T20:00:00","ND","ND","ND","ND","ND","ND","ND","ND","ND","ND","ND","ND"],
    [66098,"2017-11-19T21:00:00","ND","ND","ND","ND","ND","ND","ND","ND","ND","ND","ND","ND"],
    [66099,"2017-11-19T22:00:00","ND","ND","ND","ND","ND","ND","ND","ND","ND","ND","ND","ND"],
    [66100,"2017-11-19T23:00:00","ND","ND","ND","ND","ND","ND","ND","ND","ND","ND","ND","ND"],
    [66101,"2017-11-20T00:00:00","ND","ND","ND","ND","ND","ND","ND","ND","ND","ND","ND","ND"],
    [66102,"2017-11-20T01:00:00","ND","ND","ND","ND","ND","ND","ND","ND","ND","ND","ND","ND"],
    [66103,"2017-11-20T02:00:00","ND","ND","ND","ND","ND","ND","ND","ND","ND","ND","ND","ND"],
    [66104,"2017-11-20T03:00:00","ND","ND","ND","ND","ND","ND","ND","ND","ND","ND","ND","ND"],
    [66105,"2017-11-20T04:00:00","ND","ND","ND","ND","ND","ND","ND","ND","ND","ND","ND","ND"],
    [66106,"2017-11-20T05:00:00","ND","ND","ND","ND","ND","ND","ND","ND","ND","ND","ND","ND"],
    [66107,"2017-11-20T06:00:00","ND","ND","ND","ND","ND","ND","ND","ND","ND","ND","ND","ND"],
    [66108,"2017-11-20T07:00:00","ND","ND","ND","ND","ND","ND","ND","ND","ND","ND","ND","ND"],
    [66109,"2017-11-20T08:00:00","ND","ND","ND","ND","ND","ND","ND","ND","ND","ND","ND","ND"],
    [66110,"2017-11-20T09:00:00","ND","ND","ND","ND","ND","ND","ND","ND","ND","ND","ND","ND"],
    [66111,"2017-11-20T10:00:00","ND","ND","ND","ND","ND","ND","ND","ND","ND","ND","ND","ND"],
    [66112,"2017-11-20T11:00:00","ND","ND","ND","ND","ND","ND","ND","ND","ND","ND","ND","ND"],
    [66113,"2017-11-20T12:00:00","ND","ND","ND","ND","ND","ND","ND","ND","ND","ND","ND","ND"],
    [66114,"2017-11-20T13:00:00","ND","ND","ND","ND","ND","ND","ND","ND","ND","ND","ND","ND"],
    [66115,"2017-11-20T14:00:00","ND","ND","ND","ND","ND","ND","ND","ND","ND","ND","ND","ND"],
    [66116,"2017-11-20T15:00:00","ND","ND","ND","ND","ND","ND","ND","ND","ND","ND","ND","ND"],
    [66117,"2017-11-20T16:00:00","ND","ND","ND","ND","ND","ND","ND","ND","ND","ND","ND","ND"],
    [66118,"2017-11-20T17:00:00","ND","ND","ND","ND","ND","ND","ND","ND","ND","ND","ND","ND"],
    [66119,"2017-11-20T18:00:00","ND","ND","ND","ND","ND","ND","ND","ND","ND","ND","ND","ND"],
    [66120,"2017-11-20T19:00:00","ND","ND","ND","ND","ND","ND","ND","ND","ND","ND","ND","ND"],
    [66121,"2017-11-20T20:00:00","ND","ND","ND","ND","ND","ND","ND","ND","ND","ND","ND","ND"],
    [66122,"2017-11-20T21:00:00","ND","ND","ND","ND","ND","ND","ND","ND","ND","ND","ND","ND"],
    [66123,"2017-11-20T22:00:00","ND","ND","ND","ND","ND","ND","ND","ND","ND","ND","ND","ND"],
    [66124,"2017-11-20T23:00:00","ND","ND","ND","ND","ND","ND","ND","ND","ND","ND","ND","ND"],
    [66125,"2017-11-21T00:00:00","ND","ND","ND","ND","ND","ND","ND","ND","ND","ND","ND","ND"],
    [66126,"2017-11-21T01:00:00","ND","ND","ND","ND","ND","ND","ND","ND","ND","ND","ND","ND"],
    [66127,"2017-11-21T02:00:00","ND","ND","ND","ND","ND","ND","ND","ND","ND","ND","ND","ND"],
    [66128,"2017-11-21T03:00:00","ND","ND","ND","ND","ND","ND","ND","ND","ND","ND","ND","ND"],
    [66129,"2017-11-21T04:00:00","ND","ND","ND","ND","ND","ND","ND","ND","ND","ND","ND","ND"],
    [66130,"2017-11-21T05:00:00","ND","ND","ND","ND","ND","ND","ND","ND","ND","ND","ND","ND"],
    [66131,"2017-11-21T06:00:00","ND","ND","ND","ND","ND","ND","ND","ND","ND","ND","ND","ND"],
    [66132,"2017-11-21T07:00:00","ND","ND","ND","ND","ND","ND","ND","ND","ND","ND","ND","ND"],
    [66133,"2017-11-21T08:00:00","ND","ND","ND","ND","ND","ND","ND","ND","ND","ND","ND","ND"],
    [66134,"2017-11-21T09:00:00","ND","ND","ND","ND","ND","ND","ND","ND","ND","ND","ND","ND"],
    [66135,"2017-11-21T10:00:00","ND","ND","ND","ND","ND","ND","ND","ND","ND","ND","ND","ND"],
    [66136,"2017-11-21T11:00:00","ND","ND","ND","ND","ND","ND","ND","ND","ND","ND","ND","ND"],
    [66137,"2017-11-21T12:00:00","ND","ND","ND","ND","ND","ND","ND","ND","ND","ND","ND","ND"],
    [66138,"2017-11-21T13:00:00","ND","ND","ND","ND","ND","ND","ND","ND","ND","ND","ND","ND"],
    [66139,"2017-11-21T14:00:00","ND","ND","ND","ND","ND","ND","ND","ND","ND","ND","ND","ND"],
    [66140,"2017-11-21T15:00:00","ND","ND","ND","ND","ND","ND","ND","ND","ND","ND","ND","ND"],
    [66141,"2017-11-21T16:00:00","ND","ND","ND","ND","ND","ND","ND","ND","ND","ND","ND","ND"],
    [66142,"2017-11-21T17:00:00","ND","ND","ND","ND","ND","ND","ND","ND","ND","ND","ND","ND"],
    [66143,"2017-11-21T18:00:00","ND","ND","ND","ND","ND","ND","ND","ND","ND","ND","ND","ND"],
    [66144,"2017-11-21T19:00:00","ND","ND","ND","ND","ND","ND","ND","ND","ND","ND","ND","ND"],
    [66145,"2017-11-21T20:00:00","ND","ND","ND","ND","ND","ND","ND","ND","ND","ND","ND","ND"],
    [66146,"2017-11-21T21:00:00","ND","ND","ND","ND","ND","ND","ND","ND","ND","ND","ND","ND"],
    [66147,"2017-11-21T22:00:00","ND","ND","ND","ND","ND","ND","ND","ND","ND","ND","ND","ND"],
    [66148,"2017-11-21T23:00:00","ND","ND","ND","ND","ND","ND","ND","ND","ND","ND","ND","ND"],
    [66149,"2017-11-22T00:00:00","ND","ND","ND","ND","ND","ND","ND","ND","ND","ND","ND","ND"],
    [66150,"2017-11-22T01:00:00","ND","ND","ND","ND","ND","ND","ND","ND","ND","ND","ND","ND"],
    [66151,"2017-11-22T02:00:00","ND","ND","ND","ND","ND","ND","ND","ND","ND","ND","ND","ND"],
    [66152,"2017-11-22T03:00:00","ND","ND","ND","ND","ND","ND","ND","ND","ND","ND","ND","ND"],
    [66153,"2017-11-22T04:00:00","ND","ND","ND","ND","ND","ND","ND","ND","ND","ND","ND","ND"],
    [66154,"2017-11-22T05:00:00","ND","ND","ND","ND","ND","ND","ND","ND","ND","ND","ND","ND"],
    [66155,"2017-11-22T06:00:00","ND","ND","ND","ND","ND","ND","ND","ND","ND","ND","ND","ND"],
    [66156,"2017-11-22T07:00:00","ND","ND","ND","ND","ND","ND","ND","ND","ND","ND","ND","ND"],
    [66157,"2017-11-22T08:00:00","ND","ND","ND","ND","ND","ND","ND","ND","ND","ND","ND","ND"],
    [66158,"2017-11-22T09:00:00","ND","ND","ND","ND","ND","ND","ND","ND","ND","ND","ND","ND"],
    [66159,"2017-11-22T10:00:00","ND","ND","ND","ND","ND","ND","ND","ND","ND","ND","ND","ND"],
    [66160,"2017-11-22T11:00:00","ND","ND","ND","ND","ND","ND","ND","ND","ND","ND","ND","ND"],
    [66161,"2017-11-22T12:00:00","ND","ND","ND","ND","ND","ND","ND","ND","ND","ND","ND","ND"],
    [66162,"2017-11-22T13:00:00","ND","ND","ND","ND","ND","ND","ND","ND","ND","ND","ND","ND"],
    [66163,"2017-11-22T14:00:00","ND","ND","ND","ND","ND","ND","ND","ND","ND","ND","ND","ND"],
    [66164,"2017-11-22T15:00:00","ND","ND","ND","ND","ND","ND","ND","ND","ND","ND","ND","ND"],
    [66165,"2017-11-22T16:00:00","ND","ND","ND","ND","ND","ND","ND","ND","ND","ND","ND","ND"],
    [66166,"2017-11-22T17:00:00","ND","ND","ND","ND","ND","ND","ND","ND","ND","ND","ND","ND"],
    [66167,"2017-11-22T18:00:00","ND","ND","ND","ND","ND","ND","ND","ND","ND","ND","ND","ND"],
    [66168,"2017-11-22T19:00:00","ND","ND","ND","ND","ND","ND","ND","ND","ND","ND","ND","ND"],
    [66169,"2017-11-22T20:00:00","ND","ND","ND","ND","ND","ND","ND","ND","ND","ND","ND","ND"],
    [66170,"2017-11-22T21:00:00","ND","ND","ND","ND","ND","ND","ND","ND","ND","ND","ND","ND"],
    [66171,"2017-11-22T22:00:00","ND","ND","ND","ND","ND","ND","ND","ND","ND","ND","ND","ND"],
    [66172,"2017-11-22T23:00:00","ND","ND","ND","ND","ND","ND","ND","ND","ND","ND","ND","ND"],
    [66173,"2017-11-23T00:00:00","ND","ND","ND","ND","ND","ND","ND","ND","ND","ND","ND","ND"],
    [66174,"2017-11-23T01:00:00","ND","ND","ND","ND","ND","ND","ND","ND","ND","ND","ND","ND"],
    [66175,"2017-11-23T02:00:00","ND","ND","ND","ND","ND","ND","ND","ND","ND","ND","ND","ND"],
    [66176,"2017-11-23T03:00:00","ND","ND","ND","ND","ND","ND","ND","ND","ND","ND","ND","ND"],
    [66177,"2017-11-23T04:00:00","ND","ND","ND","ND","ND","ND","ND","ND","ND","ND","ND","ND"],
    [66178,"2017-11-23T05:00:00","ND","ND","ND","ND","ND","ND","ND","ND","ND","ND","ND","ND"],
    [66179,"2017-11-23T06:00:00","ND","ND","ND","ND","ND","ND","ND","ND","ND","ND","ND","ND"],
    [66180,"2017-11-23T07:00:00","ND","ND","ND","ND","ND","ND","ND","ND","ND","ND","ND","ND"],
    [66181,"2017-11-23T08:00:00","ND","ND","ND","ND","ND","ND","ND","ND","ND","ND","ND","ND"],
    [66182,"2017-11-23T09:00:00","ND","ND","ND","ND","ND","ND","ND","ND","ND","ND","ND","ND"],
    [66183,"2017-11-23T10:00:00","ND","ND","ND","ND","ND","ND","ND","ND","ND","ND","ND","ND"],
    [66184,"2017-11-23T11:00:00","ND","ND","ND","ND","ND","ND","ND","ND","ND","ND","ND","ND"],
    [66185,"2017-11-23T12:00:00","ND","ND","ND","ND","ND","ND","ND","ND","ND","ND","ND","ND"],
    [66186,"2017-11-23T13:00:00","ND","ND","ND","ND","ND","ND","ND","ND","ND","ND","ND","ND"],
    [66187,"2017-11-23T14:00:00","ND","ND","ND","ND","ND","ND","ND","ND","ND","ND","ND","ND"],
    [66188,"2017-11-23T15:00:00","ND","ND","ND","ND","ND","ND","ND","ND","ND","ND","ND","ND"],
    [66189,"2017-11-23T16:00:00","ND","ND","ND","ND","ND","ND","ND","ND","ND","ND","ND","ND"],
    [66190,"2017-11-23T17:00:00","ND","ND","ND","ND","8.1","0.6","ND","ND","ND","ND","461","0"],
    [66191,"2017-11-23T18:00:00","ND","ND","ND","ND","8.3","0.5","ND","ND","ND","ND","68","0"],
    [66192,"2017-11-23T19:00:00","ND","ND","ND","ND","7.8","0.6","ND","ND","ND","ND","0","0"],
    [66193,"2017-11-23T20:00:00","ND","ND","ND","ND","8.9","0.7","ND","ND","ND","ND","0","0"],
    [66194,"2017-11-23T21:00:00","74.5","ND","ND","ND","8.3","0.2","ND","ND","ND","ND","0","0"],
    [66195,"2017-11-23T22:00:00","24","ND","ND","ND","11.4","0.4","ND","ND","ND","ND","0","0"],
    [66196,"2017-11-23T23:00:00","9.3","ND","ND","ND","11.7","0.3","ND","ND","ND","ND","0","0"],
    [66197,"2017-11-24T00:00:00","8.5","ND","ND","ND","3.8","0.2","ND","ND","ND","ND","0","0"],
    [66198,"2017-11-24T01:00:00","5.6","ND","ND","ND","3.0","0.2","ND","ND","ND","ND","0","0"],
    [66199,"2017-11-24T02:00:00","1.3","ND","ND","ND","2.0","0.4","ND","ND","ND","ND","0","0"],
    [66200,"2017-11-24T03:00:00","6.5","ND","ND","ND","1.8","0.3","ND","ND","ND","ND","0","0"],
    [66201,"2017-11-24T04:00:00","14.9","ND","ND","ND","1.2","1.2","ND","ND","ND","ND","0","0"],
    [66202,"2017-11-24T05:00:00","30.1","ND","ND","ND","1.0","0.6","ND","ND","ND","ND","0","0"],
    [66203,"2017-11-24T06:00:00","32.8","ND","ND","ND","0.8","0.7","ND","ND","ND","ND","0","0"],
    [66204,"2017-11-24T07:00:00","34.6","ND","ND","ND","0.7","1.1","ND","ND","ND","ND","81","0"],
    [66205,"2017-11-24T08:00:00","33.2","ND","ND","ND","0.9","1.1","ND","ND","ND","ND","160","0"],
    [66206,"2017-11-24T09:00:00","52.5","ND","ND","ND","2.5","1.3","ND","ND","ND","ND","430","0"],
    [66207,"2017-11-24T10:00:00","55.4","ND","ND","ND","11.7","1.1","ND","ND","ND","ND","664","0"],
    [66208,"2017-11-24T11:00:00","60.6","ND","ND","ND","44.6","0.9","ND","ND","ND","ND","664","0"],
    [66209,"2017-11-24T12:00:00","65.8","ND","ND","ND","75.8","0.8","ND","ND","ND","ND","664","0"],
    [66210,"2017-11-24T13:00:00","48","ND","ND","ND","56.9","0.6","ND","ND","ND","ND","655","0"],
    [66211,"2017-11-24T14:00:00","39.7","ND","ND","ND","36.3","0.6","ND","ND","ND","ND","562","0"],
    [66212,"2017-11-24T15:00:00","18.2","ND","ND","ND","7.0","0.2","ND","ND","ND","ND","266","3.56"],
    [66213,"2017-11-24T16:00:00","11.1","ND","ND","ND","4.7","0.3","ND","ND","ND","ND","610","0"],
    [66214,"2017-11-24T17:00:00","61","ND","ND","ND","7.4","0.3","ND","ND","ND","ND","504","0"],
    [66215,"2017-11-24T18:00:00","12.1","ND","ND","ND","3.0","0.3","ND","ND","ND","ND","84","0"],
    [66216,"2017-11-24T19:00:00","ND","ND","ND","ND","0.5","0.3","ND","ND","ND","ND","0","0"],
    [66217,"2017-11-24T20:00:00","48.1","ND","ND","ND","0.6","0.3","ND","ND","ND","ND","0","0"],
    [66218,"2017-11-24T21:00:00","88.5","ND","ND","ND","0.5","1.0","ND","ND","ND","ND","0","0"],
    [66219,"2017-11-24T22:00:00","67.6","ND","ND","ND","0.3","0.9","ND","ND","ND","ND","0","0"],
    [66220,"2017-11-24T23:00:00","35.2","ND","ND","ND","0.4","2.4","ND","ND","ND","ND","0","0"],
    [66221,"2017-11-25T00:00:00","41.3","ND","ND","ND","0.4","2.9","ND","ND","ND","ND","0","0"],
    [66222,"2017-11-25T01:00:00","46.4","ND","ND","ND","0.4","1.6","ND","ND","ND","ND","0","0"],
    [66223,"2017-11-25T02:00:00","45.5","ND","ND","ND","0.4","1.2","ND","ND","ND","ND","0","0"],
    [66224,"2017-11-25T03:00:00","54.9","ND","ND","ND","0.3","1.6","ND","ND","ND","ND","0","0"],
    [66225,"2017-11-25T04:00:00","32","ND","ND","ND","0.2","1.4","ND","ND","ND","ND","0","0"],
    [66226,"2017-11-25T05:00:00","33","ND","ND","ND","0.3","3.6","ND","ND","ND","ND","0","0"],
    [66227,"2017-11-25T06:00:00","49.5","ND","ND","ND","0.3","6.4","ND","ND","ND","ND","0","0"],
    [66228,"2017-11-25T07:00:00","55.5","ND","ND","ND","0.5","8.2","ND","ND","ND","ND","54","0"],
    [66229,"2017-11-25T08:00:00","86.1","ND","ND","ND","0.4","4.8","ND","ND","ND","ND","216","0"],
    [66230,"2017-11-25T09:00:00","61.4","ND","ND","ND","0.9","1.3","ND","ND","ND","ND","504","0"],
    [66231,"2017-11-25T10:00:00","56.6","ND","ND","ND","9.9","1.1","ND","ND","ND","ND","663","0"],
    [66232,"2017-11-25T11:00:00","36.8","ND","ND","ND","22.4","0.6","ND","ND","ND","ND","622","0"],
    [66233,"2017-11-25T12:00:00","45.6","ND","ND","ND","32.1","0.7","ND","ND","ND","ND","605","0"],
    [66234,"2017-11-25T13:00:00","25.6","ND","ND","ND","51.6","0.5","ND","ND","ND","ND","648","0"],
    [66235,"2017-11-25T14:00:00","34.8","ND","ND","ND","84.3","0.7","ND","ND","ND","ND","664","0"],
    [66236,"2017-11-25T15:00:00","31.9","ND","ND","ND","84.7","0.4","ND","ND","ND","ND","610","0"],
    [66237,"2017-11-25T16:00:00","22.6","ND","ND","ND","61.5","0.5","ND","ND","ND","ND","288","0"],
    [66238,"2017-11-25T17:00:00","20","ND","ND","ND","26.4","0.7","ND","ND","ND","ND","413","0"],
    [66239,"2017-11-25T18:00:00","9.6","ND","ND","ND","8.8","0.4","ND","ND","ND","ND","98","0"],
    [66240,"2017-11-25T19:00:00","0.2","ND","ND","ND","1.2","0.3","ND","ND","ND","ND","0","0"],
    [66241,"2017-11-25T20:00:00","31.2","ND","ND","ND","0.6","0.6","ND","ND","ND","ND","0","0"],
    [66242,"2017-11-25T21:00:00","51.5","ND","ND","ND","0.5","1.8","ND","ND","ND","ND","0","0"],
    [66243,"2017-11-25T22:00:00","42.3","ND","ND","ND","0.5","2.3","ND","ND","ND","ND","0","0"],
    [66244,"2017-11-25T23:00:00","35.2","ND","ND","ND","0.4","1.0","ND","ND","ND","ND","0","0"],
    [66245,"2017-11-26T00:00:00","26.7","ND","ND","ND","0.3","2.4","ND","ND","ND","ND","0","0"],
    [66246,"2017-11-26T01:00:00","27.7","ND","ND","ND","0.2","1.4","ND","ND","ND","ND","0","0"],
    [66247,"2017-11-26T02:00:00","36.3","ND","ND","ND","0.2","1.8","ND","ND","ND","ND","0","7.87"],
    [66248,"2017-11-26T03:00:00","30.8","ND","ND","ND","0.2","0.6","ND","ND","ND","ND","0","2.79"],
    [66249,"2017-11-26T04:00:00","25.9","ND","ND","ND","0.4","0.7","ND","ND","ND","ND","0","0.51"],
    [66250,"2017-11-26T05:00:00","27.6","ND","ND","ND","0.2","1.2","ND","ND","ND","ND","0","0"],
    [66251,"2017-11-26T06:00:00","32.9","ND","ND","ND","0.2","0.8","ND","ND","ND","ND","0","0"],
    [66252,"2017-11-26T07:00:00","31.3","ND","ND","ND","0.2","0.7","ND","ND","ND","ND","122","0"],
    [66253,"2017-11-26T08:00:00","28.5","ND","ND","ND","0.4","2.6","ND","ND","ND","ND","343","0"],
    [66254,"2017-11-26T09:00:00","46.9","ND","ND","ND","2.4","2.2","ND","ND","ND","ND","634","0"],
    [66255,"2017-11-26T10:00:00","42","ND","ND","ND","5.7","1.4","ND","ND","ND","ND","663","0"],
    [66256,"2017-11-26T11:00:00","25.3","ND","ND","ND","20.6","0.5","ND","ND","ND","ND","664","0"],
    [66257,"2017-11-26T12:00:00","20.1","ND","ND","ND","46.5","0.4","ND","ND","ND","ND","665","0"],
    [66258,"2017-11-26T13:00:00","14.3","ND","ND","ND","74.3","0.3","ND","ND","ND","ND","665","0"],
    [66259,"2017-11-26T14:00:00","20.7","ND","ND","ND","72.0","0.6","ND","ND","ND","ND","640","0"],
    [66260,"2017-11-26T15:00:00","25","ND","ND","ND","45.0","0.3","ND","ND","ND","ND","663","0"],
    [66261,"2017-11-26T16:00:00","14.4","ND","ND","ND","24.6","0.2","ND","ND","ND","ND","539","0"],
    [66262,"2017-11-26T17:00:00","1.9","ND","ND","ND","17.4","0.3","ND","ND","ND","ND","606","0"],
    [66263,"2017-11-26T18:00:00","6.6","ND","ND","ND","12.7","0.2","ND","ND","ND","ND","126","0"],
    [66264,"2017-11-26T19:00:00","ND","ND","ND","ND","5.2","0.5","ND","ND","ND","ND","0","0"],
    [66265,"2017-11-26T20:00:00","ND","ND","ND","ND","9.0","0.4","ND","ND","ND","ND","0","0"],
    [66266,"2017-11-26T21:00:00","18.9","ND","ND","ND","2.0","0.8","ND","ND","ND","ND","0","0"],
    [66267,"2017-11-26T22:00:00","43.3","ND","ND","ND","0.5","0.7","ND","ND","ND","ND","0","0"],
    [66268,"2017-11-26T23:00:00","48","ND","ND","ND","0.5","0.6","ND","ND","ND","ND","0","0"],
    [66269,"2017-11-27T00:00:00","30.7","ND","ND","ND","0.3","0.6","ND","ND","ND","ND","0","0"],
    [66270,"2017-11-27T01:00:00","25.4","ND","ND","ND","0.4","1.8","ND","ND","ND","ND","0","0"],
    [66271,"2017-11-27T02:00:00","31.3","ND","ND","ND","0.3","4.4","ND","ND","ND","ND","0","0"],
    [66272,"2017-11-27T03:00:00","34.2","ND","ND","ND","0.5","3.0","ND","ND","ND","ND","0","0"],
    [66273,"2017-11-27T04:00:00","31.5","ND","ND","ND","0.4","2.6","ND","ND","ND","ND","0","0"],
    [66274,"2017-11-27T05:00:00","34.6","ND","ND","ND","0.3","1.9","ND","ND","ND","ND","0","0"],
    [66275,"2017-11-27T06:00:00","33.2","ND","ND","ND","0.3","1.9","ND","ND","ND","ND","0","0"],
    [66276,"2017-11-27T07:00:00","35.1","ND","ND","ND","0.3","0.9","ND","ND","ND","ND","80","0"],
    [66277,"2017-11-27T08:00:00","46.3","ND","ND","ND","0.7","1.5","ND","ND","ND","ND","454","0"],
    [66278,"2017-11-27T09:00:00","50.9","ND","ND","ND","7.0","1.3","ND","ND","ND","ND","663","0"],
    [66279,"2017-11-27T10:00:00","37.7","ND","ND","ND","13.9","1.0","ND","ND","ND","ND","664","0"],
    [66280,"2017-11-27T11:00:00","34.3","ND","ND","ND","20.2","0.6","ND","ND","ND","ND","664","0"],
    [66281,"2017-11-27T12:00:00","26.1","ND","ND","ND","28.6","0.5","ND","ND","ND","ND","664","0"],
    [66282,"2017-11-27T13:00:00","29.9","ND","ND","ND","32.8","0.9","ND","ND","ND","ND","664","0"],
    [66283,"2017-11-27T14:00:00","24","ND","ND","ND","38.7","0.5","ND","ND","ND","ND","661","0"],
    [66284,"2017-11-27T15:00:00","24","ND","ND","ND","18.5","0.3","ND","ND","ND","ND","664","0"],
    [66285,"2017-11-27T16:00:00","18.3","ND","ND","ND","17.0","0.2","ND","ND","ND","ND","592","0"],
    [66286,"2017-11-27T17:00:00","7.2","ND","ND","ND","10.7","0.2","ND","ND","ND","ND","208","0"],
    [66287,"2017-11-27T18:00:00","2.4","ND","ND","ND","3.6","0.4","ND","ND","ND","ND","42","0"],
    [66288,"2017-11-27T19:00:00","14","ND","ND","ND","0.8","0.4","ND","ND","ND","ND","0","0"],
    [66289,"2017-11-27T20:00:00","38.9","ND","ND","ND","0.4","0.3","ND","ND","ND","ND","0","0"],
    [66290,"2017-11-27T21:00:00","37.9","ND","ND","ND","0.4","0.6","ND","ND","ND","ND","0","0"],
    [66291,"2017-11-27T22:00:00","49.2","ND","ND","ND","0.4","1.8","ND","ND","ND","ND","0","0"],
    [66292,"2017-11-27T23:00:00","31.1","ND","ND","ND","0.3","2.5","ND","ND","ND","ND","0","0"],
    [66293,"2017-11-28T00:00:00","18.3","ND","ND","ND","0.2","1.4","ND","ND","ND","ND","0","0"],
    [66294,"2017-11-28T01:00:00","16.7","ND","ND","ND","0.2","1.2","ND","ND","ND","ND","0","0"],
    [66295,"2017-11-28T02:00:00","26.1","ND","ND","ND","0.3","1.5","ND","ND","ND","ND","0","0"],
    [66296,"2017-11-28T03:00:00","31.8","ND","ND","ND","0.3","1.9","ND","ND","ND","ND","0","0"],
    [66297,"2017-11-28T04:00:00","32","ND","ND","ND","0.3","1.9","ND","ND","ND","ND","0","0"],
    [66298,"2017-11-28T05:00:00","40.4","ND","ND","ND","0.2","3.1","ND","ND","ND","ND","0","0"],
    [66299,"2017-11-28T06:00:00","30.6","ND","ND","ND","0.2","1.0","ND","ND","ND","ND","0","0"],
    [66300,"2017-11-28T07:00:00","38.3","ND","ND","ND","0.3","1.1","ND","ND","ND","ND","65","0"],
    [66301,"2017-11-28T08:00:00","41.2","ND","ND","ND","1.4","0.6","ND","ND","ND","ND","570","0"],
    [66302,"2017-11-28T09:00:00","42.7","ND","ND","ND","15.0","1.1","ND","ND","ND","ND","651","0"],
    [66303,"2017-11-28T10:00:00","36.2","ND","ND","ND","23.0","0.5","ND","ND","ND","ND","664","0"],
    [66304,"2017-11-28T11:00:00","31.1","ND","ND","ND","35.8","0.5","ND","ND","ND","ND","664","0"],
    [66305,"2017-11-28T12:00:00","29.3","ND","ND","ND","54.8","0.3","ND","ND","ND","ND","663","0"],
    [66306,"2017-11-28T13:00:00","28.6","ND","ND","ND","66.3","0.3","ND","ND","ND","ND","665","0"],
    [66307,"2017-11-28T14:00:00","28.9","ND","ND","ND","44.1","0.4","ND","ND","ND","ND","597","0"],
    [66308,"2017-11-28T15:00:00","21.4","ND","ND","ND","26.1","0.4","ND","ND","ND","ND","542","0"],
    [66309,"2017-11-28T16:00:00","11.2","ND","ND","ND","23.8","0.2","ND","ND","ND","ND","665","0"],
    [66310,"2017-11-28T17:00:00","14.6","ND","ND","ND","22.4","0.2","ND","ND","ND","ND","603","0"],
    [66311,"2017-11-28T18:00:00","9.2","ND","ND","ND","15.7","0.2","ND","ND","ND","ND","119","0"],
    [66312,"2017-11-28T19:00:00","3.7","ND","ND","ND","3.5","0.4","ND","ND","ND","ND","0","0"],
    [66313,"2017-11-28T20:00:00","33.8","ND","ND","ND","0.9","0.5","ND","ND","ND","ND","0","0"],
    [66314,"2017-11-28T21:00:00","50.8","ND","ND","ND","0.8","0.8","ND","ND","ND","ND","0","0"],
    [66315,"2017-11-28T22:00:00","36.6","ND","ND","ND","0.5","2.8","ND","ND","ND","ND","0","0"],
    [66316,"2017-11-28T23:00:00","35","ND","ND","ND","0.6","1.1","ND","ND","ND","ND","0","0"],
    [66317,"2017-11-29T00:00:00","28.3","ND","ND","ND","0.6","1.4","ND","ND","ND","ND","0","0"],
    [66318,"2017-11-29T01:00:00","23.3","ND","ND","ND","0.9","0.7","ND","ND","ND","ND","0","0"],
    [66319,"2017-11-29T02:00:00","7.7","ND","ND","ND","0.3","1.6","ND","ND","ND","ND","0","0"],
    [66320,"2017-11-29T03:00:00","27.3","ND","ND","ND","0.3","2.3","ND","ND","ND","ND","0","0"],
    [66321,"2017-11-29T04:00:00","35.8","ND","ND","ND","0.2","1.5","ND","ND","ND","ND","0","0"],
    [66322,"2017-11-29T05:00:00","27.9","ND","ND","ND","0.4","1.4","ND","ND","ND","ND","0","0"],
    [66323,"2017-11-29T06:00:00","30.7","ND","ND","ND","0.3","1.6","ND","ND","ND","ND","0","0"],
    [66324,"2017-11-29T07:00:00","49.2","ND","ND","ND","0.5","1.4","ND","ND","ND","ND","70","0"],
    [66325,"2017-11-29T08:00:00","73.9","ND","ND","ND","2.5","2.1","ND","ND","ND","ND","479","0"],
    [66326,"2017-11-29T09:00:00","72.6","ND","ND","ND","10.8","2.1","ND","ND","ND","ND","664","0"],
    [66327,"2017-11-29T10:00:00","59.1","ND","ND","ND","26.8","1.0","ND","ND","ND","ND","621","0"],
    [66328,"2017-11-29T11:00:00","44.2","ND","ND","ND","53.0","1.1","ND","ND","ND","ND","664","0"],
    [66329,"2017-11-29T12:00:00","55.1","ND","ND","ND","77.2","0.8","ND","ND","ND","ND","665","0"],
    [66330,"2017-11-29T13:00:00","55.4","ND","ND","ND","97.0","0.7","ND","ND","ND","ND","664","0"],
    [66331,"2017-11-29T14:00:00","29.5","ND","ND","ND","43.4","0.3","ND","ND","ND","ND","646","0"],
    [66332,"2017-11-29T15:00:00","11.6","ND","ND","ND","22.4","0.2","ND","ND","ND","ND","664","0"],
    [66333,"2017-11-29T16:00:00","7.6","ND","ND","ND","18.5","0.3","ND","ND","ND","ND","649","0"],
    [66334,"2017-11-29T17:00:00","0.8","ND","ND","ND","23.0","0.1","ND","ND","ND","ND","553","0"],
    [66335,"2017-11-29T18:00:00","ND","ND","ND","ND","16.0","0.1","ND","ND","ND","ND","113","0"],
    [66336,"2017-11-29T19:00:00","5.4","ND","ND","ND","4.3","0.2","ND","ND","ND","ND","0","0"],
    [66337,"2017-11-29T20:00:00","32.2","ND","ND","ND","3.8","0.2","ND","ND","ND","ND","0","0"],
    [66338,"2017-11-29T21:00:00","39.9","ND","ND","ND","1.5","0.5","ND","ND","ND","ND","0","0"],
    [66339,"2017-11-29T22:00:00","46.7","ND","ND","ND","1.6","0.4","ND","ND","ND","ND","0","0"],
    [66340,"2017-11-29T23:00:00","34.9","ND","ND","ND","1.1","1.1","ND","ND","ND","ND","0","0"],
    [66341,"2017-11-30T00:00:00","32.7","ND","ND","ND","1.1","1.3","ND","ND","ND","ND","0","0"],
    [66342,"2017-11-30T01:00:00","49","ND","ND","ND","1.3","1.7","ND","ND","ND","ND","0","0"],
    [66343,"2017-11-30T02:00:00","41.2","ND","ND","ND","0.4","0.9","ND","ND","ND","ND","0","0"],
    [66344,"2017-11-30T03:00:00","31.5","ND","ND","ND","0.4","1.0","ND","ND","ND","ND","0","0"],
    [66345,"2017-11-30T04:00:00","23.3","ND","ND","ND","2.0","1.2","ND","ND","ND","ND","0","0"],
    [66346,"2017-11-30T05:00:00","26.9","ND","ND","ND","1.2","1.1","ND","ND","ND","ND","0","0"],
    [66347,"2017-11-30T06:00:00","30.9","ND","ND","ND","0.2","1.1","ND","ND","ND","ND","0","0"],
    [66348,"2017-11-30T07:00:00","28.9","ND","ND","ND","0.3","1.1","ND","ND","ND","ND","76","0"],
    [66349,"2017-11-30T08:00:00","50.1","ND","ND","ND","2.2","1.0","ND","ND","ND","ND","447","0"],
    [66350,"2017-11-30T09:00:00","45.5","ND","ND","ND","8.5","1.0","ND","ND","ND","ND","654","0"],
    [66351,"2017-11-30T10:00:00","38.3","ND","ND","ND","17.7","0.9","ND","ND","ND","ND","664","0"],
    [66352,"2017-11-30T11:00:00","34.3","ND","ND","ND","28.2","0.4","ND","ND","ND","ND","665","0"],
    [66353,"2017-11-30T12:00:00","24.8","ND","ND","ND","50.2","0.4","ND","ND","ND","ND","656","0"],
    [66354,"2017-11-30T13:00:00","23.1","ND","ND","ND","59.1","0.5","ND","ND","ND","ND","652","0"],
    [66355,"2017-11-30T14:00:00","30.6","ND","ND","ND","32.4","0.3","ND","ND","ND","ND","638","0"],
    [66356,"2017-11-30T15:00:00","12.5","ND","ND","ND","25.1","0.3","ND","ND","ND","ND","664","0"],
    [66357,"2017-11-30T16:00:00","14.4","ND","ND","ND","23.9","0.2","ND","ND","ND","ND","664","0"],
    [66358,"2017-11-30T17:00:00","5.3","ND","ND","ND","21.3","0.3","ND","ND","ND","ND","589","0"],
    [66359,"2017-11-30T18:00:00","ND","ND","ND","ND","13.0","0.2","ND","ND","ND","ND","66","0"],
    [66360,"2017-11-30T19:00:00","ND","ND","ND","ND","7.8","0.1","ND","ND","ND","ND","0","0"],
    [66361,"2017-11-30T20:00:00","10","ND","ND","ND","7.7","0.3","ND","ND","ND","ND","0","0"],
    [66362,"2017-11-30T21:00:00","36","ND","ND","ND","5.4","1.5","ND","ND","ND","ND","0","0"],
    [66363,"2017-11-30T22:00:00","55.4","ND","ND","ND","1.6","1.0","ND","ND","ND","ND","0","0"],
    [66364,"2017-11-30T23:00:00","53","ND","ND","ND","1.1","2.1","ND","ND","ND","ND","0","0"],
    [66365,"2017-12-01T00:00:00","48.1","ND","ND","ND","1.0","2.5","ND","ND","ND","ND","0","0"],
    [66366,"2017-12-01T01:00:00","45.2","ND","ND","ND","1.0","0.9","ND","ND","ND","ND","0","0"],
    [66367,"2017-12-01T02:00:00","35.1","ND","ND","ND","3.2","1.2","ND","ND","ND","ND","0","0"],
    [66368,"2017-12-01T03:00:00","20.4","ND","ND","ND","4.5","2.2","ND","ND","ND","ND","0","0"],
    [66369,"2017-12-01T04:00:00","23.2","ND","ND","ND","3.1","0.9","ND","ND","ND","ND","0","0"],
    [66370,"2017-12-01T05:00:00","16.6","ND","ND","ND","1.1","1.3","ND","ND","ND","ND","0","0"],
    [66371,"2017-12-01T06:00:00","17.6","ND","ND","ND","0.7","1.3","ND","ND","ND","ND","0","0"],
    [66372,"2017-12-01T07:00:00","41.5","ND","ND","ND","0.5","1.5","ND","ND","ND","ND","89","0"],
    [66373,"2017-12-01T08:00:00","45.1","ND","ND","ND","1.2","1.2","ND","ND","ND","ND","416","0"],
    [66374,"2017-12-01T09:00:00","38.4","ND","ND","ND","4.1","0.7","ND","ND","ND","ND","459","0"],
    [66375,"2017-12-01T10:00:00","39","ND","ND","ND","12.5","0.8","ND","ND","ND","ND","577","0"],
    [66376,"2017-12-01T11:00:00","50","ND","ND","ND","32.5","0.5","ND","ND","ND","ND","664","0"],
    [66377,"2017-12-01T12:00:00","37.2","ND","ND","ND","73.4","0.3","ND","ND","ND","ND","661","0"],
    [66378,"2017-12-01T13:00:00","36.2","ND","ND","ND","44.8","0.2","ND","ND","ND","ND","393","0"],
    [66379,"2017-12-01T14:00:00","19.8","ND","ND","ND","11.3","0.1","ND","ND","ND","ND","622","0"],
    [66380,"2017-12-01T15:00:00","13.4","ND","ND","ND","12.9","0.3","ND","ND","ND","ND","663","0"],
    [66381,"2017-12-01T16:00:00","10.9","ND","ND","ND","9.2","0.3","ND","ND","ND","ND","616","0"],
    [66382,"2017-12-01T17:00:00","6.1","ND","ND","ND","7.3","0.3","ND","ND","ND","ND","224","0"],
    [66383,"2017-12-01T18:00:00","ND","ND","ND","ND","4.8","0.1","ND","ND","ND","ND","32","0"],
    [66384,"2017-12-01T19:00:00","2.7","ND","ND","ND","2.7","0.3","ND","ND","ND","ND","0","0"],
    [66385,"2017-12-01T20:00:00","20.2","ND","ND","ND","2.4","0.5","ND","ND","ND","ND","0","0"],
    [66386,"2017-12-01T21:00:00","42.2","ND","ND","ND","0.8","0.5","ND","ND","ND","ND","0","8.89"],
    [66387,"2017-12-01T22:00:00","35.3","ND","ND","ND","0.5","0.7","ND","ND","ND","ND","0","2.79"],
    [66388,"2017-12-01T23:00:00","38.3","ND","ND","ND","0.3","1.7","ND","ND","ND","ND","0","0.25"],
    [66389,"2017-12-02T00:00:00","26.4","ND","ND","ND","0.3","1.9","ND","ND","ND","ND","0","0"],
    [66390,"2017-12-02T01:00:00","21.7","ND","ND","ND","0.3","1.6","ND","ND","ND","ND","0","0"],
    [66391,"2017-12-02T02:00:00","30.4","ND","ND","ND","0.3","1.9","ND","ND","ND","ND","0","0"],
    [66392,"2017-12-02T03:00:00","32.7","ND","ND","ND","0.3","1.5","ND","ND","ND","ND","0","8.89"],
    [66393,"2017-12-02T04:00:00","24.1","ND","ND","ND","0.3","0.8","ND","ND","ND","ND","0","2.79"],
    [66394,"2017-12-02T05:00:00","4.9","ND","ND","ND","0.2","0.1","ND","ND","ND","ND","0","0.76"],
    [66395,"2017-12-02T06:00:00","5.8","ND","ND","ND","0.3","0.7","ND","ND","ND","ND","0","0"],
    [66396,"2017-12-02T07:00:00","16.6","ND","ND","ND","0.3","1.5","ND","ND","ND","ND","8","0.25"],
    [66397,"2017-12-02T08:00:00","16.6","ND","ND","ND","0.3","1.4","ND","ND","ND","ND","176","0"],
    [66398,"2017-12-02T09:00:00","18.8","ND","ND","ND","0.4","1.2","ND","ND","ND","ND","331","0"],
    [66399,"2017-12-02T10:00:00","26.2","ND","ND","ND","1.9","0.6","ND","ND","ND","ND","619","0"],
    [66400,"2017-12-02T11:00:00","23.9","ND","ND","ND","13.3","0.8","ND","ND","ND","ND","663","0.25"],
    [66401,"2017-12-02T12:00:00","23.1","ND","ND","ND","39.4","0.5","ND","ND","ND","ND","664","0"],
    [66402,"2017-12-02T13:00:00","18.7","ND","ND","ND","58.1","0.4","ND","ND","ND","ND","664","0"],
    [66403,"2017-12-02T14:00:00","12.4","ND","ND","ND","61.1","0.6","ND","ND","ND","ND","664","0"],
    [66404,"2017-12-02T15:00:00","26.1","ND","ND","ND","67.5","0.6","ND","ND","ND","ND","578","0"],
    [66405,"2017-12-02T16:00:00","27.6","ND","ND","ND","63.4","0.4","ND","ND","ND","ND","633","0"],
    [66406,"2017-12-02T17:00:00","16.7","ND","ND","ND","18.0","0.4","ND","ND","ND","ND","399","0"],
    [66407,"2017-12-02T18:00:00","1.3","ND","ND","ND","7.5","0.3","ND","ND","ND","ND","109","0"],
    [66408,"2017-12-02T19:00:00","ND","ND","ND","ND","2.2","0.3","ND","ND","ND","ND","0","0"],
    [66409,"2017-12-02T20:00:00","10.8","ND","ND","ND","0.6","0.3","ND","ND","ND","ND","0","0"],
    [66410,"2017-12-02T21:00:00","32.9","ND","ND","ND","0.6","0.7","ND","ND","ND","ND","0","0"],
    [66411,"2017-12-02T22:00:00","52.5","ND","ND","ND","0.4","1.2","ND","ND","ND","ND","0","0"],
    [66412,"2017-12-02T23:00:00","32.1","ND","ND","ND","1.6","0.6","ND","ND","ND","ND","0","0"],
    [66413,"2017-12-03T00:00:00","17.9","ND","ND","ND","3.6","0.6","ND","ND","ND","ND","0","0"],
    [66414,"2017-12-03T01:00:00","35.1","ND","ND","ND","1.3","0.9","ND","ND","ND","ND","0","0.51"],
    [66415,"2017-12-03T02:00:00","34.6","ND","ND","ND","0.8","0.7","ND","ND","ND","ND","0","1.02"],
    [66416,"2017-12-03T03:00:00","25.2","ND","ND","ND","1.8","0.7","ND","ND","ND","ND","0","2.79"],
    [66417,"2017-12-03T04:00:00","19.7","ND","ND","ND","0.8","0.6","ND","ND","ND","ND","0","0.51"],
    [66418,"2017-12-03T05:00:00","23.6","ND","ND","ND","0.9","0.5","ND","ND","ND","ND","0","0.51"],
    [66419,"2017-12-03T06:00:00","21.3","ND","ND","ND","0.3","0.5","ND","ND","ND","ND","0","0"],
    [66420,"2017-12-03T07:00:00","17.8","ND","ND","ND","0.3","0.8","ND","ND","ND","ND","135","0"],
    [66421,"2017-12-03T08:00:00","21.8","ND","ND","ND","0.2","1.7","ND","ND","ND","ND","207","0"],
    [66422,"2017-12-03T09:00:00","27.5","ND","ND","ND","5.6","0.8","ND","ND","ND","ND","649","0"],
    [66423,"2017-12-03T10:00:00","37.2","ND","ND","ND","28.8","1.0","ND","ND","ND","ND","663","0"],
    [66424,"2017-12-03T11:00:00","36.5","ND","ND","ND","64.7","0.9","ND","ND","ND","ND","664","0"],
    [66425,"2017-12-03T12:00:00","28.4","ND","ND","ND","73.8","0.5","ND","ND","ND","ND","664","0"],
    [66426,"2017-12-03T13:00:00","27.7","ND","ND","ND","87.0","0.4","ND","ND","ND","ND","662","0"],
    [66427,"2017-12-03T14:00:00","25.1","ND","ND","ND","95.3","0.4","ND","ND","ND","ND","664","0"],
    [66428,"2017-12-03T15:00:00","24.3","ND","ND","ND","95.5","0.3","ND","ND","ND","ND","579","0"],
    [66429,"2017-12-03T16:00:00","25.3","ND","ND","ND","69.3","0.5","ND","ND","ND","ND","661","0"],
    [66430,"2017-12-03T17:00:00","14.6","ND","ND","ND","27.9","0.1","ND","ND","ND","ND","607","0"],
    [66431,"2017-12-03T18:00:00","1.4","ND","ND","ND","17.2","0.1","ND","ND","ND","ND","117","0"],
    [66432,"2017-12-03T19:00:00","ND","ND","ND","ND","7.1","0.3","ND","ND","ND","ND","0","0"],
    [66433,"2017-12-03T20:00:00","12.2","ND","ND","ND","1.1","0.5","ND","ND","ND","ND","0","0"],
    [66434,"2017-12-03T21:00:00","47.1","ND","ND","ND","0.8","0.6","ND","ND","ND","ND","0","0"],
    [66435,"2017-12-03T22:00:00","52.5","ND","ND","ND","0.7","2.0","ND","ND","ND","ND","0","0"],
    [66436,"2017-12-03T23:00:00","41.4","ND","ND","ND","0.6","2.1","ND","ND","ND","ND","0","0"],
    [66437,"2017-12-04T00:00:00","31.9","ND","ND","ND","0.5","1.9","ND","ND","ND","ND","0","0"],
    [66438,"2017-12-04T01:00:00","29.3","ND","ND","ND","0.7","0.9","ND","ND","ND","ND","0","0"],
    [66439,"2017-12-04T02:00:00","14.9","ND","ND","ND","0.5","1.1","ND","ND","ND","ND","0","0"],
    [66440,"2017-12-04T03:00:00","14.2","ND","ND","ND","0.7","1.6","ND","ND","ND","ND","0","0"],
    [66441,"2017-12-04T04:00:00","16.6","ND","ND","ND","0.5","0.7","ND","ND","ND","ND","0","0"],
    [66442,"2017-12-04T05:00:00","19.1","ND","ND","ND","0.5","0.9","ND","ND","ND","ND","0","0"],
    [66443,"2017-12-04T06:00:00","29.3","ND","ND","ND","0.6","0.6","ND","ND","ND","ND","0","0"],
    [66444,"2017-12-04T07:00:00","34.6","ND","ND","ND","0.5","0.9","ND","ND","ND","ND","51","0"],
    [66445,"2017-12-04T08:00:00","46.3","ND","ND","ND","1.1","0.9","ND","ND","ND","ND","398","0"],
    [66446,"2017-12-04T09:00:00","49.4","ND","ND","ND","6.6","1.1","ND","ND","ND","ND","644","0"],
    [66447,"2017-12-04T10:00:00","52.3","ND","ND","ND","24.2","0.9","ND","ND","ND","ND","645","0"],
    [66448,"2017-12-04T11:00:00","36","ND","ND","ND","37.2","0.6","ND","ND","ND","ND","649","0"],
    [66449,"2017-12-04T12:00:00","36.9","ND","ND","ND","64.7","0.6","ND","ND","ND","ND","664","0"],
    [66450,"2017-12-04T13:00:00","40.7","ND","ND","ND","90.6","0.6","ND","ND","ND","ND","529","0"],
    [66451,"2017-12-04T14:00:00","34.8","ND","ND","ND","69.1","0.4","ND","ND","ND","ND","477","0"],
    [66452,"2017-12-04T15:00:00","27.1","ND","ND","ND","27.0","0.6","ND","ND","ND","ND","561","0"],
    [66453,"2017-12-04T16:00:00","17.5","ND","ND","ND","26.2","0.3","ND","ND","ND","ND","664","0"],
    [66454,"2017-12-04T17:00:00","21","ND","ND","ND","20.2","0.3","ND","ND","ND","ND","503","0"],
    [66455,"2017-12-04T18:00:00","0.1","ND","ND","ND","12.0","0.3","ND","ND","ND","ND","51","0"],
    [66456,"2017-12-04T19:00:00","ND","ND","ND","ND","2.6","0.3","ND","ND","ND","ND","0","0"],
    [66457,"2017-12-04T20:00:00","20.3","ND","ND","ND","1.2","0.3","ND","ND","ND","ND","0","0"],
    [66458,"2017-12-04T21:00:00","55.7","ND","ND","ND","0.9","0.8","ND","ND","ND","ND","0","0"],
    [66459,"2017-12-04T22:00:00","63.5","ND","ND","ND","0.7","0.7","ND","ND","ND","ND","0","0"],
    [66460,"2017-12-04T23:00:00","55.7","ND","ND","ND","0.8","1.3","ND","ND","ND","ND","0","0"],
    [66461,"2017-12-05T00:00:00","46.7","ND","ND","ND","0.6","0.9","ND","ND","ND","ND","0","0"],
    [66462,"2017-12-05T01:00:00","37.8","ND","ND","ND","0.7","0.9","ND","ND","ND","ND","0","0"],
    [66463,"2017-12-05T02:00:00","49.4","ND","ND","ND","0.6","1.5","ND","ND","ND","ND","0","0"],
    [66464,"2017-12-05T03:00:00","49.2","ND","ND","ND","0.6","1.6","ND","ND","ND","ND","0","0"],
    [66465,"2017-12-05T04:00:00","48.7","ND","ND","ND","0.5","1.3","ND","ND","ND","ND","0","0"],
    [66466,"2017-12-05T05:00:00","38.4","ND","ND","ND","0.6","0.8","ND","ND","ND","ND","0","0"],
    [66467,"2017-12-05T06:00:00","51.1","ND","ND","ND","0.5","1.5","ND","ND","ND","ND","0","0"],
    [66468,"2017-12-05T07:00:00","61","ND","ND","ND","0.6","0.7","ND","ND","ND","ND","64","0"],
    [66469,"2017-12-05T08:00:00","52.6","ND","ND","ND","1.4","1.2","ND","ND","ND","ND","592","0"],
    [66470,"2017-12-05T09:00:00","60.7","ND","ND","ND","11.1","0.6","ND","ND","ND","ND","632","0"],
    [66471,"2017-12-05T10:00:00","49.4","ND","ND","ND","35.7","0.6","ND","ND","ND","ND","664","0"],
    [66472,"2017-12-05T11:00:00","49.3","ND","ND","ND","60.1","0.4","ND","ND","ND","ND","664","0"],
    [66473,"2017-12-05T12:00:00","28.1","ND","ND","ND","92.1","0.4","ND","ND","ND","ND","663","0"],
    [66474,"2017-12-05T13:00:00","49.8","ND","ND","ND","111.7","0.6","ND","ND","ND","ND","663","0"],
    [66475,"2017-12-05T14:00:00","42.8","ND","ND","ND","85.2","0.6","ND","ND","ND","ND","649","0"],
    [66476,"2017-12-05T15:00:00","30.9","ND","ND","ND","62.7","0.3","ND","ND","ND","ND","636","0"],
    [66477,"2017-12-05T16:00:00","21.6","ND","ND","ND","37.7","0.3","ND","ND","ND","ND","658","0"],
    [66478,"2017-12-05T17:00:00","11.5","ND","ND","ND","32.1","0.1","ND","ND","ND","ND","575","0"],
    [66479,"2017-12-05T18:00:00","5.6","ND","ND","ND","19.4","0.2","ND","ND","ND","ND","108","0"],
    [66480,"2017-12-05T19:00:00","3.1","ND","ND","ND","5.4","0.3","ND","ND","ND","ND","0","0"],
    [66481,"2017-12-05T20:00:00","30.1","ND","ND","ND","1.6","0.4","ND","ND","ND","ND","0","0"],
    [66482,"2017-12-05T21:00:00","77.8","ND","ND","ND","1.1","0.9","ND","ND","ND","ND","0","0"],
    [66483,"2017-12-05T22:00:00","63.1","ND","ND","ND","1.1","4.5","ND","ND","ND","ND","0","0"],
    [66484,"2017-12-05T23:00:00","39.4","ND","ND","ND","1.0","2.0","ND","ND","ND","ND","0","0"],
    [66485,"2017-12-06T00:00:00","35.9","ND","ND","ND","0.8","1.4","ND","ND","ND","ND","0","0"],
    [66486,"2017-12-06T01:00:00","39.1","ND","ND","ND","0.6","1.5","ND","ND","ND","ND","0","0"],
    [66487,"2017-12-06T02:00:00","35.8","ND","ND","ND","0.6","1.3","ND","ND","ND","ND","0","0"],
    [66488,"2017-12-06T03:00:00","34.5","ND","ND","ND","0.8","1.3","ND","ND","ND","ND","0","3.05"],
    [66489,"2017-12-06T04:00:00","36.3","ND","ND","ND","0.5","1.4","ND","ND","ND","ND","0","0.25"],
    [66490,"2017-12-06T05:00:00","33.1","ND","ND","ND","0.5","0.6","ND","ND","ND","ND","0","0"],
    [66491,"2017-12-06T06:00:00","32.1","ND","ND","ND","0.7","1.3","ND","ND","ND","ND","0","0"],
    [66492,"2017-12-06T07:00:00","46.9","ND","ND","ND","0.7","2.5","ND","ND","ND","ND","69","0"],
    [66493,"2017-12-06T08:00:00","74.5","ND","ND","ND","0.9","3.1","ND","ND","ND","ND","339","0"],
    [66494,"2017-12-06T09:00:00","85.6","ND","ND","ND","4.5","2.6","ND","ND","ND","ND","658","0"],
    [66495,"2017-12-06T10:00:00","62.1","ND","ND","ND","22.3","1.2","ND","ND","ND","ND","662","0"],
    [66496,"2017-12-06T11:00:00","34.5","ND","ND","ND","44.0","0.7","ND","ND","ND","ND","664","0"],
    [66497,"2017-12-06T12:00:00","44.1","ND","ND","ND","76.7","0.5","ND","ND","ND","ND","664","0"],
    [66498,"2017-12-06T13:00:00","43.6","ND","ND","ND","103.8","0.4","ND","ND","ND","ND","664","0"],
    [66499,"2017-12-06T14:00:00","37.8","ND","ND","ND","90.1","0.3","ND","ND","ND","ND","628","0"],
    [66500,"2017-12-06T15:00:00","21.3","ND","ND","ND","25.7","0.4","ND","ND","ND","ND","566","0"],
    [66501,"2017-12-06T16:00:00","10.1","ND","ND","ND","27.1","0.3","ND","ND","ND","ND","664","0"],
    [66502,"2017-12-06T17:00:00","8","ND","ND","ND","25.6","0.3","ND","ND","ND","ND","510","0"],
    [66503,"2017-12-06T18:00:00","0.8","ND","ND","ND","18.8","0.1","ND","ND","ND","ND","117","0"],
    [66504,"2017-12-06T19:00:00","0.8","ND","ND","ND","5.6","0.3","ND","ND","ND","ND","0","0"],
    [66505,"2017-12-06T20:00:00","21.3","ND","ND","ND","0.8","0.3","ND","ND","ND","ND","0","0"],
    [66506,"2017-12-06T21:00:00","65","ND","ND","ND","0.9","0.8","ND","ND","ND","ND","0","0"],
    [66507,"2017-12-06T22:00:00","71","ND","ND","ND","0.7","2.4","ND","ND","ND","ND","0","0"],
    [66508,"2017-12-06T23:00:00","50.1","ND","ND","ND","0.8","1.2","ND","ND","ND","ND","0","0"],
    [66509,"2017-12-07T00:00:00","35.1","ND","ND","ND","0.7","1.2","ND","ND","ND","ND","0","0"],
    [66510,"2017-12-07T01:00:00","26.9","ND","ND","ND","0.6","1.7","ND","ND","ND","ND","0","0"],
    [66511,"2017-12-07T02:00:00","40.4","ND","ND","ND","0.6","2.4","ND","ND","ND","ND","0","0"],
    [66512,"2017-12-07T03:00:00","35.8","ND","ND","ND","0.5","1.4","ND","ND","ND","ND","0","0"],
    [66513,"2017-12-07T04:00:00","31","ND","ND","ND","0.5","0.7","ND","ND","ND","ND","0","0"],
    [66514,"2017-12-07T05:00:00","25.2","ND","ND","ND","0.6","0.7","ND","ND","ND","ND","0","0"],
    [66515,"2017-12-07T06:00:00","45.6","ND","ND","ND","0.6","0.8","ND","ND","ND","ND","0","0"],
    [66516,"2017-12-07T07:00:00","73.7","ND","ND","ND","0.7","1.2","ND","ND","ND","ND","100","0"],
    [66517,"2017-12-07T08:00:00","67","ND","ND","ND","1.3","1.5","ND","ND","ND","ND","500","0"],
    [66518,"2017-12-07T09:00:00","68.4","ND","ND","ND","7.8","0.9","ND","ND","ND","ND","639","0"],
    [66519,"2017-12-07T10:00:00","51.4","ND","ND","ND","38.4","0.7","ND","ND","ND","ND","664","0"],
    [66520,"2017-12-07T11:00:00","42.6","ND","ND","ND","48.0","0.5","ND","ND","ND","ND","628","0"],
    [66521,"2017-12-07T12:00:00","42.3","ND","ND","ND","71.3","0.5","ND","ND","ND","ND","664","0"],
    [66522,"2017-12-07T13:00:00","47.5","ND","ND","ND","82.7","0.4","ND","ND","ND","ND","664","0"],
    [66523,"2017-12-07T14:00:00","39.8","ND","ND","ND","37.3","0.2","ND","ND","ND","ND","642","0"],
    [66524,"2017-12-07T15:00:00","6.3","ND","ND","ND","18.6","0.3","ND","ND","ND","ND","604","0"],
    [66525,"2017-12-07T16:00:00","4.3","ND","ND","ND","30.5","0.4","ND","ND","ND","ND","664","0"],
    [66526,"2017-12-07T17:00:00","8.9","ND","ND","ND","15.0","0.4","ND","ND","ND","ND","479","0"],
    [66527,"2017-12-07T18:00:00","ND","ND","ND","ND","6.4","0.1","ND","ND","ND","ND","67","0"],
    [66528,"2017-12-07T19:00:00","ND","ND","ND","ND","1.1","0.0","ND","ND","ND","ND","0","0"],
    [66529,"2017-12-07T20:00:00","5","ND","ND","ND","2.4","0.4","ND","ND","ND","ND","0","0"],
    [66530,"2017-12-07T21:00:00","ND","ND","ND","ND","3.5","0.8","ND","ND","ND","ND","0","0"],
    [66531,"2017-12-07T22:00:00","ND","ND","ND","ND","4.7","1.2","ND","ND","ND","ND","0","0"],
    [66532,"2017-12-07T23:00:00","ND","ND","ND","ND","6.5","1.6","ND","ND","ND","ND","0","0"],
    [66533,"2017-12-08T00:00:00","148.5","ND","ND","ND","7.0","1.9","ND","ND","ND","ND","0","0"],
    [66534,"2017-12-08T01:00:00","108.2","ND","ND","ND","7.4","1.2","ND","ND","ND","ND","0","0"],
    [66535,"2017-12-08T02:00:00","113.5","ND","ND","ND","7.2","1.5","ND","ND","ND","ND","0","0"],
    [66536,"2017-12-08T03:00:00","74.5","ND","ND","ND","7.8","1.7","ND","ND","ND","ND","0","0"],
    [66537,"2017-12-08T04:00:00","47.2","ND","ND","ND","7.3","1.5","ND","ND","ND","ND","0","0"],
    [66538,"2017-12-08T05:00:00","60.2","ND","ND","ND","8.5","0.9","ND","ND","ND","ND","0","0"],
    [66539,"2017-12-08T06:00:00","84.4","ND","ND","ND","8.9","1.1","ND","ND","ND","ND","0","0"],
    [66540,"2017-12-08T07:00:00","57","ND","ND","ND","9.4","2.1","ND","ND","ND","ND","92","0"],
    [66541,"2017-12-08T08:00:00","99.2","ND","ND","ND","9.2","2.6","ND","ND","ND","ND","391","0"],
    [66542,"2017-12-08T09:00:00","188.4","ND","ND","ND","15.9","2.7","ND","ND","ND","ND","663","0"],
    [66543,"2017-12-08T10:00:00","135.3","ND","ND","ND","27.6","1.0","ND","ND","ND","ND","663","0"],
    [66544,"2017-12-08T11:00:00","68.6","ND","ND","ND","60.7","0.8","ND","ND","ND","ND","662","0"],
    [66545,"2017-12-08T12:00:00","59","ND","ND","ND","86.3","0.7","ND","ND","ND","ND","663","0"],
    [66546,"2017-12-08T13:00:00","60.3","ND","ND","ND","88.1","0.4","ND","ND","ND","ND","664","0"],
    [66547,"2017-12-08T14:00:00","47.5","ND","ND","ND","55.7","0.5","ND","ND","ND","ND","646","0"],
    [66548,"2017-12-08T15:00:00","17","ND","ND","ND","27.4","0.1","ND","ND","ND","ND","664","0"],
    [66549,"2017-12-08T16:00:00","18.4","ND","ND","ND","26.3","0.0","ND","ND","ND","ND","633","0"],
    [66550,"2017-12-08T17:00:00","1","ND","ND","ND","22.7","0.2","ND","ND","ND","ND","351","0"],
    [66551,"2017-12-08T18:00:00","ND","ND","ND","ND","17.8","0.3","ND","ND","ND","ND","76","0"],
    [66552,"2017-12-08T19:00:00","ND","ND","ND","ND","12.2","0.3","ND","ND","ND","ND","0","0"],
    [66553,"2017-12-08T20:00:00","ND","ND","ND","ND","5.6","0.8","ND","ND","ND","ND","0","0"],
    [66554,"2017-12-08T21:00:00","14.2","ND","ND","ND","3.6","0.8","ND","ND","ND","ND","0","0"],
    [66555,"2017-12-08T22:00:00","55.7","ND","ND","ND","4.7","1.0","ND","ND","ND","ND","0","0"],
    [66556,"2017-12-08T23:00:00","66.9","ND","ND","ND","6.9","0.8","ND","ND","ND","ND","0","0"],
    [66557,"2017-12-09T00:00:00","38.7","ND","ND","ND","6.2","0.4","ND","ND","ND","ND","0","0"],
    [66558,"2017-12-09T01:00:00","14.3","ND","ND","ND","5.8","0.4","ND","ND","ND","ND","0","0"],
    [66559,"2017-12-09T02:00:00","56.3","ND","ND","ND","2.3","1.0","ND","ND","ND","ND","0","0"],
    [66560,"2017-12-09T03:00:00","43.7","ND","ND","ND","1.8","2.2","ND","ND","ND","ND","0","0"],
    [66561,"2017-12-09T04:00:00","29.9","ND","ND","ND","1.8","5.2","ND","ND","ND","ND","0","0"],
    [66562,"2017-12-09T05:00:00","43.6","ND","ND","ND","2.2","5.0","ND","ND","ND","ND","0","0"],
    [66563,"2017-12-09T06:00:00","49.6","ND","ND","ND","1.5","5.5","ND","ND","ND","ND","0","0"],
    [66564,"2017-12-09T07:00:00","40.1","ND","ND","ND","1.5","3.5","ND","ND","ND","ND","17","13.72"],
    [66565,"2017-12-09T08:00:00","30.8","ND","ND","ND","1.6","2.2","ND","ND","ND","ND","223","0.51"],
    [66566,"2017-12-09T09:00:00","44.6","ND","ND","ND","3.2","0.4","ND","ND","ND","ND","541","0"],
    [66567,"2017-12-09T10:00:00","63","ND","ND","ND","6.8","0.6","ND","ND","ND","ND","530","0"],
    [66568,"2017-12-09T11:00:00","45.8","ND","ND","ND","24.4","0.7","ND","ND","ND","ND","663","0"],
    [66569,"2017-12-09T12:00:00","57","ND","ND","ND","49.2","0.5","ND","ND","ND","ND","664","0"],
    [66570,"2017-12-09T13:00:00","33.9","ND","ND","ND","89.1","0.5","ND","ND","ND","ND","664","0"],
    [66571,"2017-12-09T14:00:00","36.8","ND","ND","ND","128.6","0.5","ND","ND","ND","ND","664","0"],
    [66572,"2017-12-09T15:00:00","30.6","ND","ND","ND","145.0","0.5","ND","ND","ND","ND","664","0"],
    [66573,"2017-12-09T16:00:00","35.7","ND","ND","ND","60.8","0.3","ND","ND","ND","ND","627","0"],
    [66574,"2017-12-09T17:00:00","8.7","ND","ND","ND","20.4","0.4","ND","ND","ND","ND","450","0"],
    [66575,"2017-12-09T18:00:00","ND","ND","ND","ND","13.5","0.3","ND","ND","ND","ND","109","0"],
    [66576,"2017-12-09T19:00:00","ND","ND","ND","ND","6.8","0.5","ND","ND","ND","ND","0","0"],
    [66577,"2017-12-09T20:00:00","1.2","ND","ND","ND","4.1","0.3","ND","ND","ND","ND","0","0"],
    [66578,"2017-12-09T21:00:00","21.1","ND","ND","ND","3.9","0.7","ND","ND","ND","ND","0","0"],
    [66579,"2017-12-09T22:00:00","27.4","ND","ND","ND","2.8","0.4","ND","ND","ND","ND","0","0"],
    [66580,"2017-12-09T23:00:00","16.6","ND","ND","ND","2.8","0.3","ND","ND","ND","ND","0","0"],
    [66581,"2017-12-10T00:00:00","19","ND","ND","ND","8.0","0.4","ND","ND","ND","ND","0","0"],
    [66582,"2017-12-10T01:00:00","11.1","ND","ND","ND","4.5","0.7","ND","ND","ND","ND","0","0"],
    [66583,"2017-12-10T02:00:00","39.6","ND","ND","ND","4.2","0.6","ND","ND","ND","ND","0","0"],
    [66584,"2017-12-10T03:00:00","27.2","ND","ND","ND","2.6","1.1","ND","ND","ND","ND","0","0"],
    [66585,"2017-12-10T04:00:00","23.3","ND","ND","ND","1.9","2.0","ND","ND","ND","ND","0","0"],
    [66586,"2017-12-10T05:00:00","24.8","ND","ND","ND","2.0","3.9","ND","ND","ND","ND","0","0"],
    [66587,"2017-12-10T06:00:00","12.6","ND","ND","ND","1.5","2.4","ND","ND","ND","ND","0","0"],
    [66588,"2017-12-10T07:00:00","4.4","ND","ND","ND","1.7","2.9","ND","ND","ND","ND","12","2.54"],
    [66589,"2017-12-10T08:00:00","ND","ND","ND","ND","1.5","2.7","ND","ND","ND","ND","183","4.83"],
    [66590,"2017-12-10T09:00:00","3.7","ND","ND","ND","2.3","1.6","ND","ND","ND","ND","392","0.51"],
    [66591,"2017-12-10T10:00:00","42.3","ND","ND","ND","4.2","0.5","ND","ND","ND","ND","311","0"],
    [66592,"2017-12-10T11:00:00","31.4","ND","ND","ND","4.4","0.6","ND","ND","ND","ND","163","0"],
    [66593,"2017-12-10T12:00:00","6.3","ND","ND","ND","8.3","0.7","ND","ND","ND","ND","444","0"],
    [66594,"2017-12-10T13:00:00","19.4","ND","ND","ND","15.1","0.3","ND","ND","ND","ND","649","0"],
    [66595,"2017-12-10T14:00:00","32","ND","ND","ND","30.0","0.2","ND","ND","ND","ND","663","0"],
    [66596,"2017-12-10T15:00:00","15.9","ND","ND","ND","31.2","0.2","ND","ND","ND","ND","663","0"],
    [66597,"2017-12-10T16:00:00","ND","ND","ND","ND","32.0","0.2","ND","ND","ND","ND","653","0"],
    [66598,"2017-12-10T17:00:00","ND","ND","ND","ND","40.5","0.2","ND","ND","ND","ND","347","0"],
    [66599,"2017-12-10T18:00:00","ND","ND","ND","ND","13.7","0.3","ND","ND","ND","ND","75","0"],
    [66600,"2017-12-10T19:00:00","16.1","ND","ND","ND","3.8","0.1","ND","ND","ND","ND","0","0"],
    [66601,"2017-12-10T20:00:00","36.3","ND","ND","ND","2.0","0.4","ND","ND","ND","ND","0","0"],
    [66602,"2017-12-10T21:00:00","32","ND","ND","ND","1.5","0.1","ND","ND","ND","ND","0","0"],
    [66603,"2017-12-10T22:00:00","38.2","ND","ND","ND","1.9","0.4","ND","ND","ND","ND","0","0"],
    [66604,"2017-12-10T23:00:00","38","ND","ND","ND","1.9","0.8","ND","ND","ND","ND","0","0"],
    [66605,"2017-12-11T00:00:00","51.1","ND","ND","ND","1.9","2.2","ND","ND","ND","ND","0","0"],
    [66606,"2017-12-11T01:00:00","38.6","ND","ND","ND","1.5","0.7","ND","ND","ND","ND","0","0"],
    [66607,"2017-12-11T02:00:00","24.6","ND","ND","ND","1.3","1.6","ND","ND","ND","ND","0","0"],
    [66608,"2017-12-11T03:00:00","40.8","ND","ND","ND","1.4","1.6","ND","ND","ND","ND","0","0"],
    [66609,"2017-12-11T04:00:00","33.4","ND","ND","ND","2.1","1.0","ND","ND","ND","ND","0","0"],
    [66610,"2017-12-11T05:00:00","24.3","ND","ND","ND","1.5","0.7","ND","ND","ND","ND","0","0"],
    [66611,"2017-12-11T06:00:00","26.6","ND","ND","ND","1.2","0.6","ND","ND","ND","ND","0","0"],
    [66612,"2017-12-11T07:00:00","24.1","ND","ND","ND","1.4","0.4","ND","ND","ND","ND","26","0.25"],
    [66613,"2017-12-11T08:00:00","29.3","ND","ND","ND","1.5","0.2","ND","ND","ND","ND","74","1.02"],
    [66614,"2017-12-11T09:00:00","24.3","ND","ND","ND","1.5","0.2","ND","ND","ND","ND","190","3.05"],
    [66615,"2017-12-11T10:00:00","18.8","ND","ND","ND","4.3","0.2","ND","ND","ND","ND","539","0.25"],
    [66616,"2017-12-11T11:00:00","47.9","ND","ND","ND","9.4","0.3","ND","ND","ND","ND","641","0"],
    [66617,"2017-12-11T12:00:00","54.7","ND","ND","ND","7.4","0.3","ND","ND","ND","ND","209","11.94"],
    [66618,"2017-12-11T13:00:00","20","ND","ND","ND","9.3","0.4","ND","ND","ND","ND","467","13.46"],
    [66619,"2017-12-11T14:00:00","10","ND","ND","ND","19.6","0.3","ND","ND","ND","ND","663","0.25"],
    [66620,"2017-12-11T15:00:00","39.1","ND","ND","ND","26.8","0.3","ND","ND","ND","ND","663","0"],
    [66621,"2017-12-11T16:00:00","46.8","ND","ND","ND","36.4","0.5","ND","ND","ND","ND","511","0"],
    [66622,"2017-12-11T17:00:00","38.4","ND","ND","ND","25.6","0.4","ND","ND","ND","ND","261","0"],
    [66623,"2017-12-11T18:00:00","40.7","ND","ND","ND","12.8","0.4","ND","ND","ND","ND","55","0"],
    [66624,"2017-12-11T19:00:00","53.1","ND","ND","ND","1.9","0.4","ND","ND","ND","ND","0","0.51"],
    [66625,"2017-12-11T20:00:00","40.9","ND","ND","ND","1.6","0.3","ND","ND","ND","ND","0","0.25"],
    [66626,"2017-12-11T21:00:00","33.7","ND","ND","ND","1.4","0.5","ND","ND","ND","ND","0","0"],
    [66627,"2017-12-11T22:00:00","28.7","ND","ND","ND","1.6","0.2","ND","ND","ND","ND","0","0"],
    [66628,"2017-12-11T23:00:00","19.8","ND","ND","ND","1.6","0.7","ND","ND","ND","ND","0","0"],
    [66629,"2017-12-12T00:00:00","24","ND","ND","ND","2.0","0.8","ND","ND","ND","ND","0","0"],
    [66630,"2017-12-12T01:00:00","23.1","ND","ND","ND","1.6","0.6","ND","ND","ND","ND","0","0"],
    [66631,"2017-12-12T02:00:00","11","ND","ND","ND","1.7","0.7","ND","ND","ND","ND","0","0"],
    [66632,"2017-12-12T03:00:00","25","ND","ND","ND","2.0","1.1","ND","ND","ND","ND","0","0"],
    [66633,"2017-12-12T04:00:00","20.1","ND","ND","ND","1.6","0.4","ND","ND","ND","ND","0","0"],
    [66634,"2017-12-12T05:00:00","15.8","ND","ND","ND","1.7","0.2","ND","ND","ND","ND","0","0.51"],
    [66635,"2017-12-12T06:00:00","10","ND","ND","ND","1.8","0.4","ND","ND","ND","ND","0","0"],
    [66636,"2017-12-12T07:00:00","13.1","ND","ND","ND","1.8","0.2","ND","ND","ND","ND","25","0"],
    [66637,"2017-12-12T08:00:00","16.3","ND","ND","ND","2.0","0.2","ND","ND","ND","ND","53","21.34"],
    [66638,"2017-12-12T09:00:00","21.4","ND","ND","ND","1.7","0.2","ND","ND","ND","ND","234","17.78"],
    [66639,"2017-12-12T10:00:00","8.8","ND","ND","ND","3.1","0.1","ND","ND","ND","ND","627","0.25"],
    [66640,"2017-12-12T11:00:00","61.3","ND","ND","ND","13.5","0.2","ND","ND","ND","ND","663","0"],
    [66641,"2017-12-12T12:00:00","56.9","ND","ND","ND","26.7","0.7","ND","ND","ND","ND","663","0"],
    [66642,"2017-12-12T13:00:00","48.4","ND","ND","ND","42.2","2.4","ND","ND","ND","ND","663","0"],
    [66643,"2017-12-12T14:00:00","23.3","ND","ND","ND","44.0","0.3","ND","ND","ND","ND","649","0"],
    [66644,"2017-12-12T15:00:00","16.5","ND","ND","ND","47.8","0.5","ND","ND","ND","ND","451","0"],
    [66645,"2017-12-12T16:00:00","21.1","ND","ND","ND","6.6","0.3","ND","ND","ND","ND","410","0.25"],
    [66646,"2017-12-12T17:00:00","5.2","ND","ND","ND","6.5","0.3","ND","ND","ND","ND","371","0.25"],
    [66647,"2017-12-12T18:00:00","37.8","ND","ND","ND","4.0","1.4","ND","ND","ND","ND","104","0"],
    [66648,"2017-12-12T19:00:00","68.1","ND","ND","ND","3.7","1.4","ND","ND","ND","ND","0","0"],
    [66649,"2017-12-12T20:00:00","71.2","ND","ND","ND","2.8","0.6","ND","ND","ND","ND","0","0"],
    [66650,"2017-12-12T21:00:00","55.5","ND","ND","ND","2.3","1.1","ND","ND","ND","ND","0","0"],
    [66651,"2017-12-12T22:00:00","43.4","ND","ND","ND","2.1","1.2","ND","ND","ND","ND","0","0"],
    [66652,"2017-12-12T23:00:00","34.3","ND","ND","ND","1.8","0.7","ND","ND","ND","ND","0","0"],
    [66653,"2017-12-13T00:00:00","25.5","ND","ND","ND","1.4","0.4","ND","ND","ND","ND","0","0"],
    [66654,"2017-12-13T01:00:00","21.7","ND","ND","ND","1.3","0.5","ND","ND","ND","ND","0","0"],
    [66655,"2017-12-13T02:00:00","32.6","ND","ND","ND","1.7","0.5","ND","ND","ND","ND","0","0"],
    [66656,"2017-12-13T03:00:00","20.5","ND","ND","ND","1.2","0.8","ND","ND","ND","ND","0","0"],
    [66657,"2017-12-13T04:00:00","6.5","ND","ND","ND","1.4","0.3","ND","ND","ND","ND","0","0"],
    [66658,"2017-12-13T05:00:00","ND","ND","ND","ND","1.3","0.4","ND","ND","ND","ND","0","0"],
    [66659,"2017-12-13T06:00:00","0.4","ND","ND","ND","1.2","0.2","ND","ND","ND","ND","0","0"],
    [66660,"2017-12-13T07:00:00","53.1","ND","ND","ND","1.4","2.3","ND","ND","ND","ND","105","0"],
    [66661,"2017-12-13T08:00:00","119.8","ND","ND","ND","1.0","8.8","ND","ND","ND","ND","446","0"],
    [66662,"2017-12-13T09:00:00","172.6","ND","ND","ND","1.4","6.1","ND","ND","ND","ND","663","0"],
    [66663,"2017-12-13T10:00:00","125.5","ND","ND","ND","6.5","2.7","ND","ND","ND","ND","663","0"],
    [66664,"2017-12-13T11:00:00","96","ND","ND","ND","34.8","1.1","ND","ND","ND","ND","663","0"],
    [66665,"2017-12-13T12:00:00","80.8","ND","ND","ND","79.3","0.6","ND","ND","ND","ND","664","0"],
    [66666,"2017-12-13T13:00:00","61.4","ND","ND","ND","113.4","0.7","ND","ND","ND","ND","664","0"],
    [66667,"2017-12-13T14:00:00","56","ND","ND","ND","92.7","0.8","ND","ND","ND","ND","664","0"],
    [66668,"2017-12-13T15:00:00","45.1","ND","ND","ND","85.5","0.6","ND","ND","ND","ND","651","0"],
    [66669,"2017-12-13T16:00:00","32","ND","ND","ND","85.0","0.2","ND","ND","ND","ND","572","0"],
    [66670,"2017-12-13T17:00:00","26.3","ND","ND","ND","59.0","0.7","ND","ND","ND","ND","416","0"],
    [66671,"2017-12-13T18:00:00","32.9","ND","ND","ND","15.4","0.6","ND","ND","ND","ND","55","0"],
    [66672,"2017-12-13T19:00:00","35.6","ND","ND","ND","2.8","0.7","ND","ND","ND","ND","0","0"],
    [66673,"2017-12-13T20:00:00","63.7","ND","ND","ND","2.8","0.2","ND","ND","ND","ND","0","0"],
    [66674,"2017-12-13T21:00:00","99.5","ND","ND","ND","1.7","0.6","ND","ND","ND","ND","0","0"],
    [66675,"2017-12-13T22:00:00","82.3","ND","ND","ND","1.5","1.6","ND","ND","ND","ND","0","0"],
    [66676,"2017-12-13T23:00:00","76.8","ND","ND","ND","1.5","1.2","ND","ND","ND","ND","0","0"],
    [66677,"2017-12-14T00:00:00","69.9","ND","ND","ND","1.6","0.9","ND","ND","ND","ND","0","0"],
    [66678,"2017-12-14T01:00:00","59.7","ND","ND","ND","1.7","0.5","ND","ND","ND","ND","0","0"],
    [66679,"2017-12-14T02:00:00","41.7","ND","ND","ND","1.2","0.9","ND","ND","ND","ND","0","0"],
    [66680,"2017-12-14T03:00:00","35.3","ND","ND","ND","1.3","0.6","ND","ND","ND","ND","0","0"],
    [66681,"2017-12-14T04:00:00","46.7","ND","ND","ND","1.2","0.8","ND","ND","ND","ND","0","0"],
    [66682,"2017-12-14T05:00:00","64.7","ND","ND","ND","1.7","0.6","ND","ND","ND","ND","0","0"],
    [66683,"2017-12-14T06:00:00","51.8","ND","ND","ND","1.0","0.5","ND","ND","ND","ND","0","0"],
    [66684,"2017-12-14T07:00:00","46.8","ND","ND","ND","1.2","0.6","ND","ND","ND","ND","73","0"],
    [66685,"2017-12-14T08:00:00","78.1","ND","ND","ND","1.6","1.2","ND","ND","ND","ND","418","0"],
    [66686,"2017-12-14T09:00:00","68","ND","ND","ND","11.1","0.6","ND","ND","ND","ND","658","0"],
    [66687,"2017-12-14T10:00:00","74.8","ND","ND","ND","27.0","0.8","ND","ND","ND","ND","657","0"],
    [66688,"2017-12-14T11:00:00","61.4","ND","ND","ND","55.2","0.4","ND","ND","ND","ND","664","0"],
    [66689,"2017-12-14T12:00:00","53.6","ND","ND","ND","93.2","0.3","ND","ND","ND","ND","664","0"],
    [66690,"2017-12-14T13:00:00","57.1","ND","ND","ND","102.5","0.7","ND","ND","ND","ND","664","0"],
    [66691,"2017-12-14T14:00:00","67","ND","ND","ND","117.1","0.2","ND","ND","ND","ND","664","0"],
    [66692,"2017-12-14T15:00:00","58.2","ND","ND","ND","72.0","0.5","ND","ND","ND","ND","654","0"],
    [66693,"2017-12-14T16:00:00","32","ND","ND","ND","27.7","0.3","ND","ND","ND","ND","618","0"],
    [66694,"2017-12-14T17:00:00","32.1","ND","ND","ND","19.3","0.3","ND","ND","ND","ND","360","0"],
    [66695,"2017-12-14T18:00:00","11.2","ND","ND","ND","12.9","0.2","ND","ND","ND","ND","79","0"],
    [66696,"2017-12-14T19:00:00","34.4","ND","ND","ND","0.6","0.1","ND","ND","ND","ND","0","0"],
    [66697,"2017-12-14T20:00:00","64.8","ND","ND","ND","0.1","0.2","ND","ND","ND","ND","0","0"],
    [66698,"2017-12-14T21:00:00","62","ND","ND","ND","0.2","0.4","ND","ND","ND","ND","0","0"],
    [66699,"2017-12-14T22:00:00","65.1","ND","ND","ND","0.3","0.7","ND","ND","ND","ND","0","0"],
    [66700,"2017-12-14T23:00:00","61.7","ND","ND","ND","0.1","0.6","ND","ND","ND","ND","0","0"],
    [66701,"2017-12-15T00:00:00","66.4","ND","ND","ND","0.0","0.4","ND","ND","ND","ND","0","0"],
    [66702,"2017-12-15T01:00:00","66.9","ND","ND","ND","0.0","0.3","ND","ND","ND","ND","0","0"],
    [66703,"2017-12-15T02:00:00","52.8","ND","ND","ND","0.0","0.4","ND","ND","ND","ND","0","0"],
    [66704,"2017-12-15T03:00:00","59.8","ND","ND","ND","0.0","0.7","ND","ND","ND","ND","0","0"],
    [66705,"2017-12-15T04:00:00","61.7","ND","ND","ND","0.0","0.5","ND","ND","ND","ND","0","0"],
    [66706,"2017-12-15T05:00:00","46.3","ND","ND","ND","0.0","0.7","ND","ND","ND","ND","0","0"],
    [66707,"2017-12-15T06:00:00","39.8","ND","ND","ND","0.0","0.5","ND","ND","ND","ND","0","0"],
    [66708,"2017-12-15T07:00:00","65.8","ND","ND","ND","0.0","0.5","ND","ND","ND","ND","74","0"],
    [66709,"2017-12-15T08:00:00","91.3","ND","ND","ND","0.6","1.0","ND","ND","ND","ND","489","0"],
    [66710,"2017-12-15T09:00:00","99.2","ND","ND","ND","4.6","1.0","ND","ND","ND","ND","616","0"],
    [66711,"2017-12-15T10:00:00","77.5","ND","ND","ND","ND","1.2","ND","ND","ND","ND","666","0"],
    [66712,"2017-12-15T11:00:00","54.1","ND","ND","ND","ND","0.7","ND","ND","ND","ND","666","0"],
    [66713,"2017-12-15T12:00:00","27.9","ND","ND","ND","83.1","0.7","ND","ND","ND","ND","666","0"],
    [66714,"2017-12-15T13:00:00","ND","ND","ND","ND","126.0","0.6","ND","ND","ND","ND","663","0"],
    [66715,"2017-12-15T14:00:00","28","ND","ND","ND","156.4","0.7","ND","ND","ND","ND","664","0"],
    [66716,"2017-12-15T15:00:00","55.9","ND","ND","ND","165.8","0.6","ND","ND","ND","ND","665","0"],
    [66717,"2017-12-15T16:00:00","38.1","ND","ND","ND","69.2","0.7","ND","ND","ND","ND","560","0"],
    [66718,"2017-12-15T17:00:00","ND","ND","ND","ND","46.1","0.4","ND","ND","ND","ND","526","0"],
    [66719,"2017-12-15T18:00:00","ND","ND","ND","ND","38.4","0.3","ND","ND","ND","ND","78","0"],
    [66720,"2017-12-15T19:00:00","ND","ND","ND","ND","19.4","0.2","ND","ND","ND","ND","0","0"],
    [66721,"2017-12-15T20:00:00","0.9","ND","ND","ND","3.8","0.5","ND","ND","ND","ND","0","0"],
    [66722,"2017-12-15T21:00:00","72.4","ND","ND","ND","1.6","1.3","ND","ND","ND","ND","0","0"],
    [66723,"2017-12-15T22:00:00","85.2","ND","ND","ND","0.9","2.5","ND","ND","ND","ND","0","0"],
    [66724,"2017-12-15T23:00:00","62.9","ND","ND","ND","0.9","1.8","ND","ND","ND","ND","0","0"],
    [66725,"2017-12-16T00:00:00","84","ND","ND","ND","0.8","2.0","ND","ND","ND","ND","0","0"],
    [66726,"2017-12-16T01:00:00","92.5","ND","ND","ND","0.6","1.5","ND","ND","ND","ND","0","0"],
    [66727,"2017-12-16T02:00:00","48.9","ND","ND","ND","0.4","1.6","ND","ND","ND","ND","0","0"],
    [66728,"2017-12-16T03:00:00","43.6","ND","ND","ND","0.4","0.9","ND","ND","ND","ND","0","0"],
    [66729,"2017-12-16T04:00:00","40.3","ND","ND","ND","0.4","0.6","ND","ND","ND","ND","0","0"],
    [66730,"2017-12-16T05:00:00","57.7","ND","ND","ND","0.4","0.5","ND","ND","ND","ND","0","0"],
    [66731,"2017-12-16T06:00:00","64.8","ND","ND","ND","0.5","0.7","ND","ND","ND","ND","0","0"],
    [66732,"2017-12-16T07:00:00","76.7","ND","ND","ND","0.7","1.0","ND","ND","ND","ND","67","0"],
    [66733,"2017-12-16T08:00:00","93","ND","ND","ND","1.1","1.4","ND","ND","ND","ND","397","0"],
    [66734,"2017-12-16T09:00:00","134.3","ND","ND","ND","7.6","0.6","ND","ND","ND","ND","662","0"],
    [66735,"2017-12-16T10:00:00","118.8","ND","ND","ND","41.1","0.8","ND","ND","ND","ND","664","0"],
    [66736,"2017-12-16T11:00:00","85.6","ND","ND","ND","68.6","0.7","ND","ND","ND","ND","628","0"],
    [66737,"2017-12-16T12:00:00","65.8","ND","ND","ND","87.0","0.6","ND","ND","ND","ND","665","0"],
    [66738,"2017-12-16T13:00:00","59.2","ND","ND","ND","109.7","0.6","ND","ND","ND","ND","638","0"],
    [66739,"2017-12-16T14:00:00","57.1","ND","ND","ND","99.8","0.3","ND","ND","ND","ND","665","0"],
    [66740,"2017-12-16T15:00:00","57","ND","ND","ND","65.7","0.9","ND","ND","ND","ND","663","0"],
    [66741,"2017-12-16T16:00:00","30","ND","ND","ND","36.0","0.4","ND","ND","ND","ND","653","0"],
    [66742,"2017-12-16T17:00:00","20.7","ND","ND","ND","32.4","0.4","ND","ND","ND","ND","556","0"],
    [66743,"2017-12-16T18:00:00","19.7","ND","ND","ND","24.3","0.3","ND","ND","ND","ND","136","0"],
    [66744,"2017-12-16T19:00:00","3.4","ND","ND","ND","4.9","0.3","ND","ND","ND","ND","0","0"],
    [66745,"2017-12-16T20:00:00","ND","ND","ND","ND","1.6","0.1","ND","ND","ND","ND","0","0"],
    [66746,"2017-12-16T21:00:00","11.2","ND","ND","ND","0.9","0.6","ND","ND","ND","ND","0","0"],
    [66747,"2017-12-16T22:00:00","43.1","ND","ND","ND","0.7","1.4","ND","ND","ND","ND","0","0"],
    [66748,"2017-12-16T23:00:00","40","ND","ND","ND","0.6","1.2","ND","ND","ND","ND","0","0"],
    [66749,"2017-12-17T00:00:00","31","ND","ND","ND","0.6","0.5","ND","ND","ND","ND","0","0"],
    [66750,"2017-12-17T01:00:00","41.7","ND","ND","ND","0.5","0.5","ND","ND","ND","ND","0","0"],
    [66751,"2017-12-17T02:00:00","46.5","ND","ND","ND","0.5","0.9","ND","ND","ND","ND","0","0"],
    [66752,"2017-12-17T03:00:00","54.5","ND","ND","ND","0.5","0.8","ND","ND","ND","ND","0","0"],
    [66753,"2017-12-17T04:00:00","57.5","ND","ND","ND","0.4","0.8","ND","ND","ND","ND","0","0"],
    [66754,"2017-12-17T05:00:00","36.7","ND","ND","ND","0.4","0.8","ND","ND","ND","ND","0","0"],
    [66755,"2017-12-17T06:00:00","49.4","ND","ND","ND","0.5","0.9","ND","ND","ND","ND","0","0"],
    [66756,"2017-12-17T07:00:00","67","ND","ND","ND","0.6","1.4","ND","ND","ND","ND","69","0"],
    [66757,"2017-12-17T08:00:00","81.3","ND","ND","ND","2.8","1.4","ND","ND","ND","ND","547","0"],
    [66758,"2017-12-17T09:00:00","79.6","ND","ND","ND","16.7","0.4","ND","ND","ND","ND","644","0"],
    [66759,"2017-12-17T10:00:00","70.3","ND","ND","ND","32.1","0.8","ND","ND","ND","ND","664","0"],
    [66760,"2017-12-17T11:00:00","74.4","ND","ND","ND","61.8","0.4","ND","ND","ND","ND","662","0"],
    [66761,"2017-12-17T12:00:00","65.8","ND","ND","ND","92.2","0.5","ND","ND","ND","ND","665","0"],
    [66762,"2017-12-17T13:00:00","52.9","ND","ND","ND","106.7","0.4","ND","ND","ND","ND","665","0"],
    [66763,"2017-12-17T14:00:00","53.9","ND","ND","ND","96.8","0.5","ND","ND","ND","ND","637","0"],
    [66764,"2017-12-17T15:00:00","30.3","ND","ND","ND","43.4","0.3","ND","ND","ND","ND","665","0"],
    [66765,"2017-12-17T16:00:00","24.4","ND","ND","ND","34.7","0.3","ND","ND","ND","ND","665","0"],
    [66766,"2017-12-17T17:00:00","23.9","ND","ND","ND","34.5","0.4","ND","ND","ND","ND","587","0"],
    [66767,"2017-12-17T18:00:00","12.1","ND","ND","ND","25.7","0.2","ND","ND","ND","ND","125","0"],
    [66768,"2017-12-17T19:00:00","0.5","ND","ND","ND","12.7","0.2","ND","ND","ND","ND","0","0"],
    [66769,"2017-12-17T20:00:00","ND","ND","ND","ND","0.8","0.5","ND","ND","ND","ND","0","0"],
    [66770,"2017-12-17T21:00:00","16.3","ND","ND","ND","0.9","3.6","ND","ND","ND","ND","0","0"],
    [66771,"2017-12-17T22:00:00","19","ND","ND","ND","0.8","1.6","ND","ND","ND","ND","0","0"],
    [66772,"2017-12-17T23:00:00","27.5","ND","ND","ND","1.0","1.1","ND","ND","ND","ND","0","0"],
    [66773,"2017-12-18T00:00:00","33.9","ND","ND","ND","0.6","0.9","ND","ND","ND","ND","0","0"],
    [66774,"2017-12-18T01:00:00","29","ND","ND","ND","0.7","1.1","ND","ND","ND","ND","0","0"],
    [66775,"2017-12-18T02:00:00","30.6","ND","ND","ND","0.5","1.0","ND","ND","ND","ND","0","0"],
    [66776,"2017-12-18T03:00:00","19.6","ND","ND","ND","0.5","0.7","ND","ND","ND","ND","0","0"],
    [66777,"2017-12-18T04:00:00","18.4","ND","ND","ND","0.5","0.3","ND","ND","ND","ND","0","0"],
    [66778,"2017-12-18T05:00:00","15.8","ND","ND","ND","0.6","0.6","ND","ND","ND","ND","0","0"],
    [66779,"2017-12-18T06:00:00","26.3","ND","ND","ND","0.4","0.8","ND","ND","ND","ND","0","0"],
    [66780,"2017-12-18T07:00:00","55.5","ND","ND","ND","0.6","0.6","ND","ND","ND","ND","70","0"],
    [66781,"2017-12-18T08:00:00","100.1","ND","ND","ND","1.0","1.3","ND","ND","ND","ND","354","0"],
    [66782,"2017-12-18T09:00:00","148.6","ND","ND","ND","4.8","2.0","ND","ND","ND","ND","624","0"],
    [66783,"2017-12-18T10:00:00","131.1","ND","ND","ND","41.6","1.1","ND","ND","ND","ND","664","0"],
    [66784,"2017-12-18T11:00:00","94.9","ND","ND","ND","77.3","0.7","ND","ND","ND","ND","656","0"],
    [66785,"2017-12-18T12:00:00","72.9","ND","ND","ND","96.0","0.7","ND","ND","ND","ND","658","0"],
    [66786,"2017-12-18T13:00:00","54.7","ND","ND","ND","112.8","0.4","ND","ND","ND","ND","665","0"],
    [66787,"2017-12-18T14:00:00","56.9","ND","ND","ND","121.7","0.3","ND","ND","ND","ND","637","0"],
    [66788,"2017-12-18T15:00:00","49.1","ND","ND","ND","49.4","0.3","ND","ND","ND","ND","583","0"],
    [66789,"2017-12-18T16:00:00","28.4","ND","ND","ND","32.2","0.2","ND","ND","ND","ND","665","0"],
    [66790,"2017-12-18T17:00:00","24.6","ND","ND","ND","33.8","0.4","ND","ND","ND","ND","585","0"],
    [66791,"2017-12-18T18:00:00","18.5","ND","ND","ND","17.2","0.3","ND","ND","ND","ND","87","0"],
    [66792,"2017-12-18T19:00:00","1.4","ND","ND","ND","3.8","0.6","ND","ND","ND","ND","0","0"],
    [66793,"2017-12-18T20:00:00","3.7","ND","ND","ND","4.1","0.3","ND","ND","ND","ND","0","0"],
    [66794,"2017-12-18T21:00:00","29.8","ND","ND","ND","1.0","0.3","ND","ND","ND","ND","0","0"],
    [66795,"2017-12-18T22:00:00","39.7","ND","ND","ND","1.3","2.2","ND","ND","ND","ND","0","0"],
    [66796,"2017-12-18T23:00:00","80.3","ND","ND","ND","1.0","1.2","ND","ND","ND","ND","0","0"],
    [66797,"2017-12-19T00:00:00","63.4","ND","ND","ND","0.7","1.1","ND","ND","ND","ND","0","0"],
    [66798,"2017-12-19T01:00:00","44.7","ND","ND","ND","0.7","1.1","ND","ND","ND","ND","0","0"],
    [66799,"2017-12-19T02:00:00","53.3","ND","ND","ND","0.7","1.4","ND","ND","ND","ND","0","0"],
    [66800,"2017-12-19T03:00:00","35.6","ND","ND","ND","0.6","0.8","ND","ND","ND","ND","0","0"],
    [66801,"2017-12-19T04:00:00","47.6","ND","ND","ND","0.6","0.5","ND","ND","ND","ND","0","0"],
    [66802,"2017-12-19T05:00:00","44.4","ND","ND","ND","0.5","0.6","ND","ND","ND","ND","0","0"],
    [66803,"2017-12-19T06:00:00","34.5","ND","ND","ND","0.7","0.6","ND","ND","ND","ND","0","0"],
    [66804,"2017-12-19T07:00:00","39.1","ND","ND","ND","0.9","0.5","ND","ND","ND","ND","169","0"],
    [66805,"2017-12-19T08:00:00","113.5","ND","ND","ND","1.3","1.4","ND","ND","ND","ND","443","0"],
    [66806,"2017-12-19T09:00:00","146.2","ND","ND","ND","4.0","1.6","ND","ND","ND","ND","553","0"],
    [66807,"2017-12-19T10:00:00","124.6","ND","ND","ND","17.5","1.0","ND","ND","ND","ND","664","0"],
    [66808,"2017-12-19T11:00:00","90.7","ND","ND","ND","41.9","0.7","ND","ND","ND","ND","664","0"],
    [66809,"2017-12-19T12:00:00","47.8","ND","ND","ND","61.3","0.3","ND","ND","ND","ND","664","0"],
    [66810,"2017-12-19T13:00:00","46.8","ND","ND","ND","72.5","0.5","ND","ND","ND","ND","665","0"],
    [66811,"2017-12-19T14:00:00","47.8","ND","ND","ND","63.6","0.6","ND","ND","ND","ND","647","0"],
    [66812,"2017-12-19T15:00:00","27.4","ND","ND","ND","32.3","0.3","ND","ND","ND","ND","662","0"],
    [66813,"2017-12-19T16:00:00","25.9","ND","ND","ND","32.0","0.3","ND","ND","ND","ND","658","0"],
    [66814,"2017-12-19T17:00:00","21.5","ND","ND","ND","23.5","0.4","ND","ND","ND","ND","603","0"],
    [66815,"2017-12-19T18:00:00","14.9","ND","ND","ND","14.0","0.3","ND","ND","ND","ND","146","0"],
    [66816,"2017-12-19T19:00:00","0.3","ND","ND","ND","5.6","0.3","ND","ND","ND","ND","0","0"],
    [66817,"2017-12-19T20:00:00","8.6","ND","ND","ND","1.1","0.2","ND","ND","ND","ND","0","0"],
    [66818,"2017-12-19T21:00:00","29.3","ND","ND","ND","0.9","1.4","ND","ND","ND","ND","0","0"],
    [66819,"2017-12-19T22:00:00","29.4","ND","ND","ND","1.1","1.4","ND","ND","ND","ND","0","0"],
    [66820,"2017-12-19T23:00:00","37.2","ND","ND","ND","1.2","0.9","ND","ND","ND","ND","0","0"],
    [66821,"2017-12-20T00:00:00","44.6","ND","ND","ND","0.9","1.5","ND","ND","ND","ND","0","0"],
    [66822,"2017-12-20T01:00:00","33.6","ND","ND","ND","0.7","2.1","ND","ND","ND","ND","0","0"],
    [66823,"2017-12-20T02:00:00","28.9","ND","ND","ND","0.7","1.1","ND","ND","ND","ND","0","0"],
    [66824,"2017-12-20T03:00:00","35.9","ND","ND","ND","0.5","0.9","ND","ND","ND","ND","0","0"],
    [66825,"2017-12-20T04:00:00","33.7","ND","ND","ND","0.6","1.2","ND","ND","ND","ND","0","0"],
    [66826,"2017-12-20T05:00:00","41.4","ND","ND","ND","0.6","0.7","ND","ND","ND","ND","0","0"],
    [66827,"2017-12-20T06:00:00","52.5","ND","ND","ND","0.5","0.8","ND","ND","ND","ND","0","0"],
    [66828,"2017-12-20T07:00:00","56","ND","ND","ND","0.8","0.9","ND","ND","ND","ND","89","0"],
    [66829,"2017-12-20T08:00:00","69.7","ND","ND","ND","1.6","0.9","ND","ND","ND","ND","373","0"],
    [66830,"2017-12-20T09:00:00","99.4","ND","ND","ND","4.5","1.2","ND","ND","ND","ND","624","0"],
    [66831,"2017-12-20T10:00:00","116.9","ND","ND","ND","10.8","0.9","ND","ND","ND","ND","664","0"],
    [66832,"2017-12-20T11:00:00","116.8","ND","ND","ND","34.6","0.6","ND","ND","ND","ND","632","0"],
    [66833,"2017-12-20T12:00:00","64.8","ND","ND","ND","55.3","0.5","ND","ND","ND","ND","663","0"],
    [66834,"2017-12-20T13:00:00","30.1","ND","ND","ND","70.2","0.3","ND","ND","ND","ND","643","0"],
    [66835,"2017-12-20T14:00:00","36.2","ND","ND","ND","62.3","0.3","ND","ND","ND","ND","662","0"],
    [66836,"2017-12-20T15:00:00","38.4","ND","ND","ND","27.9","0.5","ND","ND","ND","ND","465","0"],
    [66837,"2017-12-20T16:00:00","42.8","ND","ND","ND","25.9","0.3","ND","ND","ND","ND","505","0"],
    [66838,"2017-12-20T17:00:00","29.6","ND","ND","ND","31.5","0.3","ND","ND","ND","ND","599","0"],
    [66839,"2017-12-20T18:00:00","23.9","ND","ND","ND","18.5","0.3","ND","ND","ND","ND","145","0"],
    [66840,"2017-12-20T19:00:00","11.1","ND","ND","ND","7.8","0.2","ND","ND","ND","ND","0","0"],
    [66841,"2017-12-20T20:00:00","20.2","ND","ND","ND","2.5","0.3","ND","ND","ND","ND","0","0"],
    [66842,"2017-12-20T21:00:00","40.2","ND","ND","ND","2.3","1.2","ND","ND","ND","ND","0","0"],
    [66843,"2017-12-20T22:00:00","46.3","ND","ND","ND","2.2","2.3","ND","ND","ND","ND","0","0"],
    [66844,"2017-12-20T23:00:00","29.2","ND","ND","ND","2.4","1.8","ND","ND","ND","ND","0","0"],
    [66845,"2017-12-21T00:00:00","36","ND","ND","ND","2.2","2.2","ND","ND","ND","ND","0","0"],
    [66846,"2017-12-21T01:00:00","39","ND","ND","ND","2.2","1.2","ND","ND","ND","ND","0","0"],
    [66847,"2017-12-21T02:00:00","34.1","ND","ND","ND","2.0","1.5","ND","ND","ND","ND","0","0"],
    [66848,"2017-12-21T03:00:00","25","ND","ND","ND","2.2","1.1","ND","ND","ND","ND","0","0"],
    [66849,"2017-12-21T04:00:00","28","ND","ND","ND","2.0","0.7","ND","ND","ND","ND","0","0"],
    [66850,"2017-12-21T05:00:00","34.7","ND","ND","ND","1.9","0.8","ND","ND","ND","ND","0","0"],
    [66851,"2017-12-21T06:00:00","43.5","ND","ND","ND","1.7","0.7","ND","ND","ND","ND","0","0"],
    [66852,"2017-12-21T07:00:00","71.2","ND","ND","ND","2.2","1.0","ND","ND","ND","ND","51","0"],
    [66853,"2017-12-21T08:00:00","90.4","ND","ND","ND","2.3","0.7","ND","ND","ND","ND","244","0"],
    [66854,"2017-12-21T09:00:00","192.7","ND","ND","ND","3.0","0.8","ND","ND","ND","ND","519","0"],
    [66855,"2017-12-21T10:00:00","127.6","ND","ND","ND","24.7","1.0","ND","ND","ND","ND","664","0"],
    [66856,"2017-12-21T11:00:00","93.5","ND","ND","ND","55.1","0.7","ND","ND","ND","ND","665","0"],
    [66857,"2017-12-21T12:00:00","60.2","ND","ND","ND","41.0","0.5","ND","ND","ND","ND","587","0"],
    [66858,"2017-12-21T13:00:00","36.9","ND","ND","ND","46.5","0.5","ND","ND","ND","ND","661","0"],
    [66859,"2017-12-21T14:00:00","36","ND","ND","ND","57.4","0.5","ND","ND","ND","ND","653","0"],
    [66860,"2017-12-21T15:00:00","32.3","ND","ND","ND","44.5","0.5","ND","ND","ND","ND","588","0"],
    [66861,"2017-12-21T16:00:00","17.2","ND","ND","ND","27.8","0.7","ND","ND","ND","ND","653","0"],
    [66862,"2017-12-21T17:00:00","27","ND","ND","ND","23.7","0.3","ND","ND","ND","ND","537","0"],
    [66863,"2017-12-21T18:00:00","13.6","ND","ND","ND","18.5","0.4","ND","ND","ND","ND","134","0"],
    [66864,"2017-12-21T19:00:00","3.8","ND","ND","ND","2.8","0.3","ND","ND","ND","ND","0","0"],
    [66865,"2017-12-21T20:00:00","0.6","ND","ND","ND","9.3","0.2","ND","ND","ND","ND","0","0"],
    [66866,"2017-12-21T21:00:00","ND","ND","ND","ND","8.7","0.4","ND","ND","ND","ND","0","0"],
    [66867,"2017-12-21T22:00:00","4.4","ND","ND","ND","2.5","0.4","ND","ND","ND","ND","0","0"],
    [66868,"2017-12-21T23:00:00","2.6","ND","ND","ND","3.0","0.4","ND","ND","ND","ND","0","0"],
    [66869,"2017-12-22T00:00:00","10.3","ND","ND","ND","2.6","0.4","ND","ND","ND","ND","0","0"],
    [66870,"2017-12-22T01:00:00","20.5","ND","ND","ND","2.3","0.5","ND","ND","ND","ND","0","0"],
    [66871,"2017-12-22T02:00:00","38.6","ND","ND","ND","2.4","0.6","ND","ND","ND","ND","0","0"],
    [66872,"2017-12-22T03:00:00","29.7","ND","ND","ND","2.6","0.5","ND","ND","ND","ND","0","0"],
    [66873,"2017-12-22T04:00:00","23.3","ND","ND","ND","2.2","0.4","ND","ND","ND","ND","0","0"],
    [66874,"2017-12-22T05:00:00","28.7","ND","ND","ND","2.2","0.6","ND","ND","ND","ND","0","0"],
    [66875,"2017-12-22T06:00:00","41.5","ND","ND","ND","2.0","0.8","ND","ND","ND","ND","0","0"],
    [66876,"2017-12-22T07:00:00","60.2","ND","ND","ND","1.7","0.9","ND","ND","ND","ND","93","0"],
    [66877,"2017-12-22T08:00:00","80.3","ND","ND","ND","2.9","0.5","ND","ND","ND","ND","449","0"],
    [66878,"2017-12-22T09:00:00","84.7","ND","ND","ND","6.2","0.9","ND","ND","ND","ND","645","0"],
    [66879,"2017-12-22T10:00:00","73.3","ND","ND","ND","18.3","0.9","ND","ND","ND","ND","664","0"],
    [66880,"2017-12-22T11:00:00","41.7","ND","ND","ND","37.1","0.5","ND","ND","ND","ND","661","0"],
    [66881,"2017-12-22T12:00:00","44.4","ND","ND","ND","48.6","0.7","ND","ND","ND","ND","636","0"],
    [66882,"2017-12-22T13:00:00","84","ND","ND","ND","60.8","0.3","ND","ND","ND","ND","655","0"],
    [66883,"2017-12-22T14:00:00","49.5","ND","ND","ND","67.2","0.4","ND","ND","ND","ND","655","0"],
    [66884,"2017-12-22T15:00:00","25.6","ND","ND","ND","32.4","0.2","ND","ND","ND","ND","480","0"],
    [66885,"2017-12-22T16:00:00","9.5","ND","ND","ND","23.6","0.2","ND","ND","ND","ND","664","0"],
    [66886,"2017-12-22T17:00:00","25.2","ND","ND","ND","27.9","0.3","ND","ND","ND","ND","606","0"],
    [66887,"2017-12-22T18:00:00","20.9","ND","ND","ND","28.9","0.3","ND","ND","ND","ND","182","0"],
    [66888,"2017-12-22T19:00:00","1.5","ND","ND","ND","15.4","0.4","ND","ND","ND","ND","0","0"],
    [66889,"2017-12-22T20:00:00","2.2","ND","ND","ND","5.3","0.3","ND","ND","ND","ND","0","0"],
    [66890,"2017-12-22T21:00:00","22.6","ND","ND","ND","1.2","0.5","ND","ND","ND","ND","0","0"],
    [66891,"2017-12-22T22:00:00","31.9","ND","ND","ND","1.4","0.4","ND","ND","ND","ND","0","0"],
    [66892,"2017-12-22T23:00:00","42.3","ND","ND","ND","1.3","0.8","ND","ND","ND","ND","0","0"],
    [66893,"2017-12-23T00:00:00","36.8","ND","ND","ND","1.4","0.5","ND","ND","ND","ND","0","0"],
    [66894,"2017-12-23T01:00:00","30.9","ND","ND","ND","1.4","0.7","ND","ND","ND","ND","0","0"],
    [66895,"2017-12-23T02:00:00","26.3","ND","ND","ND","1.3","0.5","ND","ND","ND","ND","0","0"],
    [66896,"2017-12-23T03:00:00","28.9","ND","ND","ND","1.3","0.6","ND","ND","ND","ND","0","0"],
    [66897,"2017-12-23T04:00:00","35.8","ND","ND","ND","0.8","0.8","ND","ND","ND","ND","0","0"],
    [66898,"2017-12-23T05:00:00","28.5","ND","ND","ND","0.9","0.3","ND","ND","ND","ND","0","0"],
    [66899,"2017-12-23T06:00:00","33.9","ND","ND","ND","1.1","0.3","ND","ND","ND","ND","0","0"],
    [66900,"2017-12-23T07:00:00","46.6","ND","ND","ND","1.2","0.5","ND","ND","ND","ND","69","0"],
    [66901,"2017-12-23T08:00:00","73.3","ND","ND","ND","1.5","0.5","ND","ND","ND","ND","236","0"],
    [66902,"2017-12-23T09:00:00","78.7","ND","ND","ND","8.0","0.9","ND","ND","ND","ND","635","0"],
    [66903,"2017-12-23T10:00:00","99.4","ND","ND","ND","32.4","1.0","ND","ND","ND","ND","664","0"],
    [66904,"2017-12-23T11:00:00","76.4","ND","ND","ND","58.3","0.7","ND","ND","ND","ND","658","0"],
    [66905,"2017-12-23T12:00:00","56.4","ND","ND","ND","82.8","0.4","ND","ND","ND","ND","659","0"],
    [66906,"2017-12-23T13:00:00","50.6","ND","ND","ND","92.1","0.6","ND","ND","ND","ND","658","0"],
    [66907,"2017-12-23T14:00:00","50.7","ND","ND","ND","78.8","0.5","ND","ND","ND","ND","659","0"],
    [66908,"2017-12-23T15:00:00","36.1","ND","ND","ND","48.1","0.6","ND","ND","ND","ND","582","0"],
    [66909,"2017-12-23T16:00:00","19","ND","ND","ND","36.2","0.3","ND","ND","ND","ND","581","0"],
    [66910,"2017-12-23T17:00:00","13.2","ND","ND","ND","34.4","0.2","ND","ND","ND","ND","394","0"],
    [66911,"2017-12-23T18:00:00","2.1","ND","ND","ND","24.3","0.5","ND","ND","ND","ND","81","0"],
    [66912,"2017-12-23T19:00:00","ND","ND","ND","ND","13.5","0.4","ND","ND","ND","ND","0","0"],
    [66913,"2017-12-23T20:00:00","6.1","ND","ND","ND","2.6","0.2","ND","ND","ND","ND","0","0"],
    [66914,"2017-12-23T21:00:00","14.3","ND","ND","ND","1.9","0.6","ND","ND","ND","ND","0","0"],
    [66915,"2017-12-23T22:00:00","15.6","ND","ND","ND","2.2","0.3","ND","ND","ND","ND","0","0"],
    [66916,"2017-12-23T23:00:00","16.2","ND","ND","ND","1.7","0.4","ND","ND","ND","ND","0","0"],
    [66917,"2017-12-24T00:00:00","19.7","ND","ND","ND","2.3","0.2","ND","ND","ND","ND","0","0"],
    [66918,"2017-12-24T01:00:00","19","ND","ND","ND","2.4","0.7","ND","ND","ND","ND","0","0"],
    [66919,"2017-12-24T02:00:00","20.9","ND","ND","ND","2.9","0.6","ND","ND","ND","ND","0","0"],
    [66920,"2017-12-24T03:00:00","21.8","ND","ND","ND","2.6","0.3","ND","ND","ND","ND","0","0"],
    [66921,"2017-12-24T04:00:00","20.9","ND","ND","ND","2.5","0.6","ND","ND","ND","ND","0","0"],
    [66922,"2017-12-24T05:00:00","22.3","ND","ND","ND","2.6","0.7","ND","ND","ND","ND","0","0"],
    [66923,"2017-12-24T06:00:00","27.8","ND","ND","ND","1.9","0.8","ND","ND","ND","ND","0","0"],
    [66924,"2017-12-24T07:00:00","40.7","ND","ND","ND","1.8","0.7","ND","ND","ND","ND","73","0"],
    [66925,"2017-12-24T08:00:00","55.8","ND","ND","ND","2.4","0.5","ND","ND","ND","ND","221","0"],
    [66926,"2017-12-24T09:00:00","56.4","ND","ND","ND","11.2","0.6","ND","ND","ND","ND","540","0"],
    [66927,"2017-12-24T10:00:00","60.2","ND","ND","ND","41.2","0.6","ND","ND","ND","ND","660","0"],
    [66928,"2017-12-24T11:00:00","69.5","ND","ND","ND","56.3","0.5","ND","ND","ND","ND","663","0"],
    [66929,"2017-12-24T12:00:00","56.4","ND","ND","ND","54.2","0.4","ND","ND","ND","ND","504","0"],
    [66930,"2017-12-24T13:00:00","33.3","ND","ND","ND","34.5","0.4","ND","ND","ND","ND","664","0"],
    [66931,"2017-12-24T14:00:00","19.6","ND","ND","ND","46.1","0.2","ND","ND","ND","ND","664","0"],
    [66932,"2017-12-24T15:00:00","25.2","ND","ND","ND","37.5","0.5","ND","ND","ND","ND","664","0"],
    [66933,"2017-12-24T16:00:00","15.1","ND","ND","ND","30.0","0.3","ND","ND","ND","ND","410","0"],
    [66934,"2017-12-24T17:00:00","22.7","ND","ND","ND","18.0","0.4","ND","ND","ND","ND","64","4.06"],
    [66935,"2017-12-24T18:00:00","12.5","ND","ND","ND","4.2","0.3","ND","ND","ND","ND","47","1.78"],
    [66936,"2017-12-24T19:00:00","14.5","ND","ND","ND","1.7","0.8","ND","ND","ND","ND","0","0.25"],
    [66937,"2017-12-24T20:00:00","26.1","ND","ND","ND","3.3","0.5","ND","ND","ND","ND","0","0"],
    [66938,"2017-12-24T21:00:00","22.2","ND","ND","ND","3.0","0.2","ND","ND","ND","ND","0","0"],
    [66939,"2017-12-24T22:00:00","23.6","ND","ND","ND","1.5","0.2","ND","ND","ND","ND","0","0"],
    [66940,"2017-12-24T23:00:00","23.7","ND","ND","ND","3.7","0.1","ND","ND","ND","ND","0","0"],
    [66941,"2017-12-25T00:00:00","19.3","ND","ND","ND","8.9","0.4","ND","ND","ND","ND","0","0"],
    [66942,"2017-12-25T01:00:00","31.5","ND","ND","ND","5.0","0.3","ND","ND","ND","ND","0","0"],
    [66943,"2017-12-25T02:00:00","34.2","ND","ND","ND","2.1","0.3","ND","ND","ND","ND","0","0"],
    [66944,"2017-12-25T03:00:00","37.2","ND","ND","ND","0.4","0.4","ND","ND","ND","ND","0","0"],
    [66945,"2017-12-25T04:00:00","30.7","ND","ND","ND","0.2","0.2","ND","ND","ND","ND","0","0"],
    [66946,"2017-12-25T05:00:00","29.5","ND","ND","ND","0.3","0.6","ND","ND","ND","ND","0","0"],
    [66947,"2017-12-25T06:00:00","22.3","ND","ND","ND","0.3","0.4","ND","ND","ND","ND","0","0"],
    [66948,"2017-12-25T07:00:00","18.1","ND","ND","ND","0.3","0.5","ND","ND","ND","ND","9","0"],
    [66949,"2017-12-25T08:00:00","31.4","ND","ND","ND","0.4","0.4","ND","ND","ND","ND","59","0"],
    [66950,"2017-12-25T09:00:00","32.2","ND","ND","ND","1.4","0.7","ND","ND","ND","ND","264","0.51"],
    [66951,"2017-12-25T10:00:00","26.6","ND","ND","ND","5.7","0.3","ND","ND","ND","ND","533","0.25"],
    [66952,"2017-12-25T11:00:00","31.2","ND","ND","ND","11.9","0.4","ND","ND","ND","ND","624","0"],
    [66953,"2017-12-25T12:00:00","15.6","ND","ND","ND","34.5","0.3","ND","ND","ND","ND","664","0"],
    [66954,"2017-12-25T13:00:00","17.2","ND","ND","ND","45.5","0.3","ND","ND","ND","ND","644","0"],
    [66955,"2017-12-25T14:00:00","11.9","ND","ND","ND","16.6","0.2","ND","ND","ND","ND","640","0"],
    [66956,"2017-12-25T15:00:00","ND","ND","ND","ND","17.1","0.3","ND","ND","ND","ND","664","0"],
    [66957,"2017-12-25T16:00:00","1.6","ND","ND","ND","18.2","0.2","ND","ND","ND","ND","658","0"],
    [66958,"2017-12-25T17:00:00","3.5","ND","ND","ND","18.1","0.1","ND","ND","ND","ND","311","0"],
    [66959,"2017-12-25T18:00:00","ND","ND","ND","ND","14.8","0.2","ND","ND","ND","ND","119","0"],
    [66960,"2017-12-25T19:00:00","0.3","ND","ND","ND","8.2","0.2","ND","ND","ND","ND","0","0"],
    [66961,"2017-12-25T20:00:00","24.5","ND","ND","ND","2.3","0.3","ND","ND","ND","ND","0","1.27"],
    [66962,"2017-12-25T21:00:00","6.3","ND","ND","ND","4.4","0.3","ND","ND","ND","ND","0","8.38"],
    [66963,"2017-12-25T22:00:00","12.4","ND","ND","ND","1.6","0.2","ND","ND","ND","ND","0","5.84"],
    [66964,"2017-12-25T23:00:00","0.1","ND","ND","ND","1.1","0.3","ND","ND","ND","ND","0","2.79"],
    [66965,"2017-12-26T00:00:00","ND","ND","ND","ND","0.9","0.3","ND","ND","ND","ND","0","0.76"],
    [66966,"2017-12-26T01:00:00","0.1","ND","ND","ND","0.7","0.7","ND","ND","ND","ND","0","0"],
    [66967,"2017-12-26T02:00:00","7.6","ND","ND","ND","0.5","1.0","ND","ND","ND","ND","0","1.27"],
    [66968,"2017-12-26T03:00:00","17.7","ND","ND","ND","0.4","1.7","ND","ND","ND","ND","0","1.78"],
    [66969,"2017-12-26T04:00:00","13.4","ND","ND","ND","0.7","0.8","ND","ND","ND","ND","0","1.52"],
    [66970,"2017-12-26T05:00:00","2.6","ND","ND","ND","0.5","0.5","ND","ND","ND","ND","0","0.51"],
    [66971,"2017-12-26T06:00:00","8.9","ND","ND","ND","0.3","0.4","ND","ND","ND","ND","0","0"],
    [66972,"2017-12-26T07:00:00","16.6","ND","ND","ND","0.3","0.8","ND","ND","ND","ND","32","0.25"],
    [66973,"2017-12-26T08:00:00","19.9","ND","ND","ND","0.3","0.3","ND","ND","ND","ND","173","0.25"],
    [66974,"2017-12-26T09:00:00","21.2","ND","ND","ND","1.2","0.3","ND","ND","ND","ND","471","0"],
    [66975,"2017-12-26T10:00:00","30.7","ND","ND","ND","8.0","0.5","ND","ND","ND","ND","661","0"],
    [66976,"2017-12-26T11:00:00","40","ND","ND","ND","24.3","0.2","ND","ND","ND","ND","660","0"],
    [66977,"2017-12-26T12:00:00","39.9","ND","ND","ND","48.5","0.7","ND","ND","ND","ND","664","0"],
    [66978,"2017-12-26T13:00:00","45.3","ND","ND","ND","59.9","0.3","ND","ND","ND","ND","663","0"],
    [66979,"2017-12-26T14:00:00","51.2","ND","ND","ND","52.3","0.5","ND","ND","ND","ND","659","0"],
    [66980,"2017-12-26T15:00:00","31.4","ND","ND","ND","52.4","0.2","ND","ND","ND","ND","628","0"],
    [66981,"2017-12-26T16:00:00","40.1","ND","ND","ND","37.3","0.3","ND","ND","ND","ND","213","4.32"],
    [66982,"2017-12-26T17:00:00","17.2","ND","ND","ND","13.7","0.3","ND","ND","ND","ND","175","1.02"],
    [66983,"2017-12-26T18:00:00","ND","ND","ND","ND","7.9","0.4","ND","ND","ND","ND","127","0.25"],
    [66984,"2017-12-26T19:00:00","10.8","ND","ND","ND","0.6","0.2","ND","ND","ND","ND","6","0"],
    [66985,"2017-12-26T20:00:00","31.7","ND","ND","ND","0.4","0.1","ND","ND","ND","ND","0","0"],
    [66986,"2017-12-26T21:00:00","32.3","ND","ND","ND","1.0","0.3","ND","ND","ND","ND","0","0"],
    [66987,"2017-12-26T22:00:00","17.3","ND","ND","ND","0.3","0.4","ND","ND","ND","ND","0","0"],
    [66988,"2017-12-26T23:00:00","27.8","ND","ND","ND","0.3","0.2","ND","ND","ND","ND","0","0"],
    [66989,"2017-12-27T00:00:00","43.3","ND","ND","ND","0.3","0.4","ND","ND","ND","ND","0","0"],
    [66990,"2017-12-27T01:00:00","54.4","ND","ND","ND","0.4","0.4","ND","ND","ND","ND","0","0"],
    [66991,"2017-12-27T02:00:00","58.1","ND","ND","ND","0.4","0.3","ND","ND","ND","ND","0","0"],
    [66992,"2017-12-27T03:00:00","47.5","ND","ND","ND","0.4","0.6","ND","ND","ND","ND","0","0"],
    [66993,"2017-12-27T04:00:00","37","ND","ND","ND","0.3","0.5","ND","ND","ND","ND","0","0"],
    [66994,"2017-12-27T05:00:00","48.8","ND","ND","ND","0.3","0.5","ND","ND","ND","ND","0","0"],
    [66995,"2017-12-27T06:00:00","47.9","ND","ND","ND","0.4","0.7","ND","ND","ND","ND","0","0"],
    [66996,"2017-12-27T07:00:00","59.7","ND","ND","ND","0.4","0.6","ND","ND","ND","ND","50","0"],
    [66997,"2017-12-27T08:00:00","56.9","ND","ND","ND","0.5","0.5","ND","ND","ND","ND","187","0"],
    [66998,"2017-12-27T09:00:00","86.9","ND","ND","ND","0.6","0.6","ND","ND","ND","ND","332","0"],
    [66999,"2017-12-27T10:00:00","92","ND","ND","ND","3.0","0.4","ND","ND","ND","ND","609","0"],
    [67000,"2017-12-27T11:00:00","54.1","ND","ND","ND","19.2","0.3","ND","ND","ND","ND","664","0"],
    [67001,"2017-12-27T12:00:00","38.8","ND","ND","ND","28.3","0.2","ND","ND","ND","ND","664","0"],
    [67002,"2017-12-27T13:00:00","37.6","ND","ND","ND","42.1","0.6","ND","ND","ND","ND","664","0"],
    [67003,"2017-12-27T14:00:00","28.7","ND","ND","ND","53.8","0.5","ND","ND","ND","ND","663","0"],
    [67004,"2017-12-27T15:00:00","28.4","ND","ND","ND","30.2","0.5","ND","ND","ND","ND","587","0"],
    [67005,"2017-12-27T16:00:00","13","ND","ND","ND","37.6","0.2","ND","ND","ND","ND","662","0"],
    [67006,"2017-12-27T17:00:00","12","ND","ND","ND","25.4","0.2","ND","ND","ND","ND","532","0"],
    [67007,"2017-12-27T18:00:00","21.7","ND","ND","ND","8.7","0.3","ND","ND","ND","ND","119","0"],
    [67008,"2017-12-27T19:00:00","0.8","ND","ND","ND","4.7","0.3","ND","ND","ND","ND","0","0"],
    [67009,"2017-12-27T20:00:00","15.5","ND","ND","ND","0.7","0.3","ND","ND","ND","ND","0","0"],
    [67010,"2017-12-27T21:00:00","26","ND","ND","ND","1.0","0.3","ND","ND","ND","ND","0","0"],
    [67011,"2017-12-27T22:00:00","35.8","ND","ND","ND","1.0","0.3","ND","ND","ND","ND","0","0"],
    [67012,"2017-12-27T23:00:00","49.5","ND","ND","ND","0.9","0.5","ND","ND","ND","ND","0","0"],
    [67013,"2017-12-28T00:00:00","34.4","ND","ND","ND","1.0","0.5","ND","ND","ND","ND","0","0"],
    [67014,"2017-12-28T01:00:00","20.4","ND","ND","ND","1.0","0.6","ND","ND","ND","ND","0","0"],
    [67015,"2017-12-28T02:00:00","30.1","ND","ND","ND","0.9","0.6","ND","ND","ND","ND","0","0"],
    [67016,"2017-12-28T03:00:00","25.5","ND","ND","ND","2.0","0.5","ND","ND","ND","ND","0","0"],
    [67017,"2017-12-28T04:00:00","10.8","ND","ND","ND","1.7","0.5","ND","ND","ND","ND","0","0"],
    [67018,"2017-12-28T05:00:00","7","ND","ND","ND","1.4","0.3","ND","ND","ND","ND","0","18.54"],
    [67019,"2017-12-28T06:00:00","1","ND","ND","ND","0.9","0.4","ND","ND","ND","ND","0","15.75"],
    [67020,"2017-12-28T07:00:00","ND","ND","ND","ND","0.8","0.4","ND","ND","ND","ND","0","6.86"],
    [67021,"2017-12-28T08:00:00","ND","ND","ND","ND","0.5","0.3","ND","ND","ND","ND","47","4.32"],
    [67022,"2017-12-28T09:00:00","14.6","ND","ND","ND","0.5","0.8","ND","ND","ND","ND","130","2.54"],
    [67023,"2017-12-28T10:00:00","30.9","ND","ND","ND","0.6","0.4","ND","ND","ND","ND","245","0.76"],
    [67024,"2017-12-28T11:00:00","28.5","ND","ND","ND","1.2","0.3","ND","ND","ND","ND","451","0.76"],
    [67025,"2017-12-28T12:00:00","19.8","ND","ND","ND","12.8","0.4","ND","ND","ND","ND","663","0"],
    [67026,"2017-12-28T13:00:00","48.9","ND","ND","ND","25.7","0.4","ND","ND","ND","ND","664","0"],
    [67027,"2017-12-28T14:00:00","42.4","ND","ND","ND","25.3","0.4","ND","ND","ND","ND","660","0"],
    [67028,"2017-12-28T15:00:00","37.1","ND","ND","ND","40.5","0.3","ND","ND","ND","ND","664","0"],
    [67029,"2017-12-28T16:00:00","31.1","ND","ND","ND","32.4","0.3","ND","ND","ND","ND","603","0"],
    [67030,"2017-12-28T17:00:00","30","ND","ND","ND","22.1","0.3","ND","ND","ND","ND","356","0"],
    [67031,"2017-12-28T18:00:00","7.5","ND","ND","ND","7.6","0.3","ND","ND","ND","ND","95","0"],
    [67032,"2017-12-28T19:00:00","ND","ND","ND","ND","4.8","0.3","ND","ND","ND","ND","0","0"],
    [67033,"2017-12-28T20:00:00","3.3","ND","ND","ND","1.1","0.2","ND","ND","ND","ND","0","0"],
    [67034,"2017-12-28T21:00:00","23.5","ND","ND","ND","1.2","0.3","ND","ND","ND","ND","0","0"],
    [67035,"2017-12-28T22:00:00","43.7","ND","ND","ND","0.7","0.4","ND","ND","ND","ND","0","0"],
    [67036,"2017-12-28T23:00:00","52.4","ND","ND","ND","0.7","0.3","ND","ND","ND","ND","0","0"],
    [67037,"2017-12-29T00:00:00","52","ND","ND","ND","0.6","0.4","ND","ND","ND","ND","0","0"],
    [67038,"2017-12-29T01:00:00","44.7","ND","ND","ND","0.7","0.3","ND","ND","ND","ND","0","0"],
    [67039,"2017-12-29T02:00:00","39.6","ND","ND","ND","0.8","0.2","ND","ND","ND","ND","0","7.87"],
    [67040,"2017-12-29T03:00:00","22.4","ND","ND","ND","2.2","0.5","ND","ND","ND","ND","0","38.86"],
    [67041,"2017-12-29T04:00:00","ND","ND","ND","ND","2.9","0.2","ND","ND","ND","ND","0","4.06"],
    [67042,"2017-12-29T05:00:00","ND","ND","ND","ND","0.9","0.4","ND","ND","ND","ND","0","1.02"],
    [67043,"2017-12-29T06:00:00","10.6","ND","ND","ND","1.0","0.3","ND","ND","ND","ND","0","0.51"],
    [67044,"2017-12-29T07:00:00","21.6","ND","ND","ND","0.8","0.5","ND","ND","ND","ND","7","2.54"],
    [67045,"2017-12-29T08:00:00","14.9","ND","ND","ND","0.7","0.3","ND","ND","ND","ND","30","6.86"],
    [67046,"2017-12-29T09:00:00","6.9","ND","ND","ND","0.9","0.3","ND","ND","ND","ND","175","5.59"],
    [67047,"2017-12-29T10:00:00","16.5","ND","ND","ND","1.0","0.2","ND","ND","ND","ND","516","0.25"],
    [67048,"2017-12-29T11:00:00","35.5","ND","ND","ND","8.1","0.5","ND","ND","ND","ND","663","0"],
    [67049,"2017-12-29T12:00:00","49.4","ND","ND","ND","31.3","0.3","ND","ND","ND","ND","664","0"],
    [67050,"2017-12-29T13:00:00","52.2","ND","ND","ND","65.3","0.2","ND","ND","ND","ND","661","0"],
    [67051,"2017-12-29T14:00:00","39.4","ND","ND","ND","62.4","0.5","ND","ND","ND","ND","664","0"],
    [67052,"2017-12-29T15:00:00","36.2","ND","ND","ND","32.6","0.3","ND","ND","ND","ND","660","0"],
    [67053,"2017-12-29T16:00:00","21.6","ND","ND","ND","21.7","0.3","ND","ND","ND","ND","628","0"],
    [67054,"2017-12-29T17:00:00","31.5","ND","ND","ND","10.6","0.3","ND","ND","ND","ND","172","0"],
    [67055,"2017-12-29T18:00:00","13","ND","ND","ND","1.4","0.1","ND","ND","ND","ND","75","0"],
    [67056,"2017-12-29T19:00:00","12.1","ND","ND","ND","0.7","0.5","ND","ND","ND","ND","0","0"],
    [67057,"2017-12-29T20:00:00","26.8","ND","ND","ND","0.9","0.3","ND","ND","ND","ND","0","0"],
    [67058,"2017-12-29T21:00:00","36.4","ND","ND","ND","0.6","0.4","ND","ND","ND","ND","0","0"],
    [67059,"2017-12-29T22:00:00","44.6","ND","ND","ND","0.8","0.5","ND","ND","ND","ND","0","0"],
    [67060,"2017-12-29T23:00:00","39","ND","ND","ND","1.9","0.3","ND","ND","ND","ND","0","0.51"],
    [67061,"2017-12-30T00:00:00","40.3","ND","ND","ND","2.2","0.2","ND","ND","ND","ND","0","16.51"],
    [67062,"2017-12-30T01:00:00","18.3","ND","ND","ND","0.5","0.3","ND","ND","ND","ND","0","0"],
    [67063,"2017-12-30T02:00:00","2","ND","ND","ND","0.4","0.3","ND","ND","ND","ND","0","0"],
    [67064,"2017-12-30T03:00:00","1.8","ND","ND","ND","0.5","0.3","ND","ND","ND","ND","0","10.41"],
    [67065,"2017-12-30T04:00:00","7.4","ND","ND","ND","0.4","0.4","ND","ND","ND","ND","0","1.52"],
    [67066,"2017-12-30T05:00:00","20.1","ND","ND","ND","0.3","0.4","ND","ND","ND","ND","0","2.79"],
    [67067,"2017-12-30T06:00:00","15.6","ND","ND","ND","0.4","0.4","ND","ND","ND","ND","0","3.56"],
    [67068,"2017-12-30T07:00:00","23.5","ND","ND","ND","0.3","0.8","ND","ND","ND","ND","57","1.27"],
    [67069,"2017-12-30T08:00:00","29.4","ND","ND","ND","0.4","0.6","ND","ND","ND","ND","209","0.51"],
    [67070,"2017-12-30T09:00:00","31.6","ND","ND","ND","0.5","0.8","ND","ND","ND","ND","345","0"],
    [67071,"2017-12-30T10:00:00","43.5","ND","ND","ND","3.1","0.6","ND","ND","ND","ND","645","0"],
    [67072,"2017-12-30T11:00:00","52.2","ND","ND","ND","25.2","0.3","ND","ND","ND","ND","664","0"],
    [67073,"2017-12-30T12:00:00","55.4","ND","ND","ND","53.7","0.4","ND","ND","ND","ND","664","0"],
    [67074,"2017-12-30T13:00:00","37.6","ND","ND","ND","60.4","0.3","ND","ND","ND","ND","664","0"],
    [67075,"2017-12-30T14:00:00","35.2","ND","ND","ND","69.5","0.3","ND","ND","ND","ND","663","0"],
    [67076,"2017-12-30T15:00:00","33.2","ND","ND","ND","74.7","0.3","ND","ND","ND","ND","664","0"],
    [67077,"2017-12-30T16:00:00","35.4","ND","ND","ND","44.9","0.3","ND","ND","ND","ND","273","0"],
    [67078,"2017-12-30T17:00:00","19.2","ND","ND","ND","10.8","0.4","ND","ND","ND","ND","134","0"],
    [67079,"2017-12-30T18:00:00","ND","ND","ND","ND","10.6","0.3","ND","ND","ND","ND","68","0"],
    [67080,"2017-12-30T19:00:00","17.1","ND","ND","ND","0.9","0.2","ND","ND","ND","ND","0","0"],
    [67081,"2017-12-30T20:00:00","34.8","ND","ND","ND","1.6","0.3","ND","ND","ND","ND","0","0"],
    [67082,"2017-12-30T21:00:00","43.2","ND","ND","ND","0.9","0.7","ND","ND","ND","ND","0","0"],
    [67083,"2017-12-30T22:00:00","32.5","ND","ND","ND","1.7","0.6","ND","ND","ND","ND","0","0"],
    [67084,"2017-12-30T23:00:00","33.2","ND","ND","ND","1.0","0.3","ND","ND","ND","ND","0","0"],
    [67085,"2017-12-31T00:00:00","38.3","ND","ND","ND","1.3","0.3","ND","ND","ND","ND","0","0"],
    [67086,"2017-12-31T01:00:00","33.3","ND","ND","ND","1.2","0.6","ND","ND","ND","ND","0","0"],
    [67087,"2017-12-31T02:00:00","37.4","ND","ND","ND","1.0","0.4","ND","ND","ND","ND","0","0"],
    [67088,"2017-12-31T03:00:00","23.9","ND","ND","ND","0.9","0.2","ND","ND","ND","ND","0","0"],
    [67089,"2017-12-31T04:00:00","13.8","ND","ND","ND","0.9","0.1","ND","ND","ND","ND","0","0"],
    [67090,"2017-12-31T05:00:00","16.9","ND","ND","ND","0.9","0.4","ND","ND","ND","ND","0","0"],
    [67091,"2017-12-31T06:00:00","19.6","ND","ND","ND","0.9","0.5","ND","ND","ND","ND","0","0"],
    [67092,"2017-12-31T07:00:00","13.7","ND","ND","ND","1.0","0.2","ND","ND","ND","ND","10","0"],
    [67093,"2017-12-31T08:00:00","11.7","ND","ND","ND","1.1","0.4","ND","ND","ND","ND","97","0"],
    [67094,"2017-12-31T09:00:00","6.2","ND","ND","ND","7.4","0.2","ND","ND","ND","ND","540","0"],
    [67095,"2017-12-31T10:00:00","30","ND","ND","ND","18.5","0.3","ND","ND","ND","ND","664","0"],
    [67096,"2017-12-31T11:00:00","35","ND","ND","ND","31.7","0.3","ND","ND","ND","ND","664","0"],
    [67097,"2017-12-31T12:00:00","34.1","ND","ND","ND","47.4","0.4","ND","ND","ND","ND","581","0"],
    [67098,"2017-12-31T13:00:00","18.7","ND","ND","ND","48.2","0.2","ND","ND","ND","ND","514","0"],
    [67099,"2017-12-31T14:00:00","13.2","ND","ND","ND","46.4","0.4","ND","ND","ND","ND","528","0"],
    [67100,"2017-12-31T15:00:00","29.3","ND","ND","ND","40.4","0.2","ND","ND","ND","ND","650","0"],
    [67101,"2017-12-31T16:00:00","12.4","ND","ND","ND","43.7","0.4","ND","ND","ND","ND","564","0"],
    [67102,"2017-12-31T17:00:00","8.3","ND","ND","ND","28.7","0.6","ND","ND","ND","ND","565","0"],
    [67103,"2017-12-31T18:00:00","7.8","ND","ND","ND","28.3","0.3","ND","ND","ND","ND","225","0"],
    [67104,"2017-12-31T19:00:00","18","ND","ND","ND","3.9","0.5","ND","ND","ND","ND","0","0"],
    [67105,"2017-12-31T20:00:00","12.5","ND","ND","ND","1.0","0.6","ND","ND","ND","ND","0","0"],
    [67106,"2017-12-31T21:00:00","25.2","ND","ND","ND","1.6","0.7","ND","ND","ND","ND","0","0"],
    [67107,"2017-12-31T22:00:00","41.2","ND","ND","ND","1.3","0.6","ND","ND","ND","ND","0","0"],
    [67108,"2017-12-31T23:00:00","56.1","ND","ND","ND","1.4","0.5","ND","ND","ND","ND","0","0"],
    [67109,"2018-01-01T00:00:00","49.5","ND","ND","ND","1.3","0.8","ND","ND","ND","ND","0","0"],
    [67110,"2018-01-01T01:00:00","55.8","ND","ND","ND","1.5","0.6","ND","ND","ND","ND","0","0"],
    [67111,"2018-01-01T02:00:00","87.2","ND","ND","ND","1.7","0.5","ND","ND","ND","ND","0","0"],
    [67112,"2018-01-01T03:00:00","133.2","ND","ND","ND","1.3","0.5","ND","ND","ND","ND","0","1.02"],
    [67113,"2018-01-01T04:00:00","140","ND","ND","ND","0.9","0.2","ND","ND","ND","ND","0","0"],
    [67114,"2018-01-01T05:00:00","96.4","ND","ND","ND","0.7","0.3","ND","ND","ND","ND","0","0.25"],
    [67115,"2018-01-01T06:00:00","57.9","ND","ND","ND","0.5","0.4","ND","ND","ND","ND","0","0.25"],
    [67116,"2018-01-01T07:00:00","14.4","ND","ND","ND","0.5","0.1","ND","ND","ND","ND","6","0"],
    [67117,"2018-01-01T08:00:00","12.5","ND","ND","ND","0.7","0.3","ND","ND","ND","ND","16","1.02"],
    [67118,"2018-01-01T09:00:00","24.1","ND","ND","ND","1.8","0.3","ND","ND","ND","ND","58","0.76"],
    [67119,"2018-01-01T10:00:00","33.3","ND","ND","ND","2.2","0.3","ND","ND","ND","ND","77","0.25"],
    [67120,"2018-01-01T11:00:00","2.3","ND","ND","ND","4.1","0.3","ND","ND","ND","ND","202","0.25"],
    [67121,"2018-01-01T12:00:00","ND","ND","ND","ND","8.3","0.5","ND","ND","ND","ND","514","0.25"],
    [67122,"2018-01-01T13:00:00","ND","ND","ND","ND","12.6","0.2","ND","ND","ND","ND","652","0.76"],
    [67123,"2018-01-01T14:00:00","9.7","ND","ND","ND","24.7","0.2","ND","ND","ND","ND","663","0.51"],
    [67124,"2018-01-01T15:00:00","11.6","ND","ND","ND","32.0","0.2","ND","ND","ND","ND","664","0.25"],
    [67125,"2018-01-01T16:00:00","13.9","ND","ND","ND","41.0","0.2","ND","ND","ND","ND","500","0.25"],
    [67126,"2018-01-01T17:00:00","17.7","ND","ND","ND","42.2","0.2","ND","ND","ND","ND","302","0.25"],
    [67127,"2018-01-01T18:00:00","0.7","ND","ND","ND","16.6","0.3","ND","ND","ND","ND","43","0"],
    [67128,"2018-01-01T19:00:00","4.6","ND","ND","ND","7.6","0.4","ND","ND","ND","ND","0","0"],
    [67129,"2018-01-01T20:00:00","22.4","ND","ND","ND","5.9","0.2","ND","ND","ND","ND","0","0.51"],
    [67130,"2018-01-01T21:00:00","0.2","ND","ND","ND","5.1","0.3","ND","ND","ND","ND","0","0.51"],
    [67131,"2018-01-01T22:00:00","1.9","ND","ND","ND","1.2","0.1","ND","ND","ND","ND","0","0.25"],
    [67132,"2018-01-01T23:00:00","4.9","ND","ND","ND","0.5","0.3","ND","ND","ND","ND","0","0.25"],
    [67133,"2018-01-02T00:00:00","20.3","ND","ND","ND","0.5","0.2","ND","ND","ND","ND","0","0.25"],
    [67134,"2018-01-02T01:00:00","15","ND","ND","ND","0.6","0.2","ND","ND","ND","ND","0","0.25"],
    [67135,"2018-01-02T02:00:00","6","ND","ND","ND","0.6","0.4","ND","ND","ND","ND","0","0.25"],
    [67136,"2018-01-02T03:00:00","5.4","ND","ND","ND","0.6","0.4","ND","ND","ND","ND","0","0.25"],
    [67137,"2018-01-02T04:00:00","6.3","ND","ND","ND","0.8","0.3","ND","ND","ND","ND","0","0"],
    [67138,"2018-01-02T05:00:00","12.4","ND","ND","ND","0.6","0.2","ND","ND","ND","ND","0","0"],
    [67139,"2018-01-02T06:00:00","16","ND","ND","ND","0.7","0.3","ND","ND","ND","ND","0","0.25"],
    [67140,"2018-01-02T07:00:00","15.8","ND","ND","ND","0.9","0.6","ND","ND","ND","ND","50","0"],
    [67141,"2018-01-02T08:00:00","34.4","ND","ND","ND","1.1","1.3","ND","ND","ND","ND","341","0"],
    [67142,"2018-01-02T09:00:00","52.6","ND","ND","ND","1.7","1.2","ND","ND","ND","ND","654","0"],
    [67143,"2018-01-02T10:00:00","81.9","ND","ND","ND","6.8","0.9","ND","ND","ND","ND","646","0.25"],
    [67144,"2018-01-02T11:00:00","55.2","ND","ND","ND","26.6","0.5","ND","ND","ND","ND","662","0"],
    [67145,"2018-01-02T12:00:00","34.2","ND","ND","ND","39.8","0.4","ND","ND","ND","ND","664","0"],
    [67146,"2018-01-02T13:00:00","32","ND","ND","ND","50.2","0.4","ND","ND","ND","ND","664","0"],
    [67147,"2018-01-02T14:00:00","21.6","ND","ND","ND","59.5","0.4","ND","ND","ND","ND","664","0"],
    [67148,"2018-01-02T15:00:00","18.1","ND","ND","ND","57.2","0.5","ND","ND","ND","ND","646","0"],
    [67149,"2018-01-02T16:00:00","9.6","ND","ND","ND","37.8","0.3","ND","ND","ND","ND","648","0"],
    [67150,"2018-01-02T17:00:00","10.4","ND","ND","ND","17.7","0.4","ND","ND","ND","ND","611","0"],
    [67151,"2018-01-02T18:00:00","13.8","ND","ND","ND","7.8","0.2","ND","ND","ND","ND","87","0"],
    [67152,"2018-01-02T19:00:00","4.6","ND","ND","ND","2.3","0.4","ND","ND","ND","ND","0","0"],
    [67153,"2018-01-02T20:00:00","ND","ND","ND","ND","4.8","0.4","ND","ND","ND","ND","0","0"],
    [67154,"2018-01-02T21:00:00","5","ND","ND","ND","4.7","0.3","ND","ND","ND","ND","0","0"],
    [67155,"2018-01-02T22:00:00","28.1","ND","ND","ND","2.2","0.3","ND","ND","ND","ND","0","0"],
    [67156,"2018-01-02T23:00:00","22","ND","ND","ND","10.4","0.4","ND","ND","ND","ND","0","0"],
    [67157,"2018-01-03T00:00:00","17.4","ND","ND","ND","7.1","0.3","ND","ND","ND","ND","0","0"],
    [67158,"2018-01-03T01:00:00","12.7","ND","ND","ND","2.7","0.3","ND","ND","ND","ND","0","0"],
    [67159,"2018-01-03T02:00:00","25.2","ND","ND","ND","5.5","0.5","ND","ND","ND","ND","0","0"],
    [67160,"2018-01-03T03:00:00","31.1","ND","ND","ND","4.1","0.4","ND","ND","ND","ND","0","0"],
    [67161,"2018-01-03T04:00:00","29.8","ND","ND","ND","1.2","0.3","ND","ND","ND","ND","0","0"],
    [67162,"2018-01-03T05:00:00","33","ND","ND","ND","1.3","0.7","ND","ND","ND","ND","0","0"],
    [67163,"2018-01-03T06:00:00","31.5","ND","ND","ND","1.1","0.1","ND","ND","ND","ND","0","0"],
    [67164,"2018-01-03T07:00:00","28.7","ND","ND","ND","1.3","0.4","ND","ND","ND","ND","35","0"],
    [67165,"2018-01-03T08:00:00","42.2","ND","ND","ND","1.6","0.4","ND","ND","ND","ND","327","0"],
    [67166,"2018-01-03T09:00:00","87.1","ND","ND","ND","4.2","0.5","ND","ND","ND","ND","561","0"],
    [67167,"2018-01-03T10:00:00","92.6","ND","ND","ND","18.3","0.5","ND","ND","ND","ND","592","0"],
    [67168,"2018-01-03T11:00:00","63","ND","ND","ND","39.8","0.5","ND","ND","ND","ND","656","0"],
    [67169,"2018-01-03T12:00:00","43.8","ND","ND","ND","63.2","0.4","ND","ND","ND","ND","637","0"],
    [67170,"2018-01-03T13:00:00","42.8","ND","ND","ND","80.7","0.4","ND","ND","ND","ND","660","0"],
    [67171,"2018-01-03T14:00:00","24","ND","ND","ND","75.3","0.3","ND","ND","ND","ND","664","0"],
    [67172,"2018-01-03T15:00:00","17","ND","ND","ND","69.1","0.8","ND","ND","ND","ND","648","0"],
    [67173,"2018-01-03T16:00:00","37.3","ND","ND","ND","53.4","0.8","ND","ND","ND","ND","643","0"],
    [67174,"2018-01-03T17:00:00","43.6","ND","ND","ND","46.7","1.0","ND","ND","ND","ND","575","0"],
    [67175,"2018-01-03T18:00:00","48","ND","ND","ND","21.6","0.8","ND","ND","ND","ND","232","0"],
    [67176,"2018-01-03T19:00:00","31.5","ND","ND","ND","8.4","0.4","ND","ND","ND","ND","0","0"],
    [67177,"2018-01-03T20:00:00","0.4","ND","ND","ND","15.7","0.2","ND","ND","ND","ND","0","0"],
    [67178,"2018-01-03T21:00:00","ND","ND","ND","ND","17.8","0.5","ND","ND","ND","ND","0","0"],
    [67179,"2018-01-03T22:00:00","ND","ND","ND","ND","7.7","0.8","ND","ND","ND","ND","0","0"],
    [67180,"2018-01-03T23:00:00","17","ND","ND","ND","1.7","0.6","ND","ND","ND","ND","0","0"],
    [67181,"2018-01-04T00:00:00","39.2","ND","ND","ND","5.1","0.5","ND","ND","ND","ND","0","0"],
    [67182,"2018-01-04T01:00:00","47.9","ND","ND","ND","1.6","0.7","ND","ND","ND","ND","0","0"],
    [67183,"2018-01-04T02:00:00","33.5","ND","ND","ND","1.4","0.7","ND","ND","ND","ND","0","0"],
    [67184,"2018-01-04T03:00:00","20.9","ND","ND","ND","1.3","0.5","ND","ND","ND","ND","0","0"],
    [67185,"2018-01-04T04:00:00","20.3","ND","ND","ND","1.3","0.8","ND","ND","ND","ND","0","0"],
    [67186,"2018-01-04T05:00:00","25","ND","ND","ND","1.2","0.9","ND","ND","ND","ND","0","0"],
    [67187,"2018-01-04T06:00:00","31","ND","ND","ND","1.1","1.0","ND","ND","ND","ND","0","0"],
    [67188,"2018-01-04T07:00:00","38.5","ND","ND","ND","1.0","1.4","ND","ND","ND","ND","21","0"],
    [67189,"2018-01-04T08:00:00","51.2","ND","ND","ND","0.9","0.9","ND","ND","ND","ND","243","0"],
    [67190,"2018-01-04T09:00:00","51.6","ND","ND","ND","1.4","0.5","ND","ND","ND","ND","501","0"],
    [67191,"2018-01-04T10:00:00","74.6","ND","ND","ND","10.8","0.8","ND","ND","ND","ND","655","0"],
    [67192,"2018-01-04T11:00:00","48","ND","ND","ND","31.4","0.5","ND","ND","ND","ND","650","0"],
    [67193,"2018-01-04T12:00:00","23.9","ND","ND","ND","52.5","0.3","ND","ND","ND","ND","664","0"],
    [67194,"2018-01-04T13:00:00","44.6","ND","ND","ND","71.9","0.4","ND","ND","ND","ND","665","0"],
    [67195,"2018-01-04T14:00:00","40.3","ND","ND","ND","69.4","0.4","ND","ND","ND","ND","665","0"],
    [67196,"2018-01-04T15:00:00","31.5","ND","ND","ND","77.0","0.3","ND","ND","ND","ND","635","0"],
    [67197,"2018-01-04T16:00:00","51.4","ND","ND","ND","63.4","0.5","ND","ND","ND","ND","637","0"],
    [67198,"2018-01-04T17:00:00","106.6","ND","ND","ND","26.7","0.5","ND","ND","ND","ND","397","0"],
    [67199,"2018-01-04T18:00:00","69","ND","ND","ND","14.8","0.4","ND","ND","ND","ND","160","0"],
    [67200,"2018-01-04T19:00:00","1.3","ND","ND","ND","6.3","0.3","ND","ND","ND","ND","0","0"],
    [67201,"2018-01-04T20:00:00","ND","ND","ND","ND","2.2","0.5","ND","ND","ND","ND","0","0"],
    [67202,"2018-01-04T21:00:00","ND","ND","ND","ND","1.9","0.3","ND","ND","ND","ND","0","0"],
    [67203,"2018-01-04T22:00:00","26.8","ND","ND","ND","1.7","1.1","ND","ND","ND","ND","0","0"],
    [67204,"2018-01-04T23:00:00","46.2","ND","ND","ND","1.6","0.9","ND","ND","ND","ND","0","0"],
    [67205,"2018-01-05T00:00:00","32.2","ND","ND","ND","3.3","0.5","ND","ND","ND","ND","0","0"],
    [67206,"2018-01-05T01:00:00","27.2","ND","ND","ND","4.7","0.3","ND","ND","ND","ND","0","0"],
    [67207,"2018-01-05T02:00:00","20.6","ND","ND","ND","5.3","0.3","ND","ND","ND","ND","0","0"],
    [67208,"2018-01-05T03:00:00","1.5","ND","ND","ND","16.1","0.6","ND","ND","ND","ND","0","0"],
    [67209,"2018-01-05T04:00:00","ND","ND","ND","ND","13.9","0.3","ND","ND","ND","ND","0","0"],
    [67210,"2018-01-05T05:00:00","ND","ND","ND","ND","8.0","0.5","ND","ND","ND","ND","0","0"],
    [67211,"2018-01-05T06:00:00","19","ND","ND","ND","1.5","0.2","ND","ND","ND","ND","0","0"],
    [67212,"2018-01-05T07:00:00","37.4","ND","ND","ND","0.6","0.3","ND","ND","ND","ND","45","0"],
    [67213,"2018-01-05T08:00:00","58.8","ND","ND","ND","2.7","0.2","ND","ND","ND","ND","375","0"],
    [67214,"2018-01-05T09:00:00","53.9","ND","ND","ND","8.1","0.5","ND","ND","ND","ND","641","0"],
    [67215,"2018-01-05T10:00:00","37.7","ND","ND","ND","20.0","0.8","ND","ND","ND","ND","664","0"],
    [67216,"2018-01-05T11:00:00","46.9","ND","ND","ND","43.4","0.5","ND","ND","ND","ND","662","0"],
    [67217,"2018-01-05T12:00:00","59.2","ND","ND","ND","63.3","0.3","ND","ND","ND","ND","666","0"],
    [67218,"2018-01-05T13:00:00","124.8","ND","ND","ND","52.8","0.5","ND","ND","ND","ND","668","0"],
    [67219,"2018-01-05T14:00:00","80.7","ND","ND","ND","53.1","0.6","ND","ND","ND","ND","665","0"],
    [67220,"2018-01-05T15:00:00","ND","ND","ND","ND","53.7","0.3","ND","ND","ND","ND","648","0"],
    [67221,"2018-01-05T16:00:00","ND","ND","ND","ND","55.6","0.5","ND","ND","ND","ND","645","0"],
    [67222,"2018-01-05T17:00:00","ND","ND","ND","ND","60.2","0.3","ND","ND","ND","ND","551","0"],
    [67223,"2018-01-05T18:00:00","0.8","ND","ND","ND","36.9","0.3","ND","ND","ND","ND","270","0"],
    [67224,"2018-01-05T19:00:00","2.4","ND","ND","ND","12.0","0.4","ND","ND","ND","ND","0","0"],
    [67225,"2018-01-05T20:00:00","ND","ND","ND","ND","7.6","0.3","ND","ND","ND","ND","0","0"],
    [67226,"2018-01-05T21:00:00","13.6","ND","ND","ND","1.4","0.3","ND","ND","ND","ND","0","0"],
    [67227,"2018-01-05T22:00:00","22.1","ND","ND","ND","1.3","0.6","ND","ND","ND","ND","0","0"],
    [67228,"2018-01-05T23:00:00","45.8","ND","ND","ND","1.3","1.1","ND","ND","ND","ND","0","0"],
    [67229,"2018-01-06T00:00:00","42.8","ND","ND","ND","1.4","0.8","ND","ND","ND","ND","0","0"],
    [67230,"2018-01-06T01:00:00","45.5","ND","ND","ND","1.3","0.6","ND","ND","ND","ND","0","0"],
    [67231,"2018-01-06T02:00:00","34.2","ND","ND","ND","1.1","0.5","ND","ND","ND","ND","0","0"],
    [67232,"2018-01-06T03:00:00","31.7","ND","ND","ND","1.1","0.2","ND","ND","ND","ND","0","0"],
    [67233,"2018-01-06T04:00:00","22.8","ND","ND","ND","0.8","0.6","ND","ND","ND","ND","0","0"],
    [67234,"2018-01-06T05:00:00","42.8","ND","ND","ND","1.0","0.8","ND","ND","ND","ND","0","0"],
    [67235,"2018-01-06T06:00:00","60.2","ND","ND","ND","1.3","0.6","ND","ND","ND","ND","0","0"],
    [67236,"2018-01-06T07:00:00","68.9","ND","ND","ND","1.4","1.6","ND","ND","ND","ND","22","0"],
    [67237,"2018-01-06T08:00:00","87","ND","ND","ND","1.4","1.0","ND","ND","ND","ND","118","0"],
    [67238,"2018-01-06T09:00:00","100.8","ND","ND","ND","2.4","2.1","ND","ND","ND","ND","417","0"],
    [67239,"2018-01-06T10:00:00","78.7","ND","ND","ND","7.7","1.2","ND","ND","ND","ND","639","0"],
    [67240,"2018-01-06T11:00:00","75.7","ND","ND","ND","28.4","1.1","ND","ND","ND","ND","664","0"],
    [67241,"2018-01-06T12:00:00","100.5","ND","ND","ND","62.0","0.8","ND","ND","ND","ND","666","0"],
    [67242,"2018-01-06T13:00:00","112","ND","ND","ND","90.7","0.3","ND","ND","ND","ND","665","0"],
    [67243,"2018-01-06T14:00:00","33.6","ND","ND","ND","96.6","0.5","ND","ND","ND","ND","665","0"],
    [67244,"2018-01-06T15:00:00","26.8","ND","ND","ND","97.5","0.3","ND","ND","ND","ND","651","0"],
    [67245,"2018-01-06T16:00:00","29.4","ND","ND","ND","44.8","0.4","ND","ND","ND","ND","558","0"],
    [67246,"2018-01-06T17:00:00","1.5","ND","ND","ND","26.7","0.5","ND","ND","ND","ND","234","0"],
    [67247,"2018-01-06T18:00:00","ND","ND","ND","ND","16.4","0.4","ND","ND","ND","ND","192","0"],
    [67248,"2018-01-06T19:00:00","0.4","ND","ND","ND","8.2","0.2","ND","ND","ND","ND","0","0"],
    [67249,"2018-01-06T20:00:00","14.4","ND","ND","ND","7.2","0.4","ND","ND","ND","ND","0","0"],
    [67250,"2018-01-06T21:00:00","28.2","ND","ND","ND","2.7","0.7","ND","ND","ND","ND","0","0"],
    [67251,"2018-01-06T22:00:00","24.1","ND","ND","ND","6.5","0.4","ND","ND","ND","ND","0","0"],
    [67252,"2018-01-06T23:00:00","30.3","ND","ND","ND","4.0","0.3","ND","ND","ND","ND","0","0"],
    [67253,"2018-01-07T00:00:00","19.8","ND","ND","ND","11.8","0.3","ND","ND","ND","ND","0","0"],
    [67254,"2018-01-07T01:00:00","21.7","ND","ND","ND","14.8","0.2","ND","ND","ND","ND","0","0"],
    [67255,"2018-01-07T02:00:00","20.5","ND","ND","ND","5.5","0.2","ND","ND","ND","ND","0","0"],
    [67256,"2018-01-07T03:00:00","20.1","ND","ND","ND","2.8","0.3","ND","ND","ND","ND","0","0"],
    [67257,"2018-01-07T04:00:00","30.3","ND","ND","ND","1.6","0.3","ND","ND","ND","ND","0","0"],
    [67258,"2018-01-07T05:00:00","38","ND","ND","ND","1.6","0.6","ND","ND","ND","ND","0","0"],
    [67259,"2018-01-07T06:00:00","28.8","ND","ND","ND","1.1","0.9","ND","ND","ND","ND","0","0"],
    [67260,"2018-01-07T07:00:00","29.5","ND","ND","ND","1.1","1.2","ND","ND","ND","ND","95","0"],
    [67261,"2018-01-07T08:00:00","42.2","ND","ND","ND","4.3","1.0","ND","ND","ND","ND","522","0"],
    [67262,"2018-01-07T09:00:00","68.4","ND","ND","ND","15.1","0.7","ND","ND","ND","ND","658","0"],
    [67263,"2018-01-07T10:00:00","62.2","ND","ND","ND","24.1","1.2","ND","ND","ND","ND","664","0"],
    [67264,"2018-01-07T11:00:00","60.1","ND","ND","ND","40.2","0.6","ND","ND","ND","ND","664","0"],
    [67265,"2018-01-07T12:00:00","46.1","ND","ND","ND","58.5","0.3","ND","ND","ND","ND","664","0"],
    [67266,"2018-01-07T13:00:00","35.2","ND","ND","ND","60.8","0.3","ND","ND","ND","ND","665","0"],
    [67267,"2018-01-07T14:00:00","40.1","ND","ND","ND","63.8","0.6","ND","ND","ND","ND","619","0"],
    [67268,"2018-01-07T15:00:00","55.7","ND","ND","ND","47.2","0.2","ND","ND","ND","ND","634","0"],
    [67269,"2018-01-07T16:00:00","21.9","ND","ND","ND","30.6","0.3","ND","ND","ND","ND","598","0"],
    [67270,"2018-01-07T17:00:00","22.9","ND","ND","ND","28.7","0.2","ND","ND","ND","ND","641","0"],
    [67271,"2018-01-07T18:00:00","2","ND","ND","ND","26.3","0.3","ND","ND","ND","ND","180","0"],
    [67272,"2018-01-07T19:00:00","ND","ND","ND","ND","18.4","0.2","ND","ND","ND","ND","0","0"],
    [67273,"2018-01-07T20:00:00","ND","ND","ND","ND","13.4","0.2","ND","ND","ND","ND","0","0"],
    [67274,"2018-01-07T21:00:00","4","ND","ND","ND","6.9","0.4","ND","ND","ND","ND","0","0"],
    [67275,"2018-01-07T22:00:00","15.8","ND","ND","ND","16.4","0.3","ND","ND","ND","ND","0","0"],
    [67276,"2018-01-07T23:00:00","28.8","ND","ND","ND","14.8","0.3","ND","ND","ND","ND","0","0"],
    [67277,"2018-01-08T00:00:00","2.9","ND","ND","ND","18.6","0.4","ND","ND","ND","ND","0","0"],
    [67278,"2018-01-08T01:00:00","ND","ND","ND","ND","21.4","0.3","ND","ND","ND","ND","0","0"],
    [67279,"2018-01-08T02:00:00","4.3","ND","ND","ND","22.1","0.5","ND","ND","ND","ND","0","0"],
    [67280,"2018-01-08T03:00:00","13.7","ND","ND","ND","14.2","0.1","ND","ND","ND","ND","0","0"],
    [67281,"2018-01-08T04:00:00","15.5","ND","ND","ND","11.0","0.3","ND","ND","ND","ND","0","0"],
    [67282,"2018-01-08T05:00:00","15.2","ND","ND","ND","11.8","0.4","ND","ND","ND","ND","0","0"],
    [67283,"2018-01-08T06:00:00","29.7","ND","ND","ND","3.8","0.5","ND","ND","ND","ND","0","0"],
    [67284,"2018-01-08T07:00:00","22.1","ND","ND","ND","2.1","0.5","ND","ND","ND","ND","117","0"],
    [67285,"2018-01-08T08:00:00","30.3","ND","ND","ND","8.8","0.4","ND","ND","ND","ND","542","0"],
    [67286,"2018-01-08T09:00:00","64.4","ND","ND","ND","16.5","0.3","ND","ND","ND","ND","646","0"],
    [67287,"2018-01-08T10:00:00","55.8","ND","ND","ND","30.7","0.5","ND","ND","ND","ND","663","0"],
    [67288,"2018-01-08T11:00:00","38.4","ND","ND","ND","45.7","0.6","ND","ND","ND","ND","664","0"],
    [67289,"2018-01-08T12:00:00","40.3","ND","ND","ND","60.5","0.5","ND","ND","ND","ND","665","0"],
    [67290,"2018-01-08T13:00:00","63","ND","ND","ND","73.8","0.4","ND","ND","ND","ND","665","0"],
    [67291,"2018-01-08T14:00:00","57.6","ND","ND","ND","75.0","0.3","ND","ND","ND","ND","665","0"],
    [67292,"2018-01-08T15:00:00","33.6","ND","ND","ND","55.7","0.3","ND","ND","ND","ND","621","0"],
    [67293,"2018-01-08T16:00:00","28.2","ND","ND","ND","28.2","0.4","ND","ND","ND","ND","331","0"],
    [67294,"2018-01-08T17:00:00","7.9","ND","ND","ND","24.1","0.1","ND","ND","ND","ND","168","0"],
    [67295,"2018-01-08T18:00:00","ND","ND","ND","ND","19.4","0.5","ND","ND","ND","ND","87","0"],
    [67296,"2018-01-08T19:00:00","ND","ND","ND","ND","11.0","0.3","ND","ND","ND","ND","0","0"],
    [67297,"2018-01-08T20:00:00","13.1","ND","ND","ND","6.9","0.2","ND","ND","ND","ND","0","0"],
    [67298,"2018-01-08T21:00:00","36.4","ND","ND","ND","6.5","0.5","ND","ND","ND","ND","0","0"],
    [67299,"2018-01-08T22:00:00","30.5","ND","ND","ND","8.6","0.3","ND","ND","ND","ND","0","0.51"],
    [67300,"2018-01-08T23:00:00","31.6","ND","ND","ND","6.6","0.2","ND","ND","ND","ND","0","0"],
    [67301,"2018-01-09T00:00:00","5.8","ND","ND","ND","1.6","0.3","ND","ND","ND","ND","0","0.25"],
    [67302,"2018-01-09T01:00:00","12.2","ND","ND","ND","1.3","0.6","ND","ND","ND","ND","0","0.25"],
    [67303,"2018-01-09T02:00:00","22.2","ND","ND","ND","1.2","0.4","ND","ND","ND","ND","0","0"],
    [67304,"2018-01-09T03:00:00","20.3","ND","ND","ND","1.1","0.6","ND","ND","ND","ND","0","0"],
    [67305,"2018-01-09T04:00:00","19","ND","ND","ND","1.1","0.4","ND","ND","ND","ND","0","0"],
    [67306,"2018-01-09T05:00:00","28.3","ND","ND","ND","1.1","0.3","ND","ND","ND","ND","0","0"],
    [67307,"2018-01-09T06:00:00","31.1","ND","ND","ND","0.6","0.6","ND","ND","ND","ND","0","0"],
    [67308,"2018-01-09T07:00:00","33.5","ND","ND","ND","0.7","1.2","ND","ND","ND","ND","45","0"],
    [67309,"2018-01-09T08:00:00","36.3","ND","ND","ND","0.6","0.9","ND","ND","ND","ND","302","0"],
    [67310,"2018-01-09T09:00:00","99.7","ND","ND","ND","1.2","1.2","ND","ND","ND","ND","543","0"],
    [67311,"2018-01-09T10:00:00","64.9","ND","ND","ND","3.3","0.7","ND","ND","ND","ND","664","0"],
    [67312,"2018-01-09T11:00:00","44.6","ND","ND","ND","18.1","0.6","ND","ND","ND","ND","664","0"],
    [67313,"2018-01-09T12:00:00","44.4","ND","ND","ND","24.9","0.6","ND","ND","ND","ND","455","0"],
    [67314,"2018-01-09T13:00:00","57.7","ND","ND","ND","17.4","0.5","ND","ND","ND","ND","602","0.25"],
    [67315,"2018-01-09T14:00:00","23.8","ND","ND","ND","23.2","0.6","ND","ND","ND","ND","664","0"],
    [67316,"2018-01-09T15:00:00","ND","ND","ND","ND","26.1","0.3","ND","ND","ND","ND","664","0"],
    [67317,"2018-01-09T16:00:00","ND","ND","ND","ND","35.6","0.2","ND","ND","ND","ND","441","0"],
    [67318,"2018-01-09T17:00:00","0.1","ND","ND","ND","27.1","0.3","ND","ND","ND","ND","257","0"],
    [67319,"2018-01-09T18:00:00","ND","ND","ND","ND","17.6","0.2","ND","ND","ND","ND","28","0"],
    [67320,"2018-01-09T19:00:00","5.3","ND","ND","ND","11.5","0.2","ND","ND","ND","ND","0","0"],
    [67321,"2018-01-09T20:00:00","0.3","ND","ND","ND","4.1","0.3","ND","ND","ND","ND","0","0"],
    [67322,"2018-01-09T21:00:00","0.4","ND","ND","ND","3.9","0.4","ND","ND","ND","ND","0","0"],
    [67323,"2018-01-09T22:00:00","5.1","ND","ND","ND","4.0","0.3","ND","ND","ND","ND","0","0"],
    [67324,"2018-01-09T23:00:00","23.6","ND","ND","ND","1.7","0.2","ND","ND","ND","ND","0","0"],
    [67325,"2018-01-10T00:00:00","35.6","ND","ND","ND","1.4","0.7","ND","ND","ND","ND","0","0"],
    [67326,"2018-01-10T01:00:00","29.5","ND","ND","ND","1.8","0.5","ND","ND","ND","ND","0","0"],
    [67327,"2018-01-10T02:00:00","23.5","ND","ND","ND","3.9","0.5","ND","ND","ND","ND","0","0"],
    [67328,"2018-01-10T03:00:00","18","ND","ND","ND","3.0","0.3","ND","ND","ND","ND","0","0"],
    [67329,"2018-01-10T04:00:00","21.9","ND","ND","ND","2.7","0.4","ND","ND","ND","ND","0","0"],
    [67330,"2018-01-10T05:00:00","39.5","ND","ND","ND","2.0","0.3","ND","ND","ND","ND","0","0"],
    [67331,"2018-01-10T06:00:00","19.7","ND","ND","ND","1.3","1.0","ND","ND","ND","ND","0","0"],
    [67332,"2018-01-10T07:00:00","23.7","ND","ND","ND","1.0","0.7","ND","ND","ND","ND","12","0"],
    [67333,"2018-01-10T08:00:00","17.9","ND","ND","ND","1.0","0.6","ND","ND","ND","ND","103","0"],
    [67334,"2018-01-10T09:00:00","35.7","ND","ND","ND","3.0","0.8","ND","ND","ND","ND","438","0"],
    [67335,"2018-01-10T10:00:00","57.5","ND","ND","ND","15.3","0.3","ND","ND","ND","ND","644","0"],
    [67336,"2018-01-10T11:00:00","49.4","ND","ND","ND","21.5","0.4","ND","ND","ND","ND","655","0"],
    [67337,"2018-01-10T12:00:00","52.4","ND","ND","ND","65.1","0.4","ND","ND","ND","ND","660","0"],
    [67338,"2018-01-10T13:00:00","46.4","ND","ND","ND","73.5","0.4","ND","ND","ND","ND","665","0"],
    [67339,"2018-01-10T14:00:00","48.5","ND","ND","ND","77.0","0.6","ND","ND","ND","ND","665","0"],
    [67340,"2018-01-10T15:00:00","41.2","ND","ND","ND","91.9","0.2","ND","ND","ND","ND","664","0"],
    [67341,"2018-01-10T16:00:00","32","ND","ND","ND","82.4","0.3","ND","ND","ND","ND","622","0"],
    [67342,"2018-01-10T17:00:00","35.4","ND","ND","ND","83.1","0.3","ND","ND","ND","ND","455","0"],
    [67343,"2018-01-10T18:00:00","32.7","ND","ND","ND","30.4","0.3","ND","ND","ND","ND","222","0"],
    [67344,"2018-01-10T19:00:00","2.6","ND","ND","ND","8.9","0.1","ND","ND","ND","ND","5","0"],
    [67345,"2018-01-10T20:00:00","15.9","ND","ND","ND","1.3","0.3","ND","ND","ND","ND","0","0"],
    [67346,"2018-01-10T21:00:00","32.2","ND","ND","ND","1.0","0.3","ND","ND","ND","ND","0","0"],
    [67347,"2018-01-10T22:00:00","22.2","ND","ND","ND","1.0","0.7","ND","ND","ND","ND","0","0"],
    [67348,"2018-01-10T23:00:00","37","ND","ND","ND","0.9","0.5","ND","ND","ND","ND","0","0"],
    [67349,"2018-01-11T00:00:00","42.3","ND","ND","ND","0.9","0.3","ND","ND","ND","ND","0","0"],
    [67350,"2018-01-11T01:00:00","31.5","ND","ND","ND","0.6","0.2","ND","ND","ND","ND","0","0"],
    [67351,"2018-01-11T02:00:00","34.1","ND","ND","ND","0.6","0.5","ND","ND","ND","ND","0","0"],
    [67352,"2018-01-11T03:00:00","40.5","ND","ND","ND","0.7","0.5","ND","ND","ND","ND","0","0"],
    [67353,"2018-01-11T04:00:00","36.2","ND","ND","ND","0.5","0.6","ND","ND","ND","ND","0","0"],
    [67354,"2018-01-11T05:00:00","33.1","ND","ND","ND","0.2","0.3","ND","ND","ND","ND","0","0"],
    [67355,"2018-01-11T06:00:00","25.3","ND","ND","ND","0.3","0.7","ND","ND","ND","ND","0","0"],
    [67356,"2018-01-11T07:00:00","34.4","ND","ND","ND","0.6","0.1","ND","ND","ND","ND","65","0"],
    [67357,"2018-01-11T08:00:00","75.3","ND","ND","ND","1.8","0.3","ND","ND","ND","ND","385","0"],
    [67358,"2018-01-11T09:00:00","137.4","ND","ND","ND","4.5","0.7","ND","ND","ND","ND","663","0"],
    [67359,"2018-01-11T10:00:00","113.4","ND","ND","ND","14.4","0.8","ND","ND","ND","ND","664","0"],
    [67360,"2018-01-11T11:00:00","122","ND","ND","ND","62.0","0.6","ND","ND","ND","ND","666","0"],
    [67361,"2018-01-11T12:00:00","134.5","ND","ND","ND","100.1","0.6","ND","ND","ND","ND","665","0"],
    [67362,"2018-01-11T13:00:00","62.6","ND","ND","ND","110.7","0.4","ND","ND","ND","ND","660","0"],
    [67363,"2018-01-11T14:00:00","41.6","ND","ND","ND","116.6","0.4","ND","ND","ND","ND","657","0"],
    [67364,"2018-01-11T15:00:00","48.9","ND","ND","ND","75.9","0.6","ND","ND","ND","ND","602","0"],
    [67365,"2018-01-11T16:00:00","23","ND","ND","ND","30.8","0.3","ND","ND","ND","ND","665","0"],
    [67366,"2018-01-11T17:00:00","16.7","ND","ND","ND","26.3","0.4","ND","ND","ND","ND","617","0"],
    [67367,"2018-01-11T18:00:00","18.6","ND","ND","ND","16.9","0.4","ND","ND","ND","ND","198","0"],
    [67368,"2018-01-11T19:00:00","ND","ND","ND","ND","23.1","0.2","ND","ND","ND","ND","0","0"],
    [67369,"2018-01-11T20:00:00","ND","ND","ND","ND","30.6","0.4","ND","ND","ND","ND","0","0"],
    [67370,"2018-01-11T21:00:00","18.6","ND","ND","ND","15.2","0.3","ND","ND","ND","ND","0","0"],
    [67371,"2018-01-11T22:00:00","13.4","ND","ND","ND","23.6","0.5","ND","ND","ND","ND","0","0"],
    [67372,"2018-01-11T23:00:00","23.2","ND","ND","ND","7.6","0.5","ND","ND","ND","ND","0","0"],
    [67373,"2018-01-12T00:00:00","47.5","ND","ND","ND","3.7","0.6","ND","ND","ND","ND","0","0"],
    [67374,"2018-01-12T01:00:00","62","ND","ND","ND","5.1","0.9","ND","ND","ND","ND","0","0"],
    [67375,"2018-01-12T02:00:00","56.8","ND","ND","ND","2.5","0.6","ND","ND","ND","ND","0","0"],
    [67376,"2018-01-12T03:00:00","55.5","ND","ND","ND","1.6","0.7","ND","ND","ND","ND","0","0"],
    [67377,"2018-01-12T04:00:00","62.4","ND","ND","ND","0.8","0.7","ND","ND","ND","ND","0","0"],
    [67378,"2018-01-12T05:00:00","55.8","ND","ND","ND","1.1","0.3","ND","ND","ND","ND","0","0"],
    [67379,"2018-01-12T06:00:00","72.1","ND","ND","ND","1.0","0.6","ND","ND","ND","ND","0","0"],
    [67380,"2018-01-12T07:00:00","86.2","ND","ND","ND","1.5","0.4","ND","ND","ND","ND","45","0"],
    [67381,"2018-01-12T08:00:00","93.8","ND","ND","ND","2.1","0.9","ND","ND","ND","ND","309","0"],
    [67382,"2018-01-12T09:00:00","93.3","ND","ND","ND","4.1","0.8","ND","ND","ND","ND","624","0"],
    [67383,"2018-01-12T10:00:00","122.6","ND","ND","ND","6.0","1.0","ND","ND","ND","ND","604","0"],
    [67384,"2018-01-12T11:00:00","88.7","ND","ND","ND","12.5","0.7","ND","ND","ND","ND","648","0"],
    [67385,"2018-01-12T12:00:00","54.8","ND","ND","ND","40.3","0.5","ND","ND","ND","ND","664","0"],
    [67386,"2018-01-12T13:00:00","65.4","ND","ND","ND","61.0","0.4","ND","ND","ND","ND","664","0"],
    [67387,"2018-01-12T14:00:00","55","ND","ND","ND","62.3","0.3","ND","ND","ND","ND","617","0"],
    [67388,"2018-01-12T15:00:00","49.3","ND","ND","ND","36.0","0.3","ND","ND","ND","ND","364","15.49"],
    [67389,"2018-01-12T16:00:00","128.6","ND","ND","ND","6.5","0.3","ND","ND","ND","ND","274","4.32"],
    [67390,"2018-01-12T17:00:00","0.4","ND","ND","ND","2.6","0.3","ND","ND","ND","ND","318","0.25"],
    [67391,"2018-01-12T18:00:00","22.1","ND","ND","ND","1.6","0.1","ND","ND","ND","ND","152","0"],
    [67392,"2018-01-12T19:00:00","35.7","ND","ND","ND","1.4","0.3","ND","ND","ND","ND","0","0"],
    [67393,"2018-01-12T20:00:00","9.1","ND","ND","ND","2.3","0.2","ND","ND","ND","ND","0","0"],
    [67394,"2018-01-12T21:00:00","24.9","ND","ND","ND","1.5","0.4","ND","ND","ND","ND","0","0"],
    [67395,"2018-01-12T22:00:00","43.7","ND","ND","ND","1.7","0.2","ND","ND","ND","ND","0","0"],
    [67396,"2018-01-12T23:00:00","43.2","ND","ND","ND","1.4","0.4","ND","ND","ND","ND","0","0"],
    [67397,"2018-01-13T00:00:00","44.7","ND","ND","ND","4.5","0.2","ND","ND","ND","ND","0","0"],
    [67398,"2018-01-13T01:00:00","40.8","ND","ND","ND","3.3","0.4","ND","ND","ND","ND","0","0"],
    [67399,"2018-01-13T02:00:00","41","ND","ND","ND","1.7","0.3","ND","ND","ND","ND","0","0"],
    [67400,"2018-01-13T03:00:00","46.2","ND","ND","ND","1.5","0.4","ND","ND","ND","ND","0","0"],
    [67401,"2018-01-13T04:00:00","38.9","ND","ND","ND","1.2","0.4","ND","ND","ND","ND","0","0"],
    [67402,"2018-01-13T05:00:00","43.1","ND","ND","ND","1.3","0.6","ND","ND","ND","ND","0","0"],
    [67403,"2018-01-13T06:00:00","41.3","ND","ND","ND","1.3","0.4","ND","ND","ND","ND","0","0"],
    [67404,"2018-01-13T07:00:00","43.8","ND","ND","ND","1.2","0.4","ND","ND","ND","ND","33","0"],
    [67405,"2018-01-13T08:00:00","46.8","ND","ND","ND","1.4","0.7","ND","ND","ND","ND","244","0"],
    [67406,"2018-01-13T09:00:00","75.1","ND","ND","ND","4.0","0.5","ND","ND","ND","ND","590","0"],
    [67407,"2018-01-13T10:00:00","64","ND","ND","ND","18.2","0.5","ND","ND","ND","ND","664","0"],
    [67408,"2018-01-13T11:00:00","66.8","ND","ND","ND","43.6","0.5","ND","ND","ND","ND","664","0"],
    [67409,"2018-01-13T12:00:00","61.4","ND","ND","ND","56.9","0.4","ND","ND","ND","ND","658","0"],
    [67410,"2018-01-13T13:00:00","73.2","ND","ND","ND","61.3","0.8","ND","ND","ND","ND","658","0"],
    [67411,"2018-01-13T14:00:00","80.1","ND","ND","ND","36.6","0.2","ND","ND","ND","ND","609","0"],
    [67412,"2018-01-13T15:00:00","6.1","ND","ND","ND","29.5","0.3","ND","ND","ND","ND","664","0"],
    [67413,"2018-01-13T16:00:00","1.6","ND","ND","ND","24.5","0.4","ND","ND","ND","ND","664","0"],
    [67414,"2018-01-13T17:00:00","26.9","ND","ND","ND","17.7","0.3","ND","ND","ND","ND","217","0"],
    [67415,"2018-01-13T18:00:00","48.9","ND","ND","ND","9.7","0.2","ND","ND","ND","ND","30","0"],
    [67416,"2018-01-13T19:00:00","1.3","ND","ND","ND","3.1","0.5","ND","ND","ND","ND","0","0"],
    [67417,"2018-01-13T20:00:00","2.4","ND","ND","ND","3.5","0.3","ND","ND","ND","ND","0","0"],
    [67418,"2018-01-13T21:00:00","16.5","ND","ND","ND","2.8","0.2","ND","ND","ND","ND","0","0"],
    [67419,"2018-01-13T22:00:00","29.8","ND","ND","ND","1.4","0.2","ND","ND","ND","ND","0","0"],
    [67420,"2018-01-13T23:00:00","15.9","ND","ND","ND","1.1","0.3","ND","ND","ND","ND","0","0"],
    [67421,"2018-01-14T00:00:00","9.6","ND","ND","ND","1.1","0.5","ND","ND","ND","ND","0","0"],
    [67422,"2018-01-14T01:00:00","18.6","ND","ND","ND","1.1","0.2","ND","ND","ND","ND","0","0"],
    [67423,"2018-01-14T02:00:00","14.7","ND","ND","ND","1.1","0.2","ND","ND","ND","ND","0","0"],
    [67424,"2018-01-14T03:00:00","22.6","ND","ND","ND","1.3","0.3","ND","ND","ND","ND","0","0"],
    [67425,"2018-01-14T04:00:00","41.1","ND","ND","ND","1.5","0.5","ND","ND","ND","ND","0","0"],
    [67426,"2018-01-14T05:00:00","52.8","ND","ND","ND","0.8","0.3","ND","ND","ND","ND","0","0"],
    [67427,"2018-01-14T06:00:00","37","ND","ND","ND","0.3","0.4","ND","ND","ND","ND","0","0"],
    [67428,"2018-01-14T07:00:00","40.7","ND","ND","ND","0.3","0.6","ND","ND","ND","ND","64","0"],
    [67429,"2018-01-14T08:00:00","32.8","ND","ND","ND","0.5","0.6","ND","ND","ND","ND","267","0"],
    [67430,"2018-01-14T09:00:00","46.3","ND","ND","ND","2.1","0.4","ND","ND","ND","ND","592","0"],
    [67431,"2018-01-14T10:00:00","75.1","ND","ND","ND","13.4","0.3","ND","ND","ND","ND","614","0"],
    [67432,"2018-01-14T11:00:00","63.2","ND","ND","ND","28.7","0.5","ND","ND","ND","ND","664","0"],
    [67433,"2018-01-14T12:00:00","62.3","ND","ND","ND","35.2","0.5","ND","ND","ND","ND","665","0"],
    [67434,"2018-01-14T13:00:00","64.7","ND","ND","ND","34.7","0.6","ND","ND","ND","ND","665","0"],
    [67435,"2018-01-14T14:00:00","27.4","ND","ND","ND","43.7","0.4","ND","ND","ND","ND","628","0"],
    [67436,"2018-01-14T15:00:00","23.3","ND","ND","ND","29.2","0.2","ND","ND","ND","ND","275","0"],
    [67437,"2018-01-14T16:00:00","39","ND","ND","ND","21.4","0.2","ND","ND","ND","ND","28","51.82"],
    [67438,"2018-01-14T17:00:00","52.2","ND","ND","ND","1.6","0.2","ND","ND","ND","ND","68","0.51"],
    [67439,"2018-01-14T18:00:00","ND","ND","ND","ND","1.8","0.3","ND","ND","ND","ND","99","0.25"],
    [67440,"2018-01-14T19:00:00","5","ND","ND","ND","1.1","0.6","ND","ND","ND","ND","4","0"],
    [67441,"2018-01-14T20:00:00","27.2","ND","ND","ND","4.3","0.7","ND","ND","ND","ND","0","0.25"],
    [67442,"2018-01-14T21:00:00","0.7","ND","ND","ND","1.8","0.4","ND","ND","ND","ND","0","0"],
    [67443,"2018-01-14T22:00:00","7.3","ND","ND","ND","1.0","0.5","ND","ND","ND","ND","0","0"],
    [67444,"2018-01-14T23:00:00","28.3","ND","ND","ND","1.0","0.4","ND","ND","ND","ND","0","0"],
    [67445,"2018-01-15T00:00:00","31.9","ND","ND","ND","1.0","0.2","ND","ND","ND","ND","0","0"],
    [67446,"2018-01-15T01:00:00","34.3","ND","ND","ND","1.0","0.6","ND","ND","ND","ND","0","0"],
    [67447,"2018-01-15T02:00:00","46.7","ND","ND","ND","0.9","0.4","ND","ND","ND","ND","0","0"],
    [67448,"2018-01-15T03:00:00","53.3","ND","ND","ND","0.6","0.5","ND","ND","ND","ND","0","0"],
    [67449,"2018-01-15T04:00:00","97.1","ND","ND","ND","1.2","0.6","ND","ND","ND","ND","0","0"],
    [67450,"2018-01-15T05:00:00","52.8","ND","ND","ND","0.5","0.4","ND","ND","ND","ND","0","0"],
    [67451,"2018-01-15T06:00:00","68.4","ND","ND","ND","0.4","1.0","ND","ND","ND","ND","0","0"],
    [67452,"2018-01-15T07:00:00","106.4","ND","ND","ND","1.1","0.7","ND","ND","ND","ND","67","0"],
    [67453,"2018-01-15T08:00:00","105.5","ND","ND","ND","1.5","1.0","ND","ND","ND","ND","385","0.25"],
    [67454,"2018-01-15T09:00:00","20.9","ND","ND","ND","1.8","1.4","ND","ND","ND","ND","656","0"],
    [67455,"2018-01-15T10:00:00","86","ND","ND","ND","10.3","1.3","ND","ND","ND","ND","664","0"],
    [67456,"2018-01-15T11:00:00","64.8","ND","ND","ND","26.0","0.8","ND","ND","ND","ND","665","0"],
    [67457,"2018-01-15T12:00:00","70.9","ND","ND","ND","39.6","0.7","ND","ND","ND","ND","668","0"],
    [67458,"2018-01-15T13:00:00","55","ND","ND","ND","51.6","0.7","ND","ND","ND","ND","669","0"],
    [67459,"2018-01-15T14:00:00","34.6","ND","ND","ND","53.1","1.1","ND","ND","ND","ND","645","0"],
    [67460,"2018-01-15T15:00:00","ND","ND","ND","ND","ND","ND","ND","ND","ND","ND","615","2.03"],
    [67461,"2018-01-15T16:00:00","ND","ND","ND","ND","ND","ND","ND","ND","ND","ND","417","0"],
    [67462,"2018-01-15T17:00:00","ND","ND","ND","ND","ND","ND","ND","ND","ND","ND","109","1.02"],
    [67463,"2018-01-15T18:00:00","ND","ND","ND","ND","ND","ND","ND","ND","ND","ND","146","0.51"],
    [67464,"2018-01-15T19:00:00","ND","ND","ND","ND","ND","ND","ND","ND","ND","ND","4","0.51"],
    [67465,"2018-01-15T20:00:00","ND","ND","ND","ND","ND","ND","ND","ND","ND","ND","0","0.51"],
    [67466,"2018-01-15T21:00:00","ND","ND","ND","ND","ND","ND","ND","ND","ND","ND","0","2.29"],
    [67467,"2018-01-15T22:00:00","ND","ND","ND","ND","ND","ND","ND","ND","ND","ND","0","1.02"],
    [67468,"2018-01-15T23:00:00","ND","ND","ND","ND","ND","ND","ND","ND","ND","ND","0","0"],
    [67469,"2018-01-16T00:00:00","ND","ND","ND","ND","ND","ND","ND","ND","ND","ND","0","0"],
    [67470,"2018-01-16T01:00:00","ND","ND","ND","ND","ND","ND","ND","ND","ND","ND","0","0.25"],
    [67471,"2018-01-16T02:00:00","ND","ND","ND","ND","ND","ND","ND","ND","ND","ND","0","0"],
    [67472,"2018-01-16T03:00:00","ND","ND","ND","ND","ND","ND","ND","ND","ND","ND","0","0"],
    [67473,"2018-01-16T04:00:00","ND","ND","ND","ND","ND","ND","ND","ND","ND","ND","0","0"],
    [67474,"2018-01-16T05:00:00","ND","ND","ND","ND","ND","ND","ND","ND","ND","ND","0","0"],
    [67475,"2018-01-16T06:00:00","ND","ND","ND","ND","ND","ND","ND","ND","ND","ND","0","0"],
    [67476,"2018-01-16T07:00:00","ND","ND","ND","ND","ND","ND","ND","ND","ND","ND","33","0"],
    [67477,"2018-01-16T08:00:00","ND","ND","ND","ND","ND","ND","ND","ND","ND","ND","312","0"],
    [67478,"2018-01-16T09:00:00","ND","ND","ND","ND","ND","ND","ND","ND","ND","ND","558","0"],
    [67479,"2018-01-16T10:00:00","ND","ND","ND","ND","ND","ND","ND","ND","ND","ND","668","0"],
    [67480,"2018-01-16T11:00:00","ND","ND","ND","ND","ND","ND","ND","ND","ND","ND","580","0"],
    [67481,"2018-01-16T12:00:00","ND","ND","ND","ND","ND","0.9","ND","ND","ND","ND","667","0"],
    [67482,"2018-01-16T13:00:00","8.1","ND","ND","ND","ND","0.8","ND","ND","ND","ND","667","0"],
    [67483,"2018-01-16T14:00:00","27.7","ND","ND","ND","ND","0.5","ND","ND","ND","ND","667","0"],
    [67484,"2018-01-16T15:00:00","24.6","ND","ND","ND","ND","1.8","ND","ND","ND","ND","628","0"],
    [67485,"2018-01-16T16:00:00","ND","ND","ND","ND","ND","ND","ND","ND","ND","ND","436","0"],
    [67486,"2018-01-16T17:00:00","ND","ND","ND","ND","ND","ND","ND","ND","ND","ND","ND","ND"],
    [67487,"2018-01-16T18:00:00","0.8","ND","ND","ND","ND","ND","ND","ND","ND","ND","29","0"],
    [67488,"2018-01-16T19:00:00","ND","ND","ND","ND","0.0","0.2","ND","ND","ND","ND","0","0"],
    [67489,"2018-01-16T20:00:00","ND","ND","ND","ND","0.3","0.5","ND","ND","ND","ND","0","0"],
    [67490,"2018-01-16T21:00:00","0.1","ND","ND","ND","2.6","0.9","ND","ND","ND","ND","0","0"],
    [67491,"2018-01-16T22:00:00","20.3","ND","ND","ND","6.8","1.5","ND","ND","ND","ND","0","0"],
    [67492,"2018-01-16T23:00:00","41.3","ND","ND","ND","0.7","1.3","ND","ND","ND","ND","0","0"],
    [67493,"2018-01-17T00:00:00","61.3","ND","ND","ND","0.1","1.2","ND","ND","ND","ND","0","0"],
    [67494,"2018-01-17T01:00:00","39.1","ND","ND","ND","0.1","0.5","ND","ND","ND","ND","0","0"],
    [67495,"2018-01-17T02:00:00","25","ND","ND","ND","2.0","0.5","ND","ND","ND","ND","0","0"],
    [67496,"2018-01-17T03:00:00","62.4","ND","ND","ND","5.2","0.9","ND","ND","ND","ND","0","0"],
    [67497,"2018-01-17T04:00:00","74.1","ND","ND","ND","3.0","0.8","ND","ND","ND","ND","0","0"],
    [67498,"2018-01-17T05:00:00","46.1","ND","ND","ND","1.4","1.0","ND","ND","ND","ND","0","0"],
    [67499,"2018-01-17T06:00:00","48.9","ND","ND","ND","2.2","1.2","ND","ND","ND","ND","0","0"],
    [67500,"2018-01-17T07:00:00","65.8","ND","ND","ND","2.8","1.2","ND","ND","ND","ND","13","0"],
    [67501,"2018-01-17T08:00:00","82","ND","ND","ND","4.6","1.7","ND","ND","ND","ND","142","0"],
    [67502,"2018-01-17T09:00:00","133.8","ND","ND","ND","4.9","1.8","ND","ND","ND","ND","276","0"],
    [67503,"2018-01-17T10:00:00","168.1","ND","ND","ND","8.3","1.2","ND","ND","ND","ND","588","0"],
    [67504,"2018-01-17T11:00:00","57.5","ND","ND","ND","31.1","1.0","ND","ND","ND","ND","662","0"],
    [67505,"2018-01-17T12:00:00","120.8","ND","ND","ND","51.1","0.9","ND","ND","ND","ND","665","0"],
    [67506,"2018-01-17T13:00:00","125.1","ND","ND","ND","53.5","0.4","ND","ND","ND","ND","648","0"],
    [67507,"2018-01-17T14:00:00","140.6","ND","ND","ND","64.6","0.4","ND","ND","ND","ND","669","0"],
    [67508,"2018-01-17T15:00:00","112.9","ND","ND","ND","77.9","0.2","ND","ND","ND","ND","566","0"],
    [67509,"2018-01-17T16:00:00","68.9","ND","ND","ND","62.3","0.3","ND","ND","ND","ND","326","0"],
    [67510,"2018-01-17T17:00:00","52.7","ND","ND","ND","11.5","0.2","ND","ND","ND","ND","161","0"],
    [67511,"2018-01-17T18:00:00","34.5","ND","ND","ND","0.8","0.5","ND","ND","ND","ND","70","0"],
    [67512,"2018-01-17T19:00:00","35.5","ND","ND","ND","0.0","0.3","ND","ND","ND","ND","0","0"],
    [67513,"2018-01-17T20:00:00","27.8","ND","ND","ND","0.0","0.4","ND","ND","ND","ND","0","0"],
    [67514,"2018-01-17T21:00:00","42","ND","ND","ND","ND","0.7","ND","ND","ND","ND","0","0"],
    [67515,"2018-01-17T22:00:00","ND","ND","ND","ND","ND","0.0","ND","ND","ND","ND","0","0"],
    [67516,"2018-01-17T23:00:00","ND","ND","ND","ND","ND","0.0","ND","ND","ND","ND","0","0"],
    [67517,"2018-01-18T00:00:00","45.1","ND","ND","ND","4.2","0.3","ND","ND","ND","ND","0","0"],
    [67518,"2018-01-18T01:00:00","121.6","ND","ND","ND","0.6","0.3","ND","ND","ND","ND","0","0"],
    [67519,"2018-01-18T02:00:00","ND","ND","ND","ND","0.0","0.9","ND","ND","ND","ND","0","0"],
    [67520,"2018-01-18T03:00:00","198.7","ND","ND","ND","0.0","0.7","ND","ND","ND","ND","0","0"],
    [67521,"2018-01-18T04:00:00","146.9","ND","ND","ND","0.0","0.7","ND","ND","ND","ND","0","0"],
    [67522,"2018-01-18T05:00:00","136.2","ND","ND","ND","0.0","1.7","ND","ND","ND","ND","0","0"],
    [67523,"2018-01-18T06:00:00","128.7","ND","ND","ND","0.0","3.0","ND","ND","ND","ND","0","0"],
    [67524,"2018-01-18T07:00:00","95.7","ND","ND","ND","0.1","1.6","ND","ND","ND","ND","49","0"],
    [67525,"2018-01-18T08:00:00","31.3","ND","ND","ND","0.2","1.4","ND","ND","ND","ND","251","0"],
    [67526,"2018-01-18T09:00:00","ND","ND","ND","ND","0.3","1.4","ND","ND","ND","ND","426","0"],
    [67527,"2018-01-18T10:00:00","156","ND","ND","ND","0.8","1.0","ND","ND","ND","ND","487","0"],
    [67528,"2018-01-18T11:00:00","197.8","ND","ND","ND","12.6","0.7","ND","ND","ND","ND","667","0"],
    [67529,"2018-01-18T12:00:00","170.1","ND","ND","ND","27.8","0.3","ND","ND","ND","ND","667","0"],
    [67530,"2018-01-18T13:00:00","51.6","ND","ND","ND","42.8","0.3","ND","ND","ND","ND","666","0"],
    [67531,"2018-01-18T14:00:00","ND","ND","ND","ND","51.2","0.2","ND","ND","ND","ND","653","0"],
    [67532,"2018-01-18T15:00:00","7.3","ND","ND","ND","65.0","0.2","ND","ND","ND","ND","624","0"],
    [67533,"2018-01-18T16:00:00","34.1","ND","ND","ND","40.5","0.2","ND","ND","ND","ND","499","0"],
    [67534,"2018-01-18T17:00:00","29.3","ND","ND","ND","37.1","0.2","ND","ND","ND","ND","494","0"],
    [67535,"2018-01-18T18:00:00","7.3","ND","ND","ND","8.4","0.2","ND","ND","ND","ND","103","0"],
    [67536,"2018-01-18T19:00:00","ND","ND","ND","ND","1.5","0.2","ND","ND","ND","ND","0","0"],
    [67537,"2018-01-18T20:00:00","2.3","ND","ND","ND","0.0","0.2","ND","ND","ND","ND","0","0"],
    [67538,"2018-01-18T21:00:00","22.3","ND","ND","ND","0.0","0.3","ND","ND","ND","ND","0","0"],
    [67539,"2018-01-18T22:00:00","25.9","ND","ND","ND","0.0","0.7","ND","ND","ND","ND","0","0"],
    [67540,"2018-01-18T23:00:00","20.6","ND","ND","ND","0.0","0.3","ND","ND","ND","ND","0","0"],
    [67541,"2018-01-19T00:00:00","30.2","ND","ND","ND","0.0","0.6","ND","ND","ND","ND","0","0"],
    [67542,"2018-01-19T01:00:00","40","ND","ND","ND","0.0","0.4","ND","ND","ND","ND","0","0"],
    [67543,"2018-01-19T02:00:00","38.1","ND","ND","ND","0.0","0.4","ND","ND","ND","ND","0","0"],
    [67544,"2018-01-19T03:00:00","36.7","ND","ND","ND","1.0","0.4","ND","ND","ND","ND","0","0"],
    [67545,"2018-01-19T04:00:00","39.5","ND","ND","ND","0.5","0.6","ND","ND","ND","ND","0","0"],
    [67546,"2018-01-19T05:00:00","41.6","ND","ND","ND","0.0","1.0","ND","ND","ND","ND","0","0"],
    [67547,"2018-01-19T06:00:00","54.5","ND","ND","ND","0.0","0.9","ND","ND","ND","ND","0","0"],
    [67548,"2018-01-19T07:00:00","70.8","ND","ND","ND","0.0","1.2","ND","ND","ND","ND","31","0"],
    [67549,"2018-01-19T08:00:00","82.4","ND","ND","ND","0.4","1.7","ND","ND","ND","ND","212","0"],
    [67550,"2018-01-19T09:00:00","104.9","ND","ND","ND","3.3","1.2","ND","ND","ND","ND","469","0"],
    [67551,"2018-01-19T10:00:00","82.1","ND","ND","ND","22.6","0.4","ND","ND","ND","ND","661","0"],
    [67552,"2018-01-19T11:00:00","60.4","ND","ND","ND","47.6","0.1","ND","ND","ND","ND","650","0"],
    [67553,"2018-01-19T12:00:00","59.7","ND","ND","ND","61.9","0.2","ND","ND","ND","ND","647","0"],
    [67554,"2018-01-19T13:00:00","52.4","ND","ND","ND","110.4","0.3","ND","ND","ND","ND","665","0"],
    [67555,"2018-01-19T14:00:00","73.7","ND","ND","ND","126.2","0.1","ND","ND","ND","ND","656","0"],
    [67556,"2018-01-19T15:00:00","76.4","ND","ND","ND","96.5","0.4","ND","ND","ND","ND","652","0"],
    [67557,"2018-01-19T16:00:00","65.4","ND","ND","ND","47.2","0.3","ND","ND","ND","ND","597","0"],
    [67558,"2018-01-19T17:00:00","38.6","ND","ND","ND","26.5","0.2","ND","ND","ND","ND","265","0"],
    [67559,"2018-01-19T18:00:00","18","ND","ND","ND","13.2","0.1","ND","ND","ND","ND","205","0"],
    [67560,"2018-01-19T19:00:00","9.8","ND","ND","ND","4.2","0.3","ND","ND","ND","ND","7","0"],
    [67561,"2018-01-19T20:00:00","19.8","ND","ND","ND","0.8","0.3","ND","ND","ND","ND","0","0"],
    [67562,"2018-01-19T21:00:00","37.4","ND","ND","ND","0.0","1.0","ND","ND","ND","ND","0","0"],
    [67563,"2018-01-19T22:00:00","55.1","ND","ND","ND","0.3","0.6","ND","ND","ND","ND","0","0"],
    [67564,"2018-01-19T23:00:00","26.9","ND","ND","ND","0.0","0.9","ND","ND","ND","ND","0","0"],
    [67565,"2018-01-20T00:00:00","9.7","ND","ND","ND","0.0","0.7","ND","ND","ND","ND","0","0"],
    [67566,"2018-01-20T01:00:00","29.4","ND","ND","ND","0.0","2.0","ND","ND","ND","ND","0","0"],
    [67567,"2018-01-20T02:00:00","49.4","ND","ND","ND","0.0","1.0","ND","ND","ND","ND","0","0"],
    [67568,"2018-01-20T03:00:00","34.2","ND","ND","ND","0.0","0.7","ND","ND","ND","ND","0","0"],
    [67569,"2018-01-20T04:00:00","38.2","ND","ND","ND","0.0","0.8","ND","ND","ND","ND","0","0"],
    [67570,"2018-01-20T05:00:00","30.2","ND","ND","ND","0.0","0.5","ND","ND","ND","ND","0","0"],
    [67571,"2018-01-20T06:00:00","36.7","ND","ND","ND","0.0","0.4","ND","ND","ND","ND","0","0"],
    [67572,"2018-01-20T07:00:00","59.5","ND","ND","ND","0.0","0.4","ND","ND","ND","ND","25","0"],
    [67573,"2018-01-20T08:00:00","64.6","ND","ND","ND","0.1","0.7","ND","ND","ND","ND","220","0"],
    [67574,"2018-01-20T09:00:00","117.8","ND","ND","ND","2.2","0.9","ND","ND","ND","ND","535","0"],
    [67575,"2018-01-20T10:00:00","93.8","ND","ND","ND","10.9","1.0","ND","ND","ND","ND","664","0"],
    [67576,"2018-01-20T11:00:00","81.7","ND","ND","ND","35.1","0.7","ND","ND","ND","ND","663","0"],
    [67577,"2018-01-20T12:00:00","101.6","ND","ND","ND","68.8","0.8","ND","ND","ND","ND","665","0"],
    [67578,"2018-01-20T13:00:00","90.4","ND","ND","ND","80.5","0.4","ND","ND","ND","ND","665","0"],
    [67579,"2018-01-20T14:00:00","67","ND","ND","ND","75.9","0.2","ND","ND","ND","ND","665","0"],
    [67580,"2018-01-20T15:00:00","47.3","ND","ND","ND","66.0","0.3","ND","ND","ND","ND","665","0"],
    [67581,"2018-01-20T16:00:00","44.8","ND","ND","ND","60.1","0.6","ND","ND","ND","ND","536","0"],
    [67582,"2018-01-20T17:00:00","44.8","ND","ND","ND","63.0","0.3","ND","ND","ND","ND","496","0"],
    [67583,"2018-01-20T18:00:00","42.5","ND","ND","ND","80.1","0.2","ND","ND","ND","ND","185","0"],
    [67584,"2018-01-20T19:00:00","52","ND","ND","ND","33.5","0.1","ND","ND","ND","ND","7","0"],
    [67585,"2018-01-20T20:00:00","47.3","ND","ND","ND","2.4","0.4","ND","ND","ND","ND","0","0"],
    [67586,"2018-01-20T21:00:00","31.3","ND","ND","ND","0.9","0.3","ND","ND","ND","ND","0","0"],
    [67587,"2018-01-20T22:00:00","33.5","ND","ND","ND","0.7","0.7","ND","ND","ND","ND","0","0"],
    [67588,"2018-01-20T23:00:00","36.8","ND","ND","ND","0.8","0.3","ND","ND","ND","ND","0","0"],
    [67589,"2018-01-21T00:00:00","53","ND","ND","ND","1.2","0.5","ND","ND","ND","ND","0","0"],
    [67590,"2018-01-21T01:00:00","54.8","ND","ND","ND","0.8","0.4","ND","ND","ND","ND","0","0"],
    [67591,"2018-01-21T02:00:00","49.6","ND","ND","ND","0.6","0.9","ND","ND","ND","ND","0","0"],
    [67592,"2018-01-21T03:00:00","32","ND","ND","ND","0.6","0.9","ND","ND","ND","ND","0","0"],
    [67593,"2018-01-21T04:00:00","32.1","ND","ND","ND","0.7","0.8","ND","ND","ND","ND","0","0"],
    [67594,"2018-01-21T05:00:00","41.2","ND","ND","ND","1.0","0.6","ND","ND","ND","ND","0","0"],
    [67595,"2018-01-21T06:00:00","44.9","ND","ND","ND","1.6","1.2","ND","ND","ND","ND","0","0"],
    [67596,"2018-01-21T07:00:00","42.3","ND","ND","ND","1.4","0.8","ND","ND","ND","ND","62","0"],
    [67597,"2018-01-21T08:00:00","48.6","ND","ND","ND","4.5","0.3","ND","ND","ND","ND","358","0"],
    [67598,"2018-01-21T09:00:00","58.5","ND","ND","ND","14.2","0.3","ND","ND","ND","ND","571","0"],
    [67599,"2018-01-21T10:00:00","55.4","ND","ND","ND","32.7","0.2","ND","ND","ND","ND","665","0"],
    [67600,"2018-01-21T11:00:00","56.9","ND","ND","ND","52.2","0.1","ND","ND","ND","ND","665","0"],
    [67601,"2018-01-21T12:00:00","58.8","ND","ND","ND","80.2","0.3","ND","ND","ND","ND","665","0"],
    [67602,"2018-01-21T13:00:00","49.1","ND","ND","ND","98.2","0.3","ND","ND","ND","ND","666","0"],
    [67603,"2018-01-21T14:00:00","35.2","ND","ND","ND","98.9","0.3","ND","ND","ND","ND","666","0"],
    [67604,"2018-01-21T15:00:00","45.9","ND","ND","ND","96.7","0.3","ND","ND","ND","ND","494","0"],
    [67605,"2018-01-21T16:00:00","37.1","ND","ND","ND","41.0","0.2","ND","ND","ND","ND","549","0"],
    [67606,"2018-01-21T17:00:00","21.1","ND","ND","ND","43.6","0.1","ND","ND","ND","ND","373","0"],
    [67607,"2018-01-21T18:00:00","27.4","ND","ND","ND","34.0","0.2","ND","ND","ND","ND","166","0"],
    [67608,"2018-01-21T19:00:00","20.7","ND","ND","ND","19.3","0.2","ND","ND","ND","ND","0","0"],
    [67609,"2018-01-21T20:00:00","7.4","ND","ND","ND","3.3","0.5","ND","ND","ND","ND","0","0"],
    [67610,"2018-01-21T21:00:00","18.9","ND","ND","ND","0.1","0.4","ND","ND","ND","ND","0","0"],
    [67611,"2018-01-21T22:00:00","37.4","ND","ND","ND","0.0","1.3","ND","ND","ND","ND","0","0"],
    [67612,"2018-01-21T23:00:00","51.5","ND","ND","ND","0.4","0.9","ND","ND","ND","ND","0","0"],
    [67613,"2018-01-22T00:00:00","21.4","ND","ND","ND","0.5","1.0","ND","ND","ND","ND","0","0"],
    [67614,"2018-01-22T01:00:00","23.4","ND","ND","ND","1.3","0.4","ND","ND","ND","ND","0","0"],
    [67615,"2018-01-22T02:00:00","34.4","ND","ND","ND","1.9","1.2","ND","ND","ND","ND","0","0"],
    [67616,"2018-01-22T03:00:00","34.6","ND","ND","ND","1.8","0.4","ND","ND","ND","ND","0","0"],
    [67617,"2018-01-22T04:00:00","32","ND","ND","ND","3.4","1.0","ND","ND","ND","ND","0","0"],
    [67618,"2018-01-22T05:00:00","41.6","ND","ND","ND","2.1","1.0","ND","ND","ND","ND","0","0"],
    [67619,"2018-01-22T06:00:00","40","ND","ND","ND","1.7","0.5","ND","ND","ND","ND","0","0"],
    [67620,"2018-01-22T07:00:00","58.2","ND","ND","ND","2.2","2.0","ND","ND","ND","ND","37","0"],
    [67621,"2018-01-22T08:00:00","103.9","ND","ND","ND","4.0","6.0","ND","ND","ND","ND","320","0"],
    [67622,"2018-01-22T09:00:00","107.5","ND","ND","ND","4.4","2.9","ND","ND","ND","ND","559","0"],
    [67623,"2018-01-22T10:00:00","66.6","ND","ND","ND","6.5","0.5","ND","ND","ND","ND","665","0"],
    [67624,"2018-01-22T11:00:00","47.9","ND","ND","ND","17.4","0.5","ND","ND","ND","ND","665","0"],
    [67625,"2018-01-22T12:00:00","37.4","ND","ND","ND","27.0","0.3","ND","ND","ND","ND","665","0"],
    [67626,"2018-01-22T13:00:00","28.2","ND","ND","ND","55.6","0.2","ND","ND","ND","ND","655","0"],
    [67627,"2018-01-22T14:00:00","27.9","ND","ND","ND","55.9","0.1","ND","ND","ND","ND","666","0"],
    [67628,"2018-01-22T15:00:00","28.7","ND","ND","ND","28.6","0.2","ND","ND","ND","ND","641","0"],
    [67629,"2018-01-22T16:00:00","16.8","ND","ND","ND","18.8","0.1","ND","ND","ND","ND","459","0"],
    [67630,"2018-01-22T17:00:00","16.5","ND","ND","ND","18.1","0.2","ND","ND","ND","ND","433","0"],
    [67631,"2018-01-22T18:00:00","17.4","ND","ND","ND","9.7","0.2","ND","ND","ND","ND","113","0"],
    [67632,"2018-01-22T19:00:00","9","ND","ND","ND","6.0","0.1","ND","ND","ND","ND","18","0"],
    [67633,"2018-01-22T20:00:00","ND","ND","ND","ND","1.0","0.3","ND","ND","ND","ND","0","0"],
    [67634,"2018-01-22T21:00:00","5","ND","ND","ND","0.5","0.1","ND","ND","ND","ND","0","0"],
    [67635,"2018-01-22T22:00:00","19.1","ND","ND","ND","1.6","0.1","ND","ND","ND","ND","0","0"],
    [67636,"2018-01-22T23:00:00","21.8","ND","ND","ND","5.2","0.3","ND","ND","ND","ND","0","0"],
    [67637,"2018-01-23T00:00:00","32.7","ND","ND","ND","3.6","0.2","ND","ND","ND","ND","0","0"],
    [67638,"2018-01-23T01:00:00","36","ND","ND","ND","2.7","0.2","ND","ND","ND","ND","0","0"],
    [67639,"2018-01-23T02:00:00","32.7","ND","ND","ND","2.3","0.3","ND","ND","ND","ND","0","0"],
    [67640,"2018-01-23T03:00:00","39.4","ND","ND","ND","2.4","0.4","ND","ND","ND","ND","0","0.51"],
    [67641,"2018-01-23T04:00:00","34.8","ND","ND","ND","2.5","0.6","ND","ND","ND","ND","0","0.76"],
    [67642,"2018-01-23T05:00:00","14.9","ND","ND","ND","2.4","1.0","ND","ND","ND","ND","0","0.25"],
    [67643,"2018-01-23T06:00:00","23.1","ND","ND","ND","3.1","1.9","ND","ND","ND","ND","0","0"],
    [67644,"2018-01-23T07:00:00","42","ND","ND","ND","3.1","1.5","ND","ND","ND","ND","17","0"],
    [67645,"2018-01-23T08:00:00","63.5","ND","ND","ND","3.0","2.7","ND","ND","ND","ND","178","0"],
    [67646,"2018-01-23T09:00:00","82.1","ND","ND","ND","1.5","1.9","ND","ND","ND","ND","540","0"],
    [67647,"2018-01-23T10:00:00","91.2","ND","ND","ND","5.2","1.1","ND","ND","ND","ND","660","0"],
    [67648,"2018-01-23T11:00:00","75.4","ND","ND","ND","19.2","0.5","ND","ND","ND","ND","665","0"],
    [67649,"2018-01-23T12:00:00","75.6","ND","ND","ND","40.1","0.4","ND","ND","ND","ND","665","0"],
    [67650,"2018-01-23T13:00:00","56.1","ND","ND","ND","50.0","0.6","ND","ND","ND","ND","665","0"],
    [67651,"2018-01-23T14:00:00","51.5","ND","ND","ND","58.1","0.2","ND","ND","ND","ND","666","0"],
    [67652,"2018-01-23T15:00:00","38.9","ND","ND","ND","56.0","0.4","ND","ND","ND","ND","656","0"],
    [67653,"2018-01-23T16:00:00","26","ND","ND","ND","32.1","0.4","ND","ND","ND","ND","482","0"],
    [67654,"2018-01-23T17:00:00","13.5","ND","ND","ND","24.3","0.3","ND","ND","ND","ND","557","0"],
    [67655,"2018-01-23T18:00:00","7.6","ND","ND","ND","14.8","0.1","ND","ND","ND","ND","220","0"],
    [67656,"2018-01-23T19:00:00","5.1","ND","ND","ND","6.3","0.1","ND","ND","ND","ND","12","0"],
    [67657,"2018-01-23T20:00:00","0.1","ND","ND","ND","0.9","0.4","ND","ND","ND","ND","0","0"],
    [67658,"2018-01-23T21:00:00","9.7","ND","ND","ND","0.2","0.5","ND","ND","ND","ND","0","0"],
    [67659,"2018-01-23T22:00:00","15.9","ND","ND","ND","1.7","2.0","ND","ND","ND","ND","0","0"],
    [67660,"2018-01-23T23:00:00","21.2","ND","ND","ND","3.3","2.2","ND","ND","ND","ND","0","0"],
    [67661,"2018-01-24T00:00:00","21.2","ND","ND","ND","2.8","1.4","ND","ND","ND","ND","0","0"],
    [67662,"2018-01-24T01:00:00","23.8","ND","ND","ND","2.4","1.3","ND","ND","ND","ND","0","0"],
    [67663,"2018-01-24T02:00:00","15.8","ND","ND","ND","2.1","0.7","ND","ND","ND","ND","0","0"],
    [67664,"2018-01-24T03:00:00","5.2","ND","ND","ND","1.5","0.4","ND","ND","ND","ND","0","0"],
    [67665,"2018-01-24T04:00:00","9.5","ND","ND","ND","1.5","0.6","ND","ND","ND","ND","0","0"],
    [67666,"2018-01-24T05:00:00","28.8","ND","ND","ND","1.5","0.7","ND","ND","ND","ND","0","0"],
    [67667,"2018-01-24T06:00:00","54.2","ND","ND","ND","3.5","1.7","ND","ND","ND","ND","0","0"],
    [67668,"2018-01-24T07:00:00","85.4","ND","ND","ND","5.8","1.5","ND","ND","ND","ND","68","0"],
    [67669,"2018-01-24T08:00:00","109.1","ND","ND","ND","6.2","1.1","ND","ND","ND","ND","387","0"],
    [67670,"2018-01-24T09:00:00","119.1","ND","ND","ND","7.7","0.8","ND","ND","ND","ND","636","0"],
    [67671,"2018-01-24T10:00:00","117.5","ND","ND","ND","31.1","1.2","ND","ND","ND","ND","645","0"],
    [67672,"2018-01-24T11:00:00","117.1","ND","ND","ND","72.4","0.6","ND","ND","ND","ND","665","0"],
    [67673,"2018-01-24T12:00:00","93.8","ND","ND","ND","94.7","0.7","ND","ND","ND","ND","665","0"],
    [67674,"2018-01-24T13:00:00","84.8","ND","ND","ND","115.5","0.2","ND","ND","ND","ND","666","0"],
    [67675,"2018-01-24T14:00:00","58.1","ND","ND","ND","133.7","0.2","ND","ND","ND","ND","666","0"],
    [67676,"2018-01-24T15:00:00","46.7","ND","ND","ND","138.5","0.2","ND","ND","ND","ND","653","0"],
    [67677,"2018-01-24T16:00:00","42.8","ND","ND","ND","35.3","0.1","ND","ND","ND","ND","534","0"],
    [67678,"2018-01-24T17:00:00","26.8","ND","ND","ND","33.2","0.1","ND","ND","ND","ND","412","0"],
    [67679,"2018-01-24T18:00:00","23.2","ND","ND","ND","30.3","0.2","ND","ND","ND","ND","198","0"],
    [67680,"2018-01-24T19:00:00","6.9","ND","ND","ND","15.9","0.1","ND","ND","ND","ND","6","0"],
    [67681,"2018-01-24T20:00:00","14.9","ND","ND","ND","1.2","0.5","ND","ND","ND","ND","0","0"],
    [67682,"2018-01-24T21:00:00","55.9","ND","ND","ND","1.6","0.4","ND","ND","ND","ND","0","0"],
    [67683,"2018-01-24T22:00:00","52.3","ND","ND","ND","1.8","1.3","ND","ND","ND","ND","0","0"],
    [67684,"2018-01-24T23:00:00","34.5","ND","ND","ND","2.1","1.5","ND","ND","ND","ND","0","0"],
    [67685,"2018-01-25T00:00:00","37.2","ND","ND","ND","3.1","0.8","ND","ND","ND","ND","0","0"],
    [67686,"2018-01-25T01:00:00","20.7","ND","ND","ND","3.0","0.7","ND","ND","ND","ND","0","0"],
    [67687,"2018-01-25T02:00:00","32.9","ND","ND","ND","2.7","0.8","ND","ND","ND","ND","0","0"],
    [67688,"2018-01-25T03:00:00","33.8","ND","ND","ND","2.6","1.1","ND","ND","ND","ND","0","0"],
    [67689,"2018-01-25T04:00:00","28.7","ND","ND","ND","3.3","0.8","ND","ND","ND","ND","0","0"],
    [67690,"2018-01-25T05:00:00","33.6","ND","ND","ND","3.7","0.4","ND","ND","ND","ND","0","0"],
    [67691,"2018-01-25T06:00:00","42","ND","ND","ND","3.3","0.6","ND","ND","ND","ND","0","0"],
    [67692,"2018-01-25T07:00:00","53.8","ND","ND","ND","4.4","1.3","ND","ND","ND","ND","66","0"],
    [67693,"2018-01-25T08:00:00","92.7","ND","ND","ND","4.7","1.9","ND","ND","ND","ND","235","0"],
    [67694,"2018-01-25T09:00:00","120.9","ND","ND","ND","6.7","2.0","ND","ND","ND","ND","385","0"],
    [67695,"2018-01-25T10:00:00","138.4","ND","ND","ND","10.6","2.1","ND","ND","ND","ND","662","0"],
    [67696,"2018-01-25T11:00:00","138.4","ND","ND","ND","44.5","0.6","ND","ND","ND","ND","664","0"],
    [67697,"2018-01-25T12:00:00","93.5","ND","ND","ND","75.4","0.3","ND","ND","ND","ND","664","0"],
    [67698,"2018-01-25T13:00:00","74","ND","ND","ND","93.4","0.3","ND","ND","ND","ND","666","0"],
    [67699,"2018-01-25T14:00:00","67.6","ND","ND","ND","107.1","0.3","ND","ND","ND","ND","666","0"],
    [67700,"2018-01-25T15:00:00","58.7","ND","ND","ND","101.2","0.3","ND","ND","ND","ND","666","0"],
    [67701,"2018-01-25T16:00:00","56.9","ND","ND","ND","69.6","0.2","ND","ND","ND","ND","651","0"],
    [67702,"2018-01-25T17:00:00","44.4","ND","ND","ND","51.5","0.3","ND","ND","ND","ND","478","0"],
    [67703,"2018-01-25T18:00:00","32.5","ND","ND","ND","44.7","0.1","ND","ND","ND","ND","229","0"],
    [67704,"2018-01-25T19:00:00","21.5","ND","ND","ND","22.5","0.2","ND","ND","ND","ND","16","0"],
    [67705,"2018-01-25T20:00:00","13.6","ND","ND","ND","5.8","0.5","ND","ND","ND","ND","0","0"],
    [67706,"2018-01-25T21:00:00","16.8","ND","ND","ND","1.1","0.5","ND","ND","ND","ND","0","0"],
    [67707,"2018-01-25T22:00:00","35.6","ND","ND","ND","3.3","1.7","ND","ND","ND","ND","0","0"],
    [67708,"2018-01-25T23:00:00","17.6","ND","ND","ND","3.9","1.0","ND","ND","ND","ND","0","0"],
    [67709,"2018-01-26T00:00:00","18.4","ND","ND","ND","3.9","1.0","ND","ND","ND","ND","0","0"],
    [67710,"2018-01-26T01:00:00","30.6","ND","ND","ND","3.7","0.6","ND","ND","ND","ND","0","0"],
    [67711,"2018-01-26T02:00:00","27.3","ND","ND","ND","3.5","0.8","ND","ND","ND","ND","0","0"],
    [67712,"2018-01-26T03:00:00","27.6","ND","ND","ND","3.4","1.9","ND","ND","ND","ND","0","0"],
    [67713,"2018-01-26T04:00:00","26.6","ND","ND","ND","3.7","0.9","ND","ND","ND","ND","0","0"],
    [67714,"2018-01-26T05:00:00","33.3","ND","ND","ND","3.4","0.9","ND","ND","ND","ND","0","0"],
    [67715,"2018-01-26T06:00:00","37.6","ND","ND","ND","3.6","0.8","ND","ND","ND","ND","0","0"],
    [67716,"2018-01-26T07:00:00","44.2","ND","ND","ND","3.7","0.9","ND","ND","ND","ND","12","0"],
    [67717,"2018-01-26T08:00:00","51.5","ND","ND","ND","4.6","1.1","ND","ND","ND","ND","174","0"],
    [67718,"2018-01-26T09:00:00","86.7","ND","ND","ND","6.1","0.9","ND","ND","ND","ND","496","0"],
    [67719,"2018-01-26T10:00:00","98.8","ND","ND","ND","7.0","1.4","ND","ND","ND","ND","317","0"],
    [67720,"2018-01-26T11:00:00","91.8","ND","ND","ND","22.2","2.2","ND","ND","ND","ND","596","0"],
    [67721,"2018-01-26T12:00:00","96.9","ND","ND","ND","37.6","1.2","ND","ND","ND","ND","653","0"],
    [67722,"2018-01-26T13:00:00","107.3","ND","ND","ND","63.9","0.5","ND","ND","ND","ND","665","0"],
    [67723,"2018-01-26T14:00:00","106.4","ND","ND","ND","95.5","0.4","ND","ND","ND","ND","665","0"],
    [67724,"2018-01-26T15:00:00","98.5","ND","ND","ND","111.0","0.4","ND","ND","ND","ND","665","0"],
    [67725,"2018-01-26T16:00:00","78.4","ND","ND","ND","83.2","0.3","ND","ND","ND","ND","640","0"],
    [67726,"2018-01-26T17:00:00","41.5","ND","ND","ND","30.9","0.1","ND","ND","ND","ND","573","0"],
    [67727,"2018-01-26T18:00:00","25.5","ND","ND","ND","15.1","0.1","ND","ND","ND","ND","369","0"],
    [67728,"2018-01-26T19:00:00","35.1","ND","ND","ND","4.9","0.1","ND","ND","ND","ND","13","0"],
    [67729,"2018-01-26T20:00:00","5","ND","ND","ND","0.5","0.2","ND","ND","ND","ND","0","0"],
    [67730,"2018-01-26T21:00:00","10.4","ND","ND","ND","0.9","0.1","ND","ND","ND","ND","0","0"],
    [67731,"2018-01-26T22:00:00","24.1","ND","ND","ND","1.0","0.6","ND","ND","ND","ND","0","0"],
    [67732,"2018-01-26T23:00:00","31.8","ND","ND","ND","2.7","1.3","ND","ND","ND","ND","0","0"],
    [67733,"2018-01-27T00:00:00","23","ND","ND","ND","1.8","0.7","ND","ND","ND","ND","0","0"],
    [67734,"2018-01-27T01:00:00","19.1","ND","ND","ND","1.9","1.4","ND","ND","ND","ND","0","0"],
    [67735,"2018-01-27T02:00:00","32.5","ND","ND","ND","2.1","0.8","ND","ND","ND","ND","0","0"],
    [67736,"2018-01-27T03:00:00","28.9","ND","ND","ND","1.5","0.7","ND","ND","ND","ND","0","0"],
    [67737,"2018-01-27T04:00:00","14.8","ND","ND","ND","1.0","0.3","ND","ND","ND","ND","0","0"],
    [67738,"2018-01-27T05:00:00","17.1","ND","ND","ND","0.7","0.4","ND","ND","ND","ND","0","0"],
    [67739,"2018-01-27T06:00:00","37.4","ND","ND","ND","1.3","2.2","ND","ND","ND","ND","0","0"],
    [67740,"2018-01-27T07:00:00","63.4","ND","ND","ND","2.3","2.2","ND","ND","ND","ND","67","0"],
    [67741,"2018-01-27T08:00:00","104.2","ND","ND","ND","4.2","1.7","ND","ND","ND","ND","372","0"],
    [67742,"2018-01-27T09:00:00","106.1","ND","ND","ND","10.6","1.3","ND","ND","ND","ND","524","0"],
    [67743,"2018-01-27T10:00:00","115.3","ND","ND","ND","21.4","1.4","ND","ND","ND","ND","656","0"],
    [67744,"2018-01-27T11:00:00","124.3","ND","ND","ND","50.0","1.3","ND","ND","ND","ND","665","0"],
    [67745,"2018-01-27T12:00:00","124.4","ND","ND","ND","109.9","0.7","ND","ND","ND","ND","665","0"],
    [67746,"2018-01-27T13:00:00","95.3","ND","ND","ND","115.8","0.3","ND","ND","ND","ND","666","0"],
    [67747,"2018-01-27T14:00:00","71.5","ND","ND","ND","115.1","0.3","ND","ND","ND","ND","666","0"],
    [67748,"2018-01-27T15:00:00","49.5","ND","ND","ND","107.7","0.2","ND","ND","ND","ND","666","0"],
    [67749,"2018-01-27T16:00:00","51.7","ND","ND","ND","104.1","0.2","ND","ND","ND","ND","658","0"],
    [67750,"2018-01-27T17:00:00","46.8","ND","ND","ND","85.4","0.2","ND","ND","ND","ND","300","0"],
    [67751,"2018-01-27T18:00:00","39.9","ND","ND","ND","18.3","0.2","ND","ND","ND","ND","179","0"],
    [67752,"2018-01-27T19:00:00","30","ND","ND","ND","11.6","0.3","ND","ND","ND","ND","8","0"],
    [67753,"2018-01-27T20:00:00","25.2","ND","ND","ND","9.1","0.2","ND","ND","ND","ND","0","0"],
    [67754,"2018-01-27T21:00:00","16.5","ND","ND","ND","4.4","0.3","ND","ND","ND","ND","0","0"],
    [67755,"2018-01-27T22:00:00","39.7","ND","ND","ND","7.3","2.0","ND","ND","ND","ND","0","0"],
    [67756,"2018-01-27T23:00:00","54.1","ND","ND","ND","5.6","0.5","ND","ND","ND","ND","0","0"],
    [67757,"2018-01-28T00:00:00","53.6","ND","ND","ND","5.7","0.6","ND","ND","ND","ND","0","0"],
    [67758,"2018-01-28T01:00:00","60.7","ND","ND","ND","4.9","1.1","ND","ND","ND","ND","0","0"],
    [67759,"2018-01-28T02:00:00","60.1","ND","ND","ND","6.6","1.5","ND","ND","ND","ND","0","0"],
    [67760,"2018-01-28T03:00:00","79.5","ND","ND","ND","9.4","1.4","ND","ND","ND","ND","0","0"],
    [67761,"2018-01-28T04:00:00","83.4","ND","ND","ND","6.3","1.3","ND","ND","ND","ND","0","0"],
    [67762,"2018-01-28T05:00:00","65.5","ND","ND","ND","6.9","1.3","ND","ND","ND","ND","0","0"],
    [67763,"2018-01-28T06:00:00","51.7","ND","ND","ND","6.8","0.6","ND","ND","ND","ND","0","0"],
    [67764,"2018-01-28T07:00:00","66.7","ND","ND","ND","5.9","3.8","ND","ND","ND","ND","17","0"],
    [67765,"2018-01-28T08:00:00","78","ND","ND","ND","6.4","2.4","ND","ND","ND","ND","138","0"],
    [67766,"2018-01-28T09:00:00","92.3","ND","ND","ND","10.4","3.7","ND","ND","ND","ND","588","0"],
    [67767,"2018-01-28T10:00:00","101.8","ND","ND","ND","15.0","1.3","ND","ND","ND","ND","664","0"],
    [67768,"2018-01-28T11:00:00","89.8","ND","ND","ND","40.9","1.1","ND","ND","ND","ND","665","0"],
    [67769,"2018-01-28T12:00:00","85.4","ND","ND","ND","74.1","0.7","ND","ND","ND","ND","665","0"],
    [67770,"2018-01-28T13:00:00","58.4","ND","ND","ND","80.9","0.4","ND","ND","ND","ND","665","0"],
    [67771,"2018-01-28T14:00:00","42.2","ND","ND","ND","89.0","0.4","ND","ND","ND","ND","665","0"],
    [67772,"2018-01-28T15:00:00","53.4","ND","ND","ND","87.8","0.3","ND","ND","ND","ND","666","0"],
    [67773,"2018-01-28T16:00:00","47.3","ND","ND","ND","76.1","0.2","ND","ND","ND","ND","625","0"],
    [67774,"2018-01-28T17:00:00","42.1","ND","ND","ND","44.3","0.1","ND","ND","ND","ND","552","0"],
    [67775,"2018-01-28T18:00:00","8.7","ND","ND","ND","17.9","0.1","ND","ND","ND","ND","287","0"],
    [67776,"2018-01-28T19:00:00","21.5","ND","ND","ND","11.0","0.1","ND","ND","ND","ND","10","0"],
    [67777,"2018-01-28T20:00:00","5.6","ND","ND","ND","5.5","0.1","ND","ND","ND","ND","0","0"],
    [67778,"2018-01-28T21:00:00","10","ND","ND","ND","4.7","0.3","ND","ND","ND","ND","0","0"],
    [67779,"2018-01-28T22:00:00","12.9","ND","ND","ND","4.3","0.4","ND","ND","ND","ND","0","0"],
    [67780,"2018-01-28T23:00:00","15.7","ND","ND","ND","4.7","0.6","ND","ND","ND","ND","0","0"],
    [67781,"2018-01-29T00:00:00","19.2","ND","ND","ND","4.4","0.3","ND","ND","ND","ND","0","0"],
    [67782,"2018-01-29T01:00:00","2.1","ND","ND","ND","3.8","0.3","ND","ND","ND","ND","0","0"],
    [67783,"2018-01-29T02:00:00","19.2","ND","ND","ND","4.8","1.1","ND","ND","ND","ND","0","0"],
    [67784,"2018-01-29T03:00:00","55.5","ND","ND","ND","4.7","1.6","ND","ND","ND","ND","0","0"],
    [67785,"2018-01-29T04:00:00","51.1","ND","ND","ND","4.1","1.6","ND","ND","ND","ND","0","0"],
    [67786,"2018-01-29T05:00:00","37.3","ND","ND","ND","4.1","1.0","ND","ND","ND","ND","0","0"],
    [67787,"2018-01-29T06:00:00","24.4","ND","ND","ND","4.4","0.9","ND","ND","ND","ND","0","0"],
    [67788,"2018-01-29T07:00:00","65.7","ND","ND","ND","5.8","1.0","ND","ND","ND","ND","35","0"],
    [67789,"2018-01-29T08:00:00","83.9","ND","ND","ND","4.9","0.8","ND","ND","ND","ND","287","0"],
    [67790,"2018-01-29T09:00:00","70.4","ND","ND","ND","7.2","0.8","ND","ND","ND","ND","457","0"],
    [67791,"2018-01-29T10:00:00","109.6","ND","ND","ND","19.1","1.1","ND","ND","ND","ND","663","0"],
    [67792,"2018-01-29T11:00:00","148","ND","ND","ND","58.0","0.8","ND","ND","ND","ND","665","0"],
    [67793,"2018-01-29T12:00:00","105","ND","ND","ND","116.0","0.4","ND","ND","ND","ND","666","0"],
    [67794,"2018-01-29T13:00:00","67.6","ND","ND","ND","126.2","0.2","ND","ND","ND","ND","666","0"],
    [67795,"2018-01-29T14:00:00","53","ND","ND","ND","127.3","0.3","ND","ND","ND","ND","643","0"],
    [67796,"2018-01-29T15:00:00","44.3","ND","ND","ND","35.7","0.1","ND","ND","ND","ND","665","0"],
    [67797,"2018-01-29T16:00:00","19.2","ND","ND","ND","29.1","0.2","ND","ND","ND","ND","665","0"],
    [67798,"2018-01-29T17:00:00","25.8","ND","ND","ND","25.6","0.2","ND","ND","ND","ND","620","0"],
    [67799,"2018-01-29T18:00:00","35.2","ND","ND","ND","23.4","0.3","ND","ND","ND","ND","159","0"],
    [67800,"2018-01-29T19:00:00","14.6","ND","ND","ND","23.3","0.2","ND","ND","ND","ND","7","0"],
    [67801,"2018-01-29T20:00:00","ND","ND","ND","ND","8.9","0.6","ND","ND","ND","ND","0","0"],
    [67802,"2018-01-29T21:00:00","10.7","ND","ND","ND","4.5","1.4","ND","ND","ND","ND","0","0"],
    [67803,"2018-01-29T22:00:00","15","ND","ND","ND","6.7","2.0","ND","ND","ND","ND","0","0"],
    [67804,"2018-01-29T23:00:00","13.8","ND","ND","ND","6.1","1.6","ND","ND","ND","ND","0","0"],
    [67805,"2018-01-30T00:00:00","22.6","ND","ND","ND","6.8","1.5","ND","ND","ND","ND","0","0"],
    [67806,"2018-01-30T01:00:00","37.5","ND","ND","ND","7.3","1.5","ND","ND","ND","ND","0","0"],
    [67807,"2018-01-30T02:00:00","38.6","ND","ND","ND","6.2","1.4","ND","ND","ND","ND","0","0"],
    [67808,"2018-01-30T03:00:00","39.3","ND","ND","ND","5.2","0.9","ND","ND","ND","ND","0","0"],
    [67809,"2018-01-30T04:00:00","34.4","ND","ND","ND","5.0","0.4","ND","ND","ND","ND","0","0"],
    [67810,"2018-01-30T05:00:00","53.8","ND","ND","ND","5.1","1.0","ND","ND","ND","ND","0","0"],
    [67811,"2018-01-30T06:00:00","58.5","ND","ND","ND","5.4","3.6","ND","ND","ND","ND","0","0"],
    [67812,"2018-01-30T07:00:00","69.4","ND","ND","ND","6.6","2.2","ND","ND","ND","ND","23","0"],
    [67813,"2018-01-30T08:00:00","75.9","ND","ND","ND","5.7","1.3","ND","ND","ND","ND","39","0"],
    [67814,"2018-01-30T09:00:00","78.9","ND","ND","ND","5.9","1.1","ND","ND","ND","ND","149","0"],
    [67815,"2018-01-30T10:00:00","77.5","ND","ND","ND","6.8","0.8","ND","ND","ND","ND","264","0"],
    [67816,"2018-01-30T11:00:00","126.4","ND","ND","ND","9.0","3.2","ND","ND","ND","ND","480","0"],
    [67817,"2018-01-30T12:00:00","97.9","ND","ND","ND","167.4","1.7","ND","ND","ND","ND","570","0"],
    [67818,"2018-01-30T13:00:00","90","ND","ND","ND","ND","9.9","ND","ND","ND","ND","665","0"],
    [67819,"2018-01-30T14:00:00","84.8","ND","ND","ND","27.1","1.1","ND","ND","ND","ND","665","0"],
    [67820,"2018-01-30T15:00:00","52.8","ND","ND","ND","39.8","0.9","ND","ND","ND","ND","665","0"],
    [67821,"2018-01-30T16:00:00","37","ND","ND","ND","35.5","0.6","ND","ND","ND","ND","600","0"],
    [67822,"2018-01-30T17:00:00","20","ND","ND","ND","28.5","0.3","ND","ND","ND","ND","424","0"],
    [67823,"2018-01-30T18:00:00","23.7","ND","ND","ND","12.7","0.2","ND","ND","ND","ND","281","0"],
    [67824,"2018-01-30T19:00:00","17.3","ND","ND","ND","6.3","0.1","ND","ND","ND","ND","8","0"],
    [67825,"2018-01-30T20:00:00","0.1","ND","ND","ND","4.2","0.4","ND","ND","ND","ND","0","0"],
    [67826,"2018-01-30T21:00:00","12.8","ND","ND","ND","4.4","0.9","ND","ND","ND","ND","0","0"],
    [67827,"2018-01-30T22:00:00","17.7","ND","ND","ND","4.7","1.4","ND","ND","ND","ND","0","0"],
    [67828,"2018-01-30T23:00:00","30.9","ND","ND","ND","4.9","3.3","ND","ND","ND","ND","0","0"],
    [67829,"2018-01-31T00:00:00","20.1","ND","ND","ND","3.9","1.3","ND","ND","ND","ND","0","0"],
    [67830,"2018-01-31T01:00:00","28.7","ND","ND","ND","4.0","1.4","ND","ND","ND","ND","0","0"],
    [67831,"2018-01-31T02:00:00","35.3","ND","ND","ND","4.4","1.6","ND","ND","ND","ND","0","0"],
    [67832,"2018-01-31T03:00:00","43.8","ND","ND","ND","4.2","2.1","ND","ND","ND","ND","0","0"],
    [67833,"2018-01-31T04:00:00","39.5","ND","ND","ND","4.6","1.0","ND","ND","ND","ND","0","0"],
    [67834,"2018-01-31T05:00:00","44.7","ND","ND","ND","4.4","4.5","ND","ND","ND","ND","0","0"],
    [67835,"2018-01-31T06:00:00","49","ND","ND","ND","5.3","4.5","ND","ND","ND","ND","0","0"],
    [67836,"2018-01-31T07:00:00","66.5","ND","ND","ND","7.2","2.9","ND","ND","ND","ND","59","0"],
    [67837,"2018-01-31T08:00:00","95.6","ND","ND","ND","7.3","4.5","ND","ND","ND","ND","468","0"],
    [67838,"2018-01-31T09:00:00","137.9","ND","ND","ND","12.2","2.1","ND","ND","ND","ND","664","0"],
    [67839,"2018-01-31T10:00:00","133.1","ND","ND","ND","37.7","1.2","ND","ND","ND","ND","650","0"],
    [67840,"2018-01-31T11:00:00","105.8","ND","ND","ND","73.8","0.6","ND","ND","ND","ND","665","0"],
    [67841,"2018-01-31T12:00:00","87.1","ND","ND","ND","111.8","0.4","ND","ND","ND","ND","666","0"],
    [67842,"2018-01-31T13:00:00","75.6","ND","ND","ND","134.0","0.4","ND","ND","ND","ND","666","0"],
    [67843,"2018-01-31T14:00:00","57","ND","ND","ND","147.0","0.5","ND","ND","ND","ND","666","0"],
    [67844,"2018-01-31T15:00:00","47","ND","ND","ND","145.2","0.2","ND","ND","ND","ND","653","0"],
    [67845,"2018-01-31T16:00:00","48.9","ND","ND","ND","65.8","0.2","ND","ND","ND","ND","549","0"],
    [67846,"2018-01-31T17:00:00","35","ND","ND","ND","59.1","0.3","ND","ND","ND","ND","663","0"],
    [67847,"2018-01-31T18:00:00","33.2","ND","ND","ND","59.1","0.3","ND","ND","ND","ND","316","0"],
    [67848,"2018-01-31T19:00:00","41.1","ND","ND","ND","49.5","0.2","ND","ND","ND","ND","8","0"],
    [67849,"2018-01-31T20:00:00","8.9","ND","ND","ND","20.2","0.3","ND","ND","ND","ND","0","0"],
    [67850,"2018-01-31T21:00:00","16.1","ND","ND","ND","4.5","1.6","ND","ND","ND","ND","0","0"],
    [67851,"2018-01-31T22:00:00","14.6","ND","ND","ND","5.0","1.2","ND","ND","ND","ND","0","0"],
    [67852,"2018-01-31T23:00:00","29.2","ND","ND","ND","5.6","4.7","ND","ND","ND","ND","0","0"],
    [67853,"2018-02-01T00:00:00","28.9","ND","ND","ND","5.5","1.1","ND","ND","ND","ND","0","0"],
    [67854,"2018-02-01T01:00:00","25.9","ND","ND","ND","4.9","3.1","ND","ND","ND","ND","0","0"],
    [67855,"2018-02-01T02:00:00","21.7","ND","ND","ND","4.5","1.9","ND","ND","ND","ND","0","0"],
    [67856,"2018-02-01T03:00:00","24.3","ND","ND","ND","4.7","0.9","ND","ND","ND","ND","0","0"],
    [67857,"2018-02-01T04:00:00","23.6","ND","ND","ND","4.9","0.3","ND","ND","ND","ND","0","0"],
    [67858,"2018-02-01T05:00:00","31.1","ND","ND","ND","4.9","2.1","ND","ND","ND","ND","0","0"],
    [67859,"2018-02-01T06:00:00","39.5","ND","ND","ND","4.6","1.7","ND","ND","ND","ND","0","0"],
    [67860,"2018-02-01T07:00:00","40.6","ND","ND","ND","6.2","2.2","ND","ND","ND","ND","32","0"],
    [67861,"2018-02-01T08:00:00","86.4","ND","ND","ND","6.8","1.8","ND","ND","ND","ND","211","0"],
    [67862,"2018-02-01T09:00:00","110.8","ND","ND","ND","7.0","1.7","ND","ND","ND","ND","209","0"],
    [67863,"2018-02-01T10:00:00","101.4","ND","ND","ND","13.8","1.7","ND","ND","ND","ND","597","0"],
    [67864,"2018-02-01T11:00:00","86.1","ND","ND","ND","40.9","1.0","ND","ND","ND","ND","664","0"],
    [67865,"2018-02-01T12:00:00","92","ND","ND","ND","98.0","0.8","ND","ND","ND","ND","665","0"],
    [67866,"2018-02-01T13:00:00","87.5","ND","ND","ND","98.5","0.5","ND","ND","ND","ND","666","0"],
    [67867,"2018-02-01T14:00:00","67.5","ND","ND","ND","123.2","0.3","ND","ND","ND","ND","666","0"],
    [67868,"2018-02-01T15:00:00","63.2","ND","ND","ND","102.2","0.4","ND","ND","ND","ND","565","0"],
    [67869,"2018-02-01T16:00:00","39","ND","ND","ND","37.4","0.3","ND","ND","ND","ND","648","0"],
    [67870,"2018-02-01T17:00:00","28.4","ND","ND","ND","43.4","0.2","ND","ND","ND","ND","563","0"],
    [67871,"2018-02-01T18:00:00","33.8","ND","ND","ND","41.1","0.1","ND","ND","ND","ND","186","0"],
    [67872,"2018-02-01T19:00:00","23.4","ND","ND","ND","19.1","0.3","ND","ND","ND","ND","8","0"],
    [67873,"2018-02-01T20:00:00","4.1","ND","ND","ND","12.0","0.2","ND","ND","ND","ND","0","0"],
    [67874,"2018-02-01T21:00:00","12","ND","ND","ND","3.5","0.7","ND","ND","ND","ND","0","0"],
    [67875,"2018-02-01T22:00:00","17.1","ND","ND","ND","5.0","1.2","ND","ND","ND","ND","0","0"],
    [67876,"2018-02-01T23:00:00","21.8","ND","ND","ND","6.3","1.1","ND","ND","ND","ND","0","0"],
    [67877,"2018-02-02T00:00:00","16.4","ND","ND","ND","5.8","0.5","ND","ND","ND","ND","0","0"],
    [67878,"2018-02-02T01:00:00","21.1","ND","ND","ND","11.0","0.5","ND","ND","ND","ND","0","0"],
    [67879,"2018-02-02T02:00:00","16.8","ND","ND","ND","11.7","0.5","ND","ND","ND","ND","0","0"],
    [67880,"2018-02-02T03:00:00","29.5","ND","ND","ND","10.0","0.3","ND","ND","ND","ND","0","0"],
    [67881,"2018-02-02T04:00:00","35.1","ND","ND","ND","6.4","0.6","ND","ND","ND","ND","0","0"],
    [67882,"2018-02-02T05:00:00","29.1","ND","ND","ND","4.8","1.6","ND","ND","ND","ND","0","0.25"],
    [67883,"2018-02-02T06:00:00","24.4","ND","ND","ND","4.3","1.1","ND","ND","ND","ND","0","0.25"],
    [67884,"2018-02-02T07:00:00","25.8","ND","ND","ND","4.7","1.5","ND","ND","ND","ND","8","5.08"],
    [67885,"2018-02-02T08:00:00","28","ND","ND","ND","5.5","1.1","ND","ND","ND","ND","149","0.51"],
    [67886,"2018-02-02T09:00:00","35.9","ND","ND","ND","7.0","2.0","ND","ND","ND","ND","314","0"],
    [67887,"2018-02-02T10:00:00","62.1","ND","ND","ND","5.9","1.1","ND","ND","ND","ND","660","0"],
    [67888,"2018-02-02T11:00:00","89.5","ND","ND","ND","18.2","0.8","ND","ND","ND","ND","665","0"],
    [67889,"2018-02-02T12:00:00","87.6","ND","ND","ND","43.7","0.7","ND","ND","ND","ND","665","0.25"],
    [67890,"2018-02-02T13:00:00","73.1","ND","ND","ND","83.6","0.3","ND","ND","ND","ND","629","0"],
    [67891,"2018-02-02T14:00:00","61.2","ND","ND","ND","107.4","0.4","ND","ND","ND","ND","665","0"],
    [67892,"2018-02-02T15:00:00","38.5","ND","ND","ND","60.8","0.2","ND","ND","ND","ND","666","0"],
    [67893,"2018-02-02T16:00:00","17.9","ND","ND","ND","16.6","0.1","ND","ND","ND","ND","666","0"],
    [67894,"2018-02-02T17:00:00","18.1","ND","ND","ND","15.6","0.2","ND","ND","ND","ND","427","0"],
    [67895,"2018-02-02T18:00:00","19.9","ND","ND","ND","6.7","0.2","ND","ND","ND","ND","179","0"],
    [67896,"2018-02-02T19:00:00","17.4","ND","ND","ND","3.7","0.3","ND","ND","ND","ND","6","0"],
    [67897,"2018-02-02T20:00:00","25.5","ND","ND","ND","7.3","0.4","ND","ND","ND","ND","0","0"],
    [67898,"2018-02-02T21:00:00","3.1","ND","ND","ND","8.4","0.5","ND","ND","ND","ND","0","0"],
    [67899,"2018-02-02T22:00:00","23","ND","ND","ND","6.4","0.9","ND","ND","ND","ND","0","0"],
    [67900,"2018-02-02T23:00:00","45.6","ND","ND","ND","6.4","1.1","ND","ND","ND","ND","0","0"],
    [67901,"2018-02-03T00:00:00","46","ND","ND","ND","6.9","1.6","ND","ND","ND","ND","0","0"],
    [67902,"2018-02-03T01:00:00","49","ND","ND","ND","6.2","1.6","ND","ND","ND","ND","0","0"],
    [67903,"2018-02-03T02:00:00","57.2","ND","ND","ND","6.0","1.8","ND","ND","ND","ND","0","0"],
    [67904,"2018-02-03T03:00:00","47.2","ND","ND","ND","6.6","1.6","ND","ND","ND","ND","0","0"],
    [67905,"2018-02-03T04:00:00","47.6","ND","ND","ND","6.2","0.7","ND","ND","ND","ND","0","0"],
    [67906,"2018-02-03T05:00:00","44.4","ND","ND","ND","6.5","2.6","ND","ND","ND","ND","0","0"],
    [67907,"2018-02-03T06:00:00","57.7","ND","ND","ND","7.0","2.3","ND","ND","ND","ND","0","0"],
    [67908,"2018-02-03T07:00:00","55.4","ND","ND","ND","7.3","2.5","ND","ND","ND","ND","49","0"],
    [67909,"2018-02-03T08:00:00","42.4","ND","ND","ND","5.4","0.5","ND","ND","ND","ND","263","0"],
    [67910,"2018-02-03T09:00:00","61.3","ND","ND","ND","7.8","0.9","ND","ND","ND","ND","486","0"],
    [67911,"2018-02-03T10:00:00","79.2","ND","ND","ND","15.9","0.5","ND","ND","ND","ND","610","0"],
    [67912,"2018-02-03T11:00:00","76.2","ND","ND","ND","37.3","0.9","ND","ND","ND","ND","665","0"],
    [67913,"2018-02-03T12:00:00","68.4","ND","ND","ND","58.9","0.2","ND","ND","ND","ND","665","0"],
    [67914,"2018-02-03T13:00:00","61.4","ND","ND","ND","61.1","0.3","ND","ND","ND","ND","665","0"],
    [67915,"2018-02-03T14:00:00","49.6","ND","ND","ND","60.2","0.1","ND","ND","ND","ND","666","0"],
    [67916,"2018-02-03T15:00:00","32.7","ND","ND","ND","61.3","0.2","ND","ND","ND","ND","666","0"],
    [67917,"2018-02-03T16:00:00","38.4","ND","ND","ND","42.8","0.3","ND","ND","ND","ND","666","0"],
    [67918,"2018-02-03T17:00:00","18.7","ND","ND","ND","29.4","0.3","ND","ND","ND","ND","579","0"],
    [67919,"2018-02-03T18:00:00","11.8","ND","ND","ND","28.5","0.1","ND","ND","ND","ND","298","0"],
    [67920,"2018-02-03T19:00:00","7.2","ND","ND","ND","16.5","0.2","ND","ND","ND","ND","24","0"],
    [67921,"2018-02-03T20:00:00","ND","ND","ND","ND","6.3","0.2","ND","ND","ND","ND","0","0"],
    [67922,"2018-02-03T21:00:00","1.9","ND","ND","ND","3.6","0.5","ND","ND","ND","ND","0","0"],
    [67923,"2018-02-03T22:00:00","22.2","ND","ND","ND","3.7","1.0","ND","ND","ND","ND","0","0"],
    [67924,"2018-02-03T23:00:00","31.4","ND","ND","ND","3.3","0.5","ND","ND","ND","ND","0","0"],
    [67925,"2018-02-04T00:00:00","4.1","ND","ND","ND","3.0","0.5","ND","ND","ND","ND","0","0"],
    [67926,"2018-02-04T01:00:00","5.8","ND","ND","ND","3.7","1.7","ND","ND","ND","ND","0","0"],
    [67927,"2018-02-04T02:00:00","32.8","ND","ND","ND","3.8","1.2","ND","ND","ND","ND","0","0"],
    [67928,"2018-02-04T03:00:00","35.8","ND","ND","ND","3.7","0.4","ND","ND","ND","ND","0","0"],
    [67929,"2018-02-04T04:00:00","25.3","ND","ND","ND","3.2","0.2","ND","ND","ND","ND","0","0"],
    [67930,"2018-02-04T05:00:00","16.8","ND","ND","ND","3.2","0.6","ND","ND","ND","ND","0","0"],
    [67931,"2018-02-04T06:00:00","31","ND","ND","ND","5.5","5.9","ND","ND","ND","ND","0","0"],
    [67932,"2018-02-04T07:00:00","64.7","ND","ND","ND","5.2","2.2","ND","ND","ND","ND","29","0"],
    [67933,"2018-02-04T08:00:00","42.3","ND","ND","ND","6.5","1.5","ND","ND","ND","ND","242","0"],
    [67934,"2018-02-04T09:00:00","51.6","ND","ND","ND","11.5","0.9","ND","ND","ND","ND","425","0"],
    [67935,"2018-02-04T10:00:00","65.6","ND","ND","ND","26.3","1.4","ND","ND","ND","ND","619","0"],
    [67936,"2018-02-04T11:00:00","63.3","ND","ND","ND","42.6","0.4","ND","ND","ND","ND","665","0"],
    [67937,"2018-02-04T12:00:00","66.9","ND","ND","ND","60.0","0.3","ND","ND","ND","ND","665","0"],
    [67938,"2018-02-04T13:00:00","61.9","ND","ND","ND","67.2","0.3","ND","ND","ND","ND","666","0"],
    [67939,"2018-02-04T14:00:00","54.4","ND","ND","ND","54.6","0.3","ND","ND","ND","ND","666","0"],
    [67940,"2018-02-04T15:00:00","33.4","ND","ND","ND","61.5","0.5","ND","ND","ND","ND","552","0"],
    [67941,"2018-02-04T16:00:00","29.5","ND","ND","ND","54.3","0.2","ND","ND","ND","ND","597","0"],
    [67942,"2018-02-04T17:00:00","16","ND","ND","ND","40.2","0.1","ND","ND","ND","ND","660","0"],
    [67943,"2018-02-04T18:00:00","22.7","ND","ND","ND","26.0","0.1","ND","ND","ND","ND","204","0"],
    [67944,"2018-02-04T19:00:00","11.3","ND","ND","ND","23.0","0.3","ND","ND","ND","ND","12","0"],
    [67945,"2018-02-04T20:00:00","2.3","ND","ND","ND","11.7","0.1","ND","ND","ND","ND","0","0"],
    [67946,"2018-02-04T21:00:00","8.4","ND","ND","ND","4.0","1.2","ND","ND","ND","ND","0","0"],
    [67947,"2018-02-04T22:00:00","16.1","ND","ND","ND","4.7","1.1","ND","ND","ND","ND","0","0"],
    [67948,"2018-02-04T23:00:00","6.3","ND","ND","ND","5.1","0.9","ND","ND","ND","ND","0","0"],
    [67949,"2018-02-05T00:00:00","5.5","ND","ND","ND","5.5","1.3","ND","ND","ND","ND","0","0"],
    [67950,"2018-02-05T01:00:00","14.2","ND","ND","ND","5.6","1.2","ND","ND","ND","ND","0","0"],
    [67951,"2018-02-05T02:00:00","11.5","ND","ND","ND","7.0","0.8","ND","ND","ND","ND","0","0"],
    [67952,"2018-02-05T03:00:00","18.4","ND","ND","ND","6.9","1.5","ND","ND","ND","ND","0","0"],
    [67953,"2018-02-05T04:00:00","26.5","ND","ND","ND","8.8","0.4","ND","ND","ND","ND","0","0"],
    [67954,"2018-02-05T05:00:00","21.3","ND","ND","ND","10.3","0.2","ND","ND","ND","ND","0","0.25"],
    [67955,"2018-02-05T06:00:00","21.8","ND","ND","ND","5.5","0.1","ND","ND","ND","ND","0","0.25"],
    [67956,"2018-02-05T07:00:00","24.2","ND","ND","ND","5.5","0.4","ND","ND","ND","ND","18","0.25"],
    [67957,"2018-02-05T08:00:00","33.3","ND","ND","ND","6.5","0.5","ND","ND","ND","ND","348","0"],
    [67958,"2018-02-05T09:00:00","61.8","ND","ND","ND","8.9","0.5","ND","ND","ND","ND","631","0"],
    [67959,"2018-02-05T10:00:00","70.3","ND","ND","ND","19.9","0.4","ND","ND","ND","ND","665","0"],
    [67960,"2018-02-05T11:00:00","62.7","ND","ND","ND","39.9","0.6","ND","ND","ND","ND","665","0"],
    [67961,"2018-02-05T12:00:00","54.8","ND","ND","ND","48.5","0.2","ND","ND","ND","ND","666","0"],
    [67962,"2018-02-05T13:00:00","39","ND","ND","ND","40.3","0.4","ND","ND","ND","ND","666","0"],
    [67963,"2018-02-05T14:00:00","26.4","ND","ND","ND","40.5","0.2","ND","ND","ND","ND","666","0"],
    [67964,"2018-02-05T15:00:00","16.3","ND","ND","ND","36.4","0.2","ND","ND","ND","ND","666","0"],
    [67965,"2018-02-05T16:00:00","17","ND","ND","ND","24.7","0.1","ND","ND","ND","ND","536","0"],
    [67966,"2018-02-05T17:00:00","21.9","ND","ND","ND","21.8","0.3","ND","ND","ND","ND","358","0"],
    [67967,"2018-02-05T18:00:00","18.7","ND","ND","ND","16.2","0.1","ND","ND","ND","ND","158","0"],
    [67968,"2018-02-05T19:00:00","12.6","ND","ND","ND","12.4","0.2","ND","ND","ND","ND","16","0"],
    [67969,"2018-02-05T20:00:00","5.4","ND","ND","ND","8.5","0.4","ND","ND","ND","ND","0","0"],
    [67970,"2018-02-05T21:00:00","3.1","ND","ND","ND","5.8","0.4","ND","ND","ND","ND","0","0"],
    [67971,"2018-02-05T22:00:00","10.9","ND","ND","ND","6.1","0.4","ND","ND","ND","ND","0","0"],
    [67972,"2018-02-05T23:00:00","30.9","ND","ND","ND","4.0","0.8","ND","ND","ND","ND","0","0"],
    [67973,"2018-02-06T00:00:00","28.1","ND","ND","ND","4.8","0.7","ND","ND","ND","ND","0","0"],
    [67974,"2018-02-06T01:00:00","18.1","ND","ND","ND","4.7","1.0","ND","ND","ND","ND","0","0"],
    [67975,"2018-02-06T02:00:00","33.4","ND","ND","ND","5.6","1.1","ND","ND","ND","ND","0","0"],
    [67976,"2018-02-06T03:00:00","48.7","ND","ND","ND","7.2","1.8","ND","ND","ND","ND","0","0"],
    [67977,"2018-02-06T04:00:00","52.4","ND","ND","ND","6.7","0.8","ND","ND","ND","ND","0","0"],
    [67978,"2018-02-06T05:00:00","54.4","ND","ND","ND","6.9","0.8","ND","ND","ND","ND","0","0"],
    [67979,"2018-02-06T06:00:00","38.5","ND","ND","ND","6.8","0.2","ND","ND","ND","ND","0","0"],
    [67980,"2018-02-06T07:00:00","41.9","ND","ND","ND","6.7","1.3","ND","ND","ND","ND","34","0"],
    [67981,"2018-02-06T08:00:00","73.4","ND","ND","ND","8.9","1.2","ND","ND","ND","ND","309","0"],
    [67982,"2018-02-06T09:00:00","106.7","ND","ND","ND","11.3","0.9","ND","ND","ND","ND","528","0"],
    [67983,"2018-02-06T10:00:00","73.7","ND","ND","ND","28.8","0.4","ND","ND","ND","ND","648","0"],
    [67984,"2018-02-06T11:00:00","72.1","ND","ND","ND","57.5","0.3","ND","ND","ND","ND","659","0"],
    [67985,"2018-02-06T12:00:00","69.6","ND","ND","ND","66.5","0.3","ND","ND","ND","ND","665","0"],
    [67986,"2018-02-06T13:00:00","55.1","ND","ND","ND","73.0","0.3","ND","ND","ND","ND","528","0"],
    [67987,"2018-02-06T14:00:00","51.8","ND","ND","ND","44.7","0.2","ND","ND","ND","ND","564","0"],
    [67988,"2018-02-06T15:00:00","24.6","ND","ND","ND","47.2","0.4","ND","ND","ND","ND","666","0"],
    [67989,"2018-02-06T16:00:00","33.9","ND","ND","ND","36.4","0.3","ND","ND","ND","ND","435","0"],
    [67990,"2018-02-06T17:00:00","34.3","ND","ND","ND","30.7","0.1","ND","ND","ND","ND","616","0"],
    [67991,"2018-02-06T18:00:00","22.9","ND","ND","ND","24.9","0.1","ND","ND","ND","ND","445","0"],
    [67992,"2018-02-06T19:00:00","15.2","ND","ND","ND","12.7","0.2","ND","ND","ND","ND","20","0"],
    [67993,"2018-02-06T20:00:00","21.8","ND","ND","ND","3.7","0.2","ND","ND","ND","ND","0","0"],
    [67994,"2018-02-06T21:00:00","33.1","ND","ND","ND","4.0","0.5","ND","ND","ND","ND","0","0"],
    [67995,"2018-02-06T22:00:00","32.6","ND","ND","ND","6.0","1.0","ND","ND","ND","ND","0","0"],
    [67996,"2018-02-06T23:00:00","6.5","ND","ND","ND","9.2","0.3","ND","ND","ND","ND","0","0"],
    [67997,"2018-02-07T00:00:00","13.4","ND","ND","ND","5.6","0.6","ND","ND","ND","ND","0","0"],
    [67998,"2018-02-07T01:00:00","30","ND","ND","ND","6.3","0.4","ND","ND","ND","ND","0","0"],
    [67999,"2018-02-07T02:00:00","40.1","ND","ND","ND","6.9","3.1","ND","ND","ND","ND","0","0"],
    [68000,"2018-02-07T03:00:00","41","ND","ND","ND","7.8","0.9","ND","ND","ND","ND","0","0"],
    [68001,"2018-02-07T04:00:00","48.3","ND","ND","ND","7.7","0.5","ND","ND","ND","ND","0","0"],
    [68002,"2018-02-07T05:00:00","42.2","ND","ND","ND","7.8","0.6","ND","ND","ND","ND","0","0"],
    [68003,"2018-02-07T06:00:00","46.5","ND","ND","ND","5.5","0.5","ND","ND","ND","ND","0","0"],
    [68004,"2018-02-07T07:00:00","39.7","ND","ND","ND","5.3","0.3","ND","ND","ND","ND","25","0"],
    [68005,"2018-02-07T08:00:00","57.7","ND","ND","ND","6.9","0.9","ND","ND","ND","ND","399","0"],
    [68006,"2018-02-07T09:00:00","89.4","ND","ND","ND","13.0","0.8","ND","ND","ND","ND","654","0"],
    [68007,"2018-02-07T10:00:00","101.1","ND","ND","ND","21.6","0.6","ND","ND","ND","ND","609","0"],
    [68008,"2018-02-07T11:00:00","80.9","ND","ND","ND","37.9","0.3","ND","ND","ND","ND","665","0"],
    [68009,"2018-02-07T12:00:00","70.2","ND","ND","ND","65.6","0.3","ND","ND","ND","ND","636","0"],
    [68010,"2018-02-07T13:00:00","97.4","ND","ND","ND","53.0","0.6","ND","ND","ND","ND","411","1.52"],
    [68011,"2018-02-07T14:00:00","51.3","ND","ND","ND","81.1","0.2","ND","ND","ND","ND","665","0"],
    [68012,"2018-02-07T15:00:00","22.6","ND","ND","ND","36.4","0.3","ND","ND","ND","ND","655","0"],
    [68013,"2018-02-07T16:00:00","9.9","ND","ND","ND","26.1","0.1","ND","ND","ND","ND","649","0"],
    [68014,"2018-02-07T17:00:00","14.1","ND","ND","ND","24.4","0.1","ND","ND","ND","ND","600","0"],
    [68015,"2018-02-07T18:00:00","10.8","ND","ND","ND","21.3","0.2","ND","ND","ND","ND","318","0"],
    [68016,"2018-02-07T19:00:00","13.6","ND","ND","ND","10.9","0.1","ND","ND","ND","ND","11","0"],
    [68017,"2018-02-07T20:00:00","0.1","ND","ND","ND","8.0","0.2","ND","ND","ND","ND","0","0"],
    [68018,"2018-02-07T21:00:00","0.9","ND","ND","ND","5.2","0.5","ND","ND","ND","ND","0","0"],
    [68019,"2018-02-07T22:00:00","16.6","ND","ND","ND","5.4","1.2","ND","ND","ND","ND","0","0"],
    [68020,"2018-02-07T23:00:00","12.6","ND","ND","ND","5.5","0.9","ND","ND","ND","ND","0","0"],
    [68021,"2018-02-08T00:00:00","12.4","ND","ND","ND","5.4","0.5","ND","ND","ND","ND","0","0"],
    [68022,"2018-02-08T01:00:00","12.1","ND","ND","ND","5.2","0.9","ND","ND","ND","ND","0","0"],
    [68023,"2018-02-08T02:00:00","26","ND","ND","ND","5.1","0.7","ND","ND","ND","ND","0","0"],
    [68024,"2018-02-08T03:00:00","20.7","ND","ND","ND","4.6","0.9","ND","ND","ND","ND","0","0"],
    [68025,"2018-02-08T04:00:00","21.9","ND","ND","ND","4.7","0.4","ND","ND","ND","ND","0","0"],
    [68026,"2018-02-08T05:00:00","28.7","ND","ND","ND","5.1","1.4","ND","ND","ND","ND","0","0"],
    [68027,"2018-02-08T06:00:00","47.1","ND","ND","ND","5.2","1.7","ND","ND","ND","ND","0","0"],
    [68028,"2018-02-08T07:00:00","45.2","ND","ND","ND","5.5","0.9","ND","ND","ND","ND","11","0"],
    [68029,"2018-02-08T08:00:00","55.7","ND","ND","ND","5.5","1.0","ND","ND","ND","ND","76","3.56"],
    [68030,"2018-02-08T09:00:00","68.9","ND","ND","ND","6.3","1.0","ND","ND","ND","ND","339","2.29"],
    [68031,"2018-02-08T10:00:00","82.3","ND","ND","ND","5.8","0.7","ND","ND","ND","ND","627","0"],
    [68032,"2018-02-08T11:00:00","85","ND","ND","ND","8.8","1.1","ND","ND","ND","ND","665","0"],
    [68033,"2018-02-08T12:00:00","72.8","ND","ND","ND","25.1","0.7","ND","ND","ND","ND","665","0"],
    [68034,"2018-02-08T13:00:00","41.9","ND","ND","ND","33.9","0.3","ND","ND","ND","ND","637","0"],
    [68035,"2018-02-08T14:00:00","30","ND","ND","ND","48.3","0.3","ND","ND","ND","ND","656","0"],
    [68036,"2018-02-08T15:00:00","27.3","ND","ND","ND","49.5","0.2","ND","ND","ND","ND","644","0"],
    [68037,"2018-02-08T16:00:00","23.7","ND","ND","ND","31.7","0.2","ND","ND","ND","ND","618","0"],
    [68038,"2018-02-08T17:00:00","20.9","ND","ND","ND","29.9","0.3","ND","ND","ND","ND","662","0"],
    [68039,"2018-02-08T18:00:00","20.4","ND","ND","ND","30.0","0.1","ND","ND","ND","ND","298","0"],
    [68040,"2018-02-08T19:00:00","11.6","ND","ND","ND","19.0","0.2","ND","ND","ND","ND","10","0"],
    [68041,"2018-02-08T20:00:00","0.8","ND","ND","ND","6.2","0.3","ND","ND","ND","ND","0","0"],
    [68042,"2018-02-08T21:00:00","5.1","ND","ND","ND","5.4","0.9","ND","ND","ND","ND","0","0"],
    [68043,"2018-02-08T22:00:00","30.8","ND","ND","ND","5.3","2.2","ND","ND","ND","ND","0","0"],
    [68044,"2018-02-08T23:00:00","12.8","ND","ND","ND","5.0","1.3","ND","ND","ND","ND","0","0"],
    [68045,"2018-02-09T00:00:00","ND","ND","ND","ND","5.3","0.9","ND","ND","ND","ND","0","0"],
    [68046,"2018-02-09T01:00:00","1.4","ND","ND","ND","5.4","0.9","ND","ND","ND","ND","0","0"],
    [68047,"2018-02-09T02:00:00","34.1","ND","ND","ND","5.9","1.0","ND","ND","ND","ND","0","0"],
    [68048,"2018-02-09T03:00:00","40.2","ND","ND","ND","4.8","0.7","ND","ND","ND","ND","0","0"],
    [68049,"2018-02-09T04:00:00","37.7","ND","ND","ND","5.3","0.8","ND","ND","ND","ND","0","0"],
    [68050,"2018-02-09T05:00:00","25.8","ND","ND","ND","5.6","0.2","ND","ND","ND","ND","0","0"],
    [68051,"2018-02-09T06:00:00","19.6","ND","ND","ND","5.6","0.3","ND","ND","ND","ND","0","0"],
    [68052,"2018-02-09T07:00:00","10","ND","ND","ND","7.5","0.5","ND","ND","ND","ND","64","0"],
    [68053,"2018-02-09T08:00:00","34","ND","ND","ND","7.6","0.3","ND","ND","ND","ND","393","0"],
    [68054,"2018-02-09T09:00:00","94.9","ND","ND","ND","10.1","0.8","ND","ND","ND","ND","488","0"],
    [68055,"2018-02-09T10:00:00","77.3","ND","ND","ND","13.5","0.5","ND","ND","ND","ND","664","0"],
    [68056,"2018-02-09T11:00:00","64","ND","ND","ND","18.9","0.5","ND","ND","ND","ND","664","0"],
    [68057,"2018-02-09T12:00:00","78.1","ND","ND","ND","53.0","0.3","ND","ND","ND","ND","665","0"],
    [68058,"2018-02-09T13:00:00","56.4","ND","ND","ND","44.4","0.6","ND","ND","ND","ND","626","0"],
    [68059,"2018-02-09T14:00:00","37.7","ND","ND","ND","57.4","0.2","ND","ND","ND","ND","665","0"],
    [68060,"2018-02-09T15:00:00","32.6","ND","ND","ND","48.1","0.4","ND","ND","ND","ND","650","0"],
    [68061,"2018-02-09T16:00:00","26.5","ND","ND","ND","39.1","0.1","ND","ND","ND","ND","664","0"],
    [68062,"2018-02-09T17:00:00","32.9","ND","ND","ND","38.9","0.1","ND","ND","ND","ND","594","0"],
    [68063,"2018-02-09T18:00:00","6.9","ND","ND","ND","30.7","0.3","ND","ND","ND","ND","231","0"],
    [68064,"2018-02-09T19:00:00","ND","ND","ND","ND","21.3","0.2","ND","ND","ND","ND","14","0"],
    [68065,"2018-02-09T20:00:00","ND","ND","ND","ND","7.8","0.2","ND","ND","ND","ND","0","0"],
    [68066,"2018-02-09T21:00:00","ND","ND","ND","ND","2.6","0.6","ND","ND","ND","ND","0","0"],
    [68067,"2018-02-09T22:00:00","21.8","ND","ND","ND","2.7","1.2","ND","ND","ND","ND","0","0"],
    [68068,"2018-02-09T23:00:00","35.6","ND","ND","ND","3.0","1.2","ND","ND","ND","ND","0","0"],
    [68069,"2018-02-10T00:00:00","35.1","ND","ND","ND","3.1","1.2","ND","ND","ND","ND","0","0"],
    [68070,"2018-02-10T01:00:00","38","ND","ND","ND","2.9","1.1","ND","ND","ND","ND","0","0"],
    [68071,"2018-02-10T02:00:00","36","ND","ND","ND","4.1","0.6","ND","ND","ND","ND","0","0"],
    [68072,"2018-02-10T03:00:00","38","ND","ND","ND","3.4","0.8","ND","ND","ND","ND","0","0"],
    [68073,"2018-02-10T04:00:00","43.7","ND","ND","ND","4.4","1.0","ND","ND","ND","ND","0","0"],
    [68074,"2018-02-10T05:00:00","40.2","ND","ND","ND","3.2","0.9","ND","ND","ND","ND","0","0"],
    [68075,"2018-02-10T06:00:00","32.4","ND","ND","ND","2.5","0.7","ND","ND","ND","ND","0","0"],
    [68076,"2018-02-10T07:00:00","36.3","ND","ND","ND","2.7","0.4","ND","ND","ND","ND","29","0"],
    [68077,"2018-02-10T08:00:00","35","ND","ND","ND","6.2","0.3","ND","ND","ND","ND","268","0"],
    [68078,"2018-02-10T09:00:00","42.6","ND","ND","ND","7.8","0.7","ND","ND","ND","ND","358","0"],
    [68079,"2018-02-10T10:00:00","55.9","ND","ND","ND","22.0","0.3","ND","ND","ND","ND","663","0"],
    [68080,"2018-02-10T11:00:00","51.4","ND","ND","ND","38.6","0.2","ND","ND","ND","ND","627","0"],
    [68081,"2018-02-10T12:00:00","47.8","ND","ND","ND","47.2","0.4","ND","ND","ND","ND","644","0"],
    [68082,"2018-02-10T13:00:00","42","ND","ND","ND","73.6","0.2","ND","ND","ND","ND","663","0"],
    [68083,"2018-02-10T14:00:00","41.1","ND","ND","ND","96.7","0.3","ND","ND","ND","ND","624","0"],
    [68084,"2018-02-10T15:00:00","24.7","ND","ND","ND","68.6","0.3","ND","ND","ND","ND","647","0"],
    [68085,"2018-02-10T16:00:00","26.7","ND","ND","ND","38.0","0.1","ND","ND","ND","ND","663","0"],
    [68086,"2018-02-10T17:00:00","18.4","ND","ND","ND","40.8","0.1","ND","ND","ND","ND","661","0"],
    [68087,"2018-02-10T18:00:00","2","ND","ND","ND","35.9","0.2","ND","ND","ND","ND","327","0"],
    [68088,"2018-02-10T19:00:00","ND","ND","ND","ND","28.8","0.2","ND","ND","ND","ND","17","0"],
    [68089,"2018-02-10T20:00:00","ND","ND","ND","ND","10.2","0.3","ND","ND","ND","ND","0","0"],
    [68090,"2018-02-10T21:00:00","21.1","ND","ND","ND","11.4","0.3","ND","ND","ND","ND","0","0"],
    [68091,"2018-02-10T22:00:00","13.8","ND","ND","ND","21.8","0.1","ND","ND","ND","ND","0","0"],
    [68092,"2018-02-10T23:00:00","ND","ND","ND","ND","21.4","0.1","ND","ND","ND","ND","0","0"],
    [68093,"2018-02-11T00:00:00","6.9","ND","ND","ND","7.9","0.5","ND","ND","ND","ND","0","0"],
    [68094,"2018-02-11T01:00:00","42.2","ND","ND","ND","7.0","0.7","ND","ND","ND","ND","0","0"],
    [68095,"2018-02-11T02:00:00","61.7","ND","ND","ND","10.8","0.2","ND","ND","ND","ND","0","0"],
    [68096,"2018-02-11T03:00:00","17.9","ND","ND","ND","8.0","0.6","ND","ND","ND","ND","0","0"],
    [68097,"2018-02-11T04:00:00","43.4","ND","ND","ND","6.7","1.2","ND","ND","ND","ND","0","0"],
    [68098,"2018-02-11T05:00:00","44","ND","ND","ND","8.1","0.6","ND","ND","ND","ND","0","0"],
    [68099,"2018-02-11T06:00:00","25","ND","ND","ND","7.8","0.2","ND","ND","ND","ND","0","0"],
    [68100,"2018-02-11T07:00:00","5.5","ND","ND","ND","8.2","0.2","ND","ND","ND","ND","5","0"],
    [68101,"2018-02-11T08:00:00","3.3","ND","ND","ND","5.4","0.1","ND","ND","ND","ND","45","5.08"],
    [68102,"2018-02-11T09:00:00","8.1","ND","ND","ND","5.3","0.1","ND","ND","ND","ND","351","2.29"],
    [68103,"2018-02-11T10:00:00","34.5","ND","ND","ND","14.2","0.2","ND","ND","ND","ND","662","0"],
    [68104,"2018-02-11T11:00:00","58.4","ND","ND","ND","27.0","0.2","ND","ND","ND","ND","663","0"],
    [68105,"2018-02-11T12:00:00","35.2","ND","ND","ND","48.7","0.3","ND","ND","ND","ND","663","0"],
    [68106,"2018-02-11T13:00:00","30.6","ND","ND","ND","49.8","0.4","ND","ND","ND","ND","663","0"],
    [68107,"2018-02-11T14:00:00","12.9","ND","ND","ND","32.9","0.2","ND","ND","ND","ND","663","0"],
    [68108,"2018-02-11T15:00:00","1.4","ND","ND","ND","26.0","0.1","ND","ND","ND","ND","663","0"],
    [68109,"2018-02-11T16:00:00","6.3","ND","ND","ND","34.9","0.3","ND","ND","ND","ND","638","0"],
    [68110,"2018-02-11T17:00:00","1.3","ND","ND","ND","27.1","0.2","ND","ND","ND","ND","227","0"],
    [68111,"2018-02-11T18:00:00","ND","ND","ND","ND","19.3","0.1","ND","ND","ND","ND","97","0"],
    [68112,"2018-02-11T19:00:00","ND","ND","ND","ND","13.9","0.1","ND","ND","ND","ND","0","0"],
    [68113,"2018-02-11T20:00:00","4.8","ND","ND","ND","11.4","0.2","ND","ND","ND","ND","0","0"],
    [68114,"2018-02-11T21:00:00","2","ND","ND","ND","10.2","0.1","ND","ND","ND","ND","0","0"],
    [68115,"2018-02-11T22:00:00","19.7","ND","ND","ND","6.0","0.3","ND","ND","ND","ND","0","0"],
    [68116,"2018-02-11T23:00:00","15.8","ND","ND","ND","8.4","0.9","ND","ND","ND","ND","0","0"],
    [68117,"2018-02-12T00:00:00","14.8","ND","ND","ND","6.2","0.2","ND","ND","ND","ND","0","0"],
    [68118,"2018-02-12T01:00:00","24.7","ND","ND","ND","10.5","0.5","ND","ND","ND","ND","0","0"],
    [68119,"2018-02-12T02:00:00","1.8","ND","ND","ND","13.5","0.3","ND","ND","ND","ND","0","0"],
    [68120,"2018-02-12T03:00:00","17.6","ND","ND","ND","9.6","0.5","ND","ND","ND","ND","0","0"],
    [68121,"2018-02-12T04:00:00","41.5","ND","ND","ND","7.9","1.1","ND","ND","ND","ND","0","0"],
    [68122,"2018-02-12T05:00:00","33.2","ND","ND","ND","6.8","0.4","ND","ND","ND","ND","0","0"],
    [68123,"2018-02-12T06:00:00","40.8","ND","ND","ND","5.4","0.7","ND","ND","ND","ND","0","0"],
    [68124,"2018-02-12T07:00:00","40.6","ND","ND","ND","5.9","1.0","ND","ND","ND","ND","49","0"],
    [68125,"2018-02-12T08:00:00","43.2","ND","ND","ND","6.8","0.8","ND","ND","ND","ND","386","0"],
    [68126,"2018-02-12T09:00:00","51.2","ND","ND","ND","13.0","0.6","ND","ND","ND","ND","659","0"],
    [68127,"2018-02-12T10:00:00","62.8","ND","ND","ND","30.9","0.3","ND","ND","ND","ND","663","0"],
    [68128,"2018-02-12T11:00:00","48.3","ND","ND","ND","47.0","0.2","ND","ND","ND","ND","656","0"],
    [68129,"2018-02-12T12:00:00","39","ND","ND","ND","67.4","0.3","ND","ND","ND","ND","663","0"],
    [68130,"2018-02-12T13:00:00","46.2","ND","ND","ND","82.3","0.2","ND","ND","ND","ND","664","0"],
    [68131,"2018-02-12T14:00:00","46.6","ND","ND","ND","89.0","0.1","ND","ND","ND","ND","664","0"],
    [68132,"2018-02-12T15:00:00","37.8","ND","ND","ND","36.7","0.1","ND","ND","ND","ND","534","0"],
    [68133,"2018-02-12T16:00:00","16.8","ND","ND","ND","33.7","0.5","ND","ND","ND","ND","623","0"],
    [68134,"2018-02-12T17:00:00","32.6","ND","ND","ND","48.2","0.1","ND","ND","ND","ND","658","0"],
    [68135,"2018-02-12T18:00:00","17.4","ND","ND","ND","42.3","0.3","ND","ND","ND","ND","316","0"],
    [68136,"2018-02-12T19:00:00","3.3","ND","ND","ND","28.5","0.1","ND","ND","ND","ND","14","0"],
    [68137,"2018-02-12T20:00:00","ND","ND","ND","ND","32.4","0.1","ND","ND","ND","ND","0","0"],
    [68138,"2018-02-12T21:00:00","19.4","ND","ND","ND","8.4","0.3","ND","ND","ND","ND","0","0"],
    [68139,"2018-02-12T22:00:00","46.6","ND","ND","ND","8.3","0.4","ND","ND","ND","ND","0","0"],
    [68140,"2018-02-12T23:00:00","39.2","ND","ND","ND","9.0","0.3","ND","ND","ND","ND","0","0"],
    [68141,"2018-02-13T00:00:00","31","ND","ND","ND","6.9","0.9","ND","ND","ND","ND","0","0"],
    [68142,"2018-02-13T01:00:00","29.8","ND","ND","ND","7.4","0.5","ND","ND","ND","ND","0","0"],
    [68143,"2018-02-13T02:00:00","26.6","ND","ND","ND","10.0","0.6","ND","ND","ND","ND","0","0"],
    [68144,"2018-02-13T03:00:00","39.7","ND","ND","ND","8.3","0.5","ND","ND","ND","ND","0","0"],
    [68145,"2018-02-13T04:00:00","33.1","ND","ND","ND","7.0","0.2","ND","ND","ND","ND","0","0"],
    [68146,"2018-02-13T05:00:00","35.6","ND","ND","ND","6.6","0.8","ND","ND","ND","ND","0","0"],
    [68147,"2018-02-13T06:00:00","48.8","ND","ND","ND","6.3","0.7","ND","ND","ND","ND","0","0"],
    [68148,"2018-02-13T07:00:00","63.4","ND","ND","ND","6.9","1.0","ND","ND","ND","ND","11","0"],
    [68149,"2018-02-13T08:00:00","72.5","ND","ND","ND","6.7","0.9","ND","ND","ND","ND","113","0"],
    [68150,"2018-02-13T09:00:00","84.7","ND","ND","ND","9.0","1.1","ND","ND","ND","ND","536","0"],
    [68151,"2018-02-13T10:00:00","91","ND","ND","ND","13.9","1.4","ND","ND","ND","ND","630","0"],
    [68152,"2018-02-13T11:00:00","90.4","ND","ND","ND","41.3","0.9","ND","ND","ND","ND","663","0"],
    [68153,"2018-02-13T12:00:00","78.7","ND","ND","ND","84.3","0.6","ND","ND","ND","ND","663","0"],
    [68154,"2018-02-13T13:00:00","47.3","ND","ND","ND","99.2","0.6","ND","ND","ND","ND","660","0"],
    [68155,"2018-02-13T14:00:00","34.4","ND","ND","ND","63.5","0.1","ND","ND","ND","ND","663","0"],
    [68156,"2018-02-13T15:00:00","18.4","ND","ND","ND","35.2","0.1","ND","ND","ND","ND","554","0"],
    [68157,"2018-02-13T16:00:00","0.3","ND","ND","ND","24.7","0.1","ND","ND","ND","ND","663","0"],
    [68158,"2018-02-13T17:00:00","11.1","ND","ND","ND","36.4","0.0","ND","ND","ND","ND","553","0"],
    [68159,"2018-02-13T18:00:00","20.8","ND","ND","ND","18.2","0.2","ND","ND","ND","ND","232","0"],
    [68160,"2018-02-13T19:00:00","1.3","ND","ND","ND","13.3","0.2","ND","ND","ND","ND","6","0"],
    [68161,"2018-02-13T20:00:00","10.5","ND","ND","ND","7.0","0.1","ND","ND","ND","ND","0","0"],
    [68162,"2018-02-13T21:00:00","51.5","ND","ND","ND","6.9","0.2","ND","ND","ND","ND","0","0"],
    [68163,"2018-02-13T22:00:00","46.4","ND","ND","ND","6.6","0.2","ND","ND","ND","ND","0","0"],
    [68164,"2018-02-13T23:00:00","43","ND","ND","ND","6.4","1.0","ND","ND","ND","ND","0","0"],
    [68165,"2018-02-14T00:00:00","56.1","ND","ND","ND","6.4","1.2","ND","ND","ND","ND","0","0"],
    [68166,"2018-02-14T01:00:00","50.3","ND","ND","ND","6.3","3.2","ND","ND","ND","ND","0","0"],
    [68167,"2018-02-14T02:00:00","30.6","ND","ND","ND","8.0","0.6","ND","ND","ND","ND","0","0"],
    [68168,"2018-02-14T03:00:00","26.3","ND","ND","ND","6.3","0.5","ND","ND","ND","ND","0","0"],
    [68169,"2018-02-14T04:00:00","43.6","ND","ND","ND","7.2","0.4","ND","ND","ND","ND","0","0"],
    [68170,"2018-02-14T05:00:00","51","ND","ND","ND","7.3","1.3","ND","ND","ND","ND","0","0"],
    [68171,"2018-02-14T06:00:00","50.8","ND","ND","ND","6.6","1.2","ND","ND","ND","ND","0","0"],
    [68172,"2018-02-14T07:00:00","54.1","ND","ND","ND","6.7","0.8","ND","ND","ND","ND","47","0"],
    [68173,"2018-02-14T08:00:00","72.7","ND","ND","ND","7.8","1.1","ND","ND","ND","ND","196","0"],
    [68174,"2018-02-14T09:00:00","98.3","ND","ND","ND","9.9","2.1","ND","ND","ND","ND","644","0"],
    [68175,"2018-02-14T10:00:00","114","ND","ND","ND","14.3","1.2","ND","ND","ND","ND","663","0"],
    [68176,"2018-02-14T11:00:00","81.7","ND","ND","ND","28.7","0.3","ND","ND","ND","ND","663","0"],
    [68177,"2018-02-14T12:00:00","59.9","ND","ND","ND","51.8","0.3","ND","ND","ND","ND","663","0"],
    [68178,"2018-02-14T13:00:00","51.5","ND","ND","ND","74.4","0.3","ND","ND","ND","ND","664","0"],
    [68179,"2018-02-14T14:00:00","39.4","ND","ND","ND","88.1","0.2","ND","ND","ND","ND","659","0"],
    [68180,"2018-02-14T15:00:00","40.8","ND","ND","ND","62.3","0.2","ND","ND","ND","ND","662","0"],
    [68181,"2018-02-14T16:00:00","29.6","ND","ND","ND","40.0","0.1","ND","ND","ND","ND","577","0"],
    [68182,"2018-02-14T17:00:00","7.4","ND","ND","ND","42.5","0.2","ND","ND","ND","ND","662","0"],
    [68183,"2018-02-14T18:00:00","19.5","ND","ND","ND","32.3","0.2","ND","ND","ND","ND","441","0"],
    [68184,"2018-02-14T19:00:00","14.6","ND","ND","ND","20.1","0.1","ND","ND","ND","ND","29","0"],
    [68185,"2018-02-14T20:00:00","13.2","ND","ND","ND","8.2","0.2","ND","ND","ND","ND","0","0"],
    [68186,"2018-02-14T21:00:00","31.5","ND","ND","ND","9.7","0.2","ND","ND","ND","ND","0","0"],
    [68187,"2018-02-14T22:00:00","33.1","ND","ND","ND","10.0","0.2","ND","ND","ND","ND","0","0.76"],
    [68188,"2018-02-14T23:00:00","27.9","ND","ND","ND","7.8","0.5","ND","ND","ND","ND","0","1.02"],
    [68189,"2018-02-15T00:00:00","34.9","ND","ND","ND","6.7","0.9","ND","ND","ND","ND","0","0"],
    [68190,"2018-02-15T01:00:00","31.7","ND","ND","ND","6.4","4.2","ND","ND","ND","ND","0","0.51"],
    [68191,"2018-02-15T02:00:00","17.3","ND","ND","ND","6.8","0.6","ND","ND","ND","ND","0","0"],
    [68192,"2018-02-15T03:00:00","4.3","ND","ND","ND","7.9","1.0","ND","ND","ND","ND","0","4.06"],
    [68193,"2018-02-15T04:00:00","ND","ND","ND","ND","7.4","1.4","ND","ND","ND","ND","0","0.51"],
    [68194,"2018-02-15T05:00:00","1.6","ND","ND","ND","7.2","0.5","ND","ND","ND","ND","0","0"],
    [68195,"2018-02-15T06:00:00","8.6","ND","ND","ND","5.4","0.5","ND","ND","ND","ND","0","0.25"],
    [68196,"2018-02-15T07:00:00","27","ND","ND","ND","5.7","1.4","ND","ND","ND","ND","23","0.25"],
    [68197,"2018-02-15T08:00:00","33.3","ND","ND","ND","5.9","0.6","ND","ND","ND","ND","169","0.25"],
    [68198,"2018-02-15T09:00:00","35.3","ND","ND","ND","7.5","0.4","ND","ND","ND","ND","433","0"],
    [68199,"2018-02-15T10:00:00","55.3","ND","ND","ND","12.1","0.5","ND","ND","ND","ND","654","0"],
    [68200,"2018-02-15T11:00:00","56","ND","ND","ND","37.9","0.3","ND","ND","ND","ND","663","0"],
    [68201,"2018-02-15T12:00:00","51.5","ND","ND","ND","63.7","0.3","ND","ND","ND","ND","663","0"],
    [68202,"2018-02-15T13:00:00","49.9","ND","ND","ND","88.3","0.4","ND","ND","ND","ND","663","0"],
    [68203,"2018-02-15T14:00:00","52.7","ND","ND","ND","107.8","0.2","ND","ND","ND","ND","664","0"],
    [68204,"2018-02-15T15:00:00","56.8","ND","ND","ND","115.7","0.1","ND","ND","ND","ND","647","0"],
    [68205,"2018-02-15T16:00:00","52.4","ND","ND","ND","72.3","4.5","ND","ND","ND","ND","660","0"],
    [68206,"2018-02-15T17:00:00","27","ND","ND","ND","24.6","1.6","ND","ND","ND","ND","511","0"],
    [68207,"2018-02-15T18:00:00","8.1","ND","ND","ND","16.8","7.8","ND","ND","ND","ND","52","0"],
    [68208,"2018-02-15T19:00:00","0.1","ND","ND","ND","9.1","0.5","ND","ND","ND","ND","4","0"],
    [68209,"2018-02-15T20:00:00","8.6","ND","ND","ND","7.4","0.3","ND","ND","ND","ND","0","0"],
    [68210,"2018-02-15T21:00:00","26.3","ND","ND","ND","6.3","0.6","ND","ND","ND","ND","0","0"],
    [68211,"2018-02-15T22:00:00","40.7","ND","ND","ND","6.1","0.7","ND","ND","ND","ND","0","0"],
    [68212,"2018-02-15T23:00:00","36.6","ND","ND","ND","7.9","0.7","ND","ND","ND","ND","0","0"],
    [68213,"2018-02-16T00:00:00","19","ND","ND","ND","10.0","0.4","ND","ND","ND","ND","0","0"],
    [68214,"2018-02-16T01:00:00","5.1","ND","ND","ND","9.9","0.6","ND","ND","ND","ND","0","0"],
    [68215,"2018-02-16T02:00:00","2.9","ND","ND","ND","9.5","0.5","ND","ND","ND","ND","0","0"],
    [68216,"2018-02-16T03:00:00","3.8","ND","ND","ND","10.2","0.1","ND","ND","ND","ND","0","0"],
    [68217,"2018-02-16T04:00:00","17.8","ND","ND","ND","7.4","0.5","ND","ND","ND","ND","0","0"],
    [68218,"2018-02-16T05:00:00","24.8","ND","ND","ND","6.6","0.3","ND","ND","ND","ND","0","0"],
    [68219,"2018-02-16T06:00:00","28.1","ND","ND","ND","6.2","0.5","ND","ND","ND","ND","0","0"],
    [68220,"2018-02-16T07:00:00","35.6","ND","ND","ND","6.8","1.2","ND","ND","ND","ND","68","0"],
    [68221,"2018-02-16T08:00:00","62.8","ND","ND","ND","8.5","1.5","ND","ND","ND","ND","287","0"],
    [68222,"2018-02-16T09:00:00","95.1","ND","ND","ND","12.1","1.0","ND","ND","ND","ND","601","0"],
    [68223,"2018-02-16T10:00:00","87","ND","ND","ND","31.3","0.2","ND","ND","ND","ND","661","0"],
    [68224,"2018-02-16T11:00:00","47.8","ND","ND","ND","45.0","0.1","ND","ND","ND","ND","663","0"],
    [68225,"2018-02-16T12:00:00","38.4","ND","ND","ND","59.5","0.2","ND","ND","ND","ND","663","0"],
    [68226,"2018-02-16T13:00:00","29.4","ND","ND","ND","68.8","0.2","ND","ND","ND","ND","664","0"],
    [68227,"2018-02-16T14:00:00","25.3","ND","ND","ND","82.7","0.2","ND","ND","ND","ND","659","0"],
    [68228,"2018-02-16T15:00:00","37.1","ND","ND","ND","79.0","0.2","ND","ND","ND","ND","598","0"],
    [68229,"2018-02-16T16:00:00","24.4","ND","ND","ND","42.5","0.2","ND","ND","ND","ND","637","0"],
    [68230,"2018-02-16T17:00:00","15.1","ND","ND","ND","32.1","0.1","ND","ND","ND","ND","649","0"],
    [68231,"2018-02-16T18:00:00","ND","ND","ND","ND","27.5","0.0","ND","ND","ND","ND","200","0"],
    [68232,"2018-02-16T19:00:00","0.6","ND","ND","ND","11.4","0.1","ND","ND","ND","ND","15","0"],
    [68233,"2018-02-16T20:00:00","18.5","ND","ND","ND","8.0","0.1","ND","ND","ND","ND","0","0"],
    [68234,"2018-02-16T21:00:00","35.3","ND","ND","ND","6.7","0.4","ND","ND","ND","ND","0","0"],
    [68235,"2018-02-16T22:00:00","42.9","ND","ND","ND","6.7","0.9","ND","ND","ND","ND","0","0"],
    [68236,"2018-02-16T23:00:00","46.2","ND","ND","ND","6.4","1.0","ND","ND","ND","ND","0","0"],
    [68237,"2018-02-17T00:00:00","53.2","ND","ND","ND","6.5","0.8","ND","ND","ND","ND","0","0"],
    [68238,"2018-02-17T01:00:00","53.1","ND","ND","ND","6.0","1.1","ND","ND","ND","ND","0","0"],
    [68239,"2018-02-17T02:00:00","35.1","ND","ND","ND","5.9","1.2","ND","ND","ND","ND","0","0"],
    [68240,"2018-02-17T03:00:00","37.4","ND","ND","ND","5.8","0.8","ND","ND","ND","ND","0","0"],
    [68241,"2018-02-17T04:00:00","29.2","ND","ND","ND","6.0","0.9","ND","ND","ND","ND","0","0"],
    [68242,"2018-02-17T05:00:00","28.8","ND","ND","ND","6.2","0.7","ND","ND","ND","ND","0","0"],
    [68243,"2018-02-17T06:00:00","31.1","ND","ND","ND","6.2","0.6","ND","ND","ND","ND","0","0"],
    [68244,"2018-02-17T07:00:00","37.3","ND","ND","ND","6.5","0.2","ND","ND","ND","ND","97","0"],
    [68245,"2018-02-17T08:00:00","69.3","ND","ND","ND","7.2","0.9","ND","ND","ND","ND","523","0"],
    [68246,"2018-02-17T09:00:00","82.4","ND","ND","ND","10.2","0.7","ND","ND","ND","ND","633","0"],
    [68247,"2018-02-17T10:00:00","77.2","ND","ND","ND","16.8","0.4","ND","ND","ND","ND","576","0"],
    [68248,"2018-02-17T11:00:00","50.7","ND","ND","ND","13.4","0.3","ND","ND","ND","ND","267","0"],
    [68249,"2018-02-17T12:00:00","47","ND","ND","ND","21.1","0.4","ND","ND","ND","ND","578","0"],
    [68250,"2018-02-17T13:00:00","55.4","ND","ND","ND","36.9","0.2","ND","ND","ND","ND","663","0"],
    [68251,"2018-02-17T14:00:00","54.6","ND","ND","ND","69.5","0.3","ND","ND","ND","ND","594","0"],
    [68252,"2018-02-17T15:00:00","58.3","ND","ND","ND","50.3","0.4","ND","ND","ND","ND","266","14.73"],
    [68253,"2018-02-17T16:00:00","5.2","ND","ND","ND","10.8","0.3","ND","ND","ND","ND","565","0"],
    [68254,"2018-02-17T17:00:00","28.4","ND","ND","ND","16.4","0.2","ND","ND","ND","ND","358","0"],
    [68255,"2018-02-17T18:00:00","13.6","ND","ND","ND","12.5","0.4","ND","ND","ND","ND","215","0"],
    [68256,"2018-02-17T19:00:00","5","ND","ND","ND","9.6","0.3","ND","ND","ND","ND","21","0"],
    [68257,"2018-02-17T20:00:00","0.3","ND","ND","ND","7.1","0.5","ND","ND","ND","ND","0","0"],
    [68258,"2018-02-17T21:00:00","3.7","ND","ND","ND","6.1","0.2","ND","ND","ND","ND","0","0"],
    [68259,"2018-02-17T22:00:00","17.1","ND","ND","ND","7.3","0.5","ND","ND","ND","ND","0","0"],
    [68260,"2018-02-17T23:00:00","40.2","ND","ND","ND","13.4","0.1","ND","ND","ND","ND","0","0"],
    [68261,"2018-02-18T00:00:00","26.8","ND","ND","ND","12.3","0.1","ND","ND","ND","ND","0","0"],
    [68262,"2018-02-18T01:00:00","24.5","ND","ND","ND","12.7","0.2","ND","ND","ND","ND","0","0"],
    [68263,"2018-02-18T02:00:00","20.6","ND","ND","ND","11.0","0.3","ND","ND","ND","ND","0","0"],
    [68264,"2018-02-18T03:00:00","6.6","ND","ND","ND","11.6","0.2","ND","ND","ND","ND","0","0"],
    [68265,"2018-02-18T04:00:00","4.7","ND","ND","ND","10.1","0.0","ND","ND","ND","ND","0","0"],
    [68266,"2018-02-18T05:00:00","14.8","ND","ND","ND","6.6","1.0","ND","ND","ND","ND","0","0"],
    [68267,"2018-02-18T06:00:00","22.4","ND","ND","ND","6.2","0.6","ND","ND","ND","ND","0","0"],
    [68268,"2018-02-18T07:00:00","25","ND","ND","ND","6.3","0.7","ND","ND","ND","ND","10","0"],
    [68269,"2018-02-18T08:00:00","29.6","ND","ND","ND","7.0","0.3","ND","ND","ND","ND","296","0"],
    [68270,"2018-02-18T09:00:00","48.5","ND","ND","ND","14.1","0.0","ND","ND","ND","ND","662","0"],
    [68271,"2018-02-18T10:00:00","33.9","ND","ND","ND","21.3","0.3","ND","ND","ND","ND","658","0"],
    [68272,"2018-02-18T11:00:00","24.9","ND","ND","ND","37.4","0.1","ND","ND","ND","ND","663","0"],
    [68273,"2018-02-18T12:00:00","55.8","ND","ND","ND","59.0","0.3","ND","ND","ND","ND","663","0"],
    [68274,"2018-02-18T13:00:00","36.6","ND","ND","ND","57.2","0.2","ND","ND","ND","ND","663","0"],
    [68275,"2018-02-18T14:00:00","25.6","ND","ND","ND","63.0","3.5","ND","ND","ND","ND","649","0"],
    [68276,"2018-02-18T15:00:00","26.4","ND","ND","ND","54.1","0.6","ND","ND","ND","ND","543","0"],
    [68277,"2018-02-18T16:00:00","10.6","ND","ND","ND","31.2","0.2","ND","ND","ND","ND","601","0"],
    [68278,"2018-02-18T17:00:00","5.8","ND","ND","ND","19.3","0.1","ND","ND","ND","ND","282","0"],
    [68279,"2018-02-18T18:00:00","ND","ND","ND","ND","21.4","0.3","ND","ND","ND","ND","78","0"],
    [68280,"2018-02-18T19:00:00","ND","ND","ND","ND","12.9","0.2","ND","ND","ND","ND","4","0"],
    [68281,"2018-02-18T20:00:00","8.9","ND","ND","ND","6.8","0.5","ND","ND","ND","ND","0","0"],
    [68282,"2018-02-18T21:00:00","29.5","ND","ND","ND","7.0","0.5","ND","ND","ND","ND","0","0"],
    [68283,"2018-02-18T22:00:00","28.8","ND","ND","ND","6.7","0.6","ND","ND","ND","ND","0","0"],
    [68284,"2018-02-18T23:00:00","22.3","ND","ND","ND","8.8","0.2","ND","ND","ND","ND","0","0"],
    [68285,"2018-02-19T00:00:00","41.5","ND","ND","ND","9.8","0.2","ND","ND","ND","ND","0","1.02"],
    [68286,"2018-02-19T01:00:00","50.1","ND","ND","ND","6.5","0.3","ND","ND","ND","ND","0","3.05"],
    [68287,"2018-02-19T02:00:00","25.4","ND","ND","ND","9.3","0.5","ND","ND","ND","ND","0","2.29"],
    [68288,"2018-02-19T03:00:00","ND","ND","ND","ND","11.0","0.2","ND","ND","ND","ND","0","0.76"],
    [68289,"2018-02-19T04:00:00","ND","ND","ND","ND","10.7","0.2","ND","ND","ND","ND","0","0.76"],
    [68290,"2018-02-19T05:00:00","0.1","ND","ND","ND","11.4","0.1","ND","ND","ND","ND","0","0.25"],
    [68291,"2018-02-19T06:00:00","2.4","ND","ND","ND","7.3","0.1","ND","ND","ND","ND","0","0"],
    [68292,"2018-02-19T07:00:00","2.2","ND","ND","ND","5.7","0.2","ND","ND","ND","ND","26","0"],
    [68293,"2018-02-19T08:00:00","32","ND","ND","ND","6.0","0.6","ND","ND","ND","ND","104","0"],
    [68294,"2018-02-19T09:00:00","45.8","ND","ND","ND","7.1","1.0","ND","ND","ND","ND","259","0"],
    [68295,"2018-02-19T10:00:00","94.7","ND","ND","ND","ND","1.0","ND","ND","ND","ND","629","0.25"],
    [68296,"2018-02-19T11:00:00","137.5","ND","ND","ND","ND","6.6","ND","ND","ND","ND","665","0"],
    [68297,"2018-02-19T12:00:00","60.8","ND","ND","ND","41.1","1.5","ND","ND","ND","ND","665","0"],
    [68298,"2018-02-19T13:00:00","25.8","ND","ND","ND","61.5","0.7","ND","ND","ND","ND","665","0"],
    [68299,"2018-02-19T14:00:00","37.8","ND","ND","ND","63.6","0.6","ND","ND","ND","ND","424","1.02"],
    [68300,"2018-02-19T15:00:00","53.3","ND","ND","ND","23.9","0.5","ND","ND","ND","ND","562","0"],
    [68301,"2018-02-19T16:00:00","11.4","ND","ND","ND","22.8","0.2","ND","ND","ND","ND","498","0"],
    [68302,"2018-02-19T17:00:00","9","ND","ND","ND","14.9","0.1","ND","ND","ND","ND","570","0"],
    [68303,"2018-02-19T18:00:00","15","ND","ND","ND","7.1","0.3","ND","ND","ND","ND","131","0"],
    [68304,"2018-02-19T19:00:00","23.5","ND","ND","ND","3.5","0.4","ND","ND","ND","ND","0","0"],
    [68305,"2018-02-19T20:00:00","15.9","ND","ND","ND","1.1","0.2","ND","ND","ND","ND","0","0"],
    [68306,"2018-02-19T21:00:00","28","ND","ND","ND","0.8","0.3","ND","ND","ND","ND","0","0"],
    [68307,"2018-02-19T22:00:00","39.6","ND","ND","ND","0.8","0.6","ND","ND","ND","ND","0","0"],
    [68308,"2018-02-19T23:00:00","53.6","ND","ND","ND","0.8","0.6","ND","ND","ND","ND","0","0"],
    [68309,"2018-02-20T00:00:00","39.8","ND","ND","ND","0.6","1.0","ND","ND","ND","ND","0","0"],
    [68310,"2018-02-20T01:00:00","37.4","ND","ND","ND","0.6","0.9","ND","ND","ND","ND","0","0"],
    [68311,"2018-02-20T02:00:00","37.6","ND","ND","ND","0.6","0.7","ND","ND","ND","ND","0","0"],
    [68312,"2018-02-20T03:00:00","35.9","ND","ND","ND","0.6","0.5","ND","ND","ND","ND","0","0"],
    [68313,"2018-02-20T04:00:00","20.4","ND","ND","ND","0.7","0.4","ND","ND","ND","ND","0","0"],
    [68314,"2018-02-20T05:00:00","17.1","ND","ND","ND","0.6","0.6","ND","ND","ND","ND","0","0"],
    [68315,"2018-02-20T06:00:00","14.7","ND","ND","ND","0.7","0.5","ND","ND","ND","ND","0","0"],
    [68316,"2018-02-20T07:00:00","40.4","ND","ND","ND","0.7","0.4","ND","ND","ND","ND","76","0"],
    [68317,"2018-02-20T08:00:00","68.8","ND","ND","ND","0.9","0.6","ND","ND","ND","ND","547","1.27"],
    [68318,"2018-02-20T09:00:00","100.8","ND","ND","ND","7.1","0.5","ND","ND","ND","ND","654","0"],
    [68319,"2018-02-20T10:00:00","69.1","ND","ND","ND","23.0","0.6","ND","ND","ND","ND","658","0"],
    [68320,"2018-02-20T11:00:00","41.7","ND","ND","ND","45.3","0.3","ND","ND","ND","ND","633","0"],
    [68321,"2018-02-20T12:00:00","32.6","ND","ND","ND","75.1","0.2","ND","ND","ND","ND","665","0"],
    [68322,"2018-02-20T13:00:00","33.9","ND","ND","ND","92.5","0.1","ND","ND","ND","ND","665","0"],
    [68323,"2018-02-20T14:00:00","30.9","ND","ND","ND","74.5","0.4","ND","ND","ND","ND","637","0"],
    [68324,"2018-02-20T15:00:00","26.8","ND","ND","ND","31.3","0.3","ND","ND","ND","ND","665","0"],
    [68325,"2018-02-20T16:00:00","18.8","ND","ND","ND","20.9","0.2","ND","ND","ND","ND","625","0"],
    [68326,"2018-02-20T17:00:00","19.4","ND","ND","ND","21.6","0.2","ND","ND","ND","ND","424","0"],
    [68327,"2018-02-20T18:00:00","15.8","ND","ND","ND","14.4","0.3","ND","ND","ND","ND","145","0"],
    [68328,"2018-02-20T19:00:00","2.4","ND","ND","ND","9.1","0.0","ND","ND","ND","ND","17","0"],
    [68329,"2018-02-20T20:00:00","ND","ND","ND","ND","5.1","0.2","ND","ND","ND","ND","0","0"],
    [68330,"2018-02-20T21:00:00","4.2","ND","ND","ND","1.2","0.4","ND","ND","ND","ND","0","0"],
    [68331,"2018-02-20T22:00:00","7.5","ND","ND","ND","1.1","1.0","ND","ND","ND","ND","0","0"],
    [68332,"2018-02-20T23:00:00","16.3","ND","ND","ND","0.8","0.6","ND","ND","ND","ND","0","0"],
    [68333,"2018-02-21T00:00:00","12.1","ND","ND","ND","1.1","0.7","ND","ND","ND","ND","0","0"],
    [68334,"2018-02-21T01:00:00","11.4","ND","ND","ND","1.0","2.1","ND","ND","ND","ND","0","0"],
    [68335,"2018-02-21T02:00:00","20.8","ND","ND","ND","0.9","0.4","ND","ND","ND","ND","0","0"],
    [68336,"2018-02-21T03:00:00","25.1","ND","ND","ND","2.0","0.6","ND","ND","ND","ND","0","0"],
    [68337,"2018-02-21T04:00:00","28.4","ND","ND","ND","2.9","0.9","ND","ND","ND","ND","0","0"],
    [68338,"2018-02-21T05:00:00","27.9","ND","ND","ND","1.6","0.8","ND","ND","ND","ND","0","0"],
    [68339,"2018-02-21T06:00:00","31.5","ND","ND","ND","1.6","0.6","ND","ND","ND","ND","0","0"],
    [68340,"2018-02-21T07:00:00","33.1","ND","ND","ND","0.9","0.6","ND","ND","ND","ND","13","0"],
    [68341,"2018-02-21T08:00:00","45.2","ND","ND","ND","1.2","0.9","ND","ND","ND","ND","197","0"],
    [68342,"2018-02-21T09:00:00","60.4","ND","ND","ND","6.8","0.7","ND","ND","ND","ND","603","0.25"],
    [68343,"2018-02-21T10:00:00","96.4","ND","ND","ND","10.6","0.3","ND","ND","ND","ND","666","0"],
    [68344,"2018-02-21T11:00:00","66.8","ND","ND","ND","32.5","0.4","ND","ND","ND","ND","667","0"],
    [68345,"2018-02-21T12:00:00","34.8","ND","ND","ND","58.9","0.5","ND","ND","ND","ND","667","0"],
    [68346,"2018-02-21T13:00:00","38.7","ND","ND","ND","80.6","0.3","ND","ND","ND","ND","667","0"],
    [68347,"2018-02-21T14:00:00","42.1","ND","ND","ND","98.2","0.2","ND","ND","ND","ND","648","0"],
    [68348,"2018-02-21T15:00:00","51.8","ND","ND","ND","63.2","0.2","ND","ND","ND","ND","667","0"],
    [68349,"2018-02-21T16:00:00","31.2","ND","ND","ND","21.6","0.2","ND","ND","ND","ND","657","0"],
    [68350,"2018-02-21T17:00:00","24.1","ND","ND","ND","20.7","0.2","ND","ND","ND","ND","652","0"],
    [68351,"2018-02-21T18:00:00","26.1","ND","ND","ND","23.0","0.2","ND","ND","ND","ND","301","0"],
    [68352,"2018-02-21T19:00:00","22.7","ND","ND","ND","15.1","0.2","ND","ND","ND","ND","14","0"],
    [68353,"2018-02-21T20:00:00","25.1","ND","ND","ND","3.6","0.3","ND","ND","ND","ND","0","0"],
    [68354,"2018-02-21T21:00:00","36.8","ND","ND","ND","0.9","0.3","ND","ND","ND","ND","0","0"],
    [68355,"2018-02-21T22:00:00","49.8","ND","ND","ND","0.9","4.2","ND","ND","ND","ND","0","0"],
    [68356,"2018-02-21T23:00:00","44.1","ND","ND","ND","0.8","3.1","ND","ND","ND","ND","0","0"],
    [68357,"2018-02-22T00:00:00","43.2","ND","ND","ND","0.6","1.4","ND","ND","ND","ND","0","0"],
    [68358,"2018-02-22T01:00:00","31.2","ND","ND","ND","0.4","1.8","ND","ND","ND","ND","0","0"],
    [68359,"2018-02-22T02:00:00","31","ND","ND","ND","0.7","0.7","ND","ND","ND","ND","0","0"],
    [68360,"2018-02-22T03:00:00","31.2","ND","ND","ND","1.3","0.4","ND","ND","ND","ND","0","0"],
    [68361,"2018-02-22T04:00:00","35.9","ND","ND","ND","1.0","1.0","ND","ND","ND","ND","0","0"],
    [68362,"2018-02-22T05:00:00","51.5","ND","ND","ND","0.9","3.8","ND","ND","ND","ND","0","0"],
    [68363,"2018-02-22T06:00:00","48.7","ND","ND","ND","0.2","1.3","ND","ND","ND","ND","0","0"],
    [68364,"2018-02-22T07:00:00","46","ND","ND","ND","0.5","2.6","ND","ND","ND","ND","34","0"],
    [68365,"2018-02-22T08:00:00","48.6","ND","ND","ND","1.5","1.3","ND","ND","ND","ND","263","0"],
    [68366,"2018-02-22T09:00:00","46.7","ND","ND","ND","7.6","0.9","ND","ND","ND","ND","634","0"],
    [68367,"2018-02-22T10:00:00","47.1","ND","ND","ND","15.5","1.4","ND","ND","ND","ND","664","0"],
    [68368,"2018-02-22T11:00:00","36.7","ND","ND","ND","28.1","0.3","ND","ND","ND","ND","663","0"],
    [68369,"2018-02-22T12:00:00","16.3","ND","ND","ND","45.8","0.1","ND","ND","ND","ND","667","0"],
    [68370,"2018-02-22T13:00:00","24","ND","ND","ND","61.0","0.4","ND","ND","ND","ND","667","0"],
    [68371,"2018-02-22T14:00:00","31.9","ND","ND","ND","67.5","0.2","ND","ND","ND","ND","551","0"],
    [68372,"2018-02-22T15:00:00","35.7","ND","ND","ND","35.7","0.6","ND","ND","ND","ND","553","0"],
    [68373,"2018-02-22T16:00:00","63.9","ND","ND","ND","17.1","1.9","ND","ND","ND","ND","590","0"],
    [68374,"2018-02-22T17:00:00","36.2","ND","ND","ND","24.5","0.6","ND","ND","ND","ND","667","0"],
    [68375,"2018-02-22T18:00:00","19.5","ND","ND","ND","14.4","0.1","ND","ND","ND","ND","181","0"],
    [68376,"2018-02-22T19:00:00","21.9","ND","ND","ND","8.1","0.1","ND","ND","ND","ND","14","0"],
    [68377,"2018-02-22T20:00:00","29.4","ND","ND","ND","4.2","0.2","ND","ND","ND","ND","0","0"],
    [68378,"2018-02-22T21:00:00","26.4","ND","ND","ND","1.9","0.4","ND","ND","ND","ND","0","0"],
    [68379,"2018-02-22T22:00:00","33","ND","ND","ND","1.0","0.7","ND","ND","ND","ND","0","0"],
    [68380,"2018-02-22T23:00:00","39.2","ND","ND","ND","1.0","2.6","ND","ND","ND","ND","0","0"],
    [68381,"2018-02-23T00:00:00","35.6","ND","ND","ND","0.6","1.5","ND","ND","ND","ND","0","0"],
    [68382,"2018-02-23T01:00:00","25.9","ND","ND","ND","1.2","0.4","ND","ND","ND","ND","0","0"],
    [68383,"2018-02-23T02:00:00","23.4","ND","ND","ND","3.8","0.5","ND","ND","ND","ND","0","0"],
    [68384,"2018-02-23T03:00:00","8.8","ND","ND","ND","3.3","0.6","ND","ND","ND","ND","0","0"],
    [68385,"2018-02-23T04:00:00","20.7","ND","ND","ND","2.3","0.5","ND","ND","ND","ND","0","0"],
    [68386,"2018-02-23T05:00:00","19.3","ND","ND","ND","1.2","1.0","ND","ND","ND","ND","0","0"],
    [68387,"2018-02-23T06:00:00","22.7","ND","ND","ND","0.4","0.7","ND","ND","ND","ND","0","0"],
    [68388,"2018-02-23T07:00:00","48.7","ND","ND","ND","1.4","1.7","ND","ND","ND","ND","43","0"],
    [68389,"2018-02-23T08:00:00","75","ND","ND","ND","2.0","1.7","ND","ND","ND","ND","328","0"],
    [68390,"2018-02-23T09:00:00","76.3","ND","ND","ND","7.0","0.8","ND","ND","ND","ND","596","0"],
    [68391,"2018-02-23T10:00:00","85.6","ND","ND","ND","30.6","0.8","ND","ND","ND","ND","666","0"],
    [68392,"2018-02-23T11:00:00","61.9","ND","ND","ND","73.1","0.3","ND","ND","ND","ND","667","0"],
    [68393,"2018-02-23T12:00:00","56.4","ND","ND","ND","87.6","0.3","ND","ND","ND","ND","667","0"],
    [68394,"2018-02-23T13:00:00","45.8","ND","ND","ND","90.4","0.3","ND","ND","ND","ND","631","0"],
    [68395,"2018-02-23T14:00:00","33.6","ND","ND","ND","77.9","0.1","ND","ND","ND","ND","663","0"],
    [68396,"2018-02-23T15:00:00","26","ND","ND","ND","36.5","0.1","ND","ND","ND","ND","640","0"],
    [68397,"2018-02-23T16:00:00","20.6","ND","ND","ND","15.9","0.1","ND","ND","ND","ND","650","0"],
    [68398,"2018-02-23T17:00:00","15.3","ND","ND","ND","17.8","0.1","ND","ND","ND","ND","466","0"],
    [68399,"2018-02-23T18:00:00","16.5","ND","ND","ND","17.9","0.2","ND","ND","ND","ND","172","0"],
    [68400,"2018-02-23T19:00:00","14","ND","ND","ND","14.9","0.1","ND","ND","ND","ND","5","0"],
    [68401,"2018-02-23T20:00:00","15.4","ND","ND","ND","2.9","0.2","ND","ND","ND","ND","0","0"],
    [68402,"2018-02-23T21:00:00","28.1","ND","ND","ND","1.0","1.1","ND","ND","ND","ND","0","0"],
    [68403,"2018-02-23T22:00:00","18.1","ND","ND","ND","7.7","0.3","ND","ND","ND","ND","0","0"],
    [68404,"2018-02-23T23:00:00","16","ND","ND","ND","5.9","0.4","ND","ND","ND","ND","0","0"],
    [68405,"2018-02-24T00:00:00","17.2","ND","ND","ND","4.7","0.2","ND","ND","ND","ND","0","0"],
    [68406,"2018-02-24T01:00:00","ND","ND","ND","ND","3.4","0.2","ND","ND","ND","ND","0","0"],
    [68407,"2018-02-24T02:00:00","ND","ND","ND","ND","8.0","0.2","ND","ND","ND","ND","0","0"],
    [68408,"2018-02-24T03:00:00","0.9","ND","ND","ND","8.2","0.9","ND","ND","ND","ND","0","0"],
    [68409,"2018-02-24T04:00:00","7.5","ND","ND","ND","8.9","0.3","ND","ND","ND","ND","0","0"],
    [68410,"2018-02-24T05:00:00","3.7","ND","ND","ND","8.8","0.2","ND","ND","ND","ND","0","0"],
    [68411,"2018-02-24T06:00:00","13.1","ND","ND","ND","3.9","0.2","ND","ND","ND","ND","0","0.76"],
    [68412,"2018-02-24T07:00:00","6.2","ND","ND","ND","1.4","0.2","ND","ND","ND","ND","37","0"],
    [68413,"2018-02-24T08:00:00","7.3","ND","ND","ND","1.3","0.3","ND","ND","ND","ND","227","0.25"],
    [68414,"2018-02-24T09:00:00","20.4","ND","ND","ND","9.5","0.1","ND","ND","ND","ND","621","0"],
    [68415,"2018-02-24T10:00:00","58.4","ND","ND","ND","31.7","0.1","ND","ND","ND","ND","654","0"],
    [68416,"2018-02-24T11:00:00","83","ND","ND","ND","61.4","0.2","ND","ND","ND","ND","667","0"],
    [68417,"2018-02-24T12:00:00","73.7","ND","ND","ND","89.9","0.2","ND","ND","ND","ND","667","0"],
    [68418,"2018-02-24T13:00:00","40.6","ND","ND","ND","95.8","0.2","ND","ND","ND","ND","661","0"],
    [68419,"2018-02-24T14:00:00","32.8","ND","ND","ND","76.5","0.1","ND","ND","ND","ND","656","0"],
    [68420,"2018-02-24T15:00:00","25.1","ND","ND","ND","87.2","0.2","ND","ND","ND","ND","651","0"],
    [68421,"2018-02-24T16:00:00","28.4","ND","ND","ND","47.5","0.1","ND","ND","ND","ND","667","0"],
    [68422,"2018-02-24T17:00:00","12.7","ND","ND","ND","19.4","0.1","ND","ND","ND","ND","393","0"],
    [68423,"2018-02-24T18:00:00","10.2","ND","ND","ND","17.4","0.2","ND","ND","ND","ND","77","0"],
    [68424,"2018-02-24T19:00:00","6.2","ND","ND","ND","18.6","0.1","ND","ND","ND","ND","7","0"],
    [68425,"2018-02-24T20:00:00","1","ND","ND","ND","11.9","0.2","ND","ND","ND","ND","0","0"],
    [68426,"2018-02-24T21:00:00","2.2","ND","ND","ND","12.6","0.1","ND","ND","ND","ND","0","0"],
    [68427,"2018-02-24T22:00:00","9.7","ND","ND","ND","7.5","0.2","ND","ND","ND","ND","0","0"],
    [68428,"2018-02-24T23:00:00","14.3","ND","ND","ND","6.1","0.1","ND","ND","ND","ND","0","0"],
    [68429,"2018-02-25T00:00:00","3.8","ND","ND","ND","7.4","0.3","ND","ND","ND","ND","0","0"],
    [68430,"2018-02-25T01:00:00","ND","ND","ND","ND","11.0","0.2","ND","ND","ND","ND","0","0"],
    [68431,"2018-02-25T02:00:00","0.9","ND","ND","ND","5.7","0.1","ND","ND","ND","ND","0","0"],
    [68432,"2018-02-25T03:00:00","0.4","ND","ND","ND","6.0","0.3","ND","ND","ND","ND","0","0"],
    [68433,"2018-02-25T04:00:00","10.6","ND","ND","ND","1.3","1.2","ND","ND","ND","ND","0","1.02"],
    [68434,"2018-02-25T05:00:00","9.4","ND","ND","ND","0.2","0.6","ND","ND","ND","ND","0","0.25"],
    [68435,"2018-02-25T06:00:00","11","ND","ND","ND","0.6","0.3","ND","ND","ND","ND","0","0"],
    [68436,"2018-02-25T07:00:00","ND","ND","ND","ND","2.3","0.2","ND","ND","ND","ND","35","0.25"],
    [68437,"2018-02-25T08:00:00","8.1","ND","ND","ND","4.4","0.6","ND","ND","ND","ND","264","0"],
    [68438,"2018-02-25T09:00:00","40.9","ND","ND","ND","7.1","0.8","ND","ND","ND","ND","663","0"],
    [68439,"2018-02-25T10:00:00","56.5","ND","ND","ND","20.7","0.3","ND","ND","ND","ND","628","0"],
    [68440,"2018-02-25T11:00:00","66.3","ND","ND","ND","42.8","0.3","ND","ND","ND","ND","667","0"],
    [68441,"2018-02-25T12:00:00","62.4","ND","ND","ND","55.2","0.2","ND","ND","ND","ND","666","0"],
    [68442,"2018-02-25T13:00:00","2.7","ND","ND","ND","67.1","0.3","ND","ND","ND","ND","666","0"],
    [68443,"2018-02-25T14:00:00","ND","ND","ND","ND","68.8","0.2","ND","ND","ND","ND","663","0"],
    [68444,"2018-02-25T15:00:00","ND","ND","ND","ND","29.3","0.2","ND","ND","ND","ND","597","0"],
    [68445,"2018-02-25T16:00:00","ND","ND","ND","ND","16.8","0.1","ND","ND","ND","ND","494","0"],
    [68446,"2018-02-25T17:00:00","ND","ND","ND","ND","19.1","0.3","ND","ND","ND","ND","358","0"],
    [68447,"2018-02-25T18:00:00","ND","ND","ND","ND","19.9","0.2","ND","ND","ND","ND","173","0"],
    [68448,"2018-02-25T19:00:00","ND","ND","ND","ND","17.3","0.2","ND","ND","ND","ND","10","0"],
    [68449,"2018-02-25T20:00:00","ND","ND","ND","ND","6.4","0.2","ND","ND","ND","ND","0","0"],
    [68450,"2018-02-25T21:00:00","ND","ND","ND","ND","1.5","0.2","ND","ND","ND","ND","0","0"],
    [68451,"2018-02-25T22:00:00","25.2","ND","ND","ND","1.3","4.0","ND","ND","ND","ND","0","0"],
    [68452,"2018-02-25T23:00:00","24.5","ND","ND","ND","0.8","1.6","ND","ND","ND","ND","0","0"],
    [68453,"2018-02-26T00:00:00","22.7","ND","ND","ND","0.6","0.6","ND","ND","ND","ND","0","0"],
    [68454,"2018-02-26T01:00:00","4.6","ND","ND","ND","0.6","0.8","ND","ND","ND","ND","0","0"],
    [68455,"2018-02-26T02:00:00","20.1","ND","ND","ND","0.6","0.6","ND","ND","ND","ND","0","0"],
    [68456,"2018-02-26T03:00:00","21.2","ND","ND","ND","0.4","0.4","ND","ND","ND","ND","0","0"],
    [68457,"2018-02-26T04:00:00","25.6","ND","ND","ND","0.5","0.5","ND","ND","ND","ND","0","0"],
    [68458,"2018-02-26T05:00:00","22.9","ND","ND","ND","0.4","0.6","ND","ND","ND","ND","0","0"],
    [68459,"2018-02-26T06:00:00","36.4","ND","ND","ND","0.5","0.4","ND","ND","ND","ND","0","0"],
    [68460,"2018-02-26T07:00:00","54.1","ND","ND","ND","0.8","0.4","ND","ND","ND","ND","65","0"],
    [68461,"2018-02-26T08:00:00","105.5","ND","ND","ND","1.7","2.9","ND","ND","ND","ND","516","0"],
    [68462,"2018-02-26T09:00:00","183.2","ND","ND","ND","6.3","2.8","ND","ND","ND","ND","615","0"],
    [68463,"2018-02-26T10:00:00","145","ND","ND","ND","20.6","1.3","ND","ND","ND","ND","664","0"],
    [68464,"2018-02-26T11:00:00","107.5","ND","ND","ND","38.7","0.5","ND","ND","ND","ND","665","0"],
    [68465,"2018-02-26T12:00:00","83.8","ND","ND","ND","53.6","0.2","ND","ND","ND","ND","665","0"],
    [68466,"2018-02-26T13:00:00","66.8","ND","ND","ND","63.1","0.2","ND","ND","ND","ND","665","0"],
    [68467,"2018-02-26T14:00:00","52","ND","ND","ND","66.2","0.3","ND","ND","ND","ND","654","0"],
    [68468,"2018-02-26T15:00:00","44.5","ND","ND","ND","39.5","0.3","ND","ND","ND","ND","656","0"],
    [68469,"2018-02-26T16:00:00","27.4","ND","ND","ND","21.2","0.1","ND","ND","ND","ND","665","0"],
    [68470,"2018-02-26T17:00:00","29.9","ND","ND","ND","19.1","0.1","ND","ND","ND","ND","665","0"],
    [68471,"2018-02-26T18:00:00","13.5","ND","ND","ND","15.1","0.1","ND","ND","ND","ND","305","0"],
    [68472,"2018-02-26T19:00:00","ND","ND","ND","ND","8.8","0.1","ND","ND","ND","ND","11","0"],
    [68473,"2018-02-26T20:00:00","ND","ND","ND","ND","2.5","0.1","ND","ND","ND","ND","0","0"],
    [68474,"2018-02-26T21:00:00","4.5","ND","ND","ND","2.0","1.1","ND","ND","ND","ND","0","0"],
    [68475,"2018-02-26T22:00:00","18.6","ND","ND","ND","0.9","1.9","ND","ND","ND","ND","0","0"],
    [68476,"2018-02-26T23:00:00","9","ND","ND","ND","1.0","0.8","ND","ND","ND","ND","0","0"],
    [68477,"2018-02-27T00:00:00","21.2","ND","ND","ND","1.3","1.5","ND","ND","ND","ND","0","0"],
    [68478,"2018-02-27T01:00:00","16.5","ND","ND","ND","1.3","3.2","ND","ND","ND","ND","0","0"],
    [68479,"2018-02-27T02:00:00","18.1","ND","ND","ND","1.3","1.6","ND","ND","ND","ND","0","0"],
    [68480,"2018-02-27T03:00:00","22.4","ND","ND","ND","0.9","0.6","ND","ND","ND","ND","0","0"],
    [68481,"2018-02-27T04:00:00","27.5","ND","ND","ND","1.0","0.7","ND","ND","ND","ND","0","0"],
    [68482,"2018-02-27T05:00:00","44.9","ND","ND","ND","0.6","0.5","ND","ND","ND","ND","0","0"],
    [68483,"2018-02-27T06:00:00","28.4","ND","ND","ND","0.5","0.7","ND","ND","ND","ND","0","0"],
    [68484,"2018-02-27T07:00:00","58.1","ND","ND","ND","0.8","0.7","ND","ND","ND","ND","35","0"],
    [68485,"2018-02-27T08:00:00","79.8","ND","ND","ND","1.9","0.9","ND","ND","ND","ND","333","0"],
    [68486,"2018-02-27T09:00:00","ND","ND","ND","ND","ND","ND","ND","ND","ND","ND","589","0"],
    [68487,"2018-02-27T10:00:00","39.2","ND","ND","ND","24.1","0.7","ND","ND","ND","ND","665","0"],
    [68488,"2018-02-27T11:00:00","148.4","ND","ND","ND","63.2","0.4","ND","ND","ND","ND","662","0"],
    [68489,"2018-02-27T12:00:00","138.7","ND","ND","ND","85.0","0.2","ND","ND","ND","ND","666","0"],
    [68490,"2018-02-27T13:00:00","112.3","ND","ND","ND","111.8","0.1","ND","ND","ND","ND","666","0"],
    [68491,"2018-02-27T14:00:00","96.3","ND","ND","ND","111.5","0.0","ND","ND","ND","ND","647","0"],
    [68492,"2018-02-27T15:00:00","63.2","ND","ND","ND","38.3","0.1","ND","ND","ND","ND","641","0"],
    [68493,"2018-02-27T16:00:00","11","ND","ND","ND","20.0","0.0","ND","ND","ND","ND","659","0"],
    [68494,"2018-02-27T17:00:00","7","ND","ND","ND","24.0","0.1","ND","ND","ND","ND","513","0"],
    [68495,"2018-02-27T18:00:00","0.8","ND","ND","ND","24.8","0.1","ND","ND","ND","ND","266","0"],
    [68496,"2018-02-27T19:00:00","ND","ND","ND","ND","16.2","0.1","ND","ND","ND","ND","8","0"],
    [68497,"2018-02-27T20:00:00","ND","ND","ND","ND","1.2","0.1","ND","ND","ND","ND","0","0"],
    [68498,"2018-02-27T21:00:00","ND","ND","ND","ND","3.7","0.3","ND","ND","ND","ND","0","0"],
    [68499,"2018-02-27T22:00:00","12.7","ND","ND","ND","0.9","0.5","ND","ND","ND","ND","0","0"],
    [68500,"2018-02-27T23:00:00","19.4","ND","ND","ND","0.8","0.7","ND","ND","ND","ND","0","0"],
    [68501,"2018-02-28T00:00:00","11.8","ND","ND","ND","0.8","1.0","ND","ND","ND","ND","0","0"],
    [68502,"2018-02-28T01:00:00","16.2","ND","ND","ND","3.3","0.3","ND","ND","ND","ND","0","0"],
    [68503,"2018-02-28T02:00:00","40.6","ND","ND","ND","1.9","0.5","ND","ND","ND","ND","0","0"],
    [68504,"2018-02-28T03:00:00","42","ND","ND","ND","1.2","0.6","ND","ND","ND","ND","0","0"],
    [68505,"2018-02-28T04:00:00","26.2","ND","ND","ND","2.4","0.3","ND","ND","ND","ND","0","0"],
    [68506,"2018-02-28T05:00:00","33.5","ND","ND","ND","1.6","0.2","ND","ND","ND","ND","0","0"],
    [68507,"2018-02-28T06:00:00","48.8","ND","ND","ND","0.5","0.8","ND","ND","ND","ND","0","0"],
    [68508,"2018-02-28T07:00:00","62.9","ND","ND","ND","0.6","1.9","ND","ND","ND","ND","34","0"],
    [68509,"2018-02-28T08:00:00","62.7","ND","ND","ND","2.2","0.5","ND","ND","ND","ND","509","0"],
    [68510,"2018-02-28T09:00:00","107.6","ND","ND","ND","11.2","0.6","ND","ND","ND","ND","652","0"],
    [68511,"2018-02-28T10:00:00","126","ND","ND","ND","43.7","0.5","ND","ND","ND","ND","664","0"],
    [68512,"2018-02-28T11:00:00","105.6","ND","ND","ND","76.5","0.3","ND","ND","ND","ND","665","0"],
    [68513,"2018-02-28T12:00:00","90","ND","ND","ND","91.4","0.1","ND","ND","ND","ND","653","0"],
    [68514,"2018-02-28T13:00:00","76","ND","ND","ND","99.0","0.1","ND","ND","ND","ND","665","0"],
    [68515,"2018-02-28T14:00:00","71","ND","ND","ND","106.9","0.1","ND","ND","ND","ND","659","0"],
    [68516,"2018-02-28T15:00:00","65.6","ND","ND","ND","73.4","0.1","ND","ND","ND","ND","656","0"],
    [68517,"2018-02-28T16:00:00","54.7","ND","ND","ND","30.6","0.1","ND","ND","ND","ND","665","0"],
    [68518,"2018-02-28T17:00:00","42.1","ND","ND","ND","30.8","0.1","ND","ND","ND","ND","627","0"],
    [68519,"2018-02-28T18:00:00","21.4","ND","ND","ND","29.9","0.1","ND","ND","ND","ND","256","0"],
    [68520,"2018-02-28T19:00:00","2.7","ND","ND","ND","27.5","0.1","ND","ND","ND","ND","12","0"],
    [68521,"2018-02-28T20:00:00","5.4","ND","ND","ND","4.7","0.2","ND","ND","ND","ND","0","0"],
    [68522,"2018-02-28T21:00:00","16","ND","ND","ND","1.5","0.6","ND","ND","ND","ND","0","0"],
    [68523,"2018-02-28T22:00:00","32.1","ND","ND","ND","1.1","1.7","ND","ND","ND","ND","0","0"],
    [68524,"2018-02-28T23:00:00","21.1","ND","ND","ND","1.0","1.0","ND","ND","ND","ND","0","0"],
    [68525,"2018-03-01T00:00:00","25.6","ND","ND","ND","1.0","0.4","ND","ND","ND","ND","0","0"],
    [68526,"2018-03-01T01:00:00","34","ND","ND","ND","0.7","2.0","ND","ND","ND","ND","0","0"],
    [68527,"2018-03-01T02:00:00","41.6","ND","ND","ND","0.5","0.6","ND","ND","ND","ND","0","0"],
    [68528,"2018-03-01T03:00:00","45.3","ND","ND","ND","1.3","1.6","ND","ND","ND","ND","0","0"],
    [68529,"2018-03-01T04:00:00","56","ND","ND","ND","0.8","0.9","ND","ND","ND","ND","0","0"],
    [68530,"2018-03-01T05:00:00","42.1","ND","ND","ND","1","0.4","ND","ND","ND","ND","0","0"],
    [68531,"2018-03-01T06:00:00","48.5","ND","ND","ND","1.4","0.6","ND","ND","ND","ND","0","0"],
    [68532,"2018-03-01T07:00:00","89.3","ND","ND","ND","1.6","1.2","ND","ND","ND","ND","26","0"],
    [68533,"2018-03-01T08:00:00","87.3","ND","ND","ND","1.7","0.5","ND","ND","ND","ND","274","0"],
    [68534,"2018-03-01T09:00:00","103.1","ND","ND","ND","7.9","0.8","ND","ND","ND","ND","648","0"],
    [68535,"2018-03-01T10:00:00","103.5","ND","ND","ND","39","0.1","ND","ND","ND","ND","664","0"],
    [68536,"2018-03-01T11:00:00","88.7","ND","ND","ND","50.7","0.1","ND","ND","ND","ND","665","0"],
    [68537,"2018-03-01T12:00:00","59.3","ND","ND","ND","60.3","0.1","ND","ND","ND","ND","665","0"],
    [68538,"2018-03-01T13:00:00","59.5","ND","ND","ND","78.9","0.1","ND","ND","ND","ND","665","0"],
    [68539,"2018-03-01T14:00:00","52.8","ND","ND","ND","95.6","0.2","ND","ND","ND","ND","646","0"],
    [68540,"2018-03-01T15:00:00","50.4","ND","ND","ND","78","0.1","ND","ND","ND","ND","580","0"],
    [68541,"2018-03-01T16:00:00","42.9","ND","ND","ND","22.6","0.1","ND","ND","ND","ND","665","0"],
    [68542,"2018-03-01T17:00:00","30.4","ND","ND","ND","24.2","0.1","ND","ND","ND","ND","582","0"],
    [68543,"2018-03-01T18:00:00","22.1","ND","ND","ND","24.6","0.0","ND","ND","ND","ND","226","0"],
    [68544,"2018-03-01T19:00:00","2.5","ND","ND","ND","15.2","0.1","ND","ND","ND","ND","26","0"],
    [68545,"2018-03-01T20:00:00","9.8","ND","ND","ND","1.6","0.1","ND","ND","ND","ND","0","0"],
    [68546,"2018-03-01T21:00:00","21.2","ND","ND","ND","2.6","0.5","ND","ND","ND","ND","0","0"],
    [68547,"2018-03-01T22:00:00","20.8","ND","ND","ND","1.5","0.5","ND","ND","ND","ND","0","0"],
    [68548,"2018-03-01T23:00:00","30.5","ND","ND","ND","2.2","0.5","ND","ND","ND","ND","0","0"],
    [68549,"2018-03-02T00:00:00","30.9","ND","ND","ND","3","0.1","ND","ND","ND","ND","0","0"],
    [68550,"2018-03-02T01:00:00","44.3","ND","ND","ND","3.8","0.5","ND","ND","ND","ND","0","0"],
    [68551,"2018-03-02T02:00:00","53.8","ND","ND","ND","3.6","1.6","ND","ND","ND","ND","0","0"],
    [68552,"2018-03-02T03:00:00","50.5","ND","ND","ND","3.2","1.6","ND","ND","ND","ND","0","0"],
    [68553,"2018-03-02T04:00:00","67.8","ND","ND","ND","2.9","0.5","ND","ND","ND","ND","0","0"],
    [68554,"2018-03-02T05:00:00","62.2","ND","ND","ND","4","0.4","ND","ND","ND","ND","0","0"],
    [68555,"2018-03-02T06:00:00","57.2","ND","ND","ND","1.5","1.2","ND","ND","ND","ND","0","0"],
    [68556,"2018-03-02T07:00:00","42.5","ND","ND","ND","1.5","0.4","ND","ND","ND","ND","22","1.02"],
    [68557,"2018-03-02T08:00:00","32.7","ND","ND","ND","1.1","1.2","ND","ND","ND","ND","145","0.51"],
    [68558,"2018-03-02T09:00:00","28.4","ND","ND","ND","1.5","0.4","ND","ND","ND","ND","396","0.25"],
    [68559,"2018-03-02T10:00:00","54.6","ND","ND","ND","3.5","0.3","ND","ND","ND","ND","511","0"],
    [68560,"2018-03-02T11:00:00","70.7","ND","ND","ND","16.1","0.3","ND","ND","ND","ND","583","0"],
    [68561,"2018-03-02T12:00:00","61.6","ND","ND","ND","51","0.4","ND","ND","ND","ND","665","0"],
    [68562,"2018-03-02T13:00:00","68.8","ND","ND","ND","77.3","0.2","ND","ND","ND","ND","665","0"],
    [68563,"2018-03-02T14:00:00","80.3","ND","ND","ND","53.8","0.2","ND","ND","ND","ND","244","1.52"],
    [68564,"2018-03-02T15:00:00","65.1","ND","ND","ND","22.4","0.1","ND","ND","ND","ND","504","0.51"],
    [68565,"2018-03-02T16:00:00","1.9","ND","ND","ND","15.1","0.0","ND","ND","ND","ND","486","0"],
    [68566,"2018-03-02T17:00:00","32.6","ND","ND","ND","7","0.1","ND","ND","ND","ND","242","0"],
    [68567,"2018-03-02T18:00:00","20.7","ND","ND","ND","6.3","0.1","ND","ND","ND","ND","258","0"],
    [68568,"2018-03-02T19:00:00","48.5","ND","ND","ND","1.1","0.1","ND","ND","ND","ND","8","0"],
    [68569,"2018-03-02T20:00:00","51.7","ND","ND","ND","0.6","0.2","ND","ND","ND","ND","0","0"],
    [68570,"2018-03-02T21:00:00","51.1","ND","ND","ND","0.5","0.2","ND","ND","ND","ND","0","0"],
    [68571,"2018-03-02T22:00:00","49.5","ND","ND","ND","0.6","0.3","ND","ND","ND","ND","0","0"],
    [68572,"2018-03-02T23:00:00","65.5","ND","ND","ND","0.6","0.2","ND","ND","ND","ND","0","0"],
    [68573,"2018-03-03T00:00:00","55.1","ND","ND","ND","0.5","0.8","ND","ND","ND","ND","0","0"],
    [68574,"2018-03-03T01:00:00","48","ND","ND","ND","0.6","0.5","ND","ND","ND","ND","0","0"],
    [68575,"2018-03-03T02:00:00","37.7","ND","ND","ND","0.6","0.4","ND","ND","ND","ND","0","0"],
    [68576,"2018-03-03T03:00:00","41.7","ND","ND","ND","0.6","0.2","ND","ND","ND","ND","0","0"],
    [68577,"2018-03-03T04:00:00","40.1","ND","ND","ND","0.6","0.2","ND","ND","ND","ND","0","0"],
    [68578,"2018-03-03T05:00:00","36.8","ND","ND","ND","0.6","0.2","ND","ND","ND","ND","0","0"],
    [68579,"2018-03-03T06:00:00","50.6","ND","ND","ND","1","1.2","ND","ND","ND","ND","0","0"],
    [68580,"2018-03-03T07:00:00","66.3","ND","ND","ND","0.9","1.1","ND","ND","ND","ND","33","0"],
    [68581,"2018-03-03T08:00:00","95.7","ND","ND","ND","1.1","1.3","ND","ND","ND","ND","259","0"],
    [68582,"2018-03-03T09:00:00","98.8","ND","ND","ND","1.8","1.5","ND","ND","ND","ND","552","0"],
    [68583,"2018-03-03T10:00:00","121.4","ND","ND","ND","8.8","1.2","ND","ND","ND","ND","665","0"],
    [68584,"2018-03-03T11:00:00","129","ND","ND","ND","35.4","0.7","ND","ND","ND","ND","665","0"],
    [68585,"2018-03-03T12:00:00","83.1","ND","ND","ND","69.3","0.2","ND","ND","ND","ND","665","0"],
    [68586,"2018-03-03T13:00:00","51.7","ND","ND","ND","79.5","0.2","ND","ND","ND","ND","666","0"],
    [68587,"2018-03-03T14:00:00","46.8","ND","ND","ND","91.3","0.2","ND","ND","ND","ND","666","0"],
    [68588,"2018-03-03T15:00:00","36.4","ND","ND","ND","85.8","0.2","ND","ND","ND","ND","661","0"],
    [68589,"2018-03-03T16:00:00","31.5","ND","ND","ND","44","0.2","ND","ND","ND","ND","471","0"],
    [68590,"2018-03-03T17:00:00","27.3","ND","ND","ND","49","0.1","ND","ND","ND","ND","636","0"],
    [68591,"2018-03-03T18:00:00","25.8","ND","ND","ND","39.6","0.1","ND","ND","ND","ND","211","0"],
    [68592,"2018-03-03T19:00:00","23.6","ND","ND","ND","29.8","0.2","ND","ND","ND","ND","16","0"],
    [68593,"2018-03-03T20:00:00","3.5","ND","ND","ND","14.2","0.0","ND","ND","ND","ND","0","0"],
    [68594,"2018-03-03T21:00:00","10.8","ND","ND","ND","7.7","0.1","ND","ND","ND","ND","0","0"],
    [68595,"2018-03-03T22:00:00","19.6","ND","ND","ND","2.7","0.3","ND","ND","ND","ND","0","0"],
    [68596,"2018-03-03T23:00:00","23.4","ND","ND","ND","2.2","0.2","ND","ND","ND","ND","0","0"],
    [68597,"2018-03-04T00:00:00","24.9","ND","ND","ND","3.3","0.4","ND","ND","ND","ND","0","0"],
    [68598,"2018-03-04T01:00:00","13.1","ND","ND","ND","5.4","0.2","ND","ND","ND","ND","0","0"],
    [68599,"2018-03-04T02:00:00","20.3","ND","ND","ND","8","0.2","ND","ND","ND","ND","0","0"],
    [68600,"2018-03-04T03:00:00","87.3","ND","ND","ND","5.7","0.2","ND","ND","ND","ND","0","15.24"],
    [68601,"2018-03-04T04:00:00","31.1","ND","ND","ND","1.3","0.1","ND","ND","ND","ND","0","0.25"],
    [68602,"2018-03-04T05:00:00","ND","ND","ND","ND","1.3","0.1","ND","ND","ND","ND","0","0"],
    [68603,"2018-03-04T06:00:00","8.6","ND","ND","ND","0.6","1.7","ND","ND","ND","ND","0","0"],
    [68604,"2018-03-04T07:00:00","33.1","ND","ND","ND","0.5","0.8","ND","ND","ND","ND","61","0"],
    [68605,"2018-03-04T08:00:00","35.4","ND","ND","ND","0.6","0.6","ND","ND","ND","ND","352","0"],
    [68606,"2018-03-04T09:00:00","75.4","ND","ND","ND","1.8","1.6","ND","ND","ND","ND","488","0"],
    [68607,"2018-03-04T10:00:00","177.3","ND","ND","ND","13.8","0.5","ND","ND","ND","ND","622","0"],
    [68608,"2018-03-04T11:00:00","ND","ND","ND","ND","33.9","0.1","ND","ND","ND","ND","660","0"],
    [68609,"2018-03-04T12:00:00","117.4","ND","ND","ND","59.1","0.1","ND","ND","ND","ND","664","0"],
    [68610,"2018-03-04T13:00:00","62.6","ND","ND","ND","81.9","0.2","ND","ND","ND","ND","665","0"],
    [68611,"2018-03-04T14:00:00","57.7","ND","ND","ND","80.6","0.2","ND","ND","ND","ND","659","0"],
    [68612,"2018-03-04T15:00:00","39.5","ND","ND","ND","62.5","0.2","ND","ND","ND","ND","654","0"],
    [68613,"2018-03-04T16:00:00","39.2","ND","ND","ND","36.3","0.2","ND","ND","ND","ND","617","0"],
    [68614,"2018-03-04T17:00:00","15.6","ND","ND","ND","34.8","0.1","ND","ND","ND","ND","662","0"],
    [68615,"2018-03-04T18:00:00","6.4","ND","ND","ND","32.5","0.1","ND","ND","ND","ND","333","0"],
    [68616,"2018-03-04T19:00:00","5","ND","ND","ND","24.9","0.0","ND","ND","ND","ND","19","0"],
    [68617,"2018-03-04T20:00:00","2.8","ND","ND","ND","8.3","0.0","ND","ND","ND","ND","0","0"],
    [68618,"2018-03-04T21:00:00","1","ND","ND","ND","5.3","0.3","ND","ND","ND","ND","0","0"],
    [68619,"2018-03-04T22:00:00","2.7","ND","ND","ND","3.7","0.2","ND","ND","ND","ND","0","0"],
    [68620,"2018-03-04T23:00:00","13.3","ND","ND","ND","5.6","0.4","ND","ND","ND","ND","0","0"],
    [68621,"2018-03-05T00:00:00","18.7","ND","ND","ND","7.6","0.1","ND","ND","ND","ND","0","0"],
    [68622,"2018-03-05T01:00:00","21.3","ND","ND","ND","3.5","0.6","ND","ND","ND","ND","0","0"],
    [68623,"2018-03-05T02:00:00","67.2","ND","ND","ND","3.7","0.7","ND","ND","ND","ND","0","0"],
    [68624,"2018-03-05T03:00:00","46.8","ND","ND","ND","1.6","1.3","ND","ND","ND","ND","0","0"],
    [68625,"2018-03-05T04:00:00","42.5","ND","ND","ND","0.4","1.4","ND","ND","ND","ND","0","0"],
    [68626,"2018-03-05T05:00:00","44","ND","ND","ND","1.4","1.4","ND","ND","ND","ND","0","0"],
    [68627,"2018-03-05T06:00:00","49.9","ND","ND","ND","0.4","0.5","ND","ND","ND","ND","0","0"],
    [68628,"2018-03-05T07:00:00","73.3","ND","ND","ND","0.5","0.7","ND","ND","ND","ND","51","0"],
    [68629,"2018-03-05T08:00:00","76.1","ND","ND","ND","1.2","0.7","ND","ND","ND","ND","378","0"],
    [68630,"2018-03-05T09:00:00","79.4","ND","ND","ND","5.1","0.6","ND","ND","ND","ND","653","0"],
    [68631,"2018-03-05T10:00:00","67.9","ND","ND","ND","18.8","0.3","ND","ND","ND","ND","664","0"],
    [68632,"2018-03-05T11:00:00","60.1","ND","ND","ND","38.9","0.3","ND","ND","ND","ND","664","0"],
    [68633,"2018-03-05T12:00:00","55.1","ND","ND","ND","59.6","0.1","ND","ND","ND","ND","664","0"],
    [68634,"2018-03-05T13:00:00","49","ND","ND","ND","82.9","0.3","ND","ND","ND","ND","664","0"],
    [68635,"2018-03-05T14:00:00","53.1","ND","ND","ND","73.3","0.2","ND","ND","ND","ND","380","0"],
    [68636,"2018-03-05T15:00:00","32.5","ND","ND","ND","35.9","0.2","ND","ND","ND","ND","628","0"],
    [68637,"2018-03-05T16:00:00","16.6","ND","ND","ND","30.8","0.1","ND","ND","ND","ND","642","0"],
    [68638,"2018-03-05T17:00:00","21","ND","ND","ND","28.9","0.0","ND","ND","ND","ND","659","0"],
    [68639,"2018-03-05T18:00:00","19.4","ND","ND","ND","19","0.1","ND","ND","ND","ND","245","0"],
    [68640,"2018-03-05T19:00:00","6.2","ND","ND","ND","15.6","0.0","ND","ND","ND","ND","10","0"],
    [68641,"2018-03-05T20:00:00","ND","ND","ND","ND","2.9","0.1","ND","ND","ND","ND","0","0"],
    [68642,"2018-03-05T21:00:00","ND","ND","ND","ND","6","0.2","ND","ND","ND","ND","0","0"],
    [68643,"2018-03-05T22:00:00","7.9","ND","ND","ND","8.6","0.1","ND","ND","ND","ND","0","0"],
    [68644,"2018-03-05T23:00:00","5.4","ND","ND","ND","12.1","0.0","ND","ND","ND","ND","0","0"],
    [68645,"2018-03-06T00:00:00","35.8","ND","ND","ND","2.8","0.2","ND","ND","ND","ND","0","0"],
    [68646,"2018-03-06T01:00:00","56.9","ND","ND","ND","3.9","0.3","ND","ND","ND","ND","0","0"],
    [68647,"2018-03-06T02:00:00","47.6","ND","ND","ND","3.2","0.5","ND","ND","ND","ND","0","0"],
    [68648,"2018-03-06T03:00:00","35.6","ND","ND","ND","2.3","0.4","ND","ND","ND","ND","0","0"],
    [68649,"2018-03-06T04:00:00","36.9","ND","ND","ND","0.8","1.6","ND","ND","ND","ND","0","0"],
    [68650,"2018-03-06T05:00:00","40.8","ND","ND","ND","0.4","2.0","ND","ND","ND","ND","0","0"],
    [68651,"2018-03-06T06:00:00","47.7","ND","ND","ND","0.4","1.1","ND","ND","ND","ND","0","0"],
    [68652,"2018-03-06T07:00:00","63.1","ND","ND","ND","0.4","2.1","ND","ND","ND","ND","37","0"],
    [68653,"2018-03-06T08:00:00","93.8","ND","ND","ND","0.5","1.0","ND","ND","ND","ND","278","0"],
    [68654,"2018-03-06T09:00:00","84.7","ND","ND","ND","3.9","0.3","ND","ND","ND","ND","388","0"],
    [68655,"2018-03-06T10:00:00","47.7","ND","ND","ND","11.9","0.3","ND","ND","ND","ND","645","0"],
    [68656,"2018-03-06T11:00:00","55.4","ND","ND","ND","29.5","0.1","ND","ND","ND","ND","664","0"],
    [68657,"2018-03-06T12:00:00","86.1","ND","ND","ND","40.7","0.1","ND","ND","ND","ND","665","0"],
    [68658,"2018-03-06T13:00:00","60.5","ND","ND","ND","65.2","0.2","ND","ND","ND","ND","665","0"],
    [68659,"2018-03-06T14:00:00","32.1","ND","ND","ND","76.2","0.2","ND","ND","ND","ND","665","0"],
    [68660,"2018-03-06T15:00:00","34.6","ND","ND","ND","56.6","0.1","ND","ND","ND","ND","662","0"],
    [68661,"2018-03-06T16:00:00","51.1","ND","ND","ND","46.7","0.3","ND","ND","ND","ND","604","0"],
    [68662,"2018-03-06T17:00:00","50","ND","ND","ND","33.3","0.1","ND","ND","ND","ND","529","0"],
    [68663,"2018-03-06T18:00:00","10.3","ND","ND","ND","25.2","0.1","ND","ND","ND","ND","226","0"],
    [68664,"2018-03-06T19:00:00","ND","ND","ND","ND","18.1","0.1","ND","ND","ND","ND","11","0"],
    [68665,"2018-03-06T20:00:00","ND","ND","ND","ND","10.6","0.1","ND","ND","ND","ND","0","0"],
    [68666,"2018-03-06T21:00:00","ND","ND","ND","ND","6.9","0.1","ND","ND","ND","ND","0","0"],
    [68667,"2018-03-06T22:00:00","27.4","ND","ND","ND","1.5","0.3","ND","ND","ND","ND","0","0"],
    [68668,"2018-03-06T23:00:00","45.2","ND","ND","ND","1.1","0.5","ND","ND","ND","ND","0","0"],
    [68669,"2018-03-07T00:00:00","41.5","ND","ND","ND","0.9","0.2","ND","ND","ND","ND","0","0"],
    [68670,"2018-03-07T01:00:00","41.5","ND","ND","ND","0.8","0.3","ND","ND","ND","ND","0","0"],
    [68671,"2018-03-07T02:00:00","55.8","ND","ND","ND","1.5","0.4","ND","ND","ND","ND","0","0"],
    [68672,"2018-03-07T03:00:00","58.1","ND","ND","ND","2.3","0.4","ND","ND","ND","ND","0","1.27"],
    [68673,"2018-03-07T04:00:00","63.8","ND","ND","ND","0.9","0.5","ND","ND","ND","ND","0","0.25"],
    [68674,"2018-03-07T05:00:00","62.8","ND","ND","ND","0.6","0.5","ND","ND","ND","ND","0","0"],
    [68675,"2018-03-07T06:00:00","50.7","ND","ND","ND","0.7","0.8","ND","ND","ND","ND","0","0"],
    [68676,"2018-03-07T07:00:00","53.9","ND","ND","ND","0.7","0.6","ND","ND","ND","ND","19","0"],
    [68677,"2018-03-07T08:00:00","71.3","ND","ND","ND","0.5","0.7","ND","ND","ND","ND","260","0"],
    [68678,"2018-03-07T09:00:00","101.1","ND","ND","ND","2.4","0.8","ND","ND","ND","ND","650","0"],
    [68679,"2018-03-07T10:00:00","102.7","ND","ND","ND","20.3","0.7","ND","ND","ND","ND","664","0"],
    [68680,"2018-03-07T11:00:00","73.7","ND","ND","ND","36.1","0.4","ND","ND","ND","ND","664","0"],
    [68681,"2018-03-07T12:00:00","67.5","ND","ND","ND","64.6","0.2","ND","ND","ND","ND","664","0"],
    [68682,"2018-03-07T13:00:00","72.4","ND","ND","ND","101.7","0.2","ND","ND","ND","ND","665","0"],
    [68683,"2018-03-07T14:00:00","70.3","ND","ND","ND","103.7","0.3","ND","ND","ND","ND","601","0"],
    [68684,"2018-03-07T15:00:00","55.3","ND","ND","ND","87.8","0.1","ND","ND","ND","ND","641","0"],
    [68685,"2018-03-07T16:00:00","41.3","ND","ND","ND","63.4","0.1","ND","ND","ND","ND","654","0"],
    [68686,"2018-03-07T17:00:00","47.2","ND","ND","ND","57.4","0.1","ND","ND","ND","ND","516","0"],
    [68687,"2018-03-07T18:00:00","41.1","ND","ND","ND","34.2","0.0","ND","ND","ND","ND","142","0"],
    [68688,"2018-03-07T19:00:00","11.6","ND","ND","ND","24","0.1","ND","ND","ND","ND","8","0"],
    [68689,"2018-03-07T20:00:00","ND","ND","ND","ND","10.4","0.1","ND","ND","ND","ND","0","0"],
    [68690,"2018-03-07T21:00:00","11.4","ND","ND","ND","0.6","0.1","ND","ND","ND","ND","0","0"],
    [68691,"2018-03-07T22:00:00","44.1","ND","ND","ND","0.4","0.7","ND","ND","ND","ND","0","0"],
    [68692,"2018-03-07T23:00:00","42.1","ND","ND","ND","0.6","1.3","ND","ND","ND","ND","0","0"],
    [68693,"2018-03-08T00:00:00","24.1","ND","ND","ND","0.3","0.8","ND","ND","ND","ND","0","0"],
    [68694,"2018-03-08T01:00:00","20.2","ND","ND","ND","0.3","0.5","ND","ND","ND","ND","0","0"],
    [68695,"2018-03-08T02:00:00","28.7","ND","ND","ND","0.6","0.3","ND","ND","ND","ND","0","0"],
    [68696,"2018-03-08T03:00:00","51.3","ND","ND","ND","0.5","0.2","ND","ND","ND","ND","0","0"],
    [68697,"2018-03-08T04:00:00","56.5","ND","ND","ND","0.5","0.3","ND","ND","ND","ND","0","0"],
    [68698,"2018-03-08T05:00:00","48.9","ND","ND","ND","0.5","0.3","ND","ND","ND","ND","0","0"],
    [68699,"2018-03-08T06:00:00","58.5","ND","ND","ND","0.4","0.5","ND","ND","ND","ND","0","0"],
    [68700,"2018-03-08T07:00:00","75.6","ND","ND","ND","0.5","0.6","ND","ND","ND","ND","54","0"],
    [68701,"2018-03-08T08:00:00","94.4","ND","ND","ND","0.9","0.6","ND","ND","ND","ND","307","0"],
    [68702,"2018-03-08T09:00:00","101.5","ND","ND","ND","3.4","0.5","ND","ND","ND","ND","443","0"],
    [68703,"2018-03-08T10:00:00","108.1","ND","ND","ND","9.2","0.6","ND","ND","ND","ND","662","0"],
    [68704,"2018-03-08T11:00:00","96.8","ND","ND","ND","20.5","0.3","ND","ND","ND","ND","618","0"],
    [68705,"2018-03-08T12:00:00","83.7","ND","ND","ND","38.2","0.2","ND","ND","ND","ND","665","0"],
    [68706,"2018-03-08T13:00:00","70.9","ND","ND","ND","69.9","0.2","ND","ND","ND","ND","665","0"],
    [68707,"2018-03-08T14:00:00","55.4","ND","ND","ND","77.6","0.1","ND","ND","ND","ND","665","0"],
    [68708,"2018-03-08T15:00:00","51.6","ND","ND","ND","48.9","0.1","ND","ND","ND","ND","665","0"],
    [68709,"2018-03-08T16:00:00","18.2","ND","ND","ND","36.1","0.1","ND","ND","ND","ND","636","0"],
    [68710,"2018-03-08T17:00:00","22.2","ND","ND","ND","36","0.1","ND","ND","ND","ND","535","0"],
    [68711,"2018-03-08T18:00:00","15.6","ND","ND","ND","29.9","0.1","ND","ND","ND","ND","251","0"],
    [68712,"2018-03-08T19:00:00","5.9","ND","ND","ND","16.8","0.1","ND","ND","ND","ND","16","0"],
    [68713,"2018-03-08T20:00:00","ND","ND","ND","ND","5.7","0.1","ND","ND","ND","ND","0","0"],
    [68714,"2018-03-08T21:00:00","11.2","ND","ND","ND","0.9","0.2","ND","ND","ND","ND","0","0"],
    [68715,"2018-03-08T22:00:00","40","ND","ND","ND","0.6","0.3","ND","ND","ND","ND","0","0"],
    [68716,"2018-03-08T23:00:00","38.3","ND","ND","ND","0.5","0.5","ND","ND","ND","ND","0","0"],
    [68717,"2018-03-09T00:00:00","29.3","ND","ND","ND","0.4","0.2","ND","ND","ND","ND","0","0"],
    [68718,"2018-03-09T01:00:00","31.7","ND","ND","ND","0.7","0.2","ND","ND","ND","ND","0","0"],
    [68719,"2018-03-09T02:00:00","28.7","ND","ND","ND","0.6","0.1","ND","ND","ND","ND","0","0"],
    [68720,"2018-03-09T03:00:00","31.6","ND","ND","ND","0.5","0.6","ND","ND","ND","ND","0","0"],
    [68721,"2018-03-09T04:00:00","42.7","ND","ND","ND","0.4","0.7","ND","ND","ND","ND","0","0"],
    [68722,"2018-03-09T05:00:00","47.8","ND","ND","ND","0.4","0.4","ND","ND","ND","ND","0","0"],
    [68723,"2018-03-09T06:00:00","51.1","ND","ND","ND","1.9","0.4","ND","ND","ND","ND","0","0"],
    [68724,"2018-03-09T07:00:00","68.2","ND","ND","ND","1.4","0.9","ND","ND","ND","ND","57","0"],
    [68725,"2018-03-09T08:00:00","90.5","ND","ND","ND","1.6","1.1","ND","ND","ND","ND","437","0"],
    [68726,"2018-03-09T09:00:00","100.4","ND","ND","ND","9.7","0.2","ND","ND","ND","ND","646","0"],
    [68727,"2018-03-09T10:00:00","89","ND","ND","ND","25.6","0.3","ND","ND","ND","ND","662","0"],
    [68728,"2018-03-09T11:00:00","83.2","ND","ND","ND","47.4","0.3","ND","ND","ND","ND","664","0"],
    [68729,"2018-03-09T12:00:00","69.9","ND","ND","ND","78.8","0.4","ND","ND","ND","ND","665","0"],
    [68730,"2018-03-09T13:00:00","58","ND","ND","ND","63.9","0.1","ND","ND","ND","ND","623","0"],
    [68731,"2018-03-09T14:00:00","35.1","ND","ND","ND","49.3","0.0","ND","ND","ND","ND","665","0"],
    [68732,"2018-03-09T15:00:00","34.1","ND","ND","ND","39.9","0.2","ND","ND","ND","ND","613","0"],
    [68733,"2018-03-09T16:00:00","25.2","ND","ND","ND","41.3","0.0","ND","ND","ND","ND","634","0"],
    [68734,"2018-03-09T17:00:00","24.5","ND","ND","ND","44.2","0.2","ND","ND","ND","ND","659","0"],
    [68735,"2018-03-09T18:00:00","25.5","ND","ND","ND","39.5","0.1","ND","ND","ND","ND","299","0"],
    [68736,"2018-03-09T19:00:00","19.5","ND","ND","ND","33.3","0.2","ND","ND","ND","ND","12","0"],
    [68737,"2018-03-09T20:00:00","2.7","ND","ND","ND","17.4","0.1","ND","ND","ND","ND","0","0"],
    [68738,"2018-03-09T21:00:00","18.7","ND","ND","ND","1.2","0.1","ND","ND","ND","ND","0","0"],
    [68739,"2018-03-09T22:00:00","35.7","ND","ND","ND","0.8","0.3","ND","ND","ND","ND","0","0"],
    [68740,"2018-03-09T23:00:00","45.2","ND","ND","ND","0.6","0.5","ND","ND","ND","ND","0","0"],
    [68741,"2018-03-10T00:00:00","42.2","ND","ND","ND","0.5","0.4","ND","ND","ND","ND","0","0"],
    [68742,"2018-03-10T01:00:00","29.7","ND","ND","ND","0.7","0.6","ND","ND","ND","ND","0","0"],
    [68743,"2018-03-10T02:00:00","29.7","ND","ND","ND","2.6","0.3","ND","ND","ND","ND","0","0"],
    [68744,"2018-03-10T03:00:00","38.4","ND","ND","ND","4.9","0.2","ND","ND","ND","ND","0","0"],
    [68745,"2018-03-10T04:00:00","39.8","ND","ND","ND","4.4","0.1","ND","ND","ND","ND","0","0"],
    [68746,"2018-03-10T05:00:00","40.6","ND","ND","ND","1.6","0.1","ND","ND","ND","ND","0","0"],
    [68747,"2018-03-10T06:00:00","46.4","ND","ND","ND","0.9","0.3","ND","ND","ND","ND","0","0"],
    [68748,"2018-03-10T07:00:00","57.5","ND","ND","ND","0.7","0.2","ND","ND","ND","ND","75","0"],
    [68749,"2018-03-10T08:00:00","90.8","ND","ND","ND","1.8","0.4","ND","ND","ND","ND","459","0"],
    [68750,"2018-03-10T09:00:00","127.4","ND","ND","ND","7.5","0.4","ND","ND","ND","ND","663","0"],
    [68751,"2018-03-10T10:00:00","104.9","ND","ND","ND","24.9","0.1","ND","ND","ND","ND","658","0"],
    [68752,"2018-03-10T11:00:00","75.7","ND","ND","ND","50.9","0.2","ND","ND","ND","ND","664","0"],
    [68753,"2018-03-10T12:00:00","65.9","ND","ND","ND","81.1","0.1","ND","ND","ND","ND","665","0"],
    [68754,"2018-03-10T13:00:00","67","ND","ND","ND","103.8","0.1","ND","ND","ND","ND","665","0"],
    [68755,"2018-03-10T14:00:00","63.9","ND","ND","ND","113.8","0.1","ND","ND","ND","ND","659","0"],
    [68756,"2018-03-10T15:00:00","53.5","ND","ND","ND","78.1","0.1","ND","ND","ND","ND","616","0"],
    [68757,"2018-03-10T16:00:00","44.3","ND","ND","ND","49.1","0.1","ND","ND","ND","ND","638","0"],
    [68758,"2018-03-10T17:00:00","44.4","ND","ND","ND","50.5","0.1","ND","ND","ND","ND","663","0"],
    [68759,"2018-03-10T18:00:00","34.9","ND","ND","ND","41.1","0.1","ND","ND","ND","ND","270","0"],
    [68760,"2018-03-10T19:00:00","20.8","ND","ND","ND","34.7","0.0","ND","ND","ND","ND","9","0"],
    [68761,"2018-03-10T20:00:00","2.6","ND","ND","ND","9.4","0.1","ND","ND","ND","ND","0","0"],
    [68762,"2018-03-10T21:00:00","0.3","ND","ND","ND","3.4","0.1","ND","ND","ND","ND","0","0"],
    [68763,"2018-03-10T22:00:00","23","ND","ND","ND","1.3","0.9","ND","ND","ND","ND","0","0"],
    [68764,"2018-03-10T23:00:00","49.3","ND","ND","ND","1.9","0.1","ND","ND","ND","ND","0","0"],
    [68765,"2018-03-11T00:00:00","34.1","ND","ND","ND","1.2","0.3","ND","ND","ND","ND","0","0"],
    [68766,"2018-03-11T01:00:00","27.1","ND","ND","ND","1.3","0.2","ND","ND","ND","ND","0","0"],
    [68767,"2018-03-11T02:00:00","30.7","ND","ND","ND","0.9","0.2","ND","ND","ND","ND","0","0"],
    [68768,"2018-03-11T03:00:00","41.4","ND","ND","ND","1.2","0.5","ND","ND","ND","ND","0","0"],
    [68769,"2018-03-11T04:00:00","40.7","ND","ND","ND","0.8","0.2","ND","ND","ND","ND","0","0"],
    [68770,"2018-03-11T05:00:00","41.9","ND","ND","ND","0.9","0.2","ND","ND","ND","ND","0","0"],
    [68771,"2018-03-11T06:00:00","46.1","ND","ND","ND","0.5","0.3","ND","ND","ND","ND","0","0"],
    [68772,"2018-03-11T07:00:00","35.9","ND","ND","ND","0.7","0.2","ND","ND","ND","ND","84","0"],
    [68773,"2018-03-11T08:00:00","52.4","ND","ND","ND","4.7","0.2","ND","ND","ND","ND","550","0"],
    [68774,"2018-03-11T09:00:00","82.6","ND","ND","ND","20.2","0.1","ND","ND","ND","ND","663","0"],
    [68775,"2018-03-11T10:00:00","74.2","ND","ND","ND","43.4","0.1","ND","ND","ND","ND","664","0"],
    [68776,"2018-03-11T11:00:00","71.3","ND","ND","ND","64.1","0.3","ND","ND","ND","ND","664","0"],
    [68777,"2018-03-11T12:00:00","60.7","ND","ND","ND","77.2","0.2","ND","ND","ND","ND","664","0"],
    [68778,"2018-03-11T13:00:00","56.6","ND","ND","ND","92.3","0.1","ND","ND","ND","ND","665","0"],
    [68779,"2018-03-11T14:00:00","54.9","ND","ND","ND","104","0.1","ND","ND","ND","ND","665","0"],
    [68780,"2018-03-11T15:00:00","50","ND","ND","ND","85.5","0.1","ND","ND","ND","ND","645","0"],
    [68781,"2018-03-11T16:00:00","37.5","ND","ND","ND","58.3","0.1","ND","ND","ND","ND","665","0"],
    [68782,"2018-03-11T17:00:00","27.2","ND","ND","ND","47","0.0","ND","ND","ND","ND","657","0"],
    [68783,"2018-03-11T18:00:00","27.2","ND","ND","ND","38","0.1","ND","ND","ND","ND","283","0"],
    [68784,"2018-03-11T19:00:00","11.5","ND","ND","ND","31.6","0.1","ND","ND","ND","ND","10","0"],
    [68785,"2018-03-11T20:00:00","0.3","ND","ND","ND","19.3","0.0","ND","ND","ND","ND","0","0"],
    [68786,"2018-03-11T21:00:00","ND","ND","ND","ND","2.6","0.1","ND","ND","ND","ND","0","0"],
    [68787,"2018-03-11T22:00:00","22.8","ND","ND","ND","1.3","0.3","ND","ND","ND","ND","0","0"],
    [68788,"2018-03-11T23:00:00","29.4","ND","ND","ND","0.8","0.2","ND","ND","ND","ND","0","0"],
    [68789,"2018-03-12T00:00:00","21.4","ND","ND","ND","0.6","0.3","ND","ND","ND","ND","0","0"],
    [68790,"2018-03-12T01:00:00","33","ND","ND","ND","3","0.3","ND","ND","ND","ND","0","0"],
    [68791,"2018-03-12T02:00:00","25.9","ND","ND","ND","1.4","0.1","ND","ND","ND","ND","0","0"],
    [68792,"2018-03-12T03:00:00","28","ND","ND","ND","2.7","0.3","ND","ND","ND","ND","0","0"],
    [68793,"2018-03-12T04:00:00","32.7","ND","ND","ND","1.5","0.1","ND","ND","ND","ND","0","0"],
    [68794,"2018-03-12T05:00:00","26.8","ND","ND","ND","0.9","0.1","ND","ND","ND","ND","0","0"],
    [68795,"2018-03-12T06:00:00","42.5","ND","ND","ND","0.5","0.3","ND","ND","ND","ND","0","0"],
    [68796,"2018-03-12T07:00:00","80.3","ND","ND","ND","0.7","0.2","ND","ND","ND","ND","75","0"],
    [68797,"2018-03-12T08:00:00","115.8","ND","ND","ND","2.1","0.3","ND","ND","ND","ND","567","0"],
    [68798,"2018-03-12T09:00:00","114.5","ND","ND","ND","15.7","0.2","ND","ND","ND","ND","663","0"],
    [68799,"2018-03-12T10:00:00","112.2","ND","ND","ND","30.4","0.2","ND","ND","ND","ND","666","0"],
    [68800,"2018-03-12T11:00:00","97.6","ND","ND","ND","50.9","0.3","ND","ND","ND","ND","667","0"],
    [68801,"2018-03-12T12:00:00","73.6","ND","ND","ND","81.9","0.8","ND","ND","ND","ND","667","0"],
    [68802,"2018-03-12T13:00:00","75.7","ND","ND","ND","102.2","0.8","ND","ND","ND","ND","652","0"],
    [68803,"2018-03-12T14:00:00","66","ND","ND","ND","47.3","0.3","ND","ND","ND","ND","671","0"],
    [68804,"2018-03-12T15:00:00","45","ND","ND","ND","30","ND","ND","ND","ND","ND","672","0"],
    [68805,"2018-03-12T16:00:00","52","ND","ND","ND","30.6","ND","ND","ND","ND","ND","673","0"],
    [68806,"2018-03-12T17:00:00","42.2","ND","ND","ND","32.4","ND","ND","ND","ND","ND","662","0"],
    [68807,"2018-03-12T18:00:00","34.9","ND","ND","ND","26.7","ND","ND","ND","ND","ND","250","0"],
    [68808,"2018-03-12T19:00:00","27.1","ND","ND","ND","18","0.2","ND","ND","ND","ND","7","0"],
    [68809,"2018-03-12T20:00:00","26.2","ND","ND","ND","7.2","0.2","ND","ND","ND","ND","0","0"],
    [68810,"2018-03-12T21:00:00","32.3","ND","ND","ND","2.2","0.4","ND","ND","ND","ND","0","0"],
    [68811,"2018-03-12T22:00:00","31","ND","ND","ND","1.5","0.9","ND","ND","ND","ND","0","0"],
    [68812,"2018-03-12T23:00:00","44.6","ND","ND","ND","1.4","1.0","ND","ND","ND","ND","0","0"],
    [68813,"2018-03-13T00:00:00","19.5","ND","ND","ND","1.4","0.4","ND","ND","ND","ND","0","0"],
    [68814,"2018-03-13T01:00:00","ND","ND","ND","ND","1.3","0.6","ND","ND","ND","ND","0","0"],
    [68815,"2018-03-13T02:00:00","5.9","ND","ND","ND","1.4","0.6","ND","ND","ND","ND","0","0"],
    [68816,"2018-03-13T03:00:00","67.6","ND","ND","ND","1.6","0.5","ND","ND","ND","ND","0","0"],
    [68817,"2018-03-13T04:00:00","78.2","ND","ND","ND","1.5","0.2","ND","ND","ND","ND","0","0"],
    [68818,"2018-03-13T05:00:00","70.2","ND","ND","ND","1","0.4","ND","ND","ND","ND","0","0"],
    [68819,"2018-03-13T06:00:00","68.7","ND","ND","ND","0.7","0.5","ND","ND","ND","ND","0","0"],
    [68820,"2018-03-13T07:00:00","56.6","ND","ND","ND","0.7","0.3","ND","ND","ND","ND","51","0"],
    [68821,"2018-03-13T08:00:00","86.5","ND","ND","ND","1.6","0.4","ND","ND","ND","ND","413","0"],
    [68822,"2018-03-13T09:00:00","97.8","ND","ND","ND","6.7","0.1","ND","ND","ND","ND","571","0"],
    [68823,"2018-03-13T10:00:00","71.7","ND","ND","ND","20.8","0.2","ND","ND","ND","ND","663","0"],
    [68824,"2018-03-13T11:00:00","89.4","ND","ND","ND","42.6","0.1","ND","ND","ND","ND","664","0"],
    [68825,"2018-03-13T12:00:00","88.5","ND","ND","ND","63.7","0.1","ND","ND","ND","ND","664","0"],
    [68826,"2018-03-13T13:00:00","60.1","ND","ND","ND","43.4","0.1","ND","ND","ND","ND","658","0"],
    [68827,"2018-03-13T14:00:00","39","ND","ND","ND","32.9","0.1","ND","ND","ND","ND","665","0"],
    [68828,"2018-03-13T15:00:00","46.3","ND","ND","ND","30.9","0.1","ND","ND","ND","ND","665","0"],
    [68829,"2018-03-13T16:00:00","46.3","ND","ND","ND","29.2","0.1","ND","ND","ND","ND","665","0"],
    [68830,"2018-03-13T17:00:00","40.5","ND","ND","ND","29.6","0.0","ND","ND","ND","ND","623","0"],
    [68831,"2018-03-13T18:00:00","6","ND","ND","ND","26.4","0.1","ND","ND","ND","ND","284","0"],
    [68832,"2018-03-13T19:00:00","ND","ND","ND","ND","18.2","0.2","ND","ND","ND","ND","7","0"],
    [68833,"2018-03-13T20:00:00","ND","ND","ND","ND","12.8","0.1","ND","ND","ND","ND","0","0"],
    [68834,"2018-03-13T21:00:00","ND","ND","ND","ND","14.0","0.1","ND","ND","ND","ND","0","0"],
    [68835,"2018-03-13T22:00:00","11.9","ND","ND","ND","1.8","0.3","ND","ND","ND","ND","0","0"],
    [68836,"2018-03-13T23:00:00","41.4","ND","ND","ND","1.1","0.4","ND","ND","ND","ND","0","0"],
    [68837,"2018-03-14T00:00:00","41.9","ND","ND","ND","1.9","0.1","ND","ND","ND","ND","0","0"],
    [68838,"2018-03-14T01:00:00","51.5","ND","ND","ND","1.7","0.3","ND","ND","ND","ND","0","0"],
    [68839,"2018-03-14T02:00:00","46.7","ND","ND","ND","3.4","0.3","ND","ND","ND","ND","0","0"],
    [68840,"2018-03-14T03:00:00","45.9","ND","ND","ND","4.6","0.3","ND","ND","ND","ND","0","0"],
    [68841,"2018-03-14T04:00:00","46.1","ND","ND","ND","2.5","0.5","ND","ND","ND","ND","0","0"],
    [68842,"2018-03-14T05:00:00","35.8","ND","ND","ND","1.6","0.3","ND","ND","ND","ND","0","0"],
    [68843,"2018-03-14T06:00:00","35.6","ND","ND","ND","0.7","0.1","ND","ND","ND","ND","0","0"],
    [68844,"2018-03-14T07:00:00","71.8","ND","ND","ND","1.1","0.7","ND","ND","ND","ND","56","0"],
    [68845,"2018-03-14T08:00:00","136.8","ND","ND","ND","1.5","0.7","ND","ND","ND","ND","348","0"],
    [68846,"2018-03-14T09:00:00","168.8","ND","ND","ND","6.7","0.7","ND","ND","ND","ND","645","0"],
    [68847,"2018-03-14T10:00:00","145.3","ND","ND","ND","29.7","0.3","ND","ND","ND","ND","662","0"],
    [68848,"2018-03-14T11:00:00","99.5","ND","ND","ND","54.4","0.3","ND","ND","ND","ND","664","0"],
    [68849,"2018-03-14T12:00:00","84.4","ND","ND","ND","86.0","0.3","ND","ND","ND","ND","664","0"],
    [68850,"2018-03-14T13:00:00","80.6","ND","ND","ND","76.8","0.1","ND","ND","ND","ND","662","0"],
    [68851,"2018-03-14T14:00:00","43.6","ND","ND","ND","33.1","0.2","ND","ND","ND","ND","603","0"],
    [68852,"2018-03-14T15:00:00","25.6","ND","ND","ND","31.2","0.1","ND","ND","ND","ND","665","0"],
    [68853,"2018-03-14T16:00:00","41","ND","ND","ND","34.8","0.2","ND","ND","ND","ND","665","0"],
    [68854,"2018-03-14T17:00:00","36.1","ND","ND","ND","33.5","0.1","ND","ND","ND","ND","603","0"],
    [68855,"2018-03-14T18:00:00","17.6","ND","ND","ND","26.0","0.1","ND","ND","ND","ND","264","0"],
    [68856,"2018-03-14T19:00:00","2.2","ND","ND","ND","19.0","0.1","ND","ND","ND","ND","9","0"],
    [68857,"2018-03-14T20:00:00","ND","ND","ND","ND","5.3","0.1","ND","ND","ND","ND","0","0"],
    [68858,"2018-03-14T21:00:00","9.7","ND","ND","ND","2.7","0.1","ND","ND","ND","ND","0","0"],
    [68859,"2018-03-14T22:00:00","27.9","ND","ND","ND","1.6","0.2","ND","ND","ND","ND","0","0"],
    [68860,"2018-03-14T23:00:00","38.8","ND","ND","ND","1.0","0.1","ND","ND","ND","ND","0","0"],
    [68861,"2018-03-15T00:00:00","28.7","ND","ND","ND","0.9","0.0","ND","ND","ND","ND","0","0"],
    [68862,"2018-03-15T01:00:00","37.3","ND","ND","ND","0.8","0.1","ND","ND","ND","ND","0","0"],
    [68863,"2018-03-15T02:00:00","59.1","ND","ND","ND","1.0","0.4","ND","ND","ND","ND","0","0"],
    [68864,"2018-03-15T03:00:00","61","ND","ND","ND","0.9","0.3","ND","ND","ND","ND","0","0"],
    [68865,"2018-03-15T04:00:00","47.4","ND","ND","ND","0.9","0.4","ND","ND","ND","ND","0","0"],
    [68866,"2018-03-15T05:00:00","54.6","ND","ND","ND","4.6","0.3","ND","ND","ND","ND","0","0"],
    [68867,"2018-03-15T06:00:00","69.6","ND","ND","ND","1.9","0.4","ND","ND","ND","ND","0","0"],
    [68868,"2018-03-15T07:00:00","70.2","ND","ND","ND","1.2","0.6","ND","ND","ND","ND","73","0"],
    [68869,"2018-03-15T08:00:00","100.5","ND","ND","ND","1.7","0.8","ND","ND","ND","ND","339","0"],
    [68870,"2018-03-15T09:00:00","116.3","ND","ND","ND","3.1","0.4","ND","ND","ND","ND","450","0"],
    [68871,"2018-03-15T10:00:00","72.3","ND","ND","ND","15.2","0.3","ND","ND","ND","ND","663","0"],
    [68872,"2018-03-15T11:00:00","73.6","ND","ND","ND","37.5","0.1","ND","ND","ND","ND","664","0"],
    [68873,"2018-03-15T12:00:00","106.7","ND","ND","ND","ND","0.0","ND","ND","ND","ND","666","0"],
    [68874,"2018-03-15T13:00:00","123.4","ND","ND","ND","ND","ND","ND","ND","ND","ND","666","0"],
    [68875,"2018-03-15T14:00:00","48","ND","ND","ND","33.6","0.1","ND","ND","ND","ND","667","0"],
    [68876,"2018-03-15T15:00:00","29.1","ND","ND","ND","34.8","0.5","ND","ND","ND","ND","667","0"],
    [68877,"2018-03-15T16:00:00","24","ND","ND","ND","36.8","0.2","ND","ND","ND","ND","663","0"],
    [68878,"2018-03-15T17:00:00","28.7","ND","ND","ND","31.7","0.1","ND","ND","ND","ND","466","0"],
    [68879,"2018-03-15T18:00:00","32.9","ND","ND","ND","29.3","0.1","ND","ND","ND","ND","187","0"],
    [68880,"2018-03-15T19:00:00","37.9","ND","ND","ND","19.0","0.1","ND","ND","ND","ND","0","0"],
    [68881,"2018-03-15T20:00:00","46.9","ND","ND","ND","10.5","0.2","ND","ND","ND","ND","0","0"],
    [68882,"2018-03-15T21:00:00","37.3","ND","ND","ND","16.0","0.3","ND","ND","ND","ND","0","0"],
    [68883,"2018-03-15T22:00:00","18","ND","ND","ND","21.3","0.1","ND","ND","ND","ND","0","0"],
    [68884,"2018-03-15T23:00:00","17.5","ND","ND","ND","10.2","0.2","ND","ND","ND","ND","0","0"],
    [68885,"2018-03-16T00:00:00","42.6","ND","ND","ND","5.6","0.1","ND","ND","ND","ND","0","0"],
    [68886,"2018-03-16T01:00:00","34.3","ND","ND","ND","3.4","0.2","ND","ND","ND","ND","0","0"],
    [68887,"2018-03-16T02:00:00","70.7","ND","ND","ND","2.9","0.7","ND","ND","ND","ND","0","0"],
    [68888,"2018-03-16T03:00:00","73.2","ND","ND","ND","3.0","2.6","ND","ND","ND","ND","0","0"],
    [68889,"2018-03-16T04:00:00","55.3","ND","ND","ND","2.2","1.9","ND","ND","ND","ND","0","0"],
    [68890,"2018-03-16T05:00:00","53.8","ND","ND","ND","3.0","1.9","ND","ND","ND","ND","0","0"],
    [68891,"2018-03-16T06:00:00","59.8","ND","ND","ND","1.0","2.0","ND","ND","ND","ND","0","0"],
    [68892,"2018-03-16T07:00:00","76.8","ND","ND","ND","1.1","0.4","ND","ND","ND","ND","83","0"],
    [68893,"2018-03-16T08:00:00","115.2","ND","ND","ND","3.8","1.0","ND","ND","ND","ND","507","0"],
    [68894,"2018-03-16T09:00:00","152.2","ND","ND","ND","15.1","1.2","ND","ND","ND","ND","665","0"],
    [68895,"2018-03-16T10:00:00","131.5","ND","ND","ND","46.4","0.4","ND","ND","ND","ND","666","0"],
    [68896,"2018-03-16T11:00:00","104","ND","ND","ND","73.3","0.2","ND","ND","ND","ND","663","0"],
    [68897,"2018-03-16T12:00:00","57.7","ND","ND","ND","90.2","0.1","ND","ND","ND","ND","666","0"],
    [68898,"2018-03-16T13:00:00","46.4","ND","ND","ND","111.2","0.1","ND","ND","ND","ND","666","0"],
    [68899,"2018-03-16T14:00:00","52.3","ND","ND","ND","122.6","0.1","ND","ND","ND","ND","650","0"],
    [68900,"2018-03-16T15:00:00","63.4","ND","ND","ND","93.6","0.1","ND","ND","ND","ND","617","0"],
    [68901,"2018-03-16T16:00:00","44","ND","ND","ND","53.5","0.1","ND","ND","ND","ND","666","0"],
    [68902,"2018-03-16T17:00:00","33.8","ND","ND","ND","56.0","0.1","ND","ND","ND","ND","645","0"],
    [68903,"2018-03-16T18:00:00","34.7","ND","ND","ND","41.2","0.0","ND","ND","ND","ND","260","0"],
    [68904,"2018-03-16T19:00:00","20","ND","ND","ND","36.2","0.0","ND","ND","ND","ND","11","0"],
    [68905,"2018-03-16T20:00:00","10.6","ND","ND","ND","12.3","0.0","ND","ND","ND","ND","0","0"],
    [68906,"2018-03-16T21:00:00","7.6","ND","ND","ND","3.1","0.0","ND","ND","ND","ND","0","0"],
    [68907,"2018-03-16T22:00:00","21.9","ND","ND","ND","2.7","0.1","ND","ND","ND","ND","0","0"],
    [68908,"2018-03-16T23:00:00","23.6","ND","ND","ND","1.8","0.0","ND","ND","ND","ND","0","0"],
    [68909,"2018-03-17T00:00:00","31.2","ND","ND","ND","1.2","0.0","ND","ND","ND","ND","0","0"],
    [68910,"2018-03-17T01:00:00","29.7","ND","ND","ND","2.4","0.1","ND","ND","ND","ND","0","0"],
    [68911,"2018-03-17T02:00:00","43.5","ND","ND","ND","1.2","0.1","ND","ND","ND","ND","0","0"],
    [68912,"2018-03-17T03:00:00","54.4","ND","ND","ND","1.6","0.1","ND","ND","ND","ND","0","0"],
    [68913,"2018-03-17T04:00:00","48.8","ND","ND","ND","1.6","0.0","ND","ND","ND","ND","0","0"],
    [68914,"2018-03-17T05:00:00","60.2","ND","ND","ND","1.2","0.3","ND","ND","ND","ND","0","0"],
    [68915,"2018-03-17T06:00:00","70.9","ND","ND","ND","1.0","0.1","ND","ND","ND","ND","0","0"],
    [68916,"2018-03-17T07:00:00","80","ND","ND","ND","1.1","0.3","ND","ND","ND","ND","59","0"],
    [68917,"2018-03-17T08:00:00","113","ND","ND","ND","3.1","0.7","ND","ND","ND","ND","437","0"],
    [68918,"2018-03-17T09:00:00","121.4","ND","ND","ND","7.9","0.3","ND","ND","ND","ND","664","0"],
    [68919,"2018-03-17T10:00:00","111.3","ND","ND","ND","22.5","0.1","ND","ND","ND","ND","665","0"],
    [68920,"2018-03-17T11:00:00","75.9","ND","ND","ND","45.3","0.2","ND","ND","ND","ND","665","0"],
    [68921,"2018-03-17T12:00:00","78.6","ND","ND","ND","60.6","0.1","ND","ND","ND","ND","658","0"],
    [68922,"2018-03-17T13:00:00","31.7","ND","ND","ND","45.0","0.1","ND","ND","ND","ND","664","0"],
    [68923,"2018-03-17T14:00:00","1.4","ND","ND","ND","44.7","0.0","ND","ND","ND","ND","644","0"],
    [68924,"2018-03-17T15:00:00","14.4","ND","ND","ND","42.6","0.1","ND","ND","ND","ND","664","0"],
    [68925,"2018-03-17T16:00:00","12.9","ND","ND","ND","39.9","0.0","ND","ND","ND","ND","664","0"],
    [68926,"2018-03-17T17:00:00","12.8","ND","ND","ND","36.4","0.0","ND","ND","ND","ND","648","0"],
    [68927,"2018-03-17T18:00:00","2.3","ND","ND","ND","35.4","0.1","ND","ND","ND","ND","257","0"],
    [68928,"2018-03-17T19:00:00","0.3","ND","ND","ND","29.4","0.1","ND","ND","ND","ND","6","0"],
    [68929,"2018-03-17T20:00:00","ND","ND","ND","ND","13.9","0.0","ND","ND","ND","ND","0","0"],
    [68930,"2018-03-17T21:00:00","ND","ND","ND","ND","13.4","0.0","ND","ND","ND","ND","0","0"],
    [68931,"2018-03-17T22:00:00","0.7","ND","ND","ND","11.3","0.1","ND","ND","ND","ND","0","0"],
    [68932,"2018-03-17T23:00:00","32.3","ND","ND","ND","8.2","0.0","ND","ND","ND","ND","0","0"],
    [68933,"2018-03-18T00:00:00","45.2","ND","ND","ND","2.5","0.0","ND","ND","ND","ND","0","0"],
    [68934,"2018-03-18T01:00:00","29.5","ND","ND","ND","2.7","0.1","ND","ND","ND","ND","0","0"],
    [68935,"2018-03-18T02:00:00","30.8","ND","ND","ND","3.4","0.1","ND","ND","ND","ND","0","0"],
    [68936,"2018-03-18T03:00:00","47.9","ND","ND","ND","1.8","0.1","ND","ND","ND","ND","0","0"],
    [68937,"2018-03-18T04:00:00","54.9","ND","ND","ND","1.5","0.0","ND","ND","ND","ND","0","0"],
    [68938,"2018-03-18T05:00:00","41.4","ND","ND","ND","1.6","0.1","ND","ND","ND","ND","0","0"],
    [68939,"2018-03-18T06:00:00","47.8","ND","ND","ND","1.2","0.8","ND","ND","ND","ND","0","0"],
    [68940,"2018-03-18T07:00:00","59.2","ND","ND","ND","1.3","4.6","ND","ND","ND","ND","81","0"],
    [68941,"2018-03-18T08:00:00","61.4","ND","ND","ND","6.0","1.7","ND","ND","ND","ND","537","0"],
    [68942,"2018-03-18T09:00:00","88.7","ND","ND","ND","18.6","0.2","ND","ND","ND","ND","657","0"],
    [68943,"2018-03-18T10:00:00","87","ND","ND","ND","38.9","0.1","ND","ND","ND","ND","655","0"],
    [68944,"2018-03-18T11:00:00","68.2","ND","ND","ND","48.7","0.2","ND","ND","ND","ND","565","0"],
    [68945,"2018-03-18T12:00:00","32.5","ND","ND","ND","59.6","0.1","ND","ND","ND","ND","663","0"],
    [68946,"2018-03-18T13:00:00","79.4","ND","ND","ND","55.8","0.1","ND","ND","ND","ND","617","0"],
    [68947,"2018-03-18T14:00:00","164.3","ND","ND","ND","44.6","0.3","ND","ND","ND","ND","656","0"],
    [68948,"2018-03-18T15:00:00","80.9","ND","ND","ND","29.3","ND","ND","ND","ND","ND","665","0"],
    [68949,"2018-03-18T16:00:00","54.7","ND","ND","ND","25.3","ND","ND","ND","ND","ND","673","0"],
    [68950,"2018-03-18T17:00:00","50.1","ND","ND","ND","24.7","ND","ND","ND","ND","ND","621","0"],
    [68951,"2018-03-18T18:00:00","45.4","ND","ND","ND","23.9","ND","ND","ND","ND","ND","182","0"],
    [68952,"2018-03-18T19:00:00","38.2","ND","ND","ND","20.1","ND","ND","ND","ND","ND","0","0"],
    [68953,"2018-03-18T20:00:00","24.2","ND","ND","ND","19.5","ND","ND","ND","ND","ND","0","0"],
    [68954,"2018-03-18T21:00:00","25.1","ND","ND","ND","16.8","ND","ND","ND","ND","ND","0","0"],
    [68955,"2018-03-18T22:00:00","26.6","ND","ND","ND","11.0","ND","ND","ND","ND","ND","0","0"],
    [68956,"2018-03-18T23:00:00","30.3","ND","ND","ND","14.7","ND","ND","ND","ND","ND","0","0"],
    [68957,"2018-03-19T00:00:00","49.8","ND","ND","ND","18.9","ND","ND","ND","ND","ND","0","0"],
    [68958,"2018-03-19T01:00:00","38.3","ND","ND","ND","16.2","0.3","ND","ND","ND","ND","0","0"],
    [68959,"2018-03-19T02:00:00","ND","ND","ND","ND","14.9","0.0","ND","ND","ND","ND","0","0"],
    [68960,"2018-03-19T03:00:00","ND","ND","ND","ND","12.1","0.1","ND","ND","ND","ND","0","0"],
    [68961,"2018-03-19T04:00:00","98.7","ND","ND","ND","10.3","0.2","ND","ND","ND","ND","0","0"],
    [68962,"2018-03-19T05:00:00","169","ND","ND","ND","7.3","0.1","ND","ND","ND","ND","0","0"],
    [68963,"2018-03-19T06:00:00","126.7","ND","ND","ND","3.6","0.2","ND","ND","ND","ND","0","0"],
    [68964,"2018-03-19T07:00:00","95.3","ND","ND","ND","1.5","0.1","ND","ND","ND","ND","30","0"],
    [68965,"2018-03-19T08:00:00","92.2","ND","ND","ND","3.4","0.1","ND","ND","ND","ND","192","0"],
    [68966,"2018-03-19T09:00:00","104.1","ND","ND","ND","7.3","0.5","ND","ND","ND","ND","485","0"],
    [68967,"2018-03-19T10:00:00","109.8","ND","ND","ND","26.8","0.1","ND","ND","ND","ND","663","0"],
    [68968,"2018-03-19T11:00:00","83.4","ND","ND","ND","46.7","0.1","ND","ND","ND","ND","663","0"],
    [68969,"2018-03-19T12:00:00","73.4","ND","ND","ND","58.8","0.0","ND","ND","ND","ND","664","0"],
    [68970,"2018-03-19T13:00:00","48.5","ND","ND","ND","67.6","0.0","ND","ND","ND","ND","630","0"],
    [68971,"2018-03-19T14:00:00","16.4","ND","ND","ND","57.8","0.0","ND","ND","ND","ND","663","0"],
    [68972,"2018-03-19T15:00:00","32","ND","ND","ND","38.2","0.1","ND","ND","ND","ND","662","0"],
    [68973,"2018-03-19T16:00:00","28.9","ND","ND","ND","33.4","0.0","ND","ND","ND","ND","624","0"],
    [68974,"2018-03-19T17:00:00","0.1","ND","ND","ND","29.1","0.1","ND","ND","ND","ND","340","0"],
    [68975,"2018-03-19T18:00:00","ND","ND","ND","ND","24.0","0.0","ND","ND","ND","ND","48","0"],
    [68976,"2018-03-19T19:00:00","2.5","ND","ND","ND","15.9","0.0","ND","ND","ND","ND","0","0"],
    [68977,"2018-03-19T20:00:00","10.7","ND","ND","ND","15.4","0.1","ND","ND","ND","ND","0","0.76"],
    [68978,"2018-03-19T21:00:00","30.1","ND","ND","ND","6.0","0.0","ND","ND","ND","ND","0","0"],
    [68979,"2018-03-19T22:00:00","52.8","ND","ND","ND","2.1","0.1","ND","ND","ND","ND","0","0"],
    [68980,"2018-03-19T23:00:00","47.5","ND","ND","ND","4.8","0.2","ND","ND","ND","ND","0","0"],
    [68981,"2018-03-20T00:00:00","38.4","ND","ND","ND","4.2","0.1","ND","ND","ND","ND","0","0"],
    [68982,"2018-03-20T01:00:00","33.2","ND","ND","ND","6.8","0.3","ND","ND","ND","ND","0","0"],
    [68983,"2018-03-20T02:00:00","34.6","ND","ND","ND","4.0","0.9","ND","ND","ND","ND","0","0"],
    [68984,"2018-03-20T03:00:00","43.6","ND","ND","ND","2.0","0.8","ND","ND","ND","ND","0","0"],
    [68985,"2018-03-20T04:00:00","45.2","ND","ND","ND","6.9","0.3","ND","ND","ND","ND","0","0"],
    [68986,"2018-03-20T05:00:00","50.9","ND","ND","ND","6.1","0.3","ND","ND","ND","ND","0","1.52"],
    [68987,"2018-03-20T06:00:00","28","ND","ND","ND","1.3","0.1","ND","ND","ND","ND","0","0"],
    [68988,"2018-03-20T07:00:00","39.4","ND","ND","ND","0.3","0.2","ND","ND","ND","ND","5","0"],
    [68989,"2018-03-20T08:00:00","48.1","ND","ND","ND","0.3","0.0","ND","ND","ND","ND","32","3.81"],
    [68990,"2018-03-20T09:00:00","10.5","ND","ND","ND","0.2","0.1","ND","ND","ND","ND","233","6.86"],
    [68991,"2018-03-20T10:00:00","6.2","ND","ND","ND","1.6","0.0","ND","ND","ND","ND","480","0.25"],
    [68992,"2018-03-20T11:00:00","78.4","ND","ND","ND","16.9","0.0","ND","ND","ND","ND","663","0"],
    [68993,"2018-03-20T12:00:00","97.7","ND","ND","ND","46.4","0.1","ND","ND","ND","ND","664","0"],
    [68994,"2018-03-20T13:00:00","75.8","ND","ND","ND","50.5","0.1","ND","ND","ND","ND","664","0"],
    [68995,"2018-03-20T14:00:00","25","ND","ND","ND","64.2","0.1","ND","ND","ND","ND","662","0"],
    [68996,"2018-03-20T15:00:00","24.4","ND","ND","ND","65.9","0.0","ND","ND","ND","ND","559","0"],
    [68997,"2018-03-20T16:00:00","62.5","ND","ND","ND","14.7","0.1","ND","ND","ND","ND","180","12.19"],
    [68998,"2018-03-20T17:00:00","ND","ND","ND","ND","3.6","0.0","ND","ND","ND","ND","293","0.51"],
    [68999,"2018-03-20T18:00:00","34.4","ND","ND","ND","0.7","0.0","ND","ND","ND","ND","107","0.25"],
    [69000,"2018-03-20T19:00:00","72.2","ND","ND","ND","1.4","0.0","ND","ND","ND","ND","6","0"],
    [69001,"2018-03-20T20:00:00","59.3","ND","ND","ND","2.7","0.0","ND","ND","ND","ND","0","0"],
    [69002,"2018-03-20T21:00:00","46.3","ND","ND","ND","2.8","0.0","ND","ND","ND","ND","0","0"],
    [69003,"2018-03-20T22:00:00","47.6","ND","ND","ND","3.0","0.0","ND","ND","ND","ND","0","0"],
    [69004,"2018-03-20T23:00:00","55.2","ND","ND","ND","1.8","0.0","ND","ND","ND","ND","0","0"],
    [69005,"2018-03-21T00:00:00","59.6","ND","ND","ND","0.0","0.0","ND","ND","ND","ND","0","0"],
    [69006,"2018-03-21T01:00:00","79.2","ND","ND","ND","0.0","0.1","ND","ND","ND","ND","0","0"],
    [69007,"2018-03-21T02:00:00","66.6","ND","ND","ND","10.0","0.1","ND","ND","ND","ND","0","0"],
    [69008,"2018-03-21T03:00:00","36","ND","ND","ND","13.2","0.1","ND","ND","ND","ND","0","0"],
    [69009,"2018-03-21T04:00:00","43.5","ND","ND","ND","6.6","0.0","ND","ND","ND","ND","0","0"],
    [69010,"2018-03-21T05:00:00","56.5","ND","ND","ND","0.0","0.0","ND","ND","ND","ND","0","0"],
    [69011,"2018-03-21T06:00:00","71","ND","ND","ND","0.0","0.0","ND","ND","ND","ND","0","0"],
    [69012,"2018-03-21T07:00:00","77.1","ND","ND","ND","0.0","0.0","ND","ND","ND","ND","48","0"],
    [69013,"2018-03-21T08:00:00","86.4","ND","ND","ND","0.0","0.0","ND","ND","ND","ND","324","0"],
    [69014,"2018-03-21T09:00:00","106","ND","ND","ND","0.8","0.0","ND","ND","ND","ND","650","0"],
    [69015,"2018-03-21T10:00:00","128.9","ND","ND","ND","28.7","0.1","ND","ND","ND","ND","663","0"],
    [69016,"2018-03-21T11:00:00","96.8","ND","ND","ND","50.3","0.0","ND","ND","ND","ND","664","0"],
    [69017,"2018-03-21T12:00:00","75.9","ND","ND","ND","82.4","0.1","ND","ND","ND","ND","665","0"],
    [69018,"2018-03-21T13:00:00","61.9","ND","ND","ND","86.0","0.0","ND","ND","ND","ND","665","0"],
    [69019,"2018-03-21T14:00:00","54","ND","ND","ND","70.4","0.1","ND","ND","ND","ND","665","0"],
    [69020,"2018-03-21T15:00:00","56.8","ND","ND","ND","76.1","0.0","ND","ND","ND","ND","660","0"],
    [69021,"2018-03-21T16:00:00","22.8","ND","ND","ND","14.4","0.0","ND","ND","ND","ND","646","0"],
    [69022,"2018-03-21T17:00:00","36.8","ND","ND","ND","11.3","0.0","ND","ND","ND","ND","455","0"],
    [69023,"2018-03-21T18:00:00","44.8","ND","ND","ND","25.0","0.1","ND","ND","ND","ND","240","0"],
    [69024,"2018-03-21T19:00:00","33.1","ND","ND","ND","18.3","0.1","ND","ND","ND","ND","8","0"],
    [69025,"2018-03-21T20:00:00","9.5","ND","ND","ND","13.7","0.0","ND","ND","ND","ND","0","0"],
    [69026,"2018-03-21T21:00:00","0.4","ND","ND","ND","3.9","0.0","ND","ND","ND","ND","0","0"],
    [69027,"2018-03-21T22:00:00","1.1","ND","ND","ND","3.7","0.0","ND","ND","ND","ND","0","0"],
    [69028,"2018-03-21T23:00:00","62.2","ND","ND","ND","3.4","0.0","ND","ND","ND","ND","0","0"],
    [69029,"2018-03-22T00:00:00","78.7","ND","ND","ND","2.8","0.0","ND","ND","ND","ND","0","0"],
    [69030,"2018-03-22T01:00:00","29.7","ND","ND","ND","1.0","0.0","ND","ND","ND","ND","0","0"],
    [69031,"2018-03-22T02:00:00","ND","ND","ND","ND","1.1","0.0","ND","ND","ND","ND","0","0"],
    [69032,"2018-03-22T03:00:00","2.8","ND","ND","ND","2.9","0.0","ND","ND","ND","ND","0","0"],
    [69033,"2018-03-22T04:00:00","28.9","ND","ND","ND","2.1","0.1","ND","ND","ND","ND","0","0"],
    [69034,"2018-03-22T05:00:00","45.6","ND","ND","ND","1.3","0.1","ND","ND","ND","ND","0","0"],
    [69035,"2018-03-22T06:00:00","53.8","ND","ND","ND","3.9","0.1","ND","ND","ND","ND","0","0"],
    [69036,"2018-03-22T07:00:00","29.3","ND","ND","ND","4.0","0.0","ND","ND","ND","ND","40","0"],
    [69037,"2018-03-22T08:00:00","120.3","ND","ND","ND","3.7","0.0","ND","ND","ND","ND","178","0"],
    [69038,"2018-03-22T09:00:00","125.3","ND","ND","ND","3.9","0.1","ND","ND","ND","ND","422","0"],
    [69039,"2018-03-22T10:00:00","83.2","ND","ND","ND","4.2","0.1","ND","ND","ND","ND","499","0"],
    [69040,"2018-03-22T11:00:00","70","ND","ND","ND","6.5","0.1","ND","ND","ND","ND","662","0"],
    [69041,"2018-03-22T12:00:00","9.5","ND","ND","ND","5.2","0.5","ND","ND","ND","ND","665","0"],
    [69042,"2018-03-22T13:00:00","22.8","ND","ND","ND","16.2","0.2","ND","ND","ND","ND","665","0"],
    [69043,"2018-03-22T14:00:00","ND","ND","ND","ND","23.9","0.1","ND","ND","ND","ND","665","0"],
    [69044,"2018-03-22T15:00:00","ND","ND","ND","ND","19.3","0.0","ND","ND","ND","ND","664","0"],
    [69045,"2018-03-22T16:00:00","ND","ND","ND","ND","21.3","0.1","ND","ND","ND","ND","664","0"],
    [69046,"2018-03-22T17:00:00","ND","ND","ND","ND","22.5","0.1","ND","ND","ND","ND","644","0"],
    [69047,"2018-03-22T18:00:00","ND","ND","ND","ND","18.1","0.0","ND","ND","ND","ND","397","0"],
    [69048,"2018-03-22T19:00:00","ND","ND","ND","ND","13.7","0.0","ND","ND","ND","ND","21","0"],
    [69049,"2018-03-22T20:00:00","ND","ND","ND","ND","7.8","0.0","ND","ND","ND","ND","0","0.25"],
    [69050,"2018-03-22T21:00:00","ND","ND","ND","ND","9.9","0.0","ND","ND","ND","ND","0","0"],
    [69051,"2018-03-22T22:00:00","ND","ND","ND","ND","2.0","0.0","ND","ND","ND","ND","0","0"],
    [69052,"2018-03-22T23:00:00","ND","ND","ND","ND","3.0","0.0","ND","ND","ND","ND","0","0"],
    [69053,"2018-03-23T00:00:00","ND","ND","ND","ND","2.8","0.0","ND","ND","ND","ND","0","0"],
    [69054,"2018-03-23T01:00:00","ND","ND","ND","ND","2.5","0.0","ND","ND","ND","ND","0","0"],
    [69055,"2018-03-23T02:00:00","ND","ND","ND","ND","5.7","0.1","ND","ND","ND","ND","0","0"],
    [69056,"2018-03-23T03:00:00","ND","ND","ND","ND","3.9","0.1","ND","ND","ND","ND","0","0"],
    [69057,"2018-03-23T04:00:00","ND","ND","ND","ND","3.3","0.0","ND","ND","ND","ND","0","0"],
    [69058,"2018-03-23T05:00:00","ND","ND","ND","ND","4.9","0.0","ND","ND","ND","ND","0","0"],
    [69059,"2018-03-23T06:00:00","ND","ND","ND","ND","1.8","0.1","ND","ND","ND","ND","0","0"],
    [69060,"2018-03-23T07:00:00","ND","ND","ND","ND","1.8","0.0","ND","ND","ND","ND","46","0"],
    [69061,"2018-03-23T08:00:00","ND","ND","ND","ND","3.0","0.0","ND","ND","ND","ND","487","0"],
    [69062,"2018-03-23T09:00:00","ND","ND","ND","ND","11.0","0.0","ND","ND","ND","ND","647","0"],
    [69063,"2018-03-23T10:00:00","ND","ND","ND","ND","27.2","0.1","ND","ND","ND","ND","662","0"],
    [69064,"2018-03-23T11:00:00","ND","ND","ND","ND","25.8","0.1","ND","ND","ND","ND","657","0"],
    [69065,"2018-03-23T12:00:00","ND","ND","ND","ND","54.4","0.1","ND","ND","ND","ND","647","0"],
    [69066,"2018-03-23T13:00:00","ND","ND","ND","ND","70.4","0.0","ND","ND","ND","ND","664","0"],
    [69067,"2018-03-23T14:00:00","ND","ND","ND","ND","33.0","0.2","ND","ND","ND","ND","666","0"],
    [69068,"2018-03-23T15:00:00","ND","ND","ND","ND","22.8","0.3","ND","ND","ND","ND","668","0"],
    [69069,"2018-03-23T16:00:00","ND","ND","ND","ND","27.0","0.1","ND","ND","ND","ND","665","0"],
    [69070,"2018-03-23T17:00:00","ND","ND","ND","ND","28.1","0.0","ND","ND","ND","ND","591","0"],
    [69071,"2018-03-23T18:00:00","ND","ND","ND","ND","26.1","0.0","ND","ND","ND","ND","67","0"],
    [69072,"2018-03-23T19:00:00","ND","ND","ND","ND","27.0","0.1","ND","ND","ND","ND","0","0"],
    [69073,"2018-03-23T20:00:00","ND","ND","ND","ND","17.5","0.1","ND","ND","ND","ND","0","0"],
    [69074,"2018-03-23T21:00:00","ND","ND","ND","ND","15.8","0.1","ND","ND","ND","ND","0","0"],
    [69075,"2018-03-23T22:00:00","ND","ND","ND","ND","10.9","0.2","ND","ND","ND","ND","0","0"],
    [69076,"2018-03-23T23:00:00","ND","ND","ND","ND","10.4","0.1","ND","ND","ND","ND","0","0"],
    [69077,"2018-03-24T00:00:00","ND","ND","ND","ND","13.1","0.3","ND","ND","ND","ND","0","0"],
    [69078,"2018-03-24T01:00:00","ND","ND","ND","ND","14.3","0.2","ND","ND","ND","ND","0","0"],
    [69079,"2018-03-24T02:00:00","ND","ND","ND","ND","12.3","0.4","ND","ND","ND","ND","0","0"],
    [69080,"2018-03-24T03:00:00","ND","ND","ND","ND","10.5","0.2","ND","ND","ND","ND","0","0"],
    [69081,"2018-03-24T04:00:00","ND","ND","ND","ND","6.0","0.2","ND","ND","ND","ND","0","2.03"],
    [69082,"2018-03-24T05:00:00","ND","ND","ND","ND","2.4","0.4","ND","ND","ND","ND","0","13.97"],
    [69083,"2018-03-24T06:00:00","ND","ND","ND","ND","2.3","1.5","ND","ND","ND","ND","0","5.33"],
    [69084,"2018-03-24T07:00:00","ND","ND","ND","ND","2.4","1.0","ND","ND","ND","ND","16","19.56"],
    [69085,"2018-03-24T08:00:00","ND","ND","ND","ND","2.1","1.5","ND","ND","ND","ND","145","2.03"],
    [69086,"2018-03-24T09:00:00","ND","ND","ND","ND","2.2","1.5","ND","ND","ND","ND","341","0.76"],
    [69087,"2018-03-24T10:00:00","ND","ND","ND","ND","6.5","0.8","ND","ND","ND","ND","316","0.51"],
    [69088,"2018-03-24T11:00:00","ND","ND","ND","ND","9.7","0.2","ND","ND","ND","ND","342","0.76"],
    [69089,"2018-03-24T12:00:00","ND","ND","ND","ND","19.7","0.1","ND","ND","ND","ND","663","0.51"],
    [69090,"2018-03-24T13:00:00","ND","ND","ND","ND","40.1","0.1","ND","ND","ND","ND","663","0.25"],
    [69091,"2018-03-24T14:00:00","ND","ND","ND","ND","69.2","0.1","ND","ND","ND","ND","663","0.25"],
    [69092,"2018-03-24T15:00:00","ND","ND","ND","ND","70.4","0.1","ND","ND","ND","ND","663","0"],
    [69093,"2018-03-24T16:00:00","ND","ND","ND","ND","73.5","0.1","ND","ND","ND","ND","525","0"],
    [69094,"2018-03-24T17:00:00","ND","ND","ND","ND","68.0","0.1","ND","ND","ND","ND","369","0"],
    [69095,"2018-03-24T18:00:00","ND","ND","ND","ND","82.5","0.2","ND","ND","ND","ND","191","0"],
    [69096,"2018-03-24T19:00:00","ND","ND","ND","ND","43.2","0.2","ND","ND","ND","ND","8","0"],
    [69097,"2018-03-24T20:00:00","ND","ND","ND","ND","4.3","0.1","ND","ND","ND","ND","0","0"],
    [69098,"2018-03-24T21:00:00","ND","ND","ND","ND","1.3","0.1","ND","ND","ND","ND","0","0"],
    [69099,"2018-03-24T22:00:00","ND","ND","ND","ND","1.5","0.2","ND","ND","ND","ND","0","0"],
    [69100,"2018-03-24T23:00:00","ND","ND","ND","ND","1.1","0.3","ND","ND","ND","ND","0","0"],
    [69101,"2018-03-25T00:00:00","ND","ND","ND","ND","0.9","0.2","ND","ND","ND","ND","0","0"],
    [69102,"2018-03-25T01:00:00","ND","ND","ND","ND","0.7","0.3","ND","ND","ND","ND","0","0"],
    [69103,"2018-03-25T02:00:00","ND","ND","ND","ND","0.6","0.1","ND","ND","ND","ND","0","0"],
    [69104,"2018-03-25T03:00:00","ND","ND","ND","ND","0.6","0.3","ND","ND","ND","ND","0","0"],
    [69105,"2018-03-25T04:00:00","ND","ND","ND","ND","0.8","1.8","ND","ND","ND","ND","0","0"],
    [69106,"2018-03-25T05:00:00","ND","ND","ND","ND","1.3","1.3","ND","ND","ND","ND","0","0"],
    [69107,"2018-03-25T06:00:00","ND","ND","ND","ND","0.7","1.7","ND","ND","ND","ND","0","0"],
    [69108,"2018-03-25T07:00:00","ND","ND","ND","ND","0.8","2.9","ND","ND","ND","ND","31","0"],
    [69109,"2018-03-25T08:00:00","ND","ND","ND","ND","0.7","1.9","ND","ND","ND","ND","440","0"],
    [69110,"2018-03-25T09:00:00","ND","ND","ND","ND","12.4","0.9","ND","ND","ND","ND","632","0"],
    [69111,"2018-03-25T10:00:00","ND","ND","ND","ND","38.7","0.7","ND","ND","ND","ND","663","0"],
    [69112,"2018-03-25T11:00:00","ND","ND","ND","ND","59.9","0.3","ND","ND","ND","ND","664","0"],
    [69113,"2018-03-25T12:00:00","ND","ND","ND","ND","69.2","0.1","ND","ND","ND","ND","664","0"],
    [69114,"2018-03-25T13:00:00","ND","ND","ND","ND","77.6","0.1","ND","ND","ND","ND","664","0"],
    [69115,"2018-03-25T14:00:00","ND","ND","ND","ND","79.0","0.0","ND","ND","ND","ND","625","0"],
    [69116,"2018-03-25T15:00:00","ND","ND","ND","ND","40.1","0.0","ND","ND","ND","ND","657","0"],
    [69117,"2018-03-25T16:00:00","ND","ND","ND","ND","29.4","0.0","ND","ND","ND","ND","664","0"],
    [69118,"2018-03-25T17:00:00","ND","ND","ND","ND","25.2","0.0","ND","ND","ND","ND","659","0"],
    [69119,"2018-03-25T18:00:00","ND","ND","ND","ND","22.7","0.0","ND","ND","ND","ND","317","0"],
    [69120,"2018-03-25T19:00:00","ND","ND","ND","ND","15.5","0.1","ND","ND","ND","ND","13","0"],
    [69121,"2018-03-25T20:00:00","ND","ND","ND","ND","3.3","0.0","ND","ND","ND","ND","0","0"],
    [69122,"2018-03-25T21:00:00","ND","ND","ND","ND","2.0","0.2","ND","ND","ND","ND","0","0"],
    [69123,"2018-03-25T22:00:00","ND","ND","ND","ND","0.8","0.2","ND","ND","ND","ND","0","0"],
    [69124,"2018-03-25T23:00:00","ND","ND","ND","ND","0.6","0.2","ND","ND","ND","ND","0","0"],
    [69125,"2018-03-26T00:00:00","ND","ND","ND","ND","0.9","0.3","ND","ND","ND","ND","0","0"],
    [69126,"2018-03-26T01:00:00","ND","ND","ND","ND","1.0","0.2","ND","ND","ND","ND","0","0"],
    [69127,"2018-03-26T02:00:00","ND","ND","ND","ND","0.8","0.2","ND","ND","ND","ND","0","0"],
    [69128,"2018-03-26T03:00:00","ND","ND","ND","ND","0.6","0.2","ND","ND","ND","ND","0","0"],
    [69129,"2018-03-26T04:00:00","ND","ND","ND","ND","0.8","0.2","ND","ND","ND","ND","0","0"],
    [69130,"2018-03-26T05:00:00","ND","ND","ND","ND","0.7","0.3","ND","ND","ND","ND","0","0"],
    [69131,"2018-03-26T06:00:00","ND","ND","ND","ND","1.0","0.2","ND","ND","ND","ND","0","0"],
    [69132,"2018-03-26T07:00:00","ND","ND","ND","ND","0.6","0.2","ND","ND","ND","ND","43","0"],
    [69133,"2018-03-26T08:00:00","ND","ND","ND","ND","1.2","0.6","ND","ND","ND","ND","385","0"],
    [69134,"2018-03-26T09:00:00","ND","ND","ND","ND","3.6","2.6","ND","ND","ND","ND","489","0"],
    [69135,"2018-03-26T10:00:00","ND","ND","ND","ND","9.9","0.3","ND","ND","ND","ND","639","0"],
    [69136,"2018-03-26T11:00:00","ND","ND","ND","ND","23.6","0.2","ND","ND","ND","ND","663","0"],
    [69137,"2018-03-26T12:00:00","ND","ND","ND","ND","63.4","0.1","ND","ND","ND","ND","664","0"],
    [69138,"2018-03-26T13:00:00","ND","ND","ND","ND","80.1","0.1","ND","ND","ND","ND","661","0"],
    [69139,"2018-03-26T14:00:00","ND","ND","ND","ND","54.7","0.0","ND","ND","ND","ND","664","0"],
    [69140,"2018-03-26T15:00:00","ND","ND","ND","ND","40.2","0.0","ND","ND","ND","ND","664","0"],
    [69141,"2018-03-26T16:00:00","ND","ND","ND","ND","31.0","0.1","ND","ND","ND","ND","664","0"],
    [69142,"2018-03-26T17:00:00","ND","ND","ND","ND","30.5","0.1","ND","ND","ND","ND","654","0"],
    [69143,"2018-03-26T18:00:00","ND","ND","ND","ND","27.1","0.0","ND","ND","ND","ND","296","0"],
    [69144,"2018-03-26T19:00:00","ND","ND","ND","ND","10.0","0.0","ND","ND","ND","ND","12","0"],
    [69145,"2018-03-26T20:00:00","ND","ND","ND","ND","4.1","0.2","ND","ND","ND","ND","0","0"],
    [69146,"2018-03-26T21:00:00","ND","ND","ND","ND","6.6","0.1","ND","ND","ND","ND","0","0"],
    [69147,"2018-03-26T22:00:00","ND","ND","ND","ND","12.6","0.1","ND","ND","ND","ND","0","0"],
    [69148,"2018-03-26T23:00:00","ND","ND","ND","ND","9.2","0.1","ND","ND","ND","ND","0","0"],
    [69149,"2018-03-27T00:00:00","ND","ND","ND","ND","22.3","0.1","ND","ND","ND","ND","0","0"],
    [69150,"2018-03-27T01:00:00","ND","ND","ND","ND","24.5","0.0","ND","ND","ND","ND","0","0"],
    [69151,"2018-03-27T02:00:00","ND","ND","ND","ND","19.8","0.1","ND","ND","ND","ND","0","0"],
    [69152,"2018-03-27T03:00:00","ND","ND","ND","ND","9.9","0.2","ND","ND","ND","ND","0","0"],
    [69153,"2018-03-27T04:00:00","ND","ND","ND","ND","6.8","0.1","ND","ND","ND","ND","0","0"],
    [69154,"2018-03-27T05:00:00","ND","ND","ND","ND","2.1","0.1","ND","ND","ND","ND","0","0"],
    [69155,"2018-03-27T06:00:00","ND","ND","ND","ND","0.7","0.4","ND","ND","ND","ND","0","0"],
    [69156,"2018-03-27T07:00:00","ND","ND","ND","ND","0.8","1.6","ND","ND","ND","ND","31","0"],
    [69157,"2018-03-27T08:00:00","ND","ND","ND","ND","2.3","3.7","ND","ND","ND","ND","531","0"],
    [69158,"2018-03-27T09:00:00","ND","ND","ND","ND","14.1","1.6","ND","ND","ND","ND","657","0"],
    [69159,"2018-03-27T10:00:00","ND","ND","ND","ND","33.7","0.3","ND","ND","ND","ND","662","0"],
    [69160,"2018-03-27T11:00:00","ND","ND","ND","ND","53.6","0.1","ND","ND","ND","ND","664","0"],
    [69161,"2018-03-27T12:00:00","ND","ND","ND","ND","77.0","0.2","ND","ND","ND","ND","664","0"],
    [69162,"2018-03-27T13:00:00","ND","ND","ND","ND","93.1","0.1","ND","ND","ND","ND","664","0"],
    [69163,"2018-03-27T14:00:00","3.2","ND","ND","ND","60.5","0.1","ND","ND","ND","ND","666","0"],
    [69164,"2018-03-27T15:00:00","90.1","ND","ND","ND","11.5","0.1","ND","ND","ND","ND","628","0"],
    [69165,"2018-03-27T16:00:00","63.7","ND","ND","ND","8.1","0.0","ND","ND","ND","ND","318","0"],
    [69166,"2018-03-27T17:00:00","26.4","ND","ND","ND","ND","0.1","ND","ND","ND","ND","569","0"],
    [69167,"2018-03-27T18:00:00","20.1","ND","ND","ND","ND","0.0","ND","ND","ND","ND","168","0"],
    [69168,"2018-03-27T19:00:00","35.9","ND","ND","ND","ND","0.1","ND","ND","ND","ND","16","0"],
    [69169,"2018-03-27T20:00:00","30.1","ND","ND","ND","ND","0.1","ND","ND","ND","ND","0","0"],
    [69170,"2018-03-27T21:00:00","38.9","ND","ND","ND","ND","0.1","ND","ND","ND","ND","0","0"],
    [69171,"2018-03-27T22:00:00","47.3","ND","ND","ND","ND","0.2","ND","ND","ND","ND","0","0"],
    [69172,"2018-03-27T23:00:00","43.6","ND","ND","ND","ND","0.2","ND","ND","ND","ND","0","0"],
    [69173,"2018-03-28T00:00:00","44.1","ND","ND","ND","ND","0.2","ND","ND","ND","ND","0","0"],
    [69174,"2018-03-28T01:00:00","42.7","ND","ND","ND","ND","0.1","ND","ND","ND","ND","0","0"],
    [69175,"2018-03-28T02:00:00","52","ND","ND","ND","ND","0.2","ND","ND","ND","ND","0","0"],
    [69176,"2018-03-28T03:00:00","53.3","ND","ND","ND","ND","0.2","ND","ND","ND","ND","0","0"],
    [69177,"2018-03-28T04:00:00","50.4","ND","ND","ND","ND","0.2","ND","ND","ND","ND","0","0"],
    [69178,"2018-03-28T05:00:00","51.5","ND","ND","ND","ND","0.2","ND","ND","ND","ND","0","0"],
    [69179,"2018-03-28T06:00:00","41.3","ND","ND","ND","ND","0.1","ND","ND","ND","ND","0","0"],
    [69180,"2018-03-28T07:00:00","29.1","ND","ND","ND","ND","0.1","ND","ND","ND","ND","79","0"],
    [69181,"2018-03-28T08:00:00","42.2","ND","ND","ND","ND","0.1","ND","ND","ND","ND","195","0"],
    [69182,"2018-03-28T09:00:00","66.5","ND","ND","ND","ND","0.1","ND","ND","ND","ND","387","0"],
    [69183,"2018-03-28T10:00:00","67.1","ND","ND","ND","ND","0.1","ND","ND","ND","ND","658","0"],
    [69184,"2018-03-28T11:00:00","61.2","ND","ND","ND","ND","0.1","ND","ND","ND","ND","664","0"],
    [69185,"2018-03-28T12:00:00","59.6","ND","ND","ND","ND","0.0","ND","ND","ND","ND","664","0"],
    [69186,"2018-03-28T13:00:00","43.9","ND","ND","ND","ND","0.1","ND","ND","ND","ND","664","0"],
    [69187,"2018-03-28T14:00:00","44.7","ND","ND","ND","ND","0.1","ND","ND","ND","ND","664","0"],
    [69188,"2018-03-28T15:00:00","40.6","ND","ND","ND","ND","0.2","ND","ND","ND","ND","582","0"],
    [69189,"2018-03-28T16:00:00","51.1","ND","ND","ND","ND","0.0","ND","ND","ND","ND","379","0"],
    [69190,"2018-03-28T17:00:00","16.9","ND","ND","ND","ND","0.0","ND","ND","ND","ND","346","0"],
    [69191,"2018-03-28T18:00:00","7.5","ND","ND","ND","ND","0.0","ND","ND","ND","ND","127","0"],
    [69192,"2018-03-28T19:00:00","10","ND","ND","ND","ND","0.0","ND","ND","ND","ND","5","0"],
    [69193,"2018-03-28T20:00:00","25.5","ND","ND","ND","ND","0.0","ND","ND","ND","ND","0","0"],
    [69194,"2018-03-28T21:00:00","23.3","ND","ND","ND","ND","0.1","ND","ND","ND","ND","0","0"],
    [69195,"2018-03-28T22:00:00","32.5","ND","ND","ND","ND","0.1","ND","ND","ND","ND","0","0"],
    [69196,"2018-03-28T23:00:00","45.6","ND","ND","ND","ND","0.0","ND","ND","ND","ND","0","0"],
    [69197,"2018-03-29T00:00:00","44.5","ND","ND","ND","ND","0.1","ND","ND","ND","ND","0","0"],
    [69198,"2018-03-29T01:00:00","35.6","ND","ND","ND","ND","0.1","ND","ND","ND","ND","0","0"],
    [69199,"2018-03-29T02:00:00","49.9","ND","ND","ND","ND","0.0","ND","ND","ND","ND","0","0"],
    [69200,"2018-03-29T03:00:00","41.9","ND","ND","ND","ND","0.1","ND","ND","ND","ND","0","0"],
    [69201,"2018-03-29T04:00:00","46.6","ND","ND","ND","ND","0.2","ND","ND","ND","ND","0","0"],
    [69202,"2018-03-29T05:00:00","57.5","ND","ND","ND","ND","0.2","ND","ND","ND","ND","0","0"],
    [69203,"2018-03-29T06:00:00","61.8","ND","ND","ND","ND","0.1","ND","ND","ND","ND","0","0"],
    [69204,"2018-03-29T07:00:00","62.7","ND","ND","ND","ND","0.2","ND","ND","ND","ND","30","0"],
    [69205,"2018-03-29T08:00:00","52.3","ND","ND","ND","ND","0.1","ND","ND","ND","ND","285","0"],
    [69206,"2018-03-29T09:00:00","48.4","ND","ND","ND","ND","0.1","ND","ND","ND","ND","579","0"],
    [69207,"2018-03-29T10:00:00","41.3","ND","ND","ND","ND","0.1","ND","ND","ND","ND","662","0"],
    [69208,"2018-03-29T11:00:00","44.3","ND","ND","ND","ND","0.1","ND","ND","ND","ND","573","0"],
    [69209,"2018-03-29T12:00:00","39.4","ND","ND","ND","ND","0.1","ND","ND","ND","ND","573","0"],
    [69210,"2018-03-29T13:00:00","20.3","ND","ND","ND","ND","0.1","ND","ND","ND","ND","663","0"],
    [69211,"2018-03-29T14:00:00","14.1","ND","ND","ND","ND","0.1","ND","ND","ND","ND","663","0"],
    [69212,"2018-03-29T15:00:00","14.7","ND","ND","ND","ND","0.1","ND","ND","ND","ND","663","0"],
    [69213,"2018-03-29T16:00:00","20.1","ND","ND","ND","ND","0.1","ND","ND","ND","ND","510","0"],
    [69214,"2018-03-29T17:00:00","10.8","ND","ND","ND","ND","0.0","ND","ND","ND","ND","179","0"],
    [69215,"2018-03-29T18:00:00","4.4","ND","ND","ND","ND","0.1","ND","ND","ND","ND","55","0"],
    [69216,"2018-03-29T19:00:00","1.2","ND","ND","ND","ND","0.1","ND","ND","ND","ND","0","0"],
    [69217,"2018-03-29T20:00:00","15.9","ND","ND","ND","ND","0.1","ND","ND","ND","ND","0","0"],
    [69218,"2018-03-29T21:00:00","33.9","ND","ND","ND","ND","0.1","ND","ND","ND","ND","0","0.25"],
    [69219,"2018-03-29T22:00:00","44","ND","ND","ND","ND","0.0","ND","ND","ND","ND","0","0"],
    [69220,"2018-03-29T23:00:00","33.9","ND","ND","ND","ND","0.0","ND","ND","ND","ND","0","0"],
    [69221,"2018-03-30T00:00:00","17.5","ND","ND","ND","ND","0.1","ND","ND","ND","ND","0","0"],
    [69222,"2018-03-30T01:00:00","25.3","ND","ND","ND","ND","0.0","ND","ND","ND","ND","0","0"],
    [69223,"2018-03-30T02:00:00","18.1","ND","ND","ND","ND","0.0","ND","ND","ND","ND","0","0"],
    [69224,"2018-03-30T03:00:00","18.1","ND","ND","ND","ND","0.0","ND","ND","ND","ND","0","0"],
    [69225,"2018-03-30T04:00:00","40.3","ND","ND","ND","ND","0.0","ND","ND","ND","ND","0","0"],
    [69226,"2018-03-30T05:00:00","58.1","ND","ND","ND","ND","0.2","ND","ND","ND","ND","0","0"],
    [69227,"2018-03-30T06:00:00","62.4","ND","ND","ND","ND","0.7","ND","ND","ND","ND","0","0"],
    [69228,"2018-03-30T07:00:00","77.7","ND","ND","ND","ND","0.6","ND","ND","ND","ND","56","0"],
    [69229,"2018-03-30T08:00:00","73","ND","ND","ND","ND","0.5","ND","ND","ND","ND","249","0"],
    [69230,"2018-03-30T09:00:00","75.9","ND","ND","ND","ND","0.3","ND","ND","ND","ND","585","0"],
    [69231,"2018-03-30T10:00:00","47.1","ND","ND","ND","ND","0.1","ND","ND","ND","ND","663","0"],
    [69232,"2018-03-30T11:00:00","37.9","ND","ND","ND","ND","0.1","ND","ND","ND","ND","663","0"],
    [69233,"2018-03-30T12:00:00","29.2","ND","ND","ND","ND","0.2","ND","ND","ND","ND","642","0"],
    [69234,"2018-03-30T13:00:00","10.5","ND","ND","ND","ND","0.1","ND","ND","ND","ND","664","0"],
    [69235,"2018-03-30T14:00:00","3.1","ND","ND","ND","ND","0.2","ND","ND","ND","ND","664","0"],
    [69236,"2018-03-30T15:00:00","4.1","ND","ND","ND","ND","0.1","ND","ND","ND","ND","645","0"],
    [69237,"2018-03-30T16:00:00","32.3","ND","ND","ND","ND","0.1","ND","ND","ND","ND","235","0"],
    [69238,"2018-03-30T17:00:00","106.5","ND","ND","ND","ND","0.1","ND","ND","ND","ND","37","31.75"],
    [69239,"2018-03-30T18:00:00","11","ND","ND","ND","ND","0.0","ND","ND","ND","ND","13","0.51"],
    [69240,"2018-03-30T19:00:00","1.8","ND","ND","ND","ND","0.1","ND","ND","ND","ND","0","1.27"],
    [69241,"2018-03-30T20:00:00","37.2","ND","ND","ND","ND","0.1","ND","ND","ND","ND","0","2.79"],
    [69242,"2018-03-30T21:00:00","40.3","ND","ND","ND","ND","0.3","ND","ND","ND","ND","0","1.52"],
    [69243,"2018-03-30T22:00:00","26.4","ND","ND","ND","ND","0.1","ND","ND","ND","ND","0","2.79"],
    [69244,"2018-03-30T23:00:00","21.8","ND","ND","ND","ND","0.1","ND","ND","ND","ND","0","4.32"],
    [69245,"2018-03-31T00:00:00","15.7","ND","ND","ND","ND","0.0","ND","ND","ND","ND","0","3.56"],
    [69246,"2018-03-31T01:00:00","5","ND","ND","ND","ND","0.1","ND","ND","ND","ND","0","0.51"],
    [69247,"2018-03-31T02:00:00","ND","ND","ND","ND","ND","ND","ND","ND","ND","ND","ND","ND"],
    [69248,"2018-03-31T03:00:00","ND","ND","ND","ND","ND","ND","ND","ND","ND","ND","ND","ND"],
    [69249,"2018-03-31T04:00:00","ND","ND","ND","ND","ND","ND","ND","ND","ND","ND","ND","ND"],
    [69250,"2018-03-31T05:00:00","ND","ND","ND","ND","ND","ND","ND","ND","ND","ND","ND","ND"],
    [69251,"2018-03-31T06:00:00","ND","ND","ND","ND","ND","ND","ND","ND","ND","ND","ND","ND"],
    [69252,"2018-03-31T07:00:00","ND","ND","ND","ND","ND","ND","ND","ND","ND","ND","ND","ND"],
    [69253,"2018-03-31T08:00:00","ND","ND","ND","ND","ND","ND","ND","ND","ND","ND","ND","ND"],
    [69254,"2018-03-31T09:00:00","ND","ND","ND","ND","ND","ND","ND","ND","ND","ND","ND","ND"],
    [69255,"2018-03-31T10:00:00","ND","ND","ND","ND","ND","ND","ND","ND","ND","ND","ND","ND"],
    [69256,"2018-03-31T11:00:00","ND","ND","ND","ND","ND","ND","ND","ND","ND","ND","ND","ND"],
    [69257,"2018-03-31T12:00:00","ND","ND","ND","ND","ND","ND","ND","ND","ND","ND","ND","ND"],
    [69258,"2018-03-31T13:00:00","ND","ND","ND","ND","ND","ND","ND","ND","ND","ND","ND","ND"],
    [69259,"2018-03-31T14:00:00","ND","ND","ND","ND","ND","ND","ND","ND","ND","ND","ND","ND"],
    [69260,"2018-03-31T15:00:00","ND","ND","ND","ND","ND","ND","ND","ND","ND","ND","ND","ND"],
    [69261,"2018-03-31T16:00:00","ND","ND","ND","ND","ND","ND","ND","ND","ND","ND","ND","ND"],
    [69262,"2018-03-31T17:00:00","ND","ND","ND","ND","ND","ND","ND","ND","ND","ND","ND","ND"],
    [69263,"2018-03-31T18:00:00","ND","ND","ND","ND","ND","ND","ND","ND","ND","ND","ND","ND"],
    [69264,"2018-03-31T19:00:00","ND","ND","ND","ND","ND","ND","ND","ND","ND","ND","ND","ND"],
    [69265,"2018-03-31T20:00:00","ND","ND","ND","ND","ND","ND","ND","ND","ND","ND","ND","ND"],
    [69266,"2018-03-31T21:00:00","ND","ND","ND","ND","ND","ND","ND","ND","ND","ND","ND","ND"],
    [69267,"2018-03-31T22:00:00","ND","ND","ND","ND","ND","ND","ND","ND","ND","ND","ND","ND"],
    [69268,"2018-03-31T23:00:00","ND","ND","ND","ND","ND","ND","ND","ND","ND","ND","ND","ND"],
    [69269,"2018-04-01T00:00:00","ND","ND","ND","ND","ND","ND","ND","ND","ND","ND","ND","ND"],
    [69270,"2018-04-01T01:00:00","40.1","ND","ND","ND","6.1","0.2","ND","ND","ND","ND","0","0"],
    [69271,"2018-04-01T02:00:00","40.9","ND","ND","ND","5.8","0.3","ND","ND","ND","ND","0","0"],
    [69272,"2018-04-01T03:00:00","26.2","ND","ND","ND","5.9","0.2","ND","ND","ND","ND","0","0.25"],
    [69273,"2018-04-01T04:00:00","19.5","ND","ND","ND","5.7","0.2","ND","ND","ND","ND","0","0"],
    [69274,"2018-04-01T05:00:00","25.3","ND","ND","ND","5.6","0.1","ND","ND","ND","ND","0","0"],
    [69275,"2018-04-01T06:00:00","19.4","ND","ND","ND","5.5","0.1","ND","ND","ND","ND","0","0"],
    [69276,"2018-04-01T07:00:00","19.7","ND","ND","ND","5.5","0.0","ND","ND","ND","ND","80","0"],
    [69277,"2018-04-01T08:00:00","17.6","ND","ND","ND","5.8","0.0","ND","ND","ND","ND","200","0"],
    [69278,"2018-04-01T09:00:00","29.2","ND","ND","ND","5.8","0.1","ND","ND","ND","ND","522","0"],
    [69279,"2018-04-01T10:00:00","52.8","ND","ND","ND","6.6","0.1","ND","ND","ND","ND","663","0"],
    [69280,"2018-04-01T11:00:00","60.4","ND","ND","ND","7.6","0.1","ND","ND","ND","ND","663","0"],
    [69281,"2018-04-01T12:00:00","41","ND","ND","ND","7.6","0.1","ND","ND","ND","ND","663","0"],
    [69282,"2018-04-01T13:00:00","14.5","ND","ND","ND","8.0","0.1","ND","ND","ND","ND","663","0"],
    [69283,"2018-04-01T14:00:00","13.2","ND","ND","ND","8.4","0.1","ND","ND","ND","ND","664","0"],
    [69284,"2018-04-01T15:00:00","15.1","ND","ND","ND","8.6","0.2","ND","ND","ND","ND","664","0"],
    [69285,"2018-04-01T16:00:00","18.3","ND","ND","ND","7.8","0.1","ND","ND","ND","ND","656","0"],
    [69286,"2018-04-01T17:00:00","6.2","ND","ND","ND","7.5","0.1","ND","ND","ND","ND","481","0.25"],
    [69287,"2018-04-01T18:00:00","0.6","ND","ND","ND","7.2","0.3","ND","ND","ND","ND","133","0"],
    [69288,"2018-04-01T19:00:00","1.8","ND","ND","ND","6.7","0.1","ND","ND","ND","ND","0","0"],
    [69289,"2018-04-01T20:00:00","9.2","ND","ND","ND","6.4","0.1","ND","ND","ND","ND","0","0"],
    [69290,"2018-04-01T21:00:00","15.6","ND","ND","ND","6.2","0.1","ND","ND","ND","ND","0","0"],
    [69291,"2018-04-01T22:00:00","24.5","ND","ND","ND","6.8","0.1","ND","ND","ND","ND","0","0"],
    [69292,"2018-04-01T23:00:00","20.7","ND","ND","ND","6.5","0.1","ND","ND","ND","ND","0","0"],
    [69293,"2018-04-02T00:00:00","28.8","ND","ND","ND","6.2","0.1","ND","ND","ND","ND","0","0"],
    [69294,"2018-04-02T01:00:00","34.3","ND","ND","ND","6.0","0.1","ND","ND","ND","ND","0","0"],
    [69295,"2018-04-02T02:00:00","38.2","ND","ND","ND","6.1","0.1","ND","ND","ND","ND","0","0"],
    [69296,"2018-04-02T03:00:00","24.8","ND","ND","ND","6.2","0.1","ND","ND","ND","ND","0","0.25"],
    [69297,"2018-04-02T04:00:00","32.1","ND","ND","ND","6.0","0.2","ND","ND","ND","ND","0","0"],
    [69298,"2018-04-02T05:00:00","51.3","ND","ND","ND","6.1","0.2","ND","ND","ND","ND","0","0"],
    [69299,"2018-04-02T06:00:00","51.7","ND","ND","ND","6.4","0.1","ND","ND","ND","ND","0","6.1"],
    [69300,"2018-04-02T07:00:00","26.5","ND","ND","ND","6.1","0.1","ND","ND","ND","ND","0","10.16"],
    [69301,"2018-04-02T08:00:00","1.8","ND","ND","ND","5.9","0.1","ND","ND","ND","ND","65","5.08"],
    [69302,"2018-04-02T09:00:00","0.7","ND","ND","ND","6.0","0.1","ND","ND","ND","ND","377","0.76"],
    [69303,"2018-04-02T10:00:00","6.6","ND","ND","ND","6.2","0.1","ND","ND","ND","ND","648","0"],
    [69304,"2018-04-02T11:00:00","56.4","ND","ND","ND","ND","0.2","ND","ND","ND","ND","664","3.81"],
    [69305,"2018-04-02T12:00:00","58.4","ND","ND","ND","ND","2.3","ND","ND","ND","ND","666","0"],
    [69306,"2018-04-02T13:00:00","45","ND","ND","ND","ND","11.6","ND","ND","ND","ND","664","0"],
    [69307,"2018-04-02T14:00:00","32.2","ND","ND","ND","31.3","0.6","ND","ND","ND","ND","667","0"],
    [69308,"2018-04-02T15:00:00","20.4","ND","ND","ND","20.9","0.2","ND","ND","ND","ND","617","0"],
    [69309,"2018-04-02T16:00:00","26.8","ND","ND","ND","18.1","0.1","ND","ND","ND","ND","474","0"],
    [69310,"2018-04-02T17:00:00","4","ND","ND","ND","13.9","0.2","ND","ND","ND","ND","218","0"],
    [69311,"2018-04-02T18:00:00","ND","ND","ND","ND","6.9","1.1","ND","ND","ND","ND","37","2.03"],
    [69312,"2018-04-02T19:00:00","ND","ND","ND","ND","3.8","4.1","ND","ND","ND","ND","0","0.51"],
    [69313,"2018-04-02T20:00:00","23.6","ND","ND","ND","4.0","0.2","ND","ND","ND","ND","0","0.25"],
    [69314,"2018-04-02T21:00:00","41.9","ND","ND","ND","3.7","0.3","ND","ND","ND","ND","0","0"],
    [69315,"2018-04-02T22:00:00","22.3","ND","ND","ND","3.8","0.0","ND","ND","ND","ND","0","0"],
    [69316,"2018-04-02T23:00:00","32.8","ND","ND","ND","3.9","0.1","ND","ND","ND","ND","0","0"],
    [69317,"2018-04-03T00:00:00","38.8","ND","ND","ND","3.8","0.1","ND","ND","ND","ND","0","0"],
    [69318,"2018-04-03T01:00:00","37","ND","ND","ND","3.9","0.1","ND","ND","ND","ND","0","0"],
    [69319,"2018-04-03T02:00:00","12.6","ND","ND","ND","3.9","0.0","ND","ND","ND","ND","0","0"],
    [69320,"2018-04-03T03:00:00","5.4","ND","ND","ND","4.3","0.2","ND","ND","ND","ND","0","0.25"],
    [69321,"2018-04-03T04:00:00","12.8","ND","ND","ND","3.9","0.1","ND","ND","ND","ND","0","0.25"],
    [69322,"2018-04-03T05:00:00","26.2","ND","ND","ND","3.9","0.1","ND","ND","ND","ND","0","0"],
    [69323,"2018-04-03T06:00:00","34.8","ND","ND","ND","6.2","0.1","ND","ND","ND","ND","0","0"],
    [69324,"2018-04-03T07:00:00","39.1","ND","ND","ND","4.0","0.0","ND","ND","ND","ND","73","0"],
    [69325,"2018-04-03T08:00:00","44.1","ND","ND","ND","6.1","0.2","ND","ND","ND","ND","243","0.25"],
    [69326,"2018-04-03T09:00:00","65.3","ND","ND","ND","5.6","0.1","ND","ND","ND","ND","593","0"],
    [69327,"2018-04-03T10:00:00","82.1","ND","ND","ND","15.4","0.1","ND","ND","ND","ND","663","0"],
    [69328,"2018-04-03T11:00:00","68.6","ND","ND","ND","25.5","0.0","ND","ND","ND","ND","627","0"],
    [69329,"2018-04-03T12:00:00","50.2","ND","ND","ND","51.2","0.1","ND","ND","ND","ND","665","0"],
    [69330,"2018-04-03T13:00:00","45.7","ND","ND","ND","67.6","0.1","ND","ND","ND","ND","665","0"],
    [69331,"2018-04-03T14:00:00","36.4","ND","ND","ND","74.3","0.1","ND","ND","ND","ND","665","0"],
    [69332,"2018-04-03T15:00:00","47.9","ND","ND","ND","48.1","0.1","ND","ND","ND","ND","665","0"],
    [69333,"2018-04-03T16:00:00","38.2","ND","ND","ND","23.5","0.1","ND","ND","ND","ND","291","0"],
    [69334,"2018-04-03T17:00:00","101.3","ND","ND","ND","11.7","0.1","ND","ND","ND","ND","59","2.79"],
    [69335,"2018-04-03T18:00:00","7.6","ND","ND","ND","5.5","0.1","ND","ND","ND","ND","20","1.52"],
    [69336,"2018-04-03T19:00:00","0.7","ND","ND","ND","4.0","0.0","ND","ND","ND","ND","0","2.79"],
    [69337,"2018-04-03T20:00:00","19.5","ND","ND","ND","4.0","0.1","ND","ND","ND","ND","0","0.25"],
    [69338,"2018-04-03T21:00:00","37.5","ND","ND","ND","3.9","0.2","ND","ND","ND","ND","0","0"],
    [69339,"2018-04-03T22:00:00","37.3","ND","ND","ND","3.9","0.0","ND","ND","ND","ND","0","0"],
    [69340,"2018-04-03T23:00:00","32.5","ND","ND","ND","3.8","0.1","ND","ND","ND","ND","0","0.25"],
    [69341,"2018-04-04T00:00:00","30.3","ND","ND","ND","3.8","0.0","ND","ND","ND","ND","0","0.25"],
    [69342,"2018-04-04T01:00:00","27.4","ND","ND","ND","3.9","0.0","ND","ND","ND","ND","0","0.25"],
    [69343,"2018-04-04T02:00:00","25.5","ND","ND","ND","3.9","0.1","ND","ND","ND","ND","0","0"],
    [69344,"2018-04-04T03:00:00","31.7","ND","ND","ND","4.0","0.1","ND","ND","ND","ND","0","0.25"],
    [69345,"2018-04-04T04:00:00","32.7","ND","ND","ND","3.9","0.1","ND","ND","ND","ND","0","7.87"],
    [69346,"2018-04-04T05:00:00","23.2","ND","ND","ND","3.9","0.2","ND","ND","ND","ND","0","7.37"],
    [69347,"2018-04-04T06:00:00","6.6","ND","ND","ND","3.9","0.0","ND","ND","ND","ND","0","2.54"],
    [69348,"2018-04-04T07:00:00","0.5","ND","ND","ND","4.0","0.0","ND","ND","ND","ND","15","4.32"],
    [69349,"2018-04-04T08:00:00","11.5","ND","ND","ND","3.9","0.1","ND","ND","ND","ND","110","1.27"],
    [69350,"2018-04-04T09:00:00","12.4","ND","ND","ND","3.9","0.1","ND","ND","ND","ND","328","0"],
    [69351,"2018-04-04T10:00:00","39.5","ND","ND","ND","4.1","0.1","ND","ND","ND","ND","260","0.51"],
    [69352,"2018-04-04T11:00:00","53.1","ND","ND","ND","4.5","0.3","ND","ND","ND","ND","248","2.79"],
    [69353,"2018-04-04T12:00:00","35.5","ND","ND","ND","7.6","0.2","ND","ND","ND","ND","553","1.02"],
    [69354,"2018-04-04T13:00:00","32.4","ND","ND","ND","14.8","0.3","ND","ND","ND","ND","664","0"],
    [69355,"2018-04-04T14:00:00","48.2","ND","ND","ND","30.9","0.2","ND","ND","ND","ND","664","0"],
    [69356,"2018-04-04T15:00:00","48.6","ND","ND","ND","23.3","0.2","ND","ND","ND","ND","513","0"],
    [69357,"2018-04-04T16:00:00","18.2","ND","ND","ND","16.7","0.1","ND","ND","ND","ND","207","0.25"],
    [69358,"2018-04-04T17:00:00","0.8","ND","ND","ND","13.5","0.1","ND","ND","ND","ND","190","0.25"],
    [69359,"2018-04-04T18:00:00","24.2","ND","ND","ND","8.7","0.1","ND","ND","ND","ND","88","0"],
    [69360,"2018-04-04T19:00:00","35.5","ND","ND","ND","4.7","0.1","ND","ND","ND","ND","0","0"],
    [69361,"2018-04-04T20:00:00","50.1","ND","ND","ND","5.8","0.1","ND","ND","ND","ND","0","0"],
    [69362,"2018-04-04T21:00:00","66.9","ND","ND","ND","4.1","0.1","ND","ND","ND","ND","0","0"],
    [69363,"2018-04-04T22:00:00","60.4","ND","ND","ND","4.2","0.2","ND","ND","ND","ND","0","0"],
    [69364,"2018-04-04T23:00:00","57.4","ND","ND","ND","4.0","0.2","ND","ND","ND","ND","0","0"],
    [69365,"2018-04-05T00:00:00","58.3","ND","ND","ND","4.1","0.1","ND","ND","ND","ND","0","0"],
    [69366,"2018-04-05T01:00:00","36.8","ND","ND","ND","4.1","0.2","ND","ND","ND","ND","0","0"],
    [69367,"2018-04-05T02:00:00","42.7","ND","ND","ND","4.1","0.4","ND","ND","ND","ND","0","0"],
    [69368,"2018-04-05T03:00:00","43","ND","ND","ND","4.2","0.5","ND","ND","ND","ND","0","0"],
    [69369,"2018-04-05T04:00:00","24.6","ND","ND","ND","4.0","0.1","ND","ND","ND","ND","0","0"],
    [69370,"2018-04-05T05:00:00","15.4","ND","ND","ND","3.9","0.1","ND","ND","ND","ND","0","0"],
    [69371,"2018-04-05T06:00:00","27.2","ND","ND","ND","4.2","0.1","ND","ND","ND","ND","0","0"],
    [69372,"2018-04-05T07:00:00","50.1","ND","ND","ND","4.0","0.2","ND","ND","ND","ND","18","0"],
    [69373,"2018-04-05T08:00:00","56.7","ND","ND","ND","4.2","0.1","ND","ND","ND","ND","144","0"],
    [69374,"2018-04-05T09:00:00","91.6","ND","ND","ND","4.4","0.4","ND","ND","ND","ND","396","0"],
    [69375,"2018-04-05T10:00:00","114","ND","ND","ND","6.2","0.5","ND","ND","ND","ND","664","0"],
    [69376,"2018-04-05T11:00:00","116.9","ND","ND","ND","22.9","0.4","ND","ND","ND","ND","664","0"],
    [69377,"2018-04-05T12:00:00","94.2","ND","ND","ND","54.4","0.1","ND","ND","ND","ND","664","0"],
    [69378,"2018-04-05T13:00:00","40.5","ND","ND","ND","48.4","0.1","ND","ND","ND","ND","665","0"],
    [69379,"2018-04-05T14:00:00","32.5","ND","ND","ND","53.7","0.1","ND","ND","ND","ND","623","0"],
    [69380,"2018-04-05T15:00:00","36.8","ND","ND","ND","40.0","0.1","ND","ND","ND","ND","579","0"],
    [69381,"2018-04-05T16:00:00","35.2","ND","ND","ND","16.4","0.0","ND","ND","ND","ND","520","0"],
    [69382,"2018-04-05T17:00:00","8.4","ND","ND","ND","18.7","0.1","ND","ND","ND","ND","628","0.25"],
    [69383,"2018-04-05T18:00:00","8.5","ND","ND","ND","17.3","0.0","ND","ND","ND","ND","159","0.25"],
    [69384,"2018-04-05T19:00:00","2.6","ND","ND","ND","16.8","0.1","ND","ND","ND","ND","2","0"],
    [69385,"2018-04-05T20:00:00","7.8","ND","ND","ND","11.3","0.1","ND","ND","ND","ND","0","0"],
    [69386,"2018-04-05T21:00:00","3.8","ND","ND","ND","19.5","0.1","ND","ND","ND","ND","0","0"],
    [69387,"2018-04-05T22:00:00","ND","ND","ND","ND","21.0","0.1","ND","ND","ND","ND","0","0"],
    [69388,"2018-04-05T23:00:00","24.5","ND","ND","ND","9.6","0.1","ND","ND","ND","ND","0","0"],
    [69389,"2018-04-06T00:00:00","4.5","ND","ND","ND","11.8","0.1","ND","ND","ND","ND","0","0"],
    [69390,"2018-04-06T01:00:00","15.6","ND","ND","ND","11.5","0.1","ND","ND","ND","ND","0","0"],
    [69391,"2018-04-06T02:00:00","15.2","ND","ND","ND","9.9","0.1","ND","ND","ND","ND","0","0"],
    [69392,"2018-04-06T03:00:00","18.4","ND","ND","ND","9.8","0.1","ND","ND","ND","ND","0","0"],
    [69393,"2018-04-06T04:00:00","8.1","ND","ND","ND","10.8","0.1","ND","ND","ND","ND","0","1.78"],
    [69394,"2018-04-06T05:00:00","ND","ND","ND","ND","9.4","0.0","ND","ND","ND","ND","0","0.25"],
    [69395,"2018-04-06T06:00:00","ND","ND","ND","ND","6.2","0.1","ND","ND","ND","ND","0","0.51"],
    [69396,"2018-04-06T07:00:00","4.6","ND","ND","ND","4.3","0.0","ND","ND","ND","ND","16","0.25"],
    [69397,"2018-04-06T08:00:00","11.7","ND","ND","ND","4.4","0.1","ND","ND","ND","ND","171","0"],
    [69398,"2018-04-06T09:00:00","19.3","ND","ND","ND","9.8","0.1","ND","ND","ND","ND","590","0"],
    [69399,"2018-04-06T10:00:00","40.4","ND","ND","ND","21.6","0.1","ND","ND","ND","ND","643","0"],
    [69400,"2018-04-06T11:00:00","53.5","ND","ND","ND","41.5","0.1","ND","ND","ND","ND","664","0"],
    [69401,"2018-04-06T12:00:00","53.7","ND","ND","ND","87.7","0.1","ND","ND","ND","ND","664","0"],
    [69402,"2018-04-06T13:00:00","50.6","ND","ND","ND","77.1","0.1","ND","ND","ND","ND","665","0"],
    [69403,"2018-04-06T14:00:00","29.4","ND","ND","ND","58.3","0.2","ND","ND","ND","ND","665","0"],
    [69404,"2018-04-06T15:00:00","27.8","ND","ND","ND","50.0","0.1","ND","ND","ND","ND","579","0"],
    [69405,"2018-04-06T16:00:00","26.1","ND","ND","ND","23.0","0.0","ND","ND","ND","ND","378","0"],
    [69406,"2018-04-06T17:00:00","2.8","ND","ND","ND","18.4","0.0","ND","ND","ND","ND","251","0"],
    [69407,"2018-04-06T18:00:00","10.1","ND","ND","ND","11.1","0.1","ND","ND","ND","ND","103","0"],
    [69408,"2018-04-06T19:00:00","30.5","ND","ND","ND","11.2","0.2","ND","ND","ND","ND","4","0"],
    [69409,"2018-04-06T20:00:00","17.2","ND","ND","ND","7.0","0.1","ND","ND","ND","ND","0","0"],
    [69410,"2018-04-06T21:00:00","8.3","ND","ND","ND","5.5","0.2","ND","ND","ND","ND","0","0"],
    [69411,"2018-04-06T22:00:00","36.6","ND","ND","ND","7.2","0.4","ND","ND","ND","ND","0","0"],
    [69412,"2018-04-06T23:00:00","33.6","ND","ND","ND","4.2","0.2","ND","ND","ND","ND","0","0"],
    [69413,"2018-04-07T00:00:00","32.4","ND","ND","ND","4.2","0.1","ND","ND","ND","ND","0","0"],
    [69414,"2018-04-07T01:00:00","31.5","ND","ND","ND","4.3","0.1","ND","ND","ND","ND","0","0"],
    [69415,"2018-04-07T02:00:00","39.6","ND","ND","ND","4.2","0.2","ND","ND","ND","ND","0","0"],
    [69416,"2018-04-07T03:00:00","36.2","ND","ND","ND","4.3","0.2","ND","ND","ND","ND","0","0"],
    [69417,"2018-04-07T04:00:00","32.5","ND","ND","ND","4.2","0.0","ND","ND","ND","ND","0","0"],
    [69418,"2018-04-07T05:00:00","40.7","ND","ND","ND","4.1","0.2","ND","ND","ND","ND","0","0"],
    [69419,"2018-04-07T06:00:00","19.3","ND","ND","ND","4.3","0.1","ND","ND","ND","ND","0","0"],
    [69420,"2018-04-07T07:00:00","61.3","ND","ND","ND","4.4","0.9","ND","ND","ND","ND","92","0"],
    [69421,"2018-04-07T08:00:00","101.5","ND","ND","ND","6.6","0.8","ND","ND","ND","ND","553","0"],
    [69422,"2018-04-07T09:00:00","149.2","ND","ND","ND","10.0","1.0","ND","ND","ND","ND","663","0"],
    [69423,"2018-04-07T10:00:00","108.9","ND","ND","ND","20.8","0.2","ND","ND","ND","ND","664","0"],
    [69424,"2018-04-07T11:00:00","75.8","ND","ND","ND","56.4","0.1","ND","ND","ND","ND","664","0"],
    [69425,"2018-04-07T12:00:00","66.3","ND","ND","ND","87.7","0.1","ND","ND","ND","ND","664","0"],
    [69426,"2018-04-07T13:00:00","69.6","ND","ND","ND","102.7","0.2","ND","ND","ND","ND","665","0"],
    [69427,"2018-04-07T14:00:00","57.6","ND","ND","ND","100.0","0.1","ND","ND","ND","ND","664","0"],
    [69428,"2018-04-07T15:00:00","53.1","ND","ND","ND","83.1","0.1","ND","ND","ND","ND","601","0"],
    [69429,"2018-04-07T16:00:00","30.9","ND","ND","ND","36.3","0.1","ND","ND","ND","ND","659","0"],
    [69430,"2018-04-07T17:00:00","15.1","ND","ND","ND","20.2","0.1","ND","ND","ND","ND","569","0"],
    [69431,"2018-04-07T18:00:00","25","ND","ND","ND","16.6","0.1","ND","ND","ND","ND","273","0"],
    [69432,"2018-04-07T19:00:00","6.2","ND","ND","ND","16.6","0.0","ND","ND","ND","ND","9","0"],
    [69433,"2018-04-07T20:00:00","0.9","ND","ND","ND","6.7","0.0","ND","ND","ND","ND","0","0"],
    [69434,"2018-04-07T21:00:00","24.7","ND","ND","ND","4.8","0.3","ND","ND","ND","ND","0","0"],
    [69435,"2018-04-07T22:00:00","9.2","ND","ND","ND","4.6","0.1","ND","ND","ND","ND","0","0"],
    [69436,"2018-04-07T23:00:00","18.3","ND","ND","ND","4.5","0.3","ND","ND","ND","ND","0","0"],
    [69437,"2018-04-08T00:00:00","32.2","ND","ND","ND","4.2","0.2","ND","ND","ND","ND","0","0"],
    [69438,"2018-04-08T01:00:00","34.1","ND","ND","ND","4.2","0.3","ND","ND","ND","ND","0","0"],
    [69439,"2018-04-08T02:00:00","27.6","ND","ND","ND","4.2","0.1","ND","ND","ND","ND","0","0"],
    [69440,"2018-04-08T03:00:00","18","ND","ND","ND","4.3","0.1","ND","ND","ND","ND","0","0"],
    [69441,"2018-04-08T04:00:00","28.3","ND","ND","ND","4.3","0.8","ND","ND","ND","ND","0","0"],
    [69442,"2018-04-08T05:00:00","34","ND","ND","ND","4.4","0.2","ND","ND","ND","ND","0","0"],
    [69443,"2018-04-08T06:00:00","34.1","ND","ND","ND","4.4","0.0","ND","ND","ND","ND","0","0"],
    [69444,"2018-04-08T07:00:00","37","ND","ND","ND","4.5","0.2","ND","ND","ND","ND","66","0"],
    [69445,"2018-04-08T08:00:00","53.3","ND","ND","ND","7.7","0.1","ND","ND","ND","ND","578","0"],
    [69446,"2018-04-08T09:00:00","65.5","ND","ND","ND","17.3","0.1","ND","ND","ND","ND","663","0"],
    [69447,"2018-04-08T10:00:00","45.6","ND","ND","ND","25.8","0.1","ND","ND","ND","ND","664","0"],
    [69448,"2018-04-08T11:00:00","46","ND","ND","ND","48.3","0.1","ND","ND","ND","ND","664","0"],
    [69449,"2018-04-08T12:00:00","59.3","ND","ND","ND","67.0","0.1","ND","ND","ND","ND","664","0"],
    [69450,"2018-04-08T13:00:00","59.7","ND","ND","ND","71.1","0.1","ND","ND","ND","ND","662","0"],
    [69451,"2018-04-08T14:00:00","54.3","ND","ND","ND","81.8","0.2","ND","ND","ND","ND","651","0"],
    [69452,"2018-04-08T15:00:00","45.4","ND","ND","ND","67.7","0.1","ND","ND","ND","ND","586","0"],
    [69453,"2018-04-08T16:00:00","18.4","ND","ND","ND","26.1","0.1","ND","ND","ND","ND","665","0"],
    [69454,"2018-04-08T17:00:00","12.8","ND","ND","ND","23.8","0.1","ND","ND","ND","ND","653","0"],
    [69455,"2018-04-08T18:00:00","11","ND","ND","ND","24.8","0.1","ND","ND","ND","ND","254","0"],
    [69456,"2018-04-08T19:00:00","10.1","ND","ND","ND","11.8","0.1","ND","ND","ND","ND","7","0"],
    [69457,"2018-04-08T20:00:00","10.7","ND","ND","ND","5.3","0.0","ND","ND","ND","ND","0","0"],
    [69458,"2018-04-08T21:00:00","11.8","ND","ND","ND","5.6","0.1","ND","ND","ND","ND","0","0"],
    [69459,"2018-04-08T22:00:00","23.9","ND","ND","ND","4.8","0.2","ND","ND","ND","ND","0","0"],
    [69460,"2018-04-08T23:00:00","21.7","ND","ND","ND","4.3","0.1","ND","ND","ND","ND","0","0"],
    [69461,"2018-04-09T00:00:00","34","ND","ND","ND","4.2","0.2","ND","ND","ND","ND","0","0"],
    [69462,"2018-04-09T01:00:00","24.8","ND","ND","ND","4.3","0.2","ND","ND","ND","ND","0","0"],
    [69463,"2018-04-09T02:00:00","30.1","ND","ND","ND","4.3","0.2","ND","ND","ND","ND","0","0"],
    [69464,"2018-04-09T03:00:00","26.4","ND","ND","ND","4.5","0.0","ND","ND","ND","ND","0","0"],
    [69465,"2018-04-09T04:00:00","14","ND","ND","ND","5.9","0.1","ND","ND","ND","ND","0","0"],
    [69466,"2018-04-09T05:00:00","32.5","ND","ND","ND","4.6","0.6","ND","ND","ND","ND","0","0"],
    [69467,"2018-04-09T06:00:00","55.4","ND","ND","ND","4.5","1.3","ND","ND","ND","ND","0","0"],
    [69468,"2018-04-09T07:00:00","59.8","ND","ND","ND","4.6","0.6","ND","ND","ND","ND","116","0"],
    [69469,"2018-04-09T08:00:00","64.9","ND","ND","ND","5.8","0.2","ND","ND","ND","ND","473","0"],
    [69470,"2018-04-09T09:00:00","78.3","ND","ND","ND","15.5","0.0","ND","ND","ND","ND","642","0"],
    [69471,"2018-04-09T10:00:00","72.9","ND","ND","ND","36.7","0.1","ND","ND","ND","ND","664","0"],
    [69472,"2018-04-09T11:00:00","91.6","ND","ND","ND","123.8","0.2","ND","ND","ND","ND","665","0"],
    [69473,"2018-04-09T12:00:00","88","ND","ND","ND","ND","3.4","ND","ND","ND","ND","666","0.25"],
    [69474,"2018-04-09T13:00:00","65.9","ND","ND","ND","77.1","6.9","ND","ND","ND","ND","666","0"],
    [69475,"2018-04-09T14:00:00","55.1","ND","ND","ND","50.6","0.2","ND","ND","ND","ND","642","0"],
    [69476,"2018-04-09T15:00:00","15.4","ND","ND","ND","23.6","0.1","ND","ND","ND","ND","666","0"],
    [69477,"2018-04-09T16:00:00","15.4","ND","ND","ND","23.4","0.1","ND","ND","ND","ND","476","0"],
    [69478,"2018-04-09T17:00:00","42.2","ND","ND","ND","28.6","0.2","ND","ND","ND","ND","38","7.37"],
    [69479,"2018-04-09T18:00:00","32.9","ND","ND","ND","16.3","0.2","ND","ND","ND","ND","29","1.27"],
    [69480,"2018-04-09T19:00:00","ND","ND","ND","ND","9.9","0.1","ND","ND","ND","ND","1","0.25"],
    [69481,"2018-04-09T20:00:00","ND","ND","ND","ND","11.6","0.1","ND","ND","ND","ND","0","3.3"],
    [69482,"2018-04-09T21:00:00","4.9","ND","ND","ND","7.8","0.1","ND","ND","ND","ND","0","0.76"],
    [69483,"2018-04-09T22:00:00","17.9","ND","ND","ND","9.5","0.1","ND","ND","ND","ND","0","0"],
    [69484,"2018-04-09T23:00:00","19","ND","ND","ND","7.9","0.2","ND","ND","ND","ND","0","0"],
    [69485,"2018-04-10T00:00:00","30","ND","ND","ND","4.4","0.1","ND","ND","ND","ND","0","0"],
    [69486,"2018-04-10T01:00:00","34.6","ND","ND","ND","4.1","0.2","ND","ND","ND","ND","0","0"],
    [69487,"2018-04-10T02:00:00","28","ND","ND","ND","4.7","0.1","ND","ND","ND","ND","0","0"],
    [69488,"2018-04-10T03:00:00","36.9","ND","ND","ND","4.5","0.2","ND","ND","ND","ND","0","0"],
    [69489,"2018-04-10T04:00:00","48.6","ND","ND","ND","4.3","0.1","ND","ND","ND","ND","0","0"],
    [69490,"2018-04-10T05:00:00","49.2","ND","ND","ND","4.3","0.2","ND","ND","ND","ND","0","0"],
    [69491,"2018-04-10T06:00:00","57","ND","ND","ND","4.2","0.2","ND","ND","ND","ND","0","0.51"],
    [69492,"2018-04-10T07:00:00","50","ND","ND","ND","4.3","0.2","ND","ND","ND","ND","33","0.76"],
    [69493,"2018-04-10T08:00:00","33.1","ND","ND","ND","4.1","0.1","ND","ND","ND","ND","234","0.51"],
    [69494,"2018-04-10T09:00:00","33.5","ND","ND","ND","4.7","0.1","ND","ND","ND","ND","511","0.25"],
    [69495,"2018-04-10T10:00:00","87.2","ND","ND","ND","15.8","0.1","ND","ND","ND","ND","665","0"],
    [69496,"2018-04-10T11:00:00","82.9","ND","ND","ND","42.4","0.2","ND","ND","ND","ND","665","0"],
    [69497,"2018-04-10T12:00:00","69.7","ND","ND","ND","67.4","0.2","ND","ND","ND","ND","666","0"],
    [69498,"2018-04-10T13:00:00","70.6","ND","ND","ND","85.8","0.2","ND","ND","ND","ND","510","0"],
    [69499,"2018-04-10T14:00:00","58.2","ND","ND","ND","33.5","0.1","ND","ND","ND","ND","310","0"],
    [69500,"2018-04-10T15:00:00","32","ND","ND","ND","24.4","0.2","ND","ND","ND","ND","561","0"],
    [69501,"2018-04-10T16:00:00","13.9","ND","ND","ND","33.6","0.1","ND","ND","ND","ND","665","0"],
    [69502,"2018-04-10T17:00:00","21.5","ND","ND","ND","28.1","0.1","ND","ND","ND","ND","471","0"],
    [69503,"2018-04-10T18:00:00","28.7","ND","ND","ND","13.6","0.2","ND","ND","ND","ND","127","0"],
    [69504,"2018-04-10T19:00:00","25","ND","ND","ND","11.8","0.1","ND","ND","ND","ND","4","0"],
    [69505,"2018-04-10T20:00:00","34.3","ND","ND","ND","5.1","0.1","ND","ND","ND","ND","0","0"],
    [69506,"2018-04-10T21:00:00","26.5","ND","ND","ND","8.7","0.1","ND","ND","ND","ND","0","0"],
    [69507,"2018-04-10T22:00:00","43.7","ND","ND","ND","5.0","0.3","ND","ND","ND","ND","0","0"],
    [69508,"2018-04-10T23:00:00","78.7","ND","ND","ND","9.8","0.3","ND","ND","ND","ND","0","0"],
    [69509,"2018-04-11T00:00:00","67.5","ND","ND","ND","10.8","0.2","ND","ND","ND","ND","0","0"],
    [69510,"2018-04-11T01:00:00","45.5","ND","ND","ND","14.7","0.2","ND","ND","ND","ND","0","0"],
    [69511,"2018-04-11T02:00:00","48","ND","ND","ND","15.1","0.5","ND","ND","ND","ND","0","0"],
    [69512,"2018-04-11T03:00:00","47.4","ND","ND","ND","11.8","0.9","ND","ND","ND","ND","0","0"],
    [69513,"2018-04-11T04:00:00","53","ND","ND","ND","8.7","1.0","ND","ND","ND","ND","0","0"],
    [69514,"2018-04-11T05:00:00","55.1","ND","ND","ND","5.6","0.5","ND","ND","ND","ND","0","0"],
    [69515,"2018-04-11T06:00:00","53","ND","ND","ND","6.7","0.2","ND","ND","ND","ND","0","32.51"],
    [69516,"2018-04-11T07:00:00","54.1","ND","ND","ND","5.0","0.1","ND","ND","ND","ND","14","30.99"],
    [69517,"2018-04-11T08:00:00","39.5","ND","ND","ND","4.3","0.0","ND","ND","ND","ND","171","1.27"],
    [69518,"2018-04-11T09:00:00","12.4","ND","ND","ND","4.8","0.2","ND","ND","ND","ND","507","0.25"],
    [69519,"2018-04-11T10:00:00","2.2","ND","ND","ND","9.9","1.1","ND","ND","ND","ND","665","0"],
    [69520,"2018-04-11T11:00:00","48","ND","ND","ND","28.4","0.7","ND","ND","ND","ND","665","0"],
    [69521,"2018-04-11T12:00:00","58.9","ND","ND","ND","56.2","0.1","ND","ND","ND","ND","666","0"],
    [69522,"2018-04-11T13:00:00","37.3","ND","ND","ND","61.3","0.2","ND","ND","ND","ND","666","0"],
    [69523,"2018-04-11T14:00:00","34","ND","ND","ND","66.6","0.2","ND","ND","ND","ND","666","0"],
    [69524,"2018-04-11T15:00:00","32.3","ND","ND","ND","58.1","0.1","ND","ND","ND","ND","643","0"],
    [69525,"2018-04-11T16:00:00","23.4","ND","ND","ND","39.9","0.3","ND","ND","ND","ND","666","0"],
    [69526,"2018-04-11T17:00:00","2.2","ND","ND","ND","29.3","0.1","ND","ND","ND","ND","654","0"],
    [69527,"2018-04-11T18:00:00","20.1","ND","ND","ND","20.9","0.1","ND","ND","ND","ND","215","8.89"],
    [69528,"2018-04-11T19:00:00","70.1","ND","ND","ND","12.2","0.0","ND","ND","ND","ND","0","10.41"],
    [69529,"2018-04-11T20:00:00","ND","ND","ND","ND","5.0","0.1","ND","ND","ND","ND","0","1.02"],
    [69530,"2018-04-11T21:00:00","ND","ND","ND","ND","4.5","0.2","ND","ND","ND","ND","0","0.76"],
    [69531,"2018-04-11T22:00:00","7.6","ND","ND","ND","4.2","0.2","ND","ND","ND","ND","0","0"],
    [69532,"2018-04-11T23:00:00","19.7","ND","ND","ND","4.1","0.2","ND","ND","ND","ND","0","0.25"],
    [69533,"2018-04-12T00:00:00","29.4","ND","ND","ND","4.0","0.0","ND","ND","ND","ND","0","0"],
    [69534,"2018-04-12T01:00:00","37.8","ND","ND","ND","4.0","0.1","ND","ND","ND","ND","0","0"],
    [69535,"2018-04-12T02:00:00","32.1","ND","ND","ND","4.0","0.1","ND","ND","ND","ND","0","0"],
    [69536,"2018-04-12T03:00:00","26.8","ND","ND","ND","4.1","0.0","ND","ND","ND","ND","0","0"],
    [69537,"2018-04-12T04:00:00","23.6","ND","ND","ND","4.1","0.1","ND","ND","ND","ND","0","0"],
    [69538,"2018-04-12T05:00:00","38.5","ND","ND","ND","4.1","0.2","ND","ND","ND","ND","0","0"],
    [69539,"2018-04-12T06:00:00","51.3","ND","ND","ND","4.3","0.4","ND","ND","ND","ND","0","0"],
    [69540,"2018-04-12T07:00:00","57.5","ND","ND","ND","4.0","0.2","ND","ND","ND","ND","9","0"],
    [69541,"2018-04-12T08:00:00","50.4","ND","ND","ND","4.0","0.1","ND","ND","ND","ND","59","3.56"],
    [69542,"2018-04-12T09:00:00","10.3","ND","ND","ND","4.4","0.1","ND","ND","ND","ND","193","0.25"],
    [69543,"2018-04-12T10:00:00","1.3","ND","ND","ND","7.4","0.1","ND","ND","ND","ND","367","0.25"],
    [69544,"2018-04-12T11:00:00","22.8","ND","ND","ND","11.3","0.1","ND","ND","ND","ND","647","0"],
    [69545,"2018-04-12T12:00:00","49.3","ND","ND","ND","35.4","0.1","ND","ND","ND","ND","664","0"],
    [69546,"2018-04-12T13:00:00","58.7","ND","ND","ND","69.9","0.1","ND","ND","ND","ND","664","0"],
    [69547,"2018-04-12T14:00:00","49.6","ND","ND","ND","87.0","0.1","ND","ND","ND","ND","664","0"],
    [69548,"2018-04-12T15:00:00","45.4","ND","ND","ND","113.1","0.1","ND","ND","ND","ND","665","0"],
    [69549,"2018-04-12T16:00:00","52.1","ND","ND","ND","99.9","0.1","ND","ND","ND","ND","640","0"],
    [69550,"2018-04-12T17:00:00","51.2","ND","ND","ND","53.1","0.3","ND","ND","ND","ND","278","0"],
    [69551,"2018-04-12T18:00:00","48","ND","ND","ND","33.0","0.2","ND","ND","ND","ND","142","0.25"],
    [69552,"2018-04-12T19:00:00","58.7","ND","ND","ND","13.1","0.2","ND","ND","ND","ND","6","0"],
    [69553,"2018-04-12T20:00:00","95.9","ND","ND","ND","7.5","0.1","ND","ND","ND","ND","0","0"],
    [69554,"2018-04-12T21:00:00","97.9","ND","ND","ND","5.3","0.1","ND","ND","ND","ND","0","0"],
    [69555,"2018-04-12T22:00:00","85.3","ND","ND","ND","5.2","0.1","ND","ND","ND","ND","0","0"],
    [69556,"2018-04-12T23:00:00","61.4","ND","ND","ND","5.1","0.0","ND","ND","ND","ND","0","0"],
    [69557,"2018-04-13T00:00:00","73.9","ND","ND","ND","4.4","0.1","ND","ND","ND","ND","0","0"],
    [69558,"2018-04-13T01:00:00","72.9","ND","ND","ND","4.1","0.1","ND","ND","ND","ND","0","0"],
    [69559,"2018-04-13T02:00:00","48.2","ND","ND","ND","3.9","0.0","ND","ND","ND","ND","0","0"],
    [69560,"2018-04-13T03:00:00","18","ND","ND","ND","3.9","0.1","ND","ND","ND","ND","0","0"],
    [69561,"2018-04-13T04:00:00","2.6","ND","ND","ND","6.0","0.1","ND","ND","ND","ND","0","0"],
    [69562,"2018-04-13T05:00:00","9.1","ND","ND","ND","5.2","0.1","ND","ND","ND","ND","0","0"],
    [69563,"2018-04-13T06:00:00","45.3","ND","ND","ND","4.3","0.1","ND","ND","ND","ND","1","0"],
    [69564,"2018-04-13T07:00:00","67.3","ND","ND","ND","4.3","0.2","ND","ND","ND","ND","73","0"],
    [69565,"2018-04-13T08:00:00","98.7","ND","ND","ND","4.4","0.1","ND","ND","ND","ND","284","0"],
    [69566,"2018-04-13T09:00:00","125.1","ND","ND","ND","7.3","0.5","ND","ND","ND","ND","662","0"],
    [69567,"2018-04-13T10:00:00","116.5","ND","ND","ND","22.1","0.2","ND","ND","ND","ND","664","0"],
    [69568,"2018-04-13T11:00:00","64.4","ND","ND","ND","54.7","0.1","ND","ND","ND","ND","664","0"],
    [69569,"2018-04-13T12:00:00","58.2","ND","ND","ND","82.5","0.1","ND","ND","ND","ND","665","0"],
    [69570,"2018-04-13T13:00:00","61.5","ND","ND","ND","71.1","0.2","ND","ND","ND","ND","600","0"],
    [69571,"2018-04-13T14:00:00","43.8","ND","ND","ND","45.4","0.2","ND","ND","ND","ND","530","2.79"],
    [69572,"2018-04-13T15:00:00","49.7","ND","ND","ND","16.2","0.1","ND","ND","ND","ND","611","0.76"],
    [69573,"2018-04-13T16:00:00","ND","ND","ND","ND","21.5","0.0","ND","ND","ND","ND","664","0"],
    [69574,"2018-04-13T17:00:00","8.5","ND","ND","ND","21.0","0.0","ND","ND","ND","ND","664","0"],
    [69575,"2018-04-13T18:00:00","19.4","ND","ND","ND","15.3","0.1","ND","ND","ND","ND","211","0"],
    [69576,"2018-04-13T19:00:00","25","ND","ND","ND","15.6","0.1","ND","ND","ND","ND","2","0"],
    [69577,"2018-04-13T20:00:00","0.2","ND","ND","ND","13.8","0.1","ND","ND","ND","ND","0","0"],
    [69578,"2018-04-13T21:00:00","1.7","ND","ND","ND","9.5","0.1","ND","ND","ND","ND","0","0"],
    [69579,"2018-04-13T22:00:00","11.9","ND","ND","ND","13.4","0.1","ND","ND","ND","ND","0","0"],
    [69580,"2018-04-13T23:00:00","16.5","ND","ND","ND","13.4","0.1","ND","ND","ND","ND","0","4.83"],
    [69581,"2018-04-14T00:00:00","31.1","ND","ND","ND","7.5","0.0","ND","ND","ND","ND","0","6.86"],
    [69582,"2018-04-14T01:00:00","25.4","ND","ND","ND","6.8","0.1","ND","ND","ND","ND","0","1.02"],
    [69583,"2018-04-14T02:00:00","7","ND","ND","ND","6.4","0.1","ND","ND","ND","ND","0","0.25"],
    [69584,"2018-04-14T03:00:00","17.5","ND","ND","ND","8.3","0.2","ND","ND","ND","ND","0","1.02"],
    [69585,"2018-04-14T04:00:00","12.9","ND","ND","ND","11.1","0.1","ND","ND","ND","ND","0","0.76"],
    [69586,"2018-04-14T05:00:00","6.9","ND","ND","ND","6.6","0.2","ND","ND","ND","ND","0","0"],
    [69587,"2018-04-14T06:00:00","17.8","ND","ND","ND","4.1","0.6","ND","ND","ND","ND","0","0.25"],
    [69588,"2018-04-14T07:00:00","25.4","ND","ND","ND","4.1","0.1","ND","ND","ND","ND","41","0"],
    [69589,"2018-04-14T08:00:00","31.5","ND","ND","ND","4.2","0.3","ND","ND","ND","ND","147","0"],
    [69590,"2018-04-14T09:00:00","62.1","ND","ND","ND","4.3","0.1","ND","ND","ND","ND","125","0"],
    [69591,"2018-04-14T10:00:00","39.8","ND","ND","ND","6.2","0.2","ND","ND","ND","ND","544","0.25"],
    [69592,"2018-04-14T11:00:00","79.2","ND","ND","ND","17.1","0.1","ND","ND","ND","ND","664","0"],
    [69593,"2018-04-14T12:00:00","77.3","ND","ND","ND","50.2","0.1","ND","ND","ND","ND","664","0"],
    [69594,"2018-04-14T13:00:00","47.9","ND","ND","ND","80.3","0.2","ND","ND","ND","ND","664","0"],
    [69595,"2018-04-14T14:00:00","45.9","ND","ND","ND","72.8","0.2","ND","ND","ND","ND","665","0"],
    [69596,"2018-04-14T15:00:00","33.8","ND","ND","ND","68.6","0.2","ND","ND","ND","ND","665","0"],
    [69597,"2018-04-14T16:00:00","28.6","ND","ND","ND","78.8","0.1","ND","ND","ND","ND","652","0"],
    [69598,"2018-04-14T17:00:00","43.3","ND","ND","ND","75.9","0.0","ND","ND","ND","ND","604","0"],
    [69599,"2018-04-14T18:00:00","40.7","ND","ND","ND","70.5","0.1","ND","ND","ND","ND","177","0"],
    [69600,"2018-04-14T19:00:00","51.2","ND","ND","ND","45.9","0.1","ND","ND","ND","ND","3","0"],
    [69601,"2018-04-14T20:00:00","39.1","ND","ND","ND","7.2","0.0","ND","ND","ND","ND","0","0"],
    [69602,"2018-04-14T21:00:00","51.3","ND","ND","ND","5.2","0.1","ND","ND","ND","ND","0","0"],
    [69603,"2018-04-14T22:00:00","59","ND","ND","ND","4.4","0.3","ND","ND","ND","ND","0","0"],
    [69604,"2018-04-14T23:00:00","51.8","ND","ND","ND","4.2","0.2","ND","ND","ND","ND","0","0"],
    [69605,"2018-04-15T00:00:00","48.3","ND","ND","ND","4.2","0.1","ND","ND","ND","ND","0","0"],
    [69606,"2018-04-15T01:00:00","56.2","ND","ND","ND","4.2","0.1","ND","ND","ND","ND","0","0"],
    [69607,"2018-04-15T02:00:00","53.4","ND","ND","ND","4.1","0.2","ND","ND","ND","ND","0","0"],
    [69608,"2018-04-15T03:00:00","47.9","ND","ND","ND","4.2","0.1","ND","ND","ND","ND","0","0"],
    [69609,"2018-04-15T04:00:00","42","ND","ND","ND","4.1","0.3","ND","ND","ND","ND","0","0"],
    [69610,"2018-04-15T05:00:00","34.3","ND","ND","ND","4.1","0.2","ND","ND","ND","ND","0","0"],
    [69611,"2018-04-15T06:00:00","25.3","ND","ND","ND","4.2","0.1","ND","ND","ND","ND","1","0"],
    [69612,"2018-04-15T07:00:00","38.5","ND","ND","ND","4.4","0.2","ND","ND","ND","ND","85","0"],
    [69613,"2018-04-15T08:00:00","71.1","ND","ND","ND","4.3","1.0","ND","ND","ND","ND","259","0"],
    [69614,"2018-04-15T09:00:00","78.2","ND","ND","ND","8.9","0.1","ND","ND","ND","ND","598","0"],
    [69615,"2018-04-15T10:00:00","70.2","ND","ND","ND","33.6","0.1","ND","ND","ND","ND","659","0"],
    [69616,"2018-04-15T11:00:00","57.5","ND","ND","ND","56.2","0.0","ND","ND","ND","ND","647","0"],
    [69617,"2018-04-15T12:00:00","50.9","ND","ND","ND","71.4","0.1","ND","ND","ND","ND","665","0"],
    [69618,"2018-04-15T13:00:00","44.8","ND","ND","ND","81.6","0.1","ND","ND","ND","ND","665","0"],
    [69619,"2018-04-15T14:00:00","38.5","ND","ND","ND","86.8","0.1","ND","ND","ND","ND","663","0"],
    [69620,"2018-04-15T15:00:00","38.6","ND","ND","ND","57.0","0.0","ND","ND","ND","ND","665","0"],
    [69621,"2018-04-15T16:00:00","21.6","ND","ND","ND","37.7","0.1","ND","ND","ND","ND","578","0"],
    [69622,"2018-04-15T17:00:00","22.1","ND","ND","ND","32.9","0.1","ND","ND","ND","ND","557","0"],
    [69623,"2018-04-15T18:00:00","17.3","ND","ND","ND","27.6","0.1","ND","ND","ND","ND","156","0"],
    [69624,"2018-04-15T19:00:00","2.1","ND","ND","ND","20.6","0.1","ND","ND","ND","ND","6","0"],
    [69625,"2018-04-15T20:00:00","7.1","ND","ND","ND","12.0","0.1","ND","ND","ND","ND","0","0"],
    [69626,"2018-04-15T21:00:00","28","ND","ND","ND","5.9","0.1","ND","ND","ND","ND","0","0"],
    [69627,"2018-04-15T22:00:00","26.1","ND","ND","ND","4.4","0.1","ND","ND","ND","ND","0","0"],
    [69628,"2018-04-15T23:00:00","31.3","ND","ND","ND","4.2","0.0","ND","ND","ND","ND","0","0"],
    [69629,"2018-04-16T00:00:00","34.3","ND","ND","ND","4.3","0.2","ND","ND","ND","ND","0","0"],
    [69630,"2018-04-16T01:00:00","22.9","ND","ND","ND","5.0","0.1","ND","ND","ND","ND","0","0"],
    [69631,"2018-04-16T02:00:00","20.5","ND","ND","ND","7.1","0.2","ND","ND","ND","ND","0","0"],
    [69632,"2018-04-16T03:00:00","28.9","ND","ND","ND","4.6","0.2","ND","ND","ND","ND","0","0"],
    [69633,"2018-04-16T04:00:00","20","ND","ND","ND","4.6","0.0","ND","ND","ND","ND","0","0"],
    [69634,"2018-04-16T05:00:00","21.3","ND","ND","ND","4.4","0.2","ND","ND","ND","ND","0","0"],
    [69635,"2018-04-16T06:00:00","34.7","ND","ND","ND","4.3","0.1","ND","ND","ND","ND","0","0"],
    [69636,"2018-04-16T07:00:00","59.3","ND","ND","ND","4.6","0.1","ND","ND","ND","ND","101","0"],
    [69637,"2018-04-16T08:00:00","96.2","ND","ND","ND","4.6","0.3","ND","ND","ND","ND","358","0"],
    [69638,"2018-04-16T09:00:00","105.7","ND","ND","ND","11.5","0.3","ND","ND","ND","ND","652","0"],
    [69639,"2018-04-16T10:00:00","91.9","ND","ND","ND","36.7","0.4","ND","ND","ND","ND","658","0"],
    [69640,"2018-04-16T11:00:00","71.7","ND","ND","ND","54.2","0.0","ND","ND","ND","ND","664","0"],
    [69641,"2018-04-16T12:00:00","57.2","ND","ND","ND","71.2","0.2","ND","ND","ND","ND","665","0"],
    [69642,"2018-04-16T13:00:00","58.7","ND","ND","ND","78.4","0.2","ND","ND","ND","ND","665","0"],
    [69643,"2018-04-16T14:00:00","35.9","ND","ND","ND","34.1","0.1","ND","ND","ND","ND","665","0"],
    [69644,"2018-04-16T15:00:00","22.1","ND","ND","ND","24.0","0.2","ND","ND","ND","ND","665","0"],
    [69645,"2018-04-16T16:00:00","20.1","ND","ND","ND","23.1","0.1","ND","ND","ND","ND","657","0"],
    [69646,"2018-04-16T17:00:00","18.5","ND","ND","ND","21.6","0.0","ND","ND","ND","ND","575","0"],
    [69647,"2018-04-16T18:00:00","25.6","ND","ND","ND","14.5","0.1","ND","ND","ND","ND","113","0"],
    [69648,"2018-04-16T19:00:00","16.7","ND","ND","ND","11.0","0.0","ND","ND","ND","ND","0","0"],
    [69649,"2018-04-16T20:00:00","7.6","ND","ND","ND","11.9","0.1","ND","ND","ND","ND","0","0"],
    [69650,"2018-04-16T21:00:00","12.6","ND","ND","ND","6.8","0.1","ND","ND","ND","ND","0","0"],
    [69651,"2018-04-16T22:00:00","41.5","ND","ND","ND","6.3","0.1","ND","ND","ND","ND","0","0"],
    [69652,"2018-04-16T23:00:00","56.6","ND","ND","ND","4.4","0.1","ND","ND","ND","ND","0","0"],
    [69653,"2018-04-17T00:00:00","54.2","ND","ND","ND","4.8","0.3","ND","ND","ND","ND","0","0"],
    [69654,"2018-04-17T01:00:00","46.3","ND","ND","ND","5.8","0.2","ND","ND","ND","ND","0","0"],
    [69655,"2018-04-17T02:00:00","44","ND","ND","ND","5.0","0.1","ND","ND","ND","ND","0","0"],
    [69656,"2018-04-17T03:00:00","42.8","ND","ND","ND","4.5","0.1","ND","ND","ND","ND","0","0"],
    [69657,"2018-04-17T04:00:00","34.5","ND","ND","ND","4.2","0.3","ND","ND","ND","ND","0","0"],
    [69658,"2018-04-17T05:00:00","33.5","ND","ND","ND","4.5","0.1","ND","ND","ND","ND","0","0"],
    [69659,"2018-04-17T06:00:00","63.4","ND","ND","ND","4.4","0.6","ND","ND","ND","ND","0","0"],
    [69660,"2018-04-17T07:00:00","67.5","ND","ND","ND","4.4","0.4","ND","ND","ND","ND","130","0"],
    [69661,"2018-04-17T08:00:00","60.9","ND","ND","ND","4.7","0.3","ND","ND","ND","ND","399","0"],
    [69662,"2018-04-17T09:00:00","85","ND","ND","ND","9.7","0.2","ND","ND","ND","ND","663","0"],
    [69663,"2018-04-17T10:00:00","86.3","ND","ND","ND","19.7","0.1","ND","ND","ND","ND","664","0"],
    [69664,"2018-04-17T11:00:00","60.3","ND","ND","ND","34.7","0.1","ND","ND","ND","ND","664","0"],
    [69665,"2018-04-17T12:00:00","17.1","ND","ND","ND","46.9","0.1","ND","ND","ND","ND","665","0"],
    [69666,"2018-04-17T13:00:00","2.1","ND","ND","ND","56.6","0.2","ND","ND","ND","ND","665","0"],
    [69667,"2018-04-17T14:00:00","31.6","ND","ND","ND","57.8","0.1","ND","ND","ND","ND","665","0"],
    [69668,"2018-04-17T15:00:00","29.3","ND","ND","ND","45.0","0.1","ND","ND","ND","ND","381","0"],
    [69669,"2018-04-17T16:00:00","20.2","ND","ND","ND","29.1","0.2","ND","ND","ND","ND","63","5.59"],
    [69670,"2018-04-17T17:00:00","5.4","ND","ND","ND","13.4","0.0","ND","ND","ND","ND","53","7.62"],
    [69671,"2018-04-17T18:00:00","11.2","ND","ND","ND","4.6","0.0","ND","ND","ND","ND","23","0"],
    [69672,"2018-04-17T19:00:00","51.1","ND","ND","ND","4.7","0.0","ND","ND","ND","ND","0","0.25"],
    [69673,"2018-04-17T20:00:00","43","ND","ND","ND","4.4","0.1","ND","ND","ND","ND","0","0"],
    [69674,"2018-04-17T21:00:00","57.5","ND","ND","ND","4.3","0.9","ND","ND","ND","ND","0","0.25"],
    [69675,"2018-04-17T22:00:00","50.2","ND","ND","ND","4.4","0.4","ND","ND","ND","ND","0","0"],
    [69676,"2018-04-17T23:00:00","45.3","ND","ND","ND","4.4","0.1","ND","ND","ND","ND","0","0"],
    [69677,"2018-04-18T00:00:00","46.2","ND","ND","ND","4.3","0.1","ND","ND","ND","ND","0","0"],
    [69678,"2018-04-18T01:00:00","42.2","ND","ND","ND","4.2","0.2","ND","ND","ND","ND","0","0"],
    [69679,"2018-04-18T02:00:00","53.8","ND","ND","ND","4.4","0.5","ND","ND","ND","ND","0","0"],
    [69680,"2018-04-18T03:00:00","57.8","ND","ND","ND","4.4","0.3","ND","ND","ND","ND","0","0"],
    [69681,"2018-04-18T04:00:00","63.7","ND","ND","ND","4.5","0.5","ND","ND","ND","ND","0","0"],
    [69682,"2018-04-18T05:00:00","70.9","ND","ND","ND","4.5","1.4","ND","ND","ND","ND","0","0"],
    [69683,"2018-04-18T06:00:00","60.5","ND","ND","ND","4.7","1.0","ND","ND","ND","ND","0","0"],
    [69684,"2018-04-18T07:00:00","53.9","ND","ND","ND","4.3","0.1","ND","ND","ND","ND","150","0"],
    [69685,"2018-04-18T08:00:00","53.7","ND","ND","ND","4.4","0.5","ND","ND","ND","ND","394","0"],
    [69686,"2018-04-18T09:00:00","90.6","ND","ND","ND","5.1","0.4","ND","ND","ND","ND","656","0"],
    [69687,"2018-04-18T10:00:00","113.6","ND","ND","ND","20.7","0.4","ND","ND","ND","ND","664","0"],
    [69688,"2018-04-18T11:00:00","89.4","ND","ND","ND","47.2","0.3","ND","ND","ND","ND","664","0"],
    [69689,"2018-04-18T12:00:00","61.9","ND","ND","ND","57.4","0.2","ND","ND","ND","ND","664","0"],
    [69690,"2018-04-18T13:00:00","41.1","ND","ND","ND","65.6","0.4","ND","ND","ND","ND","665","0"],
    [69691,"2018-04-18T14:00:00","41","ND","ND","ND","73.3","0.2","ND","ND","ND","ND","665","0"],
    [69692,"2018-04-18T15:00:00","44.3","ND","ND","ND","68.8","0.1","ND","ND","ND","ND","665","0"],
    [69693,"2018-04-18T16:00:00","40.5","ND","ND","ND","67.4","0.1","ND","ND","ND","ND","549","0"],
    [69694,"2018-04-18T17:00:00","28.5","ND","ND","ND","60.2","0.1","ND","ND","ND","ND","437","0"],
    [69695,"2018-04-18T18:00:00","39.2","ND","ND","ND","27.1","0.2","ND","ND","ND","ND","210","0"],
    [69696,"2018-04-18T19:00:00","33.5","ND","ND","ND","18.2","0.1","ND","ND","ND","ND","0","0"],
    [69697,"2018-04-18T20:00:00","31.1","ND","ND","ND","9.6","0.2","ND","ND","ND","ND","0","0"],
    [69698,"2018-04-18T21:00:00","40.5","ND","ND","ND","6.4","0.1","ND","ND","ND","ND","0","0"],
    [69699,"2018-04-18T22:00:00","37.1","ND","ND","ND","4.4","0.6","ND","ND","ND","ND","0","0"],
    [69700,"2018-04-18T23:00:00","28.5","ND","ND","ND","4.4","0.1","ND","ND","ND","ND","0","0"],
    [69701,"2018-04-19T00:00:00","35","ND","ND","ND","4.6","0.1","ND","ND","ND","ND","0","0"],
    [69702,"2018-04-19T01:00:00","41.2","ND","ND","ND","4.5","0.3","ND","ND","ND","ND","0","0"],
    [69703,"2018-04-19T02:00:00","53.5","ND","ND","ND","4.8","0.3","ND","ND","ND","ND","0","0"],
    [69704,"2018-04-19T03:00:00","65.5","ND","ND","ND","5.2","0.3","ND","ND","ND","ND","0","0"],
    [69705,"2018-04-19T04:00:00","67.5","ND","ND","ND","6.2","0.3","ND","ND","ND","ND","0","0"],
    [69706,"2018-04-19T05:00:00","39","ND","ND","ND","4.7","0.5","ND","ND","ND","ND","0","0"],
    [69707,"2018-04-19T06:00:00","84.3","ND","ND","ND","4.5","0.5","ND","ND","ND","ND","0","0"],
    [69708,"2018-04-19T07:00:00","93.4","ND","ND","ND","4.7","0.3","ND","ND","ND","ND","65","0"],
    [69709,"2018-04-19T08:00:00","97","ND","ND","ND","5.6","0.9","ND","ND","ND","ND","410","0"],
    [69710,"2018-04-19T09:00:00","109.6","ND","ND","ND","11.2","1.7","ND","ND","ND","ND","663","0"],
    [69711,"2018-04-19T10:00:00","73.3","ND","ND","ND","21.5","0.3","ND","ND","ND","ND","658","0"],
    [69712,"2018-04-19T11:00:00","61.3","ND","ND","ND","38.5","0.3","ND","ND","ND","ND","666","0"],
    [69713,"2018-04-19T12:00:00","67.2","ND","ND","ND","68.9","0.3","ND","ND","ND","ND","667","0"],
    [69714,"2018-04-19T13:00:00","62.7","ND","ND","ND","86.2","0.3","ND","ND","ND","ND","667","0"],
    [69715,"2018-04-19T14:00:00","63.4","ND","ND","ND","78.3","0.1","ND","ND","ND","ND","667","0"],
    [69716,"2018-04-19T15:00:00","47.2","ND","ND","ND","86.8","0.3","ND","ND","ND","ND","622","0"],
    [69717,"2018-04-19T16:00:00","49.5","ND","ND","ND","60.6","0.2","ND","ND","ND","ND","309","0"],
    [69718,"2018-04-19T17:00:00","59.7","ND","ND","ND","32.0","0.2","ND","ND","ND","ND","159","0"],
    [69719,"2018-04-19T18:00:00","26","ND","ND","ND","21.3","0.2","ND","ND","ND","ND","22","0"],
    [69720,"2018-04-19T19:00:00","14.9","ND","ND","ND","27.6","0.0","ND","ND","ND","ND","0","0"],
    [69721,"2018-04-19T20:00:00","13.1","ND","ND","ND","14.6","0.2","ND","ND","ND","ND","0","0"],
    [69722,"2018-04-19T21:00:00","33.4","ND","ND","ND","7.8","0.1","ND","ND","ND","ND","0","1.78"],
    [69723,"2018-04-19T22:00:00","14.2","ND","ND","ND","4.7","0.1","ND","ND","ND","ND","0","0.25"],
    [69724,"2018-04-19T23:00:00","7.4","ND","ND","ND","5.0","0.1","ND","ND","ND","ND","0","0"],
    [69725,"2018-04-20T00:00:00","15.4","ND","ND","ND","4.2","0.2","ND","ND","ND","ND","0","0"],
    [69726,"2018-04-20T01:00:00","18.7","ND","ND","ND","4.3","0.2","ND","ND","ND","ND","0","1.02"],
    [69727,"2018-04-20T02:00:00","13.1","ND","ND","ND","3.9","0.1","ND","ND","ND","ND","0","0"],
    [69728,"2018-04-20T03:00:00","7.3","ND","ND","ND","4.0","0.1","ND","ND","ND","ND","0","0"],
    [69729,"2018-04-20T04:00:00","2.4","ND","ND","ND","3.9","0.1","ND","ND","ND","ND","0","0"],
    [69730,"2018-04-20T05:00:00","ND","ND","ND","ND","4.2","0.2","ND","ND","ND","ND","0","0.25"],
    [69731,"2018-04-20T06:00:00","24.3","ND","ND","ND","5.5","0.4","ND","ND","ND","ND","1","0"],
    [69732,"2018-04-20T07:00:00","31.4","ND","ND","ND","4.7","0.3","ND","ND","ND","ND","95","0"],
    [69733,"2018-04-20T08:00:00","78.8","ND","ND","ND","4.4","0.5","ND","ND","ND","ND","257","0"],
    [69734,"2018-04-20T09:00:00","110","ND","ND","ND","5.7","0.9","ND","ND","ND","ND","285","0"],
    [69735,"2018-04-20T10:00:00","118.1","ND","ND","ND","5.2","1.5","ND","ND","ND","ND","418","0"],
    [69736,"2018-04-20T11:00:00","ND","ND","ND","ND","ND","ND","ND","ND","ND","ND","ND","ND"],
    [69737,"2018-04-20T12:00:00","ND","ND","ND","ND","ND","ND","ND","ND","ND","ND","ND","ND"],
    [69738,"2018-04-20T13:00:00","ND","ND","ND","ND","ND","ND","ND","ND","ND","ND","ND","ND"],
    [69739,"2018-04-20T14:00:00","ND","ND","ND","ND","ND","ND","ND","ND","ND","ND","ND","ND"],
    [69740,"2018-04-20T15:00:00","ND","ND","ND","ND","ND","ND","ND","ND","ND","ND","ND","ND"],
    [69741,"2018-04-20T16:00:00","ND","ND","ND","ND","ND","ND","ND","ND","ND","ND","ND","ND"],
    [69742,"2018-04-20T17:00:00","ND","ND","ND","ND","ND","ND","ND","ND","ND","ND","ND","ND"],
    [69743,"2018-04-20T18:00:00","ND","ND","ND","ND","ND","ND","ND","ND","ND","ND","ND","ND"],
    [69744,"2018-04-20T19:00:00","ND","ND","ND","ND","ND","ND","ND","ND","ND","ND","ND","ND"],
    [69745,"2018-04-20T20:00:00","ND","ND","ND","ND","ND","ND","ND","ND","ND","ND","ND","ND"],
    [69746,"2018-04-20T21:00:00","ND","ND","ND","ND","ND","ND","ND","ND","ND","ND","ND","ND"],
    [69747,"2018-04-20T22:00:00","ND","ND","ND","ND","ND","ND","ND","ND","ND","ND","ND","ND"],
    [69748,"2018-04-20T23:00:00","ND","ND","ND","ND","ND","ND","ND","ND","ND","ND","ND","ND"],
    [69749,"2018-04-21T00:00:00","ND","ND","ND","ND","ND","ND","ND","ND","ND","ND","ND","ND"],
    [69750,"2018-04-21T01:00:00","ND","ND","ND","ND","ND","ND","ND","ND","ND","ND","ND","ND"],
    [69751,"2018-04-21T02:00:00","ND","ND","ND","ND","ND","ND","ND","ND","ND","ND","ND","ND"],
    [69752,"2018-04-21T03:00:00","ND","ND","ND","ND","ND","ND","ND","ND","ND","ND","ND","ND"],
    [69753,"2018-04-21T04:00:00","ND","ND","ND","ND","ND","ND","ND","ND","ND","ND","ND","ND"],
    [69754,"2018-04-21T05:00:00","ND","ND","ND","ND","ND","ND","ND","ND","ND","ND","ND","ND"],
    [69755,"2018-04-21T06:00:00","ND","ND","ND","ND","ND","ND","ND","ND","ND","ND","ND","ND"],
    [69756,"2018-04-21T07:00:00","ND","ND","ND","ND","ND","ND","ND","ND","ND","ND","ND","ND"],
    [69757,"2018-04-21T08:00:00","ND","ND","ND","ND","ND","ND","ND","ND","ND","ND","ND","ND"],
    [69758,"2018-04-21T09:00:00","ND","ND","ND","ND","ND","ND","ND","ND","ND","ND","ND","ND"],
    [69759,"2018-04-21T10:00:00","ND","ND","ND","ND","ND","ND","ND","ND","ND","ND","ND","ND"],
    [69760,"2018-04-21T11:00:00","ND","ND","ND","ND","ND","ND","ND","ND","ND","ND","ND","ND"],
    [69761,"2018-04-21T12:00:00","77.1","ND","ND","ND","67.8","0.8","ND","ND","ND","ND","666","0"],
    [69762,"2018-04-21T13:00:00","ND","ND","ND","ND","ND","ND","ND","ND","ND","ND","ND","ND"],
    [69763,"2018-04-21T14:00:00","ND","ND","ND","ND","ND","ND","ND","ND","ND","ND","ND","ND"],
    [69764,"2018-04-21T15:00:00","ND","ND","ND","ND","ND","ND","ND","ND","ND","ND","ND","ND"],
    [69765,"2018-04-21T16:00:00","ND","ND","ND","ND","ND","ND","ND","ND","ND","ND","ND","ND"],
    [69766,"2018-04-21T17:00:00","ND","ND","ND","ND","ND","ND","ND","ND","ND","ND","ND","ND"],
    [69767,"2018-04-21T18:00:00","ND","ND","ND","ND","ND","ND","ND","ND","ND","ND","ND","ND"],
    [69768,"2018-04-21T19:00:00","ND","ND","ND","ND","ND","ND","ND","ND","ND","ND","ND","ND"],
    [69769,"2018-04-21T20:00:00","ND","ND","ND","ND","ND","ND","ND","ND","ND","ND","ND","ND"],
    [69770,"2018-04-21T21:00:00","ND","ND","ND","ND","ND","ND","ND","ND","ND","ND","ND","ND"],
    [69771,"2018-04-21T22:00:00","ND","ND","ND","ND","ND","ND","ND","ND","ND","ND","ND","ND"],
    [69772,"2018-04-21T23:00:00","ND","ND","ND","ND","ND","ND","ND","ND","ND","ND","ND","ND"],
    [69773,"2018-04-22T00:00:00","ND","ND","ND","ND","ND","ND","ND","ND","ND","ND","ND","ND"],
    [69774,"2018-04-22T01:00:00","ND","ND","ND","ND","ND","ND","ND","ND","ND","ND","ND","ND"],
    [69775,"2018-04-22T02:00:00","ND","ND","ND","ND","ND","ND","ND","ND","ND","ND","ND","ND"],
    [69776,"2018-04-22T03:00:00","ND","ND","ND","ND","ND","ND","ND","ND","ND","ND","ND","ND"],
    [69777,"2018-04-22T04:00:00","ND","ND","ND","ND","ND","ND","ND","ND","ND","ND","ND","ND"],
    [69778,"2018-04-22T05:00:00","ND","ND","ND","ND","ND","ND","ND","ND","ND","ND","ND","ND"],
    [69779,"2018-04-22T06:00:00","ND","ND","ND","ND","ND","ND","ND","ND","ND","ND","ND","ND"],
    [69780,"2018-04-22T07:00:00","ND","ND","ND","ND","ND","ND","ND","ND","ND","ND","ND","ND"],
    [69781,"2018-04-22T08:00:00","ND","ND","ND","ND","ND","ND","ND","ND","ND","ND","ND","ND"],
    [69782,"2018-04-22T09:00:00","ND","ND","ND","ND","ND","ND","ND","ND","ND","ND","ND","ND"],
    [69783,"2018-04-22T10:00:00","ND","ND","ND","ND","ND","ND","ND","ND","ND","ND","ND","ND"],
    [69784,"2018-04-22T11:00:00","ND","ND","ND","ND","ND","ND","ND","ND","ND","ND","ND","ND"],
    [69785,"2018-04-22T12:00:00","ND","ND","ND","ND","ND","ND","ND","ND","ND","ND","ND","ND"],
    [69786,"2018-04-22T13:00:00","ND","ND","ND","ND","ND","ND","ND","ND","ND","ND","ND","ND"],
    [69787,"2018-04-22T14:00:00","ND","ND","ND","ND","ND","ND","ND","ND","ND","ND","ND","ND"],
    [69788,"2018-04-22T15:00:00","ND","ND","ND","ND","ND","ND","ND","ND","ND","ND","ND","ND"],
    [69789,"2018-04-22T16:00:00","ND","ND","ND","ND","ND","ND","ND","ND","ND","ND","ND","ND"],
    [69790,"2018-04-22T17:00:00","ND","ND","ND","ND","ND","ND","ND","ND","ND","ND","ND","ND"],
    [69791,"2018-04-22T18:00:00","ND","ND","ND","ND","ND","ND","ND","ND","ND","ND","ND","ND"],
    [69792,"2018-04-22T19:00:00","ND","ND","ND","ND","ND","ND","ND","ND","ND","ND","ND","ND"],
    [69793,"2018-04-22T20:00:00","ND","ND","ND","ND","ND","ND","ND","ND","ND","ND","ND","ND"],
    [69794,"2018-04-22T21:00:00","ND","ND","ND","ND","ND","ND","ND","ND","ND","ND","ND","ND"],
    [69795,"2018-04-22T22:00:00","ND","ND","ND","ND","ND","ND","ND","ND","ND","ND","ND","ND"],
    [69796,"2018-04-22T23:00:00","ND","ND","ND","ND","ND","ND","ND","ND","ND","ND","ND","ND"],
    [69797,"2018-04-23T00:00:00","ND","ND","ND","ND","ND","ND","ND","ND","ND","ND","ND","ND"],
    [69798,"2018-04-23T01:00:00","ND","ND","ND","ND","ND","ND","ND","ND","ND","ND","ND","ND"],
    [69799,"2018-04-23T02:00:00","ND","ND","ND","ND","ND","ND","ND","ND","ND","ND","ND","ND"],
    [69800,"2018-04-23T03:00:00","ND","ND","ND","ND","ND","ND","ND","ND","ND","ND","ND","ND"],
    [69801,"2018-04-23T04:00:00","ND","ND","ND","ND","ND","ND","ND","ND","ND","ND","ND","ND"],
    [69802,"2018-04-23T05:00:00","ND","ND","ND","ND","ND","ND","ND","ND","ND","ND","ND","ND"],
    [69803,"2018-04-23T06:00:00","ND","ND","ND","ND","ND","ND","ND","ND","ND","ND","ND","ND"],
    [69804,"2018-04-23T07:00:00","ND","ND","ND","ND","ND","ND","ND","ND","ND","ND","ND","ND"],
    [69805,"2018-04-23T08:00:00","ND","ND","ND","ND","ND","ND","ND","ND","ND","ND","ND","ND"],
    [69806,"2018-04-23T09:00:00","ND","ND","ND","ND","ND","ND","ND","ND","ND","ND","ND","ND"],
    [69807,"2018-04-23T10:00:00","ND","ND","ND","ND","ND","ND","ND","ND","ND","ND","ND","ND"],
    [69808,"2018-04-23T11:00:00","ND","ND","ND","ND","ND","ND","ND","ND","ND","ND","ND","ND"],
    [69809,"2018-04-23T12:00:00","ND","ND","ND","ND","ND","ND","ND","ND","ND","ND","ND","ND"],
    [69810,"2018-04-23T13:00:00","ND","ND","ND","ND","ND","ND","ND","ND","ND","ND","ND","ND"],
    [69811,"2018-04-23T14:00:00","ND","ND","ND","ND","ND","ND","ND","ND","ND","ND","ND","ND"],
    [69812,"2018-04-23T15:00:00","ND","ND","ND","ND","ND","ND","ND","ND","ND","ND","ND","ND"],
    [69813,"2018-04-23T16:00:00","ND","ND","ND","ND","ND","ND","ND","ND","ND","ND","ND","ND"],
    [69814,"2018-04-23T17:00:00","ND","ND","ND","ND","ND","ND","ND","ND","ND","ND","ND","ND"],
    [69815,"2018-04-23T18:00:00","ND","ND","ND","ND","ND","ND","ND","ND","ND","ND","ND","ND"],
    [69816,"2018-04-23T19:00:00","ND","ND","ND","ND","ND","ND","ND","ND","ND","ND","ND","ND"],
    [69817,"2018-04-23T20:00:00","ND","ND","ND","ND","ND","ND","ND","ND","ND","ND","ND","ND"],
    [69818,"2018-04-23T21:00:00","ND","ND","ND","ND","ND","ND","ND","ND","ND","ND","ND","ND"],
    [69819,"2018-04-23T22:00:00","ND","ND","ND","ND","ND","ND","ND","ND","ND","ND","ND","ND"],
    [69820,"2018-04-23T23:00:00","ND","ND","ND","ND","ND","ND","ND","ND","ND","ND","ND","ND"],
    [69821,"2018-04-24T00:00:00","ND","ND","ND","ND","ND","ND","ND","ND","ND","ND","ND","ND"],
    [69822,"2018-04-24T01:00:00","ND","ND","ND","ND","ND","ND","ND","ND","ND","ND","ND","ND"],
    [69823,"2018-04-24T02:00:00","ND","ND","ND","ND","ND","ND","ND","ND","ND","ND","ND","ND"],
    [69824,"2018-04-24T03:00:00","ND","ND","ND","ND","ND","ND","ND","ND","ND","ND","ND","ND"],
    [69825,"2018-04-24T04:00:00","ND","ND","ND","ND","ND","ND","ND","ND","ND","ND","ND","ND"],
    [69826,"2018-04-24T05:00:00","ND","ND","ND","ND","ND","ND","ND","ND","ND","ND","ND","ND"],
    [69827,"2018-04-24T06:00:00","ND","ND","ND","ND","ND","ND","ND","ND","ND","ND","ND","ND"],
    [69828,"2018-04-24T07:00:00","ND","ND","ND","ND","ND","ND","ND","ND","ND","ND","ND","ND"],
    [69829,"2018-04-24T08:00:00","ND","ND","ND","ND","ND","ND","ND","ND","ND","ND","ND","ND"],
    [69830,"2018-04-24T09:00:00","ND","ND","ND","ND","ND","ND","ND","ND","ND","ND","ND","ND"],
    [69831,"2018-04-24T10:00:00","ND","ND","ND","ND","ND","ND","ND","ND","ND","ND","ND","ND"],
    [69832,"2018-04-24T11:00:00","ND","ND","ND","ND","ND","ND","ND","ND","ND","ND","ND","ND"],
    [69833,"2018-04-24T12:00:00","ND","ND","ND","ND","ND","ND","ND","ND","ND","ND","ND","ND"],
    [69834,"2018-04-24T13:00:00","ND","ND","ND","ND","ND","ND","ND","ND","ND","ND","ND","ND"],
    [69835,"2018-04-24T14:00:00","48.5","ND","ND","ND","72.2","0.2","ND","ND","ND","ND","665","0"],
    [69836,"2018-04-24T15:00:00","41.2","ND","ND","ND","ND","0.2","ND","ND","ND","ND","637","0"],
    [69837,"2018-04-24T16:00:00","47.9","ND","ND","ND","ND","9.0","ND","ND","ND","ND","668","0"],
    [69838,"2018-04-24T17:00:00","41","ND","ND","ND","12.4","0.7","ND","ND","ND","ND","563","0"],
    [69839,"2018-04-24T18:00:00","11.8","ND","ND","ND","13.7","0.4","ND","ND","ND","ND","138","0"],
    [69840,"2018-04-24T19:00:00","19.4","ND","ND","ND","8.1","0.2","ND","ND","ND","ND","4","0"],
    [69841,"2018-04-24T20:00:00","ND","ND","ND","ND","ND","ND","ND","ND","ND","ND","ND","ND"],
    [69842,"2018-04-24T21:00:00","ND","ND","ND","ND","ND","ND","ND","ND","ND","ND","ND","ND"],
    [69843,"2018-04-24T22:00:00","ND","ND","ND","ND","ND","ND","ND","ND","ND","ND","ND","ND"],
    [69844,"2018-04-24T23:00:00","ND","ND","ND","ND","ND","ND","ND","ND","ND","ND","ND","ND"],
    [69845,"2018-04-25T00:00:00","ND","ND","ND","ND","ND","ND","ND","ND","ND","ND","ND","ND"],
    [69846,"2018-04-25T01:00:00","ND","ND","ND","ND","ND","ND","ND","ND","ND","ND","ND","ND"],
    [69847,"2018-04-25T02:00:00","ND","ND","ND","ND","ND","ND","ND","ND","ND","ND","ND","ND"],
    [69848,"2018-04-25T03:00:00","ND","ND","ND","ND","ND","ND","ND","ND","ND","ND","ND","ND"],
    [69849,"2018-04-25T04:00:00","ND","ND","ND","ND","ND","ND","ND","ND","ND","ND","ND","ND"],
    [69850,"2018-04-25T05:00:00","ND","ND","ND","ND","ND","ND","ND","ND","ND","ND","ND","ND"],
    [69851,"2018-04-25T06:00:00","ND","ND","ND","ND","ND","ND","ND","ND","ND","ND","ND","ND"],
    [69852,"2018-04-25T07:00:00","ND","ND","ND","ND","ND","ND","ND","ND","ND","ND","ND","ND"],
    [69853,"2018-04-25T08:00:00","ND","ND","ND","ND","ND","ND","ND","ND","ND","ND","ND","ND"],
    [69854,"2018-04-25T09:00:00","ND","ND","ND","ND","ND","ND","ND","ND","ND","ND","ND","ND"],
    [69855,"2018-04-25T10:00:00","ND","ND","ND","ND","ND","ND","ND","ND","ND","ND","ND","ND"],
    [69856,"2018-04-25T11:00:00","ND","ND","ND","ND","ND","ND","ND","ND","ND","ND","ND","ND"],
    [69857,"2018-04-25T12:00:00","ND","ND","ND","ND","ND","ND","ND","ND","ND","ND","ND","ND"],
    [69858,"2018-04-25T13:00:00","ND","ND","ND","ND","ND","ND","ND","ND","ND","ND","ND","ND"],
    [69859,"2018-04-25T14:00:00","ND","ND","ND","ND","ND","ND","ND","ND","ND","ND","ND","ND"],
    [69860,"2018-04-25T15:00:00","ND","ND","ND","ND","ND","ND","ND","ND","ND","ND","ND","ND"],
    [69861,"2018-04-25T16:00:00","ND","ND","ND","ND","ND","ND","ND","ND","ND","ND","ND","ND"],
    [69862,"2018-04-25T17:00:00","ND","ND","ND","ND","ND","ND","ND","ND","ND","ND","ND","ND"],
    [69863,"2018-04-25T18:00:00","ND","ND","ND","ND","ND","ND","ND","ND","ND","ND","ND","ND"],
    [69864,"2018-04-25T19:00:00","ND","ND","ND","ND","ND","ND","ND","ND","ND","ND","ND","ND"],
    [69865,"2018-04-25T20:00:00","ND","ND","ND","ND","ND","ND","ND","ND","ND","ND","ND","ND"],
    [69866,"2018-04-25T21:00:00","ND","ND","ND","ND","ND","ND","ND","ND","ND","ND","ND","ND"],
    [69867,"2018-04-25T22:00:00","ND","ND","ND","ND","ND","ND","ND","ND","ND","ND","ND","ND"],
    [69868,"2018-04-25T23:00:00","ND","ND","ND","ND","ND","ND","ND","ND","ND","ND","ND","ND"],
    [69869,"2018-04-26T00:00:00","ND","ND","ND","ND","ND","ND","ND","ND","ND","ND","ND","ND"],
    [69870,"2018-04-26T01:00:00","ND","ND","ND","ND","ND","ND","ND","ND","ND","ND","ND","ND"],
    [69871,"2018-04-26T02:00:00","ND","ND","ND","ND","ND","ND","ND","ND","ND","ND","ND","ND"],
    [69872,"2018-04-26T03:00:00","ND","ND","ND","ND","ND","ND","ND","ND","ND","ND","ND","ND"],
    [69873,"2018-04-26T04:00:00","ND","ND","ND","ND","ND","ND","ND","ND","ND","ND","ND","ND"],
    [69874,"2018-04-26T05:00:00","ND","ND","ND","ND","ND","ND","ND","ND","ND","ND","ND","ND"],
    [69875,"2018-04-26T06:00:00","ND","ND","ND","ND","ND","ND","ND","ND","ND","ND","ND","ND"],
    [69876,"2018-04-26T07:00:00","ND","ND","ND","ND","ND","ND","ND","ND","ND","ND","ND","ND"],
    [69877,"2018-04-26T08:00:00","ND","ND","ND","ND","ND","ND","ND","ND","ND","ND","ND","ND"],
    [69878,"2018-04-26T09:00:00","ND","ND","ND","ND","ND","ND","ND","ND","ND","ND","ND","ND"],
    [69879,"2018-04-26T10:00:00","ND","ND","ND","ND","ND","ND","ND","ND","ND","ND","ND","ND"],
    [69880,"2018-04-26T11:00:00","ND","ND","ND","ND","ND","ND","ND","ND","ND","ND","ND","ND"],
    [69881,"2018-04-26T12:00:00","48.8","ND","ND","ND","ND","0.3","ND","ND","ND","ND","666","0"],
    [69882,"2018-04-26T13:00:00","ND","ND","ND","ND","ND","0.0","ND","ND","ND","ND","664","0"],
    [69883,"2018-04-26T14:00:00","ND","ND","ND","ND","ND","0.1","ND","ND","ND","ND","624","0"],
    [69884,"2018-04-26T15:00:00","ND","ND","ND","ND","ND","0.1","ND","ND","ND","ND","654","0"],
    [69885,"2018-04-26T16:00:00","ND","ND","ND","ND","ND","0.0","ND","ND","ND","ND","430","0"],
    [69886,"2018-04-26T17:00:00","ND","ND","ND","ND","ND","0.1","ND","ND","ND","ND","276","0"],
    [69887,"2018-04-26T18:00:00","ND","ND","ND","ND","ND","0.1","ND","ND","ND","ND","104","0"],
    [69888,"2018-04-26T19:00:00","ND","ND","ND","ND","ND","0.0","ND","ND","ND","ND","3","0"],
    [69889,"2018-04-26T20:00:00","ND","ND","ND","ND","ND","0.1","ND","ND","ND","ND","0","0"],
    [69890,"2018-04-26T21:00:00","ND","ND","ND","ND","ND","0.1","ND","ND","ND","ND","0","0"],
    [69891,"2018-04-26T22:00:00","ND","ND","ND","ND","ND","0.4","ND","ND","ND","ND","0","0"],
    [69892,"2018-04-26T23:00:00","ND","ND","ND","ND","ND","0.1","ND","ND","ND","ND","0","0"],
    [69893,"2018-04-27T00:00:00","ND","ND","ND","ND","ND","0.3","ND","ND","ND","ND","0","0"],
    [69894,"2018-04-27T01:00:00","ND","ND","ND","ND","ND","0.1","ND","ND","ND","ND","0","0"],
    [69895,"2018-04-27T02:00:00","ND","ND","ND","ND","ND","0.0","ND","ND","ND","ND","0","0"],
    [69896,"2018-04-27T03:00:00","ND","ND","ND","ND","ND","0.3","ND","ND","ND","ND","0","0"],
    [69897,"2018-04-27T04:00:00","ND","ND","ND","ND","ND","0.7","ND","ND","ND","ND","0","0"],
    [69898,"2018-04-27T05:00:00","ND","ND","ND","ND","ND","0.3","ND","ND","ND","ND","0","0"],
    [69899,"2018-04-27T06:00:00","ND","ND","ND","ND","ND","0.1","ND","ND","ND","ND","0","0"],
    [69900,"2018-04-27T07:00:00","ND","ND","ND","ND","ND","0.3","ND","ND","ND","ND","51","0"],
    [69901,"2018-04-27T08:00:00","ND","ND","ND","ND","ND","0.4","ND","ND","ND","ND","308","0"],
    [69902,"2018-04-27T09:00:00","ND","ND","ND","ND","ND","0.1","ND","ND","ND","ND","485","0"],
    [69903,"2018-04-27T10:00:00","ND","ND","ND","ND","ND","0.1","ND","ND","ND","ND","665","0"],
    [69904,"2018-04-27T11:00:00","ND","ND","ND","ND","ND","0.3","ND","ND","ND","ND","665","0"],
    [69905,"2018-04-27T12:00:00","ND","ND","ND","ND","ND","0.1","ND","ND","ND","ND","665","0"],
    [69906,"2018-04-27T13:00:00","ND","ND","ND","ND","ND","0.1","ND","ND","ND","ND","665","0"],
    [69907,"2018-04-27T14:00:00","ND","ND","ND","ND","ND","0.1","ND","ND","ND","ND","665","0"],
    [69908,"2018-04-27T15:00:00","ND","ND","ND","ND","ND","0.0","ND","ND","ND","ND","562","0"],
    [69909,"2018-04-27T16:00:00","ND","ND","ND","ND","ND","0.1","ND","ND","ND","ND","291","0"],
    [69910,"2018-04-27T17:00:00","ND","ND","ND","ND","ND","0.1","ND","ND","ND","ND","428","0.25"],
    [69911,"2018-04-27T18:00:00","ND","ND","ND","ND","ND","0.0","ND","ND","ND","ND","84","0"],
    [69912,"2018-04-27T19:00:00","ND","ND","ND","ND","ND","0.1","ND","ND","ND","ND","1","0"],
    [69913,"2018-04-27T20:00:00","ND","ND","ND","ND","ND","0.4","ND","ND","ND","ND","0","0"],
    [69914,"2018-04-27T21:00:00","ND","ND","ND","ND","ND","0.1","ND","ND","ND","ND","0","0"],
    [69915,"2018-04-27T22:00:00","ND","ND","ND","ND","ND","0.1","ND","ND","ND","ND","0","0"],
    [69916,"2018-04-27T23:00:00","ND","ND","ND","ND","ND","0.1","ND","ND","ND","ND","0","0"],
    [69917,"2018-04-28T00:00:00","ND","ND","ND","ND","ND","0.0","ND","ND","ND","ND","0","0"],
    [69918,"2018-04-28T01:00:00","ND","ND","ND","ND","ND","0.1","ND","ND","ND","ND","0","0"],
    [69919,"2018-04-28T02:00:00","ND","ND","ND","ND","ND","0.1","ND","ND","ND","ND","0","0"],
    [69920,"2018-04-28T03:00:00","ND","ND","ND","ND","ND","0.1","ND","ND","ND","ND","0","0"],
    [69921,"2018-04-28T04:00:00","ND","ND","ND","ND","ND","0.4","ND","ND","ND","ND","0","0"],
    [69922,"2018-04-28T05:00:00","ND","ND","ND","ND","ND","0.8","ND","ND","ND","ND","0","0"],
    [69923,"2018-04-28T06:00:00","ND","ND","ND","ND","ND","0.4","ND","ND","ND","ND","0","0"],
    [69924,"2018-04-28T07:00:00","ND","ND","ND","ND","ND","1.4","ND","ND","ND","ND","35","0"],
    [69925,"2018-04-28T08:00:00","ND","ND","ND","ND","ND","1.8","ND","ND","ND","ND","149","0.25"],
    [69926,"2018-04-28T09:00:00","ND","ND","ND","ND","ND","1.1","ND","ND","ND","ND","326","0"],
    [69927,"2018-04-28T10:00:00","ND","ND","ND","ND","ND","0.6","ND","ND","ND","ND","541","0"],
    [69928,"2018-04-28T11:00:00","ND","ND","ND","ND","ND","0.6","ND","ND","ND","ND","653","0"],
    [69929,"2018-04-28T12:00:00","ND","ND","ND","ND","ND","0.1","ND","ND","ND","ND","664","0"],
    [69930,"2018-04-28T13:00:00","ND","ND","ND","ND","ND","0.4","ND","ND","ND","ND","665","0"],
    [69931,"2018-04-28T14:00:00","ND","ND","ND","ND","ND","0.4","ND","ND","ND","ND","526","0"],
    [69932,"2018-04-28T15:00:00","ND","ND","ND","ND","ND","0.1","ND","ND","ND","ND","199","0.51"],
    [69933,"2018-04-28T16:00:00","ND","ND","ND","ND","ND","0.1","ND","ND","ND","ND","618","0"],
    [69934,"2018-04-28T17:00:00","ND","ND","ND","ND","ND","0.3","ND","ND","ND","ND","382","0"],
    [69935,"2018-04-28T18:00:00","ND","ND","ND","ND","ND","0.1","ND","ND","ND","ND","120","0"],
    [69936,"2018-04-28T19:00:00","ND","ND","ND","ND","ND","0.7","ND","ND","ND","ND","3","0.25"],
    [69937,"2018-04-28T20:00:00","ND","ND","ND","ND","ND","0.3","ND","ND","ND","ND","0","0"],
    [69938,"2018-04-28T21:00:00","ND","ND","ND","ND","ND","0.1","ND","ND","ND","ND","0","0"],
    [69939,"2018-04-28T22:00:00","ND","ND","ND","ND","ND","0.0","ND","ND","ND","ND","0","0"],
    [69940,"2018-04-28T23:00:00","ND","ND","ND","ND","ND","0.4","ND","ND","ND","ND","0","0"],
    [69941,"2018-04-29T00:00:00","ND","ND","ND","ND","ND","0.1","ND","ND","ND","ND","0","0"],
    [69942,"2018-04-29T01:00:00","ND","ND","ND","ND","ND","1.8","ND","ND","ND","ND","0","0"],
    [69943,"2018-04-29T02:00:00","ND","ND","ND","ND","ND","3.2","ND","ND","ND","ND","0","0"],
    [69944,"2018-04-29T03:00:00","ND","ND","ND","ND","ND","3.9","ND","ND","ND","ND","0","0"],
    [69945,"2018-04-29T04:00:00","ND","ND","ND","ND","ND","2.0","ND","ND","ND","ND","0","0"],
    [69946,"2018-04-29T05:00:00","ND","ND","ND","ND","ND","1.8","ND","ND","ND","ND","0","0"],
    [69947,"2018-04-29T06:00:00","ND","ND","ND","ND","ND","1.1","ND","ND","ND","ND","1","0"],
    [69948,"2018-04-29T07:00:00","ND","ND","ND","ND","ND","8.5","ND","ND","ND","ND","73","0"],
    [69949,"2018-04-29T08:00:00","ND","ND","ND","ND","ND","6.7","ND","ND","ND","ND","84","0"],
    [69950,"2018-04-29T09:00:00","ND","ND","ND","ND","ND","1.4","ND","ND","ND","ND","30","17.02"],
    [69951,"2018-04-29T10:00:00","ND","ND","ND","ND","ND","0.3","ND","ND","ND","ND","165","7.87"],
    [69952,"2018-04-29T11:00:00","ND","ND","ND","ND","ND","0.1","ND","ND","ND","ND","556","0"],
    [69953,"2018-04-29T12:00:00","ND","ND","ND","ND","ND","0.1","ND","ND","ND","ND","664","0"],
    [69954,"2018-04-29T13:00:00","ND","ND","ND","ND","ND","0.3","ND","ND","ND","ND","651","0"],
    [69955,"2018-04-29T14:00:00","ND","ND","ND","ND","ND","0.3","ND","ND","ND","ND","542","0"],
    [69956,"2018-04-29T15:00:00","ND","ND","ND","ND","ND","0.1","ND","ND","ND","ND","383","0.25"],
    [69957,"2018-04-29T16:00:00","ND","ND","ND","ND","ND","0.1","ND","ND","ND","ND","468","0"],
    [69958,"2018-04-29T17:00:00","ND","ND","ND","ND","ND","0.0","ND","ND","ND","ND","253","0"],
    [69959,"2018-04-29T18:00:00","ND","ND","ND","ND","ND","0.1","ND","ND","ND","ND","89","0"],
    [69960,"2018-04-29T19:00:00","ND","ND","ND","ND","ND","0.0","ND","ND","ND","ND","2","0"],
    [69961,"2018-04-29T20:00:00","ND","ND","ND","ND","ND","0.0","ND","ND","ND","ND","0","0"],
    [69962,"2018-04-29T21:00:00","ND","ND","ND","ND","ND","0.1","ND","ND","ND","ND","0","0"],
    [69963,"2018-04-29T22:00:00","ND","ND","ND","ND","ND","0.1","ND","ND","ND","ND","0","0"],
    [69964,"2018-04-29T23:00:00","ND","ND","ND","ND","ND","0.0","ND","ND","ND","ND","0","0"],
    [69965,"2018-04-30T00:00:00","ND","ND","ND","ND","ND","0.1","ND","ND","ND","ND","0","0"],
    [69966,"2018-04-30T01:00:00","ND","ND","ND","ND","ND","0.1","ND","ND","ND","ND","0","0"],
    [69967,"2018-04-30T02:00:00","ND","ND","ND","ND","ND","0.4","ND","ND","ND","ND","0","0"],
    [69968,"2018-04-30T03:00:00","ND","ND","ND","ND","ND","2.1","ND","ND","ND","ND","0","0"],
    [69969,"2018-04-30T04:00:00","ND","ND","ND","ND","ND","2.2","ND","ND","ND","ND","0","0"],
    [69970,"2018-04-30T05:00:00","ND","ND","ND","ND","ND","1.3","ND","ND","ND","ND","0","0"],
    [69971,"2018-04-30T06:00:00","ND","ND","ND","ND","ND","1.1","ND","ND","ND","ND","1","0"],
    [69972,"2018-04-30T07:00:00","ND","ND","ND","ND","ND","0.0","ND","ND","ND","ND","47","0"],
    [69973,"2018-04-30T08:00:00","ND","ND","ND","ND","ND","0.3","ND","ND","ND","ND","388","0"],
    [69974,"2018-04-30T09:00:00","ND","ND","ND","ND","ND","0.1","ND","ND","ND","ND","427","0"],
    [69975,"2018-04-30T10:00:00","ND","ND","ND","ND","ND","0.1","ND","ND","ND","ND","660","0"],
    [69976,"2018-04-30T11:00:00","ND","ND","ND","ND","ND","0.1","ND","ND","ND","ND","659","0"],
    [69977,"2018-04-30T12:00:00","ND","ND","ND","ND","ND","0.6","ND","ND","ND","ND","665","0"],
    [69978,"2018-04-30T13:00:00","ND","ND","ND","ND","ND","0.4","ND","ND","ND","ND","665","0"],
    [69979,"2018-04-30T14:00:00","ND","ND","ND","ND","ND","0.4","ND","ND","ND","ND","665","0"],
    [69980,"2018-04-30T15:00:00","ND","ND","ND","ND","ND","0.3","ND","ND","ND","ND","663","0"],
    [69981,"2018-04-30T16:00:00","ND","ND","ND","ND","ND","0.3","ND","ND","ND","ND","631","0"],
    [69982,"2018-04-30T17:00:00","ND","ND","ND","ND","ND","0.3","ND","ND","ND","ND","448","0"],
    [69983,"2018-04-30T18:00:00","ND","ND","ND","ND","ND","0.1","ND","ND","ND","ND","39","0"],
    [69984,"2018-04-30T19:00:00","ND","ND","ND","ND","ND","0.1","ND","ND","ND","ND","1","0"],
    [69985,"2018-04-30T20:00:00","ND","ND","ND","ND","ND","0.1","ND","ND","ND","ND","0","0"],
    [69986,"2018-04-30T21:00:00","ND","ND","ND","ND","ND","0.1","ND","ND","ND","ND","0","0"],
    [69987,"2018-04-30T22:00:00","ND","ND","ND","ND","ND","0.3","ND","ND","ND","ND","0","0"],
    [69988,"2018-04-30T23:00:00","ND","ND","ND","ND","ND","0.3","ND","ND","ND","ND","0","0"],
    [69989,"2018-05-01T00:00:00","ND","ND","ND","ND","ND","0.1","ND","ND","ND","ND","0","0"],
    [69990,"2018-05-01T01:00:00","ND","ND","ND","ND","ND","0.3","ND","ND","ND","ND","0","0"],
    [69991,"2018-05-01T02:00:00","ND","ND","ND","ND","ND","0.1","ND","ND","ND","ND","0","0"],
    [69992,"2018-05-01T03:00:00","ND","ND","ND","ND","ND","0.0","ND","ND","ND","ND","0","0.25"],
    [69993,"2018-05-01T04:00:00","ND","ND","ND","ND","ND","0.1","ND","ND","ND","ND","0","0"],
    [69994,"2018-05-01T05:00:00","ND","ND","ND","ND","ND","0.3","ND","ND","ND","ND","0","0"],
    [69995,"2018-05-01T06:00:00","ND","ND","ND","ND","ND","0.1","ND","ND","ND","ND","1","0"],
    [69996,"2018-05-01T07:00:00","ND","ND","ND","ND","ND","0.1","ND","ND","ND","ND","71","0"],
    [69997,"2018-05-01T08:00:00","ND","ND","ND","ND","ND","0.3","ND","ND","ND","ND","313","0"],
    [69998,"2018-05-01T09:00:00","ND","ND","ND","ND","ND","0.4","ND","ND","ND","ND","585","0"],
    [69999,"2018-05-01T10:00:00","ND","ND","ND","ND","ND","0.3","ND","ND","ND","ND","664","0"],
    [70000,"2018-05-01T11:00:00","ND","ND","ND","ND","ND","0.3","ND","ND","ND","ND","664","0"],
    [70001,"2018-05-01T12:00:00","ND","ND","ND","ND","ND","0.3","ND","ND","ND","ND","665","0"],
    [70002,"2018-05-01T13:00:00","ND","ND","ND","ND","ND","0.1","ND","ND","ND","ND","665","0"],
    [70003,"2018-05-01T14:00:00","ND","ND","ND","ND","ND","0.1","ND","ND","ND","ND","665","0"],
    [70004,"2018-05-01T15:00:00","ND","ND","ND","ND","ND","0.3","ND","ND","ND","ND","597","0"],
    [70005,"2018-05-01T16:00:00","ND","ND","ND","ND","ND","0.1","ND","ND","ND","ND","273","0"],
    [70006,"2018-05-01T17:00:00","ND","ND","ND","ND","ND","0.1","ND","ND","ND","ND","503","0"],
    [70007,"2018-05-01T18:00:00","ND","ND","ND","ND","ND","0.1","ND","ND","ND","ND","144","0"],
    [70008,"2018-05-01T19:00:00","ND","ND","ND","ND","ND","0.1","ND","ND","ND","ND","4","0"],
    [70009,"2018-05-01T20:00:00","ND","ND","ND","ND","ND","0.1","ND","ND","ND","ND","0","0"],
    [70010,"2018-05-01T21:00:00","ND","ND","ND","ND","ND","0.1","ND","ND","ND","ND","0","0"],
    [70011,"2018-05-01T22:00:00","ND","ND","ND","ND","ND","0.1","ND","ND","ND","ND","0","0"],
    [70012,"2018-05-01T23:00:00","ND","ND","ND","ND","ND","0.1","ND","ND","ND","ND","0","0"],
    [70013,"2018-05-02T00:00:00","ND","ND","ND","ND","ND","0.1","ND","ND","ND","ND","0","0"],
    [70014,"2018-05-02T01:00:00","ND","ND","ND","ND","ND","0.1","ND","ND","ND","ND","0","0"],
    [70015,"2018-05-02T02:00:00","ND","ND","ND","ND","ND","2.2","ND","ND","ND","ND","0","0"],
    [70016,"2018-05-02T03:00:00","ND","ND","ND","ND","ND","2.4","ND","ND","ND","ND","0","0"],
    [70017,"2018-05-02T04:00:00","ND","ND","ND","ND","ND","0.6","ND","ND","ND","ND","0","0"],
    [70018,"2018-05-02T05:00:00","ND","ND","ND","ND","ND","0.7","ND","ND","ND","ND","0","0"],
    [70019,"2018-05-02T06:00:00","ND","ND","ND","ND","ND","1.1","ND","ND","ND","ND","1","0"],
    [70020,"2018-05-02T07:00:00","ND","ND","ND","ND","ND","1.1","ND","ND","ND","ND","40","0"],
    [70021,"2018-05-02T08:00:00","ND","ND","ND","ND","ND","0.7","ND","ND","ND","ND","254","0"],
    [70022,"2018-05-02T09:00:00","ND","ND","ND","ND","ND","0.7","ND","ND","ND","ND","643","0"],
    [70023,"2018-05-02T10:00:00","ND","ND","ND","ND","ND","0.1","ND","ND","ND","ND","664","0"],
    [70024,"2018-05-02T11:00:00","ND","ND","ND","ND","41.1","0.4","ND","ND","ND","ND","665","0"],
    [70025,"2018-05-02T12:00:00","ND","ND","ND","ND","55.7","0.9","ND","ND","ND","ND","667","0"],
    [70026,"2018-05-02T13:00:00","ND","ND","ND","ND","73.3","1.0","ND","ND","ND","ND","668","0"],
    [70027,"2018-05-02T14:00:00","ND","ND","ND","ND","77.2","0.5","ND","ND","ND","ND","668","0"],
    [70028,"2018-05-02T15:00:00","ND","ND","ND","ND","107.4","0.7","ND","ND","ND","ND","667","0"],
    [70029,"2018-05-02T16:00:00","ND","ND","ND","ND","102.3","0.3","ND","ND","ND","ND","644","0"],
    [70030,"2018-05-02T17:00:00","ND","ND","ND","ND","61.0","0.3","ND","ND","ND","ND","545","0"],
    [70031,"2018-05-02T18:00:00","ND","ND","ND","ND","38.6","0.5","ND","ND","ND","ND","63","0"],
    [70032,"2018-05-02T19:00:00","ND","ND","ND","ND","20.3","0.3","ND","ND","ND","ND","0","0"],
    [70033,"2018-05-02T20:00:00","ND","ND","ND","ND","21.7","0.2","ND","ND","ND","ND","0","0"],
    [70034,"2018-05-02T21:00:00","ND","ND","ND","ND","10.6","0.2","ND","ND","ND","ND","0","0"],
    [70035,"2018-05-02T22:00:00","ND","ND","ND","ND","11.0","0.0","ND","ND","ND","ND","0","0"],
    [70036,"2018-05-02T23:00:00","ND","ND","ND","ND","5.7","0.1","ND","ND","ND","ND","0","0"],
    [70037,"2018-05-03T00:00:00","ND","ND","ND","ND","5.5","0.1","ND","ND","ND","ND","0","0"],
    [70038,"2018-05-03T01:00:00","ND","ND","ND","ND","6.5","0.1","ND","ND","ND","ND","0","0"],
    [70039,"2018-05-03T02:00:00","ND","ND","ND","ND","5.4","0.2","ND","ND","ND","ND","0","0"],
    [70040,"2018-05-03T03:00:00","ND","ND","ND","ND","4.5","0.2","ND","ND","ND","ND","0","0"],
    [70041,"2018-05-03T04:00:00","ND","ND","ND","ND","4.7","0.3","ND","ND","ND","ND","0","0"],
    [70042,"2018-05-03T05:00:00","ND","ND","ND","ND","4.7","0.4","ND","ND","ND","ND","0","0"],
    [70043,"2018-05-03T06:00:00","ND","ND","ND","ND","4.4","0.7","ND","ND","ND","ND","0","0"],
    [70044,"2018-05-03T07:00:00","ND","ND","ND","ND","4.6","0.4","ND","ND","ND","ND","132","0"],
    [70045,"2018-05-03T08:00:00","ND","ND","ND","ND","5.8","0.6","ND","ND","ND","ND","589","0"],
    [70046,"2018-05-03T09:00:00","ND","ND","ND","ND","11.0","0.5","ND","ND","ND","ND","609","0"],
    [70047,"2018-05-03T10:00:00","ND","ND","ND","ND","41.8","0.4","ND","ND","ND","ND","665","0"],
    [70048,"2018-05-03T11:00:00","ND","ND","ND","ND","59.1","0.2","ND","ND","ND","ND","666","0"],
    [70049,"2018-05-03T12:00:00","ND","ND","ND","ND","79.6","0.1","ND","ND","ND","ND","666","0"],
    [70050,"2018-05-03T13:00:00","ND","ND","ND","ND","97.7","0.2","ND","ND","ND","ND","666","0"],
    [70051,"2018-05-03T14:00:00","ND","ND","ND","ND","28.3","0.2","ND","ND","ND","ND","293","0"],
    [70052,"2018-05-03T15:00:00","ND","ND","ND","ND","11.6","0.1","ND","ND","ND","ND","112","23.37"],
    [70053,"2018-05-03T16:00:00","ND","ND","ND","ND","6.7","0.2","ND","ND","ND","ND","429","2.29"],
    [70054,"2018-05-03T17:00:00","ND","ND","ND","ND","9.6","1.0","ND","ND","ND","ND","346","0"],
    [70055,"2018-05-03T18:00:00","ND","ND","ND","ND","4.9","0.1","ND","ND","ND","ND","65","0"],
    [70056,"2018-05-03T19:00:00","ND","ND","ND","ND","4.4","0.1","ND","ND","ND","ND","0","0.51"],
    [70057,"2018-05-03T20:00:00","ND","ND","ND","ND","4.1","0.0","ND","ND","ND","ND","0","0"],
    [70058,"2018-05-03T21:00:00","ND","ND","ND","ND","4.0","0.0","ND","ND","ND","ND","0","0"],
    [70059,"2018-05-03T22:00:00","ND","ND","ND","ND","4.0","0.1","ND","ND","ND","ND","0","0"],
    [70060,"2018-05-03T23:00:00","ND","ND","ND","ND","4.1","0.2","ND","ND","ND","ND","0","0"],
    [70061,"2018-05-04T00:00:00","ND","ND","ND","ND","4.1","0.5","ND","ND","ND","ND","0","0"],
    [70062,"2018-05-04T01:00:00","ND","ND","ND","ND","4.2","0.7","ND","ND","ND","ND","0","0"],
    [70063,"2018-05-04T02:00:00","ND","ND","ND","ND","4.3","0.3","ND","ND","ND","ND","0","0"],
    [70064,"2018-05-04T03:00:00","ND","ND","ND","ND","4.2","0.2","ND","ND","ND","ND","0","0"],
    [70065,"2018-05-04T04:00:00","ND","ND","ND","ND","4.3","0.4","ND","ND","ND","ND","0","0"],
    [70066,"2018-05-04T05:00:00","ND","ND","ND","ND","4.4","0.4","ND","ND","ND","ND","0","0"],
    [70067,"2018-05-04T06:00:00","ND","ND","ND","ND","4.5","0.5","ND","ND","ND","ND","0","0"],
    [70068,"2018-05-04T07:00:00","ND","ND","ND","ND","4.3","0.2","ND","ND","ND","ND","93","0"],
    [70069,"2018-05-04T08:00:00","ND","ND","ND","ND","4.6","0.2","ND","ND","ND","ND","535","0"],
    [70070,"2018-05-04T09:00:00","ND","ND","ND","ND","9.0","0.3","ND","ND","ND","ND","652","0"],
    [70071,"2018-05-04T10:00:00","ND","ND","ND","ND","24.4","0.1","ND","ND","ND","ND","665","0"],
    [70072,"2018-05-04T11:00:00","ND","ND","ND","ND","45.2","0.3","ND","ND","ND","ND","665","0"],
    [70073,"2018-05-04T12:00:00","ND","ND","ND","ND","62.5","0.4","ND","ND","ND","ND","665","0"],
    [70074,"2018-05-04T13:00:00","ND","ND","ND","ND","59.7","0.3","ND","ND","ND","ND","665","0"],
    [70075,"2018-05-04T14:00:00","ND","ND","ND","ND","59.8","0.3","ND","ND","ND","ND","657","0"],
    [70076,"2018-05-04T15:00:00","ND","ND","ND","ND","30.4","0.1","ND","ND","ND","ND","665","0"],
    [70077,"2018-05-04T16:00:00","ND","ND","ND","ND","26.5","0.2","ND","ND","ND","ND","665","0"],
    [70078,"2018-05-04T17:00:00","ND","ND","ND","ND","17.3","0.1","ND","ND","ND","ND","302","0"],
    [70079,"2018-05-04T18:00:00","ND","ND","ND","ND","12.3","0.1","ND","ND","ND","ND","67","0"],
    [70080,"2018-05-04T19:00:00","ND","ND","ND","ND","5.6","0.1","ND","ND","ND","ND","0","0"],
    [70081,"2018-05-04T20:00:00","ND","ND","ND","ND","4.6","0.1","ND","ND","ND","ND","0","0"],
    [70082,"2018-05-04T21:00:00","ND","ND","ND","ND","4.2","0.2","ND","ND","ND","ND","0","21.08"],
    [70083,"2018-05-04T22:00:00","ND","ND","ND","ND","4.1","0.2","ND","ND","ND","ND","0","12.7"],
    [70084,"2018-05-04T23:00:00","ND","ND","ND","ND","4.1","0.4","ND","ND","ND","ND","0","0"],
    [70085,"2018-05-05T00:00:00","ND","ND","ND","ND","4.2","0.5","ND","ND","ND","ND","0","0.51"],
    [70086,"2018-05-05T01:00:00","ND","ND","ND","ND","4.0","0.2","ND","ND","ND","ND","0","0.76"],
    [70087,"2018-05-05T02:00:00","ND","ND","ND","ND","3.9","0.5","ND","ND","ND","ND","0","0"],
    [70088,"2018-05-05T03:00:00","ND","ND","ND","ND","4.0","0.3","ND","ND","ND","ND","0","2.29"],
    [70089,"2018-05-05T04:00:00","ND","ND","ND","ND","4.1","0.0","ND","ND","ND","ND","0","2.54"],
    [70090,"2018-05-05T05:00:00","ND","ND","ND","ND","4.8","0.0","ND","ND","ND","ND","0","2.54"],
    [70091,"2018-05-05T06:00:00","ND","ND","ND","ND","4.6","0.2","ND","ND","ND","ND","0","2.29"],
    [70092,"2018-05-05T07:00:00","ND","ND","ND","ND","4.0","0.1","ND","ND","ND","ND","27","0.76"],
    [70093,"2018-05-05T08:00:00","ND","ND","ND","ND","4.0","0.1","ND","ND","ND","ND","99","0"],
    [70094,"2018-05-05T09:00:00","ND","ND","ND","ND","4.2","0.1","ND","ND","ND","ND","263","0"],
    [70095,"2018-05-05T10:00:00","ND","ND","ND","ND","5.6","0.1","ND","ND","ND","ND","604","0"],
    [70096,"2018-05-05T11:00:00","ND","ND","ND","ND","21.2","0.2","ND","ND","ND","ND","664","0"],
    [70097,"2018-05-05T12:00:00","ND","ND","ND","ND","51.1","0.1","ND","ND","ND","ND","665","0"],
    [70098,"2018-05-05T13:00:00","ND","ND","ND","ND","85.8","0.2","ND","ND","ND","ND","665","0"],
    [70099,"2018-05-05T14:00:00","ND","ND","ND","ND","93.1","0.1","ND","ND","ND","ND","665","0.25"],
    [70100,"2018-05-05T15:00:00","ND","ND","ND","ND","54.4","0.1","ND","ND","ND","ND","666","0"],
    [70101,"2018-05-05T16:00:00","ND","ND","ND","ND","32.3","0.2","ND","ND","ND","ND","643","0"],
    [70102,"2018-05-05T17:00:00","ND","ND","ND","ND","24.2","0.3","ND","ND","ND","ND","464","0"],
    [70103,"2018-05-05T18:00:00","ND","ND","ND","ND","22.8","0.9","ND","ND","ND","ND","84","0"],
    [70104,"2018-05-05T19:00:00","ND","ND","ND","ND","7.8","0.2","ND","ND","ND","ND","3","0"],
    [70105,"2018-05-05T20:00:00","ND","ND","ND","ND","4.5","0.1","ND","ND","ND","ND","0","0"],
    [70106,"2018-05-05T21:00:00","ND","ND","ND","ND","4.5","0.0","ND","ND","ND","ND","0","0"],
    [70107,"2018-05-05T22:00:00","ND","ND","ND","ND","4.3","0.1","ND","ND","ND","ND","0","0"],
    [70108,"2018-05-05T23:00:00","ND","ND","ND","ND","4.2","0.2","ND","ND","ND","ND","0","0"],
    [70109,"2018-05-06T00:00:00","ND","ND","ND","ND","4.4","0.5","ND","ND","ND","ND","0","0"],
    [70110,"2018-05-06T01:00:00","ND","ND","ND","ND","4.3","1.0","ND","ND","ND","ND","0","0"],
    [70111,"2018-05-06T02:00:00","ND","ND","ND","ND","4.4","0.5","ND","ND","ND","ND","0","0"],
    [70112,"2018-05-06T03:00:00","ND","ND","ND","ND","4.2","0.3","ND","ND","ND","ND","0","0"],
    [70113,"2018-05-06T04:00:00","ND","ND","ND","ND","5.0","0.3","ND","ND","ND","ND","0","0"],
    [70114,"2018-05-06T05:00:00","ND","ND","ND","ND","5.9","0.2","ND","ND","ND","ND","0","0"],
    [70115,"2018-05-06T06:00:00","ND","ND","ND","ND","5.6","0.2","ND","ND","ND","ND","1","0"],
    [70116,"2018-05-06T07:00:00","ND","ND","ND","ND","4.6","1.0","ND","ND","ND","ND","101","0"],
    [70117,"2018-05-06T08:00:00","ND","ND","ND","ND","5.7","0.7","ND","ND","ND","ND","476","0"],
    [70118,"2018-05-06T09:00:00","ND","ND","ND","ND","13.0","0.4","ND","ND","ND","ND","641","0"],
    [70119,"2018-05-06T10:00:00","ND","ND","ND","ND","23.5","0.3","ND","ND","ND","ND","661","0"],
    [70120,"2018-05-06T11:00:00","ND","ND","ND","ND","29.3","0.2","ND","ND","ND","ND","665","0"],
    [70121,"2018-05-06T12:00:00","ND","ND","ND","ND","45.4","0.1","ND","ND","ND","ND","665","0"],
    [70122,"2018-05-06T13:00:00","ND","ND","ND","ND","45.0","0.1","ND","ND","ND","ND","541","0"],
    [70123,"2018-05-06T14:00:00","ND","ND","ND","ND","16.9","0.1","ND","ND","ND","ND","576","0.25"],
    [70124,"2018-05-06T15:00:00","ND","ND","ND","ND","19.9","0.2","ND","ND","ND","ND","556","0.76"],
    [70125,"2018-05-06T16:00:00","ND","ND","ND","ND","9.3","0.2","ND","ND","ND","ND","78","5.08"],
    [70126,"2018-05-06T17:00:00","ND","ND","ND","ND","6.2","0.1","ND","ND","ND","ND","13","2.03"],
    [70127,"2018-05-06T18:00:00","ND","ND","ND","ND","5.4","0.1","ND","ND","ND","ND","3","2.79"],
    [70128,"2018-05-06T19:00:00","ND","ND","ND","ND","4.5","0.1","ND","ND","ND","ND","0","7.62"],
    [70129,"2018-05-06T20:00:00","ND","ND","ND","ND","4.4","0.1","ND","ND","ND","ND","0","5.33"],
    [70130,"2018-05-06T21:00:00","ND","ND","ND","ND","4.1","0.3","ND","ND","ND","ND","0","2.03"],
    [70131,"2018-05-06T22:00:00","ND","ND","ND","ND","4.0","0.1","ND","ND","ND","ND","0","0.25"],
    [70132,"2018-05-06T23:00:00","ND","ND","ND","ND","4.0","0.0","ND","ND","ND","ND","0","0"],
    [70133,"2018-05-07T00:00:00","ND","ND","ND","ND","4.0","0.1","ND","ND","ND","ND","0","0"],
    [70134,"2018-05-07T01:00:00","ND","ND","ND","ND","4.0","0.0","ND","ND","ND","ND","0","0"],
    [70135,"2018-05-07T02:00:00","ND","ND","ND","ND","4.1","0.0","ND","ND","ND","ND","0","0"],
    [70136,"2018-05-07T03:00:00","ND","ND","ND","ND","4.0","0.0","ND","ND","ND","ND","0","0"],
    [70137,"2018-05-07T04:00:00","ND","ND","ND","ND","4.0","0.1","ND","ND","ND","ND","0","0"],
    [70138,"2018-05-07T05:00:00","ND","ND","ND","ND","ND","0.1","ND","ND","ND","ND","0","0"],
    [70139,"2018-05-07T06:00:00","ND","ND","ND","ND","ND","0.1","ND","ND","ND","ND","1","0"],
    [70140,"2018-05-07T07:00:00","ND","ND","ND","ND","ND","0.1","ND","ND","ND","ND","76","0"],
    [70141,"2018-05-07T08:00:00","ND","ND","ND","ND","ND","0.3","ND","ND","ND","ND","295","0"],
    [70142,"2018-05-07T09:00:00","ND","ND","ND","ND","ND","0.4","ND","ND","ND","ND","557","0"],
    [70143,"2018-05-07T10:00:00","ND","ND","ND","ND","ND","0.3","ND","ND","ND","ND","664","0"],
    [70144,"2018-05-07T11:00:00","ND","ND","ND","ND","ND","0.1","ND","ND","ND","ND","571","0"],
    [70145,"2018-05-07T12:00:00","ND","ND","ND","ND","ND","0.1","ND","ND","ND","ND","662","0"],
    [70146,"2018-05-07T13:00:00","ND","ND","ND","ND","ND","0.1","ND","ND","ND","ND","638","0"],
    [70147,"2018-05-07T14:00:00","ND","ND","ND","ND","ND","0.1","ND","ND","ND","ND","583","0"],
    [70148,"2018-05-07T15:00:00","ND","ND","ND","ND","ND","0.1","ND","ND","ND","ND","213","0"],
    [70149,"2018-05-07T16:00:00","ND","ND","ND","ND","ND","0.1","ND","ND","ND","ND","150","3.56"],
    [70150,"2018-05-07T17:00:00","ND","ND","ND","ND","ND","0.1","ND","ND","ND","ND","214","0.25"],
    [70151,"2018-05-07T18:00:00","ND","ND","ND","ND","ND","0.1","ND","ND","ND","ND","80","0"],
    [70152,"2018-05-07T19:00:00","ND","ND","ND","ND","ND","0.0","ND","ND","ND","ND","1","0"],
    [70153,"2018-05-07T20:00:00","ND","ND","ND","ND","ND","0.1","ND","ND","ND","ND","0","0.25"],
    [70154,"2018-05-07T21:00:00","ND","ND","ND","ND","ND","0.0","ND","ND","ND","ND","0","0.25"],
    [70155,"2018-05-07T22:00:00","ND","ND","ND","ND","ND","0.1","ND","ND","ND","ND","0","2.03"],
    [70156,"2018-05-07T23:00:00","ND","ND","ND","ND","ND","0.1","ND","ND","ND","ND","0","0.51"],
    [70157,"2018-05-08T00:00:00","ND","ND","ND","ND","ND","0.1","ND","ND","ND","ND","0","0"],
    [70158,"2018-05-08T01:00:00","ND","ND","ND","ND","ND","0.1","ND","ND","ND","ND","0","0.76"],
    [70159,"2018-05-08T02:00:00","ND","ND","ND","ND","ND","0.2","ND","ND","ND","ND","0","0.25"],
    [70160,"2018-05-08T03:00:00","ND","ND","ND","ND","ND","0.3","ND","ND","ND","ND","0","0"],
    [70161,"2018-05-08T04:00:00","ND","ND","ND","ND","ND","0.1","ND","ND","ND","ND","0","0"],
    [70162,"2018-05-08T05:00:00","ND","ND","ND","ND","ND","0.1","ND","ND","ND","ND","0","0"],
    [70163,"2018-05-08T06:00:00","ND","ND","ND","ND","ND","0.2","ND","ND","ND","ND","0","0"],
    [70164,"2018-05-08T07:00:00","ND","ND","ND","ND","ND","0.1","ND","ND","ND","ND","35","0.25"],
    [70165,"2018-05-08T08:00:00","ND","ND","ND","ND","ND","0.1","ND","ND","ND","ND","182","0.25"],
    [70166,"2018-05-08T09:00:00","ND","ND","ND","ND","ND","0.2","ND","ND","ND","ND","320","0"],
    [70167,"2018-05-08T10:00:00","ND","ND","ND","ND","ND","0.3","ND","ND","ND","ND","442","0"],
    [70168,"2018-05-08T11:00:00","ND","ND","ND","ND","ND","0.5","ND","ND","ND","ND","449","0"],
    [70169,"2018-05-08T12:00:00","ND","ND","ND","ND","ND","0.4","ND","ND","ND","ND","664","0"],
    [70170,"2018-05-08T13:00:00","ND","ND","ND","ND","ND","0.3","ND","ND","ND","ND","664","0"],
    [70171,"2018-05-08T14:00:00","ND","ND","ND","ND","ND","0.1","ND","ND","ND","ND","665","0"],
    [70172,"2018-05-08T15:00:00","ND","ND","ND","ND","ND","0.1","ND","ND","ND","ND","595","0"],
    [70173,"2018-05-08T16:00:00","ND","ND","ND","ND","ND","0.2","ND","ND","ND","ND","664","0"],
    [70174,"2018-05-08T17:00:00","ND","ND","ND","ND","ND","0.1","ND","ND","ND","ND","504","0"],
    [70175,"2018-05-08T18:00:00","ND","ND","ND","ND","ND","0.0","ND","ND","ND","ND","105","0"],
    [70176,"2018-05-08T19:00:00","ND","ND","ND","ND","ND","0.1","ND","ND","ND","ND","2","0"],
    [70177,"2018-05-08T20:00:00","ND","ND","ND","ND","ND","0.1","ND","ND","ND","ND","0","0"],
    [70178,"2018-05-08T21:00:00","ND","ND","ND","ND","ND","0.1","ND","ND","ND","ND","0","0.25"],
    [70179,"2018-05-08T22:00:00","ND","ND","ND","ND","ND","0.2","ND","ND","ND","ND","0","0.76"],
    [70180,"2018-05-08T23:00:00","ND","ND","ND","ND","ND","0.0","ND","ND","ND","ND","0","0"],
    [70181,"2018-05-09T00:00:00","ND","ND","ND","ND","ND","0.2","ND","ND","ND","ND","0","0"],
    [70182,"2018-05-09T01:00:00","ND","ND","ND","ND","ND","0.1","ND","ND","ND","ND","0","0"],
    [70183,"2018-05-09T02:00:00","ND","ND","ND","ND","ND","0.2","ND","ND","ND","ND","0","0"],
    [70184,"2018-05-09T03:00:00","ND","ND","ND","ND","ND","0.3","ND","ND","ND","ND","0","0.25"],
    [70185,"2018-05-09T04:00:00","ND","ND","ND","ND","ND","0.4","ND","ND","ND","ND","0","0"],
    [70186,"2018-05-09T05:00:00","ND","ND","ND","ND","ND","0.3","ND","ND","ND","ND","0","9.65"],
    [70187,"2018-05-09T06:00:00","ND","ND","ND","ND","ND","0.6","ND","ND","ND","ND","0","26.92"],
    [70188,"2018-05-09T07:00:00","ND","ND","ND","ND","ND","0.3","ND","ND","ND","ND","67","2.03"],
    [70189,"2018-05-09T08:00:00","ND","ND","ND","ND","ND","0.2","ND","ND","ND","ND","322","0.51"],
    [70190,"2018-05-09T09:00:00","ND","ND","ND","ND","ND","0.1","ND","ND","ND","ND","545","0"],
    [70191,"2018-05-09T10:00:00","ND","ND","ND","ND","ND","0.1","ND","ND","ND","ND","664","0"],
    [70192,"2018-05-09T11:00:00","ND","ND","ND","ND","ND","0.1","ND","ND","ND","ND","664","0"],
    [70193,"2018-05-09T12:00:00","ND","ND","ND","ND","ND","ND","ND","ND","ND","ND","666","0"],
    [70194,"2018-05-09T13:00:00","ND","ND","ND","ND","63.0","0.4","ND","ND","ND","ND","663","0"],
    [70195,"2018-05-09T14:00:00","ND","ND","ND","ND","59.1","0.3","ND","ND","ND","ND","654","0"],
    [70196,"2018-05-09T15:00:00","ND","ND","ND","ND","42.8","0.3","ND","ND","ND","ND","326","0.25"],
    [70197,"2018-05-09T16:00:00","ND","ND","ND","ND","8.9","0.1","ND","ND","ND","ND","292","0.25"],
    [70198,"2018-05-09T17:00:00","ND","ND","ND","ND","8.1","0.2","ND","ND","ND","ND","285","0"],
    [70199,"2018-05-09T18:00:00","ND","ND","ND","ND","7.5","0.1","ND","ND","ND","ND","47","0.25"],
    [70200,"2018-05-09T19:00:00","ND","ND","ND","ND","6.5","0.2","ND","ND","ND","ND","2","0"],
    [70201,"2018-05-09T20:00:00","ND","ND","ND","ND","6.5","0.1","ND","ND","ND","ND","0","1.78"],
    [70202,"2018-05-09T21:00:00","ND","ND","ND","ND","4.2","0.2","ND","ND","ND","ND","0","4.57"],
    [70203,"2018-05-09T22:00:00","ND","ND","ND","ND","4.0","0.2","ND","ND","ND","ND","0","0.51"],
    [70204,"2018-05-09T23:00:00","ND","ND","ND","ND","4.0","0.0","ND","ND","ND","ND","0","0"],
    [70205,"2018-05-10T00:00:00","ND","ND","ND","ND","4.3","0.1","ND","ND","ND","ND","0","0"],
    [70206,"2018-05-10T01:00:00","ND","ND","ND","ND","7.7","0.1","ND","ND","ND","ND","0","0"],
    [70207,"2018-05-10T02:00:00","ND","ND","ND","ND","8.0","0.1","ND","ND","ND","ND","0","0"],
    [70208,"2018-05-10T03:00:00","ND","ND","ND","ND","5.2","0.1","ND","ND","ND","ND","0","0"],
    [70209,"2018-05-10T04:00:00","ND","ND","ND","ND","4.2","0.2","ND","ND","ND","ND","0","0"],
    [70210,"2018-05-10T05:00:00","ND","ND","ND","ND","4.0","0.1","ND","ND","ND","ND","0","0"],
    [70211,"2018-05-10T06:00:00","ND","ND","ND","ND","3.9","0.1","ND","ND","ND","ND","0","0"],
    [70212,"2018-05-10T07:00:00","ND","ND","ND","ND","4.2","0.4","ND","ND","ND","ND","62","0"],
    [70213,"2018-05-10T08:00:00","ND","ND","ND","ND","4.9","0.4","ND","ND","ND","ND","413","0"],
    [70214,"2018-05-10T09:00:00","ND","ND","ND","ND","6.6","0.5","ND","ND","ND","ND","550","0.25"],
    [70215,"2018-05-10T10:00:00","ND","ND","ND","ND","16.8","0.3","ND","ND","ND","ND","665","0"],
    [70216,"2018-05-10T11:00:00","ND","ND","ND","ND","23.9","0.2","ND","ND","ND","ND","665","0"],
    [70217,"2018-05-10T12:00:00","ND","ND","ND","ND","32.9","0.1","ND","ND","ND","ND","665","0"],
    [70218,"2018-05-10T13:00:00","ND","ND","ND","ND","41.1","0.2","ND","ND","ND","ND","666","0"],
    [70219,"2018-05-10T14:00:00","ND","ND","ND","ND","56.7","0.0","ND","ND","ND","ND","666","0"],
    [70220,"2018-05-10T15:00:00","ND","ND","ND","ND","ND","ND","ND","ND","ND","ND","ND","ND"],
    [70221,"2018-05-10T16:00:00","ND","ND","ND","ND","ND","ND","ND","ND","ND","ND","ND","ND"],
    [70222,"2018-05-10T17:00:00","ND","ND","ND","ND","ND","ND","ND","ND","ND","ND","ND","ND"],
    [70223,"2018-05-10T18:00:00","ND","ND","ND","ND","ND","ND","ND","ND","ND","ND","ND","ND"],
    [70224,"2018-05-10T19:00:00","ND","ND","ND","ND","ND","ND","ND","ND","ND","ND","ND","ND"],
    [70225,"2018-05-10T20:00:00","ND","ND","ND","ND","ND","ND","ND","ND","ND","ND","ND","ND"],
    [70226,"2018-05-10T21:00:00","ND","ND","ND","ND","ND","ND","ND","ND","ND","ND","ND","ND"],
    [70227,"2018-05-10T22:00:00","ND","ND","ND","ND","ND","ND","ND","ND","ND","ND","ND","ND"],
    [70228,"2018-05-10T23:00:00","ND","ND","ND","ND","ND","ND","ND","ND","ND","ND","ND","ND"],
    [70229,"2018-05-11T00:00:00","ND","ND","ND","ND","ND","ND","ND","ND","ND","ND","ND","ND"],
    [70230,"2018-05-11T01:00:00","ND","ND","ND","ND","ND","ND","ND","ND","ND","ND","ND","ND"],
    [70231,"2018-05-11T02:00:00","ND","ND","ND","ND","ND","ND","ND","ND","ND","ND","ND","ND"],
    [70232,"2018-05-11T03:00:00","ND","ND","ND","ND","ND","ND","ND","ND","ND","ND","ND","ND"],
    [70233,"2018-05-11T04:00:00","ND","ND","ND","ND","ND","ND","ND","ND","ND","ND","ND","ND"],
    [70234,"2018-05-11T05:00:00","ND","ND","ND","ND","ND","ND","ND","ND","ND","ND","ND","ND"],
    [70235,"2018-05-11T06:00:00","ND","ND","ND","ND","ND","ND","ND","ND","ND","ND","ND","ND"],
    [70236,"2018-05-11T07:00:00","ND","ND","ND","ND","ND","ND","ND","ND","ND","ND","ND","ND"],
    [70237,"2018-05-11T08:00:00","ND","ND","ND","ND","ND","ND","ND","ND","ND","ND","ND","ND"],
    [70238,"2018-05-11T09:00:00","ND","ND","ND","ND","ND","ND","ND","ND","ND","ND","ND","ND"],
    [70239,"2018-05-11T10:00:00","ND","ND","ND","ND","ND","ND","ND","ND","ND","ND","ND","ND"],
    [70240,"2018-05-11T11:00:00","ND","ND","ND","ND","ND","ND","ND","ND","ND","ND","ND","ND"],
    [70241,"2018-05-11T12:00:00","ND","ND","ND","ND","33.1","0.3","ND","ND","ND","ND","658","0"],
    [70242,"2018-05-11T13:00:00","ND","ND","ND","ND","59.5","0.2","ND","ND","ND","ND","660","0"],
    [70243,"2018-05-11T14:00:00","ND","ND","ND","ND","68.2","0.2","ND","ND","ND","ND","666","0"],
    [70244,"2018-05-11T15:00:00","ND","ND","ND","ND","49.0","0.1","ND","ND","ND","ND","658","0"],
    [70245,"2018-05-11T16:00:00","ND","ND","ND","ND","43.2","0.2","ND","ND","ND","ND","270","0"],
    [70246,"2018-05-11T17:00:00","ND","ND","ND","ND","14.2","0.1","ND","ND","ND","ND","170","0"],
    [70247,"2018-05-11T18:00:00","ND","ND","ND","ND","17.6","0.1","ND","ND","ND","ND","233","0"],
    [70248,"2018-05-11T19:00:00","ND","ND","ND","ND","ND","ND","ND","ND","ND","ND","ND","ND"],
    [70249,"2018-05-11T20:00:00","ND","ND","ND","ND","ND","ND","ND","ND","ND","ND","ND","ND"],
    [70250,"2018-05-11T21:00:00","ND","ND","ND","ND","ND","ND","ND","ND","ND","ND","ND","ND"],
    [70251,"2018-05-11T22:00:00","ND","ND","ND","ND","ND","ND","ND","ND","ND","ND","ND","ND"],
    [70252,"2018-05-11T23:00:00","ND","ND","ND","ND","ND","ND","ND","ND","ND","ND","ND","ND"],
    [70253,"2018-05-12T00:00:00","ND","ND","ND","ND","ND","ND","ND","ND","ND","ND","ND","ND"],
    [70254,"2018-05-12T01:00:00","ND","ND","ND","ND","ND","ND","ND","ND","ND","ND","ND","ND"],
    [70255,"2018-05-12T02:00:00","ND","ND","ND","ND","ND","ND","ND","ND","ND","ND","ND","ND"],
    [70256,"2018-05-12T03:00:00","ND","ND","ND","ND","ND","ND","ND","ND","ND","ND","ND","ND"],
    [70257,"2018-05-12T04:00:00","ND","ND","ND","ND","ND","ND","ND","ND","ND","ND","ND","ND"],
    [70258,"2018-05-12T05:00:00","ND","ND","ND","ND","ND","ND","ND","ND","ND","ND","ND","ND"],
    [70259,"2018-05-12T06:00:00","ND","ND","ND","ND","ND","ND","ND","ND","ND","ND","ND","ND"],
    [70260,"2018-05-12T07:00:00","ND","ND","ND","ND","ND","ND","ND","ND","ND","ND","ND","ND"],
    [70261,"2018-05-12T08:00:00","ND","ND","ND","ND","ND","ND","ND","ND","ND","ND","ND","ND"],
    [70262,"2018-05-12T09:00:00","ND","ND","ND","ND","ND","ND","ND","ND","ND","ND","ND","ND"],
    [70263,"2018-05-12T10:00:00","ND","ND","ND","ND","ND","ND","ND","ND","ND","ND","ND","ND"],
    [70264,"2018-05-12T11:00:00","ND","ND","ND","ND","ND","ND","ND","ND","ND","ND","ND","ND"],
    [70265,"2018-05-12T12:00:00","ND","ND","ND","ND","ND","ND","ND","ND","ND","ND","ND","ND"],
    [70266,"2018-05-12T13:00:00","ND","ND","ND","ND","ND","ND","ND","ND","ND","ND","ND","ND"],
    [70267,"2018-05-12T14:00:00","ND","ND","ND","ND","ND","ND","ND","ND","ND","ND","ND","ND"],
    [70268,"2018-05-12T15:00:00","ND","ND","ND","ND","ND","ND","ND","ND","ND","ND","ND","ND"],
    [70269,"2018-05-12T16:00:00","ND","ND","ND","ND","ND","ND","ND","ND","ND","ND","ND","ND"],
    [70270,"2018-05-12T17:00:00","ND","ND","ND","ND","ND","ND","ND","ND","ND","ND","ND","ND"],
    [70271,"2018-05-12T18:00:00","ND","ND","ND","ND","ND","ND","ND","ND","ND","ND","ND","ND"],
    [70272,"2018-05-12T19:00:00","ND","ND","ND","ND","ND","ND","ND","ND","ND","ND","ND","ND"],
    [70273,"2018-05-12T20:00:00","ND","ND","ND","ND","ND","ND","ND","ND","ND","ND","ND","ND"],
    [70274,"2018-05-12T21:00:00","ND","ND","ND","ND","ND","ND","ND","ND","ND","ND","ND","ND"],
    [70275,"2018-05-12T22:00:00","ND","ND","ND","ND","ND","ND","ND","ND","ND","ND","ND","ND"],
    [70276,"2018-05-12T23:00:00","ND","ND","ND","ND","ND","ND","ND","ND","ND","ND","ND","ND"],
    [70277,"2018-05-13T00:00:00","ND","ND","ND","ND","ND","ND","ND","ND","ND","ND","ND","ND"],
    [70278,"2018-05-13T01:00:00","ND","ND","ND","ND","ND","ND","ND","ND","ND","ND","ND","ND"],
    [70279,"2018-05-13T02:00:00","ND","ND","ND","ND","ND","ND","ND","ND","ND","ND","ND","ND"],
    [70280,"2018-05-13T03:00:00","ND","ND","ND","ND","ND","ND","ND","ND","ND","ND","ND","ND"],
    [70281,"2018-05-13T04:00:00","ND","ND","ND","ND","ND","ND","ND","ND","ND","ND","ND","ND"],
    [70282,"2018-05-13T05:00:00","ND","ND","ND","ND","ND","ND","ND","ND","ND","ND","ND","ND"],
    [70283,"2018-05-13T06:00:00","ND","ND","ND","ND","ND","ND","ND","ND","ND","ND","ND","ND"],
    [70284,"2018-05-13T07:00:00","ND","ND","ND","ND","ND","ND","ND","ND","ND","ND","ND","ND"],
    [70285,"2018-05-13T08:00:00","ND","ND","ND","ND","ND","ND","ND","ND","ND","ND","ND","ND"],
    [70286,"2018-05-13T09:00:00","ND","ND","ND","ND","ND","ND","ND","ND","ND","ND","ND","ND"],
    [70287,"2018-05-13T10:00:00","ND","ND","ND","ND","ND","ND","ND","ND","ND","ND","ND","ND"],
    [70288,"2018-05-13T11:00:00","ND","ND","ND","ND","ND","ND","ND","ND","ND","ND","ND","ND"],
    [70289,"2018-05-13T12:00:00","ND","ND","ND","ND","ND","ND","ND","ND","ND","ND","ND","ND"],
    [70290,"2018-05-13T13:00:00","ND","ND","ND","ND","ND","ND","ND","ND","ND","ND","ND","ND"],
    [70291,"2018-05-13T14:00:00","ND","ND","ND","ND","ND","ND","ND","ND","ND","ND","ND","ND"],
    [70292,"2018-05-13T15:00:00","ND","ND","ND","ND","ND","ND","ND","ND","ND","ND","ND","ND"],
    [70293,"2018-05-13T16:00:00","ND","ND","ND","ND","ND","ND","ND","ND","ND","ND","ND","ND"],
    [70294,"2018-05-13T17:00:00","ND","ND","ND","ND","ND","ND","ND","ND","ND","ND","ND","ND"],
    [70295,"2018-05-13T18:00:00","ND","ND","ND","ND","ND","ND","ND","ND","ND","ND","ND","ND"],
    [70296,"2018-05-13T19:00:00","ND","ND","ND","ND","ND","ND","ND","ND","ND","ND","ND","ND"],
    [70297,"2018-05-13T20:00:00","ND","ND","ND","ND","ND","ND","ND","ND","ND","ND","ND","ND"],
    [70298,"2018-05-13T21:00:00","ND","ND","ND","ND","ND","ND","ND","ND","ND","ND","ND","ND"],
    [70299,"2018-05-13T22:00:00","ND","ND","ND","ND","ND","ND","ND","ND","ND","ND","ND","ND"],
    [70300,"2018-05-13T23:00:00","ND","ND","ND","ND","ND","ND","ND","ND","ND","ND","ND","ND"],
    [70301,"2018-05-14T00:00:00","ND","ND","ND","ND","ND","ND","ND","ND","ND","ND","ND","ND"],
    [70302,"2018-05-14T01:00:00","ND","ND","ND","ND","ND","ND","ND","ND","ND","ND","ND","ND"],
    [70303,"2018-05-14T02:00:00","ND","ND","ND","ND","ND","ND","ND","ND","ND","ND","ND","ND"],
    [70304,"2018-05-14T03:00:00","ND","ND","ND","ND","ND","ND","ND","ND","ND","ND","ND","ND"],
    [70305,"2018-05-14T04:00:00","ND","ND","ND","ND","ND","ND","ND","ND","ND","ND","ND","ND"],
    [70306,"2018-05-14T05:00:00","ND","ND","ND","ND","ND","ND","ND","ND","ND","ND","ND","ND"],
    [70307,"2018-05-14T06:00:00","ND","ND","ND","ND","ND","ND","ND","ND","ND","ND","ND","ND"],
    [70308,"2018-05-14T07:00:00","ND","ND","ND","ND","ND","ND","ND","ND","ND","ND","ND","ND"],
    [70309,"2018-05-14T08:00:00","ND","ND","ND","ND","ND","ND","ND","ND","ND","ND","ND","ND"],
    [70310,"2018-05-14T09:00:00","ND","ND","ND","ND","ND","ND","ND","ND","ND","ND","ND","ND"],
    [70311,"2018-05-14T10:00:00","ND","ND","ND","ND","ND","ND","ND","ND","ND","ND","ND","ND"],
    [70312,"2018-05-14T11:00:00","ND","ND","ND","ND","ND","ND","ND","ND","ND","ND","ND","ND"],
    [70313,"2018-05-14T12:00:00","ND","ND","ND","ND","ND","ND","ND","ND","ND","ND","ND","ND"],
    [70314,"2018-05-14T13:00:00","ND","ND","ND","ND","ND","ND","ND","ND","ND","ND","ND","ND"],
    [70315,"2018-05-14T14:00:00","ND","ND","ND","ND","ND","ND","ND","ND","ND","ND","ND","ND"],
    [70316,"2018-05-14T15:00:00","ND","ND","ND","ND","ND","ND","ND","ND","ND","ND","ND","ND"],
    [70317,"2018-05-14T16:00:00","ND","ND","ND","ND","ND","ND","ND","ND","ND","ND","ND","ND"],
    [70318,"2018-05-14T17:00:00","ND","ND","ND","ND","ND","ND","ND","ND","ND","ND","ND","ND"],
    [70319,"2018-05-14T18:00:00","ND","ND","ND","ND","ND","ND","ND","ND","ND","ND","ND","ND"],
    [70320,"2018-05-14T19:00:00","ND","ND","ND","ND","ND","ND","ND","ND","ND","ND","ND","ND"],
    [70321,"2018-05-14T20:00:00","ND","ND","ND","ND","ND","ND","ND","ND","ND","ND","ND","ND"],
    [70322,"2018-05-14T21:00:00","ND","ND","ND","ND","ND","ND","ND","ND","ND","ND","ND","ND"],
    [70323,"2018-05-14T22:00:00","ND","ND","ND","ND","ND","ND","ND","ND","ND","ND","ND","ND"],
    [70324,"2018-05-14T23:00:00","ND","ND","ND","ND","ND","ND","ND","ND","ND","ND","ND","ND"],
    [70325,"2018-05-15T00:00:00","ND","ND","ND","ND","ND","ND","ND","ND","ND","ND","ND","ND"],
    [70326,"2018-05-15T01:00:00","ND","ND","ND","ND","ND","ND","ND","ND","ND","ND","ND","ND"],
    [70327,"2018-05-15T02:00:00","ND","ND","ND","ND","ND","ND","ND","ND","ND","ND","ND","ND"],
    [70328,"2018-05-15T03:00:00","ND","ND","ND","ND","ND","ND","ND","ND","ND","ND","ND","ND"],
    [70329,"2018-05-15T04:00:00","ND","ND","ND","ND","ND","ND","ND","ND","ND","ND","ND","ND"],
    [70330,"2018-05-15T05:00:00","ND","ND","ND","ND","ND","ND","ND","ND","ND","ND","ND","ND"],
    [70331,"2018-05-15T06:00:00","ND","ND","ND","ND","ND","ND","ND","ND","ND","ND","ND","ND"],
    [70332,"2018-05-15T07:00:00","ND","ND","ND","ND","ND","ND","ND","ND","ND","ND","ND","ND"],
    [70333,"2018-05-15T08:00:00","ND","ND","ND","ND","ND","ND","ND","ND","ND","ND","ND","ND"],
    [70334,"2018-05-15T09:00:00","ND","ND","ND","ND","ND","ND","ND","ND","ND","ND","ND","ND"],
    [70335,"2018-05-15T10:00:00","ND","ND","ND","ND","ND","ND","ND","ND","ND","ND","ND","ND"],
    [70336,"2018-05-15T11:00:00","ND","ND","ND","ND","9.7","0.4","ND","ND","ND","ND","665","0"],
    [70337,"2018-05-15T12:00:00","ND","ND","ND","ND","16.8","0.3","ND","ND","ND","ND","665","0"],
    [70338,"2018-05-15T13:00:00","ND","ND","ND","ND","25.4","0.7","ND","ND","ND","ND","666","0"],
    [70339,"2018-05-15T14:00:00","ND","ND","ND","ND","ND","ND","ND","ND","ND","ND","ND","ND"],
    [70340,"2018-05-15T15:00:00","ND","ND","ND","ND","ND","ND","ND","ND","ND","ND","ND","ND"],
    [70341,"2018-05-15T16:00:00","ND","ND","ND","ND","ND","ND","ND","ND","ND","ND","ND","ND"],
    [70342,"2018-05-15T17:00:00","ND","ND","ND","ND","ND","ND","ND","ND","ND","ND","ND","ND"],
    [70343,"2018-05-15T18:00:00","ND","ND","ND","ND","ND","ND","ND","ND","ND","ND","ND","ND"],
    [70344,"2018-05-15T19:00:00","ND","ND","ND","ND","ND","ND","ND","ND","ND","ND","ND","ND"],
    [70345,"2018-05-15T20:00:00","ND","ND","ND","ND","ND","ND","ND","ND","ND","ND","ND","ND"],
    [70346,"2018-05-15T21:00:00","ND","ND","ND","ND","ND","ND","ND","ND","ND","ND","ND","ND"],
    [70347,"2018-05-15T22:00:00","ND","ND","ND","ND","ND","ND","ND","ND","ND","ND","ND","ND"],
    [70348,"2018-05-15T23:00:00","ND","ND","ND","ND","ND","ND","ND","ND","ND","ND","ND","ND"],
    [70349,"2018-05-16T00:00:00","ND","ND","ND","ND","ND","ND","ND","ND","ND","ND","ND","ND"],
    [70350,"2018-05-16T01:00:00","ND","ND","ND","ND","ND","ND","ND","ND","ND","ND","ND","ND"],
    [70351,"2018-05-16T02:00:00","ND","ND","ND","ND","ND","ND","ND","ND","ND","ND","ND","ND"],
    [70352,"2018-05-16T03:00:00","ND","ND","ND","ND","ND","ND","ND","ND","ND","ND","ND","ND"],
    [70353,"2018-05-16T04:00:00","ND","ND","ND","ND","ND","ND","ND","ND","ND","ND","ND","ND"],
    [70354,"2018-05-16T05:00:00","ND","ND","ND","ND","ND","ND","ND","ND","ND","ND","ND","ND"],
    [70355,"2018-05-16T06:00:00","ND","ND","ND","ND","ND","ND","ND","ND","ND","ND","ND","ND"],
    [70356,"2018-05-16T07:00:00","ND","ND","ND","ND","ND","ND","ND","ND","ND","ND","ND","ND"],
    [70357,"2018-05-16T08:00:00","ND","ND","ND","ND","ND","ND","ND","ND","ND","ND","ND","ND"],
    [70358,"2018-05-16T09:00:00","ND","ND","ND","ND","ND","ND","ND","ND","ND","ND","ND","ND"],
    [70359,"2018-05-16T10:00:00","ND","ND","ND","ND","ND","ND","ND","ND","ND","ND","ND","ND"],
    [70360,"2018-05-16T11:00:00","ND","ND","ND","ND","ND","ND","ND","ND","ND","ND","ND","ND"],
    [70361,"2018-05-16T12:00:00","ND","ND","ND","ND","ND","ND","ND","ND","ND","ND","ND","ND"],
    [70362,"2018-05-16T13:00:00","ND","ND","ND","ND","ND","ND","ND","ND","ND","ND","ND","ND"],
    [70363,"2018-05-16T14:00:00","ND","ND","ND","ND","ND","ND","ND","ND","ND","ND","ND","ND"],
    [70364,"2018-05-16T15:00:00","ND","ND","ND","ND","ND","ND","ND","ND","ND","ND","ND","ND"],
    [70365,"2018-05-16T16:00:00","ND","ND","ND","ND","ND","ND","ND","ND","ND","ND","ND","ND"],
    [70366,"2018-05-16T17:00:00","ND","ND","ND","ND","ND","ND","ND","ND","ND","ND","ND","ND"],
    [70367,"2018-05-16T18:00:00","ND","ND","ND","ND","ND","ND","ND","ND","ND","ND","ND","ND"],
    [70368,"2018-05-16T19:00:00","ND","ND","ND","ND","ND","ND","ND","ND","ND","ND","ND","ND"],
    [70369,"2018-05-16T20:00:00","ND","ND","ND","ND","ND","ND","ND","ND","ND","ND","ND","ND"],
    [70370,"2018-05-16T21:00:00","ND","ND","ND","ND","ND","ND","ND","ND","ND","ND","ND","ND"],
    [70371,"2018-05-16T22:00:00","ND","ND","ND","ND","ND","ND","ND","ND","ND","ND","ND","ND"],
    [70372,"2018-05-16T23:00:00","ND","ND","ND","ND","ND","ND","ND","ND","ND","ND","ND","ND"],
    [70373,"2018-05-17T00:00:00","ND","ND","ND","ND","ND","ND","ND","ND","ND","ND","ND","ND"],
    [70374,"2018-05-17T01:00:00","ND","ND","ND","ND","ND","ND","ND","ND","ND","ND","ND","ND"],
    [70375,"2018-05-17T02:00:00","ND","ND","ND","ND","ND","ND","ND","ND","ND","ND","ND","ND"],
    [70376,"2018-05-17T03:00:00","ND","ND","ND","ND","ND","ND","ND","ND","ND","ND","ND","ND"],
    [70377,"2018-05-17T04:00:00","ND","ND","ND","ND","ND","ND","ND","ND","ND","ND","ND","ND"],
    [70378,"2018-05-17T05:00:00","ND","ND","ND","ND","ND","ND","ND","ND","ND","ND","ND","ND"],
    [70379,"2018-05-17T06:00:00","ND","ND","ND","ND","ND","ND","ND","ND","ND","ND","ND","ND"],
    [70380,"2018-05-17T07:00:00","ND","ND","ND","ND","ND","ND","ND","ND","ND","ND","ND","ND"],
    [70381,"2018-05-17T08:00:00","ND","ND","ND","ND","ND","ND","ND","ND","ND","ND","ND","ND"],
    [70382,"2018-05-17T09:00:00","ND","ND","ND","ND","ND","ND","ND","ND","ND","ND","ND","ND"],
    [70383,"2018-05-17T10:00:00","ND","ND","ND","ND","ND","ND","ND","ND","ND","ND","ND","ND"],
    [70384,"2018-05-17T11:00:00","ND","ND","ND","ND","ND","0.3","ND","ND","ND","ND","665","0"],
    [70385,"2018-05-17T12:00:00","ND","ND","ND","ND","ND","0.1","ND","ND","ND","ND","665","0"],
    [70386,"2018-05-17T13:00:00","ND","ND","ND","ND","ND","0.3","ND","ND","ND","ND","665","0"],
    [70387,"2018-05-17T14:00:00","ND","ND","ND","ND","ND","0.3","ND","ND","ND","ND","665","0"],
    [70388,"2018-05-17T15:00:00","ND","ND","ND","ND","ND","0.3","ND","ND","ND","ND","663","0"],
    [70389,"2018-05-17T16:00:00","ND","ND","ND","ND","ND","0.1","ND","ND","ND","ND","645","0"],
    [70390,"2018-05-17T17:00:00","ND","ND","ND","ND","ND","0.1","ND","ND","ND","ND","461","0"],
    [70391,"2018-05-17T18:00:00","ND","ND","ND","ND","ND","0.1","ND","ND","ND","ND","106","0"],
    [70392,"2018-05-17T19:00:00","ND","ND","ND","ND","ND","0.1","ND","ND","ND","ND","5","0"],
    [70393,"2018-05-17T20:00:00","ND","ND","ND","ND","ND","0.1","ND","ND","ND","ND","0","0"],
    [70394,"2018-05-17T21:00:00","ND","ND","ND","ND","ND","0.1","ND","ND","ND","ND","0","0"],
    [70395,"2018-05-17T22:00:00","ND","ND","ND","ND","ND","0.3","ND","ND","ND","ND","0","0.25"],
    [70396,"2018-05-17T23:00:00","ND","ND","ND","ND","ND","0.3","ND","ND","ND","ND","0","0.51"],
    [70397,"2018-05-18T00:00:00","ND","ND","ND","ND","ND","0.4","ND","ND","ND","ND","0","0"],
    [70398,"2018-05-18T01:00:00","ND","ND","ND","ND","ND","0.3","ND","ND","ND","ND","0","0"],
    [70399,"2018-05-18T02:00:00","ND","ND","ND","ND","ND","0.4","ND","ND","ND","ND","0","0"],
    [70400,"2018-05-18T03:00:00","ND","ND","ND","ND","ND","0.4","ND","ND","ND","ND","0","4.06"],
    [70401,"2018-05-18T04:00:00","ND","ND","ND","ND","ND","0.1","ND","ND","ND","ND","0","1.27"],
    [70402,"2018-05-18T05:00:00","ND","ND","ND","ND","ND","0.1","ND","ND","ND","ND","0","0"],
    [70403,"2018-05-18T06:00:00","ND","ND","ND","ND","ND","0.4","ND","ND","ND","ND","1","0.25"],
    [70404,"2018-05-18T07:00:00","ND","ND","ND","ND","ND","0.6","ND","ND","ND","ND","69","0"],
    [70405,"2018-05-18T08:00:00","ND","ND","ND","ND","ND","0.1","ND","ND","ND","ND","202","0"],
    [70406,"2018-05-18T09:00:00","ND","ND","ND","ND","ND","0.3","ND","ND","ND","ND","541","0"],
    [70407,"2018-05-18T10:00:00","ND","ND","ND","ND","ND","0.3","ND","ND","ND","ND","664","0"],
    [70408,"2018-05-18T11:00:00","ND","ND","ND","ND","ND","0.4","ND","ND","ND","ND","664","0"],
    [70409,"2018-05-18T12:00:00","ND","ND","ND","ND","ND","0.1","ND","ND","ND","ND","665","0"],
    [70410,"2018-05-18T13:00:00","ND","ND","ND","ND","ND","0.1","ND","ND","ND","ND","665","0"],
    [70411,"2018-05-18T14:00:00","ND","ND","ND","ND","ND","0.1","ND","ND","ND","ND","665","0"],
    [70412,"2018-05-18T15:00:00","ND","ND","ND","ND","ND","0.3","ND","ND","ND","ND","559","0"],
    [70413,"2018-05-18T16:00:00","ND","ND","ND","ND","ND","0.1","ND","ND","ND","ND","28","21.08"],
    [70414,"2018-05-18T17:00:00","ND","ND","ND","ND","ND","0.0","ND","ND","ND","ND","15","7.87"],
    [70415,"2018-05-18T18:00:00","ND","ND","ND","ND","ND","0.1","ND","ND","ND","ND","7","1.27"],
    [70416,"2018-05-18T19:00:00","ND","ND","ND","ND","ND","0.1","ND","ND","ND","ND","0","3.3"],
    [70417,"2018-05-18T20:00:00","ND","ND","ND","ND","ND","0.3","ND","ND","ND","ND","0","1.78"],
    [70418,"2018-05-18T21:00:00","ND","ND","ND","ND","ND","0.6","ND","ND","ND","ND","0","0"],
    [70419,"2018-05-18T22:00:00","ND","ND","ND","ND","ND","0.1","ND","ND","ND","ND","0","0"],
    [70420,"2018-05-18T23:00:00","ND","ND","ND","ND","ND","0.1","ND","ND","ND","ND","0","0.25"],
    [70421,"2018-05-19T00:00:00","ND","ND","ND","ND","ND","0.0","ND","ND","ND","ND","0","0"],
    [70422,"2018-05-19T01:00:00","ND","ND","ND","ND","ND","0.3","ND","ND","ND","ND","0","0"],
    [70423,"2018-05-19T02:00:00","ND","ND","ND","ND","ND","0.6","ND","ND","ND","ND","0","0"],
    [70424,"2018-05-19T03:00:00","ND","ND","ND","ND","ND","0.6","ND","ND","ND","ND","0","0"],
    [70425,"2018-05-19T04:00:00","ND","ND","ND","ND","ND","3.6","ND","ND","ND","ND","0","0"],
    [70426,"2018-05-19T05:00:00","ND","ND","ND","ND","ND","2.9","ND","ND","ND","ND","0","0"],
    [70427,"2018-05-19T06:00:00","ND","ND","ND","ND","ND","1.4","ND","ND","ND","ND","0","0"],
    [70428,"2018-05-19T07:00:00","ND","ND","ND","ND","ND","1.1","ND","ND","ND","ND","41","0"],
    [70429,"2018-05-19T08:00:00","ND","ND","ND","ND","ND","0.3","ND","ND","ND","ND","188","0"],
    [70430,"2018-05-19T09:00:00","ND","ND","ND","ND","ND","0.6","ND","ND","ND","ND","360","0"],
    [70431,"2018-05-19T10:00:00","ND","ND","ND","ND","ND","0.4","ND","ND","ND","ND","644","0"],
    [70432,"2018-05-19T11:00:00","ND","ND","ND","ND","ND","0.4","ND","ND","ND","ND","657","0"],
    [70433,"2018-05-19T12:00:00","ND","ND","ND","ND","ND","0.3","ND","ND","ND","ND","665","0"],
    [70434,"2018-05-19T13:00:00","ND","ND","ND","ND","ND","0.3","ND","ND","ND","ND","665","0"],
    [70435,"2018-05-19T14:00:00","ND","ND","ND","ND","ND","0.3","ND","ND","ND","ND","665","0"],
    [70436,"2018-05-19T15:00:00","ND","ND","ND","ND","ND","0.1","ND","ND","ND","ND","638","0"],
    [70437,"2018-05-19T16:00:00","ND","ND","ND","ND","ND","0.1","ND","ND","ND","ND","536","0"],
    [70438,"2018-05-19T17:00:00","ND","ND","ND","ND","ND","0.1","ND","ND","ND","ND","631","0"],
    [70439,"2018-05-19T18:00:00","ND","ND","ND","ND","ND","0.1","ND","ND","ND","ND","82","0"],
    [70440,"2018-05-19T19:00:00","ND","ND","ND","ND","ND","0.1","ND","ND","ND","ND","3","0"],
    [70441,"2018-05-19T20:00:00","ND","ND","ND","ND","ND","0.0","ND","ND","ND","ND","0","0"],
    [70442,"2018-05-19T21:00:00","ND","ND","ND","ND","ND","0.0","ND","ND","ND","ND","0","0"],
    [70443,"2018-05-19T22:00:00","ND","ND","ND","ND","ND","0.1","ND","ND","ND","ND","0","0"],
    [70444,"2018-05-19T23:00:00","ND","ND","ND","ND","ND","0.4","ND","ND","ND","ND","0","0"],
    [70445,"2018-05-20T00:00:00","ND","ND","ND","ND","ND","0.6","ND","ND","ND","ND","0","0"],
    [70446,"2018-05-20T01:00:00","ND","ND","ND","ND","ND","0.6","ND","ND","ND","ND","0","0"],
    [70447,"2018-05-20T02:00:00","ND","ND","ND","ND","ND","0.7","ND","ND","ND","ND","0","0"],
    [70448,"2018-05-20T03:00:00","ND","ND","ND","ND","ND","0.3","ND","ND","ND","ND","0","0"],
    [70449,"2018-05-20T04:00:00","ND","ND","ND","ND","ND","0.6","ND","ND","ND","ND","0","0"],
    [70450,"2018-05-20T05:00:00","ND","ND","ND","ND","ND","0.8","ND","ND","ND","ND","0","0"],
    [70451,"2018-05-20T06:00:00","ND","ND","ND","ND","ND","0.4","ND","ND","ND","ND","1","0"],
    [70452,"2018-05-20T07:00:00","ND","ND","ND","ND","ND","0.4","ND","ND","ND","ND","44","0"],
    [70453,"2018-05-20T08:00:00","ND","ND","ND","ND","ND","0.6","ND","ND","ND","ND","362","0"],
    [70454,"2018-05-20T09:00:00","ND","ND","ND","ND","ND","0.6","ND","ND","ND","ND","645","0"],
    [70455,"2018-05-20T10:00:00","ND","ND","ND","ND","ND","0.1","ND","ND","ND","ND","664","0"],
    [70456,"2018-05-20T11:00:00","ND","ND","ND","ND","ND","0.3","ND","ND","ND","ND","650","0"],
    [70457,"2018-05-20T12:00:00","ND","ND","ND","ND","ND","0.0","ND","ND","ND","ND","657","0"],
    [70458,"2018-05-20T13:00:00","ND","ND","ND","ND","ND","0.1","ND","ND","ND","ND","665","0"],
    [70459,"2018-05-20T14:00:00","ND","ND","ND","ND","ND","0.1","ND","ND","ND","ND","661","0"],
    [70460,"2018-05-20T15:00:00","ND","ND","ND","ND","ND","0.1","ND","ND","ND","ND","656","0"],
    [70461,"2018-05-20T16:00:00","ND","ND","ND","ND","ND","0.1","ND","ND","ND","ND","646","0"],
    [70462,"2018-05-20T17:00:00","ND","ND","ND","ND","ND","0.1","ND","ND","ND","ND","424","0"],
    [70463,"2018-05-20T18:00:00","ND","ND","ND","ND","ND","0.1","ND","ND","ND","ND","114","0"],
    [70464,"2018-05-20T19:00:00","ND","ND","ND","ND","ND","0.1","ND","ND","ND","ND","3","0"],
    [70465,"2018-05-20T20:00:00","ND","ND","ND","ND","ND","0.1","ND","ND","ND","ND","0","0"],
    [70466,"2018-05-20T21:00:00","ND","ND","ND","ND","ND","0.1","ND","ND","ND","ND","0","0"],
    [70467,"2018-05-20T22:00:00","ND","ND","ND","ND","ND","0.1","ND","ND","ND","ND","0","0"],
    [70468,"2018-05-20T23:00:00","ND","ND","ND","ND","ND","0.3","ND","ND","ND","ND","0","0"],
    [70469,"2018-05-21T00:00:00","ND","ND","ND","ND","ND","0.1","ND","ND","ND","ND","0","0"],
    [70470,"2018-05-21T01:00:00","ND","ND","ND","ND","ND","0.1","ND","ND","ND","ND","0","0"],
    [70471,"2018-05-21T02:00:00","ND","ND","ND","ND","ND","0.1","ND","ND","ND","ND","0","0"],
    [70472,"2018-05-21T03:00:00","ND","ND","ND","ND","ND","0.3","ND","ND","ND","ND","0","0"],
    [70473,"2018-05-21T04:00:00","ND","ND","ND","ND","ND","0.3","ND","ND","ND","ND","0","0"],
    [70474,"2018-05-21T05:00:00","ND","ND","ND","ND","ND","0.4","ND","ND","ND","ND","0","0"],
    [70475,"2018-05-21T06:00:00","ND","ND","ND","ND","ND","0.3","ND","ND","ND","ND","1","0"],
    [70476,"2018-05-21T07:00:00","ND","ND","ND","ND","ND","0.4","ND","ND","ND","ND","143","0"],
    [70477,"2018-05-21T08:00:00","ND","ND","ND","ND","ND","0.6","ND","ND","ND","ND","275","0"],
    [70478,"2018-05-21T09:00:00","ND","ND","ND","ND","ND","ND","ND","ND","ND","ND","282","0"],
    [70479,"2018-05-21T10:00:00","ND","ND","ND","ND","6.6","ND","ND","ND","ND","ND","639","0"],
    [70480,"2018-05-21T11:00:00","ND","ND","ND","ND","10.5","0.9","ND","ND","ND","ND","659","0"],
    [70481,"2018-05-21T12:00:00","ND","ND","ND","ND","16.1","0.3","ND","ND","ND","ND","651","0"],
    [70482,"2018-05-21T13:00:00","ND","ND","ND","ND","21.1","0.4","ND","ND","ND","ND","638","0"],
    [70483,"2018-05-21T14:00:00","ND","ND","ND","ND","23.6","0.5","ND","ND","ND","ND","571","0"],
    [70484,"2018-05-21T15:00:00","ND","ND","ND","ND","20.8","0.5","ND","ND","ND","ND","480","0.25"],
    [70485,"2018-05-21T16:00:00","ND","ND","ND","ND","23.2","0.4","ND","ND","ND","ND","478","0"],
    [70486,"2018-05-21T17:00:00","ND","ND","ND","ND","20.3","0.4","ND","ND","ND","ND","148","0"],
    [70487,"2018-05-21T18:00:00","ND","ND","ND","ND","12.9","0.5","ND","ND","ND","ND","41","0"],
    [70488,"2018-05-21T19:00:00","ND","ND","ND","ND","4.8","0.2","ND","ND","ND","ND","0","0"],
    [70489,"2018-05-21T20:00:00","ND","ND","ND","ND","4.2","0.1","ND","ND","ND","ND","0","0"],
    [70490,"2018-05-21T21:00:00","ND","ND","ND","ND","4.2","0.2","ND","ND","ND","ND","0","0.25"],
    [70491,"2018-05-21T22:00:00","ND","ND","ND","ND","4.2","0.3","ND","ND","ND","ND","0","0"],
    [70492,"2018-05-21T23:00:00","ND","ND","ND","ND","4.2","0.3","ND","ND","ND","ND","0","0"],
    [70493,"2018-05-22T00:00:00","ND","ND","ND","ND","4.2","0.5","ND","ND","ND","ND","0","0"],
    [70494,"2018-05-22T01:00:00","ND","ND","ND","ND","4.2","0.2","ND","ND","ND","ND","0","0"],
    [70495,"2018-05-22T02:00:00","ND","ND","ND","ND","4.2","0.6","ND","ND","ND","ND","0","0"],
    [70496,"2018-05-22T03:00:00","ND","ND","ND","ND","4.3","0.4","ND","ND","ND","ND","0","0"],
    [70497,"2018-05-22T04:00:00","ND","ND","ND","ND","4.2","0.5","ND","ND","ND","ND","0","0"],
    [70498,"2018-05-22T05:00:00","ND","ND","ND","ND","4.3","0.3","ND","ND","ND","ND","0","0"],
    [70499,"2018-05-22T06:00:00","ND","ND","ND","ND","4.6","1.0","ND","ND","ND","ND","0","0"],
    [70500,"2018-05-22T07:00:00","ND","ND","ND","ND","4.1","3.9","ND","ND","ND","ND","136","0"],
    [70501,"2018-05-22T08:00:00","ND","ND","ND","ND","4.4","1.0","ND","ND","ND","ND","385","0"],
    [70502,"2018-05-22T09:00:00","ND","ND","ND","ND","4.4","0.4","ND","ND","ND","ND","405","0"],
    [70503,"2018-05-22T10:00:00","ND","ND","ND","ND","9.9","0.2","ND","ND","ND","ND","653","0"],
    [70504,"2018-05-22T11:00:00","ND","ND","ND","ND","26.8","0.2","ND","ND","ND","ND","664","0"],
    [70505,"2018-05-22T12:00:00","ND","ND","ND","ND","49.6","0.2","ND","ND","ND","ND","663","0"],
    [70506,"2018-05-22T13:00:00","ND","ND","ND","ND","63.8","0.1","ND","ND","ND","ND","664","0"],
    [70507,"2018-05-22T14:00:00","ND","ND","ND","ND","65.4","0.1","ND","ND","ND","ND","665","0"],
    [70508,"2018-05-22T15:00:00","ND","ND","ND","ND","60.5","0.1","ND","ND","ND","ND","642","0"],
    [70509,"2018-05-22T16:00:00","ND","ND","ND","ND","23.5","0.0","ND","ND","ND","ND","606","0"],
    [70510,"2018-05-22T17:00:00","ND","ND","ND","ND","17.9","0.1","ND","ND","ND","ND","396","0"],
    [70511,"2018-05-22T18:00:00","ND","ND","ND","ND","8.1","0.1","ND","ND","ND","ND","79","0"],
    [70512,"2018-05-22T19:00:00","ND","ND","ND","ND","5.0","0.1","ND","ND","ND","ND","2","0"],
    [70513,"2018-05-22T20:00:00","ND","ND","ND","ND","5.3","0.1","ND","ND","ND","ND","0","0"],
    [70514,"2018-05-22T21:00:00","ND","ND","ND","ND","6.7","0.1","ND","ND","ND","ND","0","0"],
    [70515,"2018-05-22T22:00:00","ND","ND","ND","ND","7.4","0.1","ND","ND","ND","ND","0","0"],
    [70516,"2018-05-22T23:00:00","ND","ND","ND","ND","7.6","0.3","ND","ND","ND","ND","0","0"],
    [70517,"2018-05-23T00:00:00","ND","ND","ND","ND","5.4","0.1","ND","ND","ND","ND","0","0"],
    [70518,"2018-05-23T01:00:00","ND","ND","ND","ND","5.6","0.1","ND","ND","ND","ND","0","0"],
    [70519,"2018-05-23T02:00:00","ND","ND","ND","ND","5.2","0.2","ND","ND","ND","ND","0","0"],
    [70520,"2018-05-23T03:00:00","ND","ND","ND","ND","5.2","0.3","ND","ND","ND","ND","0","0"],
    [70521,"2018-05-23T04:00:00","ND","ND","ND","ND","5.0","0.3","ND","ND","ND","ND","0","0"],
    [70522,"2018-05-23T05:00:00","ND","ND","ND","ND","5.1","0.3","ND","ND","ND","ND","0","0"],
    [70523,"2018-05-23T06:00:00","ND","ND","ND","ND","5.6","0.4","ND","ND","ND","ND","1","0"],
    [70524,"2018-05-23T07:00:00","ND","ND","ND","ND","5.1","0.3","ND","ND","ND","ND","94","0"],
    [70525,"2018-05-23T08:00:00","ND","ND","ND","ND","5.3","0.4","ND","ND","ND","ND","451","0"],
    [70526,"2018-05-23T09:00:00","ND","ND","ND","ND","7.8","0.3","ND","ND","ND","ND","657","0"],
    [70527,"2018-05-23T10:00:00","ND","ND","ND","ND","15.2","0.1","ND","ND","ND","ND","653","0"],
    [70528,"2018-05-23T11:00:00","ND","ND","ND","ND","28.1","0.2","ND","ND","ND","ND","663","0"],
    [70529,"2018-05-23T12:00:00","ND","ND","ND","ND","34.7","0.3","ND","ND","ND","ND","665","0"],
    [70530,"2018-05-23T13:00:00","ND","ND","ND","ND","32.0","0.3","ND","ND","ND","ND","666","0"],
    [70531,"2018-05-23T14:00:00","ND","ND","ND","ND","36.8","0.6","ND","ND","ND","ND","666","0"],
    [70532,"2018-05-23T15:00:00","ND","ND","ND","ND","33.9","0.7","ND","ND","ND","ND","666","0"],
    [70533,"2018-05-23T16:00:00","ND","ND","ND","ND","13.7","0.6","ND","ND","ND","ND","201","0"],
    [70534,"2018-05-23T17:00:00","ND","ND","ND","ND","7.7","0.3","ND","ND","ND","ND","90","0.25"],
    [70535,"2018-05-23T18:00:00","ND","ND","ND","ND","4.6","0.1","ND","ND","ND","ND","48","0.25"],
    [70536,"2018-05-23T19:00:00","ND","ND","ND","ND","4.3","0.1","ND","ND","ND","ND","2","0"],
    [70537,"2018-05-23T20:00:00","ND","ND","ND","ND","4.5","0.2","ND","ND","ND","ND","0","0"],
    [70538,"2018-05-23T21:00:00","ND","ND","ND","ND","4.4","0.1","ND","ND","ND","ND","0","0"],
    [70539,"2018-05-23T22:00:00","ND","ND","ND","ND","4.4","0.3","ND","ND","ND","ND","0","0"],
    [70540,"2018-05-23T23:00:00","ND","ND","ND","ND","4.3","0.1","ND","ND","ND","ND","0","0"],
    [70541,"2018-05-24T00:00:00","ND","ND","ND","ND","4.3","0.5","ND","ND","ND","ND","0","0"],
    [70542,"2018-05-24T01:00:00","ND","ND","ND","ND","4.5","0.6","ND","ND","ND","ND","0","0"],
    [70543,"2018-05-24T02:00:00","ND","ND","ND","ND","4.6","0.8","ND","ND","ND","ND","0","0"],
    [70544,"2018-05-24T03:00:00","ND","ND","ND","ND","4.6","0.8","ND","ND","ND","ND","0","0"],
    [70545,"2018-05-24T04:00:00","ND","ND","ND","ND","4.6","0.9","ND","ND","ND","ND","0","0"],
    [70546,"2018-05-24T05:00:00","ND","ND","ND","ND","4.5","0.6","ND","ND","ND","ND","0","0"],
    [70547,"2018-05-24T06:00:00","ND","ND","ND","ND","4.5","0.4","ND","ND","ND","ND","1","0"],
    [70548,"2018-05-24T07:00:00","ND","ND","ND","ND","4.8","0.8","ND","ND","ND","ND","72","0"],
    [70549,"2018-05-24T08:00:00","ND","ND","ND","ND","5.5","0.9","ND","ND","ND","ND","234","0"],
    [70550,"2018-05-24T09:00:00","ND","ND","ND","ND","6.1","0.6","ND","ND","ND","ND","523","0"],
    [70551,"2018-05-24T10:00:00","ND","ND","ND","ND","19.5","0.5","ND","ND","ND","ND","664","0"],
    [70552,"2018-05-24T11:00:00","ND","ND","ND","ND","39.5","0.6","ND","ND","ND","ND","666","0"],
    [70553,"2018-05-24T12:00:00","9","ND","ND","ND","58.9","0.7","ND","ND","ND","ND","666","0"],
    [70554,"2018-05-24T13:00:00","31.9","ND","ND","ND","80.3","0.7","ND","ND","ND","ND","666","0"],
    [70555,"2018-05-24T14:00:00","33.7","ND","ND","ND","71.1","0.5","ND","ND","ND","ND","666","0"],
    [70556,"2018-05-24T15:00:00","38.8","ND","ND","ND","74.9","0.6","ND","ND","ND","ND","665","0"],
    [70557,"2018-05-24T16:00:00","43.7","ND","ND","ND","82.6","0.5","ND","ND","ND","ND","597","0"],
    [70558,"2018-05-24T17:00:00","51.2","ND","ND","ND","57.5","0.7","ND","ND","ND","ND","308","0"],
    [70559,"2018-05-24T18:00:00","45.1","ND","ND","ND","35.8","0.5","ND","ND","ND","ND","94","0"],
    [70560,"2018-05-24T19:00:00","34.6","ND","ND","ND","16.0","0.3","ND","ND","ND","ND","3","0"],
    [70561,"2018-05-24T20:00:00","37.5","ND","ND","ND","6.5","0.2","ND","ND","ND","ND","0","0"],
    [70562,"2018-05-24T21:00:00","57.9","ND","ND","ND","4.8","0.4","ND","ND","ND","ND","0","0"],
    [70563,"2018-05-24T22:00:00","40.2","ND","ND","ND","4.8","0.4","ND","ND","ND","ND","0","0"],
    [70564,"2018-05-24T23:00:00","27.4","ND","ND","ND","4.6","0.4","ND","ND","ND","ND","0","0"],
    [70565,"2018-05-25T00:00:00","10.8","ND","ND","ND","5.0","0.3","ND","ND","ND","ND","0","0"],
    [70566,"2018-05-25T01:00:00","18.2","ND","ND","ND","4.9","0.3","ND","ND","ND","ND","0","0"],
    [70567,"2018-05-25T02:00:00","12.8","ND","ND","ND","7.6","0.5","ND","ND","ND","ND","0","0"],
    [70568,"2018-05-25T03:00:00","6.1","ND","ND","ND","5.0","0.6","ND","ND","ND","ND","0","0"],
    [70569,"2018-05-25T04:00:00","23.6","ND","ND","ND","4.6","0.4","ND","ND","ND","ND","0","0"],
    [70570,"2018-05-25T05:00:00","38.8","ND","ND","ND","4.4","0.9","ND","ND","ND","ND","0","0"],
    [70571,"2018-05-25T06:00:00","37.9","ND","ND","ND","4.6","0.5","ND","ND","ND","ND","1","0"],
    [70572,"2018-05-25T07:00:00","59","ND","ND","ND","4.9","0.8","ND","ND","ND","ND","34","0"],
    [70573,"2018-05-25T08:00:00","92.9","ND","ND","ND","5.3","1.0","ND","ND","ND","ND","269","0"],
    [70574,"2018-05-25T09:00:00","87.8","ND","ND","ND","9.6","1.0","ND","ND","ND","ND","626","0"],
    [70575,"2018-05-25T10:00:00","86.1","ND","ND","ND","24.0","0.4","ND","ND","ND","ND","666","0"],
    [70576,"2018-05-25T11:00:00","86.1","ND","ND","ND","57.8","0.6","ND","ND","ND","ND","666","0"],
    [70577,"2018-05-25T12:00:00","72.4","ND","ND","ND","68.4","0.5","ND","ND","ND","ND","666","0"],
    [70578,"2018-05-25T13:00:00","59.2","ND","ND","ND","83.0","0.2","ND","ND","ND","ND","664","0"],
    [70579,"2018-05-25T14:00:00","53.1","ND","ND","ND","91.0","0.2","ND","ND","ND","ND","655","0"],
    [70580,"2018-05-25T15:00:00","52.8","ND","ND","ND","73.3","0.4","ND","ND","ND","ND","650","0"],
    [70581,"2018-05-25T16:00:00","51","ND","ND","ND","57.3","0.3","ND","ND","ND","ND","321","0"],
    [70582,"2018-05-25T17:00:00","32.3","ND","ND","ND","16.0","0.2","ND","ND","ND","ND","32","0.51"],
    [70583,"2018-05-25T18:00:00","47","ND","ND","ND","19.7","0.1","ND","ND","ND","ND","6","20.83"],
    [70584,"2018-05-25T19:00:00","47.8","ND","ND","ND","12.5","0.2","ND","ND","ND","ND","0","27.18"],
    [70585,"2018-05-25T20:00:00","ND","ND","ND","ND","5.4","0.1","ND","ND","ND","ND","0","0.25"],
    [70586,"2018-05-25T21:00:00","4.2","ND","ND","ND","4.3","0.3","ND","ND","ND","ND","0","0"],
    [70587,"2018-05-25T22:00:00","35.7","ND","ND","ND","4.2","0.3","ND","ND","ND","ND","0","0.25"],
    [70588,"2018-05-25T23:00:00","24.6","ND","ND","ND","4.2","0.1","ND","ND","ND","ND","0","0"],
    [70589,"2018-05-26T00:00:00","ND","ND","ND","ND","4.2","0.1","ND","ND","ND","ND","0","0"],
    [70590,"2018-05-26T01:00:00","ND","ND","ND","ND","4.2","0.1","ND","ND","ND","ND","0","0"],
    [70591,"2018-05-26T02:00:00","ND","ND","ND","ND","4.1","0.3","ND","ND","ND","ND","0","0"],
    [70592,"2018-05-26T03:00:00","ND","ND","ND","ND","4.6","1.7","ND","ND","ND","ND","0","0"],
    [70593,"2018-05-26T04:00:00","ND","ND","ND","ND","4.5","0.7","ND","ND","ND","ND","0","0"],
    [70594,"2018-05-26T05:00:00","ND","ND","ND","ND","4.2","0.1","ND","ND","ND","ND","0","0"],
    [70595,"2018-05-26T06:00:00","ND","ND","ND","ND","4.1","0.1","ND","ND","ND","ND","1","0"],
    [70596,"2018-05-26T07:00:00","ND","ND","ND","ND","4.3","0.2","ND","ND","ND","ND","96","0"],
    [70597,"2018-05-26T08:00:00","ND","ND","ND","ND","4.6","0.6","ND","ND","ND","ND","478","0"],
    [70598,"2018-05-26T09:00:00","ND","ND","ND","ND","4.7","0.6","ND","ND","ND","ND","630","0.25"],
    [70599,"2018-05-26T10:00:00","ND","ND","ND","ND","5.0","0.4","ND","ND","ND","ND","663","0"],
    [70600,"2018-05-26T11:00:00","ND","ND","ND","ND","13.6","0.4","ND","ND","ND","ND","665","0"],
    [70601,"2018-05-26T12:00:00","ND","ND","ND","ND","34.2","0.2","ND","ND","ND","ND","665","0"],
    [70602,"2018-05-26T13:00:00","ND","ND","ND","ND","55.1","0.2","ND","ND","ND","ND","665","0"],
    [70603,"2018-05-26T14:00:00","ND","ND","ND","ND","56.0","0.2","ND","ND","ND","ND","665","0"],
    [70604,"2018-05-26T15:00:00","ND","ND","ND","ND","48.6","0.2","ND","ND","ND","ND","605","0"],
    [70605,"2018-05-26T16:00:00","ND","ND","ND","ND","29.4","0.1","ND","ND","ND","ND","665","0"],
    [70606,"2018-05-26T17:00:00","ND","ND","ND","ND","13.1","0.0","ND","ND","ND","ND","552","0"],
    [70607,"2018-05-26T18:00:00","ND","ND","ND","ND","12.6","0.1","ND","ND","ND","ND","269","0"],
    [70608,"2018-05-26T19:00:00","ND","ND","ND","ND","9.1","0.1","ND","ND","ND","ND","2","3.3"],
    [70609,"2018-05-26T20:00:00","ND","ND","ND","ND","5.9","0.0","ND","ND","ND","ND","0","0.25"],
    [70610,"2018-05-26T21:00:00","ND","ND","ND","ND","5.8","0.1","ND","ND","ND","ND","0","2.03"],
    [70611,"2018-05-26T22:00:00","ND","ND","ND","ND","4.9","0.4","ND","ND","ND","ND","0","0"],
    [70612,"2018-05-26T23:00:00","ND","ND","ND","ND","4.6","0.3","ND","ND","ND","ND","0","0.25"],
    [70613,"2018-05-27T00:00:00","ND","ND","ND","ND","4.2","0.3","ND","ND","ND","ND","0","0"],
    [70614,"2018-05-27T01:00:00","ND","ND","ND","ND","4.2","0.2","ND","ND","ND","ND","0","0"],
    [70615,"2018-05-27T02:00:00","ND","ND","ND","ND","4.1","0.2","ND","ND","ND","ND","0","0"],
    [70616,"2018-05-27T03:00:00","ND","ND","ND","ND","4.3","0.2","ND","ND","ND","ND","0","0"],
    [70617,"2018-05-27T04:00:00","ND","ND","ND","ND","4.2","0.2","ND","ND","ND","ND","0","0"],
    [70618,"2018-05-27T05:00:00","ND","ND","ND","ND","4.3","0.1","ND","ND","ND","ND","0","0"],
    [70619,"2018-05-27T06:00:00","ND","ND","ND","ND","4.4","0.3","ND","ND","ND","ND","1","0"],
    [70620,"2018-05-27T07:00:00","ND","ND","ND","ND","4.4","0.2","ND","ND","ND","ND","132","0"],
    [70621,"2018-05-27T08:00:00","ND","ND","ND","ND","4.5","0.4","ND","ND","ND","ND","543","0"],
    [70622,"2018-05-27T09:00:00","ND","ND","ND","ND","9.7","0.3","ND","ND","ND","ND","659","0"],
    [70623,"2018-05-27T10:00:00","ND","ND","ND","ND","23.6","0.1","ND","ND","ND","ND","614","0"],
    [70624,"2018-05-27T11:00:00","ND","ND","ND","ND","32.4","0.2","ND","ND","ND","ND","498","0"],
    [70625,"2018-05-27T12:00:00","ND","ND","ND","ND","41.7","0.2","ND","ND","ND","ND","651","0"],
    [70626,"2018-05-27T13:00:00","ND","ND","ND","ND","47.1","0.1","ND","ND","ND","ND","665","0"],
    [70627,"2018-05-27T14:00:00","ND","ND","ND","ND","39.6","0.2","ND","ND","ND","ND","661","0"],
    [70628,"2018-05-27T15:00:00","ND","ND","ND","ND","35.2","0.1","ND","ND","ND","ND","432","0"],
    [70629,"2018-05-27T16:00:00","ND","ND","ND","ND","21.0","0.1","ND","ND","ND","ND","457","0"],
    [70630,"2018-05-27T17:00:00","ND","ND","ND","ND","13.9","0.1","ND","ND","ND","ND","516","0"],
    [70631,"2018-05-27T18:00:00","ND","ND","ND","ND","12.6","0.2","ND","ND","ND","ND","236","0"],
    [70632,"2018-05-27T19:00:00","ND","ND","ND","ND","10.1","0.0","ND","ND","ND","ND","3","0"],
    [70633,"2018-05-27T20:00:00","ND","ND","ND","ND","8.3","0.1","ND","ND","ND","ND","0","0"],
    [70634,"2018-05-27T21:00:00","ND","ND","ND","ND","7.3","0.0","ND","ND","ND","ND","0","0"],
    [70635,"2018-05-27T22:00:00","ND","ND","ND","ND","9.9","0.1","ND","ND","ND","ND","0","0"],
    [70636,"2018-05-27T23:00:00","ND","ND","ND","ND","10.5","0.1","ND","ND","ND","ND","0","0"],
    [70637,"2018-05-28T00:00:00","ND","ND","ND","ND","10.2","0.1","ND","ND","ND","ND","0","0"],
    [70638,"2018-05-28T01:00:00","ND","ND","ND","ND","8.9","0.0","ND","ND","ND","ND","0","0"],
    [70639,"2018-05-28T02:00:00","ND","ND","ND","ND","9.6","0.1","ND","ND","ND","ND","0","0"],
    [70640,"2018-05-28T03:00:00","ND","ND","ND","ND","9.0","0.3","ND","ND","ND","ND","0","0.25"],
    [70641,"2018-05-28T04:00:00","ND","ND","ND","ND","6.8","0.2","ND","ND","ND","ND","0","7.62"],
    [70642,"2018-05-28T05:00:00","ND","ND","ND","ND","5.2","0.1","ND","ND","ND","ND","0","2.79"],
    [70643,"2018-05-28T06:00:00","ND","ND","ND","ND","4.4","0.1","ND","ND","ND","ND","0","0.51"],
    [70644,"2018-05-28T07:00:00","ND","ND","ND","ND","4.3","0.1","ND","ND","ND","ND","37","0.25"],
    [70645,"2018-05-28T08:00:00","ND","ND","ND","ND","4.5","0.1","ND","ND","ND","ND","189","0.51"],
    [70646,"2018-05-28T09:00:00","ND","ND","ND","ND","4.6","0.1","ND","ND","ND","ND","593","0.51"],
    [70647,"2018-05-28T10:00:00","ND","ND","ND","ND","9.7","0.0","ND","ND","ND","ND","663","0"],
    [70648,"2018-05-28T11:00:00","ND","ND","ND","ND","ND","ND","ND","ND","ND","ND","ND","ND"],
    [70649,"2018-05-28T12:00:00","ND","ND","ND","ND","ND","ND","ND","ND","ND","ND","ND","ND"],
    [70650,"2018-05-28T13:00:00","ND","ND","ND","ND","ND","ND","ND","ND","ND","ND","ND","ND"],
    [70651,"2018-05-28T14:00:00","ND","ND","ND","ND","ND","ND","ND","ND","ND","ND","ND","ND"],
    [70652,"2018-05-28T15:00:00","ND","ND","ND","ND","ND","ND","ND","ND","ND","ND","ND","ND"],
    [70653,"2018-05-28T16:00:00","ND","ND","ND","ND","ND","ND","ND","ND","ND","ND","ND","ND"],
    [70654,"2018-05-28T17:00:00","ND","ND","ND","ND","ND","ND","ND","ND","ND","ND","ND","ND"],
    [70655,"2018-05-28T18:00:00","ND","ND","ND","ND","ND","ND","ND","ND","ND","ND","ND","ND"],
    [70656,"2018-05-28T19:00:00","ND","ND","ND","ND","ND","ND","ND","ND","ND","ND","ND","ND"],
    [70657,"2018-05-28T20:00:00","ND","ND","ND","ND","ND","ND","ND","ND","ND","ND","ND","ND"],
    [70658,"2018-05-28T21:00:00","ND","ND","ND","ND","ND","ND","ND","ND","ND","ND","ND","ND"],
    [70659,"2018-05-28T22:00:00","ND","ND","ND","ND","ND","ND","ND","ND","ND","ND","ND","ND"],
    [70660,"2018-05-28T23:00:00","ND","ND","ND","ND","ND","ND","ND","ND","ND","ND","ND","ND"],
    [70661,"2018-05-29T00:00:00","ND","ND","ND","ND","ND","ND","ND","ND","ND","ND","ND","ND"],
    [70662,"2018-05-29T01:00:00","ND","ND","ND","ND","ND","ND","ND","ND","ND","ND","ND","ND"],
    [70663,"2018-05-29T02:00:00","ND","ND","ND","ND","ND","ND","ND","ND","ND","ND","ND","ND"],
    [70664,"2018-05-29T03:00:00","ND","ND","ND","ND","ND","ND","ND","ND","ND","ND","ND","ND"],
    [70665,"2018-05-29T04:00:00","ND","ND","ND","ND","ND","ND","ND","ND","ND","ND","ND","ND"],
    [70666,"2018-05-29T05:00:00","ND","ND","ND","ND","ND","ND","ND","ND","ND","ND","ND","ND"],
    [70667,"2018-05-29T06:00:00","ND","ND","ND","ND","ND","ND","ND","ND","ND","ND","ND","ND"],
    [70668,"2018-05-29T07:00:00","ND","ND","ND","ND","ND","ND","ND","ND","ND","ND","ND","ND"],
    [70669,"2018-05-29T08:00:00","ND","ND","ND","ND","ND","ND","ND","ND","ND","ND","ND","ND"],
    [70670,"2018-05-29T09:00:00","ND","ND","ND","ND","ND","ND","ND","ND","ND","ND","ND","ND"],
    [70671,"2018-05-29T10:00:00","ND","ND","ND","ND","ND","ND","ND","ND","ND","ND","ND","ND"],
    [70672,"2018-05-29T11:00:00","ND","ND","ND","ND","ND","ND","ND","ND","ND","ND","ND","ND"],
    [70673,"2018-05-29T12:00:00","68.7","ND","ND","ND","48.4","0.6","ND","ND","ND","ND","619","0"],
    [70674,"2018-05-29T13:00:00","83.4","ND","ND","ND","82.6","0.5","ND","ND","ND","ND","667","0"],
    [70675,"2018-05-29T14:00:00","81.9","ND","ND","ND","92.1","0.5","ND","ND","ND","ND","666","0"],
    [70676,"2018-05-29T15:00:00","52.6","ND","ND","ND","57.4","0.2","ND","ND","ND","ND","482","0"],
    [70677,"2018-05-29T16:00:00","37.3","ND","ND","ND","18.4","0.3","ND","ND","ND","ND","575","0"],
    [70678,"2018-05-29T17:00:00","14.3","ND","ND","ND","10.1","0.2","ND","ND","ND","ND","371","0"],
    [70679,"2018-05-29T18:00:00","20.8","ND","ND","ND","7.0","0.3","ND","ND","ND","ND","109","0"],
    [70680,"2018-05-29T19:00:00","32","ND","ND","ND","5.4","0.1","ND","ND","ND","ND","4","0"],
    [70681,"2018-05-29T20:00:00","61.3","ND","ND","ND","5.4","0.2","ND","ND","ND","ND","0","0"],
    [70682,"2018-05-29T21:00:00","78.8","ND","ND","ND","5.5","0.7","ND","ND","ND","ND","0","0"],
    [70683,"2018-05-29T22:00:00","70.1","ND","ND","ND","5.0","1.0","ND","ND","ND","ND","0","0"],
    [70684,"2018-05-29T23:00:00","119.5","ND","ND","ND","4.4","0.6","ND","ND","ND","ND","0","0"],
    [70685,"2018-05-30T00:00:00","95.4","ND","ND","ND","4.4","0.4","ND","ND","ND","ND","0","0"],
    [70686,"2018-05-30T01:00:00","43.5","ND","ND","ND","4.9","0.2","ND","ND","ND","ND","0","0"],
    [70687,"2018-05-30T02:00:00","35.2","ND","ND","ND","4.7","0.3","ND","ND","ND","ND","0","0"],
    [70688,"2018-05-30T03:00:00","28.9","ND","ND","ND","4.7","0.1","ND","ND","ND","ND","0","0"],
    [70689,"2018-05-30T04:00:00","26.3","ND","ND","ND","4.6","0.3","ND","ND","ND","ND","0","0"],
    [70690,"2018-05-30T05:00:00","25.4","ND","ND","ND","5.6","0.4","ND","ND","ND","ND","0","0"],
    [70691,"2018-05-30T06:00:00","14.2","ND","ND","ND","9.3","0.2","ND","ND","ND","ND","0","0"],
    [70692,"2018-05-30T07:00:00","24.1","ND","ND","ND","4.7","0.1","ND","ND","ND","ND","56","0"],
    [70693,"2018-05-30T08:00:00","33.4","ND","ND","ND","4.8","0.1","ND","ND","ND","ND","172","0"],
    [70694,"2018-05-30T09:00:00","30.9","ND","ND","ND","6.4","0.1","ND","ND","ND","ND","254","0"],
    [70695,"2018-05-30T10:00:00","12.4","ND","ND","ND","15.6","ND","ND","ND","ND","ND","ND","ND"],
    [70696,"2018-05-30T11:00:00","1.8","ND","ND","ND","31.6","ND","ND","ND","ND","ND","ND","ND"],
    [70697,"2018-05-30T12:00:00","14.9","ND","ND","ND","48.1","ND","ND","ND","ND","ND","ND","ND"],
    [70698,"2018-05-30T13:00:00","18.5","ND","ND","ND","62.4","ND","ND","ND","ND","ND","ND","ND"],
    [70699,"2018-05-30T14:00:00","22","ND","ND","ND","74.1","ND","ND","ND","ND","ND","ND","ND"],
    [70700,"2018-05-30T15:00:00","43.9","ND","ND","ND","53.9","ND","ND","ND","ND","ND","ND","ND"],
    [70701,"2018-05-30T16:00:00","65.6","ND","ND","ND","8.3","ND","ND","ND","ND","ND","ND","ND"],
    [70702,"2018-05-30T17:00:00","5.5","ND","ND","ND","6.9","ND","ND","ND","ND","ND","ND","ND"],
    [70703,"2018-05-30T18:00:00","ND","ND","ND","ND","5.6","ND","ND","ND","ND","ND","ND","ND"],
    [70704,"2018-05-30T19:00:00","ND","ND","ND","ND","4.6","ND","ND","ND","ND","ND","ND","ND"],
    [70705,"2018-05-30T20:00:00","29","ND","ND","ND","4.3","ND","ND","ND","ND","ND","ND","ND"],
    [70706,"2018-05-30T21:00:00","56.5","ND","ND","ND","4.3","ND","ND","ND","ND","ND","ND","ND"],
    [70707,"2018-05-30T22:00:00","57.4","ND","ND","ND","4.2","ND","ND","ND","ND","ND","ND","ND"],
    [70708,"2018-05-30T23:00:00","58.1","ND","ND","ND","4.3","ND","ND","ND","ND","ND","ND","ND"],
    [70709,"2018-05-31T00:00:00","56.2","ND","ND","ND","4.1","ND","ND","ND","ND","ND","ND","ND"],
    [70710,"2018-05-31T01:00:00","32.2","ND","ND","ND","4.1","ND","ND","ND","ND","ND","ND","ND"],
    [70711,"2018-05-31T02:00:00","17.7","ND","ND","ND","4.1","ND","ND","ND","ND","ND","ND","ND"],
    [70712,"2018-05-31T03:00:00","30.9","ND","ND","ND","4.3","ND","ND","ND","ND","ND","ND","ND"],
    [70713,"2018-05-31T04:00:00","63.5","ND","ND","ND","4.5","ND","ND","ND","ND","ND","ND","ND"],
    [70714,"2018-05-31T05:00:00","97.4","ND","ND","ND","4.2","ND","ND","ND","ND","ND","ND","ND"],
    [70715,"2018-05-31T06:00:00","79.9","ND","ND","ND","4.3","ND","ND","ND","ND","ND","ND","ND"],
    [70716,"2018-05-31T07:00:00","93.5","ND","ND","ND","5.0","ND","ND","ND","ND","ND","ND","ND"],
    [70717,"2018-05-31T08:00:00","113.8","ND","ND","ND","4.7","ND","ND","ND","ND","ND","ND","ND"],
    [70718,"2018-05-31T09:00:00","116.6","ND","ND","ND","7.0","ND","ND","ND","ND","ND","ND","ND"],
    [70719,"2018-05-31T10:00:00","111.3","ND","ND","ND","21.7","ND","ND","ND","ND","ND","ND","ND"],
    [70720,"2018-05-31T11:00:00","85.9","ND","ND","ND","53.4","ND","ND","ND","ND","ND","ND","ND"],
    [70721,"2018-05-31T12:00:00","53","ND","ND","ND","57.2","ND","ND","ND","ND","ND","ND","ND"],
    [70722,"2018-05-31T13:00:00","39.9","ND","ND","ND","59.3","ND","ND","ND","ND","ND","ND","ND"],
    [70723,"2018-05-31T14:00:00","39.6","ND","ND","ND","68.3","ND","ND","ND","ND","ND","ND","ND"],
    [70724,"2018-05-31T15:00:00","58.5","ND","ND","ND","91.5","ND","ND","ND","ND","ND","ND","ND"],
    [70725,"2018-05-31T16:00:00","69.9","ND","ND","ND","75.4","ND","ND","ND","ND","ND","ND","ND"],
    [70726,"2018-05-31T17:00:00","42.3","ND","ND","ND","28.6","ND","ND","ND","ND","ND","ND","ND"],
    [70727,"2018-05-31T18:00:00","24.1","ND","ND","ND","22.6","ND","ND","ND","ND","ND","ND","ND"],
    [70728,"2018-05-31T19:00:00","22.4","ND","ND","ND","11.5","ND","ND","ND","ND","ND","ND","ND"],
    [70729,"2018-05-31T20:00:00","6.2","ND","ND","ND","7.7","ND","ND","ND","ND","ND","ND","ND"],
    [70730,"2018-05-31T21:00:00","29.9","ND","ND","ND","4.6","ND","ND","ND","ND","ND","ND","ND"],
    [70731,"2018-05-31T22:00:00","42","ND","ND","ND","4.1","ND","ND","ND","ND","ND","ND","ND"],
    [70732,"2018-05-31T23:00:00","32","ND","ND","ND","5.1","ND","ND","ND","ND","ND","ND","ND"],
    [70733,"2018-06-01T00:00:00","30.3","ND","ND","ND","11.1","ND","ND","ND","ND","ND","ND","ND"],
    [70734,"2018-06-01T01:00:00","35","ND","ND","ND","9.2","ND","ND","ND","ND","ND","ND","ND"],
    [70735,"2018-06-01T02:00:00","13.5","ND","ND","ND","5.0","ND","ND","ND","ND","ND","ND","ND"],
    [70736,"2018-06-01T03:00:00","18","ND","ND","ND","5.7","ND","ND","ND","ND","ND","ND","ND"],
    [70737,"2018-06-01T04:00:00","13.6","ND","ND","ND","9.0","ND","ND","ND","ND","ND","ND","ND"],
    [70738,"2018-06-01T05:00:00","5.3","ND","ND","ND","9.2","ND","ND","ND","ND","ND","ND","ND"],
    [70739,"2018-06-01T06:00:00","0.3","ND","ND","ND","5.4","ND","ND","ND","ND","ND","ND","ND"],
    [70740,"2018-06-01T07:00:00","ND","ND","ND","ND","4.0","ND","ND","ND","ND","ND","ND","ND"],
    [70741,"2018-06-01T08:00:00","7.9","ND","ND","ND","4.1","ND","ND","ND","ND","ND","ND","ND"],
    [70742,"2018-06-01T09:00:00","50.5","ND","ND","ND","5.3","ND","ND","ND","ND","ND","ND","ND"],
    [70743,"2018-06-01T10:00:00","69.1","ND","ND","ND","15.0","ND","ND","ND","ND","ND","ND","ND"],
    [70744,"2018-06-01T11:00:00","51.4","ND","ND","ND","30.1","ND","ND","ND","ND","ND","ND","ND"],
    [70745,"2018-06-01T12:00:00","67","ND","ND","ND","47.7","ND","ND","ND","ND","ND","ND","ND"],
    [70746,"2018-06-01T13:00:00","62.5","ND","ND","ND","62.1","ND","ND","ND","ND","ND","ND","ND"],
    [70747,"2018-06-01T14:00:00","63.8","ND","ND","ND","56.3","ND","ND","ND","ND","ND","ND","ND"],
    [70748,"2018-06-01T15:00:00","43.1","ND","ND","ND","54.1","ND","ND","ND","ND","ND","ND","ND"],
    [70749,"2018-06-01T16:00:00","28.8","ND","ND","ND","50.7","ND","ND","ND","ND","ND","ND","ND"],
    [70750,"2018-06-01T17:00:00","60.7","ND","ND","ND","47.6","ND","ND","ND","ND","ND","ND","ND"],
    [70751,"2018-06-01T18:00:00","126","ND","ND","ND","32.1","ND","ND","ND","ND","ND","ND","ND"],
    [70752,"2018-06-01T19:00:00","ND","ND","ND","ND","7.1","ND","ND","ND","ND","ND","ND","ND"],
    [70753,"2018-06-01T20:00:00","ND","ND","ND","ND","4.6","ND","ND","ND","ND","ND","ND","ND"],
    [70754,"2018-06-01T21:00:00","4.4","ND","ND","ND","4.3","ND","ND","ND","ND","ND","ND","ND"],
    [70755,"2018-06-01T22:00:00","46.1","ND","ND","ND","4.3","ND","ND","ND","ND","ND","ND","ND"],
    [70756,"2018-06-01T23:00:00","54.2","ND","ND","ND","4.7","ND","ND","ND","ND","ND","ND","ND"],
    [70757,"2018-06-02T00:00:00","33.5","ND","ND","ND","4.1","ND","ND","ND","ND","ND","ND","ND"],
    [70758,"2018-06-02T01:00:00","58.5","ND","ND","ND","4.1","ND","ND","ND","ND","ND","ND","ND"],
    [70759,"2018-06-02T02:00:00","47.7","ND","ND","ND","4.0","ND","ND","ND","ND","ND","ND","ND"],
    [70760,"2018-06-02T03:00:00","42.5","ND","ND","ND","4.1","ND","ND","ND","ND","ND","ND","ND"],
    [70761,"2018-06-02T04:00:00","25.1","ND","ND","ND","4.1","ND","ND","ND","ND","ND","ND","ND"],
    [70762,"2018-06-02T05:00:00","29.1","ND","ND","ND","4.1","ND","ND","ND","ND","ND","ND","ND"],
    [70763,"2018-06-02T06:00:00","19.7","ND","ND","ND","4.0","ND","ND","ND","ND","ND","ND","ND"],
    [70764,"2018-06-02T07:00:00","28.1","ND","ND","ND","4.2","ND","ND","ND","ND","ND","ND","ND"],
    [70765,"2018-06-02T08:00:00","50.8","ND","ND","ND","4.3","ND","ND","ND","ND","ND","ND","ND"],
    [70766,"2018-06-02T09:00:00","86.1","ND","ND","ND","5.8","ND","ND","ND","ND","ND","ND","ND"],
    [70767,"2018-06-02T10:00:00","79.3","ND","ND","ND","11.0","ND","ND","ND","ND","ND","ND","ND"],
    [70768,"2018-06-02T11:00:00","75.8","ND","ND","ND","24.4","ND","ND","ND","ND","ND","ND","ND"],
    [70769,"2018-06-02T12:00:00","72.3","ND","ND","ND","44.4","ND","ND","ND","ND","ND","ND","ND"],
    [70770,"2018-06-02T13:00:00","51.6","ND","ND","ND","68.1","ND","ND","ND","ND","ND","ND","ND"],
    [70771,"2018-06-02T14:00:00","54.7","ND","ND","ND","66.7","ND","ND","ND","ND","ND","ND","ND"],
    [70772,"2018-06-02T15:00:00","35.8","ND","ND","ND","65.9","ND","ND","ND","ND","ND","ND","ND"],
    [70773,"2018-06-02T16:00:00","41.7","ND","ND","ND","62.6","ND","ND","ND","ND","ND","ND","ND"],
    [70774,"2018-06-02T17:00:00","34.3","ND","ND","ND","24.5","ND","ND","ND","ND","ND","ND","ND"],
    [70775,"2018-06-02T18:00:00","14.2","ND","ND","ND","20.0","ND","ND","ND","ND","ND","ND","ND"],
    [70776,"2018-06-02T19:00:00","10","ND","ND","ND","13.3","ND","ND","ND","ND","ND","ND","ND"],
    [70777,"2018-06-02T20:00:00","0.5","ND","ND","ND","9.0","ND","ND","ND","ND","ND","ND","ND"],
    [70778,"2018-06-02T21:00:00","29.5","ND","ND","ND","4.9","ND","ND","ND","ND","ND","ND","ND"],
    [70779,"2018-06-02T22:00:00","40.9","ND","ND","ND","4.4","ND","ND","ND","ND","ND","ND","ND"],
    [70780,"2018-06-02T23:00:00","56.5","ND","ND","ND","4.5","ND","ND","ND","ND","ND","ND","ND"],
    [70781,"2018-06-03T00:00:00","48.7","ND","ND","ND","4.3","ND","ND","ND","ND","ND","ND","ND"],
    [70782,"2018-06-03T01:00:00","38.1","ND","ND","ND","4.3","ND","ND","ND","ND","ND","ND","ND"],
    [70783,"2018-06-03T02:00:00","48.1","ND","ND","ND","4.3","ND","ND","ND","ND","ND","ND","ND"],
    [70784,"2018-06-03T03:00:00","51.6","ND","ND","ND","4.4","ND","ND","ND","ND","ND","ND","ND"],
    [70785,"2018-06-03T04:00:00","40.5","ND","ND","ND","4.3","ND","ND","ND","ND","ND","ND","ND"],
    [70786,"2018-06-03T05:00:00","46","ND","ND","ND","4.2","ND","ND","ND","ND","ND","ND","ND"],
    [70787,"2018-06-03T06:00:00","48","ND","ND","ND","4.2","ND","ND","ND","ND","ND","ND","ND"],
    [70788,"2018-06-03T07:00:00","45.5","ND","ND","ND","4.3","ND","ND","ND","ND","ND","ND","ND"],
    [70789,"2018-06-03T08:00:00","34.5","ND","ND","ND","4.5","ND","ND","ND","ND","ND","ND","ND"],
    [70790,"2018-06-03T09:00:00","48.7","ND","ND","ND","9.3","ND","ND","ND","ND","ND","ND","ND"],
    [70791,"2018-06-03T10:00:00","48.1","ND","ND","ND","21.9","ND","ND","ND","ND","ND","ND","ND"],
    [70792,"2018-06-03T11:00:00","35.5","ND","ND","ND","31.6","ND","ND","ND","ND","ND","ND","ND"],
    [70793,"2018-06-03T12:00:00","36.4","ND","ND","ND","38.5","ND","ND","ND","ND","ND","ND","ND"],
    [70794,"2018-06-03T13:00:00","30.2","ND","ND","ND","46.3","ND","ND","ND","ND","ND","ND","ND"],
    [70795,"2018-06-03T14:00:00","30.7","ND","ND","ND","54.2","ND","ND","ND","ND","ND","ND","ND"],
    [70796,"2018-06-03T15:00:00","33","ND","ND","ND","66.0","ND","ND","ND","ND","ND","ND","ND"],
    [70797,"2018-06-03T16:00:00","40.2","ND","ND","ND","55.7","ND","ND","ND","ND","ND","ND","ND"],
    [70798,"2018-06-03T17:00:00","30.8","ND","ND","ND","26.6","ND","ND","ND","ND","ND","ND","ND"],
    [70799,"2018-06-03T18:00:00","8.6","ND","ND","ND","15.7","ND","ND","ND","ND","ND","ND","ND"],
    [70800,"2018-06-03T19:00:00","1.3","ND","ND","ND","6.7","ND","ND","ND","ND","ND","ND","ND"],
    [70801,"2018-06-03T20:00:00","4.6","ND","ND","ND","4.4","ND","ND","ND","ND","ND","ND","ND"],
    [70802,"2018-06-03T21:00:00","14.6","ND","ND","ND","4.9","ND","ND","ND","ND","ND","ND","ND"],
    [70803,"2018-06-03T22:00:00","25.7","ND","ND","ND","4.4","ND","ND","ND","ND","ND","ND","ND"],
    [70804,"2018-06-03T23:00:00","47.9","ND","ND","ND","4.5","ND","ND","ND","ND","ND","ND","ND"],
    [70805,"2018-06-04T00:00:00","39.6","ND","ND","ND","4.4","ND","ND","ND","ND","ND","ND","ND"],
    [70806,"2018-06-04T01:00:00","38.8","ND","ND","ND","4.4","ND","ND","ND","ND","ND","ND","ND"],
    [70807,"2018-06-04T02:00:00","44.7","ND","ND","ND","4.4","ND","ND","ND","ND","ND","ND","ND"],
    [70808,"2018-06-04T03:00:00","44.9","ND","ND","ND","4.3","ND","ND","ND","ND","ND","ND","ND"],
    [70809,"2018-06-04T04:00:00","26.6","ND","ND","ND","4.3","ND","ND","ND","ND","ND","ND","ND"],
    [70810,"2018-06-04T05:00:00","32.7","ND","ND","ND","4.3","ND","ND","ND","ND","ND","ND","ND"],
    [70811,"2018-06-04T06:00:00","35.8","ND","ND","ND","4.3","ND","ND","ND","ND","ND","ND","ND"],
    [70812,"2018-06-04T07:00:00","38","ND","ND","ND","4.3","ND","ND","ND","ND","ND","ND","ND"],
    [70813,"2018-06-04T08:00:00","50.3","ND","ND","ND","4.5","ND","ND","ND","ND","ND","ND","ND"],
    [70814,"2018-06-04T09:00:00","65.3","ND","ND","ND","6.2","ND","ND","ND","ND","ND","ND","ND"],
    [70815,"2018-06-04T10:00:00","60.7","ND","ND","ND","10.7","ND","ND","ND","ND","ND","ND","ND"],
    [70816,"2018-06-04T11:00:00","51","ND","ND","ND","18.3","ND","ND","ND","ND","ND","ND","ND"],
    [70817,"2018-06-04T12:00:00","36","ND","ND","ND","30.4","ND","ND","ND","ND","ND","ND","ND"],
    [70818,"2018-06-04T13:00:00","37.9","ND","ND","ND","36.7","ND","ND","ND","ND","ND","ND","ND"],
    [70819,"2018-06-04T14:00:00","41.4","ND","ND","ND","40.0","ND","ND","ND","ND","ND","ND","ND"],
    [70820,"2018-06-04T15:00:00","34.9","ND","ND","ND","37.8","ND","ND","ND","ND","ND","ND","ND"],
    [70821,"2018-06-04T16:00:00","39.6","ND","ND","ND","22.3","ND","ND","ND","ND","ND","ND","ND"],
    [70822,"2018-06-04T17:00:00","45.3","ND","ND","ND","17.4","ND","ND","ND","ND","ND","ND","ND"],
    [70823,"2018-06-04T18:00:00","40.4","ND","ND","ND","14.6","ND","ND","ND","ND","ND","ND","ND"],
    [70824,"2018-06-04T19:00:00","7.4","ND","ND","ND","9.2","ND","ND","ND","ND","ND","ND","ND"],
    [70825,"2018-06-04T20:00:00","ND","ND","ND","ND","7.5","ND","ND","ND","ND","ND","ND","ND"],
    [70826,"2018-06-04T21:00:00","20.5","ND","ND","ND","5.7","ND","ND","ND","ND","ND","ND","ND"],
    [70827,"2018-06-04T22:00:00","35.4","ND","ND","ND","6.3","ND","ND","ND","ND","ND","ND","ND"],
    [70828,"2018-06-04T23:00:00","28.8","ND","ND","ND","4.7","ND","ND","ND","ND","ND","ND","ND"],
    [70829,"2018-06-05T00:00:00","27.5","ND","ND","ND","4.3","ND","ND","ND","ND","ND","ND","ND"],
    [70830,"2018-06-05T01:00:00","17.9","ND","ND","ND","4.2","ND","ND","ND","ND","ND","ND","ND"],
    [70831,"2018-06-05T02:00:00","30.4","ND","ND","ND","4.2","ND","ND","ND","ND","ND","ND","ND"],
    [70832,"2018-06-05T03:00:00","25","ND","ND","ND","4.3","ND","ND","ND","ND","ND","ND","ND"],
    [70833,"2018-06-05T04:00:00","25.7","ND","ND","ND","4.4","ND","ND","ND","ND","ND","ND","ND"],
    [70834,"2018-06-05T05:00:00","21.8","ND","ND","ND","4.4","ND","ND","ND","ND","ND","ND","ND"],
    [70835,"2018-06-05T06:00:00","29.8","ND","ND","ND","4.4","ND","ND","ND","ND","ND","ND","ND"],
    [70836,"2018-06-05T07:00:00","42.9","ND","ND","ND","4.5","ND","ND","ND","ND","ND","ND","ND"],
    [70837,"2018-06-05T08:00:00","57.1","ND","ND","ND","4.5","ND","ND","ND","ND","ND","ND","ND"],
    [70838,"2018-06-05T09:00:00","62.1","ND","ND","ND","4.7","ND","ND","ND","ND","ND","ND","ND"],
    [70839,"2018-06-05T10:00:00","89.2","ND","ND","ND","9.7","ND","ND","ND","ND","ND","ND","ND"],
    [70840,"2018-06-05T11:00:00","69.1","ND","ND","ND","12.0","ND","ND","ND","ND","ND","ND","ND"],
    [70841,"2018-06-05T12:00:00","51.7","ND","ND","ND","162.1","ND","ND","ND","ND","ND","ND","ND"],
    [70842,"2018-06-05T13:00:00","102.6","ND","ND","ND","25.7","ND","ND","ND","ND","ND","ND","ND"],
    [70843,"2018-06-05T14:00:00","55","ND","ND","ND","33.3","ND","ND","ND","ND","ND","ND","ND"],
    [70844,"2018-06-05T15:00:00","26.7","ND","ND","ND","28.2","ND","ND","ND","ND","ND","ND","ND"],
    [70845,"2018-06-05T16:00:00","2.5","ND","ND","ND","16.8","ND","ND","ND","ND","ND","ND","ND"],
    [70846,"2018-06-05T17:00:00","11.4","ND","ND","ND","16.0","ND","ND","ND","ND","ND","ND","ND"],
    [70847,"2018-06-05T18:00:00","12.5","ND","ND","ND","11.9","ND","ND","ND","ND","ND","ND","ND"],
    [70848,"2018-06-05T19:00:00","2.7","ND","ND","ND","9.1","ND","ND","ND","ND","ND","ND","ND"],
    [70849,"2018-06-05T20:00:00","1.6","ND","ND","ND","7.5","ND","ND","ND","ND","ND","ND","ND"],
    [70850,"2018-06-05T21:00:00","33","ND","ND","ND","4.7","ND","ND","ND","ND","ND","ND","ND"],
    [70851,"2018-06-05T22:00:00","33.8","ND","ND","ND","4.1","ND","ND","ND","ND","ND","ND","ND"],
    [70852,"2018-06-05T23:00:00","45.7","ND","ND","ND","4.1","ND","ND","ND","ND","ND","ND","ND"],
    [70853,"2018-06-06T00:00:00","42.3","ND","ND","ND","4.0","ND","ND","ND","ND","ND","ND","ND"],
    [70854,"2018-06-06T01:00:00","28.2","ND","ND","ND","4.1","ND","ND","ND","ND","ND","ND","ND"],
    [70855,"2018-06-06T02:00:00","14.3","ND","ND","ND","4.0","ND","ND","ND","ND","ND","ND","ND"],
    [70856,"2018-06-06T03:00:00","7.8","ND","ND","ND","4.2","ND","ND","ND","ND","ND","ND","ND"],
    [70857,"2018-06-06T04:00:00","20.3","ND","ND","ND","4.2","ND","ND","ND","ND","ND","ND","ND"],
    [70858,"2018-06-06T05:00:00","32.5","ND","ND","ND","4.1","ND","ND","ND","ND","ND","ND","ND"],
    [70859,"2018-06-06T06:00:00","41.4","ND","ND","ND","4.3","ND","ND","ND","ND","ND","ND","ND"],
    [70860,"2018-06-06T07:00:00","46.2","ND","ND","ND","6.2","ND","ND","ND","ND","ND","ND","ND"],
    [70861,"2018-06-06T08:00:00","93.8","ND","ND","ND","7.6","ND","ND","ND","ND","ND","ND","ND"],
    [70862,"2018-06-06T09:00:00","96.7","ND","ND","ND","9.0","ND","ND","ND","ND","ND","ND","ND"],
    [70863,"2018-06-06T10:00:00","85.6","ND","ND","ND","27.1","ND","ND","ND","ND","ND","ND","ND"],
    [70864,"2018-06-06T11:00:00","71.7","ND","ND","ND","62.9","ND","ND","ND","ND","ND","ND","ND"],
    [70865,"2018-06-06T12:00:00","55","ND","ND","ND","79.4","ND","ND","ND","ND","ND","ND","ND"],
    [70866,"2018-06-06T13:00:00","49.7","ND","ND","ND","65.4","ND","ND","ND","ND","ND","ND","ND"],
    [70867,"2018-06-06T14:00:00","40.2","ND","ND","ND","45.8","ND","ND","ND","ND","ND","ND","ND"],
    [70868,"2018-06-06T15:00:00","29.5","ND","ND","ND","46.7","ND","ND","ND","ND","ND","ND","ND"],
    [70869,"2018-06-06T16:00:00","25.1","ND","ND","ND","21.4","ND","ND","ND","ND","ND","ND","ND"],
    [70870,"2018-06-06T17:00:00","16.3","ND","ND","ND","18.2","ND","ND","ND","ND","ND","ND","ND"],
    [70871,"2018-06-06T18:00:00","4.9","ND","ND","ND","11.5","ND","ND","ND","ND","ND","ND","ND"],
    [70872,"2018-06-06T19:00:00","ND","ND","ND","ND","9.5","ND","ND","ND","ND","ND","ND","ND"],
    [70873,"2018-06-06T20:00:00","1.9","ND","ND","ND","4.4","ND","ND","ND","ND","ND","ND","ND"],
    [70874,"2018-06-06T21:00:00","13.2","ND","ND","ND","5.0","ND","ND","ND","ND","ND","ND","ND"],
    [70875,"2018-06-06T22:00:00","27.3","ND","ND","ND","4.4","ND","ND","ND","ND","ND","ND","ND"],
    [70876,"2018-06-06T23:00:00","16.9","ND","ND","ND","4.4","ND","ND","ND","ND","ND","ND","ND"],
    [70877,"2018-06-07T00:00:00","9.2","ND","ND","ND","4.2","ND","ND","ND","ND","ND","ND","ND"],
    [70878,"2018-06-07T01:00:00","27.9","ND","ND","ND","4.0","ND","ND","ND","ND","ND","ND","ND"],
    [70879,"2018-06-07T02:00:00","26.6","ND","ND","ND","4.1","ND","ND","ND","ND","ND","ND","ND"],
    [70880,"2018-06-07T03:00:00","26.2","ND","ND","ND","4.2","ND","ND","ND","ND","ND","ND","ND"],
    [70881,"2018-06-07T04:00:00","25.5","ND","ND","ND","4.1","ND","ND","ND","ND","ND","ND","ND"],
    [70882,"2018-06-07T05:00:00","20.1","ND","ND","ND","4.1","ND","ND","ND","ND","ND","ND","ND"],
    [70883,"2018-06-07T06:00:00","25","ND","ND","ND","4.1","ND","ND","ND","ND","ND","ND","ND"],
    [70884,"2018-06-07T07:00:00","42.5","ND","ND","ND","4.1","ND","ND","ND","ND","ND","ND","ND"],
    [70885,"2018-06-07T08:00:00","47","ND","ND","ND","4.3","ND","ND","ND","ND","ND","ND","ND"],
    [70886,"2018-06-07T09:00:00","87","ND","ND","ND","7.5","ND","ND","ND","ND","ND","ND","ND"],
    [70887,"2018-06-07T10:00:00","69.3","ND","ND","ND","24.2","ND","ND","ND","ND","ND","ND","ND"],
    [70888,"2018-06-07T11:00:00","47.7","ND","ND","ND","50.5","ND","ND","ND","ND","ND","ND","ND"],
    [70889,"2018-06-07T12:00:00","46.3","ND","ND","ND","64.7","ND","ND","ND","ND","ND","ND","ND"],
    [70890,"2018-06-07T13:00:00","47.1","ND","ND","ND","80.5","ND","ND","ND","ND","ND","ND","ND"],
    [70891,"2018-06-07T14:00:00","48.9","ND","ND","ND","81.5","ND","ND","ND","ND","ND","ND","ND"],
    [70892,"2018-06-07T15:00:00","56.6","ND","ND","ND","49.7","ND","ND","ND","ND","ND","ND","ND"],
    [70893,"2018-06-07T16:00:00","35.1","ND","ND","ND","21.9","ND","ND","ND","ND","ND","ND","ND"],
    [70894,"2018-06-07T17:00:00","21.6","ND","ND","ND","17.8","ND","ND","ND","ND","ND","ND","ND"],
    [70895,"2018-06-07T18:00:00","12.9","ND","ND","ND","12.8","ND","ND","ND","ND","ND","ND","ND"],
    [70896,"2018-06-07T19:00:00","16.4","ND","ND","ND","5.7","ND","ND","ND","ND","ND","ND","ND"],
    [70897,"2018-06-07T20:00:00","22.5","ND","ND","ND","5.3","ND","ND","ND","ND","ND","ND","ND"],
    [70898,"2018-06-07T21:00:00","38.5","ND","ND","ND","4.4","ND","ND","ND","ND","ND","ND","ND"],
    [70899,"2018-06-07T22:00:00","52.4","ND","ND","ND","4.3","ND","ND","ND","ND","ND","ND","ND"],
    [70900,"2018-06-07T23:00:00","46","ND","ND","ND","4.2","ND","ND","ND","ND","ND","ND","ND"],
    [70901,"2018-06-08T00:00:00","44.2","ND","ND","ND","4.1","ND","ND","ND","ND","ND","ND","ND"],
    [70902,"2018-06-08T01:00:00","40.7","ND","ND","ND","4.2","ND","ND","ND","ND","ND","ND","ND"],
    [70903,"2018-06-08T02:00:00","29.7","ND","ND","ND","4.2","ND","ND","ND","ND","ND","ND","ND"],
    [70904,"2018-06-08T03:00:00","33.3","ND","ND","ND","4.2","ND","ND","ND","ND","ND","ND","ND"],
    [70905,"2018-06-08T04:00:00","37.2","ND","ND","ND","4.2","ND","ND","ND","ND","ND","ND","ND"],
    [70906,"2018-06-08T05:00:00","41.4","ND","ND","ND","4.2","ND","ND","ND","ND","ND","ND","ND"],
    [70907,"2018-06-08T06:00:00","47.8","ND","ND","ND","4.3","ND","ND","ND","ND","ND","ND","ND"],
    [70908,"2018-06-08T07:00:00","58","ND","ND","ND","4.2","ND","ND","ND","ND","ND","ND","ND"],
    [70909,"2018-06-08T08:00:00","64.4","ND","ND","ND","5.2","ND","ND","ND","ND","ND","ND","ND"],
    [70910,"2018-06-08T09:00:00","71.5","ND","ND","ND","19.8","ND","ND","ND","ND","ND","ND","ND"],
    [70911,"2018-06-08T10:00:00","67.4","ND","ND","ND","41.0","ND","ND","ND","ND","ND","ND","ND"],
    [70912,"2018-06-08T11:00:00","68.4","ND","ND","ND","50.2","ND","ND","ND","ND","ND","ND","ND"],
    [70913,"2018-06-08T12:00:00","52.9","ND","ND","ND","73.7","ND","ND","ND","ND","ND","ND","ND"],
    [70914,"2018-06-08T13:00:00","57.8","ND","ND","ND","69.6","ND","ND","ND","ND","ND","ND","ND"],
    [70915,"2018-06-08T14:00:00","54.1","ND","ND","ND","47.7","ND","ND","ND","ND","ND","ND","ND"],
    [70916,"2018-06-08T15:00:00","37.2","ND","ND","ND","31.9","ND","ND","ND","ND","ND","ND","ND"],
    [70917,"2018-06-08T16:00:00","25.2","ND","ND","ND","20.5","ND","ND","ND","ND","ND","ND","ND"],
    [70918,"2018-06-08T17:00:00","14.6","ND","ND","ND","14.3","ND","ND","ND","ND","ND","ND","ND"],
    [70919,"2018-06-08T18:00:00","18.7","ND","ND","ND","9.9","ND","ND","ND","ND","ND","ND","ND"],
    [70920,"2018-06-08T19:00:00","18","ND","ND","ND","7.0","ND","ND","ND","ND","ND","ND","ND"],
    [70921,"2018-06-08T20:00:00","20.3","ND","ND","ND","4.9","ND","ND","ND","ND","ND","ND","ND"],
    [70922,"2018-06-08T21:00:00","41.9","ND","ND","ND","4.9","ND","ND","ND","ND","ND","ND","ND"],
    [70923,"2018-06-08T22:00:00","56.3","ND","ND","ND","4.3","ND","ND","ND","ND","ND","ND","ND"],
    [70924,"2018-06-08T23:00:00","40.4","ND","ND","ND","4.4","ND","ND","ND","ND","ND","ND","ND"],
    [70925,"2018-06-09T00:00:00","38.3","ND","ND","ND","4.2","ND","ND","ND","ND","ND","ND","ND"],
    [70926,"2018-06-09T01:00:00","41.1","ND","ND","ND","4.2","ND","ND","ND","ND","ND","ND","ND"],
    [70927,"2018-06-09T02:00:00","48","ND","ND","ND","4.3","ND","ND","ND","ND","ND","ND","ND"],
    [70928,"2018-06-09T03:00:00","60.2","ND","ND","ND","4.2","ND","ND","ND","ND","ND","ND","ND"],
    [70929,"2018-06-09T04:00:00","58","ND","ND","ND","4.4","ND","ND","ND","ND","ND","ND","ND"],
    [70930,"2018-06-09T05:00:00","68.8","ND","ND","ND","4.4","ND","ND","ND","ND","ND","ND","ND"],
    [70931,"2018-06-09T06:00:00","65.2","ND","ND","ND","4.3","ND","ND","ND","ND","ND","ND","ND"],
    [70932,"2018-06-09T07:00:00","64.4","ND","ND","ND","4.4","ND","ND","ND","ND","ND","ND","ND"],
    [70933,"2018-06-09T08:00:00","65.7","ND","ND","ND","5.2","ND","ND","ND","ND","ND","ND","ND"],
    [70934,"2018-06-09T09:00:00","66.1","ND","ND","ND","12.3","ND","ND","ND","ND","ND","ND","ND"],
    [70935,"2018-06-09T10:00:00","59.1","ND","ND","ND","23.9","ND","ND","ND","ND","ND","ND","ND"],
    [70936,"2018-06-09T11:00:00","53.9","ND","ND","ND","38.6","ND","ND","ND","ND","ND","ND","ND"],
    [70937,"2018-06-09T12:00:00","54.3","ND","ND","ND","58.1","ND","ND","ND","ND","ND","ND","ND"],
    [70938,"2018-06-09T13:00:00","51","ND","ND","ND","55.6","ND","ND","ND","ND","ND","ND","ND"],
    [70939,"2018-06-09T14:00:00","41.5","ND","ND","ND","61.9","ND","ND","ND","ND","ND","ND","ND"],
    [70940,"2018-06-09T15:00:00","52.3","ND","ND","ND","53.9","ND","ND","ND","ND","ND","ND","ND"],
    [70941,"2018-06-09T16:00:00","30.2","ND","ND","ND","30.6","ND","ND","ND","ND","ND","ND","ND"],
    [70942,"2018-06-09T17:00:00","17.5","ND","ND","ND","21.3","ND","ND","ND","ND","ND","ND","ND"],
    [70943,"2018-06-09T18:00:00","23.3","ND","ND","ND","10.2","ND","ND","ND","ND","ND","ND","ND"],
    [70944,"2018-06-09T19:00:00","8.1","ND","ND","ND","4.3","ND","ND","ND","ND","ND","ND","ND"],
    [70945,"2018-06-09T20:00:00","21.5","ND","ND","ND","4.2","ND","ND","ND","ND","ND","ND","ND"],
    [70946,"2018-06-09T21:00:00","23.8","ND","ND","ND","4.5","ND","ND","ND","ND","ND","ND","ND"],
    [70947,"2018-06-09T22:00:00","25.1","ND","ND","ND","4.7","ND","ND","ND","ND","ND","ND","ND"],
    [70948,"2018-06-09T23:00:00","23.3","ND","ND","ND","6.2","ND","ND","ND","ND","ND","ND","ND"],
    [70949,"2018-06-10T00:00:00","39.5","ND","ND","ND","4.3","ND","ND","ND","ND","ND","ND","ND"],
    [70950,"2018-06-10T01:00:00","28.4","ND","ND","ND","4.2","ND","ND","ND","ND","ND","ND","ND"],
    [70951,"2018-06-10T02:00:00","32.9","ND","ND","ND","4.2","ND","ND","ND","ND","ND","ND","ND"],
    [70952,"2018-06-10T03:00:00","30.2","ND","ND","ND","4.2","ND","ND","ND","ND","ND","ND","ND"],
    [70953,"2018-06-10T04:00:00","39.3","ND","ND","ND","4.4","ND","ND","ND","ND","ND","ND","ND"],
    [70954,"2018-06-10T05:00:00","41.8","ND","ND","ND","4.2","ND","ND","ND","ND","ND","ND","ND"],
    [70955,"2018-06-10T06:00:00","36.5","ND","ND","ND","4.3","ND","ND","ND","ND","ND","ND","ND"],
    [70956,"2018-06-10T07:00:00","38.1","ND","ND","ND","4.4","ND","ND","ND","ND","ND","ND","ND"],
    [70957,"2018-06-10T08:00:00","36.3","ND","ND","ND","4.2","ND","ND","ND","ND","ND","ND","ND"],
    [70958,"2018-06-10T09:00:00","51.7","ND","ND","ND","5.6","ND","ND","ND","ND","ND","ND","ND"],
    [70959,"2018-06-10T10:00:00","54","ND","ND","ND","14.3","ND","ND","ND","ND","ND","ND","ND"],
    [70960,"2018-06-10T11:00:00","38.4","ND","ND","ND","32.8","ND","ND","ND","ND","ND","ND","ND"],
    [70961,"2018-06-10T12:00:00","33.4","ND","ND","ND","67.1","ND","ND","ND","ND","ND","ND","ND"],
    [70962,"2018-06-10T13:00:00","33.5","ND","ND","ND","88.1","ND","ND","ND","ND","ND","ND","ND"],
    [70963,"2018-06-10T14:00:00","31.9","ND","ND","ND","84.6","ND","ND","ND","ND","ND","ND","ND"],
    [70964,"2018-06-10T15:00:00","28.1","ND","ND","ND","65.8","ND","ND","ND","ND","ND","ND","ND"],
    [70965,"2018-06-10T16:00:00","11.3","ND","ND","ND","20.8","ND","ND","ND","ND","ND","ND","ND"],
    [70966,"2018-06-10T17:00:00","7.1","ND","ND","ND","22.5","ND","ND","ND","ND","ND","ND","ND"],
    [70967,"2018-06-10T18:00:00","8.9","ND","ND","ND","23.3","ND","ND","ND","ND","ND","ND","ND"],
    [70968,"2018-06-10T19:00:00","6.7","ND","ND","ND","16.5","ND","ND","ND","ND","ND","ND","ND"],
    [70969,"2018-06-10T20:00:00","10.9","ND","ND","ND","12.3","ND","ND","ND","ND","ND","ND","ND"],
    [70970,"2018-06-10T21:00:00","16.4","ND","ND","ND","4.7","ND","ND","ND","ND","ND","ND","ND"],
    [70971,"2018-06-10T22:00:00","ND","ND","ND","ND","4.2","ND","ND","ND","ND","ND","ND","ND"],
    [70972,"2018-06-10T23:00:00","17.8","ND","ND","ND","4.2","ND","ND","ND","ND","ND","ND","ND"],
    [70973,"2018-06-11T00:00:00","14.7","ND","ND","ND","4.1","ND","ND","ND","ND","ND","ND","ND"],
    [70974,"2018-06-11T01:00:00","18","ND","ND","ND","4.2","ND","ND","ND","ND","ND","ND","ND"],
    [70975,"2018-06-11T02:00:00","36.2","ND","ND","ND","4.2","ND","ND","ND","ND","ND","ND","ND"],
    [70976,"2018-06-11T03:00:00","22.3","ND","ND","ND","4.2","ND","ND","ND","ND","ND","ND","ND"],
    [70977,"2018-06-11T04:00:00","26","ND","ND","ND","4.2","ND","ND","ND","ND","ND","ND","ND"],
    [70978,"2018-06-11T05:00:00","28.3","ND","ND","ND","4.3","ND","ND","ND","ND","ND","ND","ND"],
    [70979,"2018-06-11T06:00:00","31.3","ND","ND","ND","4.2","ND","ND","ND","ND","ND","ND","ND"],
    [70980,"2018-06-11T07:00:00","42.3","ND","ND","ND","4.2","ND","ND","ND","ND","ND","ND","ND"],
    [70981,"2018-06-11T08:00:00","51.4","ND","ND","ND","4.2","ND","ND","ND","ND","ND","ND","ND"],
    [70982,"2018-06-11T09:00:00","77.7","ND","ND","ND","4.4","ND","ND","ND","ND","ND","ND","ND"],
    [70983,"2018-06-11T10:00:00","56.4","ND","ND","ND","9.8","ND","ND","ND","ND","ND","ND","ND"],
    [70984,"2018-06-11T11:00:00","37.3","ND","ND","ND","22.5","ND","ND","ND","ND","ND","ND","ND"],
    [70985,"2018-06-11T12:00:00","26.8","ND","ND","ND","32.2","ND","ND","ND","ND","ND","ND","ND"],
    [70986,"2018-06-11T13:00:00","34.2","ND","ND","ND","45.3","ND","ND","ND","ND","ND","ND","ND"],
    [70987,"2018-06-11T14:00:00","24","ND","ND","ND","55.0","ND","ND","ND","ND","ND","ND","ND"],
    [70988,"2018-06-11T15:00:00","24.5","ND","ND","ND","58.9","ND","ND","ND","ND","ND","ND","ND"],
    [70989,"2018-06-11T16:00:00","28.3","ND","ND","ND","42.4","ND","ND","ND","ND","ND","ND","ND"],
    [70990,"2018-06-11T17:00:00","20.5","ND","ND","ND","21.5","ND","ND","ND","ND","ND","ND","ND"],
    [70991,"2018-06-11T18:00:00","3.1","ND","ND","ND","15.8","ND","ND","ND","ND","ND","ND","ND"],
    [70992,"2018-06-11T19:00:00","5.9","ND","ND","ND","13.1","ND","ND","ND","ND","ND","ND","ND"],
    [70993,"2018-06-11T20:00:00","ND","ND","ND","ND","10.3","ND","ND","ND","ND","ND","ND","ND"],
    [70994,"2018-06-11T21:00:00","ND","ND","ND","ND","4.9","ND","ND","ND","ND","ND","ND","ND"],
    [70995,"2018-06-11T22:00:00","17.2","ND","ND","ND","4.2","ND","ND","ND","ND","ND","ND","ND"],
    [70996,"2018-06-11T23:00:00","38.9","ND","ND","ND","4.3","ND","ND","ND","ND","ND","ND","ND"],
    [70997,"2018-06-12T00:00:00","22.5","ND","ND","ND","7.5","ND","ND","ND","ND","ND","ND","ND"],
    [70998,"2018-06-12T01:00:00","15.8","ND","ND","ND","4.7","ND","ND","ND","ND","ND","ND","ND"],
    [70999,"2018-06-12T02:00:00","28.8","ND","ND","ND","4.3","ND","ND","ND","ND","ND","ND","ND"],
    [71000,"2018-06-12T03:00:00","26.7","ND","ND","ND","4.3","ND","ND","ND","ND","ND","ND","ND"],
    [71001,"2018-06-12T04:00:00","22","ND","ND","ND","4.3","ND","ND","ND","ND","ND","ND","ND"],
    [71002,"2018-06-12T05:00:00","15","ND","ND","ND","4.2","ND","ND","ND","ND","ND","ND","ND"],
    [71003,"2018-06-12T06:00:00","27.3","ND","ND","ND","4.2","ND","ND","ND","ND","ND","ND","ND"],
    [71004,"2018-06-12T07:00:00","28","ND","ND","ND","4.3","ND","ND","ND","ND","ND","ND","ND"],
    [71005,"2018-06-12T08:00:00","27.7","ND","ND","ND","4.2","ND","ND","ND","ND","ND","ND","ND"],
    [71006,"2018-06-12T09:00:00","69","ND","ND","ND","4.6","ND","ND","ND","ND","ND","ND","ND"],
    [71007,"2018-06-12T10:00:00","70.1","ND","ND","ND","5.1","ND","ND","ND","ND","ND","ND","ND"],
    [71008,"2018-06-12T11:00:00","50","ND","ND","ND","11.3","ND","ND","ND","ND","ND","ND","ND"],
    [71009,"2018-06-12T12:00:00","36.2","ND","ND","ND","30.0","ND","ND","ND","ND","ND","ND","ND"],
    [71010,"2018-06-12T13:00:00","32.4","ND","ND","ND","43.3","ND","ND","ND","ND","ND","ND","ND"],
    [71011,"2018-06-12T14:00:00","34.3","ND","ND","ND","49.2","ND","ND","ND","ND","ND","ND","ND"],
    [71012,"2018-06-12T15:00:00","31.2","ND","ND","ND","55.6","ND","ND","ND","ND","ND","ND","ND"],
    [71013,"2018-06-12T16:00:00","31.2","ND","ND","ND","45.8","ND","ND","ND","ND","ND","ND","ND"],
    [71014,"2018-06-12T17:00:00","31.6","ND","ND","ND","44.3","ND","ND","ND","ND","ND","ND","ND"],
    [71015,"2018-06-12T18:00:00","17.2","ND","ND","ND","20.7","ND","ND","ND","ND","ND","ND","ND"],
    [71016,"2018-06-12T19:00:00","17.8","ND","ND","ND","6.0","ND","ND","ND","ND","ND","ND","ND"],
    [71017,"2018-06-12T20:00:00","2.9","ND","ND","ND","4.7","ND","ND","ND","ND","ND","ND","ND"],
    [71018,"2018-06-12T21:00:00","ND","ND","ND","ND","4.6","ND","ND","ND","ND","ND","ND","ND"],
    [71019,"2018-06-12T22:00:00","20.7","ND","ND","ND","4.4","ND","ND","ND","ND","ND","ND","ND"],
    [71020,"2018-06-12T23:00:00","24.9","ND","ND","ND","4.3","ND","ND","ND","ND","ND","ND","ND"],
    [71021,"2018-06-13T00:00:00","23.5","ND","ND","ND","4.2","ND","ND","ND","ND","ND","ND","ND"],
    [71022,"2018-06-13T01:00:00","31.3","ND","ND","ND","4.4","ND","ND","ND","ND","ND","ND","ND"],
    [71023,"2018-06-13T02:00:00","18.6","ND","ND","ND","4.4","ND","ND","ND","ND","ND","ND","ND"],
    [71024,"2018-06-13T03:00:00","38.3","ND","ND","ND","4.4","ND","ND","ND","ND","ND","ND","ND"],
    [71025,"2018-06-13T04:00:00","34.3","ND","ND","ND","4.5","ND","ND","ND","ND","ND","ND","ND"],
    [71026,"2018-06-13T05:00:00","29.1","ND","ND","ND","4.3","ND","ND","ND","ND","ND","ND","ND"],
    [71027,"2018-06-13T06:00:00","33.7","ND","ND","ND","4.3","ND","ND","ND","ND","ND","ND","ND"],
    [71028,"2018-06-13T07:00:00","41.8","ND","ND","ND","4.5","ND","ND","ND","ND","ND","ND","ND"],
    [71029,"2018-06-13T08:00:00","56.1","ND","ND","ND","5.1","ND","ND","ND","ND","ND","ND","ND"],
    [71030,"2018-06-13T09:00:00","66.9","ND","ND","ND","7.3","ND","ND","ND","ND","ND","ND","ND"],
    [71031,"2018-06-13T10:00:00","91.5","ND","ND","ND","10.3","ND","ND","ND","ND","ND","ND","ND"],
    [71032,"2018-06-13T11:00:00","ND","ND","ND","ND","ND","ND","ND","ND","ND","ND","ND","ND"],
    [71033,"2018-06-13T12:00:00","64.4","ND","ND","ND","44.0","ND","ND","ND","ND","ND","667","0"],
    [71034,"2018-06-13T13:00:00","47.8","ND","ND","ND","74.2","ND","ND","ND","ND","ND","666","0"],
    [71035,"2018-06-13T14:00:00","30.5","ND","ND","ND","90.5","ND","ND","ND","ND","ND","666","0"],
    [71036,"2018-06-13T15:00:00","33.9","ND","ND","ND","92.8","ND","ND","ND","ND","ND","654","0"],
    [71037,"2018-06-13T16:00:00","32.3","ND","ND","ND","76.7","ND","ND","ND","ND","ND","451","0"],
    [71038,"2018-06-13T17:00:00","48.6","ND","ND","ND","64.2","ND","ND","ND","ND","ND","294","0"],
    [71039,"2018-06-13T18:00:00","67","ND","ND","ND","38.1","ND","ND","ND","ND","ND","89","0"],
    [71040,"2018-06-13T19:00:00","56.5","ND","ND","ND","13.9","ND","ND","ND","ND","ND","4","0"],
    [71041,"2018-06-13T20:00:00","60.4","ND","ND","ND","9.2","ND","ND","ND","ND","ND","0","0"],
    [71042,"2018-06-13T21:00:00","75.2","ND","ND","ND","5.1","ND","ND","ND","ND","ND","0","0"],
    [71043,"2018-06-13T22:00:00","52","ND","ND","ND","5.3","ND","ND","ND","ND","ND","0","0.51"],
    [71044,"2018-06-13T23:00:00","57.3","ND","ND","ND","4.7","ND","ND","ND","ND","ND","0","0"],
    [71045,"2018-06-14T00:00:00","44.8","ND","ND","ND","4.5","ND","ND","ND","ND","ND","0","0"],
    [71046,"2018-06-14T01:00:00","39.2","ND","ND","ND","4.3","ND","ND","ND","ND","ND","0","0"],
    [71047,"2018-06-14T02:00:00","39.7","ND","ND","ND","4.1","ND","ND","ND","ND","ND","0","1.02"],
    [71048,"2018-06-14T03:00:00","41.4","ND","ND","ND","4.1","ND","ND","ND","ND","ND","0","0.76"],
    [71049,"2018-06-14T04:00:00","44.2","ND","ND","ND","3.9","ND","ND","ND","ND","ND","0","0"],
    [71050,"2018-06-14T05:00:00","44.6","ND","ND","ND","4.1","ND","ND","ND","ND","ND","0","0"],
    [71051,"2018-06-14T06:00:00","55","ND","ND","ND","4.1","ND","ND","ND","ND","ND","1","0"],
    [71052,"2018-06-14T07:00:00","59.7","ND","ND","ND","4.1","ND","ND","ND","ND","ND","42","0"],
    [71053,"2018-06-14T08:00:00","77.3","ND","ND","ND","4.1","ND","ND","ND","ND","ND","293","0"],
    [71054,"2018-06-14T09:00:00","49.7","ND","ND","ND","6.7","ND","ND","ND","ND","ND","594","0"],
    [71055,"2018-06-14T10:00:00","56.3","ND","ND","ND","14.5","ND","ND","ND","ND","ND","661","0"],
    [71056,"2018-06-14T11:00:00","40.6","ND","ND","ND","23.9","ND","ND","ND","ND","ND","666","0"],
    [71057,"2018-06-14T12:00:00","23.3","ND","ND","ND","40.2","ND","ND","ND","ND","ND","666","0"],
    [71058,"2018-06-14T13:00:00","32.1","ND","ND","ND","63.8","ND","ND","ND","ND","ND","666","0"],
    [71059,"2018-06-14T14:00:00","33.3","ND","ND","ND","67.7","ND","ND","ND","ND","ND","666","0"],
    [71060,"2018-06-14T15:00:00","31.9","ND","ND","ND","64.8","ND","ND","ND","ND","ND","491","0"],
    [71061,"2018-06-14T16:00:00","34","ND","ND","ND","24.1","ND","ND","ND","ND","ND","130","0"],
    [71062,"2018-06-14T17:00:00","28.8","ND","ND","ND","23.2","ND","ND","ND","ND","ND","209","0"],
    [71063,"2018-06-14T18:00:00","15.9","ND","ND","ND","19.2","ND","ND","ND","ND","ND","92","0"],
    [71064,"2018-06-14T19:00:00","17","ND","ND","ND","10.6","ND","ND","ND","ND","ND","4","0"],
    [71065,"2018-06-14T20:00:00","26.5","ND","ND","ND","12.6","ND","ND","ND","ND","ND","0","0"],
    [71066,"2018-06-14T21:00:00","19.5","ND","ND","ND","5.9","ND","ND","ND","ND","ND","0","0"],
    [71067,"2018-06-14T22:00:00","43.1","ND","ND","ND","5.5","ND","ND","ND","ND","ND","0","0"],
    [71068,"2018-06-14T23:00:00","49.4","ND","ND","ND","5.1","ND","ND","ND","ND","ND","0","0"],
    [71069,"2018-06-15T00:00:00","33.3","ND","ND","ND","4.3","ND","ND","ND","ND","ND","0","0"],
    [71070,"2018-06-15T01:00:00","22.9","ND","ND","ND","4.5","ND","ND","ND","ND","ND","0","0"],
    [71071,"2018-06-15T02:00:00","25.7","ND","ND","ND","5.1","ND","ND","ND","ND","ND","0","0"],
    [71072,"2018-06-15T03:00:00","17.1","ND","ND","ND","4.3","ND","ND","ND","ND","ND","0","0"],
    [71073,"2018-06-15T04:00:00","26.3","ND","ND","ND","4.3","ND","ND","ND","ND","ND","0","0"],
    [71074,"2018-06-15T05:00:00","31.5","ND","ND","ND","4.5","ND","ND","ND","ND","ND","0","0"],
    [71075,"2018-06-15T06:00:00","46.8","ND","ND","ND","4.5","ND","ND","ND","ND","ND","1","0"],
    [71076,"2018-06-15T07:00:00","86.2","ND","ND","ND","4.7","ND","ND","ND","ND","ND","53","0"],
    [71077,"2018-06-15T08:00:00","104.5","ND","ND","ND","5.5","ND","ND","ND","ND","ND","300","0"],
    [71078,"2018-06-15T09:00:00","121.1","ND","ND","ND","8.0","ND","ND","ND","ND","ND","657","0"],
    [71079,"2018-06-15T10:00:00","100","ND","ND","ND","11.8","ND","ND","ND","ND","ND","662","0"],
    [71080,"2018-06-15T11:00:00","90.1","ND","ND","ND","23.9","ND","ND","ND","ND","ND","666","0"],
    [71081,"2018-06-15T12:00:00","77.6","ND","ND","ND","36.7","ND","ND","ND","ND","ND","665","0"],
    [71082,"2018-06-15T13:00:00","46.9","ND","ND","ND","54.6","ND","ND","ND","ND","ND","665","0"],
    [71083,"2018-06-15T14:00:00","28.4","ND","ND","ND","57.1","ND","ND","ND","ND","ND","665","0"],
    [71084,"2018-06-15T15:00:00","30.4","ND","ND","ND","58.7","ND","ND","ND","ND","ND","665","0"],
    [71085,"2018-06-15T16:00:00","41.2","ND","ND","ND","45.9","ND","ND","ND","ND","ND","558","0"],
    [71086,"2018-06-15T17:00:00","27.2","ND","ND","ND","28.3","ND","ND","ND","ND","ND","237","0"],
    [71087,"2018-06-15T18:00:00","16.2","ND","ND","ND","20.2","ND","ND","ND","ND","ND","91","0"],
    [71088,"2018-06-15T19:00:00","8.8","ND","ND","ND","16.5","ND","ND","ND","ND","ND","2","0"],
    [71089,"2018-06-15T20:00:00","12.2","ND","ND","ND","8.0","ND","ND","ND","ND","ND","0","0"],
    [71090,"2018-06-15T21:00:00","24.3","ND","ND","ND","5.3","ND","ND","ND","ND","ND","0","0"],
    [71091,"2018-06-15T22:00:00","25.6","ND","ND","ND","5.7","ND","ND","ND","ND","ND","0","0"],
    [71092,"2018-06-15T23:00:00","37.8","ND","ND","ND","5.3","ND","ND","ND","ND","ND","0","0"],
    [71093,"2018-06-16T00:00:00","28","ND","ND","ND","4.9","ND","ND","ND","ND","ND","0","0"],
    [71094,"2018-06-16T01:00:00","21","ND","ND","ND","4.9","ND","ND","ND","ND","ND","0","0"],
    [71095,"2018-06-16T02:00:00","32.6","ND","ND","ND","4.3","ND","ND","ND","ND","ND","0","0"],
    [71096,"2018-06-16T03:00:00","29.9","ND","ND","ND","4.7","ND","ND","ND","ND","ND","0","0"],
    [71097,"2018-06-16T04:00:00","15.5","ND","ND","ND","4.1","ND","ND","ND","ND","ND","0","0"],
    [71098,"2018-06-16T05:00:00","41.9","ND","ND","ND","4.1","ND","ND","ND","ND","ND","0","0"],
    [71099,"2018-06-16T06:00:00","43.3","ND","ND","ND","4.1","ND","ND","ND","ND","ND","1","0"],
    [71100,"2018-06-16T07:00:00","40.3","ND","ND","ND","4.1","ND","ND","ND","ND","ND","60","0"],
    [71101,"2018-06-16T08:00:00","81.3","ND","ND","ND","5.3","ND","ND","ND","ND","ND","237","0"],
    [71102,"2018-06-16T09:00:00","79.9","ND","ND","ND","9.6","ND","ND","ND","ND","ND","602","0"],
    [71103,"2018-06-16T10:00:00","90.4","ND","ND","ND","31.6","ND","ND","ND","ND","ND","661","0"],
    [71104,"2018-06-16T11:00:00","78.2","ND","ND","ND","52.8","ND","ND","ND","ND","ND","665","0"],
    [71105,"2018-06-16T12:00:00","62.2","ND","ND","ND","78.7","ND","ND","ND","ND","ND","660","0.25"],
    [71106,"2018-06-16T13:00:00","48.7","ND","ND","ND","94.4","ND","ND","ND","ND","ND","654","0"],
    [71107,"2018-06-16T14:00:00","46.4","ND","ND","ND","92.2","ND","ND","ND","ND","ND","665","0"],
    [71108,"2018-06-16T15:00:00","48.8","ND","ND","ND","105.8","ND","ND","ND","ND","ND","665","0"],
    [71109,"2018-06-16T16:00:00","60.8","ND","ND","ND","80.8","ND","ND","ND","ND","ND","637","0"],
    [71110,"2018-06-16T17:00:00","41","ND","ND","ND","54.8","ND","ND","ND","ND","ND","592","0"],
    [71111,"2018-06-16T18:00:00","31.9","ND","ND","ND","38.3","ND","ND","ND","ND","ND","147","0"],
    [71112,"2018-06-16T19:00:00","26.6","ND","ND","ND","29.0","ND","ND","ND","ND","ND","2","0.25"],
    [71113,"2018-06-16T20:00:00","11","ND","ND","ND","16.1","ND","ND","ND","ND","ND","0","0"],
    [71114,"2018-06-16T21:00:00","15.5","ND","ND","ND","11.2","ND","ND","ND","ND","ND","0","0"],
    [71115,"2018-06-16T22:00:00","29.4","ND","ND","ND","4.7","ND","ND","ND","ND","ND","0","0"],
    [71116,"2018-06-16T23:00:00","37.8","ND","ND","ND","4.3","ND","ND","ND","ND","ND","0","0"],
    [71117,"2018-06-17T00:00:00","36.4","ND","ND","ND","4.1","ND","ND","ND","ND","ND","0","0"],
    [71118,"2018-06-17T01:00:00","31.8","ND","ND","ND","3.9","ND","ND","ND","ND","ND","0","0"],
    [71119,"2018-06-17T02:00:00","44","ND","ND","ND","4.1","ND","ND","ND","ND","ND","0","0"],
    [71120,"2018-06-17T03:00:00","36.2","ND","ND","ND","4.1","ND","ND","ND","ND","ND","0","0"],
    [71121,"2018-06-17T04:00:00","27.6","ND","ND","ND","4.1","ND","ND","ND","ND","ND","0","0"],
    [71122,"2018-06-17T05:00:00","28.3","ND","ND","ND","4.1","ND","ND","ND","ND","ND","0","0"],
    [71123,"2018-06-17T06:00:00","38.1","ND","ND","ND","4.3","ND","ND","ND","ND","ND","1","0"],
    [71124,"2018-06-17T07:00:00","50.4","ND","ND","ND","4.3","ND","ND","ND","ND","ND","59","0"],
    [71125,"2018-06-17T08:00:00","63.6","ND","ND","ND","5.3","ND","ND","ND","ND","ND","366","0"],
    [71126,"2018-06-17T09:00:00","83","ND","ND","ND","8.4","ND","ND","ND","ND","ND","535","0"],
    [71127,"2018-06-17T10:00:00","80.8","ND","ND","ND","16.1","ND","ND","ND","ND","ND","664","0"],
    [71128,"2018-06-17T11:00:00","64.9","ND","ND","ND","34.5","ND","ND","ND","ND","ND","665","0"],
    [71129,"2018-06-17T12:00:00","61.4","ND","ND","ND","51.4","ND","ND","ND","ND","ND","665","0"],
    [71130,"2018-06-17T13:00:00","42.2","ND","ND","ND","69.1","ND","ND","ND","ND","ND","665","0"],
    [71131,"2018-06-17T14:00:00","41.6","ND","ND","ND","73.8","ND","ND","ND","ND","ND","665","0"],
    [71132,"2018-06-17T15:00:00","51.9","ND","ND","ND","70.8","ND","ND","ND","ND","ND","615","0"],
    [71133,"2018-06-17T16:00:00","49.6","ND","ND","ND","62.6","ND","ND","ND","ND","ND","300","0"],
    [71134,"2018-06-17T17:00:00","29","ND","ND","ND","32.6","ND","ND","ND","ND","ND","278","0"],
    [71135,"2018-06-17T18:00:00","16.1","ND","ND","ND","29.4","ND","ND","ND","ND","ND","148","0"],
    [71136,"2018-06-17T19:00:00","13.2","ND","ND","ND","24.7","ND","ND","ND","ND","ND","3","0"],
    [71137,"2018-06-17T20:00:00","16","ND","ND","ND","16.3","ND","ND","ND","ND","ND","0","0"],
    [71138,"2018-06-17T21:00:00","14.8","ND","ND","ND","9.0","ND","ND","ND","ND","ND","0","0"],
    [71139,"2018-06-17T22:00:00","23.9","ND","ND","ND","4.3","ND","ND","ND","ND","ND","0","0"],
    [71140,"2018-06-17T23:00:00","25.5","ND","ND","ND","4.3","ND","ND","ND","ND","ND","0","0"],
    [71141,"2018-06-18T00:00:00","27.3","ND","ND","ND","4.1","ND","ND","ND","ND","ND","0","0"],
    [71142,"2018-06-18T01:00:00","30.6","ND","ND","ND","4.3","ND","ND","ND","ND","ND","0","0"],
    [71143,"2018-06-18T02:00:00","27.6","ND","ND","ND","4.5","ND","ND","ND","ND","ND","0","0"],
    [71144,"2018-06-18T03:00:00","25.5","ND","ND","ND","5.1","ND","ND","ND","ND","ND","0","0"],
    [71145,"2018-06-18T04:00:00","40.7","ND","ND","ND","4.5","ND","ND","ND","ND","ND","0","0"],
    [71146,"2018-06-18T05:00:00","32.2","ND","ND","ND","4.1","ND","ND","ND","ND","ND","0","0"],
    [71147,"2018-06-18T06:00:00","25.7","ND","ND","ND","4.1","ND","ND","ND","ND","ND","1","0"],
    [71148,"2018-06-18T07:00:00","54.4","ND","ND","ND","4.5","ND","ND","ND","ND","ND","118","0"],
    [71149,"2018-06-18T08:00:00","55.2","ND","ND","ND","6.3","ND","ND","ND","ND","ND","529","0"],
    [71150,"2018-06-18T09:00:00","56.8","ND","ND","ND","9.0","ND","ND","ND","ND","ND","656","0"],
    [71151,"2018-06-18T10:00:00","64","ND","ND","ND","14.3","ND","ND","ND","ND","ND","664","0"],
    [71152,"2018-06-18T11:00:00","63.7","ND","ND","ND","27.1","ND","ND","ND","ND","ND","665","0"],
    [71153,"2018-06-18T12:00:00","66.6","ND","ND","ND","45.9","ND","ND","ND","ND","ND","665","0"],
    [71154,"2018-06-18T13:00:00","57.8","ND","ND","ND","58.7","ND","ND","ND","ND","ND","665","0"],
    [71155,"2018-06-18T14:00:00","47.9","ND","ND","ND","69.9","ND","ND","ND","ND","ND","666","0"],
    [71156,"2018-06-18T15:00:00","54","ND","ND","ND","76.7","ND","ND","ND","ND","ND","666","0"],
    [71157,"2018-06-18T16:00:00","58.3","ND","ND","ND","79.7","ND","ND","ND","ND","ND","608","0"],
    [71158,"2018-06-18T17:00:00","57.4","ND","ND","ND","77.7","ND","ND","ND","ND","ND","370","0"],
    [71159,"2018-06-18T18:00:00","51","ND","ND","ND","61.0","ND","ND","ND","ND","ND","92","0"],
    [71160,"2018-06-18T19:00:00","46.2","ND","ND","ND","24.7","0.1","ND","ND","ND","ND","3","0"],
    [71161,"2018-06-18T20:00:00","36.2","ND","ND","ND","13.9","0.0","ND","ND","ND","ND","0","0"],
    [71162,"2018-06-18T21:00:00","20.4","ND","ND","ND","9.6","0.1","ND","ND","ND","ND","0","0"],
    [71163,"2018-06-18T22:00:00","34.2","ND","ND","ND","5.5","0.3","ND","ND","ND","ND","0","0"],
    [71164,"2018-06-18T23:00:00","59.6","ND","ND","ND","4.7","0.3","ND","ND","ND","ND","0","0"],
    [71165,"2018-06-19T00:00:00","48.8","ND","ND","ND","4.3","0.4","ND","ND","ND","ND","0","0"],
    [71166,"2018-06-19T01:00:00","51.8","ND","ND","ND","4.3","0.4","ND","ND","ND","ND","0","0"],
    [71167,"2018-06-19T02:00:00","36","ND","ND","ND","4.3","0.1","ND","ND","ND","ND","0","0"],
    [71168,"2018-06-19T03:00:00","30.2","ND","ND","ND","4.5","0.3","ND","ND","ND","ND","0","0"],
    [71169,"2018-06-19T04:00:00","46.3","ND","ND","ND","4.3","0.3","ND","ND","ND","ND","0","0"],
    [71170,"2018-06-19T05:00:00","45.9","ND","ND","ND","4.5","0.3","ND","ND","ND","ND","0","0"],
    [71171,"2018-06-19T06:00:00","37.6","ND","ND","ND","4.3","0.1","ND","ND","ND","ND","3","0"],
    [71172,"2018-06-19T07:00:00","20.6","ND","ND","ND","4.5","0.1","ND","ND","ND","ND","141","0"],
    [71173,"2018-06-19T08:00:00","91.3","ND","ND","ND","5.1","0.6","ND","ND","ND","ND","348","0"],
    [71174,"2018-06-19T09:00:00","91.2","ND","ND","ND","9.0","0.6","ND","ND","ND","ND","637","0"],
    [71175,"2018-06-19T10:00:00","72.6","ND","ND","ND","16.7","0.3","ND","ND","ND","ND","664","0"],
    [71176,"2018-06-19T11:00:00","64.5","ND","ND","ND","28.7","0.3","ND","ND","ND","ND","665","0"],
    [71177,"2018-06-19T12:00:00","73.4","ND","ND","ND","24.3","0.1","ND","ND","ND","ND","666","0"],
    [71178,"2018-06-19T13:00:00","ND","ND","ND","ND","ND","ND","ND","ND","ND","ND","ND","ND"],
    [71179,"2018-06-19T14:00:00","ND","ND","ND","ND","ND","ND","ND","ND","ND","ND","ND","ND"],
    [71180,"2018-06-19T15:00:00","59.8","ND","ND","ND","64.2","0.3","ND","ND","ND","ND","636","0"],
    [71181,"2018-06-19T16:00:00","27.7","ND","ND","ND","49.6","0.1","ND","ND","ND","ND","614","0"],
    [71182,"2018-06-19T17:00:00","2.3","ND","ND","ND","40.0","0.0","ND","ND","ND","ND","525","0"],
    [71183,"2018-06-19T18:00:00","7.4","ND","ND","ND","26.1","0.1","ND","ND","ND","ND","161","0"],
    [71184,"2018-06-19T19:00:00","ND","ND","ND","ND","17.1","0.1","ND","ND","ND","ND","6","0"],
    [71185,"2018-06-19T20:00:00","ND","ND","ND","ND","17.5","0.1","ND","ND","ND","ND","0","0"],
    [71186,"2018-06-19T21:00:00","ND","ND","ND","ND","14.5","0.0","ND","ND","ND","ND","0","0"],
    [71187,"2018-06-19T22:00:00","10.3","ND","ND","ND","7.8","0.3","ND","ND","ND","ND","0","0"],
    [71188,"2018-06-19T23:00:00","21.2","ND","ND","ND","4.7","1.8","ND","ND","ND","ND","0","0"],
    [71189,"2018-06-20T00:00:00","13.9","ND","ND","ND","4.9","0.7","ND","ND","ND","ND","0","0"],
    [71190,"2018-06-20T01:00:00","9.7","ND","ND","ND","4.5","0.6","ND","ND","ND","ND","0","0"],
    [71191,"2018-06-20T02:00:00","17.6","ND","ND","ND","4.3","0.6","ND","ND","ND","ND","0","0"],
    [71192,"2018-06-20T03:00:00","13.5","ND","ND","ND","4.1","0.4","ND","ND","ND","ND","0","0"],
    [71193,"2018-06-20T04:00:00","22.2","ND","ND","ND","4.3","0.6","ND","ND","ND","ND","0","0"],
    [71194,"2018-06-20T05:00:00","30.5","ND","ND","ND","3.9","0.4","ND","ND","ND","ND","0","0"],
    [71195,"2018-06-20T06:00:00","37.8","ND","ND","ND","4.1","0.4","ND","ND","ND","ND","1","0"],
    [71196,"2018-06-20T07:00:00","40.7","ND","ND","ND","4.3","0.3","ND","ND","ND","ND","144","0"],
    [71197,"2018-06-20T08:00:00","71.3","ND","ND","ND","7.1","0.6","ND","ND","ND","ND","550","0"],
    [71198,"2018-06-20T09:00:00","114.8","ND","ND","ND","16.3","0.7","ND","ND","ND","ND","664","0"],
    [71199,"2018-06-20T10:00:00","97","ND","ND","ND","36.3","0.6","ND","ND","ND","ND","665","0"],
    [71200,"2018-06-20T11:00:00","85.9","ND","ND","ND","52.2","0.4","ND","ND","ND","ND","619","0"],
    [71201,"2018-06-20T12:00:00","55.1","ND","ND","ND","78.1","0.3","ND","ND","ND","ND","646","0"],
    [71202,"2018-06-20T13:00:00","57.4","ND","ND","ND","92.0","0.1","ND","ND","ND","ND","657","0"],
    [71203,"2018-06-20T14:00:00","52.6","ND","ND","ND","65.2","0.0","ND","ND","ND","ND","662","0"],
    [71204,"2018-06-20T15:00:00","41.5","ND","ND","ND","69.7","0.0","ND","ND","ND","ND","656","0"],
    [71205,"2018-06-20T16:00:00","53.6","ND","ND","ND","66.1","0.0","ND","ND","ND","ND","587","0"],
    [71206,"2018-06-20T17:00:00","48.5","ND","ND","ND","48.3","0.1","ND","ND","ND","ND","491","0"],
    [71207,"2018-06-20T18:00:00","25.5","ND","ND","ND","42.6","0.0","ND","ND","ND","ND","90","0"],
    [71208,"2018-06-20T19:00:00","4.9","ND","ND","ND","27.1","0.1","ND","ND","ND","ND","3","0"],
    [71209,"2018-06-20T20:00:00","3.4","ND","ND","ND","16.5","0.0","ND","ND","ND","ND","0","0.25"],
    [71210,"2018-06-20T21:00:00","19.2","ND","ND","ND","7.3","0.4","ND","ND","ND","ND","0","0"],
    [71211,"2018-06-20T22:00:00","16.9","ND","ND","ND","6.3","0.3","ND","ND","ND","ND","0","0"],
    [71212,"2018-06-20T23:00:00","17.3","ND","ND","ND","5.1","0.3","ND","ND","ND","ND","0","0"],
    [71213,"2018-06-21T00:00:00","25.4","ND","ND","ND","5.5","1.0","ND","ND","ND","ND","0","0"],
    [71214,"2018-06-21T01:00:00","8.3","ND","ND","ND","9.8","0.4","ND","ND","ND","ND","0","0"],
    [71215,"2018-06-21T02:00:00","31.6","ND","ND","ND","8.0","0.3","ND","ND","ND","ND","0","0"],
    [71216,"2018-06-21T03:00:00","31.3","ND","ND","ND","8.6","0.3","ND","ND","ND","ND","0","0"],
    [71217,"2018-06-21T04:00:00","38.5","ND","ND","ND","7.5","0.4","ND","ND","ND","ND","0","0"],
    [71218,"2018-06-21T05:00:00","43.3","ND","ND","ND","4.5","0.7","ND","ND","ND","ND","0","0"],
    [71219,"2018-06-21T06:00:00","44.7","ND","ND","ND","4.3","0.7","ND","ND","ND","ND","1","0"],
    [71220,"2018-06-21T07:00:00","54.1","ND","ND","ND","4.5","0.3","ND","ND","ND","ND","72","0"],
    [71221,"2018-06-21T08:00:00","66.7","ND","ND","ND","5.3","0.1","ND","ND","ND","ND","253","0"],
    [71222,"2018-06-21T09:00:00","ND","ND","ND","ND","ND","ND","ND","ND","ND","ND","ND","ND"],
    [71223,"2018-06-21T10:00:00","ND","ND","ND","ND","ND","ND","ND","ND","ND","ND","ND","ND"],
    [71224,"2018-06-21T11:00:00","ND","ND","ND","ND","ND","ND","ND","ND","ND","ND","ND","ND"],
    [71225,"2018-06-21T12:00:00","ND","ND","ND","ND","ND","ND","ND","ND","ND","ND","ND","ND"],
    [71226,"2018-06-21T13:00:00","ND","ND","ND","ND","ND","ND","ND","ND","ND","ND","ND","ND"],
    [71227,"2018-06-21T14:00:00","ND","ND","ND","ND","ND","ND","ND","ND","ND","ND","ND","ND"],
    [71228,"2018-06-21T15:00:00","ND","ND","ND","ND","ND","ND","ND","ND","ND","ND","ND","ND"],
    [71229,"2018-06-21T16:00:00","ND","ND","ND","ND","ND","ND","ND","ND","ND","ND","ND","ND"],
    [71230,"2018-06-21T17:00:00","ND","ND","ND","ND","ND","ND","ND","ND","ND","ND","ND","ND"],
    [71231,"2018-06-21T18:00:00","ND","ND","ND","ND","ND","ND","ND","ND","ND","ND","ND","ND"],
    [71232,"2018-06-21T19:00:00","ND","ND","ND","ND","ND","ND","ND","ND","ND","ND","ND","ND"],
    [71233,"2018-06-21T20:00:00","ND","ND","ND","ND","ND","ND","ND","ND","ND","ND","ND","ND"],
    [71234,"2018-06-21T21:00:00","ND","ND","ND","ND","ND","ND","ND","ND","ND","ND","ND","ND"],
    [71235,"2018-06-21T22:00:00","ND","ND","ND","ND","ND","ND","ND","ND","ND","ND","ND","ND"],
    [71236,"2018-06-21T23:00:00","ND","ND","ND","ND","ND","ND","ND","ND","ND","ND","ND","ND"],
    [71237,"2018-06-22T00:00:00","ND","ND","ND","ND","ND","ND","ND","ND","ND","ND","ND","ND"],
    [71238,"2018-06-22T01:00:00","ND","ND","ND","ND","ND","ND","ND","ND","ND","ND","ND","ND"],
    [71239,"2018-06-22T02:00:00","ND","ND","ND","ND","ND","ND","ND","ND","ND","ND","ND","ND"],
    [71240,"2018-06-22T03:00:00","ND","ND","ND","ND","ND","ND","ND","ND","ND","ND","ND","ND"],
    [71241,"2018-06-22T04:00:00","ND","ND","ND","ND","ND","ND","ND","ND","ND","ND","ND","ND"],
    [71242,"2018-06-22T05:00:00","ND","ND","ND","ND","ND","ND","ND","ND","ND","ND","ND","ND"],
    [71243,"2018-06-22T06:00:00","ND","ND","ND","ND","ND","ND","ND","ND","ND","ND","ND","ND"],
    [71244,"2018-06-22T07:00:00","ND","ND","ND","ND","ND","ND","ND","ND","ND","ND","ND","ND"],
    [71245,"2018-06-22T08:00:00","ND","ND","ND","ND","ND","ND","ND","ND","ND","ND","ND","ND"],
    [71246,"2018-06-22T09:00:00","ND","ND","ND","ND","ND","ND","ND","ND","ND","ND","ND","ND"],
    [71247,"2018-06-22T10:00:00","ND","ND","ND","ND","ND","ND","ND","ND","ND","ND","ND","ND"],
    [71248,"2018-06-22T11:00:00","105","ND","ND","ND","77.4","1.0","ND","ND","ND","ND","665","0"],
    [71249,"2018-06-22T12:00:00","78.6","ND","ND","ND","95.9","0.5","ND","ND","ND","ND","665","0"],
    [71250,"2018-06-22T13:00:00","63.2","ND","ND","ND","109.1","0.4","ND","ND","ND","ND","658","0"],
    [71251,"2018-06-22T14:00:00","61.1","ND","ND","ND","120.8","0.3","ND","ND","ND","ND","663","0"],
    [71252,"2018-06-22T15:00:00","70.9","ND","ND","ND","109.0","0.2","ND","ND","ND","ND","657","0"],
    [71253,"2018-06-22T16:00:00","48.2","ND","ND","ND","41.9","0.1","ND","ND","ND","ND","653","0"],
    [71254,"2018-06-22T17:00:00","28","ND","ND","ND","35.6","0.1","ND","ND","ND","ND","387","0"],
    [71255,"2018-06-22T18:00:00","30.8","ND","ND","ND","31.3","0.1","ND","ND","ND","ND","149","0"],
    [71256,"2018-06-22T19:00:00","40.4","ND","ND","ND","23.2","0.1","ND","ND","ND","ND","5","0"],
    [71257,"2018-06-22T20:00:00","26.3","ND","ND","ND","17.7","0.2","ND","ND","ND","ND","0","0"],
    [71258,"2018-06-22T21:00:00","41.7","ND","ND","ND","5.4","0.2","ND","ND","ND","ND","0","0"],
    [71259,"2018-06-22T22:00:00","48.9","ND","ND","ND","4.5","1.0","ND","ND","ND","ND","0","0"],
    [71260,"2018-06-22T23:00:00","40.6","ND","ND","ND","4.4","0.8","ND","ND","ND","ND","0","0"],
    [71261,"2018-06-23T00:00:00","21.8","ND","ND","ND","4.2","0.7","ND","ND","ND","ND","0","0"],
    [71262,"2018-06-23T01:00:00","20.2","ND","ND","ND","4.0","0.4","ND","ND","ND","ND","0","0"],
    [71263,"2018-06-23T02:00:00","26.9","ND","ND","ND","4.3","0.8","ND","ND","ND","ND","0","0"],
    [71264,"2018-06-23T03:00:00","30.6","ND","ND","ND","5.1","0.5","ND","ND","ND","ND","0","0"],
    [71265,"2018-06-23T04:00:00","33.1","ND","ND","ND","5.4","0.5","ND","ND","ND","ND","0","0"],
    [71266,"2018-06-23T05:00:00","41.4","ND","ND","ND","4.2","1.3","ND","ND","ND","ND","0","0"],
    [71267,"2018-06-23T06:00:00","64.7","ND","ND","ND","4.2","0.9","ND","ND","ND","ND","0","0"],
    [71268,"2018-06-23T07:00:00","63","ND","ND","ND","4.8","0.7","ND","ND","ND","ND","85","0"],
    [71269,"2018-06-23T08:00:00","73.5","ND","ND","ND","6.1","0.5","ND","ND","ND","ND","273","0"],
    [71270,"2018-06-23T09:00:00","57.2","ND","ND","ND","9.1","0.5","ND","ND","ND","ND","413","0"],
    [71271,"2018-06-23T10:00:00","48","ND","ND","ND","18.2","0.4","ND","ND","ND","ND","665","0"],
    [71272,"2018-06-23T11:00:00","68.9","ND","ND","ND","31.0","0.3","ND","ND","ND","ND","665","0"],
    [71273,"2018-06-23T12:00:00","51.5","ND","ND","ND","55.5","0.2","ND","ND","ND","ND","665","0"],
    [71274,"2018-06-23T13:00:00","45.3","ND","ND","ND","87.8","0.1","ND","ND","ND","ND","666","0"],
    [71275,"2018-06-23T14:00:00","49.5","ND","ND","ND","91.6","0.2","ND","ND","ND","ND","612","0"],
    [71276,"2018-06-23T15:00:00","40.3","ND","ND","ND","54.1","0.2","ND","ND","ND","ND","658","0"],
    [71277,"2018-06-23T16:00:00","27.6","ND","ND","ND","48.4","0.1","ND","ND","ND","ND","639","0"],
    [71278,"2018-06-23T17:00:00","26.6","ND","ND","ND","37.2","0.0","ND","ND","ND","ND","375","0"],
    [71279,"2018-06-23T18:00:00","18.5","ND","ND","ND","33.0","0.0","ND","ND","ND","ND","120","0"],
    [71280,"2018-06-23T19:00:00","11.2","ND","ND","ND","25.7","0.0","ND","ND","ND","ND","7","0"],
    [71281,"2018-06-23T20:00:00","12.8","ND","ND","ND","17.4","0.1","ND","ND","ND","ND","0","0"],
    [71282,"2018-06-23T21:00:00","6.5","ND","ND","ND","23.3","0.2","ND","ND","ND","ND","0","0"],
    [71283,"2018-06-23T22:00:00","1.1","ND","ND","ND","16.2","0.1","ND","ND","ND","ND","0","0"],
    [71284,"2018-06-23T23:00:00","1.9","ND","ND","ND","12.9","0.3","ND","ND","ND","ND","0","0"],
    [71285,"2018-06-24T00:00:00","20.2","ND","ND","ND","10.5","0.9","ND","ND","ND","ND","0","0"],
    [71286,"2018-06-24T01:00:00","23.1","ND","ND","ND","8.9","0.4","ND","ND","ND","ND","0","0"],
    [71287,"2018-06-24T02:00:00","6.7","ND","ND","ND","10.8","0.3","ND","ND","ND","ND","0","0"],
    [71288,"2018-06-24T03:00:00","21.3","ND","ND","ND","7.1","0.3","ND","ND","ND","ND","0","0"],
    [71289,"2018-06-24T04:00:00","10.9","ND","ND","ND","6.6","0.3","ND","ND","ND","ND","0","0"],
    [71290,"2018-06-24T05:00:00","33.1","ND","ND","ND","6.3","0.5","ND","ND","ND","ND","0","0"],
    [71291,"2018-06-24T06:00:00","33.7","ND","ND","ND","4.9","0.4","ND","ND","ND","ND","0","0"],
    [71292,"2018-06-24T07:00:00","38","ND","ND","ND","6.7","0.6","ND","ND","ND","ND","107","0"],
    [71293,"2018-06-24T08:00:00","46.3","ND","ND","ND","10.8","0.6","ND","ND","ND","ND","360","0"],
    [71294,"2018-06-24T09:00:00","52.7","ND","ND","ND","12.1","0.7","ND","ND","ND","ND","643","0"],
    [71295,"2018-06-24T10:00:00","68.5","ND","ND","ND","20.2","0.6","ND","ND","ND","ND","665","0"],
    [71296,"2018-06-24T11:00:00","51.3","ND","ND","ND","43.9","0.2","ND","ND","ND","ND","665","0"],
    [71297,"2018-06-24T12:00:00","40.1","ND","ND","ND","61.0","0.1","ND","ND","ND","ND","665","0"],
    [71298,"2018-06-24T13:00:00","45.6","ND","ND","ND","67.4","0.1","ND","ND","ND","ND","666","0"],
    [71299,"2018-06-24T14:00:00","37.2","ND","ND","ND","67.3","0.1","ND","ND","ND","ND","666","0"],
    [71300,"2018-06-24T15:00:00","34","ND","ND","ND","67.0","0.1","ND","ND","ND","ND","666","0"],
    [71301,"2018-06-24T16:00:00","24.8","ND","ND","ND","42.0","0.1","ND","ND","ND","ND","653","0"],
    [71302,"2018-06-24T17:00:00","20.2","ND","ND","ND","34.4","0.2","ND","ND","ND","ND","460","0"],
    [71303,"2018-06-24T18:00:00","13.9","ND","ND","ND","29.5","0.1","ND","ND","ND","ND","90","0"],
    [71304,"2018-06-24T19:00:00","12.2","ND","ND","ND","24.7","0.1","ND","ND","ND","ND","4","0"],
    [71305,"2018-06-24T20:00:00","11.9","ND","ND","ND","14.9","0.2","ND","ND","ND","ND","0","0"],
    [71306,"2018-06-24T21:00:00","20.4","ND","ND","ND","6.7","0.1","ND","ND","ND","ND","0","0"],
    [71307,"2018-06-24T22:00:00","24","ND","ND","ND","4.7","1.8","ND","ND","ND","ND","0","0"],
    [71308,"2018-06-24T23:00:00","23.3","ND","ND","ND","4.4","1.2","ND","ND","ND","ND","0","0"],
    [71309,"2018-06-25T00:00:00","16.6","ND","ND","ND","4.3","1.4","ND","ND","ND","ND","0","0"],
    [71310,"2018-06-25T01:00:00","31.2","ND","ND","ND","4.4","1.4","ND","ND","ND","ND","0","0"],
    [71311,"2018-06-25T02:00:00","35.8","ND","ND","ND","4.3","1.2","ND","ND","ND","ND","0","0"],
    [71312,"2018-06-25T03:00:00","29.4","ND","ND","ND","5.2","0.7","ND","ND","ND","ND","0","0"],
    [71313,"2018-06-25T04:00:00","29","ND","ND","ND","4.4","0.7","ND","ND","ND","ND","0","0"],
    [71314,"2018-06-25T05:00:00","36.5","ND","ND","ND","4.4","0.8","ND","ND","ND","ND","0","0"],
    [71315,"2018-06-25T06:00:00","46.3","ND","ND","ND","4.4","1.3","ND","ND","ND","ND","0","0"],
    [71316,"2018-06-25T07:00:00","60.8","ND","ND","ND","4.8","1.0","ND","ND","ND","ND","64","0"],
    [71317,"2018-06-25T08:00:00","95.9","ND","ND","ND","6.3","1.4","ND","ND","ND","ND","393","0"],
    [71318,"2018-06-25T09:00:00","115.7","ND","ND","ND","10.9","1.8","ND","ND","ND","ND","659","0"],
    [71319,"2018-06-25T10:00:00","78.4","ND","ND","ND","26.3","0.5","ND","ND","ND","ND","653","0"],
    [71320,"2018-06-25T11:00:00","48.8","ND","ND","ND","36.9","0.3","ND","ND","ND","ND","665","0"],
    [71321,"2018-06-25T12:00:00","43","ND","ND","ND","56.1","0.4","ND","ND","ND","ND","663","0"],
    [71322,"2018-06-25T13:00:00","49.2","ND","ND","ND","72.8","0.2","ND","ND","ND","ND","666","0"],
    [71323,"2018-06-25T14:00:00","45.5","ND","ND","ND","62.9","0.1","ND","ND","ND","ND","664","0"],
    [71324,"2018-06-25T15:00:00","32.1","ND","ND","ND","39.1","0.1","ND","ND","ND","ND","643","0"],
    [71325,"2018-06-25T16:00:00","18.9","ND","ND","ND","38.1","0.1","ND","ND","ND","ND","656","0"],
    [71326,"2018-06-25T17:00:00","21.3","ND","ND","ND","39.0","0.1","ND","ND","ND","ND","573","0"],
    [71327,"2018-06-25T18:00:00","21.2","ND","ND","ND","27.5","0.1","ND","ND","ND","ND","205","0"],
    [71328,"2018-06-25T19:00:00","28.3","ND","ND","ND","18.4","0.1","ND","ND","ND","ND","5","0"],
    [71329,"2018-06-25T20:00:00","22.3","ND","ND","ND","10.4","0.1","ND","ND","ND","ND","0","0"],
    [71330,"2018-06-25T21:00:00","42.2","ND","ND","ND","8.0","0.4","ND","ND","ND","ND","0","0"],
    [71331,"2018-06-25T22:00:00","43.2","ND","ND","ND","10.4","0.3","ND","ND","ND","ND","0","0"],
    [71332,"2018-06-25T23:00:00","22","ND","ND","ND","7.9","0.3","ND","ND","ND","ND","0","0"],
    [71333,"2018-06-26T00:00:00","8.7","ND","ND","ND","12.1","0.3","ND","ND","ND","ND","0","0"],
    [71334,"2018-06-26T01:00:00","6.1","ND","ND","ND","10.5","0.1","ND","ND","ND","ND","0","0"],
    [71335,"2018-06-26T02:00:00","17.1","ND","ND","ND","7.6","0.1","ND","ND","ND","ND","0","0"],
    [71336,"2018-06-26T03:00:00","38.1","ND","ND","ND","5.4","1.2","ND","ND","ND","ND","0","0"],
    [71337,"2018-06-26T04:00:00","57","ND","ND","ND","5.1","1.3","ND","ND","ND","ND","0","0"],
    [71338,"2018-06-26T05:00:00","52.5","ND","ND","ND","4.7","3.7","ND","ND","ND","ND","0","0"],
    [71339,"2018-06-26T06:00:00","70.2","ND","ND","ND","4.6","3.2","ND","ND","ND","ND","0","0"],
    [71340,"2018-06-26T07:00:00","88.2","ND","ND","ND","5.1","2.3","ND","ND","ND","ND","38","0"],
    [71341,"2018-06-26T08:00:00","98.6","ND","ND","ND","6.1","2.6","ND","ND","ND","ND","243","0"],
    [71342,"2018-06-26T09:00:00","109.9","ND","ND","ND","9.0","2.2","ND","ND","ND","ND","565","0"],
    [71343,"2018-06-26T10:00:00","107.3","ND","ND","ND","14.4","1.6","ND","ND","ND","ND","634","0"],
    [71344,"2018-06-26T11:00:00","76.6","ND","ND","ND","25.7","0.4","ND","ND","ND","ND","623","0"],
    [71345,"2018-06-26T12:00:00","49.9","ND","ND","ND","49.6","0.5","ND","ND","ND","ND","665","0"],
    [71346,"2018-06-26T13:00:00","54.7","ND","ND","ND","63.2","0.4","ND","ND","ND","ND","662","0"],
    [71347,"2018-06-26T14:00:00","56.7","ND","ND","ND","76.8","0.2","ND","ND","ND","ND","665","0"],
    [71348,"2018-06-26T15:00:00","59.2","ND","ND","ND","94.9","0.4","ND","ND","ND","ND","558","0"],
    [71349,"2018-06-26T16:00:00","55.1","ND","ND","ND","66.5","0.1","ND","ND","ND","ND","547","0"],
    [71350,"2018-06-26T17:00:00","37.3","ND","ND","ND","65.4","0.2","ND","ND","ND","ND","626","0"],
    [71351,"2018-06-26T18:00:00","32.8","ND","ND","ND","27.7","0.2","ND","ND","ND","ND","160","0"],
    [71352,"2018-06-26T19:00:00","31.8","ND","ND","ND","16.1","0.1","ND","ND","ND","ND","4","0"],
    [71353,"2018-06-26T20:00:00","35.2","ND","ND","ND","10.9","0.1","ND","ND","ND","ND","0","0"],
    [71354,"2018-06-26T21:00:00","32.5","ND","ND","ND","5.1","0.2","ND","ND","ND","ND","0","0"],
    [71355,"2018-06-26T22:00:00","47.7","ND","ND","ND","4.6","1.0","ND","ND","ND","ND","0","0"],
    [71356,"2018-06-26T23:00:00","36.9","ND","ND","ND","4.4","0.8","ND","ND","ND","ND","0","0"],
    [71357,"2018-06-27T00:00:00","35.6","ND","ND","ND","4.5","2.9","ND","ND","ND","ND","0","0"],
    [71358,"2018-06-27T01:00:00","22.5","ND","ND","ND","4.4","0.8","ND","ND","ND","ND","0","0"],
    [71359,"2018-06-27T02:00:00","16.9","ND","ND","ND","7.0","0.8","ND","ND","ND","ND","0","0"],
    [71360,"2018-06-27T03:00:00","20.8","ND","ND","ND","4.6","0.4","ND","ND","ND","ND","0","0"],
    [71361,"2018-06-27T04:00:00","20.8","ND","ND","ND","4.3","0.5","ND","ND","ND","ND","0","0"],
    [71362,"2018-06-27T05:00:00","31.4","ND","ND","ND","4.1","0.6","ND","ND","ND","ND","0","0"],
    [71363,"2018-06-27T06:00:00","30.8","ND","ND","ND","4.2","0.4","ND","ND","ND","ND","2","0"],
    [71364,"2018-06-27T07:00:00","30.6","ND","ND","ND","4.3","0.4","ND","ND","ND","ND","47","0"],
    [71365,"2018-06-27T08:00:00","63.7","ND","ND","ND","5.2","0.8","ND","ND","ND","ND","276","0"],
    [71366,"2018-06-27T09:00:00","85.8","ND","ND","ND","ND","1.1","ND","ND","ND","ND","398","0"],
    [71367,"2018-06-27T10:00:00","96.1","ND","ND","ND","ND","ND","ND","ND","ND","ND","561","0"],
    [71368,"2018-06-27T11:00:00","75.7","ND","ND","ND","40.9","ND","ND","ND","ND","ND","652","0"],
    [71369,"2018-06-27T12:00:00","65.4","ND","ND","ND","53.9","0.8","ND","ND","ND","ND","665","0"],
    [71370,"2018-06-27T13:00:00","61.3","ND","ND","ND","41.7","0.6","ND","ND","ND","ND","666","0"],
    [71371,"2018-06-27T14:00:00","29.3","ND","ND","ND","40.3","0.4","ND","ND","ND","ND","666","0"],
    [71372,"2018-06-27T15:00:00","15.4","ND","ND","ND","37.9","0.1","ND","ND","ND","ND","653","0"],
    [71373,"2018-06-27T16:00:00","22.5","ND","ND","ND","30.2","0.1","ND","ND","ND","ND","635","0"],
    [71374,"2018-06-27T17:00:00","22.1","ND","ND","ND","28.4","0.1","ND","ND","ND","ND","514","0"],
    [71375,"2018-06-27T18:00:00","16.9","ND","ND","ND","26.0","0.0","ND","ND","ND","ND","259","0"],
    [71376,"2018-06-27T19:00:00","17.2","ND","ND","ND","21.4","0.1","ND","ND","ND","ND","15","0"],
    [71377,"2018-06-27T20:00:00","18.6","ND","ND","ND","8.9","0.1","ND","ND","ND","ND","0","0"],
    [71378,"2018-06-27T21:00:00","28.5","ND","ND","ND","5.0","1.3","ND","ND","ND","ND","0","0"],
    [71379,"2018-06-27T22:00:00","20.5","ND","ND","ND","15.6","0.3","ND","ND","ND","ND","0","0"],
    [71380,"2018-06-27T23:00:00","2.4","ND","ND","ND","16.6","0.2","ND","ND","ND","ND","0","0"],
    [71381,"2018-06-28T00:00:00","17.4","ND","ND","ND","13.2","0.2","ND","ND","ND","ND","0","0.25"],
    [71382,"2018-06-28T01:00:00","43","ND","ND","ND","8.1","0.7","ND","ND","ND","ND","0","17.78"],
    [71383,"2018-06-28T02:00:00","7","ND","ND","ND","3.9","0.6","ND","ND","ND","ND","0","4.32"],
    [71384,"2018-06-28T03:00:00","ND","ND","ND","ND","4.4","0.0","ND","ND","ND","ND","0","1.02"],
    [71385,"2018-06-28T04:00:00","2.1","ND","ND","ND","3.9","0.4","ND","ND","ND","ND","0","0"],
    [71386,"2018-06-28T05:00:00","ND","ND","ND","ND","3.8","1.0","ND","ND","ND","ND","0","0.25"],
    [71387,"2018-06-28T06:00:00","8.1","ND","ND","ND","4.0","0.9","ND","ND","ND","ND","0","0.25"],
    [71388,"2018-06-28T07:00:00","25.4","ND","ND","ND","4.2","0.4","ND","ND","ND","ND","71","0"],
    [71389,"2018-06-28T08:00:00","36","ND","ND","ND","4.2","0.3","ND","ND","ND","ND","512","0"],
    [71390,"2018-06-28T09:00:00","71.1","ND","ND","ND","6.2","0.3","ND","ND","ND","ND","531","0"],
    [71391,"2018-06-28T10:00:00","49.7","ND","ND","ND","13.2","0.2","ND","ND","ND","ND","665","0"],
    [71392,"2018-06-28T11:00:00","41.9","ND","ND","ND","25.1","0.1","ND","ND","ND","ND","665","0"],
    [71393,"2018-06-28T12:00:00","41.1","ND","ND","ND","41.5","0.4","ND","ND","ND","ND","656","0"],
    [71394,"2018-06-28T13:00:00","42.5","ND","ND","ND","40.3","0.1","ND","ND","ND","ND","665","0"],
    [71395,"2018-06-28T14:00:00","44.9","ND","ND","ND","30.9","0.2","ND","ND","ND","ND","572","0"],
    [71396,"2018-06-28T15:00:00","35.1","ND","ND","ND","23.6","0.1","ND","ND","ND","ND","661","0"],
    [71397,"2018-06-28T16:00:00","15.9","ND","ND","ND","26.0","0.1","ND","ND","ND","ND","594","0"],
    [71398,"2018-06-28T17:00:00","18.9","ND","ND","ND","24.2","0.2","ND","ND","ND","ND","562","0"],
    [71399,"2018-06-28T18:00:00","15.1","ND","ND","ND","17.5","0.1","ND","ND","ND","ND","222","0"],
    [71400,"2018-06-28T19:00:00","17.1","ND","ND","ND","9.7","0.2","ND","ND","ND","ND","10","0"],
    [71401,"2018-06-28T20:00:00","24.9","ND","ND","ND","6.5","0.0","ND","ND","ND","ND","0","0"],
    [71402,"2018-06-28T21:00:00","22.1","ND","ND","ND","5.3","0.2","ND","ND","ND","ND","0","0"],
    [71403,"2018-06-28T22:00:00","26","ND","ND","ND","5.4","0.2","ND","ND","ND","ND","0","0"],
    [71404,"2018-06-28T23:00:00","24.3","ND","ND","ND","4.8","0.3","ND","ND","ND","ND","0","0"],
    [71405,"2018-06-29T00:00:00","35","ND","ND","ND","4.9","0.4","ND","ND","ND","ND","0","0"],
    [71406,"2018-06-29T01:00:00","42.6","ND","ND","ND","4.2","0.4","ND","ND","ND","ND","0","0.25"],
    [71407,"2018-06-29T02:00:00","45.9","ND","ND","ND","4.3","0.2","ND","ND","ND","ND","0","0"],
    [71408,"2018-06-29T03:00:00","22.9","ND","ND","ND","3.9","0.1","ND","ND","ND","ND","0","0"],
    [71409,"2018-06-29T04:00:00","5.5","ND","ND","ND","4.1","0.1","ND","ND","ND","ND","0","0"],
    [71410,"2018-06-29T05:00:00","2.3","ND","ND","ND","4.1","0.1","ND","ND","ND","ND","0","0"],
    [71411,"2018-06-29T06:00:00","18.9","ND","ND","ND","4.6","0.4","ND","ND","ND","ND","1","0"],
    [71412,"2018-06-29T07:00:00","38.3","ND","ND","ND","4.6","0.2","ND","ND","ND","ND","55","0"],
    [71413,"2018-06-29T08:00:00","44.1","ND","ND","ND","4.7","0.2","ND","ND","ND","ND","361","0"],
    [71414,"2018-06-29T09:00:00","90.8","ND","ND","ND","8.0","0.5","ND","ND","ND","ND","523","0"],
    [71415,"2018-06-29T10:00:00","87.4","ND","ND","ND","14.0","0.5","ND","ND","ND","ND","665","0"],
    [71416,"2018-06-29T11:00:00","68.8","ND","ND","ND","30.6","0.3","ND","ND","ND","ND","665","0"],
    [71417,"2018-06-29T12:00:00","48","ND","ND","ND","51.6","0.2","ND","ND","ND","ND","665","0"],
    [71418,"2018-06-29T13:00:00","48.9","ND","ND","ND","65.4","0.2","ND","ND","ND","ND","570","0"],
    [71419,"2018-06-29T14:00:00","35.6","ND","ND","ND","54.1","0.3","ND","ND","ND","ND","662","0"],
    [71420,"2018-06-29T15:00:00","22","ND","ND","ND","25.9","0.1","ND","ND","ND","ND","633","0"],
    [71421,"2018-06-29T16:00:00","19.9","ND","ND","ND","24.9","0.1","ND","ND","ND","ND","547","0"],
    [71422,"2018-06-29T17:00:00","10","ND","ND","ND","23.9","0.1","ND","ND","ND","ND","630","0"],
    [71423,"2018-06-29T18:00:00","14.3","ND","ND","ND","17.9","0.1","ND","ND","ND","ND","302","0"],
    [71424,"2018-06-29T19:00:00","13.1","ND","ND","ND","12.4","0.2","ND","ND","ND","ND","10","0"],
    [71425,"2018-06-29T20:00:00","19.4","ND","ND","ND","7.6","0.1","ND","ND","ND","ND","0","0"],
    [71426,"2018-06-29T21:00:00","19.6","ND","ND","ND","5.4","0.1","ND","ND","ND","ND","0","0"],
    [71427,"2018-06-29T22:00:00","34","ND","ND","ND","4.9","0.7","ND","ND","ND","ND","0","0"],
    [71428,"2018-06-29T23:00:00","29","ND","ND","ND","6.0","0.7","ND","ND","ND","ND","0","0"],
    [71429,"2018-06-30T00:00:00","29","ND","ND","ND","4.7","0.6","ND","ND","ND","ND","0","0"],
    [71430,"2018-06-30T01:00:00","40.7","ND","ND","ND","4.6","0.4","ND","ND","ND","ND","0","0"],
    [71431,"2018-06-30T02:00:00","36.3","ND","ND","ND","4.5","0.4","ND","ND","ND","ND","0","0"],
    [71432,"2018-06-30T03:00:00","32.8","ND","ND","ND","4.7","0.4","ND","ND","ND","ND","0","0"],
    [71433,"2018-06-30T04:00:00","40.2","ND","ND","ND","4.2","0.9","ND","ND","ND","ND","0","0"],
    [71434,"2018-06-30T05:00:00","37.1","ND","ND","ND","4.2","0.5","ND","ND","ND","ND","0","0"],
    [71435,"2018-06-30T06:00:00","33.1","ND","ND","ND","4.0","0.2","ND","ND","ND","ND","0","0"],
    [71436,"2018-06-30T07:00:00","32.9","ND","ND","ND","4.3","0.3","ND","ND","ND","ND","58","0"],
    [71437,"2018-06-30T08:00:00","38.5","ND","ND","ND","4.7","0.3","ND","ND","ND","ND","205","0"],
    [71438,"2018-06-30T09:00:00","40","ND","ND","ND","4.7","0.3","ND","ND","ND","ND","148","0"],
    [71439,"2018-06-30T10:00:00","37.9","ND","ND","ND","5.7","0.3","ND","ND","ND","ND","289","0"],
    [71440,"2018-06-30T11:00:00","30.9","ND","ND","ND","15.2","0.0","ND","ND","ND","ND","653","0"],
    [71441,"2018-06-30T12:00:00","44.4","ND","ND","ND","22.8","0.1","ND","ND","ND","ND","575","0"],
    [71442,"2018-06-30T13:00:00","36.2","ND","ND","ND","41.8","0.2","ND","ND","ND","ND","663","0"],
    [71443,"2018-06-30T14:00:00","26.2","ND","ND","ND","38.3","0.2","ND","ND","ND","ND","641","0"],
    [71444,"2018-06-30T15:00:00","10","ND","ND","ND","32.4","0.1","ND","ND","ND","ND","665","0"],
    [71445,"2018-06-30T16:00:00","12.3","ND","ND","ND","28.8","0.2","ND","ND","ND","ND","628","0"],
    [71446,"2018-06-30T17:00:00","3.6","ND","ND","ND","26.9","0.1","ND","ND","ND","ND","441","0"],
    [71447,"2018-06-30T18:00:00","37.5","ND","ND","ND","24.5","0.1","ND","ND","ND","ND","109","0"],
    [71448,"2018-06-30T19:00:00","26.9","ND","ND","ND","21.7","0.1","ND","ND","ND","ND","4","0"],
    [71449,"2018-06-30T20:00:00","16.3","ND","ND","ND","11.7","0.2","ND","ND","ND","ND","0","0"],
    [71450,"2018-06-30T21:00:00","9.5","ND","ND","ND","8.3","0.6","ND","ND","ND","ND","0","0"],
    [71451,"2018-06-30T22:00:00","20","ND","ND","ND","6.3","0.7","ND","ND","ND","ND","0","0"],
    [71452,"2018-06-30T23:00:00","25.7","ND","ND","ND","4.4","0.5","ND","ND","ND","ND","0","0"],
    [71453,"2018-07-01T00:00:00","45.9","ND","ND","ND","4.2","0.6","ND","ND","ND","ND","0","0"],
    [71454,"2018-07-01T01:00:00","52.2","ND","ND","ND","4.2","1.1","ND","ND","ND","ND","0","0"],
    [71455,"2018-07-01T02:00:00","46","ND","ND","ND","4.2","1.8","ND","ND","ND","ND","0","0"],
    [71456,"2018-07-01T03:00:00","36.3","ND","ND","ND","4.9","1.3","ND","ND","ND","ND","0","0"],
    [71457,"2018-07-01T04:00:00","41.1","ND","ND","ND","5.4","1.7","ND","ND","ND","ND","0","0"],
    [71458,"2018-07-01T05:00:00","39.8","ND","ND","ND","4.5","2.4","ND","ND","ND","ND","0","0"],
    [71459,"2018-07-01T06:00:00","37.6","ND","ND","ND","4.9","3.2","ND","ND","ND","ND","1","0"],
    [71460,"2018-07-01T07:00:00","42.5","ND","ND","ND","4.6","3.1","ND","ND","ND","ND","87","0"],
    [71461,"2018-07-01T08:00:00","45.7","ND","ND","ND","6.3","2.1","ND","ND","ND","ND","291","0"],
    [71462,"2018-07-01T09:00:00","56.2","ND","ND","ND","13.3","1.8","ND","ND","ND","ND","657","0"],
    [71463,"2018-07-01T10:00:00","60","ND","ND","ND","13.1","0.8","ND","ND","ND","ND","650","0"],
    [71464,"2018-07-01T11:00:00","39.2","ND","ND","ND","33.9","0.9","ND","ND","ND","ND","663","0"],
    [71465,"2018-07-01T12:00:00","35.1","ND","ND","ND","60.4","1.0","ND","ND","ND","ND","665","0"],
    [71466,"2018-07-01T13:00:00","43.1","ND","ND","ND","76.9","0.6","ND","ND","ND","ND","664","0"],
    [71467,"2018-07-01T14:00:00","25.7","ND","ND","ND","67.2","0.4","ND","ND","ND","ND","662","0"],
    [71468,"2018-07-01T15:00:00","22.3","ND","ND","ND","46.0","0.4","ND","ND","ND","ND","515","0"],
    [71469,"2018-07-01T16:00:00","12.2","ND","ND","ND","25.5","0.2","ND","ND","ND","ND","560","0"],
    [71470,"2018-07-01T17:00:00","4","ND","ND","ND","25.3","0.3","ND","ND","ND","ND","546","0"],
    [71471,"2018-07-01T18:00:00","13.3","ND","ND","ND","24.1","0.3","ND","ND","ND","ND","237","0"],
    [71472,"2018-07-01T19:00:00","16.8","ND","ND","ND","20.0","0.2","ND","ND","ND","ND","4","0"],
    [71473,"2018-07-01T20:00:00","24.5","ND","ND","ND","19.1","0.1","ND","ND","ND","ND","0","0"],
    [71474,"2018-07-01T21:00:00","0.3","ND","ND","ND","12.7","0.3","ND","ND","ND","ND","0","0"],
    [71475,"2018-07-01T22:00:00","21.7","ND","ND","ND","12.2","0.6","ND","ND","ND","ND","0","0"],
    [71476,"2018-07-01T23:00:00","28.9","ND","ND","ND","15.0","0.3","ND","ND","ND","ND","0","0"],
    [71477,"2018-07-02T00:00:00","3.3","ND","ND","ND","7.2","0.2","ND","ND","ND","ND","0","0"],
    [71478,"2018-07-02T01:00:00","1.3","ND","ND","ND","5.8","0.2","ND","ND","ND","ND","0","0"],
    [71479,"2018-07-02T02:00:00","3.5","ND","ND","ND","5.1","0.3","ND","ND","ND","ND","0","0"],
    [71480,"2018-07-02T03:00:00","25","ND","ND","ND","4.7","0.6","ND","ND","ND","ND","0","0"],
    [71481,"2018-07-02T04:00:00","24.8","ND","ND","ND","4.5","0.1","ND","ND","ND","ND","0","0"],
    [71482,"2018-07-02T05:00:00","23.9","ND","ND","ND","4.4","0.5","ND","ND","ND","ND","0","0"],
    [71483,"2018-07-02T06:00:00","37.3","ND","ND","ND","4.9","2.5","ND","ND","ND","ND","2","0"],
    [71484,"2018-07-02T07:00:00","45.3","ND","ND","ND","4.8","1.6","ND","ND","ND","ND","81","0"],
    [71485,"2018-07-02T08:00:00","62.3","ND","ND","ND","5.0","1.2","ND","ND","ND","ND","194","0"],
    [71486,"2018-07-02T09:00:00","69","ND","ND","ND","7.1","1.7","ND","ND","ND","ND","431","0"],
    [71487,"2018-07-02T10:00:00","70.4","ND","ND","ND","10.8","2.3","ND","ND","ND","ND","663","0"],
    [71488,"2018-07-02T11:00:00","61.7","ND","ND","ND","20.1","0.8","ND","ND","ND","ND","665","0"],
    [71489,"2018-07-02T12:00:00","44.2","ND","ND","ND","30.3","0.5","ND","ND","ND","ND","665","0"],
    [71490,"2018-07-02T13:00:00","37.4","ND","ND","ND","46.2","0.4","ND","ND","ND","ND","567","0"],
    [71491,"2018-07-02T14:00:00","32","ND","ND","ND","51.8","0.6","ND","ND","ND","ND","604","0"],
    [71492,"2018-07-02T15:00:00","14.2","ND","ND","ND","48.8","0.3","ND","ND","ND","ND","543","0"],
    [71493,"2018-07-02T16:00:00","11.4","ND","ND","ND","35.9","0.1","ND","ND","ND","ND","649","0"],
    [71494,"2018-07-02T17:00:00","7.4","ND","ND","ND","30.0","0.1","ND","ND","ND","ND","300","0"],
    [71495,"2018-07-02T18:00:00","16.4","ND","ND","ND","22.1","0.1","ND","ND","ND","ND","232","0"],
    [71496,"2018-07-02T19:00:00","14.6","ND","ND","ND","16.1","0.2","ND","ND","ND","ND","13","0"],
    [71497,"2018-07-02T20:00:00","ND","ND","ND","ND","11.5","0.1","ND","ND","ND","ND","0","0"],
    [71498,"2018-07-02T21:00:00","ND","ND","ND","ND","5.6","0.1","ND","ND","ND","ND","0","0"],
    [71499,"2018-07-02T22:00:00","0.1","ND","ND","ND","4.8","0.5","ND","ND","ND","ND","0","0"],
    [71500,"2018-07-02T23:00:00","6.7","ND","ND","ND","4.5","0.9","ND","ND","ND","ND","0","0"],
    [71501,"2018-07-03T00:00:00","26.9","ND","ND","ND","4.3","0.6","ND","ND","ND","ND","0","0"],
    [71502,"2018-07-03T01:00:00","24.4","ND","ND","ND","6.6","0.3","ND","ND","ND","ND","0","0"],
    [71503,"2018-07-03T02:00:00","19.8","ND","ND","ND","7.4","0.3","ND","ND","ND","ND","0","0"],
    [71504,"2018-07-03T03:00:00","31","ND","ND","ND","8.0","0.3","ND","ND","ND","ND","0","0"],
    [71505,"2018-07-03T04:00:00","21.3","ND","ND","ND","8.6","0.3","ND","ND","ND","ND","0","0"],
    [71506,"2018-07-03T05:00:00","28.7","ND","ND","ND","5.6","0.3","ND","ND","ND","ND","0","0"],
    [71507,"2018-07-03T06:00:00","34.9","ND","ND","ND","4.7","2.2","ND","ND","ND","ND","0","0"],
    [71508,"2018-07-03T07:00:00","47.1","ND","ND","ND","4.6","2.0","ND","ND","ND","ND","37","0"],
    [71509,"2018-07-03T08:00:00","50.3","ND","ND","ND","4.7","1.9","ND","ND","ND","ND","169","0"],
    [71510,"2018-07-03T09:00:00","95.1","ND","ND","ND","6.9","1.7","ND","ND","ND","ND","590","0"],
    [71511,"2018-07-03T10:00:00","113.2","ND","ND","ND","13.6","1.3","ND","ND","ND","ND","652","0"],
    [71512,"2018-07-03T11:00:00","ND","ND","ND","ND","ND","ND","ND","ND","ND","ND","ND","ND"],
    [71513,"2018-07-03T12:00:00","55","ND","ND","ND","26.6","0.3","ND","ND","ND","ND","666","0"],
    [71514,"2018-07-03T13:00:00","ND","ND","ND","ND","ND","ND","ND","ND","ND","ND","ND","ND"],
    [71515,"2018-07-03T14:00:00","ND","ND","ND","ND","ND","ND","ND","ND","ND","ND","ND","ND"],
    [71516,"2018-07-03T15:00:00","ND","ND","ND","ND","ND","ND","ND","ND","ND","ND","ND","ND"],
    [71517,"2018-07-03T16:00:00","ND","ND","ND","ND","ND","ND","ND","ND","ND","ND","ND","ND"],
    [71518,"2018-07-03T17:00:00","ND","ND","ND","ND","ND","ND","ND","ND","ND","ND","ND","ND"],
    [71519,"2018-07-03T18:00:00","51.1","ND","ND","ND","43.5","0.5","ND","ND","ND","ND","155","0"],
    [71520,"2018-07-03T19:00:00","22","ND","ND","ND","26.3","0.5","ND","ND","ND","ND","11","0"],
    [71521,"2018-07-03T20:00:00","0.4","ND","ND","ND","10.7","0.1","ND","ND","ND","ND","0","0"],
    [71522,"2018-07-03T21:00:00","16.8","ND","ND","ND","6.4","0.1","ND","ND","ND","ND","0","0"],
    [71523,"2018-07-03T22:00:00","43","ND","ND","ND","5.3","0.1","ND","ND","ND","ND","0","0"],
    [71524,"2018-07-03T23:00:00","37.3","ND","ND","ND","4.5","0.7","ND","ND","ND","ND","0","0"],
    [71525,"2018-07-04T00:00:00","31.9","ND","ND","ND","4.2","0.4","ND","ND","ND","ND","0","0"],
    [71526,"2018-07-04T01:00:00","24.7","ND","ND","ND","4.4","0.4","ND","ND","ND","ND","0","0"],
    [71527,"2018-07-04T02:00:00","41.1","ND","ND","ND","4.5","0.5","ND","ND","ND","ND","0","0"],
    [71528,"2018-07-04T03:00:00","46","ND","ND","ND","4.3","0.4","ND","ND","ND","ND","0","0"],
    [71529,"2018-07-04T04:00:00","46.5","ND","ND","ND","4.4","0.7","ND","ND","ND","ND","0","0"],
    [71530,"2018-07-04T05:00:00","67.5","ND","ND","ND","4.4","0.9","ND","ND","ND","ND","0","0"],
    [71531,"2018-07-04T06:00:00","63.1","ND","ND","ND","4.3","0.7","ND","ND","ND","ND","0","0"],
    [71532,"2018-07-04T07:00:00","54.8","ND","ND","ND","4.5","0.6","ND","ND","ND","ND","103","0"],
    [71533,"2018-07-04T08:00:00","73.8","ND","ND","ND","5.0","0.7","ND","ND","ND","ND","473","0"],
    [71534,"2018-07-04T09:00:00","94.1","ND","ND","ND","15.0","0.3","ND","ND","ND","ND","643","0"],
    [71535,"2018-07-04T10:00:00","81.1","ND","ND","ND","36.3","0.3","ND","ND","ND","ND","663","0"],
    [71536,"2018-07-04T11:00:00","69.3","ND","ND","ND","65.9","0.4","ND","ND","ND","ND","649","0"],
    [71537,"2018-07-04T12:00:00","65","ND","ND","ND","71.3","0.2","ND","ND","ND","ND","665","0"],
    [71538,"2018-07-04T13:00:00","75.8","ND","ND","ND","91.0","0.3","ND","ND","ND","ND","661","0"],
    [71539,"2018-07-04T14:00:00","42.5","ND","ND","ND","100.9","0.2","ND","ND","ND","ND","662","0"],
    [71540,"2018-07-04T15:00:00","54.7","ND","ND","ND","107.5","0.1","ND","ND","ND","ND","658","0"],
    [71541,"2018-07-04T16:00:00","55.8","ND","ND","ND","62.1","0.2","ND","ND","ND","ND","664","0"],
    [71542,"2018-07-04T17:00:00","27.8","ND","ND","ND","47.7","0.2","ND","ND","ND","ND","615","0"],
    [71543,"2018-07-04T18:00:00","6.1","ND","ND","ND","38.8","0.2","ND","ND","ND","ND","201","0"],
    [71544,"2018-07-04T19:00:00","4.8","ND","ND","ND","31.2","0.2","ND","ND","ND","ND","4","0"],
    [71545,"2018-07-04T20:00:00","0.5","ND","ND","ND","20.9","0.1","ND","ND","ND","ND","0","0"],
    [71546,"2018-07-04T21:00:00","25.9","ND","ND","ND","10.5","0.3","ND","ND","ND","ND","0","0"],
    [71547,"2018-07-04T22:00:00","34.1","ND","ND","ND","4.6","0.4","ND","ND","ND","ND","0","0"],
    [71548,"2018-07-04T23:00:00","46","ND","ND","ND","4.3","0.3","ND","ND","ND","ND","0","0"],
    [71549,"2018-07-05T00:00:00","34.7","ND","ND","ND","4.8","0.5","ND","ND","ND","ND","0","0"],
    [71550,"2018-07-05T01:00:00","29","ND","ND","ND","4.8","0.2","ND","ND","ND","ND","0","0"],
    [71551,"2018-07-05T02:00:00","33.5","ND","ND","ND","5.4","0.3","ND","ND","ND","ND","0","0"],
    [71552,"2018-07-05T03:00:00","47.5","ND","ND","ND","5.5","0.2","ND","ND","ND","ND","0","0"],
    [71553,"2018-07-05T04:00:00","50.6","ND","ND","ND","4.7","0.5","ND","ND","ND","ND","0","0"],
    [71554,"2018-07-05T05:00:00","61.3","ND","ND","ND","4.6","0.2","ND","ND","ND","ND","0","0"],
    [71555,"2018-07-05T06:00:00","51.8","ND","ND","ND","4.4","0.2","ND","ND","ND","ND","0","0"],
    [71556,"2018-07-05T07:00:00","60","ND","ND","ND","4.5","0.4","ND","ND","ND","ND","80","0"],
    [71557,"2018-07-05T08:00:00","76.5","ND","ND","ND","4.7","1.5","ND","ND","ND","ND","283","0"],
    [71558,"2018-07-05T09:00:00","117.2","ND","ND","ND","5.9","3.8","ND","ND","ND","ND","582","0"],
    [71559,"2018-07-05T10:00:00","92.9","ND","ND","ND","14.5","0.5","ND","ND","ND","ND","663","0"],
    [71560,"2018-07-05T11:00:00","67.9","ND","ND","ND","32.9","0.2","ND","ND","ND","ND","663","0"],
    [71561,"2018-07-05T12:00:00","50.8","ND","ND","ND","44.5","0.3","ND","ND","ND","ND","663","0"],
    [71562,"2018-07-05T13:00:00","43.9","ND","ND","ND","58.8","0.5","ND","ND","ND","ND","663","0"],
    [71563,"2018-07-05T14:00:00","43.8","ND","ND","ND","78.0","0.4","ND","ND","ND","ND","663","0"],
    [71564,"2018-07-05T15:00:00","49.5","ND","ND","ND","115.2","0.3","ND","ND","ND","ND","650","0"],
    [71565,"2018-07-05T16:00:00","63.5","ND","ND","ND","92.2","0.2","ND","ND","ND","ND","516","0"],
    [71566,"2018-07-05T17:00:00","51.6","ND","ND","ND","51.9","0.4","ND","ND","ND","ND","359","0"],
    [71567,"2018-07-05T18:00:00","38.3","ND","ND","ND","32.3","0.1","ND","ND","ND","ND","103","0"],
    [71568,"2018-07-05T19:00:00","18.8","ND","ND","ND","17.6","0.2","ND","ND","ND","ND","6","0"],
    [71569,"2018-07-05T20:00:00","0.4","ND","ND","ND","12.2","0.0","ND","ND","ND","ND","0","0"],
    [71570,"2018-07-05T21:00:00","ND","ND","ND","ND","11.1","0.3","ND","ND","ND","ND","0","0"],
    [71571,"2018-07-05T22:00:00","18.6","ND","ND","ND","4.7","0.3","ND","ND","ND","ND","0","0"],
    [71572,"2018-07-05T23:00:00","22.9","ND","ND","ND","4.5","0.1","ND","ND","ND","ND","0","0"],
    [71573,"2018-07-06T00:00:00","10.9","ND","ND","ND","4.5","0.1","ND","ND","ND","ND","0","0"],
    [71574,"2018-07-06T01:00:00","26","ND","ND","ND","5.0","0.2","ND","ND","ND","ND","0","0"],
    [71575,"2018-07-06T02:00:00","39.1","ND","ND","ND","4.4","0.2","ND","ND","ND","ND","0","0"],
    [71576,"2018-07-06T03:00:00","39.9","ND","ND","ND","4.4","0.1","ND","ND","ND","ND","0","0"],
    [71577,"2018-07-06T04:00:00","45.6","ND","ND","ND","4.6","0.4","ND","ND","ND","ND","0","0"],
    [71578,"2018-07-06T05:00:00","55.5","ND","ND","ND","4.5","0.5","ND","ND","ND","ND","0","0"],
    [71579,"2018-07-06T06:00:00","72.3","ND","ND","ND","4.7","0.2","ND","ND","ND","ND","0","0"],
    [71580,"2018-07-06T07:00:00","60.2","ND","ND","ND","4.6","0.3","ND","ND","ND","ND","50","0"],
    [71581,"2018-07-06T08:00:00","53.4","ND","ND","ND","4.5","0.1","ND","ND","ND","ND","228","0"],
    [71582,"2018-07-06T09:00:00","73","ND","ND","ND","4.7","0.1","ND","ND","ND","ND","402","0"],
    [71583,"2018-07-06T10:00:00","107.8","ND","ND","ND","7.1","0.2","ND","ND","ND","ND","663","0"],
    [71584,"2018-07-06T11:00:00","89.7","ND","ND","ND","33.4","0.2","ND","ND","ND","ND","663","0"],
    [71585,"2018-07-06T12:00:00","66.6","ND","ND","ND","54.3","0.2","ND","ND","ND","ND","663","0"],
    [71586,"2018-07-06T13:00:00","46.4","ND","ND","ND","55.9","0.3","ND","ND","ND","ND","663","0"],
    [71587,"2018-07-06T14:00:00","52.4","ND","ND","ND","75.7","0.2","ND","ND","ND","ND","663","0"],
    [71588,"2018-07-06T15:00:00","56.7","ND","ND","ND","70.3","0.2","ND","ND","ND","ND","656","0"],
    [71589,"2018-07-06T16:00:00","46.3","ND","ND","ND","49.4","0.1","ND","ND","ND","ND","505","0"],
    [71590,"2018-07-06T17:00:00","16.4","ND","ND","ND","30.5","0.1","ND","ND","ND","ND","285","0"],
    [71591,"2018-07-06T18:00:00","1.7","ND","ND","ND","19.0","0.1","ND","ND","ND","ND","228","0"],
    [71592,"2018-07-06T19:00:00","6","ND","ND","ND","14.9","0.1","ND","ND","ND","ND","7","0"],
    [71593,"2018-07-06T20:00:00","1.8","ND","ND","ND","9.3","0.1","ND","ND","ND","ND","0","0"],
    [71594,"2018-07-06T21:00:00","36.4","ND","ND","ND","4.7","0.0","ND","ND","ND","ND","0","0"],
    [71595,"2018-07-06T22:00:00","55","ND","ND","ND","4.5","0.2","ND","ND","ND","ND","0","0"],
    [71596,"2018-07-06T23:00:00","39.8","ND","ND","ND","4.7","0.3","ND","ND","ND","ND","0","0"],
    [71597,"2018-07-07T00:00:00","49.5","ND","ND","ND","4.6","0.3","ND","ND","ND","ND","0","0"],
    [71598,"2018-07-07T01:00:00","38.2","ND","ND","ND","4.9","0.1","ND","ND","ND","ND","0","0"],
    [71599,"2018-07-07T02:00:00","5.8","ND","ND","ND","5.0","0.2","ND","ND","ND","ND","0","0"],
    [71600,"2018-07-07T03:00:00","19.1","ND","ND","ND","4.5","0.2","ND","ND","ND","ND","0","0"],
    [71601,"2018-07-07T04:00:00","32.1","ND","ND","ND","4.5","0.3","ND","ND","ND","ND","0","0"],
    [71602,"2018-07-07T05:00:00","47.8","ND","ND","ND","4.6","0.3","ND","ND","ND","ND","0","0"],
    [71603,"2018-07-07T06:00:00","87.5","ND","ND","ND","4.8","0.3","ND","ND","ND","ND","0","0"],
    [71604,"2018-07-07T07:00:00","110.9","ND","ND","ND","4.7","0.8","ND","ND","ND","ND","160","0"],
    [71605,"2018-07-07T08:00:00","77.3","ND","ND","ND","4.6","0.5","ND","ND","ND","ND","412","0"],
    [71606,"2018-07-07T09:00:00","81.2","ND","ND","ND","6.7","0.5","ND","ND","ND","ND","591","0"],
    [71607,"2018-07-07T10:00:00","92.4","ND","ND","ND","18.3","0.3","ND","ND","ND","ND","661","0"],
    [71608,"2018-07-07T11:00:00","74.6","ND","ND","ND","46.1","0.6","ND","ND","ND","ND","643","0"],
    [71609,"2018-07-07T12:00:00","52.6","ND","ND","ND","82.3","0.4","ND","ND","ND","ND","663","0"],
    [71610,"2018-07-07T13:00:00","59.3","ND","ND","ND","125.2","0.3","ND","ND","ND","ND","656","0"],
    [71611,"2018-07-07T14:00:00","55.6","ND","ND","ND","128.5","0.2","ND","ND","ND","ND","662","0"],
    [71612,"2018-07-07T15:00:00","56","ND","ND","ND","99.3","0.2","ND","ND","ND","ND","662","0"],
    [71613,"2018-07-07T16:00:00","48.2","ND","ND","ND","66.3","0.3","ND","ND","ND","ND","603","0"],
    [71614,"2018-07-07T17:00:00","37","ND","ND","ND","56.7","0.1","ND","ND","ND","ND","301","0"],
    [71615,"2018-07-07T18:00:00","12.5","ND","ND","ND","43.3","0.1","ND","ND","ND","ND","148","0"],
    [71616,"2018-07-07T19:00:00","12.2","ND","ND","ND","28.5","0.1","ND","ND","ND","ND","6","0"],
    [71617,"2018-07-07T20:00:00","20.9","ND","ND","ND","17.3","0.2","ND","ND","ND","ND","0","0"],
    [71618,"2018-07-07T21:00:00","12.2","ND","ND","ND","11.9","0.2","ND","ND","ND","ND","0","0"],
    [71619,"2018-07-07T22:00:00","22.8","ND","ND","ND","5.0","0.3","ND","ND","ND","ND","0","0"],
    [71620,"2018-07-07T23:00:00","34.9","ND","ND","ND","5.1","0.2","ND","ND","ND","ND","0","0"],
    [71621,"2018-07-08T00:00:00","55.1","ND","ND","ND","8.4","0.2","ND","ND","ND","ND","0","0"],
    [71622,"2018-07-08T01:00:00","58.6","ND","ND","ND","9.3","0.0","ND","ND","ND","ND","0","0"],
    [71623,"2018-07-08T02:00:00","37.8","ND","ND","ND","6.3","0.1","ND","ND","ND","ND","0","0"],
    [71624,"2018-07-08T03:00:00","22.9","ND","ND","ND","5.3","0.1","ND","ND","ND","ND","0","0"],
    [71625,"2018-07-08T04:00:00","10.6","ND","ND","ND","4.5","0.2","ND","ND","ND","ND","0","0"],
    [71626,"2018-07-08T05:00:00","7.1","ND","ND","ND","4.5","0.1","ND","ND","ND","ND","0","0"],
    [71627,"2018-07-08T06:00:00","40.1","ND","ND","ND","4.7","0.1","ND","ND","ND","ND","0","0"],
    [71628,"2018-07-08T07:00:00","80.5","ND","ND","ND","4.6","0.3","ND","ND","ND","ND","108","0"],
    [71629,"2018-07-08T08:00:00","90.6","ND","ND","ND","4.8","1.2","ND","ND","ND","ND","242","0"],
    [71630,"2018-07-08T09:00:00","107.9","ND","ND","ND","5.8","1.3","ND","ND","ND","ND","612","0"],
    [71631,"2018-07-08T10:00:00","105.3","ND","ND","ND","19.5","0.4","ND","ND","ND","ND","663","0"],
    [71632,"2018-07-08T11:00:00","64.1","ND","ND","ND","46.0","0.4","ND","ND","ND","ND","663","0"],
    [71633,"2018-07-08T12:00:00","51.2","ND","ND","ND","80.4","0.3","ND","ND","ND","ND","663","0"],
    [71634,"2018-07-08T13:00:00","42.3","ND","ND","ND","93.6","0.2","ND","ND","ND","ND","664","0"],
    [71635,"2018-07-08T14:00:00","42.8","ND","ND","ND","97.0","0.3","ND","ND","ND","ND","664","0"],
    [71636,"2018-07-08T15:00:00","34.1","ND","ND","ND","100.3","0.1","ND","ND","ND","ND","664","0"],
    [71637,"2018-07-08T16:00:00","37.3","ND","ND","ND","85.1","0.1","ND","ND","ND","ND","636","0"],
    [71638,"2018-07-08T17:00:00","42.9","ND","ND","ND","64.0","0.2","ND","ND","ND","ND","532","0"],
    [71639,"2018-07-08T18:00:00","35.1","ND","ND","ND","49.5","0.1","ND","ND","ND","ND","174","0"],
    [71640,"2018-07-08T19:00:00","28.2","ND","ND","ND","34.7","0.1","ND","ND","ND","ND","12","0"],
    [71641,"2018-07-08T20:00:00","18.7","ND","ND","ND","19.3","0.2","ND","ND","ND","ND","0","0"],
    [71642,"2018-07-08T21:00:00","20.5","ND","ND","ND","14.5","0.1","ND","ND","ND","ND","0","0"],
    [71643,"2018-07-08T22:00:00","39.1","ND","ND","ND","6.8","0.2","ND","ND","ND","ND","0","0"],
    [71644,"2018-07-08T23:00:00","52.1","ND","ND","ND","5.0","0.2","ND","ND","ND","ND","0","0"],
    [71645,"2018-07-09T00:00:00","44.9","ND","ND","ND","4.7","0.4","ND","ND","ND","ND","0","0"],
    [71646,"2018-07-09T01:00:00","44.8","ND","ND","ND","4.7","0.2","ND","ND","ND","ND","0","0"],
    [71647,"2018-07-09T02:00:00","34.3","ND","ND","ND","5.5","0.2","ND","ND","ND","ND","0","0"],
    [71648,"2018-07-09T03:00:00","23.8","ND","ND","ND","4.6","0.3","ND","ND","ND","ND","0","0"],
    [71649,"2018-07-09T04:00:00","33.6","ND","ND","ND","4.6","0.1","ND","ND","ND","ND","0","0"],
    [71650,"2018-07-09T05:00:00","35.6","ND","ND","ND","4.7","0.2","ND","ND","ND","ND","0","0"],
    [71651,"2018-07-09T06:00:00","36.1","ND","ND","ND","4.7","0.2","ND","ND","ND","ND","0","0"],
    [71652,"2018-07-09T07:00:00","50.2","ND","ND","ND","5.1","0.3","ND","ND","ND","ND","54","0"],
    [71653,"2018-07-09T08:00:00","100.8","ND","ND","ND","5.1","0.5","ND","ND","ND","ND","438","0"],
    [71654,"2018-07-09T09:00:00","118.2","ND","ND","ND","9.5","0.3","ND","ND","ND","ND","610","0"],
    [71655,"2018-07-09T10:00:00","86.2","ND","ND","ND","32.5","0.1","ND","ND","ND","ND","663","0"],
    [71656,"2018-07-09T11:00:00","62.5","ND","ND","ND","47.3","0.1","ND","ND","ND","ND","663","0"],
    [71657,"2018-07-09T12:00:00","72.4","ND","ND","ND","53.5","0.3","ND","ND","ND","ND","663","0"],
    [71658,"2018-07-09T13:00:00","51.3","ND","ND","ND","50.6","0.2","ND","ND","ND","ND","663","0"],
    [71659,"2018-07-09T14:00:00","40","ND","ND","ND","57.0","0.2","ND","ND","ND","ND","649","0"],
    [71660,"2018-07-09T15:00:00","33.3","ND","ND","ND","36.5","0.1","ND","ND","ND","ND","662","0"],
    [71661,"2018-07-09T16:00:00","23.9","ND","ND","ND","32.2","0.0","ND","ND","ND","ND","614","0"],
    [71662,"2018-07-09T17:00:00","25.2","ND","ND","ND","25.9","0.1","ND","ND","ND","ND","186","0"],
    [71663,"2018-07-09T18:00:00","12","ND","ND","ND","17.6","0.1","ND","ND","ND","ND","51","0"],
    [71664,"2018-07-09T19:00:00","12.9","ND","ND","ND","11.8","0.1","ND","ND","ND","ND","0","0"],
    [71665,"2018-07-09T20:00:00","40.2","ND","ND","ND","9.4","0.1","ND","ND","ND","ND","0","0"],
    [71666,"2018-07-09T21:00:00","38.1","ND","ND","ND","7.3","0.0","ND","ND","ND","ND","0","1.02"],
    [71667,"2018-07-09T22:00:00","53.9","ND","ND","ND","5.1","0.2","ND","ND","ND","ND","0","0"],
    [71668,"2018-07-09T23:00:00","48.4","ND","ND","ND","4.5","0.4","ND","ND","ND","ND","0","0"],
    [71669,"2018-07-10T00:00:00","36.1","ND","ND","ND","4.5","1.0","ND","ND","ND","ND","0","0"],
    [71670,"2018-07-10T01:00:00","35.5","ND","ND","ND","4.7","0.9","ND","ND","ND","ND","0","0"],
    [71671,"2018-07-10T02:00:00","34.9","ND","ND","ND","4.8","0.4","ND","ND","ND","ND","0","0"],
    [71672,"2018-07-10T03:00:00","25.4","ND","ND","ND","4.6","0.3","ND","ND","ND","ND","0","0"],
    [71673,"2018-07-10T04:00:00","27.2","ND","ND","ND","4.6","0.3","ND","ND","ND","ND","0","0"],
    [71674,"2018-07-10T05:00:00","33.2","ND","ND","ND","4.8","0.1","ND","ND","ND","ND","0","0"],
    [71675,"2018-07-10T06:00:00","40.5","ND","ND","ND","4.9","0.2","ND","ND","ND","ND","0","0"],
    [71676,"2018-07-10T07:00:00","79","ND","ND","ND","4.9","0.6","ND","ND","ND","ND","73","0"],
    [71677,"2018-07-10T08:00:00","122.5","ND","ND","ND","9.5","1.0","ND","ND","ND","ND","431","0"],
    [71678,"2018-07-10T09:00:00","114.5","ND","ND","ND","10.9","0.5","ND","ND","ND","ND","567","0"],
    [71679,"2018-07-10T10:00:00","103.2","ND","ND","ND","24.8","0.3","ND","ND","ND","ND","663","0"],
    [71680,"2018-07-10T11:00:00","61.1","ND","ND","ND","49.3","0.5","ND","ND","ND","ND","661","0"],
    [71681,"2018-07-10T12:00:00","45.3","ND","ND","ND","66.3","0.6","ND","ND","ND","ND","663","0"],
    [71682,"2018-07-10T13:00:00","59.7","ND","ND","ND","72.5","0.2","ND","ND","ND","ND","664","0"],
    [71683,"2018-07-10T14:00:00","41.9","ND","ND","ND","63.0","0.3","ND","ND","ND","ND","646","0"],
    [71684,"2018-07-10T15:00:00","33.6","ND","ND","ND","51.3","0.2","ND","ND","ND","ND","581","0"],
    [71685,"2018-07-10T16:00:00","31.5","ND","ND","ND","39.5","0.2","ND","ND","ND","ND","638","0"],
    [71686,"2018-07-10T17:00:00","73.1","ND","ND","ND","29.4","0.1","ND","ND","ND","ND","350","0"],
    [71687,"2018-07-10T18:00:00","44.4","ND","ND","ND","23.1","0.2","ND","ND","ND","ND","100","0"],
    [71688,"2018-07-10T19:00:00","18.8","ND","ND","ND","19.4","0.1","ND","ND","ND","ND","0","0"],
    [71689,"2018-07-10T20:00:00","23.7","ND","ND","ND","8.4","0.0","ND","ND","ND","ND","0","0"],
    [71690,"2018-07-10T21:00:00","31","ND","ND","ND","11.0","0.1","ND","ND","ND","ND","0","0"],
    [71691,"2018-07-10T22:00:00","24.7","ND","ND","ND","8.4","0.1","ND","ND","ND","ND","0","0"],
    [71692,"2018-07-10T23:00:00","24.8","ND","ND","ND","10.4","0.2","ND","ND","ND","ND","0","0"],
    [71693,"2018-07-11T00:00:00","7.2","ND","ND","ND","8.2","0.0","ND","ND","ND","ND","0","0"],
    [71694,"2018-07-11T01:00:00","7.3","ND","ND","ND","7.9","0.2","ND","ND","ND","ND","0","0"],
    [71695,"2018-07-11T02:00:00","15.3","ND","ND","ND","7.4","0.2","ND","ND","ND","ND","0","0"],
    [71696,"2018-07-11T03:00:00","23.9","ND","ND","ND","7.4","0.1","ND","ND","ND","ND","0","0"],
    [71697,"2018-07-11T04:00:00","23.9","ND","ND","ND","7.1","0.3","ND","ND","ND","ND","0","0"],
    [71698,"2018-07-11T05:00:00","6.8","ND","ND","ND","9.3","0.0","ND","ND","ND","ND","0","0"],
    [71699,"2018-07-11T06:00:00","7.8","ND","ND","ND","8.1","0.2","ND","ND","ND","ND","0","0"],
    [71700,"2018-07-11T07:00:00","27","ND","ND","ND","5.7","0.1","ND","ND","ND","ND","56","0"],
    [71701,"2018-07-11T08:00:00","83.5","ND","ND","ND","6.0","2.0","ND","ND","ND","ND","489","0"],
    [71702,"2018-07-11T09:00:00","92.4","ND","ND","ND","11.2","1.3","ND","ND","ND","ND","583","0"],
    [71703,"2018-07-11T10:00:00","72.7","ND","ND","ND","19.4","0.2","ND","ND","ND","ND","663","0"],
    [71704,"2018-07-11T11:00:00","76.1","ND","ND","ND","46.4","0.3","ND","ND","ND","ND","663","0"],
    [71705,"2018-07-11T12:00:00","57.2","ND","ND","ND","ND","0.3","ND","ND","ND","ND","666","0"],
    [71706,"2018-07-11T13:00:00","78.7","ND","ND","ND","ND","2.4","ND","ND","ND","ND","642","0"],
    [71707,"2018-07-11T14:00:00","36.3","ND","ND","ND","ND","1.9","ND","ND","ND","ND","666","0"],
    [71708,"2018-07-11T15:00:00","27.5","ND","ND","ND","68.3","0.9","ND","ND","ND","ND","666","0"],
    [71709,"2018-07-11T16:00:00","45.4","ND","ND","ND","74.1","0.7","ND","ND","ND","ND","492","0"],
    [71710,"2018-07-11T17:00:00","43.5","ND","ND","ND","58.2","0.4","ND","ND","ND","ND","510","0"],
    [71711,"2018-07-11T18:00:00","27.9","ND","ND","ND","49.5","0.3","ND","ND","ND","ND","262","0"],
    [71712,"2018-07-11T19:00:00","27.8","ND","ND","ND","34.9","0.2","ND","ND","ND","ND","18","0"],
    [71713,"2018-07-11T20:00:00","1.1","ND","ND","ND","21.9","0.3","ND","ND","ND","ND","0","0"],
    [71714,"2018-07-11T21:00:00","24.2","ND","ND","ND","6.2","0.3","ND","ND","ND","ND","0","0"],
    [71715,"2018-07-11T22:00:00","58.1","ND","ND","ND","4.9","0.6","ND","ND","ND","ND","0","0.25"],
    [71716,"2018-07-11T23:00:00","53.3","ND","ND","ND","4.5","1.5","ND","ND","ND","ND","0","0"],
    [71717,"2018-07-12T00:00:00","32.9","ND","ND","ND","4.2","1.4","ND","ND","ND","ND","0","0"],
    [71718,"2018-07-12T01:00:00","7.5","ND","ND","ND","5.3","0.6","ND","ND","ND","ND","0","0"],
    [71719,"2018-07-12T02:00:00","7.5","ND","ND","ND","5.4","0.4","ND","ND","ND","ND","0","0"],
    [71720,"2018-07-12T03:00:00","37.2","ND","ND","ND","4.6","1.5","ND","ND","ND","ND","0","0"],
    [71721,"2018-07-12T04:00:00","72.5","ND","ND","ND","4.5","0.8","ND","ND","ND","ND","0","0"],
    [71722,"2018-07-12T05:00:00","72.5","ND","ND","ND","4.5","0.6","ND","ND","ND","ND","0","0"],
    [71723,"2018-07-12T06:00:00","54.2","ND","ND","ND","4.4","0.5","ND","ND","ND","ND","0","0"],
    [71724,"2018-07-12T07:00:00","42.9","ND","ND","ND","4.4","0.5","ND","ND","ND","ND","71","0"],
    [71725,"2018-07-12T08:00:00","102.7","ND","ND","ND","4.8","0.6","ND","ND","ND","ND","526","0"],
    [71726,"2018-07-12T09:00:00","137.3","ND","ND","ND","8.5","0.6","ND","ND","ND","ND","623","0"],
    [71727,"2018-07-12T10:00:00","104.7","ND","ND","ND","24.7","0.5","ND","ND","ND","ND","663","0"],
    [71728,"2018-07-12T11:00:00","74.4","ND","ND","ND","41.2","0.5","ND","ND","ND","ND","664","0"],
    [71729,"2018-07-12T12:00:00","48.7","ND","ND","ND","54.6","0.3","ND","ND","ND","ND","665","0"],
    [71730,"2018-07-12T13:00:00","44.2","ND","ND","ND","66.6","0.6","ND","ND","ND","ND","662","0"],
    [71731,"2018-07-12T14:00:00","36.1","ND","ND","ND","91.6","0.4","ND","ND","ND","ND","664","0"],
    [71732,"2018-07-12T15:00:00","54.3","ND","ND","ND","95.9","0.5","ND","ND","ND","ND","663","0"],
    [71733,"2018-07-12T16:00:00","56.4","ND","ND","ND","51.0","0.3","ND","ND","ND","ND","630","0"],
    [71734,"2018-07-12T17:00:00","35.2","ND","ND","ND","57.0","0.2","ND","ND","ND","ND","619","0"],
    [71735,"2018-07-12T18:00:00","37.8","ND","ND","ND","45.7","0.3","ND","ND","ND","ND","153","0"],
    [71736,"2018-07-12T19:00:00","27.8","ND","ND","ND","35.2","0.2","ND","ND","ND","ND","5","0"],
    [71737,"2018-07-12T20:00:00","20.1","ND","ND","ND","28.1","0.2","ND","ND","ND","ND","0","0"],
    [71738,"2018-07-12T21:00:00","31.2","ND","ND","ND","12.2","0.3","ND","ND","ND","ND","0","0"],
    [71739,"2018-07-12T22:00:00","49.2","ND","ND","ND","5.3","0.8","ND","ND","ND","ND","0","0"],
    [71740,"2018-07-12T23:00:00","25","ND","ND","ND","6.0","0.6","ND","ND","ND","ND","0","0"],
    [71741,"2018-07-13T00:00:00","ND","ND","ND","ND","6.0","0.5","ND","ND","ND","ND","0","0"],
    [71742,"2018-07-13T01:00:00","8.3","ND","ND","ND","7.3","0.2","ND","ND","ND","ND","0","0"],
    [71743,"2018-07-13T02:00:00","16.9","ND","ND","ND","5.8","0.2","ND","ND","ND","ND","0","0"],
    [71744,"2018-07-13T03:00:00","16.2","ND","ND","ND","6.0","0.2","ND","ND","ND","ND","0","0"],
    [71745,"2018-07-13T04:00:00","27.2","ND","ND","ND","5.9","0.4","ND","ND","ND","ND","0","0"],
    [71746,"2018-07-13T05:00:00","53.3","ND","ND","ND","5.9","0.4","ND","ND","ND","ND","0","0"],
    [71747,"2018-07-13T06:00:00","57.1","ND","ND","ND","5.6","0.2","ND","ND","ND","ND","0","0"],
    [71748,"2018-07-13T07:00:00","78.3","ND","ND","ND","5.7","0.4","ND","ND","ND","ND","70","0"],
    [71749,"2018-07-13T08:00:00","100.9","ND","ND","ND","6.3","0.5","ND","ND","ND","ND","329","0"],
    [71750,"2018-07-13T09:00:00","132.6","ND","ND","ND","7.1","0.4","ND","ND","ND","ND","652","0"],
    [71751,"2018-07-13T10:00:00","101.9","ND","ND","ND","20.4","0.4","ND","ND","ND","ND","663","0"],
    [71752,"2018-07-13T11:00:00","71","ND","ND","ND","36.2","0.4","ND","ND","ND","ND","663","0"],
    [71753,"2018-07-13T12:00:00","50.7","ND","ND","ND","55.9","0.5","ND","ND","ND","ND","664","0"],
    [71754,"2018-07-13T13:00:00","58.2","ND","ND","ND","75.0","0.4","ND","ND","ND","ND","664","0"],
    [71755,"2018-07-13T14:00:00","56.6","ND","ND","ND","88.7","0.4","ND","ND","ND","ND","664","0"],
    [71756,"2018-07-13T15:00:00","63.7","ND","ND","ND","56.9","0.3","ND","ND","ND","ND","494","0"],
    [71757,"2018-07-13T16:00:00","33.7","ND","ND","ND","25.4","0.2","ND","ND","ND","ND","527","0"],
    [71758,"2018-07-13T17:00:00","12.8","ND","ND","ND","25.7","0.1","ND","ND","ND","ND","228","0"],
    [71759,"2018-07-13T18:00:00","8.7","ND","ND","ND","20.0","0.2","ND","ND","ND","ND","116","0"],
    [71760,"2018-07-13T19:00:00","9.5","ND","ND","ND","13.9","0.1","ND","ND","ND","ND","7","0"],
    [71761,"2018-07-13T20:00:00","9.7","ND","ND","ND","14.9","0.1","ND","ND","ND","ND","0","0"],
    [71762,"2018-07-13T21:00:00","33","ND","ND","ND","7.2","0.2","ND","ND","ND","ND","0","0"],
    [71763,"2018-07-13T22:00:00","36","ND","ND","ND","6.3","1.3","ND","ND","ND","ND","0","0"],
    [71764,"2018-07-13T23:00:00","49.1","ND","ND","ND","6.0","1.5","ND","ND","ND","ND","0","0"],
    [71765,"2018-07-14T00:00:00","51","ND","ND","ND","6.1","0.5","ND","ND","ND","ND","0","0"],
    [71766,"2018-07-14T01:00:00","33.6","ND","ND","ND","6.0","1.5","ND","ND","ND","ND","0","0"],
    [71767,"2018-07-14T02:00:00","16.7","ND","ND","ND","6.2","0.5","ND","ND","ND","ND","0","0"],
    [71768,"2018-07-14T03:00:00","43.3","ND","ND","ND","6.2","0.6","ND","ND","ND","ND","0","0"],
    [71769,"2018-07-14T04:00:00","41.8","ND","ND","ND","5.8","0.5","ND","ND","ND","ND","0","0"],
    [71770,"2018-07-14T05:00:00","40.8","ND","ND","ND","5.5","0.4","ND","ND","ND","ND","0","0"],
    [71771,"2018-07-14T06:00:00","25.4","ND","ND","ND","5.5","0.2","ND","ND","ND","ND","0","0"],
    [71772,"2018-07-14T07:00:00","35.7","ND","ND","ND","5.5","0.2","ND","ND","ND","ND","109","0"],
    [71773,"2018-07-14T08:00:00","77.4","ND","ND","ND","5.9","1.3","ND","ND","ND","ND","509","0"],
    [71774,"2018-07-14T09:00:00","102.8","ND","ND","ND","11.4","0.9","ND","ND","ND","ND","628","0"],
    [71775,"2018-07-14T10:00:00","71.6","ND","ND","ND","31.8","0.5","ND","ND","ND","ND","663","0"],
    [71776,"2018-07-14T11:00:00","61.3","ND","ND","ND","56.3","0.7","ND","ND","ND","ND","664","0"],
    [71777,"2018-07-14T12:00:00","56.9","ND","ND","ND","71.7","1.0","ND","ND","ND","ND","664","0"],
    [71778,"2018-07-14T13:00:00","44.6","ND","ND","ND","103.8","0.6","ND","ND","ND","ND","632","0"],
    [71779,"2018-07-14T14:00:00","57.1","ND","ND","ND","114.7","0.8","ND","ND","ND","ND","664","0"],
    [71780,"2018-07-14T15:00:00","56","ND","ND","ND","62.6","0.6","ND","ND","ND","ND","658","0"],
    [71781,"2018-07-14T16:00:00","33.9","ND","ND","ND","56.6","0.5","ND","ND","ND","ND","510","0"],
    [71782,"2018-07-14T17:00:00","23.8","ND","ND","ND","53.1","0.3","ND","ND","ND","ND","567","0"],
    [71783,"2018-07-14T18:00:00","21.2","ND","ND","ND","39.2","0.3","ND","ND","ND","ND","137","0"],
    [71784,"2018-07-14T19:00:00","5.6","ND","ND","ND","30.5","0.3","ND","ND","ND","ND","13","0"],
    [71785,"2018-07-14T20:00:00","4.7","ND","ND","ND","11.6","0.1","ND","ND","ND","ND","0","0"],
    [71786,"2018-07-14T21:00:00","22.9","ND","ND","ND","8.4","0.2","ND","ND","ND","ND","0","0"],
    [71787,"2018-07-14T22:00:00","30.5","ND","ND","ND","9.9","0.3","ND","ND","ND","ND","0","0"],
    [71788,"2018-07-14T23:00:00","37.5","ND","ND","ND","7.0","1.0","ND","ND","ND","ND","0","0"],
    [71789,"2018-07-15T00:00:00","48.4","ND","ND","ND","7.0","0.4","ND","ND","ND","ND","0","0"],
    [71790,"2018-07-15T01:00:00","46","ND","ND","ND","6.6","0.1","ND","ND","ND","ND","0","0"],
    [71791,"2018-07-15T02:00:00","25.6","ND","ND","ND","6.4","0.2","ND","ND","ND","ND","0","0"],
    [71792,"2018-07-15T03:00:00","23.7","ND","ND","ND","6.4","0.3","ND","ND","ND","ND","0","0"],
    [71793,"2018-07-15T04:00:00","18.7","ND","ND","ND","6.2","0.6","ND","ND","ND","ND","0","0"],
    [71794,"2018-07-15T05:00:00","27.6","ND","ND","ND","6.2","0.2","ND","ND","ND","ND","0","0"],
    [71795,"2018-07-15T06:00:00","34.3","ND","ND","ND","6.2","0.6","ND","ND","ND","ND","0","0"],
    [71796,"2018-07-15T07:00:00","49.3","ND","ND","ND","6.1","0.5","ND","ND","ND","ND","75","0"],
    [71797,"2018-07-15T08:00:00","66.2","ND","ND","ND","6.4","1.7","ND","ND","ND","ND","329","0"],
    [71798,"2018-07-15T09:00:00","70.3","ND","ND","ND","9.8","1.1","ND","ND","ND","ND","638","0"],
    [71799,"2018-07-15T10:00:00","46.5","ND","ND","ND","25.3","0.4","ND","ND","ND","ND","663","0"],
    [71800,"2018-07-15T11:00:00","18.5","ND","ND","ND","39.4","0.5","ND","ND","ND","ND","664","0"],
    [71801,"2018-07-15T12:00:00","10.2","ND","ND","ND","55.4","0.8","ND","ND","ND","ND","664","0"],
    [71802,"2018-07-15T13:00:00","31","ND","ND","ND","65.8","0.6","ND","ND","ND","ND","625","0"],
    [71803,"2018-07-15T14:00:00","28.5","ND","ND","ND","69.5","0.4","ND","ND","ND","ND","640","0"],
    [71804,"2018-07-15T15:00:00","20.2","ND","ND","ND","68.3","0.3","ND","ND","ND","ND","580","0"],
    [71805,"2018-07-15T16:00:00","31.8","ND","ND","ND","67.2","0.5","ND","ND","ND","ND","572","0"],
    [71806,"2018-07-15T17:00:00","39.3","ND","ND","ND","44.5","0.6","ND","ND","ND","ND","114","0"],
    [71807,"2018-07-15T18:00:00","15.4","ND","ND","ND","36.8","0.4","ND","ND","ND","ND","132","0"],
    [71808,"2018-07-15T19:00:00","14.1","ND","ND","ND","29.0","0.1","ND","ND","ND","ND","11","0"],
    [71809,"2018-07-15T20:00:00","6.7","ND","ND","ND","22.4","0.1","ND","ND","ND","ND","0","0"],
    [71810,"2018-07-15T21:00:00","11.2","ND","ND","ND","17.4","0.3","ND","ND","ND","ND","0","0"],
    [71811,"2018-07-15T22:00:00","19.8","ND","ND","ND","9.5","0.4","ND","ND","ND","ND","0","0"],
    [71812,"2018-07-15T23:00:00","21.9","ND","ND","ND","8.8","0.5","ND","ND","ND","ND","0","0"],
    [71813,"2018-07-16T00:00:00","20.8","ND","ND","ND","7.4","0.7","ND","ND","ND","ND","0","0"],
    [71814,"2018-07-16T01:00:00","17.9","ND","ND","ND","6.7","0.6","ND","ND","ND","ND","0","0"],
    [71815,"2018-07-16T02:00:00","13.2","ND","ND","ND","6.9","0.4","ND","ND","ND","ND","0","0"],
    [71816,"2018-07-16T03:00:00","12.6","ND","ND","ND","6.8","1.2","ND","ND","ND","ND","0","0"],
    [71817,"2018-07-16T04:00:00","5.9","ND","ND","ND","6.5","0.5","ND","ND","ND","ND","0","0"],
    [71818,"2018-07-16T05:00:00","9.2","ND","ND","ND","6.1","0.3","ND","ND","ND","ND","0","0"],
    [71819,"2018-07-16T06:00:00","27.7","ND","ND","ND","6.1","0.6","ND","ND","ND","ND","0","0"],
    [71820,"2018-07-16T07:00:00","64.9","ND","ND","ND","6.0","0.4","ND","ND","ND","ND","124","0"],
    [71821,"2018-07-16T08:00:00","107.9","ND","ND","ND","6.3","1.2","ND","ND","ND","ND","311","0"],
    [71822,"2018-07-16T09:00:00","98.1","ND","ND","ND","7.6","1.6","ND","ND","ND","ND","489","0"],
    [71823,"2018-07-16T10:00:00","90.2","ND","ND","ND","13.5","0.8","ND","ND","ND","ND","639","0"],
    [71824,"2018-07-16T11:00:00","59.4","ND","ND","ND","32.1","0.7","ND","ND","ND","ND","663","0"],
    [71825,"2018-07-16T12:00:00","46","ND","ND","ND","69.4","0.7","ND","ND","ND","ND","656","0"],
    [71826,"2018-07-16T13:00:00","53.9","ND","ND","ND","95.5","0.3","ND","ND","ND","ND","662","0"],
    [71827,"2018-07-16T14:00:00","54.8","ND","ND","ND","109.5","0.3","ND","ND","ND","ND","664","0"],
    [71828,"2018-07-16T15:00:00","54.6","ND","ND","ND","97.1","0.5","ND","ND","ND","ND","657","0"],
    [71829,"2018-07-16T16:00:00","50","ND","ND","ND","83.6","0.2","ND","ND","ND","ND","631","0"],
    [71830,"2018-07-16T17:00:00","49","ND","ND","ND","47.4","0.4","ND","ND","ND","ND","443","0"],
    [71831,"2018-07-16T18:00:00","22.9","ND","ND","ND","38.2","0.2","ND","ND","ND","ND","170","0"],
    [71832,"2018-07-16T19:00:00","7.5","ND","ND","ND","29.6","0.1","ND","ND","ND","ND","7","0"],
    [71833,"2018-07-16T20:00:00","11.7","ND","ND","ND","15.3","0.2","ND","ND","ND","ND","0","0"],
    [71834,"2018-07-16T21:00:00","25.9","ND","ND","ND","9.2","0.4","ND","ND","ND","ND","0","0"],
    [71835,"2018-07-16T22:00:00","44","ND","ND","ND","7.6","0.9","ND","ND","ND","ND","0","0"],
    [71836,"2018-07-16T23:00:00","35","ND","ND","ND","7.2","0.4","ND","ND","ND","ND","0","0"],
    [71837,"2018-07-17T00:00:00","43.7","ND","ND","ND","6.3","0.4","ND","ND","ND","ND","0","0"],
    [71838,"2018-07-17T01:00:00","40.1","ND","ND","ND","6.9","0.2","ND","ND","ND","ND","0","0"],
    [71839,"2018-07-17T02:00:00","24.5","ND","ND","ND","8.2","0.3","ND","ND","ND","ND","0","0"],
    [71840,"2018-07-17T03:00:00","30.8","ND","ND","ND","7.9","0.2","ND","ND","ND","ND","0","0"],
    [71841,"2018-07-17T04:00:00","34.1","ND","ND","ND","10.1","0.2","ND","ND","ND","ND","0","0"],
    [71842,"2018-07-17T05:00:00","26.6","ND","ND","ND","7.8","0.1","ND","ND","ND","ND","0","0"],
    [71843,"2018-07-17T06:00:00","40.9","ND","ND","ND","6.3","0.4","ND","ND","ND","ND","0","0"],
    [71844,"2018-07-17T07:00:00","48.7","ND","ND","ND","6.2","0.5","ND","ND","ND","ND","55","0"],
    [71845,"2018-07-17T08:00:00","72.5","ND","ND","ND","7.2","0.8","ND","ND","ND","ND","500","0"],
    [71846,"2018-07-17T09:00:00","85","ND","ND","ND","9.0","0.7","ND","ND","ND","ND","317","0"],
    [71847,"2018-07-17T10:00:00","83.7","ND","ND","ND","19.3","0.4","ND","ND","ND","ND","615","0"],
    [71848,"2018-07-17T11:00:00","77","ND","ND","ND","51.7","0.7","ND","ND","ND","ND","606","0"],
    [71849,"2018-07-17T12:00:00","64.5","ND","ND","ND","68.6","0.4","ND","ND","ND","ND","644","0"],
    [71850,"2018-07-17T13:00:00","47.7","ND","ND","ND","87.4","0.7","ND","ND","ND","ND","642","0"],
    [71851,"2018-07-17T14:00:00","52.8","ND","ND","ND","107.1","0.5","ND","ND","ND","ND","664","0"],
    [71852,"2018-07-17T15:00:00","51.1","ND","ND","ND","113.3","0.6","ND","ND","ND","ND","659","0"],
    [71853,"2018-07-17T16:00:00","54.5","ND","ND","ND","86.7","0.3","ND","ND","ND","ND","347","0"],
    [71854,"2018-07-17T17:00:00","37.5","ND","ND","ND","68.3","0.4","ND","ND","ND","ND","322","0"],
    [71855,"2018-07-17T18:00:00","31.9","ND","ND","ND","30.9","0.1","ND","ND","ND","ND","90","0"],
    [71856,"2018-07-17T19:00:00","23","ND","ND","ND","19.7","0.2","ND","ND","ND","ND","0","0"],
    [71857,"2018-07-17T20:00:00","12.4","ND","ND","ND","13.2","0.2","ND","ND","ND","ND","0","0"],
    [71858,"2018-07-17T21:00:00","21.4","ND","ND","ND","12.0","0.1","ND","ND","ND","ND","0","0"],
    [71859,"2018-07-17T22:00:00","33.1","ND","ND","ND","11.4","0.3","ND","ND","ND","ND","0","0"],
    [71860,"2018-07-17T23:00:00","35.9","ND","ND","ND","6.5","0.5","ND","ND","ND","ND","0","0"],
    [71861,"2018-07-18T00:00:00","40.3","ND","ND","ND","7.3","0.9","ND","ND","ND","ND","0","0"],
    [71862,"2018-07-18T01:00:00","41.7","ND","ND","ND","6.2","0.8","ND","ND","ND","ND","0","0"],
    [71863,"2018-07-18T02:00:00","23.9","ND","ND","ND","6.5","0.5","ND","ND","ND","ND","0","0"],
    [71864,"2018-07-18T03:00:00","18.1","ND","ND","ND","6.4","0.2","ND","ND","ND","ND","0","0"],
    [71865,"2018-07-18T04:00:00","22.3","ND","ND","ND","6.8","0.1","ND","ND","ND","ND","0","0"],
    [71866,"2018-07-18T05:00:00","32.7","ND","ND","ND","6.9","0.3","ND","ND","ND","ND","0","0"],
    [71867,"2018-07-18T06:00:00","59.7","ND","ND","ND","6.1","0.6","ND","ND","ND","ND","0","0"],
    [71868,"2018-07-18T07:00:00","68.3","ND","ND","ND","6.0","0.4","ND","ND","ND","ND","72","0"],
    [71869,"2018-07-18T08:00:00","60.8","ND","ND","ND","6.3","0.9","ND","ND","ND","ND","501","0"],
    [71870,"2018-07-18T09:00:00","79.6","ND","ND","ND","12.9","0.6","ND","ND","ND","ND","612","0"],
    [71871,"2018-07-18T10:00:00","88.3","ND","ND","ND","33.9","0.6","ND","ND","ND","ND","650","0"],
    [71872,"2018-07-18T11:00:00","64.6","ND","ND","ND","48.8","0.3","ND","ND","ND","ND","587","0"],
    [71873,"2018-07-18T12:00:00","33.9","ND","ND","ND","63.7","0.6","ND","ND","ND","ND","663","0"],
    [71874,"2018-07-18T13:00:00","39.2","ND","ND","ND","86.6","0.4","ND","ND","ND","ND","664","0"],
    [71875,"2018-07-18T14:00:00","75.9","ND","ND","ND","92.8","0.3","ND","ND","ND","ND","652","0"],
    [71876,"2018-07-18T15:00:00","52.2","ND","ND","ND","69.0","0.4","ND","ND","ND","ND","634","0"],
    [71877,"2018-07-18T16:00:00","27.6","ND","ND","ND","26.8","0.2","ND","ND","ND","ND","639","0"],
    [71878,"2018-07-18T17:00:00","ND","ND","ND","ND","20.5","0.3","ND","ND","ND","ND","523","0"],
    [71879,"2018-07-18T18:00:00","7.2","ND","ND","ND","19.5","0.2","ND","ND","ND","ND","187","0"],
    [71880,"2018-07-18T19:00:00","30","ND","ND","ND","14.7","0.2","ND","ND","ND","ND","11","0"],
    [71881,"2018-07-18T20:00:00","39","ND","ND","ND","10.3","0.3","ND","ND","ND","ND","0","0"],
    [71882,"2018-07-18T21:00:00","42.1","ND","ND","ND","13.2","0.2","ND","ND","ND","ND","0","0"],
    [71883,"2018-07-18T22:00:00","63.7","ND","ND","ND","6.0","0.8","ND","ND","ND","ND","0","0"],
    [71884,"2018-07-18T23:00:00","49.3","ND","ND","ND","6.7","0.7","ND","ND","ND","ND","0","0"],
    [71885,"2018-07-19T00:00:00","83.1","ND","ND","ND","5.2","1.4","ND","ND","ND","ND","0","0"],
    [71886,"2018-07-19T01:00:00","56","ND","ND","ND","5.7","0.8","ND","ND","ND","ND","0","0"],
    [71887,"2018-07-19T02:00:00","ND","ND","ND","ND","5.9","0.5","ND","ND","ND","ND","0","0"],
    [71888,"2018-07-19T03:00:00","3.1","ND","ND","ND","5.2","0.6","ND","ND","ND","ND","0","0"],
    [71889,"2018-07-19T04:00:00","3.1","ND","ND","ND","6.2","0.8","ND","ND","ND","ND","0","0"],
    [71890,"2018-07-19T05:00:00","6.9","ND","ND","ND","7.6","1.1","ND","ND","ND","ND","0","0"],
    [71891,"2018-07-19T06:00:00","21.1","ND","ND","ND","5.6","0.6","ND","ND","ND","ND","0","0"],
    [71892,"2018-07-19T07:00:00","28.3","ND","ND","ND","5.6","0.7","ND","ND","ND","ND","60","0"],
    [71893,"2018-07-19T08:00:00","53.6","ND","ND","ND","6.0","0.8","ND","ND","ND","ND","229","0"],
    [71894,"2018-07-19T09:00:00","96.8","ND","ND","ND","7.2","1.2","ND","ND","ND","ND","428","0"],
    [71895,"2018-07-19T10:00:00","107","ND","ND","ND","12.8","1.1","ND","ND","ND","ND","665","0"],
    [71896,"2018-07-19T11:00:00","169.6","ND","ND","ND","21.9","0.7","ND","ND","ND","ND","666","0"],
    [71897,"2018-07-19T12:00:00","113.6","ND","ND","ND","37.3","0.5","ND","ND","ND","ND","666","0"],
    [71898,"2018-07-19T13:00:00","51","ND","ND","ND","54.8","0.5","ND","ND","ND","ND","666","0"],
    [71899,"2018-07-19T14:00:00","39.5","ND","ND","ND","59.6","0.4","ND","ND","ND","ND","642","0"],
    [71900,"2018-07-19T15:00:00","36.4","ND","ND","ND","63.3","0.4","ND","ND","ND","ND","617","0"],
    [71901,"2018-07-19T16:00:00","33.3","ND","ND","ND","24.9","0.3","ND","ND","ND","ND","545","0"],
    [71902,"2018-07-19T17:00:00","17.4","ND","ND","ND","21.4","0.2","ND","ND","ND","ND","411","0"],
    [71903,"2018-07-19T18:00:00","18.1","ND","ND","ND","18.1","0.4","ND","ND","ND","ND","238","0"],
    [71904,"2018-07-19T19:00:00","24.4","ND","ND","ND","17.6","0.2","ND","ND","ND","ND","5","0"],
    [71905,"2018-07-19T20:00:00","13.7","ND","ND","ND","8.9","0.2","ND","ND","ND","ND","0","0"],
    [71906,"2018-07-19T21:00:00","32.6","ND","ND","ND","5.5","0.1","ND","ND","ND","ND","0","0"],
    [71907,"2018-07-19T22:00:00","53.2","ND","ND","ND","5.7","2.7","ND","ND","ND","ND","0","0"],
    [71908,"2018-07-19T23:00:00","51.8","ND","ND","ND","6.1","1.5","ND","ND","ND","ND","0","0"],
    [71909,"2018-07-20T00:00:00","20.4","ND","ND","ND","5.9","1.0","ND","ND","ND","ND","0","0"],
    [71910,"2018-07-20T01:00:00","20.9","ND","ND","ND","5.7","1.9","ND","ND","ND","ND","0","0"],
    [71911,"2018-07-20T02:00:00","23.1","ND","ND","ND","6.1","1.1","ND","ND","ND","ND","0","0"],
    [71912,"2018-07-20T03:00:00","39.5","ND","ND","ND","6.3","0.5","ND","ND","ND","ND","0","0"],
    [71913,"2018-07-20T04:00:00","42.8","ND","ND","ND","6.4","0.7","ND","ND","ND","ND","0","0"],
    [71914,"2018-07-20T05:00:00","21.7","ND","ND","ND","6.0","0.8","ND","ND","ND","ND","0","0"],
    [71915,"2018-07-20T06:00:00","31.2","ND","ND","ND","5.3","0.7","ND","ND","ND","ND","0","0"],
    [71916,"2018-07-20T07:00:00","50.4","ND","ND","ND","6.0","1.4","ND","ND","ND","ND","42","0"],
    [71917,"2018-07-20T08:00:00","68.1","ND","ND","ND","6.0","1.3","ND","ND","ND","ND","116","0"],
    [71918,"2018-07-20T09:00:00","68.8","ND","ND","ND","7.7","1.3","ND","ND","ND","ND","504","0"],
    [71919,"2018-07-20T10:00:00","92.7","ND","ND","ND","14.2","1.0","ND","ND","ND","ND","660","0"],
    [71920,"2018-07-20T11:00:00","81","ND","ND","ND","23.4","0.7","ND","ND","ND","ND","665","0"],
    [71921,"2018-07-20T12:00:00","49.1","ND","ND","ND","48.7","0.5","ND","ND","ND","ND","666","0"],
    [71922,"2018-07-20T13:00:00","39.9","ND","ND","ND","68.9","0.7","ND","ND","ND","ND","666","0"],
    [71923,"2018-07-20T14:00:00","32.9","ND","ND","ND","68.4","0.8","ND","ND","ND","ND","659","0"],
    [71924,"2018-07-20T15:00:00","21.8","ND","ND","ND","49.8","0.6","ND","ND","ND","ND","666","0"],
    [71925,"2018-07-20T16:00:00","8.7","ND","ND","ND","30.8","0.2","ND","ND","ND","ND","635","0"],
    [71926,"2018-07-20T17:00:00","15.7","ND","ND","ND","29.1","0.2","ND","ND","ND","ND","340","0"],
    [71927,"2018-07-20T18:00:00","23.1","ND","ND","ND","24.2","0.1","ND","ND","ND","ND","163","0"],
    [71928,"2018-07-20T19:00:00","26.5","ND","ND","ND","20.1","0.1","ND","ND","ND","ND","10","0"],
    [71929,"2018-07-20T20:00:00","6.3","ND","ND","ND","16.4","0.1","ND","ND","ND","ND","0","0"],
    [71930,"2018-07-20T21:00:00","14.2","ND","ND","ND","5.6","1.4","ND","ND","ND","ND","0","0"],
    [71931,"2018-07-20T22:00:00","19.8","ND","ND","ND","5.2","1.3","ND","ND","ND","ND","0","0"],
    [71932,"2018-07-20T23:00:00","26.6","ND","ND","ND","5.4","2.3","ND","ND","ND","ND","0","0"],
    [71933,"2018-07-21T00:00:00","22.8","ND","ND","ND","5.1","0.6","ND","ND","ND","ND","0","0"],
    [71934,"2018-07-21T01:00:00","28.7","ND","ND","ND","5.1","1.3","ND","ND","ND","ND","0","0"],
    [71935,"2018-07-21T02:00:00","16.3","ND","ND","ND","6.2","0.8","ND","ND","ND","ND","0","0"],
    [71936,"2018-07-21T03:00:00","15","ND","ND","ND","7.3","2.0","ND","ND","ND","ND","0","0"],
    [71937,"2018-07-21T04:00:00","22.8","ND","ND","ND","6.9","2.0","ND","ND","ND","ND","0","0"],
    [71938,"2018-07-21T05:00:00","32.4","ND","ND","ND","6.5","0.8","ND","ND","ND","ND","0","0"],
    [71939,"2018-07-21T06:00:00","30.5","ND","ND","ND","5.2","1.0","ND","ND","ND","ND","0","0"],
    [71940,"2018-07-21T07:00:00","41.7","ND","ND","ND","5.6","0.9","ND","ND","ND","ND","40","0"],
    [71941,"2018-07-21T08:00:00","67.4","ND","ND","ND","6.5","1.5","ND","ND","ND","ND","314","0"],
    [71942,"2018-07-21T09:00:00","102.5","ND","ND","ND","13.9","1.4","ND","ND","ND","ND","593","0"],
    [71943,"2018-07-21T10:00:00","91.8","ND","ND","ND","30.4","1.1","ND","ND","ND","ND","658","0"],
    [71944,"2018-07-21T11:00:00","76.6","ND","ND","ND","49.3","0.9","ND","ND","ND","ND","666","0"],
    [71945,"2018-07-21T12:00:00","60.3","ND","ND","ND","62.1","0.6","ND","ND","ND","ND","661","0"],
    [71946,"2018-07-21T13:00:00","42.2","ND","ND","ND","66.9","0.6","ND","ND","ND","ND","649","0"],
    [71947,"2018-07-21T14:00:00","29.2","ND","ND","ND","68.8","0.4","ND","ND","ND","ND","662","0"],
    [71948,"2018-07-21T15:00:00","23.3","ND","ND","ND","36.8","0.4","ND","ND","ND","ND","372","0"],
    [71949,"2018-07-21T16:00:00","8.5","ND","ND","ND","32.0","0.2","ND","ND","ND","ND","437","0"],
    [71950,"2018-07-21T17:00:00","10.4","ND","ND","ND","34.5","0.2","ND","ND","ND","ND","335","0"],
    [71951,"2018-07-21T18:00:00","14.8","ND","ND","ND","23.5","0.1","ND","ND","ND","ND","141","0"],
    [71952,"2018-07-21T19:00:00","9.6","ND","ND","ND","14.9","0.1","ND","ND","ND","ND","9","0"],
    [71953,"2018-07-21T20:00:00","6.9","ND","ND","ND","12.2","0.0","ND","ND","ND","ND","0","0.51"],
    [71954,"2018-07-21T21:00:00","8.5","ND","ND","ND","8.1","0.2","ND","ND","ND","ND","0","0"],
    [71955,"2018-07-21T22:00:00","32.9","ND","ND","ND","10.5","0.2","ND","ND","ND","ND","0","0"],
    [71956,"2018-07-21T23:00:00","54","ND","ND","ND","6.1","2.3","ND","ND","ND","ND","0","0"],
    [71957,"2018-07-22T00:00:00","23.1","ND","ND","ND","5.7","2.2","ND","ND","ND","ND","0","0"],
    [71958,"2018-07-22T01:00:00","15.5","ND","ND","ND","5.8","1.4","ND","ND","ND","ND","0","0"],
    [71959,"2018-07-22T02:00:00","28.1","ND","ND","ND","6.1","0.3","ND","ND","ND","ND","0","0"],
    [71960,"2018-07-22T03:00:00","26.5","ND","ND","ND","6.0","0.4","ND","ND","ND","ND","0","0"],
    [71961,"2018-07-22T04:00:00","36.3","ND","ND","ND","5.6","0.5","ND","ND","ND","ND","0","0"],
    [71962,"2018-07-22T05:00:00","50.5","ND","ND","ND","5.7","0.6","ND","ND","ND","ND","0","0"],
    [71963,"2018-07-22T06:00:00","40","ND","ND","ND","5.8","0.5","ND","ND","ND","ND","0","0"],
    [71964,"2018-07-22T07:00:00","32.5","ND","ND","ND","5.8","0.4","ND","ND","ND","ND","66","0"],
    [71965,"2018-07-22T08:00:00","43","ND","ND","ND","8.0","0.4","ND","ND","ND","ND","304","0"],
    [71966,"2018-07-22T09:00:00","58.8","ND","ND","ND","11.9","0.6","ND","ND","ND","ND","567","0"],
    [71967,"2018-07-22T10:00:00","55.2","ND","ND","ND","22.5","0.5","ND","ND","ND","ND","664","0"],
    [71968,"2018-07-22T11:00:00","52.6","ND","ND","ND","32.4","0.5","ND","ND","ND","ND","665","0"],
    [71969,"2018-07-22T12:00:00","39","ND","ND","ND","40.5","0.6","ND","ND","ND","ND","665","0"],
    [71970,"2018-07-22T13:00:00","28.9","ND","ND","ND","42.7","0.6","ND","ND","ND","ND","654","0"],
    [71971,"2018-07-22T14:00:00","24.4","ND","ND","ND","30.1","0.6","ND","ND","ND","ND","665","0"],
    [71972,"2018-07-22T15:00:00","19.4","ND","ND","ND","31.0","0.2","ND","ND","ND","ND","665","0"],
    [71973,"2018-07-22T16:00:00","16.8","ND","ND","ND","30.2","0.3","ND","ND","ND","ND","660","0"],
    [71974,"2018-07-22T17:00:00","18.9","ND","ND","ND","26.8","0.2","ND","ND","ND","ND","592","0"],
    [71975,"2018-07-22T18:00:00","16.8","ND","ND","ND","22.3","0.1","ND","ND","ND","ND","108","0"],
    [71976,"2018-07-22T19:00:00","10.4","ND","ND","ND","18.4","0.2","ND","ND","ND","ND","4","0"],
    [71977,"2018-07-22T20:00:00","8.6","ND","ND","ND","7.6","0.3","ND","ND","ND","ND","0","0"],
    [71978,"2018-07-22T21:00:00","24.4","ND","ND","ND","5.9","1.2","ND","ND","ND","ND","0","0"],
    [71979,"2018-07-22T22:00:00","38.3","ND","ND","ND","5.2","0.8","ND","ND","ND","ND","0","0"],
    [71980,"2018-07-22T23:00:00","35","ND","ND","ND","5.3","1.2","ND","ND","ND","ND","0","0"],
    [71981,"2018-07-23T00:00:00","48.4","ND","ND","ND","5.2","0.6","ND","ND","ND","ND","0","0"],
    [71982,"2018-07-23T01:00:00","75.4","ND","ND","ND","5.4","0.4","ND","ND","ND","ND","0","0"],
    [71983,"2018-07-23T02:00:00","133.6","ND","ND","ND","5.5","1.3","ND","ND","ND","ND","0","0"],
    [71984,"2018-07-23T03:00:00","63.7","ND","ND","ND","5.5","1.2","ND","ND","ND","ND","0","0"],
    [71985,"2018-07-23T04:00:00","36.6","ND","ND","ND","5.4","0.6","ND","ND","ND","ND","0","0"],
    [71986,"2018-07-23T05:00:00","39.5","ND","ND","ND","5.4","0.3","ND","ND","ND","ND","0","0"],
    [71987,"2018-07-23T06:00:00","35.7","ND","ND","ND","5.3","0.5","ND","ND","ND","ND","0","0"],
    [71988,"2018-07-23T07:00:00","37.7","ND","ND","ND","5.5","0.5","ND","ND","ND","ND","77","0"],
    [71989,"2018-07-23T08:00:00","53.3","ND","ND","ND","7.1","0.4","ND","ND","ND","ND","430","0"],
    [71990,"2018-07-23T09:00:00","98.9","ND","ND","ND","9.1","0.8","ND","ND","ND","ND","534","0"],
    [71991,"2018-07-23T10:00:00","96.3","ND","ND","ND","14.2","0.7","ND","ND","ND","ND","657","0"],
    [71992,"2018-07-23T11:00:00","79.4","ND","ND","ND","29.3","0.5","ND","ND","ND","ND","664","0"],
    [71993,"2018-07-23T12:00:00","71","ND","ND","ND","57.9","0.7","ND","ND","ND","ND","664","0"],
    [71994,"2018-07-23T13:00:00","70.2","ND","ND","ND","72.1","0.8","ND","ND","ND","ND","665","0"],
    [71995,"2018-07-23T14:00:00","60.3","ND","ND","ND","99.0","0.4","ND","ND","ND","ND","655","0"],
    [71996,"2018-07-23T15:00:00","66.8","ND","ND","ND","62.1","0.6","ND","ND","ND","ND","659","0"],
    [71997,"2018-07-23T16:00:00","35","ND","ND","ND","25.8","0.2","ND","ND","ND","ND","663","0"],
    [71998,"2018-07-23T17:00:00","17.6","ND","ND","ND","23.0","0.2","ND","ND","ND","ND","605","0"],
    [71999,"2018-07-23T18:00:00","18.8","ND","ND","ND","18.4","0.2","ND","ND","ND","ND","147","0"],
    [72000,"2018-07-23T19:00:00","13.3","ND","ND","ND","14.6","0.2","ND","ND","ND","ND","7","0"],
    [72001,"2018-07-23T20:00:00","6.1","ND","ND","ND","10.6","0.2","ND","ND","ND","ND","0","0"],
    [72002,"2018-07-23T21:00:00","16.2","ND","ND","ND","6.3","0.2","ND","ND","ND","ND","0","0"],
    [72003,"2018-07-23T22:00:00","28.8","ND","ND","ND","5.8","0.5","ND","ND","ND","ND","0","0"],
    [72004,"2018-07-23T23:00:00","22.3","ND","ND","ND","6.3","0.2","ND","ND","ND","ND","0","2.54"],
    [72005,"2018-07-24T00:00:00","65.1","ND","ND","ND","6.8","0.0","ND","ND","ND","ND","0","2.54"],
    [72006,"2018-07-24T01:00:00","19.7","ND","ND","ND","4.9","0.4","ND","ND","ND","ND","0","0"],
    [72007,"2018-07-24T02:00:00","31.3","ND","ND","ND","5.4","0.3","ND","ND","ND","ND","0","0"],
    [72008,"2018-07-24T03:00:00","16.8","ND","ND","ND","6.3","0.2","ND","ND","ND","ND","0","0"],
    [72009,"2018-07-24T04:00:00","15","ND","ND","ND","4.7","0.1","ND","ND","ND","ND","0","0"],
    [72010,"2018-07-24T05:00:00","23.5","ND","ND","ND","4.2","0.3","ND","ND","ND","ND","0","0.25"],
    [72011,"2018-07-24T06:00:00","27.6","ND","ND","ND","4.3","0.2","ND","ND","ND","ND","0","0"],
    [72012,"2018-07-24T07:00:00","36.1","ND","ND","ND","4.4","0.2","ND","ND","ND","ND","87","0"],
    [72013,"2018-07-24T08:00:00","56.6","ND","ND","ND","4.6","0.3","ND","ND","ND","ND","303","0"],
    [72014,"2018-07-24T09:00:00","62.4","ND","ND","ND","5.4","0.6","ND","ND","ND","ND","499","0"],
    [72015,"2018-07-24T10:00:00","52.6","ND","ND","ND","10.9","0.5","ND","ND","ND","ND","489","0"],
    [72016,"2018-07-24T11:00:00","38.2","ND","ND","ND","17.7","0.2","ND","ND","ND","ND","576","0"],
    [72017,"2018-07-24T12:00:00","25.6","ND","ND","ND","27.9","0.2","ND","ND","ND","ND","662","0"],
    [72018,"2018-07-24T13:00:00","55.6","ND","ND","ND","28.8","0.3","ND","ND","ND","ND","486","0"],
    [72019,"2018-07-24T14:00:00","55.7","ND","ND","ND","12.2","0.3","ND","ND","ND","ND","129","0.76"],
    [72020,"2018-07-24T15:00:00","7.3","ND","ND","ND","8.0","0.2","ND","ND","ND","ND","163","0.51"],
    [72021,"2018-07-24T16:00:00","1.5","ND","ND","ND","14.8","0.1","ND","ND","ND","ND","306","0"],
    [72022,"2018-07-24T17:00:00","22.9","ND","ND","ND","20.0","0.1","ND","ND","ND","ND","496","0.25"],
    [72023,"2018-07-24T18:00:00","38.5","ND","ND","ND","18.7","0.2","ND","ND","ND","ND","249","0"],
    [72024,"2018-07-24T19:00:00","64.9","ND","ND","ND","6.0","0.2","ND","ND","ND","ND","0","0"],
    [72025,"2018-07-24T20:00:00","48.7","ND","ND","ND","4.1","0.1","ND","ND","ND","ND","0","0"],
    [72026,"2018-07-24T21:00:00","56.9","ND","ND","ND","4.3","0.1","ND","ND","ND","ND","0","0"],
    [72027,"2018-07-24T22:00:00","74.3","ND","ND","ND","4.4","0.1","ND","ND","ND","ND","0","0"],
    [72028,"2018-07-24T23:00:00","55.3","ND","ND","ND","4.3","0.7","ND","ND","ND","ND","0","0"],
    [72029,"2018-07-25T00:00:00","53.3","ND","ND","ND","4.3","4.2","ND","ND","ND","ND","0","0"],
    [72030,"2018-07-25T01:00:00","37.1","ND","ND","ND","4.2","2.4","ND","ND","ND","ND","0","0"],
    [72031,"2018-07-25T02:00:00","34.1","ND","ND","ND","4.2","1.8","ND","ND","ND","ND","0","0"],
    [72032,"2018-07-25T03:00:00","31.3","ND","ND","ND","4.4","1.4","ND","ND","ND","ND","0","0"],
    [72033,"2018-07-25T04:00:00","37.6","ND","ND","ND","4.3","0.6","ND","ND","ND","ND","0","0"],
    [72034,"2018-07-25T05:00:00","29.8","ND","ND","ND","4.4","0.6","ND","ND","ND","ND","0","0"],
    [72035,"2018-07-25T06:00:00","66.4","ND","ND","ND","4.5","1.3","ND","ND","ND","ND","0","0"],
    [72036,"2018-07-25T07:00:00","70.2","ND","ND","ND","4.4","1.1","ND","ND","ND","ND","16","0"],
    [72037,"2018-07-25T08:00:00","73.6","ND","ND","ND","4.6","0.9","ND","ND","ND","ND","133","0"],
    [72038,"2018-07-25T09:00:00","74.7","ND","ND","ND","4.5","1.1","ND","ND","ND","ND","348","0"],
    [72039,"2018-07-25T10:00:00","76.5","ND","ND","ND","15.4","0.6","ND","ND","ND","ND","654","0"],
    [72040,"2018-07-25T11:00:00","78.2","ND","ND","ND","43.5","0.7","ND","ND","ND","ND","582","0"],
    [72041,"2018-07-25T12:00:00","59.7","ND","ND","ND","71.8","1.1","ND","ND","ND","ND","664","0"],
    [72042,"2018-07-25T13:00:00","47.7","ND","ND","ND","86.3","0.9","ND","ND","ND","ND","665","0"],
    [72043,"2018-07-25T14:00:00","38","ND","ND","ND","92.5","0.8","ND","ND","ND","ND","664","0"],
    [72044,"2018-07-25T15:00:00","40.4","ND","ND","ND","94.4","0.5","ND","ND","ND","ND","639","0"],
    [72045,"2018-07-25T16:00:00","24","ND","ND","ND","38.4","0.3","ND","ND","ND","ND","663","0"],
    [72046,"2018-07-25T17:00:00","16.9","ND","ND","ND","31.7","0.3","ND","ND","ND","ND","502","0"],
    [72047,"2018-07-25T18:00:00","18.7","ND","ND","ND","26.3","0.5","ND","ND","ND","ND","246","0"],
    [72048,"2018-07-25T19:00:00","30.3","ND","ND","ND","19.7","0.1","ND","ND","ND","ND","5","0"],
    [72049,"2018-07-25T20:00:00","14.6","ND","ND","ND","6.9","0.2","ND","ND","ND","ND","0","0"],
    [72050,"2018-07-25T21:00:00","19.5","ND","ND","ND","4.6","0.3","ND","ND","ND","ND","0","0"],
    [72051,"2018-07-25T22:00:00","34.3","ND","ND","ND","12.2","0.4","ND","ND","ND","ND","0","0"],
    [72052,"2018-07-25T23:00:00","25.1","ND","ND","ND","11.3","0.2","ND","ND","ND","ND","0","9.14"],
    [72053,"2018-07-26T00:00:00","55.7","ND","ND","ND","6.7","0.4","ND","ND","ND","ND","0","3.81"],
    [72054,"2018-07-26T01:00:00","27.9","ND","ND","ND","4.5","0.1","ND","ND","ND","ND","0","0.25"],
    [72055,"2018-07-26T02:00:00","18.8","ND","ND","ND","4.2","0.1","ND","ND","ND","ND","0","0"],
    [72056,"2018-07-26T03:00:00","13.2","ND","ND","ND","4.3","0.1","ND","ND","ND","ND","0","0"],
    [72057,"2018-07-26T04:00:00","7.7","ND","ND","ND","4.3","0.2","ND","ND","ND","ND","0","0"],
    [72058,"2018-07-26T05:00:00","14.6","ND","ND","ND","4.4","0.4","ND","ND","ND","ND","0","0"],
    [72059,"2018-07-26T06:00:00","35.9","ND","ND","ND","4.5","0.3","ND","ND","ND","ND","0","0"],
    [72060,"2018-07-26T07:00:00","45.2","ND","ND","ND","4.6","0.2","ND","ND","ND","ND","86","0"],
    [72061,"2018-07-26T08:00:00","67.4","ND","ND","ND","4.6","0.3","ND","ND","ND","ND","281","0"],
    [72062,"2018-07-26T09:00:00","90.5","ND","ND","ND","5.1","0.3","ND","ND","ND","ND","634","0"],
    [72063,"2018-07-26T10:00:00","91.1","ND","ND","ND","20.6","0.2","ND","ND","ND","ND","664","0"],
    [72064,"2018-07-26T11:00:00","60.4","ND","ND","ND","34.3","0.2","ND","ND","ND","ND","664","0"],
    [72065,"2018-07-26T12:00:00","40.3","ND","ND","ND","48.9","0.4","ND","ND","ND","ND","664","0"],
    [72066,"2018-07-26T13:00:00","27.2","ND","ND","ND","71.0","0.3","ND","ND","ND","ND","665","0"],
    [72067,"2018-07-26T14:00:00","34.5","ND","ND","ND","86.0","0.3","ND","ND","ND","ND","665","0"],
    [72068,"2018-07-26T15:00:00","38.8","ND","ND","ND","58.5","0.3","ND","ND","ND","ND","607","0"],
    [72069,"2018-07-26T16:00:00","29.9","ND","ND","ND","46.9","0.2","ND","ND","ND","ND","664","0"],
    [72070,"2018-07-26T17:00:00","24.7","ND","ND","ND","42.3","0.3","ND","ND","ND","ND","348","0"],
    [72071,"2018-07-26T18:00:00","20.7","ND","ND","ND","29.1","0.1","ND","ND","ND","ND","145","0"],
    [72072,"2018-07-26T19:00:00","9.1","ND","ND","ND","19.3","0.1","ND","ND","ND","ND","9","0"],
    [72073,"2018-07-26T20:00:00","19.2","ND","ND","ND","14.8","0.1","ND","ND","ND","ND","0","0"],
    [72074,"2018-07-26T21:00:00","23.4","ND","ND","ND","8.1","0.1","ND","ND","ND","ND","0","0"],
    [72075,"2018-07-26T22:00:00","30.1","ND","ND","ND","5.6","0.2","ND","ND","ND","ND","0","0"],
    [72076,"2018-07-26T23:00:00","34.4","ND","ND","ND","5.6","0.4","ND","ND","ND","ND","0","0"],
    [72077,"2018-07-27T00:00:00","97.8","ND","ND","ND","6.5","0.3","ND","ND","ND","ND","0","0"],
    [72078,"2018-07-27T01:00:00","78.1","ND","ND","ND","6.5","0.0","ND","ND","ND","ND","0","0"],
    [72079,"2018-07-27T02:00:00","79.4","ND","ND","ND","7.1","0.6","ND","ND","ND","ND","0","0"],
    [72080,"2018-07-27T03:00:00","103.9","ND","ND","ND","6.4","0.5","ND","ND","ND","ND","0","0"],
    [72081,"2018-07-27T04:00:00","79.5","ND","ND","ND","5.6","0.4","ND","ND","ND","ND","0","0"],
    [72082,"2018-07-27T05:00:00","73.1","ND","ND","ND","5.3","0.3","ND","ND","ND","ND","0","0"],
    [72083,"2018-07-27T06:00:00","68.3","ND","ND","ND","5.1","0.2","ND","ND","ND","ND","0","0"],
    [72084,"2018-07-27T07:00:00","75.9","ND","ND","ND","5.1","0.5","ND","ND","ND","ND","18","0"],
    [72085,"2018-07-27T08:00:00","95.4","ND","ND","ND","5.0","0.6","ND","ND","ND","ND","233","0"],
    [72086,"2018-07-27T09:00:00","84.7","ND","ND","ND","7.4","0.4","ND","ND","ND","ND","525","0"],
    [72087,"2018-07-27T10:00:00","68.7","ND","ND","ND","17.8","0.3","ND","ND","ND","ND","664","0"],
    [72088,"2018-07-27T11:00:00","73.1","ND","ND","ND","34.2","0.2","ND","ND","ND","ND","664","0"],
    [72089,"2018-07-27T12:00:00","54.9","ND","ND","ND","47.5","0.3","ND","ND","ND","ND","665","0"],
    [72090,"2018-07-27T13:00:00","18.4","ND","ND","ND","67.6","0.3","ND","ND","ND","ND","665","0"],
    [72091,"2018-07-27T14:00:00","44.5","ND","ND","ND","103.4","0.2","ND","ND","ND","ND","665","0"],
    [72092,"2018-07-27T15:00:00","51.6","ND","ND","ND","88.8","0.3","ND","ND","ND","ND","659","0"],
    [72093,"2018-07-27T16:00:00","39.2","ND","ND","ND","50.2","0.3","ND","ND","ND","ND","546","0"],
    [72094,"2018-07-27T17:00:00","32","ND","ND","ND","35.2","0.1","ND","ND","ND","ND","220","0"],
    [72095,"2018-07-27T18:00:00","25.3","ND","ND","ND","28.6","0.0","ND","ND","ND","ND","136","0"],
    [72096,"2018-07-27T19:00:00","27.7","ND","ND","ND","24.6","0.1","ND","ND","ND","ND","11","0.25"],
    [72097,"2018-07-27T20:00:00","36.5","ND","ND","ND","11.7","0.1","ND","ND","ND","ND","0","5.84"],
    [72098,"2018-07-27T21:00:00","30.6","ND","ND","ND","6.1","0.2","ND","ND","ND","ND","0","0.51"],
    [72099,"2018-07-27T22:00:00","29.8","ND","ND","ND","4.5","0.1","ND","ND","ND","ND","0","0"],
    [72100,"2018-07-27T23:00:00","33.4","ND","ND","ND","4.3","0.4","ND","ND","ND","ND","0","0"],
    [72101,"2018-07-28T00:00:00","38.5","ND","ND","ND","4.4","0.5","ND","ND","ND","ND","0","0"],
    [72102,"2018-07-28T01:00:00","36.9","ND","ND","ND","4.2","0.2","ND","ND","ND","ND","0","0"],
    [72103,"2018-07-28T02:00:00","28.2","ND","ND","ND","4.1","0.1","ND","ND","ND","ND","0","0"],
    [72104,"2018-07-28T03:00:00","19.9","ND","ND","ND","4.4","0.3","ND","ND","ND","ND","0","0"],
    [72105,"2018-07-28T04:00:00","22.2","ND","ND","ND","4.1","0.1","ND","ND","ND","ND","0","0"],
    [72106,"2018-07-28T05:00:00","23.5","ND","ND","ND","4.3","0.1","ND","ND","ND","ND","0","0"],
    [72107,"2018-07-28T06:00:00","29.8","ND","ND","ND","4.4","0.3","ND","ND","ND","ND","0","0"],
    [72108,"2018-07-28T07:00:00","40.1","ND","ND","ND","4.5","0.3","ND","ND","ND","ND","51","0"],
    [72109,"2018-07-28T08:00:00","63.7","ND","ND","ND","4.4","0.3","ND","ND","ND","ND","489","0"],
    [72110,"2018-07-28T09:00:00","52.3","ND","ND","ND","7.7","0.3","ND","ND","ND","ND","641","0"],
    [72111,"2018-07-28T10:00:00","39","ND","ND","ND","27.5","0.1","ND","ND","ND","ND","663","0"],
    [72112,"2018-07-28T11:00:00","29.9","ND","ND","ND","55.5","0.2","ND","ND","ND","ND","664","0"],
    [72113,"2018-07-28T12:00:00","27.8","ND","ND","ND","72.8","0.3","ND","ND","ND","ND","665","0"],
    [72114,"2018-07-28T13:00:00","29.3","ND","ND","ND","100.7","0.5","ND","ND","ND","ND","665","0"],
    [72115,"2018-07-28T14:00:00","34.9","ND","ND","ND","82.9","0.2","ND","ND","ND","ND","654","0"],
    [72116,"2018-07-28T15:00:00","30.6","ND","ND","ND","46.1","0.2","ND","ND","ND","ND","641","0"],
    [72117,"2018-07-28T16:00:00","12","ND","ND","ND","37.2","0.1","ND","ND","ND","ND","578","0"],
    [72118,"2018-07-28T17:00:00","13.1","ND","ND","ND","39.3","0.1","ND","ND","ND","ND","576","0"],
    [72119,"2018-07-28T18:00:00","2.4","ND","ND","ND","30.4","0.1","ND","ND","ND","ND","223","0"],
    [72120,"2018-07-28T19:00:00","6.2","ND","ND","ND","20.6","0.2","ND","ND","ND","ND","15","0"],
    [72121,"2018-07-28T20:00:00","8.8","ND","ND","ND","13.5","0.1","ND","ND","ND","ND","0","0"],
    [72122,"2018-07-28T21:00:00","26.4","ND","ND","ND","7.9","0.1","ND","ND","ND","ND","0","0"],
    [72123,"2018-07-28T22:00:00","28.3","ND","ND","ND","5.4","0.1","ND","ND","ND","ND","0","0"],
    [72124,"2018-07-28T23:00:00","22.6","ND","ND","ND","4.3","0.4","ND","ND","ND","ND","0","0"],
    [72125,"2018-07-29T00:00:00","20.8","ND","ND","ND","4.4","0.2","ND","ND","ND","ND","0","0"],
    [72126,"2018-07-29T01:00:00","16.4","ND","ND","ND","4.5","0.3","ND","ND","ND","ND","0","0"],
    [72127,"2018-07-29T02:00:00","23.7","ND","ND","ND","4.5","0.3","ND","ND","ND","ND","0","0"],
    [72128,"2018-07-29T03:00:00","33.2","ND","ND","ND","4.5","0.6","ND","ND","ND","ND","0","0"],
    [72129,"2018-07-29T04:00:00","30.9","ND","ND","ND","4.6","0.4","ND","ND","ND","ND","0","0"],
    [72130,"2018-07-29T05:00:00","31","ND","ND","ND","4.4","0.3","ND","ND","ND","ND","0","0"],
    [72131,"2018-07-29T06:00:00","31.6","ND","ND","ND","4.4","0.2","ND","ND","ND","ND","0","0"],
    [72132,"2018-07-29T07:00:00","32.8","ND","ND","ND","4.5","0.4","ND","ND","ND","ND","46","0"],
    [72133,"2018-07-29T08:00:00","46","ND","ND","ND","5.1","0.5","ND","ND","ND","ND","250","0"],
    [72134,"2018-07-29T09:00:00","61.4","ND","ND","ND","6.0","1.0","ND","ND","ND","ND","337","0"],
    [72135,"2018-07-29T10:00:00","65.1","ND","ND","ND","8.5","1.2","ND","ND","ND","ND","560","0"],
    [72136,"2018-07-29T11:00:00","52","ND","ND","ND","14.5","0.4","ND","ND","ND","ND","664","0"],
    [72137,"2018-07-29T12:00:00","24.4","ND","ND","ND","23.0","0.2","ND","ND","ND","ND","664","0"],
    [72138,"2018-07-29T13:00:00","13.7","ND","ND","ND","45.0","0.3","ND","ND","ND","ND","664","0"],
    [72139,"2018-07-29T14:00:00","10.8","ND","ND","ND","66.4","0.3","ND","ND","ND","ND","665","0"],
    [72140,"2018-07-29T15:00:00","21.9","ND","ND","ND","73.2","0.3","ND","ND","ND","ND","665","0"],
    [72141,"2018-07-29T16:00:00","20.7","ND","ND","ND","67.7","0.3","ND","ND","ND","ND","560","0"],
    [72142,"2018-07-29T17:00:00","18.5","ND","ND","ND","25.4","0.1","ND","ND","ND","ND","417","0"],
    [72143,"2018-07-29T18:00:00","4","ND","ND","ND","20.6","0.1","ND","ND","ND","ND","143","0"],
    [72144,"2018-07-29T19:00:00","ND","ND","ND","ND","17.5","0.1","ND","ND","ND","ND","13","0"],
    [72145,"2018-07-29T20:00:00","ND","ND","ND","ND","15.4","0.1","ND","ND","ND","ND","0","0"],
    [72146,"2018-07-29T21:00:00","5.3","ND","ND","ND","5.7","0.2","ND","ND","ND","ND","0","0"],
    [72147,"2018-07-29T22:00:00","28.6","ND","ND","ND","6.4","0.2","ND","ND","ND","ND","0","0"],
    [72148,"2018-07-29T23:00:00","18.6","ND","ND","ND","12.9","0.2","ND","ND","ND","ND","0","0"],
    [72149,"2018-07-30T00:00:00","6.7","ND","ND","ND","10.4","0.3","ND","ND","ND","ND","0","0"],
    [72150,"2018-07-30T01:00:00","36.1","ND","ND","ND","6.0","0.2","ND","ND","ND","ND","0","0"],
    [72151,"2018-07-30T02:00:00","42.4","ND","ND","ND","6.0","0.1","ND","ND","ND","ND","0","0"],
    [72152,"2018-07-30T03:00:00","33.9","ND","ND","ND","5.4","1.0","ND","ND","ND","ND","0","0"],
    [72153,"2018-07-30T04:00:00","27.6","ND","ND","ND","4.7","1.0","ND","ND","ND","ND","0","0"],
    [72154,"2018-07-30T05:00:00","27","ND","ND","ND","4.7","0.9","ND","ND","ND","ND","0","0"],
    [72155,"2018-07-30T06:00:00","40.4","ND","ND","ND","4.7","0.6","ND","ND","ND","ND","0","0"],
    [72156,"2018-07-30T07:00:00","37.1","ND","ND","ND","4.9","0.2","ND","ND","ND","ND","29","0"],
    [72157,"2018-07-30T08:00:00","51.3","ND","ND","ND","4.9","0.4","ND","ND","ND","ND","249","0"],
    [72158,"2018-07-30T09:00:00","33.1","ND","ND","ND","18.2","1.1","ND","ND","ND","ND","381","0"],
    [72159,"2018-07-30T10:00:00","28.8","ND","ND","ND","16.9","0.3","ND","ND","ND","ND","660","0"],
    [72160,"2018-07-30T11:00:00","22.7","ND","ND","ND","ND","1.5","ND","ND","ND","ND","621","0"],
    [72161,"2018-07-30T12:00:00","31.2","ND","ND","ND","ND","3.1","ND","ND","ND","ND","663","0"],
    [72162,"2018-07-30T13:00:00","42.2","ND","ND","ND","32.4","0.9","ND","ND","ND","ND","665","0"],
    [72163,"2018-07-30T14:00:00","29.4","ND","ND","ND","34.8","0.4","ND","ND","ND","ND","503","0"],
    [72164,"2018-07-30T15:00:00","24.8","ND","ND","ND","19.5","0.4","ND","ND","ND","ND","247","0"],
    [72165,"2018-07-30T16:00:00","16.3","ND","ND","ND","24.4","0.3","ND","ND","ND","ND","575","0"],
    [72166,"2018-07-30T17:00:00","14.4","ND","ND","ND","19.8","0.2","ND","ND","ND","ND","339","0"],
    [72167,"2018-07-30T18:00:00","5.8","ND","ND","ND","11.7","0.1","ND","ND","ND","ND","60","0"],
    [72168,"2018-07-30T19:00:00","17.2","ND","ND","ND","5.1","0.5","ND","ND","ND","ND","0","0.25"],
    [72169,"2018-07-30T20:00:00","34","ND","ND","ND","4.5","0.2","ND","ND","ND","ND","0","0"],
    [72170,"2018-07-30T21:00:00","28.1","ND","ND","ND","4.7","0.3","ND","ND","ND","ND","0","0.25"],
    [72171,"2018-07-30T22:00:00","26.9","ND","ND","ND","4.6","0.1","ND","ND","ND","ND","0","9.4"],
    [72172,"2018-07-30T23:00:00","10","ND","ND","ND","4.3","0.1","ND","ND","ND","ND","0","21.08"],
    [72173,"2018-07-31T00:00:00","ND","ND","ND","ND","4.1","0.1","ND","ND","ND","ND","0","2.29"],
    [72174,"2018-07-31T01:00:00","ND","ND","ND","ND","4.3","0.0","ND","ND","ND","ND","0","0.25"],
    [72175,"2018-07-31T02:00:00","ND","ND","ND","ND","4.2","0.2","ND","ND","ND","ND","0","0.76"],
    [72176,"2018-07-31T03:00:00","ND","ND","ND","ND","4.2","0.2","ND","ND","ND","ND","0","1.02"],
    [72177,"2018-07-31T04:00:00","ND","ND","ND","ND","4.4","0.1","ND","ND","ND","ND","0","1.27"],
    [72178,"2018-07-31T05:00:00","2.5","ND","ND","ND","4.3","0.1","ND","ND","ND","ND","0","0"],
    [72179,"2018-07-31T06:00:00","5.2","ND","ND","ND","4.2","0.1","ND","ND","ND","ND","0","0.25"],
    [72180,"2018-07-31T07:00:00","8.9","ND","ND","ND","4.3","0.4","ND","ND","ND","ND","32","0.25"],
    [72181,"2018-07-31T08:00:00","13.9","ND","ND","ND","4.3","0.6","ND","ND","ND","ND","145","0"],
    [72182,"2018-07-31T09:00:00","37.2","ND","ND","ND","4.5","0.3","ND","ND","ND","ND","469","0"],
    [72183,"2018-07-31T10:00:00","56.9","ND","ND","ND","7.1","0.2","ND","ND","ND","ND","664","0"],
    [72184,"2018-07-31T11:00:00","55.5","ND","ND","ND","19.2","0.0","ND","ND","ND","ND","664","0"],
    [72185,"2018-07-31T12:00:00","29.8","ND","ND","ND","35.2","0.1","ND","ND","ND","ND","665","0"],
    [72186,"2018-07-31T13:00:00","17.2","ND","ND","ND","59.2","0.2","ND","ND","ND","ND","665","0"],
    [72187,"2018-07-31T14:00:00","20.9","ND","ND","ND","77.3","0.1","ND","ND","ND","ND","663","0"],
    [72188,"2018-07-31T15:00:00","16.5","ND","ND","ND","82.8","0.0","ND","ND","ND","ND","665","0"],
    [72189,"2018-07-31T16:00:00","21.1","ND","ND","ND","56.0","0.2","ND","ND","ND","ND","605","0"],
    [72190,"2018-07-31T17:00:00","15.6","ND","ND","ND","32.9","0.1","ND","ND","ND","ND","298","0"],
    [72191,"2018-07-31T18:00:00","16.8","ND","ND","ND","28.6","0.1","ND","ND","ND","ND","126","0"],
    [72192,"2018-07-31T19:00:00","29.2","ND","ND","ND","17.5","0.2","ND","ND","ND","ND","10","0"],
    [72193,"2018-07-31T20:00:00","43","ND","ND","ND","6.0","0.8","ND","ND","ND","ND","0","0.25"],
    [72194,"2018-07-31T21:00:00","39.6","ND","ND","ND","5.8","0.4","ND","ND","ND","ND","0","0"],
    [72195,"2018-07-31T22:00:00","21.9","ND","ND","ND","5.2","0.1","ND","ND","ND","ND","0","0"],
    [72196,"2018-07-31T23:00:00","29.3","ND","ND","ND","4.4","0.2","ND","ND","ND","ND","0","0"],
    [72197,"2018-08-01T00:00:00","24.3","ND","ND","ND","4.3","0.5","ND","ND","ND","ND","0","0"],
    [72198,"2018-08-01T01:00:00","29.2","ND","ND","ND","4.7","0.3","ND","ND","ND","ND","0","0"],
    [72199,"2018-08-01T02:00:00","31.4","ND","ND","ND","4.5","0.2","ND","ND","ND","ND","0","0"],
    [72200,"2018-08-01T03:00:00","35.8","ND","ND","ND","4.4","0.8","ND","ND","ND","ND","0","0"],
    [72201,"2018-08-01T04:00:00","33.7","ND","ND","ND","4.5","0.8","ND","ND","ND","ND","0","0"],
    [72202,"2018-08-01T05:00:00","37.9","ND","ND","ND","4.5","1.1","ND","ND","ND","ND","0","0"],
    [72203,"2018-08-01T06:00:00","44.3","ND","ND","ND","4.5","0.8","ND","ND","ND","ND","0","0"],
    [72204,"2018-08-01T07:00:00","39.2","ND","ND","ND","4.6","1.3","ND","ND","ND","ND","45","0"],
    [72205,"2018-08-01T08:00:00","ND","ND","ND","ND","4.7","1.7","ND","ND","ND","ND","413","0"],
    [72206,"2018-08-01T09:00:00","ND","ND","ND","ND","6.5","0.9","ND","ND","ND","ND","660","0"],
    [72207,"2018-08-01T10:00:00","98.4","ND","ND","ND","14.4","0.5","ND","ND","ND","ND","662","0"],
    [72208,"2018-08-01T11:00:00","35.2","ND","ND","ND","27.5","0.4","ND","ND","ND","ND","665","0"],
    [72209,"2018-08-01T12:00:00","17.8","ND","ND","ND","40.0","0.3","ND","ND","ND","ND","665","0"],
    [72210,"2018-08-01T13:00:00","14.7","ND","ND","ND","54.0","0.3","ND","ND","ND","ND","665","0"],
    [72211,"2018-08-01T14:00:00","15.7","ND","ND","ND","53.8","0.3","ND","ND","ND","ND","661","0"],
    [72212,"2018-08-01T15:00:00","14.4","ND","ND","ND","50.0","0.1","ND","ND","ND","ND","665","0"],
    [72213,"2018-08-01T16:00:00","17.8","ND","ND","ND","34.7","0.3","ND","ND","ND","ND","664","0"],
    [72214,"2018-08-01T17:00:00","18.9","ND","ND","ND","29.9","0.1","ND","ND","ND","ND","632","0"],
    [72215,"2018-08-01T18:00:00","17","ND","ND","ND","27.5","0.1","ND","ND","ND","ND","187","0"],
    [72216,"2018-08-01T19:00:00","16.2","ND","ND","ND","15.8","0.1","ND","ND","ND","ND","12","0"],
    [72217,"2018-08-01T20:00:00","27.9","ND","ND","ND","11.6","0.1","ND","ND","ND","ND","0","1.27"],
    [72218,"2018-08-01T21:00:00","18.6","ND","ND","ND","7.9","0.3","ND","ND","ND","ND","0","0"],
    [72219,"2018-08-01T22:00:00","28.1","ND","ND","ND","5.0","0.1","ND","ND","ND","ND","0","0.51"],
    [72220,"2018-08-01T23:00:00","34.1","ND","ND","ND","4.6","0.4","ND","ND","ND","ND","0","0"],
    [72221,"2018-08-02T00:00:00","26.3","ND","ND","ND","4.4","0.3","ND","ND","ND","ND","0","0"],
    [72222,"2018-08-02T01:00:00","38","ND","ND","ND","4.3","0.1","ND","ND","ND","ND","0","0"],
    [72223,"2018-08-02T02:00:00","47.1","ND","ND","ND","4.3","0.3","ND","ND","ND","ND","0","0"],
    [72224,"2018-08-02T03:00:00","38.3","ND","ND","ND","4.4","0.3","ND","ND","ND","ND","0","0"],
    [72225,"2018-08-02T04:00:00","28.7","ND","ND","ND","4.6","0.3","ND","ND","ND","ND","0","0"],
    [72226,"2018-08-02T05:00:00","28.1","ND","ND","ND","4.5","0.5","ND","ND","ND","ND","0","0"],
    [72227,"2018-08-02T06:00:00","29.3","ND","ND","ND","4.3","0.2","ND","ND","ND","ND","0","0"],
    [72228,"2018-08-02T07:00:00","34.2","ND","ND","ND","4.4","0.1","ND","ND","ND","ND","68","0"],
    [72229,"2018-08-02T08:00:00","49.4","ND","ND","ND","4.7","1.4","ND","ND","ND","ND","226","0"],
    [72230,"2018-08-02T09:00:00","65","ND","ND","ND","5.6","2.1","ND","ND","ND","ND","424","0"],
    [72231,"2018-08-02T10:00:00","66.3","ND","ND","ND","9.1","0.7","ND","ND","ND","ND","621","0"],
    [72232,"2018-08-02T11:00:00","41.7","ND","ND","ND","20.7","0.5","ND","ND","ND","ND","665","0"],
    [72233,"2018-08-02T12:00:00","37.3","ND","ND","ND","51.1","0.3","ND","ND","ND","ND","665","0"],
    [72234,"2018-08-02T13:00:00","19.2","ND","ND","ND","82.9","0.2","ND","ND","ND","ND","665","0"],
    [72235,"2018-08-02T14:00:00","16.3","ND","ND","ND","94.8","0.2","ND","ND","ND","ND","665","0"],
    [72236,"2018-08-02T15:00:00","26.5","ND","ND","ND","95.4","0.3","ND","ND","ND","ND","665","0"],
    [72237,"2018-08-02T16:00:00","26.6","ND","ND","ND","88.9","0.1","ND","ND","ND","ND","639","0"],
    [72238,"2018-08-02T17:00:00","25.5","ND","ND","ND","54.0","0.2","ND","ND","ND","ND","526","0"],
    [72239,"2018-08-02T18:00:00","31.5","ND","ND","ND","39.7","0.1","ND","ND","ND","ND","230","0"],
    [72240,"2018-08-02T19:00:00","22.6","ND","ND","ND","33.3","0.1","ND","ND","ND","ND","0","0"],
    [72241,"2018-08-02T20:00:00","18.8","ND","ND","ND","18.5","0.1","ND","ND","ND","ND","0","0"],
    [72242,"2018-08-02T21:00:00","31.8","ND","ND","ND","7.0","0.1","ND","ND","ND","ND","0","0"],
    [72243,"2018-08-02T22:00:00","37.2","ND","ND","ND","4.8","0.9","ND","ND","ND","ND","0","0"],
    [72244,"2018-08-02T23:00:00","29.8","ND","ND","ND","4.6","0.3","ND","ND","ND","ND","0","0"],
    [72245,"2018-08-03T00:00:00","27","ND","ND","ND","4.4","0.5","ND","ND","ND","ND","0","0"],
    [72246,"2018-08-03T01:00:00","28.5","ND","ND","ND","4.2","0.4","ND","ND","ND","ND","0","0"],
    [72247,"2018-08-03T02:00:00","19.7","ND","ND","ND","4.4","0.7","ND","ND","ND","ND","0","0"],
    [72248,"2018-08-03T03:00:00","19.9","ND","ND","ND","4.6","0.3","ND","ND","ND","ND","0","0"],
    [72249,"2018-08-03T04:00:00","28.2","ND","ND","ND","4.4","0.3","ND","ND","ND","ND","0","0"],
    [72250,"2018-08-03T05:00:00","24.9","ND","ND","ND","4.2","0.3","ND","ND","ND","ND","0","0"],
    [72251,"2018-08-03T06:00:00","34.1","ND","ND","ND","4.4","0.4","ND","ND","ND","ND","0","0"],
    [72252,"2018-08-03T07:00:00","45.7","ND","ND","ND","4.5","0.5","ND","ND","ND","ND","91","0"],
    [72253,"2018-08-03T08:00:00","71.2","ND","ND","ND","5.1","0.9","ND","ND","ND","ND","271","0"],
    [72254,"2018-08-03T09:00:00","91.9","ND","ND","ND","6.3","0.5","ND","ND","ND","ND","543","0"],
    [72255,"2018-08-03T10:00:00","70.2","ND","ND","ND","15.2","0.7","ND","ND","ND","ND","652","0"],
    [72256,"2018-08-03T11:00:00","54.6","ND","ND","ND","44.6","0.4","ND","ND","ND","ND","665","0"],
    [72257,"2018-08-03T12:00:00","44.7","ND","ND","ND","64.9","0.5","ND","ND","ND","ND","665","0"],
    [72258,"2018-08-03T13:00:00","45.5","ND","ND","ND","67.6","0.3","ND","ND","ND","ND","647","0"],
    [72259,"2018-08-03T14:00:00","29.7","ND","ND","ND","37.1","0.2","ND","ND","ND","ND","605","0"],
    [72260,"2018-08-03T15:00:00","11.6","ND","ND","ND","29.7","0.1","ND","ND","ND","ND","654","0"],
    [72261,"2018-08-03T16:00:00","10","ND","ND","ND","26.3","0.0","ND","ND","ND","ND","485","0"],
    [72262,"2018-08-03T17:00:00","3.1","ND","ND","ND","27.4","0.2","ND","ND","ND","ND","546","0"],
    [72263,"2018-08-03T18:00:00","7.6","ND","ND","ND","25.9","0.1","ND","ND","ND","ND","270","0"],
    [72264,"2018-08-03T19:00:00","2.2","ND","ND","ND","16.2","0.1","ND","ND","ND","ND","10","0"],
    [72265,"2018-08-03T20:00:00","3.7","ND","ND","ND","6.8","0.1","ND","ND","ND","ND","0","0"],
    [72266,"2018-08-03T21:00:00","26.7","ND","ND","ND","7.0","0.1","ND","ND","ND","ND","0","0"],
    [72267,"2018-08-03T22:00:00","25.3","ND","ND","ND","8.5","0.3","ND","ND","ND","ND","0","0"],
    [72268,"2018-08-03T23:00:00","29","ND","ND","ND","6.8","0.0","ND","ND","ND","ND","0","0"],
    [72269,"2018-08-04T00:00:00","25","ND","ND","ND","9.3","0.1","ND","ND","ND","ND","0","0"],
    [72270,"2018-08-04T01:00:00","33.5","ND","ND","ND","12.5","0.1","ND","ND","ND","ND","0","0"],
    [72271,"2018-08-04T02:00:00","28.3","ND","ND","ND","7.7","2.8","ND","ND","ND","ND","0","0"],
    [72272,"2018-08-04T03:00:00","27.3","ND","ND","ND","4.8","2.3","ND","ND","ND","ND","0","2.79"],
    [72273,"2018-08-04T04:00:00","19.7","ND","ND","ND","4.2","2.4","ND","ND","ND","ND","0","2.29"],
    [72274,"2018-08-04T05:00:00","2.5","ND","ND","ND","3.9","3.6","ND","ND","ND","ND","0","0.51"],
    [72275,"2018-08-04T06:00:00","2.3","ND","ND","ND","4.2","2.4","ND","ND","ND","ND","0","0"],
    [72276,"2018-08-04T07:00:00","14","ND","ND","ND","4.3","0.9","ND","ND","ND","ND","66","0"],
    [72277,"2018-08-04T08:00:00","32.4","ND","ND","ND","4.3","0.2","ND","ND","ND","ND","267","0"],
    [72278,"2018-08-04T09:00:00","41.9","ND","ND","ND","5.4","0.2","ND","ND","ND","ND","489","0"],
    [72279,"2018-08-04T10:00:00","58.1","ND","ND","ND","17.1","0.2","ND","ND","ND","ND","657","0"],
    [72280,"2018-08-04T11:00:00","43.6","ND","ND","ND","27.5","0.2","ND","ND","ND","ND","665","0"],
    [72281,"2018-08-04T12:00:00","17","ND","ND","ND","47.1","0.2","ND","ND","ND","ND","665","0"],
    [72282,"2018-08-04T13:00:00","12.7","ND","ND","ND","72.8","0.3","ND","ND","ND","ND","665","0"],
    [72283,"2018-08-04T14:00:00","12.4","ND","ND","ND","69.4","0.3","ND","ND","ND","ND","657","0"],
    [72284,"2018-08-04T15:00:00","15.1","ND","ND","ND","72.7","0.2","ND","ND","ND","ND","642","0"],
    [72285,"2018-08-04T16:00:00","15.2","ND","ND","ND","66.3","0.1","ND","ND","ND","ND","666","0"],
    [72286,"2018-08-04T17:00:00","19.8","ND","ND","ND","60.8","0.2","ND","ND","ND","ND","561","0"],
    [72287,"2018-08-04T18:00:00","20.7","ND","ND","ND","42.5","0.1","ND","ND","ND","ND","209","0"],
    [72288,"2018-08-04T19:00:00","20.2","ND","ND","ND","14.1","0.1","ND","ND","ND","ND","6","0"],
    [72289,"2018-08-04T20:00:00","11.5","ND","ND","ND","13.6","0.1","ND","ND","ND","ND","0","0"],
    [72290,"2018-08-04T21:00:00","10.1","ND","ND","ND","10.9","0.0","ND","ND","ND","ND","0","0"],
    [72291,"2018-08-04T22:00:00","29.1","ND","ND","ND","4.9","0.3","ND","ND","ND","ND","0","0"],
    [72292,"2018-08-04T23:00:00","41.5","ND","ND","ND","5.1","0.4","ND","ND","ND","ND","0","0"],
    [72293,"2018-08-05T00:00:00","36.5","ND","ND","ND","6.2","0.3","ND","ND","ND","ND","0","0"],
    [72294,"2018-08-05T01:00:00","27.8","ND","ND","ND","6.3","0.1","ND","ND","ND","ND","0","10.16"],
    [72295,"2018-08-05T02:00:00","11.8","ND","ND","ND","6.0","0.1","ND","ND","ND","ND","0","1.52"],
    [72296,"2018-08-05T03:00:00","2.3","ND","ND","ND","5.8","0.3","ND","ND","ND","ND","0","1.27"],
    [72297,"2018-08-05T04:00:00","1.5","ND","ND","ND","5.1","0.3","ND","ND","ND","ND","0","2.29"],
    [72298,"2018-08-05T05:00:00","7.8","ND","ND","ND","5.0","0.9","ND","ND","ND","ND","0","1.02"],
    [72299,"2018-08-05T06:00:00","2.3","ND","ND","ND","5.0","0.4","ND","ND","ND","ND","0","0"],
    [72300,"2018-08-05T07:00:00","13.7","ND","ND","ND","4.2","0.4","ND","ND","ND","ND","56","0"],
    [72301,"2018-08-05T08:00:00","28.9","ND","ND","ND","4.3","0.4","ND","ND","ND","ND","281","0"],
    [72302,"2018-08-05T09:00:00","39.3","ND","ND","ND","7.0","0.2","ND","ND","ND","ND","608","0"],
    [72303,"2018-08-05T10:00:00","51","ND","ND","ND","13.0","0.3","ND","ND","ND","ND","650","0"],
    [72304,"2018-08-05T11:00:00","32.5","ND","ND","ND","24.8","0.1","ND","ND","ND","ND","565","0"],
    [72305,"2018-08-05T12:00:00","14.6","ND","ND","ND","24.6","0.2","ND","ND","ND","ND","605","0"],
    [72306,"2018-08-05T13:00:00","14.8","ND","ND","ND","26.8","0.2","ND","ND","ND","ND","665","0"],
    [72307,"2018-08-05T14:00:00","16.3","ND","ND","ND","36.2","0.4","ND","ND","ND","ND","664","0"],
    [72308,"2018-08-05T15:00:00","9.3","ND","ND","ND","42.4","0.2","ND","ND","ND","ND","619","0"],
    [72309,"2018-08-05T16:00:00","7.2","ND","ND","ND","60.7","0.1","ND","ND","ND","ND","634","0"],
    [72310,"2018-08-05T17:00:00","24.1","ND","ND","ND","82.3","0.3","ND","ND","ND","ND","607","0"],
    [72311,"2018-08-05T18:00:00","18.9","ND","ND","ND","72.0","0.1","ND","ND","ND","ND","177","0"],
    [72312,"2018-08-05T19:00:00","29","ND","ND","ND","29.3","0.2","ND","ND","ND","ND","9","0"],
    [72313,"2018-08-05T20:00:00","31.7","ND","ND","ND","6.6","0.2","ND","ND","ND","ND","0","0"],
    [72314,"2018-08-05T21:00:00","51","ND","ND","ND","5.2","0.2","ND","ND","ND","ND","0","0"],
    [72315,"2018-08-05T22:00:00","54.5","ND","ND","ND","5.1","0.1","ND","ND","ND","ND","0","0"],
    [72316,"2018-08-05T23:00:00","44.4","ND","ND","ND","4.2","0.6","ND","ND","ND","ND","0","0"],
    [72317,"2018-08-06T00:00:00","44.1","ND","ND","ND","4.2","0.1","ND","ND","ND","ND","0","0"],
    [72318,"2018-08-06T01:00:00","48.7","ND","ND","ND","4.2","0.2","ND","ND","ND","ND","0","0"],
    [72319,"2018-08-06T02:00:00","36.8","ND","ND","ND","4.3","0.3","ND","ND","ND","ND","0","0"],
    [72320,"2018-08-06T03:00:00","33","ND","ND","ND","4.3","0.2","ND","ND","ND","ND","0","0"],
    [72321,"2018-08-06T04:00:00","40","ND","ND","ND","4.3","0.2","ND","ND","ND","ND","0","0"],
    [72322,"2018-08-06T05:00:00","49.6","ND","ND","ND","4.4","0.5","ND","ND","ND","ND","0","0"],
    [72323,"2018-08-06T06:00:00","35.5","ND","ND","ND","4.4","0.5","ND","ND","ND","ND","0","0"],
    [72324,"2018-08-06T07:00:00","52.8","ND","ND","ND","4.5","0.6","ND","ND","ND","ND","118","0"],
    [72325,"2018-08-06T08:00:00","47.7","ND","ND","ND","5.6","0.8","ND","ND","ND","ND","504","0"],
    [72326,"2018-08-06T09:00:00","52.4","ND","ND","ND","11.7","0.6","ND","ND","ND","ND","649","0"],
    [72327,"2018-08-06T10:00:00","51.3","ND","ND","ND","24.9","0.4","ND","ND","ND","ND","665","0"],
    [72328,"2018-08-06T11:00:00","34.2","ND","ND","ND","35.1","0.2","ND","ND","ND","ND","638","0"],
    [72329,"2018-08-06T12:00:00","28.7","ND","ND","ND","59.7","0.3","ND","ND","ND","ND","665","0"],
    [72330,"2018-08-06T13:00:00","25.3","ND","ND","ND","86.9","0.5","ND","ND","ND","ND","666","0"],
    [72331,"2018-08-06T14:00:00","28.7","ND","ND","ND","105.7","0.1","ND","ND","ND","ND","666","0"],
    [72332,"2018-08-06T15:00:00","37.8","ND","ND","ND","87.8","0.3","ND","ND","ND","ND","559","0"],
    [72333,"2018-08-06T16:00:00","34.1","ND","ND","ND","29.5","0.2","ND","ND","ND","ND","641","0"],
    [72334,"2018-08-06T17:00:00","25.4","ND","ND","ND","27.4","0.1","ND","ND","ND","ND","222","0"],
    [72335,"2018-08-06T18:00:00","28.5","ND","ND","ND","18.0","0.2","ND","ND","ND","ND","130","0"],
    [72336,"2018-08-06T19:00:00","31.1","ND","ND","ND","12.0","0.1","ND","ND","ND","ND","13","0"],
    [72337,"2018-08-06T20:00:00","42.2","ND","ND","ND","6.1","0.3","ND","ND","ND","ND","0","0"],
    [72338,"2018-08-06T21:00:00","43.3","ND","ND","ND","4.5","0.5","ND","ND","ND","ND","0","0"],
    [72339,"2018-08-06T22:00:00","42.1","ND","ND","ND","4.6","0.3","ND","ND","ND","ND","0","0"],
    [72340,"2018-08-06T23:00:00","41.3","ND","ND","ND","4.4","0.5","ND","ND","ND","ND","0","0"],
    [72341,"2018-08-07T00:00:00","47.3","ND","ND","ND","4.6","0.3","ND","ND","ND","ND","0","0"],
    [72342,"2018-08-07T01:00:00","48.2","ND","ND","ND","4.4","0.1","ND","ND","ND","ND","0","0"],
    [72343,"2018-08-07T02:00:00","25.7","ND","ND","ND","4.5","1.1","ND","ND","ND","ND","0","0"],
    [72344,"2018-08-07T03:00:00","25.2","ND","ND","ND","4.3","0.6","ND","ND","ND","ND","0","0"],
    [72345,"2018-08-07T04:00:00","16.3","ND","ND","ND","4.4","0.7","ND","ND","ND","ND","0","0"],
    [72346,"2018-08-07T05:00:00","19.1","ND","ND","ND","4.3","0.5","ND","ND","ND","ND","0","0"],
    [72347,"2018-08-07T06:00:00","29.6","ND","ND","ND","4.3","0.8","ND","ND","ND","ND","0","0"],
    [72348,"2018-08-07T07:00:00","38","ND","ND","ND","4.5","0.5","ND","ND","ND","ND","52","0"],
    [72349,"2018-08-07T08:00:00","62.7","ND","ND","ND","4.9","0.5","ND","ND","ND","ND","469","0"],
    [72350,"2018-08-07T09:00:00","94.5","ND","ND","ND","15.1","0.3","ND","ND","ND","ND","664","0"],
    [72351,"2018-08-07T10:00:00","69.2","ND","ND","ND","35.4","0.2","ND","ND","ND","ND","665","0"],
    [72352,"2018-08-07T11:00:00","48.8","ND","ND","ND","54.5","0.3","ND","ND","ND","ND","665","0"],
    [72353,"2018-08-07T12:00:00","39.6","ND","ND","ND","74.9","0.3","ND","ND","ND","ND","665","0"],
    [72354,"2018-08-07T13:00:00","25.6","ND","ND","ND","86.9","0.2","ND","ND","ND","ND","666","0"],
    [72355,"2018-08-07T14:00:00","25.2","ND","ND","ND","99.8","0.3","ND","ND","ND","ND","666","0"],
    [72356,"2018-08-07T15:00:00","28.4","ND","ND","ND","87.6","0.3","ND","ND","ND","ND","654","0"],
    [72357,"2018-08-07T16:00:00","19.8","ND","ND","ND","47.2","0.1","ND","ND","ND","ND","630","0"],
    [72358,"2018-08-07T17:00:00","14.6","ND","ND","ND","50.1","0.0","ND","ND","ND","ND","509","0"],
    [72359,"2018-08-07T18:00:00","17","ND","ND","ND","39.1","0.1","ND","ND","ND","ND","102","0"],
    [72360,"2018-08-07T19:00:00","14.2","ND","ND","ND","18.2","0.2","ND","ND","ND","ND","7","0"],
    [72361,"2018-08-07T20:00:00","25.1","ND","ND","ND","14.5","0.3","ND","ND","ND","ND","0","0"],
    [72362,"2018-08-07T21:00:00","27.9","ND","ND","ND","7.5","0.7","ND","ND","ND","ND","0","0"],
    [72363,"2018-08-07T22:00:00","35.4","ND","ND","ND","4.8","0.8","ND","ND","ND","ND","0","0"],
    [72364,"2018-08-07T23:00:00","47.8","ND","ND","ND","4.3","0.2","ND","ND","ND","ND","0","0"],
    [72365,"2018-08-08T00:00:00","36.5","ND","ND","ND","4.4","0.3","ND","ND","ND","ND","0","0"],
    [72366,"2018-08-08T01:00:00","26.4","ND","ND","ND","5.6","0.4","ND","ND","ND","ND","0","0"],
    [72367,"2018-08-08T02:00:00","15.4","ND","ND","ND","4.7","0.3","ND","ND","ND","ND","0","0"],
    [72368,"2018-08-08T03:00:00","18.9","ND","ND","ND","5.0","0.3","ND","ND","ND","ND","0","0"],
    [72369,"2018-08-08T04:00:00","32.4","ND","ND","ND","5.7","0.2","ND","ND","ND","ND","0","0"],
    [72370,"2018-08-08T05:00:00","38.7","ND","ND","ND","4.8","0.4","ND","ND","ND","ND","0","0"],
    [72371,"2018-08-08T06:00:00","27.7","ND","ND","ND","4.6","0.3","ND","ND","ND","ND","0","0"],
    [72372,"2018-08-08T07:00:00","34","ND","ND","ND","4.4","0.2","ND","ND","ND","ND","99","0"],
    [72373,"2018-08-08T08:00:00","83.9","ND","ND","ND","5.0","0.1","ND","ND","ND","ND","450","0"],
    [72374,"2018-08-08T09:00:00","94.8","ND","ND","ND","7.8","0.6","ND","ND","ND","ND","665","0"],
    [72375,"2018-08-08T10:00:00","71.8","ND","ND","ND","27.2","0.5","ND","ND","ND","ND","665","0"],
    [72376,"2018-08-08T11:00:00","49.8","ND","ND","ND","54.5","0.2","ND","ND","ND","ND","666","0"],
    [72377,"2018-08-08T12:00:00","41","ND","ND","ND","84.6","0.3","ND","ND","ND","ND","666","0"],
    [72378,"2018-08-08T13:00:00","26.7","ND","ND","ND","100.2","0.1","ND","ND","ND","ND","666","0"],
    [72379,"2018-08-08T14:00:00","28.5","ND","ND","ND","90.5","0.3","ND","ND","ND","ND","666","0"],
    [72380,"2018-08-08T15:00:00","15.8","ND","ND","ND","98.7","0.1","ND","ND","ND","ND","666","0"],
    [72381,"2018-08-08T16:00:00","28.7","ND","ND","ND","85.3","0.3","ND","ND","ND","ND","619","0"],
    [72382,"2018-08-08T17:00:00","22.3","ND","ND","ND","66.6","0.1","ND","ND","ND","ND","600","0"],
    [72383,"2018-08-08T18:00:00","31.9","ND","ND","ND","45.6","0.3","ND","ND","ND","ND","273","0"],
    [72384,"2018-08-08T19:00:00","34.3","ND","ND","ND","24.2","0.1","ND","ND","ND","ND","14","0"],
    [72385,"2018-08-08T20:00:00","36.1","ND","ND","ND","13.7","0.1","ND","ND","ND","ND","0","0"],
    [72386,"2018-08-08T21:00:00","38.9","ND","ND","ND","11.6","0.3","ND","ND","ND","ND","0","0"],
    [72387,"2018-08-08T22:00:00","42.7","ND","ND","ND","6.2","0.7","ND","ND","ND","ND","0","0"],
    [72388,"2018-08-08T23:00:00","30","ND","ND","ND","5.0","0.9","ND","ND","ND","ND","0","0"],
    [72389,"2018-08-09T00:00:00","10.1","ND","ND","ND","4.7","0.7","ND","ND","ND","ND","0","0"],
    [72390,"2018-08-09T01:00:00","21","ND","ND","ND","4.9","0.4","ND","ND","ND","ND","0","0"],
    [72391,"2018-08-09T02:00:00","22.2","ND","ND","ND","4.8","1.1","ND","ND","ND","ND","0","0"],
    [72392,"2018-08-09T03:00:00","25.7","ND","ND","ND","4.8","0.6","ND","ND","ND","ND","0","0"],
    [72393,"2018-08-09T04:00:00","28.7","ND","ND","ND","4.5","0.3","ND","ND","ND","ND","0","0"],
    [72394,"2018-08-09T05:00:00","23.3","ND","ND","ND","4.6","0.3","ND","ND","ND","ND","0","0"],
    [72395,"2018-08-09T06:00:00","30.1","ND","ND","ND","4.5","0.5","ND","ND","ND","ND","0","0"],
    [72396,"2018-08-09T07:00:00","80","ND","ND","ND","4.7","0.7","ND","ND","ND","ND","145","0"],
    [72397,"2018-08-09T08:00:00","74.4","ND","ND","ND","5.6","0.8","ND","ND","ND","ND","463","0"],
    [72398,"2018-08-09T09:00:00","68.1","ND","ND","ND","11.8","0.6","ND","ND","ND","ND","665","0"],
    [72399,"2018-08-09T10:00:00","72.6","ND","ND","ND","24.6","0.8","ND","ND","ND","ND","665","0"],
    [72400,"2018-08-09T11:00:00","41.6","ND","ND","ND","35.1","0.5","ND","ND","ND","ND","666","0"],
    [72401,"2018-08-09T12:00:00","31.7","ND","ND","ND","61.5","0.3","ND","ND","ND","ND","666","0"],
    [72402,"2018-08-09T13:00:00","15.3","ND","ND","ND","97.6","0.4","ND","ND","ND","ND","666","0"],
    [72403,"2018-08-09T14:00:00","21.1","ND","ND","ND","75.8","0.3","ND","ND","ND","ND","666","0"],
    [72404,"2018-08-09T15:00:00","29.3","ND","ND","ND","66.4","0.2","ND","ND","ND","ND","632","0"],
    [72405,"2018-08-09T16:00:00","15.8","ND","ND","ND","70.8","0.3","ND","ND","ND","ND","657","0"],
    [72406,"2018-08-09T17:00:00","23.2","ND","ND","ND","67.1","0.3","ND","ND","ND","ND","595","0"],
    [72407,"2018-08-09T18:00:00","50.7","ND","ND","ND","46.3","1.1","ND","ND","ND","ND","199","0"],
    [72408,"2018-08-09T19:00:00","59.6","ND","ND","ND","27.1","0.7","ND","ND","ND","ND","9","0"],
    [72409,"2018-08-09T20:00:00","56.6","ND","ND","ND","25.9","0.7","ND","ND","ND","ND","0","0"],
    [72410,"2018-08-09T21:00:00","61.4","ND","ND","ND","12.0","0.5","ND","ND","ND","ND","0","0"],
    [72411,"2018-08-09T22:00:00","43.5","ND","ND","ND","5.7","1.1","ND","ND","ND","ND","0","0"],
    [72412,"2018-08-09T23:00:00","59","ND","ND","ND","5.3","1.7","ND","ND","ND","ND","0","0"],
    [72413,"2018-08-10T00:00:00","31.8","ND","ND","ND","5.0","1.5","ND","ND","ND","ND","0","0"],
    [72414,"2018-08-10T01:00:00","17.4","ND","ND","ND","5.2","1.0","ND","ND","ND","ND","0","0"],
    [72415,"2018-08-10T02:00:00","36.9","ND","ND","ND","4.7","0.5","ND","ND","ND","ND","0","0"],
    [72416,"2018-08-10T03:00:00","25.2","ND","ND","ND","4.5","0.4","ND","ND","ND","ND","0","0"],
    [72417,"2018-08-10T04:00:00","21.6","ND","ND","ND","4.7","0.7","ND","ND","ND","ND","0","0"],
    [72418,"2018-08-10T05:00:00","42.5","ND","ND","ND","4.8","1.1","ND","ND","ND","ND","0","0"],
    [72419,"2018-08-10T06:00:00","57","ND","ND","ND","4.6","0.6","ND","ND","ND","ND","0","0"],
    [72420,"2018-08-10T07:00:00","50.5","ND","ND","ND","4.8","0.3","ND","ND","ND","ND","79","0"],
    [72421,"2018-08-10T08:00:00","92.7","ND","ND","ND","6.1","1.2","ND","ND","ND","ND","449","0"],
    [72422,"2018-08-10T09:00:00","121.4","ND","ND","ND","13.3","1.4","ND","ND","ND","ND","664","0"],
    [72423,"2018-08-10T10:00:00","82","ND","ND","ND","39.8","1.0","ND","ND","ND","ND","665","0"],
    [72424,"2018-08-10T11:00:00","38.9","ND","ND","ND","55.3","0.4","ND","ND","ND","ND","665","0"],
    [72425,"2018-08-10T12:00:00","31","ND","ND","ND","74.6","0.5","ND","ND","ND","ND","665","0"],
    [72426,"2018-08-10T13:00:00","35.3","ND","ND","ND","86.9","0.1","ND","ND","ND","ND","666","0"],
    [72427,"2018-08-10T14:00:00","28.1","ND","ND","ND","85.4","0.2","ND","ND","ND","ND","666","0"],
    [72428,"2018-08-10T15:00:00","16.9","ND","ND","ND","76.0","0.1","ND","ND","ND","ND","598","0"],
    [72429,"2018-08-10T16:00:00","10.5","ND","ND","ND","70.6","0.3","ND","ND","ND","ND","584","0"],
    [72430,"2018-08-10T17:00:00","17.7","ND","ND","ND","73.9","0.2","ND","ND","ND","ND","543","0"],
    [72431,"2018-08-10T18:00:00","40.8","ND","ND","ND","60.2","0.2","ND","ND","ND","ND","183","0"],
    [72432,"2018-08-10T19:00:00","49.3","ND","ND","ND","19.1","0.4","ND","ND","ND","ND","8","0"],
    [72433,"2018-08-10T20:00:00","49.6","ND","ND","ND","15.0","0.2","ND","ND","ND","ND","0","0"],
    [72434,"2018-08-10T21:00:00","34.2","ND","ND","ND","16.7","0.1","ND","ND","ND","ND","0","0"],
    [72435,"2018-08-10T22:00:00","35.7","ND","ND","ND","5.5","0.5","ND","ND","ND","ND","0","0"],
    [72436,"2018-08-10T23:00:00","68.7","ND","ND","ND","5.2","1.3","ND","ND","ND","ND","0","0"],
    [72437,"2018-08-11T00:00:00","60.6","ND","ND","ND","4.7","0.7","ND","ND","ND","ND","0","0"],
    [72438,"2018-08-11T01:00:00","66","ND","ND","ND","4.6","0.5","ND","ND","ND","ND","0","0"],
    [72439,"2018-08-11T02:00:00","34.8","ND","ND","ND","4.4","0.5","ND","ND","ND","ND","0","0"],
    [72440,"2018-08-11T03:00:00","26.9","ND","ND","ND","4.5","1.1","ND","ND","ND","ND","0","0"],
    [72441,"2018-08-11T04:00:00","26.8","ND","ND","ND","4.3","0.9","ND","ND","ND","ND","0","0"],
    [72442,"2018-08-11T05:00:00","34.7","ND","ND","ND","4.5","0.7","ND","ND","ND","ND","0","0"],
    [72443,"2018-08-11T06:00:00","31.7","ND","ND","ND","4.4","0.4","ND","ND","ND","ND","0","0"],
    [72444,"2018-08-11T07:00:00","38.6","ND","ND","ND","5.5","2.8","ND","ND","ND","ND","132","0"],
    [72445,"2018-08-11T08:00:00","140.4","ND","ND","ND","6.6","3.1","ND","ND","ND","ND","554","0"],
    [72446,"2018-08-11T09:00:00","193.3","ND","ND","ND","14.6","1.8","ND","ND","ND","ND","664","0"],
    [72447,"2018-08-11T10:00:00","128.5","ND","ND","ND","40.1","1.0","ND","ND","ND","ND","665","0"],
    [72448,"2018-08-11T11:00:00","87.8","ND","ND","ND","64.2","0.5","ND","ND","ND","ND","665","0"],
    [72449,"2018-08-11T12:00:00","60.9","ND","ND","ND","95.3","0.7","ND","ND","ND","ND","665","0"],
    [72450,"2018-08-11T13:00:00","59.5","ND","ND","ND","113.8","0.7","ND","ND","ND","ND","666","0"],
    [72451,"2018-08-11T14:00:00","45.7","ND","ND","ND","117.4","0.3","ND","ND","ND","ND","666","0"],
    [72452,"2018-08-11T15:00:00","29.9","ND","ND","ND","97.7","0.2","ND","ND","ND","ND","666","0"],
    [72453,"2018-08-11T16:00:00","23.1","ND","ND","ND","80.6","0.3","ND","ND","ND","ND","609","0"],
    [72454,"2018-08-11T17:00:00","29","ND","ND","ND","64.3","0.1","ND","ND","ND","ND","628","0"],
    [72455,"2018-08-11T18:00:00","22.9","ND","ND","ND","53.2","0.2","ND","ND","ND","ND","85","0"],
    [72456,"2018-08-11T19:00:00","22.1","ND","ND","ND","33.6","0.2","ND","ND","ND","ND","6","0"],
    [72457,"2018-08-11T20:00:00","30.5","ND","ND","ND","15.9","0.1","ND","ND","ND","ND","0","0"],
    [72458,"2018-08-11T21:00:00","33.5","ND","ND","ND","13.1","0.6","ND","ND","ND","ND","0","0"],
    [72459,"2018-08-11T22:00:00","59.9","ND","ND","ND","5.6","0.8","ND","ND","ND","ND","0","0"],
    [72460,"2018-08-11T23:00:00","55.4","ND","ND","ND","6.2","0.4","ND","ND","ND","ND","0","0"],
    [72461,"2018-08-12T00:00:00","46.7","ND","ND","ND","8.1","0.6","ND","ND","ND","ND","0","0"],
    [72462,"2018-08-12T01:00:00","40.6","ND","ND","ND","5.3","0.4","ND","ND","ND","ND","0","0"],
    [72463,"2018-08-12T02:00:00","24.4","ND","ND","ND","7.3","0.6","ND","ND","ND","ND","0","0"],
    [72464,"2018-08-12T03:00:00","17.8","ND","ND","ND","7.5","0.8","ND","ND","ND","ND","0","0"],
    [72465,"2018-08-12T04:00:00","26.4","ND","ND","ND","6.0","0.6","ND","ND","ND","ND","0","0"],
    [72466,"2018-08-12T05:00:00","40.3","ND","ND","ND","5.4","0.4","ND","ND","ND","ND","0","0"],
    [72467,"2018-08-12T06:00:00","32.8","ND","ND","ND","5.2","0.7","ND","ND","ND","ND","0","0"],
    [72468,"2018-08-12T07:00:00","46.7","ND","ND","ND","5.3","0.7","ND","ND","ND","ND","60","0"],
    [72469,"2018-08-12T08:00:00","54.1","ND","ND","ND","9.6","1.9","ND","ND","ND","ND","529","0"],
    [72470,"2018-08-12T09:00:00","77.4","ND","ND","ND","23.4","1.9","ND","ND","ND","ND","664","0"],
    [72471,"2018-08-12T10:00:00","64","ND","ND","ND","45.6","1.0","ND","ND","ND","ND","661","0"],
    [72472,"2018-08-12T11:00:00","39.1","ND","ND","ND","65.5","0.5","ND","ND","ND","ND","665","0.25"],
    [72473,"2018-08-12T12:00:00","31","ND","ND","ND","78.1","0.3","ND","ND","ND","ND","666","0"],
    [72474,"2018-08-12T13:00:00","27.6","ND","ND","ND","84.9","0.2","ND","ND","ND","ND","666","0"],
    [72475,"2018-08-12T14:00:00","18.7","ND","ND","ND","48.4","0.2","ND","ND","ND","ND","654","0"],
    [72476,"2018-08-12T15:00:00","3.2","ND","ND","ND","45.7","0.2","ND","ND","ND","ND","654","0"],
    [72477,"2018-08-12T16:00:00","1.9","ND","ND","ND","45.6","0.2","ND","ND","ND","ND","320","0"],
    [72478,"2018-08-12T17:00:00","17.7","ND","ND","ND","34.5","0.1","ND","ND","ND","ND","289","0"],
    [72479,"2018-08-12T18:00:00","13.8","ND","ND","ND","32.4","0.1","ND","ND","ND","ND","77","0"],
    [72480,"2018-08-12T19:00:00","16.4","ND","ND","ND","28.4","0.0","ND","ND","ND","ND","0","0"],
    [72481,"2018-08-12T20:00:00","25.1","ND","ND","ND","17.9","0.1","ND","ND","ND","ND","0","0"],
    [72482,"2018-08-12T21:00:00","32","ND","ND","ND","12.3","0.3","ND","ND","ND","ND","0","0"],
    [72483,"2018-08-12T22:00:00","41.1","ND","ND","ND","6.1","0.9","ND","ND","ND","ND","0","0"],
    [72484,"2018-08-12T23:00:00","31.3","ND","ND","ND","4.9","0.7","ND","ND","ND","ND","0","0"],
    [72485,"2018-08-13T00:00:00","23","ND","ND","ND","5.6","0.3","ND","ND","ND","ND","0","0"],
    [72486,"2018-08-13T01:00:00","25","ND","ND","ND","5.5","0.5","ND","ND","ND","ND","0","0"],
    [72487,"2018-08-13T02:00:00","22.9","ND","ND","ND","8.4","0.3","ND","ND","ND","ND","0","0"],
    [72488,"2018-08-13T03:00:00","24.6","ND","ND","ND","10.3","0.5","ND","ND","ND","ND","0","0"],
    [72489,"2018-08-13T04:00:00","33.3","ND","ND","ND","8.5","0.4","ND","ND","ND","ND","0","0"],
    [72490,"2018-08-13T05:00:00","32.8","ND","ND","ND","5.7","0.3","ND","ND","ND","ND","0","0"],
    [72491,"2018-08-13T06:00:00","52.5","ND","ND","ND","4.4","0.4","ND","ND","ND","ND","0","0"],
    [72492,"2018-08-13T07:00:00","62.7","ND","ND","ND","4.8","0.5","ND","ND","ND","ND","107","0"],
    [72493,"2018-08-13T08:00:00","71.8","ND","ND","ND","5.5","1.0","ND","ND","ND","ND","293","0"],
    [72494,"2018-08-13T09:00:00","72.7","ND","ND","ND","9.2","1.7","ND","ND","ND","ND","531","0"],
    [72495,"2018-08-13T10:00:00","52.9","ND","ND","ND","17.7","0.5","ND","ND","ND","ND","665","0"],
    [72496,"2018-08-13T11:00:00","36.8","ND","ND","ND","31.6","0.4","ND","ND","ND","ND","665","0"],
    [72497,"2018-08-13T12:00:00","32.9","ND","ND","ND","56.9","0.4","ND","ND","ND","ND","665","0"],
    [72498,"2018-08-13T13:00:00","28.1","ND","ND","ND","69.1","0.3","ND","ND","ND","ND","665","0"],
    [72499,"2018-08-13T14:00:00","21.6","ND","ND","ND","106.5","0.3","ND","ND","ND","ND","666","0"],
    [72500,"2018-08-13T15:00:00","22.4","ND","ND","ND","ND","6.2","ND","ND","ND","ND","657","0"],
    [72501,"2018-08-13T16:00:00","37.2","ND","ND","ND","47.8","1.4","ND","ND","ND","ND","636","0"],
    [72502,"2018-08-13T17:00:00","35.1","ND","ND","ND","43.3","0.3","ND","ND","ND","ND","371","0"],
    [72503,"2018-08-13T18:00:00","23.8","ND","ND","ND","36.6","0.2","ND","ND","ND","ND","126","0"],
    [72504,"2018-08-13T19:00:00","13","ND","ND","ND","30.4","0.2","ND","ND","ND","ND","0","0"],
    [72505,"2018-08-13T20:00:00","16.1","ND","ND","ND","27.5","0.2","ND","ND","ND","ND","0","0"],
    [72506,"2018-08-13T21:00:00","33.6","ND","ND","ND","8.7","0.2","ND","ND","ND","ND","0","0"],
    [72507,"2018-08-13T22:00:00","31.4","ND","ND","ND","6.0","0.8","ND","ND","ND","ND","0","0"],
    [72508,"2018-08-13T23:00:00","22.9","ND","ND","ND","5.6","0.3","ND","ND","ND","ND","0","0"],
    [72509,"2018-08-14T00:00:00","19.5","ND","ND","ND","5.8","0.6","ND","ND","ND","ND","0","0"],
    [72510,"2018-08-14T01:00:00","10.2","ND","ND","ND","7.3","0.5","ND","ND","ND","ND","0","0"],
    [72511,"2018-08-14T02:00:00","2.1","ND","ND","ND","6.7","0.5","ND","ND","ND","ND","0","0"],
    [72512,"2018-08-14T03:00:00","1.7","ND","ND","ND","6.2","0.4","ND","ND","ND","ND","0","0"],
    [72513,"2018-08-14T04:00:00","11.9","ND","ND","ND","9.8","0.4","ND","ND","ND","ND","0","0"],
    [72514,"2018-08-14T05:00:00","26.6","ND","ND","ND","6.3","0.5","ND","ND","ND","ND","0","0"],
    [72515,"2018-08-14T06:00:00","37.5","ND","ND","ND","4.6","0.3","ND","ND","ND","ND","0","0"],
    [72516,"2018-08-14T07:00:00","55.5","ND","ND","ND","4.7","0.4","ND","ND","ND","ND","66","0"],
    [72517,"2018-08-14T08:00:00","61.7","ND","ND","ND","5.1","0.5","ND","ND","ND","ND","195","0"],
    [72518,"2018-08-14T09:00:00","63","ND","ND","ND","9.1","0.3","ND","ND","ND","ND","557","0"],
    [72519,"2018-08-14T10:00:00","56.8","ND","ND","ND","18.6","0.4","ND","ND","ND","ND","575","0"],
    [72520,"2018-08-14T11:00:00","38.5","ND","ND","ND","24.8","0.2","ND","ND","ND","ND","654","0"],
    [72521,"2018-08-14T12:00:00","26.1","ND","ND","ND","45.4","0.2","ND","ND","ND","ND","665","0"],
    [72522,"2018-08-14T13:00:00","21.8","ND","ND","ND","42.7","0.4","ND","ND","ND","ND","475","0"],
    [72523,"2018-08-14T14:00:00","29.2","ND","ND","ND","44.8","0.2","ND","ND","ND","ND","664","0"],
    [72524,"2018-08-14T15:00:00","24.4","ND","ND","ND","38.5","0.2","ND","ND","ND","ND","626","0"],
    [72525,"2018-08-14T16:00:00","16.6","ND","ND","ND","24.4","0.1","ND","ND","ND","ND","500","0"],
    [72526,"2018-08-14T17:00:00","12.5","ND","ND","ND","20.2","0.1","ND","ND","ND","ND","261","0"],
    [72527,"2018-08-14T18:00:00","26.8","ND","ND","ND","18.7","0.7","ND","ND","ND","ND","75","0"],
    [72528,"2018-08-14T19:00:00","50.8","ND","ND","ND","6.5","1.6","ND","ND","ND","ND","0","0"],
    [72529,"2018-08-14T20:00:00","46.4","ND","ND","ND","5.5","2.7","ND","ND","ND","ND","0","0"],
    [72530,"2018-08-14T21:00:00","36.6","ND","ND","ND","4.7","0.3","ND","ND","ND","ND","0","0"],
    [72531,"2018-08-14T22:00:00","30.4","ND","ND","ND","5.4","0.2","ND","ND","ND","ND","0","0.25"],
    [72532,"2018-08-14T23:00:00","1.8","ND","ND","ND","7.3","0.1","ND","ND","ND","ND","0","0"],
    [72533,"2018-08-15T00:00:00","8.9","ND","ND","ND","10.1","0.1","ND","ND","ND","ND","0","0"],
    [72534,"2018-08-15T01:00:00","12.4","ND","ND","ND","7.6","0.5","ND","ND","ND","ND","0","0"],
    [72535,"2018-08-15T02:00:00","20.9","ND","ND","ND","4.6","1.0","ND","ND","ND","ND","0","0"],
    [72536,"2018-08-15T03:00:00","17.8","ND","ND","ND","4.4","0.5","ND","ND","ND","ND","0","0"],
    [72537,"2018-08-15T04:00:00","34.7","ND","ND","ND","4.6","0.5","ND","ND","ND","ND","0","0"],
    [72538,"2018-08-15T05:00:00","42.4","ND","ND","ND","4.5","0.6","ND","ND","ND","ND","0","0"],
    [72539,"2018-08-15T06:00:00","53.4","ND","ND","ND","4.4","0.5","ND","ND","ND","ND","0","0"],
    [72540,"2018-08-15T07:00:00","52.6","ND","ND","ND","4.5","0.4","ND","ND","ND","ND","61","0"],
    [72541,"2018-08-15T08:00:00","59.3","ND","ND","ND","4.7","0.7","ND","ND","ND","ND","204","0"],
    [72542,"2018-08-15T09:00:00","75.7","ND","ND","ND","6.1","1.0","ND","ND","ND","ND","467","0"],
    [72543,"2018-08-15T10:00:00","88.1","ND","ND","ND","10.4","1.3","ND","ND","ND","ND","664","0"],
    [72544,"2018-08-15T11:00:00","58.9","ND","ND","ND","22.0","1.3","ND","ND","ND","ND","664","0"],
    [72545,"2018-08-15T12:00:00","28.3","ND","ND","ND","39.2","0.5","ND","ND","ND","ND","648","0"],
    [72546,"2018-08-15T13:00:00","22.2","ND","ND","ND","55.8","0.2","ND","ND","ND","ND","665","0"],
    [72547,"2018-08-15T14:00:00","21.3","ND","ND","ND","62.5","0.2","ND","ND","ND","ND","665","0"],
    [72548,"2018-08-15T15:00:00","22.8","ND","ND","ND","64.2","0.1","ND","ND","ND","ND","654","0"],
    [72549,"2018-08-15T16:00:00","25.9","ND","ND","ND","42.7","0.4","ND","ND","ND","ND","641","0"],
    [72550,"2018-08-15T17:00:00","26.9","ND","ND","ND","39.6","0.2","ND","ND","ND","ND","665","0"],
    [72551,"2018-08-15T18:00:00","23","ND","ND","ND","31.6","0.2","ND","ND","ND","ND","297","0"],
    [72552,"2018-08-15T19:00:00","9.7","ND","ND","ND","22.2","0.2","ND","ND","ND","ND","7","0"],
    [72553,"2018-08-15T20:00:00","2.6","ND","ND","ND","14.6","0.2","ND","ND","ND","ND","0","0"],
    [72554,"2018-08-15T21:00:00","28.7","ND","ND","ND","5.1","0.2","ND","ND","ND","ND","0","0"],
    [72555,"2018-08-15T22:00:00","52.2","ND","ND","ND","5.1","1.2","ND","ND","ND","ND","0","0"],
    [72556,"2018-08-15T23:00:00","61.4","ND","ND","ND","5.6","0.7","ND","ND","ND","ND","0","0"],
    [72557,"2018-08-16T00:00:00","26.3","ND","ND","ND","5.3","0.3","ND","ND","ND","ND","0","0"],
    [72558,"2018-08-16T01:00:00","7.9","ND","ND","ND","5.3","0.4","ND","ND","ND","ND","0","0"],
    [72559,"2018-08-16T02:00:00","3.7","ND","ND","ND","5.5","0.9","ND","ND","ND","ND","0","0"],
    [72560,"2018-08-16T03:00:00","46","ND","ND","ND","6.0","1.0","ND","ND","ND","ND","0","0"],
    [72561,"2018-08-16T04:00:00","62.2","ND","ND","ND","5.6","1.1","ND","ND","ND","ND","0","0"],
    [72562,"2018-08-16T05:00:00","38.4","ND","ND","ND","4.9","0.4","ND","ND","ND","ND","0","0"],
    [72563,"2018-08-16T06:00:00","45.9","ND","ND","ND","4.9","1.0","ND","ND","ND","ND","0","0"],
    [72564,"2018-08-16T07:00:00","60.9","ND","ND","ND","4.9","1.4","ND","ND","ND","ND","67","0"],
    [72565,"2018-08-16T08:00:00","83.2","ND","ND","ND","6.1","1.5","ND","ND","ND","ND","253","0"],
    [72566,"2018-08-16T09:00:00","122.7","ND","ND","ND","13.7","1.5","ND","ND","ND","ND","652","0"],
    [72567,"2018-08-16T10:00:00","112.1","ND","ND","ND","49.2","1.2","ND","ND","ND","ND","665","0"],
    [72568,"2018-08-16T11:00:00","75.7","ND","ND","ND","97.1","1.3","ND","ND","ND","ND","665","0"],
    [72569,"2018-08-16T12:00:00","57.8","ND","ND","ND","144.2","0.8","ND","ND","ND","ND","665","0"],
    [72570,"2018-08-16T13:00:00","51.2","ND","ND","ND","182.0","0.7","ND","ND","ND","ND","666","0"],
    [72571,"2018-08-16T14:00:00","61.2","ND","ND","ND","123.2","0.6","ND","ND","ND","ND","666","0"],
    [72572,"2018-08-16T15:00:00","39.1","ND","ND","ND","66.4","0.3","ND","ND","ND","ND","612","0"],
    [72573,"2018-08-16T16:00:00","20.3","ND","ND","ND","63.4","0.3","ND","ND","ND","ND","656","0"],
    [72574,"2018-08-16T17:00:00","30.8","ND","ND","ND","66.2","0.2","ND","ND","ND","ND","627","0"],
    [72575,"2018-08-16T18:00:00","30.7","ND","ND","ND","45.4","0.2","ND","ND","ND","ND","194","0"],
    [72576,"2018-08-16T19:00:00","16.5","ND","ND","ND","28.6","0.3","ND","ND","ND","ND","0","0"],
    [72577,"2018-08-16T20:00:00","27.7","ND","ND","ND","8.7","0.2","ND","ND","ND","ND","0","0"],
    [72578,"2018-08-16T21:00:00","41.4","ND","ND","ND","6.9","0.7","ND","ND","ND","ND","0","0"],
    [72579,"2018-08-16T22:00:00","55","ND","ND","ND","5.1","1.5","ND","ND","ND","ND","0","0"],
    [72580,"2018-08-16T23:00:00","42.7","ND","ND","ND","6.0","1.4","ND","ND","ND","ND","0","0"],
    [72581,"2018-08-17T00:00:00","36.4","ND","ND","ND","5.6","0.9","ND","ND","ND","ND","0","0"],
    [72582,"2018-08-17T01:00:00","35.8","ND","ND","ND","5.3","0.9","ND","ND","ND","ND","0","0"],
    [72583,"2018-08-17T02:00:00","25.8","ND","ND","ND","5.0","0.7","ND","ND","ND","ND","0","0"],
    [72584,"2018-08-17T03:00:00","24.9","ND","ND","ND","5.1","0.9","ND","ND","ND","ND","0","0"],
    [72585,"2018-08-17T04:00:00","51","ND","ND","ND","5.2","1.2","ND","ND","ND","ND","0","0"],
    [72586,"2018-08-17T05:00:00","58.7","ND","ND","ND","5.1","0.6","ND","ND","ND","ND","0","0"],
    [72587,"2018-08-17T06:00:00","59","ND","ND","ND","4.6","0.5","ND","ND","ND","ND","0","0"],
    [72588,"2018-08-17T07:00:00","62.9","ND","ND","ND","5.0","0.4","ND","ND","ND","ND","96","0"],
    [72589,"2018-08-17T08:00:00","127.6","ND","ND","ND","6.0","0.8","ND","ND","ND","ND","286","0"],
    [72590,"2018-08-17T09:00:00","130","ND","ND","ND","9.3","1.0","ND","ND","ND","ND","591","0"],
    [72591,"2018-08-17T10:00:00","88.8","ND","ND","ND","28.5","0.4","ND","ND","ND","ND","665","0"],
    [72592,"2018-08-17T11:00:00","41.2","ND","ND","ND","37.9","0.3","ND","ND","ND","ND","665","0"],
    [72593,"2018-08-17T12:00:00","17.7","ND","ND","ND","59.5","0.5","ND","ND","ND","ND","665","0"],
    [72594,"2018-08-17T13:00:00","36.5","ND","ND","ND","89.9","0.5","ND","ND","ND","ND","666","0"],
    [72595,"2018-08-17T14:00:00","47.6","ND","ND","ND","106.3","0.4","ND","ND","ND","ND","666","0"],
    [72596,"2018-08-17T15:00:00","47.4","ND","ND","ND","110.5","0.3","ND","ND","ND","ND","666","0"],
    [72597,"2018-08-17T16:00:00","45.9","ND","ND","ND","110.7","0.2","ND","ND","ND","ND","661","0"],
    [72598,"2018-08-17T17:00:00","53.4","ND","ND","ND","101.9","0.4","ND","ND","ND","ND","596","0"],
    [72599,"2018-08-17T18:00:00","33.1","ND","ND","ND","41.0","0.1","ND","ND","ND","ND","253","0"],
    [72600,"2018-08-17T19:00:00","18.1","ND","ND","ND","19.4","0.2","ND","ND","ND","ND","5","0"],
    [72601,"2018-08-17T20:00:00","22.5","ND","ND","ND","23.4","0.2","ND","ND","ND","ND","0","0"],
    [72602,"2018-08-17T21:00:00","27.5","ND","ND","ND","21.4","0.3","ND","ND","ND","ND","0","0"],
    [72603,"2018-08-17T22:00:00","33.7","ND","ND","ND","18.1","0.8","ND","ND","ND","ND","0","0.25"],
    [72604,"2018-08-17T23:00:00","48.6","ND","ND","ND","5.1","1.2","ND","ND","ND","ND","0","0"],
    [72605,"2018-08-18T00:00:00","48.7","ND","ND","ND","4.7","0.4","ND","ND","ND","ND","0","0"],
    [72606,"2018-08-18T01:00:00","49.2","ND","ND","ND","4.5","1.1","ND","ND","ND","ND","0","0"],
    [72607,"2018-08-18T02:00:00","40.8","ND","ND","ND","4.9","1.0","ND","ND","ND","ND","0","0"],
    [72608,"2018-08-18T03:00:00","40.8","ND","ND","ND","6.0","1.6","ND","ND","ND","ND","0","0"],
    [72609,"2018-08-18T04:00:00","43","ND","ND","ND","7.3","0.4","ND","ND","ND","ND","0","0"],
    [72610,"2018-08-18T05:00:00","44.9","ND","ND","ND","7.2","0.7","ND","ND","ND","ND","0","0"],
    [72611,"2018-08-18T06:00:00","41.2","ND","ND","ND","6.6","0.5","ND","ND","ND","ND","0","0"],
    [72612,"2018-08-18T07:00:00","66.3","ND","ND","ND","4.7","0.5","ND","ND","ND","ND","106","0"],
    [72613,"2018-08-18T08:00:00","87.1","ND","ND","ND","9.6","0.8","ND","ND","ND","ND","333","0"],
    [72614,"2018-08-18T09:00:00","50.7","ND","ND","ND","13.6","0.7","ND","ND","ND","ND","549","0"],
    [72615,"2018-08-18T10:00:00","71.5","ND","ND","ND","22.6","0.5","ND","ND","ND","ND","662","0"],
    [72616,"2018-08-18T11:00:00","55.7","ND","ND","ND","31.5","0.6","ND","ND","ND","ND","665","0"],
    [72617,"2018-08-18T12:00:00","41.5","ND","ND","ND","48.4","0.3","ND","ND","ND","ND","665","0"],
    [72618,"2018-08-18T13:00:00","30.3","ND","ND","ND","62.9","0.5","ND","ND","ND","ND","665","0"],
    [72619,"2018-08-18T14:00:00","32.2","ND","ND","ND","75.2","0.4","ND","ND","ND","ND","666","0"],
    [72620,"2018-08-18T15:00:00","15.3","ND","ND","ND","50.8","0.5","ND","ND","ND","ND","612","0"],
    [72621,"2018-08-18T16:00:00","24.2","ND","ND","ND","40.9","0.2","ND","ND","ND","ND","484","0"],
    [72622,"2018-08-18T17:00:00","18.8","ND","ND","ND","38.6","0.1","ND","ND","ND","ND","342","0"],
    [72623,"2018-08-18T18:00:00","20.3","ND","ND","ND","38.0","0.1","ND","ND","ND","ND","115","0"],
    [72624,"2018-08-18T19:00:00","17.1","ND","ND","ND","29.6","0.1","ND","ND","ND","ND","5","0"],
    [72625,"2018-08-18T20:00:00","23.7","ND","ND","ND","9.5","0.1","ND","ND","ND","ND","0","0"],
    [72626,"2018-08-18T21:00:00","36.4","ND","ND","ND","5.9","0.6","ND","ND","ND","ND","0","0"],
    [72627,"2018-08-18T22:00:00","23.7","ND","ND","ND","5.1","0.7","ND","ND","ND","ND","0","0"],
    [72628,"2018-08-18T23:00:00","29.2","ND","ND","ND","10.4","0.6","ND","ND","ND","ND","0","0"],
    [72629,"2018-08-19T00:00:00","24.8","ND","ND","ND","8.4","2.4","ND","ND","ND","ND","0","0"],
    [72630,"2018-08-19T01:00:00","6.8","ND","ND","ND","8.7","3.0","ND","ND","ND","ND","0","0"],
    [72631,"2018-08-19T02:00:00","8.4","ND","ND","ND","7.2","0.7","ND","ND","ND","ND","0","16"],
    [72632,"2018-08-19T03:00:00","18.7","ND","ND","ND","4.4","0.4","ND","ND","ND","ND","0","0.76"],
    [72633,"2018-08-19T04:00:00","31.3","ND","ND","ND","4.1","0.3","ND","ND","ND","ND","0","0.25"],
    [72634,"2018-08-19T05:00:00","28.5","ND","ND","ND","4.1","0.3","ND","ND","ND","ND","0","0"],
    [72635,"2018-08-19T06:00:00","28.5","ND","ND","ND","4.2","0.3","ND","ND","ND","ND","0","0"],
    [72636,"2018-08-19T07:00:00","21.5","ND","ND","ND","4.1","0.6","ND","ND","ND","ND","51","0"],
    [72637,"2018-08-19T08:00:00","35.5","ND","ND","ND","4.4","1.4","ND","ND","ND","ND","269","0"],
    [72638,"2018-08-19T09:00:00","60.5","ND","ND","ND","4.4","0.8","ND","ND","ND","ND","580","0"],
    [72639,"2018-08-19T10:00:00","64.4","ND","ND","ND","6.6","0.5","ND","ND","ND","ND","665","0"],
    [72640,"2018-08-19T11:00:00","48.5","ND","ND","ND","15.1","0.3","ND","ND","ND","ND","665","0"],
    [72641,"2018-08-19T12:00:00","34.1","ND","ND","ND","35.0","0.2","ND","ND","ND","ND","665","0"],
    [72642,"2018-08-19T13:00:00","19.5","ND","ND","ND","33.1","0.5","ND","ND","ND","ND","665","0"],
    [72643,"2018-08-19T14:00:00","17.7","ND","ND","ND","51.0","0.4","ND","ND","ND","ND","665","0"],
    [72644,"2018-08-19T15:00:00","24.8","ND","ND","ND","71.4","0.3","ND","ND","ND","ND","666","0"],
    [72645,"2018-08-19T16:00:00","26.8","ND","ND","ND","74.4","0.4","ND","ND","ND","ND","655","0"],
    [72646,"2018-08-19T17:00:00","19.5","ND","ND","ND","47.6","0.5","ND","ND","ND","ND","553","0"],
    [72647,"2018-08-19T18:00:00","13.8","ND","ND","ND","37.0","0.3","ND","ND","ND","ND","247","0"],
    [72648,"2018-08-19T19:00:00","8.9","ND","ND","ND","31.4","0.2","ND","ND","ND","ND","5","0"],
    [72649,"2018-08-19T20:00:00","3.5","ND","ND","ND","20.1","0.2","ND","ND","ND","ND","0","0"],
    [72650,"2018-08-19T21:00:00","10.7","ND","ND","ND","8.5","0.1","ND","ND","ND","ND","0","0"],
    [72651,"2018-08-19T22:00:00","20.9","ND","ND","ND","4.6","4.1","ND","ND","ND","ND","0","0"],
    [72652,"2018-08-19T23:00:00","34.9","ND","ND","ND","4.6","2.9","ND","ND","ND","ND","0","0"],
    [72653,"2018-08-20T00:00:00","35","ND","ND","ND","4.2","1.4","ND","ND","ND","ND","0","0"],
    [72654,"2018-08-20T01:00:00","35.6","ND","ND","ND","4.4","2.0","ND","ND","ND","ND","0","0"],
    [72655,"2018-08-20T02:00:00","22","ND","ND","ND","4.4","1.1","ND","ND","ND","ND","0","0"],
    [72656,"2018-08-20T03:00:00","27.6","ND","ND","ND","4.3","1.3","ND","ND","ND","ND","0","0"],
    [72657,"2018-08-20T04:00:00","35.9","ND","ND","ND","4.4","0.9","ND","ND","ND","ND","0","0"],
    [72658,"2018-08-20T05:00:00","42.4","ND","ND","ND","4.2","0.5","ND","ND","ND","ND","0","0"],
    [72659,"2018-08-20T06:00:00","32.5","ND","ND","ND","4.4","0.9","ND","ND","ND","ND","0","0"],
    [72660,"2018-08-20T07:00:00","40.4","ND","ND","ND","4.7","5.3","ND","ND","ND","ND","135","0"],
    [72661,"2018-08-20T08:00:00","73.6","ND","ND","ND","6.3","2.5","ND","ND","ND","ND","518","0"],
    [72662,"2018-08-20T09:00:00","93.5","ND","ND","ND","12.7","1.7","ND","ND","ND","ND","664","0"],
    [72663,"2018-08-20T10:00:00","54.8","ND","ND","ND","20.5","1.4","ND","ND","ND","ND","665","0"],
    [72664,"2018-08-20T11:00:00","35.9","ND","ND","ND","56.8","1.5","ND","ND","ND","ND","665","0"],
    [72665,"2018-08-20T12:00:00","26.6","ND","ND","ND","103.4","1.2","ND","ND","ND","ND","666","0"],
    [72666,"2018-08-20T13:00:00","29.3","ND","ND","ND","118.4","1.3","ND","ND","ND","ND","666","0"],
    [72667,"2018-08-20T14:00:00","26.4","ND","ND","ND","125.9","1.0","ND","ND","ND","ND","660","0"],
    [72668,"2018-08-20T15:00:00","29.7","ND","ND","ND","72.9","0.7","ND","ND","ND","ND","599","0"],
    [72669,"2018-08-20T16:00:00","20.7","ND","ND","ND","61.7","0.5","ND","ND","ND","ND","665","0"],
    [72670,"2018-08-20T17:00:00","17.9","ND","ND","ND","56.0","0.4","ND","ND","ND","ND","653","0"],
    [72671,"2018-08-20T18:00:00","18.6","ND","ND","ND","47.6","0.3","ND","ND","ND","ND","229","0"],
    [72672,"2018-08-20T19:00:00","13.9","ND","ND","ND","40.8","0.1","ND","ND","ND","ND","6","0"],
    [72673,"2018-08-20T20:00:00","8.3","ND","ND","ND","17.7","0.3","ND","ND","ND","ND","0","0"],
    [72674,"2018-08-20T21:00:00","19","ND","ND","ND","5.8","1.2","ND","ND","ND","ND","0","0"],
    [72675,"2018-08-20T22:00:00","41.5","ND","ND","ND","5.6","1.5","ND","ND","ND","ND","0","0"],
    [72676,"2018-08-20T23:00:00","37.3","ND","ND","ND","4.9","2.4","ND","ND","ND","ND","0","0"],
    [72677,"2018-08-21T00:00:00","22.4","ND","ND","ND","6.5","3.3","ND","ND","ND","ND","0","0"],
    [72678,"2018-08-21T01:00:00","32.1","ND","ND","ND","7.2","1.5","ND","ND","ND","ND","0","0"],
    [72679,"2018-08-21T02:00:00","21.7","ND","ND","ND","9.5","1.4","ND","ND","ND","ND","0","0"],
    [72680,"2018-08-21T03:00:00","40.4","ND","ND","ND","7.4","1.3","ND","ND","ND","ND","0","0"],
    [72681,"2018-08-21T04:00:00","68.1","ND","ND","ND","6.1","1.0","ND","ND","ND","ND","0","0"],
    [72682,"2018-08-21T05:00:00","45.8","ND","ND","ND","5.6","0.5","ND","ND","ND","ND","0","0"],
    [72683,"2018-08-21T06:00:00","34.3","ND","ND","ND","4.8","0.8","ND","ND","ND","ND","0","0"],
    [72684,"2018-08-21T07:00:00","41.8","ND","ND","ND","4.7","1.4","ND","ND","ND","ND","144","0"],
    [72685,"2018-08-21T08:00:00","82.5","ND","ND","ND","7.2","2.3","ND","ND","ND","ND","577","0"],
    [72686,"2018-08-21T09:00:00","93.9","ND","ND","ND","14.8","2.0","ND","ND","ND","ND","664","0"],
    [72687,"2018-08-21T10:00:00","54.8","ND","ND","ND","27.4","0.7","ND","ND","ND","ND","665","0"],
    [72688,"2018-08-21T11:00:00","28.7","ND","ND","ND","43.4","0.8","ND","ND","ND","ND","665","0"],
    [72689,"2018-08-21T12:00:00","30.9","ND","ND","ND","46.2","0.8","ND","ND","ND","ND","660","0"],
    [72690,"2018-08-21T13:00:00","25.4","ND","ND","ND","52.6","0.5","ND","ND","ND","ND","647","0"],
    [72691,"2018-08-21T14:00:00","11.5","ND","ND","ND","63.3","0.3","ND","ND","ND","ND","666","0"],
    [72692,"2018-08-21T15:00:00","14.3","ND","ND","ND","60.3","0.4","ND","ND","ND","ND","653","0"],
    [72693,"2018-08-21T16:00:00","26.1","ND","ND","ND","51.9","0.3","ND","ND","ND","ND","513","0"],
    [72694,"2018-08-21T17:00:00","24.8","ND","ND","ND","47.2","0.2","ND","ND","ND","ND","284","0"],
    [72695,"2018-08-21T18:00:00","14.4","ND","ND","ND","33.1","0.2","ND","ND","ND","ND","124","0"],
    [72696,"2018-08-21T19:00:00","8.3","ND","ND","ND","29.1","0.3","ND","ND","ND","ND","0","0"],
    [72697,"2018-08-21T20:00:00","22.5","ND","ND","ND","14.5","0.3","ND","ND","ND","ND","0","0"],
    [72698,"2018-08-21T21:00:00","34.3","ND","ND","ND","16.1","1.1","ND","ND","ND","ND","0","0"],
    [72699,"2018-08-21T22:00:00","38.3","ND","ND","ND","5.4","3.7","ND","ND","ND","ND","0","0"],
    [72700,"2018-08-21T23:00:00","35.7","ND","ND","ND","5.6","5.7","ND","ND","ND","ND","0","0.25"],
    [72701,"2018-08-22T00:00:00","20.2","ND","ND","ND","7.1","2.0","ND","ND","ND","ND","0","0"],
    [72702,"2018-08-22T01:00:00","16.1","ND","ND","ND","7.1","2.9","ND","ND","ND","ND","0","0"],
    [72703,"2018-08-22T02:00:00","30.9","ND","ND","ND","9.4","1.0","ND","ND","ND","ND","0","0"],
    [72704,"2018-08-22T03:00:00","19.3","ND","ND","ND","6.0","2.0","ND","ND","ND","ND","0","0"],
    [72705,"2018-08-22T04:00:00","25.2","ND","ND","ND","4.7","1.6","ND","ND","ND","ND","0","0"],
    [72706,"2018-08-22T05:00:00","24.9","ND","ND","ND","5.8","0.9","ND","ND","ND","ND","0","0"],
    [72707,"2018-08-22T06:00:00","36","ND","ND","ND","5.0","0.8","ND","ND","ND","ND","0","0"],
    [72708,"2018-08-22T07:00:00","58.5","ND","ND","ND","5.0","1.0","ND","ND","ND","ND","91","0"],
    [72709,"2018-08-22T08:00:00","89.4","ND","ND","ND","6.3","2.1","ND","ND","ND","ND","460","0"],
    [72710,"2018-08-22T09:00:00","87.8","ND","ND","ND","18.4","2.4","ND","ND","ND","ND","664","0"],
    [72711,"2018-08-22T10:00:00","66.3","ND","ND","ND","46.1","1.3","ND","ND","ND","ND","665","0"],
    [72712,"2018-08-22T11:00:00","40.5","ND","ND","ND","67.7","1.1","ND","ND","ND","ND","665","0"],
    [72713,"2018-08-22T12:00:00","35.7","ND","ND","ND","88.2","0.8","ND","ND","ND","ND","665","0"],
    [72714,"2018-08-22T13:00:00","30.2","ND","ND","ND","113.5","0.5","ND","ND","ND","ND","666","0"],
    [72715,"2018-08-22T14:00:00","33.7","ND","ND","ND","108.2","0.7","ND","ND","ND","ND","665","0"],
    [72716,"2018-08-22T15:00:00","36.5","ND","ND","ND","75.8","0.3","ND","ND","ND","ND","565","0"],
    [72717,"2018-08-22T16:00:00","39.6","ND","ND","ND","54.8","0.2","ND","ND","ND","ND","499","0"],
    [72718,"2018-08-22T17:00:00","32.1","ND","ND","ND","48.3","0.3","ND","ND","ND","ND","313","0"],
    [72719,"2018-08-22T18:00:00","16","ND","ND","ND","40.6","0.3","ND","ND","ND","ND","65","0"],
    [72720,"2018-08-22T19:00:00","11.2","ND","ND","ND","24.9","0.4","ND","ND","ND","ND","0","0"],
    [72721,"2018-08-22T20:00:00","28.4","ND","ND","ND","5.8","0.1","ND","ND","ND","ND","0","0"],
    [72722,"2018-08-22T21:00:00","43.1","ND","ND","ND","6.5","0.5","ND","ND","ND","ND","0","0"],
    [72723,"2018-08-22T22:00:00","35","ND","ND","ND","6.3","0.4","ND","ND","ND","ND","0","0.76"],
    [72724,"2018-08-22T23:00:00","30.1","ND","ND","ND","5.4","0.3","ND","ND","ND","ND","0","0"],
    [72725,"2018-08-23T00:00:00","27.4","ND","ND","ND","4.6","0.4","ND","ND","ND","ND","0","0"],
    [72726,"2018-08-23T01:00:00","20.8","ND","ND","ND","6.0","0.7","ND","ND","ND","ND","0","0"],
    [72727,"2018-08-23T02:00:00","15.5","ND","ND","ND","4.5","0.6","ND","ND","ND","ND","0","0"],
    [72728,"2018-08-23T03:00:00","16.7","ND","ND","ND","5.0","2.0","ND","ND","ND","ND","0","0"],
    [72729,"2018-08-23T04:00:00","35.6","ND","ND","ND","4.6","1.4","ND","ND","ND","ND","0","0"],
    [72730,"2018-08-23T05:00:00","56","ND","ND","ND","4.7","0.9","ND","ND","ND","ND","0","0"],
    [72731,"2018-08-23T06:00:00","63.6","ND","ND","ND","4.5","1.0","ND","ND","ND","ND","0","0"],
    [72732,"2018-08-23T07:00:00","58.3","ND","ND","ND","4.8","1.6","ND","ND","ND","ND","144","0"],
    [72733,"2018-08-23T08:00:00","83.3","ND","ND","ND","6.4","1.3","ND","ND","ND","ND","562","0"],
    [72734,"2018-08-23T09:00:00","89.4","ND","ND","ND","12.8","0.6","ND","ND","ND","ND","664","0"],
    [72735,"2018-08-23T10:00:00","68.7","ND","ND","ND","29.2","0.7","ND","ND","ND","ND","649","0"],
    [72736,"2018-08-23T11:00:00","44","ND","ND","ND","55.0","0.7","ND","ND","ND","ND","665","0"],
    [72737,"2018-08-23T12:00:00","39","ND","ND","ND","87.0","0.5","ND","ND","ND","ND","665","0"],
    [72738,"2018-08-23T13:00:00","37.3","ND","ND","ND","110.6","0.5","ND","ND","ND","ND","665","0"],
    [72739,"2018-08-23T14:00:00","31.5","ND","ND","ND","55.4","0.2","ND","ND","ND","ND","666","0"],
    [72740,"2018-08-23T15:00:00","17.1","ND","ND","ND","46.2","0.3","ND","ND","ND","ND","662","0"],
    [72741,"2018-08-23T16:00:00","26.7","ND","ND","ND","45.7","0.2","ND","ND","ND","ND","665","0"],
    [72742,"2018-08-23T17:00:00","33.1","ND","ND","ND","40.1","0.3","ND","ND","ND","ND","587","0"],
    [72743,"2018-08-23T18:00:00","25.2","ND","ND","ND","36.0","0.2","ND","ND","ND","ND","160","0"],
    [72744,"2018-08-23T19:00:00","9","ND","ND","ND","34.1","0.1","ND","ND","ND","ND","6","0"],
    [72745,"2018-08-23T20:00:00","7.8","ND","ND","ND","14.3","0.2","ND","ND","ND","ND","0","0"],
    [72746,"2018-08-23T21:00:00","35","ND","ND","ND","7.8","1.0","ND","ND","ND","ND","0","0"],
    [72747,"2018-08-23T22:00:00","53.2","ND","ND","ND","6.0","0.8","ND","ND","ND","ND","0","0"],
    [72748,"2018-08-23T23:00:00","37.9","ND","ND","ND","5.2","0.4","ND","ND","ND","ND","0","0"],
    [72749,"2018-08-24T00:00:00","15.1","ND","ND","ND","5.4","0.5","ND","ND","ND","ND","0","0"],
    [72750,"2018-08-24T01:00:00","18.5","ND","ND","ND","4.6","0.6","ND","ND","ND","ND","0","0"],
    [72751,"2018-08-24T02:00:00","36","ND","ND","ND","4.5","1.5","ND","ND","ND","ND","0","0"],
    [72752,"2018-08-24T03:00:00","39.3","ND","ND","ND","5.3","0.9","ND","ND","ND","ND","0","0"],
    [72753,"2018-08-24T04:00:00","39.6","ND","ND","ND","5.5","0.8","ND","ND","ND","ND","0","0"],
    [72754,"2018-08-24T05:00:00","45.8","ND","ND","ND","6.4","0.7","ND","ND","ND","ND","0","0"],
    [72755,"2018-08-24T06:00:00","40.3","ND","ND","ND","4.8","1.1","ND","ND","ND","ND","0","0"],
    [72756,"2018-08-24T07:00:00","60.5","ND","ND","ND","4.7","1.0","ND","ND","ND","ND","113","0"],
    [72757,"2018-08-24T08:00:00","64","ND","ND","ND","5.7","1.2","ND","ND","ND","ND","344","0"],
    [72758,"2018-08-24T09:00:00","69.3","ND","ND","ND","15.9","1.3","ND","ND","ND","ND","620","0"],
    [72759,"2018-08-24T10:00:00","58.9","ND","ND","ND","25.5","0.8","ND","ND","ND","ND","654","0"],
    [72760,"2018-08-24T11:00:00","27.5","ND","ND","ND","35.9","0.8","ND","ND","ND","ND","665","0"],
    [72761,"2018-08-24T12:00:00","28.8","ND","ND","ND","59.9","0.5","ND","ND","ND","ND","656","0"],
    [72762,"2018-08-24T13:00:00","24.8","ND","ND","ND","66.6","0.3","ND","ND","ND","ND","666","0"],
    [72763,"2018-08-24T14:00:00","28.3","ND","ND","ND","71.4","0.2","ND","ND","ND","ND","666","0"],
    [72764,"2018-08-24T15:00:00","25.5","ND","ND","ND","76.7","0.3","ND","ND","ND","ND","657","0"],
    [72765,"2018-08-24T16:00:00","43.9","ND","ND","ND","54.3","0.2","ND","ND","ND","ND","641","0"],
    [72766,"2018-08-24T17:00:00","37.1","ND","ND","ND","52.2","0.2","ND","ND","ND","ND","577","0"],
    [72767,"2018-08-24T18:00:00","25.6","ND","ND","ND","45.5","0.2","ND","ND","ND","ND","186","0"],
    [72768,"2018-08-24T19:00:00","5.6","ND","ND","ND","35.5","0.2","ND","ND","ND","ND","4","0"],
    [72769,"2018-08-24T20:00:00","13.1","ND","ND","ND","18.4","0.2","ND","ND","ND","ND","0","0"],
    [72770,"2018-08-24T21:00:00","30.7","ND","ND","ND","9.7","1.7","ND","ND","ND","ND","0","0"],
    [72771,"2018-08-24T22:00:00","33.9","ND","ND","ND","8.0","0.8","ND","ND","ND","ND","0","0"],
    [72772,"2018-08-24T23:00:00","28.4","ND","ND","ND","6.2","0.6","ND","ND","ND","ND","0","0"],
    [72773,"2018-08-25T00:00:00","29.7","ND","ND","ND","5.7","0.8","ND","ND","ND","ND","0","0"],
    [72774,"2018-08-25T01:00:00","22.9","ND","ND","ND","4.8","2.0","ND","ND","ND","ND","0","0"],
    [72775,"2018-08-25T02:00:00","17","ND","ND","ND","6.2","0.8","ND","ND","ND","ND","0","0"],
    [72776,"2018-08-25T03:00:00","10.6","ND","ND","ND","8.1","0.5","ND","ND","ND","ND","0","0"],
    [72777,"2018-08-25T04:00:00","17.1","ND","ND","ND","8.1","0.4","ND","ND","ND","ND","0","0"],
    [72778,"2018-08-25T05:00:00","22.6","ND","ND","ND","5.7","0.2","ND","ND","ND","ND","0","0"],
    [72779,"2018-08-25T06:00:00","25.8","ND","ND","ND","4.7","0.8","ND","ND","ND","ND","0","0"],
    [72780,"2018-08-25T07:00:00","56.7","ND","ND","ND","4.6","1.3","ND","ND","ND","ND","111","0"],
    [72781,"2018-08-25T08:00:00","80.5","ND","ND","ND","5.8","1.7","ND","ND","ND","ND","460","0"],
    [72782,"2018-08-25T09:00:00","92.4","ND","ND","ND","10.8","0.6","ND","ND","ND","ND","628","0"],
    [72783,"2018-08-25T10:00:00","62.3","ND","ND","ND","22.4","0.7","ND","ND","ND","ND","665","0"],
    [72784,"2018-08-25T11:00:00","33.6","ND","ND","ND","44.2","0.7","ND","ND","ND","ND","665","0"],
    [72785,"2018-08-25T12:00:00","25.8","ND","ND","ND","64.8","0.5","ND","ND","ND","ND","665","0"],
    [72786,"2018-08-25T13:00:00","29.5","ND","ND","ND","87.9","0.4","ND","ND","ND","ND","666","0"],
    [72787,"2018-08-25T14:00:00","38.9","ND","ND","ND","89.8","0.3","ND","ND","ND","ND","666","0"],
    [72788,"2018-08-25T15:00:00","35.7","ND","ND","ND","59.7","0.3","ND","ND","ND","ND","642","0"],
    [72789,"2018-08-25T16:00:00","18.1","ND","ND","ND","42.1","0.1","ND","ND","ND","ND","491","0"],
    [72790,"2018-08-25T17:00:00","16.5","ND","ND","ND","45.9","0.1","ND","ND","ND","ND","476","0"],
    [72791,"2018-08-25T18:00:00","21.4","ND","ND","ND","37.8","0.3","ND","ND","ND","ND","215","0"],
    [72792,"2018-08-25T19:00:00","14.4","ND","ND","ND","28.4","0.1","ND","ND","ND","ND","5","0"],
    [72793,"2018-08-25T20:00:00","11.5","ND","ND","ND","20.8","0.2","ND","ND","ND","ND","0","0"],
    [72794,"2018-08-25T21:00:00","22.2","ND","ND","ND","10.1","0.4","ND","ND","ND","ND","0","0"],
    [72795,"2018-08-25T22:00:00","38.5","ND","ND","ND","5.6","2.4","ND","ND","ND","ND","0","0"],
    [72796,"2018-08-25T23:00:00","31.7","ND","ND","ND","5.5","1.1","ND","ND","ND","ND","0","0"],
    [72797,"2018-08-26T00:00:00","25.1","ND","ND","ND","5.1","2.2","ND","ND","ND","ND","0","0"],
    [72798,"2018-08-26T01:00:00","27.7","ND","ND","ND","5.5","0.8","ND","ND","ND","ND","0","0"],
    [72799,"2018-08-26T02:00:00","37.2","ND","ND","ND","5.8","0.6","ND","ND","ND","ND","0","0"],
    [72800,"2018-08-26T03:00:00","36.7","ND","ND","ND","5.5","0.8","ND","ND","ND","ND","0","0"],
    [72801,"2018-08-26T04:00:00","43.8","ND","ND","ND","5.0","0.9","ND","ND","ND","ND","0","0"],
    [72802,"2018-08-26T05:00:00","40.6","ND","ND","ND","5.5","1.1","ND","ND","ND","ND","0","0"],
    [72803,"2018-08-26T06:00:00","32.9","ND","ND","ND","4.5","3.7","ND","ND","ND","ND","0","0"],
    [72804,"2018-08-26T07:00:00","32.7","ND","ND","ND","5.6","2.8","ND","ND","ND","ND","106","0"],
    [72805,"2018-08-26T08:00:00","48.3","ND","ND","ND","7.7","1.3","ND","ND","ND","ND","269","0"],
    [72806,"2018-08-26T09:00:00","51.6","ND","ND","ND","16.6","0.7","ND","ND","ND","ND","640","0"],
    [72807,"2018-08-26T10:00:00","40","ND","ND","ND","29.9","0.9","ND","ND","ND","ND","665","0"],
    [72808,"2018-08-26T11:00:00","26.1","ND","ND","ND","47.3","1.3","ND","ND","ND","ND","665","0"],
    [72809,"2018-08-26T12:00:00","25.2","ND","ND","ND","68.4","0.5","ND","ND","ND","ND","665","0"],
    [72810,"2018-08-26T13:00:00","23.8","ND","ND","ND","71.2","0.5","ND","ND","ND","ND","666","0"],
    [72811,"2018-08-26T14:00:00","26.7","ND","ND","ND","80.1","0.5","ND","ND","ND","ND","666","0"],
    [72812,"2018-08-26T15:00:00","21.7","ND","ND","ND","59.0","0.4","ND","ND","ND","ND","659","0"],
    [72813,"2018-08-26T16:00:00","18.5","ND","ND","ND","45.0","0.3","ND","ND","ND","ND","619","0"],
    [72814,"2018-08-26T17:00:00","12.5","ND","ND","ND","50.5","0.3","ND","ND","ND","ND","534","0"],
    [72815,"2018-08-26T18:00:00","15.7","ND","ND","ND","44.7","0.2","ND","ND","ND","ND","161","0"],
    [72816,"2018-08-26T19:00:00","7","ND","ND","ND","37.3","0.2","ND","ND","ND","ND","0","0"],
    [72817,"2018-08-26T20:00:00","7.5","ND","ND","ND","26.1","0.2","ND","ND","ND","ND","0","0"],
    [72818,"2018-08-26T21:00:00","13.9","ND","ND","ND","21.3","0.3","ND","ND","ND","ND","0","0"],
    [72819,"2018-08-26T22:00:00","29.5","ND","ND","ND","14.6","0.3","ND","ND","ND","ND","0","0"],
    [72820,"2018-08-26T23:00:00","32.1","ND","ND","ND","9.8","1.2","ND","ND","ND","ND","0","0"],
    [72821,"2018-08-27T00:00:00","21","ND","ND","ND","13.5","0.7","ND","ND","ND","ND","0","0"],
    [72822,"2018-08-27T01:00:00","18.4","ND","ND","ND","11.2","0.5","ND","ND","ND","ND","0","0"],
    [72823,"2018-08-27T02:00:00","11.8","ND","ND","ND","13.2","1.6","ND","ND","ND","ND","0","0"],
    [72824,"2018-08-27T03:00:00","12.4","ND","ND","ND","8.8","0.4","ND","ND","ND","ND","0","0.25"],
    [72825,"2018-08-27T04:00:00","27","ND","ND","ND","7.0","0.6","ND","ND","ND","ND","0","0"],
    [72826,"2018-08-27T05:00:00","23.4","ND","ND","ND","6.0","0.3","ND","ND","ND","ND","0","0"],
    [72827,"2018-08-27T06:00:00","12.7","ND","ND","ND","4.6","0.1","ND","ND","ND","ND","0","0"],
    [72828,"2018-08-27T07:00:00","26.5","ND","ND","ND","4.6","1.0","ND","ND","ND","ND","49","0"],
    [72829,"2018-08-27T08:00:00","51.4","ND","ND","ND","6.0","1.0","ND","ND","ND","ND","335","0"],
    [72830,"2018-08-27T09:00:00","51.1","ND","ND","ND","14.6","0.7","ND","ND","ND","ND","585","0"],
    [72831,"2018-08-27T10:00:00","50.9","ND","ND","ND","34.9","0.6","ND","ND","ND","ND","665","0"],
    [72832,"2018-08-27T11:00:00","35.5","ND","ND","ND","56.6","0.6","ND","ND","ND","ND","665","0"],
    [72833,"2018-08-27T12:00:00","22.9","ND","ND","ND","79.9","0.5","ND","ND","ND","ND","665","0"],
    [72834,"2018-08-27T13:00:00","26.1","ND","ND","ND","110.1","0.4","ND","ND","ND","ND","666","0"],
    [72835,"2018-08-27T14:00:00","22.5","ND","ND","ND","113.5","0.3","ND","ND","ND","ND","599","0"],
    [72836,"2018-08-27T15:00:00","20.3","ND","ND","ND","94.7","0.2","ND","ND","ND","ND","578","0"],
    [72837,"2018-08-27T16:00:00","14.9","ND","ND","ND","83.9","0.1","ND","ND","ND","ND","471","0"],
    [72838,"2018-08-27T17:00:00","24.3","ND","ND","ND","60.5","0.2","ND","ND","ND","ND","439","0"],
    [72839,"2018-08-27T18:00:00","23","ND","ND","ND","44.6","0.1","ND","ND","ND","ND","209","0"],
    [72840,"2018-08-27T19:00:00","24","ND","ND","ND","38.6","0.3","ND","ND","ND","ND","4","0"],
    [72841,"2018-08-27T20:00:00","27.8","ND","ND","ND","19.3","0.1","ND","ND","ND","ND","0","0"],
    [72842,"2018-08-27T21:00:00","39.2","ND","ND","ND","7.2","0.7","ND","ND","ND","ND","0","0.51"],
    [72843,"2018-08-27T22:00:00","47.8","ND","ND","ND","8.5","1.3","ND","ND","ND","ND","0","0"],
    [72844,"2018-08-27T23:00:00","43.5","ND","ND","ND","8.2","0.5","ND","ND","ND","ND","0","0"],
    [72845,"2018-08-28T00:00:00","15.2","ND","ND","ND","9.2","0.6","ND","ND","ND","ND","0","0"],
    [72846,"2018-08-28T01:00:00","16.5","ND","ND","ND","5.1","1.1","ND","ND","ND","ND","0","0"],
    [72847,"2018-08-28T02:00:00","ND","ND","ND","ND","8.8","0.7","ND","ND","ND","ND","0","0"],
    [72848,"2018-08-28T03:00:00","12.5","ND","ND","ND","8.1","0.7","ND","ND","ND","ND","0","0"],
    [72849,"2018-08-28T04:00:00","17.5","ND","ND","ND","8.5","0.8","ND","ND","ND","ND","0","0"],
    [72850,"2018-08-28T05:00:00","27.1","ND","ND","ND","8.7","0.5","ND","ND","ND","ND","0","0"],
    [72851,"2018-08-28T06:00:00","27.3","ND","ND","ND","5.8","0.5","ND","ND","ND","ND","0","0"],
    [72852,"2018-08-28T07:00:00","28.7","ND","ND","ND","6.2","0.4","ND","ND","ND","ND","139","0"],
    [72853,"2018-08-28T08:00:00","60.1","ND","ND","ND","7.1","0.9","ND","ND","ND","ND","550","0"],
    [72854,"2018-08-28T09:00:00","97.6","ND","ND","ND","15.9","0.9","ND","ND","ND","ND","665","0"],
    [72855,"2018-08-28T10:00:00","60.4","ND","ND","ND","31.0","0.5","ND","ND","ND","ND","665","0"],
    [72856,"2018-08-28T11:00:00","40.2","ND","ND","ND","61.3","0.6","ND","ND","ND","ND","665","0"],
    [72857,"2018-08-28T12:00:00","31.6","ND","ND","ND","77.4","0.5","ND","ND","ND","ND","665","0"],
    [72858,"2018-08-28T13:00:00","27.9","ND","ND","ND","73.4","0.4","ND","ND","ND","ND","666","0"],
    [72859,"2018-08-28T14:00:00","19.9","ND","ND","ND","76.2","0.4","ND","ND","ND","ND","662","0"],
    [72860,"2018-08-28T15:00:00","25.9","ND","ND","ND","65.4","0.3","ND","ND","ND","ND","391","0"],
    [72861,"2018-08-28T16:00:00","36.9","ND","ND","ND","58.7","0.3","ND","ND","ND","ND","259","0"],
    [72862,"2018-08-28T17:00:00","45.9","ND","ND","ND","46.9","0.3","ND","ND","ND","ND","116","14.73"],
    [72863,"2018-08-28T18:00:00","42.7","ND","ND","ND","9.0","0.2","ND","ND","ND","ND","45","0.25"],
    [72864,"2018-08-28T19:00:00","66.8","ND","ND","ND","4.3","0.3","ND","ND","ND","ND","0","0"],
    [72865,"2018-08-28T20:00:00","63.3","ND","ND","ND","4.5","0.2","ND","ND","ND","ND","0","0"],
    [72866,"2018-08-28T21:00:00","53.1","ND","ND","ND","4.3","0.6","ND","ND","ND","ND","0","0"],
    [72867,"2018-08-28T22:00:00","15.5","ND","ND","ND","3.8","0.4","ND","ND","ND","ND","0","0"],
    [72868,"2018-08-28T23:00:00","19.3","ND","ND","ND","4.3","0.3","ND","ND","ND","ND","0","0"],
    [72869,"2018-08-29T00:00:00","22.9","ND","ND","ND","4.8","0.4","ND","ND","ND","ND","0","0"],
    [72870,"2018-08-29T01:00:00","20.3","ND","ND","ND","5.4","0.5","ND","ND","ND","ND","0","0"],
    [72871,"2018-08-29T02:00:00","21.1","ND","ND","ND","4.9","0.2","ND","ND","ND","ND","0","3.56"],
    [72872,"2018-08-29T03:00:00","29.8","ND","ND","ND","4.4","0.2","ND","ND","ND","ND","0","0.25"],
    [72873,"2018-08-29T04:00:00","30.8","ND","ND","ND","4.1","0.2","ND","ND","ND","ND","0","0.51"],
    [72874,"2018-08-29T05:00:00","21.1","ND","ND","ND","4.1","0.2","ND","ND","ND","ND","0","0"],
    [72875,"2018-08-29T06:00:00","30.2","ND","ND","ND","4.3","0.7","ND","ND","ND","ND","0","0"],
    [72876,"2018-08-29T07:00:00","34.9","ND","ND","ND","4.3","0.5","ND","ND","ND","ND","111","0"],
    [72877,"2018-08-29T08:00:00","50.1","ND","ND","ND","4.3","0.4","ND","ND","ND","ND","438","0"],
    [72878,"2018-08-29T09:00:00","71.3","ND","ND","ND","4.9","0.5","ND","ND","ND","ND","662","0.25"],
    [72879,"2018-08-29T10:00:00","60.2","ND","ND","ND","19.2","0.4","ND","ND","ND","ND","665","0"],
    [72880,"2018-08-29T11:00:00","70.3","ND","ND","ND","45.9","0.6","ND","ND","ND","ND","665","0"],
    [72881,"2018-08-29T12:00:00","42.1","ND","ND","ND","69.5","0.6","ND","ND","ND","ND","665","0"],
    [72882,"2018-08-29T13:00:00","23.9","ND","ND","ND","83.0","0.3","ND","ND","ND","ND","665","0"],
    [72883,"2018-08-29T14:00:00","25.4","ND","ND","ND","77.4","0.3","ND","ND","ND","ND","665","0"],
    [72884,"2018-08-29T15:00:00","29.8","ND","ND","ND","67.9","0.1","ND","ND","ND","ND","583","0"],
    [72885,"2018-08-29T16:00:00","12.9","ND","ND","ND","46.2","0.1","ND","ND","ND","ND","547","0"],
    [72886,"2018-08-29T17:00:00","16.3","ND","ND","ND","41.2","0.1","ND","ND","ND","ND","522","0"],
    [72887,"2018-08-29T18:00:00","7.7","ND","ND","ND","28.7","0.2","ND","ND","ND","ND","112","0"],
    [72888,"2018-08-29T19:00:00","1.8","ND","ND","ND","15.0","0.1","ND","ND","ND","ND","0","0"],
    [72889,"2018-08-29T20:00:00","11.4","ND","ND","ND","15.9","0.2","ND","ND","ND","ND","0","0"],
    [72890,"2018-08-29T21:00:00","31.8","ND","ND","ND","5.4","0.2","ND","ND","ND","ND","0","0"],
    [72891,"2018-08-29T22:00:00","38.7","ND","ND","ND","4.6","0.3","ND","ND","ND","ND","0","1.52"],
    [72892,"2018-08-29T23:00:00","39","ND","ND","ND","4.4","0.2","ND","ND","ND","ND","0","0.51"],
    [72893,"2018-08-30T00:00:00","31.5","ND","ND","ND","4.1","0.3","ND","ND","ND","ND","0","0"],
    [72894,"2018-08-30T01:00:00","23.4","ND","ND","ND","4.1","0.5","ND","ND","ND","ND","0","0"],
    [72895,"2018-08-30T02:00:00","21.9","ND","ND","ND","4.1","0.5","ND","ND","ND","ND","0","0"],
    [72896,"2018-08-30T03:00:00","23.5","ND","ND","ND","4.2","0.3","ND","ND","ND","ND","0","0"],
    [72897,"2018-08-30T04:00:00","30","ND","ND","ND","4.3","0.9","ND","ND","ND","ND","0","0"],
    [72898,"2018-08-30T05:00:00","35.8","ND","ND","ND","4.3","0.6","ND","ND","ND","ND","0","0"],
    [72899,"2018-08-30T06:00:00","34.2","ND","ND","ND","4.3","0.6","ND","ND","ND","ND","0","0"],
    [72900,"2018-08-30T07:00:00","27.9","ND","ND","ND","4.3","0.2","ND","ND","ND","ND","108","0"],
    [72901,"2018-08-30T08:00:00","59.8","ND","ND","ND","4.3","0.5","ND","ND","ND","ND","398","0"],
    [72902,"2018-08-30T09:00:00","62.3","ND","ND","ND","6.5","0.3","ND","ND","ND","ND","593","0"],
    [72903,"2018-08-30T10:00:00","89.8","ND","ND","ND","21.8","0.6","ND","ND","ND","ND","665","0"],
    [72904,"2018-08-30T11:00:00","64.5","ND","ND","ND","48.1","0.4","ND","ND","ND","ND","665","0"],
    [72905,"2018-08-30T12:00:00","29","ND","ND","ND","69.7","0.4","ND","ND","ND","ND","665","0"],
    [72906,"2018-08-30T13:00:00","35.2","ND","ND","ND","79.5","0.3","ND","ND","ND","ND","666","0"],
    [72907,"2018-08-30T14:00:00","34.5","ND","ND","ND","74.3","0.5","ND","ND","ND","ND","666","0"],
    [72908,"2018-08-30T15:00:00","22","ND","ND","ND","60.1","0.6","ND","ND","ND","ND","666","0"],
    [72909,"2018-08-30T16:00:00","20.5","ND","ND","ND","42.7","0.3","ND","ND","ND","ND","655","0"],
    [72910,"2018-08-30T17:00:00","11.8","ND","ND","ND","40.5","0.1","ND","ND","ND","ND","628","0"],
    [72911,"2018-08-30T18:00:00","27.9","ND","ND","ND","36.6","0.2","ND","ND","ND","ND","188","0"],
    [72912,"2018-08-30T19:00:00","25.9","ND","ND","ND","26.5","0.2","ND","ND","ND","ND","0","0"],
    [72913,"2018-08-30T20:00:00","17.5","ND","ND","ND","16.3","0.1","ND","ND","ND","ND","0","0"],
    [72914,"2018-08-30T21:00:00","25.2","ND","ND","ND","9.6","0.3","ND","ND","ND","ND","0","0"],
    [72915,"2018-08-30T22:00:00","35.9","ND","ND","ND","6.7","1.1","ND","ND","ND","ND","0","0"],
    [72916,"2018-08-30T23:00:00","28.8","ND","ND","ND","4.5","0.7","ND","ND","ND","ND","0","0"],
    [72917,"2018-08-31T00:00:00","35.1","ND","ND","ND","4.6","0.5","ND","ND","ND","ND","0","0"],
    [72918,"2018-08-31T01:00:00","25","ND","ND","ND","5.2","0.5","ND","ND","ND","ND","0","0"],
    [72919,"2018-08-31T02:00:00","16.2","ND","ND","ND","6.2","0.3","ND","ND","ND","ND","0","0"],
    [72920,"2018-08-31T03:00:00","18.6","ND","ND","ND","4.8","0.3","ND","ND","ND","ND","0","0"],
    [72921,"2018-08-31T04:00:00","34.1","ND","ND","ND","4.6","0.4","ND","ND","ND","ND","0","0"],
    [72922,"2018-08-31T05:00:00","37.9","ND","ND","ND","4.3","0.5","ND","ND","ND","ND","0","0"],
    [72923,"2018-08-31T06:00:00","55.5","ND","ND","ND","4.5","0.7","ND","ND","ND","ND","0","0"],
    [72924,"2018-08-31T07:00:00","59","ND","ND","ND","4.6","0.7","ND","ND","ND","ND","102","0"],
    [72925,"2018-08-31T08:00:00","61.7","ND","ND","ND","5.8","0.4","ND","ND","ND","ND","269","0"],
    [72926,"2018-08-31T09:00:00","54.3","ND","ND","ND","13.0","0.5","ND","ND","ND","ND","640","0"],
    [72927,"2018-08-31T10:00:00","44.7","ND","ND","ND","ND","1.5","ND","ND","ND","ND","665","0"],
    [72928,"2018-08-31T11:00:00","7.2","ND","ND","ND","ND","ND","ND","ND","ND","ND","666","0"],
    [72929,"2018-08-31T12:00:00","31.2","ND","ND","ND","67.6","0.7","ND","ND","ND","ND","666","0"],
    [72930,"2018-08-31T13:00:00","48.7","ND","ND","ND","72.6","0.5","ND","ND","ND","ND","658","0"],
    [72931,"2018-08-31T14:00:00","32.3","ND","ND","ND","35.1","0.3","ND","ND","ND","ND","535","0"],
    [72932,"2018-08-31T15:00:00","17.5","ND","ND","ND","36.3","0.3","ND","ND","ND","ND","666","0"],
    [72933,"2018-08-31T16:00:00","30.4","ND","ND","ND","32.9","0.2","ND","ND","ND","ND","655","0"],
    [72934,"2018-08-31T17:00:00","30.1","ND","ND","ND","35.3","0.1","ND","ND","ND","ND","579","0"],
    [72935,"2018-08-31T18:00:00","17.5","ND","ND","ND","26.0","0.1","ND","ND","ND","ND","229","0"],
    [72936,"2018-08-31T19:00:00","14.2","ND","ND","ND","22.5","0.1","ND","ND","ND","ND","0","0"],
    [72937,"2018-08-31T20:00:00","14.6","ND","ND","ND","9.3","0.1","ND","ND","ND","ND","0","0"],
    [72938,"2018-08-31T21:00:00","29.6","ND","ND","ND","4.7","0.3","ND","ND","ND","ND","0","0"],
    [72939,"2018-08-31T22:00:00","24.3","ND","ND","ND","10.2","0.2","ND","ND","ND","ND","0","0"],
    [72940,"2018-08-31T23:00:00","23","ND","ND","ND","3.9","0.8","ND","ND","ND","ND","0","0"],
    [72941,"2018-09-01T00:00:00","22.8","ND","ND","ND","4.5","0.3","ND","ND","ND","ND","0","0"],
    [72942,"2018-09-01T01:00:00","22.7","ND","ND","ND","3.6","0.8","ND","ND","ND","ND","0","0"],
    [72943,"2018-09-01T02:00:00","41.5","ND","ND","ND","4.0","0.5","ND","ND","ND","ND","0","0"],
    [72944,"2018-09-01T03:00:00","19.7","ND","ND","ND","5.7","0.6","ND","ND","ND","ND","0","0"],
    [72945,"2018-09-01T04:00:00","24.3","ND","ND","ND","4.3","0.5","ND","ND","ND","ND","0","0"],
    [72946,"2018-09-01T05:00:00","26.1","ND","ND","ND","4.0","0.4","ND","ND","ND","ND","0","0"],
    [72947,"2018-09-01T06:00:00","27.5","ND","ND","ND","3.2","0.5","ND","ND","ND","ND","0","0"],
    [72948,"2018-09-01T07:00:00","33.8","ND","ND","ND","3.7","0.4","ND","ND","ND","ND","158","0"],
    [72949,"2018-09-01T08:00:00","32.1","ND","ND","ND","5.7","0.4","ND","ND","ND","ND","375","0"],
    [72950,"2018-09-01T09:00:00","61.1","ND","ND","ND","7.2","0.7","ND","ND","ND","ND","605","0"],
    [72951,"2018-09-01T10:00:00","55","ND","ND","ND","16.1","0.6","ND","ND","ND","ND","665","0"],
    [72952,"2018-09-01T11:00:00","55.9","ND","ND","ND","29.2","0.5","ND","ND","ND","ND","666","0"],
    [72953,"2018-09-01T12:00:00","109.4","ND","ND","ND","46.6","0.3","ND","ND","ND","ND","656","0"],
    [72954,"2018-09-01T13:00:00","49.6","ND","ND","ND","55.4","0.1","ND","ND","ND","ND","652","0"],
    [72955,"2018-09-01T14:00:00","20.4","ND","ND","ND","27.5","0.1","ND","ND","ND","ND","649","0"],
    [72956,"2018-09-01T15:00:00","8.4","ND","ND","ND","27.0","0.1","ND","ND","ND","ND","666","0"],
    [72957,"2018-09-01T16:00:00","14.3","ND","ND","ND","27.1","0.1","ND","ND","ND","ND","665","0"],
    [72958,"2018-09-01T17:00:00","8","ND","ND","ND","28.5","0.1","ND","ND","ND","ND","666","0"],
    [72959,"2018-09-01T18:00:00","7.4","ND","ND","ND","29.5","0.1","ND","ND","ND","ND","333","0"],
    [72960,"2018-09-01T19:00:00","0.9","ND","ND","ND","22.1","0.0","ND","ND","ND","ND","6","0"],
    [72961,"2018-09-01T20:00:00","2.8","ND","ND","ND","6.0","0.2","ND","ND","ND","ND","0","0"],
    [72962,"2018-09-01T21:00:00","27","ND","ND","ND","3.8","0.6","ND","ND","ND","ND","0","0"],
    [72963,"2018-09-01T22:00:00","42","ND","ND","ND","4.8","0.3","ND","ND","ND","ND","0","0"],
    [72964,"2018-09-01T23:00:00","33.6","ND","ND","ND","3.9","0.5","ND","ND","ND","ND","0","0"],
    [72965,"2018-09-02T00:00:00","32","ND","ND","ND","3.5","0.5","ND","ND","ND","ND","0","0"],
    [72966,"2018-09-02T01:00:00","27.2","ND","ND","ND","3.5","0.6","ND","ND","ND","ND","0","0"],
    [72967,"2018-09-02T02:00:00","34.6","ND","ND","ND","3.4","0.6","ND","ND","ND","ND","0","0"],
    [72968,"2018-09-02T03:00:00","31.4","ND","ND","ND","2.9","0.8","ND","ND","ND","ND","0","0"],
    [72969,"2018-09-02T04:00:00","50.1","ND","ND","ND","3.2","0.8","ND","ND","ND","ND","0","0"],
    [72970,"2018-09-02T05:00:00","72.8","ND","ND","ND","3.1","0.7","ND","ND","ND","ND","0","0"],
    [72971,"2018-09-02T06:00:00","49.8","ND","ND","ND","3.0","0.8","ND","ND","ND","ND","0","0"],
    [72972,"2018-09-02T07:00:00","47.8","ND","ND","ND","3.6","0.7","ND","ND","ND","ND","103","0"],
    [72973,"2018-09-02T08:00:00","50.9","ND","ND","ND","5.3","0.9","ND","ND","ND","ND","489","0"],
    [72974,"2018-09-02T09:00:00","70.9","ND","ND","ND","13.8","1.1","ND","ND","ND","ND","665","0"],
    [72975,"2018-09-02T10:00:00","41.6","ND","ND","ND","35.5","0.6","ND","ND","ND","ND","665","0"],
    [72976,"2018-09-02T11:00:00","35.8","ND","ND","ND","58.8","0.5","ND","ND","ND","ND","658","0"],
    [72977,"2018-09-02T12:00:00","35.4","ND","ND","ND","77.2","0.5","ND","ND","ND","ND","666","0"],
    [72978,"2018-09-02T13:00:00","32.1","ND","ND","ND","89.8","0.5","ND","ND","ND","ND","647","0"],
    [72979,"2018-09-02T14:00:00","28.8","ND","ND","ND","70.8","0.2","ND","ND","ND","ND","641","0"],
    [72980,"2018-09-02T15:00:00","14.4","ND","ND","ND","30.9","0.2","ND","ND","ND","ND","662","0"],
    [72981,"2018-09-02T16:00:00","11.7","ND","ND","ND","31.6","0.1","ND","ND","ND","ND","649","0"],
    [72982,"2018-09-02T17:00:00","10.9","ND","ND","ND","31.2","0.2","ND","ND","ND","ND","635","0"],
    [72983,"2018-09-02T18:00:00","7.6","ND","ND","ND","28.9","0.2","ND","ND","ND","ND","202","0"],
    [72984,"2018-09-02T19:00:00","0.3","ND","ND","ND","23.0","0.1","ND","ND","ND","ND","0","0"],
    [72985,"2018-09-02T20:00:00","12.8","ND","ND","ND","11.1","0.2","ND","ND","ND","ND","0","0"],
    [72986,"2018-09-02T21:00:00","31.3","ND","ND","ND","12.3","0.2","ND","ND","ND","ND","0","0"],
    [72987,"2018-09-02T22:00:00","30.4","ND","ND","ND","13.8","0.2","ND","ND","ND","ND","0","23.88"],
    [72988,"2018-09-02T23:00:00","13.2","ND","ND","ND","5.7","0.4","ND","ND","ND","ND","0","4.32"],
    [72989,"2018-09-03T00:00:00","ND","ND","ND","ND","5.0","0.2","ND","ND","ND","ND","0","0"],
    [72990,"2018-09-03T01:00:00","3.9","ND","ND","ND","4.5","0.2","ND","ND","ND","ND","0","0"],
    [72991,"2018-09-03T02:00:00","26.9","ND","ND","ND","2.7","0.2","ND","ND","ND","ND","0","0"],
    [72992,"2018-09-03T03:00:00","32.4","ND","ND","ND","2.5","0.3","ND","ND","ND","ND","0","0"],
    [72993,"2018-09-03T04:00:00","41.2","ND","ND","ND","2.6","0.5","ND","ND","ND","ND","0","0"],
    [72994,"2018-09-03T05:00:00","33.3","ND","ND","ND","2.4","0.3","ND","ND","ND","ND","0","0"],
    [72995,"2018-09-03T06:00:00","41.3","ND","ND","ND","1.8","0.4","ND","ND","ND","ND","0","0"],
    [72996,"2018-09-03T07:00:00","40.1","ND","ND","ND","1.3","0.3","ND","ND","ND","ND","218","0"],
    [72997,"2018-09-03T08:00:00","58.7","ND","ND","ND","2.6","0.1","ND","ND","ND","ND","579","0"],
    [72998,"2018-09-03T09:00:00","52.3","ND","ND","ND","14.8","0.5","ND","ND","ND","ND","660","0"],
    [72999,"2018-09-03T10:00:00","35.9","ND","ND","ND","29.1","0.4","ND","ND","ND","ND","665","0"],
    [73000,"2018-09-03T11:00:00","22.3","ND","ND","ND","37.7","0.3","ND","ND","ND","ND","666","0"],
    [73001,"2018-09-03T12:00:00","23.4","ND","ND","ND","50.8","0.4","ND","ND","ND","ND","666","0"],
    [73002,"2018-09-03T13:00:00","24.3","ND","ND","ND","65.5","0.2","ND","ND","ND","ND","666","0"],
    [73003,"2018-09-03T14:00:00","25.1","ND","ND","ND","66.0","0.3","ND","ND","ND","ND","652","0"],
    [73004,"2018-09-03T15:00:00","25.6","ND","ND","ND","53.6","0.3","ND","ND","ND","ND","664","0"],
    [73005,"2018-09-03T16:00:00","20","ND","ND","ND","34.6","0.2","ND","ND","ND","ND","613","0"],
    [73006,"2018-09-03T17:00:00","11.4","ND","ND","ND","24.7","0.2","ND","ND","ND","ND","341","0"],
    [73007,"2018-09-03T18:00:00","8","ND","ND","ND","15.5","0.0","ND","ND","ND","ND","120","0"],
    [73008,"2018-09-03T19:00:00","4.6","ND","ND","ND","7.6","0.1","ND","ND","ND","ND","2","0"],
    [73009,"2018-09-03T20:00:00","7.7","ND","ND","ND","11.0","0.0","ND","ND","ND","ND","0","0"],
    [73010,"2018-09-03T21:00:00","24.6","ND","ND","ND","2.4","0.2","ND","ND","ND","ND","0","0"],
    [73011,"2018-09-03T22:00:00","40.3","ND","ND","ND","2.4","0.1","ND","ND","ND","ND","0","0"],
    [73012,"2018-09-03T23:00:00","41.8","ND","ND","ND","2.0","1.2","ND","ND","ND","ND","0","0"],
    [73013,"2018-09-04T00:00:00","22","ND","ND","ND","2.0","1.1","ND","ND","ND","ND","0","0"],
    [73014,"2018-09-04T01:00:00","24.2","ND","ND","ND","2.1","0.4","ND","ND","ND","ND","0","0"],
    [73015,"2018-09-04T02:00:00","60.5","ND","ND","ND","3.7","0.3","ND","ND","ND","ND","0","0"],
    [73016,"2018-09-04T03:00:00","32","ND","ND","ND","3.1","0.3","ND","ND","ND","ND","0","0"],
    [73017,"2018-09-04T04:00:00","28.9","ND","ND","ND","2.8","0.4","ND","ND","ND","ND","0","0"],
    [73018,"2018-09-04T05:00:00","31.3","ND","ND","ND","2.2","0.5","ND","ND","ND","ND","0","0"],
    [73019,"2018-09-04T06:00:00","40.1","ND","ND","ND","2.4","0.6","ND","ND","ND","ND","0","0"],
    [73020,"2018-09-04T07:00:00","43.5","ND","ND","ND","2.3","0.6","ND","ND","ND","ND","81","0"],
    [73021,"2018-09-04T08:00:00","45.7","ND","ND","ND","2.9","1.0","ND","ND","ND","ND","320","0"],
    [73022,"2018-09-04T09:00:00","63.1","ND","ND","ND","4.9","1.6","ND","ND","ND","ND","616","0"],
    [73023,"2018-09-04T10:00:00","73.6","ND","ND","ND","13.2","1.2","ND","ND","ND","ND","665","0"],
    [73024,"2018-09-04T11:00:00","43","ND","ND","ND","36.0","0.6","ND","ND","ND","ND","665","0"],
    [73025,"2018-09-04T12:00:00","42.5","ND","ND","ND","77.3","0.3","ND","ND","ND","ND","666","0"],
    [73026,"2018-09-04T13:00:00","32.7","ND","ND","ND","100.7","0.3","ND","ND","ND","ND","666","0"],
    [73027,"2018-09-04T14:00:00","23.1","ND","ND","ND","113.1","0.2","ND","ND","ND","ND","666","0"],
    [73028,"2018-09-04T15:00:00","22.9","ND","ND","ND","111.2","0.6","ND","ND","ND","ND","663","0"],
    [73029,"2018-09-04T16:00:00","39.8","ND","ND","ND","64.6","0.3","ND","ND","ND","ND","618","0"],
    [73030,"2018-09-04T17:00:00","35.7","ND","ND","ND","53.9","0.2","ND","ND","ND","ND","455","0"],
    [73031,"2018-09-04T18:00:00","28.7","ND","ND","ND","41.9","0.1","ND","ND","ND","ND","119","0"],
    [73032,"2018-09-04T19:00:00","15.1","ND","ND","ND","36.0","0.1","ND","ND","ND","ND","0","0"],
    [73033,"2018-09-04T20:00:00","11.2","ND","ND","ND","21.5","0.1","ND","ND","ND","ND","0","0"],
    [73034,"2018-09-04T21:00:00","21.2","ND","ND","ND","19.5","0.1","ND","ND","ND","ND","0","0"],
    [73035,"2018-09-04T22:00:00","19.7","ND","ND","ND","19.7","0.2","ND","ND","ND","ND","0","0"],
    [73036,"2018-09-04T23:00:00","19.9","ND","ND","ND","20.9","0.2","ND","ND","ND","ND","0","0"],
    [73037,"2018-09-05T00:00:00","18","ND","ND","ND","12.4","0.2","ND","ND","ND","ND","0","0"],
    [73038,"2018-09-05T01:00:00","30.6","ND","ND","ND","10.5","0.3","ND","ND","ND","ND","0","0"],
    [73039,"2018-09-05T02:00:00","21.8","ND","ND","ND","9.9","0.4","ND","ND","ND","ND","0","0"],
    [73040,"2018-09-05T03:00:00","18.2","ND","ND","ND","8.9","0.6","ND","ND","ND","ND","0","0"],
    [73041,"2018-09-05T04:00:00","21.8","ND","ND","ND","8.5","0.4","ND","ND","ND","ND","0","0.51"],
    [73042,"2018-09-05T05:00:00","20.1","ND","ND","ND","4.6","0.5","ND","ND","ND","ND","0","0.25"],
    [73043,"2018-09-05T06:00:00","17.1","ND","ND","ND","2.7","0.4","ND","ND","ND","ND","0","0.25"],
    [73044,"2018-09-05T07:00:00","24.7","ND","ND","ND","2.4","1.0","ND","ND","ND","ND","68","0"],
    [73045,"2018-09-05T08:00:00","27.1","ND","ND","ND","3.7","0.2","ND","ND","ND","ND","305","0"],
    [73046,"2018-09-05T09:00:00","45.8","ND","ND","ND","6.3","0.5","ND","ND","ND","ND","602","0"],
    [73047,"2018-09-05T10:00:00","45.5","ND","ND","ND","25.2","0.5","ND","ND","ND","ND","665","0.25"],
    [73048,"2018-09-05T11:00:00","31.7","ND","ND","ND","43.6","0.3","ND","ND","ND","ND","665","0"],
    [73049,"2018-09-05T12:00:00","24.2","ND","ND","ND","54.7","0.3","ND","ND","ND","ND","666","0"],
    [73050,"2018-09-05T13:00:00","15.9","ND","ND","ND","60.6","0.2","ND","ND","ND","ND","666","0"],
    [73051,"2018-09-05T14:00:00","17.1","ND","ND","ND","69.3","0.1","ND","ND","ND","ND","666","0"],
    [73052,"2018-09-05T15:00:00","15.8","ND","ND","ND","78.9","0.0","ND","ND","ND","ND","594","0"],
    [73053,"2018-09-05T16:00:00","22","ND","ND","ND","55.2","0.1","ND","ND","ND","ND","427","0"],
    [73054,"2018-09-05T17:00:00","21.2","ND","ND","ND","40.8","0.2","ND","ND","ND","ND","400","0"],
    [73055,"2018-09-05T18:00:00","16.2","ND","ND","ND","29.5","0.1","ND","ND","ND","ND","101","0"],
    [73056,"2018-09-05T19:00:00","10.3","ND","ND","ND","26.9","0.1","ND","ND","ND","ND","0","0"],
    [73057,"2018-09-05T20:00:00","6.2","ND","ND","ND","7.2","0.3","ND","ND","ND","ND","0","0"],
    [73058,"2018-09-05T21:00:00","24.1","ND","ND","ND","8.4","0.3","ND","ND","ND","ND","0","0"],
    [73059,"2018-09-05T22:00:00","26.2","ND","ND","ND","3.0","0.2","ND","ND","ND","ND","0","0"],
    [73060,"2018-09-05T23:00:00","33.9","ND","ND","ND","2.8","0.5","ND","ND","ND","ND","0","0"],
    [73061,"2018-09-06T00:00:00","31.8","ND","ND","ND","3.0","1.1","ND","ND","ND","ND","0","0"],
    [73062,"2018-09-06T01:00:00","27.3","ND","ND","ND","4.0","1.7","ND","ND","ND","ND","0","0"],
    [73063,"2018-09-06T02:00:00","ND","ND","ND","ND","4.8","1.7","ND","ND","ND","ND","0","0"],
    [73064,"2018-09-06T03:00:00","11.2","ND","ND","ND","7.4","0.9","ND","ND","ND","ND","0","0"],
    [73065,"2018-09-06T04:00:00","22.6","ND","ND","ND","5.7","1.2","ND","ND","ND","ND","0","0"],
    [73066,"2018-09-06T05:00:00","36.8","ND","ND","ND","4.0","0.9","ND","ND","ND","ND","0","0"],
    [73067,"2018-09-06T06:00:00","43.1","ND","ND","ND","2.6","0.5","ND","ND","ND","ND","0","0"],
    [73068,"2018-09-06T07:00:00","38.5","ND","ND","ND","2.9","0.7","ND","ND","ND","ND","93","0"],
    [73069,"2018-09-06T08:00:00","59.9","ND","ND","ND","6.7","1.8","ND","ND","ND","ND","441","0"],
    [73070,"2018-09-06T09:00:00","81.1","ND","ND","ND","22.2","0.6","ND","ND","ND","ND","665","0"],
    [73071,"2018-09-06T10:00:00","75.3","ND","ND","ND","42.2","0.3","ND","ND","ND","ND","665","0"],
    [73072,"2018-09-06T11:00:00","49.6","ND","ND","ND","63.0","0.3","ND","ND","ND","ND","665","0"],
    [73073,"2018-09-06T12:00:00","37.7","ND","ND","ND","69.1","0.4","ND","ND","ND","ND","666","0"],
    [73074,"2018-09-06T13:00:00","22","ND","ND","ND","75.5","0.2","ND","ND","ND","ND","666","0"],
    [73075,"2018-09-06T14:00:00","14.2","ND","ND","ND","72.8","0.2","ND","ND","ND","ND","666","0"],
    [73076,"2018-09-06T15:00:00","21.8","ND","ND","ND","65.2","0.2","ND","ND","ND","ND","661","0"],
    [73077,"2018-09-06T16:00:00","30.7","ND","ND","ND","52.2","0.2","ND","ND","ND","ND","622","0"],
    [73078,"2018-09-06T17:00:00","40.7","ND","ND","ND","49.8","0.1","ND","ND","ND","ND","419","0"],
    [73079,"2018-09-06T18:00:00","21.7","ND","ND","ND","38.7","0.2","ND","ND","ND","ND","89","0"],
    [73080,"2018-09-06T19:00:00","6.5","ND","ND","ND","19.5","0.3","ND","ND","ND","ND","0","0"],
    [73081,"2018-09-06T20:00:00","19.4","ND","ND","ND","6.0","0.1","ND","ND","ND","ND","0","0"],
    [73082,"2018-09-06T21:00:00","29.6","ND","ND","ND","9.5","0.3","ND","ND","ND","ND","0","0"],
    [73083,"2018-09-06T22:00:00","28.5","ND","ND","ND","4.0","0.8","ND","ND","ND","ND","0","0"],
    [73084,"2018-09-06T23:00:00","23.9","ND","ND","ND","3.0","0.5","ND","ND","ND","ND","0","0"],
    [73085,"2018-09-07T00:00:00","32.9","ND","ND","ND","2.9","1.2","ND","ND","ND","ND","0","0"],
    [73086,"2018-09-07T01:00:00","46.4","ND","ND","ND","7.8","1.1","ND","ND","ND","ND","0","0"],
    [73087,"2018-09-07T02:00:00","23.8","ND","ND","ND","9.6","0.7","ND","ND","ND","ND","0","0"],
    [73088,"2018-09-07T03:00:00","33.8","ND","ND","ND","10.3","0.6","ND","ND","ND","ND","0","0"],
    [73089,"2018-09-07T04:00:00","30.1","ND","ND","ND","11.1","0.6","ND","ND","ND","ND","0","0"],
    [73090,"2018-09-07T05:00:00","31.5","ND","ND","ND","6.6","0.6","ND","ND","ND","ND","0","0"],
    [73091,"2018-09-07T06:00:00","32.1","ND","ND","ND","3.4","0.5","ND","ND","ND","ND","0","0"],
    [73092,"2018-09-07T07:00:00","43.7","ND","ND","ND","2.7","0.4","ND","ND","ND","ND","67","0"],
    [73093,"2018-09-07T08:00:00","57.7","ND","ND","ND","4.7","0.5","ND","ND","ND","ND","265","0"],
    [73094,"2018-09-07T09:00:00","51.3","ND","ND","ND","11.4","0.6","ND","ND","ND","ND","592","0"],
    [73095,"2018-09-07T10:00:00","47.7","ND","ND","ND","20.7","0.8","ND","ND","ND","ND","660","0"],
    [73096,"2018-09-07T11:00:00","41.8","ND","ND","ND","19.9","0.5","ND","ND","ND","ND","593","0"],
    [73097,"2018-09-07T12:00:00","34.6","ND","ND","ND","27.0","0.3","ND","ND","ND","ND","664","0"],
    [73098,"2018-09-07T13:00:00","20.2","ND","ND","ND","33.9","0.1","ND","ND","ND","ND","652","0"],
    [73099,"2018-09-07T14:00:00","6.4","ND","ND","ND","30.5","0.1","ND","ND","ND","ND","653","0"],
    [73100,"2018-09-07T15:00:00","7.2","ND","ND","ND","31.4","0.1","ND","ND","ND","ND","666","0"],
    [73101,"2018-09-07T16:00:00","8.9","ND","ND","ND","31.2","0.1","ND","ND","ND","ND","631","0"],
    [73102,"2018-09-07T17:00:00","10.4","ND","ND","ND","30.8","0.2","ND","ND","ND","ND","632","0"],
    [73103,"2018-09-07T18:00:00","14.3","ND","ND","ND","22.9","0.1","ND","ND","ND","ND","213","0"],
    [73104,"2018-09-07T19:00:00","8.3","ND","ND","ND","20.4","0.1","ND","ND","ND","ND","0","0"],
    [73105,"2018-09-07T20:00:00","ND","ND","ND","ND","18.0","0.2","ND","ND","ND","ND","0","0"],
    [73106,"2018-09-07T21:00:00","14.9","ND","ND","ND","3.4","0.5","ND","ND","ND","ND","0","0"],
    [73107,"2018-09-07T22:00:00","44.8","ND","ND","ND","4.1","0.3","ND","ND","ND","ND","0","0"],
    [73108,"2018-09-07T23:00:00","39.7","ND","ND","ND","3.2","0.2","ND","ND","ND","ND","0","0"],
    [73109,"2018-09-08T00:00:00","33.3","ND","ND","ND","2.4","1.5","ND","ND","ND","ND","0","0"],
    [73110,"2018-09-08T01:00:00","21.2","ND","ND","ND","3.1","2.3","ND","ND","ND","ND","0","0"],
    [73111,"2018-09-08T02:00:00","24.5","ND","ND","ND","5.5","1.0","ND","ND","ND","ND","0","0"],
    [73112,"2018-09-08T03:00:00","13.1","ND","ND","ND","3.8","1.0","ND","ND","ND","ND","0","0"],
    [73113,"2018-09-08T04:00:00","25.4","ND","ND","ND","4.5","0.8","ND","ND","ND","ND","0","0"],
    [73114,"2018-09-08T05:00:00","25.5","ND","ND","ND","3.7","0.9","ND","ND","ND","ND","0","0"],
    [73115,"2018-09-08T06:00:00","30.7","ND","ND","ND","3.5","0.7","ND","ND","ND","ND","0","0"],
    [73116,"2018-09-08T07:00:00","40.1","ND","ND","ND","3.3","1.0","ND","ND","ND","ND","89","0"],
    [73117,"2018-09-08T08:00:00","48.6","ND","ND","ND","4.9","0.9","ND","ND","ND","ND","456","0"],
    [73118,"2018-09-08T09:00:00","59.3","ND","ND","ND","17.8","0.6","ND","ND","ND","ND","664","0"],
    [73119,"2018-09-08T10:00:00","37.9","ND","ND","ND","39.0","0.3","ND","ND","ND","ND","665","0"],
    [73120,"2018-09-08T11:00:00","38.2","ND","ND","ND","70.9","0.3","ND","ND","ND","ND","663","0"],
    [73121,"2018-09-08T12:00:00","41.4","ND","ND","ND","81.5","0.4","ND","ND","ND","ND","666","0"],
    [73122,"2018-09-08T13:00:00","32.6","ND","ND","ND","99.5","0.6","ND","ND","ND","ND","665","0"],
    [73123,"2018-09-08T14:00:00","29.3","ND","ND","ND","100.7","0.4","ND","ND","ND","ND","666","0"],
    [73124,"2018-09-08T15:00:00","40.5","ND","ND","ND","94.4","0.3","ND","ND","ND","ND","658","0"],
    [73125,"2018-09-08T16:00:00","38.4","ND","ND","ND","80.1","0.3","ND","ND","ND","ND","501","0"],
    [73126,"2018-09-08T17:00:00","19.2","ND","ND","ND","66.5","0.2","ND","ND","ND","ND","231","0"],
    [73127,"2018-09-08T18:00:00","41.4","ND","ND","ND","49.8","0.3","ND","ND","ND","ND","85","0"],
    [73128,"2018-09-08T19:00:00","46","ND","ND","ND","36.6","0.2","ND","ND","ND","ND","0","0"],
    [73129,"2018-09-08T20:00:00","49.9","ND","ND","ND","25.1","0.3","ND","ND","ND","ND","0","0"],
    [73130,"2018-09-08T21:00:00","26.1","ND","ND","ND","22.2","0.2","ND","ND","ND","ND","0","0"],
    [73131,"2018-09-08T22:00:00","28.6","ND","ND","ND","7.9","0.3","ND","ND","ND","ND","0","0"],
    [73132,"2018-09-08T23:00:00","42.2","ND","ND","ND","16.8","1.5","ND","ND","ND","ND","0","0"],
    [73133,"2018-09-09T00:00:00","33.4","ND","ND","ND","3.3","1.5","ND","ND","ND","ND","0","0"],
    [73134,"2018-09-09T01:00:00","31.4","ND","ND","ND","3.2","1.8","ND","ND","ND","ND","0","0"],
    [73135,"2018-09-09T02:00:00","18.7","ND","ND","ND","5.4","2.4","ND","ND","ND","ND","0","0"],
    [73136,"2018-09-09T03:00:00","20.2","ND","ND","ND","3.4","0.8","ND","ND","ND","ND","0","0"],
    [73137,"2018-09-09T04:00:00","30.5","ND","ND","ND","2.8","0.8","ND","ND","ND","ND","0","0"],
    [73138,"2018-09-09T05:00:00","42.6","ND","ND","ND","2.8","1.1","ND","ND","ND","ND","0","0"],
    [73139,"2018-09-09T06:00:00","43.8","ND","ND","ND","2.5","0.5","ND","ND","ND","ND","0","0"],
    [73140,"2018-09-09T07:00:00","35","ND","ND","ND","2.8","0.6","ND","ND","ND","ND","132","0"],
    [73141,"2018-09-09T08:00:00","60","ND","ND","ND","3.6","1.1","ND","ND","ND","ND","354","0"],
    [73142,"2018-09-09T09:00:00","79","ND","ND","ND","7.7","2.4","ND","ND","ND","ND","621","0"],
    [73143,"2018-09-09T10:00:00","61.7","ND","ND","ND","20.5","0.9","ND","ND","ND","ND","665","0"],
    [73144,"2018-09-09T11:00:00","45.9","ND","ND","ND","45.2","0.8","ND","ND","ND","ND","665","0"],
    [73145,"2018-09-09T12:00:00","42.6","ND","ND","ND","64.7","0.5","ND","ND","ND","ND","666","0"],
    [73146,"2018-09-09T13:00:00","34.3","ND","ND","ND","68.5","0.6","ND","ND","ND","ND","666","0"],
    [73147,"2018-09-09T14:00:00","23.3","ND","ND","ND","84.1","0.4","ND","ND","ND","ND","666","0"],
    [73148,"2018-09-09T15:00:00","25.2","ND","ND","ND","72.3","0.2","ND","ND","ND","ND","657","0"],
    [73149,"2018-09-09T16:00:00","15.7","ND","ND","ND","60.6","0.2","ND","ND","ND","ND","581","0"],
    [73150,"2018-09-09T17:00:00","7.7","ND","ND","ND","65.3","0.4","ND","ND","ND","ND","544","0"],
    [73151,"2018-09-09T18:00:00","29.3","ND","ND","ND","62.9","0.3","ND","ND","ND","ND","238","0"],
    [73152,"2018-09-09T19:00:00","35.3","ND","ND","ND","26.8","0.2","ND","ND","ND","ND","0","0"],
    [73153,"2018-09-09T20:00:00","31.9","ND","ND","ND","7.9","0.3","ND","ND","ND","ND","0","0"],
    [73154,"2018-09-09T21:00:00","40.1","ND","ND","ND","8.8","0.2","ND","ND","ND","ND","0","0"],
    [73155,"2018-09-09T22:00:00","32.1","ND","ND","ND","7.5","1.0","ND","ND","ND","ND","0","0"],
    [73156,"2018-09-09T23:00:00","27","ND","ND","ND","3.9","3.6","ND","ND","ND","ND","0","0"],
    [73157,"2018-09-10T00:00:00","19.5","ND","ND","ND","3.9","1.1","ND","ND","ND","ND","0","0"],
    [73158,"2018-09-10T01:00:00","0.8","ND","ND","ND","4.8","1.2","ND","ND","ND","ND","0","0"],
    [73159,"2018-09-10T02:00:00","15.7","ND","ND","ND","4.5","1.3","ND","ND","ND","ND","0","0"],
    [73160,"2018-09-10T03:00:00","22.7","ND","ND","ND","4.0","0.9","ND","ND","ND","ND","0","0"],
    [73161,"2018-09-10T04:00:00","22.5","ND","ND","ND","5.1","0.8","ND","ND","ND","ND","0","0"],
    [73162,"2018-09-10T05:00:00","23.2","ND","ND","ND","4.1","1.0","ND","ND","ND","ND","0","0"],
    [73163,"2018-09-10T06:00:00","32.3","ND","ND","ND","3.3","0.5","ND","ND","ND","ND","0","0"],
    [73164,"2018-09-10T07:00:00","88.6","ND","ND","ND","3.7","0.4","ND","ND","ND","ND","171","0"],
    [73165,"2018-09-10T08:00:00","78.1","ND","ND","ND","8.0","1.0","ND","ND","ND","ND","600","0"],
    [73166,"2018-09-10T09:00:00","71.4","ND","ND","ND","23.5","0.9","ND","ND","ND","ND","665","0"],
    [73167,"2018-09-10T10:00:00","42.9","ND","ND","ND","30.8","0.8","ND","ND","ND","ND","665","0"],
    [73168,"2018-09-10T11:00:00","29.5","ND","ND","ND","59.7","0.5","ND","ND","ND","ND","665","0"],
    [73169,"2018-09-10T12:00:00","26.6","ND","ND","ND","84.2","0.3","ND","ND","ND","ND","666","0"],
    [73170,"2018-09-10T13:00:00","26.9","ND","ND","ND","94.1","0.2","ND","ND","ND","ND","666","0"],
    [73171,"2018-09-10T14:00:00","26","ND","ND","ND","80.9","0.2","ND","ND","ND","ND","666","0"],
    [73172,"2018-09-10T15:00:00","20.4","ND","ND","ND","86.4","0.3","ND","ND","ND","ND","666","0"],
    [73173,"2018-09-10T16:00:00","22.8","ND","ND","ND","85.2","0.2","ND","ND","ND","ND","594","0"],
    [73174,"2018-09-10T17:00:00","26.9","ND","ND","ND","64.7","0.2","ND","ND","ND","ND","645","0"],
    [73175,"2018-09-10T18:00:00","44.8","ND","ND","ND","47.8","0.2","ND","ND","ND","ND","227","0"],
    [73176,"2018-09-10T19:00:00","35.2","ND","ND","ND","35.9","0.2","ND","ND","ND","ND","0","0"],
    [73177,"2018-09-10T20:00:00","ND","ND","ND","ND","37.2","0.1","ND","ND","ND","ND","0","0"],
    [73178,"2018-09-10T21:00:00","ND","ND","ND","ND","17.5","0.6","ND","ND","ND","ND","0","0"],
    [73179,"2018-09-10T22:00:00","ND","ND","ND","ND","5.4","1.5","ND","ND","ND","ND","0","0"],
    [73180,"2018-09-10T23:00:00","ND","ND","ND","ND","3.6","1.9","ND","ND","ND","ND","0","0"],
    [73181,"2018-09-11T00:00:00","ND","ND","ND","ND","3.1","2.8","ND","ND","ND","ND","0","0"],
    [73182,"2018-09-11T01:00:00","ND","ND","ND","ND","6.2","2.2","ND","ND","ND","ND","0","0"],
    [73183,"2018-09-11T02:00:00","ND","ND","ND","ND","6.5","1.2","ND","ND","ND","ND","0","0"],
    [73184,"2018-09-11T03:00:00","ND","ND","ND","ND","10.2","1.0","ND","ND","ND","ND","0","0"],
    [73185,"2018-09-11T04:00:00","ND","ND","ND","ND","8.0","0.9","ND","ND","ND","ND","0","0"],
    [73186,"2018-09-11T05:00:00","ND","ND","ND","ND","3.9","0.5","ND","ND","ND","ND","0","0"],
    [73187,"2018-09-11T06:00:00","ND","ND","ND","ND","3.3","0.6","ND","ND","ND","ND","0","0"],
    [73188,"2018-09-11T07:00:00","ND","ND","ND","ND","3.1","0.7","ND","ND","ND","ND","141","0"],
    [73189,"2018-09-11T08:00:00","ND","ND","ND","ND","5.1","1.4","ND","ND","ND","ND","562","0"],
    [73190,"2018-09-11T09:00:00","ND","ND","ND","ND","19.0","1.2","ND","ND","ND","ND","665","0"],
    [73191,"2018-09-11T10:00:00","ND","ND","ND","ND","41.5","0.4","ND","ND","ND","ND","665","0"],
    [73192,"2018-09-11T11:00:00","ND","ND","ND","ND","70.8","0.6","ND","ND","ND","ND","665","0"],
    [73193,"2018-09-11T12:00:00","ND","ND","ND","ND","91.6","0.3","ND","ND","ND","ND","666","0"],
    [73194,"2018-09-11T13:00:00","ND","ND","ND","ND","88.0","0.3","ND","ND","ND","ND","666","0"],
    [73195,"2018-09-11T14:00:00","ND","ND","ND","ND","106.4","0.3","ND","ND","ND","ND","666","0"],
    [73196,"2018-09-11T15:00:00","ND","ND","ND","ND","117.9","0.3","ND","ND","ND","ND","610","0"],
    [73197,"2018-09-11T16:00:00","ND","ND","ND","ND","69.6","0.2","ND","ND","ND","ND","434","0"],
    [73198,"2018-09-11T17:00:00","ND","ND","ND","ND","49.9","0.2","ND","ND","ND","ND","417","0"],
    [73199,"2018-09-11T18:00:00","ND","ND","ND","ND","43.7","0.1","ND","ND","ND","ND","100","0"],
    [73200,"2018-09-11T19:00:00","ND","ND","ND","ND","30.1","0.2","ND","ND","ND","ND","0","0"],
    [73201,"2018-09-11T20:00:00","ND","ND","ND","ND","12.9","0.3","ND","ND","ND","ND","0","0"],
    [73202,"2018-09-11T21:00:00","ND","ND","ND","ND","2.1","0.6","ND","ND","ND","ND","0","0"],
    [73203,"2018-09-11T22:00:00","ND","ND","ND","ND","3.9","1.4","ND","ND","ND","ND","0","0"],
    [73204,"2018-09-11T23:00:00","ND","ND","ND","ND","4.4","0.3","ND","ND","ND","ND","0","0"],
    [73205,"2018-09-12T00:00:00","ND","ND","ND","ND","3.8","0.5","ND","ND","ND","ND","0","0"],
    [73206,"2018-09-12T01:00:00","ND","ND","ND","ND","7.6","0.3","ND","ND","ND","ND","0","0"],
    [73207,"2018-09-12T02:00:00","ND","ND","ND","ND","4.0","1.6","ND","ND","ND","ND","0","0"],
    [73208,"2018-09-12T03:00:00","ND","ND","ND","ND","6.6","0.8","ND","ND","ND","ND","0","0"],
    [73209,"2018-09-12T04:00:00","ND","ND","ND","ND","2.9","1.5","ND","ND","ND","ND","0","0"],
    [73210,"2018-09-12T05:00:00","ND","ND","ND","ND","3.1","1.6","ND","ND","ND","ND","0","0"],
    [73211,"2018-09-12T06:00:00","ND","ND","ND","ND","2.0","0.4","ND","ND","ND","ND","0","0"],
    [73212,"2018-09-12T07:00:00","ND","ND","ND","ND","2.4","0.9","ND","ND","ND","ND","68","0"],
    [73213,"2018-09-12T08:00:00","ND","ND","ND","ND","3.9","1.9","ND","ND","ND","ND","407","0"],
    [73214,"2018-09-12T09:00:00","ND","ND","ND","ND","19.4","0.8","ND","ND","ND","ND","660","0"],
    [73215,"2018-09-12T10:00:00","ND","ND","ND","ND","48.2","0.6","ND","ND","ND","ND","665","0"],
    [73216,"2018-09-12T11:00:00","ND","ND","ND","ND","72.9","0.7","ND","ND","ND","ND","665","0"],
    [73217,"2018-09-12T12:00:00","ND","ND","ND","ND","88.1","0.4","ND","ND","ND","ND","666","0"],
    [73218,"2018-09-12T13:00:00","ND","ND","ND","ND","89.4","0.7","ND","ND","ND","ND","660","0"],
    [73219,"2018-09-12T14:00:00","ND","ND","ND","ND","44.7","0.1","ND","ND","ND","ND","666","0"],
    [73220,"2018-09-12T15:00:00","ND","ND","ND","ND","40.2","0.1","ND","ND","ND","ND","666","0"],
    [73221,"2018-09-12T16:00:00","ND","ND","ND","ND","38.3","0.2","ND","ND","ND","ND","659","0"],
    [73222,"2018-09-12T17:00:00","ND","ND","ND","ND","35.6","0.2","ND","ND","ND","ND","301","0"],
    [73223,"2018-09-12T18:00:00","ND","ND","ND","ND","32.0","0.2","ND","ND","ND","ND","64","0"],
    [73224,"2018-09-12T19:00:00","ND","ND","ND","ND","21.9","0.3","ND","ND","ND","ND","0","0"],
    [73225,"2018-09-12T20:00:00","ND","ND","ND","ND","18.0","0.4","ND","ND","ND","ND","0","0"],
    [73226,"2018-09-12T21:00:00","ND","ND","ND","ND","12.0","0.4","ND","ND","ND","ND","0","0"],
    [73227,"2018-09-12T22:00:00","ND","ND","ND","ND","10.3","0.4","ND","ND","ND","ND","0","0"],
    [73228,"2018-09-12T23:00:00","ND","ND","ND","ND","16.5","0.7","ND","ND","ND","ND","0","0"],
    [73229,"2018-09-13T00:00:00","ND","ND","ND","ND","12.4","0.9","ND","ND","ND","ND","0","0"],
    [73230,"2018-09-13T01:00:00","ND","ND","ND","ND","7.8","1.3","ND","ND","ND","ND","0","0"],
    [73231,"2018-09-13T02:00:00","ND","ND","ND","ND","12.9","1.1","ND","ND","ND","ND","0","0"],
    [73232,"2018-09-13T03:00:00","ND","ND","ND","ND","11.5","0.6","ND","ND","ND","ND","0","0"],
    [73233,"2018-09-13T04:00:00","ND","ND","ND","ND","9.7","0.6","ND","ND","ND","ND","0","0"],
    [73234,"2018-09-13T05:00:00","ND","ND","ND","ND","12.5","0.5","ND","ND","ND","ND","0","0"],
    [73235,"2018-09-13T06:00:00","ND","ND","ND","ND","6.0","1.1","ND","ND","ND","ND","0","0"],
    [73236,"2018-09-13T07:00:00","ND","ND","ND","ND","3.0","0.5","ND","ND","ND","ND","30","0"],
    [73237,"2018-09-13T08:00:00","ND","ND","ND","ND","2.9","0.7","ND","ND","ND","ND","120","0"],
    [73238,"2018-09-13T09:00:00","ND","ND","ND","ND","7.4","0.5","ND","ND","ND","ND","142","0"],
    [73239,"2018-09-13T10:00:00","ND","ND","ND","ND","13.7","0.4","ND","ND","ND","ND","242","0"],
    [73240,"2018-09-13T11:00:00","ND","ND","ND","ND","ND","0.3","ND","ND","ND","ND","566","0"],
    [73241,"2018-09-13T12:00:00","ND","ND","ND","ND","ND","ND","ND","ND","ND","ND","665","0"],
    [73242,"2018-09-13T13:00:00","ND","ND","ND","ND","31.2","0.3","ND","ND","ND","ND","666","0"],
    [73243,"2018-09-13T14:00:00","82.1","ND","ND","ND","25.6","0.3","ND","ND","ND","ND","664","0"],
    [73244,"2018-09-13T15:00:00","137.9","ND","ND","ND","25.3","0.3","ND","ND","ND","ND","666","0"],
    [73245,"2018-09-13T16:00:00","95.2","ND","ND","ND","28.7","0.1","ND","ND","ND","ND","604","0"],
    [73246,"2018-09-13T17:00:00","69.2","ND","ND","ND","30.7","0.1","ND","ND","ND","ND","157","0"],
    [73247,"2018-09-13T18:00:00","41.9","ND","ND","ND","15.3","0.2","ND","ND","ND","ND","55","0"],
    [73248,"2018-09-13T19:00:00","41.5","ND","ND","ND","7.9","0.1","ND","ND","ND","ND","0","1.78"],
    [73249,"2018-09-13T20:00:00","39.1","ND","ND","ND","3.3","0.2","ND","ND","ND","ND","0","1.02"],
    [73250,"2018-09-13T21:00:00","30.2","ND","ND","ND","2.1","0.2","ND","ND","ND","ND","0","1.02"],
    [73251,"2018-09-13T22:00:00","18.3","ND","ND","ND","1.5","0.2","ND","ND","ND","ND","0","0"],
    [73252,"2018-09-13T23:00:00","20.5","ND","ND","ND","1.5","0.0","ND","ND","ND","ND","0","0"],
    [73253,"2018-09-14T00:00:00","23","ND","ND","ND","1.5","0.4","ND","ND","ND","ND","0","0"],
    [73254,"2018-09-14T01:00:00","34.3","ND","ND","ND","1.5","0.4","ND","ND","ND","ND","0","0"],
    [73255,"2018-09-14T02:00:00","23.5","ND","ND","ND","1.6","0.4","ND","ND","ND","ND","0","0.51"],
    [73256,"2018-09-14T03:00:00","11.6","ND","ND","ND","1.8","0.1","ND","ND","ND","ND","0","0.51"],
    [73257,"2018-09-14T04:00:00","7.4","ND","ND","ND","3.4","0.1","ND","ND","ND","ND","0","0"],
    [73258,"2018-09-14T05:00:00","8.9","ND","ND","ND","4.1","0.1","ND","ND","ND","ND","0","0.51"],
    [73259,"2018-09-14T06:00:00","6.7","ND","ND","ND","3.2","0.2","ND","ND","ND","ND","0","0.51"],
    [73260,"2018-09-14T07:00:00","9.6","ND","ND","ND","1.6","0.0","ND","ND","ND","ND","61","0.51"],
    [73261,"2018-09-14T08:00:00","20.1","ND","ND","ND","4.0","0.2","ND","ND","ND","ND","491","0.25"],
    [73262,"2018-09-14T09:00:00","24.2","ND","ND","ND","8.2","0.1","ND","ND","ND","ND","530","0"],
    [73263,"2018-09-14T10:00:00","20.2","ND","ND","ND","10.4","0.3","ND","ND","ND","ND","386","0"],
    [73264,"2018-09-14T11:00:00","15.6","ND","ND","ND","19.7","0.2","ND","ND","ND","ND","612","0"],
    [73265,"2018-09-14T12:00:00","8.1","ND","ND","ND","44.0","0.1","ND","ND","ND","ND","665","0"],
    [73266,"2018-09-14T13:00:00","14.9","ND","ND","ND","76.8","0.3","ND","ND","ND","ND","665","0"],
    [73267,"2018-09-14T14:00:00","18.3","ND","ND","ND","111.6","0.4","ND","ND","ND","ND","666","0"],
    [73268,"2018-09-14T15:00:00","25.4","ND","ND","ND","96.0","0.3","ND","ND","ND","ND","666","0"],
    [73269,"2018-09-14T16:00:00","32.9","ND","ND","ND","45.4","0.4","ND","ND","ND","ND","580","0"],
    [73270,"2018-09-14T17:00:00","28.9","ND","ND","ND","19.6","0.2","ND","ND","ND","ND","450","0"],
    [73271,"2018-09-14T18:00:00","19.8","ND","ND","ND","18.4","0.2","ND","ND","ND","ND","217","0"],
    [73272,"2018-09-14T19:00:00","22.1","ND","ND","ND","9.7","0.2","ND","ND","ND","ND","0","0"],
    [73273,"2018-09-14T20:00:00","22.4","ND","ND","ND","8.3","0.1","ND","ND","ND","ND","0","0"],
    [73274,"2018-09-14T21:00:00","24.9","ND","ND","ND","8.0","0.1","ND","ND","ND","ND","0","0"],
    [73275,"2018-09-14T22:00:00","13","ND","ND","ND","5.9","0.5","ND","ND","ND","ND","0","0"],
    [73276,"2018-09-14T23:00:00","14.4","ND","ND","ND","2.1","0.4","ND","ND","ND","ND","0","0"],
    [73277,"2018-09-15T00:00:00","19.3","ND","ND","ND","3.3","0.2","ND","ND","ND","ND","0","0"],
    [73278,"2018-09-15T01:00:00","18.7","ND","ND","ND","3.9","0.5","ND","ND","ND","ND","0","0"],
    [73279,"2018-09-15T02:00:00","28.3","ND","ND","ND","3.6","1.1","ND","ND","ND","ND","0","0.25"],
    [73280,"2018-09-15T03:00:00","12.4","ND","ND","ND","3.2","0.4","ND","ND","ND","ND","0","0.25"],
    [73281,"2018-09-15T04:00:00","15.6","ND","ND","ND","2.6","0.3","ND","ND","ND","ND","0","1.02"],
    [73282,"2018-09-15T05:00:00","27.3","ND","ND","ND","2.9","0.5","ND","ND","ND","ND","0","0.76"],
    [73283,"2018-09-15T06:00:00","27.8","ND","ND","ND","1.6","0.7","ND","ND","ND","ND","0","1.27"],
    [73284,"2018-09-15T07:00:00","10.9","ND","ND","ND","1.7","0.4","ND","ND","ND","ND","19","1.02"],
    [73285,"2018-09-15T08:00:00","16.7","ND","ND","ND","1.4","0.9","ND","ND","ND","ND","181","1.52"],
    [73286,"2018-09-15T09:00:00","22.6","ND","ND","ND","1.8","0.6","ND","ND","ND","ND","265","0.51"],
    [73287,"2018-09-15T10:00:00","19.1","ND","ND","ND","5.6","0.3","ND","ND","ND","ND","409","0"],
    [73288,"2018-09-15T11:00:00","20.6","ND","ND","ND","14.4","0.2","ND","ND","ND","ND","579","0"],
    [73289,"2018-09-15T12:00:00","29","ND","ND","ND","35.0","0.2","ND","ND","ND","ND","591","0"],
    [73290,"2018-09-15T13:00:00","33.1","ND","ND","ND","52.1","0.2","ND","ND","ND","ND","649","0"],
    [73291,"2018-09-15T14:00:00","31.7","ND","ND","ND","66.3","0.2","ND","ND","ND","ND","658","0"],
    [73292,"2018-09-15T15:00:00","23.7","ND","ND","ND","53.7","0.3","ND","ND","ND","ND","622","0"],
    [73293,"2018-09-15T16:00:00","25.4","ND","ND","ND","52.7","0.2","ND","ND","ND","ND","503","0"],
    [73294,"2018-09-15T17:00:00","23.1","ND","ND","ND","46.4","0.3","ND","ND","ND","ND","306","0"],
    [73295,"2018-09-15T18:00:00","24.3","ND","ND","ND","36.4","0.2","ND","ND","ND","ND","71","0"],
    [73296,"2018-09-15T19:00:00","29.3","ND","ND","ND","13.2","0.2","ND","ND","ND","ND","0","1.27"],
    [73297,"2018-09-15T20:00:00","27.2","ND","ND","ND","3.2","0.1","ND","ND","ND","ND","0","1.27"],
    [73298,"2018-09-15T21:00:00","20","ND","ND","ND","2.0","0.5","ND","ND","ND","ND","0","0.76"],
    [73299,"2018-09-15T22:00:00","30.4","ND","ND","ND","1.6","0.1","ND","ND","ND","ND","0","0.51"],
    [73300,"2018-09-15T23:00:00","25.3","ND","ND","ND","1.5","0.3","ND","ND","ND","ND","0","0"],
    [73301,"2018-09-16T00:00:00","15.1","ND","ND","ND","1.9","0.1","ND","ND","ND","ND","0","0.51"],
    [73302,"2018-09-16T01:00:00","5.6","ND","ND","ND","1.5","0.2","ND","ND","ND","ND","0","0.25"],
    [73303,"2018-09-16T02:00:00","3","ND","ND","ND","1.5","0.1","ND","ND","ND","ND","0","0"],
    [73304,"2018-09-16T03:00:00","27.5","ND","ND","ND","1.5","0.3","ND","ND","ND","ND","0","0"],
    [73305,"2018-09-16T04:00:00","17.3","ND","ND","ND","1.6","0.1","ND","ND","ND","ND","0","5.84"],
    [73306,"2018-09-16T05:00:00","4","ND","ND","ND","1.4","0.8","ND","ND","ND","ND","0","0.25"],
    [73307,"2018-09-16T06:00:00","3.1","ND","ND","ND","1.3","1.9","ND","ND","ND","ND","0","0.51"],
    [73308,"2018-09-16T07:00:00","17","ND","ND","ND","1.4","2.8","ND","ND","ND","ND","29","0.25"],
    [73309,"2018-09-16T08:00:00","26.4","ND","ND","ND","1.3","2.7","ND","ND","ND","ND","155","0.76"],
    [73310,"2018-09-16T09:00:00","34.4","ND","ND","ND","1.4","0.6","ND","ND","ND","ND","490","0.76"],
    [73311,"2018-09-16T10:00:00","25.9","ND","ND","ND","1.8","0.3","ND","ND","ND","ND","654","0"],
    [73312,"2018-09-16T11:00:00","22.1","ND","ND","ND","5.6","0.5","ND","ND","ND","ND","665","0"],
    [73313,"2018-09-16T12:00:00","13.2","ND","ND","ND","23.3","0.5","ND","ND","ND","ND","665","0"],
    [73314,"2018-09-16T13:00:00","14.2","ND","ND","ND","45.4","0.4","ND","ND","ND","ND","665","0"],
    [73315,"2018-09-16T14:00:00","16.5","ND","ND","ND","72.7","0.3","ND","ND","ND","ND","665","0"],
    [73316,"2018-09-16T15:00:00","18.9","ND","ND","ND","71.2","0.3","ND","ND","ND","ND","666","0"],
    [73317,"2018-09-16T16:00:00","20.2","ND","ND","ND","82.7","0.3","ND","ND","ND","ND","666","0"],
    [73318,"2018-09-16T17:00:00","21.4","ND","ND","ND","80.8","0.3","ND","ND","ND","ND","550","0"],
    [73319,"2018-09-16T18:00:00","23.8","ND","ND","ND","58.9","0.3","ND","ND","ND","ND","93","0"],
    [73320,"2018-09-16T19:00:00","24.9","ND","ND","ND","31.6","0.2","ND","ND","ND","ND","0","0"],
    [73321,"2018-09-16T20:00:00","28.1","ND","ND","ND","20.9","1.8","ND","ND","ND","ND","0","0"],
    [73322,"2018-09-16T21:00:00","35.7","ND","ND","ND","4.5","2.7","ND","ND","ND","ND","0","0"],
    [73323,"2018-09-16T22:00:00","36","ND","ND","ND","1.6","1.0","ND","ND","ND","ND","0","0"],
    [73324,"2018-09-16T23:00:00","43.3","ND","ND","ND","1.5","0.8","ND","ND","ND","ND","0","0"],
    [73325,"2018-09-17T00:00:00","43.2","ND","ND","ND","1.9","0.5","ND","ND","ND","ND","0","0"],
    [73326,"2018-09-17T01:00:00","44.2","ND","ND","ND","1.5","0.4","ND","ND","ND","ND","0","0"],
    [73327,"2018-09-17T02:00:00","36.1","ND","ND","ND","1.8","1.8","ND","ND","ND","ND","0","0"],
    [73328,"2018-09-17T03:00:00","23.6","ND","ND","ND","2.1","3.3","ND","ND","ND","ND","0","0"],
    [73329,"2018-09-17T04:00:00","29.8","ND","ND","ND","1.5","3.7","ND","ND","ND","ND","0","0"],
    [73330,"2018-09-17T05:00:00","41.9","ND","ND","ND","1.6","2.7","ND","ND","ND","ND","0","0"],
    [73331,"2018-09-17T06:00:00","29.5","ND","ND","ND","1.3","0.4","ND","ND","ND","ND","0","0"],
    [73332,"2018-09-17T07:00:00","25.9","ND","ND","ND","1.4","0.6","ND","ND","ND","ND","141","0"],
    [73333,"2018-09-17T08:00:00","50.1","ND","ND","ND","1.9","0.6","ND","ND","ND","ND","323","0"],
    [73334,"2018-09-17T09:00:00","54.7","ND","ND","ND","7.1","0.6","ND","ND","ND","ND","583","0"],
    [73335,"2018-09-17T10:00:00","55.4","ND","ND","ND","27.4","0.5","ND","ND","ND","ND","665","0"],
    [73336,"2018-09-17T11:00:00","57.9","ND","ND","ND","49.8","0.4","ND","ND","ND","ND","665","0"],
    [73337,"2018-09-17T12:00:00","34","ND","ND","ND","54.5","0.4","ND","ND","ND","ND","666","0"],
    [73338,"2018-09-17T13:00:00","23.7","ND","ND","ND","78.8","0.3","ND","ND","ND","ND","666","0"],
    [73339,"2018-09-17T14:00:00","27","ND","ND","ND","89.4","0.3","ND","ND","ND","ND","666","0"],
    [73340,"2018-09-17T15:00:00","32.4","ND","ND","ND","89.1","0.4","ND","ND","ND","ND","639","0"],
    [73341,"2018-09-17T16:00:00","34.4","ND","ND","ND","69.3","0.6","ND","ND","ND","ND","500","0"],
    [73342,"2018-09-17T17:00:00","24.1","ND","ND","ND","26.6","0.1","ND","ND","ND","ND","521","0"],
    [73343,"2018-09-17T18:00:00","11","ND","ND","ND","17.6","0.2","ND","ND","ND","ND","181","0"],
    [73344,"2018-09-17T19:00:00","19.9","ND","ND","ND","6.5","0.2","ND","ND","ND","ND","0","0"],
    [73345,"2018-09-17T20:00:00","26.6","ND","ND","ND","5.4","0.2","ND","ND","ND","ND","0","0.25"],
    [73346,"2018-09-17T21:00:00","56","ND","ND","ND","2.2","1.0","ND","ND","ND","ND","0","0"],
    [73347,"2018-09-17T22:00:00","45.1","ND","ND","ND","1.9","1.2","ND","ND","ND","ND","0","0"],
    [73348,"2018-09-17T23:00:00","34.3","ND","ND","ND","1.9","0.6","ND","ND","ND","ND","0","0"],
    [73349,"2018-09-18T00:00:00","68.4","ND","ND","ND","2.1","0.4","ND","ND","ND","ND","0","0"],
    [73350,"2018-09-18T01:00:00","54.3","ND","ND","ND","1.9","0.6","ND","ND","ND","ND","0","0"],
    [73351,"2018-09-18T02:00:00","43.6","ND","ND","ND","1.9","0.7","ND","ND","ND","ND","0","0"],
    [73352,"2018-09-18T03:00:00","39.1","ND","ND","ND","1.8","1.0","ND","ND","ND","ND","0","0"],
    [73353,"2018-09-18T04:00:00","31.7","ND","ND","ND","1.6","0.8","ND","ND","ND","ND","0","0"],
    [73354,"2018-09-18T05:00:00","54.9","ND","ND","ND","1.7","0.7","ND","ND","ND","ND","0","0"],
    [73355,"2018-09-18T06:00:00","57.4","ND","ND","ND","1.8","0.6","ND","ND","ND","ND","0","0"],
    [73356,"2018-09-18T07:00:00","87.2","ND","ND","ND","1.8","0.6","ND","ND","ND","ND","126","0"],
    [73357,"2018-09-18T08:00:00","58.6","ND","ND","ND","2.8","0.4","ND","ND","ND","ND","537","0"],
    [73358,"2018-09-18T09:00:00","88.7","ND","ND","ND","13.7","0.6","ND","ND","ND","ND","665","0"],
    [73359,"2018-09-18T10:00:00","63.4","ND","ND","ND","36.5","0.5","ND","ND","ND","ND","665","0"],
    [73360,"2018-09-18T11:00:00","26.2","ND","ND","ND","54.1","0.4","ND","ND","ND","ND","666","0"],
    [73361,"2018-09-18T12:00:00","31.1","ND","ND","ND","58.8","0.3","ND","ND","ND","ND","667","0"],
    [73362,"2018-09-18T13:00:00","37.9","ND","ND","ND","63.5","0.2","ND","ND","ND","ND","665","0"],
    [73363,"2018-09-18T14:00:00","18.4","ND","ND","ND","68.8","0.3","ND","ND","ND","ND","651","0"],
    [73364,"2018-09-18T15:00:00","13.2","ND","ND","ND","35.5","0.2","ND","ND","ND","ND","541","0"],
    [73365,"2018-09-18T16:00:00","14","ND","ND","ND","33.6","0.2","ND","ND","ND","ND","645","0"],
    [73366,"2018-09-18T17:00:00","27.5","ND","ND","ND","30.7","0.1","ND","ND","ND","ND","333","0"],
    [73367,"2018-09-18T18:00:00","19.5","ND","ND","ND","27.9","0.2","ND","ND","ND","ND","69","0"],
    [73368,"2018-09-18T19:00:00","18.4","ND","ND","ND","14.9","0.2","ND","ND","ND","ND","0","0"],
    [73369,"2018-09-18T20:00:00","28.3","ND","ND","ND","17.3","0.3","ND","ND","ND","ND","0","0.25"],
    [73370,"2018-09-18T21:00:00","18.6","ND","ND","ND","19.8","0.8","ND","ND","ND","ND","0","0"],
    [73371,"2018-09-18T22:00:00","25.9","ND","ND","ND","14.6","0.5","ND","ND","ND","ND","0","0"],
    [73372,"2018-09-18T23:00:00","43.8","ND","ND","ND","5.1","0.7","ND","ND","ND","ND","0","0"],
    [73373,"2018-09-19T00:00:00","54.3","ND","ND","ND","4.0","0.6","ND","ND","ND","ND","0","0"],
    [73374,"2018-09-19T01:00:00","51.1","ND","ND","ND","5.7","1.1","ND","ND","ND","ND","0","0"],
    [73375,"2018-09-19T02:00:00","43","ND","ND","ND","3.1","1.0","ND","ND","ND","ND","0","0"],
    [73376,"2018-09-19T03:00:00","39","ND","ND","ND","3.2","1.3","ND","ND","ND","ND","0","0"],
    [73377,"2018-09-19T04:00:00","43","ND","ND","ND","6.0","0.7","ND","ND","ND","ND","0","0"],
    [73378,"2018-09-19T05:00:00","49.3","ND","ND","ND","3.3","0.7","ND","ND","ND","ND","0","0"],
    [73379,"2018-09-19T06:00:00","61","ND","ND","ND","2.4","1.1","ND","ND","ND","ND","0","0"],
    [73380,"2018-09-19T07:00:00","49.8","ND","ND","ND","2.5","0.8","ND","ND","ND","ND","83","0"],
    [73381,"2018-09-19T08:00:00","51.2","ND","ND","ND","3.7","0.7","ND","ND","ND","ND","317","0"],
    [73382,"2018-09-19T09:00:00","69.3","ND","ND","ND","6.4","0.7","ND","ND","ND","ND","605","0"],
    [73383,"2018-09-19T10:00:00","102.9","ND","ND","ND","23.1","0.6","ND","ND","ND","ND","665","0"],
    [73384,"2018-09-19T11:00:00","59.7","ND","ND","ND","38.7","0.6","ND","ND","ND","ND","665","0"],
    [73385,"2018-09-19T12:00:00","37.5","ND","ND","ND","56.9","0.6","ND","ND","ND","ND","648","0"],
    [73386,"2018-09-19T13:00:00","33.5","ND","ND","ND","70.7","0.5","ND","ND","ND","ND","663","0"],
    [73387,"2018-09-19T14:00:00","32.5","ND","ND","ND","52.3","0.4","ND","ND","ND","ND","644","0"],
    [73388,"2018-09-19T15:00:00","11.6","ND","ND","ND","40.2","0.4","ND","ND","ND","ND","665","0"],
    [73389,"2018-09-19T16:00:00","17.3","ND","ND","ND","35.5","0.2","ND","ND","ND","ND","589","0"],
    [73390,"2018-09-19T17:00:00","15.4","ND","ND","ND","25.8","0.1","ND","ND","ND","ND","274","0"],
    [73391,"2018-09-19T18:00:00","3.7","ND","ND","ND","24.0","0.1","ND","ND","ND","ND","84","0"],
    [73392,"2018-09-19T19:00:00","4.2","ND","ND","ND","16.9","0.1","ND","ND","ND","ND","0","0"],
    [73393,"2018-09-19T20:00:00","31.4","ND","ND","ND","8.8","0.3","ND","ND","ND","ND","0","0"],
    [73394,"2018-09-19T21:00:00","37.2","ND","ND","ND","24.4","0.2","ND","ND","ND","ND","0","0"],
    [73395,"2018-09-19T22:00:00","25.4","ND","ND","ND","5.0","0.4","ND","ND","ND","ND","0","0"],
    [73396,"2018-09-19T23:00:00","27.8","ND","ND","ND","4.3","0.4","ND","ND","ND","ND","0","0"],
    [73397,"2018-09-20T00:00:00","33.5","ND","ND","ND","3.3","1.0","ND","ND","ND","ND","0","0"],
    [73398,"2018-09-20T01:00:00","44.1","ND","ND","ND","4.0","1.2","ND","ND","ND","ND","0","0"],
    [73399,"2018-09-20T02:00:00","63.6","ND","ND","ND","2.4","1.4","ND","ND","ND","ND","0","0"],
    [73400,"2018-09-20T03:00:00","45.9","ND","ND","ND","2.1","2.5","ND","ND","ND","ND","0","0"],
    [73401,"2018-09-20T04:00:00","45","ND","ND","ND","2.5","3.2","ND","ND","ND","ND","0","0"],
    [73402,"2018-09-20T05:00:00","63.9","ND","ND","ND","2.6","1.7","ND","ND","ND","ND","0","0"],
    [73403,"2018-09-20T06:00:00","73.9","ND","ND","ND","2.1","3.7","ND","ND","ND","ND","0","0"],
    [73404,"2018-09-20T07:00:00","75.3","ND","ND","ND","2.6","4.3","ND","ND","ND","ND","219","0"],
    [73405,"2018-09-20T08:00:00","108","ND","ND","ND","4.2","3.7","ND","ND","ND","ND","604","0"],
    [73406,"2018-09-20T09:00:00","114.9","ND","ND","ND","10.0","2.3","ND","ND","ND","ND","665","0"],
    [73407,"2018-09-20T10:00:00","72.7","ND","ND","ND","28.9","1.3","ND","ND","ND","ND","665","0"],
    [73408,"2018-09-20T11:00:00","32.3","ND","ND","ND","51.7","1.1","ND","ND","ND","ND","666","0"],
    [73409,"2018-09-20T12:00:00","29.5","ND","ND","ND","77.7","0.9","ND","ND","ND","ND","666","0"],
    [73410,"2018-09-20T13:00:00","29.7","ND","ND","ND","106.0","0.5","ND","ND","ND","ND","666","0"],
    [73411,"2018-09-20T14:00:00","33.6","ND","ND","ND","88.9","0.5","ND","ND","ND","ND","666","0"],
    [73412,"2018-09-20T15:00:00","32.5","ND","ND","ND","54.5","0.3","ND","ND","ND","ND","665","0"],
    [73413,"2018-09-20T16:00:00","43.8","ND","ND","ND","52.7","0.3","ND","ND","ND","ND","666","0"],
    [73414,"2018-09-20T17:00:00","30.9","ND","ND","ND","45.1","0.3","ND","ND","ND","ND","602","0"],
    [73415,"2018-09-20T18:00:00","18","ND","ND","ND","30.8","0.3","ND","ND","ND","ND","156","0"],
    [73416,"2018-09-20T19:00:00","2.9","ND","ND","ND","26.0","0.1","ND","ND","ND","ND","1","0.51"],
    [73417,"2018-09-20T20:00:00","18.5","ND","ND","ND","6.9","0.3","ND","ND","ND","ND","0","0"],
    [73418,"2018-09-20T21:00:00","40.6","ND","ND","ND","9.6","0.4","ND","ND","ND","ND","0","0.25"],
    [73419,"2018-09-20T22:00:00","38.7","ND","ND","ND","3.3","1.3","ND","ND","ND","ND","0","0"],
    [73420,"2018-09-20T23:00:00","29.7","ND","ND","ND","2.7","0.9","ND","ND","ND","ND","0","0"],
    [73421,"2018-09-21T00:00:00","25.7","ND","ND","ND","2.9","0.3","ND","ND","ND","ND","0","0"],
    [73422,"2018-09-21T01:00:00","21.5","ND","ND","ND","2.8","0.6","ND","ND","ND","ND","0","0"],
    [73423,"2018-09-21T02:00:00","24.1","ND","ND","ND","2.6","0.6","ND","ND","ND","ND","0","0"],
    [73424,"2018-09-21T03:00:00","51.6","ND","ND","ND","2.2","0.5","ND","ND","ND","ND","0","0"],
    [73425,"2018-09-21T04:00:00","49.3","ND","ND","ND","2.8","0.5","ND","ND","ND","ND","0","0"],
    [73426,"2018-09-21T05:00:00","46.6","ND","ND","ND","2.0","0.3","ND","ND","ND","ND","0","0"],
    [73427,"2018-09-21T06:00:00","57","ND","ND","ND","2.0","1.4","ND","ND","ND","ND","1","0"],
    [73428,"2018-09-21T07:00:00","67.6","ND","ND","ND","2.1","2.1","ND","ND","ND","ND","148","0"],
    [73429,"2018-09-21T08:00:00","119.1","ND","ND","ND","4.0","1.1","ND","ND","ND","ND","578","0"],
    [73430,"2018-09-21T09:00:00","97.3","ND","ND","ND","16.5","0.7","ND","ND","ND","ND","665","0"],
    [73431,"2018-09-21T10:00:00","62.2","ND","ND","ND","43.6","1.0","ND","ND","ND","ND","665","0"],
    [73432,"2018-09-21T11:00:00","51.2","ND","ND","ND","61.7","0.3","ND","ND","ND","ND","666","0"],
    [73433,"2018-09-21T12:00:00","35.5","ND","ND","ND","80.9","0.6","ND","ND","ND","ND","666","0"],
    [73434,"2018-09-21T13:00:00","31.2","ND","ND","ND","97.9","0.3","ND","ND","ND","ND","665","0"],
    [73435,"2018-09-21T14:00:00","29.6","ND","ND","ND","70.5","0.4","ND","ND","ND","ND","660","0"],
    [73436,"2018-09-21T15:00:00","25.5","ND","ND","ND","35.5","0.1","ND","ND","ND","ND","666","0"],
    [73437,"2018-09-21T16:00:00","17.8","ND","ND","ND","35.1","0.1","ND","ND","ND","ND","638","0"],
    [73438,"2018-09-21T17:00:00","34.6","ND","ND","ND","37.7","0.1","ND","ND","ND","ND","445","0"],
    [73439,"2018-09-21T18:00:00","14.2","ND","ND","ND","33.4","0.3","ND","ND","ND","ND","107","0"],
    [73440,"2018-09-21T19:00:00","14.6","ND","ND","ND","22.2","0.1","ND","ND","ND","ND","1","0"],
    [73441,"2018-09-21T20:00:00","44.4","ND","ND","ND","6.8","0.2","ND","ND","ND","ND","0","0"],
    [73442,"2018-09-21T21:00:00","59.4","ND","ND","ND","3.4","1.1","ND","ND","ND","ND","0","0.51"],
    [73443,"2018-09-21T22:00:00","39.2","ND","ND","ND","3.3","1.3","ND","ND","ND","ND","0","0"],
    [73444,"2018-09-21T23:00:00","32.6","ND","ND","ND","2.6","0.9","ND","ND","ND","ND","0","0"],
    [73445,"2018-09-22T00:00:00","46.5","ND","ND","ND","2.4","0.8","ND","ND","ND","ND","0","0"],
    [73446,"2018-09-22T01:00:00","42.1","ND","ND","ND","2.5","0.9","ND","ND","ND","ND","0","0"],
    [73447,"2018-09-22T02:00:00","26.9","ND","ND","ND","2.0","0.9","ND","ND","ND","ND","0","0"],
    [73448,"2018-09-22T03:00:00","26","ND","ND","ND","2.5","0.5","ND","ND","ND","ND","0","0"],
    [73449,"2018-09-22T04:00:00","29.9","ND","ND","ND","2.6","0.7","ND","ND","ND","ND","0","0"],
    [73450,"2018-09-22T05:00:00","29.9","ND","ND","ND","2.1","0.5","ND","ND","ND","ND","0","0"],
    [73451,"2018-09-22T06:00:00","41.3","ND","ND","ND","2.3","0.7","ND","ND","ND","ND","1","0"],
    [73452,"2018-09-22T07:00:00","55.2","ND","ND","ND","2.9","1.0","ND","ND","ND","ND","168","0"],
    [73453,"2018-09-22T08:00:00","79.1","ND","ND","ND","5.7","1.4","ND","ND","ND","ND","653","0"],
    [73454,"2018-09-22T09:00:00","83.8","ND","ND","ND","13.2","1.1","ND","ND","ND","ND","665","0"],
    [73455,"2018-09-22T10:00:00","61.4","ND","ND","ND","34.8","0.9","ND","ND","ND","ND","665","0"],
    [73456,"2018-09-22T11:00:00","36.9","ND","ND","ND","56.0","0.5","ND","ND","ND","ND","666","0"],
    [73457,"2018-09-22T12:00:00","28.2","ND","ND","ND","88.5","0.4","ND","ND","ND","ND","665","0"],
    [73458,"2018-09-22T13:00:00","30.5","ND","ND","ND","99.9","0.3","ND","ND","ND","ND","666","0"],
    [73459,"2018-09-22T14:00:00","29.2","ND","ND","ND","98.0","0.3","ND","ND","ND","ND","666","0"],
    [73460,"2018-09-22T15:00:00","31.8","ND","ND","ND","78.7","0.3","ND","ND","ND","ND","666","0"],
    [73461,"2018-09-22T16:00:00","27.2","ND","ND","ND","61.9","0.2","ND","ND","ND","ND","605","0"],
    [73462,"2018-09-22T17:00:00","19","ND","ND","ND","53.1","0.2","ND","ND","ND","ND","346","0"],
    [73463,"2018-09-22T18:00:00","20.4","ND","ND","ND","49.9","0.3","ND","ND","ND","ND","93","0"],
    [73464,"2018-09-22T19:00:00","16.8","ND","ND","ND","34.7","0.3","ND","ND","ND","ND","1","0"],
    [73465,"2018-09-22T20:00:00","27.2","ND","ND","ND","11.0","0.2","ND","ND","ND","ND","0","0"],
    [73466,"2018-09-22T21:00:00","34.9","ND","ND","ND","4.7","0.4","ND","ND","ND","ND","0","0"],
    [73467,"2018-09-22T22:00:00","42.5","ND","ND","ND","3.2","1.6","ND","ND","ND","ND","0","0"],
    [73468,"2018-09-22T23:00:00","39.4","ND","ND","ND","2.3","2.2","ND","ND","ND","ND","0","0"],
    [73469,"2018-09-23T00:00:00","35.8","ND","ND","ND","2.1","0.6","ND","ND","ND","ND","0","0"],
    [73470,"2018-09-23T01:00:00","45","ND","ND","ND","2.1","0.7","ND","ND","ND","ND","0","0"],
    [73471,"2018-09-23T02:00:00","81.2","ND","ND","ND","2.2","0.4","ND","ND","ND","ND","0","0"],
    [73472,"2018-09-23T03:00:00","61.9","ND","ND","ND","2.1","0.3","ND","ND","ND","ND","0","0"],
    [73473,"2018-09-23T04:00:00","50.4","ND","ND","ND","2.0","0.5","ND","ND","ND","ND","0","0"],
    [73474,"2018-09-23T05:00:00","56.7","ND","ND","ND","1.9","0.8","ND","ND","ND","ND","0","0"],
    [73475,"2018-09-23T06:00:00","66","ND","ND","ND","1.9","0.5","ND","ND","ND","ND","3","0"],
    [73476,"2018-09-23T07:00:00","53.1","ND","ND","ND","2.6","0.5","ND","ND","ND","ND","163","0"],
    [73477,"2018-09-23T08:00:00","46.6","ND","ND","ND","6.9","0.6","ND","ND","ND","ND","565","0"],
    [73478,"2018-09-23T09:00:00","40.6","ND","ND","ND","17.7","0.3","ND","ND","ND","ND","665","0"],
    [73479,"2018-09-23T10:00:00","32.2","ND","ND","ND","44.2","0.5","ND","ND","ND","ND","665","0"],
    [73480,"2018-09-23T11:00:00","38.8","ND","ND","ND","61.9","0.4","ND","ND","ND","ND","666","0"],
    [73481,"2018-09-23T12:00:00","26.3","ND","ND","ND","78.8","0.3","ND","ND","ND","ND","666","0"],
    [73482,"2018-09-23T13:00:00","13.4","ND","ND","ND","101.2","0.4","ND","ND","ND","ND","666","0"],
    [73483,"2018-09-23T14:00:00","25.9","ND","ND","ND","93.0","0.6","ND","ND","ND","ND","648","0"],
    [73484,"2018-09-23T15:00:00","27.3","ND","ND","ND","50.6","0.2","ND","ND","ND","ND","649","0"],
    [73485,"2018-09-23T16:00:00","9.1","ND","ND","ND","56.0","0.2","ND","ND","ND","ND","617","0"],
    [73486,"2018-09-23T17:00:00","10.2","ND","ND","ND","43.6","0.2","ND","ND","ND","ND","292","0"],
    [73487,"2018-09-23T18:00:00","15.3","ND","ND","ND","36.9","0.2","ND","ND","ND","ND","84","0"],
    [73488,"2018-09-23T19:00:00","15.8","ND","ND","ND","25.5","0.1","ND","ND","ND","ND","0","0"],
    [73489,"2018-09-23T20:00:00","22.8","ND","ND","ND","6.7","0.4","ND","ND","ND","ND","0","0"],
    [73490,"2018-09-23T21:00:00","20.9","ND","ND","ND","3.4","1.1","ND","ND","ND","ND","0","0"],
    [73491,"2018-09-23T22:00:00","27.4","ND","ND","ND","2.8","1.2","ND","ND","ND","ND","0","0"],
    [73492,"2018-09-23T23:00:00","41","ND","ND","ND","2.7","0.3","ND","ND","ND","ND","0","0"],
    [73493,"2018-09-24T00:00:00","31.5","ND","ND","ND","2.8","0.7","ND","ND","ND","ND","0","0"],
    [73494,"2018-09-24T01:00:00","25.6","ND","ND","ND","2.5","3.1","ND","ND","ND","ND","0","0"],
    [73495,"2018-09-24T02:00:00","25.8","ND","ND","ND","2.5","2.5","ND","ND","ND","ND","0","0"],
    [73496,"2018-09-24T03:00:00","17.6","ND","ND","ND","2.4","2.1","ND","ND","ND","ND","0","0"],
    [73497,"2018-09-24T04:00:00","32.1","ND","ND","ND","3.5","0.8","ND","ND","ND","ND","0","0"],
    [73498,"2018-09-24T05:00:00","39.3","ND","ND","ND","5.2","0.4","ND","ND","ND","ND","0","0"],
    [73499,"2018-09-24T06:00:00","28.8","ND","ND","ND","3.7","0.5","ND","ND","ND","ND","2","0"],
    [73500,"2018-09-24T07:00:00","51.1","ND","ND","ND","2.9","0.8","ND","ND","ND","ND","185","0"],
    [73501,"2018-09-24T08:00:00","106.2","ND","ND","ND","5.0","1.2","ND","ND","ND","ND","592","0"],
    [73502,"2018-09-24T09:00:00","84.4","ND","ND","ND","17.4","1.4","ND","ND","ND","ND","665","0"],
    [73503,"2018-09-24T10:00:00","60.4","ND","ND","ND","43.8","0.8","ND","ND","ND","ND","665","0"],
    [73504,"2018-09-24T11:00:00","26.4","ND","ND","ND","ND","8.4","ND","ND","ND","ND","666","0"],
    [73505,"2018-09-24T12:00:00","33.4","ND","ND","ND","65.4","4.1","ND","ND","ND","ND","666","0"],
    [73506,"2018-09-24T13:00:00","32.8","ND","ND","ND","82.9","0.6","ND","ND","ND","ND","666","0"],
    [73507,"2018-09-24T14:00:00","25.3","ND","ND","ND","94.5","0.3","ND","ND","ND","ND","666","0"],
    [73508,"2018-09-24T15:00:00","24.6","ND","ND","ND","99.2","0.3","ND","ND","ND","ND","666","0"],
    [73509,"2018-09-24T16:00:00","26.3","ND","ND","ND","86.9","0.2","ND","ND","ND","ND","570","0"],
    [73510,"2018-09-24T17:00:00","29.4","ND","ND","ND","77.8","0.2","ND","ND","ND","ND","602","0"],
    [73511,"2018-09-24T18:00:00","28.2","ND","ND","ND","40.6","0.2","ND","ND","ND","ND","121","0"],
    [73512,"2018-09-24T19:00:00","27.4","ND","ND","ND","31.0","0.1","ND","ND","ND","ND","0","0"],
    [73513,"2018-09-24T20:00:00","28.3","ND","ND","ND","20.0","0.1","ND","ND","ND","ND","0","0"],
    [73514,"2018-09-24T21:00:00","35.6","ND","ND","ND","12.6","1.2","ND","ND","ND","ND","0","0"],
    [73515,"2018-09-24T22:00:00","30.5","ND","ND","ND","3.7","4.2","ND","ND","ND","ND","0","0"],
    [73516,"2018-09-24T23:00:00","34.5","ND","ND","ND","4.3","2.1","ND","ND","ND","ND","0","0"],
    [73517,"2018-09-25T00:00:00","32","ND","ND","ND","3.5","0.7","ND","ND","ND","ND","0","0"],
    [73518,"2018-09-25T01:00:00","35.4","ND","ND","ND","4.1","0.6","ND","ND","ND","ND","0","0"],
    [73519,"2018-09-25T02:00:00","36.5","ND","ND","ND","2.6","1.8","ND","ND","ND","ND","0","0"],
    [73520,"2018-09-25T03:00:00","70.4","ND","ND","ND","3.3","1.4","ND","ND","ND","ND","0","0"],
    [73521,"2018-09-25T04:00:00","51.1","ND","ND","ND","4.2","1.1","ND","ND","ND","ND","0","0"],
    [73522,"2018-09-25T05:00:00","37.4","ND","ND","ND","3.5","0.8","ND","ND","ND","ND","0","0"],
    [73523,"2018-09-25T06:00:00","35.7","ND","ND","ND","3.0","0.6","ND","ND","ND","ND","7","0"],
    [73524,"2018-09-25T07:00:00","53.7","ND","ND","ND","3.0","0.3","ND","ND","ND","ND","291","0"],
    [73525,"2018-09-25T08:00:00","81.1","ND","ND","ND","6.3","1.0","ND","ND","ND","ND","566","0"],
    [73526,"2018-09-25T09:00:00","62.1","ND","ND","ND","17.4","0.8","ND","ND","ND","ND","665","0"],
    [73527,"2018-09-25T10:00:00","46.9","ND","ND","ND","27.5","0.4","ND","ND","ND","ND","665","0"],
    [73528,"2018-09-25T11:00:00","50","ND","ND","ND","44.8","0.7","ND","ND","ND","ND","665","0"],
    [73529,"2018-09-25T12:00:00","49.9","ND","ND","ND","79.1","0.5","ND","ND","ND","ND","666","0"],
    [73530,"2018-09-25T13:00:00","39.4","ND","ND","ND","103.8","0.5","ND","ND","ND","ND","666","0"],
    [73531,"2018-09-25T14:00:00","49.4","ND","ND","ND","138.5","0.7","ND","ND","ND","ND","666","0"],
    [73532,"2018-09-25T15:00:00","44.2","ND","ND","ND","117.5","0.4","ND","ND","ND","ND","624","0"],
    [73533,"2018-09-25T16:00:00","38.6","ND","ND","ND","105.4","0.8","ND","ND","ND","ND","552","0"],
    [73534,"2018-09-25T17:00:00","17.5","ND","ND","ND","53.9","0.3","ND","ND","ND","ND","412","0"],
    [73535,"2018-09-25T18:00:00","24","ND","ND","ND","32.6","0.1","ND","ND","ND","ND","97","0"],
    [73536,"2018-09-25T19:00:00","28.5","ND","ND","ND","19.5","0.1","ND","ND","ND","ND","0","0"],
    [73537,"2018-09-25T20:00:00","27.1","ND","ND","ND","8.9","0.2","ND","ND","ND","ND","0","0"],
    [73538,"2018-09-25T21:00:00","43.3","ND","ND","ND","2.8","1.0","ND","ND","ND","ND","0","0"],
    [73539,"2018-09-25T22:00:00","35.8","ND","ND","ND","3.0","4.0","ND","ND","ND","ND","0","0"],
    [73540,"2018-09-25T23:00:00","42.7","ND","ND","ND","3.3","5.0","ND","ND","ND","ND","0","0.51"],
    [73541,"2018-09-26T00:00:00","30.6","ND","ND","ND","3.3","1.4","ND","ND","ND","ND","0","0"],
    [73542,"2018-09-26T01:00:00","18.9","ND","ND","ND","3.2","2.5","ND","ND","ND","ND","0","0"],
    [73543,"2018-09-26T02:00:00","15.6","ND","ND","ND","2.8","2.2","ND","ND","ND","ND","0","0"],
    [73544,"2018-09-26T03:00:00","38.7","ND","ND","ND","2.8","1.6","ND","ND","ND","ND","0","0"],
    [73545,"2018-09-26T04:00:00","32","ND","ND","ND","4.9","0.4","ND","ND","ND","ND","0","0"],
    [73546,"2018-09-26T05:00:00","35.8","ND","ND","ND","3.5","1.2","ND","ND","ND","ND","0","0"],
    [73547,"2018-09-26T06:00:00","64.8","ND","ND","ND","2.9","1.6","ND","ND","ND","ND","0","0"],
    [73548,"2018-09-26T07:00:00","70.2","ND","ND","ND","3.2","1.4","ND","ND","ND","ND","116","0"],
    [73549,"2018-09-26T08:00:00","81.2","ND","ND","ND","5.3","1.2","ND","ND","ND","ND","543","0"],
    [73550,"2018-09-26T09:00:00","63.4","ND","ND","ND","10.6","0.4","ND","ND","ND","ND","533","0"],
    [73551,"2018-09-26T10:00:00","74.1","ND","ND","ND","18.3","1.3","ND","ND","ND","ND","651","0"],
    [73552,"2018-09-26T11:00:00","62.4","ND","ND","ND","51.9","0.7","ND","ND","ND","ND","666","0"],
    [73553,"2018-09-26T12:00:00","72.9","ND","ND","ND","69.3","0.8","ND","ND","ND","ND","666","0"],
    [73554,"2018-09-26T13:00:00","62.3","ND","ND","ND","74.6","0.9","ND","ND","ND","ND","664","0"],
    [73555,"2018-09-26T14:00:00","32.8","ND","ND","ND","38.6","0.2","ND","ND","ND","ND","318","0"],
    [73556,"2018-09-26T15:00:00","21.5","ND","ND","ND","28.1","0.1","ND","ND","ND","ND","611","0"],
    [73557,"2018-09-26T16:00:00","21.7","ND","ND","ND","34.9","0.1","ND","ND","ND","ND","666","0"],
    [73558,"2018-09-26T17:00:00","22.9","ND","ND","ND","34.4","0.3","ND","ND","ND","ND","429","0"],
    [73559,"2018-09-26T18:00:00","16","ND","ND","ND","34.9","0.1","ND","ND","ND","ND","85","0"],
    [73560,"2018-09-26T19:00:00","27.1","ND","ND","ND","31.6","0.1","ND","ND","ND","ND","0","0"],
    [73561,"2018-09-26T20:00:00","37.5","ND","ND","ND","7.7","0.4","ND","ND","ND","ND","0","0"],
    [73562,"2018-09-26T21:00:00","51.4","ND","ND","ND","5.9","1.4","ND","ND","ND","ND","0","0"],
    [73563,"2018-09-26T22:00:00","39.2","ND","ND","ND","3.9","0.8","ND","ND","ND","ND","0","0.25"],
    [73564,"2018-09-26T23:00:00","34.3","ND","ND","ND","3.5","0.5","ND","ND","ND","ND","0","0"],
    [73565,"2018-09-27T00:00:00","39.4","ND","ND","ND","2.8","0.6","ND","ND","ND","ND","0","0"],
    [73566,"2018-09-27T01:00:00","55.1","ND","ND","ND","3.9","0.5","ND","ND","ND","ND","0","0"],
    [73567,"2018-09-27T02:00:00","64.5","ND","ND","ND","5.8","0.5","ND","ND","ND","ND","0","0.51"],
    [73568,"2018-09-27T03:00:00","36.6","ND","ND","ND","2.5","0.3","ND","ND","ND","ND","0","8.13"],
    [73569,"2018-09-27T04:00:00","15.2","ND","ND","ND","1.8","0.2","ND","ND","ND","ND","0","0.25"],
    [73570,"2018-09-27T05:00:00","16","ND","ND","ND","1.8","0.2","ND","ND","ND","ND","0","0.25"],
    [73571,"2018-09-27T06:00:00","28.2","ND","ND","ND","1.7","0.4","ND","ND","ND","ND","0","0"],
    [73572,"2018-09-27T07:00:00","29.8","ND","ND","ND","1.5","0.4","ND","ND","ND","ND","84","0"],
    [73573,"2018-09-27T08:00:00","47.7","ND","ND","ND","1.9","0.7","ND","ND","ND","ND","477","0"],
    [73574,"2018-09-27T09:00:00","58.2","ND","ND","ND","4.4","0.4","ND","ND","ND","ND","658","0"],
    [73575,"2018-09-27T10:00:00","35.2","ND","ND","ND","9.2","0.5","ND","ND","ND","ND","665","0"],
    [73576,"2018-09-27T11:00:00","21","ND","ND","ND","23.0","0.3","ND","ND","ND","ND","665","0"],
    [73577,"2018-09-27T12:00:00","17.2","ND","ND","ND","35.1","0.1","ND","ND","ND","ND","665","0"],
    [73578,"2018-09-27T13:00:00","14.9","ND","ND","ND","43.1","0.3","ND","ND","ND","ND","666","0"],
    [73579,"2018-09-27T14:00:00","10.9","ND","ND","ND","38.6","0.2","ND","ND","ND","ND","624","0"],
    [73580,"2018-09-27T15:00:00","10.3","ND","ND","ND","23.9","0.2","ND","ND","ND","ND","564","0"],
    [73581,"2018-09-27T16:00:00","11.6","ND","ND","ND","26.2","0.0","ND","ND","ND","ND","649","0"],
    [73582,"2018-09-27T17:00:00","14.5","ND","ND","ND","25.2","0.1","ND","ND","ND","ND","551","0"],
    [73583,"2018-09-27T18:00:00","10.1","ND","ND","ND","19.4","0.1","ND","ND","ND","ND","71","0"],
    [73584,"2018-09-27T19:00:00","7","ND","ND","ND","11.9","0.1","ND","ND","ND","ND","0","0"],
    [73585,"2018-09-27T20:00:00","28.7","ND","ND","ND","4.5","0.2","ND","ND","ND","ND","0","0"],
    [73586,"2018-09-27T21:00:00","31.8","ND","ND","ND","2.8","0.1","ND","ND","ND","ND","0","0"],
    [73587,"2018-09-27T22:00:00","21.6","ND","ND","ND","2.7","1.9","ND","ND","ND","ND","0","0"],
    [73588,"2018-09-27T23:00:00","23.2","ND","ND","ND","2.3","1.0","ND","ND","ND","ND","0","0"],
    [73589,"2018-09-28T00:00:00","23.2","ND","ND","ND","1.8","0.6","ND","ND","ND","ND","0","0"],
    [73590,"2018-09-28T01:00:00","41","ND","ND","ND","2.4","1.1","ND","ND","ND","ND","0","0"],
    [73591,"2018-09-28T02:00:00","37.3","ND","ND","ND","2.0","1.1","ND","ND","ND","ND","0","0"],
    [73592,"2018-09-28T03:00:00","35.9","ND","ND","ND","2.3","2.6","ND","ND","ND","ND","0","0"],
    [73593,"2018-09-28T04:00:00","52","ND","ND","ND","1.7","1.4","ND","ND","ND","ND","0","0"],
    [73594,"2018-09-28T05:00:00","50.1","ND","ND","ND","1.6","1.0","ND","ND","ND","ND","0","0"],
    [73595,"2018-09-28T06:00:00","44.4","ND","ND","ND","1.6","0.7","ND","ND","ND","ND","0","0"],
    [73596,"2018-09-28T07:00:00","55.8","ND","ND","ND","1.8","1.3","ND","ND","ND","ND","53","0"],
    [73597,"2018-09-28T08:00:00","73.7","ND","ND","ND","2.5","1.3","ND","ND","ND","ND","299","0"],
    [73598,"2018-09-28T09:00:00","79.3","ND","ND","ND","9.2","1.2","ND","ND","ND","ND","664","0"],
    [73599,"2018-09-28T10:00:00","67","ND","ND","ND","29.2","1.1","ND","ND","ND","ND","654","0"],
    [73600,"2018-09-28T11:00:00","39.3","ND","ND","ND","46.5","0.5","ND","ND","ND","ND","665","0"],
    [73601,"2018-09-28T12:00:00","20.5","ND","ND","ND","60.5","0.8","ND","ND","ND","ND","666","0"],
    [73602,"2018-09-28T13:00:00","15.2","ND","ND","ND","64.4","0.4","ND","ND","ND","ND","666","0"],
    [73603,"2018-09-28T14:00:00","12.3","ND","ND","ND","62.9","0.8","ND","ND","ND","ND","608","0"],
    [73604,"2018-09-28T15:00:00","16.2","ND","ND","ND","32.0","0.3","ND","ND","ND","ND","621","0"],
    [73605,"2018-09-28T16:00:00","10.4","ND","ND","ND","32.1","0.1","ND","ND","ND","ND","640","0"],
    [73606,"2018-09-28T17:00:00","21.2","ND","ND","ND","28.6","0.2","ND","ND","ND","ND","590","0"],
    [73607,"2018-09-28T18:00:00","19.2","ND","ND","ND","26.8","0.2","ND","ND","ND","ND","281","0"],
    [73608,"2018-09-28T19:00:00","17.5","ND","ND","ND","18.9","0.2","ND","ND","ND","ND","0","0"],
    [73609,"2018-09-28T20:00:00","19.5","ND","ND","ND","17.4","0.3","ND","ND","ND","ND","0","0"],
    [73610,"2018-09-28T21:00:00","27.2","ND","ND","ND","4.1","0.4","ND","ND","ND","ND","0","0"],
    [73611,"2018-09-28T22:00:00","27.7","ND","ND","ND","7.2","0.5","ND","ND","ND","ND","0","0"],
    [73612,"2018-09-28T23:00:00","28.1","ND","ND","ND","7.6","0.7","ND","ND","ND","ND","0","0"],
    [73613,"2018-09-29T00:00:00","28.8","ND","ND","ND","6.0","0.8","ND","ND","ND","ND","0","0"],
    [73614,"2018-09-29T01:00:00","10.5","ND","ND","ND","13.3","0.4","ND","ND","ND","ND","0","0"],
    [73615,"2018-09-29T02:00:00","0.8","ND","ND","ND","18.0","0.7","ND","ND","ND","ND","0","0"],
    [73616,"2018-09-29T03:00:00","14.2","ND","ND","ND","7.3","0.6","ND","ND","ND","ND","0","0"],
    [73617,"2018-09-29T04:00:00","52.5","ND","ND","ND","2.5","0.6","ND","ND","ND","ND","0","0"],
    [73618,"2018-09-29T05:00:00","59","ND","ND","ND","3.2","0.7","ND","ND","ND","ND","0","0"],
    [73619,"2018-09-29T06:00:00","46.9","ND","ND","ND","2.7","0.6","ND","ND","ND","ND","0","0"],
    [73620,"2018-09-29T07:00:00","54.6","ND","ND","ND","2.0","0.9","ND","ND","ND","ND","103","0"],
    [73621,"2018-09-29T08:00:00","72.1","ND","ND","ND","3.4","0.7","ND","ND","ND","ND","453","0"],
    [73622,"2018-09-29T09:00:00","68.9","ND","ND","ND","17.1","0.7","ND","ND","ND","ND","649","0"],
    [73623,"2018-09-29T10:00:00","32.9","ND","ND","ND","41.6","0.8","ND","ND","ND","ND","665","0"],
    [73624,"2018-09-29T11:00:00","12","ND","ND","ND","65.8","0.5","ND","ND","ND","ND","666","0"],
    [73625,"2018-09-29T12:00:00","31.8","ND","ND","ND","100.3","0.7","ND","ND","ND","ND","666","0"],
    [73626,"2018-09-29T13:00:00","37.5","ND","ND","ND","120.3","0.3","ND","ND","ND","ND","666","0"],
    [73627,"2018-09-29T14:00:00","38.7","ND","ND","ND","82.4","0.5","ND","ND","ND","ND","645","0"],
    [73628,"2018-09-29T15:00:00","16.9","ND","ND","ND","45.1","0.1","ND","ND","ND","ND","642","0"],
    [73629,"2018-09-29T16:00:00","15.1","ND","ND","ND","44.3","0.2","ND","ND","ND","ND","666","0"],
    [73630,"2018-09-29T17:00:00","14","ND","ND","ND","46.1","0.1","ND","ND","ND","ND","583","0"],
    [73631,"2018-09-29T18:00:00","10.9","ND","ND","ND","43.6","0.1","ND","ND","ND","ND","89","0"],
    [73632,"2018-09-29T19:00:00","12.8","ND","ND","ND","19.0","0.1","ND","ND","ND","ND","0","0"],
    [73633,"2018-09-29T20:00:00","45.8","ND","ND","ND","12.6","0.2","ND","ND","ND","ND","0","0"],
    [73634,"2018-09-29T21:00:00","55.2","ND","ND","ND","2.6","0.2","ND","ND","ND","ND","0","0"],
    [73635,"2018-09-29T22:00:00","38.1","ND","ND","ND","1.9","0.8","ND","ND","ND","ND","0","0"],
    [73636,"2018-09-29T23:00:00","31.4","ND","ND","ND","2.4","0.9","ND","ND","ND","ND","0","0"],
    [73637,"2018-09-30T00:00:00","37.2","ND","ND","ND","3.7","0.6","ND","ND","ND","ND","0","0"],
    [73638,"2018-09-30T01:00:00","33.8","ND","ND","ND","3.7","0.5","ND","ND","ND","ND","0","0"],
    [73639,"2018-09-30T02:00:00","27.4","ND","ND","ND","3.0","0.8","ND","ND","ND","ND","0","0"],
    [73640,"2018-09-30T03:00:00","39.6","ND","ND","ND","2.7","0.6","ND","ND","ND","ND","0","0"],
    [73641,"2018-09-30T04:00:00","46.5","ND","ND","ND","2.6","1.2","ND","ND","ND","ND","0","0"],
    [73642,"2018-09-30T05:00:00","40.9","ND","ND","ND","3.0","0.4","ND","ND","ND","ND","0","0"],
    [73643,"2018-09-30T06:00:00","27.4","ND","ND","ND","2.4","0.3","ND","ND","ND","ND","0","0"],
    [73644,"2018-09-30T07:00:00","31.2","ND","ND","ND","2.5","0.7","ND","ND","ND","ND","93","0"],
    [73645,"2018-09-30T08:00:00","54.2","ND","ND","ND","4.4","1.4","ND","ND","ND","ND","418","0"],
    [73646,"2018-09-30T09:00:00","47.4","ND","ND","ND","9.3","1.0","ND","ND","ND","ND","656","0"],
    [73647,"2018-09-30T10:00:00","62","ND","ND","ND","21.5","0.8","ND","ND","ND","ND","665","0"],
    [73648,"2018-09-30T11:00:00","35.6","ND","ND","ND","42.2","0.8","ND","ND","ND","ND","665","0"],
    [73649,"2018-09-30T12:00:00","22.5","ND","ND","ND","53.4","0.3","ND","ND","ND","ND","666","0"],
    [73650,"2018-09-30T13:00:00","12.2","ND","ND","ND","38.2","0.3","ND","ND","ND","ND","666","0"],
    [73651,"2018-09-30T14:00:00","10.6","ND","ND","ND","31.3","0.1","ND","ND","ND","ND","666","0"],
    [73652,"2018-09-30T15:00:00","4.1","ND","ND","ND","36.0","0.1","ND","ND","ND","ND","666","0"],
    [73653,"2018-09-30T16:00:00","3.2","ND","ND","ND","38.6","0.2","ND","ND","ND","ND","666","0"],
    [73654,"2018-09-30T17:00:00","0.2","ND","ND","ND","39.1","0.1","ND","ND","ND","ND","601","0"],
    [73655,"2018-09-30T18:00:00","0.6","ND","ND","ND","25.6","0.1","ND","ND","ND","ND","122","0"],
    [73656,"2018-09-30T19:00:00","1.9","ND","ND","ND","15.3","0.1","ND","ND","ND","ND","0","0"],
    [73657,"2018-09-30T20:00:00","1.9","ND","ND","ND","4.2","0.1","ND","ND","ND","ND","0","0"],
    [73658,"2018-09-30T21:00:00","43.6","ND","ND","ND","3.8","0.5","ND","ND","ND","ND","0","0"],
    [73659,"2018-09-30T22:00:00","49.4","ND","ND","ND","1.8","1.4","ND","ND","ND","ND","0","0"],
    [73660,"2018-09-30T23:00:00","57.4","ND","ND","ND","1.7","0.3","ND","ND","ND","ND","0","0"],
    [73661,"2018-10-01T00:00:00","51.6","ND","ND","ND","2.2","0.2","ND","ND","ND","ND","0","0"],
    [73662,"2018-10-01T01:00:00","41.6","ND","ND","ND","2.5","0.5","ND","ND","ND","ND","0","0"],
    [73663,"2018-10-01T02:00:00","33","ND","ND","ND","3.6","0.6","ND","ND","ND","ND","0","0"],
    [73664,"2018-10-01T03:00:00","24","ND","ND","ND","4.6","0.4","ND","ND","ND","ND","0","0"],
    [73665,"2018-10-01T04:00:00","18.7","ND","ND","ND","10.0","0.4","ND","ND","ND","ND","0","0"],
    [73666,"2018-10-01T05:00:00","14.2","ND","ND","ND","5.7","0.6","ND","ND","ND","ND","0","0"],
    [73667,"2018-10-01T06:00:00","18.8","ND","ND","ND","6.6","0.3","ND","ND","ND","ND","0","0"],
    [73668,"2018-10-01T07:00:00","7.1","ND","ND","ND","7.5","0.4","ND","ND","ND","ND","61","0.25"],
    [73669,"2018-10-01T08:00:00","15.8","ND","ND","ND","5.9","0.3","ND","ND","ND","ND","464","0.25"],
    [73670,"2018-10-01T09:00:00","35.9","ND","ND","ND","10.4","0.6","ND","ND","ND","ND","665","0"],
    [73671,"2018-10-01T10:00:00","30.7","ND","ND","ND","23.6","0.6","ND","ND","ND","ND","658","0"],
    [73672,"2018-10-01T11:00:00","24.9","ND","ND","ND","37.4","0.2","ND","ND","ND","ND","665","0"],
    [73673,"2018-10-01T12:00:00","17.9","ND","ND","ND","66.2","0.2","ND","ND","ND","ND","666","0"],
    [73674,"2018-10-01T13:00:00","21.1","ND","ND","ND","95.0","0.4","ND","ND","ND","ND","666","0"],
    [73675,"2018-10-01T14:00:00","33.7","ND","ND","ND","93.5","0.4","ND","ND","ND","ND","659","0"],
    [73676,"2018-10-01T15:00:00","27.2","ND","ND","ND","37.1","0.3","ND","ND","ND","ND","635","0"],
    [73677,"2018-10-01T16:00:00","23.5","ND","ND","ND","22.9","0.2","ND","ND","ND","ND","666","0"],
    [73678,"2018-10-01T17:00:00","21.7","ND","ND","ND","19.7","0.1","ND","ND","ND","ND","596","0"],
    [73679,"2018-10-01T18:00:00","13.5","ND","ND","ND","14.4","0.1","ND","ND","ND","ND","139","0"],
    [73680,"2018-10-01T19:00:00","17.5","ND","ND","ND","5.7","0.2","ND","ND","ND","ND","0","0"],
    [73681,"2018-10-01T20:00:00","34.7","ND","ND","ND","2.8","0.3","ND","ND","ND","ND","0","0"],
    [73682,"2018-10-01T21:00:00","38.6","ND","ND","ND","2.7","0.4","ND","ND","ND","ND","0","0.51"],
    [73683,"2018-10-01T22:00:00","43.8","ND","ND","ND","2.5","1.1","ND","ND","ND","ND","0","0"],
    [73684,"2018-10-01T23:00:00","51.7","ND","ND","ND","2.4","1.7","ND","ND","ND","ND","0","0"],
    [73685,"2018-10-02T00:00:00","25.2","ND","ND","ND","2.6","2.1","ND","ND","ND","ND","0","0"],
    [73686,"2018-10-02T01:00:00","21.5","ND","ND","ND","2.7","0.8","ND","ND","ND","ND","0","0"],
    [73687,"2018-10-02T02:00:00","16.5","ND","ND","ND","2.0","1.1","ND","ND","ND","ND","0","0"],
    [73688,"2018-10-02T03:00:00","20.7","ND","ND","ND","2.5","0.6","ND","ND","ND","ND","0","0"],
    [73689,"2018-10-02T04:00:00","27.7","ND","ND","ND","1.8","0.9","ND","ND","ND","ND","0","0"],
    [73690,"2018-10-02T05:00:00","27.2","ND","ND","ND","1.6","0.6","ND","ND","ND","ND","0","0"],
    [73691,"2018-10-02T06:00:00","33.8","ND","ND","ND","1.8","0.8","ND","ND","ND","ND","0","0"],
    [73692,"2018-10-02T07:00:00","60","ND","ND","ND","1.8","0.8","ND","ND","ND","ND","68","0"],
    [73693,"2018-10-02T08:00:00","53.4","ND","ND","ND","2.4","0.5","ND","ND","ND","ND","430","0"],
    [73694,"2018-10-02T09:00:00","77.1","ND","ND","ND","7.1","0.5","ND","ND","ND","ND","657","0"],
    [73695,"2018-10-02T10:00:00","64.6","ND","ND","ND","27.8","0.6","ND","ND","ND","ND","665","0"],
    [73696,"2018-10-02T11:00:00","37.3","ND","ND","ND","48.1","0.4","ND","ND","ND","ND","655","0"],
    [73697,"2018-10-02T12:00:00","24.3","ND","ND","ND","64.5","0.3","ND","ND","ND","ND","666","0"],
    [73698,"2018-10-02T13:00:00","24.8","ND","ND","ND","71.2","0.5","ND","ND","ND","ND","666","0"],
    [73699,"2018-10-02T14:00:00","25.8","ND","ND","ND","64.2","0.5","ND","ND","ND","ND","622","0"],
    [73700,"2018-10-02T15:00:00","14.2","ND","ND","ND","34.3","0.1","ND","ND","ND","ND","666","0"],
    [73701,"2018-10-02T16:00:00","14.4","ND","ND","ND","24.5","0.3","ND","ND","ND","ND","666","0"],
    [73702,"2018-10-02T17:00:00","27.2","ND","ND","ND","20.2","0.2","ND","ND","ND","ND","590","0"],
    [73703,"2018-10-02T18:00:00","ND","ND","ND","ND","18.8","0.2","ND","ND","ND","ND","138","0"],
    [73704,"2018-10-02T19:00:00","ND","ND","ND","ND","15.3","0.1","ND","ND","ND","ND","0","0"],
    [73705,"2018-10-02T20:00:00","ND","ND","ND","ND","5.5","0.3","ND","ND","ND","ND","0","0"],
    [73706,"2018-10-02T21:00:00","ND","ND","ND","ND","3.1","0.4","ND","ND","ND","ND","0","0"],
    [73707,"2018-10-02T22:00:00","ND","ND","ND","ND","3.5","0.3","ND","ND","ND","ND","0","0"],
    [73708,"2018-10-02T23:00:00","ND","ND","ND","ND","2.5","0.6","ND","ND","ND","ND","0","0"],
    [73709,"2018-10-03T00:00:00","ND","ND","ND","ND","2.9","0.4","ND","ND","ND","ND","0","0"],
    [73710,"2018-10-03T01:00:00","ND","ND","ND","ND","2.8","0.4","ND","ND","ND","ND","0","0"],
    [73711,"2018-10-03T02:00:00","ND","ND","ND","ND","2.8","0.3","ND","ND","ND","ND","0","0"],
    [73712,"2018-10-03T03:00:00","ND","ND","ND","ND","2.4","1.0","ND","ND","ND","ND","0","0"],
    [73713,"2018-10-03T04:00:00","ND","ND","ND","ND","2.0","0.6","ND","ND","ND","ND","0","0"],
    [73714,"2018-10-03T05:00:00","ND","ND","ND","ND","2.1","0.3","ND","ND","ND","ND","0","0"],
    [73715,"2018-10-03T06:00:00","ND","ND","ND","ND","1.9","0.4","ND","ND","ND","ND","0","0"],
    [73716,"2018-10-03T07:00:00","ND","ND","ND","ND","1.7","0.4","ND","ND","ND","ND","167","0"],
    [73717,"2018-10-03T08:00:00","ND","ND","ND","ND","3.5","0.6","ND","ND","ND","ND","605","0"],
    [73718,"2018-10-03T09:00:00","ND","ND","ND","ND","15.5","0.7","ND","ND","ND","ND","665","0"],
    [73719,"2018-10-03T10:00:00","ND","ND","ND","ND","35.5","0.6","ND","ND","ND","ND","665","0"],
    [73720,"2018-10-03T11:00:00","ND","ND","ND","ND","51.6","0.4","ND","ND","ND","ND","666","0"],
    [73721,"2018-10-03T12:00:00","ND","ND","ND","ND","61.8","0.3","ND","ND","ND","ND","554","0"],
    [73722,"2018-10-03T13:00:00","ND","ND","ND","ND","32.8","0.4","ND","ND","ND","ND","445","1.27"],
    [73723,"2018-10-03T14:00:00","ND","ND","ND","ND","22.7","0.3","ND","ND","ND","ND","665","0"],
    [73724,"2018-10-03T15:00:00","ND","ND","ND","ND","22.3","0.2","ND","ND","ND","ND","524","0"],
    [73725,"2018-10-03T16:00:00","ND","ND","ND","ND","24.7","0.2","ND","ND","ND","ND","377","0"],
    [73726,"2018-10-03T17:00:00","ND","ND","ND","ND","22.3","0.2","ND","ND","ND","ND","373","0"],
    [73727,"2018-10-03T18:00:00","ND","ND","ND","ND","9.9","0.2","ND","ND","ND","ND","83","0"],
    [73728,"2018-10-03T19:00:00","ND","ND","ND","ND","6.3","0.1","ND","ND","ND","ND","0","0"],
    [73729,"2018-10-03T20:00:00","ND","ND","ND","ND","2.5","0.5","ND","ND","ND","ND","0","0.51"],
    [73730,"2018-10-03T21:00:00","ND","ND","ND","ND","2.4","0.1","ND","ND","ND","ND","0","0"],
    [73731,"2018-10-03T22:00:00","ND","ND","ND","ND","2.6","0.3","ND","ND","ND","ND","0","0"],
    [73732,"2018-10-03T23:00:00","ND","ND","ND","ND","3.0","0.2","ND","ND","ND","ND","0","0.25"],
    [73733,"2018-10-04T00:00:00","ND","ND","ND","ND","4.9","0.3","ND","ND","ND","ND","0","3.56"],
    [73734,"2018-10-04T01:00:00","ND","ND","ND","ND","1.6","0.1","ND","ND","ND","ND","0","2.29"],
    [73735,"2018-10-04T02:00:00","ND","ND","ND","ND","1.5","0.0","ND","ND","ND","ND","0","0.25"],
    [73736,"2018-10-04T03:00:00","ND","ND","ND","ND","1.9","0.1","ND","ND","ND","ND","0","5.59"],
    [73737,"2018-10-04T04:00:00","ND","ND","ND","ND","2.0","0.0","ND","ND","ND","ND","0","1.27"],
    [73738,"2018-10-04T05:00:00","ND","ND","ND","ND","3.0","0.1","ND","ND","ND","ND","0","1.02"],
    [73739,"2018-10-04T06:00:00","ND","ND","ND","ND","2.7","0.1","ND","ND","ND","ND","0","3.3"],
    [73740,"2018-10-04T07:00:00","ND","ND","ND","ND","2.0","0.2","ND","ND","ND","ND","13","2.03"],
    [73741,"2018-10-04T08:00:00","ND","ND","ND","ND","1.4","0.3","ND","ND","ND","ND","114","0.76"],
    [73742,"2018-10-04T09:00:00","ND","ND","ND","ND","4.4","0.1","ND","ND","ND","ND","538","0"],
    [73743,"2018-10-04T10:00:00","ND","ND","ND","ND","26.7","0.1","ND","ND","ND","ND","664","0"],
    [73744,"2018-10-04T11:00:00","ND","ND","ND","ND","53.3","0.1","ND","ND","ND","ND","665","0"],
    [73745,"2018-10-04T12:00:00","ND","ND","ND","ND","71.9","0.2","ND","ND","ND","ND","665","0"],
    [73746,"2018-10-04T13:00:00","ND","ND","ND","ND","88.8","0.1","ND","ND","ND","ND","666","0"],
    [73747,"2018-10-04T14:00:00","ND","ND","ND","ND","97.4","0.1","ND","ND","ND","ND","666","0"],
    [73748,"2018-10-04T15:00:00","ND","ND","ND","ND","95.2","0.2","ND","ND","ND","ND","624","0"],
    [73749,"2018-10-04T16:00:00","ND","ND","ND","ND","54.9","0.3","ND","ND","ND","ND","598","0"],
    [73750,"2018-10-04T17:00:00","ND","ND","ND","ND","20.0","0.0","ND","ND","ND","ND","496","0"],
    [73751,"2018-10-04T18:00:00","ND","ND","ND","ND","14.5","0.1","ND","ND","ND","ND","127","0"],
    [73752,"2018-10-04T19:00:00","ND","ND","ND","ND","7.5","0.1","ND","ND","ND","ND","0","0"],
    [73753,"2018-10-04T20:00:00","ND","ND","ND","ND","3.1","0.2","ND","ND","ND","ND","0","0"],
    [73754,"2018-10-04T21:00:00","ND","ND","ND","ND","2.4","0.2","ND","ND","ND","ND","0","0"],
    [73755,"2018-10-04T22:00:00","ND","ND","ND","ND","2.1","0.4","ND","ND","ND","ND","0","0.25"],
    [73756,"2018-10-04T23:00:00","ND","ND","ND","ND","2.0","0.8","ND","ND","ND","ND","0","0"],
    [73757,"2018-10-05T00:00:00","ND","ND","ND","ND","1.9","1.2","ND","ND","ND","ND","0","0"],
    [73758,"2018-10-05T01:00:00","ND","ND","ND","ND","4.0","0.5","ND","ND","ND","ND","0","0"],
    [73759,"2018-10-05T02:00:00","ND","ND","ND","ND","4.3","0.3","ND","ND","ND","ND","0","0.76"],
    [73760,"2018-10-05T03:00:00","ND","ND","ND","ND","12.4","0.2","ND","ND","ND","ND","0","2.03"],
    [73761,"2018-10-05T04:00:00","ND","ND","ND","ND","10.2","0.1","ND","ND","ND","ND","0","6.86"],
    [73762,"2018-10-05T05:00:00","ND","ND","ND","ND","4.4","0.2","ND","ND","ND","ND","0","0.25"],
    [73763,"2018-10-05T06:00:00","ND","ND","ND","ND","3.3","0.2","ND","ND","ND","ND","0","0.25"],
    [73764,"2018-10-05T07:00:00","ND","ND","ND","ND","2.6","0.2","ND","ND","ND","ND","68","1.78"],
    [73765,"2018-10-05T08:00:00","ND","ND","ND","ND","2.6","0.3","ND","ND","ND","ND","296","0.25"],
    [73766,"2018-10-05T09:00:00","ND","ND","ND","ND","8.2","0.3","ND","ND","ND","ND","635","0"],
    [73767,"2018-10-05T10:00:00","ND","ND","ND","ND","30.6","0.3","ND","ND","ND","ND","651","0"],
    [73768,"2018-10-05T11:00:00","ND","ND","ND","ND","46.9","0.2","ND","ND","ND","ND","657","0"],
    [73769,"2018-10-05T12:00:00","ND","ND","ND","ND","60.1","0.2","ND","ND","ND","ND","659","0"],
    [73770,"2018-10-05T13:00:00","ND","ND","ND","ND","86.6","0.3","ND","ND","ND","ND","658","0"],
    [73771,"2018-10-05T14:00:00","ND","ND","ND","ND","92.9","0.1","ND","ND","ND","ND","663","0"],
    [73772,"2018-10-05T15:00:00","ND","ND","ND","ND","87.3","0.2","ND","ND","ND","ND","487","0"],
    [73773,"2018-10-05T16:00:00","ND","ND","ND","ND","25.4","0.1","ND","ND","ND","ND","592","0"],
    [73774,"2018-10-05T17:00:00","ND","ND","ND","ND","21.7","0.1","ND","ND","ND","ND","255","0"],
    [73775,"2018-10-05T18:00:00","ND","ND","ND","ND","24.3","0.0","ND","ND","ND","ND","46","0"],
    [73776,"2018-10-05T19:00:00","ND","ND","ND","ND","17.0","0.1","ND","ND","ND","ND","0","0"],
    [73777,"2018-10-05T20:00:00","ND","ND","ND","ND","2.0","0.2","ND","ND","ND","ND","0","0.76"],
    [73778,"2018-10-05T21:00:00","ND","ND","ND","ND","4.9","0.8","ND","ND","ND","ND","0","0"],
    [73779,"2018-10-05T22:00:00","ND","ND","ND","ND","8.9","0.2","ND","ND","ND","ND","0","0"],
    [73780,"2018-10-05T23:00:00","ND","ND","ND","ND","2.9","0.3","ND","ND","ND","ND","0","0"],
    [73781,"2018-10-06T00:00:00","ND","ND","ND","ND","1.7","0.6","ND","ND","ND","ND","0","0"],
    [73782,"2018-10-06T01:00:00","ND","ND","ND","ND","1.3","0.3","ND","ND","ND","ND","0","0"],
    [73783,"2018-10-06T02:00:00","ND","ND","ND","ND","6.5","0.6","ND","ND","ND","ND","0","0"],
    [73784,"2018-10-06T03:00:00","ND","ND","ND","ND","1.6","0.5","ND","ND","ND","ND","0","0"],
    [73785,"2018-10-06T04:00:00","ND","ND","ND","ND","1.3","0.9","ND","ND","ND","ND","0","0"],
    [73786,"2018-10-06T05:00:00","ND","ND","ND","ND","1.3","0.7","ND","ND","ND","ND","0","0"],
    [73787,"2018-10-06T06:00:00","ND","ND","ND","ND","1.4","0.6","ND","ND","ND","ND","0","0"],
    [73788,"2018-10-06T07:00:00","ND","ND","ND","ND","1.6","1.9","ND","ND","ND","ND","140","0"],
    [73789,"2018-10-06T08:00:00","ND","ND","ND","ND","5.3","0.7","ND","ND","ND","ND","536","0"],
    [73790,"2018-10-06T09:00:00","ND","ND","ND","ND","17.4","0.4","ND","ND","ND","ND","665","0"],
    [73791,"2018-10-06T10:00:00","ND","ND","ND","ND","29.2","0.4","ND","ND","ND","ND","665","0"],
    [73792,"2018-10-06T11:00:00","ND","ND","ND","ND","54.8","0.4","ND","ND","ND","ND","665","0"],
    [73793,"2018-10-06T12:00:00","ND","ND","ND","ND","75.6","0.1","ND","ND","ND","ND","666","0"],
    [73794,"2018-10-06T13:00:00","ND","ND","ND","ND","89.2","0.2","ND","ND","ND","ND","666","0"],
    [73795,"2018-10-06T14:00:00","ND","ND","ND","ND","91.1","0.2","ND","ND","ND","ND","666","0"],
    [73796,"2018-10-06T15:00:00","ND","ND","ND","ND","57.8","0.1","ND","ND","ND","ND","666","0"],
    [73797,"2018-10-06T16:00:00","ND","ND","ND","ND","49.5","0.2","ND","ND","ND","ND","563","0"],
    [73798,"2018-10-06T17:00:00","ND","ND","ND","ND","33.3","0.5","ND","ND","ND","ND","276","0"],
    [73799,"2018-10-06T18:00:00","ND","ND","ND","ND","21.6","0.3","ND","ND","ND","ND","72","0.25"],
    [73800,"2018-10-06T19:00:00","ND","ND","ND","ND","8.7","0.2","ND","ND","ND","ND","0","0"],
    [73801,"2018-10-06T20:00:00","ND","ND","ND","ND","4.7","0.1","ND","ND","ND","ND","0","0"],
    [73802,"2018-10-06T21:00:00","ND","ND","ND","ND","2.2","0.2","ND","ND","ND","ND","0","0"],
    [73803,"2018-10-06T22:00:00","ND","ND","ND","ND","1.9","0.6","ND","ND","ND","ND","0","0"],
    [73804,"2018-10-06T23:00:00","ND","ND","ND","ND","1.6","0.7","ND","ND","ND","ND","0","0"],
    [73805,"2018-10-07T00:00:00","ND","ND","ND","ND","1.6","0.3","ND","ND","ND","ND","0","0"],
    [73806,"2018-10-07T01:00:00","ND","ND","ND","ND","1.8","0.4","ND","ND","ND","ND","0","0"],
    [73807,"2018-10-07T02:00:00","ND","ND","ND","ND","1.9","1.6","ND","ND","ND","ND","0","0"],
    [73808,"2018-10-07T03:00:00","ND","ND","ND","ND","1.5","0.5","ND","ND","ND","ND","0","0"],
    [73809,"2018-10-07T04:00:00","ND","ND","ND","ND","2.0","0.5","ND","ND","ND","ND","0","0"],
    [73810,"2018-10-07T05:00:00","ND","ND","ND","ND","1.6","0.5","ND","ND","ND","ND","0","0"],
    [73811,"2018-10-07T06:00:00","ND","ND","ND","ND","1.7","0.5","ND","ND","ND","ND","0","0"],
    [73812,"2018-10-07T07:00:00","ND","ND","ND","ND","2.0","0.6","ND","ND","ND","ND","129","0"],
    [73813,"2018-10-07T08:00:00","ND","ND","ND","ND","8.0","0.8","ND","ND","ND","ND","616","0"],
    [73814,"2018-10-07T09:00:00","ND","ND","ND","ND","23.8","0.5","ND","ND","ND","ND","664","0"],
    [73815,"2018-10-07T10:00:00","ND","ND","ND","ND","33.0","0.4","ND","ND","ND","ND","665","0"],
    [73816,"2018-10-07T11:00:00","ND","ND","ND","ND","56.1","0.4","ND","ND","ND","ND","665","0"],
    [73817,"2018-10-07T12:00:00","ND","ND","ND","ND","92.1","0.4","ND","ND","ND","ND","665","0"],
    [73818,"2018-10-07T13:00:00","ND","ND","ND","ND","119.9","0.4","ND","ND","ND","ND","659","0"],
    [73819,"2018-10-07T14:00:00","ND","ND","ND","ND","86.5","0.5","ND","ND","ND","ND","642","0"],
    [73820,"2018-10-07T15:00:00","ND","ND","ND","ND","48.8","0.3","ND","ND","ND","ND","575","0"],
    [73821,"2018-10-07T16:00:00","ND","ND","ND","ND","33.6","0.1","ND","ND","ND","ND","538","0"],
    [73822,"2018-10-07T17:00:00","ND","ND","ND","ND","32.3","0.1","ND","ND","ND","ND","645","0"],
    [73823,"2018-10-07T18:00:00","ND","ND","ND","ND","25.5","0.2","ND","ND","ND","ND","144","0"],
    [73824,"2018-10-07T19:00:00","ND","ND","ND","ND","15.9","0.1","ND","ND","ND","ND","0","0"],
    [73825,"2018-10-07T20:00:00","ND","ND","ND","ND","7.5","0.1","ND","ND","ND","ND","0","0"],
    [73826,"2018-10-07T21:00:00","ND","ND","ND","ND","2.2","0.3","ND","ND","ND","ND","0","0"],
    [73827,"2018-10-07T22:00:00","ND","ND","ND","ND","2.3","0.6","ND","ND","ND","ND","0","0"],
    [73828,"2018-10-07T23:00:00","ND","ND","ND","ND","4.0","0.2","ND","ND","ND","ND","0","0"],
    [73829,"2018-10-08T00:00:00","ND","ND","ND","ND","3.1","0.1","ND","ND","ND","ND","0","0"],
    [73830,"2018-10-08T01:00:00","ND","ND","ND","ND","11.1","0.2","ND","ND","ND","ND","0","0"],
    [73831,"2018-10-08T02:00:00","ND","ND","ND","ND","8.5","0.1","ND","ND","ND","ND","0","7.87"],
    [73832,"2018-10-08T03:00:00","ND","ND","ND","ND","12.4","0.2","ND","ND","ND","ND","0","0.25"],
    [73833,"2018-10-08T04:00:00","ND","ND","ND","ND","12.8","0.1","ND","ND","ND","ND","0","1.52"],
    [73834,"2018-10-08T05:00:00","ND","ND","ND","ND","8.6","0.2","ND","ND","ND","ND","0","2.54"],
    [73835,"2018-10-08T06:00:00","ND","ND","ND","ND","6.5","0.1","ND","ND","ND","ND","0","3.81"],
    [73836,"2018-10-08T07:00:00","ND","ND","ND","ND","2.7","0.1","ND","ND","ND","ND","21","1.78"],
    [73837,"2018-10-08T08:00:00","ND","ND","ND","ND","1.7","0.3","ND","ND","ND","ND","152","0.51"],
    [73838,"2018-10-08T09:00:00","ND","ND","ND","ND","3.8","0.2","ND","ND","ND","ND","510","0"],
    [73839,"2018-10-08T10:00:00","ND","ND","ND","ND","8.8","0.2","ND","ND","ND","ND","347","0"],
    [73840,"2018-10-08T11:00:00","ND","ND","ND","ND","18.1","0.1","ND","ND","ND","ND","453","0"],
    [73841,"2018-10-08T12:00:00","ND","ND","ND","ND","25.2","0.2","ND","ND","ND","ND","662","0"],
    [73842,"2018-10-08T13:00:00","ND","ND","ND","ND","28.3","0.2","ND","ND","ND","ND","462","0"],
    [73843,"2018-10-08T14:00:00","ND","ND","ND","ND","31.9","0.2","ND","ND","ND","ND","664","0"],
    [73844,"2018-10-08T15:00:00","ND","ND","ND","ND","39.8","0.2","ND","ND","ND","ND","655","0"],
    [73845,"2018-10-08T16:00:00","ND","ND","ND","ND","44.3","0.2","ND","ND","ND","ND","516","0"],
    [73846,"2018-10-08T17:00:00","ND","ND","ND","ND","26.5","0.2","ND","ND","ND","ND","184","0"],
    [73847,"2018-10-08T18:00:00","ND","ND","ND","ND","7.9","0.5","ND","ND","ND","ND","76","0"],
    [73848,"2018-10-08T19:00:00","ND","ND","ND","ND","4.0","0.8","ND","ND","ND","ND","0","0"],
    [73849,"2018-10-08T20:00:00","ND","ND","ND","ND","1.5","0.6","ND","ND","ND","ND","0","0"],
    [73850,"2018-10-08T21:00:00","ND","ND","ND","ND","1.5","0.5","ND","ND","ND","ND","0","0"],
    [73851,"2018-10-08T22:00:00","ND","ND","ND","ND","1.2","0.3","ND","ND","ND","ND","0","0"],
    [73852,"2018-10-08T23:00:00","ND","ND","ND","ND","1.3","0.3","ND","ND","ND","ND","0","0"],
    [73853,"2018-10-09T00:00:00","ND","ND","ND","ND","2.1","0.2","ND","ND","ND","ND","0","0"],
    [73854,"2018-10-09T01:00:00","ND","ND","ND","ND","1.6","0.1","ND","ND","ND","ND","0","0"],
    [73855,"2018-10-09T02:00:00","ND","ND","ND","ND","2.9","0.1","ND","ND","ND","ND","0","0"],
    [73856,"2018-10-09T03:00:00","ND","ND","ND","ND","2.0","0.2","ND","ND","ND","ND","0","0"],
    [73857,"2018-10-09T04:00:00","ND","ND","ND","ND","2.3","0.2","ND","ND","ND","ND","0","0"],
    [73858,"2018-10-09T05:00:00","ND","ND","ND","ND","2.2","1.3","ND","ND","ND","ND","0","0"],
    [73859,"2018-10-09T06:00:00","ND","ND","ND","ND","1.4","1.0","ND","ND","ND","ND","0","0"],
    [73860,"2018-10-09T07:00:00","ND","ND","ND","ND","1.2","1.7","ND","ND","ND","ND","51","0"],
    [73861,"2018-10-09T08:00:00","ND","ND","ND","ND","1.7","1.2","ND","ND","ND","ND","300","0"],
    [73862,"2018-10-09T09:00:00","ND","ND","ND","ND","5.7","0.9","ND","ND","ND","ND","621","0"],
    [73863,"2018-10-09T10:00:00","ND","ND","ND","ND","16.0","0.6","ND","ND","ND","ND","664","0"],
    [73864,"2018-10-09T11:00:00","ND","ND","ND","ND","29.7","0.3","ND","ND","ND","ND","652","0"],
    [73865,"2018-10-09T12:00:00","ND","ND","ND","ND","58.6","0.4","ND","ND","ND","ND","665","0"],
    [73866,"2018-10-09T13:00:00","ND","ND","ND","ND","81.6","0.2","ND","ND","ND","ND","609","0"],
    [73867,"2018-10-09T14:00:00","ND","ND","ND","ND","97.4","0.3","ND","ND","ND","ND","624","0"],
    [73868,"2018-10-09T15:00:00","ND","ND","ND","ND","65.6","0.2","ND","ND","ND","ND","268","0.51"],
    [73869,"2018-10-09T16:00:00","ND","ND","ND","ND","28.5","0.0","ND","ND","ND","ND","520","0.25"],
    [73870,"2018-10-09T17:00:00","ND","ND","ND","ND","20.9","0.1","ND","ND","ND","ND","570","0"],
    [73871,"2018-10-09T18:00:00","ND","ND","ND","ND","23.6","0.1","ND","ND","ND","ND","125","0"],
    [73872,"2018-10-09T19:00:00","ND","ND","ND","ND","21.4","0.1","ND","ND","ND","ND","0","0"],
    [73873,"2018-10-09T20:00:00","ND","ND","ND","ND","16.5","0.2","ND","ND","ND","ND","0","0"],
    [73874,"2018-10-09T21:00:00","ND","ND","ND","ND","9.5","0.3","ND","ND","ND","ND","0","0"],
    [73875,"2018-10-09T22:00:00","ND","ND","ND","ND","10.6","0.1","ND","ND","ND","ND","0","0"],
    [73876,"2018-10-09T23:00:00","ND","ND","ND","ND","3.0","0.5","ND","ND","ND","ND","0","0"],
    [73877,"2018-10-10T00:00:00","ND","ND","ND","ND","13.3","0.3","ND","ND","ND","ND","0","0"],
    [73878,"2018-10-10T01:00:00","ND","ND","ND","ND","19.4","0.1","ND","ND","ND","ND","0","0"],
    [73879,"2018-10-10T02:00:00","ND","ND","ND","ND","19.8","0.2","ND","ND","ND","ND","0","0"],
    [73880,"2018-10-10T03:00:00","ND","ND","ND","ND","22.7","0.2","ND","ND","ND","ND","0","0"],
    [73881,"2018-10-10T04:00:00","ND","ND","ND","ND","19.9","0.2","ND","ND","ND","ND","0","0"],
    [73882,"2018-10-10T05:00:00","ND","ND","ND","ND","14.6","0.0","ND","ND","ND","ND","0","0"],
    [73883,"2018-10-10T06:00:00","ND","ND","ND","ND","16.0","0.2","ND","ND","ND","ND","1","0"],
    [73884,"2018-10-10T07:00:00","ND","ND","ND","ND","7.0","0.2","ND","ND","ND","ND","140","0"],
    [73885,"2018-10-10T08:00:00","ND","ND","ND","ND","11.4","0.2","ND","ND","ND","ND","377","0"],
    [73886,"2018-10-10T09:00:00","ND","ND","ND","ND","21.3","0.2","ND","ND","ND","ND","659","0"],
    [73887,"2018-10-10T10:00:00","ND","ND","ND","ND","ND","ND","ND","ND","ND","ND","665","0"],
    [73888,"2018-10-10T11:00:00","ND","ND","ND","ND","33.6","2.4","ND","ND","ND","ND","665","0"],
    [73889,"2018-10-10T12:00:00","ND","ND","ND","ND","45.8","0.2","ND","ND","ND","ND","666","0"],
    [73890,"2018-10-10T13:00:00","ND","ND","ND","ND","54.2","0.3","ND","ND","ND","ND","666","0"],
    [73891,"2018-10-10T14:00:00","ND","ND","ND","ND","26.3","0.3","ND","ND","ND","ND","587","0"],
    [73892,"2018-10-10T15:00:00","ND","ND","ND","ND","18.2","0.1","ND","ND","ND","ND","645","0"],
    [73893,"2018-10-10T16:00:00","ND","ND","ND","ND","17.1","0.1","ND","ND","ND","ND","565","0"],
    [73894,"2018-10-10T17:00:00","ND","ND","ND","ND","16.9","0.1","ND","ND","ND","ND","375","0"],
    [73895,"2018-10-10T18:00:00","ND","ND","ND","ND","18.7","0.1","ND","ND","ND","ND","82","0"],
    [73896,"2018-10-10T19:00:00","ND","ND","ND","ND","18.0","0.1","ND","ND","ND","ND","0","0"],
    [73897,"2018-10-10T20:00:00","ND","ND","ND","ND","16.6","0.2","ND","ND","ND","ND","0","0"],
    [73898,"2018-10-10T21:00:00","ND","ND","ND","ND","11.0","0.1","ND","ND","ND","ND","0","0"],
    [73899,"2018-10-10T22:00:00","ND","ND","ND","ND","6.3","0.2","ND","ND","ND","ND","0","0"],
    [73900,"2018-10-10T23:00:00","ND","ND","ND","ND","6.9","0.1","ND","ND","ND","ND","0","4.32"],
    [73901,"2018-10-11T00:00:00","ND","ND","ND","ND","5.7","0.1","ND","ND","ND","ND","0","3.05"],
    [73902,"2018-10-11T01:00:00","ND","ND","ND","ND","6.4","0.1","ND","ND","ND","ND","0","0"],
    [73903,"2018-10-11T02:00:00","ND","ND","ND","ND","4.0","0.3","ND","ND","ND","ND","0","0"],
    [73904,"2018-10-11T03:00:00","ND","ND","ND","ND","3.3","0.1","ND","ND","ND","ND","0","0.25"],
    [73905,"2018-10-11T04:00:00","ND","ND","ND","ND","3.1","0.1","ND","ND","ND","ND","0","0"],
    [73906,"2018-10-11T05:00:00","ND","ND","ND","ND","2.5","0.1","ND","ND","ND","ND","0","0"],
    [73907,"2018-10-11T06:00:00","ND","ND","ND","ND","3.2","0.2","ND","ND","ND","ND","0","0"],
    [73908,"2018-10-11T07:00:00","ND","ND","ND","ND","3.6","0.6","ND","ND","ND","ND","54","0"],
    [73909,"2018-10-11T08:00:00","ND","ND","ND","ND","3.6","0.6","ND","ND","ND","ND","259","0"],
    [73910,"2018-10-11T09:00:00","ND","ND","ND","ND","5.5","0.4","ND","ND","ND","ND","622","0"],
    [73911,"2018-10-11T10:00:00","ND","ND","ND","ND","10.9","0.5","ND","ND","ND","ND","578","0"],
    [73912,"2018-10-11T11:00:00","8.3","ND","ND","ND","17.2","0.3","ND","ND","ND","ND","667","0"],
    [73913,"2018-10-11T12:00:00","22.3","ND","ND","ND","31.9","0.3","ND","ND","ND","ND","665","0"],
    [73914,"2018-10-11T13:00:00","1.7","ND","ND","ND","54.6","0.3","ND","ND","ND","ND","665","0"],
    [73915,"2018-10-11T14:00:00","2","ND","ND","ND","64.1","0.2","ND","ND","ND","ND","665","0"],
    [73916,"2018-10-11T15:00:00","10.5","ND","ND","ND","51.2","0.2","ND","ND","ND","ND","665","0"],
    [73917,"2018-10-11T16:00:00","16.4","ND","ND","ND","53.1","0.1","ND","ND","ND","ND","562","0"],
    [73918,"2018-10-11T17:00:00","28","ND","ND","ND","27.2","0.0","ND","ND","ND","ND","277","0"],
    [73919,"2018-10-11T18:00:00","26.9","ND","ND","ND","9.2","0.0","ND","ND","ND","ND","73","0"],
    [73920,"2018-10-11T19:00:00","28.3","ND","ND","ND","3.4","0.1","ND","ND","ND","ND","0","0.25"],
    [73921,"2018-10-11T20:00:00","32.3","ND","ND","ND","5.0","0.1","ND","ND","ND","ND","0","0"],
    [73922,"2018-10-11T21:00:00","21.7","ND","ND","ND","3.2","0.2","ND","ND","ND","ND","0","0"],
    [73923,"2018-10-11T22:00:00","17.1","ND","ND","ND","2.9","0.3","ND","ND","ND","ND","0","0"],
    [73924,"2018-10-11T23:00:00","16.7","ND","ND","ND","3.4","0.3","ND","ND","ND","ND","0","0"],
    [73925,"2018-10-12T00:00:00","21.3","ND","ND","ND","2.4","0.6","ND","ND","ND","ND","0","0"],
    [73926,"2018-10-12T01:00:00","20.2","ND","ND","ND","2.6","0.2","ND","ND","ND","ND","0","0"],
    [73927,"2018-10-12T02:00:00","22.2","ND","ND","ND","2.6","0.2","ND","ND","ND","ND","0","0"],
    [73928,"2018-10-12T03:00:00","20.8","ND","ND","ND","3.6","0.1","ND","ND","ND","ND","0","0.25"],
    [73929,"2018-10-12T04:00:00","29.2","ND","ND","ND","3.6","0.3","ND","ND","ND","ND","0","0"],
    [73930,"2018-10-12T05:00:00","22.5","ND","ND","ND","2.9","0.5","ND","ND","ND","ND","0","0"],
    [73931,"2018-10-12T06:00:00","25.1","ND","ND","ND","2.9","0.4","ND","ND","ND","ND","0","0.25"],
    [73932,"2018-10-12T07:00:00","30.2","ND","ND","ND","3.1","0.4","ND","ND","ND","ND","19","2.54"],
    [73933,"2018-10-12T08:00:00","24.8","ND","ND","ND","4.1","0.3","ND","ND","ND","ND","154","0.25"],
    [73934,"2018-10-12T09:00:00","36.1","ND","ND","ND","4.5","0.3","ND","ND","ND","ND","490","0"],
    [73935,"2018-10-12T10:00:00","24.6","ND","ND","ND","5.2","0.3","ND","ND","ND","ND","664","0"],
    [73936,"2018-10-12T11:00:00","13.6","ND","ND","ND","10.4","0.4","ND","ND","ND","ND","664","0"],
    [73937,"2018-10-12T12:00:00","17.5","ND","ND","ND","34.2","0.2","ND","ND","ND","ND","664","0"],
    [73938,"2018-10-12T13:00:00","23.3","ND","ND","ND","47.0","0.3","ND","ND","ND","ND","665","0"],
    [73939,"2018-10-12T14:00:00","24.6","ND","ND","ND","19.5","0.3","ND","ND","ND","ND","656","0"],
    [73940,"2018-10-12T15:00:00","3.5","ND","ND","ND","13.6","0.1","ND","ND","ND","ND","665","0"],
    [73941,"2018-10-12T16:00:00","ND","ND","ND","ND","12.0","0.1","ND","ND","ND","ND","665","0"],
    [73942,"2018-10-12T17:00:00","8.2","ND","ND","ND","10.0","0.1","ND","ND","ND","ND","317","0"],
    [73943,"2018-10-12T18:00:00","14.8","ND","ND","ND","9.1","0.0","ND","ND","ND","ND","53","0"],
    [73944,"2018-10-12T19:00:00","13.4","ND","ND","ND","5.9","0.2","ND","ND","ND","ND","0","0"],
    [73945,"2018-10-12T20:00:00","23","ND","ND","ND","3.1","0.0","ND","ND","ND","ND","0","0"],
    [73946,"2018-10-12T21:00:00","24.3","ND","ND","ND","3.7","0.4","ND","ND","ND","ND","0","0"],
    [73947,"2018-10-12T22:00:00","22.2","ND","ND","ND","3.6","0.4","ND","ND","ND","ND","0","0.25"],
    [73948,"2018-10-12T23:00:00","29.7","ND","ND","ND","3.4","0.5","ND","ND","ND","ND","0","0"],
    [73949,"2018-10-13T00:00:00","26","ND","ND","ND","3.2","0.2","ND","ND","ND","ND","0","0"],
    [73950,"2018-10-13T01:00:00","34.6","ND","ND","ND","3.4","0.4","ND","ND","ND","ND","0","0"],
    [73951,"2018-10-13T02:00:00","27.8","ND","ND","ND","2.9","0.3","ND","ND","ND","ND","0","0"],
    [73952,"2018-10-13T03:00:00","15.8","ND","ND","ND","3.2","0.3","ND","ND","ND","ND","0","0"],
    [73953,"2018-10-13T04:00:00","27.3","ND","ND","ND","4.1","0.3","ND","ND","ND","ND","0","0"],
    [73954,"2018-10-13T05:00:00","33.4","ND","ND","ND","3.4","1.2","ND","ND","ND","ND","0","0"],
    [73955,"2018-10-13T06:00:00","21.3","ND","ND","ND","3.2","1.0","ND","ND","ND","ND","0","0"],
    [73956,"2018-10-13T07:00:00","27","ND","ND","ND","3.7","1.3","ND","ND","ND","ND","96","0"],
    [73957,"2018-10-13T08:00:00","35.3","ND","ND","ND","3.9","1.4","ND","ND","ND","ND","461","0"],
    [73958,"2018-10-13T09:00:00","19.7","ND","ND","ND","10.4","0.7","ND","ND","ND","ND","660","0"],
    [73959,"2018-10-13T10:00:00","20.7","ND","ND","ND","16.8","0.5","ND","ND","ND","ND","661","0"],
    [73960,"2018-10-13T11:00:00","21.3","ND","ND","ND","30.7","0.3","ND","ND","ND","ND","664","0"],
    [73961,"2018-10-13T12:00:00","10.6","ND","ND","ND","48.1","0.2","ND","ND","ND","ND","665","0"],
    [73962,"2018-10-13T13:00:00","13","ND","ND","ND","43.9","0.3","ND","ND","ND","ND","665","0"],
    [73963,"2018-10-13T14:00:00","7.7","ND","ND","ND","67.6","0.3","ND","ND","ND","ND","661","0"],
    [73964,"2018-10-13T15:00:00","17.5","ND","ND","ND","47.7","0.1","ND","ND","ND","ND","506","0"],
    [73965,"2018-10-13T16:00:00","21.4","ND","ND","ND","18.6","0.3","ND","ND","ND","ND","520","0"],
    [73966,"2018-10-13T17:00:00","17.3","ND","ND","ND","17.4","0.1","ND","ND","ND","ND","371","0"],
    [73967,"2018-10-13T18:00:00","7.1","ND","ND","ND","14.8","0.1","ND","ND","ND","ND","51","0"],
    [73968,"2018-10-13T19:00:00","0.1","ND","ND","ND","6.7","0.0","ND","ND","ND","ND","0","0"],
    [73969,"2018-10-13T20:00:00","17.5","ND","ND","ND","3.9","1.5","ND","ND","ND","ND","0","0"],
    [73970,"2018-10-13T21:00:00","23.3","ND","ND","ND","5.5","1.8","ND","ND","ND","ND","0","0"],
    [73971,"2018-10-13T22:00:00","30.4","ND","ND","ND","5.1","3.6","ND","ND","ND","ND","0","0"],
    [73972,"2018-10-13T23:00:00","30.5","ND","ND","ND","5.2","1.1","ND","ND","ND","ND","0","0"],
    [73973,"2018-10-14T00:00:00","17.4","ND","ND","ND","3.9","1.8","ND","ND","ND","ND","0","0"],
    [73974,"2018-10-14T01:00:00","24.8","ND","ND","ND","3.7","0.4","ND","ND","ND","ND","0","0"],
    [73975,"2018-10-14T02:00:00","18.7","ND","ND","ND","2.9","0.2","ND","ND","ND","ND","0","0"],
    [73976,"2018-10-14T03:00:00","8.8","ND","ND","ND","3.3","0.5","ND","ND","ND","ND","0","0"],
    [73977,"2018-10-14T04:00:00","11.8","ND","ND","ND","3.2","0.3","ND","ND","ND","ND","0","0"],
    [73978,"2018-10-14T05:00:00","11.9","ND","ND","ND","2.7","0.3","ND","ND","ND","ND","0","0"],
    [73979,"2018-10-14T06:00:00","11.1","ND","ND","ND","3.1","0.6","ND","ND","ND","ND","0","0"],
    [73980,"2018-10-14T07:00:00","12.2","ND","ND","ND","4.5","1.5","ND","ND","ND","ND","203","0"],
    [73981,"2018-10-14T08:00:00","30.5","ND","ND","ND","7.0","0.9","ND","ND","ND","ND","635","0"],
    [73982,"2018-10-14T09:00:00","30.5","ND","ND","ND","21.6","0.3","ND","ND","ND","ND","664","0"],
    [73983,"2018-10-14T10:00:00","31.4","ND","ND","ND","41.7","0.5","ND","ND","ND","ND","664","0"],
    [73984,"2018-10-14T11:00:00","36.6","ND","ND","ND","61.7","0.3","ND","ND","ND","ND","665","0"],
    [73985,"2018-10-14T12:00:00","33.8","ND","ND","ND","81.0","0.3","ND","ND","ND","ND","665","0"],
    [73986,"2018-10-14T13:00:00","19.8","ND","ND","ND","62.9","0.2","ND","ND","ND","ND","665","0"],
    [73987,"2018-10-14T14:00:00","11.9","ND","ND","ND","43.8","0.1","ND","ND","ND","ND","618","0"],
    [73988,"2018-10-14T15:00:00","6","ND","ND","ND","24.5","0.1","ND","ND","ND","ND","665","0"],
    [73989,"2018-10-14T16:00:00","12.1","ND","ND","ND","24.8","0.1","ND","ND","ND","ND","665","0"],
    [73990,"2018-10-14T17:00:00","12.4","ND","ND","ND","22.0","0.2","ND","ND","ND","ND","564","0"],
    [73991,"2018-10-14T18:00:00","8.9","ND","ND","ND","17.8","0.0","ND","ND","ND","ND","78","0"],
    [73992,"2018-10-14T19:00:00","18.1","ND","ND","ND","13.8","0.1","ND","ND","ND","ND","0","0"],
    [73993,"2018-10-14T20:00:00","22.2","ND","ND","ND","5.4","0.2","ND","ND","ND","ND","0","0"],
    [73994,"2018-10-14T21:00:00","16.5","ND","ND","ND","6.9","0.4","ND","ND","ND","ND","0","0"],
    [73995,"2018-10-14T22:00:00","17.8","ND","ND","ND","5.3","1.9","ND","ND","ND","ND","0","0"],
    [73996,"2018-10-14T23:00:00","19.3","ND","ND","ND","3.7","1.0","ND","ND","ND","ND","0","0"],
    [73997,"2018-10-15T00:00:00","19.5","ND","ND","ND","3.2","0.2","ND","ND","ND","ND","0","0"],
    [73998,"2018-10-15T01:00:00","18.4","ND","ND","ND","2.8","0.4","ND","ND","ND","ND","0","0"],
    [73999,"2018-10-15T02:00:00","23.1","ND","ND","ND","2.6","0.4","ND","ND","ND","ND","0","0"],
    [74000,"2018-10-15T03:00:00","15.3","ND","ND","ND","3.0","0.3","ND","ND","ND","ND","0","0"],
    [74001,"2018-10-15T04:00:00","17.1","ND","ND","ND","3.0","0.3","ND","ND","ND","ND","0","0"],
    [74002,"2018-10-15T05:00:00","15.9","ND","ND","ND","2.8","0.2","ND","ND","ND","ND","0","0"],
    [74003,"2018-10-15T06:00:00","18","ND","ND","ND","3.5","0.7","ND","ND","ND","ND","0","0"],
    [74004,"2018-10-15T07:00:00","25.8","ND","ND","ND","4.4","1.6","ND","ND","ND","ND","125","0"],
    [74005,"2018-10-15T08:00:00","29.4","ND","ND","ND","5.5","0.5","ND","ND","ND","ND","401","0"],
    [74006,"2018-10-15T09:00:00","22.2","ND","ND","ND","11.7","0.8","ND","ND","ND","ND","627","0"],
    [74007,"2018-10-15T10:00:00","13.2","ND","ND","ND","24.4","0.4","ND","ND","ND","ND","664","0"],
    [74008,"2018-10-15T11:00:00","8","ND","ND","ND","40.7","0.5","ND","ND","ND","ND","657","0"],
    [74009,"2018-10-15T12:00:00","8.1","ND","ND","ND","63.4","0.2","ND","ND","ND","ND","656","0"],
    [74010,"2018-10-15T13:00:00","8.8","ND","ND","ND","70.5","0.3","ND","ND","ND","ND","663","0"],
    [74011,"2018-10-15T14:00:00","6.5","ND","ND","ND","46.5","0.3","ND","ND","ND","ND","630","0"],
    [74012,"2018-10-15T15:00:00","12.2","ND","ND","ND","30.8","0.1","ND","ND","ND","ND","665","0"],
    [74013,"2018-10-15T16:00:00","8.9","ND","ND","ND","29.1","0.2","ND","ND","ND","ND","661","0"],
    [74014,"2018-10-15T17:00:00","13.1","ND","ND","ND","27.8","0.1","ND","ND","ND","ND","540","0"],
    [74015,"2018-10-15T18:00:00","14.6","ND","ND","ND","19.9","0.1","ND","ND","ND","ND","86","0.25"],
    [74016,"2018-10-15T19:00:00","15.9","ND","ND","ND","15.2","0.1","ND","ND","ND","ND","0","0"],
    [74017,"2018-10-15T20:00:00","12.7","ND","ND","ND","5.4","0.2","ND","ND","ND","ND","0","0"],
    [74018,"2018-10-15T21:00:00","3.6","ND","ND","ND","9.7","0.3","ND","ND","ND","ND","0","0"],
    [74019,"2018-10-15T22:00:00","10.1","ND","ND","ND","3.2","0.7","ND","ND","ND","ND","0","0"],
    [74020,"2018-10-15T23:00:00","16.3","ND","ND","ND","3.3","0.3","ND","ND","ND","ND","0","0"],
    [74021,"2018-10-16T00:00:00","13.3","ND","ND","ND","3.7","0.3","ND","ND","ND","ND","0","0"],
    [74022,"2018-10-16T01:00:00","2.9","ND","ND","ND","2.9","0.4","ND","ND","ND","ND","0","0"],
    [74023,"2018-10-16T02:00:00","6.5","ND","ND","ND","3.7","0.6","ND","ND","ND","ND","0","0"],
    [74024,"2018-10-16T03:00:00","11.8","ND","ND","ND","4.1","0.5","ND","ND","ND","ND","0","0"],
    [74025,"2018-10-16T04:00:00","11","ND","ND","ND","3.5","0.2","ND","ND","ND","ND","0","0"],
    [74026,"2018-10-16T05:00:00","17.9","ND","ND","ND","3.4","0.3","ND","ND","ND","ND","0","0"],
    [74027,"2018-10-16T06:00:00","21.4","ND","ND","ND","3.1","0.2","ND","ND","ND","ND","4","0"],
    [74028,"2018-10-16T07:00:00","31.1","ND","ND","ND","4.0","0.3","ND","ND","ND","ND","78","0"],
    [74029,"2018-10-16T08:00:00","47.8","ND","ND","ND","6.3","1.3","ND","ND","ND","ND","496","0"],
    [74030,"2018-10-16T09:00:00","32.7","ND","ND","ND","10.3","0.7","ND","ND","ND","ND","659","0"],
    [74031,"2018-10-16T10:00:00","21.1","ND","ND","ND","22.5","0.3","ND","ND","ND","ND","664","0"],
    [74032,"2018-10-16T11:00:00","17","ND","ND","ND","26.0","0.2","ND","ND","ND","ND","508","0"],
    [74033,"2018-10-16T12:00:00","15.2","ND","ND","ND","19.7","0.2","ND","ND","ND","ND","589","0"],
    [74034,"2018-10-16T13:00:00","0.9","ND","ND","ND","12.7","0.1","ND","ND","ND","ND","666","0"],
    [74035,"2018-10-16T14:00:00","16.5","ND","ND","ND","21.1","0.2","ND","ND","ND","ND","666","0"],
    [74036,"2018-10-16T15:00:00","13.6","ND","ND","ND","27.7","0.1","ND","ND","ND","ND","667","0"],
    [74037,"2018-10-16T16:00:00","13.3","ND","ND","ND","26.1","0.1","ND","ND","ND","ND","627","0"],
    [74038,"2018-10-16T17:00:00","24.2","ND","ND","ND","24.3","0.2","ND","ND","ND","ND","517","0"],
    [74039,"2018-10-16T18:00:00","21.5","ND","ND","ND","24.2","0.3","ND","ND","ND","ND","90","0"],
    [74040,"2018-10-16T19:00:00","22.9","ND","ND","ND","9.0","0.3","ND","ND","ND","ND","0","0"],
    [74041,"2018-10-16T20:00:00","18.8","ND","ND","ND","4.1","0.2","ND","ND","ND","ND","0","0"],
    [74042,"2018-10-16T21:00:00","34.6","ND","ND","ND","3.2","0.6","ND","ND","ND","ND","0","0"],
    [74043,"2018-10-16T22:00:00","26.2","ND","ND","ND","5.7","0.1","ND","ND","ND","ND","0","0"],
    [74044,"2018-10-16T23:00:00","24.5","ND","ND","ND","5.5","0.4","ND","ND","ND","ND","0","0"],
    [74045,"2018-10-17T00:00:00","21.8","ND","ND","ND","5.8","0.7","ND","ND","ND","ND","0","0"],
    [74046,"2018-10-17T01:00:00","18.4","ND","ND","ND","6.6","0.4","ND","ND","ND","ND","0","0"],
    [74047,"2018-10-17T02:00:00","18.7","ND","ND","ND","6.8","0.4","ND","ND","ND","ND","0","0"],
    [74048,"2018-10-17T03:00:00","18.8","ND","ND","ND","3.6","1.1","ND","ND","ND","ND","0","0"],
    [74049,"2018-10-17T04:00:00","21.5","ND","ND","ND","4.0","1.9","ND","ND","ND","ND","0","0"],
    [74050,"2018-10-17T05:00:00","16.5","ND","ND","ND","7.4","0.7","ND","ND","ND","ND","0","0"],
    [74051,"2018-10-17T06:00:00","15.8","ND","ND","ND","1.6","0.4","ND","ND","ND","ND","0","0"],
    [74052,"2018-10-17T07:00:00","23.3","ND","ND","ND","1.7","0.5","ND","ND","ND","ND","110","0"],
    [74053,"2018-10-17T08:00:00","40.9","ND","ND","ND","4.4","0.9","ND","ND","ND","ND","464","0"],
    [74054,"2018-10-17T09:00:00","37.8","ND","ND","ND","13.4","1.2","ND","ND","ND","ND","633","0"],
    [74055,"2018-10-17T10:00:00","23.7","ND","ND","ND","28.2","0.2","ND","ND","ND","ND","666","0"],
    [74056,"2018-10-17T11:00:00","12.4","ND","ND","ND","38.9","0.2","ND","ND","ND","ND","666","0"],
    [74057,"2018-10-17T12:00:00","11.7","ND","ND","ND","54.1","0.5","ND","ND","ND","ND","643","0"],
    [74058,"2018-10-17T13:00:00","15.3","ND","ND","ND","31.2","0.4","ND","ND","ND","ND","502","0"],
    [74059,"2018-10-17T14:00:00","12.5","ND","ND","ND","28.2","0.2","ND","ND","ND","ND","525","0"],
    [74060,"2018-10-17T15:00:00","5.7","ND","ND","ND","27.4","0.1","ND","ND","ND","ND","620","0"],
    [74061,"2018-10-17T16:00:00","9.2","ND","ND","ND","28.4","0.3","ND","ND","ND","ND","610","0"],
    [74062,"2018-10-17T17:00:00","15.2","ND","ND","ND","29.7","0.2","ND","ND","ND","ND","411","0"],
    [74063,"2018-10-17T18:00:00","17.3","ND","ND","ND","20.4","0.3","ND","ND","ND","ND","47","0"],
    [74064,"2018-10-17T19:00:00","12.6","ND","ND","ND","13.5","0.2","ND","ND","ND","ND","0","0"],
    [74065,"2018-10-17T20:00:00","20.4","ND","ND","ND","5.3","0.2","ND","ND","ND","ND","0","0"],
    [74066,"2018-10-17T21:00:00","14.1","ND","ND","ND","11.0","ND","ND","ND","ND","ND","0","0"],
    [74067,"2018-10-17T22:00:00","9","ND","ND","ND","5.1","ND","ND","ND","ND","ND","0","0.25"],
    [74068,"2018-10-17T23:00:00","14","ND","ND","ND","5.0","ND","ND","ND","ND","ND","0","0"],
    [74069,"2018-10-18T00:00:00","13.2","ND","ND","ND","5.1","ND","ND","ND","ND","ND","0","0"],
    [74070,"2018-10-18T01:00:00","15.3","ND","ND","ND","6.2","ND","ND","ND","ND","ND","0","0"],
    [74071,"2018-10-18T02:00:00","11.1","ND","ND","ND","5.9","ND","ND","ND","ND","ND","0","0"],
    [74072,"2018-10-18T03:00:00","9.4","ND","ND","ND","6.8","ND","ND","ND","ND","ND","0","0"],
    [74073,"2018-10-18T04:00:00","7.9","ND","ND","ND","8.2","ND","ND","ND","ND","ND","0","0"],
    [74074,"2018-10-18T05:00:00","14.3","ND","ND","ND","5.7","ND","ND","ND","ND","ND","0","0"],
    [74075,"2018-10-18T06:00:00","25.3","ND","ND","ND","1.8","ND","ND","ND","ND","ND","0","0"],
    [74076,"2018-10-18T07:00:00","35.3","ND","ND","ND","2.1","ND","ND","ND","ND","ND","106","0"],
    [74077,"2018-10-18T08:00:00","27.7","ND","ND","ND","3.4","ND","ND","ND","ND","ND","220","0"],
    [74078,"2018-10-18T09:00:00","31.4","ND","ND","ND","11.1","ND","ND","ND","ND","ND","501","0"],
    [74079,"2018-10-18T10:00:00","23.7","ND","ND","ND","27.8","ND","ND","ND","ND","ND","665","0"],
    [74080,"2018-10-18T11:00:00","24","ND","ND","ND","45.2","ND","ND","ND","ND","ND","655","0"],
    [74081,"2018-10-18T12:00:00","22.9","ND","ND","ND","37.7","ND","ND","ND","ND","ND","661","0"],
    [74082,"2018-10-18T13:00:00","15.5","ND","ND","ND","50.1","ND","ND","ND","ND","ND","666","0"],
    [74083,"2018-10-18T14:00:00","6.1","ND","ND","ND","47.6","ND","ND","ND","ND","ND","626","0"],
    [74084,"2018-10-18T15:00:00","7","ND","ND","ND","26.6","ND","ND","ND","ND","ND","666","0"],
    [74085,"2018-10-18T16:00:00","13.6","ND","ND","ND","25.1","ND","ND","ND","ND","ND","658","0"],
    [74086,"2018-10-18T17:00:00","10.3","ND","ND","ND","23.4","ND","ND","ND","ND","ND","576","0"],
    [74087,"2018-10-18T18:00:00","14.5","ND","ND","ND","19.2","ND","ND","ND","ND","ND","151","0"],
    [74088,"2018-10-18T19:00:00","15.3","ND","ND","ND","16.7","ND","ND","ND","ND","ND","0","0"],
    [74089,"2018-10-18T20:00:00","19.6","ND","ND","ND","7.0","ND","ND","ND","ND","ND","0","0"],
    [74090,"2018-10-18T21:00:00","24.4","ND","ND","ND","5.1","ND","ND","ND","ND","ND","0","0.25"],
    [74091,"2018-10-18T22:00:00","17.2","ND","ND","ND","4.4","ND","ND","ND","ND","ND","0","0"],
    [74092,"2018-10-18T23:00:00","11.6","ND","ND","ND","5.0","ND","ND","ND","ND","ND","0","0"],
    [74093,"2018-10-19T00:00:00","6.9","ND","ND","ND","2.3","ND","ND","ND","ND","ND","0","0.76"],
    [74094,"2018-10-19T01:00:00","5.4","ND","ND","ND","2.9","ND","ND","ND","ND","ND","0","0"],
    [74095,"2018-10-19T02:00:00","14.3","ND","ND","ND","4.3","ND","ND","ND","ND","ND","0","0"],
    [74096,"2018-10-19T03:00:00","22.6","ND","ND","ND","1.8","ND","ND","ND","ND","ND","0","0.25"],
    [74097,"2018-10-19T04:00:00","19.1","ND","ND","ND","1.4","ND","ND","ND","ND","ND","0","0"],
    [74098,"2018-10-19T05:00:00","21.8","ND","ND","ND","1.7","ND","ND","ND","ND","ND","0","0"],
    [74099,"2018-10-19T06:00:00","20.1","ND","ND","ND","1.2","ND","ND","ND","ND","ND","0","0"],
    [74100,"2018-10-19T07:00:00","17.6","ND","ND","ND","2.0","ND","ND","ND","ND","ND","191","0"],
    [74101,"2018-10-19T08:00:00","21.7","ND","ND","ND","7.3","ND","ND","ND","ND","ND","530","0"],
    [74102,"2018-10-19T09:00:00","19.7","ND","ND","ND","22.3","ND","ND","ND","ND","ND","663","0"],
    [74103,"2018-10-19T10:00:00","19","ND","ND","ND","29.4","ND","ND","ND","ND","ND","666","0"],
    [74104,"2018-10-19T11:00:00","11.6","ND","ND","ND","46.9","ND","ND","ND","ND","ND","666","0"],
    [74105,"2018-10-19T12:00:00","13.6","ND","ND","ND","66.8","ND","ND","ND","ND","ND","666","0"],
    [74106,"2018-10-19T13:00:00","13.1","ND","ND","ND","72.1","ND","ND","ND","ND","ND","667","0"],
    [74107,"2018-10-19T14:00:00","10.5","ND","ND","ND","65.4","ND","ND","ND","ND","ND","661","0"],
    [74108,"2018-10-19T15:00:00","14.6","ND","ND","ND","67.7","ND","ND","ND","ND","ND","638","0"],
    [74109,"2018-10-19T16:00:00","15.8","ND","ND","ND","45.4","ND","ND","ND","ND","ND","637","0"],
    [74110,"2018-10-19T17:00:00","13.2","ND","ND","ND","37.2","ND","ND","ND","ND","ND","559","0"],
    [74111,"2018-10-19T18:00:00","16.6","ND","ND","ND","26.3","ND","ND","ND","ND","ND","160","0"],
    [74112,"2018-10-19T19:00:00","17.5","ND","ND","ND","17.5","ND","ND","ND","ND","ND","0","0.25"],
    [74113,"2018-10-19T20:00:00","26.4","ND","ND","ND","10.1","ND","ND","ND","ND","ND","0","0"],
    [74114,"2018-10-19T21:00:00","21.6","ND","ND","ND","2.6","ND","ND","ND","ND","ND","0","0.25"],
    [74115,"2018-10-19T22:00:00","23.3","ND","ND","ND","1.7","ND","ND","ND","ND","ND","0","0"],
    [74116,"2018-10-19T23:00:00","16.9","ND","ND","ND","1.8","ND","ND","ND","ND","ND","0","0"],
    [74117,"2018-10-20T00:00:00","20.5","ND","ND","ND","2.0","ND","ND","ND","ND","ND","0","0"],
    [74118,"2018-10-20T01:00:00","13.4","ND","ND","ND","2.0","ND","ND","ND","ND","ND","0","0"],
    [74119,"2018-10-20T02:00:00","16.5","ND","ND","ND","2.9","ND","ND","ND","ND","ND","0","0"],
    [74120,"2018-10-20T03:00:00","9.5","ND","ND","ND","10.6","ND","ND","ND","ND","ND","0","0"],
    [74121,"2018-10-20T04:00:00","14.3","ND","ND","ND","14.3","ND","ND","ND","ND","ND","0","2.03"],
    [74122,"2018-10-20T05:00:00","21.4","ND","ND","ND","2.6","ND","ND","ND","ND","ND","0","1.02"],
    [74123,"2018-10-20T06:00:00","14.1","ND","ND","ND","8.6","ND","ND","ND","ND","ND","0","0.25"],
    [74124,"2018-10-20T07:00:00","12","ND","ND","ND","3.0","ND","ND","ND","ND","ND","50","0"],
    [74125,"2018-10-20T08:00:00","7.6","ND","ND","ND","3.6","ND","ND","ND","ND","ND","285","0"],
    [74126,"2018-10-20T09:00:00","9.9","ND","ND","ND","20.9","ND","ND","ND","ND","ND","643","0.25"],
    [74127,"2018-10-20T10:00:00","9.2","ND","ND","ND","21.5","ND","ND","ND","ND","ND","445","0"],
    [74128,"2018-10-20T11:00:00","15.3","ND","ND","ND","42.0","ND","ND","ND","ND","ND","666","0"],
    [74129,"2018-10-20T12:00:00","5.5","ND","ND","ND","87.4","ND","ND","ND","ND","ND","664","0"],
    [74130,"2018-10-20T13:00:00","15.7","ND","ND","ND","77.6","ND","ND","ND","ND","ND","648","0"],
    [74131,"2018-10-20T14:00:00","26.2","ND","ND","ND","23.3","ND","ND","ND","ND","ND","234","9.14"],
    [74132,"2018-10-20T15:00:00","16.6","ND","ND","ND","17.1","ND","ND","ND","ND","ND","186","2.54"],
    [74133,"2018-10-20T16:00:00","0.9","ND","ND","ND","10.8","ND","ND","ND","ND","ND","306","0"],
    [74134,"2018-10-20T17:00:00","7.6","ND","ND","ND","6.6","ND","ND","ND","ND","ND","100","0"],
    [74135,"2018-10-20T18:00:00","10.4","ND","ND","ND","4.8","ND","ND","ND","ND","ND","29","0.51"],
    [74136,"2018-10-20T19:00:00","21.5","ND","ND","ND","8.5","ND","ND","ND","ND","ND","0","0"],
    [74137,"2018-10-20T20:00:00","20.3","ND","ND","ND","1.7","ND","ND","ND","ND","ND","0","0"],
    [74138,"2018-10-20T21:00:00","19.8","ND","ND","ND","2.5","ND","ND","ND","ND","ND","0","0"],
    [74139,"2018-10-20T22:00:00","16.3","ND","ND","ND","1.6","ND","ND","ND","ND","ND","0","0"],
    [74140,"2018-10-20T23:00:00","19","ND","ND","ND","1.2","ND","ND","ND","ND","ND","0","0"],
    [74141,"2018-10-21T00:00:00","17.7","ND","ND","ND","1.1","ND","ND","ND","ND","ND","0","0"],
    [74142,"2018-10-21T01:00:00","18.8","ND","ND","ND","1.0","ND","ND","ND","ND","ND","0","0"],
    [74143,"2018-10-21T02:00:00","20.8","ND","ND","ND","1.2","ND","ND","ND","ND","ND","0","0"],
    [74144,"2018-10-21T03:00:00","9.3","ND","ND","ND","1.0","ND","ND","ND","ND","ND","0","0"],
    [74145,"2018-10-21T04:00:00","20.6","ND","ND","ND","1.4","ND","ND","ND","ND","ND","0","1.02"],
    [74146,"2018-10-21T05:00:00","13.1","ND","ND","ND","1.1","ND","ND","ND","ND","ND","0","0"],
    [74147,"2018-10-21T06:00:00","6.7","ND","ND","ND","1.3","ND","ND","ND","ND","ND","0","0"],
    [74148,"2018-10-21T07:00:00","9.9","ND","ND","ND","1.6","ND","ND","ND","ND","ND","150","0.25"],
    [74149,"2018-10-21T08:00:00","12.9","ND","ND","ND","3.6","ND","ND","ND","ND","ND","429","0"],
    [74150,"2018-10-21T09:00:00","20.2","ND","ND","ND","11.9","ND","ND","ND","ND","ND","624","0"],
    [74151,"2018-10-21T10:00:00","15.4","ND","ND","ND","12.3","ND","ND","ND","ND","ND","440","0.25"],
    [74152,"2018-10-21T11:00:00","6","ND","ND","ND","15.2","ND","ND","ND","ND","ND","507","0"],
    [74153,"2018-10-21T12:00:00","8.6","ND","ND","ND","17.9","ND","ND","ND","ND","ND","509","0"],
    [74154,"2018-10-21T13:00:00","12.7","ND","ND","ND","18.7","ND","ND","ND","ND","ND","464","2.79"],
    [74155,"2018-10-21T14:00:00","1","ND","ND","ND","28.6","ND","ND","ND","ND","ND","665","0.25"],
    [74156,"2018-10-21T15:00:00","0.9","ND","ND","ND","31.8","ND","ND","ND","ND","ND","665","0"],
    [74157,"2018-10-21T16:00:00","2.1","ND","ND","ND","31.1","ND","ND","ND","ND","ND","661","0"],
    [74158,"2018-10-21T17:00:00","7.6","ND","ND","ND","30.8","ND","ND","ND","ND","ND","362","0"],
    [74159,"2018-10-21T18:00:00","12.8","ND","ND","ND","24.0","ND","ND","ND","ND","ND","66","0"],
    [74160,"2018-10-21T19:00:00","17.4","ND","ND","ND","2.6","ND","ND","ND","ND","ND","0","0.25"],
    [74161,"2018-10-21T20:00:00","20.6","ND","ND","ND","9.2","ND","ND","ND","ND","ND","0","0"],
    [74162,"2018-10-21T21:00:00","11","ND","ND","ND","3.4","ND","ND","ND","ND","ND","0","0"],
    [74163,"2018-10-21T22:00:00","21.7","ND","ND","ND","1.4","ND","ND","ND","ND","ND","0","0"],
    [74164,"2018-10-21T23:00:00","22.9","ND","ND","ND","7.8","ND","ND","ND","ND","ND","0","0"],
    [74165,"2018-10-22T00:00:00","12.1","ND","ND","ND","21.6","ND","ND","ND","ND","ND","0","0"],
    [74166,"2018-10-22T01:00:00","2","ND","ND","ND","14.2","ND","ND","ND","ND","ND","0","0"],
    [74167,"2018-10-22T02:00:00","5.8","ND","ND","ND","10.5","ND","ND","ND","ND","ND","0","0"],
    [74168,"2018-10-22T03:00:00","4.5","ND","ND","ND","7.5","ND","ND","ND","ND","ND","0","0"],
    [74169,"2018-10-22T04:00:00","6","ND","ND","ND","17.0","ND","ND","ND","ND","ND","0","0"],
    [74170,"2018-10-22T05:00:00","10.3","ND","ND","ND","8.8","ND","ND","ND","ND","ND","0","0"],
    [74171,"2018-10-22T06:00:00","7.9","ND","ND","ND","4.2","ND","ND","ND","ND","ND","0","0"],
    [74172,"2018-10-22T07:00:00","23.9","ND","ND","ND","1.6","ND","ND","ND","ND","ND","55","0"],
    [74173,"2018-10-22T08:00:00","34.2","ND","ND","ND","3.4","ND","ND","ND","ND","ND","252","0"],
    [74174,"2018-10-22T09:00:00","19.2","ND","ND","ND","8.1","ND","ND","ND","ND","ND","430","0"],
    [74175,"2018-10-22T10:00:00","2.8","ND","ND","ND","26.5","ND","ND","ND","ND","ND","665","0"],
    [74176,"2018-10-22T11:00:00","ND","ND","ND","ND","39.5","0.1","ND","ND","ND","ND","665","0"],
    [74177,"2018-10-22T12:00:00","0.9","ND","ND","ND","65.6","0.1","ND","ND","ND","ND","666","0"],
    [74178,"2018-10-22T13:00:00","5.9","ND","ND","ND","90.0","0.1","ND","ND","ND","ND","666","0"],
    [74179,"2018-10-22T14:00:00","8.5","ND","ND","ND","91.0","0.2","ND","ND","ND","ND","619","0"],
    [74180,"2018-10-22T15:00:00","14.6","ND","ND","ND","64.0","0.2","ND","ND","ND","ND","602","0"],
    [74181,"2018-10-22T16:00:00","24.4","ND","ND","ND","39.2","0.2","ND","ND","ND","ND","507","0"],
    [74182,"2018-10-22T17:00:00","15.1","ND","ND","ND","19.2","0.1","ND","ND","ND","ND","283","0"],
    [74183,"2018-10-22T18:00:00","14.2","ND","ND","ND","5.8","0.1","ND","ND","ND","ND","39","0"],
    [74184,"2018-10-22T19:00:00","27.7","ND","ND","ND","4.8","0.3","ND","ND","ND","ND","0","0"],
    [74185,"2018-10-22T20:00:00","15.9","ND","ND","ND","5.3","0.1","ND","ND","ND","ND","0","0.51"],
    [74186,"2018-10-22T21:00:00","10.7","ND","ND","ND","1.8","0.1","ND","ND","ND","ND","0","0"],
    [74187,"2018-10-22T22:00:00","17.3","ND","ND","ND","1.6","0.2","ND","ND","ND","ND","0","0"],
    [74188,"2018-10-22T23:00:00","23.8","ND","ND","ND","1.2","0.2","ND","ND","ND","ND","0","0"],
    [74189,"2018-10-23T00:00:00","18.7","ND","ND","ND","1.2","0.3","ND","ND","ND","ND","0","0"],
    [74190,"2018-10-23T01:00:00","24.7","ND","ND","ND","1.2","0.1","ND","ND","ND","ND","0","0"],
    [74191,"2018-10-23T02:00:00","25.3","ND","ND","ND","1.1","0.2","ND","ND","ND","ND","0","0"],
    [74192,"2018-10-23T03:00:00","21","ND","ND","ND","1.1","0.2","ND","ND","ND","ND","0","0"],
    [74193,"2018-10-23T04:00:00","16.8","ND","ND","ND","1.2","0.1","ND","ND","ND","ND","0","0"],
    [74194,"2018-10-23T05:00:00","13.7","ND","ND","ND","1.4","0.2","ND","ND","ND","ND","0","0"],
    [74195,"2018-10-23T06:00:00","23.4","ND","ND","ND","1.1","0.2","ND","ND","ND","ND","0","0"],
    [74196,"2018-10-23T07:00:00","25.4","ND","ND","ND","1.6","0.2","ND","ND","ND","ND","150","0"],
    [74197,"2018-10-23T08:00:00","40.5","ND","ND","ND","6.0","0.1","ND","ND","ND","ND","399","0"],
    [74198,"2018-10-23T09:00:00","24","ND","ND","ND","16.9","0.1","ND","ND","ND","ND","655","0"],
    [74199,"2018-10-23T10:00:00","25.7","ND","ND","ND","25.9","0.2","ND","ND","ND","ND","666","0"],
    [74200,"2018-10-23T11:00:00","14.5","ND","ND","ND","57.7","0.1","ND","ND","ND","ND","666","0"],
    [74201,"2018-10-23T12:00:00","11.8","ND","ND","ND","93.9","0.3","ND","ND","ND","ND","647","0"],
    [74202,"2018-10-23T13:00:00","20.2","ND","ND","ND","72.6","0.2","ND","ND","ND","ND","383","1.02"],
    [74203,"2018-10-23T14:00:00","4.7","ND","ND","ND","57.5","0.1","ND","ND","ND","ND","633","0.25"],
    [74204,"2018-10-23T15:00:00","4.5","ND","ND","ND","35.9","0.2","ND","ND","ND","ND","665","0"],
    [74205,"2018-10-23T16:00:00","ND","ND","ND","ND","29.3","0.2","ND","ND","ND","ND","635","0"],
    [74206,"2018-10-23T17:00:00","11.9","ND","ND","ND","27.8","0.1","ND","ND","ND","ND","420","0"],
    [74207,"2018-10-23T18:00:00","10.4","ND","ND","ND","18.3","0.1","ND","ND","ND","ND","95","0"],
    [74208,"2018-10-23T19:00:00","7","ND","ND","ND","13.3","0.2","ND","ND","ND","ND","0","0"],
    [74209,"2018-10-23T20:00:00","12.3","ND","ND","ND","3.5","0.2","ND","ND","ND","ND","0","0"],
    [74210,"2018-10-23T21:00:00","28.4","ND","ND","ND","1.8","0.2","ND","ND","ND","ND","0","0"],
    [74211,"2018-10-23T22:00:00","30.2","ND","ND","ND","1.3","0.3","ND","ND","ND","ND","0","0"],
    [74212,"2018-10-23T23:00:00","23","ND","ND","ND","1.5","0.2","ND","ND","ND","ND","0","0"],
    [74213,"2018-10-24T00:00:00","4.7","ND","ND","ND","1.6","0.2","ND","ND","ND","ND","0","0"],
    [74214,"2018-10-24T01:00:00","6.7","ND","ND","ND","2.5","0.2","ND","ND","ND","ND","0","0"],
    [74215,"2018-10-24T02:00:00","13.3","ND","ND","ND","2.8","0.3","ND","ND","ND","ND","0","0"],
    [74216,"2018-10-24T03:00:00","14.7","ND","ND","ND","1.4","0.1","ND","ND","ND","ND","0","0"],
    [74217,"2018-10-24T04:00:00","6.9","ND","ND","ND","1.5","0.2","ND","ND","ND","ND","0","0"],
    [74218,"2018-10-24T05:00:00","14.4","ND","ND","ND","1.9","0.5","ND","ND","ND","ND","0","0"],
    [74219,"2018-10-24T06:00:00","19.7","ND","ND","ND","1.9","0.7","ND","ND","ND","ND","5","0"],
    [74220,"2018-10-24T07:00:00","29.3","ND","ND","ND","2.1","1.2","ND","ND","ND","ND","141","0"],
    [74221,"2018-10-24T08:00:00","31.7","ND","ND","ND","4.0","0.6","ND","ND","ND","ND","548","0"],
    [74222,"2018-10-24T09:00:00","21.2","ND","ND","ND","12.5","0.5","ND","ND","ND","ND","665","0"],
    [74223,"2018-10-24T10:00:00","25","ND","ND","ND","22.6","0.4","ND","ND","ND","ND","666","0"],
    [74224,"2018-10-24T11:00:00","11.2","ND","ND","ND","35.0","0.3","ND","ND","ND","ND","662","0"],
    [74225,"2018-10-24T12:00:00","9.2","ND","ND","ND","45.2","0.3","ND","ND","ND","ND","656","0"],
    [74226,"2018-10-24T13:00:00","18.2","ND","ND","ND","26.9","0.2","ND","ND","ND","ND","665","0"],
    [74227,"2018-10-24T14:00:00","0.7","ND","ND","ND","20.6","0.3","ND","ND","ND","ND","627","0"],
    [74228,"2018-10-24T15:00:00","0.3","ND","ND","ND","13.1","0.1","ND","ND","ND","ND","556","0"],
    [74229,"2018-10-24T16:00:00","9.7","ND","ND","ND","16.2","0.2","ND","ND","ND","ND","338","0"],
    [74230,"2018-10-24T17:00:00","12.5","ND","ND","ND","8.1","0.2","ND","ND","ND","ND","328","0"],
    [74231,"2018-10-24T18:00:00","16.3","ND","ND","ND","6.8","0.2","ND","ND","ND","ND","43","0"],
    [74232,"2018-10-24T19:00:00","10.2","ND","ND","ND","2.5","0.2","ND","ND","ND","ND","0","0"],
    [74233,"2018-10-24T20:00:00","15.8","ND","ND","ND","1.5","0.3","ND","ND","ND","ND","0","0"],
    [74234,"2018-10-24T21:00:00","21.9","ND","ND","ND","1.7","0.2","ND","ND","ND","ND","0","0"],
    [74235,"2018-10-24T22:00:00","23","ND","ND","ND","1.6","0.1","ND","ND","ND","ND","0","0"],
    [74236,"2018-10-24T23:00:00","14.2","ND","ND","ND","1.4","0.2","ND","ND","ND","ND","0","0"],
    [74237,"2018-10-25T00:00:00","15","ND","ND","ND","1.4","0.2","ND","ND","ND","ND","0","0"],
    [74238,"2018-10-25T01:00:00","21.4","ND","ND","ND","2.5","0.1","ND","ND","ND","ND","0","0"],
    [74239,"2018-10-25T02:00:00","17.2","ND","ND","ND","3.6","0.2","ND","ND","ND","ND","0","0"],
    [74240,"2018-10-25T03:00:00","10","ND","ND","ND","1.3","0.1","ND","ND","ND","ND","0","0"],
    [74241,"2018-10-25T04:00:00","11.3","ND","ND","ND","1.2","0.1","ND","ND","ND","ND","0","0"],
    [74242,"2018-10-25T05:00:00","15.6","ND","ND","ND","1.6","0.3","ND","ND","ND","ND","0","0"],
    [74243,"2018-10-25T06:00:00","23","ND","ND","ND","1.6","0.2","ND","ND","ND","ND","0","0"],
    [74244,"2018-10-25T07:00:00","25.7","ND","ND","ND","1.6","0.3","ND","ND","ND","ND","119","0"],
    [74245,"2018-10-25T08:00:00","19.2","ND","ND","ND","2.3","0.2","ND","ND","ND","ND","421","0"],
    [74246,"2018-10-25T09:00:00","13.3","ND","ND","ND","6.2","0.4","ND","ND","ND","ND","664","0"],
    [74247,"2018-10-25T10:00:00","8.6","ND","ND","ND","17.1","0.3","ND","ND","ND","ND","665","0"],
    [74248,"2018-10-25T11:00:00","15.3","ND","ND","ND","38.0","0.2","ND","ND","ND","ND","651","0"],
    [74249,"2018-10-25T12:00:00","17.1","ND","ND","ND","31.9","0.4","ND","ND","ND","ND","665","0"],
    [74250,"2018-10-25T13:00:00","12.8","ND","ND","ND","34.6","0.3","ND","ND","ND","ND","419","4.06"],
    [74251,"2018-10-25T14:00:00","15.4","ND","ND","ND","21.5","0.3","ND","ND","ND","ND","632","0"],
    [74252,"2018-10-25T15:00:00","1.4","ND","ND","ND","26.4","0.1","ND","ND","ND","ND","665","0"],
    [74253,"2018-10-25T16:00:00","1.4","ND","ND","ND","17.0","0.3","ND","ND","ND","ND","640","0"],
    [74254,"2018-10-25T17:00:00","11","ND","ND","ND","13.6","0.2","ND","ND","ND","ND","581","0"],
    [74255,"2018-10-25T18:00:00","19.3","ND","ND","ND","10.0","0.2","ND","ND","ND","ND","77","0"],
    [74256,"2018-10-25T19:00:00","22.9","ND","ND","ND","3.0","0.1","ND","ND","ND","ND","0","0"],
    [74257,"2018-10-25T20:00:00","11.4","ND","ND","ND","1.6","0.1","ND","ND","ND","ND","0","0.25"],
    [74258,"2018-10-25T21:00:00","20.7","ND","ND","ND","1.7","0.2","ND","ND","ND","ND","0","0"],
    [74259,"2018-10-25T22:00:00","16.8","ND","ND","ND","1.8","0.1","ND","ND","ND","ND","0","0"],
    [74260,"2018-10-25T23:00:00","11.3","ND","ND","ND","1.5","0.3","ND","ND","ND","ND","0","0"],
    [74261,"2018-10-26T00:00:00","9.5","ND","ND","ND","1.5","0.3","ND","ND","ND","ND","0","0"],
    [74262,"2018-10-26T01:00:00","9.5","ND","ND","ND","1.4","0.2","ND","ND","ND","ND","0","0"],
    [74263,"2018-10-26T02:00:00","10","ND","ND","ND","1.4","0.4","ND","ND","ND","ND","0","0"],
    [74264,"2018-10-26T03:00:00","ND","ND","ND","ND","ND","ND","ND","ND","ND","ND","ND","ND"],
    [74265,"2018-10-26T04:00:00","ND","ND","ND","ND","ND","ND","ND","ND","ND","ND","ND","ND"],
    [74266,"2018-10-26T05:00:00","ND","ND","ND","ND","ND","ND","ND","ND","ND","ND","ND","ND"],
    [74267,"2018-10-26T06:00:00","ND","ND","ND","ND","ND","ND","ND","ND","ND","ND","ND","ND"],
    [74268,"2018-10-26T07:00:00","ND","ND","ND","ND","ND","ND","ND","ND","ND","ND","ND","ND"],
    [74269,"2018-10-26T08:00:00","ND","ND","ND","ND","ND","ND","ND","ND","ND","ND","ND","ND"],
    [74270,"2018-10-26T09:00:00","ND","ND","ND","ND","ND","ND","ND","ND","ND","ND","ND","ND"],
    [74271,"2018-10-26T10:00:00","ND","ND","ND","ND","ND","ND","ND","ND","ND","ND","ND","ND"],
    [74272,"2018-10-26T11:00:00","ND","ND","ND","ND","ND","ND","ND","ND","ND","ND","ND","ND"],
    [74273,"2018-10-26T12:00:00","ND","ND","ND","ND","ND","ND","ND","ND","ND","ND","ND","ND"],
    [74274,"2018-10-26T13:00:00","ND","ND","ND","ND","ND","ND","ND","ND","ND","ND","ND","ND"],
    [74275,"2018-10-26T14:00:00","ND","ND","ND","ND","ND","ND","ND","ND","ND","ND","ND","ND"],
    [74276,"2018-10-26T15:00:00","ND","ND","ND","ND","ND","ND","ND","ND","ND","ND","ND","ND"],
    [74277,"2018-10-26T16:00:00","ND","ND","ND","ND","ND","ND","ND","ND","ND","ND","ND","ND"],
    [74278,"2018-10-26T17:00:00","ND","ND","ND","ND","ND","ND","ND","ND","ND","ND","ND","ND"],
    [74279,"2018-10-26T18:00:00","ND","ND","ND","ND","ND","ND","ND","ND","ND","ND","ND","ND"],
    [74280,"2018-10-26T19:00:00","ND","ND","ND","ND","ND","ND","ND","ND","ND","ND","ND","ND"],
    [74281,"2018-10-26T20:00:00","ND","ND","ND","ND","ND","ND","ND","ND","ND","ND","ND","ND"],
    [74282,"2018-10-26T21:00:00","ND","ND","ND","ND","ND","ND","ND","ND","ND","ND","ND","ND"],
    [74283,"2018-10-26T22:00:00","ND","ND","ND","ND","ND","ND","ND","ND","ND","ND","ND","ND"],
    [74284,"2018-10-26T23:00:00","ND","ND","ND","ND","ND","ND","ND","ND","ND","ND","ND","ND"],
    [74285,"2018-10-27T00:00:00","ND","ND","ND","ND","ND","ND","ND","ND","ND","ND","ND","ND"],
    [74286,"2018-10-27T01:00:00","ND","ND","ND","ND","ND","ND","ND","ND","ND","ND","ND","ND"],
    [74287,"2018-10-27T02:00:00","ND","ND","ND","ND","ND","ND","ND","ND","ND","ND","ND","ND"],
    [74288,"2018-10-27T03:00:00","ND","ND","ND","ND","ND","ND","ND","ND","ND","ND","ND","ND"],
    [74289,"2018-10-27T04:00:00","ND","ND","ND","ND","ND","ND","ND","ND","ND","ND","ND","ND"],
    [74290,"2018-10-27T05:00:00","ND","ND","ND","ND","ND","ND","ND","ND","ND","ND","ND","ND"],
    [74291,"2018-10-27T06:00:00","ND","ND","ND","ND","ND","ND","ND","ND","ND","ND","ND","ND"],
    [74292,"2018-10-27T07:00:00","ND","ND","ND","ND","ND","ND","ND","ND","ND","ND","ND","ND"],
    [74293,"2018-10-27T08:00:00","ND","ND","ND","ND","ND","ND","ND","ND","ND","ND","ND","ND"],
    [74294,"2018-10-27T09:00:00","ND","ND","ND","ND","ND","ND","ND","ND","ND","ND","ND","ND"],
    [74295,"2018-10-27T10:00:00","ND","ND","ND","ND","ND","ND","ND","ND","ND","ND","ND","ND"],
    [74296,"2018-10-27T11:00:00","ND","ND","ND","ND","ND","ND","ND","ND","ND","ND","ND","ND"],
    [74297,"2018-10-27T12:00:00","ND","ND","ND","ND","ND","ND","ND","ND","ND","ND","ND","ND"],
    [74298,"2018-10-27T13:00:00","ND","ND","ND","ND","ND","ND","ND","ND","ND","ND","ND","ND"],
    [74299,"2018-10-27T14:00:00","ND","ND","ND","ND","ND","ND","ND","ND","ND","ND","ND","ND"],
    [74300,"2018-10-27T15:00:00","ND","ND","ND","ND","ND","ND","ND","ND","ND","ND","ND","ND"],
    [74301,"2018-10-27T16:00:00","ND","ND","ND","ND","ND","ND","ND","ND","ND","ND","ND","ND"],
    [74302,"2018-10-27T17:00:00","ND","ND","ND","ND","ND","ND","ND","ND","ND","ND","ND","ND"],
    [74303,"2018-10-27T18:00:00","ND","ND","ND","ND","ND","ND","ND","ND","ND","ND","ND","ND"],
    [74304,"2018-10-27T19:00:00","ND","ND","ND","ND","ND","ND","ND","ND","ND","ND","ND","ND"],
    [74305,"2018-10-27T20:00:00","ND","ND","ND","ND","ND","ND","ND","ND","ND","ND","ND","ND"],
    [74306,"2018-10-27T21:00:00","ND","ND","ND","ND","ND","ND","ND","ND","ND","ND","ND","ND"],
    [74307,"2018-10-27T22:00:00","ND","ND","ND","ND","ND","ND","ND","ND","ND","ND","ND","ND"],
    [74308,"2018-10-27T23:00:00","ND","ND","ND","ND","ND","ND","ND","ND","ND","ND","ND","ND"],
    [74309,"2018-10-28T00:00:00","ND","ND","ND","ND","ND","ND","ND","ND","ND","ND","ND","ND"],
    [74310,"2018-10-28T01:00:00","ND","ND","ND","ND","ND","ND","ND","ND","ND","ND","ND","ND"],
    [74311,"2018-10-28T02:00:00","ND","ND","ND","ND","ND","ND","ND","ND","ND","ND","ND","ND"],
    [74312,"2018-10-28T03:00:00","ND","ND","ND","ND","ND","ND","ND","ND","ND","ND","ND","ND"],
    [74313,"2018-10-28T04:00:00","ND","ND","ND","ND","ND","ND","ND","ND","ND","ND","ND","ND"],
    [74314,"2018-10-28T05:00:00","ND","ND","ND","ND","ND","ND","ND","ND","ND","ND","ND","ND"],
    [74315,"2018-10-28T06:00:00","ND","ND","ND","ND","ND","ND","ND","ND","ND","ND","ND","ND"],
    [74316,"2018-10-28T07:00:00","ND","ND","ND","ND","ND","ND","ND","ND","ND","ND","ND","ND"],
    [74317,"2018-10-28T08:00:00","ND","ND","ND","ND","ND","ND","ND","ND","ND","ND","ND","ND"],
    [74318,"2018-10-28T09:00:00","ND","ND","ND","ND","ND","ND","ND","ND","ND","ND","ND","ND"],
    [74319,"2018-10-28T10:00:00","ND","ND","ND","ND","ND","ND","ND","ND","ND","ND","ND","ND"],
    [74320,"2018-10-28T11:00:00","ND","ND","ND","ND","ND","ND","ND","ND","ND","ND","ND","ND"],
    [74321,"2018-10-28T12:00:00","ND","ND","ND","ND","ND","ND","ND","ND","ND","ND","ND","ND"],
    [74322,"2018-10-28T13:00:00","ND","ND","ND","ND","ND","ND","ND","ND","ND","ND","ND","ND"],
    [74323,"2018-10-28T14:00:00","ND","ND","ND","ND","ND","ND","ND","ND","ND","ND","ND","ND"],
    [74324,"2018-10-28T15:00:00","ND","ND","ND","ND","ND","ND","ND","ND","ND","ND","ND","ND"],
    [74325,"2018-10-28T16:00:00","ND","ND","ND","ND","ND","ND","ND","ND","ND","ND","ND","ND"],
    [74326,"2018-10-28T17:00:00","ND","ND","ND","ND","ND","ND","ND","ND","ND","ND","ND","ND"],
    [74327,"2018-10-28T18:00:00","ND","ND","ND","ND","ND","ND","ND","ND","ND","ND","ND","ND"],
    [74328,"2018-10-28T19:00:00","ND","ND","ND","ND","ND","ND","ND","ND","ND","ND","ND","ND"],
    [74329,"2018-10-28T20:00:00","ND","ND","ND","ND","ND","ND","ND","ND","ND","ND","ND","ND"],
    [74330,"2018-10-28T21:00:00","ND","ND","ND","ND","ND","ND","ND","ND","ND","ND","ND","ND"],
    [74331,"2018-10-28T22:00:00","ND","ND","ND","ND","ND","ND","ND","ND","ND","ND","ND","ND"],
    [74332,"2018-10-28T23:00:00","ND","ND","ND","ND","ND","ND","ND","ND","ND","ND","ND","ND"],
    [74333,"2018-10-29T00:00:00","ND","ND","ND","ND","ND","ND","ND","ND","ND","ND","ND","ND"],
    [74334,"2018-10-29T01:00:00","ND","ND","ND","ND","ND","ND","ND","ND","ND","ND","ND","ND"],
    [74335,"2018-10-29T02:00:00","ND","ND","ND","ND","ND","ND","ND","ND","ND","ND","ND","ND"],
    [74336,"2018-10-29T03:00:00","ND","ND","ND","ND","ND","ND","ND","ND","ND","ND","ND","ND"],
    [74337,"2018-10-29T04:00:00","ND","ND","ND","ND","ND","ND","ND","ND","ND","ND","ND","ND"],
    [74338,"2018-10-29T05:00:00","ND","ND","ND","ND","ND","ND","ND","ND","ND","ND","ND","ND"],
    [74339,"2018-10-29T06:00:00","ND","ND","ND","ND","ND","ND","ND","ND","ND","ND","ND","ND"],
    [74340,"2018-10-29T07:00:00","ND","ND","ND","ND","ND","ND","ND","ND","ND","ND","ND","ND"],
    [74341,"2018-10-29T08:00:00","ND","ND","ND","ND","ND","ND","ND","ND","ND","ND","ND","ND"],
    [74342,"2018-10-29T09:00:00","ND","ND","ND","ND","ND","ND","ND","ND","ND","ND","ND","ND"],
    [74343,"2018-10-29T10:00:00","ND","ND","ND","ND","ND","ND","ND","ND","ND","ND","ND","ND"],
    [74344,"2018-10-29T11:00:00","ND","ND","ND","ND","ND","ND","ND","ND","ND","ND","ND","ND"],
    [74345,"2018-10-29T12:00:00","ND","ND","ND","ND","ND","0.6","ND","ND","ND","ND","665","0"],
    [74346,"2018-10-29T13:00:00","ND","ND","ND","ND","ND","0.1","ND","ND","ND","ND","255","32.26"],
    [74347,"2018-10-29T14:00:00","ND","ND","ND","ND","ND","0.1","ND","ND","ND","ND","89","68.33"],
    [74348,"2018-10-29T15:00:00","ND","ND","ND","ND","ND","0.1","ND","ND","ND","ND","79","2.29"],
    [74349,"2018-10-29T16:00:00","ND","ND","ND","ND","ND","0.1","ND","ND","ND","ND","165","0.25"],
    [74350,"2018-10-29T17:00:00","ND","ND","ND","ND","ND","0.1","ND","ND","ND","ND","244","0"],
    [74351,"2018-10-29T18:00:00","ND","ND","ND","ND","ND","0.0","ND","ND","ND","ND","48","0"],
    [74352,"2018-10-29T19:00:00","ND","ND","ND","ND","ND","0.2","ND","ND","ND","ND","0","0"],
    [74353,"2018-10-29T20:00:00","ND","ND","ND","ND","ND","0.1","ND","ND","ND","ND","0","0"],
    [74354,"2018-10-29T21:00:00","ND","ND","ND","ND","ND","0.3","ND","ND","ND","ND","0","0"],
    [74355,"2018-10-29T22:00:00","ND","ND","ND","ND","ND","0.1","ND","ND","ND","ND","0","0"],
    [74356,"2018-10-29T23:00:00","ND","ND","ND","ND","ND","0.1","ND","ND","ND","ND","0","0"],
    [74357,"2018-10-30T00:00:00","ND","ND","ND","ND","ND","0.1","ND","ND","ND","ND","0","0"],
    [74358,"2018-10-30T01:00:00","ND","ND","ND","ND","ND","0.1","ND","ND","ND","ND","0","0"],
    [74359,"2018-10-30T02:00:00","ND","ND","ND","ND","ND","0.1","ND","ND","ND","ND","0","0"],
    [74360,"2018-10-30T03:00:00","ND","ND","ND","ND","ND","0.1","ND","ND","ND","ND","0","0"],
    [74361,"2018-10-30T04:00:00","ND","ND","ND","ND","ND","0.1","ND","ND","ND","ND","0","0"],
    [74362,"2018-10-30T05:00:00","ND","ND","ND","ND","ND","0.2","ND","ND","ND","ND","0","0"],
    [74363,"2018-10-30T06:00:00","ND","ND","ND","ND","ND","0.2","ND","ND","ND","ND","0","0"],
    [74364,"2018-10-30T07:00:00","ND","ND","ND","ND","ND","0.1","ND","ND","ND","ND","116","0"],
    [74365,"2018-10-30T08:00:00","ND","ND","ND","ND","ND","0.2","ND","ND","ND","ND","421","0"],
    [74366,"2018-10-30T09:00:00","ND","ND","ND","ND","ND","0.3","ND","ND","ND","ND","664","0"],
    [74367,"2018-10-30T10:00:00","ND","ND","ND","ND","ND","0.3","ND","ND","ND","ND","664","0"],
    [74368,"2018-10-30T11:00:00","ND","ND","ND","ND","ND","0.2","ND","ND","ND","ND","664","0"],
    [74369,"2018-10-30T12:00:00","ND","ND","ND","ND","ND","0.3","ND","ND","ND","ND","665","0"],
    [74370,"2018-10-30T13:00:00","ND","ND","ND","ND","ND","0.1","ND","ND","ND","ND","662","0"],
    [74371,"2018-10-30T14:00:00","ND","ND","ND","ND","ND","0.1","ND","ND","ND","ND","659","0"],
    [74372,"2018-10-30T15:00:00","ND","ND","ND","ND","ND","0.3","ND","ND","ND","ND","627","0"],
    [74373,"2018-10-30T16:00:00","ND","ND","ND","ND","ND","0.1","ND","ND","ND","ND","666","0"],
    [74374,"2018-10-30T17:00:00","ND","ND","ND","ND","ND","0.0","ND","ND","ND","ND","567","0.25"],
    [74375,"2018-10-30T18:00:00","ND","ND","ND","ND","ND","0.2","ND","ND","ND","ND","94","0"],
    [74376,"2018-10-30T19:00:00","ND","ND","ND","ND","ND","0.1","ND","ND","ND","ND","0","0"],
    [74377,"2018-10-30T20:00:00","ND","ND","ND","ND","ND","0.1","ND","ND","ND","ND","0","0"],
    [74378,"2018-10-30T21:00:00","ND","ND","ND","ND","ND","0.2","ND","ND","ND","ND","0","0"],
    [74379,"2018-10-30T22:00:00","ND","ND","ND","ND","ND","0.1","ND","ND","ND","ND","0","0"],
    [74380,"2018-10-30T23:00:00","ND","ND","ND","ND","ND","0.2","ND","ND","ND","ND","0","0"],
    [74381,"2018-10-31T00:00:00","ND","ND","ND","ND","ND","0.0","ND","ND","ND","ND","0","0"],
    [74382,"2018-10-31T01:00:00","ND","ND","ND","ND","ND","0.1","ND","ND","ND","ND","0","0"],
    [74383,"2018-10-31T02:00:00","ND","ND","ND","ND","ND","0.1","ND","ND","ND","ND","0","0"],
    [74384,"2018-10-31T03:00:00","ND","ND","ND","ND","ND","0.1","ND","ND","ND","ND","0","0"],
    [74385,"2018-10-31T04:00:00","ND","ND","ND","ND","ND","0.2","ND","ND","ND","ND","0","0"],
    [74386,"2018-10-31T05:00:00","ND","ND","ND","ND","ND","0.1","ND","ND","ND","ND","0","0"],
    [74387,"2018-10-31T06:00:00","ND","ND","ND","ND","ND","0.1","ND","ND","ND","ND","0","0"],
    [74388,"2018-10-31T07:00:00","ND","ND","ND","ND","ND","0.1","ND","ND","ND","ND","254","0"],
    [74389,"2018-10-31T08:00:00","ND","ND","ND","ND","ND","0.2","ND","ND","ND","ND","637","0"],
    [74390,"2018-10-31T09:00:00","ND","ND","ND","ND","ND","0.2","ND","ND","ND","ND","574","0"],
    [74391,"2018-10-31T10:00:00","ND","ND","ND","ND","ND","0.2","ND","ND","ND","ND","665","0"],
    [74392,"2018-10-31T11:00:00","ND","ND","ND","ND","ND","0.2","ND","ND","ND","ND","666","0"],
    [74393,"2018-10-31T12:00:00","ND","ND","ND","ND","ND","0.2","ND","ND","ND","ND","659","0"],
    [74394,"2018-10-31T13:00:00","ND","ND","ND","ND","ND","0.1","ND","ND","ND","ND","662","0"],
    [74395,"2018-10-31T14:00:00","ND","ND","ND","ND","ND","0.1","ND","ND","ND","ND","597","0"],
    [74396,"2018-10-31T15:00:00","ND","ND","ND","ND","ND","0.1","ND","ND","ND","ND","650","0"],
    [74397,"2018-10-31T16:00:00","ND","ND","ND","ND","ND","0.2","ND","ND","ND","ND","625","0"],
    [74398,"2018-10-31T17:00:00","ND","ND","ND","ND","ND","0.2","ND","ND","ND","ND","513","0"],
    [74399,"2018-10-31T18:00:00","ND","ND","ND","ND","ND","0.2","ND","ND","ND","ND","63","0"],
    [74400,"2018-10-31T19:00:00","ND","ND","ND","ND","ND","0.0","ND","ND","ND","ND","0","0"],
    [74401,"2018-10-31T20:00:00","ND","ND","ND","ND","ND","0.1","ND","ND","ND","ND","0","0"],
    [74402,"2018-10-31T21:00:00","ND","ND","ND","ND","ND","0.2","ND","ND","ND","ND","0","0"],
    [74403,"2018-10-31T22:00:00","ND","ND","ND","ND","ND","0.2","ND","ND","ND","ND","0","0"],
    [74404,"2018-10-31T23:00:00","ND","ND","ND","ND","ND","0.1","ND","ND","ND","ND","0","0"],
    [74405,"2018-11-01T00:00:00","ND","ND","ND","ND","ND","0.1","ND","ND","ND","ND","0","0"],
    [74406,"2018-11-01T01:00:00","ND","ND","ND","ND","ND","0.1","ND","ND","ND","ND","0","0"],
    [74407,"2018-11-01T02:00:00","ND","ND","ND","ND","ND","0.1","ND","ND","ND","ND","0","0"],
    [74408,"2018-11-01T03:00:00","ND","ND","ND","ND","ND","0.1","ND","ND","ND","ND","0","0"],
    [74409,"2018-11-01T04:00:00","ND","ND","ND","ND","ND","0.2","ND","ND","ND","ND","0","0"],
    [74410,"2018-11-01T05:00:00","ND","ND","ND","ND","ND","0.1","ND","ND","ND","ND","0","0"],
    [74411,"2018-11-01T06:00:00","ND","ND","ND","ND","ND","0.1","ND","ND","ND","ND","19","0"],
    [74412,"2018-11-01T07:00:00","ND","ND","ND","ND","ND","0.1","ND","ND","ND","ND","108","0"],
    [74413,"2018-11-01T08:00:00","ND","ND","ND","ND","ND","0.1","ND","ND","ND","ND","281","0"],
    [74414,"2018-11-01T09:00:00","ND","ND","ND","ND","ND","0.1","ND","ND","ND","ND","656","0"],
    [74415,"2018-11-01T10:00:00","ND","ND","ND","ND","ND","0.1","ND","ND","ND","ND","664","0"],
    [74416,"2018-11-01T11:00:00","ND","ND","ND","ND","ND","0.1","ND","ND","ND","ND","664","0"],
    [74417,"2018-11-01T12:00:00","ND","ND","ND","ND","ND","0.0","ND","ND","ND","ND","664","0"],
    [74418,"2018-11-01T13:00:00","ND","ND","ND","ND","ND","0.2","ND","ND","ND","ND","665","0"],
    [74419,"2018-11-01T14:00:00","ND","ND","ND","ND","ND","0.1","ND","ND","ND","ND","665","0"],
    [74420,"2018-11-01T15:00:00","ND","ND","ND","ND","ND","0.1","ND","ND","ND","ND","646","0"],
    [74421,"2018-11-01T16:00:00","ND","ND","ND","ND","ND","0.1","ND","ND","ND","ND","645","0"],
    [74422,"2018-11-01T17:00:00","ND","ND","ND","ND","ND","0.3","ND","ND","ND","ND","218","0"],
    [74423,"2018-11-01T18:00:00","ND","ND","ND","ND","ND","0.1","ND","ND","ND","ND","37","0"],
    [74424,"2018-11-01T19:00:00","ND","ND","ND","ND","ND","0.2","ND","ND","ND","ND","0","0"],
    [74425,"2018-11-01T20:00:00","ND","ND","ND","ND","ND","0.2","ND","ND","ND","ND","0","0"],
    [74426,"2018-11-01T21:00:00","ND","ND","ND","ND","ND","0.2","ND","ND","ND","ND","0","0"],
    [74427,"2018-11-01T22:00:00","ND","ND","ND","ND","ND","0.1","ND","ND","ND","ND","0","0"],
    [74428,"2018-11-01T23:00:00","ND","ND","ND","ND","ND","0.1","ND","ND","ND","ND","0","0"],
    [74429,"2018-11-02T00:00:00","ND","ND","ND","ND","ND","0.1","ND","ND","ND","ND","0","0.25"],
    [74430,"2018-11-02T01:00:00","ND","ND","ND","ND","ND","0.1","ND","ND","ND","ND","0","0.25"],
    [74431,"2018-11-02T02:00:00","ND","ND","ND","ND","ND","0.1","ND","ND","ND","ND","0","3.05"],
    [74432,"2018-11-02T03:00:00","ND","ND","ND","ND","ND","0.1","ND","ND","ND","ND","0","9.14"],
    [74433,"2018-11-02T04:00:00","ND","ND","ND","ND","ND","0.0","ND","ND","ND","ND","0","0.25"],
    [74434,"2018-11-02T05:00:00","ND","ND","ND","ND","ND","0.1","ND","ND","ND","ND","0","0"],
    [74435,"2018-11-02T06:00:00","ND","ND","ND","ND","ND","0.0","ND","ND","ND","ND","0","0.25"],
    [74436,"2018-11-02T07:00:00","ND","ND","ND","ND","ND","0.2","ND","ND","ND","ND","80","0.25"],
    [74437,"2018-11-02T08:00:00","ND","ND","ND","ND","ND","0.0","ND","ND","ND","ND","300","0"],
    [74438,"2018-11-02T09:00:00","ND","ND","ND","ND","ND","0.1","ND","ND","ND","ND","456","0"],
    [74439,"2018-11-02T10:00:00","ND","ND","ND","ND","ND","0.0","ND","ND","ND","ND","554","0"],
    [74440,"2018-11-02T11:00:00","ND","ND","ND","ND","ND","0.0","ND","ND","ND","ND","664","0"],
    [74441,"2018-11-02T12:00:00","ND","ND","ND","ND","ND","0.1","ND","ND","ND","ND","664","0"],
    [74442,"2018-11-02T13:00:00","ND","ND","ND","ND","ND","0.1","ND","ND","ND","ND","665","0"],
    [74443,"2018-11-02T14:00:00","ND","ND","ND","ND","ND","0.0","ND","ND","ND","ND","650","0"],
    [74444,"2018-11-02T15:00:00","ND","ND","ND","ND","ND","0.0","ND","ND","ND","ND","655","0.25"],
    [74445,"2018-11-02T16:00:00","ND","ND","ND","ND","ND","0.1","ND","ND","ND","ND","582","0"],
    [74446,"2018-11-02T17:00:00","ND","ND","ND","ND","ND","0.1","ND","ND","ND","ND","253","0"],
    [74447,"2018-11-02T18:00:00","ND","ND","ND","ND","ND","0.1","ND","ND","ND","ND","22","0"],
    [74448,"2018-11-02T19:00:00","ND","ND","ND","ND","ND","0.0","ND","ND","ND","ND","0","0"],
    [74449,"2018-11-02T20:00:00","ND","ND","ND","ND","ND","0.0","ND","ND","ND","ND","0","0"],
    [74450,"2018-11-02T21:00:00","ND","ND","ND","ND","ND","0.0","ND","ND","ND","ND","0","0"],
    [74451,"2018-11-02T22:00:00","ND","ND","ND","ND","ND","0.1","ND","ND","ND","ND","0","0"],
    [74452,"2018-11-02T23:00:00","ND","ND","ND","ND","ND","0.2","ND","ND","ND","ND","0","0.51"],
    [74453,"2018-11-03T00:00:00","ND","ND","ND","ND","ND","0.1","ND","ND","ND","ND","0","1.52"],
    [74454,"2018-11-03T01:00:00","ND","ND","ND","ND","ND","0.3","ND","ND","ND","ND","0","1.02"],
    [74455,"2018-11-03T02:00:00","ND","ND","ND","ND","ND","0.1","ND","ND","ND","ND","0","1.02"],
    [74456,"2018-11-03T03:00:00","ND","ND","ND","ND","ND","0.2","ND","ND","ND","ND","0","0"],
    [74457,"2018-11-03T04:00:00","ND","ND","ND","ND","ND","0.1","ND","ND","ND","ND","0","0"],
    [74458,"2018-11-03T05:00:00","ND","ND","ND","ND","ND","0.1","ND","ND","ND","ND","0","0"],
    [74459,"2018-11-03T06:00:00","ND","ND","ND","ND","ND","0.6","ND","ND","ND","ND","0","0"],
    [74460,"2018-11-03T07:00:00","ND","ND","ND","ND","ND","0.4","ND","ND","ND","ND","56","0"],
    [74461,"2018-11-03T08:00:00","ND","ND","ND","ND","ND","0.2","ND","ND","ND","ND","170","0"],
    [74462,"2018-11-03T09:00:00","ND","ND","ND","ND","ND","0.1","ND","ND","ND","ND","563","0.25"],
    [74463,"2018-11-03T10:00:00","ND","ND","ND","ND","ND","0.1","ND","ND","ND","ND","353","0"],
    [74464,"2018-11-03T11:00:00","ND","ND","ND","ND","ND","0.0","ND","ND","ND","ND","664","0"],
    [74465,"2018-11-03T12:00:00","ND","ND","ND","ND","ND","0.0","ND","ND","ND","ND","664","0"],
    [74466,"2018-11-03T13:00:00","ND","ND","ND","ND","ND","0.1","ND","ND","ND","ND","650","0"],
    [74467,"2018-11-03T14:00:00","ND","ND","ND","ND","ND","0.1","ND","ND","ND","ND","592","0"],
    [74468,"2018-11-03T15:00:00","ND","ND","ND","ND","ND","0.1","ND","ND","ND","ND","464","0"],
    [74469,"2018-11-03T16:00:00","ND","ND","ND","ND","ND","0.1","ND","ND","ND","ND","391","0"],
    [74470,"2018-11-03T17:00:00","ND","ND","ND","ND","ND","0.1","ND","ND","ND","ND","461","0"],
    [74471,"2018-11-03T18:00:00","ND","ND","ND","ND","ND","0.1","ND","ND","ND","ND","64","0"],
    [74472,"2018-11-03T19:00:00","ND","ND","ND","ND","ND","0.1","ND","ND","ND","ND","0","0"],
    [74473,"2018-11-03T20:00:00","ND","ND","ND","ND","ND","0.2","ND","ND","ND","ND","0","0"],
    [74474,"2018-11-03T21:00:00","ND","ND","ND","ND","ND","0.1","ND","ND","ND","ND","0","0"],
    [74475,"2018-11-03T22:00:00","ND","ND","ND","ND","ND","0.1","ND","ND","ND","ND","0","0"],
    [74476,"2018-11-03T23:00:00","ND","ND","ND","ND","ND","0.1","ND","ND","ND","ND","0","0"],
    [74477,"2018-11-04T00:00:00","ND","ND","ND","ND","ND","0.1","ND","ND","ND","ND","0","0"],
    [74478,"2018-11-04T01:00:00","ND","ND","ND","ND","ND","0.2","ND","ND","ND","ND","0","0"],
    [74479,"2018-11-04T02:00:00","ND","ND","ND","ND","ND","0.1","ND","ND","ND","ND","0","0"],
    [74480,"2018-11-04T03:00:00","ND","ND","ND","ND","ND","0.1","ND","ND","ND","ND","0","0"],
    [74481,"2018-11-04T04:00:00","ND","ND","ND","ND","ND","0.1","ND","ND","ND","ND","0","0"],
    [74482,"2018-11-04T05:00:00","ND","ND","ND","ND","ND","0.1","ND","ND","ND","ND","0","0.25"],
    [74483,"2018-11-04T06:00:00","ND","ND","ND","ND","ND","0.1","ND","ND","ND","ND","0","2.03"],
    [74484,"2018-11-04T07:00:00","ND","ND","ND","ND","ND","0.1","ND","ND","ND","ND","52","0.51"],
    [74485,"2018-11-04T08:00:00","ND","ND","ND","ND","ND","0.1","ND","ND","ND","ND","256","0"],
    [74486,"2018-11-04T09:00:00","ND","ND","ND","ND","ND","0.1","ND","ND","ND","ND","370","0"],
    [74487,"2018-11-04T10:00:00","ND","ND","ND","ND","ND","0.1","ND","ND","ND","ND","314","0"],
    [74488,"2018-11-04T11:00:00","ND","ND","ND","ND","ND","0.1","ND","ND","ND","ND","595","1.27"],
    [74489,"2018-11-04T12:00:00","ND","ND","ND","ND","ND","0.1","ND","ND","ND","ND","664","0"],
    [74490,"2018-11-04T13:00:00","ND","ND","ND","ND","ND","0.0","ND","ND","ND","ND","664","0"],
    [74491,"2018-11-04T14:00:00","ND","ND","ND","ND","ND","0.2","ND","ND","ND","ND","580","0"],
    [74492,"2018-11-04T15:00:00","ND","ND","ND","ND","ND","0.1","ND","ND","ND","ND","346","0"],
    [74493,"2018-11-04T16:00:00","ND","ND","ND","ND","ND","0.1","ND","ND","ND","ND","264","0"],
    [74494,"2018-11-04T17:00:00","ND","ND","ND","ND","ND","0.1","ND","ND","ND","ND","167","0"],
    [74495,"2018-11-04T18:00:00","ND","ND","ND","ND","ND","0.1","ND","ND","ND","ND","38","0"],
    [74496,"2018-11-04T19:00:00","ND","ND","ND","ND","ND","0.2","ND","ND","ND","ND","0","0"],
    [74497,"2018-11-04T20:00:00","ND","ND","ND","ND","ND","0.1","ND","ND","ND","ND","0","0"],
    [74498,"2018-11-04T21:00:00","ND","ND","ND","ND","ND","0.1","ND","ND","ND","ND","0","0.25"],
    [74499,"2018-11-04T22:00:00","ND","ND","ND","ND","ND","0.2","ND","ND","ND","ND","0","0"],
    [74500,"2018-11-04T23:00:00","ND","ND","ND","ND","ND","0.2","ND","ND","ND","ND","0","0"],
    [74501,"2018-11-05T00:00:00","ND","ND","ND","ND","ND","0.1","ND","ND","ND","ND","0","0"],
    [74502,"2018-11-05T01:00:00","ND","ND","ND","ND","ND","0.1","ND","ND","ND","ND","0","0"],
    [74503,"2018-11-05T02:00:00","ND","ND","ND","ND","ND","0.1","ND","ND","ND","ND","0","0"],
    [74504,"2018-11-05T03:00:00","ND","ND","ND","ND","ND","0.2","ND","ND","ND","ND","0","0"],
    [74505,"2018-11-05T04:00:00","ND","ND","ND","ND","ND","0.2","ND","ND","ND","ND","0","0"],
    [74506,"2018-11-05T05:00:00","ND","ND","ND","ND","ND","0.1","ND","ND","ND","ND","0","0.25"],
    [74507,"2018-11-05T06:00:00","ND","ND","ND","ND","ND","0.1","ND","ND","ND","ND","0","0"],
    [74508,"2018-11-05T07:00:00","ND","ND","ND","ND","ND","0.1","ND","ND","ND","ND","33","0"],
    [74509,"2018-11-05T08:00:00","ND","ND","ND","ND","ND","0.1","ND","ND","ND","ND","148","0"],
    [74510,"2018-11-05T09:00:00","ND","ND","ND","ND","ND","0.1","ND","ND","ND","ND","479","0"],
    [74511,"2018-11-05T10:00:00","ND","ND","ND","ND","ND","0.0","ND","ND","ND","ND","664","0"],
    [74512,"2018-11-05T11:00:00","ND","ND","ND","ND","ND","0.1","ND","ND","ND","ND","631","0"],
    [74513,"2018-11-05T12:00:00","ND","ND","ND","ND","ND","0.0","ND","ND","ND","ND","580","2.29"],
    [74514,"2018-11-05T13:00:00","ND","ND","ND","ND","ND","0.1","ND","ND","ND","ND","593","4.32"],
    [74515,"2018-11-05T14:00:00","ND","ND","ND","ND","ND","0.1","ND","ND","ND","ND","657","0.51"],
    [74516,"2018-11-05T15:00:00","ND","ND","ND","ND","ND","0.1","ND","ND","ND","ND","596","0.25"],
    [74517,"2018-11-05T16:00:00","ND","ND","ND","ND","ND","0.2","ND","ND","ND","ND","662","0"],
    [74518,"2018-11-05T17:00:00","ND","ND","ND","ND","ND","0.2","ND","ND","ND","ND","375","0"],
    [74519,"2018-11-05T18:00:00","ND","ND","ND","ND","ND","0.1","ND","ND","ND","ND","40","1.02"],
    [74520,"2018-11-05T19:00:00","ND","ND","ND","ND","ND","0.1","ND","ND","ND","ND","0","2.29"],
    [74521,"2018-11-05T20:00:00","ND","ND","ND","ND","ND","0.2","ND","ND","ND","ND","0","0.25"],
    [74522,"2018-11-05T21:00:00","ND","ND","ND","ND","ND","0.1","ND","ND","ND","ND","0","0"],
    [74523,"2018-11-05T22:00:00","ND","ND","ND","ND","ND","0.2","ND","ND","ND","ND","0","0"],
    [74524,"2018-11-05T23:00:00","ND","ND","ND","ND","ND","0.1","ND","ND","ND","ND","0","0"],
    [74525,"2018-11-06T00:00:00","ND","ND","ND","ND","ND","0.1","ND","ND","ND","ND","0","0"],
    [74526,"2018-11-06T01:00:00","ND","ND","ND","ND","ND","0.1","ND","ND","ND","ND","0","0"],
    [74527,"2018-11-06T02:00:00","ND","ND","ND","ND","ND","0.1","ND","ND","ND","ND","0","0"],
    [74528,"2018-11-06T03:00:00","ND","ND","ND","ND","ND","0.2","ND","ND","ND","ND","0","0"],
    [74529,"2018-11-06T04:00:00","ND","ND","ND","ND","ND","0.1","ND","ND","ND","ND","0","0"],
    [74530,"2018-11-06T05:00:00","ND","ND","ND","ND","ND","0.1","ND","ND","ND","ND","0","0"],
    [74531,"2018-11-06T06:00:00","ND","ND","ND","ND","ND","0.2","ND","ND","ND","ND","0","0"],
    [74532,"2018-11-06T07:00:00","ND","ND","ND","ND","ND","0.1","ND","ND","ND","ND","252","0"],
    [74533,"2018-11-06T08:00:00","ND","ND","ND","ND","ND","0.3","ND","ND","ND","ND","580","0"],
    [74534,"2018-11-06T09:00:00","ND","ND","ND","ND","ND","0.3","ND","ND","ND","ND","491","0"],
    [74535,"2018-11-06T10:00:00","ND","ND","ND","ND","ND","0.2","ND","ND","ND","ND","635","0"],
    [74536,"2018-11-06T11:00:00","ND","ND","ND","ND","ND","0.2","ND","ND","ND","ND","630","0"],
    [74537,"2018-11-06T12:00:00","ND","ND","ND","ND","ND","0.1","ND","ND","ND","ND","664","0"],
    [74538,"2018-11-06T13:00:00","ND","ND","ND","ND","ND","0.1","ND","ND","ND","ND","664","0"],
    [74539,"2018-11-06T14:00:00","ND","ND","ND","ND","ND","0.1","ND","ND","ND","ND","665","0"],
    [74540,"2018-11-06T15:00:00","ND","ND","ND","ND","ND","0.1","ND","ND","ND","ND","563","0"],
    [74541,"2018-11-06T16:00:00","ND","ND","ND","ND","ND","0.1","ND","ND","ND","ND","641","0"],
    [74542,"2018-11-06T17:00:00","ND","ND","ND","ND","ND","0.1","ND","ND","ND","ND","320","0"],
    [74543,"2018-11-06T18:00:00","ND","ND","ND","ND","ND","0.1","ND","ND","ND","ND","42","0"],
    [74544,"2018-11-06T19:00:00","ND","ND","ND","ND","ND","0.1","ND","ND","ND","ND","0","0"],
    [74545,"2018-11-06T20:00:00","ND","ND","ND","ND","ND","0.1","ND","ND","ND","ND","0","0"],
    [74546,"2018-11-06T21:00:00","ND","ND","ND","ND","ND","0.2","ND","ND","ND","ND","0","0"],
    [74547,"2018-11-06T22:00:00","ND","ND","ND","ND","ND","0.1","ND","ND","ND","ND","0","0"],
    [74548,"2018-11-06T23:00:00","ND","ND","ND","ND","ND","0.1","ND","ND","ND","ND","0","0"],
    [74549,"2018-11-07T00:00:00","ND","ND","ND","ND","ND","0.1","ND","ND","ND","ND","0","0"],
    [74550,"2018-11-07T01:00:00","ND","ND","ND","ND","ND","0.1","ND","ND","ND","ND","0","0"],
    [74551,"2018-11-07T02:00:00","ND","ND","ND","ND","ND","0.1","ND","ND","ND","ND","0","0"],
    [74552,"2018-11-07T03:00:00","ND","ND","ND","ND","ND","0.1","ND","ND","ND","ND","0","0"],
    [74553,"2018-11-07T04:00:00","ND","ND","ND","ND","ND","0.1","ND","ND","ND","ND","0","0"],
    [74554,"2018-11-07T05:00:00","ND","ND","ND","ND","ND","0.1","ND","ND","ND","ND","0","0"],
    [74555,"2018-11-07T06:00:00","ND","ND","ND","ND","ND","0.2","ND","ND","ND","ND","0","0"],
    [74556,"2018-11-07T07:00:00","ND","ND","ND","ND","ND","0.2","ND","ND","ND","ND","150","0"],
    [74557,"2018-11-07T08:00:00","ND","ND","ND","ND","ND","0.1","ND","ND","ND","ND","506","0"],
    [74558,"2018-11-07T09:00:00","ND","ND","ND","ND","ND","0.6","ND","ND","ND","ND","664","0"],
    [74559,"2018-11-07T10:00:00","ND","ND","ND","ND","ND","0.6","ND","ND","ND","ND","661","0"],
    [74560,"2018-11-07T11:00:00","ND","ND","ND","ND","ND","0.4","ND","ND","ND","ND","665","0"],
    [74561,"2018-11-07T12:00:00","ND","ND","ND","ND","ND","0.4","ND","ND","ND","ND","666","0"],
    [74562,"2018-11-07T13:00:00","ND","ND","ND","ND","ND","0.2","ND","ND","ND","ND","667","0"],
    [74563,"2018-11-07T14:00:00","ND","ND","ND","ND","ND","0.2","ND","ND","ND","ND","656","0"],
    [74564,"2018-11-07T15:00:00","ND","ND","ND","ND","ND","0.2","ND","ND","ND","ND","656","0"],
    [74565,"2018-11-07T16:00:00","ND","ND","ND","ND","ND","0.1","ND","ND","ND","ND","551","0"],
    [74566,"2018-11-07T17:00:00","ND","ND","ND","ND","ND","0.1","ND","ND","ND","ND","233","0"],
    [74567,"2018-11-07T18:00:00","ND","ND","ND","ND","ND","0.2","ND","ND","ND","ND","53","0"],
    [74568,"2018-11-07T19:00:00","ND","ND","ND","ND","ND","0.1","ND","ND","ND","ND","0","0"],
    [74569,"2018-11-07T20:00:00","ND","ND","ND","ND","ND","0.3","ND","ND","ND","ND","0","0"],
    [74570,"2018-11-07T21:00:00","ND","ND","ND","ND","ND","0.2","ND","ND","ND","ND","0","0"],
    [74571,"2018-11-07T22:00:00","ND","ND","ND","ND","ND","0.2","ND","ND","ND","ND","0","0.25"],
    [74572,"2018-11-07T23:00:00","ND","ND","ND","ND","ND","0.2","ND","ND","ND","ND","0","0"],
    [74573,"2018-11-08T00:00:00","ND","ND","ND","ND","ND","0.3","ND","ND","ND","ND","0","0"],
    [74574,"2018-11-08T01:00:00","ND","ND","ND","ND","ND","0.4","ND","ND","ND","ND","0","0"],
    [74575,"2018-11-08T02:00:00","ND","ND","ND","ND","ND","0.1","ND","ND","ND","ND","0","0"],
    [74576,"2018-11-08T03:00:00","ND","ND","ND","ND","ND","0.2","ND","ND","ND","ND","0","0"],
    [74577,"2018-11-08T04:00:00","ND","ND","ND","ND","ND","0.3","ND","ND","ND","ND","0","0"],
    [74578,"2018-11-08T05:00:00","ND","ND","ND","ND","ND","0.2","ND","ND","ND","ND","0","0"],
    [74579,"2018-11-08T06:00:00","ND","ND","ND","ND","ND","0.1","ND","ND","ND","ND","0","0"],
    [74580,"2018-11-08T07:00:00","ND","ND","ND","ND","ND","0.1","ND","ND","ND","ND","110","0"],
    [74581,"2018-11-08T08:00:00","ND","ND","ND","ND","ND","0.1","ND","ND","ND","ND","223","0"],
    [74582,"2018-11-08T09:00:00","ND","ND","ND","ND","ND","0.3","ND","ND","ND","ND","474","0"],
    [74583,"2018-11-08T10:00:00","ND","ND","ND","ND","ND","0.3","ND","ND","ND","ND","663","0"],
    [74584,"2018-11-08T11:00:00","ND","ND","ND","ND","ND","0.3","ND","ND","ND","ND","665","0"],
    [74585,"2018-11-08T12:00:00","ND","ND","ND","ND","ND","0.1","ND","ND","ND","ND","654","0"],
    [74586,"2018-11-08T13:00:00","ND","ND","ND","ND","ND","0.2","ND","ND","ND","ND","665","0"],
    [74587,"2018-11-08T14:00:00","ND","ND","ND","ND","ND","0.2","ND","ND","ND","ND","652","0"],
    [74588,"2018-11-08T15:00:00","ND","ND","ND","ND","ND","0.1","ND","ND","ND","ND","647","0"],
    [74589,"2018-11-08T16:00:00","ND","ND","ND","ND","ND","0.2","ND","ND","ND","ND","527","0"],
    [74590,"2018-11-08T17:00:00","ND","ND","ND","ND","ND","0.1","ND","ND","ND","ND","198","0"],
    [74591,"2018-11-08T18:00:00","ND","ND","ND","ND","ND","0.2","ND","ND","ND","ND","41","0"],
    [74592,"2018-11-08T19:00:00","ND","ND","ND","ND","ND","0.1","ND","ND","ND","ND","0","3.56"],
    [74593,"2018-11-08T20:00:00","ND","ND","ND","ND","ND","0.2","ND","ND","ND","ND","0","1.27"],
    [74594,"2018-11-08T21:00:00","ND","ND","ND","ND","ND","0.1","ND","ND","ND","ND","0","0.51"],
    [74595,"2018-11-08T22:00:00","ND","ND","ND","ND","ND","0.2","ND","ND","ND","ND","0","0.51"],
    [74596,"2018-11-08T23:00:00","ND","ND","ND","ND","ND","0.1","ND","ND","ND","ND","0","0"],
    [74597,"2018-11-09T00:00:00","ND","ND","ND","ND","ND","0.1","ND","ND","ND","ND","0","0"],
    [74598,"2018-11-09T01:00:00","ND","ND","ND","ND","ND","0.1","ND","ND","ND","ND","0","0"],
    [74599,"2018-11-09T02:00:00","ND","ND","ND","ND","ND","0.2","ND","ND","ND","ND","0","0"],
    [74600,"2018-11-09T03:00:00","ND","ND","ND","ND","ND","0.3","ND","ND","ND","ND","0","0"],
    [74601,"2018-11-09T04:00:00","ND","ND","ND","ND","ND","0.2","ND","ND","ND","ND","0","0"],
    [74602,"2018-11-09T05:00:00","ND","ND","ND","ND","ND","0.1","ND","ND","ND","ND","0","0"],
    [74603,"2018-11-09T06:00:00","ND","ND","ND","ND","ND","0.2","ND","ND","ND","ND","0","0.25"],
    [74604,"2018-11-09T07:00:00","ND","ND","ND","ND","ND","0.2","ND","ND","ND","ND","118","0"],
    [74605,"2018-11-09T08:00:00","ND","ND","ND","ND","ND","0.3","ND","ND","ND","ND","329","0"],
    [74606,"2018-11-09T09:00:00","ND","ND","ND","ND","ND","0.3","ND","ND","ND","ND","276","0"],
    [74607,"2018-11-09T10:00:00","ND","ND","ND","ND","ND","0.3","ND","ND","ND","ND","521","0"],
    [74608,"2018-11-09T11:00:00","ND","ND","ND","ND","ND","0.2","ND","ND","ND","ND","664","0"],
    [74609,"2018-11-09T12:00:00","ND","ND","ND","ND","ND","0.2","ND","ND","ND","ND","665","0"],
    [74610,"2018-11-09T13:00:00","ND","ND","ND","ND","ND","0.2","ND","ND","ND","ND","352","0"],
    [74611,"2018-11-09T14:00:00","ND","ND","ND","ND","ND","0.2","ND","ND","ND","ND","342","3.3"],
    [74612,"2018-11-09T15:00:00","ND","ND","ND","ND","ND","0.1","ND","ND","ND","ND","588","0.25"],
    [74613,"2018-11-09T16:00:00","ND","ND","ND","ND","ND","0.1","ND","ND","ND","ND","639","0"],
    [74614,"2018-11-09T17:00:00","ND","ND","ND","ND","ND","0.1","ND","ND","ND","ND","392","0"],
    [74615,"2018-11-09T18:00:00","ND","ND","ND","ND","ND","0.2","ND","ND","ND","ND","66","0"],
    [74616,"2018-11-09T19:00:00","ND","ND","ND","ND","ND","0.3","ND","ND","ND","ND","0","0"],
    [74617,"2018-11-09T20:00:00","ND","ND","ND","ND","ND","0.2","ND","ND","ND","ND","0","0"],
    [74618,"2018-11-09T21:00:00","ND","ND","ND","ND","ND","0.1","ND","ND","ND","ND","0","0"],
    [74619,"2018-11-09T22:00:00","ND","ND","ND","ND","ND","0.1","ND","ND","ND","ND","0","0"],
    [74620,"2018-11-09T23:00:00","ND","ND","ND","ND","ND","0.0","ND","ND","ND","ND","0","0"],
    [74621,"2018-11-10T00:00:00","ND","ND","ND","ND","ND","0.1","ND","ND","ND","ND","0","0"],
    [74622,"2018-11-10T01:00:00","ND","ND","ND","ND","ND","0.2","ND","ND","ND","ND","0","0"],
    [74623,"2018-11-10T02:00:00","ND","ND","ND","ND","ND","0.3","ND","ND","ND","ND","0","0"],
    [74624,"2018-11-10T03:00:00","ND","ND","ND","ND","ND","0.2","ND","ND","ND","ND","0","0"],
    [74625,"2018-11-10T04:00:00","ND","ND","ND","ND","ND","0.2","ND","ND","ND","ND","0","0"],
    [74626,"2018-11-10T05:00:00","ND","ND","ND","ND","ND","0.1","ND","ND","ND","ND","0","0"],
    [74627,"2018-11-10T06:00:00","ND","ND","ND","ND","ND","0.2","ND","ND","ND","ND","0","0"],
    [74628,"2018-11-10T07:00:00","ND","ND","ND","ND","ND","0.2","ND","ND","ND","ND","67","0"],
    [74629,"2018-11-10T08:00:00","ND","ND","ND","ND","ND","0.1","ND","ND","ND","ND","179","0"],
    [74630,"2018-11-10T09:00:00","ND","ND","ND","ND","ND","0.2","ND","ND","ND","ND","592","0"],
    [74631,"2018-11-10T10:00:00","ND","ND","ND","ND","ND","0.1","ND","ND","ND","ND","663","0"],
    [74632,"2018-11-10T11:00:00","ND","ND","ND","ND","ND","0.2","ND","ND","ND","ND","664","0"],
    [74633,"2018-11-10T12:00:00","ND","ND","ND","ND","ND","0.1","ND","ND","ND","ND","664","0"],
    [74634,"2018-11-10T13:00:00","ND","ND","ND","ND","ND","0.1","ND","ND","ND","ND","664","0"],
    [74635,"2018-11-10T14:00:00","ND","ND","ND","ND","ND","0.1","ND","ND","ND","ND","664","0"],
    [74636,"2018-11-10T15:00:00","ND","ND","ND","ND","ND","0.2","ND","ND","ND","ND","615","0"],
    [74637,"2018-11-10T16:00:00","ND","ND","ND","ND","ND","0.1","ND","ND","ND","ND","546","0"],
    [74638,"2018-11-10T17:00:00","ND","ND","ND","ND","ND","0.1","ND","ND","ND","ND","418","0"],
    [74639,"2018-11-10T18:00:00","ND","ND","ND","ND","ND","0.1","ND","ND","ND","ND","48","0"],
    [74640,"2018-11-10T19:00:00","ND","ND","ND","ND","ND","0.2","ND","ND","ND","ND","0","0"],
    [74641,"2018-11-10T20:00:00","ND","ND","ND","ND","ND","0.1","ND","ND","ND","ND","0","0"],
    [74642,"2018-11-10T21:00:00","ND","ND","ND","ND","ND","0.2","ND","ND","ND","ND","0","0"],
    [74643,"2018-11-10T22:00:00","ND","ND","ND","ND","ND","0.2","ND","ND","ND","ND","0","0"],
    [74644,"2018-11-10T23:00:00","ND","ND","ND","ND","ND","0.2","ND","ND","ND","ND","0","0"],
    [74645,"2018-11-11T00:00:00","ND","ND","ND","ND","ND","0.1","ND","ND","ND","ND","0","0"],
    [74646,"2018-11-11T01:00:00","ND","ND","ND","ND","ND","0.2","ND","ND","ND","ND","0","0"],
    [74647,"2018-11-11T02:00:00","ND","ND","ND","ND","ND","0.1","ND","ND","ND","ND","0","0"],
    [74648,"2018-11-11T03:00:00","ND","ND","ND","ND","ND","0.3","ND","ND","ND","ND","0","0"],
    [74649,"2018-11-11T04:00:00","ND","ND","ND","ND","ND","0.1","ND","ND","ND","ND","0","0"],
    [74650,"2018-11-11T05:00:00","ND","ND","ND","ND","ND","0.3","ND","ND","ND","ND","0","0.76"],
    [74651,"2018-11-11T06:00:00","ND","ND","ND","ND","ND","0.2","ND","ND","ND","ND","0","0.25"],
    [74652,"2018-11-11T07:00:00","ND","ND","ND","ND","ND","0.3","ND","ND","ND","ND","103","0"],
    [74653,"2018-11-11T08:00:00","ND","ND","ND","ND","ND","0.3","ND","ND","ND","ND","358","0.25"],
    [74654,"2018-11-11T09:00:00","ND","ND","ND","ND","ND","0.2","ND","ND","ND","ND","461","1.02"],
    [74655,"2018-11-11T10:00:00","ND","ND","ND","ND","ND","0.2","ND","ND","ND","ND","651","0.25"],
    [74656,"2018-11-11T11:00:00","ND","ND","ND","ND","ND","0.2","ND","ND","ND","ND","664","0"],
    [74657,"2018-11-11T12:00:00","ND","ND","ND","ND","ND","0.1","ND","ND","ND","ND","664","0"],
    [74658,"2018-11-11T13:00:00","ND","ND","ND","ND","ND","0.3","ND","ND","ND","ND","664","0"],
    [74659,"2018-11-11T14:00:00","ND","ND","ND","ND","ND","0.1","ND","ND","ND","ND","664","0"],
    [74660,"2018-11-11T15:00:00","ND","ND","ND","ND","ND","0.1","ND","ND","ND","ND","349","0"],
    [74661,"2018-11-11T16:00:00","ND","ND","ND","ND","ND","0.1","ND","ND","ND","ND","161","0"],
    [74662,"2018-11-11T17:00:00","ND","ND","ND","ND","ND","0.3","ND","ND","ND","ND","365","0"],
    [74663,"2018-11-11T18:00:00","ND","ND","ND","ND","ND","0.2","ND","ND","ND","ND","76","0"],
    [74664,"2018-11-11T19:00:00","ND","ND","ND","ND","ND","0.3","ND","ND","ND","ND","0","0"],
    [74665,"2018-11-11T20:00:00","ND","ND","ND","ND","ND","0.2","ND","ND","ND","ND","0","0"],
    [74666,"2018-11-11T21:00:00","ND","ND","ND","ND","ND","0.1","ND","ND","ND","ND","0","0"],
    [74667,"2018-11-11T22:00:00","ND","ND","ND","ND","ND","0.3","ND","ND","ND","ND","0","0"],
    [74668,"2018-11-11T23:00:00","ND","ND","ND","ND","ND","0.1","ND","ND","ND","ND","0","0"],
    [74669,"2018-11-12T00:00:00","ND","ND","ND","ND","ND","0.3","ND","ND","ND","ND","0","0"],
    [74670,"2018-11-12T01:00:00","ND","ND","ND","ND","ND","0.1","ND","ND","ND","ND","0","0"],
    [74671,"2018-11-12T02:00:00","ND","ND","ND","ND","ND","0.2","ND","ND","ND","ND","0","0"],
    [74672,"2018-11-12T03:00:00","ND","ND","ND","ND","ND","0.0","ND","ND","ND","ND","0","0"],
    [74673,"2018-11-12T04:00:00","ND","ND","ND","ND","ND","0.2","ND","ND","ND","ND","0","0"],
    [74674,"2018-11-12T05:00:00","ND","ND","ND","ND","ND","0.2","ND","ND","ND","ND","0","0"],
    [74675,"2018-11-12T06:00:00","ND","ND","ND","ND","ND","0.2","ND","ND","ND","ND","3","0"],
    [74676,"2018-11-12T07:00:00","ND","ND","ND","ND","ND","0.4","ND","ND","ND","ND","220","0"],
    [74677,"2018-11-12T08:00:00","ND","ND","ND","ND","ND","0.2","ND","ND","ND","ND","531","0"],
    [74678,"2018-11-12T09:00:00","ND","ND","ND","ND","ND","0.3","ND","ND","ND","ND","631","0"],
    [74679,"2018-11-12T10:00:00","ND","ND","ND","ND","ND","0.4","ND","ND","ND","ND","657","0"],
    [74680,"2018-11-12T11:00:00","ND","ND","ND","ND","ND","0.3","ND","ND","ND","ND","664","0"],
    [74681,"2018-11-12T12:00:00","ND","ND","ND","ND","ND","0.1","ND","ND","ND","ND","664","0"],
    [74682,"2018-11-12T13:00:00","ND","ND","ND","ND","ND","0.2","ND","ND","ND","ND","664","0"],
    [74683,"2018-11-12T14:00:00","ND","ND","ND","ND","ND","0.1","ND","ND","ND","ND","596","0"],
    [74684,"2018-11-12T15:00:00","ND","ND","ND","ND","ND","0.2","ND","ND","ND","ND","391","0"],
    [74685,"2018-11-12T16:00:00","ND","ND","ND","ND","ND","0.1","ND","ND","ND","ND","506","0"],
    [74686,"2018-11-12T17:00:00","ND","ND","ND","ND","ND","0.1","ND","ND","ND","ND","273","0"],
    [74687,"2018-11-12T18:00:00","ND","ND","ND","ND","ND","0.2","ND","ND","ND","ND","48","0"],
    [74688,"2018-11-12T19:00:00","ND","ND","ND","ND","ND","0.1","ND","ND","ND","ND","0","0"],
    [74689,"2018-11-12T20:00:00","ND","ND","ND","ND","ND","0.1","ND","ND","ND","ND","0","0"],
    [74690,"2018-11-12T21:00:00","ND","ND","ND","ND","ND","0.1","ND","ND","ND","ND","0","0.25"],
    [74691,"2018-11-12T22:00:00","ND","ND","ND","ND","ND","0.1","ND","ND","ND","ND","0","0"],
    [74692,"2018-11-12T23:00:00","ND","ND","ND","ND","ND","0.1","ND","ND","ND","ND","0","0"],
    [74693,"2018-11-13T00:00:00","ND","ND","ND","ND","ND","0.2","ND","ND","ND","ND","0","0"],
    [74694,"2018-11-13T01:00:00","ND","ND","ND","ND","ND","0.2","ND","ND","ND","ND","0","0"],
    [74695,"2018-11-13T02:00:00","ND","ND","ND","ND","ND","0.2","ND","ND","ND","ND","0","0"],
    [74696,"2018-11-13T03:00:00","ND","ND","ND","ND","ND","0.2","ND","ND","ND","ND","0","0"],
    [74697,"2018-11-13T04:00:00","ND","ND","ND","ND","ND","0.2","ND","ND","ND","ND","0","0"],
    [74698,"2018-11-13T05:00:00","ND","ND","ND","ND","ND","0.3","ND","ND","ND","ND","0","0"],
    [74699,"2018-11-13T06:00:00","ND","ND","ND","ND","ND","0.3","ND","ND","ND","ND","4","0"],
    [74700,"2018-11-13T07:00:00","ND","ND","ND","ND","ND","0.3","ND","ND","ND","ND","121","0"],
    [74701,"2018-11-13T08:00:00","ND","ND","ND","ND","ND","0.1","ND","ND","ND","ND","265","0"],
    [74702,"2018-11-13T09:00:00","ND","ND","ND","ND","ND","0.2","ND","ND","ND","ND","504","0"],
    [74703,"2018-11-13T10:00:00","ND","ND","ND","ND","ND","0.1","ND","ND","ND","ND","663","0"],
    [74704,"2018-11-13T11:00:00","ND","ND","ND","ND","ND","0.3","ND","ND","ND","ND","664","0"],
    [74705,"2018-11-13T12:00:00","ND","ND","ND","ND","ND","0.1","ND","ND","ND","ND","664","0"],
    [74706,"2018-11-13T13:00:00","ND","ND","ND","ND","ND","0.1","ND","ND","ND","ND","629","0"],
    [74707,"2018-11-13T14:00:00","ND","ND","ND","ND","ND","0.2","ND","ND","ND","ND","434","0"],
    [74708,"2018-11-13T15:00:00","ND","ND","ND","ND","ND","0.1","ND","ND","ND","ND","475","0"],
    [74709,"2018-11-13T16:00:00","ND","ND","ND","ND","ND","0.1","ND","ND","ND","ND","92","0"],
    [74710,"2018-11-13T17:00:00","ND","ND","ND","ND","ND","0.1","ND","ND","ND","ND","182","0"],
    [74711,"2018-11-13T18:00:00","ND","ND","ND","ND","ND","0.1","ND","ND","ND","ND","26","0"],
    [74712,"2018-11-13T19:00:00","ND","ND","ND","ND","ND","0.2","ND","ND","ND","ND","0","0"],
    [74713,"2018-11-13T20:00:00","ND","ND","ND","ND","ND","0.2","ND","ND","ND","ND","0","0.51"],
    [74714,"2018-11-13T21:00:00","ND","ND","ND","ND","ND","0.2","ND","ND","ND","ND","0","0.25"],
    [74715,"2018-11-13T22:00:00","ND","ND","ND","ND","ND","0.3","ND","ND","ND","ND","0","0"],
    [74716,"2018-11-13T23:00:00","ND","ND","ND","ND","ND","0.1","ND","ND","ND","ND","0","0"],
    [74717,"2018-11-14T00:00:00","ND","ND","ND","ND","3.6","0.3","ND","ND","ND","ND","0","0"],
    [74718,"2018-11-14T01:00:00","ND","ND","ND","ND","3.3","0.1","ND","ND","ND","ND","0","0"],
    [74719,"2018-11-14T02:00:00","ND","ND","ND","ND","3.5","0.2","ND","ND","ND","ND","0","0"],
    [74720,"2018-11-14T03:00:00","ND","ND","ND","ND","4.3","0.2","ND","ND","ND","ND","0","0"],
    [74721,"2018-11-14T04:00:00","ND","ND","ND","ND","3.0","0.0","ND","ND","ND","ND","0","0"],
    [74722,"2018-11-14T05:00:00","ND","ND","ND","ND","2.5","0.2","ND","ND","ND","ND","0","0"],
    [74723,"2018-11-14T06:00:00","ND","ND","ND","ND","2.8","0.1","ND","ND","ND","ND","0","0"],
    [74724,"2018-11-14T07:00:00","ND","ND","ND","ND","2.8","0.4","ND","ND","ND","ND","106","0"],
    [74725,"2018-11-14T08:00:00","ND","ND","ND","ND","3.0","0.1","ND","ND","ND","ND","430","0"],
    [74726,"2018-11-14T09:00:00","ND","ND","ND","ND","7.2","0.1","ND","ND","ND","ND","642","0"],
    [74727,"2018-11-14T10:00:00","ND","ND","ND","ND","28.1","0.1","ND","ND","ND","ND","664","0"],
    [74728,"2018-11-14T11:00:00","ND","ND","ND","ND","42.8","0.1","ND","ND","ND","ND","665","0"],
    [74729,"2018-11-14T12:00:00","ND","ND","ND","ND","37.3","0.2","ND","ND","ND","ND","651","0"],
    [74730,"2018-11-14T13:00:00","ND","ND","ND","ND","19.8","0.1","ND","ND","ND","ND","592","0"],
    [74731,"2018-11-14T14:00:00","ND","ND","ND","ND","23.1","0.1","ND","ND","ND","ND","665","0"],
    [74732,"2018-11-14T15:00:00","ND","ND","ND","ND","25.0","0.1","ND","ND","ND","ND","627","0"],
    [74733,"2018-11-14T16:00:00","ND","ND","ND","ND","18.4","0.1","ND","ND","ND","ND","221","0"],
    [74734,"2018-11-14T17:00:00","ND","ND","ND","ND","8.2","0.2","ND","ND","ND","ND","86","0"],
    [74735,"2018-11-14T18:00:00","ND","ND","ND","ND","14.4","0.2","ND","ND","ND","ND","26","0"],
    [74736,"2018-11-14T19:00:00","ND","ND","ND","ND","8.0","0.1","ND","ND","ND","ND","0","0"],
    [74737,"2018-11-14T20:00:00","ND","ND","ND","ND","4.4","0.1","ND","ND","ND","ND","0","0"],
    [74738,"2018-11-14T21:00:00","ND","ND","ND","ND","2.8","0.1","ND","ND","ND","ND","0","0"],
    [74739,"2018-11-14T22:00:00","ND","ND","ND","ND","2.9","0.2","ND","ND","ND","ND","0","0.76"],
    [74740,"2018-11-14T23:00:00","ND","ND","ND","ND","2.8","0.4","ND","ND","ND","ND","0","0"],
    [74741,"2018-11-15T00:00:00","ND","ND","ND","ND","2.5","0.3","ND","ND","ND","ND","0","0"],
    [74742,"2018-11-15T01:00:00","ND","ND","ND","ND","2.5","0.2","ND","ND","ND","ND","0","0"],
    [74743,"2018-11-15T02:00:00","ND","ND","ND","ND","2.4","0.1","ND","ND","ND","ND","0","0"],
    [74744,"2018-11-15T03:00:00","ND","ND","ND","ND","2.4","0.3","ND","ND","ND","ND","0","0"],
    [74745,"2018-11-15T04:00:00","ND","ND","ND","ND","2.5","0.2","ND","ND","ND","ND","0","0"],
    [74746,"2018-11-15T05:00:00","ND","ND","ND","ND","2.5","0.1","ND","ND","ND","ND","0","0"],
    [74747,"2018-11-15T06:00:00","ND","ND","ND","ND","2.6","0.2","ND","ND","ND","ND","0","0"],
    [74748,"2018-11-15T07:00:00","ND","ND","ND","ND","2.7","0.3","ND","ND","ND","ND","113","0"],
    [74749,"2018-11-15T08:00:00","ND","ND","ND","ND","3.9","0.3","ND","ND","ND","ND","490","0"],
    [74750,"2018-11-15T09:00:00","ND","ND","ND","ND","8.6","0.6","ND","ND","ND","ND","657","0"],
    [74751,"2018-11-15T10:00:00","ND","ND","ND","ND","25.3","0.2","ND","ND","ND","ND","640","0"],
    [74752,"2018-11-15T11:00:00","ND","ND","ND","ND","50.4","0.2","ND","ND","ND","ND","658","0"],
    [74753,"2018-11-15T12:00:00","ND","ND","ND","ND","85.5","0.1","ND","ND","ND","ND","665","0"],
    [74754,"2018-11-15T13:00:00","ND","ND","ND","ND","84.8","0.2","ND","ND","ND","ND","650","0"],
    [74755,"2018-11-15T14:00:00","ND","ND","ND","ND","79.5","0.2","ND","ND","ND","ND","505","0"],
    [74756,"2018-11-15T15:00:00","ND","ND","ND","ND","34.6","0.2","ND","ND","ND","ND","660","0"],
    [74757,"2018-11-15T16:00:00","ND","ND","ND","ND","21.9","0.2","ND","ND","ND","ND","609","0"],
    [74758,"2018-11-15T17:00:00","ND","ND","ND","ND","19.5","0.3","ND","ND","ND","ND","258","0"],
    [74759,"2018-11-15T18:00:00","ND","ND","ND","ND","15.6","0.1","ND","ND","ND","ND","19","0"],
    [74760,"2018-11-15T19:00:00","ND","ND","ND","ND","4.2","0.2","ND","ND","ND","ND","0","2.29"],
    [74761,"2018-11-15T20:00:00","ND","ND","ND","ND","3.1","0.1","ND","ND","ND","ND","0","0"],
    [74762,"2018-11-15T21:00:00","ND","ND","ND","ND","2.7","0.2","ND","ND","ND","ND","0","0"],
    [74763,"2018-11-15T22:00:00","ND","ND","ND","ND","2.2","0.3","ND","ND","ND","ND","0","0"],
    [74764,"2018-11-15T23:00:00","ND","ND","ND","ND","2.2","0.2","ND","ND","ND","ND","0","0"],
    [74765,"2018-11-16T00:00:00","ND","ND","ND","ND","2.1","ND","ND","ND","ND","ND","0","0"],
    [74766,"2018-11-16T01:00:00","ND","ND","ND","ND","2.4","ND","ND","ND","ND","ND","0","0"],
    [74767,"2018-11-16T02:00:00","ND","ND","ND","ND","2.6","ND","ND","ND","ND","ND","0","0"],
    [74768,"2018-11-16T03:00:00","ND","ND","ND","ND","2.2","ND","ND","ND","ND","ND","0","0"],
    [74769,"2018-11-16T04:00:00","ND","ND","ND","ND","2.9","ND","ND","ND","ND","ND","0","0"],
    [74770,"2018-11-16T05:00:00","ND","ND","ND","ND","1.3","ND","ND","ND","ND","ND","0","0"],
    [74771,"2018-11-16T06:00:00","ND","ND","ND","ND","1.0","ND","ND","ND","ND","ND","0","0"],
    [74772,"2018-11-16T07:00:00","ND","ND","ND","ND","1.2","ND","ND","ND","ND","ND","45","0"],
    [74773,"2018-11-16T08:00:00","ND","ND","ND","ND","2.1","ND","ND","ND","ND","ND","186","0"],
    [74774,"2018-11-16T09:00:00","ND","ND","ND","ND","5.1","ND","ND","ND","ND","ND","574","0"],
    [74775,"2018-11-16T10:00:00","ND","ND","ND","ND","31.9","ND","ND","ND","ND","ND","664","0"],
    [74776,"2018-11-16T11:00:00","ND","ND","ND","ND","57.8","ND","ND","ND","ND","ND","665","0"],
    [74777,"2018-11-16T12:00:00","ND","ND","ND","ND","72.1","ND","ND","ND","ND","ND","665","0"],
    [74778,"2018-11-16T13:00:00","ND","ND","ND","ND","82.0","ND","ND","ND","ND","ND","665","0"],
    [74779,"2018-11-16T14:00:00","ND","ND","ND","ND","92.8","ND","ND","ND","ND","ND","665","0"],
    [74780,"2018-11-16T15:00:00","ND","ND","ND","ND","112.8","ND","ND","ND","ND","ND","640","0"],
    [74781,"2018-11-16T16:00:00","ND","ND","ND","ND","94.1","ND","ND","ND","ND","ND","505","0"],
    [74782,"2018-11-16T17:00:00","ND","ND","ND","ND","36.5","ND","ND","ND","ND","ND","361","0"],
    [74783,"2018-11-16T18:00:00","ND","ND","ND","ND","16.2","ND","ND","ND","ND","ND","33","0"],
    [74784,"2018-11-16T19:00:00","ND","ND","ND","ND","7.3","ND","ND","ND","ND","ND","0","0"],
    [74785,"2018-11-16T20:00:00","ND","ND","ND","ND","11.8","ND","ND","ND","ND","ND","0","0"],
    [74786,"2018-11-16T21:00:00","ND","ND","ND","ND","7.2","ND","ND","ND","ND","ND","0","0"],
    [74787,"2018-11-16T22:00:00","ND","ND","ND","ND","3.5","ND","ND","ND","ND","ND","0","0"],
    [74788,"2018-11-16T23:00:00","ND","ND","ND","ND","4.1","ND","ND","ND","ND","ND","0","0"],
    [74789,"2018-11-17T00:00:00","ND","ND","ND","ND","3.2","ND","ND","ND","ND","ND","0","0"],
    [74790,"2018-11-17T01:00:00","ND","ND","ND","ND","3.1","ND","ND","ND","ND","ND","0","0"],
    [74791,"2018-11-17T02:00:00","ND","ND","ND","ND","3.6","ND","ND","ND","ND","ND","0","0"],
    [74792,"2018-11-17T03:00:00","ND","ND","ND","ND","2.4","ND","ND","ND","ND","ND","0","0"],
    [74793,"2018-11-17T04:00:00","ND","ND","ND","ND","2.4","ND","ND","ND","ND","ND","0","0"],
    [74794,"2018-11-17T05:00:00","ND","ND","ND","ND","2.5","ND","ND","ND","ND","ND","0","0.25"],
    [74795,"2018-11-17T06:00:00","ND","ND","ND","ND","2.2","ND","ND","ND","ND","ND","0","0.25"],
    [74796,"2018-11-17T07:00:00","ND","ND","ND","ND","2.3","ND","ND","ND","ND","ND","101","0"],
    [74797,"2018-11-17T08:00:00","ND","ND","ND","ND","2.3","ND","ND","ND","ND","ND","190","0"],
    [74798,"2018-11-17T09:00:00","ND","ND","ND","ND","2.7","ND","ND","ND","ND","ND","541","0"],
    [74799,"2018-11-17T10:00:00","ND","ND","ND","ND","14.7","ND","ND","ND","ND","ND","664","0"],
    [74800,"2018-11-17T11:00:00","ND","ND","ND","ND","52.6","ND","ND","ND","ND","ND","622","0"],
    [74801,"2018-11-17T12:00:00","ND","ND","ND","ND","34.7","ND","ND","ND","ND","ND","264","2.29"],
    [74802,"2018-11-17T13:00:00","ND","ND","ND","ND","10.1","ND","ND","ND","ND","ND","488","1.02"],
    [74803,"2018-11-17T14:00:00","ND","ND","ND","ND","19.4","ND","ND","ND","ND","ND","662","0"],
    [74804,"2018-11-17T15:00:00","ND","ND","ND","ND","19.5","ND","ND","ND","ND","ND","665","0"],
    [74805,"2018-11-17T16:00:00","ND","ND","ND","ND","23.5","ND","ND","ND","ND","ND","645","0"],
    [74806,"2018-11-17T17:00:00","ND","ND","ND","ND","19.2","ND","ND","ND","ND","ND","501","0.25"],
    [74807,"2018-11-17T18:00:00","ND","ND","ND","ND","10.5","ND","ND","ND","ND","ND","71","0"],
    [74808,"2018-11-17T19:00:00","ND","ND","ND","ND","5.3","ND","ND","ND","ND","ND","0","0.51"],
    [74809,"2018-11-17T20:00:00","ND","ND","ND","ND","2.4","ND","ND","ND","ND","ND","0","0"],
    [74810,"2018-11-17T21:00:00","ND","ND","ND","ND","2.0","ND","ND","ND","ND","ND","0","0"],
    [74811,"2018-11-17T22:00:00","ND","ND","ND","ND","1.8","ND","ND","ND","ND","ND","0","0"],
    [74812,"2018-11-17T23:00:00","ND","ND","ND","ND","2.7","ND","ND","ND","ND","ND","0","0"],
    [74813,"2018-11-18T00:00:00","ND","ND","ND","ND","2.5","ND","ND","ND","ND","ND","0","0"],
    [74814,"2018-11-18T01:00:00","ND","ND","ND","ND","1.3","ND","ND","ND","ND","ND","0","0"],
    [74815,"2018-11-18T02:00:00","ND","ND","ND","ND","1.6","ND","ND","ND","ND","ND","0","0"],
    [74816,"2018-11-18T03:00:00","ND","ND","ND","ND","1.4","ND","ND","ND","ND","ND","0","0"],
    [74817,"2018-11-18T04:00:00","ND","ND","ND","ND","1.3","ND","ND","ND","ND","ND","0","0"],
    [74818,"2018-11-18T05:00:00","ND","ND","ND","ND","1.3","ND","ND","ND","ND","ND","0","0"],
    [74819,"2018-11-18T06:00:00","ND","ND","ND","ND","1.6","ND","ND","ND","ND","ND","0","0"],
    [74820,"2018-11-18T07:00:00","ND","ND","ND","ND","1.3","ND","ND","ND","ND","ND","21","0"],
    [74821,"2018-11-18T08:00:00","ND","ND","ND","ND","1.4","ND","ND","ND","ND","ND","115","0"],
    [74822,"2018-11-18T09:00:00","ND","ND","ND","ND","4.8","ND","ND","ND","ND","ND","510","0"],
    [74823,"2018-11-18T10:00:00","ND","ND","ND","ND","18.7","ND","ND","ND","ND","ND","664","0"],
    [74824,"2018-11-18T11:00:00","ND","ND","ND","ND","47.1","ND","ND","ND","ND","ND","665","0"],
    [74825,"2018-11-18T12:00:00","ND","ND","ND","ND","80.6","ND","ND","ND","ND","ND","625","0"],
    [74826,"2018-11-18T13:00:00","ND","ND","ND","ND","74.1","ND","ND","ND","ND","ND","652","0"],
    [74827,"2018-11-18T14:00:00","ND","ND","ND","ND","38.8","ND","ND","ND","ND","ND","660","0"],
    [74828,"2018-11-18T15:00:00","ND","ND","ND","ND","20.8","ND","ND","ND","ND","ND","665","0"],
    [74829,"2018-11-18T16:00:00","ND","ND","ND","ND","20.0","ND","ND","ND","ND","ND","540","0"],
    [74830,"2018-11-18T17:00:00","ND","ND","ND","ND","16.5","ND","ND","ND","ND","ND","318","0"],
    [74831,"2018-11-18T18:00:00","ND","ND","ND","ND","16.6","ND","ND","ND","ND","ND","46","0"],
    [74832,"2018-11-18T19:00:00","ND","ND","ND","ND","23.1","ND","ND","ND","ND","ND","0","0"],
    [74833,"2018-11-18T20:00:00","ND","ND","ND","ND","29.6","ND","ND","ND","ND","ND","0","0"],
    [74834,"2018-11-18T21:00:00","ND","ND","ND","ND","12.1","ND","ND","ND","ND","ND","0","9.4"],
    [74835,"2018-11-18T22:00:00","ND","ND","ND","ND","9.2","ND","ND","ND","ND","ND","0","12.7"],
    [74836,"2018-11-18T23:00:00","ND","ND","ND","ND","8.3","ND","ND","ND","ND","ND","0","7.11"],
    [74837,"2018-11-19T00:00:00","ND","ND","ND","ND","10.7","ND","ND","ND","ND","ND","0","2.03"],
    [74838,"2018-11-19T01:00:00","ND","ND","ND","ND","8.7","ND","ND","ND","ND","ND","0","0"],
    [74839,"2018-11-19T02:00:00","ND","ND","ND","ND","4.6","ND","ND","ND","ND","ND","0","0.25"],
    [74840,"2018-11-19T03:00:00","ND","ND","ND","ND","3.6","ND","ND","ND","ND","ND","0","0"],
    [74841,"2018-11-19T04:00:00","ND","ND","ND","ND","9.5","ND","ND","ND","ND","ND","0","0"],
    [74842,"2018-11-19T05:00:00","ND","ND","ND","ND","7.6","ND","ND","ND","ND","ND","0","0"],
    [74843,"2018-11-19T06:00:00","ND","ND","ND","ND","3.5","ND","ND","ND","ND","ND","0","0"],
    [74844,"2018-11-19T07:00:00","ND","ND","ND","ND","1.3","ND","ND","ND","ND","ND","101","0"],
    [74845,"2018-11-19T08:00:00","ND","ND","ND","ND","2.2","ND","ND","ND","ND","ND","324","0"],
    [74846,"2018-11-19T09:00:00","ND","ND","ND","ND","3.0","ND","ND","ND","ND","ND","546","0"],
    [74847,"2018-11-19T10:00:00","ND","ND","ND","ND","14.8","ND","ND","ND","ND","ND","664","0"],
    [74848,"2018-11-19T11:00:00","ND","ND","ND","ND","26.1","ND","ND","ND","ND","ND","665","0"],
    [74849,"2018-11-19T12:00:00","ND","ND","ND","ND","30.0","ND","ND","ND","ND","ND","665","0"],
    [74850,"2018-11-19T13:00:00","ND","ND","ND","ND","39.9","ND","ND","ND","ND","ND","626","0"],
    [74851,"2018-11-19T14:00:00","ND","ND","ND","ND","44.0","ND","ND","ND","ND","ND","661","0"],
    [74852,"2018-11-19T15:00:00","ND","ND","ND","ND","39.1","ND","ND","ND","ND","ND","608","0"],
    [74853,"2018-11-19T16:00:00","ND","ND","ND","ND","50.5","ND","ND","ND","ND","ND","552","0"],
    [74854,"2018-11-19T17:00:00","ND","ND","ND","ND","55.1","ND","ND","ND","ND","ND","267","0"],
    [74855,"2018-11-19T18:00:00","ND","ND","ND","ND","18.0","ND","ND","ND","ND","ND","28","0"],
    [74856,"2018-11-19T19:00:00","ND","ND","ND","ND","2.2","ND","ND","ND","ND","ND","0","0"],
    [74857,"2018-11-19T20:00:00","ND","ND","ND","ND","2.3","ND","ND","ND","ND","ND","0","0"],
    [74858,"2018-11-19T21:00:00","ND","ND","ND","ND","1.5","ND","ND","ND","ND","ND","0","0"],
    [74859,"2018-11-19T22:00:00","ND","ND","ND","ND","1.0","ND","ND","ND","ND","ND","0","0"],
    [74860,"2018-11-19T23:00:00","ND","ND","ND","ND","3.0","ND","ND","ND","ND","ND","0","2.29"],
    [74861,"2018-11-20T00:00:00","ND","ND","ND","ND","2.7","ND","ND","ND","ND","ND","0","0.51"],
    [74862,"2018-11-20T01:00:00","ND","ND","ND","ND","2.4","ND","ND","ND","ND","ND","0","0.25"],
    [74863,"2018-11-20T02:00:00","ND","ND","ND","ND","7.9","ND","ND","ND","ND","ND","0","2.54"],
    [74864,"2018-11-20T03:00:00","ND","ND","ND","ND","10.7","ND","ND","ND","ND","ND","0","0.25"],
    [74865,"2018-11-20T04:00:00","ND","ND","ND","ND","6.2","ND","ND","ND","ND","ND","0","0.25"],
    [74866,"2018-11-20T05:00:00","ND","ND","ND","ND","1.9","ND","ND","ND","ND","ND","0","0"],
    [74867,"2018-11-20T06:00:00","ND","ND","ND","ND","1.0","ND","ND","ND","ND","ND","0","0"],
    [74868,"2018-11-20T07:00:00","ND","ND","ND","ND","1.2","ND","ND","ND","ND","ND","121","0"],
    [74869,"2018-11-20T08:00:00","ND","ND","ND","ND","3.5","ND","ND","ND","ND","ND","401","0"],
    [74870,"2018-11-20T09:00:00","ND","ND","ND","ND","5.4","ND","ND","ND","ND","ND","642","0"],
    [74871,"2018-11-20T10:00:00","ND","ND","ND","ND","18.9","ND","ND","ND","ND","ND","664","0"],
    [74872,"2018-11-20T11:00:00","ND","ND","ND","ND","36.6","ND","ND","ND","ND","ND","498","0"],
    [74873,"2018-11-20T12:00:00","ND","ND","ND","ND","48.8","ND","ND","ND","ND","ND","611","0"],
    [74874,"2018-11-20T13:00:00","ND","ND","ND","ND","65.2","ND","ND","ND","ND","ND","665","0"],
    [74875,"2018-11-20T14:00:00","ND","ND","ND","ND","73.9","ND","ND","ND","ND","ND","664","0"],
    [74876,"2018-11-20T15:00:00","ND","ND","ND","ND","69.9","ND","ND","ND","ND","ND","665","0"],
    [74877,"2018-11-20T16:00:00","ND","ND","ND","ND","53.9","ND","ND","ND","ND","ND","484","0"],
    [74878,"2018-11-20T17:00:00","ND","ND","ND","ND","35.8","ND","ND","ND","ND","ND","233","0"],
    [74879,"2018-11-20T18:00:00","ND","ND","ND","ND","10.0","ND","ND","ND","ND","ND","45","0"],
    [74880,"2018-11-20T19:00:00","ND","ND","ND","ND","4.0","ND","ND","ND","ND","ND","0","0"],
    [74881,"2018-11-20T20:00:00","ND","ND","ND","ND","2.4","ND","ND","ND","ND","ND","0","0"],
    [74882,"2018-11-20T21:00:00","ND","ND","ND","ND","1.4","ND","ND","ND","ND","ND","0","0"],
    [74883,"2018-11-20T22:00:00","ND","ND","ND","ND","1.7","ND","ND","ND","ND","ND","0","0"],
    [74884,"2018-11-20T23:00:00","ND","ND","ND","ND","1.2","ND","ND","ND","ND","ND","0","10.92"],
    [74885,"2018-11-21T00:00:00","ND","ND","ND","ND","17.6","ND","ND","ND","ND","ND","0","34.29"],
    [74886,"2018-11-21T01:00:00","ND","ND","ND","ND","5.3","ND","ND","ND","ND","ND","0","0.25"],
    [74887,"2018-11-21T02:00:00","ND","ND","ND","ND","3.5","ND","ND","ND","ND","ND","0","0"],
    [74888,"2018-11-21T03:00:00","ND","ND","ND","ND","6.6","ND","ND","ND","ND","ND","0","6.35"],
    [74889,"2018-11-21T04:00:00","ND","ND","ND","ND","6.3","ND","ND","ND","ND","ND","0","1.78"],
    [74890,"2018-11-21T05:00:00","ND","ND","ND","ND","14.1","ND","ND","ND","ND","ND","0","2.54"],
    [74891,"2018-11-21T06:00:00","ND","ND","ND","ND","11.5","ND","ND","ND","ND","ND","0","1.02"],
    [74892,"2018-11-21T07:00:00","ND","ND","ND","ND","3.2","ND","ND","ND","ND","ND","33","0"],
    [74893,"2018-11-21T08:00:00","ND","ND","ND","ND","2.5","ND","ND","ND","ND","ND","157","0.76"],
    [74894,"2018-11-21T09:00:00","ND","ND","ND","ND","7.6","ND","ND","ND","ND","ND","551","0.25"],
    [74895,"2018-11-21T10:00:00","ND","ND","ND","ND","13.6","ND","ND","ND","ND","ND","571","0"],
    [74896,"2018-11-21T11:00:00","ND","ND","ND","ND","29.8","ND","ND","ND","ND","ND","654","0"],
    [74897,"2018-11-21T12:00:00","ND","ND","ND","ND","49.4","ND","ND","ND","ND","ND","664","0"],
    [74898,"2018-11-21T13:00:00","ND","ND","ND","ND","49.9","ND","ND","ND","ND","ND","665","0"],
    [74899,"2018-11-21T14:00:00","ND","ND","ND","ND","56.9","ND","ND","ND","ND","ND","665","0"],
    [74900,"2018-11-21T15:00:00","ND","ND","ND","ND","48.7","ND","ND","ND","ND","ND","502","0"],
    [74901,"2018-11-21T16:00:00","ND","ND","ND","ND","36.3","ND","ND","ND","ND","ND","572","0"],
    [74902,"2018-11-21T17:00:00","ND","ND","ND","ND","17.0","ND","ND","ND","ND","ND","384","0"],
    [74903,"2018-11-21T18:00:00","ND","ND","ND","ND","9.6","ND","ND","ND","ND","ND","30","0"],
    [74904,"2018-11-21T19:00:00","ND","ND","ND","ND","1.6","ND","ND","ND","ND","ND","0","0"],
    [74905,"2018-11-21T20:00:00","ND","ND","ND","ND","1.4","ND","ND","ND","ND","ND","0","0"],
    [74906,"2018-11-21T21:00:00","ND","ND","ND","ND","1.3","ND","ND","ND","ND","ND","0","0"],
    [74907,"2018-11-21T22:00:00","ND","ND","ND","ND","2.0","ND","ND","ND","ND","ND","0","0"],
    [74908,"2018-11-21T23:00:00","ND","ND","ND","ND","2.1","ND","ND","ND","ND","ND","0","0"],
    [74909,"2018-11-22T00:00:00","ND","ND","ND","ND","2.0","ND","ND","ND","ND","ND","0","0"],
    [74910,"2018-11-22T01:00:00","ND","ND","ND","ND","4.0","ND","ND","ND","ND","ND","0","0"],
    [74911,"2018-11-22T02:00:00","ND","ND","ND","ND","5.1","ND","ND","ND","ND","ND","0","0"],
    [74912,"2018-11-22T03:00:00","ND","ND","ND","ND","2.3","ND","ND","ND","ND","ND","0","0"],
    [74913,"2018-11-22T04:00:00","ND","ND","ND","ND","2.8","ND","ND","ND","ND","ND","0","0"],
    [74914,"2018-11-22T05:00:00","ND","ND","ND","ND","1.1","ND","ND","ND","ND","ND","0","0"],
    [74915,"2018-11-22T06:00:00","ND","ND","ND","ND","1.1","ND","ND","ND","ND","ND","0","0"],
    [74916,"2018-11-22T07:00:00","ND","ND","ND","ND","1.4","ND","ND","ND","ND","ND","103","0"],
    [74917,"2018-11-22T08:00:00","ND","ND","ND","ND","1.7","ND","ND","ND","ND","ND","225","0"],
    [74918,"2018-11-22T09:00:00","ND","ND","ND","ND","3.0","ND","ND","ND","ND","ND","499","0"],
    [74919,"2018-11-22T10:00:00","ND","ND","ND","ND","18.7","ND","ND","ND","ND","ND","662","0"],
    [74920,"2018-11-22T11:00:00","ND","ND","ND","ND","38.8","ND","ND","ND","ND","ND","665","0"],
    [74921,"2018-11-22T12:00:00","ND","ND","ND","ND","61.1","ND","ND","ND","ND","ND","665","0"],
    [74922,"2018-11-22T13:00:00","ND","ND","ND","ND","64.9","ND","ND","ND","ND","ND","664","0"],
    [74923,"2018-11-22T14:00:00","ND","ND","ND","ND","53.2","ND","ND","ND","ND","ND","610","0"],
    [74924,"2018-11-22T15:00:00","ND","ND","ND","ND","29.3","ND","ND","ND","ND","ND","665","0"],
    [74925,"2018-11-22T16:00:00","ND","ND","ND","ND","22.3","ND","ND","ND","ND","ND","665","0"],
    [74926,"2018-11-22T17:00:00","ND","ND","ND","ND","19.1","ND","ND","ND","ND","ND","499","0"],
    [74927,"2018-11-22T18:00:00","ND","ND","ND","ND","10.9","ND","ND","ND","ND","ND","62","0"],
    [74928,"2018-11-22T19:00:00","ND","ND","ND","ND","3.4","ND","ND","ND","ND","ND","0","1.02"],
    [74929,"2018-11-22T20:00:00","ND","ND","ND","ND","2.0","ND","ND","ND","ND","ND","0","0"],
    [74930,"2018-11-22T21:00:00","ND","ND","ND","ND","2.1","ND","ND","ND","ND","ND","0","0"],
    [74931,"2018-11-22T22:00:00","ND","ND","ND","ND","1.2","ND","ND","ND","ND","ND","0","0"],
    [74932,"2018-11-22T23:00:00","ND","ND","ND","ND","1.2","ND","ND","ND","ND","ND","0","0"],
    [74933,"2018-11-23T00:00:00","ND","ND","ND","ND","1.2","ND","ND","ND","ND","ND","0","0"],
    [74934,"2018-11-23T01:00:00","ND","ND","ND","ND","1.5","ND","ND","ND","ND","ND","0","0"],
    [74935,"2018-11-23T02:00:00","ND","ND","ND","ND","1.3","ND","ND","ND","ND","ND","0","0"],
    [74936,"2018-11-23T03:00:00","ND","ND","ND","ND","1.2","ND","ND","ND","ND","ND","0","0"],
    [74937,"2018-11-23T04:00:00","ND","ND","ND","ND","1.1","ND","ND","ND","ND","ND","0","0"],
    [74938,"2018-11-23T05:00:00","ND","ND","ND","ND","1.2","ND","ND","ND","ND","ND","0","0"],
    [74939,"2018-11-23T06:00:00","ND","ND","ND","ND","1.4","ND","ND","ND","ND","ND","0","0"],
    [74940,"2018-11-23T07:00:00","ND","ND","ND","ND","1.5","ND","ND","ND","ND","ND","256","0"],
    [74941,"2018-11-23T08:00:00","ND","ND","ND","ND","4.9","ND","ND","ND","ND","ND","489","0"],
    [74942,"2018-11-23T09:00:00","ND","ND","ND","ND","8.0","ND","ND","ND","ND","ND","227","2.03"],
    [74943,"2018-11-23T10:00:00","ND","ND","ND","ND","9.0","ND","ND","ND","ND","ND","373","0.25"],
    [74944,"2018-11-23T11:00:00","ND","ND","ND","ND","17.8","ND","ND","ND","ND","ND","600","0"],
    [74945,"2018-11-23T12:00:00","ND","ND","ND","ND","25.4","ND","ND","ND","ND","ND","665","0"],
    [74946,"2018-11-23T13:00:00","ND","ND","ND","ND","20.8","ND","ND","ND","ND","ND","665","0"],
    [74947,"2018-11-23T14:00:00","ND","ND","ND","ND","36.5","ND","ND","ND","ND","ND","604","0"],
    [74948,"2018-11-23T15:00:00","ND","ND","ND","ND","27.6","ND","ND","ND","ND","ND","606","0"],
    [74949,"2018-11-23T16:00:00","ND","ND","ND","ND","45.0","ND","ND","ND","ND","ND","594","0"],
    [74950,"2018-11-23T17:00:00","ND","ND","ND","ND","34.8","ND","ND","ND","ND","ND","543","0"],
    [74951,"2018-11-23T18:00:00","ND","ND","ND","ND","18.7","ND","ND","ND","ND","ND","83","0"],
    [74952,"2018-11-23T19:00:00","ND","ND","ND","ND","10.4","ND","ND","ND","ND","ND","0","0"],
    [74953,"2018-11-23T20:00:00","ND","ND","ND","ND","8.9","ND","ND","ND","ND","ND","0","0"],
    [74954,"2018-11-23T21:00:00","ND","ND","ND","ND","1.4","ND","ND","ND","ND","ND","0","0"],
    [74955,"2018-11-23T22:00:00","ND","ND","ND","ND","1.2","ND","ND","ND","ND","ND","0","0"],
    [74956,"2018-11-23T23:00:00","ND","ND","ND","ND","1.4","ND","ND","ND","ND","ND","0","0"],
    [74957,"2018-11-24T00:00:00","ND","ND","ND","ND","1.4","ND","ND","ND","ND","ND","0","0"],
    [74958,"2018-11-24T01:00:00","ND","ND","ND","ND","1.1","ND","ND","ND","ND","ND","0","0"],
    [74959,"2018-11-24T02:00:00","ND","ND","ND","ND","1.0","ND","ND","ND","ND","ND","0","0"],
    [74960,"2018-11-24T03:00:00","ND","ND","ND","ND","1.2","ND","ND","ND","ND","ND","0","0"],
    [74961,"2018-11-24T04:00:00","ND","ND","ND","ND","1.0","ND","ND","ND","ND","ND","0","0"],
    [74962,"2018-11-24T05:00:00","ND","ND","ND","ND","1.1","ND","ND","ND","ND","ND","0","0"],
    [74963,"2018-11-24T06:00:00","ND","ND","ND","ND","1.1","ND","ND","ND","ND","ND","0","0"],
    [74964,"2018-11-24T07:00:00","ND","ND","ND","ND","1.7","ND","ND","ND","ND","ND","134","0"],
    [74965,"2018-11-24T08:00:00","ND","ND","ND","ND","2.3","ND","ND","ND","ND","ND","466","0"],
    [74966,"2018-11-24T09:00:00","ND","ND","ND","ND","4.8","ND","ND","ND","ND","ND","621","0"],
    [74967,"2018-11-24T10:00:00","ND","ND","ND","ND","15.1","ND","ND","ND","ND","ND","664","0"],
    [74968,"2018-11-24T11:00:00","ND","ND","ND","ND","36.2","ND","ND","ND","ND","ND","660","0"],
    [74969,"2018-11-24T12:00:00","ND","ND","ND","ND","52.9","ND","ND","ND","ND","ND","665","0"],
    [74970,"2018-11-24T13:00:00","ND","ND","ND","ND","38.7","ND","ND","ND","ND","ND","316","2.29"],
    [74971,"2018-11-24T14:00:00","ND","ND","ND","ND","21.6","ND","ND","ND","ND","ND","501","8.38"],
    [74972,"2018-11-24T15:00:00","ND","ND","ND","ND","29.1","ND","ND","ND","ND","ND","663","0"],
    [74973,"2018-11-24T16:00:00","ND","ND","ND","ND","16.7","ND","ND","ND","ND","ND","480","0"],
    [74974,"2018-11-24T17:00:00","ND","ND","ND","ND","12.8","ND","ND","ND","ND","ND","561","0"],
    [74975,"2018-11-24T18:00:00","ND","ND","ND","ND","6.8","ND","ND","ND","ND","ND","128","0"],
    [74976,"2018-11-24T19:00:00","ND","ND","ND","ND","2.2","ND","ND","ND","ND","ND","0","0"],
    [74977,"2018-11-24T20:00:00","ND","ND","ND","ND","1.5","ND","ND","ND","ND","ND","0","0"],
    [74978,"2018-11-24T21:00:00","ND","ND","ND","ND","1.5","ND","ND","ND","ND","ND","0","0"],
    [74979,"2018-11-24T22:00:00","ND","ND","ND","ND","1.5","ND","ND","ND","ND","ND","0","0"],
    [74980,"2018-11-24T23:00:00","ND","ND","ND","ND","1.5","ND","ND","ND","ND","ND","0","0"],
    [74981,"2018-11-25T00:00:00","ND","ND","ND","ND","1.2","ND","ND","ND","ND","ND","0","0"],
    [74982,"2018-11-25T01:00:00","ND","ND","ND","ND","1.0","ND","ND","ND","ND","ND","0","0"],
    [74983,"2018-11-25T02:00:00","ND","ND","ND","ND","1.1","ND","ND","ND","ND","ND","0","0"],
    [74984,"2018-11-25T03:00:00","ND","ND","ND","ND","1.3","ND","ND","ND","ND","ND","0","0"],
    [74985,"2018-11-25T04:00:00","ND","ND","ND","ND","1.2","ND","ND","ND","ND","ND","0","0"],
    [74986,"2018-11-25T05:00:00","ND","ND","ND","ND","1.4","ND","ND","ND","ND","ND","0","0"],
    [74987,"2018-11-25T06:00:00","ND","ND","ND","ND","1.3","ND","ND","ND","ND","ND","0","0"],
    [74988,"2018-11-25T07:00:00","ND","ND","ND","ND","1.1","ND","ND","ND","ND","ND","78","0"],
    [74989,"2018-11-25T08:00:00","ND","ND","ND","ND","3.6","ND","ND","ND","ND","ND","483","0"],
    [74990,"2018-11-25T09:00:00","ND","ND","ND","ND","8.2","ND","ND","ND","ND","ND","632","0"],
    [74991,"2018-11-25T10:00:00","ND","ND","ND","ND","18.0","ND","ND","ND","ND","ND","664","0"],
    [74992,"2018-11-25T11:00:00","ND","ND","ND","ND","31.1","ND","ND","ND","ND","ND","665","0"],
    [74993,"2018-11-25T12:00:00","ND","ND","ND","ND","49.2","ND","ND","ND","ND","ND","665","0"],
    [74994,"2018-11-25T13:00:00","ND","ND","ND","ND","64.6","ND","ND","ND","ND","ND","665","0"],
    [74995,"2018-11-25T14:00:00","ND","ND","ND","ND","72.9","ND","ND","ND","ND","ND","656","0"],
    [74996,"2018-11-25T15:00:00","ND","ND","ND","ND","31.2","ND","ND","ND","ND","ND","636","0"],
    [74997,"2018-11-25T16:00:00","ND","ND","ND","ND","24.6","ND","ND","ND","ND","ND","665","0"],
    [74998,"2018-11-25T17:00:00","ND","ND","ND","ND","19.1","ND","ND","ND","ND","ND","349","0"],
    [74999,"2018-11-25T18:00:00","ND","ND","ND","ND","16.6","ND","ND","ND","ND","ND","50","0"],
    [75000,"2018-11-25T19:00:00","ND","ND","ND","ND","9.9","ND","ND","ND","ND","ND","0","0"],
    [75001,"2018-11-25T20:00:00","ND","ND","ND","ND","5.1","ND","ND","ND","ND","ND","0","0"],
    [75002,"2018-11-25T21:00:00","ND","ND","ND","ND","1.3","ND","ND","ND","ND","ND","0","0"],
    [75003,"2018-11-25T22:00:00","ND","ND","ND","ND","1.4","ND","ND","ND","ND","ND","0","0"],
    [75004,"2018-11-25T23:00:00","ND","ND","ND","ND","1.6","ND","ND","ND","ND","ND","0","0"],
    [75005,"2018-11-26T00:00:00","ND","ND","ND","ND","1.1","ND","ND","ND","ND","ND","0","0"],
    [75006,"2018-11-26T01:00:00","ND","ND","ND","ND","2.5","ND","ND","ND","ND","ND","0","0"],
    [75007,"2018-11-26T02:00:00","ND","ND","ND","ND","1.4","ND","ND","ND","ND","ND","0","0"],
    [75008,"2018-11-26T03:00:00","ND","ND","ND","ND","1.5","ND","ND","ND","ND","ND","0","0"],
    [75009,"2018-11-26T04:00:00","ND","ND","ND","ND","1.3","ND","ND","ND","ND","ND","0","0"],
    [75010,"2018-11-26T05:00:00","ND","ND","ND","ND","3.2","ND","ND","ND","ND","ND","0","0"],
    [75011,"2018-11-26T06:00:00","ND","ND","ND","ND","1.4","ND","ND","ND","ND","ND","0","0"],
    [75012,"2018-11-26T07:00:00","ND","ND","ND","ND","1.6","ND","ND","ND","ND","ND","33","0"],
    [75013,"2018-11-26T08:00:00","ND","ND","ND","ND","3.4","ND","ND","ND","ND","ND","111","0"],
    [75014,"2018-11-26T09:00:00","ND","ND","ND","ND","8.7","ND","ND","ND","ND","ND","98","0"],
    [75015,"2018-11-26T10:00:00","ND","ND","ND","ND","11.5","ND","ND","ND","ND","ND","189","0.25"],
    [75016,"2018-11-26T11:00:00","ND","ND","ND","ND","7.9","ND","ND","ND","ND","ND","408","0.51"],
    [75017,"2018-11-26T12:00:00","ND","ND","ND","ND","14.8","ND","ND","ND","ND","ND","655","0"],
    [75018,"2018-11-26T13:00:00","ND","ND","ND","ND","15.7","ND","ND","ND","ND","ND","627","0"],
    [75019,"2018-11-26T14:00:00","ND","ND","ND","ND","17.9","ND","ND","ND","ND","ND","664","0"],
    [75020,"2018-11-26T15:00:00","ND","ND","ND","ND","14.1","ND","ND","ND","ND","ND","321","2.29"],
    [75021,"2018-11-26T16:00:00","ND","ND","ND","ND","5.2","ND","ND","ND","ND","ND","172","1.02"],
    [75022,"2018-11-26T17:00:00","ND","ND","ND","ND","6.2","ND","ND","ND","ND","ND","78","0"],
    [75023,"2018-11-26T18:00:00","ND","ND","ND","ND","1.3","ND","ND","ND","ND","ND","15","0.25"],
    [75024,"2018-11-26T19:00:00","ND","ND","ND","ND","1.1","ND","ND","ND","ND","ND","0","0.76"],
    [75025,"2018-11-26T20:00:00","ND","ND","ND","ND","1.3","ND","ND","ND","ND","ND","0","0.51"],
    [75026,"2018-11-26T21:00:00","ND","ND","ND","ND","1.1","ND","ND","ND","ND","ND","0","8.64"],
    [75027,"2018-11-26T22:00:00","ND","ND","ND","ND","1.3","ND","ND","ND","ND","ND","0","7.11"],
    [75028,"2018-11-26T23:00:00","ND","ND","ND","ND","2.9","ND","ND","ND","ND","ND","0","2.03"],
    [75029,"2018-11-27T00:00:00","ND","ND","ND","ND","4.8","ND","ND","ND","ND","ND","0","3.05"],
    [75030,"2018-11-27T01:00:00","ND","ND","ND","ND","8.3","ND","ND","ND","ND","ND","0","0.51"],
    [75031,"2018-11-27T02:00:00","ND","ND","ND","ND","7.7","ND","ND","ND","ND","ND","0","0.25"],
    [75032,"2018-11-27T03:00:00","ND","ND","ND","ND","3.5","ND","ND","ND","ND","ND","0","0.25"],
    [75033,"2018-11-27T04:00:00","ND","ND","ND","ND","5.6","ND","ND","ND","ND","ND","0","1.27"],
    [75034,"2018-11-27T05:00:00","ND","ND","ND","ND","10.2","ND","ND","ND","ND","ND","0","2.79"],
    [75035,"2018-11-27T06:00:00","ND","ND","ND","ND","4.0","ND","ND","ND","ND","ND","0","1.27"],
    [75036,"2018-11-27T07:00:00","ND","ND","ND","ND","1.1","ND","ND","ND","ND","ND","41","0.25"],
    [75037,"2018-11-27T08:00:00","ND","ND","ND","ND","1.1","ND","ND","ND","ND","ND","277","0"],
    [75038,"2018-11-27T09:00:00","ND","ND","ND","ND","5.3","ND","ND","ND","ND","ND","604","0"],
    [75039,"2018-11-27T10:00:00","ND","ND","ND","ND","168.7","ND","ND","ND","ND","ND","657","0"],
    [75040,"2018-11-27T11:00:00","ND","ND","ND","ND","20.3","ND","ND","ND","ND","ND","664","0"],
    [75041,"2018-11-27T12:00:00","ND","ND","ND","ND","32.1","ND","ND","ND","ND","ND","449","0"],
    [75042,"2018-11-27T13:00:00","ND","ND","ND","ND","46.1","ND","ND","ND","ND","ND","529","0"],
    [75043,"2018-11-27T14:00:00","ND","ND","ND","ND","44.5","ND","ND","ND","ND","ND","663","0"],
    [75044,"2018-11-27T15:00:00","ND","ND","ND","ND","31.0","ND","ND","ND","ND","ND","665","0"],
    [75045,"2018-11-27T16:00:00","ND","ND","ND","ND","15.3","ND","ND","ND","ND","ND","570","0"],
    [75046,"2018-11-27T17:00:00","ND","ND","ND","ND","11.8","ND","ND","ND","ND","ND","197","0"],
    [75047,"2018-11-27T18:00:00","ND","ND","ND","ND","10.3","ND","ND","ND","ND","ND","70","0"],
    [75048,"2018-11-27T19:00:00","ND","ND","ND","ND","3.0","ND","ND","ND","ND","ND","0","0"],
    [75049,"2018-11-27T20:00:00","ND","ND","ND","ND","1.9","ND","ND","ND","ND","ND","0","0"],
    [75050,"2018-11-27T21:00:00","ND","ND","ND","ND","1.5","ND","ND","ND","ND","ND","0","0"],
    [75051,"2018-11-27T22:00:00","ND","ND","ND","ND","7.2","ND","ND","ND","ND","ND","0","3.05"],
    [75052,"2018-11-27T23:00:00","ND","ND","ND","ND","3.6","ND","ND","ND","ND","ND","0","1.27"],
    [75053,"2018-11-28T00:00:00","ND","ND","ND","ND","1.5","ND","ND","ND","ND","ND","0","4.57"],
    [75054,"2018-11-28T01:00:00","ND","ND","ND","ND","1.6","ND","ND","ND","ND","ND","0","1.27"],
    [75055,"2018-11-28T02:00:00","ND","ND","ND","ND","1.2","ND","ND","ND","ND","ND","0","0.25"],
    [75056,"2018-11-28T03:00:00","ND","ND","ND","ND","1.3","ND","ND","ND","ND","ND","0","0"],
    [75057,"2018-11-28T04:00:00","ND","ND","ND","ND","1.0","ND","ND","ND","ND","ND","0","0"],
    [75058,"2018-11-28T05:00:00","ND","ND","ND","ND","0.9","ND","ND","ND","ND","ND","0","0"],
    [75059,"2018-11-28T06:00:00","ND","ND","ND","ND","1.3","ND","ND","ND","ND","ND","0","0"],
    [75060,"2018-11-28T07:00:00","ND","ND","ND","ND","1.3","ND","ND","ND","ND","ND","45","0"],
    [75061,"2018-11-28T08:00:00","ND","ND","ND","ND","1.8","ND","ND","ND","ND","ND","221","0"],
    [75062,"2018-11-28T09:00:00","ND","ND","ND","ND","1.8","ND","ND","ND","ND","ND","500","0"],
    [75063,"2018-11-28T10:00:00","ND","ND","ND","ND","8.6","ND","ND","ND","ND","ND","664","0"],
    [75064,"2018-11-28T11:00:00","ND","ND","ND","ND","25.6","ND","ND","ND","ND","ND","663","0"],
    [75065,"2018-11-28T12:00:00","ND","ND","ND","ND","28.6","0.1","ND","ND","ND","ND","623","0"],
    [75066,"2018-11-28T13:00:00","ND","ND","ND","ND","44.0","0.3","ND","ND","ND","ND","666","0"],
    [75067,"2018-11-28T14:00:00","ND","ND","ND","ND","51.3","0.4","ND","ND","ND","ND","663","0"],
    [75068,"2018-11-28T15:00:00","ND","ND","ND","ND","66.8","0.4","ND","ND","ND","ND","619","0"],
    [75069,"2018-11-28T16:00:00","ND","ND","ND","ND","78.5","0.4","ND","ND","ND","ND","637","0"],
    [75070,"2018-11-28T17:00:00","ND","ND","ND","ND","61.1","0.3","ND","ND","ND","ND","377","0"],
    [75071,"2018-11-28T18:00:00","ND","ND","ND","ND","33.4","0.5","ND","ND","ND","ND","70","0"],
    [75072,"2018-11-28T19:00:00","ND","ND","ND","ND","10.0","0.2","ND","ND","ND","ND","0","0"],
    [75073,"2018-11-28T20:00:00","ND","ND","ND","ND","1.6","0.2","ND","ND","ND","ND","0","0.25"],
    [75074,"2018-11-28T21:00:00","ND","ND","ND","ND","1.5","0.2","ND","ND","ND","ND","0","0"],
    [75075,"2018-11-28T22:00:00","ND","ND","ND","ND","1.6","0.1","ND","ND","ND","ND","0","0"],
    [75076,"2018-11-28T23:00:00","ND","ND","ND","ND","ND","ND","ND","ND","ND","ND","ND","ND"],
    [75077,"2018-11-29T00:00:00","ND","ND","ND","ND","ND","ND","ND","ND","ND","ND","ND","ND"],
    [75078,"2018-11-29T01:00:00","ND","ND","ND","ND","ND","ND","ND","ND","ND","ND","ND","ND"],
    [75079,"2018-11-29T02:00:00","ND","ND","ND","ND","ND","ND","ND","ND","ND","ND","ND","ND"],
    [75080,"2018-11-29T03:00:00","ND","ND","ND","ND","ND","ND","ND","ND","ND","ND","ND","ND"],
    [75081,"2018-11-29T04:00:00","ND","ND","ND","ND","ND","ND","ND","ND","ND","ND","ND","ND"],
    [75082,"2018-11-29T05:00:00","ND","ND","ND","ND","ND","ND","ND","ND","ND","ND","ND","ND"],
    [75083,"2018-11-29T06:00:00","ND","ND","ND","ND","ND","ND","ND","ND","ND","ND","ND","ND"],
    [75084,"2018-11-29T07:00:00","ND","ND","ND","ND","ND","ND","ND","ND","ND","ND","ND","ND"],
    [75085,"2018-11-29T08:00:00","ND","ND","ND","ND","ND","ND","ND","ND","ND","ND","ND","ND"],
    [75086,"2018-11-29T09:00:00","ND","ND","ND","ND","ND","ND","ND","ND","ND","ND","ND","ND"],
    [75087,"2018-11-29T10:00:00","ND","ND","ND","ND","ND","ND","ND","ND","ND","ND","ND","ND"],
    [75088,"2018-11-29T11:00:00","ND","ND","ND","ND","ND","ND","ND","ND","ND","ND","ND","ND"],
    [75089,"2018-11-29T12:00:00","ND","ND","ND","ND","ND","ND","ND","ND","ND","ND","ND","ND"],
    [75090,"2018-11-29T13:00:00","ND","ND","ND","ND","ND","ND","ND","ND","ND","ND","ND","ND"],
    [75091,"2018-11-29T14:00:00","ND","ND","ND","ND","ND","ND","ND","ND","ND","ND","ND","ND"],
    [75092,"2018-11-29T15:00:00","ND","ND","ND","ND","ND","ND","ND","ND","ND","ND","ND","ND"],
    [75093,"2018-11-29T16:00:00","ND","ND","ND","ND","ND","ND","ND","ND","ND","ND","ND","ND"],
    [75094,"2018-11-29T17:00:00","ND","ND","ND","ND","ND","ND","ND","ND","ND","ND","ND","ND"],
    [75095,"2018-11-29T18:00:00","ND","ND","ND","ND","7.9","ND","ND","ND","ND","ND","ND","ND"],
    [75096,"2018-11-29T19:00:00","ND","ND","ND","ND","3.3","ND","ND","ND","ND","ND","ND","ND"],
    [75097,"2018-11-29T20:00:00","ND","ND","ND","ND","2.5","ND","ND","ND","ND","ND","ND","ND"],
    [75098,"2018-11-29T21:00:00","ND","ND","ND","ND","2.4","0.6","ND","ND","ND","ND","ND","ND"],
    [75099,"2018-11-29T22:00:00","ND","ND","ND","ND","2.6","0.4","ND","ND","ND","ND","ND","ND"],
    [75100,"2018-11-29T23:00:00","ND","ND","ND","ND","3.1","0.4","ND","ND","ND","ND","ND","ND"],
    [75101,"2018-11-30T00:00:00","ND","ND","ND","ND","2.8","0.3","ND","ND","ND","ND","ND","ND"],
    [75102,"2018-11-30T01:00:00","ND","ND","ND","ND","1.2","0.5","ND","ND","ND","ND","ND","ND"],
    [75103,"2018-11-30T02:00:00","ND","ND","ND","ND","1.6","0.4","ND","ND","ND","ND","ND","ND"],
    [75104,"2018-11-30T03:00:00","ND","ND","ND","ND","1.6","0.3","ND","ND","ND","ND","ND","ND"],
    [75105,"2018-11-30T04:00:00","ND","ND","ND","ND","1.9","0.5","ND","ND","ND","ND","ND","ND"],
    [75106,"2018-11-30T05:00:00","ND","ND","ND","ND","2.0","2.7","ND","ND","ND","ND","ND","ND"],
    [75107,"2018-11-30T06:00:00","ND","ND","ND","ND","1.3","0.9","ND","ND","ND","ND","ND","ND"],
    [75108,"2018-11-30T07:00:00","ND","ND","ND","ND","1.6","1.0","ND","ND","ND","ND","ND","ND"],
    [75109,"2018-11-30T08:00:00","ND","ND","ND","ND","2.6","0.6","ND","ND","ND","ND","ND","ND"],
    [75110,"2018-11-30T09:00:00","ND","ND","ND","ND","2.9","0.1","ND","ND","ND","ND","ND","ND"],
    [75111,"2018-11-30T10:00:00","ND","ND","ND","ND","9.1","0.2","ND","ND","ND","ND","ND","ND"],
    [75112,"2018-11-30T11:00:00","ND","ND","ND","ND","ND","ND","ND","ND","ND","ND","ND","ND"],
    [75113,"2018-11-30T12:00:00","ND","ND","ND","ND","ND","ND","ND","ND","ND","ND","ND","ND"],
    [75114,"2018-11-30T13:00:00","ND","ND","ND","ND","36.5","ND","ND","ND","ND","ND","667","0"],
    [75115,"2018-11-30T14:00:00","ND","ND","ND","ND","25.1","0.2","ND","ND","ND","ND","647","0"],
    [75116,"2018-11-30T15:00:00","ND","ND","ND","ND","26.1","0.1","ND","ND","ND","ND","667","0"],
    [75117,"2018-11-30T16:00:00","ND","ND","ND","ND","27.2","0.1","ND","ND","ND","ND","519","0"],
    [75118,"2018-11-30T17:00:00","ND","ND","ND","ND","33.6","0.2","ND","ND","ND","ND","317","0"],
    [75119,"2018-11-30T18:00:00","ND","ND","ND","ND","13.1","0.3","ND","ND","ND","ND","68","0"],
    [75120,"2018-11-30T19:00:00","ND","ND","ND","ND","3.8","0.1","ND","ND","ND","ND","0","0"],
    [75121,"2018-11-30T20:00:00","ND","ND","ND","ND","4.5","0.1","ND","ND","ND","ND","0","0.25"],
    [75122,"2018-11-30T21:00:00","ND","ND","ND","ND","2.2","0.2","ND","ND","ND","ND","0","0"],
    [75123,"2018-11-30T22:00:00","ND","ND","ND","ND","2.5","1.9","ND","ND","ND","ND","0","0"],
    [75124,"2018-11-30T23:00:00","ND","ND","ND","ND","10.2","0.1","ND","ND","ND","ND","0","1.52"],
    [75125,"2018-12-01T00:00:00","ND","ND","ND","ND","10.7","0.2","ND","ND","ND","ND","0","1.52"],
    [75126,"2018-12-01T01:00:00","ND","ND","ND","ND","7.6","0.3","ND","ND","ND","ND","0","1.78"],
    [75127,"2018-12-01T02:00:00","ND","ND","ND","ND","7.2","0.7","ND","ND","ND","ND","0","0.25"],
    [75128,"2018-12-01T03:00:00","ND","ND","ND","ND","5.3","0.3","ND","ND","ND","ND","0","0"],
    [75129,"2018-12-01T04:00:00","ND","ND","ND","ND","7.9","0.1","ND","ND","ND","ND","0","0"],
    [75130,"2018-12-01T05:00:00","ND","ND","ND","ND","7.1","0.5","ND","ND","ND","ND","0","0"],
    [75131,"2018-12-01T06:00:00","ND","ND","ND","ND","3.6","0.1","ND","ND","ND","ND","0","0.25"],
    [75132,"2018-12-01T07:00:00","ND","ND","ND","ND","1.6","0.3","ND","ND","ND","ND","27","0"],
    [75133,"2018-12-01T08:00:00","ND","ND","ND","ND","4.1","0.1","ND","ND","ND","ND","301","0"],
    [75134,"2018-12-01T09:00:00","ND","ND","ND","ND","5.7","0.3","ND","ND","ND","ND","458","0"],
    [75135,"2018-12-01T10:00:00","ND","ND","ND","ND","11.7","0.2","ND","ND","ND","ND","470","0"],
    [75136,"2018-12-01T11:00:00","ND","ND","ND","ND","29.4","0.1","ND","ND","ND","ND","608","0"],
    [75137,"2018-12-01T12:00:00","ND","ND","ND","ND","52.3","0.2","ND","ND","ND","ND","655","0"],
    [75138,"2018-12-01T13:00:00","ND","ND","ND","ND","66.2","0.2","ND","ND","ND","ND","661","0"],
    [75139,"2018-12-01T14:00:00","ND","ND","ND","ND","59.6","0.2","ND","ND","ND","ND","592","0"],
    [75140,"2018-12-01T15:00:00","ND","ND","ND","ND","14.2","0.2","ND","ND","ND","ND","385","0.76"],
    [75141,"2018-12-01T16:00:00","ND","ND","ND","ND","14.3","0.1","ND","ND","ND","ND","290","0"],
    [75142,"2018-12-01T17:00:00","ND","ND","ND","ND","11.7","0.3","ND","ND","ND","ND","243","0"],
    [75143,"2018-12-01T18:00:00","ND","ND","ND","ND","9.6","0.1","ND","ND","ND","ND","154","0"],
    [75144,"2018-12-01T19:00:00","ND","ND","ND","ND","4.1","0.2","ND","ND","ND","ND","0","0.76"],
    [75145,"2018-12-01T20:00:00","ND","ND","ND","ND","2.4","0.3","ND","ND","ND","ND","0","0"],
    [75146,"2018-12-01T21:00:00","ND","ND","ND","ND","2.7","0.3","ND","ND","ND","ND","0","0"],
    [75147,"2018-12-01T22:00:00","ND","ND","ND","ND","2.2","0.1","ND","ND","ND","ND","0","0"],
    [75148,"2018-12-01T23:00:00","ND","ND","ND","ND","2.0","0.2","ND","ND","ND","ND","0","0"],
    [75149,"2018-12-02T00:00:00","ND","ND","ND","ND","1.5","0.8","ND","ND","ND","ND","0","0"],
    [75150,"2018-12-02T01:00:00","ND","ND","ND","ND","1.6","0.5","ND","ND","ND","ND","0","0"],
    [75151,"2018-12-02T02:00:00","ND","ND","ND","ND","1.9","0.3","ND","ND","ND","ND","0","0"],
    [75152,"2018-12-02T03:00:00","ND","ND","ND","ND","1.7","0.2","ND","ND","ND","ND","0","0"],
    [75153,"2018-12-02T04:00:00","ND","ND","ND","ND","1.7","0.5","ND","ND","ND","ND","0","0"],
    [75154,"2018-12-02T05:00:00","ND","ND","ND","ND","1.8","1.1","ND","ND","ND","ND","0","0"],
    [75155,"2018-12-02T06:00:00","ND","ND","ND","ND","2.0","0.7","ND","ND","ND","ND","0","0"],
    [75156,"2018-12-02T07:00:00","ND","ND","ND","ND","2.0","0.3","ND","ND","ND","ND","84","0"],
    [75157,"2018-12-02T08:00:00","ND","ND","ND","ND","2.7","0.6","ND","ND","ND","ND","329","0"],
    [75158,"2018-12-02T09:00:00","ND","ND","ND","ND","6.2","0.5","ND","ND","ND","ND","417","0"],
    [75159,"2018-12-02T10:00:00","ND","ND","ND","ND","30.7","0.3","ND","ND","ND","ND","666","0"],
    [75160,"2018-12-02T11:00:00","ND","ND","ND","ND","50.6","0.1","ND","ND","ND","ND","661","0"],
    [75161,"2018-12-02T12:00:00","ND","ND","ND","ND","47.3","0.1","ND","ND","ND","ND","450","0"],
    [75162,"2018-12-02T13:00:00","ND","ND","ND","ND","47.9","0.2","ND","ND","ND","ND","638","0"],
    [75163,"2018-12-02T14:00:00","ND","ND","ND","ND","32.0","0.1","ND","ND","ND","ND","621","0"],
    [75164,"2018-12-02T15:00:00","ND","ND","ND","ND","24.6","0.1","ND","ND","ND","ND","667","0"],
    [75165,"2018-12-02T16:00:00","ND","ND","ND","ND","23.4","0.0","ND","ND","ND","ND","667","0"],
    [75166,"2018-12-02T17:00:00","ND","ND","ND","ND","21.7","0.1","ND","ND","ND","ND","490","0"],
    [75167,"2018-12-02T18:00:00","ND","ND","ND","ND","15.7","0.0","ND","ND","ND","ND","57","0"],
    [75168,"2018-12-02T19:00:00","ND","ND","ND","ND","8.4","0.0","ND","ND","ND","ND","0","0"],
    [75169,"2018-12-02T20:00:00","ND","ND","ND","ND","13.9","0.1","ND","ND","ND","ND","0","0"],
    [75170,"2018-12-02T21:00:00","ND","ND","ND","ND","11.6","0.2","ND","ND","ND","ND","0","0"],
    [75171,"2018-12-02T22:00:00","ND","ND","ND","ND","1.9","0.4","ND","ND","ND","ND","0","0"],
    [75172,"2018-12-02T23:00:00","ND","ND","ND","ND","2.0","0.7","ND","ND","ND","ND","0","0"],
    [75173,"2018-12-03T00:00:00","ND","ND","ND","ND","2.3","1.0","ND","ND","ND","ND","0","0"],
    [75174,"2018-12-03T01:00:00","ND","ND","ND","ND","1.9","0.5","ND","ND","ND","ND","0","0"],
    [75175,"2018-12-03T02:00:00","ND","ND","ND","ND","2.9","0.5","ND","ND","ND","ND","0","0"],
    [75176,"2018-12-03T03:00:00","ND","ND","ND","ND","3.3","0.7","ND","ND","ND","ND","0","0"],
    [75177,"2018-12-03T04:00:00","ND","ND","ND","ND","1.7","0.6","ND","ND","ND","ND","0","0"],
    [75178,"2018-12-03T05:00:00","ND","ND","ND","ND","1.5","0.8","ND","ND","ND","ND","0","0"],
    [75179,"2018-12-03T06:00:00","ND","ND","ND","ND","1.5","0.6","ND","ND","ND","ND","0","0"],
    [75180,"2018-12-03T07:00:00","ND","ND","ND","ND","2.1","0.6","ND","ND","ND","ND","74","0"],
    [75181,"2018-12-03T08:00:00","ND","ND","ND","ND","3.7","1.0","ND","ND","ND","ND","288","0"],
    [75182,"2018-12-03T09:00:00","ND","ND","ND","ND","9.0","0.6","ND","ND","ND","ND","659","0"],
    [75183,"2018-12-03T10:00:00","ND","ND","ND","ND","21.9","0.7","ND","ND","ND","ND","666","0"],
    [75184,"2018-12-03T11:00:00","ND","ND","ND","ND","55.8","0.8","ND","ND","ND","ND","655","0"],
    [75185,"2018-12-03T12:00:00","ND","ND","ND","ND","75.2","0.3","ND","ND","ND","ND","667","0.25"],
    [75186,"2018-12-03T13:00:00","ND","ND","ND","ND","90.4","0.1","ND","ND","ND","ND","667","0"],
    [75187,"2018-12-03T14:00:00","ND","ND","ND","ND","90.5","0.4","ND","ND","ND","ND","629","0"],
    [75188,"2018-12-03T15:00:00","ND","ND","ND","ND","64.1","0.5","ND","ND","ND","ND","488","0"],
    [75189,"2018-12-03T16:00:00","ND","ND","ND","ND","22.3","0.1","ND","ND","ND","ND","667","0"],
    [75190,"2018-12-03T17:00:00","ND","ND","ND","ND","20.2","0.2","ND","ND","ND","ND","443","0"],
    [75191,"2018-12-03T18:00:00","ND","ND","ND","ND","14.6","0.1","ND","ND","ND","ND","59","0"],
    [75192,"2018-12-03T19:00:00","ND","ND","ND","ND","11.8","0.1","ND","ND","ND","ND","0","0"],
    [75193,"2018-12-03T20:00:00","ND","ND","ND","ND","3.7","0.3","ND","ND","ND","ND","0","0"],
    [75194,"2018-12-03T21:00:00","ND","ND","ND","ND","12.2","0.0","ND","ND","ND","ND","0","0"],
    [75195,"2018-12-03T22:00:00","ND","ND","ND","ND","2.6","0.1","ND","ND","ND","ND","0","0"],
    [75196,"2018-12-03T23:00:00","ND","ND","ND","ND","1.5","0.4","ND","ND","ND","ND","0","0"],
    [75197,"2018-12-04T00:00:00","ND","ND","ND","ND","2.6","0.8","ND","ND","ND","ND","0","0"],
    [75198,"2018-12-04T01:00:00","ND","ND","ND","ND","4.2","0.6","ND","ND","ND","ND","0","0"],
    [75199,"2018-12-04T02:00:00","ND","ND","ND","ND","3.8","1.1","ND","ND","ND","ND","0","0"],
    [75200,"2018-12-04T03:00:00","ND","ND","ND","ND","7.4","0.5","ND","ND","ND","ND","0","0"],
    [75201,"2018-12-04T04:00:00","ND","ND","ND","ND","5.5","0.5","ND","ND","ND","ND","0","0"],
    [75202,"2018-12-04T05:00:00","ND","ND","ND","ND","2.6","0.5","ND","ND","ND","ND","0","0"],
    [75203,"2018-12-04T06:00:00","ND","ND","ND","ND","3.2","0.2","ND","ND","ND","ND","0","0"],
    [75204,"2018-12-04T07:00:00","ND","ND","ND","ND","1.7","0.1","ND","ND","ND","ND","98","0"],
    [75205,"2018-12-04T08:00:00","ND","ND","ND","ND","2.9","0.1","ND","ND","ND","ND","309","0"],
    [75206,"2018-12-04T09:00:00","ND","ND","ND","ND","9.8","0.2","ND","ND","ND","ND","471","0"],
    [75207,"2018-12-04T10:00:00","ND","ND","ND","ND","21.1","0.2","ND","ND","ND","ND","660","0"],
    [75208,"2018-12-04T11:00:00","ND","ND","ND","ND","26.5","0.1","ND","ND","ND","ND","628","0"],
    [75209,"2018-12-04T12:00:00","ND","ND","ND","ND","43.8","0.1","ND","ND","ND","ND","666","0"],
    [75210,"2018-12-04T13:00:00","ND","ND","ND","ND","63.6","0.2","ND","ND","ND","ND","667","0"],
    [75211,"2018-12-04T14:00:00","ND","ND","ND","ND","67.4","0.3","ND","ND","ND","ND","667","0"],
    [75212,"2018-12-04T15:00:00","ND","ND","ND","ND","25.4","0.0","ND","ND","ND","ND","667","0"],
    [75213,"2018-12-04T16:00:00","ND","ND","ND","ND","15.2","0.1","ND","ND","ND","ND","576","0"],
    [75214,"2018-12-04T17:00:00","ND","ND","ND","ND","13.8","0.0","ND","ND","ND","ND","426","0"],
    [75215,"2018-12-04T18:00:00","ND","ND","ND","ND","10.8","0.1","ND","ND","ND","ND","49","0"],
    [75216,"2018-12-04T19:00:00","ND","ND","ND","ND","6.4","0.1","ND","ND","ND","ND","0","0"],
    [75217,"2018-12-04T20:00:00","ND","ND","ND","ND","5.8","0.2","ND","ND","ND","ND","0","0"],
    [75218,"2018-12-04T21:00:00","ND","ND","ND","ND","12.3","0.2","ND","ND","ND","ND","0","0"],
    [75219,"2018-12-04T22:00:00","ND","ND","ND","ND","16.4","0.1","ND","ND","ND","ND","0","0"],
    [75220,"2018-12-04T23:00:00","ND","ND","ND","ND","21.3","0.0","ND","ND","ND","ND","0","0"],
    [75221,"2018-12-05T00:00:00","ND","ND","ND","ND","6.9","0.9","ND","ND","ND","ND","0","0"],
    [75222,"2018-12-05T01:00:00","ND","ND","ND","ND","1.7","3.8","ND","ND","ND","ND","0","0"],
    [75223,"2018-12-05T02:00:00","ND","ND","ND","ND","2.2","1.2","ND","ND","ND","ND","0","0"],
    [75224,"2018-12-05T03:00:00","ND","ND","ND","ND","1.7","4.5","ND","ND","ND","ND","0","0"],
    [75225,"2018-12-05T04:00:00","ND","ND","ND","ND","4.4","2.0","ND","ND","ND","ND","0","0"],
    [75226,"2018-12-05T05:00:00","ND","ND","ND","ND","3.0","0.8","ND","ND","ND","ND","0","0"],
    [75227,"2018-12-05T06:00:00","ND","ND","ND","ND","1.9","1.4","ND","ND","ND","ND","0","0"],
    [75228,"2018-12-05T07:00:00","ND","ND","ND","ND","2.2","1.8","ND","ND","ND","ND","91","0"],
    [75229,"2018-12-05T08:00:00","ND","ND","ND","ND","3.9","1.9","ND","ND","ND","ND","447","0"],
    [75230,"2018-12-05T09:00:00","ND","ND","ND","ND","9.8","1.2","ND","ND","ND","ND","415","0"],
    [75231,"2018-12-05T10:00:00","ND","ND","ND","ND","16.4","0.6","ND","ND","ND","ND","417","0"],
    [75232,"2018-12-05T11:00:00","ND","ND","ND","ND","24.0","0.3","ND","ND","ND","ND","666","0"],
    [75233,"2018-12-05T12:00:00","ND","ND","ND","ND","27.8","0.3","ND","ND","ND","ND","644","0"],
    [75234,"2018-12-05T13:00:00","ND","ND","ND","ND","32.2","0.2","ND","ND","ND","ND","666","0"],
    [75235,"2018-12-05T14:00:00","ND","ND","ND","ND","42.4","0.1","ND","ND","ND","ND","577","0"],
    [75236,"2018-12-05T15:00:00","ND","ND","ND","ND","27.0","0.2","ND","ND","ND","ND","605","0.25"],
    [75237,"2018-12-05T16:00:00","ND","ND","ND","ND","21.3","0.1","ND","ND","ND","ND","655","0"],
    [75238,"2018-12-05T17:00:00","ND","ND","ND","ND","21.8","0.1","ND","ND","ND","ND","538","0.25"],
    [75239,"2018-12-05T18:00:00","ND","ND","ND","ND","16.7","0.2","ND","ND","ND","ND","158","0"],
    [75240,"2018-12-05T19:00:00","ND","ND","ND","ND","19.4","0.1","ND","ND","ND","ND","0","0"],
    [75241,"2018-12-05T20:00:00","ND","ND","ND","ND","16.6","0.1","ND","ND","ND","ND","0","0"],
    [75242,"2018-12-05T21:00:00","ND","ND","ND","ND","3.6","0.2","ND","ND","ND","ND","0","0.51"],
    [75243,"2018-12-05T22:00:00","ND","ND","ND","ND","4.8","0.1","ND","ND","ND","ND","0","2.54"],
    [75244,"2018-12-05T23:00:00","ND","ND","ND","ND","6.1","0.1","ND","ND","ND","ND","0","3.81"],
    [75245,"2018-12-06T00:00:00","ND","ND","ND","ND","2.6","0.3","ND","ND","ND","ND","0","7.87"],
    [75246,"2018-12-06T01:00:00","ND","ND","ND","ND","5.6","0.2","ND","ND","ND","ND","0","2.79"],
    [75247,"2018-12-06T02:00:00","ND","ND","ND","ND","9.4","0.1","ND","ND","ND","ND","0","3.3"],
    [75248,"2018-12-06T03:00:00","ND","ND","ND","ND","9.5","0.1","ND","ND","ND","ND","0","1.02"],
    [75249,"2018-12-06T04:00:00","ND","ND","ND","ND","10.3","0.0","ND","ND","ND","ND","0","0.25"],
    [75250,"2018-12-06T05:00:00","ND","ND","ND","ND","8.2","0.1","ND","ND","ND","ND","0","0"],
    [75251,"2018-12-06T06:00:00","ND","ND","ND","ND","6.9","0.1","ND","ND","ND","ND","0","0"],
    [75252,"2018-12-06T07:00:00","ND","ND","ND","ND","2.5","0.6","ND","ND","ND","ND","74","0"],
    [75253,"2018-12-06T08:00:00","ND","ND","ND","ND","3.3","0.7","ND","ND","ND","ND","362","0.25"],
    [75254,"2018-12-06T09:00:00","ND","ND","ND","ND","17.0","0.2","ND","ND","ND","ND","656","0"],
    [75255,"2018-12-06T10:00:00","ND","ND","ND","ND","27.1","0.1","ND","ND","ND","ND","663","0"],
    [75256,"2018-12-06T11:00:00","ND","ND","ND","ND","36.2","0.2","ND","ND","ND","ND","666","0"],
    [75257,"2018-12-06T12:00:00","ND","ND","ND","ND","54.2","0.2","ND","ND","ND","ND","653","0"],
    [75258,"2018-12-06T13:00:00","ND","ND","ND","ND","78.3","0.1","ND","ND","ND","ND","662","0"],
    [75259,"2018-12-06T14:00:00","ND","ND","ND","ND","70.0","0.1","ND","ND","ND","ND","667","0"],
    [75260,"2018-12-06T15:00:00","ND","ND","ND","ND","49.8","0.1","ND","ND","ND","ND","465","0"],
    [75261,"2018-12-06T16:00:00","ND","ND","ND","ND","22.7","0.1","ND","ND","ND","ND","632","0"],
    [75262,"2018-12-06T17:00:00","ND","ND","ND","ND","20.3","0.1","ND","ND","ND","ND","357","0"],
    [75263,"2018-12-06T18:00:00","ND","ND","ND","ND","9.0","0.1","ND","ND","ND","ND","75","0"],
    [75264,"2018-12-06T19:00:00","ND","ND","ND","ND","2.5","0.1","ND","ND","ND","ND","0","0"],
    [75265,"2018-12-06T20:00:00","ND","ND","ND","ND","2.2","0.2","ND","ND","ND","ND","0","0"],
    [75266,"2018-12-06T21:00:00","ND","ND","ND","ND","1.7","0.5","ND","ND","ND","ND","0","0"],
    [75267,"2018-12-06T22:00:00","ND","ND","ND","ND","1.8","0.5","ND","ND","ND","ND","0","0"],
    [75268,"2018-12-06T23:00:00","ND","ND","ND","ND","1.3","0.2","ND","ND","ND","ND","0","0"],
    [75269,"2018-12-07T00:00:00","ND","ND","ND","ND","1.2","0.2","ND","ND","ND","ND","0","0"],
    [75270,"2018-12-07T01:00:00","ND","ND","ND","ND","1.8","0.7","ND","ND","ND","ND","0","0"],
    [75271,"2018-12-07T02:00:00","ND","ND","ND","ND","2.2","1.0","ND","ND","ND","ND","0","0"],
    [75272,"2018-12-07T03:00:00","ND","ND","ND","ND","3.9","0.5","ND","ND","ND","ND","0","0"],
    [75273,"2018-12-07T04:00:00","ND","ND","ND","ND","8.9","0.3","ND","ND","ND","ND","0","0.76"],
    [75274,"2018-12-07T05:00:00","ND","ND","ND","ND","5.4","0.0","ND","ND","ND","ND","0","4.57"],
    [75275,"2018-12-07T06:00:00","ND","ND","ND","ND","1.2","0.2","ND","ND","ND","ND","0","0.25"],
    [75276,"2018-12-07T07:00:00","ND","ND","ND","ND","1.6","0.3","ND","ND","ND","ND","93","0"],
    [75277,"2018-12-07T08:00:00","ND","ND","ND","ND","2.7","0.2","ND","ND","ND","ND","373","0"],
    [75278,"2018-12-07T09:00:00","ND","ND","ND","ND","12.3","0.2","ND","ND","ND","ND","444","0"],
    [75279,"2018-12-07T10:00:00","ND","ND","ND","ND","18.0","0.1","ND","ND","ND","ND","614","0"],
    [75280,"2018-12-07T11:00:00","ND","ND","ND","ND","32.0","0.2","ND","ND","ND","ND","666","0"],
    [75281,"2018-12-07T12:00:00","ND","ND","ND","ND","49.2","0.1","ND","ND","ND","ND","656","0"],
    [75282,"2018-12-07T13:00:00","ND","ND","ND","ND","33.3","0.3","ND","ND","ND","ND","618","0"],
    [75283,"2018-12-07T14:00:00","ND","ND","ND","ND","39.1","0.2","ND","ND","ND","ND","662","0"],
    [75284,"2018-12-07T15:00:00","ND","ND","ND","ND","34.2","0.1","ND","ND","ND","ND","666","0"],
    [75285,"2018-12-07T16:00:00","ND","ND","ND","ND","22.2","0.1","ND","ND","ND","ND","667","0"],
    [75286,"2018-12-07T17:00:00","ND","ND","ND","ND","18.8","0.1","ND","ND","ND","ND","483","0"],
    [75287,"2018-12-07T18:00:00","ND","ND","ND","ND","16.0","0.1","ND","ND","ND","ND","106","0"],
    [75288,"2018-12-07T19:00:00","ND","ND","ND","ND","3.6","0.1","ND","ND","ND","ND","0","0"],
    [75289,"2018-12-07T20:00:00","ND","ND","ND","ND","1.8","0.2","ND","ND","ND","ND","0","0"],
    [75290,"2018-12-07T21:00:00","ND","ND","ND","ND","4.0","0.3","ND","ND","ND","ND","0","0"],
    [75291,"2018-12-07T22:00:00","ND","ND","ND","ND","2.0","0.8","ND","ND","ND","ND","0","0"],
    [75292,"2018-12-07T23:00:00","ND","ND","ND","ND","2.1","0.5","ND","ND","ND","ND","0","0"],
    [75293,"2018-12-08T00:00:00","ND","ND","ND","ND","1.7","0.2","ND","ND","ND","ND","0","0"],
    [75294,"2018-12-08T01:00:00","ND","ND","ND","ND","1.6","0.7","ND","ND","ND","ND","0","0"],
    [75295,"2018-12-08T02:00:00","ND","ND","ND","ND","2.2","0.6","ND","ND","ND","ND","0","0"],
    [75296,"2018-12-08T03:00:00","ND","ND","ND","ND","1.8","0.5","ND","ND","ND","ND","0","0"],
    [75297,"2018-12-08T04:00:00","ND","ND","ND","ND","1.3","0.4","ND","ND","ND","ND","0","0"],
    [75298,"2018-12-08T05:00:00","ND","ND","ND","ND","1.5","1.2","ND","ND","ND","ND","0","0"],
    [75299,"2018-12-08T06:00:00","ND","ND","ND","ND","1.4","1.0","ND","ND","ND","ND","1","0"],
    [75300,"2018-12-08T07:00:00","ND","ND","ND","ND","1.5","0.7","ND","ND","ND","ND","98","0"],
    [75301,"2018-12-08T08:00:00","ND","ND","ND","ND","4.4","1.4","ND","ND","ND","ND","405","0"],
    [75302,"2018-12-08T09:00:00","ND","ND","ND","ND","9.8","1.0","ND","ND","ND","ND","570","0"],
    [75303,"2018-12-08T10:00:00","ND","ND","ND","ND","22.6","0.9","ND","ND","ND","ND","640","0"],
    [75304,"2018-12-08T11:00:00","ND","ND","ND","ND","50.6","0.4","ND","ND","ND","ND","663","0"],
    [75305,"2018-12-08T12:00:00","ND","ND","ND","ND","65.8","0.3","ND","ND","ND","ND","660","0"],
    [75306,"2018-12-08T13:00:00","ND","ND","ND","ND","93.5","0.1","ND","ND","ND","ND","664","0"],
    [75307,"2018-12-08T14:00:00","ND","ND","ND","ND","89.5","0.3","ND","ND","ND","ND","542","0"],
    [75308,"2018-12-08T15:00:00","ND","ND","ND","ND","72.9","0.1","ND","ND","ND","ND","366","0"],
    [75309,"2018-12-08T16:00:00","ND","ND","ND","ND","27.7","0.1","ND","ND","ND","ND","337","0"],
    [75310,"2018-12-08T17:00:00","ND","ND","ND","ND","28.7","0.0","ND","ND","ND","ND","229","0"],
    [75311,"2018-12-08T18:00:00","ND","ND","ND","ND","25.0","0.2","ND","ND","ND","ND","60","0"],
    [75312,"2018-12-08T19:00:00","ND","ND","ND","ND","15.5","0.0","ND","ND","ND","ND","0","1.78"],
    [75313,"2018-12-08T20:00:00","ND","ND","ND","ND","8.4","0.1","ND","ND","ND","ND","0","0.51"],
    [75314,"2018-12-08T21:00:00","ND","ND","ND","ND","2.4","1.7","ND","ND","ND","ND","0","0"],
    [75315,"2018-12-08T22:00:00","ND","ND","ND","ND","1.9","1.0","ND","ND","ND","ND","0","0"],
    [75316,"2018-12-08T23:00:00","ND","ND","ND","ND","1.5","0.6","ND","ND","ND","ND","0","0"],
    [75317,"2018-12-09T00:00:00","ND","ND","ND","ND","2.0","1.0","ND","ND","ND","ND","0","0"],
    [75318,"2018-12-09T01:00:00","ND","ND","ND","ND","1.0","1.4","ND","ND","ND","ND","0","0"],
    [75319,"2018-12-09T02:00:00","ND","ND","ND","ND","1.2","2.3","ND","ND","ND","ND","0","0"],
    [75320,"2018-12-09T03:00:00","ND","ND","ND","ND","1.1","1.0","ND","ND","ND","ND","0","0"],
    [75321,"2018-12-09T04:00:00","ND","ND","ND","ND","1.2","1.0","ND","ND","ND","ND","0","0"],
    [75322,"2018-12-09T05:00:00","ND","ND","ND","ND","1.4","1.1","ND","ND","ND","ND","0","0"],
    [75323,"2018-12-09T06:00:00","ND","ND","ND","ND","1.4","0.8","ND","ND","ND","ND","1","0"],
    [75324,"2018-12-09T07:00:00","ND","ND","ND","ND","2.5","5.1","ND","ND","ND","ND","69","0"],
    [75325,"2018-12-09T08:00:00","ND","ND","ND","ND","6.2","1.5","ND","ND","ND","ND","540","0"],
    [75326,"2018-12-09T09:00:00","ND","ND","ND","ND","20.1","1.4","ND","ND","ND","ND","666","0"],
    [75327,"2018-12-09T10:00:00","ND","ND","ND","ND","36.9","1.8","ND","ND","ND","ND","605","0"],
    [75328,"2018-12-09T11:00:00","ND","ND","ND","ND","55.2","0.6","ND","ND","ND","ND","652","0"],
    [75329,"2018-12-09T12:00:00","ND","ND","ND","ND","64.8","0.2","ND","ND","ND","ND","644","0"],
    [75330,"2018-12-09T13:00:00","ND","ND","ND","ND","82.3","0.1","ND","ND","ND","ND","667","0"],
    [75331,"2018-12-09T14:00:00","ND","ND","ND","ND","83.5","0.1","ND","ND","ND","ND","661","0"],
    [75332,"2018-12-09T15:00:00","ND","ND","ND","ND","77.8","0.2","ND","ND","ND","ND","667","0"],
    [75333,"2018-12-09T16:00:00","ND","ND","ND","ND","80.5","0.2","ND","ND","ND","ND","608","0"],
    [75334,"2018-12-09T17:00:00","ND","ND","ND","ND","51.8","0.2","ND","ND","ND","ND","526","0"],
    [75335,"2018-12-09T18:00:00","ND","ND","ND","ND","43.0","0.0","ND","ND","ND","ND","87","0"],
    [75336,"2018-12-09T19:00:00","ND","ND","ND","ND","34.7","0.2","ND","ND","ND","ND","1","0"],
    [75337,"2018-12-09T20:00:00","ND","ND","ND","ND","17.6","0.1","ND","ND","ND","ND","0","0"],
    [75338,"2018-12-09T21:00:00","ND","ND","ND","ND","2.6","0.9","ND","ND","ND","ND","0","13.46"],
    [75339,"2018-12-09T22:00:00","ND","ND","ND","ND","1.8","3.2","ND","ND","ND","ND","0","0"],
    [75340,"2018-12-09T23:00:00","ND","ND","ND","ND","1.6","2.6","ND","ND","ND","ND","0","0"],
    [75341,"2018-12-10T00:00:00","ND","ND","ND","ND","2.1","0.6","ND","ND","ND","ND","0","0"],
    [75342,"2018-12-10T01:00:00","ND","ND","ND","ND","1.5","0.8","ND","ND","ND","ND","0","0"],
    [75343,"2018-12-10T02:00:00","ND","ND","ND","ND","1.7","1.8","ND","ND","ND","ND","0","0"],
    [75344,"2018-12-10T03:00:00","ND","ND","ND","ND","1.5","1.8","ND","ND","ND","ND","0","0"],
    [75345,"2018-12-10T04:00:00","ND","ND","ND","ND","1.3","2.1","ND","ND","ND","ND","0","0"],
    [75346,"2018-12-10T05:00:00","ND","ND","ND","ND","1.4","1.2","ND","ND","ND","ND","0","0"],
    [75347,"2018-12-10T06:00:00","ND","ND","ND","ND","1.7","0.6","ND","ND","ND","ND","1","0"],
    [75348,"2018-12-10T07:00:00","ND","ND","ND","ND","2.4","1.0","ND","ND","ND","ND","57","0"],
    [75349,"2018-12-10T08:00:00","ND","ND","ND","ND","2.7","1.5","ND","ND","ND","ND","255","0"],
    [75350,"2018-12-10T09:00:00","ND","ND","ND","ND","7.5","1.6","ND","ND","ND","ND","616","0"],
    [75351,"2018-12-10T10:00:00","ND","ND","ND","ND","22.4","1.9","ND","ND","ND","ND","666","0"],
    [75352,"2018-12-10T11:00:00","ND","ND","ND","ND","74.2","0.3","ND","ND","ND","ND","667","0"],
    [75353,"2018-12-10T12:00:00","ND","ND","ND","ND","89.0","0.3","ND","ND","ND","ND","667","0"],
    [75354,"2018-12-10T13:00:00","ND","ND","ND","ND","97.4","0.2","ND","ND","ND","ND","667","0"],
    [75355,"2018-12-10T14:00:00","ND","ND","ND","ND","114.4","0.1","ND","ND","ND","ND","667","0"],
    [75356,"2018-12-10T15:00:00","ND","ND","ND","ND","78.4","0.4","ND","ND","ND","ND","631","0"],
    [75357,"2018-12-10T16:00:00","ND","ND","ND","ND","28.4","0.1","ND","ND","ND","ND","667","0"],
    [75358,"2018-12-10T17:00:00","ND","ND","ND","ND","25.6","0.1","ND","ND","ND","ND","416","0"],
    [75359,"2018-12-10T18:00:00","ND","ND","ND","ND","18.5","0.1","ND","ND","ND","ND","43","0"],
    [75360,"2018-12-10T19:00:00","ND","ND","ND","ND","4.9","0.1","ND","ND","ND","ND","0","0"],
    [75361,"2018-12-10T20:00:00","ND","ND","ND","ND","2.1","0.2","ND","ND","ND","ND","0","0"],
    [75362,"2018-12-10T21:00:00","ND","ND","ND","ND","1.6","0.7","ND","ND","ND","ND","0","0.25"],
    [75363,"2018-12-10T22:00:00","ND","ND","ND","ND","1.4","1.8","ND","ND","ND","ND","0","0"],
    [75364,"2018-12-10T23:00:00","ND","ND","ND","ND","1.5","0.9","ND","ND","ND","ND","0","0"],
    [75365,"2018-12-11T00:00:00","ND","ND","ND","ND","1.4","0.6","ND","ND","ND","ND","0","0"],
    [75366,"2018-12-11T01:00:00","ND","ND","ND","ND","1.5","0.8","ND","ND","ND","ND","0","0"],
    [75367,"2018-12-11T02:00:00","ND","ND","ND","ND","1.4","1.4","ND","ND","ND","ND","0","0"],
    [75368,"2018-12-11T03:00:00","ND","ND","ND","ND","1.7","2.0","ND","ND","ND","ND","0","0"],
    [75369,"2018-12-11T04:00:00","ND","ND","ND","ND","1.9","1.0","ND","ND","ND","ND","0","0"],
    [75370,"2018-12-11T05:00:00","ND","ND","ND","ND","1.3","0.6","ND","ND","ND","ND","0","0"],
    [75371,"2018-12-11T06:00:00","ND","ND","ND","ND","1.5","1.1","ND","ND","ND","ND","0","0"],
    [75372,"2018-12-11T07:00:00","ND","ND","ND","ND","2.1","4.3","ND","ND","ND","ND","75","0"],
    [75373,"2018-12-11T08:00:00","ND","ND","ND","ND","3.2","2.7","ND","ND","ND","ND","342","0"],
    [75374,"2018-12-11T09:00:00","ND","ND","ND","ND","6.4","1.6","ND","ND","ND","ND","527","0"],
    [75375,"2018-12-11T10:00:00","ND","ND","ND","ND","18.7","1.3","ND","ND","ND","ND","665","0"],
    [75376,"2018-12-11T11:00:00","ND","ND","ND","ND","49.3","1.2","ND","ND","ND","ND","666","0"],
    [75377,"2018-12-11T12:00:00","ND","ND","ND","ND","78.2","0.7","ND","ND","ND","ND","665","0"],
    [75378,"2018-12-11T13:00:00","ND","ND","ND","ND","75.4","0.3","ND","ND","ND","ND","622","0"],
    [75379,"2018-12-11T14:00:00","ND","ND","ND","ND","42.3","0.2","ND","ND","ND","ND","600","0"],
    [75380,"2018-12-11T15:00:00","ND","ND","ND","ND","37.3","0.1","ND","ND","ND","ND","667","0"],
    [75381,"2018-12-11T16:00:00","ND","ND","ND","ND","30.1","0.1","ND","ND","ND","ND","510","0"],
    [75382,"2018-12-11T17:00:00","ND","ND","ND","ND","23.0","0.2","ND","ND","ND","ND","330","0"],
    [75383,"2018-12-11T18:00:00","ND","ND","ND","ND","16.2","0.1","ND","ND","ND","ND","79","0"],
    [75384,"2018-12-11T19:00:00","ND","ND","ND","ND","7.7","0.1","ND","ND","ND","ND","0","0"],
    [75385,"2018-12-11T20:00:00","ND","ND","ND","ND","3.0","0.1","ND","ND","ND","ND","0","0"],
    [75386,"2018-12-11T21:00:00","ND","ND","ND","ND","1.9","0.2","ND","ND","ND","ND","0","0"],
    [75387,"2018-12-11T22:00:00","ND","ND","ND","ND","1.7","1.3","ND","ND","ND","ND","0","0"],
    [75388,"2018-12-11T23:00:00","ND","ND","ND","ND","1.8","1.6","ND","ND","ND","ND","0","0"],
    [75389,"2018-12-12T00:00:00","ND","ND","ND","ND","1.7","0.8","ND","ND","ND","ND","0","0"],
    [75390,"2018-12-12T01:00:00","ND","ND","ND","ND","1.6","0.6","ND","ND","ND","ND","0","0"],
    [75391,"2018-12-12T02:00:00","ND","ND","ND","ND","2.1","1.9","ND","ND","ND","ND","0","0"],
    [75392,"2018-12-12T03:00:00","ND","ND","ND","ND","2.5","1.9","ND","ND","ND","ND","0","0"],
    [75393,"2018-12-12T04:00:00","ND","ND","ND","ND","2.2","2.9","ND","ND","ND","ND","0","0"],
    [75394,"2018-12-12T05:00:00","ND","ND","ND","ND","2.3","2.2","ND","ND","ND","ND","0","0"],
    [75395,"2018-12-12T06:00:00","ND","ND","ND","ND","2.6","2.9","ND","ND","ND","ND","0","0"],
    [75396,"2018-12-12T07:00:00","ND","ND","ND","ND","3.0","1.6","ND","ND","ND","ND","60","0"],
    [75397,"2018-12-12T08:00:00","ND","ND","ND","ND","4.6","2.6","ND","ND","ND","ND","320","0"],
    [75398,"2018-12-12T09:00:00","ND","ND","ND","ND","10.1","1.7","ND","ND","ND","ND","559","0"],
    [75399,"2018-12-12T10:00:00","ND","ND","ND","ND","30.0","0.6","ND","ND","ND","ND","651","0"],
    [75400,"2018-12-12T11:00:00","ND","ND","ND","ND","52.1","0.3","ND","ND","ND","ND","616","0"],
    [75401,"2018-12-12T12:00:00","ND","ND","ND","ND","88.8","0.2","ND","ND","ND","ND","667","0"],
    [75402,"2018-12-12T13:00:00","ND","ND","ND","ND","109.2","0.2","ND","ND","ND","ND","667","0"],
    [75403,"2018-12-12T14:00:00","ND","ND","ND","ND","118.4","0.2","ND","ND","ND","ND","663","0"],
    [75404,"2018-12-12T15:00:00","ND","ND","ND","ND","92.7","0.1","ND","ND","ND","ND","598","0"],
    [75405,"2018-12-12T16:00:00","ND","ND","ND","ND","41.3","0.2","ND","ND","ND","ND","301","0"],
    [75406,"2018-12-12T17:00:00","ND","ND","ND","ND","24.9","0.1","ND","ND","ND","ND","200","0"],
    [75407,"2018-12-12T18:00:00","ND","ND","ND","ND","21.0","0.1","ND","ND","ND","ND","65","0"],
    [75408,"2018-12-12T19:00:00","ND","ND","ND","ND","10.1","0.2","ND","ND","ND","ND","0","0"],
    [75409,"2018-12-12T20:00:00","ND","ND","ND","ND","2.9","0.4","ND","ND","ND","ND","0","0"],
    [75410,"2018-12-12T21:00:00","ND","ND","ND","ND","2.5","1.3","ND","ND","ND","ND","0","0"],
    [75411,"2018-12-12T22:00:00","ND","ND","ND","ND","15.0","0.2","ND","ND","ND","ND","0","0.76"],
    [75412,"2018-12-12T23:00:00","ND","ND","ND","ND","7.0","0.1","ND","ND","ND","ND","0","0.51"],
    [75413,"2018-12-13T00:00:00","ND","ND","ND","ND","5.7","0.4","ND","ND","ND","ND","0","0.25"],
    [75414,"2018-12-13T01:00:00","ND","ND","ND","ND","3.4","0.5","ND","ND","ND","ND","0","0"],
    [75415,"2018-12-13T02:00:00","ND","ND","ND","ND","2.0","0.5","ND","ND","ND","ND","0","0"],
    [75416,"2018-12-13T03:00:00","ND","ND","ND","ND","1.8","1.1","ND","ND","ND","ND","0","0"],
    [75417,"2018-12-13T04:00:00","ND","ND","ND","ND","2.0","2.0","ND","ND","ND","ND","0","0"],
    [75418,"2018-12-13T05:00:00","ND","ND","ND","ND","1.6","2.2","ND","ND","ND","ND","0","0"],
    [75419,"2018-12-13T06:00:00","ND","ND","ND","ND","1.5","2.0","ND","ND","ND","ND","0","0"],
    [75420,"2018-12-13T07:00:00","ND","ND","ND","ND","1.8","1.1","ND","ND","ND","ND","45","0"],
    [75421,"2018-12-13T08:00:00","ND","ND","ND","ND","2.9","1.0","ND","ND","ND","ND","367","0.25"],
    [75422,"2018-12-13T09:00:00","ND","ND","ND","ND","7.9","1.2","ND","ND","ND","ND","631","0"],
    [75423,"2018-12-13T10:00:00","ND","ND","ND","ND","33.8","0.6","ND","ND","ND","ND","666","0"],
    [75424,"2018-12-13T11:00:00","ND","ND","ND","ND","77.3","0.3","ND","ND","ND","ND","666","0"],
    [75425,"2018-12-13T12:00:00","ND","ND","ND","ND","80.2","0.3","ND","ND","ND","ND","667","0"],
    [75426,"2018-12-13T13:00:00","ND","ND","ND","ND","78.2","0.1","ND","ND","ND","ND","667","0"],
    [75427,"2018-12-13T14:00:00","ND","ND","ND","ND","71.9","9.5","ND","ND","ND","ND","667","0"],
    [75428,"2018-12-13T15:00:00","ND","ND","ND","ND","60.0","ND","ND","ND","ND","ND","586","0.25"],
    [75429,"2018-12-13T16:00:00","ND","ND","ND","ND","ND","ND","ND","ND","ND","ND","240","0.51"],
    [75430,"2018-12-13T17:00:00","ND","ND","ND","ND","113.6","2.1","ND","ND","ND","ND","227","0"],
    [75431,"2018-12-13T18:00:00","ND","ND","ND","ND","11.9","0.3","ND","ND","ND","ND","57","0"],
    [75432,"2018-12-13T19:00:00","ND","ND","ND","ND","11.8","0.4","ND","ND","ND","ND","0","0"],
    [75433,"2018-12-13T20:00:00","ND","ND","ND","ND","7.2","1.7","ND","ND","ND","ND","0","0"],
    [75434,"2018-12-13T21:00:00","ND","ND","ND","ND","4.5","1.0","ND","ND","ND","ND","0","0.25"],
    [75435,"2018-12-13T22:00:00","ND","ND","ND","ND","4.5","1.9","ND","ND","ND","ND","0","0"],
    [75436,"2018-12-13T23:00:00","ND","ND","ND","ND","4.9","2.1","ND","ND","ND","ND","0","1.02"],
    [75437,"2018-12-14T00:00:00","ND","ND","ND","ND","4.3","1.0","ND","ND","ND","ND","0","0"],
    [75438,"2018-12-14T01:00:00","ND","ND","ND","ND","3.9","1.9","ND","ND","ND","ND","0","0"],
    [75439,"2018-12-14T02:00:00","ND","ND","ND","ND","4.0","1.3","ND","ND","ND","ND","0","0"],
    [75440,"2018-12-14T03:00:00","ND","ND","ND","ND","4.1","1.5","ND","ND","ND","ND","0","0"],
    [75441,"2018-12-14T04:00:00","ND","ND","ND","ND","4.3","1.9","ND","ND","ND","ND","0","0"],
    [75442,"2018-12-14T05:00:00","ND","ND","ND","ND","4.6","2.0","ND","ND","ND","ND","0","0"],
    [75443,"2018-12-14T06:00:00","ND","ND","ND","ND","4.0","1.9","ND","ND","ND","ND","0","0.51"],
    [75444,"2018-12-14T07:00:00","ND","ND","ND","ND","4.2","1.7","ND","ND","ND","ND","81","0"],
    [75445,"2018-12-14T08:00:00","ND","ND","ND","ND","4.3","1.4","ND","ND","ND","ND","276","0.25"],
    [75446,"2018-12-14T09:00:00","ND","ND","ND","ND","7.7","1.6","ND","ND","ND","ND","453","0"],
    [75447,"2018-12-14T10:00:00","ND","ND","ND","ND","19.6","1.1","ND","ND","ND","ND","663","0"],
    [75448,"2018-12-14T11:00:00","ND","ND","ND","ND","30.4","1.3","ND","ND","ND","ND","628","0"],
    [75449,"2018-12-14T12:00:00","ND","ND","ND","ND","52.2","0.8","ND","ND","ND","ND","665","0"],
    [75450,"2018-12-14T13:00:00","ND","ND","ND","ND","75.9","1.0","ND","ND","ND","ND","666","0"],
    [75451,"2018-12-14T14:00:00","69.4","ND","ND","ND","65.2","0.8","ND","ND","ND","ND","410","0"],
    [75452,"2018-12-14T15:00:00","75.3","ND","ND","ND","16.3","0.6","ND","ND","ND","ND","180","0"],
    [75453,"2018-12-14T16:00:00","31.6","ND","ND","ND","9.8","1.1","ND","ND","ND","ND","399","0"],
    [75454,"2018-12-14T17:00:00","43.9","ND","ND","ND","11.6","1.1","ND","ND","ND","ND","334","0"],
    [75455,"2018-12-14T18:00:00","66.9","ND","ND","ND","4.9","1.5","ND","ND","ND","ND","42","0"],
    [75456,"2018-12-14T19:00:00","82.8","ND","ND","ND","4.5","0.7","ND","ND","ND","ND","0","0"],
    [75457,"2018-12-14T20:00:00","57.2","ND","ND","ND","4.2","0.4","ND","ND","ND","ND","0","0.1"],
    [75458,"2018-12-14T21:00:00","45.7","ND","ND","ND","4.2","0.6","ND","ND","ND","ND","0","0.2"],
    [75459,"2018-12-14T22:00:00","71.2","ND","ND","ND","4.5","0.4","ND","ND","ND","ND","0","0"],
    [75460,"2018-12-14T23:00:00","83.5","ND","ND","ND","4.6","0.7","ND","ND","ND","ND","0","0"],
    [75461,"2018-12-15T00:00:00","72.7","ND","ND","ND","5.3","3.9","ND","ND","ND","ND","0","0"],
    [75462,"2018-12-15T01:00:00","67","ND","ND","ND","4.8","3.8","ND","ND","ND","ND","0","0"],
    [75463,"2018-12-15T02:00:00","72.1","ND","ND","ND","4.5","2.5","ND","ND","ND","ND","0","0"],
    [75464,"2018-12-15T03:00:00","64.1","ND","ND","ND","4.3","2.1","ND","ND","ND","ND","0","0"],
    [75465,"2018-12-15T04:00:00","63.3","ND","ND","ND","4.7","4.2","ND","ND","ND","ND","0","0"],
    [75466,"2018-12-15T05:00:00","67.1","ND","ND","ND","5.2","5.1","ND","ND","ND","ND","0","0"],
    [75467,"2018-12-15T06:00:00","80.7","ND","ND","ND","5.3","5.7","ND","ND","ND","ND","0","0"],
    [75468,"2018-12-15T07:00:00","96.2","ND","ND","ND","4.7","4.7","ND","ND","ND","ND","39","0"],
    [75469,"2018-12-15T08:00:00","85","ND","ND","ND","5.1","5.3","ND","ND","ND","ND","148","0"],
    [75470,"2018-12-15T09:00:00","83.8","ND","ND","ND","7.7","5.2","ND","ND","ND","ND","516","0"],
    [75471,"2018-12-15T10:00:00","100.5","ND","ND","ND","11.8","3.1","ND","ND","ND","ND","665","0"],
    [75472,"2018-12-15T11:00:00","55.2","ND","ND","ND","34.7","2.0","ND","ND","ND","ND","664","0"],
    [75473,"2018-12-15T12:00:00","48.3","ND","ND","ND","58.8","1.1","ND","ND","ND","ND","665","0"],
    [75474,"2018-12-15T13:00:00","38.2","ND","ND","ND","80.2","1.2","ND","ND","ND","ND","665","0"],
    [75475,"2018-12-15T14:00:00","20.3","ND","ND","ND","79.7","0.6","ND","ND","ND","ND","585","0"],
    [75476,"2018-12-15T15:00:00","24.6","ND","ND","ND","74.3","0.9","ND","ND","ND","ND","657","0"],
    [75477,"2018-12-15T16:00:00","44.7","ND","ND","ND","75.0","0.8","ND","ND","ND","ND","449","0"],
    [75478,"2018-12-15T17:00:00","43.8","ND","ND","ND","38.3","0.7","ND","ND","ND","ND","243","0"],
    [75479,"2018-12-15T18:00:00","37.9","ND","ND","ND","27.5","0.7","ND","ND","ND","ND","79","0"],
    [75480,"2018-12-15T19:00:00","40.4","ND","ND","ND","19.3","0.1","ND","ND","ND","ND","0","0.1"],
    [75481,"2018-12-15T20:00:00","25.7","ND","ND","ND","10.9","0.4","ND","ND","ND","ND","0","0"],
    [75482,"2018-12-15T21:00:00","63.5","ND","ND","ND","4.7","2.8","ND","ND","ND","ND","0","0"],
    [75483,"2018-12-15T22:00:00","28.9","ND","ND","ND","5.0","2.7","ND","ND","ND","ND","0","0"],
    [75484,"2018-12-15T23:00:00","7.4","ND","ND","ND","4.5","1.4","ND","ND","ND","ND","0","0"],
    [75485,"2018-12-16T00:00:00","55.5","ND","ND","ND","4.8","2.9","ND","ND","ND","ND","0","0"],
    [75486,"2018-12-16T01:00:00","98.7","ND","ND","ND","4.2","1.7","ND","ND","ND","ND","0","0"],
    [75487,"2018-12-16T02:00:00","75.5","ND","ND","ND","4.4","1.6","ND","ND","ND","ND","0","0"],
    [75488,"2018-12-16T03:00:00","21.9","ND","ND","ND","4.3","1.0","ND","ND","ND","ND","0","0"],
    [75489,"2018-12-16T04:00:00","56.1","ND","ND","ND","4.3","1.9","ND","ND","ND","ND","0","0"],
    [75490,"2018-12-16T05:00:00","64.4","ND","ND","ND","4.6","1.8","ND","ND","ND","ND","0","0"],
    [75491,"2018-12-16T06:00:00","75.6","ND","ND","ND","4.7","2.5","ND","ND","ND","ND","0","0"],
    [75492,"2018-12-16T07:00:00","49","ND","ND","ND","4.5","1.6","ND","ND","ND","ND","60","0"],
    [75493,"2018-12-16T08:00:00","37.6","ND","ND","ND","7.1","3.2","ND","ND","ND","ND","363","0"],
    [75494,"2018-12-16T09:00:00","61","ND","ND","ND","20.0","2.7","ND","ND","ND","ND","629","0"],
    [75495,"2018-12-16T10:00:00","80.6","ND","ND","ND","43.2","2.0","ND","ND","ND","ND","651","0"],
    [75496,"2018-12-16T11:00:00","36.9","ND","ND","ND","65.1","1.3","ND","ND","ND","ND","666","0"],
    [75497,"2018-12-16T12:00:00","45.8","ND","ND","ND","85.2","0.8","ND","ND","ND","ND","665","0"],
    [75498,"2018-12-16T13:00:00","30.9","ND","ND","ND","91.7","0.7","ND","ND","ND","ND","665","0"],
    [75499,"2018-12-16T14:00:00","56.7","ND","ND","ND","86.7","0.8","ND","ND","ND","ND","649","0"],
    [75500,"2018-12-16T15:00:00","27.6","ND","ND","ND","52.7","0.4","ND","ND","ND","ND","628","0"],
    [75501,"2018-12-16T16:00:00","28.1","ND","ND","ND","39.5","0.6","ND","ND","ND","ND","667","0"],
    [75502,"2018-12-16T17:00:00","21.5","ND","ND","ND","37.4","0.3","ND","ND","ND","ND","521","0"],
    [75503,"2018-12-16T18:00:00","0.6","ND","ND","ND","35.5","0.2","ND","ND","ND","ND","87","0"],
    [75504,"2018-12-16T19:00:00","1.2","ND","ND","ND","29.2","0.3","ND","ND","ND","ND","0","0"],
    [75505,"2018-12-16T20:00:00","30.4","ND","ND","ND","6.9","1.3","ND","ND","ND","ND","0","0"],
    [75506,"2018-12-16T21:00:00","7.2","ND","ND","ND","5.3","2.2","ND","ND","ND","ND","0","0"],
    [75507,"2018-12-16T22:00:00","27.9","ND","ND","ND","4.7","3.5","ND","ND","ND","ND","0","0"],
    [75508,"2018-12-16T23:00:00","25.6","ND","ND","ND","4.5","2.5","ND","ND","ND","ND","0","0"],
    [75509,"2018-12-17T00:00:00","39.1","ND","ND","ND","4.7","1.4","ND","ND","ND","ND","0","0"],
    [75510,"2018-12-17T01:00:00","63.6","ND","ND","ND","4.9","0.9","ND","ND","ND","ND","0","0"],
    [75511,"2018-12-17T02:00:00","27.7","ND","ND","ND","4.5","1.0","ND","ND","ND","ND","0","0"],
    [75512,"2018-12-17T03:00:00","30","ND","ND","ND","4.6","2.7","ND","ND","ND","ND","0","0"],
    [75513,"2018-12-17T04:00:00","42.6","ND","ND","ND","4.7","1.8","ND","ND","ND","ND","0","0"],
    [75514,"2018-12-17T05:00:00","82.4","ND","ND","ND","5.2","3.1","ND","ND","ND","ND","0","0"],
    [75515,"2018-12-17T06:00:00","71.4","ND","ND","ND","5.3","3.5","ND","ND","ND","ND","0","0"],
    [75516,"2018-12-17T07:00:00","66.1","ND","ND","ND","4.5","0.9","ND","ND","ND","ND","64","0"],
    [75517,"2018-12-17T08:00:00","65.8","ND","ND","ND","5.8","2.5","ND","ND","ND","ND","283","0"],
    [75518,"2018-12-17T09:00:00","88.1","ND","ND","ND","14.4","1.5","ND","ND","ND","ND","615","0"],
    [75519,"2018-12-17T10:00:00","82","ND","ND","ND","36.5","0.8","ND","ND","ND","ND","666","0"],
    [75520,"2018-12-17T11:00:00","48.2","ND","ND","ND","63.3","1.1","ND","ND","ND","ND","666","0"],
    [75521,"2018-12-17T12:00:00","41.6","ND","ND","ND","77.5","0.5","ND","ND","ND","ND","664","0"],
    [75522,"2018-12-17T13:00:00","38.6","ND","ND","ND","100.6","1.1","ND","ND","ND","ND","660","0"],
    [75523,"2018-12-17T14:00:00","38.4","ND","ND","ND","107.7","0.7","ND","ND","ND","ND","667","0"],
    [75524,"2018-12-17T15:00:00","41.5","ND","ND","ND","88.1","0.9","ND","ND","ND","ND","468","0"],
    [75525,"2018-12-17T16:00:00","ND","ND","ND","ND","38.8","0.3","ND","ND","ND","ND","639","0"],
    [75526,"2018-12-17T17:00:00","20.3","ND","ND","ND","41.4","0.5","ND","ND","ND","ND","576","0"],
    [75527,"2018-12-17T18:00:00","13.7","ND","ND","ND","40.0","0.6","ND","ND","ND","ND","92","0"],
    [75528,"2018-12-17T19:00:00","10.1","ND","ND","ND","28.3","0.1","ND","ND","ND","ND","0","0"],
    [75529,"2018-12-17T20:00:00","24.8","ND","ND","ND","4.8","0.5","ND","ND","ND","ND","0","0"],
    [75530,"2018-12-17T21:00:00","36.9","ND","ND","ND","4.8","1.9","ND","ND","ND","ND","0","0"],
    [75531,"2018-12-17T22:00:00","40.3","ND","ND","ND","4.4","0.7","ND","ND","ND","ND","0","0"],
    [75532,"2018-12-17T23:00:00","57.1","ND","ND","ND","5.0","0.8","ND","ND","ND","ND","0","0"],
    [75533,"2018-12-18T00:00:00","43.4","ND","ND","ND","5.4","0.5","ND","ND","ND","ND","0","0"],
    [75534,"2018-12-18T01:00:00","65.5","ND","ND","ND","3.9","1.2","ND","ND","ND","ND","0","0"],
    [75535,"2018-12-18T02:00:00","12.2","ND","ND","ND","4.0","1.3","ND","ND","ND","ND","0","0"],
    [75536,"2018-12-18T03:00:00","28.6","ND","ND","ND","4.0","1.8","ND","ND","ND","ND","0","0"],
    [75537,"2018-12-18T04:00:00","56.3","ND","ND","ND","4.0","1.8","ND","ND","ND","ND","0","0"],
    [75538,"2018-12-18T05:00:00","47.4","ND","ND","ND","4.0","1.0","ND","ND","ND","ND","0","0"],
    [75539,"2018-12-18T06:00:00","40.9","ND","ND","ND","4.0","1.2","ND","ND","ND","ND","0","0"],
    [75540,"2018-12-18T07:00:00","45.5","ND","ND","ND","4.4","1.0","ND","ND","ND","ND","85","0"],
    [75541,"2018-12-18T08:00:00","65.8","ND","ND","ND","5.1","2.0","ND","ND","ND","ND","318","0"],
    [75542,"2018-12-18T09:00:00","95.9","ND","ND","ND","8.7","1.3","ND","ND","ND","ND","531","0"],
    [75543,"2018-12-18T10:00:00","93.7","ND","ND","ND","25.5","1.2","ND","ND","ND","ND","665","0"],
    [75544,"2018-12-18T11:00:00","81.6","ND","ND","ND","61.2","1.1","ND","ND","ND","ND","660","0"],
    [75545,"2018-12-18T12:00:00","58.8","ND","ND","ND","82.8","1.0","ND","ND","ND","ND","665","0"],
    [75546,"2018-12-18T13:00:00","35.8","ND","ND","ND","99.0","1.0","ND","ND","ND","ND","621","0"],
    [75547,"2018-12-18T14:00:00","42.3","ND","ND","ND","94.0","0.4","ND","ND","ND","ND","584","0"],
    [75548,"2018-12-18T15:00:00","47.7","ND","ND","ND","53.4","0.7","ND","ND","ND","ND","666","0"],
    [75549,"2018-12-18T16:00:00","12.5","ND","ND","ND","34.4","0.3","ND","ND","ND","ND","666","0"],
    [75550,"2018-12-18T17:00:00","0.4","ND","ND","ND","29.8","0.5","ND","ND","ND","ND","523","0"],
    [75551,"2018-12-18T18:00:00","ND","ND","ND","ND","23.8","0.1","ND","ND","ND","ND","100","0"],
    [75552,"2018-12-18T19:00:00","6.7","ND","ND","ND","11.5","0.6","ND","ND","ND","ND","0","0"],
    [75553,"2018-12-18T20:00:00","35.3","ND","ND","ND","4.4","0.5","ND","ND","ND","ND","0","0"],
    [75554,"2018-12-18T21:00:00","54.9","ND","ND","ND","4.4","1.8","ND","ND","ND","ND","0","0"],
    [75555,"2018-12-18T22:00:00","35.8","ND","ND","ND","4.7","1.6","ND","ND","ND","ND","0","0"],
    [75556,"2018-12-18T23:00:00","62.8","ND","ND","ND","4.6","2.1","ND","ND","ND","ND","0","0"],
    [75557,"2018-12-19T00:00:00","41.3","ND","ND","ND","4.7","2.1","ND","ND","ND","ND","0","0"],
    [75558,"2018-12-19T01:00:00","50.2","ND","ND","ND","4.6","1.8","ND","ND","ND","ND","0","0"],
    [75559,"2018-12-19T02:00:00","62.9","ND","ND","ND","4.8","1.5","ND","ND","ND","ND","0","0"],
    [75560,"2018-12-19T03:00:00","96.3","ND","ND","ND","5.2","1.9","ND","ND","ND","ND","0","0"],
    [75561,"2018-12-19T04:00:00","78.5","ND","ND","ND","5.0","1.2","ND","ND","ND","ND","0","0"],
    [75562,"2018-12-19T05:00:00","73","ND","ND","ND","4.8","1.7","ND","ND","ND","ND","0","0"],
    [75563,"2018-12-19T06:00:00","45.8","ND","ND","ND","4.4","1.7","ND","ND","ND","ND","0","0"],
    [75564,"2018-12-19T07:00:00","52","ND","ND","ND","4.5","0.9","ND","ND","ND","ND","91","0"],
    [75565,"2018-12-19T08:00:00","81","ND","ND","ND","5.6","1.9","ND","ND","ND","ND","479","0"],
    [75566,"2018-12-19T09:00:00","52.8","ND","ND","ND","10.0","1.4","ND","ND","ND","ND","502","0"],
    [75567,"2018-12-19T10:00:00","36.9","ND","ND","ND","27.6","1.3","ND","ND","ND","ND","663","0"],
    [75568,"2018-12-19T11:00:00","55.7","ND","ND","ND","ND","1.7","ND","ND","ND","ND","665","0"],
    [75569,"2018-12-19T12:00:00","84.3","ND","ND","ND","231.4","1.2","ND","ND","ND","ND","636","0"],
    [75570,"2018-12-19T13:00:00","71.9","ND","ND","ND","81.8","1.0","ND","ND","ND","ND","659","0"],
    [75571,"2018-12-19T14:00:00","39.6","ND","ND","ND","52.1","0.6","ND","ND","ND","ND","666","0"],
    [75572,"2018-12-19T15:00:00","36.9","ND","ND","ND","34.5","0.2","ND","ND","ND","ND","383","0"],
    [75573,"2018-12-19T16:00:00","28.6","ND","ND","ND","29.3","0.4","ND","ND","ND","ND","256","0"],
    [75574,"2018-12-19T17:00:00","29.4","ND","ND","ND","37.9","0.6","ND","ND","ND","ND","296","0"],
    [75575,"2018-12-19T18:00:00","36.4","ND","ND","ND","30.4","0.5","ND","ND","ND","ND","64","0"],
    [75576,"2018-12-19T19:00:00","24.9","ND","ND","ND","11.6","0.9","ND","ND","ND","ND","0","0"],
    [75577,"2018-12-19T20:00:00","50","ND","ND","ND","5.9","0.8","ND","ND","ND","ND","0","0.1"],
    [75578,"2018-12-19T21:00:00","70.2","ND","ND","ND","5.6","1.4","ND","ND","ND","ND","0","0"],
    [75579,"2018-12-19T22:00:00","109.5","ND","ND","ND","4.0","2.0","ND","ND","ND","ND","0","0.5"],
    [75580,"2018-12-19T23:00:00","31.4","ND","ND","ND","4.5","1.1","ND","ND","ND","ND","0","0"],
    [75581,"2018-12-20T00:00:00","16.4","ND","ND","ND","4.5","1.1","ND","ND","ND","ND","0","0"],
    [75582,"2018-12-20T01:00:00","50.3","ND","ND","ND","3.7","2.1","ND","ND","ND","ND","0","0"],
    [75583,"2018-12-20T02:00:00","47.4","ND","ND","ND","3.8","2.6","ND","ND","ND","ND","0","0"],
    [75584,"2018-12-20T03:00:00","43.9","ND","ND","ND","4.9","2.1","ND","ND","ND","ND","0","0"],
    [75585,"2018-12-20T04:00:00","40.2","ND","ND","ND","6.6","1.7","ND","ND","ND","ND","0","0"],
    [75586,"2018-12-20T05:00:00","41.3","ND","ND","ND","4.6","1.8","ND","ND","ND","ND","0","0"],
    [75587,"2018-12-20T06:00:00","77.8","ND","ND","ND","4.0","1.4","ND","ND","ND","ND","0","0"],
    [75588,"2018-12-20T07:00:00","35.7","ND","ND","ND","4.9","1.2","ND","ND","ND","ND","43","0"],
    [75589,"2018-12-20T08:00:00","85.1","ND","ND","ND","5.4","2.4","ND","ND","ND","ND","197","0"],
    [75590,"2018-12-20T09:00:00","107.1","ND","ND","ND","10.2","2.1","ND","ND","ND","ND","611","0"],
    [75591,"2018-12-20T10:00:00","62.9","ND","ND","ND","26.9","1.3","ND","ND","ND","ND","665","0"],
    [75592,"2018-12-20T11:00:00","51.5","ND","ND","ND","51.9","1.3","ND","ND","ND","ND","527","0"],
    [75593,"2018-12-20T12:00:00","56.4","ND","ND","ND","62.0","1.7","ND","ND","ND","ND","641","0"],
    [75594,"2018-12-20T13:00:00","35.9","ND","ND","ND","63.7","0.5","ND","ND","ND","ND","662","0"],
    [75595,"2018-12-20T14:00:00","29.6","ND","ND","ND","59.5","0.5","ND","ND","ND","ND","572","0"],
    [75596,"2018-12-20T15:00:00","23.8","ND","ND","ND","27.8","0.5","ND","ND","ND","ND","665","0"],
    [75597,"2018-12-20T16:00:00","ND","ND","ND","ND","ND","ND","ND","ND","ND","ND","ND","ND"],
    [75598,"2018-12-20T17:00:00","ND","ND","ND","ND","ND","ND","ND","ND","ND","ND","ND","ND"],
    [75599,"2018-12-20T18:00:00","ND","ND","ND","ND","ND","ND","ND","ND","ND","ND","ND","ND"],
    [75600,"2018-12-20T19:00:00","ND","ND","ND","ND","10.2","0.5","ND","ND","ND","ND","0","0"],
    [75601,"2018-12-20T20:00:00","ND","ND","ND","ND","3.7","0.7","ND","ND","ND","ND","0","0"],
    [75602,"2018-12-20T21:00:00","169.3","ND","ND","ND","7.1","0.6","ND","ND","ND","ND","0","0.1"],
    [75603,"2018-12-20T22:00:00","93.8","ND","ND","ND","11.2","1.0","ND","ND","ND","ND","0","0"],
    [75604,"2018-12-20T23:00:00","52.3","ND","ND","ND","7.5","0.6","ND","ND","ND","ND","0","0"],
    [75605,"2018-12-21T00:00:00","33.3","ND","ND","ND","8.5","0.8","ND","ND","ND","ND","0","0"],
    [75606,"2018-12-21T01:00:00","7.3","ND","ND","ND","7.1","0.8","ND","ND","ND","ND","0","0"],
    [75607,"2018-12-21T02:00:00","19.5","ND","ND","ND","6.1","1.3","ND","ND","ND","ND","0","0"],
    [75608,"2018-12-21T03:00:00","15.7","ND","ND","ND","8.2","0.6","ND","ND","ND","ND","0","0"],
    [75609,"2018-12-21T04:00:00","85.9","ND","ND","ND","5.5","1.8","ND","ND","ND","ND","0","0"],
    [75610,"2018-12-21T05:00:00","66.5","ND","ND","ND","4.8","1.2","ND","ND","ND","ND","0","0"],
    [75611,"2018-12-21T06:00:00","62.3","ND","ND","ND","4.6","1.5","ND","ND","ND","ND","0","0"],
    [75612,"2018-12-21T07:00:00","40.3","ND","ND","ND","4.9","1.3","ND","ND","ND","ND","42","0"],
    [75613,"2018-12-21T08:00:00","55.5","ND","ND","ND","5.2","1.9","ND","ND","ND","ND","153","0"],
    [75614,"2018-12-21T09:00:00","57.7","ND","ND","ND","11.4","2.0","ND","ND","ND","ND","587","0"],
    [75615,"2018-12-21T10:00:00","57.5","ND","ND","ND","29.7","1.3","ND","ND","ND","ND","665","0"],
    [75616,"2018-12-21T11:00:00","32.9","ND","ND","ND","40.7","0.9","ND","ND","ND","ND","594","0"],
    [75617,"2018-12-21T12:00:00","25.2","ND","ND","ND","52.7","0.5","ND","ND","ND","ND","666","0"],
    [75618,"2018-12-21T13:00:00","10.2","ND","ND","ND","51.0","0.5","ND","ND","ND","ND","610","0"],
    [75619,"2018-12-21T14:00:00","10.8","ND","ND","ND","37.2","0.4","ND","ND","ND","ND","583","0"],
    [75620,"2018-12-21T15:00:00","22.6","ND","ND","ND","34.5","0.3","ND","ND","ND","ND","665","0"],
    [75621,"2018-12-21T16:00:00","35.1","ND","ND","ND","32.0","0.1","ND","ND","ND","ND","525","0"],
    [75622,"2018-12-21T17:00:00","23.6","ND","ND","ND","24.2","0.1","ND","ND","ND","ND","184","0"],
    [75623,"2018-12-21T18:00:00","3.2","ND","ND","ND","17.6","0.4","ND","ND","ND","ND","83","0"],
    [75624,"2018-12-21T19:00:00","1.1","ND","ND","ND","17.5","0.0","ND","ND","ND","ND","0","0"],
    [75625,"2018-12-21T20:00:00","13.4","ND","ND","ND","5.1","1.5","ND","ND","ND","ND","0","0"],
    [75626,"2018-12-21T21:00:00","69.4","ND","ND","ND","11.4","1.3","ND","ND","ND","ND","0","0"],
    [75627,"2018-12-21T22:00:00","42.6","ND","ND","ND","6.7","1.4","ND","ND","ND","ND","0","0"],
    [75628,"2018-12-21T23:00:00","46.2","ND","ND","ND","5.5","1.7","ND","ND","ND","ND","0","0"],
    [75629,"2018-12-22T00:00:00","49.2","ND","ND","ND","4.9","1.8","ND","ND","ND","ND","0","0"],
    [75630,"2018-12-22T01:00:00","75.7","ND","ND","ND","3.6","2.7","ND","ND","ND","ND","0","0"],
    [75631,"2018-12-22T02:00:00","78.8","ND","ND","ND","3.1","3.8","ND","ND","ND","ND","0","0"],
    [75632,"2018-12-22T03:00:00","66.2","ND","ND","ND","3.1","2.1","ND","ND","ND","ND","0","0"],
    [75633,"2018-12-22T04:00:00","56.6","ND","ND","ND","2.8","3.0","ND","ND","ND","ND","0","0"],
    [75634,"2018-12-22T05:00:00","47.9","ND","ND","ND","3.1","2.9","ND","ND","ND","ND","0","0"],
    [75635,"2018-12-22T06:00:00","57","ND","ND","ND","4.0","4.7","ND","ND","ND","ND","0","0"],
    [75636,"2018-12-22T07:00:00","62.8","ND","ND","ND","4.6","5.9","ND","ND","ND","ND","30","0"],
    [75637,"2018-12-22T08:00:00","106.5","ND","ND","ND","5.7","4.3","ND","ND","ND","ND","144","0"],
    [75638,"2018-12-22T09:00:00","101.3","ND","ND","ND","6.8","3.8","ND","ND","ND","ND","293","0"],
    [75639,"2018-12-22T10:00:00","89.3","ND","ND","ND","9.7","3.2","ND","ND","ND","ND","592","0"],
    [75640,"2018-12-22T11:00:00","83.6","ND","ND","ND","23.1","3.2","ND","ND","ND","ND","665","0"],
    [75641,"2018-12-22T12:00:00","78.9","ND","ND","ND","62.5","1.1","ND","ND","ND","ND","665","0"],
    [75642,"2018-12-22T13:00:00","38.6","ND","ND","ND","86.1","1.2","ND","ND","ND","ND","666","0"],
    [75643,"2018-12-22T14:00:00","35","ND","ND","ND","89.6","0.8","ND","ND","ND","ND","666","0"],
    [75644,"2018-12-22T15:00:00","23.1","ND","ND","ND","98.9","1.3","ND","ND","ND","ND","661","0"],
    [75645,"2018-12-22T16:00:00","37.6","ND","ND","ND","91.3","0.9","ND","ND","ND","ND","575","0"],
    [75646,"2018-12-22T17:00:00","48.6","ND","ND","ND","65.8","1.3","ND","ND","ND","ND","210","0"],
    [75647,"2018-12-22T18:00:00","26","ND","ND","ND","30.3","1.0","ND","ND","ND","ND","111","0"],
    [75648,"2018-12-22T19:00:00","23.7","ND","ND","ND","9.3","0.6","ND","ND","ND","ND","0","0"],
    [75649,"2018-12-22T20:00:00","23.1","ND","ND","ND","3.1","0.4","ND","ND","ND","ND","0","0"],
    [75650,"2018-12-22T21:00:00","47.4","ND","ND","ND","2.7","0.3","ND","ND","ND","ND","0","0"],
    [75651,"2018-12-22T22:00:00","46.5","ND","ND","ND","2.3","1.2","ND","ND","ND","ND","0","0"],
    [75652,"2018-12-22T23:00:00","51.8","ND","ND","ND","2.9","1.5","ND","ND","ND","ND","0","0"],
    [75653,"2018-12-23T00:00:00","54.6","ND","ND","ND","2.6","1.0","ND","ND","ND","ND","0","0"],
    [75654,"2018-12-23T01:00:00","55.9","ND","ND","ND","2.6","3.2","ND","ND","ND","ND","0","0"],
    [75655,"2018-12-23T02:00:00","54.6","ND","ND","ND","2.2","1.1","ND","ND","ND","ND","0","0"],
    [75656,"2018-12-23T03:00:00","43.7","ND","ND","ND","2.3","0.9","ND","ND","ND","ND","0","0"],
    [75657,"2018-12-23T04:00:00","44","ND","ND","ND","2.4","0.6","ND","ND","ND","ND","0","0"],
    [75658,"2018-12-23T05:00:00","32.9","ND","ND","ND","2.0","1.6","ND","ND","ND","ND","0","0"],
    [75659,"2018-12-23T06:00:00","42","ND","ND","ND","3.0","1.2","ND","ND","ND","ND","0","0"],
    [75660,"2018-12-23T07:00:00","45.1","ND","ND","ND","3.4","2.7","ND","ND","ND","ND","87","0"],
    [75661,"2018-12-23T08:00:00","64.3","ND","ND","ND","5.5","3.1","ND","ND","ND","ND","385","0"],
    [75662,"2018-12-23T09:00:00","81.1","ND","ND","ND","9.6","4.1","ND","ND","ND","ND","643","0"],
    [75663,"2018-12-23T10:00:00","107.1","ND","ND","ND","31.5","3.1","ND","ND","ND","ND","665","0"],
    [75664,"2018-12-23T11:00:00","73.7","ND","ND","ND","59.1","2.5","ND","ND","ND","ND","666","0"],
    [75665,"2018-12-23T12:00:00","71.6","ND","ND","ND","87.1","1.5","ND","ND","ND","ND","666","0"],
    [75666,"2018-12-23T13:00:00","30.8","ND","ND","ND","111.6","1.2","ND","ND","ND","ND","666","0"],
    [75667,"2018-12-23T14:00:00","10.1","ND","ND","ND","98.3","0.9","ND","ND","ND","ND","660","0"],
    [75668,"2018-12-23T15:00:00","26","ND","ND","ND","72.1","0.7","ND","ND","ND","ND","579","0"],
    [75669,"2018-12-23T16:00:00","15.3","ND","ND","ND","49.3","0.6","ND","ND","ND","ND","630","0"],
    [75670,"2018-12-23T17:00:00","22","ND","ND","ND","48.2","0.3","ND","ND","ND","ND","476","0"],
    [75671,"2018-12-23T18:00:00","9.4","ND","ND","ND","32.6","1.1","ND","ND","ND","ND","64","0"],
    [75672,"2018-12-23T19:00:00","1.7","ND","ND","ND","20.7","0.5","ND","ND","ND","ND","0","0"],
    [75673,"2018-12-23T20:00:00","37","ND","ND","ND","2.5","0.2","ND","ND","ND","ND","0","0"],
    [75674,"2018-12-23T21:00:00","56","ND","ND","ND","2.3","2.7","ND","ND","ND","ND","0","0"],
    [75675,"2018-12-23T22:00:00","35.4","ND","ND","ND","3.5","6.4","ND","ND","ND","ND","0","0"],
    [75676,"2018-12-23T23:00:00","20.9","ND","ND","ND","3.2","3.1","ND","ND","ND","ND","0","0"],
    [75677,"2018-12-24T00:00:00","51.4","ND","ND","ND","3.1","3.7","ND","ND","ND","ND","0","0"],
    [75678,"2018-12-24T01:00:00","35.8","ND","ND","ND","3.5","2.6","ND","ND","ND","ND","0","0"],
    [75679,"2018-12-24T02:00:00","38.2","ND","ND","ND","3.8","2.6","ND","ND","ND","ND","0","0"],
    [75680,"2018-12-24T03:00:00","50.6","ND","ND","ND","4.1","2.0","ND","ND","ND","ND","0","0"],
    [75681,"2018-12-24T04:00:00","47.7","ND","ND","ND","3.8","1.7","ND","ND","ND","ND","0","0"],
    [75682,"2018-12-24T05:00:00","54.5","ND","ND","ND","3.6","2.5","ND","ND","ND","ND","0","0"],
    [75683,"2018-12-24T06:00:00","73.2","ND","ND","ND","3.3","1.8","ND","ND","ND","ND","0","0"],
    [75684,"2018-12-24T07:00:00","77.6","ND","ND","ND","4.0","2.7","ND","ND","ND","ND","49","0"],
    [75685,"2018-12-24T08:00:00","78.1","ND","ND","ND","5.6","4.5","ND","ND","ND","ND","299","0"],
    [75686,"2018-12-24T09:00:00","49.8","ND","ND","ND","11.4","3.1","ND","ND","ND","ND","598","0"],
    [75687,"2018-12-24T10:00:00","56.5","ND","ND","ND","29.8","3.8","ND","ND","ND","ND","662","0"],
    [75688,"2018-12-24T11:00:00","93","ND","ND","ND","64.4","1.8","ND","ND","ND","ND","665","0"],
    [75689,"2018-12-24T12:00:00","51.6","ND","ND","ND","99.9","1.3","ND","ND","ND","ND","666","0"],
    [75690,"2018-12-24T13:00:00","41.3","ND","ND","ND","112.4","1.2","ND","ND","ND","ND","553","0"],
    [75691,"2018-12-24T14:00:00","61.5","ND","ND","ND","91.1","0.7","ND","ND","ND","ND","446","0"],
    [75692,"2018-12-24T15:00:00","53.8","ND","ND","ND","88.1","0.9","ND","ND","ND","ND","611","0"],
    [75693,"2018-12-24T16:00:00","23.1","ND","ND","ND","65.2","0.6","ND","ND","ND","ND","357","0"],
    [75694,"2018-12-24T17:00:00","4","ND","ND","ND","50.0","0.9","ND","ND","ND","ND","255","0"],
    [75695,"2018-12-24T18:00:00","33","ND","ND","ND","34.1","0.8","ND","ND","ND","ND","78","0"],
    [75696,"2018-12-24T19:00:00","27.3","ND","ND","ND","24.2","0.4","ND","ND","ND","ND","0","0"],
    [75697,"2018-12-24T20:00:00","19.2","ND","ND","ND","8.8","0.8","ND","ND","ND","ND","0","0"],
    [75698,"2018-12-24T21:00:00","22.4","ND","ND","ND","5.8","0.5","ND","ND","ND","ND","0","0"],
    [75699,"2018-12-24T22:00:00","59.5","ND","ND","ND","4.6","2.7","ND","ND","ND","ND","0","0"],
    [75700,"2018-12-24T23:00:00","40.7","ND","ND","ND","4.6","3.8","ND","ND","ND","ND","0","0"],
    [75701,"2018-12-25T00:00:00","38.9","ND","ND","ND","5.2","3.1","ND","ND","ND","ND","0","0"],
    [75702,"2018-12-25T01:00:00","34.2","ND","ND","ND","4.7","2.1","ND","ND","ND","ND","0","0"],
    [75703,"2018-12-25T02:00:00","54.7","ND","ND","ND","5.1","1.7","ND","ND","ND","ND","0","0"],
    [75704,"2018-12-25T03:00:00","57.9","ND","ND","ND","5.8","1.2","ND","ND","ND","ND","0","0"],
    [75705,"2018-12-25T04:00:00","50.3","ND","ND","ND","4.7","2.3","ND","ND","ND","ND","0","0"],
    [75706,"2018-12-25T05:00:00","43.5","ND","ND","ND","4.5","1.7","ND","ND","ND","ND","0","0"],
    [75707,"2018-12-25T06:00:00","38.1","ND","ND","ND","4.5","1.7","ND","ND","ND","ND","0","0"],
    [75708,"2018-12-25T07:00:00","34.5","ND","ND","ND","5.1","1.8","ND","ND","ND","ND","99","0"],
    [75709,"2018-12-25T08:00:00","37.7","ND","ND","ND","7.7","1.9","ND","ND","ND","ND","335","0"],
    [75710,"2018-12-25T09:00:00","67.1","ND","ND","ND","17.0","1.2","ND","ND","ND","ND","642","0"],
    [75711,"2018-12-25T10:00:00","47.2","ND","ND","ND","36.1","0.8","ND","ND","ND","ND","654","0"],
    [75712,"2018-12-25T11:00:00","47.9","ND","ND","ND","54.9","0.6","ND","ND","ND","ND","666","0"],
    [75713,"2018-12-25T12:00:00","39","ND","ND","ND","70.1","0.8","ND","ND","ND","ND","666","0"],
    [75714,"2018-12-25T13:00:00","34.6","ND","ND","ND","84.4","0.8","ND","ND","ND","ND","666","0"],
    [75715,"2018-12-25T14:00:00","16","ND","ND","ND","90.9","1.0","ND","ND","ND","ND","666","0"],
    [75716,"2018-12-25T15:00:00","24.7","ND","ND","ND","60.1","0.3","ND","ND","ND","ND","664","0"],
    [75717,"2018-12-25T16:00:00","10.5","ND","ND","ND","40.4","0.6","ND","ND","ND","ND","625","0"],
    [75718,"2018-12-25T17:00:00","0.3","ND","ND","ND","42.8","0.2","ND","ND","ND","ND","560","0"],
    [75719,"2018-12-25T18:00:00","4.2","ND","ND","ND","38.0","0.5","ND","ND","ND","ND","123","0"],
    [75720,"2018-12-25T19:00:00","3.8","ND","ND","ND","30.8","0.3","ND","ND","ND","ND","0","0"],
    [75721,"2018-12-25T20:00:00","4.3","ND","ND","ND","10.7","0.3","ND","ND","ND","ND","0","0"],
    [75722,"2018-12-25T21:00:00","21.8","ND","ND","ND","5.6","0.7","ND","ND","ND","ND","0","0"],
    [75723,"2018-12-25T22:00:00","21.4","ND","ND","ND","4.5","3.2","ND","ND","ND","ND","0","0"],
    [75724,"2018-12-25T23:00:00","24.5","ND","ND","ND","4.9","3.4","ND","ND","ND","ND","0","0"],
    [75725,"2018-12-26T00:00:00","18.4","ND","ND","ND","4.8","1.5","ND","ND","ND","ND","0","0"],
    [75726,"2018-12-26T01:00:00","37.9","ND","ND","ND","4.5","1.5","ND","ND","ND","ND","0","0"],
    [75727,"2018-12-26T02:00:00","37.7","ND","ND","ND","4.6","2.0","ND","ND","ND","ND","0","0"],
    [75728,"2018-12-26T03:00:00","16.4","ND","ND","ND","4.5","2.4","ND","ND","ND","ND","0","0"],
    [75729,"2018-12-26T04:00:00","25.3","ND","ND","ND","3.8","2.1","ND","ND","ND","ND","0","0"],
    [75730,"2018-12-26T05:00:00","34.2","ND","ND","ND","4.1","2.2","ND","ND","ND","ND","0","0"],
    [75731,"2018-12-26T06:00:00","37.3","ND","ND","ND","4.1","3.2","ND","ND","ND","ND","0","0"],
    [75732,"2018-12-26T07:00:00","64.5","ND","ND","ND","4.4","3.5","ND","ND","ND","ND","114","0"],
    [75733,"2018-12-26T08:00:00","79.7","ND","ND","ND","5.6","2.0","ND","ND","ND","ND","505","0"],
    [75734,"2018-12-26T09:00:00","104.5","ND","ND","ND","11.7","2.0","ND","ND","ND","ND","665","0"],
    [75735,"2018-12-26T10:00:00","69.9","ND","ND","ND","28.1","1.7","ND","ND","ND","ND","665","0.3"],
    [75736,"2018-12-26T11:00:00","31.4","ND","ND","ND","47.6","1.0","ND","ND","ND","ND","666","0"],
    [75737,"2018-12-26T12:00:00","47.6","ND","ND","ND","66.9","0.8","ND","ND","ND","ND","666","0"],
    [75738,"2018-12-26T13:00:00","46.9","ND","ND","ND","84.1","1.2","ND","ND","ND","ND","666","0"],
    [75739,"2018-12-26T14:00:00","43.4","ND","ND","ND","86.5","0.9","ND","ND","ND","ND","666","0"],
    [75740,"2018-12-26T15:00:00","43.6","ND","ND","ND","78.9","0.7","ND","ND","ND","ND","646","0"],
    [75741,"2018-12-26T16:00:00","31.1","ND","ND","ND","34.1","0.5","ND","ND","ND","ND","462","0"],
    [75742,"2018-12-26T17:00:00","10","ND","ND","ND","32.5","0.4","ND","ND","ND","ND","443","0"],
    [75743,"2018-12-26T18:00:00","14.7","ND","ND","ND","27.0","0.3","ND","ND","ND","ND","91","0"],
    [75744,"2018-12-26T19:00:00","24.9","ND","ND","ND","20.3","0.2","ND","ND","ND","ND","0","0"],
    [75745,"2018-12-26T20:00:00","39","ND","ND","ND","13.7","0.7","ND","ND","ND","ND","0","0"],
    [75746,"2018-12-26T21:00:00","36.9","ND","ND","ND","5.3","0.5","ND","ND","ND","ND","0","0"],
    [75747,"2018-12-26T22:00:00","50.1","ND","ND","ND","4.9","4.4","ND","ND","ND","ND","0","0"],
    [75748,"2018-12-26T23:00:00","25.8","ND","ND","ND","4.6","5.1","ND","ND","ND","ND","0","0"],
    [75749,"2018-12-27T00:00:00","27.5","ND","ND","ND","4.5","1.7","ND","ND","ND","ND","0","0"],
    [75750,"2018-12-27T01:00:00","25.1","ND","ND","ND","4.5","2.2","ND","ND","ND","ND","0","0"],
    [75751,"2018-12-27T02:00:00","5.3","ND","ND","ND","4.2","3.4","ND","ND","ND","ND","0","0"],
    [75752,"2018-12-27T03:00:00","33","ND","ND","ND","4.4","3.2","ND","ND","ND","ND","0","0"],
    [75753,"2018-12-27T04:00:00","66","ND","ND","ND","4.4","2.6","ND","ND","ND","ND","0","0"],
    [75754,"2018-12-27T05:00:00","57.7","ND","ND","ND","4.2","2.3","ND","ND","ND","ND","0","0"],
    [75755,"2018-12-27T06:00:00","50","ND","ND","ND","3.6","1.2","ND","ND","ND","ND","0","0"],
    [75756,"2018-12-27T07:00:00","57.3","ND","ND","ND","3.8","1.7","ND","ND","ND","ND","65","0"],
    [75757,"2018-12-27T08:00:00","93.2","ND","ND","ND","5.0","3.5","ND","ND","ND","ND","380","0"],
    [75758,"2018-12-27T09:00:00","98.2","ND","ND","ND","9.7","2.5","ND","ND","ND","ND","643","0"],
    [75759,"2018-12-27T10:00:00","87.6","ND","ND","ND","28.2","2.1","ND","ND","ND","ND","665","0"],
    [75760,"2018-12-27T11:00:00","67.1","ND","ND","ND","50.6","1.3","ND","ND","ND","ND","666","0"],
    [75761,"2018-12-27T12:00:00","62","ND","ND","ND","67.3","2.0","ND","ND","ND","ND","667","0"],
    [75762,"2018-12-27T13:00:00","60.2","ND","ND","ND","75.5","1.4","ND","ND","ND","ND","666","0"],
    [75763,"2018-12-27T14:00:00","49.7","ND","ND","ND","71.7","0.6","ND","ND","ND","ND","664","0"],
    [75764,"2018-12-27T15:00:00","44.7","ND","ND","ND","35.3","0.7","ND","ND","ND","ND","666","0"],
    [75765,"2018-12-27T16:00:00","11.2","ND","ND","ND","28.2","0.5","ND","ND","ND","ND","663","0"],
    [75766,"2018-12-27T17:00:00","10.7","ND","ND","ND","27.2","0.3","ND","ND","ND","ND","387","0"],
    [75767,"2018-12-27T18:00:00","20.7","ND","ND","ND","22.5","0.2","ND","ND","ND","ND","78","0"],
    [75768,"2018-12-27T19:00:00","2.2","ND","ND","ND","18.0","0.7","ND","ND","ND","ND","0","0"],
    [75769,"2018-12-27T20:00:00","15.2","ND","ND","ND","9.2","0.4","ND","ND","ND","ND","0","0"],
    [75770,"2018-12-27T21:00:00","77.7","ND","ND","ND","4.5","1.2","ND","ND","ND","ND","0","0"],
    [75771,"2018-12-27T22:00:00","70.7","ND","ND","ND","4.2","2.2","ND","ND","ND","ND","0","0"],
    [75772,"2018-12-27T23:00:00","43.9","ND","ND","ND","4.1","1.9","ND","ND","ND","ND","0","0"],
    [75773,"2018-12-28T00:00:00","47.3","ND","ND","ND","4.0","3.7","ND","ND","ND","ND","0","0"],
    [75774,"2018-12-28T01:00:00","22","ND","ND","ND","3.5","1.4","ND","ND","ND","ND","0","0"],
    [75775,"2018-12-28T02:00:00","6.5","ND","ND","ND","3.3","2.9","ND","ND","ND","ND","0","0"],
    [75776,"2018-12-28T03:00:00","20.4","ND","ND","ND","3.7","1.1","ND","ND","ND","ND","0","0"],
    [75777,"2018-12-28T04:00:00","37.5","ND","ND","ND","3.5","2.4","ND","ND","ND","ND","0","0"],
    [75778,"2018-12-28T05:00:00","49","ND","ND","ND","3.5","1.9","ND","ND","ND","ND","0","0"],
    [75779,"2018-12-28T06:00:00","71.7","ND","ND","ND","3.6","4.1","ND","ND","ND","ND","0","0"],
    [75780,"2018-12-28T07:00:00","64.3","ND","ND","ND","3.5","6.6","ND","ND","ND","ND","60","0"],
    [75781,"2018-12-28T08:00:00","78.3","ND","ND","ND","3.9","5.1","ND","ND","ND","ND","274","0"],
    [75782,"2018-12-28T09:00:00","114.4","ND","ND","ND","9.4","3.6","ND","ND","ND","ND","647","0"],
    [75783,"2018-12-28T10:00:00","104.1","ND","ND","ND","34.7","2.0","ND","ND","ND","ND","665","0"],
    [75784,"2018-12-28T11:00:00","52.1","ND","ND","ND","62.6","1.8","ND","ND","ND","ND","666","0"],
    [75785,"2018-12-28T12:00:00","52.1","ND","ND","ND","86.6","1.4","ND","ND","ND","ND","666","0"],
    [75786,"2018-12-28T13:00:00","47.3","ND","ND","ND","122.8","1.1","ND","ND","ND","ND","666","0"],
    [75787,"2018-12-28T14:00:00","64.4","ND","ND","ND","139.8","1.5","ND","ND","ND","ND","588","0"],
    [75788,"2018-12-28T15:00:00","56.5","ND","ND","ND","128.4","1.4","ND","ND","ND","ND","608","0"],
    [75789,"2018-12-28T16:00:00","48.2","ND","ND","ND","73.2","1.4","ND","ND","ND","ND","453","0"],
    [75790,"2018-12-28T17:00:00","13.4","ND","ND","ND","60.1","1.1","ND","ND","ND","ND","488","0"],
    [75791,"2018-12-28T18:00:00","18.3","ND","ND","ND","49.0","0.7","ND","ND","ND","ND","164","0"],
    [75792,"2018-12-28T19:00:00","17.3","ND","ND","ND","34.9","1.0","ND","ND","ND","ND","4","0"],
    [75793,"2018-12-28T20:00:00","31","ND","ND","ND","14.2","0.5","ND","ND","ND","ND","0","0"],
    [75794,"2018-12-28T21:00:00","13.8","ND","ND","ND","6.6","1.2","ND","ND","ND","ND","0","0"],
    [75795,"2018-12-28T22:00:00","38.1","ND","ND","ND","3.9","1.5","ND","ND","ND","ND","0","0"],
    [75796,"2018-12-28T23:00:00","55.6","ND","ND","ND","3.7","2.6","ND","ND","ND","ND","0","0"],
    [75797,"2018-12-29T00:00:00","36","ND","ND","ND","3.7","2.5","ND","ND","ND","ND","0","0"],
    [75798,"2018-12-29T01:00:00","28.7","ND","ND","ND","5.0","1.1","ND","ND","ND","ND","0","0"],
    [75799,"2018-12-29T02:00:00","60.6","ND","ND","ND","6.1","1.1","ND","ND","ND","ND","0","0"],
    [75800,"2018-12-29T03:00:00","44.3","ND","ND","ND","4.0","2.2","ND","ND","ND","ND","0","0"],
    [75801,"2018-12-29T04:00:00","39.5","ND","ND","ND","3.8","1.7","ND","ND","ND","ND","0","0"],
    [75802,"2018-12-29T05:00:00","49.9","ND","ND","ND","7.8","3.1","ND","ND","ND","ND","0","0"],
    [75803,"2018-12-29T06:00:00","113.1","ND","ND","ND","8.6","2.6","ND","ND","ND","ND","0","0"],
    [75804,"2018-12-29T07:00:00","84","ND","ND","ND","6.2","3.2","ND","ND","ND","ND","54","0"],
    [75805,"2018-12-29T08:00:00","38.5","ND","ND","ND","10.4","3.1","ND","ND","ND","ND","435","0"],
    [75806,"2018-12-29T09:00:00","64.7","ND","ND","ND","20.6","1.7","ND","ND","ND","ND","665","0"],
    [75807,"2018-12-29T10:00:00","79.1","ND","ND","ND","44.2","2.0","ND","ND","ND","ND","665","0"],
    [75808,"2018-12-29T11:00:00","64.6","ND","ND","ND","60.5","1.5","ND","ND","ND","ND","659","0"],
    [75809,"2018-12-29T12:00:00","34.4","ND","ND","ND","87.4","1.3","ND","ND","ND","ND","666","0"],
    [75810,"2018-12-29T13:00:00","44","ND","ND","ND","105.1","1.5","ND","ND","ND","ND","666","0"],
    [75811,"2018-12-29T14:00:00","57.2","ND","ND","ND","111.4","1.2","ND","ND","ND","ND","647","0"],
    [75812,"2018-12-29T15:00:00","16.4","ND","ND","ND","58.2","1.1","ND","ND","ND","ND","546","0"],
    [75813,"2018-12-29T16:00:00","7.8","ND","ND","ND","41.6","0.8","ND","ND","ND","ND","652","0"],
    [75814,"2018-12-29T17:00:00","21.7","ND","ND","ND","40.5","0.5","ND","ND","ND","ND","579","0"],
    [75815,"2018-12-29T18:00:00","21.3","ND","ND","ND","36.6","0.5","ND","ND","ND","ND","134","0"],
    [75816,"2018-12-29T19:00:00","8.6","ND","ND","ND","16.1","0.2","ND","ND","ND","ND","0","0"],
    [75817,"2018-12-29T20:00:00","6.2","ND","ND","ND","9.2","0.6","ND","ND","ND","ND","0","0"],
    [75818,"2018-12-29T21:00:00","29.6","ND","ND","ND","4.4","3.0","ND","ND","ND","ND","0","0"],
    [75819,"2018-12-29T22:00:00","41.1","ND","ND","ND","4.1","2.3","ND","ND","ND","ND","0","0"],
    [75820,"2018-12-29T23:00:00","31.4","ND","ND","ND","3.9","5.2","ND","ND","ND","ND","0","0"],
    [75821,"2018-12-30T00:00:00","46.5","ND","ND","ND","3.6","1.9","ND","ND","ND","ND","0","0"],
    [75822,"2018-12-30T01:00:00","50.2","ND","ND","ND","3.8","1.9","ND","ND","ND","ND","0","0"],
    [75823,"2018-12-30T02:00:00","57.3","ND","ND","ND","3.7","3.8","ND","ND","ND","ND","0","0"],
    [75824,"2018-12-30T03:00:00","50.7","ND","ND","ND","3.6","1.9","ND","ND","ND","ND","0","0"],
    [75825,"2018-12-30T04:00:00","46.4","ND","ND","ND","3.6","4.0","ND","ND","ND","ND","0","0"],
    [75826,"2018-12-30T05:00:00","46.6","ND","ND","ND","3.6","2.5","ND","ND","ND","ND","0","0"],
    [75827,"2018-12-30T06:00:00","24.7","ND","ND","ND","3.7","1.9","ND","ND","ND","ND","0","0"],
    [75828,"2018-12-30T07:00:00","50.4","ND","ND","ND","3.8","1.9","ND","ND","ND","ND","105","0"],
    [75829,"2018-12-30T08:00:00","72.3","ND","ND","ND","6.6","1.7","ND","ND","ND","ND","431","0"],
    [75830,"2018-12-30T09:00:00","56.7","ND","ND","ND","15.3","0.7","ND","ND","ND","ND","663","0"],
    [75831,"2018-12-30T10:00:00","52.1","ND","ND","ND","39.1","1.4","ND","ND","ND","ND","663","0"],
    [75832,"2018-12-30T11:00:00","52.7","ND","ND","ND","63.0","1.5","ND","ND","ND","ND","666","0"],
    [75833,"2018-12-30T12:00:00","46.9","ND","ND","ND","85.5","1.4","ND","ND","ND","ND","666","0"],
    [75834,"2018-12-30T13:00:00","31.1","ND","ND","ND","109.2","1.2","ND","ND","ND","ND","664","0"],
    [75835,"2018-12-30T14:00:00","42.3","ND","ND","ND","109.1","0.9","ND","ND","ND","ND","666","0"],
    [75836,"2018-12-30T15:00:00","57.3","ND","ND","ND","65.0","0.7","ND","ND","ND","ND","608","0"],
    [75837,"2018-12-30T16:00:00","8.2","ND","ND","ND","33.4","1.4","ND","ND","ND","ND","618","0"],
    [75838,"2018-12-30T17:00:00","5.9","ND","ND","ND","28.7","0.0","ND","ND","ND","ND","522","0"],
    [75839,"2018-12-30T18:00:00","28.2","ND","ND","ND","33.9","0.8","ND","ND","ND","ND","88","0"],
    [75840,"2018-12-30T19:00:00","7.1","ND","ND","ND","23.0","0.5","ND","ND","ND","ND","0","0"],
    [75841,"2018-12-30T20:00:00","26.6","ND","ND","ND","16.0","0.6","ND","ND","ND","ND","0","0"],
    [75842,"2018-12-30T21:00:00","16.8","ND","ND","ND","5.6","3.3","ND","ND","ND","ND","0","0"],
    [75843,"2018-12-30T22:00:00","49.6","ND","ND","ND","8.6","2.9","ND","ND","ND","ND","0","0"],
    [75844,"2018-12-30T23:00:00","56.5","ND","ND","ND","8.8","3.6","ND","ND","ND","ND","0","0"],
    [75845,"2018-12-31T00:00:00","52.1","ND","ND","ND","7.3","3.7","ND","ND","ND","ND","0","0"],
    [75846,"2018-12-31T01:00:00","17.7","ND","ND","ND","4.8","2.5","ND","ND","ND","ND","0","0"],
    [75847,"2018-12-31T02:00:00","23.3","ND","ND","ND","4.3","3.0","ND","ND","ND","ND","0","0"],
    [75848,"2018-12-31T03:00:00","26.1","ND","ND","ND","4.1","2.6","ND","ND","ND","ND","0","0"],
    [75849,"2018-12-31T04:00:00","44.1","ND","ND","ND","4.1","2.2","ND","ND","ND","ND","0","0"],
    [75850,"2018-12-31T05:00:00","45.3","ND","ND","ND","3.9","2.6","ND","ND","ND","ND","0","0"],
    [75851,"2018-12-31T06:00:00","34.6","ND","ND","ND","3.7","3.3","ND","ND","ND","ND","0","0"],
    [75852,"2018-12-31T07:00:00","47","ND","ND","ND","3.8","2.3","ND","ND","ND","ND","90","0"],
    [75853,"2018-12-31T08:00:00","60.2","ND","ND","ND","5.6","3.1","ND","ND","ND","ND","313","0"],
    [75854,"2018-12-31T09:00:00","59","ND","ND","ND","10.7","2.2","ND","ND","ND","ND","600","0"],
    [75855,"2018-12-31T10:00:00","49.3","ND","ND","ND","28.2","1.5","ND","ND","ND","ND","664","0"],
    [75856,"2018-12-31T11:00:00","43.9","ND","ND","ND","54.7","1.6","ND","ND","ND","ND","660","0"],
    [75857,"2018-12-31T12:00:00","52.8","ND","ND","ND","73.3","1.3","ND","ND","ND","ND","662","0"],
    [75858,"2018-12-31T13:00:00","12","ND","ND","ND","90.0","1.3","ND","ND","ND","ND","666","0"],
    [75859,"2018-12-31T14:00:00","36.3","ND","ND","ND","106.6","1.8","ND","ND","ND","ND","658","0"],
    [75860,"2018-12-31T15:00:00","30.5","ND","ND","ND","99.9","1.6","ND","ND","ND","ND","644","0"],
    [75861,"2018-12-31T16:00:00","31.6","ND","ND","ND","62.3","1.2","ND","ND","ND","ND","526","0"],
    [75862,"2018-12-31T17:00:00","21.7","ND","ND","ND","62.2","0.8","ND","ND","ND","ND","529","0"],
    [75863,"2018-12-31T18:00:00","25.6","ND","ND","ND","46.9","0.8","ND","ND","ND","ND","114","0"],
    [75864,"2018-12-31T19:00:00","9.3","ND","ND","ND","32.6","1.1","ND","ND","ND","ND","2","0"],
    [75865,"2018-12-31T20:00:00","ND","ND","ND","ND","7.8","1.3","ND","ND","ND","ND","0","0"],
    [75866,"2018-12-31T21:00:00","21.8","ND","ND","ND","6.6","1.4","ND","ND","ND","ND","0","0"],
    [75867,"2018-12-31T22:00:00","68.1","ND","ND","ND","4.2","8.1","ND","ND","ND","ND","0","0"],
    [75868,"2018-12-31T23:00:00","34.8","ND","ND","ND","4.0","4.6","ND","ND","ND","ND","0","0"],
    [75869,"2019-01-01T00:00:00","37","ND","ND","ND","4.1","3.7","ND","ND","ND","ND","0","0"],
    [75870,"2019-01-01T01:00:00","58.4","ND","ND","ND","3.8","2.8","ND","ND","ND","ND","0","0"],
    [75871,"2019-01-01T02:00:00","55.6","ND","ND","ND","4.2","2.5","ND","ND","ND","ND","0","0"],
    [75872,"2019-01-01T03:00:00","70.6","ND","ND","ND","3.6","3","ND","ND","ND","ND","0","0"],
    [75873,"2019-01-01T04:00:00","50.3","ND","ND","ND","3.6","2.3","ND","ND","ND","ND","0","0"],
    [75874,"2019-01-01T05:00:00","48.2","ND","ND","ND","3.7","3.6","ND","ND","ND","ND","0","0"],
    [75875,"2019-01-01T06:00:00","38","ND","ND","ND","3.7","3.1","ND","ND","ND","ND","0","0"],
    [75876,"2019-01-01T07:00:00","37","ND","ND","ND","3.7","2","ND","ND","ND","ND","0","0"],
    [75877,"2019-01-01T08:00:00","52.6","ND","ND","ND","8.7","2.7","ND","ND","ND","ND","71","0"],
    [75878,"2019-01-01T09:00:00","88.8","ND","ND","ND","28.1","2.5","ND","ND","ND","ND","446","0"],
    [75879,"2019-01-01T10:00:00","65.6","ND","ND","ND","52.6","2.8","ND","ND","ND","ND","665","0"],
    [75880,"2019-01-01T11:00:00","42.6","ND","ND","ND","71.2","1.7","ND","ND","ND","ND","665","0"],
    [75881,"2019-01-01T12:00:00","21.8","ND","ND","ND","87.1","1.7","ND","ND","ND","ND","666","0"],
    [75882,"2019-01-01T13:00:00","27.9","ND","ND","ND","109.1","1.6","ND","ND","ND","ND","666","0"],
    [75883,"2019-01-01T14:00:00","50.9","ND","ND","ND","119.2","0.9","ND","ND","ND","ND","666","0"],
    [75884,"2019-01-01T15:00:00","30.3","ND","ND","ND","105","1.3","ND","ND","ND","ND","666","0"],
    [75885,"2019-01-01T16:00:00","17","ND","ND","ND","86.5","0.5","ND","ND","ND","ND","666","0"],
    [75886,"2019-01-01T17:00:00","13.4","ND","ND","ND","70.3","0.9","ND","ND","ND","ND","666","0"],
    [75887,"2019-01-01T18:00:00","3.3","ND","ND","ND","51.7","0.8","ND","ND","ND","ND","536","0"],
    [75888,"2019-01-01T19:00:00","2.5","ND","ND","ND","35","1.1","ND","ND","ND","ND","0","0"],
    [75889,"2019-01-01T20:00:00","22.4","ND","ND","ND","9.1","0.5","ND","ND","ND","ND","0","0"],
    [75890,"2019-01-01T21:00:00","37.5","ND","ND","ND","4.9","2.2","ND","ND","ND","ND","0","0"],
    [75891,"2019-01-01T22:00:00","38.3","ND","ND","ND","4.4","4.9","ND","ND","ND","ND","0","0"],
    [75892,"2019-01-01T23:00:00","45.1","ND","ND","ND","4.5","4.1","ND","ND","ND","ND","0","0"],
    [75893,"2019-01-02T00:00:00","32.1","ND","ND","ND","4","5.1","ND","ND","ND","ND","0","0"],
    [75894,"2019-01-02T01:00:00","19.1","ND","ND","ND","4.4","2.3","ND","ND","ND","ND","0","0"],
    [75895,"2019-01-02T02:00:00","31.7","ND","ND","ND","3.9","1.9","ND","ND","ND","ND","0","0"],
    [75896,"2019-01-02T03:00:00","19.9","ND","ND","ND","3.8","1.6","ND","ND","ND","ND","0","0"],
    [75897,"2019-01-02T04:00:00","5.5","ND","ND","ND","4.2","3.7","ND","ND","ND","ND","0","0"],
    [75898,"2019-01-02T05:00:00","50.2","ND","ND","ND","4.8","2.5","ND","ND","ND","ND","0","0"],
    [75899,"2019-01-02T06:00:00","9.5","ND","ND","ND","3.7","2.7","ND","ND","ND","ND","0","0"],
    [75900,"2019-01-02T07:00:00","38.3","ND","ND","ND","3.6","2.4","ND","ND","ND","ND","0","0"],
    [75901,"2019-01-02T08:00:00","60.5","ND","ND","ND","5.8","1.7","ND","ND","ND","ND","71","0.1"],
    [75902,"2019-01-02T09:00:00","71.1","ND","ND","ND","13.6","2.7","ND","ND","ND","ND","455","0"],
    [75903,"2019-01-02T10:00:00","69.1","ND","ND","ND","42","1.5","ND","ND","ND","ND","665","0"],
    [75904,"2019-01-02T11:00:00","46.3","ND","ND","ND","62.2","1.9","ND","ND","ND","ND","665","0"],
    [75905,"2019-01-02T12:00:00","40.6","ND","ND","ND","81.4","0.8","ND","ND","ND","ND","666","0"],
    [75906,"2019-01-02T13:00:00","30.3","ND","ND","ND","103.2","0.8","ND","ND","ND","ND","666","0"],
    [75907,"2019-01-02T14:00:00","14.4","ND","ND","ND","99.2","1.3","ND","ND","ND","ND","666","0.2"],
    [75908,"2019-01-02T15:00:00","31.6","ND","ND","ND","73.7","1","ND","ND","ND","ND","666","0"],
    [75909,"2019-01-02T16:00:00","17.6","ND","ND","ND","45.6","1.1","ND","ND","ND","ND","522","0"],
    [75910,"2019-01-02T17:00:00","15.9","ND","ND","ND","49.6","0.6","ND","ND","ND","ND","619","0"],
    [75911,"2019-01-02T18:00:00","10","ND","ND","ND","33.4","0.7","ND","ND","ND","ND","578","0"],
    [75912,"2019-01-02T19:00:00","4.5","ND","ND","ND","30.4","0.5","ND","ND","ND","ND","0","0.1"],
    [75913,"2019-01-02T20:00:00","34.6","ND","ND","ND","5.3","1.3","ND","ND","ND","ND","0","0"],
    [75914,"2019-01-02T21:00:00","41","ND","ND","ND","4.1","1.6","ND","ND","ND","ND","0","0"],
    [75915,"2019-01-02T22:00:00","56","ND","ND","ND","4.6","3.8","ND","ND","ND","ND","0","0.1"],
    [75916,"2019-01-02T23:00:00","23.5","ND","ND","ND","4.4","1.4","ND","ND","ND","ND","0","0"],
    [75917,"2019-01-03T00:00:00","23.6","ND","ND","ND","5.3","1.2","ND","ND","ND","ND","0","0"],
    [75918,"2019-01-03T01:00:00","20.9","ND","ND","ND","4.4","2.8","ND","ND","ND","ND","0","0"],
    [75919,"2019-01-03T02:00:00","30.5","ND","ND","ND","4.8","2.4","ND","ND","ND","ND","0","0"],
    [75920,"2019-01-03T03:00:00","55.9","ND","ND","ND","4.2","2.1","ND","ND","ND","ND","0","0"],
    [75921,"2019-01-03T04:00:00","15.7","ND","ND","ND","4","1.2","ND","ND","ND","ND","0","0"],
    [75922,"2019-01-03T05:00:00","27.1","ND","ND","ND","3.8","2.2","ND","ND","ND","ND","0","0"],
    [75923,"2019-01-03T06:00:00","50.9","ND","ND","ND","3.7","1.6","ND","ND","ND","ND","0","0"],
    [75924,"2019-01-03T07:00:00","62.9","ND","ND","ND","3.8","1.7","ND","ND","ND","ND","0","0"],
    [75925,"2019-01-03T08:00:00","84.3","ND","ND","ND","5.6","2.1","ND","ND","ND","ND","64","0"],
    [75926,"2019-01-03T09:00:00","70.8","ND","ND","ND","14","2.8","ND","ND","ND","ND","431","0"],
    [75927,"2019-01-03T10:00:00","68.5","ND","ND","ND","31","1","ND","ND","ND","ND","665","0"],
    [75928,"2019-01-03T11:00:00","65.9","ND","ND","ND","54","1.2","ND","ND","ND","ND","665","0"],
    [75929,"2019-01-03T12:00:00","62.2","ND","ND","ND","81.1","1.4","ND","ND","ND","ND","666","0"],
    [75930,"2019-01-03T13:00:00","54.4","ND","ND","ND","120","0.7","ND","ND","ND","ND","666","0"],
    [75931,"2019-01-03T14:00:00","35.1","ND","ND","ND","131.7","0.9","ND","ND","ND","ND","666","0"],
    [75932,"2019-01-03T15:00:00","27.6","ND","ND","ND","116","0.9","ND","ND","ND","ND","666","0"],
    [75933,"2019-01-03T16:00:00","21.7","ND","ND","ND","69.6","0.8","ND","ND","ND","ND","582","0"],
    [75934,"2019-01-03T17:00:00","25.4","ND","ND","ND","78.4","0.5","ND","ND","ND","ND","619","0"],
    [75935,"2019-01-03T18:00:00","32.3","ND","ND","ND","54.2","0.3","ND","ND","ND","ND","556","0"],
    [75936,"2019-01-03T19:00:00","21.2","ND","ND","ND","29.7","0.5","ND","ND","ND","ND","0","0"],
    [75937,"2019-01-03T20:00:00","35.9","ND","ND","ND","23.5","0.7","ND","ND","ND","ND","0","0"],
    [75938,"2019-01-03T21:00:00","20.7","ND","ND","ND","6.7","2.7","ND","ND","ND","ND","0","0"],
    [75939,"2019-01-03T22:00:00","35.6","ND","ND","ND","7.6","7.2","ND","ND","ND","ND","0","0"],
    [75940,"2019-01-03T23:00:00","50.3","ND","ND","ND","4.6","5.8","ND","ND","ND","ND","0","0"],
    [75941,"2019-01-04T00:00:00","45.7","ND","ND","ND","5.1","6.7","ND","ND","ND","ND","0","0"],
    [75942,"2019-01-04T01:00:00","26.7","ND","ND","ND","5.2","2.4","ND","ND","ND","ND","0","0"],
    [75943,"2019-01-04T02:00:00","19","ND","ND","ND","7.4","2.1","ND","ND","ND","ND","0","0"],
    [75944,"2019-01-04T03:00:00","52.1","ND","ND","ND","4.8","1.7","ND","ND","ND","ND","0","0"],
    [75945,"2019-01-04T04:00:00","77.1","ND","ND","ND","5.1","2.4","ND","ND","ND","ND","0","0"],
    [75946,"2019-01-04T05:00:00","49.8","ND","ND","ND","5.2","2.7","ND","ND","ND","ND","0","0"],
    [75947,"2019-01-04T06:00:00","40.2","ND","ND","ND","4.5","3.5","ND","ND","ND","ND","0","0"],
    [75948,"2019-01-04T07:00:00","47.1","ND","ND","ND","4.2","2.9","ND","ND","ND","ND","0","0"],
    [75949,"2019-01-04T08:00:00","52.7","ND","ND","ND","7.5","2","ND","ND","ND","ND","49","0"],
    [75950,"2019-01-04T09:00:00","53.5","ND","ND","ND","23.2","1.6","ND","ND","ND","ND","411","0"],
    [75951,"2019-01-04T10:00:00","59.1","ND","ND","ND","51.4","1.3","ND","ND","ND","ND","665","0"],
    [75952,"2019-01-04T11:00:00","38.9","ND","ND","ND","68","1","ND","ND","ND","ND","665","0.8"],
    [75953,"2019-01-04T12:00:00","44.1","ND","ND","ND","89.1","0.7","ND","ND","ND","ND","666","0"],
    [75954,"2019-01-04T13:00:00","33.5","ND","ND","ND","97.1","0.9","ND","ND","ND","ND","666","0"],
    [75955,"2019-01-04T14:00:00","35.5","ND","ND","ND","109.4","0.9","ND","ND","ND","ND","666","8.2"],
    [75956,"2019-01-04T15:00:00","42.5","ND","ND","ND","108.4","1","ND","ND","ND","ND","666","2.6"],
    [75957,"2019-01-04T16:00:00","40.3","ND","ND","ND","110.5","1","ND","ND","ND","ND","666","0.6"],
    [75958,"2019-01-04T17:00:00","31.9","ND","ND","ND","78.3","0.8","ND","ND","ND","ND","667","0"],
    [75959,"2019-01-04T18:00:00","37.4","ND","ND","ND","51.8","0.6","ND","ND","ND","ND","549","0"],
    [75960,"2019-01-04T19:00:00","22.4","ND","ND","ND","49.7","1.1","ND","ND","ND","ND","0","0.2"],
    [75961,"2019-01-04T20:00:00","9.3","ND","ND","ND","47.6","0.6","ND","ND","ND","ND","0","1.2"],
    [75962,"2019-01-04T21:00:00","16.4","ND","ND","ND","7.1","4.9","ND","ND","ND","ND","0","0.2"],
    [75963,"2019-01-04T22:00:00","32.5","ND","ND","ND","5","4.5","ND","ND","ND","ND","0","0.1"],
    [75964,"2019-01-04T23:00:00","2.3","ND","ND","ND","4.4","2.4","ND","ND","ND","ND","0","0"],
    [75965,"2019-01-05T00:00:00","36.8","ND","ND","ND","3.7","5.6","ND","ND","ND","ND","0","0.1"],
    [75966,"2019-01-05T01:00:00","75","ND","ND","ND","6.8","2.4","ND","ND","ND","ND","0","0"],
    [75967,"2019-01-05T02:00:00","19.8","ND","ND","ND","4.4","2.5","ND","ND","ND","ND","0","0"],
    [75968,"2019-01-05T03:00:00","45.2","ND","ND","ND","4","1.7","ND","ND","ND","ND","0","0"],
    [75969,"2019-01-05T04:00:00","37.9","ND","ND","ND","3.8","2.4","ND","ND","ND","ND","0","0"],
    [75970,"2019-01-05T05:00:00","23.8","ND","ND","ND","4.3","3","ND","ND","ND","ND","0","0"],
    [75971,"2019-01-05T06:00:00","23.2","ND","ND","ND","3.7","2.4","ND","ND","ND","ND","0","0"],
    [75972,"2019-01-05T07:00:00","47.2","ND","ND","ND","4","2.6","ND","ND","ND","ND","0","0"],
    [75973,"2019-01-05T08:00:00","79.8","ND","ND","ND","5.2","2.6","ND","ND","ND","ND","90","0"],
    [75974,"2019-01-05T09:00:00","74.9","ND","ND","ND","24.4","1.6","ND","ND","ND","ND","428","0"],
    [75975,"2019-01-05T10:00:00","53","ND","ND","ND","54.9","1.2","ND","ND","ND","ND","665","0"],
    [75976,"2019-01-05T11:00:00","53.5","ND","ND","ND","77.9","1.2","ND","ND","ND","ND","665","ND"],
    [75977,"2019-01-05T12:00:00","16.2","ND","ND","ND","88.1","1.1","ND","ND","ND","ND","666","0"],
    [75978,"2019-01-05T13:00:00","68.1","ND","ND","ND","104.7","1.6","ND","ND","ND","ND","666","0"],
    [75979,"2019-01-05T14:00:00","57.8","ND","ND","ND","95.9","1","ND","ND","ND","ND","666","0"],
    [75980,"2019-01-05T15:00:00","17.3","ND","ND","ND","36.3","0.8","ND","ND","ND","ND","644","0"],
    [75981,"2019-01-05T16:00:00","12.1","ND","ND","ND","36.6","0.6","ND","ND","ND","ND","550","0"],
    [75982,"2019-01-05T17:00:00","12.4","ND","ND","ND","31.9","0.5","ND","ND","ND","ND","642","0"],
    [75983,"2019-01-05T18:00:00","1.7","ND","ND","ND","30.3","1","ND","ND","ND","ND","486","ND"],
    [75984,"2019-01-05T19:00:00","12.2","ND","ND","ND","25.2","0.3","ND","ND","ND","ND","0","0"],
    [75985,"2019-01-05T20:00:00","21.1","ND","ND","ND","13.3","0.6","ND","ND","ND","ND","0","0"],
    [75986,"2019-01-05T21:00:00","29.9","ND","ND","ND","6.9","0.9","ND","ND","ND","ND","0","0"],
    [75987,"2019-01-05T22:00:00","33.7","ND","ND","ND","4.4","2.7","ND","ND","ND","ND","0","0"],
    [75988,"2019-01-05T23:00:00","39.9","ND","ND","ND","4.3","4.7","ND","ND","ND","ND","0","0"],
    [75989,"2019-01-06T00:00:00","39.5","ND","ND","ND","4","3.7","ND","ND","ND","ND","0","ND"],
    [75990,"2019-01-06T01:00:00","29.1","ND","ND","ND","3.7","2.3","ND","ND","ND","ND","0","0"],
    [75991,"2019-01-06T02:00:00","16.6","ND","ND","ND","4","2.2","ND","ND","ND","ND","0","0"],
    [75992,"2019-01-06T03:00:00","25.3","ND","ND","ND","6.1","2","ND","ND","ND","ND","0","0"],
    [75993,"2019-01-06T04:00:00","33.5","ND","ND","ND","6.2","1.6","ND","ND","ND","ND","0","0"],
    [75994,"2019-01-06T05:00:00","51.4","ND","ND","ND","5.1","3.5","ND","ND","ND","ND","0","0"],
    [75995,"2019-01-06T06:00:00","40.5","ND","ND","ND","4.3","2.1","ND","ND","ND","ND","0","0"],
    [75996,"2019-01-06T07:00:00","34.9","ND","ND","ND","4.3","1.1","ND","ND","ND","ND","0","ND"],
    [75997,"2019-01-06T08:00:00","43.9","ND","ND","ND","4.6","1.3","ND","ND","ND","ND","35","0"],
    [75998,"2019-01-06T09:00:00","49.6","ND","ND","ND","6.6","1.6","ND","ND","ND","ND","102","0"],
    [75999,"2019-01-06T10:00:00","54","ND","ND","ND","11","1.3","ND","ND","ND","ND","256","ND"],
    [76000,"2019-01-06T11:00:00","46","ND","ND","ND","30.4","1.6","ND","ND","ND","ND","547","ND"],
    [76001,"2019-01-06T12:00:00","41.3","ND","ND","ND","45.2","0.9","ND","ND","ND","ND","665","0"],
    [76002,"2019-01-06T13:00:00","32.7","ND","ND","ND","63.8","1","ND","ND","ND","ND","665","ND"],
    [76003,"2019-01-06T14:00:00","31.4","ND","ND","ND","56.4","1.2","ND","ND","ND","ND","666","ND"],
    [76004,"2019-01-06T15:00:00","41.3","ND","ND","ND","39.7","0.8","ND","ND","ND","ND","666","1.5"],
    [76005,"2019-01-06T16:00:00","22","ND","ND","ND","36","0.5","ND","ND","ND","ND","666","0"],
    [76006,"2019-01-06T17:00:00","9.6","ND","ND","ND","33.4","0.9","ND","ND","ND","ND","655","0"],
    [76007,"2019-01-06T18:00:00","0.7","ND","ND","ND","31.1","0.2","ND","ND","ND","ND","475","0"],
    [76008,"2019-01-06T19:00:00","0.1","ND","ND","ND","21.3","1","ND","ND","ND","ND","0","0.1"],
    [76009,"2019-01-06T20:00:00","22.4","ND","ND","ND","15.7","0.6","ND","ND","ND","ND","0","0.3"],
    [76010,"2019-01-06T21:00:00","33.3","ND","ND","ND","16.1","0.8","ND","ND","ND","ND","0","0"],
    [76011,"2019-01-06T22:00:00","23","ND","ND","ND","14.7","0.4","ND","ND","ND","ND","0","0"],
    [76012,"2019-01-06T23:00:00","19","ND","ND","ND","11.3","1.1","ND","ND","ND","ND","0","0"],
    [76013,"2019-01-07T00:00:00","36.5","ND","ND","ND","9.3","2.9","ND","ND","ND","ND","0","0"],
    [76014,"2019-01-07T01:00:00","58.3","ND","ND","ND","10.9","1.5","ND","ND","ND","ND","0","0"],
    [76015,"2019-01-07T02:00:00","36.7","ND","ND","ND","11.2","1.9","ND","ND","ND","ND","0","0"],
    [76016,"2019-01-07T03:00:00","22.7","ND","ND","ND","7.5","1.4","ND","ND","ND","ND","0","0"],
    [76017,"2019-01-07T04:00:00","46.6","ND","ND","ND","6","3.3","ND","ND","ND","ND","0","ND"],
    [76018,"2019-01-07T05:00:00","35.9","ND","ND","ND","6.3","1.6","ND","ND","ND","ND","0","15.6"],
    [76019,"2019-01-07T06:00:00","30.5","ND","ND","ND","6.9","1.5","ND","ND","ND","ND","0","ND"],
    [76020,"2019-01-07T07:00:00","15.7","ND","ND","ND","6.9","0.5","ND","ND","ND","ND","0","ND"],
    [76021,"2019-01-07T08:00:00","1.1","ND","ND","ND","4.9","0.4","ND","ND","ND","ND","19","ND"],
    [76022,"2019-01-07T09:00:00","ND","ND","ND","ND","ND","ND","ND","ND","ND","ND","92","ND"],
    [76023,"2019-01-07T10:00:00","ND","ND","ND","ND","ND","ND","ND","ND","ND","ND","ND","ND"],
    [76024,"2019-01-07T11:00:00","ND","ND","ND","ND","ND","ND","ND","ND","ND","ND","ND","0"],
    [76025,"2019-01-07T12:00:00","ND","ND","ND","ND","ND","ND","ND","ND","ND","ND","ND","0"],
    [76026,"2019-01-07T13:00:00","ND","ND","ND","ND","ND","ND","ND","ND","ND","ND","ND","0"],
    [76027,"2019-01-07T14:00:00","ND","ND","ND","ND","ND","ND","ND","ND","ND","ND","ND","0"],
    [76028,"2019-01-07T15:00:00","ND","ND","ND","ND","ND","ND","ND","ND","ND","ND","ND","ND"],
    [76029,"2019-01-07T16:00:00","ND","ND","ND","ND","ND","ND","ND","ND","ND","ND","ND","0"],
    [76030,"2019-01-07T17:00:00","ND","ND","ND","ND","ND","ND","ND","ND","ND","ND","ND","0"],
    [76031,"2019-01-07T18:00:00","ND","ND","ND","ND","ND","ND","ND","ND","ND","ND","ND","ND"],
    [76032,"2019-01-07T19:00:00","ND","ND","ND","ND","ND","ND","ND","ND","ND","ND","ND","ND"],
    [76033,"2019-01-07T20:00:00","ND","ND","ND","ND","ND","ND","ND","ND","ND","ND","ND","ND"],
    [76034,"2019-01-07T21:00:00","ND","ND","ND","ND","ND","ND","ND","ND","ND","ND","ND","0"],
    [76035,"2019-01-07T22:00:00","ND","ND","ND","ND","ND","ND","ND","ND","ND","ND","ND","ND"],
    [76036,"2019-01-07T23:00:00","ND","ND","ND","ND","ND","ND","ND","ND","ND","ND","ND","0"],
    [76037,"2019-01-08T00:00:00","ND","ND","ND","ND","ND","ND","ND","ND","ND","ND","ND","ND"],
    [76038,"2019-01-08T01:00:00","ND","ND","ND","ND","ND","ND","ND","ND","ND","ND","ND","0"],
    [76039,"2019-01-08T02:00:00","ND","ND","ND","ND","ND","ND","ND","ND","ND","ND","ND","0"],
    [76040,"2019-01-08T03:00:00","ND","ND","ND","ND","ND","ND","ND","ND","ND","ND","ND","ND"],
    [76041,"2019-01-08T04:00:00","ND","ND","ND","ND","ND","ND","ND","ND","ND","ND","ND","0"],
    [76042,"2019-01-08T05:00:00","ND","ND","ND","ND","ND","ND","ND","ND","ND","ND","ND","0"],
    [76043,"2019-01-08T06:00:00","ND","ND","ND","ND","ND","ND","ND","ND","ND","ND","ND","0"],
    [76044,"2019-01-08T07:00:00","ND","ND","ND","ND","ND","ND","ND","ND","ND","ND","ND","0"],
    [76045,"2019-01-08T08:00:00","ND","ND","ND","ND","ND","ND","ND","ND","ND","ND","ND","0"],
    [76046,"2019-01-08T09:00:00","ND","ND","ND","ND","ND","ND","ND","ND","ND","ND","ND","0"],
    [76047,"2019-01-08T10:00:00","57.3","ND","ND","ND","25.7","0.9","ND","ND","ND","ND","ND","0"],
    [76048,"2019-01-08T11:00:00","23.8","ND","ND","ND","50.1","0.9","ND","ND","ND","ND","665","ND"],
    [76049,"2019-01-08T12:00:00","39.8","ND","ND","ND","67.5","0.6","ND","ND","ND","ND","665","0"],
    [76050,"2019-01-08T13:00:00","19.6","ND","ND","ND","87.4","1.2","ND","ND","ND","ND","666","0"],
    [76051,"2019-01-08T14:00:00","19.5","ND","ND","ND","83.4","1.4","ND","ND","ND","ND","666","0"],
    [76052,"2019-01-08T15:00:00","23.3","ND","ND","ND","41.3","0.3","ND","ND","ND","ND","666","0"],
    [76053,"2019-01-08T16:00:00","16","ND","ND","ND","12.8","1.4","ND","ND","ND","ND","342","0"],
    [76054,"2019-01-08T17:00:00","46.7","ND","ND","ND","15.5","1.1","ND","ND","ND","ND","569","0"],
    [76055,"2019-01-08T18:00:00","9","ND","ND","ND","18.6","1.3","ND","ND","ND","ND","448","0"],
    [76056,"2019-01-08T19:00:00","2.8","ND","ND","ND","5.1","0.9","ND","ND","ND","ND","0","0"],
    [76057,"2019-01-08T20:00:00","20.4","ND","ND","ND","5.5","1","ND","ND","ND","ND","0","0"],
    [76058,"2019-01-08T21:00:00","6.9","ND","ND","ND","9.5","1.5","ND","ND","ND","ND","0","0"],
    [76059,"2019-01-08T22:00:00","15","ND","ND","ND","3.8","1.4","ND","ND","ND","ND","0","0"],
    [76060,"2019-01-08T23:00:00","8.8","ND","ND","ND","3.6","1.5","ND","ND","ND","ND","0","0"],
    [76061,"2019-01-09T00:00:00","32.4","ND","ND","ND","3.9","1.8","ND","ND","ND","ND","0","0"],
    [76062,"2019-01-09T01:00:00","31.5","ND","ND","ND","6.2","1","ND","ND","ND","ND","0","ND"],
    [76063,"2019-01-09T02:00:00","15.6","ND","ND","ND","5.9","1.9","ND","ND","ND","ND","0","0"],
    [76064,"2019-01-09T03:00:00","24.7","ND","ND","ND","4.6","1.8","ND","ND","ND","ND","0","0"],
    [76065,"2019-01-09T04:00:00","23.3","ND","ND","ND","12.2","1.4","ND","ND","ND","ND","0","0"],
    [76066,"2019-01-09T05:00:00","18.1","ND","ND","ND","11.8","1","ND","ND","ND","ND","0","ND"],
    [76067,"2019-01-09T06:00:00","10.6","ND","ND","ND","13","0.7","ND","ND","ND","ND","0","0"],
    [76068,"2019-01-09T07:00:00","12.4","ND","ND","ND","4.4","1.1","ND","ND","ND","ND","0","0"],
    [76069,"2019-01-09T08:00:00","17.3","ND","ND","ND","3.7","1","ND","ND","ND","ND","12","0"],
    [76070,"2019-01-09T09:00:00","12.5","ND","ND","ND","4.7","0.9","ND","ND","ND","ND","50","0"],
    [76071,"2019-01-09T10:00:00","9.8","ND","ND","ND","8.3","0.8","ND","ND","ND","ND","214","ND"],
    [76072,"2019-01-09T11:00:00","15.8","ND","ND","ND","14.2","1","ND","ND","ND","ND","470","0"],
    [76073,"2019-01-09T12:00:00","20.4","ND","ND","ND","30.1","1.6","ND","ND","ND","ND","636","0"],
    [76074,"2019-01-09T13:00:00","21.3","ND","ND","ND","33.4","1.2","ND","ND","ND","ND","657","ND"],
    [76075,"2019-01-09T14:00:00","3.9","ND","ND","ND","32.1","0.6","ND","ND","ND","ND","504","0"],
    [76076,"2019-01-09T15:00:00","8.3","ND","ND","ND","30.1","0.9","ND","ND","ND","ND","614","0"],
    [76077,"2019-01-09T16:00:00","23.2","ND","ND","ND","26.2","0.6","ND","ND","ND","ND","470","ND"],
    [76078,"2019-01-09T17:00:00","19.9","ND","ND","ND","16.9","0.9","ND","ND","ND","ND","468","0"],
    [76079,"2019-01-09T18:00:00","39.3","ND","ND","ND","4.8","1.6","ND","ND","ND","ND","483","ND"],
    [76080,"2019-01-09T19:00:00","41.6","ND","ND","ND","3.4","1.3","ND","ND","ND","ND","0","ND"],
    [76081,"2019-01-09T20:00:00","22.5","ND","ND","ND","4.3","0.6","ND","ND","ND","ND","0","0"],
    [76082,"2019-01-09T21:00:00","17","ND","ND","ND","3.4","1.1","ND","ND","ND","ND","0","0"],
    [76083,"2019-01-09T22:00:00","15.9","ND","ND","ND","4.8","0.9","ND","ND","ND","ND","0","ND"],
    [76084,"2019-01-09T23:00:00","19.1","ND","ND","ND","3.5","0.6","ND","ND","ND","ND","0","0"],
    [76085,"2019-01-10T00:00:00","14.1","ND","ND","ND","3.1","0.8","ND","ND","ND","ND","0","0"],
    [76086,"2019-01-10T01:00:00","33.7","ND","ND","ND","3.3","0.8","ND","ND","ND","ND","0","ND"],
    [76087,"2019-01-10T02:00:00","75.8","ND","ND","ND","3.4","0.9","ND","ND","ND","ND","0","ND"],
    [76088,"2019-01-10T03:00:00","27","ND","ND","ND","3.9","2.6","ND","ND","ND","ND","0","ND"],
    [76089,"2019-01-10T04:00:00","33.1","ND","ND","ND","3.8","2","ND","ND","ND","ND","0","ND"],
    [76090,"2019-01-10T05:00:00","39.9","ND","ND","ND","3.5","1.2","ND","ND","ND","ND","0","ND"],
    [76091,"2019-01-10T06:00:00","38.6","ND","ND","ND","3.9","2.8","ND","ND","ND","ND","0","ND"],
    [76092,"2019-01-10T07:00:00","52.3","ND","ND","ND","3.7","4","ND","ND","ND","ND","0","ND"],
    [76093,"2019-01-10T08:00:00","71.9","ND","ND","ND","4","3.8","ND","ND","ND","ND","35","ND"],
    [76094,"2019-01-10T09:00:00","82.8","ND","ND","ND","6.7","1.3","ND","ND","ND","ND","217","ND"],
    [76095,"2019-01-10T10:00:00","51","ND","ND","ND","22.4","1.9","ND","ND","ND","ND","581","ND"],
    [76096,"2019-01-10T11:00:00","27","ND","ND","ND","24.2","1.5","ND","ND","ND","ND","488","ND"],
    [76097,"2019-01-10T12:00:00","19","ND","ND","ND","ND","1.3","ND","ND","ND","ND","477","0"],
    [76098,"2019-01-10T13:00:00","31","ND","ND","ND","ND","6.4","ND","ND","ND","ND","555","0"],
    [76099,"2019-01-10T14:00:00","43.1","ND","ND","ND","ND","ND","ND","ND","ND","ND","665","0"],
    [76100,"2019-01-10T15:00:00","20.9","ND","ND","ND","ND","2.4","ND","ND","ND","ND","553","0"],
    [76101,"2019-01-10T16:00:00","39.7","ND","ND","ND","ND","1.9","ND","ND","ND","ND","542","0"],
    [76102,"2019-01-10T17:00:00","6.6","ND","ND","ND","ND","1.1","ND","ND","ND","ND","509","0"],
    [76103,"2019-01-10T18:00:00","17.9","ND","ND","ND","ND","1.5","ND","ND","ND","ND","448","0"],
    [76104,"2019-01-10T19:00:00","20.9","ND","ND","ND","ND","1.3","ND","ND","ND","ND","0","0"],
    [76105,"2019-01-10T20:00:00","29","ND","ND","ND","ND","0.5","ND","ND","ND","ND","0","0.1"],
    [76106,"2019-01-10T21:00:00","15","ND","ND","ND","ND","0.8","ND","ND","ND","ND","0","0"],
    [76107,"2019-01-10T22:00:00","18","ND","ND","ND","ND","1","ND","ND","ND","ND","0","0"],
    [76108,"2019-01-10T23:00:00","41","ND","ND","ND","ND","0.7","ND","ND","ND","ND","0","0"],
    [76109,"2019-01-11T00:00:00","30.7","ND","ND","ND","ND","0.7","ND","ND","ND","ND","0","0"],
    [76110,"2019-01-11T01:00:00","20.7","ND","ND","ND","ND","1","ND","ND","ND","ND","0","0"],
    [76111,"2019-01-11T02:00:00","9.1","ND","ND","ND","ND","0.6","ND","ND","ND","ND","0","0"],
    [76112,"2019-01-11T03:00:00","40.4","ND","ND","ND","ND","0.9","ND","ND","ND","ND","0","0"],
    [76113,"2019-01-11T04:00:00","47.4","ND","ND","ND","ND","1","ND","ND","ND","ND","0","0"],
    [76114,"2019-01-11T05:00:00","42.8","ND","ND","ND","ND","0.9","ND","ND","ND","ND","0","0"],
    [76115,"2019-01-11T06:00:00","34.6","ND","ND","ND","ND","0.6","ND","ND","ND","ND","0","0"],
    [76116,"2019-01-11T07:00:00","34.5","ND","ND","ND","ND","0.4","ND","ND","ND","ND","0","0"],
    [76117,"2019-01-11T08:00:00","51.5","ND","ND","ND","ND","1.2","ND","ND","ND","ND","41","0"],
    [76118,"2019-01-11T09:00:00","72.2","ND","ND","ND","ND","1.2","ND","ND","ND","ND","388","0"],
    [76119,"2019-01-11T10:00:00","65","ND","ND","ND","ND","1.6","ND","ND","ND","ND","584","0"],
    [76120,"2019-01-11T11:00:00","56.8","ND","ND","ND","ND","1.4","ND","ND","ND","ND","649","0"],
    [76121,"2019-01-11T12:00:00","23.9","ND","ND","ND","ND","1.4","ND","ND","ND","ND","657","0"],
    [76122,"2019-01-11T13:00:00","28.7","ND","ND","ND","ND","1.4","ND","ND","ND","ND","666","0"],
    [76123,"2019-01-11T14:00:00","43.6","ND","ND","ND","ND","1.5","ND","ND","ND","ND","666","0"],
    [76124,"2019-01-11T15:00:00","24.1","ND","ND","ND","ND","1.4","ND","ND","ND","ND","543","0"],
    [76125,"2019-01-11T16:00:00","29.1","ND","ND","ND","ND","1.2","ND","ND","ND","ND","552","0"],
    [76126,"2019-01-11T17:00:00","14.4","ND","ND","ND","ND","0.8","ND","ND","ND","ND","431","0"],
    [76127,"2019-01-11T18:00:00","2.7","ND","ND","ND","ND","0.8","ND","ND","ND","ND","392","0"],
    [76128,"2019-01-11T19:00:00","14.6","ND","ND","ND","ND","0.6","ND","ND","ND","ND","0","0"],
    [76129,"2019-01-11T20:00:00","41.3","ND","ND","ND","ND","0.3","ND","ND","ND","ND","0","0"],
    [76130,"2019-01-11T21:00:00","39","ND","ND","ND","ND","0.3","ND","ND","ND","ND","0","0"],
    [76131,"2019-01-11T22:00:00","47.3","ND","ND","ND","ND","0.1","ND","ND","ND","ND","0","0"],
    [76132,"2019-01-11T23:00:00","45.8","ND","ND","ND","ND","0.5","ND","ND","ND","ND","0","0.1"],
    [76133,"2019-01-12T00:00:00","52.7","ND","ND","ND","ND","0.3","ND","ND","ND","ND","0","0"],
    [76134,"2019-01-12T01:00:00","45.5","ND","ND","ND","ND","0.5","ND","ND","ND","ND","0","0"],
    [76135,"2019-01-12T02:00:00","75.9","ND","ND","ND","ND","0.4","ND","ND","ND","ND","0","0"],
    [76136,"2019-01-12T03:00:00","51.6","ND","ND","ND","ND","0.7","ND","ND","ND","ND","0","0"],
    [76137,"2019-01-12T04:00:00","34","ND","ND","ND","ND","0.8","ND","ND","ND","ND","0","0"],
    [76138,"2019-01-12T05:00:00","60.1","ND","ND","ND","ND","1","ND","ND","ND","ND","0","0"],
    [76139,"2019-01-12T06:00:00","54.5","ND","ND","ND","ND","1.3","ND","ND","ND","ND","0","0"],
    [76140,"2019-01-12T07:00:00","60.8","ND","ND","ND","ND","0.2","ND","ND","ND","ND","0","0.6"],
    [76141,"2019-01-12T08:00:00","54.7","ND","ND","ND","ND","0.6","ND","ND","ND","ND","36","0"],
    [76142,"2019-01-12T09:00:00","41.7","ND","ND","ND","ND","0.5","ND","ND","ND","ND","233","0"],
    [76143,"2019-01-12T10:00:00","41.2","ND","ND","ND","ND","1.3","ND","ND","ND","ND","383","0"],
    [76144,"2019-01-12T11:00:00","57.9","ND","ND","ND","ND","1.7","ND","ND","ND","ND","665","0"],
    [76145,"2019-01-12T12:00:00","58.8","ND","ND","ND","ND","0.9","ND","ND","ND","ND","654","0"],
    [76146,"2019-01-12T13:00:00","35.7","ND","ND","ND","ND","0.6","ND","ND","ND","ND","664","0"],
    [76147,"2019-01-12T14:00:00","22.7","ND","ND","ND","ND","1","ND","ND","ND","ND","658","0"],
    [76148,"2019-01-12T15:00:00","20.5","ND","ND","ND","ND","1","ND","ND","ND","ND","655","0"],
    [76149,"2019-01-12T16:00:00","17.4","ND","ND","ND","ND","0.9","ND","ND","ND","ND","621","0"],
    [76150,"2019-01-12T17:00:00","16.3","ND","ND","ND","ND","0.7","ND","ND","ND","ND","666","0"],
    [76151,"2019-01-12T18:00:00","3.5","ND","ND","ND","ND","0.5","ND","ND","ND","ND","610","0"],
    [76152,"2019-01-12T19:00:00","ND","ND","ND","ND","ND","1","ND","ND","ND","ND","0","0"],
    [76153,"2019-01-12T20:00:00","11.2","ND","ND","ND","ND","0.7","ND","ND","ND","ND","0","0"],
    [76154,"2019-01-12T21:00:00","33.9","ND","ND","ND","ND","1.3","ND","ND","ND","ND","0","0"],
    [76155,"2019-01-12T22:00:00","10.8","ND","ND","ND","ND","1.2","ND","ND","ND","ND","0","0"],
    [76156,"2019-01-12T23:00:00","39","ND","ND","ND","ND","0.5","ND","ND","ND","ND","0","0"],
    [76157,"2019-01-13T00:00:00","50.1","ND","ND","ND","ND","0.5","ND","ND","ND","ND","0","0"],
    [76158,"2019-01-13T01:00:00","11.4","ND","ND","ND","ND","0.6","ND","ND","ND","ND","0","0"],
    [76159,"2019-01-13T02:00:00","0.3","ND","ND","ND","ND","0.7","ND","ND","ND","ND","0","0"],
    [76160,"2019-01-13T03:00:00","32.5","ND","ND","ND","ND","1.7","ND","ND","ND","ND","0","0"],
    [76161,"2019-01-13T04:00:00","37.7","ND","ND","ND","ND","0.8","ND","ND","ND","ND","0","0"],
    [76162,"2019-01-13T05:00:00","41.8","ND","ND","ND","ND","1.2","ND","ND","ND","ND","0","0"],
    [76163,"2019-01-13T06:00:00","8.4","ND","ND","ND","ND","1.4","ND","ND","ND","ND","0","0"],
    [76164,"2019-01-13T07:00:00","55.6","ND","ND","ND","ND","1.5","ND","ND","ND","ND","0","0"],
    [76165,"2019-01-13T08:00:00","59","ND","ND","ND","ND","1.6","ND","ND","ND","ND","47","0"],
    [76166,"2019-01-13T09:00:00","50.1","ND","ND","ND","ND","1.5","ND","ND","ND","ND","159","0"],
    [76167,"2019-01-13T10:00:00","50.3","ND","ND","ND","ND","1.3","ND","ND","ND","ND","402","0"],
    [76168,"2019-01-13T11:00:00","28.6","ND","ND","ND","ND","1.1","ND","ND","ND","ND","617","0"],
    [76169,"2019-01-13T12:00:00","18.1","ND","ND","ND","ND","1","ND","ND","ND","ND","665","0"],
    [76170,"2019-01-13T13:00:00","30.4","ND","ND","ND","ND","1","ND","ND","ND","ND","665","0"],
    [76171,"2019-01-13T14:00:00","30.6","ND","ND","ND","ND","0.9","ND","ND","ND","ND","665","0"],
    [76172,"2019-01-13T15:00:00","25.7","ND","ND","ND","ND","1.3","ND","ND","ND","ND","666","0"],
    [76173,"2019-01-13T16:00:00","5.3","ND","ND","ND","ND","0.7","ND","ND","ND","ND","644","0"],
    [76174,"2019-01-13T17:00:00","ND","ND","ND","ND","ND","0.9","ND","ND","ND","ND","626","0"],
    [76175,"2019-01-13T18:00:00","3","ND","ND","ND","ND","1.1","ND","ND","ND","ND","499","0"],
    [76176,"2019-01-13T19:00:00","ND","ND","ND","ND","ND","1","ND","ND","ND","ND","0","0"],
    [76177,"2019-01-13T20:00:00","6.6","ND","ND","ND","ND","0.5","ND","ND","ND","ND","0","0"],
    [76178,"2019-01-13T21:00:00","23.5","ND","ND","ND","ND","0.7","ND","ND","ND","ND","0","0"],
    [76179,"2019-01-13T22:00:00","22.4","ND","ND","ND","ND","0.4","ND","ND","ND","ND","0","0"],
    [76180,"2019-01-13T23:00:00","7.4","ND","ND","ND","ND","0.8","ND","ND","ND","ND","0","0"],
    [76181,"2019-01-14T00:00:00","15.3","ND","ND","ND","ND","0.8","ND","ND","ND","ND","0","0"],
    [76182,"2019-01-14T01:00:00","6.4","ND","ND","ND","ND","0.6","ND","ND","ND","ND","0","0"],
    [76183,"2019-01-14T02:00:00","20.4","ND","ND","ND","ND","0.8","ND","ND","ND","ND","0","0"],
    [76184,"2019-01-14T03:00:00","12.7","ND","ND","ND","ND","0.8","ND","ND","ND","ND","0","0"],
    [76185,"2019-01-14T04:00:00","0.8","ND","ND","ND","ND","1.1","ND","ND","ND","ND","0","0"],
    [76186,"2019-01-14T05:00:00","26.5","ND","ND","ND","ND","1","ND","ND","ND","ND","0","0"],
    [76187,"2019-01-14T06:00:00","31.5","ND","ND","ND","ND","0.6","ND","ND","ND","ND","0","0"],
    [76188,"2019-01-14T07:00:00","9.9","ND","ND","ND","ND","0.3","ND","ND","ND","ND","0","0"],
    [76189,"2019-01-14T08:00:00","38.8","ND","ND","ND","ND","0.5","ND","ND","ND","ND","35","0"],
    [76190,"2019-01-14T09:00:00","51","ND","ND","ND","ND","0.4","ND","ND","ND","ND","248","0"],
    [76191,"2019-01-14T10:00:00","39.4","ND","ND","ND","ND","0.5","ND","ND","ND","ND","588","0"],
    [76192,"2019-01-14T11:00:00","32.5","ND","ND","ND","ND","0.7","ND","ND","ND","ND","465","0"],
    [76193,"2019-01-14T12:00:00","46.7","ND","ND","ND","ND","1","ND","ND","ND","ND","665","0"],
    [76194,"2019-01-14T13:00:00","38.8","ND","ND","ND","ND","1.4","ND","ND","ND","ND","665","0"],
    [76195,"2019-01-14T14:00:00","27.8","ND","ND","ND","ND","1.4","ND","ND","ND","ND","653","0"],
    [76196,"2019-01-14T15:00:00","2.2","ND","ND","ND","ND","0.8","ND","ND","ND","ND","475","0"],
    [76197,"2019-01-14T16:00:00","8.5","ND","ND","ND","ND","0.7","ND","ND","ND","ND","588","0"],
    [76198,"2019-01-14T17:00:00","0.6","ND","ND","ND","ND","0.7","ND","ND","ND","ND","301","0"],
    [76199,"2019-01-14T18:00:00","3.9","ND","ND","ND","ND","0.6","ND","ND","ND","ND","284","0"],
    [76200,"2019-01-14T19:00:00","1.5","ND","ND","ND","ND","0.2","ND","ND","ND","ND","0","0.2"],
    [76201,"2019-01-14T20:00:00","27","ND","ND","ND","ND","0.4","ND","ND","ND","ND","0","0.2"],
    [76202,"2019-01-14T21:00:00","44.4","ND","ND","ND","ND","1","ND","ND","ND","ND","0","0"],
    [76203,"2019-01-14T22:00:00","41.1","ND","ND","ND","ND","1","ND","ND","ND","ND","0","0"],
    [76204,"2019-01-14T23:00:00","28.7","ND","ND","ND","ND","0.6","ND","ND","ND","ND","0","0"],
    [76205,"2019-01-15T00:00:00","36.7","ND","ND","ND","ND","0.7","ND","ND","ND","ND","0","0"],
    [76206,"2019-01-15T01:00:00","1.8","ND","ND","ND","ND","1.3","ND","ND","ND","ND","0","0"],
    [76207,"2019-01-15T02:00:00","27.7","ND","ND","ND","ND","0.8","ND","ND","ND","ND","0","0"],
    [76208,"2019-01-15T03:00:00","64.8","ND","ND","ND","ND","1.7","ND","ND","ND","ND","0","0"],
    [76209,"2019-01-15T04:00:00","57.2","ND","ND","ND","ND","1.6","ND","ND","ND","ND","0","0"],
    [76210,"2019-01-15T05:00:00","37.3","ND","ND","ND","ND","1","ND","ND","ND","ND","0","0"],
    [76211,"2019-01-15T06:00:00","55.9","ND","ND","ND","ND","1.1","ND","ND","ND","ND","0","0"],
    [76212,"2019-01-15T07:00:00","60.9","ND","ND","ND","ND","0.9","ND","ND","ND","ND","0","0"],
    [76213,"2019-01-15T08:00:00","48.4","ND","ND","ND","ND","0.9","ND","ND","ND","ND","51","0"],
    [76214,"2019-01-15T09:00:00","70.9","ND","ND","ND","ND","1.2","ND","ND","ND","ND","320","0"],
    [76215,"2019-01-15T10:00:00","74.5","ND","ND","ND","ND","1.1","ND","ND","ND","ND","475","0"],
    [76216,"2019-01-15T11:00:00","81.8","ND","ND","ND","ND","1.9","ND","ND","ND","ND","638","0"],
    [76217,"2019-01-15T12:00:00","30.7","ND","ND","ND","ND","1.2","ND","ND","ND","ND","662","0"],
    [76218,"2019-01-15T13:00:00","14.5","ND","ND","ND","ND","1","ND","ND","ND","ND","650","0"],
    [76219,"2019-01-15T14:00:00","20.2","ND","ND","ND","ND","1","ND","ND","ND","ND","663","0"],
    [76220,"2019-01-15T15:00:00","34","ND","ND","ND","ND","1.1","ND","ND","ND","ND","663","0"],
    [76221,"2019-01-15T16:00:00","6.3","ND","ND","ND","ND","1.4","ND","ND","ND","ND","616","0"],
    [76222,"2019-01-15T17:00:00","56.7","ND","ND","ND","ND","0.9","ND","ND","ND","ND","633","0"],
    [76223,"2019-01-15T18:00:00","6.2","ND","ND","ND","ND","0.5","ND","ND","ND","ND","577","0"],
    [76224,"2019-01-15T19:00:00","0.7","ND","ND","ND","ND","0.8","ND","ND","ND","ND","0","0"],
    [76225,"2019-01-15T20:00:00","17.8","ND","ND","ND","ND","0.9","ND","ND","ND","ND","0","0.1"],
    [76226,"2019-01-15T21:00:00","15.6","ND","ND","ND","ND","0.6","ND","ND","ND","ND","0","0"],
    [76227,"2019-01-15T22:00:00","43.3","ND","ND","ND","ND","0.7","ND","ND","ND","ND","0","0"],
    [76228,"2019-01-15T23:00:00","59.8","ND","ND","ND","ND","1.2","ND","ND","ND","ND","0","0"],
    [76229,"2019-01-16T00:00:00","15.5","ND","ND","ND","ND","1.2","ND","ND","ND","ND","0","0"],
    [76230,"2019-01-16T01:00:00","17.3","ND","ND","ND","ND","1","ND","ND","ND","ND","0","0"],
    [76231,"2019-01-16T02:00:00","28.5","ND","ND","ND","ND","1.5","ND","ND","ND","ND","0","0"],
    [76232,"2019-01-16T03:00:00","43","ND","ND","ND","ND","1","ND","ND","ND","ND","0","0"],
    [76233,"2019-01-16T04:00:00","68.3","ND","ND","ND","ND","1.2","ND","ND","ND","ND","0","0"],
    [76234,"2019-01-16T05:00:00","49.2","ND","ND","ND","ND","1.6","ND","ND","ND","ND","0","0"],
    [76235,"2019-01-16T06:00:00","53.6","ND","ND","ND","ND","1.1","ND","ND","ND","ND","0","0"],
    [76236,"2019-01-16T07:00:00","67.6","ND","ND","ND","ND","1.7","ND","ND","ND","ND","0","0"],
    [76237,"2019-01-16T08:00:00","73.7","ND","ND","ND","ND","0.9","ND","ND","ND","ND","26","0.1"],
    [76238,"2019-01-16T09:00:00","45.5","ND","ND","ND","ND","0.6","ND","ND","ND","ND","383","0"],
    [76239,"2019-01-16T10:00:00","43.2","ND","ND","ND","ND","0.9","ND","ND","ND","ND","528","0"],
    [76240,"2019-01-16T11:00:00","62","ND","ND","ND","ND","1.3","ND","ND","ND","ND","591","0"],
    [76241,"2019-01-16T12:00:00","52.3","ND","ND","ND","ND","2","ND","ND","ND","ND","665","0"],
    [76242,"2019-01-16T13:00:00","47.9","ND","ND","ND","ND","1.4","ND","ND","ND","ND","665","0"],
    [76243,"2019-01-16T14:00:00","27.8","ND","ND","ND","ND","0.8","ND","ND","ND","ND","666","0"],
    [76244,"2019-01-16T15:00:00","9.9","ND","ND","ND","ND","1","ND","ND","ND","ND","642","0"],
    [76245,"2019-01-16T16:00:00","19.8","ND","ND","ND","ND","1.1","ND","ND","ND","ND","658","0"],
    [76246,"2019-01-16T17:00:00","12","ND","ND","ND","ND","0.9","ND","ND","ND","ND","634","13.6"],
    [76247,"2019-01-16T18:00:00","13.1","ND","ND","ND","ND","0.8","ND","ND","ND","ND","399","0.2"],
    [76248,"2019-01-16T19:00:00","3.7","ND","ND","ND","ND","0.9","ND","ND","ND","ND","0","ND"],
    [76249,"2019-01-16T20:00:00","18.8","ND","ND","ND","ND","0.6","ND","ND","ND","ND","0","ND"],
    [76250,"2019-01-16T21:00:00","16.1","ND","ND","ND","ND","0.6","ND","ND","ND","ND","0","ND"],
    [76251,"2019-01-16T22:00:00","22.8","ND","ND","ND","ND","2.2","ND","ND","ND","ND","0","ND"],
    [76252,"2019-01-16T23:00:00","35.6","ND","ND","ND","ND","0.8","ND","ND","ND","ND","0","ND"],
    [76253,"2019-01-17T00:00:00","42.8","ND","ND","ND","ND","0.3","ND","ND","ND","ND","0","ND"],
    [76254,"2019-01-17T01:00:00","53.5","ND","ND","ND","ND","1.3","ND","ND","ND","ND","0","0"],
    [76255,"2019-01-17T02:00:00","64.6","ND","ND","ND","ND","2.3","ND","ND","ND","ND","0","0"],
    [76256,"2019-01-17T03:00:00","57.9","ND","ND","ND","ND","2.6","ND","ND","ND","ND","0","0"],
    [76257,"2019-01-17T04:00:00","23.6","ND","ND","ND","ND","1.3","ND","ND","ND","ND","0","0"],
    [76258,"2019-01-17T05:00:00","43.2","ND","ND","ND","ND","1.8","ND","ND","ND","ND","0","0"],
    [76259,"2019-01-17T06:00:00","61.1","ND","ND","ND","ND","2.5","ND","ND","ND","ND","0","0"],
    [76260,"2019-01-17T07:00:00","92.5","ND","ND","ND","ND","0.7","ND","ND","ND","ND","0","0"],
    [76261,"2019-01-17T08:00:00","73.6","ND","ND","ND","ND","0.7","ND","ND","ND","ND","48","0"],
    [76262,"2019-01-17T09:00:00","52.6","ND","ND","ND","ND","0.8","ND","ND","ND","ND","437","0"],
    [76263,"2019-01-17T10:00:00","72.7","ND","ND","ND","ND","1.5","ND","ND","ND","ND","663","0"],
    [76264,"2019-01-17T11:00:00","35.7","ND","ND","ND","ND","1.7","ND","ND","ND","ND","665","0"],
    [76265,"2019-01-17T12:00:00","65.6","ND","ND","ND","ND","2","ND","ND","ND","ND","665","ND"],
    [76266,"2019-01-17T13:00:00","45.7","ND","ND","ND","ND","1.6","ND","ND","ND","ND","666","ND"],
    [76267,"2019-01-17T14:00:00","22.7","ND","ND","ND","ND","1.6","ND","ND","ND","ND","666","0"],
    [76268,"2019-01-17T15:00:00","40.5","ND","ND","ND","ND","1.2","ND","ND","ND","ND","623","ND"],
    [76269,"2019-01-17T16:00:00","28.1","ND","ND","ND","ND","1","ND","ND","ND","ND","658","ND"],
    [76270,"2019-01-17T17:00:00","29.8","ND","ND","ND","ND","0.7","ND","ND","ND","ND","666","0"],
    [76271,"2019-01-17T18:00:00","21.1","ND","ND","ND","ND","0.8","ND","ND","ND","ND","599","0"],
    [76272,"2019-01-17T19:00:00","1.4","ND","ND","ND","ND","0.9","ND","ND","ND","ND","0","0.7"],
    [76273,"2019-01-17T20:00:00","26.2","ND","ND","ND","ND","0.5","ND","ND","ND","ND","0","0"],
    [76274,"2019-01-17T21:00:00","42","ND","ND","ND","ND","0.9","ND","ND","ND","ND","0","0"],
    [76275,"2019-01-17T22:00:00","44","ND","ND","ND","ND","2.5","ND","ND","ND","ND","0","0.1"],
    [76276,"2019-01-17T23:00:00","16","ND","ND","ND","ND","1.2","ND","ND","ND","ND","0","0"],
    [76277,"2019-01-18T00:00:00","29.9","ND","ND","ND","ND","0.5","ND","ND","ND","ND","0","0"],
    [76278,"2019-01-18T01:00:00","34.1","ND","ND","ND","ND","1.3","ND","ND","ND","ND","0","ND"],
    [76279,"2019-01-18T02:00:00","9.7","ND","ND","ND","ND","2.1","ND","ND","ND","ND","0","0"],
    [76280,"2019-01-18T03:00:00","9.8","ND","ND","ND","ND","1.4","ND","ND","ND","ND","0","0"],
    [76281,"2019-01-18T04:00:00","57.3","ND","ND","ND","ND","1.8","ND","ND","ND","ND","0","0"],
    [76282,"2019-01-18T05:00:00","46.6","ND","ND","ND","ND","2","ND","ND","ND","ND","0","0"],
    [76283,"2019-01-18T06:00:00","28.6","ND","ND","ND","ND","1.2","ND","ND","ND","ND","0","0"],
    [76284,"2019-01-18T07:00:00","44.3","ND","ND","ND","ND","1.1","ND","ND","ND","ND","0","0"],
    [76285,"2019-01-18T08:00:00","89","ND","ND","ND","ND","0.7","ND","ND","ND","ND","17","ND"],
    [76286,"2019-01-18T09:00:00","130.4","ND","ND","ND","ND","2.5","ND","ND","ND","ND","160","ND"],
    [76287,"2019-01-18T10:00:00","81.4","ND","ND","ND","ND","2.3","ND","ND","ND","ND","269","ND"],
    [76288,"2019-01-18T11:00:00","73.5","ND","ND","ND","ND","1.8","ND","ND","ND","ND","316","ND"],
    [76289,"2019-01-18T12:00:00","48.7","ND","ND","ND","ND","1.4","ND","ND","ND","ND","562","ND"],
    [76290,"2019-01-18T13:00:00","24.4","ND","ND","ND","ND","1.8","ND","ND","ND","ND","611","0"],
    [76291,"2019-01-18T14:00:00","59.2","ND","ND","ND","ND","1.5","ND","ND","ND","ND","664","0"],
    [76292,"2019-01-18T15:00:00","54.1","ND","ND","ND","ND","1.3","ND","ND","ND","ND","665","ND"],
    [76293,"2019-01-18T16:00:00","11.9","ND","ND","ND","ND","1.8","ND","ND","ND","ND","661","0"],
    [76294,"2019-01-18T17:00:00","25.9","ND","ND","ND","ND","1.4","ND","ND","ND","ND","575","ND"],
    [76295,"2019-01-18T18:00:00","44","ND","ND","ND","ND","0.8","ND","ND","ND","ND","293","ND"],
    [76296,"2019-01-18T19:00:00","24.9","ND","ND","ND","ND","0.7","ND","ND","ND","ND","0","0"],
    [76297,"2019-01-18T20:00:00","9.3","ND","ND","ND","ND","1.1","ND","ND","ND","ND","0","0.1"],
    [76298,"2019-01-18T21:00:00","39.6","ND","ND","ND","ND","0.7","ND","ND","ND","ND","0","0.2"],
    [76299,"2019-01-18T22:00:00","51.7","ND","ND","ND","ND","0.5","ND","ND","ND","ND","0","ND"],
    [76300,"2019-01-18T23:00:00","30.3","ND","ND","ND","ND","1.1","ND","ND","ND","ND","0","0"],
    [76301,"2019-01-19T00:00:00","22","ND","ND","ND","ND","1.2","ND","ND","ND","ND","0","0"],
    [76302,"2019-01-19T01:00:00","36.4","ND","ND","ND","ND","0.6","ND","ND","ND","ND","0","0"],
    [76303,"2019-01-19T02:00:00","43.2","ND","ND","ND","ND","2.2","ND","ND","ND","ND","0","ND"],
    [76304,"2019-01-19T03:00:00","46","ND","ND","ND","ND","1.4","ND","ND","ND","ND","0","ND"],
    [76305,"2019-01-19T04:00:00","35.3","ND","ND","ND","ND","1.4","ND","ND","ND","ND","0","0"],
    [76306,"2019-01-19T05:00:00","60.8","ND","ND","ND","ND","1.9","ND","ND","ND","ND","0","ND"],
    [76307,"2019-01-19T06:00:00","42.4","ND","ND","ND","ND","1.7","ND","ND","ND","ND","0","0"],
    [76308,"2019-01-19T07:00:00","52.4","ND","ND","ND","ND","1.4","ND","ND","ND","ND","0","ND"],
    [76309,"2019-01-19T08:00:00","50.5","ND","ND","ND","ND","0.7","ND","ND","ND","ND","17","ND"],
    [76310,"2019-01-19T09:00:00","92.5","ND","ND","ND","ND","1.3","ND","ND","ND","ND","102","ND"],
    [76311,"2019-01-19T10:00:00","119.4","ND","ND","ND","ND","1.2","ND","ND","ND","ND","321","ND"],
    [76312,"2019-01-19T11:00:00","99.2","ND","ND","ND","ND","1.5","ND","ND","ND","ND","572","ND"],
    [76313,"2019-01-19T12:00:00","31.9","ND","ND","ND","ND","1.9","ND","ND","ND","ND","665","ND"],
    [76314,"2019-01-19T13:00:00","14.5","ND","ND","ND","ND","1.5","ND","ND","ND","ND","665","ND"],
    [76315,"2019-01-19T14:00:00","45.2","ND","ND","ND","ND","1.7","ND","ND","ND","ND","666","ND"],
    [76316,"2019-01-19T15:00:00","46.6","ND","ND","ND","ND","1.6","ND","ND","ND","ND","662","ND"],
    [76317,"2019-01-19T16:00:00","33.1","ND","ND","ND","ND","1.5","ND","ND","ND","ND","540","ND"],
    [76318,"2019-01-19T17:00:00","11.7","ND","ND","ND","ND","1.1","ND","ND","ND","ND","420","ND"],
    [76319,"2019-01-19T18:00:00","15.8","ND","ND","ND","ND","1.3","ND","ND","ND","ND","454","0"],
    [76320,"2019-01-19T19:00:00","26.3","ND","ND","ND","ND","0.9","ND","ND","ND","ND","0","0"],
    [76321,"2019-01-19T20:00:00","12.5","ND","ND","ND","ND","0.7","ND","ND","ND","ND","0","ND"],
    [76322,"2019-01-19T21:00:00","13.5","ND","ND","ND","ND","1.2","ND","ND","ND","ND","0","0"],
    [76323,"2019-01-19T22:00:00","29.2","ND","ND","ND","ND","2.6","ND","ND","ND","ND","0","ND"],
    [76324,"2019-01-19T23:00:00","21.1","ND","ND","ND","ND","1.2","ND","ND","ND","ND","0","0"],
    [76325,"2019-01-20T00:00:00","50.4","ND","ND","ND","ND","0.9","ND","ND","ND","ND","0","ND"],
    [76326,"2019-01-20T01:00:00","47.9","ND","ND","ND","ND","0.9","ND","ND","ND","ND","0","0"],
    [76327,"2019-01-20T02:00:00","29.3","ND","ND","ND","ND","1.8","ND","ND","ND","ND","0","0"],
    [76328,"2019-01-20T03:00:00","8.3","ND","ND","ND","ND","0.7","ND","ND","ND","ND","0","0"],
    [76329,"2019-01-20T04:00:00","4.8","ND","ND","ND","ND","1.7","ND","ND","ND","ND","0","0"],
    [76330,"2019-01-20T05:00:00","35.2","ND","ND","ND","ND","1.2","ND","ND","ND","ND","0","0"],
    [76331,"2019-01-20T06:00:00","19.6","ND","ND","ND","ND","1.4","ND","ND","ND","ND","0","0"],
    [76332,"2019-01-20T07:00:00","5.6","ND","ND","ND","ND","1.4","ND","ND","ND","ND","0","0"],
    [76333,"2019-01-20T08:00:00","13.6","ND","ND","ND","ND","1.3","ND","ND","ND","ND","24","0"],
    [76334,"2019-01-20T09:00:00","38.8","ND","ND","ND","ND","1.3","ND","ND","ND","ND","217","0"],
    [76335,"2019-01-20T10:00:00","51.1","ND","ND","ND","ND","1.4","ND","ND","ND","ND","432","0"],
    [76336,"2019-01-20T11:00:00","41.1","ND","ND","ND","ND","1.4","ND","ND","ND","ND","621","0"],
    [76337,"2019-01-20T12:00:00","26.6","ND","ND","ND","ND","1.8","ND","ND","ND","ND","665","0"],
    [76338,"2019-01-20T13:00:00","13","ND","ND","ND","ND","1.4","ND","ND","ND","ND","665","ND"],
    [76339,"2019-01-20T14:00:00","19.4","ND","ND","ND","ND","0.9","ND","ND","ND","ND","665","0"],
    [76340,"2019-01-20T15:00:00","7.8","ND","ND","ND","ND","1.1","ND","ND","ND","ND","595","0.3"],
    [76341,"2019-01-20T16:00:00","0.4","ND","ND","ND","ND","1.1","ND","ND","ND","ND","665","ND"],
    [76342,"2019-01-20T17:00:00","4","ND","ND","ND","ND","1.3","ND","ND","ND","ND","566","0"],
    [76343,"2019-01-20T18:00:00","4.3","ND","ND","ND","ND","0.7","ND","ND","ND","ND","317","0"],
    [76344,"2019-01-20T19:00:00","7.3","ND","ND","ND","ND","0.8","ND","ND","ND","ND","0","0"],
    [76345,"2019-01-20T20:00:00","16.6","ND","ND","ND","ND","0.5","ND","ND","ND","ND","0","0.3"],
    [76346,"2019-01-20T21:00:00","20.9","ND","ND","ND","ND","0.5","ND","ND","ND","ND","0","0"],
    [76347,"2019-01-20T22:00:00","21","ND","ND","ND","ND","0.9","ND","ND","ND","ND","0","1.8"],
    [76348,"2019-01-20T23:00:00","23.6","ND","ND","ND","ND","0.8","ND","ND","ND","ND","0","0"],
    [76349,"2019-01-21T00:00:00","23.2","ND","ND","ND","ND","0.5","ND","ND","ND","ND","0","0"],
    [76350,"2019-01-21T01:00:00","22.5","ND","ND","ND","ND","0.8","ND","ND","ND","ND","0","ND"],
    [76351,"2019-01-21T02:00:00","37","ND","ND","ND","ND","1","ND","ND","ND","ND","0","0"],
    [76352,"2019-01-21T03:00:00","21.5","ND","ND","ND","ND","2","ND","ND","ND","ND","0","0"],
    [76353,"2019-01-21T04:00:00","16.1","ND","ND","ND","ND","1.2","ND","ND","ND","ND","0","ND"],
    [76354,"2019-01-21T05:00:00","24.9","ND","ND","ND","ND","1.1","ND","ND","ND","ND","0","0"],
    [76355,"2019-01-21T06:00:00","24.5","ND","ND","ND","ND","1.2","ND","ND","ND","ND","0","0"],
    [76356,"2019-01-21T07:00:00","23","ND","ND","ND","ND","1.1","ND","ND","ND","ND","0","0"],
    [76357,"2019-01-21T08:00:00","31.8","ND","ND","ND","ND","0.9","ND","ND","ND","ND","8","0"],
    [76358,"2019-01-21T09:00:00","62.8","ND","ND","ND","ND","0.5","ND","ND","ND","ND","120","2"],
    [76359,"2019-01-21T10:00:00","65.7","ND","ND","ND","ND","1.2","ND","ND","ND","ND","429","0"],
    [76360,"2019-01-21T11:00:00","52.8","ND","ND","ND","ND","1.6","ND","ND","ND","ND","665","0"],
    [76361,"2019-01-21T12:00:00","43.5","ND","ND","ND","ND","1.4","ND","ND","ND","ND","665","0"],
    [76362,"2019-01-21T13:00:00","54.5","ND","ND","ND","ND","1.9","ND","ND","ND","ND","666","0"],
    [76363,"2019-01-21T14:00:00","24.6","ND","ND","ND","ND","1.2","ND","ND","ND","ND","666","0"],
    [76364,"2019-01-21T15:00:00","20.3","ND","ND","ND","ND","1.3","ND","ND","ND","ND","647","ND"],
    [76365,"2019-01-21T16:00:00","19.6","ND","ND","ND","ND","1.8","ND","ND","ND","ND","613","0"],
    [76366,"2019-01-21T17:00:00","9.4","ND","ND","ND","ND","1.4","ND","ND","ND","ND","665","0"],
    [76367,"2019-01-21T18:00:00","24.8","ND","ND","ND","ND","1","ND","ND","ND","ND","599","0"],
    [76368,"2019-01-21T19:00:00","11.2","ND","ND","ND","ND","1.1","ND","ND","ND","ND","0","0"],
    [76369,"2019-01-21T20:00:00","5.7","ND","ND","ND","ND","1.1","ND","ND","ND","ND","0","0"],
    [76370,"2019-01-21T21:00:00","3.2","ND","ND","ND","ND","1.4","ND","ND","ND","ND","0","0"],
    [76371,"2019-01-21T22:00:00","31.4","ND","ND","ND","ND","2.6","ND","ND","ND","ND","0","0"],
    [76372,"2019-01-21T23:00:00","31","ND","ND","ND","ND","0.8","ND","ND","ND","ND","0","ND"],
    [76373,"2019-01-22T00:00:00","10.8","ND","ND","ND","ND","1.1","ND","ND","ND","ND","0","0"],
    [76374,"2019-01-22T01:00:00","36.7","ND","ND","ND","ND","1.3","ND","ND","ND","ND","0","0"],
    [76375,"2019-01-22T02:00:00","37.7","ND","ND","ND","ND","0.8","ND","ND","ND","ND","0","0"],
    [76376,"2019-01-22T03:00:00","24.7","ND","ND","ND","ND","1.8","ND","ND","ND","ND","0","0"],
    [76377,"2019-01-22T04:00:00","44.4","ND","ND","ND","ND","0.9","ND","ND","ND","ND","0","0"],
    [76378,"2019-01-22T05:00:00","40.5","ND","ND","ND","ND","1.1","ND","ND","ND","ND","0","0"],
    [76379,"2019-01-22T06:00:00","24.4","ND","ND","ND","ND","1.3","ND","ND","ND","ND","0","0"],
    [76380,"2019-01-22T07:00:00","36.8","ND","ND","ND","ND","0.8","ND","ND","ND","ND","0","0"],
    [76381,"2019-01-22T08:00:00","64.3","ND","ND","ND","ND","0.2","ND","ND","ND","ND","34","0"],
    [76382,"2019-01-22T09:00:00","114.2","ND","ND","ND","ND","0.8","ND","ND","ND","ND","380","0"],
    [76383,"2019-01-22T10:00:00","46","ND","ND","ND","ND","1.2","ND","ND","ND","ND","656","0"],
    [76384,"2019-01-22T11:00:00","29.6","ND","ND","ND","ND","1.5","ND","ND","ND","ND","665","0"],
    [76385,"2019-01-22T12:00:00","40.4","ND","ND","ND","ND","1.8","ND","ND","ND","ND","665","0"],
    [76386,"2019-01-22T13:00:00","38.4","ND","ND","ND","ND","1.3","ND","ND","ND","ND","662","0"],
    [76387,"2019-01-22T14:00:00","36.6","ND","ND","ND","ND","1.3","ND","ND","ND","ND","666","3.1"],
    [76388,"2019-01-22T15:00:00","48.3","ND","ND","ND","ND","1.1","ND","ND","ND","ND","666","0.8"],
    [76389,"2019-01-22T16:00:00","22.7","ND","ND","ND","8.7","1.3","ND","ND","ND","ND","582","0"],
    [76390,"2019-01-22T17:00:00","40","ND","ND","ND","8","1.2","ND","ND","ND","ND","666","0.1"],
    [76391,"2019-01-22T18:00:00","22","ND","ND","ND","7.7","1.1","ND","ND","ND","ND","631","0"],
    [76392,"2019-01-22T19:00:00","4.6","ND","ND","ND","6.9","0.9","ND","ND","ND","ND","0","0"],
    [76393,"2019-01-22T20:00:00","19.4","ND","ND","ND","ND","0.9","ND","ND","ND","ND","0","0"],
    [76394,"2019-01-22T21:00:00","29.6","ND","ND","ND","ND","1","ND","ND","ND","ND","0","0"],
    [76395,"2019-01-22T22:00:00","44.5","ND","ND","ND","ND","1","ND","ND","ND","ND","0","ND"],
    [76396,"2019-01-22T23:00:00","6.8","ND","ND","ND","ND","1","ND","ND","ND","ND","0","ND"],
    [76397,"2019-01-23T00:00:00","27.7","ND","ND","ND","ND","1","ND","ND","ND","ND","0","ND"],
    [76398,"2019-01-23T01:00:00","38.1","ND","ND","ND","ND","1.7","ND","ND","ND","ND","0","0"],
    [76399,"2019-01-23T02:00:00","43","ND","ND","ND","ND","1.1","ND","ND","ND","ND","0","0"],
    [76400,"2019-01-23T03:00:00","40.1","ND","ND","ND","ND","1.4","ND","ND","ND","ND","0","0"],
    [76401,"2019-01-23T04:00:00","54.1","ND","ND","ND","ND","0.7","ND","ND","ND","ND","0","0"],
    [76402,"2019-01-23T05:00:00","23.6","ND","ND","ND","ND","1.6","ND","ND","ND","ND","0","0"],
    [76403,"2019-01-23T06:00:00","33.3","ND","ND","ND","ND","1.1","ND","ND","ND","ND","0","0"],
    [76404,"2019-01-23T07:00:00","37.7","ND","ND","ND","ND","0.7","ND","ND","ND","ND","0","0"],
    [76405,"2019-01-23T08:00:00","71.7","ND","ND","ND","ND","0.8","ND","ND","ND","ND","30","0"],
    [76406,"2019-01-23T09:00:00","73.7","ND","ND","ND","ND","0.6","ND","ND","ND","ND","357","0"],
    [76407,"2019-01-23T10:00:00","ND","ND","ND","ND","ND","1.2","ND","ND","ND","ND","559","0"],
    [76408,"2019-01-23T11:00:00","81.2","ND","ND","ND","ND","1.9","ND","ND","ND","ND","656","0"],
    [76409,"2019-01-23T12:00:00","7.1","ND","ND","ND","ND","1.4","ND","ND","ND","ND","665","0"],
    [76410,"2019-01-23T13:00:00","56.2","ND","ND","ND","ND","1.5","ND","ND","ND","ND","666","0"],
    [76411,"2019-01-23T14:00:00","32.2","ND","ND","ND","ND","1.4","ND","ND","ND","ND","666","0"],
    [76412,"2019-01-23T15:00:00","60.2","ND","ND","ND","ND","1.8","ND","ND","ND","ND","665","0"],
    [76413,"2019-01-23T16:00:00","11.9","ND","ND","ND","ND","0.8","ND","ND","ND","ND","642","0"],
    [76414,"2019-01-23T17:00:00","25.7","ND","ND","ND","ND","1.6","ND","ND","ND","ND","666","0"],
    [76415,"2019-01-23T18:00:00","48.8","ND","ND","ND","ND","0.7","ND","ND","ND","ND","653","0"],
    [76416,"2019-01-23T19:00:00","8.7","ND","ND","ND","ND","0.6","ND","ND","ND","ND","0","0.3"],
    [76417,"2019-01-23T20:00:00","3.5","ND","ND","ND","ND","1.1","ND","ND","ND","ND","0","0"],
    [76418,"2019-01-23T21:00:00","34.5","ND","ND","ND","ND","2.1","ND","ND","ND","ND","0","0"],
    [76419,"2019-01-23T22:00:00","17.5","ND","ND","ND","ND","1.6","ND","ND","ND","ND","0","0"],
    [76420,"2019-01-23T23:00:00","23.4","ND","ND","ND","ND","2.1","ND","ND","ND","ND","0","0"],
    [76421,"2019-01-24T00:00:00","47.3","ND","ND","ND","ND","2","ND","ND","ND","ND","0","0"],
    [76422,"2019-01-24T01:00:00","38.1","ND","ND","ND","ND","1.1","ND","ND","ND","ND","0","0"],
    [76423,"2019-01-24T02:00:00","57","ND","ND","ND","ND","1.3","ND","ND","ND","ND","0","0"],
    [76424,"2019-01-24T03:00:00","48.6","ND","ND","ND","ND","1.1","ND","ND","ND","ND","0","0"],
    [76425,"2019-01-24T04:00:00","65.6","ND","ND","ND","6.2","1.4","ND","ND","ND","ND","0","0"],
    [76426,"2019-01-24T05:00:00","82.1","ND","ND","ND","5.8","1.4","ND","ND","ND","ND","0","0"],
    [76427,"2019-01-24T06:00:00","59.7","ND","ND","ND","5.7","0.7","ND","ND","ND","ND","0","0"],
    [76428,"2019-01-24T07:00:00","55.7","ND","ND","ND","6","1.1","ND","ND","ND","ND","0","0"],
    [76429,"2019-01-24T08:00:00","73.4","ND","ND","ND","2.4","2.5","ND","ND","ND","ND","38","0"],
    [76430,"2019-01-24T09:00:00","62.4","ND","ND","ND","2.8","2.4","ND","ND","ND","ND","366","0"],
    [76431,"2019-01-24T10:00:00","43.3","ND","ND","ND","20.9","1.9","ND","ND","ND","ND","664","0"],
    [76432,"2019-01-24T11:00:00","59.7","ND","ND","ND","43.8","2","ND","ND","ND","ND","639","0"],
    [76433,"2019-01-24T12:00:00","54","ND","ND","ND","63.1","1.8","ND","ND","ND","ND","665","0"],
    [76434,"2019-01-24T13:00:00","45.3","ND","ND","ND","99","2.3","ND","ND","ND","ND","666","0"],
    [76435,"2019-01-24T14:00:00","54.1","ND","ND","ND","116.9","1.4","ND","ND","ND","ND","663","0"],
    [76436,"2019-01-24T15:00:00","19.2","ND","ND","ND","119.1","2.1","ND","ND","ND","ND","666","0"],
    [76437,"2019-01-24T16:00:00","34.3","ND","ND","ND","60.8","1.7","ND","ND","ND","ND","654","0"],
    [76438,"2019-01-24T17:00:00","52","ND","ND","ND","49.3","1.4","ND","ND","ND","ND","543","0.1"],
    [76439,"2019-01-24T18:00:00","24.9","ND","ND","ND","40.9","1.3","ND","ND","ND","ND","630","0"],
    [76440,"2019-01-24T19:00:00","11.3","ND","ND","ND","26.1","1.2","ND","ND","ND","ND","0","0"],
    [76441,"2019-01-24T20:00:00","10.9","ND","ND","ND","10","1.5","ND","ND","ND","ND","0","0.2"],
    [76442,"2019-01-24T21:00:00","36.1","ND","ND","ND","1.4","1.9","ND","ND","ND","ND","0","0.7"],
    [76443,"2019-01-24T22:00:00","25.5","ND","ND","ND","1.3","2.5","ND","ND","ND","ND","0","0"],
    [76444,"2019-01-24T23:00:00","37.4","ND","ND","ND","0.9","2.8","ND","ND","ND","ND","0","ND"],
    [76445,"2019-01-25T00:00:00","33.6","ND","ND","ND","1.6","1.8","ND","ND","ND","ND","0","ND"],
    [76446,"2019-01-25T01:00:00","33.4","ND","ND","ND","2.1","2.2","ND","ND","ND","ND","0","0"],
    [76447,"2019-01-25T02:00:00","40.6","ND","ND","ND","1.6","2.8","ND","ND","ND","ND","0","0"],
    [76448,"2019-01-25T03:00:00","36.5","ND","ND","ND","1.2","2.5","ND","ND","ND","ND","0","0"],
    [76449,"2019-01-25T04:00:00","43.5","ND","ND","ND","1.2","2.5","ND","ND","ND","ND","0","0"],
    [76450,"2019-01-25T05:00:00","44.2","ND","ND","ND","1.2","2","ND","ND","ND","ND","0","0"],
    [76451,"2019-01-25T06:00:00","70.6","ND","ND","ND","1.1","2.4","ND","ND","ND","ND","0","0"],
    [76452,"2019-01-25T07:00:00","46.8","ND","ND","ND","1.2","2.3","ND","ND","ND","ND","0","0"],
    [76453,"2019-01-25T08:00:00","44.8","ND","ND","ND","1.9","2.6","ND","ND","ND","ND","35","0"],
    [76454,"2019-01-25T09:00:00","98.5","ND","ND","ND","8.8","2.3","ND","ND","ND","ND","360","0"],
    [76455,"2019-01-25T10:00:00","97.3","ND","ND","ND","31","1.9","ND","ND","ND","ND","645","0"],
    [76456,"2019-01-25T11:00:00","38.6","ND","ND","ND","52.2","1.3","ND","ND","ND","ND","665","0"],
    [76457,"2019-01-25T12:00:00","26.3","ND","ND","ND","83.2","2","ND","ND","ND","ND","665","0"],
    [76458,"2019-01-25T13:00:00","10.6","ND","ND","ND","83.6","1.5","ND","ND","ND","ND","663","0"],
    [76459,"2019-01-25T14:00:00","30.6","ND","ND","ND","69.2","1.5","ND","ND","ND","ND","633","0"],
    [76460,"2019-01-25T15:00:00","28.6","ND","ND","ND","41.7","1.2","ND","ND","ND","ND","620","0"],
    [76461,"2019-01-25T16:00:00","42.7","ND","ND","ND","34.4","1.3","ND","ND","ND","ND","644","0"],
    [76462,"2019-01-25T17:00:00","26.5","ND","ND","ND","26.2","1.1","ND","ND","ND","ND","429","0"],
    [76463,"2019-01-25T18:00:00","16.4","ND","ND","ND","21.6","1.2","ND","ND","ND","ND","626","0"],
    [76464,"2019-01-25T19:00:00","12.6","ND","ND","ND","23.1","1.2","ND","ND","ND","ND","0","0"],
    [76465,"2019-01-25T20:00:00","28.8","ND","ND","ND","18.7","1.3","ND","ND","ND","ND","0","0"],
    [76466,"2019-01-25T21:00:00","24.1","ND","ND","ND","4.4","2.3","ND","ND","ND","ND","0","0"],
    [76467,"2019-01-25T22:00:00","35.3","ND","ND","ND","3.4","1.5","ND","ND","ND","ND","0","0"],
    [76468,"2019-01-25T23:00:00","19.4","ND","ND","ND","1.1","4.2","ND","ND","ND","ND","0","0"],
    [76469,"2019-01-26T00:00:00","25.9","ND","ND","ND","1.5","3","ND","ND","ND","ND","0","0"],
    [76470,"2019-01-26T01:00:00","24.9","ND","ND","ND","3.7","2.2","ND","ND","ND","ND","0","0"],
    [76471,"2019-01-26T02:00:00","17.6","ND","ND","ND","1.8","2","ND","ND","ND","ND","0","0"],
    [76472,"2019-01-26T03:00:00","8.4","ND","ND","ND","2.7","2.2","ND","ND","ND","ND","0","0"],
    [76473,"2019-01-26T04:00:00","23.1","ND","ND","ND","1.6","1.5","ND","ND","ND","ND","0","0"],
    [76474,"2019-01-26T05:00:00","27.6","ND","ND","ND","1.1","1.7","ND","ND","ND","ND","0","0"],
    [76475,"2019-01-26T06:00:00","44.9","ND","ND","ND","1.3","2.7","ND","ND","ND","ND","0","0"],
    [76476,"2019-01-26T07:00:00","49.8","ND","ND","ND","1.6","3.8","ND","ND","ND","ND","0","0"],
    [76477,"2019-01-26T08:00:00","70","ND","ND","ND","2.6","3.7","ND","ND","ND","ND","49","0"],
    [76478,"2019-01-26T09:00:00","85","ND","ND","ND","7.5","2.9","ND","ND","ND","ND","401","0"],
    [76479,"2019-01-26T10:00:00","49.3","ND","ND","ND","24","2","ND","ND","ND","ND","665","0"],
    [76480,"2019-01-26T11:00:00","55.6","ND","ND","ND","45.9","2","ND","ND","ND","ND","665","0"],
    [76481,"2019-01-26T12:00:00","47.9","ND","ND","ND","75.3","2.1","ND","ND","ND","ND","665","0"],
    [76482,"2019-01-26T13:00:00","50.9","ND","ND","ND","92.1","2.1","ND","ND","ND","ND","666","0"],
    [76483,"2019-01-26T14:00:00","57","ND","ND","ND","115","1.8","ND","ND","ND","ND","666","0"],
    [76484,"2019-01-26T15:00:00","43.6","ND","ND","ND","110.2","1.8","ND","ND","ND","ND","666","0"],
    [76485,"2019-01-26T16:00:00","33.8","ND","ND","ND","61.2","1.8","ND","ND","ND","ND","644","0"],
    [76486,"2019-01-26T17:00:00","18.8","ND","ND","ND","52.5","1.2","ND","ND","ND","ND","650","0"],
    [76487,"2019-01-26T18:00:00","5.7","ND","ND","ND","42.6","1.5","ND","ND","ND","ND","630","0"],
    [76488,"2019-01-26T19:00:00","ND","ND","ND","ND","34.3","1.6","ND","ND","ND","ND","0","0"],
    [76489,"2019-01-26T20:00:00","16.9","ND","ND","ND","10.9","1.5","ND","ND","ND","ND","0","0"],
    [76490,"2019-01-26T21:00:00","5.8","ND","ND","ND","4.9","3.7","ND","ND","ND","ND","0","0"],
    [76491,"2019-01-26T22:00:00","18.4","ND","ND","ND","2.5","3.4","ND","ND","ND","ND","0","0"],
    [76492,"2019-01-26T23:00:00","35.4","ND","ND","ND","3","2.1","ND","ND","ND","ND","0","0"],
    [76493,"2019-01-27T00:00:00","52.7","ND","ND","ND","1.7","2.2","ND","ND","ND","ND","0","0"],
    [76494,"2019-01-27T01:00:00","19","ND","ND","ND","2.6","1.5","ND","ND","ND","ND","0","0"],
    [76495,"2019-01-27T02:00:00","24.4","ND","ND","ND","3.3","2.1","ND","ND","ND","ND","0","0"],
    [76496,"2019-01-27T03:00:00","17.9","ND","ND","ND","1.7","3.1","ND","ND","ND","ND","0","0"],
    [76497,"2019-01-27T04:00:00","8.2","ND","ND","ND","3.2","2","ND","ND","ND","ND","0","0"],
    [76498,"2019-01-27T05:00:00","50.9","ND","ND","ND","1.7","1.7","ND","ND","ND","ND","0","0"],
    [76499,"2019-01-27T06:00:00","34.4","ND","ND","ND","1.3","2.3","ND","ND","ND","ND","0","0"],
    [76500,"2019-01-27T07:00:00","35.4","ND","ND","ND","1.4","2.6","ND","ND","ND","ND","0","0"],
    [76501,"2019-01-27T08:00:00","58.3","ND","ND","ND","3.2","2.5","ND","ND","ND","ND","25","0"],
    [76502,"2019-01-27T09:00:00","70.3","ND","ND","ND","10.4","2.5","ND","ND","ND","ND","385","0"],
    [76503,"2019-01-27T10:00:00","63.9","ND","ND","ND","24.2","1.8","ND","ND","ND","ND","656","0"],
    [76504,"2019-01-27T11:00:00","35.4","ND","ND","ND","46.5","1.8","ND","ND","ND","ND","665","0"],
    [76505,"2019-01-27T12:00:00","30.3","ND","ND","ND","70.2","1.4","ND","ND","ND","ND","665","0"],
    [76506,"2019-01-27T13:00:00","13.4","ND","ND","ND","80.1","1.5","ND","ND","ND","ND","666","0"],
    [76507,"2019-01-27T14:00:00","28.8","ND","ND","ND","52.5","1.5","ND","ND","ND","ND","652","0"],
    [76508,"2019-01-27T15:00:00","15.1","ND","ND","ND","34.7","1.4","ND","ND","ND","ND","586","0"],
    [76509,"2019-01-27T16:00:00","14.9","ND","ND","ND","26","1.4","ND","ND","ND","ND","666","0"],
    [76510,"2019-01-27T17:00:00","4.6","ND","ND","ND","20.2","1.6","ND","ND","ND","ND","666","0"],
    [76511,"2019-01-27T18:00:00","2","ND","ND","ND","19.5","1.3","ND","ND","ND","ND","626","0"],
    [76512,"2019-01-27T19:00:00","2","ND","ND","ND","18.8","0.9","ND","ND","ND","ND","0","0"],
    [76513,"2019-01-27T20:00:00","12.3","ND","ND","ND","11.8","1.2","ND","ND","ND","ND","0","0"],
    [76514,"2019-01-27T21:00:00","26.5","ND","ND","ND","14.5","1.3","ND","ND","ND","ND","0","0"],
    [76515,"2019-01-27T22:00:00","18.5","ND","ND","ND","7.4","1.5","ND","ND","ND","ND","0","0"],
    [76516,"2019-01-27T23:00:00","0.5","ND","ND","ND","9.2","1.7","ND","ND","ND","ND","0","0"],
    [76517,"2019-01-28T00:00:00","8.6","ND","ND","ND","5.4","1.7","ND","ND","ND","ND","0","0"],
    [76518,"2019-01-28T01:00:00","21.8","ND","ND","ND","3.7","1.7","ND","ND","ND","ND","0","ND"],
    [76519,"2019-01-28T02:00:00","33.7","ND","ND","ND","4","1.4","ND","ND","ND","ND","0","ND"],
    [76520,"2019-01-28T03:00:00","14.8","ND","ND","ND","9.5","2.3","ND","ND","ND","ND","0","ND"],
    [76521,"2019-01-28T04:00:00","32.6","ND","ND","ND","7.1","2.2","ND","ND","ND","ND","0","ND"],
    [76522,"2019-01-28T05:00:00","34.8","ND","ND","ND","3.5","1.6","ND","ND","ND","ND","0","ND"],
    [76523,"2019-01-28T06:00:00","31.7","ND","ND","ND","1.5","1.7","ND","ND","ND","ND","0","ND"],
    [76524,"2019-01-28T07:00:00","30","ND","ND","ND","1.2","1.9","ND","ND","ND","ND","0","ND"],
    [76525,"2019-01-28T08:00:00","24.4","ND","ND","ND","2.4","1.4","ND","ND","ND","ND","40","ND"],
    [76526,"2019-01-28T09:00:00","46.3","ND","ND","ND","4.5","2","ND","ND","ND","ND","223","0"],
    [76527,"2019-01-28T10:00:00","37.9","ND","ND","ND","20.3","1","ND","ND","ND","ND","475","0"],
    [76528,"2019-01-28T11:00:00","30.2","ND","ND","ND","32.4","1.3","ND","ND","ND","ND","663","0"],
    [76529,"2019-01-28T12:00:00","18.3","ND","ND","ND","20.8","1.4","ND","ND","ND","ND","515","0"],
    [76530,"2019-01-28T13:00:00","4.4","ND","ND","ND","19.4","1.2","ND","ND","ND","ND","439","0"],
    [76531,"2019-01-28T14:00:00","8","ND","ND","ND","24","1","ND","ND","ND","ND","665","0"],
    [76532,"2019-01-28T15:00:00","1.4","ND","ND","ND","21","1.1","ND","ND","ND","ND","665","0"],
    [76533,"2019-01-28T16:00:00","ND","ND","ND","ND","19.4","1.3","ND","ND","ND","ND","432","0"],
    [76534,"2019-01-28T17:00:00","4.8","ND","ND","ND","18.1","1.6","ND","ND","ND","ND","276","0"],
    [76535,"2019-01-28T18:00:00","38.3","ND","ND","ND","13.4","1.3","ND","ND","ND","ND","143","0"],
    [76536,"2019-01-28T19:00:00","28.2","ND","ND","ND","10.1","1.2","ND","ND","ND","ND","0","0"],
    [76537,"2019-01-28T20:00:00","19.6","ND","ND","ND","8.6","0.6","ND","ND","ND","ND","0","0"],
    [76538,"2019-01-28T21:00:00","32.5","ND","ND","ND","10.7","1.2","ND","ND","ND","ND","0","0.1"],
    [76539,"2019-01-28T22:00:00","2.7","ND","ND","ND","4.2","0.9","ND","ND","ND","ND","0","0"],
    [76540,"2019-01-28T23:00:00","2.1","ND","ND","ND","2.8","1.5","ND","ND","ND","ND","0","0"],
    [76541,"2019-01-29T00:00:00","12.1","ND","ND","ND","1.4","2.2","ND","ND","ND","ND","0","0"],
    [76542,"2019-01-29T01:00:00","36.1","ND","ND","ND","1.1","2.5","ND","ND","ND","ND","0","0"],
    [76543,"2019-01-29T02:00:00","60.9","ND","ND","ND","1.4","2.2","ND","ND","ND","ND","0","0"],
    [76544,"2019-01-29T03:00:00","55.3","ND","ND","ND","1.3","2.1","ND","ND","ND","ND","0","0"],
    [76545,"2019-01-29T04:00:00","21.2","ND","ND","ND","1.3","2.8","ND","ND","ND","ND","0","ND"],
    [76546,"2019-01-29T05:00:00","42.5","ND","ND","ND","1.2","3.4","ND","ND","ND","ND","0","ND"],
    [76547,"2019-01-29T06:00:00","36.6","ND","ND","ND","1.2","4.6","ND","ND","ND","ND","0","0"],
    [76548,"2019-01-29T07:00:00","33","ND","ND","ND","1.2","5.8","ND","ND","ND","ND","0","ND"],
    [76549,"2019-01-29T08:00:00","62.1","ND","ND","ND","1.8","4.4","ND","ND","ND","ND","28","0"],
    [76550,"2019-01-29T09:00:00","79.4","ND","ND","ND","4.3","3.5","ND","ND","ND","ND","344","0"],
    [76551,"2019-01-29T10:00:00","71.4","ND","ND","ND","11.8","3","ND","ND","ND","ND","515","0"],
    [76552,"2019-01-29T11:00:00","59.9","ND","ND","ND","40","2.5","ND","ND","ND","ND","639","0"],
    [76553,"2019-01-29T12:00:00","22.3","ND","ND","ND","60.1","1.6","ND","ND","ND","ND","665","ND"],
    [76554,"2019-01-29T13:00:00","43.5","ND","ND","ND","55.5","2","ND","ND","ND","ND","665","ND"],
    [76555,"2019-01-29T14:00:00","13.7","ND","ND","ND","67.7","1.7","ND","ND","ND","ND","666","0"],
    [76556,"2019-01-29T15:00:00","16.7","ND","ND","ND","78.1","1.9","ND","ND","ND","ND","666","0"],
    [76557,"2019-01-29T16:00:00","30.1","ND","ND","ND","78.7","1.3","ND","ND","ND","ND","666","0"],
    [76558,"2019-01-29T17:00:00","37.3","ND","ND","ND","68.5","2.1","ND","ND","ND","ND","540","ND"],
    [76559,"2019-01-29T18:00:00","33.8","ND","ND","ND","58.2","1.6","ND","ND","ND","ND","642","ND"],
    [76560,"2019-01-29T19:00:00","14","ND","ND","ND","28.9","1.3","ND","ND","ND","ND","0","0"],
    [76561,"2019-01-29T20:00:00","10.6","ND","ND","ND","30.6","1.4","ND","ND","ND","ND","0","0"],
    [76562,"2019-01-29T21:00:00","27.1","ND","ND","ND","18.2","1.8","ND","ND","ND","ND","0","0"],
    [76563,"2019-01-29T22:00:00","57.5","ND","ND","ND","6.6","1.7","ND","ND","ND","ND","0","0"],
    [76564,"2019-01-29T23:00:00","9.9","ND","ND","ND","2.6","2.6","ND","ND","ND","ND","0","0"],
    [76565,"2019-01-30T00:00:00","38.9","ND","ND","ND","1.5","2.2","ND","ND","ND","ND","0","0"],
    [76566,"2019-01-30T01:00:00","8.6","ND","ND","ND","6.1","2.5","ND","ND","ND","ND","0","0.2"],
    [76567,"2019-01-30T02:00:00","ND","ND","ND","ND","5.6","2.7","ND","ND","ND","ND","0","0"],
    [76568,"2019-01-30T03:00:00","14.3","ND","ND","ND","3.3","2","ND","ND","ND","ND","0","0"],
    [76569,"2019-01-30T04:00:00","26","ND","ND","ND","3.1","2.6","ND","ND","ND","ND","0","0"],
    [76570,"2019-01-30T05:00:00","23.9","ND","ND","ND","4","2.2","ND","ND","ND","ND","0","0"],
    [76571,"2019-01-30T06:00:00","37.4","ND","ND","ND","1.7","2","ND","ND","ND","ND","0","0"],
    [76572,"2019-01-30T07:00:00","39","ND","ND","ND","1.3","1.7","ND","ND","ND","ND","0","0"],
    [76573,"2019-01-30T08:00:00","42.3","ND","ND","ND","2.3","1.5","ND","ND","ND","ND","35","0"],
    [76574,"2019-01-30T09:00:00","42.1","ND","ND","ND","6.9","1.9","ND","ND","ND","ND","218","0"],
    [76575,"2019-01-30T10:00:00","41.6","ND","ND","ND","14.3","1.8","ND","ND","ND","ND","432","ND"],
    [76576,"2019-01-30T11:00:00","53.2","ND","ND","ND","22.9","1.1","ND","ND","ND","ND","646","0"],
    [76577,"2019-01-30T12:00:00","39.8","ND","ND","ND","36.8","1.8","ND","ND","ND","ND","665","0"],
    [76578,"2019-01-30T13:00:00","34.3","ND","ND","ND","69.6","1.9","ND","ND","ND","ND","665","0"],
    [76579,"2019-01-30T14:00:00","47.8","ND","ND","ND","77.2","1.7","ND","ND","ND","ND","666","0"],
    [76580,"2019-01-30T15:00:00","14.8","ND","ND","ND","35","1.4","ND","ND","ND","ND","649","0"],
    [76581,"2019-01-30T16:00:00","30.8","ND","ND","ND","29.8","1.6","ND","ND","ND","ND","641","0"],
    [76582,"2019-01-30T17:00:00","22.6","ND","ND","ND","29.6","1.5","ND","ND","ND","ND","666","0"],
    [76583,"2019-01-30T18:00:00","4.8","ND","ND","ND","23.2","0.9","ND","ND","ND","ND","663","ND"],
    [76584,"2019-01-30T19:00:00","ND","ND","ND","ND","17.2","1.4","ND","ND","ND","ND","0","0"],
    [76585,"2019-01-30T20:00:00","3.1","ND","ND","ND","11.2","1.4","ND","ND","ND","ND","0","0"],
    [76586,"2019-01-30T21:00:00","31.2","ND","ND","ND","6.2","2.4","ND","ND","ND","ND","0","1.5"],
    [76587,"2019-01-30T22:00:00","23.4","ND","ND","ND","13","1.5","ND","ND","ND","ND","0","ND"],
    [76588,"2019-01-30T23:00:00","3.1","ND","ND","ND","17.6","1.5","ND","ND","ND","ND","0","ND"],
    [76589,"2019-01-31T00:00:00","8","ND","ND","ND","10.4","1.6","ND","ND","ND","ND","0","0"],
    [76590,"2019-01-31T01:00:00","49.2","ND","ND","ND","6.9","3.7","ND","ND","ND","ND","0","ND"],
    [76591,"2019-01-31T02:00:00","76.5","ND","ND","ND","6.3","2.8","ND","ND","ND","ND","0","ND"],
    [76592,"2019-01-31T03:00:00","46.6","ND","ND","ND","7.5","2.9","ND","ND","ND","ND","0","ND"],
    [76593,"2019-01-31T04:00:00","29.3","ND","ND","ND","7.9","2","ND","ND","ND","ND","0","0"],
    [76594,"2019-01-31T05:00:00","24.1","ND","ND","ND","6.4","1.9","ND","ND","ND","ND","0","ND"],
    [76595,"2019-01-31T06:00:00","19.8","ND","ND","ND","4.9","1.7","ND","ND","ND","ND","0","ND"],
    [76596,"2019-01-31T07:00:00","49.1","ND","ND","ND","4.8","1.2","ND","ND","ND","ND","0","ND"],
    [76597,"2019-01-31T08:00:00","52.9","ND","ND","ND","5","1.5","ND","ND","ND","ND","24","ND"],
    [76598,"2019-01-31T09:00:00","83.2","ND","ND","ND","7.2","1.9","ND","ND","ND","ND","240","0"],
    [76599,"2019-01-31T10:00:00","48.7","ND","ND","ND","8.5","1.8","ND","ND","ND","ND","524","0"],
    [76600,"2019-01-31T11:00:00","45.1","ND","ND","ND","18.3","2","ND","ND","ND","ND","388","0"],
    [76601,"2019-01-31T12:00:00","43.5","ND","ND","ND","54.7","2","ND","ND","ND","ND","665","0"],
    [76602,"2019-01-31T13:00:00","47.3","ND","ND","ND","61.6","1.8","ND","ND","ND","ND","665","0"],
    [76603,"2019-01-31T14:00:00","26.3","ND","ND","ND","48.6","1.4","ND","ND","ND","ND","664","0"],
    [76604,"2019-01-31T15:00:00","9.1","ND","ND","ND","37.5","1.6","ND","ND","ND","ND","593","0"],
    [76605,"2019-01-31T16:00:00","20.8","ND","ND","ND","32.2","1.1","ND","ND","ND","ND","663","0"],
    [76606,"2019-01-31T17:00:00","8.2","ND","ND","ND","29.7","1.2","ND","ND","ND","ND","573","0"],
    [76607,"2019-01-31T18:00:00","ND","ND","ND","ND","22.6","1.6","ND","ND","ND","ND","289","0"],
    [76608,"2019-01-31T19:00:00","ND","ND","ND","ND","15.2","1","ND","ND","ND","ND","0","0.2"],
    [76609,"2019-01-31T20:00:00","9.3","ND","ND","ND","9.7","1.6","ND","ND","ND","ND","0","0.3"],
    [76610,"2019-01-31T21:00:00","33.2","ND","ND","ND","10.1","1","ND","ND","ND","ND","0","0.1"],
    [76611,"2019-01-31T22:00:00","4.9","ND","ND","ND","7.6","1.6","ND","ND","ND","ND","0","0.1"],
    [76612,"2019-01-31T23:00:00","29.2","ND","ND","ND","4.3","2.2","ND","ND","ND","ND","0","0"],
    [76613,"2019-02-01T00:00:00","42.9","ND","ND","ND","4.1","3.5","ND","ND","ND","ND","0","ND"],
    [76614,"2019-02-01T01:00:00","90.1","ND","ND","ND","4.1","4.5","ND","ND","ND","ND","0","0"],
    [76615,"2019-02-01T02:00:00","49.9","ND","ND","ND","7.2","3.3","ND","ND","ND","ND","0","0"],
    [76616,"2019-02-01T03:00:00","42.3","ND","ND","ND","7.3","2.6","ND","ND","ND","ND","0","0"],
    [76617,"2019-02-01T04:00:00","32.2","ND","ND","ND","6.2","2.8","ND","ND","ND","ND","0","ND"],
    [76618,"2019-02-01T05:00:00","33","ND","ND","ND","6.8","3.1","ND","ND","ND","ND","0","0"],
    [76619,"2019-02-01T06:00:00","37.4","ND","ND","ND","3.6","1.9","ND","ND","ND","ND","0","0"],
    [76620,"2019-02-01T07:00:00","37.5","ND","ND","ND","5.5","1.3","ND","ND","ND","ND","0","0"],
    [76621,"2019-02-01T08:00:00","8.4","ND","ND","ND","4.6","1.3","ND","ND","ND","ND","8","0"],
    [76622,"2019-02-01T09:00:00","1.9","ND","ND","ND","4.8","0.8","ND","ND","ND","ND","123","0"],
    [76623,"2019-02-01T10:00:00","8.5","ND","ND","ND","137.8","1.3","ND","ND","ND","ND","252","0"],
    [76624,"2019-02-01T11:00:00","ND","ND","ND","ND","16.1","1.3","ND","ND","ND","ND","341","0"],
    [76625,"2019-02-01T12:00:00","126","ND","ND","ND","28.1","1.3","ND","ND","ND","ND","569","0"],
    [76626,"2019-02-01T13:00:00","139.9","ND","ND","ND","33.5","1.5","ND","ND","ND","ND","634","0"],
    [76627,"2019-02-01T14:00:00","61.8","ND","ND","ND","36.9","1.1","ND","ND","ND","ND","516","0"],
    [76628,"2019-02-01T15:00:00","33.6","ND","ND","ND","48.6","1.3","ND","ND","ND","ND","564","0"],
    [76629,"2019-02-01T16:00:00","31.7","ND","ND","ND","65.6","2.5","ND","ND","ND","ND","665","ND"],
    [76630,"2019-02-01T17:00:00","32.5","ND","ND","ND","65.3","3","ND","ND","ND","ND","640","0"],
    [76631,"2019-02-01T18:00:00","34","ND","ND","ND","52.5","1.7","ND","ND","ND","ND","466","ND"],
    [76632,"2019-02-01T19:00:00","23.9","ND","ND","ND","30.1","1.3","ND","ND","ND","ND","0","0.1"],
    [76633,"2019-02-01T20:00:00","45","ND","ND","ND","25.3","1.4","ND","ND","ND","ND","0","0.1"],
    [76634,"2019-02-01T21:00:00","46","ND","ND","ND","13.4","5.3","ND","ND","ND","ND","0","0"],
    [76635,"2019-02-01T22:00:00","39.2","ND","ND","ND","2.9","2.5","ND","ND","ND","ND","0","0"],
    [76636,"2019-02-01T23:00:00","18.1","ND","ND","ND","2.3","2.8","ND","ND","ND","ND","0","0"],
    [76637,"2019-02-02T00:00:00","33.5","ND","ND","ND","2.5","3.4","ND","ND","ND","ND","0","0"],
    [76638,"2019-02-02T01:00:00","48.4","ND","ND","ND","2.4","3.1","ND","ND","ND","ND","0","0"],
    [76639,"2019-02-02T02:00:00","27.9","ND","ND","ND","1.9","3.3","ND","ND","ND","ND","0","0"],
    [76640,"2019-02-02T03:00:00","31.5","ND","ND","ND","1.7","4.7","ND","ND","ND","ND","0","0"],
    [76641,"2019-02-02T04:00:00","44.3","ND","ND","ND","1.6","3.6","ND","ND","ND","ND","0","0"],
    [76642,"2019-02-02T05:00:00","45.8","ND","ND","ND","1.9","3.5","ND","ND","ND","ND","0","0"],
    [76643,"2019-02-02T06:00:00","72.3","ND","ND","ND","2","2.6","ND","ND","ND","ND","0","0"],
    [76644,"2019-02-02T07:00:00","33.2","ND","ND","ND","1.9","2.7","ND","ND","ND","ND","0","ND"],
    [76645,"2019-02-02T08:00:00","21.3","ND","ND","ND","2","1.6","ND","ND","ND","ND","48","0"],
    [76646,"2019-02-02T09:00:00","78.8","ND","ND","ND","2.9","2.8","ND","ND","ND","ND","313","ND"],
    [76647,"2019-02-02T10:00:00","103.8","ND","ND","ND","18.5","2","ND","ND","ND","ND","619","ND"],
    [76648,"2019-02-02T11:00:00","55.3","ND","ND","ND","39.5","1.6","ND","ND","ND","ND","665","0"],
    [76649,"2019-02-02T12:00:00","23.4","ND","ND","ND","67.7","1.5","ND","ND","ND","ND","665","0"],
    [76650,"2019-02-02T13:00:00","26.3","ND","ND","ND","76.8","1.7","ND","ND","ND","ND","665","0"],
    [76651,"2019-02-02T14:00:00","27.2","ND","ND","ND","93","1.7","ND","ND","ND","ND","666","0"],
    [76652,"2019-02-02T15:00:00","21.9","ND","ND","ND","79.9","1.8","ND","ND","ND","ND","666","0"],
    [76653,"2019-02-02T16:00:00","11.1","ND","ND","ND","44.2","1.1","ND","ND","ND","ND","650","0"],
    [76654,"2019-02-02T17:00:00","0.2","ND","ND","ND","41.6","1.3","ND","ND","ND","ND","666","0"],
    [76655,"2019-02-02T18:00:00","34.4","ND","ND","ND","41","1.5","ND","ND","ND","ND","611","0"],
    [76656,"2019-02-02T19:00:00","7.1","ND","ND","ND","23.3","1.2","ND","ND","ND","ND","0","0"],
    [76657,"2019-02-02T20:00:00","0.8","ND","ND","ND","11.6","1.5","ND","ND","ND","ND","0","ND"],
    [76658,"2019-02-02T21:00:00","22.5","ND","ND","ND","2.6","2.4","ND","ND","ND","ND","0","0"],
    [76659,"2019-02-02T22:00:00","32.1","ND","ND","ND","2.2","4.3","ND","ND","ND","ND","0","0"],
    [76660,"2019-02-02T23:00:00","37.9","ND","ND","ND","2.2","2.3","ND","ND","ND","ND","0","0"],
    [76661,"2019-02-03T00:00:00","34.3","ND","ND","ND","2.1","2.8","ND","ND","ND","ND","0","ND"],
    [76662,"2019-02-03T01:00:00","35.9","ND","ND","ND","2","2.3","ND","ND","ND","ND","0","ND"],
    [76663,"2019-02-03T02:00:00","52.9","ND","ND","ND","2.1","2.4","ND","ND","ND","ND","0","ND"],
    [76664,"2019-02-03T03:00:00","34.3","ND","ND","ND","2","2.9","ND","ND","ND","ND","0","ND"],
    [76665,"2019-02-03T04:00:00","42","ND","ND","ND","2","3.1","ND","ND","ND","ND","0","ND"],
    [76666,"2019-02-03T05:00:00","43","ND","ND","ND","2.1","2.3","ND","ND","ND","ND","0","ND"],
    [76667,"2019-02-03T06:00:00","43.9","ND","ND","ND","2.2","2.3","ND","ND","ND","ND","0","ND"],
    [76668,"2019-02-03T07:00:00","40.4","ND","ND","ND","2.1","2.9","ND","ND","ND","ND","0","ND"],
    [76669,"2019-02-03T08:00:00","43.7","ND","ND","ND","3.6","2.3","ND","ND","ND","ND","37","ND"],
    [76670,"2019-02-03T09:00:00","50.3","ND","ND","ND","7.9","1.3","ND","ND","ND","ND","311","ND"],
    [76671,"2019-02-03T10:00:00","32.7","ND","ND","ND","17.4","1.9","ND","ND","ND","ND","514","ND"],
    [76672,"2019-02-03T11:00:00","10.9","ND","ND","ND","40.1","1.4","ND","ND","ND","ND","665","ND"],
    [76673,"2019-02-03T12:00:00","38.6","ND","ND","ND","61.6","1.3","ND","ND","ND","ND","665","ND"],
    [76674,"2019-02-03T13:00:00","36.4","ND","ND","ND","74.9","1.5","ND","ND","ND","ND","665","0"],
    [76675,"2019-02-03T14:00:00","42.8","ND","ND","ND","81.8","1.6","ND","ND","ND","ND","666","ND"],
    [76676,"2019-02-03T15:00:00","19.1","ND","ND","ND","82.6","1.8","ND","ND","ND","ND","666","0.5"],
    [76677,"2019-02-03T16:00:00","10.6","ND","ND","ND","53.3","1.4","ND","ND","ND","ND","602","0.6"],
    [76678,"2019-02-03T17:00:00","9.8","ND","ND","ND","49.4","1.2","ND","ND","ND","ND","603","0"],
    [76679,"2019-02-03T18:00:00","31.1","ND","ND","ND","38.9","0.9","ND","ND","ND","ND","624","0"],
    [76680,"2019-02-03T19:00:00","0.8","ND","ND","ND","32.2","1.1","ND","ND","ND","ND","0","0"],
    [76681,"2019-02-03T20:00:00","ND","ND","ND","ND","15.6","1.2","ND","ND","ND","ND","0","0"],
    [76682,"2019-02-03T21:00:00","25.2","ND","ND","ND","12.5","1.5","ND","ND","ND","ND","0","0"],
    [76683,"2019-02-03T22:00:00","44.7","ND","ND","ND","2.4","2.3","ND","ND","ND","ND","0","0"],
    [76684,"2019-02-03T23:00:00","36.3","ND","ND","ND","2.4","3.4","ND","ND","ND","ND","0","0"],
    [76685,"2019-02-04T00:00:00","23.2","ND","ND","ND","2.4","2.6","ND","ND","ND","ND","0","0"],
    [76686,"2019-02-04T01:00:00","31.5","ND","ND","ND","4.1","2","ND","ND","ND","ND","0","0"],
    [76687,"2019-02-04T02:00:00","55.6","ND","ND","ND","2.3","1.9","ND","ND","ND","ND","0","0"],
    [76688,"2019-02-04T03:00:00","38.5","ND","ND","ND","2.5","2.1","ND","ND","ND","ND","0","0"],
    [76689,"2019-02-04T04:00:00","36.1","ND","ND","ND","3.9","1.8","ND","ND","ND","ND","0","0"],
    [76690,"2019-02-04T05:00:00","41","ND","ND","ND","3.1","2.6","ND","ND","ND","ND","0","0"],
    [76691,"2019-02-04T06:00:00","36.4","ND","ND","ND","1.6","2.7","ND","ND","ND","ND","0","0"],
    [76692,"2019-02-04T07:00:00","64.1","ND","ND","ND","1.6","2.6","ND","ND","ND","ND","0","0"],
    [76693,"2019-02-04T08:00:00","62.3","ND","ND","ND","1.9","3.2","ND","ND","ND","ND","37","0"],
    [76694,"2019-02-04T09:00:00","52.1","ND","ND","ND","3.7","2.2","ND","ND","ND","ND","212","0"],
    [76695,"2019-02-04T10:00:00","63.5","ND","ND","ND","16.8","2.1","ND","ND","ND","ND","467","0"],
    [76696,"2019-02-04T11:00:00","61.2","ND","ND","ND","40.6","1.6","ND","ND","ND","ND","660","0"],
    [76697,"2019-02-04T12:00:00","31.5","ND","ND","ND","50.1","1.9","ND","ND","ND","ND","665","0"],
    [76698,"2019-02-04T13:00:00","45.7","ND","ND","ND","67.7","1.3","ND","ND","ND","ND","665","0"],
    [76699,"2019-02-04T14:00:00","28.8","ND","ND","ND","78.5","1.5","ND","ND","ND","ND","665","0"],
    [76700,"2019-02-04T15:00:00","12.5","ND","ND","ND","75.7","1.6","ND","ND","ND","ND","661","0"],
    [76701,"2019-02-04T16:00:00","26.1","ND","ND","ND","74.8","1.5","ND","ND","ND","ND","508","0"],
    [76702,"2019-02-04T17:00:00","27.9","ND","ND","ND","54.4","1.5","ND","ND","ND","ND","303","0"],
    [76703,"2019-02-04T18:00:00","39.6","ND","ND","ND","27.2","1.3","ND","ND","ND","ND","354","0"],
    [76704,"2019-02-04T19:00:00","17.3","ND","ND","ND","15.7","1.3","ND","ND","ND","ND","0","0"],
    [76705,"2019-02-04T20:00:00","14.3","ND","ND","ND","5.4","0.9","ND","ND","ND","ND","0","0"],
    [76706,"2019-02-04T21:00:00","40.5","ND","ND","ND","1.8","1.9","ND","ND","ND","ND","0","0.3"],
    [76707,"2019-02-04T22:00:00","45.3","ND","ND","ND","1.7","2.5","ND","ND","ND","ND","0","0.2"],
    [76708,"2019-02-04T23:00:00","40.4","ND","ND","ND","1.8","2.3","ND","ND","ND","ND","0","0"],
    [76709,"2019-02-05T00:00:00","9.9","ND","ND","ND","1.5","3.6","ND","ND","ND","ND","0","0"],
    [76710,"2019-02-05T01:00:00","13.2","ND","ND","ND","1.6","3.3","ND","ND","ND","ND","0","0"],
    [76711,"2019-02-05T02:00:00","9.2","ND","ND","ND","1.6","2.7","ND","ND","ND","ND","0","0"],
    [76712,"2019-02-05T03:00:00","9.9","ND","ND","ND","1.7","3.9","ND","ND","ND","ND","0","0"],
    [76713,"2019-02-05T04:00:00","48.5","ND","ND","ND","1.7","2.7","ND","ND","ND","ND","0","0"],
    [76714,"2019-02-05T05:00:00","47.3","ND","ND","ND","1.5","2.6","ND","ND","ND","ND","0","0.1"],
    [76715,"2019-02-05T06:00:00","56.3","ND","ND","ND","1.5","3.1","ND","ND","ND","ND","0","0"],
    [76716,"2019-02-05T07:00:00","48","ND","ND","ND","1.8","6.8","ND","ND","ND","ND","0","0"],
    [76717,"2019-02-05T08:00:00","93","ND","ND","ND","2.5","5.5","ND","ND","ND","ND","23","0.1"],
    [76718,"2019-02-05T09:00:00","128.5","ND","ND","ND","5","4.2","ND","ND","ND","ND","193","1.3"],
    [76719,"2019-02-05T10:00:00","88.5","ND","ND","ND","19.5","2.6","ND","ND","ND","ND","581","0"],
    [76720,"2019-02-05T11:00:00","70.6","ND","ND","ND","41.1","2.3","ND","ND","ND","ND","665","0"],
    [76721,"2019-02-05T12:00:00","54.2","ND","ND","ND","71.4","1.9","ND","ND","ND","ND","661","0"],
    [76722,"2019-02-05T13:00:00","21.9","ND","ND","ND","83.4","2.3","ND","ND","ND","ND","666","0"],
    [76723,"2019-02-05T14:00:00","16.5","ND","ND","ND","94.5","1.9","ND","ND","ND","ND","666","0"],
    [76724,"2019-02-05T15:00:00","23.5","ND","ND","ND","99.1","2.3","ND","ND","ND","ND","666","0"],
    [76725,"2019-02-05T16:00:00","38.2","ND","ND","ND","107.1","1.7","ND","ND","ND","ND","666","0"],
    [76726,"2019-02-05T17:00:00","38.6","ND","ND","ND","103.7","1.4","ND","ND","ND","ND","607","0"],
    [76727,"2019-02-05T18:00:00","41.6","ND","ND","ND","49.7","1.8","ND","ND","ND","ND","396","0"],
    [76728,"2019-02-05T19:00:00","29","ND","ND","ND","32.4","1.4","ND","ND","ND","ND","0","0"],
    [76729,"2019-02-05T20:00:00","27.5","ND","ND","ND","29.5","1.4","ND","ND","ND","ND","0","0.1"],
    [76730,"2019-02-05T21:00:00","34","ND","ND","ND","12.1","2.1","ND","ND","ND","ND","0","0.5"],
    [76731,"2019-02-05T22:00:00","20.3","ND","ND","ND","1.5","4.1","ND","ND","ND","ND","0","0"],
    [76732,"2019-02-05T23:00:00","9.8","ND","ND","ND","1.3","3.8","ND","ND","ND","ND","0","0.1"],
    [76733,"2019-02-06T00:00:00","15.8","ND","ND","ND","1.2","3.4","ND","ND","ND","ND","0","0"],
    [76734,"2019-02-06T01:00:00","16.9","ND","ND","ND","1.3","2.6","ND","ND","ND","ND","0","0"],
    [76735,"2019-02-06T02:00:00","0.1","ND","ND","ND","2.5","2.6","ND","ND","ND","ND","0","0"],
    [76736,"2019-02-06T03:00:00","4.8","ND","ND","ND","1.9","2.1","ND","ND","ND","ND","0","0"],
    [76737,"2019-02-06T04:00:00","22","ND","ND","ND","1.6","3.1","ND","ND","ND","ND","0","0"],
    [76738,"2019-02-06T05:00:00","41.7","ND","ND","ND","2","3","ND","ND","ND","ND","0","0"],
    [76739,"2019-02-06T06:00:00","40.4","ND","ND","ND","1.4","3.2","ND","ND","ND","ND","0","0"],
    [76740,"2019-02-06T07:00:00","48.4","ND","ND","ND","1.4","3.1","ND","ND","ND","ND","0","0"],
    [76741,"2019-02-06T08:00:00","67.7","ND","ND","ND","1.6","2.8","ND","ND","ND","ND","22","0"],
    [76742,"2019-02-06T09:00:00","65.3","ND","ND","ND","1.6","2.4","ND","ND","ND","ND","73","0"],
    [76743,"2019-02-06T10:00:00","51.3","ND","ND","ND","3.9","1.9","ND","ND","ND","ND","155","0"],
    [76744,"2019-02-06T11:00:00","39.1","ND","ND","ND","19.8","1.5","ND","ND","ND","ND","587","0"],
    [76745,"2019-02-06T12:00:00","37.3","ND","ND","ND","74.1","1.7","ND","ND","ND","ND","665","0"],
    [76746,"2019-02-06T13:00:00","39.8","ND","ND","ND","109.2","2.1","ND","ND","ND","ND","665","0"],
    [76747,"2019-02-06T14:00:00","38.9","ND","ND","ND","117.5","2","ND","ND","ND","ND","666","0"],
    [76748,"2019-02-06T15:00:00","39.2","ND","ND","ND","102.3","1.5","ND","ND","ND","ND","664","0"],
    [76749,"2019-02-06T16:00:00","16.9","ND","ND","ND","78.1","1.9","ND","ND","ND","ND","627","0"],
    [76750,"2019-02-06T17:00:00","16.3","ND","ND","ND","48.5","1.2","ND","ND","ND","ND","467","0"],
    [76751,"2019-02-06T18:00:00","12.1","ND","ND","ND","46.8","1","ND","ND","ND","ND","631","0"],
    [76752,"2019-02-06T19:00:00","3.2","ND","ND","ND","36.3","1.3","ND","ND","ND","ND","0","0.1"],
    [76753,"2019-02-06T20:00:00","13.3","ND","ND","ND","17.6","1","ND","ND","ND","ND","0","0"],
    [76754,"2019-02-06T21:00:00","22.6","ND","ND","ND","4.5","2","ND","ND","ND","ND","0","0"],
    [76755,"2019-02-06T22:00:00","24.2","ND","ND","ND","4.5","1.8","ND","ND","ND","ND","0","0"],
    [76756,"2019-02-06T23:00:00","27.4","ND","ND","ND","6.6","1.8","ND","ND","ND","ND","0","0"],
    [76757,"2019-02-07T00:00:00","25.2","ND","ND","ND","6.2","2","ND","ND","ND","ND","0","0"],
    [76758,"2019-02-07T01:00:00","40.9","ND","ND","ND","4.4","2.4","ND","ND","ND","ND","0","0"],
    [76759,"2019-02-07T02:00:00","83.6","ND","ND","ND","5.3","2.2","ND","ND","ND","ND","0","0"],
    [76760,"2019-02-07T03:00:00","26.9","ND","ND","ND","5.7","1.8","ND","ND","ND","ND","0","0"],
    [76761,"2019-02-07T04:00:00","11.6","ND","ND","ND","2.1","1.7","ND","ND","ND","ND","0","0"],
    [76762,"2019-02-07T05:00:00","39.1","ND","ND","ND","1.5","2.6","ND","ND","ND","ND","0","0"],
    [76763,"2019-02-07T06:00:00","47.1","ND","ND","ND","1.3","2.9","ND","ND","ND","ND","0","0"],
    [76764,"2019-02-07T07:00:00","81.4","ND","ND","ND","1.3","3.1","ND","ND","ND","ND","0","0"],
    [76765,"2019-02-07T08:00:00","70.3","ND","ND","ND","1.9","2.5","ND","ND","ND","ND","16","0"],
    [76766,"2019-02-07T09:00:00","70","ND","ND","ND","4.5","2.7","ND","ND","ND","ND","143","0"],
    [76767,"2019-02-07T10:00:00","55.7","ND","ND","ND","7","2.6","ND","ND","ND","ND","486","0"],
    [76768,"2019-02-07T11:00:00","45.1","ND","ND","ND","7.9","1.6","ND","ND","ND","ND","534","0"],
    [76769,"2019-02-07T12:00:00","29.4","ND","ND","ND","27.3","1.4","ND","ND","ND","ND","457","0"],
    [76770,"2019-02-07T13:00:00","11.6","ND","ND","ND","54.2","1.2","ND","ND","ND","ND","665","0"],
    [76771,"2019-02-07T14:00:00","30.6","ND","ND","ND","45.6","1.5","ND","ND","ND","ND","665","0"],
    [76772,"2019-02-07T15:00:00","17","ND","ND","ND","30.4","1.2","ND","ND","ND","ND","666","0"],
    [76773,"2019-02-07T16:00:00","13","ND","ND","ND","25.9","1.4","ND","ND","ND","ND","666","0"],
    [76774,"2019-02-07T17:00:00","3.2","ND","ND","ND","22.9","1.1","ND","ND","ND","ND","666","0"],
    [76775,"2019-02-07T18:00:00","6.6","ND","ND","ND","20.8","0.7","ND","ND","ND","ND","559","0"],
    [76776,"2019-02-07T19:00:00","0.5","ND","ND","ND","14.6","1","ND","ND","ND","ND","0","0"],
    [76777,"2019-02-07T20:00:00","8.1","ND","ND","ND","6.9","1.5","ND","ND","ND","ND","0","0"],
    [76778,"2019-02-07T21:00:00","18.4","ND","ND","ND","2.1","1.1","ND","ND","ND","ND","0","0"],
    [76779,"2019-02-07T22:00:00","18.7","ND","ND","ND","2.2","0.8","ND","ND","ND","ND","0","0"],
    [76780,"2019-02-07T23:00:00","4.2","ND","ND","ND","2.5","1.7","ND","ND","ND","ND","0","0"],
    [76781,"2019-02-08T00:00:00","3.6","ND","ND","ND","5.3","0.9","ND","ND","ND","ND","0","0"],
    [76782,"2019-02-08T01:00:00","ND","ND","ND","ND","2.7","1.3","ND","ND","ND","ND","0","0"],
    [76783,"2019-02-08T02:00:00","ND","ND","ND","ND","3.7","1.2","ND","ND","ND","ND","0","0"],
    [76784,"2019-02-08T03:00:00","ND","ND","ND","ND","7","1.1","ND","ND","ND","ND","0","0"],
    [76785,"2019-02-08T04:00:00","2","ND","ND","ND","9.2","1.4","ND","ND","ND","ND","0","0"],
    [76786,"2019-02-08T05:00:00","5.8","ND","ND","ND","9.9","1.2","ND","ND","ND","ND","0","0"],
    [76787,"2019-02-08T06:00:00","4.4","ND","ND","ND","5.4","1.5","ND","ND","ND","ND","0","0"],
    [76788,"2019-02-08T07:00:00","11","ND","ND","ND","1.4","1.5","ND","ND","ND","ND","0","0"],
    [76789,"2019-02-08T08:00:00","24.1","ND","ND","ND","2.1","1.3","ND","ND","ND","ND","27","0"],
    [76790,"2019-02-08T09:00:00","52.3","ND","ND","ND","7.2","1.2","ND","ND","ND","ND","388","0"],
    [76791,"2019-02-08T10:00:00","46.7","ND","ND","ND","19.7","1.4","ND","ND","ND","ND","484","0"],
    [76792,"2019-02-08T11:00:00","25.8","ND","ND","ND","36.5","1.2","ND","ND","ND","ND","654","0"],
    [76793,"2019-02-08T12:00:00","9.3","ND","ND","ND","49.3","1.4","ND","ND","ND","ND","664","0"],
    [76794,"2019-02-08T13:00:00","31.6","ND","ND","ND","66.6","1.4","ND","ND","ND","ND","665","0"],
    [76795,"2019-02-08T14:00:00","43.3","ND","ND","ND","99","1.2","ND","ND","ND","ND","665","0"],
    [76796,"2019-02-08T15:00:00","49.6","ND","ND","ND","110","1.4","ND","ND","ND","ND","665","0"],
    [76797,"2019-02-08T16:00:00","24.8","ND","ND","ND","113.7","1.7","ND","ND","ND","ND","605","0"],
    [76798,"2019-02-08T17:00:00","12.5","ND","ND","ND","71.5","1.8","ND","ND","ND","ND","462","0"],
    [76799,"2019-02-08T18:00:00","ND","ND","ND","ND","23.8","0.9","ND","ND","ND","ND","202","0"],
    [76800,"2019-02-08T19:00:00","6","ND","ND","ND","9.5","1.3","ND","ND","ND","ND","0","0"],
    [76801,"2019-02-08T20:00:00","16.4","ND","ND","ND","1.5","1.3","ND","ND","ND","ND","0","0"],
    [76802,"2019-02-08T21:00:00","29.5","ND","ND","ND","1.6","1.3","ND","ND","ND","ND","0","0.7"],
    [76803,"2019-02-08T22:00:00","59.1","ND","ND","ND","1.5","0.9","ND","ND","ND","ND","0","0"],
    [76804,"2019-02-08T23:00:00","24.2","ND","ND","ND","1.8","0.6","ND","ND","ND","ND","0","0"],
    [76805,"2019-02-09T00:00:00","30.2","ND","ND","ND","1.6","0.9","ND","ND","ND","ND","0","0"],
    [76806,"2019-02-09T01:00:00","29.8","ND","ND","ND","1.3","1.9","ND","ND","ND","ND","0","0"],
    [76807,"2019-02-09T02:00:00","38.5","ND","ND","ND","1.3","2.3","ND","ND","ND","ND","0","0"],
    [76808,"2019-02-09T03:00:00","57.3","ND","ND","ND","1.4","2.1","ND","ND","ND","ND","0","0"],
    [76809,"2019-02-09T04:00:00","39.2","ND","ND","ND","1.4","1.5","ND","ND","ND","ND","0","0.4"],
    [76810,"2019-02-09T05:00:00","35.6","ND","ND","ND","1.3","2.8","ND","ND","ND","ND","0","3"],
    [76811,"2019-02-09T06:00:00","22","ND","ND","ND","1.2","2.3","ND","ND","ND","ND","0","0.8"],
    [76812,"2019-02-09T07:00:00","38.1","ND","ND","ND","1.2","2.1","ND","ND","ND","ND","0","0"],
    [76813,"2019-02-09T08:00:00","58.9","ND","ND","ND","3.2","1.5","ND","ND","ND","ND","45","0.1"],
    [76814,"2019-02-09T09:00:00","65.4","ND","ND","ND","4.8","1.3","ND","ND","ND","ND","340","0"],
    [76815,"2019-02-09T10:00:00","59.5","ND","ND","ND","6.4","1.7","ND","ND","ND","ND","410","0"],
    [76816,"2019-02-09T11:00:00","15.1","ND","ND","ND","10.6","1.5","ND","ND","ND","ND","278","0"],
    [76817,"2019-02-09T12:00:00","31.4","ND","ND","ND","21.2","1","ND","ND","ND","ND","634","0"],
    [76818,"2019-02-09T13:00:00","41.8","ND","ND","ND","36.8","1.4","ND","ND","ND","ND","627","0"],
    [76819,"2019-02-09T14:00:00","44.3","ND","ND","ND","54.5","1.1","ND","ND","ND","ND","665","0"],
    [76820,"2019-02-09T15:00:00","31.8","ND","ND","ND","60","1.8","ND","ND","ND","ND","665","0"],
    [76821,"2019-02-09T16:00:00","13.6","ND","ND","ND","44.6","1.8","ND","ND","ND","ND","665","0"],
    [76822,"2019-02-09T17:00:00","8.9","ND","ND","ND","32.5","1.2","ND","ND","ND","ND","635","0"],
    [76823,"2019-02-09T18:00:00","6.6","ND","ND","ND","21.8","0.9","ND","ND","ND","ND","650","0"],
    [76824,"2019-02-09T19:00:00","ND","ND","ND","ND","12.8","1","ND","ND","ND","ND","0","0"],
    [76825,"2019-02-09T20:00:00","8.6","ND","ND","ND","1.6","1.3","ND","ND","ND","ND","0","0"],
    [76826,"2019-02-09T21:00:00","30.8","ND","ND","ND","2.8","2.1","ND","ND","ND","ND","0","0"],
    [76827,"2019-02-09T22:00:00","13.2","ND","ND","ND","2.2","1.3","ND","ND","ND","ND","0","0.9"],
    [76828,"2019-02-09T23:00:00","40.9","ND","ND","ND","1.4","1.4","ND","ND","ND","ND","0","1.6"],
    [76829,"2019-02-10T00:00:00","50.6","ND","ND","ND","3.1","1.6","ND","ND","ND","ND","0","2.2"],
    [76830,"2019-02-10T01:00:00","28.5","ND","ND","ND","2.5","2","ND","ND","ND","ND","0","0"],
    [76831,"2019-02-10T02:00:00","32.2","ND","ND","ND","1.4","3.2","ND","ND","ND","ND","0","0"],
    [76832,"2019-02-10T03:00:00","29.6","ND","ND","ND","1.5","3","ND","ND","ND","ND","0","0"],
    [76833,"2019-02-10T04:00:00","15.5","ND","ND","ND","3.1","1.3","ND","ND","ND","ND","0","0"],
    [76834,"2019-02-10T05:00:00","19.8","ND","ND","ND","1.9","1.4","ND","ND","ND","ND","0","0"],
    [76835,"2019-02-10T06:00:00","21.4","ND","ND","ND","1.3","1.3","ND","ND","ND","ND","0","0"],
    [76836,"2019-02-10T07:00:00","29","ND","ND","ND","1.4","2.6","ND","ND","ND","ND","0","0"],
    [76837,"2019-02-10T08:00:00","40.5","ND","ND","ND","2.4","2.3","ND","ND","ND","ND","44","0"],
    [76838,"2019-02-10T09:00:00","54.1","ND","ND","ND","8.5","2.3","ND","ND","ND","ND","400","0"],
    [76839,"2019-02-10T10:00:00","54.9","ND","ND","ND","20.6","2.1","ND","ND","ND","ND","606","0"],
    [76840,"2019-02-10T11:00:00","46.8","ND","ND","ND","38.3","1.8","ND","ND","ND","ND","665","ND"],
    [76841,"2019-02-10T12:00:00","25.4","ND","ND","ND","56.6","1.4","ND","ND","ND","ND","665","0"],
    [76842,"2019-02-10T13:00:00","17.3","ND","ND","ND","68","1.4","ND","ND","ND","ND","665","0"],
    [76843,"2019-02-10T14:00:00","25.2","ND","ND","ND","61.2","1.5","ND","ND","ND","ND","666","0"],
    [76844,"2019-02-10T15:00:00","20.1","ND","ND","ND","32.4","1.2","ND","ND","ND","ND","663","0"],
    [76845,"2019-02-10T16:00:00","0.4","ND","ND","ND","26.5","1.6","ND","ND","ND","ND","665","0"],
    [76846,"2019-02-10T17:00:00","4.8","ND","ND","ND","26","1.1","ND","ND","ND","ND","539","0"],
    [76847,"2019-02-10T18:00:00","16.6","ND","ND","ND","24","1.4","ND","ND","ND","ND","578","0.2"],
    [76848,"2019-02-10T19:00:00","6","ND","ND","ND","13.9","0.8","ND","ND","ND","ND","0","0"],
    [76849,"2019-02-10T20:00:00","0.5","ND","ND","ND","5.7","0.7","ND","ND","ND","ND","0","0"],
    [76850,"2019-02-10T21:00:00","15.8","ND","ND","ND","1.8","2.2","ND","ND","ND","ND","0","0"],
    [76851,"2019-02-10T22:00:00","40","ND","ND","ND","4.2","2.1","ND","ND","ND","ND","0","0"],
    [76852,"2019-02-10T23:00:00","28.9","ND","ND","ND","11.4","0.7","ND","ND","ND","ND","0","0"],
    [76853,"2019-02-11T00:00:00","13.7","ND","ND","ND","2.3","1","ND","ND","ND","ND","0","0"],
    [76854,"2019-02-11T01:00:00","13.2","ND","ND","ND","3.5","2.2","ND","ND","ND","ND","0","ND"],
    [76855,"2019-02-11T02:00:00","15.3","ND","ND","ND","1.9","2.1","ND","ND","ND","ND","0","0"],
    [76856,"2019-02-11T03:00:00","21.3","ND","ND","ND","1.5","3","ND","ND","ND","ND","0","0"],
    [76857,"2019-02-11T04:00:00","23.3","ND","ND","ND","1.3","2.6","ND","ND","ND","ND","0","ND"],
    [76858,"2019-02-11T05:00:00","22.1","ND","ND","ND","1.4","1.4","ND","ND","ND","ND","0","0"],
    [76859,"2019-02-11T06:00:00","32","ND","ND","ND","1.5","3.2","ND","ND","ND","ND","0","0"],
    [76860,"2019-02-11T07:00:00","24.1","ND","ND","ND","1.6","2.1","ND","ND","ND","ND","0","ND"],
    [76861,"2019-02-11T08:00:00","27.6","ND","ND","ND","1.9","2.1","ND","ND","ND","ND","29","ND"],
    [76862,"2019-02-11T09:00:00","51.4","ND","ND","ND","4","2","ND","ND","ND","ND","262","0"],
    [76863,"2019-02-11T10:00:00","52","ND","ND","ND","11.6","1.9","ND","ND","ND","ND","635","0"],
    [76864,"2019-02-11T11:00:00","32.6","ND","ND","ND","26.2","1.5","ND","ND","ND","ND","664","0"],
    [76865,"2019-02-11T12:00:00","27.2","ND","ND","ND","40.6","2.1","ND","ND","ND","ND","665","0.3"],
    [76866,"2019-02-11T13:00:00","25.2","ND","ND","ND","47.7","2","ND","ND","ND","ND","665","ND"],
    [76867,"2019-02-11T14:00:00","23.7","ND","ND","ND","49.7","1.2","ND","ND","ND","ND","657","ND"],
    [76868,"2019-02-11T15:00:00","12.4","ND","ND","ND","34.4","1.7","ND","ND","ND","ND","609","0"],
    [76869,"2019-02-11T16:00:00","12.1","ND","ND","ND","28.5","1.4","ND","ND","ND","ND","617","0"],
    [76870,"2019-02-11T17:00:00","18.1","ND","ND","ND","31.7","0.9","ND","ND","ND","ND","666","0"],
    [76871,"2019-02-11T18:00:00","2.1","ND","ND","ND","24","0.9","ND","ND","ND","ND","659","1.5"],
    [76872,"2019-02-11T19:00:00","ND","ND","ND","ND","14.2","1.5","ND","ND","ND","ND","0","0"],
    [76873,"2019-02-11T20:00:00","13.5","ND","ND","ND","7.8","1.3","ND","ND","ND","ND","0","ND"],
    [76874,"2019-02-11T21:00:00","18.9","ND","ND","ND","1.9","1.4","ND","ND","ND","ND","0","0.4"],
    [76875,"2019-02-11T22:00:00","27.3","ND","ND","ND","8.3","1.4","ND","ND","ND","ND","0","ND"],
    [76876,"2019-02-11T23:00:00","21.1","ND","ND","ND","6.4","1.2","ND","ND","ND","ND","0","ND"],
    [76877,"2019-02-12T00:00:00","5.7","ND","ND","ND","6.3","1.9","ND","ND","ND","ND","0","ND"],
    [76878,"2019-02-12T01:00:00","23","ND","ND","ND","1.4","3.1","ND","ND","ND","ND","0","0"],
    [76879,"2019-02-12T02:00:00","21.4","ND","ND","ND","1.3","2.7","ND","ND","ND","ND","0","0"],
    [76880,"2019-02-12T03:00:00","5","ND","ND","ND","3.3","2.7","ND","ND","ND","ND","0","0"],
    [76881,"2019-02-12T04:00:00","20.5","ND","ND","ND","9.2","1.6","ND","ND","ND","ND","0","0"],
    [76882,"2019-02-12T05:00:00","22.4","ND","ND","ND","6.2","1.4","ND","ND","ND","ND","0","16.3"],
    [76883,"2019-02-12T06:00:00","2.8","ND","ND","ND","1.7","1.1","ND","ND","ND","ND","0","0"],
    [76884,"2019-02-12T07:00:00","10.4","ND","ND","ND","1.5","1","ND","ND","ND","ND","0","0"],
    [76885,"2019-02-12T08:00:00","45.9","ND","ND","ND","1.6","1.8","ND","ND","ND","ND","22","0"],
    [76886,"2019-02-12T09:00:00","67.3","ND","ND","ND","1.6","2.4","ND","ND","ND","ND","107","0"],
    [76887,"2019-02-12T10:00:00","55.4","ND","ND","ND","3.2","1.3","ND","ND","ND","ND","234","0"],
    [76888,"2019-02-12T11:00:00","40.8","ND","ND","ND","11.3","1.8","ND","ND","ND","ND","592","0"],
    [76889,"2019-02-12T12:00:00","34.5","ND","ND","ND","22.2","1.7","ND","ND","ND","ND","665","0"],
    [76890,"2019-02-12T13:00:00","35.2","ND","ND","ND","28.3","1.7","ND","ND","ND","ND","665","0"],
    [76891,"2019-02-12T14:00:00","28.9","ND","ND","ND","44.1","1.4","ND","ND","ND","ND","665","0"],
    [76892,"2019-02-12T15:00:00","32.1","ND","ND","ND","51.6","1.2","ND","ND","ND","ND","662","0"],
    [76893,"2019-02-12T16:00:00","38","ND","ND","ND","67.9","1.7","ND","ND","ND","ND","666","0"],
    [76894,"2019-02-12T17:00:00","29.9","ND","ND","ND","26.5","1.7","ND","ND","ND","ND","524","0"],
    [76895,"2019-02-12T18:00:00","2.1","ND","ND","ND","14.5","1.5","ND","ND","ND","ND","195","0"],
    [76896,"2019-02-12T19:00:00","ND","ND","ND","ND","7","1.2","ND","ND","ND","ND","0","0.5"],
    [76897,"2019-02-12T20:00:00","21.5","ND","ND","ND","5.4","1.2","ND","ND","ND","ND","0","0.1"],
    [76898,"2019-02-12T21:00:00","25.2","ND","ND","ND","2.1","1","ND","ND","ND","ND","0","0.4"],
    [76899,"2019-02-12T22:00:00","35.9","ND","ND","ND","1.4","1.4","ND","ND","ND","ND","0","ND"],
    [76900,"2019-02-12T23:00:00","41.1","ND","ND","ND","1.5","2","ND","ND","ND","ND","0","0"],
    [76901,"2019-02-13T00:00:00","34.5","ND","ND","ND","1.3","1.3","ND","ND","ND","ND","0","0"],
    [76902,"2019-02-13T01:00:00","32.7","ND","ND","ND","1.4","2.8","ND","ND","ND","ND","0","0"],
    [76903,"2019-02-13T02:00:00","68.8","ND","ND","ND","1.5","2.6","ND","ND","ND","ND","0","1.1"],
    [76904,"2019-02-13T03:00:00","56.1","ND","ND","ND","1.4","3","ND","ND","ND","ND","0","ND"],
    [76905,"2019-02-13T04:00:00","41.5","ND","ND","ND","1.3","3.1","ND","ND","ND","ND","0","0"],
    [76906,"2019-02-13T05:00:00","41","ND","ND","ND","1.4","3.7","ND","ND","ND","ND","0","0"],
    [76907,"2019-02-13T06:00:00","40.8","ND","ND","ND","1.5","3.6","ND","ND","ND","ND","0","0.1"],
    [76908,"2019-02-13T07:00:00","42.5","ND","ND","ND","1.5","1.2","ND","ND","ND","ND","0","0"],
    [76909,"2019-02-13T08:00:00","63.8","ND","ND","ND","2","2.2","ND","ND","ND","ND","32","0"],
    [76910,"2019-02-13T09:00:00","91.7","ND","ND","ND","ND","2","ND","ND","ND","ND","320","0"],
    [76911,"2019-02-13T10:00:00","87","ND","ND","ND","ND","2.5","ND","ND","ND","ND","650","0"],
    [76912,"2019-02-13T11:00:00","50.4","ND","ND","ND","45.7","9","ND","ND","ND","ND","665","0"],
    [76913,"2019-02-13T12:00:00","23.1","ND","ND","ND","70.2","3.7","ND","ND","ND","ND","666","0"],
    [76914,"2019-02-13T13:00:00","37","ND","ND","ND","104.5","2.8","ND","ND","ND","ND","666","0"],
    [76915,"2019-02-13T14:00:00","48.8","ND","ND","ND","95.2","2.4","ND","ND","ND","ND","666","0"],
    [76916,"2019-02-13T15:00:00","41.9","ND","ND","ND","42.7","1.8","ND","ND","ND","ND","664","0"],
    [76917,"2019-02-13T16:00:00","24.7","ND","ND","ND","35.2","2.1","ND","ND","ND","ND","666","ND"],
    [76918,"2019-02-13T17:00:00","22.7","ND","ND","ND","33.9","1.4","ND","ND","ND","ND","667","0"],
    [76919,"2019-02-13T18:00:00","4.9","ND","ND","ND","30.4","1.7","ND","ND","ND","ND","549","0"],
    [76920,"2019-02-13T19:00:00","3.3","ND","ND","ND","17.2","1.2","ND","ND","ND","ND","0","0"],
    [76921,"2019-02-13T20:00:00","32.4","ND","ND","ND","1.9","1.4","ND","ND","ND","ND","0","0.2"],
    [76922,"2019-02-13T21:00:00","30.7","ND","ND","ND","1.6","2.7","ND","ND","ND","ND","0","0"],
    [76923,"2019-02-13T22:00:00","40","ND","ND","ND","1.7","3.8","ND","ND","ND","ND","0","0"],
    [76924,"2019-02-13T23:00:00","32.3","ND","ND","ND","1.5","4.1","ND","ND","ND","ND","0","0"],
    [76925,"2019-02-14T00:00:00","20.4","ND","ND","ND","1.5","3.6","ND","ND","ND","ND","0","0"],
    [76926,"2019-02-14T01:00:00","33.2","ND","ND","ND","1.6","3.2","ND","ND","ND","ND","0","0"],
    [76927,"2019-02-14T02:00:00","58.1","ND","ND","ND","1.6","4.1","ND","ND","ND","ND","0","0"],
    [76928,"2019-02-14T03:00:00","43","ND","ND","ND","1.6","3.7","ND","ND","ND","ND","0","0"],
    [76929,"2019-02-14T04:00:00","39.3","ND","ND","ND","1.5","3.1","ND","ND","ND","ND","0","0"],
    [76930,"2019-02-14T05:00:00","31.8","ND","ND","ND","1.5","3.3","ND","ND","ND","ND","0","0"],
    [76931,"2019-02-14T06:00:00","41.8","ND","ND","ND","1.7","2.9","ND","ND","ND","ND","0","0"],
    [76932,"2019-02-14T07:00:00","68.2","ND","ND","ND","2.2","3.5","ND","ND","ND","ND","0","0"],
    [76933,"2019-02-14T08:00:00","70.9","ND","ND","ND","2.6","2.8","ND","ND","ND","ND","33","0"],
    [76934,"2019-02-14T09:00:00","83.8","ND","ND","ND","5","3.3","ND","ND","ND","ND","205","0"],
    [76935,"2019-02-14T10:00:00","82.1","ND","ND","ND","19.5","4.5","ND","ND","ND","ND","633","0"],
    [76936,"2019-02-14T11:00:00","48.6","ND","ND","ND","39.7","4.3","ND","ND","ND","ND","666","0"],
    [76937,"2019-02-14T12:00:00","43.5","ND","ND","ND","67.2","2.8","ND","ND","ND","ND","666","0"],
    [76938,"2019-02-14T13:00:00","48.9","ND","ND","ND","65.5","2.3","ND","ND","ND","ND","666","0"],
    [76939,"2019-02-14T14:00:00","40.2","ND","ND","ND","57.8","1.5","ND","ND","ND","ND","666","0"],
    [76940,"2019-02-14T15:00:00","19.4","ND","ND","ND","35.1","1.1","ND","ND","ND","ND","667","0"],
    [76941,"2019-02-14T16:00:00","8.3","ND","ND","ND","35.2","1.5","ND","ND","ND","ND","660","0"],
    [76942,"2019-02-14T17:00:00","10.3","ND","ND","ND","30","1.3","ND","ND","ND","ND","667","0.4"],
    [76943,"2019-02-14T18:00:00","1.3","ND","ND","ND","25.5","1.1","ND","ND","ND","ND","657","ND"],
    [76944,"2019-02-14T19:00:00","2.1","ND","ND","ND","13.4","1.2","ND","ND","ND","ND","0","0"],
    [76945,"2019-02-14T20:00:00","17.3","ND","ND","ND","2.9","1.3","ND","ND","ND","ND","0","0"],
    [76946,"2019-02-14T21:00:00","39.7","ND","ND","ND","3.7","1.4","ND","ND","ND","ND","0","0"],
    [76947,"2019-02-14T22:00:00","51.2","ND","ND","ND","3.8","3.2","ND","ND","ND","ND","0","0.4"],
    [76948,"2019-02-14T23:00:00","62.3","ND","ND","ND","2.5","3.9","ND","ND","ND","ND","0","0"],
    [76949,"2019-02-15T00:00:00","56","ND","ND","ND","2.5","4.8","ND","ND","ND","ND","0","0"],
    [76950,"2019-02-15T01:00:00","50.3","ND","ND","ND","2.4","4.5","ND","ND","ND","ND","0","0"],
    [76951,"2019-02-15T02:00:00","40.6","ND","ND","ND","1.4","8.1","ND","ND","ND","ND","0","0"],
    [76952,"2019-02-15T03:00:00","26.5","ND","ND","ND","1.7","4.3","ND","ND","ND","ND","0","0"],
    [76953,"2019-02-15T04:00:00","33.9","ND","ND","ND","2.1","2.7","ND","ND","ND","ND","0","0"],
    [76954,"2019-02-15T05:00:00","32.6","ND","ND","ND","1.9","2.4","ND","ND","ND","ND","0","0"],
    [76955,"2019-02-15T06:00:00","18.3","ND","ND","ND","2.2","2","ND","ND","ND","ND","0","0"],
    [76956,"2019-02-15T07:00:00","71.6","ND","ND","ND","2.1","5.4","ND","ND","ND","ND","0","0"],
    [76957,"2019-02-15T08:00:00","100.2","ND","ND","ND","4","7.9","ND","ND","ND","ND","56","0"],
    [76958,"2019-02-15T09:00:00","69.5","ND","ND","ND","9.5","4.1","ND","ND","ND","ND","414","0"],
    [76959,"2019-02-15T10:00:00","52.9","ND","ND","ND","36.3","2.3","ND","ND","ND","ND","665","0"],
    [76960,"2019-02-15T11:00:00","37","ND","ND","ND","65.4","1.5","ND","ND","ND","ND","665","0"],
    [76961,"2019-02-15T12:00:00","36.1","ND","ND","ND","82.1","1.5","ND","ND","ND","ND","665","0"],
    [76962,"2019-02-15T13:00:00","42","ND","ND","ND","100.4","2.4","ND","ND","ND","ND","666","0"],
    [76963,"2019-02-15T14:00:00","48.8","ND","ND","ND","106.5","1.7","ND","ND","ND","ND","666","0"],
    [76964,"2019-02-15T15:00:00","48.4","ND","ND","ND","52.3","1.3","ND","ND","ND","ND","664","0"],
    [76965,"2019-02-15T16:00:00","21.7","ND","ND","ND","38.6","1.3","ND","ND","ND","ND","666","0"],
    [76966,"2019-02-15T17:00:00","19.2","ND","ND","ND","29.9","1.3","ND","ND","ND","ND","666","0"],
    [76967,"2019-02-15T18:00:00","6","ND","ND","ND","32.7","1.3","ND","ND","ND","ND","653","0"],
    [76968,"2019-02-15T19:00:00","8.8","ND","ND","ND","29.4","0.9","ND","ND","ND","ND","0","0.4"],
    [76969,"2019-02-15T20:00:00","14.8","ND","ND","ND","5.1","1.4","ND","ND","ND","ND","0","0.1"],
    [76970,"2019-02-15T21:00:00","33.4","ND","ND","ND","6.6","2.3","ND","ND","ND","ND","0","0.2"],
    [76971,"2019-02-15T22:00:00","20.3","ND","ND","ND","5.9","1.9","ND","ND","ND","ND","0","0"],
    [76972,"2019-02-15T23:00:00","17.8","ND","ND","ND","4.1","5.3","ND","ND","ND","ND","0","0"],
    [76973,"2019-02-16T00:00:00","36.6","ND","ND","ND","2.5","3","ND","ND","ND","ND","0","0"],
    [76974,"2019-02-16T01:00:00","26.1","ND","ND","ND","2.4","1.6","ND","ND","ND","ND","0","0"],
    [76975,"2019-02-16T02:00:00","44.8","ND","ND","ND","2.3","4.2","ND","ND","ND","ND","0","0"],
    [76976,"2019-02-16T03:00:00","41.1","ND","ND","ND","2.7","2.7","ND","ND","ND","ND","0","0"],
    [76977,"2019-02-16T04:00:00","51.4","ND","ND","ND","3.3","2.3","ND","ND","ND","ND","0","0"],
    [76978,"2019-02-16T05:00:00","54.9","ND","ND","ND","2.5","2.6","ND","ND","ND","ND","0","0"],
    [76979,"2019-02-16T06:00:00","45.8","ND","ND","ND","2.3","2.7","ND","ND","ND","ND","0","0"],
    [76980,"2019-02-16T07:00:00","62.4","ND","ND","ND","2.5","2.4","ND","ND","ND","ND","0","0"],
    [76981,"2019-02-16T08:00:00","52.8","ND","ND","ND","3.2","2.5","ND","ND","ND","ND","39","0"],
    [76982,"2019-02-16T09:00:00","71.9","ND","ND","ND","4.1","3.9","ND","ND","ND","ND","154","0.2"],
    [76983,"2019-02-16T10:00:00","86.4","ND","ND","ND","18.5","1.9","ND","ND","ND","ND","441","0"],
    [76984,"2019-02-16T11:00:00","56.2","ND","ND","ND","47.9","2.1","ND","ND","ND","ND","594","0"],
    [76985,"2019-02-16T12:00:00","30.1","ND","ND","ND","74.1","1.8","ND","ND","ND","ND","614","0"],
    [76986,"2019-02-16T13:00:00","43.8","ND","ND","ND","86.9","1.9","ND","ND","ND","ND","665","0"],
    [76987,"2019-02-16T14:00:00","46","ND","ND","ND","77.1","1.6","ND","ND","ND","ND","570","0"],
    [76988,"2019-02-16T15:00:00","36","ND","ND","ND","33.2","1.2","ND","ND","ND","ND","649","0"],
    [76989,"2019-02-16T16:00:00","4","ND","ND","ND","31.9","1.2","ND","ND","ND","ND","663","0"],
    [76990,"2019-02-16T17:00:00","1.6","ND","ND","ND","32.4","1.2","ND","ND","ND","ND","665","0"],
    [76991,"2019-02-16T18:00:00","4.6","ND","ND","ND","31.3","1.6","ND","ND","ND","ND","633","0"],
    [76992,"2019-02-16T19:00:00","0.4","ND","ND","ND","29.6","0.8","ND","ND","ND","ND","0","0"],
    [76993,"2019-02-16T20:00:00","4.2","ND","ND","ND","10.5","1.1","ND","ND","ND","ND","0","0"],
    [76994,"2019-02-16T21:00:00","19.9","ND","ND","ND","6.4","1.9","ND","ND","ND","ND","0","0"],
    [76995,"2019-02-16T22:00:00","57","ND","ND","ND","4.7","2.7","ND","ND","ND","ND","0","0"],
    [76996,"2019-02-16T23:00:00","34.5","ND","ND","ND","7.3","3.2","ND","ND","ND","ND","0","0"],
    [76997,"2019-02-17T00:00:00","1.6","ND","ND","ND","4.3","2.5","ND","ND","ND","ND","0","0"],
    [76998,"2019-02-17T01:00:00","17.6","ND","ND","ND","3.4","2.3","ND","ND","ND","ND","0","0"],
    [76999,"2019-02-17T02:00:00","39.6","ND","ND","ND","4.7","2.6","ND","ND","ND","ND","0","0"],
    [77000,"2019-02-17T03:00:00","35","ND","ND","ND","3.3","2.9","ND","ND","ND","ND","0","0"],
    [77001,"2019-02-17T04:00:00","26.8","ND","ND","ND","3.6","2.6","ND","ND","ND","ND","0","0"],
    [77002,"2019-02-17T05:00:00","24.7","ND","ND","ND","4.1","2.4","ND","ND","ND","ND","0","0"],
    [77003,"2019-02-17T06:00:00","36.9","ND","ND","ND","3.4","2.3","ND","ND","ND","ND","0","0"],
    [77004,"2019-02-17T07:00:00","26.1","ND","ND","ND","9","1.8","ND","ND","ND","ND","0","0"],
    [77005,"2019-02-17T08:00:00","28.6","ND","ND","ND","5","2.2","ND","ND","ND","ND","87","0"],
    [77006,"2019-02-17T09:00:00","46.3","ND","ND","ND","4.6","7.2","ND","ND","ND","ND","124","0"],
    [77007,"2019-02-17T10:00:00","57.2","ND","ND","ND","16.9","3.7","ND","ND","ND","ND","472","0.3"],
    [77008,"2019-02-17T11:00:00","36.3","ND","ND","ND","34","2.5","ND","ND","ND","ND","643","0"],
    [77009,"2019-02-17T12:00:00","30.5","ND","ND","ND","64.6","1.8","ND","ND","ND","ND","665","0"],
    [77010,"2019-02-17T13:00:00","26.9","ND","ND","ND","76","1.2","ND","ND","ND","ND","663","0.1"],
    [77011,"2019-02-17T14:00:00","36.9","ND","ND","ND","58.6","2","ND","ND","ND","ND","578","0"],
    [77012,"2019-02-17T15:00:00","26.2","ND","ND","ND","36.2","1.4","ND","ND","ND","ND","634","0"],
    [77013,"2019-02-17T16:00:00","16.6","ND","ND","ND","27.7","0.9","ND","ND","ND","ND","666","0"],
    [77014,"2019-02-17T17:00:00","1.5","ND","ND","ND","27.1","0.8","ND","ND","ND","ND","666","0"],
    [77015,"2019-02-17T18:00:00","0.2","ND","ND","ND","25.6","0.9","ND","ND","ND","ND","661","0"],
    [77016,"2019-02-17T19:00:00","0.3","ND","ND","ND","17.4","1.3","ND","ND","ND","ND","0","0"],
    [77017,"2019-02-17T20:00:00","0.2","ND","ND","ND","16.2","1","ND","ND","ND","ND","0","0"],
    [77018,"2019-02-17T21:00:00","14.1","ND","ND","ND","6.7","4.2","ND","ND","ND","ND","0","0"],
    [77019,"2019-02-17T22:00:00","23.7","ND","ND","ND","8","2.8","ND","ND","ND","ND","0","0"],
    [77020,"2019-02-17T23:00:00","13.2","ND","ND","ND","4.3","1.9","ND","ND","ND","ND","0","0"],
    [77021,"2019-02-18T00:00:00","22.5","ND","ND","ND","9.1","1.8","ND","ND","ND","ND","0","0"],
    [77022,"2019-02-18T01:00:00","12.2","ND","ND","ND","7.7","1.9","ND","ND","ND","ND","0","0"],
    [77023,"2019-02-18T02:00:00","6.1","ND","ND","ND","11.9","1.4","ND","ND","ND","ND","0","0"],
    [77024,"2019-02-18T03:00:00","19.6","ND","ND","ND","13.4","1","ND","ND","ND","ND","0","0"],
    [77025,"2019-02-18T04:00:00","13.3","ND","ND","ND","4.6","2","ND","ND","ND","ND","0","0"],
    [77026,"2019-02-18T05:00:00","5.5","ND","ND","ND","2.1","1.9","ND","ND","ND","ND","0","0"],
    [77027,"2019-02-18T06:00:00","28.1","ND","ND","ND","2.1","1.8","ND","ND","ND","ND","0","0"],
    [77028,"2019-02-18T07:00:00","42","ND","ND","ND","1.9","1.6","ND","ND","ND","ND","0","0"],
    [77029,"2019-02-18T08:00:00","21.4","ND","ND","ND","1.8","2.2","ND","ND","ND","ND","48","0"],
    [77030,"2019-02-18T09:00:00","35.9","ND","ND","ND","2.8","2","ND","ND","ND","ND","394","0"],
    [77031,"2019-02-18T10:00:00","ND","ND","ND","ND","ND","ND","ND","ND","ND","ND","497","0"],
    [77032,"2019-02-18T11:00:00","ND","ND","ND","ND","ND","ND","ND","ND","ND","ND","ND","0"],
    [77033,"2019-02-18T12:00:00","ND","ND","ND","ND","ND","ND","ND","ND","ND","ND","ND","0"],
    [77034,"2019-02-18T13:00:00","ND","ND","ND","ND","ND","ND","ND","ND","ND","ND","ND","0"],
    [77035,"2019-02-18T14:00:00","ND","ND","ND","ND","ND","ND","ND","ND","ND","ND","ND","0"],
    [77036,"2019-02-18T15:00:00","ND","ND","ND","ND","ND","ND","ND","ND","ND","ND","ND","0"],
    [77037,"2019-02-18T16:00:00","ND","ND","ND","ND","ND","ND","ND","ND","ND","ND","ND","0"],
    [77038,"2019-02-18T17:00:00","ND","ND","ND","ND","ND","ND","ND","ND","ND","ND","ND","0"],
    [77039,"2019-02-18T18:00:00","ND","ND","ND","ND","ND","ND","ND","ND","ND","ND","ND","0"],
    [77040,"2019-02-18T19:00:00","ND","ND","ND","ND","ND","ND","ND","ND","ND","ND","ND","0.1"],
    [77041,"2019-02-18T20:00:00","ND","ND","ND","ND","ND","ND","ND","ND","ND","ND","ND","0"],
    [77042,"2019-02-18T21:00:00","ND","ND","ND","ND","ND","ND","ND","ND","ND","ND","ND","0"],
    [77043,"2019-02-18T22:00:00","ND","ND","ND","ND","ND","ND","ND","ND","ND","ND","ND","0"],
    [77044,"2019-02-18T23:00:00","ND","ND","ND","ND","ND","ND","ND","ND","ND","ND","ND","0"],
    [77045,"2019-02-19T00:00:00","ND","ND","ND","ND","ND","ND","ND","ND","ND","ND","ND","0"],
    [77046,"2019-02-19T01:00:00","ND","ND","ND","ND","ND","ND","ND","ND","ND","ND","ND","0"],
    [77047,"2019-02-19T02:00:00","ND","ND","ND","ND","ND","ND","ND","ND","ND","ND","ND","0"],
    [77048,"2019-02-19T03:00:00","ND","ND","ND","ND","ND","ND","ND","ND","ND","ND","ND","0"],
    [77049,"2019-02-19T04:00:00","ND","ND","ND","ND","ND","ND","ND","ND","ND","ND","ND","0"],
    [77050,"2019-02-19T05:00:00","ND","ND","ND","ND","ND","ND","ND","ND","ND","ND","ND","0"],
    [77051,"2019-02-19T06:00:00","ND","ND","ND","ND","ND","ND","ND","ND","ND","ND","ND","0"],
    [77052,"2019-02-19T07:00:00","ND","ND","ND","ND","ND","ND","ND","ND","ND","ND","ND","0"],
    [77053,"2019-02-19T08:00:00","ND","ND","ND","ND","ND","ND","ND","ND","ND","ND","ND","0"],
    [77054,"2019-02-19T09:00:00","ND","ND","ND","ND","ND","ND","ND","ND","ND","ND","ND","0"],
    [77055,"2019-02-19T10:00:00","ND","ND","ND","ND","ND","ND","ND","ND","ND","ND","ND","0"],
    [77056,"2019-02-19T11:00:00","ND","ND","ND","ND","ND","ND","ND","ND","ND","ND","ND","0"],
    [77057,"2019-02-19T12:00:00","ND","ND","ND","ND","ND","ND","ND","ND","ND","ND","ND","0"],
    [77058,"2019-02-19T13:00:00","ND","ND","ND","ND","ND","ND","ND","ND","ND","ND","ND","0"],
    [77059,"2019-02-19T14:00:00","ND","ND","ND","ND","ND","ND","ND","ND","ND","ND","ND","0"],
    [77060,"2019-02-19T15:00:00","ND","ND","ND","ND","ND","ND","ND","ND","ND","ND","ND","0"],
    [77061,"2019-02-19T16:00:00","ND","ND","ND","ND","ND","ND","ND","ND","ND","ND","ND","0"],
    [77062,"2019-02-19T17:00:00","ND","ND","ND","ND","ND","ND","ND","ND","ND","ND","ND","0"],
    [77063,"2019-02-19T18:00:00","ND","ND","ND","ND","ND","ND","ND","ND","ND","ND","ND","0"],
    [77064,"2019-02-19T19:00:00","ND","ND","ND","ND","ND","ND","ND","ND","ND","ND","ND","0"],
    [77065,"2019-02-19T20:00:00","ND","ND","ND","ND","ND","ND","ND","ND","ND","ND","ND","0"],
    [77066,"2019-02-19T21:00:00","ND","ND","ND","ND","ND","ND","ND","ND","ND","ND","ND","0"],
    [77067,"2019-02-19T22:00:00","ND","ND","ND","ND","ND","ND","ND","ND","ND","ND","ND","0"],
    [77068,"2019-02-19T23:00:00","ND","ND","ND","ND","ND","ND","ND","ND","ND","ND","ND","0"],
    [77069,"2019-02-20T00:00:00","ND","ND","ND","ND","ND","ND","ND","ND","ND","ND","ND","0"],
    [77070,"2019-02-20T01:00:00","ND","ND","ND","ND","ND","ND","ND","ND","ND","ND","ND","0"],
    [77071,"2019-02-20T02:00:00","ND","ND","ND","ND","ND","ND","ND","ND","ND","ND","ND","0"],
    [77072,"2019-02-20T03:00:00","ND","ND","ND","ND","ND","ND","ND","ND","ND","ND","ND","0"],
    [77073,"2019-02-20T04:00:00","ND","ND","ND","ND","ND","ND","ND","ND","ND","ND","ND","0"],
    [77074,"2019-02-20T05:00:00","ND","ND","ND","ND","ND","ND","ND","ND","ND","ND","ND","0"],
    [77075,"2019-02-20T06:00:00","ND","ND","ND","ND","ND","ND","ND","ND","ND","ND","ND","0"],
    [77076,"2019-02-20T07:00:00","ND","ND","ND","ND","ND","ND","ND","ND","ND","ND","ND","0"],
    [77077,"2019-02-20T08:00:00","ND","ND","ND","ND","ND","ND","ND","ND","ND","ND","ND","0"],
    [77078,"2019-02-20T09:00:00","ND","ND","ND","ND","ND","ND","ND","ND","ND","ND","ND","0"],
    [77079,"2019-02-20T10:00:00","ND","ND","ND","ND","ND","ND","ND","ND","ND","ND","ND","0"],
    [77080,"2019-02-20T11:00:00","ND","ND","ND","ND","ND","ND","ND","ND","ND","ND","ND","0"],
    [77081,"2019-02-20T12:00:00","ND","ND","ND","ND","ND","ND","ND","ND","ND","ND","ND","0"],
    [77082,"2019-02-20T13:00:00","ND","ND","ND","ND","ND","ND","ND","ND","ND","ND","ND","0"],
    [77083,"2019-02-20T14:00:00","ND","ND","ND","ND","ND","ND","ND","ND","ND","ND","ND","0"],
    [77084,"2019-02-20T15:00:00","ND","ND","ND","ND","ND","ND","ND","ND","ND","ND","ND","0"],
    [77085,"2019-02-20T16:00:00","ND","ND","ND","ND","ND","ND","ND","ND","ND","ND","ND","0"],
    [77086,"2019-02-20T17:00:00","ND","ND","ND","ND","ND","ND","ND","ND","ND","ND","ND","0"],
    [77087,"2019-02-20T18:00:00","ND","ND","ND","ND","ND","ND","ND","ND","ND","ND","ND","0"],
    [77088,"2019-02-20T19:00:00","ND","ND","ND","ND","ND","ND","ND","ND","ND","ND","ND","0"],
    [77089,"2019-02-20T20:00:00","ND","ND","ND","ND","ND","ND","ND","ND","ND","ND","ND","0"],
    [77090,"2019-02-20T21:00:00","ND","ND","ND","ND","ND","ND","ND","ND","ND","ND","ND","0"],
    [77091,"2019-02-20T22:00:00","ND","ND","ND","ND","ND","ND","ND","ND","ND","ND","ND","0"],
    [77092,"2019-02-20T23:00:00","ND","ND","ND","ND","ND","ND","ND","ND","ND","ND","ND","0"],
    [77093,"2019-02-21T00:00:00","ND","ND","ND","ND","ND","ND","ND","ND","ND","ND","ND","0"],
    [77094,"2019-02-21T01:00:00","ND","ND","ND","ND","ND","ND","ND","ND","ND","ND","ND","12.1"],
    [77095,"2019-02-21T02:00:00","ND","ND","ND","ND","ND","ND","ND","ND","ND","ND","ND","0.6"],
    [77096,"2019-02-21T03:00:00","ND","ND","ND","ND","ND","ND","ND","ND","ND","ND","ND","0.1"],
    [77097,"2019-02-21T04:00:00","ND","ND","ND","ND","ND","ND","ND","ND","ND","ND","ND","0"],
    [77098,"2019-02-21T05:00:00","ND","ND","ND","ND","ND","ND","ND","ND","ND","ND","ND","0"],
    [77099,"2019-02-21T06:00:00","ND","ND","ND","ND","ND","ND","ND","ND","ND","ND","ND","0"],
    [77100,"2019-02-21T07:00:00","ND","ND","ND","ND","ND","ND","ND","ND","ND","ND","ND","0"],
    [77101,"2019-02-21T08:00:00","ND","ND","ND","ND","ND","ND","ND","ND","ND","ND","ND","0"],
    [77102,"2019-02-21T09:00:00","ND","ND","ND","ND","ND","ND","ND","ND","ND","ND","ND","0"],
    [77103,"2019-02-21T10:00:00","ND","ND","ND","ND","ND","ND","ND","ND","ND","ND","ND","0"],
    [77104,"2019-02-21T11:00:00","ND","ND","ND","ND","ND","ND","ND","ND","ND","ND","ND","0"],
    [77105,"2019-02-21T12:00:00","ND","ND","ND","ND","ND","ND","ND","ND","ND","ND","ND","0"],
    [77106,"2019-02-21T13:00:00","ND","ND","ND","ND","ND","ND","ND","ND","ND","ND","ND","0"],
    [77107,"2019-02-21T14:00:00","ND","ND","ND","ND","ND","ND","ND","ND","ND","ND","ND","0"],
    [77108,"2019-02-21T15:00:00","ND","ND","ND","ND","ND","ND","ND","ND","ND","ND","ND","0"],
    [77109,"2019-02-21T16:00:00","ND","ND","ND","ND","ND","ND","ND","ND","ND","ND","ND","0"],
    [77110,"2019-02-21T17:00:00","ND","ND","ND","ND","ND","ND","ND","ND","ND","ND","ND","0"],
    [77111,"2019-02-21T18:00:00","ND","ND","ND","ND","ND","ND","ND","ND","ND","ND","ND","0"],
    [77112,"2019-02-21T19:00:00","ND","ND","ND","ND","ND","ND","ND","ND","ND","ND","ND","0"],
    [77113,"2019-02-21T20:00:00","ND","ND","ND","ND","ND","ND","ND","ND","ND","ND","ND","0"],
    [77114,"2019-02-21T21:00:00","ND","ND","ND","ND","ND","ND","ND","ND","ND","ND","ND","0.1"],
    [77115,"2019-02-21T22:00:00","ND","ND","ND","ND","ND","ND","ND","ND","ND","ND","ND","0.4"],
    [77116,"2019-02-21T23:00:00","ND","ND","ND","ND","ND","ND","ND","ND","ND","ND","ND","0.5"],
    [77117,"2019-02-22T00:00:00","ND","ND","ND","ND","ND","ND","ND","ND","ND","ND","ND","0.3"],
    [77118,"2019-02-22T01:00:00","ND","ND","ND","ND","ND","ND","ND","ND","ND","ND","ND","0"],
    [77119,"2019-02-22T02:00:00","ND","ND","ND","ND","ND","ND","ND","ND","ND","ND","ND","0"],
    [77120,"2019-02-22T03:00:00","ND","ND","ND","ND","ND","ND","ND","ND","ND","ND","ND","0"],
    [77121,"2019-02-22T04:00:00","ND","ND","ND","ND","ND","ND","ND","ND","ND","ND","ND","0"],
    [77122,"2019-02-22T05:00:00","ND","ND","ND","ND","ND","ND","ND","ND","ND","ND","ND","0"],
    [77123,"2019-02-22T06:00:00","ND","ND","ND","ND","ND","ND","ND","ND","ND","ND","ND","0"],
    [77124,"2019-02-22T07:00:00","ND","ND","ND","ND","ND","ND","ND","ND","ND","ND","ND","0"],
    [77125,"2019-02-22T08:00:00","ND","ND","ND","ND","ND","ND","ND","ND","ND","ND","ND","0"],
    [77126,"2019-02-22T09:00:00","ND","ND","ND","ND","ND","ND","ND","ND","ND","ND","ND","0"],
    [77127,"2019-02-22T10:00:00","ND","ND","ND","ND","ND","ND","ND","ND","ND","ND","ND","0"],
    [77128,"2019-02-22T11:00:00","ND","ND","ND","ND","ND","ND","ND","ND","ND","ND","ND","0"],
    [77129,"2019-02-22T12:00:00","ND","ND","ND","ND","ND","ND","ND","ND","ND","ND","ND","0"],
    [77130,"2019-02-22T13:00:00","ND","ND","ND","ND","ND","ND","ND","ND","ND","ND","ND","0"],
    [77131,"2019-02-22T14:00:00","ND","ND","ND","ND","ND","ND","ND","ND","ND","ND","ND","0"],
    [77132,"2019-02-22T15:00:00","ND","ND","ND","ND","ND","ND","ND","ND","ND","ND","ND","0"],
    [77133,"2019-02-22T16:00:00","ND","ND","ND","ND","ND","ND","ND","ND","ND","ND","ND","0"],
    [77134,"2019-02-22T17:00:00","ND","ND","ND","ND","ND","ND","ND","ND","ND","ND","ND","0"],
    [77135,"2019-02-22T18:00:00","ND","ND","ND","ND","ND","ND","ND","ND","ND","ND","ND","0"],
    [77136,"2019-02-22T19:00:00","ND","ND","ND","ND","ND","ND","ND","ND","ND","ND","ND","0"],
    [77137,"2019-02-22T20:00:00","ND","ND","ND","ND","ND","ND","ND","ND","ND","ND","ND","0"],
    [77138,"2019-02-22T21:00:00","ND","ND","ND","ND","ND","ND","ND","ND","ND","ND","ND","0"],
    [77139,"2019-02-22T22:00:00","ND","ND","ND","ND","ND","ND","ND","ND","ND","ND","ND","0"],
    [77140,"2019-02-22T23:00:00","ND","ND","ND","ND","ND","ND","ND","ND","ND","ND","ND","0"],
    [77141,"2019-02-23T00:00:00","ND","ND","ND","ND","ND","ND","ND","ND","ND","ND","ND","0"],
    [77142,"2019-02-23T01:00:00","ND","ND","ND","ND","ND","ND","ND","ND","ND","ND","ND","0"],
    [77143,"2019-02-23T02:00:00","ND","ND","ND","ND","ND","ND","ND","ND","ND","ND","ND","ND"],
    [77144,"2019-02-23T03:00:00","ND","ND","ND","ND","ND","ND","ND","ND","ND","ND","ND","ND"],
    [77145,"2019-02-23T04:00:00","ND","ND","ND","ND","ND","ND","ND","ND","ND","ND","ND","0"],
    [77146,"2019-02-23T05:00:00","ND","ND","ND","ND","ND","ND","ND","ND","ND","ND","ND","0"],
    [77147,"2019-02-23T06:00:00","ND","ND","ND","ND","ND","ND","ND","ND","ND","ND","ND","ND"],
    [77148,"2019-02-23T07:00:00","ND","ND","ND","ND","ND","ND","ND","ND","ND","ND","ND","0"],
    [77149,"2019-02-23T08:00:00","ND","ND","ND","ND","ND","ND","ND","ND","ND","ND","ND","0"],
    [77150,"2019-02-23T09:00:00","ND","ND","ND","ND","ND","ND","ND","ND","ND","ND","ND","0"],
    [77151,"2019-02-23T10:00:00","ND","ND","ND","ND","ND","ND","ND","ND","ND","ND","ND","ND"],
    [77152,"2019-02-23T11:00:00","ND","ND","ND","ND","ND","ND","ND","ND","ND","ND","ND","0"],
    [77153,"2019-02-23T12:00:00","ND","ND","ND","ND","ND","ND","ND","ND","ND","ND","ND","0"],
    [77154,"2019-02-23T13:00:00","ND","ND","ND","ND","ND","ND","ND","ND","ND","ND","ND","ND"],
    [77155,"2019-02-23T14:00:00","ND","ND","ND","ND","ND","ND","ND","ND","ND","ND","ND","0"],
    [77156,"2019-02-23T15:00:00","ND","ND","ND","ND","ND","ND","ND","ND","ND","ND","ND","ND"],
    [77157,"2019-02-23T16:00:00","ND","ND","ND","ND","ND","ND","ND","ND","ND","ND","ND","ND"],
    [77158,"2019-02-23T17:00:00","ND","ND","ND","ND","ND","ND","ND","ND","ND","ND","ND","ND"],
    [77159,"2019-02-23T18:00:00","ND","ND","ND","ND","ND","ND","ND","ND","ND","ND","ND","0"],
    [77160,"2019-02-23T19:00:00","ND","ND","ND","ND","ND","ND","ND","ND","ND","ND","ND","ND"],
    [77161,"2019-02-23T20:00:00","ND","ND","ND","ND","ND","ND","ND","ND","ND","ND","ND","0.1"],
    [77162,"2019-02-23T21:00:00","ND","ND","ND","ND","ND","ND","ND","ND","ND","ND","ND","ND"],
    [77163,"2019-02-23T22:00:00","ND","ND","ND","ND","ND","ND","ND","ND","ND","ND","ND","0.5"],
    [77164,"2019-02-23T23:00:00","ND","ND","ND","ND","ND","ND","ND","ND","ND","ND","ND","0"],
    [77165,"2019-02-24T00:00:00","ND","ND","ND","ND","ND","ND","ND","ND","ND","ND","ND","ND"],
    [77166,"2019-02-24T01:00:00","ND","ND","ND","ND","ND","ND","ND","ND","ND","ND","ND","0"],
    [77167,"2019-02-24T02:00:00","ND","ND","ND","ND","ND","ND","ND","ND","ND","ND","ND","0"],
    [77168,"2019-02-24T03:00:00","ND","ND","ND","ND","ND","ND","ND","ND","ND","ND","ND","ND"],
    [77169,"2019-02-24T04:00:00","ND","ND","ND","ND","ND","ND","ND","ND","ND","ND","ND","ND"],
    [77170,"2019-02-24T05:00:00","ND","ND","ND","ND","ND","ND","ND","ND","ND","ND","ND","0"],
    [77171,"2019-02-24T06:00:00","ND","ND","ND","ND","ND","ND","ND","ND","ND","ND","ND","ND"],
    [77172,"2019-02-24T07:00:00","ND","ND","ND","ND","ND","ND","ND","ND","ND","ND","ND","0"],
    [77173,"2019-02-24T08:00:00","ND","ND","ND","ND","ND","ND","ND","ND","ND","ND","ND","ND"],
    [77174,"2019-02-24T09:00:00","ND","ND","ND","ND","ND","ND","ND","ND","ND","ND","ND","0"],
    [77175,"2019-02-24T10:00:00","ND","ND","ND","ND","ND","ND","ND","ND","ND","ND","ND","0"],
    [77176,"2019-02-24T11:00:00","ND","ND","ND","ND","ND","ND","ND","ND","ND","ND","ND","0"],
    [77177,"2019-02-24T12:00:00","ND","ND","ND","ND","ND","ND","ND","ND","ND","ND","ND","0"],
    [77178,"2019-02-24T13:00:00","ND","ND","ND","ND","ND","ND","ND","ND","ND","ND","ND","0"],
    [77179,"2019-02-24T14:00:00","ND","ND","ND","ND","ND","ND","ND","ND","ND","ND","ND","0"],
    [77180,"2019-02-24T15:00:00","ND","ND","ND","ND","ND","ND","ND","ND","ND","ND","ND","0"],
    [77181,"2019-02-24T16:00:00","ND","ND","ND","ND","ND","ND","ND","ND","ND","ND","ND","0"],
    [77182,"2019-02-24T17:00:00","ND","ND","ND","ND","ND","ND","ND","ND","ND","ND","ND","0"],
    [77183,"2019-02-24T18:00:00","ND","ND","ND","ND","ND","ND","ND","ND","ND","ND","ND","0"],
    [77184,"2019-02-24T19:00:00","ND","ND","ND","ND","ND","ND","ND","ND","ND","ND","ND","0"],
    [77185,"2019-02-24T20:00:00","ND","ND","ND","ND","ND","ND","ND","ND","ND","ND","ND","0"],
    [77186,"2019-02-24T21:00:00","ND","ND","ND","ND","ND","ND","ND","ND","ND","ND","ND","0.4"],
    [77187,"2019-02-24T22:00:00","ND","ND","ND","ND","ND","ND","ND","ND","ND","ND","ND","0"],
    [77188,"2019-02-24T23:00:00","ND","ND","ND","ND","ND","ND","ND","ND","ND","ND","ND","0"],
    [77189,"2019-02-25T00:00:00","ND","ND","ND","ND","ND","ND","ND","ND","ND","ND","ND","0"],
    [77190,"2019-02-25T01:00:00","ND","ND","ND","ND","ND","ND","ND","ND","ND","ND","ND","0"],
    [77191,"2019-02-25T02:00:00","ND","ND","ND","ND","ND","ND","ND","ND","ND","ND","ND","0"],
    [77192,"2019-02-25T03:00:00","ND","ND","ND","ND","ND","ND","ND","ND","ND","ND","ND","0"],
    [77193,"2019-02-25T04:00:00","ND","ND","ND","ND","ND","ND","ND","ND","ND","ND","ND","0"],
    [77194,"2019-02-25T05:00:00","ND","ND","ND","ND","ND","ND","ND","ND","ND","ND","ND","0"],
    [77195,"2019-02-25T06:00:00","ND","ND","ND","ND","ND","ND","ND","ND","ND","ND","ND","0"],
    [77196,"2019-02-25T07:00:00","ND","ND","ND","ND","ND","ND","ND","ND","ND","ND","ND","0"],
    [77197,"2019-02-25T08:00:00","ND","ND","ND","ND","ND","ND","ND","ND","ND","ND","ND","0"],
    [77198,"2019-02-25T09:00:00","ND","ND","ND","ND","ND","ND","ND","ND","ND","ND","ND","0"],
    [77199,"2019-02-25T10:00:00","ND","ND","ND","ND","ND","ND","ND","ND","ND","ND","ND","0"],
    [77200,"2019-02-25T11:00:00","ND","ND","ND","ND","ND","ND","ND","ND","ND","ND","ND","0"],
    [77201,"2019-02-25T12:00:00","ND","ND","ND","ND","ND","ND","ND","ND","ND","ND","ND","0"],
    [77202,"2019-02-25T13:00:00","ND","ND","ND","ND","ND","ND","ND","ND","ND","ND","ND","0"],
    [77203,"2019-02-25T14:00:00","ND","ND","ND","ND","ND","ND","ND","ND","ND","ND","ND","0"],
    [77204,"2019-02-25T15:00:00","ND","ND","ND","ND","ND","ND","ND","ND","ND","ND","ND","0"],
    [77205,"2019-02-25T16:00:00","ND","ND","ND","ND","ND","ND","ND","ND","ND","ND","ND","0"],
    [77206,"2019-02-25T17:00:00","ND","ND","ND","ND","ND","ND","ND","ND","ND","ND","ND","0"],
    [77207,"2019-02-25T18:00:00","ND","ND","ND","ND","ND","ND","ND","ND","ND","ND","ND","0"],
    [77208,"2019-02-25T19:00:00","ND","ND","ND","ND","ND","ND","ND","ND","ND","ND","ND","0"],
    [77209,"2019-02-25T20:00:00","ND","ND","ND","ND","ND","ND","ND","ND","ND","ND","ND","0"],
    [77210,"2019-02-25T21:00:00","ND","ND","ND","ND","ND","ND","ND","ND","ND","ND","ND","0"],
    [77211,"2019-02-25T22:00:00","ND","ND","ND","ND","ND","ND","ND","ND","ND","ND","ND","0"],
    [77212,"2019-02-25T23:00:00","ND","ND","ND","ND","ND","ND","ND","ND","ND","ND","ND","0"],
    [77213,"2019-02-26T00:00:00","ND","ND","ND","ND","ND","ND","ND","ND","ND","ND","ND","0"],
    [77214,"2019-02-26T01:00:00","ND","ND","ND","ND","ND","ND","ND","ND","ND","ND","ND","0"],
    [77215,"2019-02-26T02:00:00","ND","ND","ND","ND","ND","ND","ND","ND","ND","ND","ND","0"],
    [77216,"2019-02-26T03:00:00","ND","ND","ND","ND","ND","ND","ND","ND","ND","ND","ND","0"],
    [77217,"2019-02-26T04:00:00","ND","ND","ND","ND","ND","ND","ND","ND","ND","ND","ND","ND"],
    [77218,"2019-02-26T05:00:00","ND","ND","ND","ND","ND","ND","ND","ND","ND","ND","ND","0"],
    [77219,"2019-02-26T06:00:00","ND","ND","ND","ND","ND","ND","ND","ND","ND","ND","ND","0"],
    [77220,"2019-02-26T07:00:00","ND","ND","ND","ND","ND","ND","ND","ND","ND","ND","ND","0"],
    [77221,"2019-02-26T08:00:00","ND","ND","ND","ND","ND","ND","ND","ND","ND","ND","ND","0"],
    [77222,"2019-02-26T09:00:00","ND","ND","ND","ND","ND","ND","ND","ND","ND","ND","ND","0"],
    [77223,"2019-02-26T10:00:00","ND","ND","ND","ND","ND","ND","ND","ND","ND","ND","ND","0"],
    [77224,"2019-02-26T11:00:00","ND","ND","ND","ND","ND","ND","ND","ND","ND","ND","ND","0"],
    [77225,"2019-02-26T12:00:00","ND","ND","ND","ND","ND","ND","ND","ND","ND","ND","ND","0"],
    [77226,"2019-02-26T13:00:00","ND","ND","ND","ND","ND","ND","ND","ND","ND","ND","ND","0"],
    [77227,"2019-02-26T14:00:00","ND","ND","ND","ND","72.1","2.3","ND","ND","ND","ND","ND","0"],
    [77228,"2019-02-26T15:00:00","121","ND","ND","ND","76.1","2","ND","ND","ND","ND","664","0"],
    [77229,"2019-02-26T16:00:00","53.4","ND","ND","ND","70.9","1.3","ND","ND","ND","ND","664","0"],
    [77230,"2019-02-26T17:00:00","36.5","ND","ND","ND","70.2","1.3","ND","ND","ND","ND","570","0"],
    [77231,"2019-02-26T18:00:00","32.8","ND","ND","ND","49.4","0.5","ND","ND","ND","ND","175","0"],
    [77232,"2019-02-26T19:00:00","25.9","ND","ND","ND","46.6","0.9","ND","ND","ND","ND","0","0"],
    [77233,"2019-02-26T20:00:00","26.4","ND","ND","ND","41.2","1","ND","ND","ND","ND","0","0"],
    [77234,"2019-02-26T21:00:00","44.8","ND","ND","ND","39","0.9","ND","ND","ND","ND","0","0"],
    [77235,"2019-02-26T22:00:00","44","ND","ND","ND","36.1","0.6","ND","ND","ND","ND","0","0"],
    [77236,"2019-02-26T23:00:00","51.6","ND","ND","ND","34.3","1","ND","ND","ND","ND","0","0"],
    [77237,"2019-02-27T00:00:00","41.2","ND","ND","ND","33.1","1.3","ND","ND","ND","ND","0","0"],
    [77238,"2019-02-27T01:00:00","36.8","ND","ND","ND","37.2","1.4","ND","ND","ND","ND","0","0"],
    [77239,"2019-02-27T02:00:00","24.1","ND","ND","ND","39.7","1.2","ND","ND","ND","ND","0","0"],
    [77240,"2019-02-27T03:00:00","8.4","ND","ND","ND","42.2","0.9","ND","ND","ND","ND","0","0"],
    [77241,"2019-02-27T04:00:00","11","ND","ND","ND","40.1","1","ND","ND","ND","ND","0","0"],
    [77242,"2019-02-27T05:00:00","28.5","ND","ND","ND","40.6","1.2","ND","ND","ND","ND","0","0"],
    [77243,"2019-02-27T06:00:00","31.2","ND","ND","ND","35.3","1.1","ND","ND","ND","ND","0","0"],
    [77244,"2019-02-27T07:00:00","11.3","ND","ND","ND","30.8","0.5","ND","ND","ND","ND","0","0"],
    [77245,"2019-02-27T08:00:00","8.8","ND","ND","ND","31","0.2","ND","ND","ND","ND","42","0"],
    [77246,"2019-02-27T09:00:00","29.8","ND","ND","ND","33.7","0.4","ND","ND","ND","ND","225","0"],
    [77247,"2019-02-27T10:00:00","45.6","ND","ND","ND","40.3","0.5","ND","ND","ND","ND","303","0"],
    [77248,"2019-02-27T11:00:00","45.8","ND","ND","ND","51.2","1.1","ND","ND","ND","ND","628","0"],
    [77249,"2019-02-27T12:00:00","67.8","ND","ND","ND","63.2","0.9","ND","ND","ND","ND","663","0"],
    [77250,"2019-02-27T13:00:00","56.6","ND","ND","ND","81.6","0.6","ND","ND","ND","ND","664","0"],
    [77251,"2019-02-27T14:00:00","10.5","ND","ND","ND","98.3","1.4","ND","ND","ND","ND","664","0"],
    [77252,"2019-02-27T15:00:00","38.9","ND","ND","ND","ND","1","ND","ND","ND","ND","664","0"],
    [77253,"2019-02-27T16:00:00","68.7","ND","ND","ND","ND","7.3","ND","ND","ND","ND","645","0"],
    [77254,"2019-02-27T17:00:00","51","ND","ND","ND","27.2","1.9","ND","ND","ND","ND","566","0"],
    [77255,"2019-02-27T18:00:00","13.3","ND","ND","ND","15.9","1.3","ND","ND","ND","ND","228","0"],
    [77256,"2019-02-27T19:00:00","25.7","ND","ND","ND","5.5","0.1","ND","ND","ND","ND","0","0.2"],
    [77257,"2019-02-27T20:00:00","53.2","ND","ND","ND","5.1","0","ND","ND","ND","ND","0","0.6"],
    [77258,"2019-02-27T21:00:00","46.6","ND","ND","ND","5.1","0.1","ND","ND","ND","ND","0","0"],
    [77259,"2019-02-27T22:00:00","91.4","ND","ND","ND","4.9","0","ND","ND","ND","ND","0","0"],
    [77260,"2019-02-27T23:00:00","86.5","ND","ND","ND","4.5","0","ND","ND","ND","ND","0","0"],
    [77261,"2019-02-28T00:00:00","56.1","ND","ND","ND","4.1","0.2","ND","ND","ND","ND","0","0"],
    [77262,"2019-02-28T01:00:00","57.9","ND","ND","ND","4.6","0.2","ND","ND","ND","ND","0","0"],
    [77263,"2019-02-28T02:00:00","48.5","ND","ND","ND","5.1","0.2","ND","ND","ND","ND","0","0"],
    [77264,"2019-02-28T03:00:00","55.4","ND","ND","ND","4.8","0.2","ND","ND","ND","ND","0","0"],
    [77265,"2019-02-28T04:00:00","55.1","ND","ND","ND","7","0.5","ND","ND","ND","ND","0","0"],
    [77266,"2019-02-28T05:00:00","19.5","ND","ND","ND","7.3","0.4","ND","ND","ND","ND","0","0"],
    [77267,"2019-02-28T06:00:00","13.8","ND","ND","ND","5.7","0.2","ND","ND","ND","ND","0","0"],
    [77268,"2019-02-28T07:00:00","ND","ND","ND","ND","4","0.2","ND","ND","ND","ND","0","0"],
    [77269,"2019-02-28T08:00:00","25.3","ND","ND","ND","4.1","0","ND","ND","ND","ND","19","0"],
    [77270,"2019-02-28T09:00:00","36.3","ND","ND","ND","5.1","0.1","ND","ND","ND","ND","70","0"],
    [77271,"2019-02-28T10:00:00","52.5","ND","ND","ND","15.4","0.2","ND","ND","ND","ND","247","0"],
    [77272,"2019-02-28T11:00:00","18.9","ND","ND","ND","44.6","0.3","ND","ND","ND","ND","664","0"],
    [77273,"2019-02-28T12:00:00","14.2","ND","ND","ND","78.6","0.3","ND","ND","ND","ND","664","0"],
    [77274,"2019-02-28T13:00:00","10.4","ND","ND","ND","101.1","0.5","ND","ND","ND","ND","665","0"],
    [77275,"2019-02-28T14:00:00","15.8","ND","ND","ND","116.6","0.2","ND","ND","ND","ND","663","0"],
    [77276,"2019-02-28T15:00:00","72.4","ND","ND","ND","112.4","0.2","ND","ND","ND","ND","663","0"],
    [77277,"2019-02-28T16:00:00","54.7","ND","ND","ND","121.6","0.1","ND","ND","ND","ND","658","0"],
    [77278,"2019-02-28T17:00:00","19","ND","ND","ND","45.3","0.1","ND","ND","ND","ND","641","0"],
    [77279,"2019-02-28T18:00:00","0.5","ND","ND","ND","32.4","0","ND","ND","ND","ND","611","0"],
    [77280,"2019-02-28T19:00:00","10.2","ND","ND","ND","11.9","0.1","ND","ND","ND","ND","0","0"],
    [77281,"2019-02-28T20:00:00","22","ND","ND","ND","7.2","0.1","ND","ND","ND","ND","0","0.4"],
    [77282,"2019-02-28T21:00:00","48.2","ND","ND","ND","6.4","0","ND","ND","ND","ND","0","0.6"],
    [77283,"2019-02-28T22:00:00","40.8","ND","ND","ND","4.2","0.1","ND","ND","ND","ND","0","0"],
    [77284,"2019-02-28T23:00:00","26.8","ND","ND","ND","5.1","0.1","ND","ND","ND","ND","0","0"],
    [77285,"2019-03-01T00:00:00","7.1","ND","ND","ND","5.7","0.1","ND","ND","ND","ND","0","0"],
    [77286,"2019-03-01T01:00:00","5","ND","ND","ND","6.6","0","ND","ND","ND","ND","0","0"],
    [77287,"2019-03-01T02:00:00","20.4","ND","ND","ND","13.3","0.1","ND","ND","ND","ND","0","0"],
    [77288,"2019-03-01T03:00:00","10.7","ND","ND","ND","6.5","0.1","ND","ND","ND","ND","0","0"],
    [77289,"2019-03-01T04:00:00","55.5","ND","ND","ND","6.4","0.3","ND","ND","ND","ND","0","0"],
    [77290,"2019-03-01T05:00:00","61.2","ND","ND","ND","4","1","ND","ND","ND","ND","0","0"],
    [77291,"2019-03-01T06:00:00","65.9","ND","ND","ND","3","0.3","ND","ND","ND","ND","0","0"],
    [77292,"2019-03-01T07:00:00","51","ND","ND","ND","3.1","0.1","ND","ND","ND","ND","0","0"],
    [77293,"2019-03-01T08:00:00","59","ND","ND","ND","3.4","0","ND","ND","ND","ND","37","0"],
    [77294,"2019-03-01T09:00:00","21.1","ND","ND","ND","7.5","0","ND","ND","ND","ND","95","0.9"],
    [77295,"2019-03-01T10:00:00","5.9","ND","ND","ND","23.7","0","ND","ND","ND","ND","462","0"],
    [77296,"2019-03-01T11:00:00","23.9","ND","ND","ND","46.1","0.1","ND","ND","ND","ND","664","0"],
    [77297,"2019-03-01T12:00:00","55.3","ND","ND","ND","88","0","ND","ND","ND","ND","664","0"],
    [77298,"2019-03-01T13:00:00","61.9","ND","ND","ND","102.6","0.1","ND","ND","ND","ND","664","0"],
    [77299,"2019-03-01T14:00:00","37.4","ND","ND","ND","107.3","0","ND","ND","ND","ND","665","0"],
    [77300,"2019-03-01T15:00:00","30","ND","ND","ND","116.6","0","ND","ND","ND","ND","665","0"],
    [77301,"2019-03-01T16:00:00","16.6","ND","ND","ND","43.8","0.1","ND","ND","ND","ND","665","0"],
    [77302,"2019-03-01T17:00:00","16.8","ND","ND","ND","37","0","ND","ND","ND","ND","665","0"],
    [77303,"2019-03-01T18:00:00","6.2","ND","ND","ND","23.3","0","ND","ND","ND","ND","501","0"],
    [77304,"2019-03-01T19:00:00","9.4","ND","ND","ND","11.5","0","ND","ND","ND","ND","0","0"],
    [77305,"2019-03-01T20:00:00","19.6","ND","ND","ND","3.6","0","ND","ND","ND","ND","0","0"],
    [77306,"2019-03-01T21:00:00","47.5","ND","ND","ND","3.8","0","ND","ND","ND","ND","0","0"],
    [77307,"2019-03-01T22:00:00","31.1","ND","ND","ND","3.6","0.1","ND","ND","ND","ND","0","0"],
    [77308,"2019-03-01T23:00:00","51.8","ND","ND","ND","3.7","0","ND","ND","ND","ND","0","0"],
    [77309,"2019-03-02T00:00:00","7.7","ND","ND","ND","3.5","0","ND","ND","ND","ND","0","0"],
    [77310,"2019-03-02T01:00:00","1.1","ND","ND","ND","3.5","0","ND","ND","ND","ND","0","0"],
    [77311,"2019-03-02T02:00:00","36.3","ND","ND","ND","3.5","0","ND","ND","ND","ND","0","0"],
    [77312,"2019-03-02T03:00:00","38.6","ND","ND","ND","3.7","0","ND","ND","ND","ND","0","0"],
    [77313,"2019-03-02T04:00:00","51.7","ND","ND","ND","4.2","0","ND","ND","ND","ND","0","0"],
    [77314,"2019-03-02T05:00:00","34.2","ND","ND","ND","4.6","0","ND","ND","ND","ND","0","0"],
    [77315,"2019-03-02T06:00:00","41.1","ND","ND","ND","4.2","0","ND","ND","ND","ND","0","0"],
    [77316,"2019-03-02T07:00:00","48.3","ND","ND","ND","4.3","0","ND","ND","ND","ND","0","0"],
    [77317,"2019-03-02T08:00:00","86.7","ND","ND","ND","4.1","0","ND","ND","ND","ND","12","0"],
    [77318,"2019-03-02T09:00:00","60.3","ND","ND","ND","9.2","0.1","ND","ND","ND","ND","137","0"],
    [77319,"2019-03-02T10:00:00","40.5","ND","ND","ND","21.6","0","ND","ND","ND","ND","588","0"],
    [77320,"2019-03-02T11:00:00","27.4","ND","ND","ND","45","0","ND","ND","ND","ND","664","0"],
    [77321,"2019-03-02T12:00:00","21.9","ND","ND","ND","88.2","0","ND","ND","ND","ND","664","0"],
    [77322,"2019-03-02T13:00:00","37.7","ND","ND","ND","120.4","0","ND","ND","ND","ND","665","0"],
    [77323,"2019-03-02T14:00:00","47.4","ND","ND","ND","134.1","0","ND","ND","ND","ND","664","0"],
    [77324,"2019-03-02T15:00:00","30.7","ND","ND","ND","112.5","0","ND","ND","ND","ND","665","0"],
    [77325,"2019-03-02T16:00:00","11.3","ND","ND","ND","117.4","0","ND","ND","ND","ND","645","0"],
    [77326,"2019-03-02T17:00:00","31.3","ND","ND","ND","74.5","0","ND","ND","ND","ND","600","0"],
    [77327,"2019-03-02T18:00:00","42.3","ND","ND","ND","52.3","0","ND","ND","ND","ND","471","0"],
    [77328,"2019-03-02T19:00:00","63.4","ND","ND","ND","42.4","0","ND","ND","ND","ND","0","0"],
    [77329,"2019-03-02T20:00:00","37.7","ND","ND","ND","17.1","0","ND","ND","ND","ND","0","0"],
    [77330,"2019-03-02T21:00:00","51","ND","ND","ND","5.5","0","ND","ND","ND","ND","0","0"],
    [77331,"2019-03-02T22:00:00","31.5","ND","ND","ND","6","0","ND","ND","ND","ND","0","0"],
    [77332,"2019-03-02T23:00:00","42.4","ND","ND","ND","4.1","0","ND","ND","ND","ND","0","0"],
    [77333,"2019-03-03T00:00:00","57.7","ND","ND","ND","3.6","0","ND","ND","ND","ND","0","0"],
    [77334,"2019-03-03T01:00:00","55.4","ND","ND","ND","3.5","0","ND","ND","ND","ND","0","0"],
    [77335,"2019-03-03T02:00:00","63.3","ND","ND","ND","3.7","0","ND","ND","ND","ND","0","0"],
    [77336,"2019-03-03T03:00:00","52","ND","ND","ND","4.1","0","ND","ND","ND","ND","0","0"],
    [77337,"2019-03-03T04:00:00","60.1","ND","ND","ND","3.9","0","ND","ND","ND","ND","0","0"],
    [77338,"2019-03-03T05:00:00","32","ND","ND","ND","3.1","0","ND","ND","ND","ND","0","0"],
    [77339,"2019-03-03T06:00:00","28.4","ND","ND","ND","3.1","0","ND","ND","ND","ND","0","0"],
    [77340,"2019-03-03T07:00:00","37.3","ND","ND","ND","3.6","0.1","ND","ND","ND","ND","0","0"],
    [77341,"2019-03-03T08:00:00","59.7","ND","ND","ND","4.5","0","ND","ND","ND","ND","36","0"],
    [77342,"2019-03-03T09:00:00","26.1","ND","ND","ND","12.1","0","ND","ND","ND","ND","302","1.1"],
    [77343,"2019-03-03T10:00:00","37.3","ND","ND","ND","35.9","0","ND","ND","ND","ND","624","0"],
    [77344,"2019-03-03T11:00:00","27.3","ND","ND","ND","67","0","ND","ND","ND","ND","664","0"],
    [77345,"2019-03-03T12:00:00","8.4","ND","ND","ND","97.6","0","ND","ND","ND","ND","664","0"],
    [77346,"2019-03-03T13:00:00","37.5","ND","ND","ND","113.3","0","ND","ND","ND","ND","665","0"],
    [77347,"2019-03-03T14:00:00","6.1","ND","ND","ND","116.4","0","ND","ND","ND","ND","665","0"],
    [77348,"2019-03-03T15:00:00","ND","ND","ND","ND","54.5","0","ND","ND","ND","ND","665","0"],
    [77349,"2019-03-03T16:00:00","16.3","ND","ND","ND","50.9","0","ND","ND","ND","ND","665","0"],
    [77350,"2019-03-03T17:00:00","12.1","ND","ND","ND","42.4","0","ND","ND","ND","ND","657","0"],
    [77351,"2019-03-03T18:00:00","4.3","ND","ND","ND","31.4","0","ND","ND","ND","ND","369","0"],
    [77352,"2019-03-03T19:00:00","4.3","ND","ND","ND","30.7","0","ND","ND","ND","ND","0","0"],
    [77353,"2019-03-03T20:00:00","2.6","ND","ND","ND","23.5","0","ND","ND","ND","ND","0","0.6"],
    [77354,"2019-03-03T21:00:00","10.6","ND","ND","ND","18.2","0","ND","ND","ND","ND","0","0"],
    [77355,"2019-03-03T22:00:00","27.5","ND","ND","ND","14.1","0","ND","ND","ND","ND","0","0"],
    [77356,"2019-03-03T23:00:00","25.9","ND","ND","ND","11.2","0","ND","ND","ND","ND","0","0"],
    [77357,"2019-03-04T00:00:00","5.3","ND","ND","ND","7.7","0","ND","ND","ND","ND","0","0"],
    [77358,"2019-03-04T01:00:00","6.3","ND","ND","ND","9.1","0","ND","ND","ND","ND","0","0"],
    [77359,"2019-03-04T02:00:00","4.5","ND","ND","ND","10.4","0","ND","ND","ND","ND","0","0"],
    [77360,"2019-03-04T03:00:00","17.8","ND","ND","ND","7.9","0","ND","ND","ND","ND","0","0"],
    [77361,"2019-03-04T04:00:00","39.9","ND","ND","ND","5.1","0","ND","ND","ND","ND","0","0"],
    [77362,"2019-03-04T05:00:00","40","ND","ND","ND","4.8","0","ND","ND","ND","ND","0","0"],
    [77363,"2019-03-04T06:00:00","34","ND","ND","ND","3.8","0","ND","ND","ND","ND","0","0"],
    [77364,"2019-03-04T07:00:00","37.2","ND","ND","ND","3.3","0.1","ND","ND","ND","ND","0","0"],
    [77365,"2019-03-04T08:00:00","47.5","ND","ND","ND","4.5","0","ND","ND","ND","ND","29","0"],
    [77366,"2019-03-04T09:00:00","95.3","ND","ND","ND","7.8","0","ND","ND","ND","ND","376","0"],
    [77367,"2019-03-04T10:00:00","75.8","ND","ND","ND","22.4","0","ND","ND","ND","ND","664","0"],
    [77368,"2019-03-04T11:00:00","66.6","ND","ND","ND","48.2","0","ND","ND","ND","ND","664","0"],
    [77369,"2019-03-04T12:00:00","31.7","ND","ND","ND","66","0.1","ND","ND","ND","ND","664","0"],
    [77370,"2019-03-04T13:00:00","43.7","ND","ND","ND","67.4","1","ND","ND","ND","ND","665","0"],
    [77371,"2019-03-04T14:00:00","34.4","ND","ND","ND","48.4","1.2","ND","ND","ND","ND","665","0"],
    [77372,"2019-03-04T15:00:00","18.1","ND","ND","ND","49.5","0.4","ND","ND","ND","ND","621","0"],
    [77373,"2019-03-04T16:00:00","28.9","ND","ND","ND","35.6","1","ND","ND","ND","ND","665","0"],
    [77374,"2019-03-04T17:00:00","24.9","ND","ND","ND","34.1","0.4","ND","ND","ND","ND","601","0"],
    [77375,"2019-03-04T18:00:00","11.2","ND","ND","ND","27.7","0.6","ND","ND","ND","ND","355","0"],
    [77376,"2019-03-04T19:00:00","4","ND","ND","ND","16.4","0.6","ND","ND","ND","ND","0","0"],
    [77377,"2019-03-04T20:00:00","27.7","ND","ND","ND","4.3","0.2","ND","ND","ND","ND","0","0"],
    [77378,"2019-03-04T21:00:00","25.6","ND","ND","ND","7.3","0.2","ND","ND","ND","ND","0","0"],
    [77379,"2019-03-04T22:00:00","15.8","ND","ND","ND","4.6","1.1","ND","ND","ND","ND","0","0.1"],
    [77380,"2019-03-04T23:00:00","36","ND","ND","ND","3.7","0.9","ND","ND","ND","ND","0","0"],
    [77381,"2019-03-05T00:00:00","55.7","ND","ND","ND","3.7","1.3","ND","ND","ND","ND","0","0"],
    [77382,"2019-03-05T01:00:00","44.8","ND","ND","ND","10.4","0.9","ND","ND","ND","ND","0","0.3"],
    [77383,"2019-03-05T02:00:00","40.2","ND","ND","ND","9.6","1.1","ND","ND","ND","ND","0","0.1"],
    [77384,"2019-03-05T03:00:00","23.8","ND","ND","ND","7.1","1.1","ND","ND","ND","ND","0","0.2"],
    [77385,"2019-03-05T04:00:00","38","ND","ND","ND","4.8","1","ND","ND","ND","ND","0","0.1"],
    [77386,"2019-03-05T05:00:00","34.8","ND","ND","ND","4.6","1.9","ND","ND","ND","ND","0","0.2"],
    [77387,"2019-03-05T06:00:00","36.7","ND","ND","ND","2.5","3.6","ND","ND","ND","ND","0","0.1"],
    [77388,"2019-03-05T07:00:00","42.7","ND","ND","ND","2.9","2","ND","ND","ND","ND","0","0"],
    [77389,"2019-03-05T08:00:00","56.7","ND","ND","ND","4.8","1.3","ND","ND","ND","ND","41","0"],
    [77390,"2019-03-05T09:00:00","49.7","ND","ND","ND","9.8","1.1","ND","ND","ND","ND","328","0"],
    [77391,"2019-03-05T10:00:00","36.1","ND","ND","ND","18.9","0.9","ND","ND","ND","ND","615","0"],
    [77392,"2019-03-05T11:00:00","45.2","ND","ND","ND","36.7","1.3","ND","ND","ND","ND","664","0"],
    [77393,"2019-03-05T12:00:00","55.4","ND","ND","ND","60.4","1.2","ND","ND","ND","ND","664","0"],
    [77394,"2019-03-05T13:00:00","46.5","ND","ND","ND","88.2","0.7","ND","ND","ND","ND","665","0"],
    [77395,"2019-03-05T14:00:00","42.1","ND","ND","ND","108.9","1.5","ND","ND","ND","ND","665","0"],
    [77396,"2019-03-05T15:00:00","22.9","ND","ND","ND","108.6","1.4","ND","ND","ND","ND","665","0"],
    [77397,"2019-03-05T16:00:00","23","ND","ND","ND","81.5","1.2","ND","ND","ND","ND","644","0"],
    [77398,"2019-03-05T17:00:00","22.8","ND","ND","ND","46.4","0.8","ND","ND","ND","ND","587","0"],
    [77399,"2019-03-05T18:00:00","1","ND","ND","ND","34.7","0.6","ND","ND","ND","ND","603","0"],
    [77400,"2019-03-05T19:00:00","0.3","ND","ND","ND","15.4","0.7","ND","ND","ND","ND","0","0"],
    [77401,"2019-03-05T20:00:00","0.7","ND","ND","ND","15.5","0.4","ND","ND","ND","ND","0","0"],
    [77402,"2019-03-05T21:00:00","7.9","ND","ND","ND","3.4","0.4","ND","ND","ND","ND","0","0"],
    [77403,"2019-03-05T22:00:00","30.3","ND","ND","ND","2.9","0.4","ND","ND","ND","ND","0","0"],
    [77404,"2019-03-05T23:00:00","53.1","ND","ND","ND","2.5","1.5","ND","ND","ND","ND","0","0"],
    [77405,"2019-03-06T00:00:00","17","ND","ND","ND","2.4","1.4","ND","ND","ND","ND","0","0"],
    [77406,"2019-03-06T01:00:00","30","ND","ND","ND","2.8","1.1","ND","ND","ND","ND","0","0"],
    [77407,"2019-03-06T02:00:00","69.9","ND","ND","ND","3.9","1.3","ND","ND","ND","ND","0","0"],
    [77408,"2019-03-06T03:00:00","44.1","ND","ND","ND","3.5","1.5","ND","ND","ND","ND","0","0"],
    [77409,"2019-03-06T04:00:00","35.7","ND","ND","ND","2.9","1","ND","ND","ND","ND","0","0"],
    [77410,"2019-03-06T05:00:00","46.4","ND","ND","ND","2.9","1.5","ND","ND","ND","ND","0","0"],
    [77411,"2019-03-06T06:00:00","57","ND","ND","ND","3.1","1.7","ND","ND","ND","ND","0","0"],
    [77412,"2019-03-06T07:00:00","61.1","ND","ND","ND","3.2","7.1","ND","ND","ND","ND","0","0"],
    [77413,"2019-03-06T08:00:00","65.1","ND","ND","ND","3.8","3.5","ND","ND","ND","ND","44","0"],
    [77414,"2019-03-06T09:00:00","67.1","ND","ND","ND","12.3","2.3","ND","ND","ND","ND","268","0"],
    [77415,"2019-03-06T10:00:00","70.5","ND","ND","ND","35.5","1.4","ND","ND","ND","ND","652","0"],
    [77416,"2019-03-06T11:00:00","33.1","ND","ND","ND","62.8","1.9","ND","ND","ND","ND","664","0"],
    [77417,"2019-03-06T12:00:00","43","ND","ND","ND","103.6","1.7","ND","ND","ND","ND","664","0"],
    [77418,"2019-03-06T13:00:00","36","ND","ND","ND","115.5","0.6","ND","ND","ND","ND","665","0"],
    [77419,"2019-03-06T14:00:00","43.7","ND","ND","ND","130.5","1.3","ND","ND","ND","ND","665","0"],
    [77420,"2019-03-06T15:00:00","39.1","ND","ND","ND","113.5","1.1","ND","ND","ND","ND","665","0"],
    [77421,"2019-03-06T16:00:00","43.7","ND","ND","ND","67.9","1.4","ND","ND","ND","ND","665","0"],
    [77422,"2019-03-06T17:00:00","36.6","ND","ND","ND","59.3","1.1","ND","ND","ND","ND","665","0"],
    [77423,"2019-03-06T18:00:00","16","ND","ND","ND","42.1","0.9","ND","ND","ND","ND","580","ND"],
    [77424,"2019-03-06T19:00:00","21.8","ND","ND","ND","24.8","0.7","ND","ND","ND","ND","0","0"],
    [77425,"2019-03-06T20:00:00","27.6","ND","ND","ND","9.8","0.8","ND","ND","ND","ND","0","0.2"],
    [77426,"2019-03-06T21:00:00","17.1","ND","ND","ND","7.9","0.7","ND","ND","ND","ND","0","0.1"],
    [77427,"2019-03-06T22:00:00","30.1","ND","ND","ND","3.9","0.8","ND","ND","ND","ND","0","0"],
    [77428,"2019-03-06T23:00:00","35.7","ND","ND","ND","5.4","1.4","ND","ND","ND","ND","0","1.4"],
    [77429,"2019-03-07T00:00:00","20.7","ND","ND","ND","6.6","1.1","ND","ND","ND","ND","0","0"],
    [77430,"2019-03-07T01:00:00","21.5","ND","ND","ND","5.1","1.9","ND","ND","ND","ND","0","0"],
    [77431,"2019-03-07T02:00:00","8","ND","ND","ND","4.5","1.4","ND","ND","ND","ND","0","0"],
    [77432,"2019-03-07T03:00:00","16.6","ND","ND","ND","4.3","1.7","ND","ND","ND","ND","0","0"],
    [77433,"2019-03-07T04:00:00","17","ND","ND","ND","9.7","1.6","ND","ND","ND","ND","0","ND"],
    [77434,"2019-03-07T05:00:00","20.5","ND","ND","ND","3.6","2.1","ND","ND","ND","ND","0","ND"],
    [77435,"2019-03-07T06:00:00","42.8","ND","ND","ND","2.7","1.5","ND","ND","ND","ND","0","ND"],
    [77436,"2019-03-07T07:00:00","49.1","ND","ND","ND","3.2","0.9","ND","ND","ND","ND","0","0"],
    [77437,"2019-03-07T08:00:00","58.3","ND","ND","ND","3.3","0.9","ND","ND","ND","ND","22","0"],
    [77438,"2019-03-07T09:00:00","102.1","ND","ND","ND","6.1","1.1","ND","ND","ND","ND","152","0"],
    [77439,"2019-03-07T10:00:00","67.2","ND","ND","ND","20.7","1.6","ND","ND","ND","ND","487","0"],
    [77440,"2019-03-07T11:00:00","63.3","ND","ND","ND","49.1","1.9","ND","ND","ND","ND","664","ND"],
    [77441,"2019-03-07T12:00:00","54.5","ND","ND","ND","81.4","2.2","ND","ND","ND","ND","664","0"],
    [77442,"2019-03-07T13:00:00","56.4","ND","ND","ND","122.9","1.6","ND","ND","ND","ND","665","0"],
    [77443,"2019-03-07T14:00:00","60.5","ND","ND","ND","98.6","1.7","ND","ND","ND","ND","665","0"],
    [77444,"2019-03-07T15:00:00","24.8","ND","ND","ND","67.2","1.7","ND","ND","ND","ND","665","0"],
    [77445,"2019-03-07T16:00:00","10.8","ND","ND","ND","45.4","1","ND","ND","ND","ND","616","0"],
    [77446,"2019-03-07T17:00:00","0.2","ND","ND","ND","38.7","1","ND","ND","ND","ND","635","0"],
    [77447,"2019-03-07T18:00:00","12.7","ND","ND","ND","32.1","0.7","ND","ND","ND","ND","631","0"],
    [77448,"2019-03-07T19:00:00","13.5","ND","ND","ND","21.6","0.9","ND","ND","ND","ND","0","0"],
    [77449,"2019-03-07T20:00:00","16.2","ND","ND","ND","8.7","0.9","ND","ND","ND","ND","0","ND"],
    [77450,"2019-03-07T21:00:00","17.1","ND","ND","ND","8.5","1.3","ND","ND","ND","ND","0","1"],
    [77451,"2019-03-07T22:00:00","18.9","ND","ND","ND","12.4","0.8","ND","ND","ND","ND","0","1.4"],
    [77452,"2019-03-07T23:00:00","35.9","ND","ND","ND","24.5","1.1","ND","ND","ND","ND","0","ND"],
    [77453,"2019-03-08T00:00:00","36","ND","ND","ND","21.8","1.4","ND","ND","ND","ND","0","0.1"],
    [77454,"2019-03-08T01:00:00","42.4","ND","ND","ND","19.1","1.3","ND","ND","ND","ND","0","0"],
    [77455,"2019-03-08T02:00:00","23.9","ND","ND","ND","18.2","1.5","ND","ND","ND","ND","0","0"],
    [77456,"2019-03-08T03:00:00","25.3","ND","ND","ND","12.8","1.7","ND","ND","ND","ND","0","0"],
    [77457,"2019-03-08T04:00:00","36.2","ND","ND","ND","8.8","1.7","ND","ND","ND","ND","0","0"],
    [77458,"2019-03-08T05:00:00","46.9","ND","ND","ND","4.9","2.1","ND","ND","ND","ND","0","17.7"],
    [77459,"2019-03-08T06:00:00","43.8","ND","ND","ND","3.9","5.2","ND","ND","ND","ND","0","0"],
    [77460,"2019-03-08T07:00:00","55","ND","ND","ND","2.9","3.8","ND","ND","ND","ND","0","ND"],
    [77461,"2019-03-08T08:00:00","63.9","ND","ND","ND","3.7","2.7","ND","ND","ND","ND","64","ND"],
    [77462,"2019-03-08T09:00:00","74.7","ND","ND","ND","11.1","1","ND","ND","ND","ND","252","0"],
    [77463,"2019-03-08T10:00:00","49.5","ND","ND","ND","37.8","1.4","ND","ND","ND","ND","573","0"],
    [77464,"2019-03-08T11:00:00","41","ND","ND","ND","61.4","1.7","ND","ND","ND","ND","664","0"],
    [77465,"2019-03-08T12:00:00","31.6","ND","ND","ND","76.3","1.2","ND","ND","ND","ND","662","ND"],
    [77466,"2019-03-08T13:00:00","26.9","ND","ND","ND","81","1.3","ND","ND","ND","ND","665","ND"],
    [77467,"2019-03-08T14:00:00","55.4","ND","ND","ND","102.9","1.2","ND","ND","ND","ND","666","0"],
    [77468,"2019-03-08T15:00:00","12.9","ND","ND","ND","117.1","0.8","ND","ND","ND","ND","666","17.7"],
    [77469,"2019-03-08T16:00:00","19.7","ND","ND","ND","96.5","0.9","ND","ND","ND","ND","666","0"],
    [77470,"2019-03-08T17:00:00","29.1","ND","ND","ND","74","0.9","ND","ND","ND","ND","523","0"],
    [77471,"2019-03-08T18:00:00","29.9","ND","ND","ND","53.5","0.8","ND","ND","ND","ND","551","0"],
    [77472,"2019-03-08T19:00:00","11.9","ND","ND","ND","42.8","0.7","ND","ND","ND","ND","0","0.2"],
    [77473,"2019-03-08T20:00:00","18.6","ND","ND","ND","32.8","0.5","ND","ND","ND","ND","0","0.1"],
    [77474,"2019-03-08T21:00:00","25.4","ND","ND","ND","6.8","0.7","ND","ND","ND","ND","0","0"],
    [77475,"2019-03-08T22:00:00","45","ND","ND","ND","3.4","1.4","ND","ND","ND","ND","0","0"],
    [77476,"2019-03-08T23:00:00","26.6","ND","ND","ND","2.9","1.2","ND","ND","ND","ND","0","0"],
    [77477,"2019-03-09T00:00:00","20.5","ND","ND","ND","2.7","1.3","ND","ND","ND","ND","0","ND"],
    [77478,"2019-03-09T01:00:00","29.4","ND","ND","ND","2.7","1.6","ND","ND","ND","ND","0","ND"],
    [77479,"2019-03-09T02:00:00","31.5","ND","ND","ND","5","2.3","ND","ND","ND","ND","0","0"],
    [77480,"2019-03-09T03:00:00","34","ND","ND","ND","5.1","2","ND","ND","ND","ND","0","0"],
    [77481,"2019-03-09T04:00:00","50.6","ND","ND","ND","4.6","1.5","ND","ND","ND","ND","0","0"],
    [77482,"2019-03-09T05:00:00","52.1","ND","ND","ND","4.2","2.5","ND","ND","ND","ND","0","0"],
    [77483,"2019-03-09T06:00:00","54.4","ND","ND","ND","2.7","1.5","ND","ND","ND","ND","0","0"],
    [77484,"2019-03-09T07:00:00","62.1","ND","ND","ND","3.1","2.3","ND","ND","ND","ND","0","0"],
    [77485,"2019-03-09T08:00:00","73.5","ND","ND","ND","5","2.5","ND","ND","ND","ND","59","ND"],
    [77486,"2019-03-09T09:00:00","90.4","ND","ND","ND","12.7","2.2","ND","ND","ND","ND","366","0"],
    [77487,"2019-03-09T10:00:00","77.2","ND","ND","ND","32.7","2","ND","ND","ND","ND","613","0"],
    [77488,"2019-03-09T11:00:00","48","ND","ND","ND","60.3","1.9","ND","ND","ND","ND","664","0"],
    [77489,"2019-03-09T12:00:00","30.8","ND","ND","ND","88.2","1.1","ND","ND","ND","ND","664","0"],
    [77490,"2019-03-09T13:00:00","40","ND","ND","ND","121.6","1.2","ND","ND","ND","ND","665","0"],
    [77491,"2019-03-09T14:00:00","73.4","ND","ND","ND","135","1.2","ND","ND","ND","ND","666","0"],
    [77492,"2019-03-09T15:00:00","33.8","ND","ND","ND","147.9","1.2","ND","ND","ND","ND","661","0"],
    [77493,"2019-03-09T16:00:00","31.9","ND","ND","ND","101","0.9","ND","ND","ND","ND","665","0"],
    [77494,"2019-03-09T17:00:00","13.1","ND","ND","ND","85.7","1.1","ND","ND","ND","ND","480","0"],
    [77495,"2019-03-09T18:00:00","22.8","ND","ND","ND","65.8","0.5","ND","ND","ND","ND","648","0"],
    [77496,"2019-03-09T19:00:00","10.2","ND","ND","ND","51","0.6","ND","ND","ND","ND","0","0"],
    [77497,"2019-03-09T20:00:00","7.9","ND","ND","ND","44","0.7","ND","ND","ND","ND","0","0"],
    [77498,"2019-03-09T21:00:00","29.9","ND","ND","ND","16.8","1.5","ND","ND","ND","ND","0","0"],
    [77499,"2019-03-09T22:00:00","14.7","ND","ND","ND","14.1","1.1","ND","ND","ND","ND","0","0"],
    [77500,"2019-03-09T23:00:00","0.1","ND","ND","ND","12.2","0.9","ND","ND","ND","ND","0","0"],
    [77501,"2019-03-10T00:00:00","30.9","ND","ND","ND","12.2","2.2","ND","ND","ND","ND","0","0"],
    [77502,"2019-03-10T01:00:00","25.3","ND","ND","ND","4.5","1.3","ND","ND","ND","ND","0","0"],
    [77503,"2019-03-10T02:00:00","20.2","ND","ND","ND","3.8","2.6","ND","ND","ND","ND","0","0"],
    [77504,"2019-03-10T03:00:00","45.3","ND","ND","ND","6.9","2.5","ND","ND","ND","ND","0","0"],
    [77505,"2019-03-10T04:00:00","18.4","ND","ND","ND","6.8","2.2","ND","ND","ND","ND","0","0"],
    [77506,"2019-03-10T05:00:00","22.7","ND","ND","ND","4.2","2.6","ND","ND","ND","ND","0","ND"],
    [77507,"2019-03-10T06:00:00","37.3","ND","ND","ND","2.6","2","ND","ND","ND","ND","0","0"],
    [77508,"2019-03-10T07:00:00","30.2","ND","ND","ND","2.8","2.6","ND","ND","ND","ND","0","0.1"],
    [77509,"2019-03-10T08:00:00","89.2","ND","ND","ND","4","1.9","ND","ND","ND","ND","15","0"],
    [77510,"2019-03-10T09:00:00","20.9","ND","ND","ND","7.8","1.7","ND","ND","ND","ND","161","0"],
    [77511,"2019-03-10T10:00:00","28.7","ND","ND","ND","14.2","1.3","ND","ND","ND","ND","335","0"],
    [77512,"2019-03-10T11:00:00","29","ND","ND","ND","30.9","1.6","ND","ND","ND","ND","604","0"],
    [77513,"2019-03-10T12:00:00","44.2","ND","ND","ND","51.9","1.5","ND","ND","ND","ND","664","0"],
    [77514,"2019-03-10T13:00:00","39","ND","ND","ND","55.9","1.2","ND","ND","ND","ND","664","0"],
    [77515,"2019-03-10T14:00:00","28.1","ND","ND","ND","40.9","1.8","ND","ND","ND","ND","664","0"],
    [77516,"2019-03-10T15:00:00","6","ND","ND","ND","37.1","0.8","ND","ND","ND","ND","633","0"],
    [77517,"2019-03-10T16:00:00","3","ND","ND","ND","36","0.9","ND","ND","ND","ND","664","0"],
    [77518,"2019-03-10T17:00:00","1.5","ND","ND","ND","32.4","1.4","ND","ND","ND","ND","664","0.1"],
    [77519,"2019-03-10T18:00:00","0.4","ND","ND","ND","24.3","0.6","ND","ND","ND","ND","611","0"],
    [77520,"2019-03-10T19:00:00","ND","ND","ND","ND","18.6","0.5","ND","ND","ND","ND","0","0.1"],
    [77521,"2019-03-10T20:00:00","ND","ND","ND","ND","17.3","0.7","ND","ND","ND","ND","0","0"],
    [77522,"2019-03-10T21:00:00","12.4","ND","ND","ND","12.4","0.8","ND","ND","ND","ND","0","0"],
    [77523,"2019-03-10T22:00:00","38.8","ND","ND","ND","8.6","1","ND","ND","ND","ND","0","0"],
    [77524,"2019-03-10T23:00:00","41.1","ND","ND","ND","5.7","2.5","ND","ND","ND","ND","0","0"],
    [77525,"2019-03-11T00:00:00","37.9","ND","ND","ND","6.8","1.4","ND","ND","ND","ND","0","0"],
    [77526,"2019-03-11T01:00:00","38.6","ND","ND","ND","6.7","1.8","ND","ND","ND","ND","0","0"],
    [77527,"2019-03-11T02:00:00","32.6","ND","ND","ND","7.5","4.8","ND","ND","ND","ND","0","0"],
    [77528,"2019-03-11T03:00:00","31.3","ND","ND","ND","10.9","5.5","ND","ND","ND","ND","0","0"],
    [77529,"2019-03-11T04:00:00","11.9","ND","ND","ND","7.6","5.4","ND","ND","ND","ND","0","0"],
    [77530,"2019-03-11T05:00:00","19","ND","ND","ND","9.6","3.5","ND","ND","ND","ND","0","0"],
    [77531,"2019-03-11T06:00:00","18.2","ND","ND","ND","6.3","1.7","ND","ND","ND","ND","0","0"],
    [77532,"2019-03-11T07:00:00","21.9","ND","ND","ND","2.2","0.9","ND","ND","ND","ND","0","0"],
    [77533,"2019-03-11T08:00:00","37.6","ND","ND","ND","5.2","0.7","ND","ND","ND","ND","98","0"],
    [77534,"2019-03-11T09:00:00","45.8","ND","ND","ND","16.9","1","ND","ND","ND","ND","410","0.1"],
    [77535,"2019-03-11T10:00:00","46.4","ND","ND","ND","34.1","1","ND","ND","ND","ND","621","0.5"],
    [77536,"2019-03-11T11:00:00","49.2","ND","ND","ND","55.6","0.9","ND","ND","ND","ND","664","0"],
    [77537,"2019-03-11T12:00:00","40.8","ND","ND","ND","79.8","0.9","ND","ND","ND","ND","665","0.3"],
    [77538,"2019-03-11T13:00:00","16.1","ND","ND","ND","101.5","1","ND","ND","ND","ND","665","0.1"],
    [77539,"2019-03-11T14:00:00","21","ND","ND","ND","105.5","1.7","ND","ND","ND","ND","665","0"],
    [77540,"2019-03-11T15:00:00","34","ND","ND","ND","94.2","1.3","ND","ND","ND","ND","665","0"],
    [77541,"2019-03-11T16:00:00","30.2","ND","ND","ND","83.4","1.2","ND","ND","ND","ND","665","0"],
    [77542,"2019-03-11T17:00:00","33.8","ND","ND","ND","52.1","1","ND","ND","ND","ND","634","0"],
    [77543,"2019-03-11T18:00:00","21.4","ND","ND","ND","46","0.7","ND","ND","ND","ND","490","0"],
    [77544,"2019-03-11T19:00:00","27.4","ND","ND","ND","32.5","1.4","ND","ND","ND","ND","0","0"],
    [77545,"2019-03-11T20:00:00","18.3","ND","ND","ND","22.9","0.5","ND","ND","ND","ND","0","0"],
    [77546,"2019-03-11T21:00:00","15.4","ND","ND","ND","5.9","0.4","ND","ND","ND","ND","0","0"],
    [77547,"2019-03-11T22:00:00","29.1","ND","ND","ND","2.7","1","ND","ND","ND","ND","0","0"],
    [77548,"2019-03-11T23:00:00","29.9","ND","ND","ND","2.8","1.4","ND","ND","ND","ND","0","0"],
    [77549,"2019-03-12T00:00:00","44.9","ND","ND","ND","2.7","1","ND","ND","ND","ND","0","0"],
    [77550,"2019-03-12T01:00:00","35.1","ND","ND","ND","3","1.3","ND","ND","ND","ND","0","0"],
    [77551,"2019-03-12T02:00:00","ND","ND","ND","ND","2.9","0.8","ND","ND","ND","ND","0","0"],
    [77552,"2019-03-12T03:00:00","10.2","ND","ND","ND","4.7","1.6","ND","ND","ND","ND","0","0"],
    [77553,"2019-03-12T04:00:00","22.8","ND","ND","ND","7.2","1.5","ND","ND","ND","ND","0","0"],
    [77554,"2019-03-12T05:00:00","27.3","ND","ND","ND","3.3","1.1","ND","ND","ND","ND","0","0"],
    [77555,"2019-03-12T06:00:00","26.7","ND","ND","ND","2.3","1.4","ND","ND","ND","ND","0","0"],
    [77556,"2019-03-12T07:00:00","25.5","ND","ND","ND","2.2","0.8","ND","ND","ND","ND","0","0"],
    [77557,"2019-03-12T08:00:00","22.3","ND","ND","ND","2.2","1.9","ND","ND","ND","ND","7","0"],
    [77558,"2019-03-12T09:00:00","31.2","ND","ND","ND","2.2","0.8","ND","ND","ND","ND","52","0"],
    [77559,"2019-03-12T10:00:00","46.7","ND","ND","ND","6.3","1.1","ND","ND","ND","ND","234","0"],
    [77560,"2019-03-12T11:00:00","39.4","ND","ND","ND","ND","2.3","ND","ND","ND","ND","513","0"],
    [77561,"2019-03-12T12:00:00","27.7","ND","ND","ND","ND","9.5","ND","ND","ND","ND","636","0"],
    [77562,"2019-03-12T13:00:00","14.2","ND","ND","ND","34.3","3.2","ND","ND","ND","ND","658","0"],
    [77563,"2019-03-12T14:00:00","8.5","ND","ND","ND","43.9","3.2","ND","ND","ND","ND","566","0"],
    [77564,"2019-03-12T15:00:00","36.8","ND","ND","ND","64.6","2.4","ND","ND","ND","ND","500","0"],
    [77565,"2019-03-12T16:00:00","41.3","ND","ND","ND","81","2.1","ND","ND","ND","ND","664","0"],
    [77566,"2019-03-12T17:00:00","30.2","ND","ND","ND","89.8","2.1","ND","ND","ND","ND","664","0.3"],
    [77567,"2019-03-12T18:00:00","18.7","ND","ND","ND","63.2","2.1","ND","ND","ND","ND","432","0.2"],
    [77568,"2019-03-12T19:00:00","27.2","ND","ND","ND","31.2","2.3","ND","ND","ND","ND","0","1.1"],
    [77569,"2019-03-12T20:00:00","30","ND","ND","ND","9.1","1.6","ND","ND","ND","ND","0","0"],
    [77570,"2019-03-12T21:00:00","35.8","ND","ND","ND","1.9","2.2","ND","ND","ND","ND","0","0"],
    [77571,"2019-03-12T22:00:00","36.6","ND","ND","ND","1.8","2.6","ND","ND","ND","ND","0","0"],
    [77572,"2019-03-12T23:00:00","47.7","ND","ND","ND","1.5","2","ND","ND","ND","ND","0","0"],
    [77573,"2019-03-13T00:00:00","33.4","ND","ND","ND","3.6","1.7","ND","ND","ND","ND","0","0"],
    [77574,"2019-03-13T01:00:00","12","ND","ND","ND","3.8","1.1","ND","ND","ND","ND","0","0"],
    [77575,"2019-03-13T02:00:00","61.1","ND","ND","ND","1.9","1.4","ND","ND","ND","ND","0","0"],
    [77576,"2019-03-13T03:00:00","59.8","ND","ND","ND","1.8","2.7","ND","ND","ND","ND","0","0"],
    [77577,"2019-03-13T04:00:00","54","ND","ND","ND","1.7","3.3","ND","ND","ND","ND","0","0.4"],
    [77578,"2019-03-13T05:00:00","60.3","ND","ND","ND","1.8","3.4","ND","ND","ND","ND","0","0.2"],
    [77579,"2019-03-13T06:00:00","55.8","ND","ND","ND","1.7","7.2","ND","ND","ND","ND","0","0"],
    [77580,"2019-03-13T07:00:00","41.9","ND","ND","ND","1.9","7","ND","ND","ND","ND","0","0"],
    [77581,"2019-03-13T08:00:00","84.1","ND","ND","ND","2.1","6.6","ND","ND","ND","ND","59","0.1"],
    [77582,"2019-03-13T09:00:00","108","ND","ND","ND","6.3","5.2","ND","ND","ND","ND","350","0.1"],
    [77583,"2019-03-13T10:00:00","82.5","ND","ND","ND","29.3","2.5","ND","ND","ND","ND","556","0"],
    [77584,"2019-03-13T11:00:00","53.2","ND","ND","ND","59.8","1.6","ND","ND","ND","ND","664","0"],
    [77585,"2019-03-13T12:00:00","34.6","ND","ND","ND","89.9","1.6","ND","ND","ND","ND","664","0"],
    [77586,"2019-03-13T13:00:00","52.3","ND","ND","ND","105.6","1.6","ND","ND","ND","ND","664","0"],
    [77587,"2019-03-13T14:00:00","61.1","ND","ND","ND","100.5","1.9","ND","ND","ND","ND","664","0"],
    [77588,"2019-03-13T15:00:00","21","ND","ND","ND","46","1.4","ND","ND","ND","ND","664","0"],
    [77589,"2019-03-13T16:00:00","12.8","ND","ND","ND","38.5","1.3","ND","ND","ND","ND","658","0.1"],
    [77590,"2019-03-13T17:00:00","11.7","ND","ND","ND","37.9","1.2","ND","ND","ND","ND","664","3"],
    [77591,"2019-03-13T18:00:00","0.6","ND","ND","ND","29.4","1.2","ND","ND","ND","ND","649","0.4"],
    [77592,"2019-03-13T19:00:00","ND","ND","ND","ND","9.6","1.2","ND","ND","ND","ND","0","0.1"],
    [77593,"2019-03-13T20:00:00","11.8","ND","ND","ND","3.3","1.1","ND","ND","ND","ND","0","0"],
    [77594,"2019-03-13T21:00:00","26.9","ND","ND","ND","2.1","1.4","ND","ND","ND","ND","0","0"],
    [77595,"2019-03-13T22:00:00","34.6","ND","ND","ND","1.9","3.3","ND","ND","ND","ND","0","0.1"],
    [77596,"2019-03-13T23:00:00","53.1","ND","ND","ND","2","2.8","ND","ND","ND","ND","0","0"],
    [77597,"2019-03-14T00:00:00","12.1","ND","ND","ND","2.2","1.7","ND","ND","ND","ND","0","0"],
    [77598,"2019-03-14T01:00:00","12","ND","ND","ND","4.2","1.9","ND","ND","ND","ND","0","0"],
    [77599,"2019-03-14T02:00:00","24.8","ND","ND","ND","6.6","1.6","ND","ND","ND","ND","0","0"],
    [77600,"2019-03-14T03:00:00","31.2","ND","ND","ND","3.4","1.3","ND","ND","ND","ND","0","0"],
    [77601,"2019-03-14T04:00:00","45","ND","ND","ND","5.4","2","ND","ND","ND","ND","0","0"],
    [77602,"2019-03-14T05:00:00","27.4","ND","ND","ND","4.2","1.6","ND","ND","ND","ND","0","0"],
    [77603,"2019-03-14T06:00:00","21.4","ND","ND","ND","6.3","1.5","ND","ND","ND","ND","0","0"],
    [77604,"2019-03-14T07:00:00","49.7","ND","ND","ND","2.2","1.4","ND","ND","ND","ND","0","1.3"],
    [77605,"2019-03-14T08:00:00","16.1","ND","ND","ND","2.9","0.7","ND","ND","ND","ND","0","1.9"],
    [77606,"2019-03-14T09:00:00","0.3","ND","ND","ND","1.9","0.9","ND","ND","ND","ND","16","ND"],
    [77607,"2019-03-14T10:00:00","19.4","ND","ND","ND","1.9","0.7","ND","ND","ND","ND","40","ND"],
    [77608,"2019-03-14T11:00:00","15.2","ND","ND","ND","5.3","0.7","ND","ND","ND","ND","102","ND"],
    [77609,"2019-03-14T12:00:00","19.6","ND","ND","ND","6.3","2.5","ND","ND","ND","ND","257","ND"],
    [77610,"2019-03-14T13:00:00","50.7","ND","ND","ND","23.1","1.6","ND","ND","ND","ND","662","ND"],
    [77611,"2019-03-14T14:00:00","35","ND","ND","ND","42.9","1.2","ND","ND","ND","ND","664","ND"],
    [77612,"2019-03-14T15:00:00","5.6","ND","ND","ND","57.6","1.1","ND","ND","ND","ND","664","ND"],
    [77613,"2019-03-14T16:00:00","4.6","ND","ND","ND","57.1","1.2","ND","ND","ND","ND","651","ND"],
    [77614,"2019-03-14T17:00:00","9.7","ND","ND","ND","41.6","1.7","ND","ND","ND","ND","395","ND"],
    [77615,"2019-03-14T18:00:00","10.3","ND","ND","ND","21.7","1","ND","ND","ND","ND","457","ND"],
    [77616,"2019-03-14T19:00:00","3.8","ND","ND","ND","8.8","0.8","ND","ND","ND","ND","0","ND"],
    [77617,"2019-03-14T20:00:00","3.4","ND","ND","ND","5.7","0.9","ND","ND","ND","ND","0","ND"],
    [77618,"2019-03-14T21:00:00","11","ND","ND","ND","1.7","1.2","ND","ND","ND","ND","0","ND"],
    [77619,"2019-03-14T22:00:00","41.1","ND","ND","ND","1.9","2.7","ND","ND","ND","ND","0","ND"],
    [77620,"2019-03-14T23:00:00","33.5","ND","ND","ND","1.7","1.7","ND","ND","ND","ND","0","ND"],
    [77621,"2019-03-15T00:00:00","35.5","ND","ND","ND","2.9","1","ND","ND","ND","ND","0","ND"],
    [77622,"2019-03-15T01:00:00","55.9","ND","ND","ND","1.9","1.7","ND","ND","ND","ND","0","0"],
    [77623,"2019-03-15T02:00:00","87.3","ND","ND","ND","1.8","2.3","ND","ND","ND","ND","0","0"],
    [77624,"2019-03-15T03:00:00","75.5","ND","ND","ND","2","2.8","ND","ND","ND","ND","0","0"],
    [77625,"2019-03-15T04:00:00","52.2","ND","ND","ND","2","4.6","ND","ND","ND","ND","0","0"],
    [77626,"2019-03-15T05:00:00","41.2","ND","ND","ND","1.9","2.5","ND","ND","ND","ND","0","0"],
    [77627,"2019-03-15T06:00:00","37.2","ND","ND","ND","2","3.7","ND","ND","ND","ND","0","0"],
    [77628,"2019-03-15T07:00:00","59.9","ND","ND","ND","2.1","4.9","ND","ND","ND","ND","0","0"],
    [77629,"2019-03-15T08:00:00","83.7","ND","ND","ND","2.4","3.4","ND","ND","ND","ND","56","0"],
    [77630,"2019-03-15T09:00:00","45.2","ND","ND","ND","6.6","1.6","ND","ND","ND","ND","295","0"],
    [77631,"2019-03-15T10:00:00","46.5","ND","ND","ND","16.7","2.2","ND","ND","ND","ND","623","0"],
    [77632,"2019-03-15T11:00:00","80.2","ND","ND","ND","47.6","1.1","ND","ND","ND","ND","663","2.2"],
    [77633,"2019-03-15T12:00:00","42","ND","ND","ND","64.8","1.2","ND","ND","ND","ND","664","0"],
    [77634,"2019-03-15T13:00:00","6.1","ND","ND","ND","83.9","1.2","ND","ND","ND","ND","664","0"],
    [77635,"2019-03-15T14:00:00","ND","ND","ND","ND","101.7","1.2","ND","ND","ND","ND","664","0"],
    [77636,"2019-03-15T15:00:00","14.9","ND","ND","ND","95.6","1.4","ND","ND","ND","ND","664","0"],
    [77637,"2019-03-15T16:00:00","8.4","ND","ND","ND","100.8","1.3","ND","ND","ND","ND","664","0"],
    [77638,"2019-03-15T17:00:00","22.4","ND","ND","ND","91.5","0.6","ND","ND","ND","ND","645","0"],
    [77639,"2019-03-15T18:00:00","46.6","ND","ND","ND","64","1","ND","ND","ND","ND","599","0"],
    [77640,"2019-03-15T19:00:00","29.6","ND","ND","ND","33","1","ND","ND","ND","ND","0","0"],
    [77641,"2019-03-15T20:00:00","10","ND","ND","ND","17.8","1.3","ND","ND","ND","ND","0","1.8"],
    [77642,"2019-03-15T21:00:00","14.1","ND","ND","ND","9","1.1","ND","ND","ND","ND","0","0.4"],
    [77643,"2019-03-15T22:00:00","38.7","ND","ND","ND","2.9","1.4","ND","ND","ND","ND","0","1.4"],
    [77644,"2019-03-15T23:00:00","39","ND","ND","ND","2.1","1.3","ND","ND","ND","ND","0","2.3"],
    [77645,"2019-03-16T00:00:00","36.4","ND","ND","ND","2","1.9","ND","ND","ND","ND","0","2.5"],
    [77646,"2019-03-16T01:00:00","20.5","ND","ND","ND","1.4","1.6","ND","ND","ND","ND","0","0"],
    [77647,"2019-03-16T02:00:00","ND","ND","ND","ND","1.5","1","ND","ND","ND","ND","0","0"],
    [77648,"2019-03-16T03:00:00","23.7","ND","ND","ND","3.1","1.6","ND","ND","ND","ND","0","0"],
    [77649,"2019-03-16T04:00:00","41.4","ND","ND","ND","1.6","2.2","ND","ND","ND","ND","0","0"],
    [77650,"2019-03-16T05:00:00","45.4","ND","ND","ND","1.7","2","ND","ND","ND","ND","0","0"],
    [77651,"2019-03-16T06:00:00","53.8","ND","ND","ND","3.1","1","ND","ND","ND","ND","0","0"],
    [77652,"2019-03-16T07:00:00","49.9","ND","ND","ND","1.8","1.9","ND","ND","ND","ND","0","0"],
    [77653,"2019-03-16T08:00:00","60.1","ND","ND","ND","3.6","2.4","ND","ND","ND","ND","48","0"],
    [77654,"2019-03-16T09:00:00","63.1","ND","ND","ND","10.2","2.3","ND","ND","ND","ND","335","0"],
    [77655,"2019-03-16T10:00:00","58.2","ND","ND","ND","35.5","1","ND","ND","ND","ND","647","0"],
    [77656,"2019-03-16T11:00:00","54.9","ND","ND","ND","64.5","1.4","ND","ND","ND","ND","664","0"],
    [77657,"2019-03-16T12:00:00","44.6","ND","ND","ND","92.6","0.7","ND","ND","ND","ND","664","0"],
    [77658,"2019-03-16T13:00:00","40.8","ND","ND","ND","105","0.9","ND","ND","ND","ND","664","0"],
    [77659,"2019-03-16T14:00:00","55.2","ND","ND","ND","112.5","1","ND","ND","ND","ND","664","0"],
    [77660,"2019-03-16T15:00:00","34","ND","ND","ND","66.6","1.1","ND","ND","ND","ND","664","0"],
    [77661,"2019-03-16T16:00:00","11.5","ND","ND","ND","56.2","1.1","ND","ND","ND","ND","658","0"],
    [77662,"2019-03-16T17:00:00","19.9","ND","ND","ND","48.9","0.7","ND","ND","ND","ND","664","0"],
    [77663,"2019-03-16T18:00:00","7","ND","ND","ND","46.6","0.9","ND","ND","ND","ND","657","0"],
    [77664,"2019-03-16T19:00:00","0.1","ND","ND","ND","45.3","0.9","ND","ND","ND","ND","0","0"],
    [77665,"2019-03-16T20:00:00","8.3","ND","ND","ND","25.8","1.3","ND","ND","ND","ND","0","0"],
    [77666,"2019-03-16T21:00:00","29.2","ND","ND","ND","13.1","2.2","ND","ND","ND","ND","0","0"],
    [77667,"2019-03-16T22:00:00","47.3","ND","ND","ND","3.3","2.2","ND","ND","ND","ND","0","0"],
    [77668,"2019-03-16T23:00:00","24.6","ND","ND","ND","8.4","1.4","ND","ND","ND","ND","0","0"],
    [77669,"2019-03-17T00:00:00","6.7","ND","ND","ND","4.6","1.3","ND","ND","ND","ND","0","0"],
    [77670,"2019-03-17T01:00:00","47.1","ND","ND","ND","5","1.7","ND","ND","ND","ND","0","0"],
    [77671,"2019-03-17T02:00:00","44.2","ND","ND","ND","5.8","1.6","ND","ND","ND","ND","0","0"],
    [77672,"2019-03-17T03:00:00","22.4","ND","ND","ND","2.2","1.2","ND","ND","ND","ND","0","0"],
    [77673,"2019-03-17T04:00:00","24.2","ND","ND","ND","4.2","0.7","ND","ND","ND","ND","0","0"],
    [77674,"2019-03-17T05:00:00","20.4","ND","ND","ND","3.1","1.1","ND","ND","ND","ND","0","0"],
    [77675,"2019-03-17T06:00:00","10.4","ND","ND","ND","1.9","1.8","ND","ND","ND","ND","0","0"],
    [77676,"2019-03-17T07:00:00","18.4","ND","ND","ND","2.7","1.6","ND","ND","ND","ND","0","0"],
    [77677,"2019-03-17T08:00:00","17.7","ND","ND","ND","4.5","1.8","ND","ND","ND","ND","60","0"],
    [77678,"2019-03-17T09:00:00","56","ND","ND","ND","8.3","1.7","ND","ND","ND","ND","249","0"],
    [77679,"2019-03-17T10:00:00","39.7","ND","ND","ND","17.7","1.7","ND","ND","ND","ND","472","0"],
    [77680,"2019-03-17T11:00:00","48.2","ND","ND","ND","25.7","1.4","ND","ND","ND","ND","589","0"],
    [77681,"2019-03-17T12:00:00","33.4","ND","ND","ND","33.4","1.3","ND","ND","ND","ND","659","0"],
    [77682,"2019-03-17T13:00:00","12.2","ND","ND","ND","58.1","1.2","ND","ND","ND","ND","664","0"],
    [77683,"2019-03-17T14:00:00","11.8","ND","ND","ND","70.9","1.1","ND","ND","ND","ND","664","0"],
    [77684,"2019-03-17T15:00:00","14.9","ND","ND","ND","79.8","1.2","ND","ND","ND","ND","664","0"],
    [77685,"2019-03-17T16:00:00","20.5","ND","ND","ND","63.6","1","ND","ND","ND","ND","664","0"],
    [77686,"2019-03-17T17:00:00","29","ND","ND","ND","46.5","1","ND","ND","ND","ND","390","5"],
    [77687,"2019-03-17T18:00:00","22.7","ND","ND","ND","41.6","0.8","ND","ND","ND","ND","399","0.1"],
    [77688,"2019-03-17T19:00:00","13.2","ND","ND","ND","37.6","1.2","ND","ND","ND","ND","0","0"],
    [77689,"2019-03-17T20:00:00","1.8","ND","ND","ND","17.5","1.3","ND","ND","ND","ND","0","0"],
    [77690,"2019-03-17T21:00:00","19.4","ND","ND","ND","7.7","1.4","ND","ND","ND","ND","0","0"],
    [77691,"2019-03-17T22:00:00","34.3","ND","ND","ND","2.6","2.9","ND","ND","ND","ND","0","0"],
    [77692,"2019-03-17T23:00:00","29.6","ND","ND","ND","1.3","1.2","ND","ND","ND","ND","0","0"],
    [77693,"2019-03-18T00:00:00","6","ND","ND","ND","1.6","1.5","ND","ND","ND","ND","0","0"],
    [77694,"2019-03-18T01:00:00","44.4","ND","ND","ND","3.7","1.6","ND","ND","ND","ND","0","0"],
    [77695,"2019-03-18T02:00:00","39","ND","ND","ND","3.6","3.2","ND","ND","ND","ND","0","0"],
    [77696,"2019-03-18T03:00:00","40.2","ND","ND","ND","2.2","2.5","ND","ND","ND","ND","0","0"],
    [77697,"2019-03-18T04:00:00","35.7","ND","ND","ND","1.7","2.8","ND","ND","ND","ND","0","0"],
    [77698,"2019-03-18T05:00:00","36.2","ND","ND","ND","1.7","2.4","ND","ND","ND","ND","0","0"],
    [77699,"2019-03-18T06:00:00","20.4","ND","ND","ND","1.4","1.5","ND","ND","ND","ND","0","0"],
    [77700,"2019-03-18T07:00:00","20.3","ND","ND","ND","1.6","1.9","ND","ND","ND","ND","0","0"],
    [77701,"2019-03-18T08:00:00","53.3","ND","ND","ND","2.2","2.3","ND","ND","ND","ND","66","0"],
    [77702,"2019-03-18T09:00:00","53.9","ND","ND","ND","7.8","2","ND","ND","ND","ND","330","0"],
    [77703,"2019-03-18T10:00:00","58.6","ND","ND","ND","28","1.6","ND","ND","ND","ND","658","0"],
    [77704,"2019-03-18T11:00:00","41.4","ND","ND","ND","51.1","0.9","ND","ND","ND","ND","664","1.4"],
    [77705,"2019-03-18T12:00:00","34.4","ND","ND","ND","53.6","1.2","ND","ND","ND","ND","664","0"],
    [77706,"2019-03-18T13:00:00","28.4","ND","ND","ND","44.9","1.1","ND","ND","ND","ND","622","0"],
    [77707,"2019-03-18T14:00:00","27.8","ND","ND","ND","38.3","0.8","ND","ND","ND","ND","664","0"],
    [77708,"2019-03-18T15:00:00","14.7","ND","ND","ND","38.7","0.9","ND","ND","ND","ND","664","0"],
    [77709,"2019-03-18T16:00:00","7.3","ND","ND","ND","36.6","1.1","ND","ND","ND","ND","664","0"],
    [77710,"2019-03-18T17:00:00","8","ND","ND","ND","32.9","0.5","ND","ND","ND","ND","664","0"],
    [77711,"2019-03-18T18:00:00","11.5","ND","ND","ND","29.6","0.8","ND","ND","ND","ND","420","0"],
    [77712,"2019-03-18T19:00:00","18.9","ND","ND","ND","22","0.9","ND","ND","ND","ND","0","0"],
    [77713,"2019-03-18T20:00:00","25.7","ND","ND","ND","16.4","0.6","ND","ND","ND","ND","0","0"],
    [77714,"2019-03-18T21:00:00","14.6","ND","ND","ND","10.2","1.1","ND","ND","ND","ND","0","0"],
    [77715,"2019-03-18T22:00:00","22.1","ND","ND","ND","3","0.8","ND","ND","ND","ND","0","0"],
    [77716,"2019-03-18T23:00:00","10.1","ND","ND","ND","1.4","0.9","ND","ND","ND","ND","0","0.1"],
    [77717,"2019-03-19T00:00:00","25.4","ND","ND","ND","1.5","0.8","ND","ND","ND","ND","0","0"],
    [77718,"2019-03-19T01:00:00","28.3","ND","ND","ND","1.7","0.7","ND","ND","ND","ND","0","0.2"],
    [77719,"2019-03-19T02:00:00","5.3","ND","ND","ND","2.3","1.1","ND","ND","ND","ND","0","0.1"],
    [77720,"2019-03-19T03:00:00","6.6","ND","ND","ND","2.4","1.4","ND","ND","ND","ND","0","0"],
    [77721,"2019-03-19T04:00:00","2.4","ND","ND","ND","1.8","0.7","ND","ND","ND","ND","0","1.4"],
    [77722,"2019-03-19T05:00:00","14.4","ND","ND","ND","1.8","0.8","ND","ND","ND","ND","0","0"],
    [77723,"2019-03-19T06:00:00","8.8","ND","ND","ND","1.5","1.4","ND","ND","ND","ND","0","0.1"],
    [77724,"2019-03-19T07:00:00","9.1","ND","ND","ND","1.5","1.2","ND","ND","ND","ND","0","1.1"],
    [77725,"2019-03-19T08:00:00","7.6","ND","ND","ND","1.5","1.6","ND","ND","ND","ND","7","0.1"],
    [77726,"2019-03-19T09:00:00","29.8","ND","ND","ND","1.4","0.9","ND","ND","ND","ND","75","0"],
    [77727,"2019-03-19T10:00:00","21.3","ND","ND","ND","3.1","1","ND","ND","ND","ND","73","0"],
    [77728,"2019-03-19T11:00:00","2.7","ND","ND","ND","8.4","1","ND","ND","ND","ND","228","0"],
    [77729,"2019-03-19T12:00:00","21.7","ND","ND","ND","8.4","0.9","ND","ND","ND","ND","347","0.8"],
    [77730,"2019-03-19T13:00:00","0.7","ND","ND","ND","6.8","1.2","ND","ND","ND","ND","270","0.3"],
    [77731,"2019-03-19T14:00:00","8.2","ND","ND","ND","8.8","1.6","ND","ND","ND","ND","401","0"],
    [77732,"2019-03-19T15:00:00","29.7","ND","ND","ND","13.1","1.6","ND","ND","ND","ND","663","ND"],
    [77733,"2019-03-19T16:00:00","23.5","ND","ND","ND","19.3","0.8","ND","ND","ND","ND","663","0"],
    [77734,"2019-03-19T17:00:00","17.7","ND","ND","ND","16","0.9","ND","ND","ND","ND","529","0"],
    [77735,"2019-03-19T18:00:00","23.1","ND","ND","ND","12.2","1","ND","ND","ND","ND","261","1.6"],
    [77736,"2019-03-19T19:00:00","12.5","ND","ND","ND","4.2","1.3","ND","ND","ND","ND","0","0.3"],
    [77737,"2019-03-19T20:00:00","16.7","ND","ND","ND","4.3","0.8","ND","ND","ND","ND","0","0"],
    [77738,"2019-03-19T21:00:00","16.3","ND","ND","ND","2.5","0.9","ND","ND","ND","ND","0","0"],
    [77739,"2019-03-19T22:00:00","20.1","ND","ND","ND","1.9","0.9","ND","ND","ND","ND","0","0"],
    [77740,"2019-03-19T23:00:00","24.9","ND","ND","ND","1.7","1.7","ND","ND","ND","ND","0","0"],
    [77741,"2019-03-20T00:00:00","3.6","ND","ND","ND","2.5","1.3","ND","ND","ND","ND","0","0"],
    [77742,"2019-03-20T01:00:00","2.6","ND","ND","ND","2.3","1.4","ND","ND","ND","ND","0","ND"],
    [77743,"2019-03-20T02:00:00","38.2","ND","ND","ND","1.4","3.5","ND","ND","ND","ND","0","ND"],
    [77744,"2019-03-20T03:00:00","48.3","ND","ND","ND","2.2","4.7","ND","ND","ND","ND","0","0"],
    [77745,"2019-03-20T04:00:00","15.1","ND","ND","ND","1.4","2.7","ND","ND","ND","ND","0","0"],
    [77746,"2019-03-20T05:00:00","51.7","ND","ND","ND","1.3","1.8","ND","ND","ND","ND","0","0"],
    [77747,"2019-03-20T06:00:00","46.2","ND","ND","ND","1.5","2.8","ND","ND","ND","ND","0","0"],
    [77748,"2019-03-20T07:00:00","38.8","ND","ND","ND","1.4","3.3","ND","ND","ND","ND","0","0"],
    [77749,"2019-03-20T08:00:00","40.3","ND","ND","ND","1.6","3.9","ND","ND","ND","ND","10","0"],
    [77750,"2019-03-20T09:00:00","66.8","ND","ND","ND","2.8","2.4","ND","ND","ND","ND","173","0"],
    [77751,"2019-03-20T10:00:00","115.4","ND","ND","ND","8.9","2.3","ND","ND","ND","ND","629","0"],
    [77752,"2019-03-20T11:00:00","29.4","ND","ND","ND","28.6","1.4","ND","ND","ND","ND","663","0.1"],
    [77753,"2019-03-20T12:00:00","26.2","ND","ND","ND","46.1","1.2","ND","ND","ND","ND","664","0"],
    [77754,"2019-03-20T13:00:00","26.3","ND","ND","ND","60.7","1.2","ND","ND","ND","ND","664","ND"],
    [77755,"2019-03-20T14:00:00","34.1","ND","ND","ND","72","1.7","ND","ND","ND","ND","664","0"],
    [77756,"2019-03-20T15:00:00","26.3","ND","ND","ND","80.3","1.8","ND","ND","ND","ND","664","ND"],
    [77757,"2019-03-20T16:00:00","44.5","ND","ND","ND","76.4","1","ND","ND","ND","ND","663","0"],
    [77758,"2019-03-20T17:00:00","33.8","ND","ND","ND","61.9","1.3","ND","ND","ND","ND","347","0"],
    [77759,"2019-03-20T18:00:00","28.8","ND","ND","ND","39.6","1.1","ND","ND","ND","ND","563","ND"],
    [77760,"2019-03-20T19:00:00","7.6","ND","ND","ND","14.4","0.9","ND","ND","ND","ND","0","ND"],
    [77761,"2019-03-20T20:00:00","19.5","ND","ND","ND","15.8","0.9","ND","ND","ND","ND","0","0"],
    [77762,"2019-03-20T21:00:00","13.6","ND","ND","ND","8.3","1.6","ND","ND","ND","ND","0","0"],
    [77763,"2019-03-20T22:00:00","32.6","ND","ND","ND","1.5","2","ND","ND","ND","ND","0","ND"],
    [77764,"2019-03-20T23:00:00","27.6","ND","ND","ND","1.7","2","ND","ND","ND","ND","0","0"],
    [77765,"2019-03-21T00:00:00","56.2","ND","ND","ND","1.4","1.9","ND","ND","ND","ND","0","0"],
    [77766,"2019-03-21T01:00:00","38.7","ND","ND","ND","1.3","1.9","ND","ND","ND","ND","0","0"],
    [77767,"2019-03-21T02:00:00","6.2","ND","ND","ND","1.9","1.6","ND","ND","ND","ND","0","0"],
    [77768,"2019-03-21T03:00:00","18.7","ND","ND","ND","1.9","2.4","ND","ND","ND","ND","0","0"],
    [77769,"2019-03-21T04:00:00","51.8","ND","ND","ND","1.6","4.9","ND","ND","ND","ND","0","0"],
    [77770,"2019-03-21T05:00:00","73.2","ND","ND","ND","1.5","3.7","ND","ND","ND","ND","0","0"],
    [77771,"2019-03-21T06:00:00","32.1","ND","ND","ND","1.5","2.6","ND","ND","ND","ND","0","0"],
    [77772,"2019-03-21T07:00:00","52.6","ND","ND","ND","1.6","3.4","ND","ND","ND","ND","0","ND"],
    [77773,"2019-03-21T08:00:00","78.3","ND","ND","ND","2.2","2.5","ND","ND","ND","ND","62","0"],
    [77774,"2019-03-21T09:00:00","98.6","ND","ND","ND","5","2.2","ND","ND","ND","ND","289","0"],
    [77775,"2019-03-21T10:00:00","42.6","ND","ND","ND","23.4","1.8","ND","ND","ND","ND","540","0"],
    [77776,"2019-03-21T11:00:00","16.3","ND","ND","ND","45.4","1.1","ND","ND","ND","ND","664","0"],
    [77777,"2019-03-21T12:00:00","15.7","ND","ND","ND","42.6","1.2","ND","ND","ND","ND","664","0"],
    [77778,"2019-03-21T13:00:00","6.7","ND","ND","ND","16.9","1.3","ND","ND","ND","ND","467","ND"],
    [77779,"2019-03-21T14:00:00","32.6","ND","ND","ND","22.7","0.9","ND","ND","ND","ND","527","0"],
    [77780,"2019-03-21T15:00:00","32.8","ND","ND","ND","30.7","0.9","ND","ND","ND","ND","664","0"],
    [77781,"2019-03-21T16:00:00","8.3","ND","ND","ND","38.5","0.4","ND","ND","ND","ND","664","0"],
    [77782,"2019-03-21T17:00:00","1.3","ND","ND","ND","33.2","0.9","ND","ND","ND","ND","664","0"],
    [77783,"2019-03-21T18:00:00","ND","ND","ND","ND","17.9","1","ND","ND","ND","ND","423","0"],
    [77784,"2019-03-21T19:00:00","10.6","ND","ND","ND","3.9","1.1","ND","ND","ND","ND","0","ND"],
    [77785,"2019-03-21T20:00:00","49.6","ND","ND","ND","1.6","1.8","ND","ND","ND","ND","0","0"],
    [77786,"2019-03-21T21:00:00","44.8","ND","ND","ND","1.5","1.9","ND","ND","ND","ND","0","0"],
    [77787,"2019-03-21T22:00:00","22.7","ND","ND","ND","1.7","0.9","ND","ND","ND","ND","0","0"],
    [77788,"2019-03-21T23:00:00","20.3","ND","ND","ND","1.4","1.1","ND","ND","ND","ND","0","0"],
    [77789,"2019-03-22T00:00:00","14","ND","ND","ND","1.5","1.4","ND","ND","ND","ND","0","0"],
    [77790,"2019-03-22T01:00:00","28.4","ND","ND","ND","1.5","1.7","ND","ND","ND","ND","0","0"],
    [77791,"2019-03-22T02:00:00","44.5","ND","ND","ND","1.4","1.7","ND","ND","ND","ND","0","0"],
    [77792,"2019-03-22T03:00:00","48.9","ND","ND","ND","1.3","3.4","ND","ND","ND","ND","0","0"],
    [77793,"2019-03-22T04:00:00","13.7","ND","ND","ND","1.3","2.7","ND","ND","ND","ND","0","0"],
    [77794,"2019-03-22T05:00:00","50.6","ND","ND","ND","1.5","2.5","ND","ND","ND","ND","0","0"],
    [77795,"2019-03-22T06:00:00","42","ND","ND","ND","1.4","1.8","ND","ND","ND","ND","0","0"],
    [77796,"2019-03-22T07:00:00","41.4","ND","ND","ND","1.5","2.5","ND","ND","ND","ND","0","6.3"],
    [77797,"2019-03-22T08:00:00","61.1","ND","ND","ND","1.5","1.4","ND","ND","ND","ND","77","0"],
    [77798,"2019-03-22T09:00:00","48","ND","ND","ND","6.5","0.9","ND","ND","ND","ND","331","ND"],
    [77799,"2019-03-22T10:00:00","42.2","ND","ND","ND","21.7","0.9","ND","ND","ND","ND","602","0"],
    [77800,"2019-03-22T11:00:00","33.3","ND","ND","ND","26.4","1","ND","ND","ND","ND","663","0"],
    [77801,"2019-03-22T12:00:00","32.4","ND","ND","ND","20","0.8","ND","ND","ND","ND","545","0"],
    [77802,"2019-03-22T13:00:00","39.3","ND","ND","ND","37.7","0.8","ND","ND","ND","ND","618","0"],
    [77803,"2019-03-22T14:00:00","8","ND","ND","ND","37.4","0.9","ND","ND","ND","ND","664","0"],
    [77804,"2019-03-22T15:00:00","6.8","ND","ND","ND","33.7","0.9","ND","ND","ND","ND","664","0"],
    [77805,"2019-03-22T16:00:00","12.8","ND","ND","ND","38.4","0.9","ND","ND","ND","ND","608","0"],
    [77806,"2019-03-22T17:00:00","35.9","ND","ND","ND","46","1","ND","ND","ND","ND","618","0"],
    [77807,"2019-03-22T18:00:00","ND","ND","ND","ND","38.4","1","ND","ND","ND","ND","606","0"],
    [77808,"2019-03-22T19:00:00","24.8","ND","ND","ND","20.9","1.5","ND","ND","ND","ND","0","0"],
    [77809,"2019-03-22T20:00:00","26.1","ND","ND","ND","8.5","4.6","ND","ND","ND","ND","0","0"],
    [77810,"2019-03-22T21:00:00","43.6","ND","ND","ND","2.9","2.9","ND","ND","ND","ND","0","0"],
    [77811,"2019-03-22T22:00:00","33.2","ND","ND","ND","1.5","1.7","ND","ND","ND","ND","0","0"],
    [77812,"2019-03-22T23:00:00","39.7","ND","ND","ND","1.5","1.7","ND","ND","ND","ND","0","0"],
    [77813,"2019-03-23T00:00:00","42.4","ND","ND","ND","1.8","3.1","ND","ND","ND","ND","0","0"],
    [77814,"2019-03-23T01:00:00","40.5","ND","ND","ND","1.4","2.9","ND","ND","ND","ND","0","0"],
    [77815,"2019-03-23T02:00:00","11.8","ND","ND","ND","1.5","1.6","ND","ND","ND","ND","0","0"],
    [77816,"2019-03-23T03:00:00","25.4","ND","ND","ND","2.6","1.8","ND","ND","ND","ND","0","0"],
    [77817,"2019-03-23T04:00:00","35.3","ND","ND","ND","1.6","2.1","ND","ND","ND","ND","0","0"],
    [77818,"2019-03-23T05:00:00","34.8","ND","ND","ND","1.3","2.8","ND","ND","ND","ND","0","0"],
    [77819,"2019-03-23T06:00:00","42.3","ND","ND","ND","1.5","3.4","ND","ND","ND","ND","0","0"],
    [77820,"2019-03-23T07:00:00","30.9","ND","ND","ND","1.5","2","ND","ND","ND","ND","0","0"],
    [77821,"2019-03-23T08:00:00","69.6","ND","ND","ND","1.6","1.8","ND","ND","ND","ND","42","0"],
    [77822,"2019-03-23T09:00:00","84","ND","ND","ND","2.1","2.4","ND","ND","ND","ND","210","0"],
    [77823,"2019-03-23T10:00:00","42","ND","ND","ND","7.9","1.2","ND","ND","ND","ND","370","0"],
    [77824,"2019-03-23T11:00:00","40","ND","ND","ND","29","1.3","ND","ND","ND","ND","623","0"],
    [77825,"2019-03-23T12:00:00","37.1","ND","ND","ND","60.9","1.5","ND","ND","ND","ND","663","0"],
    [77826,"2019-03-23T13:00:00","28","ND","ND","ND","80.4","1.1","ND","ND","ND","ND","664","0"],
    [77827,"2019-03-23T14:00:00","51.1","ND","ND","ND","86.7","1.1","ND","ND","ND","ND","664","0"],
    [77828,"2019-03-23T15:00:00","69.9","ND","ND","ND","83.4","1.7","ND","ND","ND","ND","664","0"],
    [77829,"2019-03-23T16:00:00","9","ND","ND","ND","62","1.1","ND","ND","ND","ND","664","0"],
    [77830,"2019-03-23T17:00:00","14.4","ND","ND","ND","33.2","1","ND","ND","ND","ND","352","0"],
    [77831,"2019-03-23T18:00:00","30","ND","ND","ND","28.2","1","ND","ND","ND","ND","140","0"],
    [77832,"2019-03-23T19:00:00","15.7","ND","ND","ND","16","1.4","ND","ND","ND","ND","0","0"],
    [77833,"2019-03-23T20:00:00","14.6","ND","ND","ND","8.6","1.1","ND","ND","ND","ND","0","0.2"],
    [77834,"2019-03-23T21:00:00","29.3","ND","ND","ND","2.4","2.4","ND","ND","ND","ND","0","0.1"],
    [77835,"2019-03-23T22:00:00","20.2","ND","ND","ND","1.4","1.8","ND","ND","ND","ND","0","0.1"],
    [77836,"2019-03-23T23:00:00","27.8","ND","ND","ND","2.2","1.9","ND","ND","ND","ND","0","0"],
    [77837,"2019-03-24T00:00:00","47.4","ND","ND","ND","1.6","3.1","ND","ND","ND","ND","0","0"],
    [77838,"2019-03-24T01:00:00","29.7","ND","ND","ND","1.5","4","ND","ND","ND","ND","0","0"],
    [77839,"2019-03-24T02:00:00","33.6","ND","ND","ND","3.8","2.1","ND","ND","ND","ND","0","0"],
    [77840,"2019-03-24T03:00:00","46.9","ND","ND","ND","2.4","1.8","ND","ND","ND","ND","0","0"],
    [77841,"2019-03-24T04:00:00","62.9","ND","ND","ND","1.8","2.2","ND","ND","ND","ND","0","0"],
    [77842,"2019-03-24T05:00:00","59.8","ND","ND","ND","1.7","2.9","ND","ND","ND","ND","0","0"],
    [77843,"2019-03-24T06:00:00","54.4","ND","ND","ND","1.5","2.2","ND","ND","ND","ND","0","0"],
    [77844,"2019-03-24T07:00:00","22.9","ND","ND","ND","2.1","2","ND","ND","ND","ND","0","0"],
    [77845,"2019-03-24T08:00:00","27.4","ND","ND","ND","6.3","1.7","ND","ND","ND","ND","39","0"],
    [77846,"2019-03-24T09:00:00","23","ND","ND","ND","12","1.2","ND","ND","ND","ND","227","0"],
    [77847,"2019-03-24T10:00:00","54.3","ND","ND","ND","16.3","1.8","ND","ND","ND","ND","303","0"],
    [77848,"2019-03-24T11:00:00","28.1","ND","ND","ND","18.4","1.7","ND","ND","ND","ND","425","0"],
    [77849,"2019-03-24T12:00:00","42.5","ND","ND","ND","14.6","2","ND","ND","ND","ND","337","0"],
    [77850,"2019-03-24T13:00:00","49.1","ND","ND","ND","17.1","1.8","ND","ND","ND","ND","281","0"],
    [77851,"2019-03-24T14:00:00","72.6","ND","ND","ND","24.4","1.5","ND","ND","ND","ND","600","0"],
    [77852,"2019-03-24T15:00:00","28.6","ND","ND","ND","31.1","1.2","ND","ND","ND","ND","646","0"],
    [77853,"2019-03-24T16:00:00","1.5","ND","ND","ND","38.9","1.1","ND","ND","ND","ND","663","0"],
    [77854,"2019-03-24T17:00:00","22","ND","ND","ND","46.2","1.2","ND","ND","ND","ND","649","0"],
    [77855,"2019-03-24T18:00:00","13.3","ND","ND","ND","35.5","1.5","ND","ND","ND","ND","350","0"],
    [77856,"2019-03-24T19:00:00","10.9","ND","ND","ND","26","1.3","ND","ND","ND","ND","0","0"],
    [77857,"2019-03-24T20:00:00","24.2","ND","ND","ND","14.8","2.8","ND","ND","ND","ND","0","3"],
    [77858,"2019-03-24T21:00:00","15.7","ND","ND","ND","3.6","3.2","ND","ND","ND","ND","0","0.5"],
    [77859,"2019-03-24T22:00:00","14.7","ND","ND","ND","1.8","2.6","ND","ND","ND","ND","0","0"],
    [77860,"2019-03-24T23:00:00","15.8","ND","ND","ND","1.6","2","ND","ND","ND","ND","0","0.2"],
    [77861,"2019-03-25T00:00:00","33.1","ND","ND","ND","1.7","1.5","ND","ND","ND","ND","0","0"],
    [77862,"2019-03-25T01:00:00","36.5","ND","ND","ND","1.4","1.5","ND","ND","ND","ND","0","0"],
    [77863,"2019-03-25T02:00:00","56","ND","ND","ND","2.6","1.4","ND","ND","ND","ND","0","0"],
    [77864,"2019-03-25T03:00:00","49.4","ND","ND","ND","1.9","1.5","ND","ND","ND","ND","0","0"],
    [77865,"2019-03-25T04:00:00","35.9","ND","ND","ND","1.4","1.9","ND","ND","ND","ND","0","0"],
    [77866,"2019-03-25T05:00:00","32.9","ND","ND","ND","1.5","1.7","ND","ND","ND","ND","0","0"],
    [77867,"2019-03-25T06:00:00","48.6","ND","ND","ND","1.4","1.2","ND","ND","ND","ND","0","0"],
    [77868,"2019-03-25T07:00:00","33.9","ND","ND","ND","1.5","2.4","ND","ND","ND","ND","0","7.5"],
    [77869,"2019-03-25T08:00:00","88.5","ND","ND","ND","2.7","4.2","ND","ND","ND","ND","88","1.5"],
    [77870,"2019-03-25T09:00:00","50.2","ND","ND","ND","5.2","2.1","ND","ND","ND","ND","437","0"],
    [77871,"2019-03-25T10:00:00","25.7","ND","ND","ND","12.2","2.1","ND","ND","ND","ND","512","0.1"],
    [77872,"2019-03-25T11:00:00","50.6","ND","ND","ND","37","1.2","ND","ND","ND","ND","663","0"],
    [77873,"2019-03-25T12:00:00","33.1","ND","ND","ND","63.1","1.4","ND","ND","ND","ND","663","0"],
    [77874,"2019-03-25T13:00:00","32.3","ND","ND","ND","72.8","1.1","ND","ND","ND","ND","664","0"],
    [77875,"2019-03-25T14:00:00","34.8","ND","ND","ND","80.1","1.3","ND","ND","ND","ND","664","0"],
    [77876,"2019-03-25T15:00:00","29.8","ND","ND","ND","73.8","1.1","ND","ND","ND","ND","664","0"],
    [77877,"2019-03-25T16:00:00","1.3","ND","ND","ND","54.8","1.2","ND","ND","ND","ND","616","0"],
    [77878,"2019-03-25T17:00:00","31.9","ND","ND","ND","32.5","0.7","ND","ND","ND","ND","545","0"],
    [77879,"2019-03-25T18:00:00","47.1","ND","ND","ND","25.8","1.4","ND","ND","ND","ND","663","0"],
    [77880,"2019-03-25T19:00:00","14.6","ND","ND","ND","20.7","1","ND","ND","ND","ND","471","0"],
    [77881,"2019-03-25T20:00:00","4.2","ND","ND","ND","7.2","0.8","ND","ND","ND","ND","0","0"],
    [77882,"2019-03-25T21:00:00","34","ND","ND","ND","10.9","1.4","ND","ND","ND","ND","0","0"],
    [77883,"2019-03-25T22:00:00","35.9","ND","ND","ND","3.6","1.5","ND","ND","ND","ND","0","0"],
    [77884,"2019-03-25T23:00:00","27.9","ND","ND","ND","3","1.9","ND","ND","ND","ND","0","0"],
    [77885,"2019-03-26T00:00:00","18.4","ND","ND","ND","2.9","1.3","ND","ND","ND","ND","0","0"],
    [77886,"2019-03-26T01:00:00","26.3","ND","ND","ND","3.2","2.1","ND","ND","ND","ND","0","ND"],
    [77887,"2019-03-26T02:00:00","50.1","ND","ND","ND","3.7","1.4","ND","ND","ND","ND","0","ND"],
    [77888,"2019-03-26T03:00:00","32","ND","ND","ND","7.8","1","ND","ND","ND","ND","0","ND"],
    [77889,"2019-03-26T04:00:00","62.4","ND","ND","ND","8.6","1.3","ND","ND","ND","ND","0","ND"],
    [77890,"2019-03-26T05:00:00","29.5","ND","ND","ND","2.9","1.5","ND","ND","ND","ND","0","ND"],
    [77891,"2019-03-26T06:00:00","31.5","ND","ND","ND","1.8","1.3","ND","ND","ND","ND","0","ND"],
    [77892,"2019-03-26T07:00:00","21.7","ND","ND","ND","1.6","1.3","ND","ND","ND","ND","0","ND"],
    [77893,"2019-03-26T08:00:00","64.6","ND","ND","ND","2.9","2","ND","ND","ND","ND","43","ND"],
    [77894,"2019-03-26T09:00:00","57.6","ND","ND","ND","11","1.1","ND","ND","ND","ND","414","ND"],
    [77895,"2019-03-26T10:00:00","51","ND","ND","ND","26.7","1.1","ND","ND","ND","ND","591","0"],
    [77896,"2019-03-26T11:00:00","31.5","ND","ND","ND","50.9","1.2","ND","ND","ND","ND","664","0"],
    [77897,"2019-03-26T12:00:00","9.8","ND","ND","ND","70.2","1.3","ND","ND","ND","ND","664","0"],
    [77898,"2019-03-26T13:00:00","21.9","ND","ND","ND","69.5","0.7","ND","ND","ND","ND","664","0"],
    [77899,"2019-03-26T14:00:00","54.9","ND","ND","ND","65.1","1.2","ND","ND","ND","ND","664","0"],
    [77900,"2019-03-26T15:00:00","15.7","ND","ND","ND","43","1.4","ND","ND","ND","ND","664","4.4"],
    [77901,"2019-03-26T16:00:00","15.6","ND","ND","ND","46.2","1.1","ND","ND","ND","ND","654","0"],
    [77902,"2019-03-26T17:00:00","23.3","ND","ND","ND","37.6","0.5","ND","ND","ND","ND","661","0"],
    [77903,"2019-03-26T18:00:00","5.3","ND","ND","ND","32.9","1.1","ND","ND","ND","ND","497","0.1"],
    [77904,"2019-03-26T19:00:00","ND","ND","ND","ND","18.6","0.9","ND","ND","ND","ND","0","0"],
    [77905,"2019-03-26T20:00:00","11.2","ND","ND","ND","4","1.3","ND","ND","ND","ND","0","0"],
    [77906,"2019-03-26T21:00:00","31.2","ND","ND","ND","11","0.9","ND","ND","ND","ND","0","0"],
    [77907,"2019-03-26T22:00:00","45.3","ND","ND","ND","2.3","2.1","ND","ND","ND","ND","0","0"],
    [77908,"2019-03-26T23:00:00","26.8","ND","ND","ND","2","1.3","ND","ND","ND","ND","0","0"],
    [77909,"2019-03-27T00:00:00","68.8","ND","ND","ND","1.5","1.5","ND","ND","ND","ND","0","0"],
    [77910,"2019-03-27T01:00:00","29.8","ND","ND","ND","1.5","1.4","ND","ND","ND","ND","0","0.8"],
    [77911,"2019-03-27T02:00:00","23.9","ND","ND","ND","2.2","1.4","ND","ND","ND","ND","0","0.4"],
    [77912,"2019-03-27T03:00:00","21.9","ND","ND","ND","4.6","1.6","ND","ND","ND","ND","0","1.1"],
    [77913,"2019-03-27T04:00:00","2","ND","ND","ND","7.2","0.9","ND","ND","ND","ND","0","0.9"],
    [77914,"2019-03-27T05:00:00","22.7","ND","ND","ND","2.2","1.7","ND","ND","ND","ND","0","0.5"],
    [77915,"2019-03-27T06:00:00","31.6","ND","ND","ND","1.5","1","ND","ND","ND","ND","0","0.1"],
    [77916,"2019-03-27T07:00:00","11.9","ND","ND","ND","1.7","1","ND","ND","ND","ND","0","0"],
    [77917,"2019-03-27T08:00:00","82.4","ND","ND","ND","2.4","1.4","ND","ND","ND","ND","69","0"],
    [77918,"2019-03-27T09:00:00","78.1","ND","ND","ND","7.1","1.7","ND","ND","ND","ND","305","0"],
    [77919,"2019-03-27T10:00:00","64","ND","ND","ND","27.6","1.2","ND","ND","ND","ND","634","0"],
    [77920,"2019-03-27T11:00:00","31.7","ND","ND","ND","50.9","1.1","ND","ND","ND","ND","663","0"],
    [77921,"2019-03-27T12:00:00","21.5","ND","ND","ND","65.6","1","ND","ND","ND","ND","664","0"],
    [77922,"2019-03-27T13:00:00","22.2","ND","ND","ND","79.1","0.9","ND","ND","ND","ND","664","0"],
    [77923,"2019-03-27T14:00:00","39.8","ND","ND","ND","98.6","1.1","ND","ND","ND","ND","664","0"],
    [77924,"2019-03-27T15:00:00","49.8","ND","ND","ND","100.9","1.5","ND","ND","ND","ND","664","0"],
    [77925,"2019-03-27T16:00:00","44","ND","ND","ND","59.1","1.1","ND","ND","ND","ND","644","0"],
    [77926,"2019-03-27T17:00:00","30.2","ND","ND","ND","46.2","1.2","ND","ND","ND","ND","648","0"],
    [77927,"2019-03-27T18:00:00","20.1","ND","ND","ND","41.3","0.9","ND","ND","ND","ND","649","0"],
    [77928,"2019-03-27T19:00:00","4.8","ND","ND","ND","33.3","1.1","ND","ND","ND","ND","0","0.2"],
    [77929,"2019-03-27T20:00:00","22.6","ND","ND","ND","12.1","1.3","ND","ND","ND","ND","0","0.2"],
    [77930,"2019-03-27T21:00:00","46.2","ND","ND","ND","17.9","1.1","ND","ND","ND","ND","0","0.1"],
    [77931,"2019-03-27T22:00:00","28.1","ND","ND","ND","2.9","1.8","ND","ND","ND","ND","0","0"],
    [77932,"2019-03-27T23:00:00","37.6","ND","ND","ND","2.8","1.9","ND","ND","ND","ND","0","0"],
    [77933,"2019-03-28T00:00:00","14.2","ND","ND","ND","2.6","2.3","ND","ND","ND","ND","0","0"],
    [77934,"2019-03-28T01:00:00","26.5","ND","ND","ND","1.8","1.5","ND","ND","ND","ND","0","0"],
    [77935,"2019-03-28T02:00:00","14.4","ND","ND","ND","4.1","2","ND","ND","ND","ND","0","0"],
    [77936,"2019-03-28T03:00:00","19.3","ND","ND","ND","6.1","2.1","ND","ND","ND","ND","0","0"],
    [77937,"2019-03-28T04:00:00","29.2","ND","ND","ND","6.4","2","ND","ND","ND","ND","0","0"],
    [77938,"2019-03-28T05:00:00","37.1","ND","ND","ND","3.5","2","ND","ND","ND","ND","0","0"],
    [77939,"2019-03-28T06:00:00","57.2","ND","ND","ND","1.6","2.5","ND","ND","ND","ND","0","0"],
    [77940,"2019-03-28T07:00:00","40.9","ND","ND","ND","2.4","3.2","ND","ND","ND","ND","0","0"],
    [77941,"2019-03-28T08:00:00","29.8","ND","ND","ND","1.9","1.6","ND","ND","ND","ND","30","0"],
    [77942,"2019-03-28T09:00:00","35.2","ND","ND","ND","4.2","1.7","ND","ND","ND","ND","29","0"],
    [77943,"2019-03-28T10:00:00","35","ND","ND","ND","10.5","3.5","ND","ND","ND","ND","300","0"],
    [77944,"2019-03-28T11:00:00","49.4","ND","ND","ND","28.3","1.6","ND","ND","ND","ND","663","0"],
    [77945,"2019-03-28T12:00:00","50","ND","ND","ND","ND","1.5","ND","ND","ND","ND","664","0"],
    [77946,"2019-03-28T13:00:00","61.7","ND","ND","ND","ND","6.7","ND","ND","ND","ND","664","0"],
    [77947,"2019-03-28T14:00:00","57.6","ND","ND","ND","61.4","2.8","ND","ND","ND","ND","641","0"],
    [77948,"2019-03-28T15:00:00","33.8","ND","ND","ND","41.6","1.9","ND","ND","ND","ND","664","0"],
    [77949,"2019-03-28T16:00:00","15.5","ND","ND","ND","39.1","1.5","ND","ND","ND","ND","665","0"],
    [77950,"2019-03-28T17:00:00","11.5","ND","ND","ND","37.1","1.3","ND","ND","ND","ND","655","0"],
    [77951,"2019-03-28T18:00:00","ND","ND","ND","ND","35.7","1.1","ND","ND","ND","ND","492","0"],
    [77952,"2019-03-28T19:00:00","ND","ND","ND","ND","25.2","1.1","ND","ND","ND","ND","0","0"],
    [77953,"2019-03-28T20:00:00","6.5","ND","ND","ND","19.9","2.2","ND","ND","ND","ND","0","0"],
    [77954,"2019-03-28T21:00:00","29.9","ND","ND","ND","13.2","1.9","ND","ND","ND","ND","0","0"],
    [77955,"2019-03-28T22:00:00","41.1","ND","ND","ND","15.6","1.5","ND","ND","ND","ND","0","0.2"],
    [77956,"2019-03-28T23:00:00","23.8","ND","ND","ND","10.9","2.4","ND","ND","ND","ND","0","0"],
    [77957,"2019-03-29T00:00:00","28.5","ND","ND","ND","18.8","2","ND","ND","ND","ND","0","0"],
    [77958,"2019-03-29T01:00:00","22.7","ND","ND","ND","25.8","1.6","ND","ND","ND","ND","0","0"],
    [77959,"2019-03-29T02:00:00","5.5","ND","ND","ND","16.3","1.5","ND","ND","ND","ND","0","0"],
    [77960,"2019-03-29T03:00:00","5.1","ND","ND","ND","24.4","1.1","ND","ND","ND","ND","0","0"],
    [77961,"2019-03-29T04:00:00","16.8","ND","ND","ND","24","2","ND","ND","ND","ND","0","ND"],
    [77962,"2019-03-29T05:00:00","0.2","ND","ND","ND","13.1","1.6","ND","ND","ND","ND","0","0"],
    [77963,"2019-03-29T06:00:00","ND","ND","ND","ND","10.7","1","ND","ND","ND","ND","0","0"],
    [77964,"2019-03-29T07:00:00","ND","ND","ND","ND","3.3","1.5","ND","ND","ND","ND","0","0"],
    [77965,"2019-03-29T08:00:00","2.3","ND","ND","ND","1.9","1.6","ND","ND","ND","ND","0","0"],
    [77966,"2019-03-29T09:00:00","42.6","ND","ND","ND","2.4","2.3","ND","ND","ND","ND","19","0"],
    [77967,"2019-03-29T10:00:00","37.5","ND","ND","ND","11.9","1.2","ND","ND","ND","ND","54","0"],
    [77968,"2019-03-29T11:00:00","30","ND","ND","ND","10.5","1.2","ND","ND","ND","ND","219","0"],
    [77969,"2019-03-29T12:00:00","23","ND","ND","ND","16.6","1.8","ND","ND","ND","ND","225","0"],
    [77970,"2019-03-29T13:00:00","ND","ND","ND","ND","20.2","1.2","ND","ND","ND","ND","481","0"],
    [77971,"2019-03-29T14:00:00","131.3","ND","ND","ND","42.1","0.6","ND","ND","ND","ND","662","0"],
    [77972,"2019-03-29T15:00:00","57.3","ND","ND","ND","55.9","0.6","ND","ND","ND","ND","664","0"],
    [77973,"2019-03-29T16:00:00","12.2","ND","ND","ND","74.9","1.4","ND","ND","ND","ND","664","0"],
    [77974,"2019-03-29T17:00:00","26.3","ND","ND","ND","77.6","1.2","ND","ND","ND","ND","664","0"],
    [77975,"2019-03-29T18:00:00","20.5","ND","ND","ND","71.6","1.4","ND","ND","ND","ND","582","0"],
    [77976,"2019-03-29T19:00:00","44.4","ND","ND","ND","18.9","1.3","ND","ND","ND","ND","0","0"],
    [77977,"2019-03-29T20:00:00","43.2","ND","ND","ND","9.2","1.1","ND","ND","ND","ND","0","0"],
    [77978,"2019-03-29T21:00:00","53","ND","ND","ND","2.3","1","ND","ND","ND","ND","0","0.1"],
    [77979,"2019-03-29T22:00:00","92.1","ND","ND","ND","2","1.3","ND","ND","ND","ND","0","0"],
    [77980,"2019-03-29T23:00:00","82","ND","ND","ND","1.7","1.5","ND","ND","ND","ND","0","0"],
    [77981,"2019-03-30T00:00:00","33.5","ND","ND","ND","1.8","1.2","ND","ND","ND","ND","0","0"],
    [77982,"2019-03-30T01:00:00","47.2","ND","ND","ND","2.1","2.6","ND","ND","ND","ND","0","0"],
    [77983,"2019-03-30T02:00:00","85.2","ND","ND","ND","2.1","2.3","ND","ND","ND","ND","0","0"],
    [77984,"2019-03-30T03:00:00","72.8","ND","ND","ND","1.9","2.5","ND","ND","ND","ND","0","0"],
    [77985,"2019-03-30T04:00:00","57.6","ND","ND","ND","2.1","4.6","ND","ND","ND","ND","0","0"],
    [77986,"2019-03-30T05:00:00","38.2","ND","ND","ND","1.9","3.2","ND","ND","ND","ND","0","0"],
    [77987,"2019-03-30T06:00:00","27.7","ND","ND","ND","1.7","2.3","ND","ND","ND","ND","0","0"],
    [77988,"2019-03-30T07:00:00","39.8","ND","ND","ND","1.9","2.5","ND","ND","ND","ND","0","0"],
    [77989,"2019-03-30T08:00:00","40.9","ND","ND","ND","1.8","2.9","ND","ND","ND","ND","31","0"],
    [77990,"2019-03-30T09:00:00","56.1","ND","ND","ND","2.6","2.4","ND","ND","ND","ND","212","0"],
    [77991,"2019-03-30T10:00:00","93.1","ND","ND","ND","10.5","2","ND","ND","ND","ND","549","1.5"],
    [77992,"2019-03-30T11:00:00","66.5","ND","ND","ND","34.2","1.8","ND","ND","ND","ND","664","0"],
    [77993,"2019-03-30T12:00:00","68.1","ND","ND","ND","76","1.4","ND","ND","ND","ND","664","1.5"],
    [77994,"2019-03-30T13:00:00","24.6","ND","ND","ND","88.6","1.5","ND","ND","ND","ND","664","0"],
    [77995,"2019-03-30T14:00:00","28.4","ND","ND","ND","98.4","1.1","ND","ND","ND","ND","664","0"],
    [77996,"2019-03-30T15:00:00","20.8","ND","ND","ND","95.6","1.4","ND","ND","ND","ND","662","0"],
    [77997,"2019-03-30T16:00:00","13.5","ND","ND","ND","107.1","1.2","ND","ND","ND","ND","659","0"],
    [77998,"2019-03-30T17:00:00","60","ND","ND","ND","130.8","1.1","ND","ND","ND","ND","664","0"],
    [77999,"2019-03-30T18:00:00","63.9","ND","ND","ND","129.5","1.3","ND","ND","ND","ND","621","0"],
    [78000,"2019-03-30T19:00:00","24.4","ND","ND","ND","18.9","0.7","ND","ND","ND","ND","0","0"],
    [78001,"2019-03-30T20:00:00","36","ND","ND","ND","10.1","1.2","ND","ND","ND","ND","0","0"],
    [78002,"2019-03-30T21:00:00","28.1","ND","ND","ND","6.5","0.8","ND","ND","ND","ND","0","0"],
    [78003,"2019-03-30T22:00:00","36.9","ND","ND","ND","2.2","1.5","ND","ND","ND","ND","0","0.4"],
    [78004,"2019-03-30T23:00:00","51.1","ND","ND","ND","1.8","1.3","ND","ND","ND","ND","0","0"],
    [78005,"2019-03-31T00:00:00","67.2","ND","ND","ND","1.9","1.1","ND","ND","ND","ND","0","0"],
    [78006,"2019-03-31T01:00:00","70.5","ND","ND","ND","1.6","1.3","ND","ND","ND","ND","0","0"],
    [78007,"2019-03-31T02:00:00","51.4","ND","ND","ND","3.5","1.2","ND","ND","ND","ND","0","0"],
    [78008,"2019-03-31T03:00:00","28.3","ND","ND","ND","2.7","1.1","ND","ND","ND","ND","0","0"],
    [78009,"2019-03-31T04:00:00","46.7","ND","ND","ND","1.9","1.2","ND","ND","ND","ND","0","0"],
    [78010,"2019-03-31T05:00:00","66.6","ND","ND","ND","2.3","1.6","ND","ND","ND","ND","0","0"],
    [78011,"2019-03-31T06:00:00","43.5","ND","ND","ND","2","1.7","ND","ND","ND","ND","0","0"],
    [78012,"2019-03-31T07:00:00","24.8","ND","ND","ND","1.8","2","ND","ND","ND","ND","0","0"],
    [78013,"2019-03-31T08:00:00","41.1","ND","ND","ND","4.9","1.8","ND","ND","ND","ND","63","0"],
    [78014,"2019-03-31T09:00:00","79.5","ND","ND","ND","9.7","1.4","ND","ND","ND","ND","310","0"],
    [78015,"2019-03-31T10:00:00","76.2","ND","ND","ND","28.8","1.5","ND","ND","ND","ND","609","0"],
    [78016,"2019-03-31T11:00:00","53.3","ND","ND","ND","62.6","1","ND","ND","ND","ND","663","ND"],
    [78017,"2019-03-31T12:00:00","59.9","ND","ND","ND","69.4","0.9","ND","ND","ND","ND","664","0"],
    [78018,"2019-03-31T13:00:00","45.7","ND","ND","ND","47","1.1","ND","ND","ND","ND","664","0"],
    [78019,"2019-03-31T14:00:00","4.8","ND","ND","ND","39.4","0.6","ND","ND","ND","ND","629","0"],
    [78020,"2019-03-31T15:00:00","12.8","ND","ND","ND","35.5","0.6","ND","ND","ND","ND","664","0"],
    [78021,"2019-03-31T16:00:00","12.2","ND","ND","ND","36.3","0.7","ND","ND","ND","ND","653","ND"],
    [78022,"2019-03-31T17:00:00","23.9","ND","ND","ND","30.1","0.9","ND","ND","ND","ND","592","0"],
    [78023,"2019-03-31T18:00:00","32.1","ND","ND","ND","16.5","1","ND","ND","ND","ND","512","0"],
    [78024,"2019-03-31T19:00:00","5.9","ND","ND","ND","4.2","1","ND","ND","ND","ND","0","0.4"],
    [78025,"2019-03-31T20:00:00","23.4","ND","ND","ND","5.8","1.1","ND","ND","ND","ND","0","0"],
    [78026,"2019-03-31T21:00:00","2","ND","ND","ND","1.6","1.3","ND","ND","ND","ND","0","0"],
    [78027,"2019-03-31T22:00:00","7.2","ND","ND","ND","1.4","1.3","ND","ND","ND","ND","0","ND"],
    [78028,"2019-03-31T23:00:00","21","ND","ND","ND","1.3","0.9","ND","ND","ND","ND","0","0"],
    [78029,"2019-04-01T00:00:00","26.7","ND","ND","ND","2.5","1.2","ND","ND","ND","ND","0","ND"],
    [78030,"2019-04-01T01:00:00","13.6","ND","ND","ND","2.6","1.7","ND","ND","ND","ND","0","ND"],
    [78031,"2019-04-01T02:00:00","22.9","ND","ND","ND","2.2","1.4","ND","ND","ND","ND","0","0"],
    [78032,"2019-04-01T03:00:00","11","ND","ND","ND","1.7","1.8","ND","ND","ND","ND","0","ND"],
    [78033,"2019-04-01T04:00:00","5.5","ND","ND","ND","3.9","1.1","ND","ND","ND","ND","0","0"],
    [78034,"2019-04-01T05:00:00","11.4","ND","ND","ND","3.7","1.3","ND","ND","ND","ND","0","ND"],
    [78035,"2019-04-01T06:00:00","16.2","ND","ND","ND","1.8","1.5","ND","ND","ND","ND","0","0"],
    [78036,"2019-04-01T07:00:00","21","ND","ND","ND","1.4","2","ND","ND","ND","ND","0","0"],
    [78037,"2019-04-01T08:00:00","29.8","ND","ND","ND","1.5","1.4","ND","ND","ND","ND","69","0"],
    [78038,"2019-04-01T09:00:00","22.5","ND","ND","ND","2.5","1.3","ND","ND","ND","ND","116","0"],
    [78039,"2019-04-01T10:00:00","34.5","ND","ND","ND","3.6","1","ND","ND","ND","ND","263","ND"],
    [78040,"2019-04-01T11:00:00","22.5","ND","ND","ND","6.1","1.6","ND","ND","ND","ND","199","0"],
    [78041,"2019-04-01T12:00:00","24.2","ND","ND","ND","23.8","0.7","ND","ND","ND","ND","385","0"],
    [78042,"2019-04-01T13:00:00","8.5","ND","ND","ND","43.2","1.5","ND","ND","ND","ND","664","0"],
    [78043,"2019-04-01T14:00:00","5.9","ND","ND","ND","25.3","1","ND","ND","ND","ND","658","0"],
    [78044,"2019-04-01T15:00:00","ND","ND","ND","ND","14.3","0.9","ND","ND","ND","ND","244","0"],
    [78045,"2019-04-01T16:00:00","10","ND","ND","ND","4.8","1","ND","ND","ND","ND","256","0"],
    [78046,"2019-04-01T17:00:00","10.5","ND","ND","ND","5.9","0.9","ND","ND","ND","ND","183","0"],
    [78047,"2019-04-01T18:00:00","2.4","ND","ND","ND","4.1","1","ND","ND","ND","ND","156","0"],
    [78048,"2019-04-01T19:00:00","13.4","ND","ND","ND","1.5","1.2","ND","ND","ND","ND","0","0"],
    [78049,"2019-04-01T20:00:00","19.7","ND","ND","ND","4.3","1.6","ND","ND","ND","ND","0","0.1"],
    [78050,"2019-04-01T21:00:00","5.3","ND","ND","ND","1.9","0.9","ND","ND","ND","ND","0","0.6"],
    [78051,"2019-04-01T22:00:00","10.9","ND","ND","ND","1.1","1.1","ND","ND","ND","ND","0","ND"],
    [78052,"2019-04-01T23:00:00","24.1","ND","ND","ND","1.1","1.5","ND","ND","ND","ND","0","ND"],
    [78053,"2019-04-02T00:00:00","21.8","ND","ND","ND","1.1","1.9","ND","ND","ND","ND","0","0"],
    [78054,"2019-04-02T01:00:00","20.9","ND","ND","ND","1.1","2.3","ND","ND","ND","ND","0","0"],
    [78055,"2019-04-02T02:00:00","24.4","ND","ND","ND","1.1","1.6","ND","ND","ND","ND","0","0"],
    [78056,"2019-04-02T03:00:00","24.7","ND","ND","ND","1.3","1.6","ND","ND","ND","ND","0","ND"],
    [78057,"2019-04-02T04:00:00","27.7","ND","ND","ND","1.4","1.5","ND","ND","ND","ND","0","0"],
    [78058,"2019-04-02T05:00:00","15","ND","ND","ND","1.3","0.8","ND","ND","ND","ND","0","0"],
    [78059,"2019-04-02T06:00:00","19.4","ND","ND","ND","1.3","0.6","ND","ND","ND","ND","0","0"],
    [78060,"2019-04-02T07:00:00","29.1","ND","ND","ND","1.3","1.1","ND","ND","ND","ND","0","ND"],
    [78061,"2019-04-02T08:00:00","42.7","ND","ND","ND","1.3","1.7","ND","ND","ND","ND","37","0"],
    [78062,"2019-04-02T09:00:00","55.9","ND","ND","ND","2.4","1.2","ND","ND","ND","ND","117","0"],
    [78063,"2019-04-02T10:00:00","76.7","ND","ND","ND","13.6","1.3","ND","ND","ND","ND","398","0"],
    [78064,"2019-04-02T11:00:00","67.4","ND","ND","ND","26.1","1.1","ND","ND","ND","ND","664","0"],
    [78065,"2019-04-02T12:00:00","40.7","ND","ND","ND","51.5","1.4","ND","ND","ND","ND","661","0"],
    [78066,"2019-04-02T13:00:00","47","ND","ND","ND","66.4","1.4","ND","ND","ND","ND","659","0"],
    [78067,"2019-04-02T14:00:00","40.7","ND","ND","ND","73.1","0.9","ND","ND","ND","ND","664","0.6"],
    [78068,"2019-04-02T15:00:00","39.2","ND","ND","ND","67.1","0.9","ND","ND","ND","ND","664","0"],
    [78069,"2019-04-02T16:00:00","18.4","ND","ND","ND","56.8","1.4","ND","ND","ND","ND","471","0"],
    [78070,"2019-04-02T17:00:00","9.6","ND","ND","ND","20.4","1.1","ND","ND","ND","ND","0","0"],
    [78071,"2019-04-02T18:00:00","ND","ND","ND","ND","4.8","0.7","ND","ND","ND","ND","0","0"],
    [78072,"2019-04-02T19:00:00","ND","ND","ND","ND","ND","ND","ND","ND","ND","ND","14","0"],
    [78073,"2019-04-02T20:00:00","ND","ND","ND","ND","ND","ND","ND","ND","ND","ND","ND","0"],
    [78074,"2019-04-02T21:00:00","ND","ND","ND","ND","ND","ND","ND","ND","ND","ND","ND","0"],
    [78075,"2019-04-02T22:00:00","ND","ND","ND","ND","ND","ND","ND","ND","ND","ND","ND","0.1"],
    [78076,"2019-04-02T23:00:00","ND","ND","ND","ND","ND","ND","ND","ND","ND","ND","ND","0"],
    [78077,"2019-04-03T00:00:00","ND","ND","ND","ND","ND","ND","ND","ND","ND","ND","ND","0"],
    [78078,"2019-04-03T01:00:00","ND","ND","ND","ND","ND","ND","ND","ND","ND","ND","ND","2.7"],
    [78079,"2019-04-03T02:00:00","ND","ND","ND","ND","ND","ND","ND","ND","ND","ND","ND","0"],
    [78080,"2019-04-03T03:00:00","ND","ND","ND","ND","ND","ND","ND","ND","ND","ND","ND","0"],
    [78081,"2019-04-03T04:00:00","ND","ND","ND","ND","ND","ND","ND","ND","ND","ND","ND","0"],
    [78082,"2019-04-03T05:00:00","ND","ND","ND","ND","ND","ND","ND","ND","ND","ND","ND","0"],
    [78083,"2019-04-03T06:00:00","ND","ND","ND","ND","ND","ND","ND","ND","ND","ND","ND","0"],
    [78084,"2019-04-03T07:00:00","ND","ND","ND","ND","ND","ND","ND","ND","ND","ND","ND","0"],
    [78085,"2019-04-03T08:00:00","ND","ND","ND","ND","ND","ND","ND","ND","ND","ND","ND","0"],
    [78086,"2019-04-03T09:00:00","98.9","ND","ND","ND","1.4","1.7","ND","ND","ND","ND","ND","0"],
    [78087,"2019-04-03T10:00:00","102.9","ND","ND","ND","2.5","1.7","ND","ND","ND","ND","211","0"],
    [78088,"2019-04-03T11:00:00","73.4","ND","ND","ND","8.8","1","ND","ND","ND","ND","419","0"],
    [78089,"2019-04-03T12:00:00","51.3","ND","ND","ND","36","1.8","ND","ND","ND","ND","666","0"],
    [78090,"2019-04-03T13:00:00","41.5","ND","ND","ND","52.6","1.8","ND","ND","ND","ND","666","0"],
    [78091,"2019-04-03T14:00:00","26.8","ND","ND","ND","20.4","1.4","ND","ND","ND","ND","660","0"],
    [78092,"2019-04-03T15:00:00","ND","ND","ND","ND","24.4","0.7","ND","ND","ND","ND","497","0"],
    [78093,"2019-04-03T16:00:00","0.4","ND","ND","ND","23.9","0.7","ND","ND","ND","ND","640","0"],
    [78094,"2019-04-03T17:00:00","3.1","ND","ND","ND","23.8","1.1","ND","ND","ND","ND","546","0"],
    [78095,"2019-04-03T18:00:00","25.7","ND","ND","ND","12.4","2","ND","ND","ND","ND","199","0"],
    [78096,"2019-04-03T19:00:00","44.6","ND","ND","ND","7","1.8","ND","ND","ND","ND","0","0"],
    [78097,"2019-04-03T20:00:00","35.3","ND","ND","ND","2.6","1.7","ND","ND","ND","ND","0","0"],
    [78098,"2019-04-03T21:00:00","17","ND","ND","ND","2.8","1.9","ND","ND","ND","ND","0","0"],
    [78099,"2019-04-03T22:00:00","37.9","ND","ND","ND","2","2.8","ND","ND","ND","ND","0","0"],
    [78100,"2019-04-03T23:00:00","20.2","ND","ND","ND","2.4","2.6","ND","ND","ND","ND","0","ND"],
    [78101,"2019-04-04T00:00:00","68","ND","ND","ND","2.2","1.1","ND","ND","ND","ND","0","0"],
    [78102,"2019-04-04T01:00:00","43.3","ND","ND","ND","3.5","1.3","ND","ND","ND","ND","0","0"],
    [78103,"2019-04-04T02:00:00","10.4","ND","ND","ND","7.9","1.3","ND","ND","ND","ND","0","0"],
    [78104,"2019-04-04T03:00:00","ND","ND","ND","ND","3.7","1.4","ND","ND","ND","ND","0","0"],
    [78105,"2019-04-04T04:00:00","35.7","ND","ND","ND","3.9","1.8","ND","ND","ND","ND","0","0"],
    [78106,"2019-04-04T05:00:00","11","ND","ND","ND","5.3","1.4","ND","ND","ND","ND","0","0.6"],
    [78107,"2019-04-04T06:00:00","26.9","ND","ND","ND","2.6","1.9","ND","ND","ND","ND","0","0"],
    [78108,"2019-04-04T07:00:00","14.6","ND","ND","ND","2.1","1.3","ND","ND","ND","ND","0","0"],
    [78109,"2019-04-04T08:00:00","40.2","ND","ND","ND","3.2","2","ND","ND","ND","ND","47","0"],
    [78110,"2019-04-04T09:00:00","37.2","ND","ND","ND","4.4","1.7","ND","ND","ND","ND","259","0"],
    [78111,"2019-04-04T10:00:00","65.8","ND","ND","ND","12.2","0.7","ND","ND","ND","ND","584","0"],
    [78112,"2019-04-04T11:00:00","50.1","ND","ND","ND","26.4","1.1","ND","ND","ND","ND","664","0"],
    [78113,"2019-04-04T12:00:00","19.9","ND","ND","ND","42.6","1.1","ND","ND","ND","ND","664","0"],
    [78114,"2019-04-04T13:00:00","26.5","ND","ND","ND","59.5","1.2","ND","ND","ND","ND","665","0"],
    [78115,"2019-04-04T14:00:00","35","ND","ND","ND","79.3","1.2","ND","ND","ND","ND","665","0"],
    [78116,"2019-04-04T15:00:00","30.5","ND","ND","ND","54.6","1","ND","ND","ND","ND","665","0"],
    [78117,"2019-04-04T16:00:00","25.8","ND","ND","ND","23.6","1.6","ND","ND","ND","ND","665","0"],
    [78118,"2019-04-04T17:00:00","15.1","ND","ND","ND","15.4","1.2","ND","ND","ND","ND","653","0"],
    [78119,"2019-04-04T18:00:00","32","ND","ND","ND","12.8","1.2","ND","ND","ND","ND","436","0"],
    [78120,"2019-04-04T19:00:00","23.8","ND","ND","ND","11","1.1","ND","ND","ND","ND","0","0.1"],
    [78121,"2019-04-04T20:00:00","83.3","ND","ND","ND","3.7","1.4","ND","ND","ND","ND","0","0"],
    [78122,"2019-04-04T21:00:00","45.4","ND","ND","ND","7","1.8","ND","ND","ND","ND","0","0"],
    [78123,"2019-04-04T22:00:00","39.8","ND","ND","ND","5.9","1.2","ND","ND","ND","ND","0","0.1"],
    [78124,"2019-04-04T23:00:00","24.4","ND","ND","ND","6.5","0.7","ND","ND","ND","ND","0","0"],
    [78125,"2019-04-05T00:00:00","4.4","ND","ND","ND","4.3","1.1","ND","ND","ND","ND","0","0"],
    [78126,"2019-04-05T01:00:00","20.5","ND","ND","ND","6.5","1.1","ND","ND","ND","ND","0","0"],
    [78127,"2019-04-05T02:00:00","6.8","ND","ND","ND","5.7","1.2","ND","ND","ND","ND","0","0"],
    [78128,"2019-04-05T03:00:00","6.1","ND","ND","ND","3.6","0.9","ND","ND","ND","ND","0","0"],
    [78129,"2019-04-05T04:00:00","7.1","ND","ND","ND","3.2","0.9","ND","ND","ND","ND","0","0"],
    [78130,"2019-04-05T05:00:00","48.1","ND","ND","ND","3","1","ND","ND","ND","ND","0","0"],
    [78131,"2019-04-05T06:00:00","25.2","ND","ND","ND","3.2","1.5","ND","ND","ND","ND","0","0"],
    [78132,"2019-04-05T07:00:00","29.9","ND","ND","ND","3","1.5","ND","ND","ND","ND","0","0"],
    [78133,"2019-04-05T08:00:00","26.7","ND","ND","ND","3.3","1.6","ND","ND","ND","ND","36","0"],
    [78134,"2019-04-05T09:00:00","84.3","ND","ND","ND","3.9","2","ND","ND","ND","ND","181","0"],
    [78135,"2019-04-05T10:00:00","103.5","ND","ND","ND","12.1","1.3","ND","ND","ND","ND","452","0"],
    [78136,"2019-04-05T11:00:00","108.1","ND","ND","ND","36","1.4","ND","ND","ND","ND","664","0"],
    [78137,"2019-04-05T12:00:00","40.3","ND","ND","ND","53.5","1.3","ND","ND","ND","ND","659","0"],
    [78138,"2019-04-05T13:00:00","13.3","ND","ND","ND","58.9","0.9","ND","ND","ND","ND","665","0"],
    [78139,"2019-04-05T14:00:00","2.6","ND","ND","ND","63.6","1.2","ND","ND","ND","ND","636","0"],
    [78140,"2019-04-05T15:00:00","32.9","ND","ND","ND","37.7","1.3","ND","ND","ND","ND","646","0"],
    [78141,"2019-04-05T16:00:00","6.1","ND","ND","ND","22.7","1.3","ND","ND","ND","ND","631","0"],
    [78142,"2019-04-05T17:00:00","8.9","ND","ND","ND","18.5","0.7","ND","ND","ND","ND","646","0"],
    [78143,"2019-04-05T18:00:00","0.2","ND","ND","ND","16.5","1","ND","ND","ND","ND","637","0"],
    [78144,"2019-04-05T19:00:00","0.1","ND","ND","ND","6","0.8","ND","ND","ND","ND","0","0"],
    [78145,"2019-04-05T20:00:00","4.2","ND","ND","ND","7.7","1","ND","ND","ND","ND","0","1"],
    [78146,"2019-04-05T21:00:00","17.5","ND","ND","ND","4.1","1.1","ND","ND","ND","ND","0","0"],
    [78147,"2019-04-05T22:00:00","20.4","ND","ND","ND","4.8","0.8","ND","ND","ND","ND","0","0"],
    [78148,"2019-04-05T23:00:00","25.7","ND","ND","ND","6.9","1.2","ND","ND","ND","ND","0","0"],
    [78149,"2019-04-06T00:00:00","1.9","ND","ND","ND","8.3","1.2","ND","ND","ND","ND","0","0"],
    [78150,"2019-04-06T01:00:00","ND","ND","ND","ND","7.2","1.1","ND","ND","ND","ND","0","0"],
    [78151,"2019-04-06T02:00:00","ND","ND","ND","ND","10.1","0.4","ND","ND","ND","ND","0","0"],
    [78152,"2019-04-06T03:00:00","ND","ND","ND","ND","13.4","1.3","ND","ND","ND","ND","0","0"],
    [78153,"2019-04-06T04:00:00","7.5","ND","ND","ND","12","1.1","ND","ND","ND","ND","0","0"],
    [78154,"2019-04-06T05:00:00","4.8","ND","ND","ND","6.4","1.4","ND","ND","ND","ND","0","0"],
    [78155,"2019-04-06T06:00:00","21.2","ND","ND","ND","2.7","0.9","ND","ND","ND","ND","0","0"],
    [78156,"2019-04-06T07:00:00","28.8","ND","ND","ND","3","0.5","ND","ND","ND","ND","0","0"],
    [78157,"2019-04-06T08:00:00","27.9","ND","ND","ND","3.2","1.4","ND","ND","ND","ND","42","0"],
    [78158,"2019-04-06T09:00:00","46.2","ND","ND","ND","6.5","1.5","ND","ND","ND","ND","348","0"],
    [78159,"2019-04-06T10:00:00","64.3","ND","ND","ND","15.1","1","ND","ND","ND","ND","551","0"],
    [78160,"2019-04-06T11:00:00","44.8","ND","ND","ND","30.1","1.3","ND","ND","ND","ND","664","0"],
    [78161,"2019-04-06T12:00:00","37.6","ND","ND","ND","36.7","1","ND","ND","ND","ND","664","0"],
    [78162,"2019-04-06T13:00:00","28.4","ND","ND","ND","52.1","1","ND","ND","ND","ND","665","0"],
    [78163,"2019-04-06T14:00:00","45.7","ND","ND","ND","82.3","1","ND","ND","ND","ND","665","0"],
    [78164,"2019-04-06T15:00:00","36.8","ND","ND","ND","73.8","1","ND","ND","ND","ND","665","0"],
    [78165,"2019-04-06T16:00:00","37.8","ND","ND","ND","73.1","1.2","ND","ND","ND","ND","665","0"],
    [78166,"2019-04-06T17:00:00","43.7","ND","ND","ND","53.7","1.2","ND","ND","ND","ND","663","0.1"],
    [78167,"2019-04-06T18:00:00","4.7","ND","ND","ND","24.1","1.3","ND","ND","ND","ND","341","0"],
    [78168,"2019-04-06T19:00:00","9.8","ND","ND","ND","14.9","0.5","ND","ND","ND","ND","0","0"],
    [78169,"2019-04-06T20:00:00","40.5","ND","ND","ND","15","0.8","ND","ND","ND","ND","0","0"],
    [78170,"2019-04-06T21:00:00","29.3","ND","ND","ND","4.6","2","ND","ND","ND","ND","0","0.1"],
    [78171,"2019-04-06T22:00:00","60","ND","ND","ND","2.1","1","ND","ND","ND","ND","0","0"],
    [78172,"2019-04-06T23:00:00","74.1","ND","ND","ND","2.5","2","ND","ND","ND","ND","0","0"],
    [78173,"2019-04-07T00:00:00","72.9","ND","ND","ND","1.7","1.6","ND","ND","ND","ND","0","0"],
    [78174,"2019-04-07T01:00:00","50.4","ND","ND","ND","2.3","1.4","ND","ND","ND","ND","0","0"],
    [78175,"2019-04-07T02:00:00","37.4","ND","ND","ND","2","1.2","ND","ND","ND","ND","0","0"],
    [78176,"2019-04-07T03:00:00","51","ND","ND","ND","2","1.3","ND","ND","ND","ND","0","0"],
    [78177,"2019-04-07T04:00:00","64.9","ND","ND","ND","2.6","2.3","ND","ND","ND","ND","0","0"],
    [78178,"2019-04-07T05:00:00","93.2","ND","ND","ND","3.2","2.6","ND","ND","ND","ND","0","0"],
    [78179,"2019-04-07T06:00:00","28.8","ND","ND","ND","2.2","3.3","ND","ND","ND","ND","0","0"],
    [78180,"2019-04-07T07:00:00","6.4","ND","ND","ND","2.8","4.2","ND","ND","ND","ND","0","0.2"],
    [78181,"2019-04-07T08:00:00","41.5","ND","ND","ND","5.3","1.9","ND","ND","ND","ND","49","0.4"],
    [78182,"2019-04-07T09:00:00","26.3","ND","ND","ND","13.9","1.6","ND","ND","ND","ND","287","0.1"],
    [78183,"2019-04-07T10:00:00","58.3","ND","ND","ND","28.3","1.2","ND","ND","ND","ND","615","0.1"],
    [78184,"2019-04-07T11:00:00","68.6","ND","ND","ND","37.7","2.1","ND","ND","ND","ND","662","0"],
    [78185,"2019-04-07T12:00:00","ND","ND","ND","ND","49.2","1.3","ND","ND","ND","ND","665","0"],
    [78186,"2019-04-07T13:00:00","104.7","ND","ND","ND","58.9","1.4","ND","ND","ND","ND","665","0"],
    [78187,"2019-04-07T14:00:00","37.7","ND","ND","ND","47.5","1.2","ND","ND","ND","ND","620","0"],
    [78188,"2019-04-07T15:00:00","7.7","ND","ND","ND","52.3","1.4","ND","ND","ND","ND","611","0.7"],
    [78189,"2019-04-07T16:00:00","12.1","ND","ND","ND","58.5","1.5","ND","ND","ND","ND","657","0.1"],
    [78190,"2019-04-07T17:00:00","28.5","ND","ND","ND","38.3","1.2","ND","ND","ND","ND","348","0"],
    [78191,"2019-04-07T18:00:00","8.7","ND","ND","ND","19.9","1.1","ND","ND","ND","ND","512","0.4"],
    [78192,"2019-04-07T19:00:00","4.2","ND","ND","ND","8.7","1","ND","ND","ND","ND","0","0"],
    [78193,"2019-04-07T20:00:00","6.3","ND","ND","ND","4.6","0.9","ND","ND","ND","ND","0","0"],
    [78194,"2019-04-07T21:00:00","13.9","ND","ND","ND","4","0.9","ND","ND","ND","ND","0","0"],
    [78195,"2019-04-07T22:00:00","27.6","ND","ND","ND","3.8","1.3","ND","ND","ND","ND","0","0"],
    [78196,"2019-04-07T23:00:00","23.9","ND","ND","ND","3.9","0.7","ND","ND","ND","ND","0","0"],
    [78197,"2019-04-08T00:00:00","21.1","ND","ND","ND","3.7","1.6","ND","ND","ND","ND","0","0"],
    [78198,"2019-04-08T01:00:00","19.2","ND","ND","ND","3.8","1.5","ND","ND","ND","ND","0","0"],
    [78199,"2019-04-08T02:00:00","0.1","ND","ND","ND","3.7","1.1","ND","ND","ND","ND","0","0.1"],
    [78200,"2019-04-08T03:00:00","21.2","ND","ND","ND","3.6","1.7","ND","ND","ND","ND","0","0"],
    [78201,"2019-04-08T04:00:00","34.8","ND","ND","ND","3.6","2.2","ND","ND","ND","ND","0","0"],
    [78202,"2019-04-08T05:00:00","31.9","ND","ND","ND","3.5","1.9","ND","ND","ND","ND","0","0"],
    [78203,"2019-04-08T06:00:00","41.7","ND","ND","ND","3.3","1.3","ND","ND","ND","ND","0","0"],
    [78204,"2019-04-08T07:00:00","54.8","ND","ND","ND","3.9","2","ND","ND","ND","ND","0","0"],
    [78205,"2019-04-08T08:00:00","70","ND","ND","ND","3.9","2.1","ND","ND","ND","ND","42","0"],
    [78206,"2019-04-08T09:00:00","79.6","ND","ND","ND","4.7","2.3","ND","ND","ND","ND","283","0"],
    [78207,"2019-04-08T10:00:00","89","ND","ND","ND","11.2","2","ND","ND","ND","ND","594","0"],
    [78208,"2019-04-08T11:00:00","71.9","ND","ND","ND","47.7","1.7","ND","ND","ND","ND","660","0.2"],
    [78209,"2019-04-08T12:00:00","40.1","ND","ND","ND","ND","1.4","ND","ND","ND","ND","650","0.1"],
    [78210,"2019-04-08T13:00:00","56.4","ND","ND","ND","ND","3.9","ND","ND","ND","ND","659","0"],
    [78211,"2019-04-08T14:00:00","56.8","ND","ND","ND","62.2","2.8","ND","ND","ND","ND","665","0"],
    [78212,"2019-04-08T15:00:00","20.4","ND","ND","ND","40.6","2","ND","ND","ND","ND","642","0"],
    [78213,"2019-04-08T16:00:00","ND","ND","ND","ND","35.8","1.6","ND","ND","ND","ND","665","0"],
    [78214,"2019-04-08T17:00:00","ND","ND","ND","ND","31.4","1.1","ND","ND","ND","ND","665","0"],
    [78215,"2019-04-08T18:00:00","1.9","ND","ND","ND","26.7","1.2","ND","ND","ND","ND","661","0"],
    [78216,"2019-04-08T19:00:00","8.1","ND","ND","ND","14.5","1.7","ND","ND","ND","ND","0","0"],
    [78217,"2019-04-08T20:00:00","41.6","ND","ND","ND","7.1","1.6","ND","ND","ND","ND","0","0"],
    [78218,"2019-04-08T21:00:00","34.6","ND","ND","ND","20.6","1.4","ND","ND","ND","ND","0","0"],
    [78219,"2019-04-08T22:00:00","48.7","ND","ND","ND","17.3","0.9","ND","ND","ND","ND","0","0"],
    [78220,"2019-04-08T23:00:00","39.8","ND","ND","ND","8.2","1.4","ND","ND","ND","ND","0","0"],
    [78221,"2019-04-09T00:00:00","51.5","ND","ND","ND","5","2.2","ND","ND","ND","ND","0","0"],
    [78222,"2019-04-09T01:00:00","75.2","ND","ND","ND","7.7","2","ND","ND","ND","ND","0","0"],
    [78223,"2019-04-09T02:00:00","48.4","ND","ND","ND","12.3","1.6","ND","ND","ND","ND","0","0"],
    [78224,"2019-04-09T03:00:00","25.3","ND","ND","ND","12.8","0.8","ND","ND","ND","ND","0","0"],
    [78225,"2019-04-09T04:00:00","3.5","ND","ND","ND","8.1","1","ND","ND","ND","ND","0","0"],
    [78226,"2019-04-09T05:00:00","55.2","ND","ND","ND","7","1.4","ND","ND","ND","ND","0","0"],
    [78227,"2019-04-09T06:00:00","15.2","ND","ND","ND","13.9","0.8","ND","ND","ND","ND","0","0"],
    [78228,"2019-04-09T07:00:00","4.7","ND","ND","ND","6.6","0.6","ND","ND","ND","ND","0","0"],
    [78229,"2019-04-09T08:00:00","43","ND","ND","ND","5.1","1.1","ND","ND","ND","ND","116","0"],
    [78230,"2019-04-09T09:00:00","47.3","ND","ND","ND","22.6","1.6","ND","ND","ND","ND","599","0"],
    [78231,"2019-04-09T10:00:00","39","ND","ND","ND","40.7","1.2","ND","ND","ND","ND","664","0"],
    [78232,"2019-04-09T11:00:00","68.6","ND","ND","ND","51.9","1.6","ND","ND","ND","ND","664","0"],
    [78233,"2019-04-09T12:00:00","14.4","ND","ND","ND","72.3","1","ND","ND","ND","ND","664","0"],
    [78234,"2019-04-09T13:00:00","12.3","ND","ND","ND","70.6","1.3","ND","ND","ND","ND","646","0"],
    [78235,"2019-04-09T14:00:00","33","ND","ND","ND","30.4","1.3","ND","ND","ND","ND","614","0"],
    [78236,"2019-04-09T15:00:00","15.4","ND","ND","ND","36.7","0.8","ND","ND","ND","ND","541","0"],
    [78237,"2019-04-09T16:00:00","4.1","ND","ND","ND","35.9","1.2","ND","ND","ND","ND","665","0"],
    [78238,"2019-04-09T17:00:00","14","ND","ND","ND","30.1","0.8","ND","ND","ND","ND","665","0"],
    [78239,"2019-04-09T18:00:00","1","ND","ND","ND","24.6","1.5","ND","ND","ND","ND","522","0"],
    [78240,"2019-04-09T19:00:00","21.2","ND","ND","ND","13.5","1","ND","ND","ND","ND","0","0"],
    [78241,"2019-04-09T20:00:00","31.8","ND","ND","ND","10.1","1.2","ND","ND","ND","ND","0","0.3"],
    [78242,"2019-04-09T21:00:00","37","ND","ND","ND","10.2","1.4","ND","ND","ND","ND","0","0"],
    [78243,"2019-04-09T22:00:00","43.1","ND","ND","ND","10.2","1","ND","ND","ND","ND","0","0"],
    [78244,"2019-04-09T23:00:00","28.5","ND","ND","ND","7.5","1.5","ND","ND","ND","ND","0","0"],
    [78245,"2019-04-10T00:00:00","14.1","ND","ND","ND","4.7","1.2","ND","ND","ND","ND","0","0"],
    [78246,"2019-04-10T01:00:00","3.3","ND","ND","ND","3.6","1.1","ND","ND","ND","ND","0","0"],
    [78247,"2019-04-10T02:00:00","37.1","ND","ND","ND","2.9","3.7","ND","ND","ND","ND","0","0"],
    [78248,"2019-04-10T03:00:00","53.2","ND","ND","ND","4.1","4.4","ND","ND","ND","ND","0","0"],
    [78249,"2019-04-10T04:00:00","15.1","ND","ND","ND","4.2","3.2","ND","ND","ND","ND","0","0"],
    [78250,"2019-04-10T05:00:00","26","ND","ND","ND","3.4","2.5","ND","ND","ND","ND","0","4.5"],
    [78251,"2019-04-10T06:00:00","60.1","ND","ND","ND","3","2.2","ND","ND","ND","ND","0","6.3"],
    [78252,"2019-04-10T07:00:00","60.9","ND","ND","ND","3","2.5","ND","ND","ND","ND","0","0"],
    [78253,"2019-04-10T08:00:00","111.6","ND","ND","ND","4.7","4","ND","ND","ND","ND","57","0"],
    [78254,"2019-04-10T09:00:00","58.5","ND","ND","ND","11.9","3.9","ND","ND","ND","ND","444","0"],
    [78255,"2019-04-10T10:00:00","50.2","ND","ND","ND","23.1","1.7","ND","ND","ND","ND","559","0"],
    [78256,"2019-04-10T11:00:00","54","ND","ND","ND","46.6","1.5","ND","ND","ND","ND","555","0"],
    [78257,"2019-04-10T12:00:00","42.6","ND","ND","ND","81.5","1.6","ND","ND","ND","ND","664","0"],
    [78258,"2019-04-10T13:00:00","23.9","ND","ND","ND","85.3","0.9","ND","ND","ND","ND","543","0"],
    [78259,"2019-04-10T14:00:00","50","ND","ND","ND","54.2","1.3","ND","ND","ND","ND","583","0"],
    [78260,"2019-04-10T15:00:00","40.8","ND","ND","ND","19","1.2","ND","ND","ND","ND","644","0"],
    [78261,"2019-04-10T16:00:00","8.7","ND","ND","ND","14.4","1.1","ND","ND","ND","ND","200","0"],
    [78262,"2019-04-10T17:00:00","4.2","ND","ND","ND","6.8","1.1","ND","ND","ND","ND","184","0"],
    [78263,"2019-04-10T18:00:00","12.9","ND","ND","ND","1.7","1.4","ND","ND","ND","ND","185","0"],
    [78264,"2019-04-10T19:00:00","15","ND","ND","ND","3.3","1.1","ND","ND","ND","ND","0","0"],
    [78265,"2019-04-10T20:00:00","37.3","ND","ND","ND","1.4","1.1","ND","ND","ND","ND","0","0"],
    [78266,"2019-04-10T21:00:00","48.4","ND","ND","ND","1.3","1.2","ND","ND","ND","ND","0","0"],
    [78267,"2019-04-10T22:00:00","62.1","ND","ND","ND","1.3","1.5","ND","ND","ND","ND","0","0"],
    [78268,"2019-04-10T23:00:00","36.7","ND","ND","ND","1.4","2.8","ND","ND","ND","ND","0","0"],
    [78269,"2019-04-11T00:00:00","33","ND","ND","ND","1.5","3.4","ND","ND","ND","ND","0","0"],
    [78270,"2019-04-11T01:00:00","44.2","ND","ND","ND","1.2","3.7","ND","ND","ND","ND","0","0"],
    [78271,"2019-04-11T02:00:00","19.5","ND","ND","ND","1.3","2.9","ND","ND","ND","ND","0","0"],
    [78272,"2019-04-11T03:00:00","32","ND","ND","ND","1.5","2.6","ND","ND","ND","ND","0","0.2"],
    [78273,"2019-04-11T04:00:00","45.2","ND","ND","ND","2.1","1.6","ND","ND","ND","ND","0","0.7"],
    [78274,"2019-04-11T05:00:00","37.7","ND","ND","ND","2.4","1.9","ND","ND","ND","ND","0","0.4"],
    [78275,"2019-04-11T06:00:00","28.8","ND","ND","ND","2","1.6","ND","ND","ND","ND","0","1.1"],
    [78276,"2019-04-11T07:00:00","39.9","ND","ND","ND","1.3","2.1","ND","ND","ND","ND","0","1"],
    [78277,"2019-04-11T08:00:00","53.5","ND","ND","ND","2.5","1.6","ND","ND","ND","ND","41","0.1"],
    [78278,"2019-04-11T09:00:00","89.1","ND","ND","ND","11.8","1.6","ND","ND","ND","ND","497","0.3"],
    [78279,"2019-04-11T10:00:00","50.8","ND","ND","ND","25.1","0.6","ND","ND","ND","ND","595","0.2"],
    [78280,"2019-04-11T11:00:00","29.4","ND","ND","ND","34.9","1.4","ND","ND","ND","ND","546","0"],
    [78281,"2019-04-11T12:00:00","34.1","ND","ND","ND","46.7","1.3","ND","ND","ND","ND","633","0"],
    [78282,"2019-04-11T13:00:00","45.4","ND","ND","ND","69.8","1.3","ND","ND","ND","ND","654","0"],
    [78283,"2019-04-11T14:00:00","22.8","ND","ND","ND","86.6","0.8","ND","ND","ND","ND","658","0"],
    [78284,"2019-04-11T15:00:00","32.6","ND","ND","ND","64.8","1.4","ND","ND","ND","ND","654","3.6"],
    [78285,"2019-04-11T16:00:00","14.9","ND","ND","ND","67.8","1","ND","ND","ND","ND","596","1.2"],
    [78286,"2019-04-11T17:00:00","22.5","ND","ND","ND","59.8","0.7","ND","ND","ND","ND","573","0.6"],
    [78287,"2019-04-11T18:00:00","23.2","ND","ND","ND","30.9","1.2","ND","ND","ND","ND","519","0.8"],
    [78288,"2019-04-11T19:00:00","9.1","ND","ND","ND","18","0.7","ND","ND","ND","ND","0","0"],
    [78289,"2019-04-11T20:00:00","44.1","ND","ND","ND","7.3","0.9","ND","ND","ND","ND","0","0"],
    [78290,"2019-04-11T21:00:00","29.1","ND","ND","ND","2","0.7","ND","ND","ND","ND","0","0"],
    [78291,"2019-04-11T22:00:00","16.2","ND","ND","ND","2.4","2","ND","ND","ND","ND","0","0.9"],
    [78292,"2019-04-11T23:00:00","3.1","ND","ND","ND","2.4","1.4","ND","ND","ND","ND","0","0.1"],
    [78293,"2019-04-12T00:00:00","16","ND","ND","ND","15.2","1.4","ND","ND","ND","ND","0","0.1"],
    [78294,"2019-04-12T01:00:00","55.6","ND","ND","ND","9.3","1.6","ND","ND","ND","ND","0","0"],
    [78295,"2019-04-12T02:00:00","20.1","ND","ND","ND","24.7","1.4","ND","ND","ND","ND","0","0"],
    [78296,"2019-04-12T03:00:00","ND","ND","ND","ND","21.8","1.7","ND","ND","ND","ND","0","0"],
    [78297,"2019-04-12T04:00:00","ND","ND","ND","ND","16.6","1.7","ND","ND","ND","ND","0","0"],
    [78298,"2019-04-12T05:00:00","1","ND","ND","ND","3.7","1.9","ND","ND","ND","ND","0","0"],
    [78299,"2019-04-12T06:00:00","24.5","ND","ND","ND","1.4","3.6","ND","ND","ND","ND","0","0"],
    [78300,"2019-04-12T07:00:00","29.9","ND","ND","ND","1.5","2.4","ND","ND","ND","ND","0","0"],
    [78301,"2019-04-12T08:00:00","60.6","ND","ND","ND","3.1","1.9","ND","ND","ND","ND","86","0"],
    [78302,"2019-04-12T09:00:00","92.9","ND","ND","ND","16.3","1","ND","ND","ND","ND","563","0"],
    [78303,"2019-04-12T10:00:00","43","ND","ND","ND","35.9","1.2","ND","ND","ND","ND","663","0"],
    [78304,"2019-04-12T11:00:00","55.3","ND","ND","ND","54.8","1.1","ND","ND","ND","ND","664","0"],
    [78305,"2019-04-12T12:00:00","45.3","ND","ND","ND","76.7","0.9","ND","ND","ND","ND","664","0"],
    [78306,"2019-04-12T13:00:00","47.3","ND","ND","ND","82.3","1.3","ND","ND","ND","ND","664","0"],
    [78307,"2019-04-12T14:00:00","36.8","ND","ND","ND","86","1.1","ND","ND","ND","ND","664","0"],
    [78308,"2019-04-12T15:00:00","54.7","ND","ND","ND","63.1","1.1","ND","ND","ND","ND","665","ND"],
    [78309,"2019-04-12T16:00:00","47.1","ND","ND","ND","48.6","1.3","ND","ND","ND","ND","665","0"],
    [78310,"2019-04-12T17:00:00","20.6","ND","ND","ND","36.9","0.8","ND","ND","ND","ND","665","0"],
    [78311,"2019-04-12T18:00:00","10.9","ND","ND","ND","28.9","1","ND","ND","ND","ND","655","0"],
    [78312,"2019-04-12T19:00:00","1","ND","ND","ND","12.4","0.6","ND","ND","ND","ND","0","0"],
    [78313,"2019-04-12T20:00:00","30.3","ND","ND","ND","4.3","1.1","ND","ND","ND","ND","0","0"],
    [78314,"2019-04-12T21:00:00","33.6","ND","ND","ND","2.6","1.4","ND","ND","ND","ND","0","0.2"],
    [78315,"2019-04-12T22:00:00","26.7","ND","ND","ND","1.4","1.6","ND","ND","ND","ND","0","0"],
    [78316,"2019-04-12T23:00:00","50.4","ND","ND","ND","1.4","0.9","ND","ND","ND","ND","0","0"],
    [78317,"2019-04-13T00:00:00","25.8","ND","ND","ND","3.3","1.4","ND","ND","ND","ND","0","0"],
    [78318,"2019-04-13T01:00:00","9.3","ND","ND","ND","5","0.9","ND","ND","ND","ND","0","ND"],
    [78319,"2019-04-13T02:00:00","41.3","ND","ND","ND","6.9","1.1","ND","ND","ND","ND","0","0"],
    [78320,"2019-04-13T03:00:00","54.5","ND","ND","ND","1.7","2.6","ND","ND","ND","ND","0","ND"],
    [78321,"2019-04-13T04:00:00","67.4","ND","ND","ND","1.7","2.5","ND","ND","ND","ND","0","0"],
    [78322,"2019-04-13T05:00:00","112.8","ND","ND","ND","1.6","1.9","ND","ND","ND","ND","0","0"],
    [78323,"2019-04-13T06:00:00","83.2","ND","ND","ND","1.3","1.7","ND","ND","ND","ND","0","0"],
    [78324,"2019-04-13T07:00:00","34.6","ND","ND","ND","2.1","1.1","ND","ND","ND","ND","0","0"],
    [78325,"2019-04-13T08:00:00","52.9","ND","ND","ND","4.3","1.7","ND","ND","ND","ND","94","0"],
    [78326,"2019-04-13T09:00:00","61.6","ND","ND","ND","13.1","1.6","ND","ND","ND","ND","399","ND"],
    [78327,"2019-04-13T10:00:00","39.5","ND","ND","ND","32","1.3","ND","ND","ND","ND","600","0"],
    [78328,"2019-04-13T11:00:00","46.3","ND","ND","ND","50.1","1.6","ND","ND","ND","ND","663","0"],
    [78329,"2019-04-13T12:00:00","39.1","ND","ND","ND","70.3","1.4","ND","ND","ND","ND","664","0"],
    [78330,"2019-04-13T13:00:00","18.5","ND","ND","ND","67.8","1.1","ND","ND","ND","ND","664","0"],
    [78331,"2019-04-13T14:00:00","27","ND","ND","ND","84.7","1","ND","ND","ND","ND","642","ND"],
    [78332,"2019-04-13T15:00:00","54","ND","ND","ND","55.6","1","ND","ND","ND","ND","664","0"],
    [78333,"2019-04-13T16:00:00","15.3","ND","ND","ND","31.8","1","ND","ND","ND","ND","596","0"],
    [78334,"2019-04-13T17:00:00","4.7","ND","ND","ND","29.1","0.9","ND","ND","ND","ND","360","0"],
    [78335,"2019-04-13T18:00:00","7.9","ND","ND","ND","23.3","0.6","ND","ND","ND","ND","193","0"],
    [78336,"2019-04-13T19:00:00","10.5","ND","ND","ND","21.1","0.9","ND","ND","ND","ND","0","0.3"],
    [78337,"2019-04-13T20:00:00","19.9","ND","ND","ND","9.4","1.3","ND","ND","ND","ND","0","0.3"],
    [78338,"2019-04-13T21:00:00","34.4","ND","ND","ND","3.9","2.1","ND","ND","ND","ND","0","ND"],
    [78339,"2019-04-13T22:00:00","41.9","ND","ND","ND","4.8","1.1","ND","ND","ND","ND","0","0"],
    [78340,"2019-04-13T23:00:00","42.7","ND","ND","ND","1.9","1","ND","ND","ND","ND","0","0"],
    [78341,"2019-04-14T00:00:00","43.2","ND","ND","ND","1.9","2.1","ND","ND","ND","ND","0","0"],
    [78342,"2019-04-14T01:00:00","48.1","ND","ND","ND","2.9","2.3","ND","ND","ND","ND","0","0"],
    [78343,"2019-04-14T02:00:00","33.3","ND","ND","ND","5.1","2.5","ND","ND","ND","ND","0","0"],
    [78344,"2019-04-14T03:00:00","18.1","ND","ND","ND","4.6","1.7","ND","ND","ND","ND","0","0"],
    [78345,"2019-04-14T04:00:00","16.8","ND","ND","ND","4.8","1.8","ND","ND","ND","ND","0","0"],
    [78346,"2019-04-14T05:00:00","34.7","ND","ND","ND","8.1","1.3","ND","ND","ND","ND","0","0"],
    [78347,"2019-04-14T06:00:00","20.1","ND","ND","ND","3.6","1.4","ND","ND","ND","ND","0","0"],
    [78348,"2019-04-14T07:00:00","37.6","ND","ND","ND","5.5","1.1","ND","ND","ND","ND","0","0"],
    [78349,"2019-04-14T08:00:00","42.5","ND","ND","ND","6.6","1.3","ND","ND","ND","ND","170","0"],
    [78350,"2019-04-14T09:00:00","47.2","ND","ND","ND","19.8","1.3","ND","ND","ND","ND","517","0"],
    [78351,"2019-04-14T10:00:00","49.2","ND","ND","ND","43.7","1.4","ND","ND","ND","ND","663","ND"],
    [78352,"2019-04-14T11:00:00","35.4","ND","ND","ND","59.6","1.3","ND","ND","ND","ND","664","0"],
    [78353,"2019-04-14T12:00:00","26.9","ND","ND","ND","77.9","0.9","ND","ND","ND","ND","664","0"],
    [78354,"2019-04-14T13:00:00","27.2","ND","ND","ND","78.1","1.1","ND","ND","ND","ND","664","0"],
    [78355,"2019-04-14T14:00:00","44","ND","ND","ND","40.3","1.1","ND","ND","ND","ND","664","0"],
    [78356,"2019-04-14T15:00:00","7.3","ND","ND","ND","35.8","0.9","ND","ND","ND","ND","664","0"],
    [78357,"2019-04-14T16:00:00","ND","ND","ND","ND","37.5","0.6","ND","ND","ND","ND","664","1.1"],
    [78358,"2019-04-14T17:00:00","ND","ND","ND","ND","34.6","0.8","ND","ND","ND","ND","647","0"],
    [78359,"2019-04-14T18:00:00","ND","ND","ND","ND","30.1","0.8","ND","ND","ND","ND","553","0"],
    [78360,"2019-04-14T19:00:00","ND","ND","ND","ND","23.6","0.7","ND","ND","ND","ND","0","0.1"],
    [78361,"2019-04-14T20:00:00","6.8","ND","ND","ND","15","0.6","ND","ND","ND","ND","0","0.2"],
    [78362,"2019-04-14T21:00:00","1.3","ND","ND","ND","11.4","1.3","ND","ND","ND","ND","0","0"],
    [78363,"2019-04-14T22:00:00","13.1","ND","ND","ND","15.1","1.2","ND","ND","ND","ND","0","0"],
    [78364,"2019-04-14T23:00:00","13.5","ND","ND","ND","19.7","1.3","ND","ND","ND","ND","0","0"],
    [78365,"2019-04-15T00:00:00","42.7","ND","ND","ND","14.6","1.4","ND","ND","ND","ND","0","0"],
    [78366,"2019-04-15T01:00:00","20.6","ND","ND","ND","14.4","1.6","ND","ND","ND","ND","0","ND"],
    [78367,"2019-04-15T02:00:00","1.5","ND","ND","ND","16.4","1","ND","ND","ND","ND","0","0"],
    [78368,"2019-04-15T03:00:00","1.6","ND","ND","ND","11.1","1.5","ND","ND","ND","ND","0","0"],
    [78369,"2019-04-15T04:00:00","0.4","ND","ND","ND","5.7","2.2","ND","ND","ND","ND","0","0"],
    [78370,"2019-04-15T05:00:00","1.6","ND","ND","ND","5","1.6","ND","ND","ND","ND","0","ND"],
    [78371,"2019-04-15T06:00:00","5.9","ND","ND","ND","1.8","2.6","ND","ND","ND","ND","0","0"],
    [78372,"2019-04-15T07:00:00","21.4","ND","ND","ND","1.5","1.2","ND","ND","ND","ND","0","0"],
    [78373,"2019-04-15T08:00:00","16","ND","ND","ND","1.8","1","ND","ND","ND","ND","33","0"],
    [78374,"2019-04-15T09:00:00","24.3","ND","ND","ND","3.9","1.2","ND","ND","ND","ND","144","0.1"],
    [78375,"2019-04-15T10:00:00","37","ND","ND","ND","8.9","0.8","ND","ND","ND","ND","383","0"],
    [78376,"2019-04-15T11:00:00","30.8","ND","ND","ND","15","1","ND","ND","ND","ND","633","0"],
    [78377,"2019-04-15T12:00:00","15.7","ND","ND","ND","23.9","1.1","ND","ND","ND","ND","660","0"],
    [78378,"2019-04-15T13:00:00","25.7","ND","ND","ND","33.2","0.5","ND","ND","ND","ND","663","0"],
    [78379,"2019-04-15T14:00:00","38.1","ND","ND","ND","34.5","0.9","ND","ND","ND","ND","662","0"],
    [78380,"2019-04-15T15:00:00","45.2","ND","ND","ND","39.2","0.8","ND","ND","ND","ND","663","0"],
    [78381,"2019-04-15T16:00:00","34.7","ND","ND","ND","24.4","2.2","ND","ND","ND","ND","490","0"],
    [78382,"2019-04-15T17:00:00","38","ND","ND","ND","33.5","2.1","ND","ND","ND","ND","533","0"],
    [78383,"2019-04-15T18:00:00","42","ND","ND","ND","21.1","1","ND","ND","ND","ND","471","0"],
    [78384,"2019-04-15T19:00:00","60.9","ND","ND","ND","7.3","1.2","ND","ND","ND","ND","0","0.2"],
    [78385,"2019-04-15T20:00:00","19.6","ND","ND","ND","3.8","0.8","ND","ND","ND","ND","0","0"],
    [78386,"2019-04-15T21:00:00","37.2","ND","ND","ND","1.6","1.1","ND","ND","ND","ND","0","ND"],
    [78387,"2019-04-15T22:00:00","52.2","ND","ND","ND","1.6","1.3","ND","ND","ND","ND","0","0"],
    [78388,"2019-04-15T23:00:00","51.7","ND","ND","ND","1.4","1.2","ND","ND","ND","ND","0","ND"],
    [78389,"2019-04-16T00:00:00","87.6","ND","ND","ND","1.4","1.4","ND","ND","ND","ND","0","0"],
    [78390,"2019-04-16T01:00:00","79.5","ND","ND","ND","1.6","1.3","ND","ND","ND","ND","0","0"],
    [78391,"2019-04-16T02:00:00","93.3","ND","ND","ND","1.6","1.8","ND","ND","ND","ND","0","0"],
    [78392,"2019-04-16T03:00:00","44.3","ND","ND","ND","1.6","3.7","ND","ND","ND","ND","0","0"],
    [78393,"2019-04-16T04:00:00","28.9","ND","ND","ND","1.6","3.1","ND","ND","ND","ND","0","0"],
    [78394,"2019-04-16T05:00:00","71.5","ND","ND","ND","1.6","3.4","ND","ND","ND","ND","0","0"],
    [78395,"2019-04-16T06:00:00","83.7","ND","ND","ND","1.6","3.7","ND","ND","ND","ND","0","0"],
    [78396,"2019-04-16T07:00:00","52.9","ND","ND","ND","1.7","3.7","ND","ND","ND","ND","0","0"],
    [78397,"2019-04-16T08:00:00","92.1","ND","ND","ND","1.7","5","ND","ND","ND","ND","91","0"],
    [78398,"2019-04-16T09:00:00","169.9","ND","ND","ND","2.5","3.3","ND","ND","ND","ND","543","0"],
    [78399,"2019-04-16T10:00:00","71.4","ND","ND","ND","13.9","1.7","ND","ND","ND","ND","661","0"],
    [78400,"2019-04-16T11:00:00","35","ND","ND","ND","41.5","1.7","ND","ND","ND","ND","650","0"],
    [78401,"2019-04-16T12:00:00","6.4","ND","ND","ND","66.7","1.6","ND","ND","ND","ND","664","0"],
    [78402,"2019-04-16T13:00:00","ND","ND","ND","ND","72.6","1.2","ND","ND","ND","ND","664","0"],
    [78403,"2019-04-16T14:00:00","22.7","ND","ND","ND","90.3","1.2","ND","ND","ND","ND","664","0"],
    [78404,"2019-04-16T15:00:00","17.5","ND","ND","ND","84.7","1.6","ND","ND","ND","ND","663","0"],
    [78405,"2019-04-16T16:00:00","17.8","ND","ND","ND","49.9","1.5","ND","ND","ND","ND","647","0"],
    [78406,"2019-04-16T17:00:00","6.5","ND","ND","ND","36.7","0.9","ND","ND","ND","ND","574","0"],
    [78407,"2019-04-16T18:00:00","30.8","ND","ND","ND","32.2","1.3","ND","ND","ND","ND","643","0"],
    [78408,"2019-04-16T19:00:00","18.7","ND","ND","ND","24","0.7","ND","ND","ND","ND","0","0"],
    [78409,"2019-04-16T20:00:00","1.7","ND","ND","ND","13.8","1.3","ND","ND","ND","ND","0","1.3"],
    [78410,"2019-04-16T21:00:00","19.5","ND","ND","ND","3.8","0.8","ND","ND","ND","ND","0","1.9"],
    [78411,"2019-04-16T22:00:00","35.1","ND","ND","ND","3.8","1.1","ND","ND","ND","ND","0","2.1"],
    [78412,"2019-04-16T23:00:00","57.4","ND","ND","ND","1.4","1.2","ND","ND","ND","ND","0","0"],
    [78413,"2019-04-17T00:00:00","25","ND","ND","ND","1.4","1.2","ND","ND","ND","ND","0","0"],
    [78414,"2019-04-17T01:00:00","60","ND","ND","ND","6.1","1.1","ND","ND","ND","ND","0","0"],
    [78415,"2019-04-17T02:00:00","19.4","ND","ND","ND","14.5","1.2","ND","ND","ND","ND","0","0"],
    [78416,"2019-04-17T03:00:00","ND","ND","ND","ND","14.9","1.1","ND","ND","ND","ND","0","9.4"],
    [78417,"2019-04-17T04:00:00","ND","ND","ND","ND","11.1","1.3","ND","ND","ND","ND","0","16.2"],
    [78418,"2019-04-17T05:00:00","17.2","ND","ND","ND","6.8","0.8","ND","ND","ND","ND","0","0.5"],
    [78419,"2019-04-17T06:00:00","13.5","ND","ND","ND","1.6","1.1","ND","ND","ND","ND","0","0.1"],
    [78420,"2019-04-17T07:00:00","30.6","ND","ND","ND","1.5","1.4","ND","ND","ND","ND","0","0"],
    [78421,"2019-04-17T08:00:00","19.2","ND","ND","ND","1.5","1.7","ND","ND","ND","ND","32","0"],
    [78422,"2019-04-17T09:00:00","35.6","ND","ND","ND","1.6","2.5","ND","ND","ND","ND","174","0"],
    [78423,"2019-04-17T10:00:00","40.3","ND","ND","ND","1.6","1.9","ND","ND","ND","ND","179","0.1"],
    [78424,"2019-04-17T11:00:00","49.9","ND","ND","ND","4.3","2.7","ND","ND","ND","ND","459","0"],
    [78425,"2019-04-17T12:00:00","67.7","ND","ND","ND","10.3","2.5","ND","ND","ND","ND","661","0"],
    [78426,"2019-04-17T13:00:00","24.9","ND","ND","ND","19.1","2.2","ND","ND","ND","ND","663","0"],
    [78427,"2019-04-17T14:00:00","22.9","ND","ND","ND","26.2","1.6","ND","ND","ND","ND","663","0"],
    [78428,"2019-04-17T15:00:00","19.9","ND","ND","ND","29.8","1.4","ND","ND","ND","ND","663","0"],
    [78429,"2019-04-17T16:00:00","10","ND","ND","ND","28.3","1","ND","ND","ND","ND","664","0"],
    [78430,"2019-04-17T17:00:00","0.1","ND","ND","ND","19.9","1.4","ND","ND","ND","ND","662","0.1"],
    [78431,"2019-04-17T18:00:00","19.3","ND","ND","ND","17.7","1.2","ND","ND","ND","ND","608","0.1"],
    [78432,"2019-04-17T19:00:00","3.6","ND","ND","ND","2.2","0.6","ND","ND","ND","ND","0","0.1"],
    [78433,"2019-04-17T20:00:00","25.4","ND","ND","ND","2","0.9","ND","ND","ND","ND","0","0"],
    [78434,"2019-04-17T21:00:00","47.7","ND","ND","ND","2","1.2","ND","ND","ND","ND","0","0"],
    [78435,"2019-04-17T22:00:00","47.1","ND","ND","ND","2.9","1.4","ND","ND","ND","ND","0","0.3"],
    [78436,"2019-04-17T23:00:00","39.8","ND","ND","ND","3.9","2.5","ND","ND","ND","ND","0","0.3"],
    [78437,"2019-04-18T00:00:00","68.6","ND","ND","ND","1.4","2.1","ND","ND","ND","ND","0","0.5"],
    [78438,"2019-04-18T01:00:00","70.4","ND","ND","ND","2","3.1","ND","ND","ND","ND","0","0"],
    [78439,"2019-04-18T02:00:00","33.9","ND","ND","ND","6.2","3.1","ND","ND","ND","ND","0","0"],
    [78440,"2019-04-18T03:00:00","4.4","ND","ND","ND","5.7","2.9","ND","ND","ND","ND","0","0"],
    [78441,"2019-04-18T04:00:00","7.4","ND","ND","ND","10.8","1.6","ND","ND","ND","ND","0","0"],
    [78442,"2019-04-18T05:00:00","0.2","ND","ND","ND","6.6","1.4","ND","ND","ND","ND","0","0"],
    [78443,"2019-04-18T06:00:00","ND","ND","ND","ND","5","1","ND","ND","ND","ND","0","0"],
    [78444,"2019-04-18T07:00:00","4.7","ND","ND","ND","3.6","0.9","ND","ND","ND","ND","0","0"],
    [78445,"2019-04-18T08:00:00","27.3","ND","ND","ND","3.6","1.5","ND","ND","ND","ND","51","0"],
    [78446,"2019-04-18T09:00:00","48.8","ND","ND","ND","11.4","1.5","ND","ND","ND","ND","273","0.3"],
    [78447,"2019-04-18T10:00:00","55.4","ND","ND","ND","19.2","1.4","ND","ND","ND","ND","649","ND"],
    [78448,"2019-04-18T11:00:00","31","ND","ND","ND","32.1","1.2","ND","ND","ND","ND","662","ND"],
    [78449,"2019-04-18T12:00:00","23.2","ND","ND","ND","50.5","1.6","ND","ND","ND","ND","663","0.5"],
    [78450,"2019-04-18T13:00:00","20.9","ND","ND","ND","70.4","1.1","ND","ND","ND","ND","663","0"],
    [78451,"2019-04-18T14:00:00","32.2","ND","ND","ND","77.7","0.9","ND","ND","ND","ND","663","0"],
    [78452,"2019-04-18T15:00:00","55.7","ND","ND","ND","72","1.3","ND","ND","ND","ND","664","0"],
    [78453,"2019-04-18T16:00:00","40.3","ND","ND","ND","63.6","1.2","ND","ND","ND","ND","655","0"],
    [78454,"2019-04-18T17:00:00","12.1","ND","ND","ND","35.8","1.3","ND","ND","ND","ND","308","0"],
    [78455,"2019-04-18T18:00:00","15.9","ND","ND","ND","24.9","1.2","ND","ND","ND","ND","333","0.1"],
    [78456,"2019-04-18T19:00:00","6.9","ND","ND","ND","7.8","0.9","ND","ND","ND","ND","0","0"],
    [78457,"2019-04-18T20:00:00","25.9","ND","ND","ND","2.5","0.7","ND","ND","ND","ND","0","0"],
    [78458,"2019-04-18T21:00:00","49.4","ND","ND","ND","2.2","1.1","ND","ND","ND","ND","0","0.2"],
    [78459,"2019-04-18T22:00:00","31.4","ND","ND","ND","1.4","1.4","ND","ND","ND","ND","0","0"],
    [78460,"2019-04-18T23:00:00","20.4","ND","ND","ND","1.4","2","ND","ND","ND","ND","0","0"],
    [78461,"2019-04-19T00:00:00","26.8","ND","ND","ND","1.2","1.4","ND","ND","ND","ND","0","0"],
    [78462,"2019-04-19T01:00:00","35.8","ND","ND","ND","1.4","1.3","ND","ND","ND","ND","0","0"],
    [78463,"2019-04-19T02:00:00","57.5","ND","ND","ND","1.5","1.5","ND","ND","ND","ND","0","0"],
    [78464,"2019-04-19T03:00:00","33","ND","ND","ND","2.1","1.5","ND","ND","ND","ND","0","0"],
    [78465,"2019-04-19T04:00:00","27","ND","ND","ND","4.2","1.8","ND","ND","ND","ND","0","0"],
    [78466,"2019-04-19T05:00:00","6.3","ND","ND","ND","1.8","2","ND","ND","ND","ND","0","0"],
    [78467,"2019-04-19T06:00:00","13.2","ND","ND","ND","2.3","1.3","ND","ND","ND","ND","0","0"],
    [78468,"2019-04-19T07:00:00","9","ND","ND","ND","2","2.5","ND","ND","ND","ND","0","0"],
    [78469,"2019-04-19T08:00:00","13.1","ND","ND","ND","1.9","1.2","ND","ND","ND","ND","23","0"],
    [78470,"2019-04-19T09:00:00","17.7","ND","ND","ND","2","2.1","ND","ND","ND","ND","81","0"],
    [78471,"2019-04-19T10:00:00","19.2","ND","ND","ND","3.5","1.6","ND","ND","ND","ND","164","0"],
    [78472,"2019-04-19T11:00:00","1.9","ND","ND","ND","10","0.5","ND","ND","ND","ND","163","0"],
    [78473,"2019-04-19T12:00:00","34.2","ND","ND","ND","17.3","0.8","ND","ND","ND","ND","510","0"],
    [78474,"2019-04-19T13:00:00","33.4","ND","ND","ND","26.8","0.9","ND","ND","ND","ND","663","0"],
    [78475,"2019-04-19T14:00:00","43.9","ND","ND","ND","42","0.7","ND","ND","ND","ND","663","0"],
    [78476,"2019-04-19T15:00:00","18.4","ND","ND","ND","47.8","0.9","ND","ND","ND","ND","663","0.6"],
    [78477,"2019-04-19T16:00:00","24.3","ND","ND","ND","42.2","1.2","ND","ND","ND","ND","663","0"],
    [78478,"2019-04-19T17:00:00","15.7","ND","ND","ND","24.9","1.4","ND","ND","ND","ND","576","0"],
    [78479,"2019-04-19T18:00:00","ND","ND","ND","ND","13.4","1.2","ND","ND","ND","ND","139","0.1"],
    [78480,"2019-04-19T19:00:00","17.2","ND","ND","ND","6.6","1.3","ND","ND","ND","ND","0","0"],
    [78481,"2019-04-19T20:00:00","14.5","ND","ND","ND","7.9","1","ND","ND","ND","ND","0","0"],
    [78482,"2019-04-19T21:00:00","1.3","ND","ND","ND","6.2","3.1","ND","ND","ND","ND","0","0"],
    [78483,"2019-04-19T22:00:00","16.6","ND","ND","ND","1.6","1.5","ND","ND","ND","ND","0","0"],
    [78484,"2019-04-19T23:00:00","28.4","ND","ND","ND","2.7","1.5","ND","ND","ND","ND","0","0"],
    [78485,"2019-04-20T00:00:00","34.7","ND","ND","ND","3.5","1.1","ND","ND","ND","ND","0","0"],
    [78486,"2019-04-20T01:00:00","23.2","ND","ND","ND","1.9","1.6","ND","ND","ND","ND","0","0"],
    [78487,"2019-04-20T02:00:00","19","ND","ND","ND","1.4","1","ND","ND","ND","ND","0","0"],
    [78488,"2019-04-20T03:00:00","5.6","ND","ND","ND","1.5","1.2","ND","ND","ND","ND","0","0"],
    [78489,"2019-04-20T04:00:00","10","ND","ND","ND","1.4","1.3","ND","ND","ND","ND","0","0"],
    [78490,"2019-04-20T05:00:00","4.1","ND","ND","ND","1.4","1.5","ND","ND","ND","ND","0","0"],
    [78491,"2019-04-20T06:00:00","25.5","ND","ND","ND","1.5","1.3","ND","ND","ND","ND","0","0"],
    [78492,"2019-04-20T07:00:00","4.7","ND","ND","ND","1.5","1.7","ND","ND","ND","ND","0","0"],
    [78493,"2019-04-20T08:00:00","43.5","ND","ND","ND","1.5","1.2","ND","ND","ND","ND","83","0"],
    [78494,"2019-04-20T09:00:00","55.7","ND","ND","ND","3.7","0.9","ND","ND","ND","ND","211","0"],
    [78495,"2019-04-20T10:00:00","57.9","ND","ND","ND","13.4","0.6","ND","ND","ND","ND","654","0"],
    [78496,"2019-04-20T11:00:00","36.8","ND","ND","ND","28.9","1.1","ND","ND","ND","ND","663","0"],
    [78497,"2019-04-20T12:00:00","21.8","ND","ND","ND","38.5","0.4","ND","ND","ND","ND","663","0"],
    [78498,"2019-04-20T13:00:00","37.6","ND","ND","ND","57.2","1","ND","ND","ND","ND","664","0"],
    [78499,"2019-04-20T14:00:00","41.6","ND","ND","ND","71.2","0.8","ND","ND","ND","ND","664","0"],
    [78500,"2019-04-20T15:00:00","18.8","ND","ND","ND","58.1","0.8","ND","ND","ND","ND","664","0"],
    [78501,"2019-04-20T16:00:00","21.6","ND","ND","ND","45.5","0.7","ND","ND","ND","ND","550","0"],
    [78502,"2019-04-20T17:00:00","3.6","ND","ND","ND","26.1","1","ND","ND","ND","ND","446","0"],
    [78503,"2019-04-20T18:00:00","1.6","ND","ND","ND","20.5","0.8","ND","ND","ND","ND","196","0"],
    [78504,"2019-04-20T19:00:00","17.6","ND","ND","ND","12.1","1.1","ND","ND","ND","ND","0","0"],
    [78505,"2019-04-20T20:00:00","40.9","ND","ND","ND","8.2","0.9","ND","ND","ND","ND","0","0"],
    [78506,"2019-04-20T21:00:00","16.2","ND","ND","ND","14.9","1.8","ND","ND","ND","ND","0","0"],
    [78507,"2019-04-20T22:00:00","5.4","ND","ND","ND","6.9","1.3","ND","ND","ND","ND","0","0"],
    [78508,"2019-04-20T23:00:00","10","ND","ND","ND","1.7","1.1","ND","ND","ND","ND","0","0"],
    [78509,"2019-04-21T00:00:00","4.1","ND","ND","ND","5.2","0.7","ND","ND","ND","ND","0","0"],
    [78510,"2019-04-21T01:00:00","2.4","ND","ND","ND","10.9","1","ND","ND","ND","ND","0","0"],
    [78511,"2019-04-21T02:00:00","ND","ND","ND","ND","11.4","0.4","ND","ND","ND","ND","0","0"],
    [78512,"2019-04-21T03:00:00","0.7","ND","ND","ND","11.2","0.7","ND","ND","ND","ND","0","0"],
    [78513,"2019-04-21T04:00:00","8.3","ND","ND","ND","9.4","0.6","ND","ND","ND","ND","0","0"],
    [78514,"2019-04-21T05:00:00","26.6","ND","ND","ND","8.6","1.2","ND","ND","ND","ND","0","0"],
    [78515,"2019-04-21T06:00:00","10.3","ND","ND","ND","13.5","0.8","ND","ND","ND","ND","0","0"],
    [78516,"2019-04-21T07:00:00","ND","ND","ND","ND","13.2","0.9","ND","ND","ND","ND","0","0"],
    [78517,"2019-04-21T08:00:00","4.3","ND","ND","ND","13.1","1","ND","ND","ND","ND","35","0"],
    [78518,"2019-04-21T09:00:00","35.6","ND","ND","ND","14.5","0.6","ND","ND","ND","ND","201","0"],
    [78519,"2019-04-21T10:00:00","49.9","ND","ND","ND","19","1.1","ND","ND","ND","ND","551","0"],
    [78520,"2019-04-21T11:00:00","37.8","ND","ND","ND","26.5","1","ND","ND","ND","ND","660","0"],
    [78521,"2019-04-21T12:00:00","10.6","ND","ND","ND","38.1","0.5","ND","ND","ND","ND","663","0"],
    [78522,"2019-04-21T13:00:00","16.4","ND","ND","ND","45.5","0.7","ND","ND","ND","ND","663","0"],
    [78523,"2019-04-21T14:00:00","12.2","ND","ND","ND","37.5","0.5","ND","ND","ND","ND","664","0"],
    [78524,"2019-04-21T15:00:00","5.2","ND","ND","ND","34.1","0.7","ND","ND","ND","ND","653","0"],
    [78525,"2019-04-21T16:00:00","2.3","ND","ND","ND","21.3","0.8","ND","ND","ND","ND","373","0"],
    [78526,"2019-04-21T17:00:00","ND","ND","ND","ND","10.6","0.5","ND","ND","ND","ND","284","0"],
    [78527,"2019-04-21T18:00:00","7.3","ND","ND","ND","6.6","0.6","ND","ND","ND","ND","284","0"],
    [78528,"2019-04-21T19:00:00","14.2","ND","ND","ND","1.9","0.7","ND","ND","ND","ND","0","0"],
    [78529,"2019-04-21T20:00:00","23.3","ND","ND","ND","5.5","0.7","ND","ND","ND","ND","0","0"],
    [78530,"2019-04-21T21:00:00","1.9","ND","ND","ND","6.1","0.8","ND","ND","ND","ND","0","0"],
    [78531,"2019-04-21T22:00:00","0.1","ND","ND","ND","2.6","0.6","ND","ND","ND","ND","0","0"],
    [78532,"2019-04-21T23:00:00","0.9","ND","ND","ND","6.8","0.8","ND","ND","ND","ND","0","0"],
    [78533,"2019-04-22T00:00:00","4.2","ND","ND","ND","7.1","1.3","ND","ND","ND","ND","0","0"],
    [78534,"2019-04-22T01:00:00","33.1","ND","ND","ND","4.1","1.7","ND","ND","ND","ND","0","0"],
    [78535,"2019-04-22T02:00:00","41.5","ND","ND","ND","1.4","4","ND","ND","ND","ND","0","0"],
    [78536,"2019-04-22T03:00:00","19.6","ND","ND","ND","3.8","2.2","ND","ND","ND","ND","0","0"],
    [78537,"2019-04-22T04:00:00","9.8","ND","ND","ND","7.8","1","ND","ND","ND","ND","0","0"],
    [78538,"2019-04-22T05:00:00","14.1","ND","ND","ND","2.3","1.6","ND","ND","ND","ND","0","0"],
    [78539,"2019-04-22T06:00:00","38.2","ND","ND","ND","1.5","2.3","ND","ND","ND","ND","0","0"],
    [78540,"2019-04-22T07:00:00","27.1","ND","ND","ND","1.6","3","ND","ND","ND","ND","0","0"],
    [78541,"2019-04-22T08:00:00","21.3","ND","ND","ND","1.7","1.4","ND","ND","ND","ND","26","0"],
    [78542,"2019-04-22T09:00:00","43.2","ND","ND","ND","1.7","1","ND","ND","ND","ND","163","0"],
    [78543,"2019-04-22T10:00:00","19.1","ND","ND","ND","4.2","1","ND","ND","ND","ND","405","0"],
    [78544,"2019-04-22T11:00:00","14.2","ND","ND","ND","11.6","0.7","ND","ND","ND","ND","663","0"],
    [78545,"2019-04-22T12:00:00","62.6","ND","ND","ND","23.6","1.5","ND","ND","ND","ND","642","0"],
    [78546,"2019-04-22T13:00:00","12.9","ND","ND","ND","30.2","0.9","ND","ND","ND","ND","578","0"],
    [78547,"2019-04-22T14:00:00","14.6","ND","ND","ND","36.4","1.3","ND","ND","ND","ND","630","0"],
    [78548,"2019-04-22T15:00:00","33","ND","ND","ND","22.7","0.7","ND","ND","ND","ND","663","5.3"],
    [78549,"2019-04-22T16:00:00","34.1","ND","ND","ND","15.5","1","ND","ND","ND","ND","664","2.1"],
    [78550,"2019-04-22T17:00:00","30.3","ND","ND","ND","ND","1.3","ND","ND","ND","ND","500","0.1"],
    [78551,"2019-04-22T18:00:00","61.2","ND","ND","ND","2.8","0.6","ND","ND","ND","ND","305","0"],
    [78552,"2019-04-22T19:00:00","11.3","ND","ND","ND","1.3","1.1","ND","ND","ND","ND","0","0"],
    [78553,"2019-04-22T20:00:00","3.2","ND","ND","ND","2.4","1.3","ND","ND","ND","ND","0","0"],
    [78554,"2019-04-22T21:00:00","3.8","ND","ND","ND","2.1","0.9","ND","ND","ND","ND","0","0"],
    [78555,"2019-04-22T22:00:00","8.1","ND","ND","ND","1.2","1.3","ND","ND","ND","ND","0","0.1"],
    [78556,"2019-04-22T23:00:00","24.7","ND","ND","ND","1.2","1.6","ND","ND","ND","ND","0","0"],
    [78557,"2019-04-23T00:00:00","28.3","ND","ND","ND","1.2","1.2","ND","ND","ND","ND","0","0"],
    [78558,"2019-04-23T01:00:00","19.9","ND","ND","ND","1.2","1.3","ND","ND","ND","ND","0","0"],
    [78559,"2019-04-23T02:00:00","18.8","ND","ND","ND","1.3","1.3","ND","ND","ND","ND","0","0"],
    [78560,"2019-04-23T03:00:00","8.2","ND","ND","ND","1.2","1.4","ND","ND","ND","ND","0","0"],
    [78561,"2019-04-23T04:00:00","6.1","ND","ND","ND","1.4","1.4","ND","ND","ND","ND","0","0.1"],
    [78562,"2019-04-23T05:00:00","23","ND","ND","ND","1.5","1.7","ND","ND","ND","ND","0","0"],
    [78563,"2019-04-23T06:00:00","41.1","ND","ND","ND","1.3","2.4","ND","ND","ND","ND","0","0"],
    [78564,"2019-04-23T07:00:00","21.9","ND","ND","ND","1.4","3.7","ND","ND","ND","ND","0","0"],
    [78565,"2019-04-23T08:00:00","21.5","ND","ND","ND","1.6","3.2","ND","ND","ND","ND","71","0"],
    [78566,"2019-04-23T09:00:00","33.2","ND","ND","ND","2.2","2.6","ND","ND","ND","ND","164","0"],
    [78567,"2019-04-23T10:00:00","85.1","ND","ND","ND","5.8","2.2","ND","ND","ND","ND","464","0"],
    [78568,"2019-04-23T11:00:00","55.3","ND","ND","ND","5.8","2.1","ND","ND","ND","ND","600","0"],
    [78569,"2019-04-23T12:00:00","33.6","ND","ND","ND","22.3","9.6","ND","ND","ND","ND","426","0"],
    [78570,"2019-04-23T13:00:00","ND","ND","ND","ND","35.6","4.6","ND","ND","ND","ND","665","0"],
    [78571,"2019-04-23T14:00:00","ND","ND","ND","ND","56.8","1.2","ND","ND","ND","ND","664","0"],
    [78572,"2019-04-23T15:00:00","20.7","ND","ND","ND","77.2","0.9","ND","ND","ND","ND","560","13.4"],
    [78573,"2019-04-23T16:00:00","48.1","ND","ND","ND","64.8","0.9","ND","ND","ND","ND","649","0"],
    [78574,"2019-04-23T17:00:00","28.9","ND","ND","ND","26.3","0.7","ND","ND","ND","ND","270","0"],
    [78575,"2019-04-23T18:00:00","0.4","ND","ND","ND","10.3","0.9","ND","ND","ND","ND","89","0"],
    [78576,"2019-04-23T19:00:00","10.1","ND","ND","ND","1.7","1.3","ND","ND","ND","ND","0","0"],
    [78577,"2019-04-23T20:00:00","33.3","ND","ND","ND","1.6","1.5","ND","ND","ND","ND","0","0"],
    [78578,"2019-04-23T21:00:00","50.6","ND","ND","ND","8.6","1.1","ND","ND","ND","ND","0","0"],
    [78579,"2019-04-23T22:00:00","7.3","ND","ND","ND","12.1","1.2","ND","ND","ND","ND","0","0"],
    [78580,"2019-04-23T23:00:00","2.9","ND","ND","ND","4.1","0.8","ND","ND","ND","ND","0","0"],
    [78581,"2019-04-24T00:00:00","13.3","ND","ND","ND","3.2","0.8","ND","ND","ND","ND","0","0"],
    [78582,"2019-04-24T01:00:00","39.9","ND","ND","ND","1.6","1","ND","ND","ND","ND","0","0"],
    [78583,"2019-04-24T02:00:00","38.2","ND","ND","ND","4.5","1.3","ND","ND","ND","ND","0","0"],
    [78584,"2019-04-24T03:00:00","24","ND","ND","ND","5.3","1.3","ND","ND","ND","ND","0","0"],
    [78585,"2019-04-24T04:00:00","21","ND","ND","ND","2.4","2.1","ND","ND","ND","ND","0","0"],
    [78586,"2019-04-24T05:00:00","15.6","ND","ND","ND","2.9","1.6","ND","ND","ND","ND","0","0"],
    [78587,"2019-04-24T06:00:00","17.4","ND","ND","ND","1.5","1.8","ND","ND","ND","ND","0","0"],
    [78588,"2019-04-24T07:00:00","18","ND","ND","ND","1.5","1.5","ND","ND","ND","ND","0","0"],
    [78589,"2019-04-24T08:00:00","48.6","ND","ND","ND","2","1.5","ND","ND","ND","ND","93","0"],
    [78590,"2019-04-24T09:00:00","58.6","ND","ND","ND","3.5","1.5","ND","ND","ND","ND","330","ND"],
    [78591,"2019-04-24T10:00:00","58.7","ND","ND","ND","13.3","1.8","ND","ND","ND","ND","440","0"],
    [78592,"2019-04-24T11:00:00","39.1","ND","ND","ND","25.9","1.3","ND","ND","ND","ND","666","5.2"],
    [78593,"2019-04-24T12:00:00","26.8","ND","ND","ND","36.2","1.2","ND","ND","ND","ND","647","0"],
    [78594,"2019-04-24T13:00:00","39.2","ND","ND","ND","47.5","0.9","ND","ND","ND","ND","635","0"],
    [78595,"2019-04-24T14:00:00","19.6","ND","ND","ND","56.7","1.2","ND","ND","ND","ND","666","0"],
    [78596,"2019-04-24T15:00:00","16.6","ND","ND","ND","82.7","1.3","ND","ND","ND","ND","666","0"],
    [78597,"2019-04-24T16:00:00","18.6","ND","ND","ND","96.4","0.9","ND","ND","ND","ND","666","0"],
    [78598,"2019-04-24T17:00:00","1.7","ND","ND","ND","70","1.4","ND","ND","ND","ND","550","0"],
    [78599,"2019-04-24T18:00:00","ND","ND","ND","ND","44","0.8","ND","ND","ND","ND","298","0"],
    [78600,"2019-04-24T19:00:00","32.1","ND","ND","ND","15.8","1.1","ND","ND","ND","ND","0","0.3"],
    [78601,"2019-04-24T20:00:00","39.5","ND","ND","ND","3.8","1","ND","ND","ND","ND","0","ND"],
    [78602,"2019-04-24T21:00:00","30.6","ND","ND","ND","1.6","1.7","ND","ND","ND","ND","0","0.6"],
    [78603,"2019-04-24T22:00:00","56.8","ND","ND","ND","1.3","2.6","ND","ND","ND","ND","0","ND"],
    [78604,"2019-04-24T23:00:00","41.8","ND","ND","ND","1.2","1.5","ND","ND","ND","ND","0","ND"],
    [78605,"2019-04-25T00:00:00","69","ND","ND","ND","1","1.2","ND","ND","ND","ND","0","ND"],
    [78606,"2019-04-25T01:00:00","56.5","ND","ND","ND","1.3","2","ND","ND","ND","ND","0","0"],
    [78607,"2019-04-25T02:00:00","40.9","ND","ND","ND","1.1","2.1","ND","ND","ND","ND","0","0"],
    [78608,"2019-04-25T03:00:00","62.2","ND","ND","ND","1.1","2.4","ND","ND","ND","ND","0","0"],
    [78609,"2019-04-25T04:00:00","30.8","ND","ND","ND","1.3","1.4","ND","ND","ND","ND","0","0"],
    [78610,"2019-04-25T05:00:00","38.4","ND","ND","ND","1.2","1.3","ND","ND","ND","ND","0","0"],
    [78611,"2019-04-25T06:00:00","33","ND","ND","ND","1.2","2.3","ND","ND","ND","ND","0","ND"],
    [78612,"2019-04-25T07:00:00","44.7","ND","ND","ND","1.9","3.3","ND","ND","ND","ND","0","ND"],
    [78613,"2019-04-25T08:00:00","93","ND","ND","ND","3","7.4","ND","ND","ND","ND","153","ND"],
    [78614,"2019-04-25T09:00:00","87.5","ND","ND","ND","3.9","7.7","ND","ND","ND","ND","582","ND"],
    [78615,"2019-04-25T10:00:00","52.5","ND","ND","ND","11.3","2.9","ND","ND","ND","ND","601","ND"],
    [78616,"2019-04-25T11:00:00","51.9","ND","ND","ND","29.6","1.5","ND","ND","ND","ND","642","ND"],
    [78617,"2019-04-25T12:00:00","6.6","ND","ND","ND","50.1","1.1","ND","ND","ND","ND","666","0"],
    [78618,"2019-04-25T13:00:00","ND","ND","ND","ND","64.3","1.3","ND","ND","ND","ND","665","ND"],
    [78619,"2019-04-25T14:00:00","16.2","ND","ND","ND","66.4","1","ND","ND","ND","ND","665","0"],
    [78620,"2019-04-25T15:00:00","40.8","ND","ND","ND","64.9","1.2","ND","ND","ND","ND","661","0"],
    [78621,"2019-04-25T16:00:00","30.1","ND","ND","ND","53.3","0.8","ND","ND","ND","ND","583","0"],
    [78622,"2019-04-25T17:00:00","12.6","ND","ND","ND","21.9","1.2","ND","ND","ND","ND","365","0"],
    [78623,"2019-04-25T18:00:00","18.5","ND","ND","ND","17.7","1.1","ND","ND","ND","ND","268","0"],
    [78624,"2019-04-25T19:00:00","9.2","ND","ND","ND","3.1","1.1","ND","ND","ND","ND","0","ND"],
    [78625,"2019-04-25T20:00:00","45.7","ND","ND","ND","2.2","1.2","ND","ND","ND","ND","0","ND"],
    [78626,"2019-04-25T21:00:00","43.8","ND","ND","ND","7.4","1.2","ND","ND","ND","ND","0","0.1"],
    [78627,"2019-04-25T22:00:00","11.2","ND","ND","ND","15.2","0.9","ND","ND","ND","ND","0","0.8"],
    [78628,"2019-04-25T23:00:00","1.8","ND","ND","ND","2.8","1.3","ND","ND","ND","ND","0","0.1"],
    [78629,"2019-04-26T00:00:00","19.2","ND","ND","ND","5.4","1.1","ND","ND","ND","ND","0","0"],
    [78630,"2019-04-26T01:00:00","27.5","ND","ND","ND","1.4","1.3","ND","ND","ND","ND","0","0"],
    [78631,"2019-04-26T02:00:00","62.7","ND","ND","ND","1.2","2.3","ND","ND","ND","ND","0","0"],
    [78632,"2019-04-26T03:00:00","37.1","ND","ND","ND","1.3","1.3","ND","ND","ND","ND","0","0"],
    [78633,"2019-04-26T04:00:00","34.1","ND","ND","ND","1.3","1.1","ND","ND","ND","ND","0","0"],
    [78634,"2019-04-26T05:00:00","57.9","ND","ND","ND","1.3","2","ND","ND","ND","ND","0","0"],
    [78635,"2019-04-26T06:00:00","43.2","ND","ND","ND","1.4","2.2","ND","ND","ND","ND","0","0"],
    [78636,"2019-04-26T07:00:00","41.6","ND","ND","ND","1.5","2.2","ND","ND","ND","ND","0","0"],
    [78637,"2019-04-26T08:00:00","86.4","ND","ND","ND","1.9","11.4","ND","ND","ND","ND","50","0"],
    [78638,"2019-04-26T09:00:00","78.7","ND","ND","ND","2.4","6.7","ND","ND","ND","ND","193","0"],
    [78639,"2019-04-26T10:00:00","66.9","ND","ND","ND","11.9","3.2","ND","ND","ND","ND","638","0"],
    [78640,"2019-04-26T11:00:00","17.2","ND","ND","ND","28.5","2.1","ND","ND","ND","ND","664","0"],
    [78641,"2019-04-26T12:00:00","41.1","ND","ND","ND","52.6","1.4","ND","ND","ND","ND","664","0"],
    [78642,"2019-04-26T13:00:00","40.6","ND","ND","ND","76.9","1.2","ND","ND","ND","ND","665","0"],
    [78643,"2019-04-26T14:00:00","43.2","ND","ND","ND","79.2","1.3","ND","ND","ND","ND","663","0"],
    [78644,"2019-04-26T15:00:00","43.6","ND","ND","ND","69.1","1","ND","ND","ND","ND","661","ND"],
    [78645,"2019-04-26T16:00:00","23.4","ND","ND","ND","56.3","0.8","ND","ND","ND","ND","631","0"],
    [78646,"2019-04-26T17:00:00","9.6","ND","ND","ND","38.5","0.9","ND","ND","ND","ND","574","0"],
    [78647,"2019-04-26T18:00:00","9.6","ND","ND","ND","28.5","1","ND","ND","ND","ND","178","0"],
    [78648,"2019-04-26T19:00:00","1.4","ND","ND","ND","6.3","3.3","ND","ND","ND","ND","0","0.7"],
    [78649,"2019-04-26T20:00:00","20.2","ND","ND","ND","3.1","2.5","ND","ND","ND","ND","0","0.2"],
    [78650,"2019-04-26T21:00:00","40.6","ND","ND","ND","1.6","1.2","ND","ND","ND","ND","0","0"],
    [78651,"2019-04-26T22:00:00","66.2","ND","ND","ND","1.4","1.1","ND","ND","ND","ND","0","0"],
    [78652,"2019-04-26T23:00:00","44.2","ND","ND","ND","8","0.7","ND","ND","ND","ND","0","0"],
    [78653,"2019-04-27T00:00:00","4.5","ND","ND","ND","3.1","2.3","ND","ND","ND","ND","0","0"],
    [78654,"2019-04-27T01:00:00","14.8","ND","ND","ND","3.7","1.9","ND","ND","ND","ND","0","0"],
    [78655,"2019-04-27T02:00:00","12.1","ND","ND","ND","2.3","4","ND","ND","ND","ND","0","0"],
    [78656,"2019-04-27T03:00:00","18.4","ND","ND","ND","1.3","3.6","ND","ND","ND","ND","0","0"],
    [78657,"2019-04-27T04:00:00","15.2","ND","ND","ND","1.3","3","ND","ND","ND","ND","0","0"],
    [78658,"2019-04-27T05:00:00","33","ND","ND","ND","1.3","2.1","ND","ND","ND","ND","0","0"],
    [78659,"2019-04-27T06:00:00","39.6","ND","ND","ND","1.4","1.3","ND","ND","ND","ND","0","0"],
    [78660,"2019-04-27T07:00:00","25.7","ND","ND","ND","1.5","1.6","ND","ND","ND","ND","2","0"],
    [78661,"2019-04-27T08:00:00","43.8","ND","ND","ND","2.6","2.6","ND","ND","ND","ND","129","0"],
    [78662,"2019-04-27T09:00:00","68","ND","ND","ND","6.5","3.5","ND","ND","ND","ND","458","0"],
    [78663,"2019-04-27T10:00:00","89.4","ND","ND","ND","12","2.7","ND","ND","ND","ND","620","0"],
    [78664,"2019-04-27T11:00:00","52.5","ND","ND","ND","32.6","1.7","ND","ND","ND","ND","664","0"],
    [78665,"2019-04-27T12:00:00","33.4","ND","ND","ND","72.1","0.9","ND","ND","ND","ND","659","0"],
    [78666,"2019-04-27T13:00:00","19.7","ND","ND","ND","82.7","1.3","ND","ND","ND","ND","665","0"],
    [78667,"2019-04-27T14:00:00","23.6","ND","ND","ND","99.4","1.1","ND","ND","ND","ND","665","0"],
    [78668,"2019-04-27T15:00:00","18","ND","ND","ND","85.4","0.7","ND","ND","ND","ND","624","0"],
    [78669,"2019-04-27T16:00:00","23.9","ND","ND","ND","90.1","1.2","ND","ND","ND","ND","665","0"],
    [78670,"2019-04-27T17:00:00","14","ND","ND","ND","73.2","1","ND","ND","ND","ND","619","0"],
    [78671,"2019-04-27T18:00:00","41.9","ND","ND","ND","56.2","1.2","ND","ND","ND","ND","341","0"],
    [78672,"2019-04-27T19:00:00","51.2","ND","ND","ND","29","1.4","ND","ND","ND","ND","0","0"],
    [78673,"2019-04-27T20:00:00","65.5","ND","ND","ND","5.5","1.3","ND","ND","ND","ND","0","0"],
    [78674,"2019-04-27T21:00:00","19.1","ND","ND","ND","1.9","1.8","ND","ND","ND","ND","0","0"],
    [78675,"2019-04-27T22:00:00","ND","ND","ND","ND","1.9","2.8","ND","ND","ND","ND","0","0"],
    [78676,"2019-04-27T23:00:00","31","ND","ND","ND","1.6","2.6","ND","ND","ND","ND","0","0"],
    [78677,"2019-04-28T00:00:00","54","ND","ND","ND","1.4","2.3","ND","ND","ND","ND","0","0"],
    [78678,"2019-04-28T01:00:00","69.6","ND","ND","ND","1.4","1.7","ND","ND","ND","ND","0","0"],
    [78679,"2019-04-28T02:00:00","49.2","ND","ND","ND","1.5","2","ND","ND","ND","ND","0","0"],
    [78680,"2019-04-28T03:00:00","25.7","ND","ND","ND","1.6","1.3","ND","ND","ND","ND","0","0"],
    [78681,"2019-04-28T04:00:00","11.1","ND","ND","ND","1.8","3","ND","ND","ND","ND","0","0"],
    [78682,"2019-04-28T05:00:00","40.6","ND","ND","ND","1.8","4.6","ND","ND","ND","ND","0","0"],
    [78683,"2019-04-28T06:00:00","76.6","ND","ND","ND","1.8","4.7","ND","ND","ND","ND","0","0"],
    [78684,"2019-04-28T07:00:00","50.9","ND","ND","ND","2","5.2","ND","ND","ND","ND","1","0"],
    [78685,"2019-04-28T08:00:00","29.6","ND","ND","ND","2.4","4.2","ND","ND","ND","ND","212","0"],
    [78686,"2019-04-28T09:00:00","66.2","ND","ND","ND","4.6","5","ND","ND","ND","ND","392","0"],
    [78687,"2019-04-28T10:00:00","69.7","ND","ND","ND","15.7","2.7","ND","ND","ND","ND","646","0"],
    [78688,"2019-04-28T11:00:00","50","ND","ND","ND","37.7","1.6","ND","ND","ND","ND","644","0"],
    [78689,"2019-04-28T12:00:00","18.6","ND","ND","ND","67.1","1.5","ND","ND","ND","ND","664","0"],
    [78690,"2019-04-28T13:00:00","66.6","ND","ND","ND","67.7","0.8","ND","ND","ND","ND","665","0"],
    [78691,"2019-04-28T14:00:00","33.4","ND","ND","ND","58.1","0.9","ND","ND","ND","ND","665","0"],
    [78692,"2019-04-28T15:00:00","1.1","ND","ND","ND","52.3","1.1","ND","ND","ND","ND","665","0"],
    [78693,"2019-04-28T16:00:00","5","ND","ND","ND","32.9","1","ND","ND","ND","ND","665","0"],
    [78694,"2019-04-28T17:00:00","4.6","ND","ND","ND","28.3","0.9","ND","ND","ND","ND","501","0"],
    [78695,"2019-04-28T18:00:00","0.3","ND","ND","ND","15.4","0.6","ND","ND","ND","ND","274","0.1"],
    [78696,"2019-04-28T19:00:00","5.9","ND","ND","ND","12.2","0.8","ND","ND","ND","ND","0","0"],
    [78697,"2019-04-28T20:00:00","10.9","ND","ND","ND","2.1","1","ND","ND","ND","ND","0","0"],
    [78698,"2019-04-28T21:00:00","44","ND","ND","ND","1.7","1.2","ND","ND","ND","ND","0","0.4"],
    [78699,"2019-04-28T22:00:00","20.2","ND","ND","ND","1.4","2.2","ND","ND","ND","ND","0","0.6"],
    [78700,"2019-04-28T23:00:00","28.5","ND","ND","ND","1.4","3.9","ND","ND","ND","ND","0","0.2"],
    [78701,"2019-04-29T00:00:00","41.7","ND","ND","ND","2","1.5","ND","ND","ND","ND","0","0"],
    [78702,"2019-04-29T01:00:00","16.3","ND","ND","ND","10.9","1.1","ND","ND","ND","ND","0","0.3"],
    [78703,"2019-04-29T02:00:00","44.6","ND","ND","ND","1.8","1.8","ND","ND","ND","ND","0","0.1"],
    [78704,"2019-04-29T03:00:00","22.6","ND","ND","ND","1.8","1.3","ND","ND","ND","ND","0","0"],
    [78705,"2019-04-29T04:00:00","35.6","ND","ND","ND","1.9","1.4","ND","ND","ND","ND","0","0.2"],
    [78706,"2019-04-29T05:00:00","16.1","ND","ND","ND","2.6","3.1","ND","ND","ND","ND","0","0"],
    [78707,"2019-04-29T06:00:00","55.3","ND","ND","ND","1.7","10.8","ND","ND","ND","ND","0","0"],
    [78708,"2019-04-29T07:00:00","53.8","ND","ND","ND","1.3","3.8","ND","ND","ND","ND","9","0"],
    [78709,"2019-04-29T08:00:00","65.5","ND","ND","ND","1.6","2.8","ND","ND","ND","ND","65","0"],
    [78710,"2019-04-29T09:00:00","85","ND","ND","ND","2","3.1","ND","ND","ND","ND","113","0"],
    [78711,"2019-04-29T10:00:00","66.9","ND","ND","ND","5.1","2.7","ND","ND","ND","ND","305","0"],
    [78712,"2019-04-29T11:00:00","67.8","ND","ND","ND","26.5","1.9","ND","ND","ND","ND","597","0"],
    [78713,"2019-04-29T12:00:00","50.2","ND","ND","ND","40.1","1.1","ND","ND","ND","ND","664","0"],
    [78714,"2019-04-29T13:00:00","27.4","ND","ND","ND","71.4","1.3","ND","ND","ND","ND","664","0"],
    [78715,"2019-04-29T14:00:00","36.9","ND","ND","ND","75.9","0.6","ND","ND","ND","ND","665","0"],
    [78716,"2019-04-29T15:00:00","34.3","ND","ND","ND","78.5","1.2","ND","ND","ND","ND","665","0"],
    [78717,"2019-04-29T16:00:00","33.1","ND","ND","ND","60.2","1.8","ND","ND","ND","ND","644","0"],
    [78718,"2019-04-29T17:00:00","15.4","ND","ND","ND","21.9","0.9","ND","ND","ND","ND","478","0"],
    [78719,"2019-04-29T18:00:00","23.3","ND","ND","ND","9.8","0.6","ND","ND","ND","ND","349","0"],
    [78720,"2019-04-29T19:00:00","35.7","ND","ND","ND","3","0.9","ND","ND","ND","ND","0","0"],
    [78721,"2019-04-29T20:00:00","18.9","ND","ND","ND","1.5","1.4","ND","ND","ND","ND","0","0"],
    [78722,"2019-04-29T21:00:00","52.8","ND","ND","ND","1.7","2","ND","ND","ND","ND","0","0"],
    [78723,"2019-04-29T22:00:00","38.5","ND","ND","ND","1.5","1","ND","ND","ND","ND","0","0"],
    [78724,"2019-04-29T23:00:00","25.6","ND","ND","ND","1.5","1","ND","ND","ND","ND","0","0"],
    [78725,"2019-04-30T00:00:00","59.3","ND","ND","ND","1.6","3.3","ND","ND","ND","ND","0","0"],
    [78726,"2019-04-30T01:00:00","37.5","ND","ND","ND","1.5","2.8","ND","ND","ND","ND","0","0"],
    [78727,"2019-04-30T02:00:00","1.6","ND","ND","ND","1.4","2","ND","ND","ND","ND","0","0"],
    [78728,"2019-04-30T03:00:00","2","ND","ND","ND","1.7","1.2","ND","ND","ND","ND","0","0"],
    [78729,"2019-04-30T04:00:00","5.2","ND","ND","ND","1.7","1.4","ND","ND","ND","ND","0","0"],
    [78730,"2019-04-30T05:00:00","15.7","ND","ND","ND","1.7","1.6","ND","ND","ND","ND","0","0"],
    [78731,"2019-04-30T06:00:00","34.5","ND","ND","ND","1.8","3.4","ND","ND","ND","ND","0","0"],
    [78732,"2019-04-30T07:00:00","46.2","ND","ND","ND","1.8","2.7","ND","ND","ND","ND","0","0"],
    [78733,"2019-04-30T08:00:00","70.1","ND","ND","ND","2.6","1.5","ND","ND","ND","ND","157","0"],
    [78734,"2019-04-30T09:00:00","68.2","ND","ND","ND","5.2","2.1","ND","ND","ND","ND","653","0.7"],
    [78735,"2019-04-30T10:00:00","60.4","ND","ND","ND","11.8","1.9","ND","ND","ND","ND","659","0"],
    [78736,"2019-04-30T11:00:00","40.9","ND","ND","ND","31.5","1.6","ND","ND","ND","ND","664","0"],
    [78737,"2019-04-30T12:00:00","43.5","ND","ND","ND","60.1","0.9","ND","ND","ND","ND","664","0"],
    [78738,"2019-04-30T13:00:00","145.4","ND","ND","ND","111.7","0.8","ND","ND","ND","ND","665","0"],
    [78739,"2019-04-30T14:00:00","113.5","ND","ND","ND","139.8","1.1","ND","ND","ND","ND","665","0"],
    [78740,"2019-04-30T15:00:00","61.8","ND","ND","ND","100.1","1","ND","ND","ND","ND","665","0"],
    [78741,"2019-04-30T16:00:00","49.7","ND","ND","ND","73.4","0.6","ND","ND","ND","ND","665","0"],
    [78742,"2019-04-30T17:00:00","25.3","ND","ND","ND","54.7","0.3","ND","ND","ND","ND","ND","0"],
    [78743,"2019-04-30T18:00:00","23.2","ND","ND","ND","27.8","0.8","ND","ND","ND","ND","319","0"],
    [78744,"2019-04-30T19:00:00","32.3","ND","ND","ND","10.3","0.6","ND","ND","ND","ND","108","0"],
    [78745,"2019-04-30T20:00:00","40.8","ND","ND","ND","4.5","1.5","ND","ND","ND","ND","0","0"],
    [78746,"2019-04-30T21:00:00","38.9","ND","ND","ND","1.7","2.1","ND","ND","ND","ND","0","0"],
    [78747,"2019-04-30T22:00:00","80","ND","ND","ND","1.7","1.3","ND","ND","ND","ND","0","0"],
    [78748,"2019-04-30T23:00:00","61.4","ND","ND","ND","1.5","2.6","ND","ND","ND","ND","0","0"],
    [78749,"2019-05-01T00:00:00","28.8","ND","ND","ND","1.5","1.5","ND","ND","ND","ND","0","0"],
    [78750,"2019-05-01T01:00:00","37","ND","ND","ND","1.5","1.8","ND","ND","ND","ND","0","0"],
    [78751,"2019-05-01T02:00:00","77.9","ND","ND","ND","1.6","1.9","ND","ND","ND","ND","0","0"],
    [78752,"2019-05-01T03:00:00","58.2","ND","ND","ND","3.7","1.3","ND","ND","ND","ND","0","0"],
    [78753,"2019-05-01T04:00:00","23.2","ND","ND","ND","6.9","1.4","ND","ND","ND","ND","0","0"],
    [78754,"2019-05-01T05:00:00","47.9","ND","ND","ND","3.3","2.6","ND","ND","ND","ND","0","0"],
    [78755,"2019-05-01T06:00:00","51.7","ND","ND","ND","1.9","1.9","ND","ND","ND","ND","0","0"],
    [78756,"2019-05-01T07:00:00","48.2","ND","ND","ND","2","2.8","ND","ND","ND","ND","0","0"],
    [78757,"2019-05-01T08:00:00","63.3","ND","ND","ND","3.4","4.6","ND","ND","ND","ND","135","0"],
    [78758,"2019-05-01T09:00:00","45.8","ND","ND","ND","13.3","2.5","ND","ND","ND","ND","368","0"],
    [78759,"2019-05-01T10:00:00","70.4","ND","ND","ND","31.1","1.3","ND","ND","ND","ND","643","0"],
    [78760,"2019-05-01T11:00:00","51.9","ND","ND","ND","56.6","1","ND","ND","ND","ND","664","0"],
    [78761,"2019-05-01T12:00:00","45.4","ND","ND","ND","74.7","0.9","ND","ND","ND","ND","664","0"],
    [78762,"2019-05-01T13:00:00","40.9","ND","ND","ND","94.4","0.8","ND","ND","ND","ND","664","0"],
    [78763,"2019-05-01T14:00:00","49.8","ND","ND","ND","97.7","0.7","ND","ND","ND","ND","665","0"],
    [78764,"2019-05-01T15:00:00","23.3","ND","ND","ND","100.5","1.1","ND","ND","ND","ND","665","0"],
    [78765,"2019-05-01T16:00:00","26.8","ND","ND","ND","109.5","1.2","ND","ND","ND","ND","658","0"],
    [78766,"2019-05-01T17:00:00","22.1","ND","ND","ND","31.3","0.8","ND","ND","ND","ND","665","0"],
    [78767,"2019-05-01T18:00:00","12","ND","ND","ND","34.9","0.8","ND","ND","ND","ND","590","0"],
    [78768,"2019-05-01T19:00:00","ND","ND","ND","ND","15","1.1","ND","ND","ND","ND","0","0"],
    [78769,"2019-05-01T20:00:00","4.3","ND","ND","ND","9.1","0.6","ND","ND","ND","ND","0","0"],
    [78770,"2019-05-01T21:00:00","22.7","ND","ND","ND","3.4","1.1","ND","ND","ND","ND","0","0"],
    [78771,"2019-05-01T22:00:00","19","ND","ND","ND","2.5","2.2","ND","ND","ND","ND","0","0"],
    [78772,"2019-05-01T23:00:00","32.1","ND","ND","ND","2.2","1","ND","ND","ND","ND","0","0"],
    [78773,"2019-05-02T00:00:00","47.2","ND","ND","ND","2.3","1.6","ND","ND","ND","ND","0","0"],
    [78774,"2019-05-02T01:00:00","20.9","ND","ND","ND","4.2","2","ND","ND","ND","ND","0","0"],
    [78775,"2019-05-02T02:00:00","67.8","ND","ND","ND","2.1","3.2","ND","ND","ND","ND","0","0"],
    [78776,"2019-05-02T03:00:00","55.5","ND","ND","ND","2.1","2.6","ND","ND","ND","ND","0","0"],
    [78777,"2019-05-02T04:00:00","24.1","ND","ND","ND","2.1","2","ND","ND","ND","ND","0","0"],
    [78778,"2019-05-02T05:00:00","22.6","ND","ND","ND","2.1","3.9","ND","ND","ND","ND","0","0"],
    [78779,"2019-05-02T06:00:00","25.5","ND","ND","ND","2.2","2.6","ND","ND","ND","ND","0","0"],
    [78780,"2019-05-02T07:00:00","30.5","ND","ND","ND","2.4","2.2","ND","ND","ND","ND","0","0"],
    [78781,"2019-05-02T08:00:00","64.8","ND","ND","ND","2.8","3.8","ND","ND","ND","ND","140","0"],
    [78782,"2019-05-02T09:00:00","97.3","ND","ND","ND","5.4","4.2","ND","ND","ND","ND","521","0"],
    [78783,"2019-05-02T10:00:00","105.5","ND","ND","ND","17.1","2.4","ND","ND","ND","ND","642","0"],
    [78784,"2019-05-02T11:00:00","102.6","ND","ND","ND","48.7","1.5","ND","ND","ND","ND","664","0"],
    [78785,"2019-05-02T12:00:00","29.4","ND","ND","ND","79.7","1.8","ND","ND","ND","ND","ND","0"],
    [78786,"2019-05-02T13:00:00","49.2","ND","ND","ND","94.7","1.3","ND","ND","ND","ND","ND","0"],
    [78787,"2019-05-02T14:00:00","37.6","ND","ND","ND","96.7","1.4","ND","ND","ND","ND","ND","0"],
    [78788,"2019-05-02T15:00:00","ND","ND","ND","ND","ND","ND","ND","ND","ND","ND","664","0"],
    [78789,"2019-05-02T16:00:00","ND","ND","ND","ND","ND","ND","ND","ND","ND","ND","ND","0"],
    [78790,"2019-05-02T17:00:00","ND","ND","ND","ND","32.6","1.1","ND","ND","ND","ND","ND","0"],
    [78791,"2019-05-02T18:00:00","ND","ND","ND","ND","23","1","ND","ND","ND","ND","383","0"],
    [78792,"2019-05-02T19:00:00","105.8","ND","ND","ND","16.7","0.7","ND","ND","ND","ND","0","0"],
    [78793,"2019-05-02T20:00:00","74.3","ND","ND","ND","7.2","0.9","ND","ND","ND","ND","0","0"],
    [78794,"2019-05-02T21:00:00","65.5","ND","ND","ND","3.2","1.2","ND","ND","ND","ND","0","0.1"],
    [78795,"2019-05-02T22:00:00","83.2","ND","ND","ND","3.1","1.5","ND","ND","ND","ND","0","0.4"],
    [78796,"2019-05-02T23:00:00","70.6","ND","ND","ND","3.2","1.8","ND","ND","ND","ND","0","0"],
    [78797,"2019-05-03T00:00:00","65.2","ND","ND","ND","2.7","2.3","ND","ND","ND","ND","0","0"],
    [78798,"2019-05-03T01:00:00","63.9","ND","ND","ND","2.9","2.3","ND","ND","ND","ND","0","0"],
    [78799,"2019-05-03T02:00:00","94.9","ND","ND","ND","3.1","3","ND","ND","ND","ND","0","0"],
    [78800,"2019-05-03T03:00:00","67.2","ND","ND","ND","3.1","2.2","ND","ND","ND","ND","0","0"],
    [78801,"2019-05-03T04:00:00","46.9","ND","ND","ND","4.6","1.6","ND","ND","ND","ND","0","0"],
    [78802,"2019-05-03T05:00:00","60.1","ND","ND","ND","3.1","2.6","ND","ND","ND","ND","ND","0"],
    [78803,"2019-05-03T06:00:00","54.3","ND","ND","ND","2.7","2.8","ND","ND","ND","ND","0","0"],
    [78804,"2019-05-03T07:00:00","99.4","ND","ND","ND","2.3","3.2","ND","ND","ND","ND","0","0"],
    [78805,"2019-05-03T08:00:00","57.7","ND","ND","ND","1.2","3.5","ND","ND","ND","ND","ND","0"],
    [78806,"2019-05-03T09:00:00","95.3","ND","ND","ND","3.9","2.9","ND","ND","ND","ND","402","0"],
    [78807,"2019-05-03T10:00:00","71.8","ND","ND","ND","11.4","1.7","ND","ND","ND","ND","648","0"],
    [78808,"2019-05-03T11:00:00","26","ND","ND","ND","22.5","1.5","ND","ND","ND","ND","621","0"],
    [78809,"2019-05-03T12:00:00","33.3","ND","ND","ND","44.8","1.3","ND","ND","ND","ND","663","0"],
    [78810,"2019-05-03T13:00:00","41.6","ND","ND","ND","66.9","0.7","ND","ND","ND","ND","ND","0"],
    [78811,"2019-05-03T14:00:00","5.4","ND","ND","ND","81.8","1.1","ND","ND","ND","ND","ND","0"],
    [78812,"2019-05-03T15:00:00","62.4","ND","ND","ND","86.4","0.6","ND","ND","ND","ND","662","0"],
    [78813,"2019-05-03T16:00:00","52.6","ND","ND","ND","83.3","1","ND","ND","ND","ND","624","0"],
    [78814,"2019-05-03T17:00:00","39.3","ND","ND","ND","22.7","0.8","ND","ND","ND","ND","469","0"],
    [78815,"2019-05-03T18:00:00","0.5","ND","ND","ND","18.3","1","ND","ND","ND","ND","ND","0"],
    [78816,"2019-05-03T19:00:00","3.8","ND","ND","ND","12","1","ND","ND","ND","ND","0","0.3"],
    [78817,"2019-05-03T20:00:00","24.9","ND","ND","ND","7.1","0.7","ND","ND","ND","ND","0","0.1"],
    [78818,"2019-05-03T21:00:00","39.3","ND","ND","ND","5.6","0.9","ND","ND","ND","ND","0","0"],
    [78819,"2019-05-03T22:00:00","63","ND","ND","ND","3.2","1.9","ND","ND","ND","ND","0","0"],
    [78820,"2019-05-03T23:00:00","59.2","ND","ND","ND","3.1","3.5","ND","ND","ND","ND","0","0"],
    [78821,"2019-05-04T00:00:00","43.8","ND","ND","ND","2.9","2.1","ND","ND","ND","ND","0","0"],
    [78822,"2019-05-04T01:00:00","31.5","ND","ND","ND","2.9","1.7","ND","ND","ND","ND","0","0"],
    [78823,"2019-05-04T02:00:00","34.7","ND","ND","ND","3.6","2","ND","ND","ND","ND","0","0"],
    [78824,"2019-05-04T03:00:00","46","ND","ND","ND","3.2","2.1","ND","ND","ND","ND","0","0"],
    [78825,"2019-05-04T04:00:00","25.2","ND","ND","ND","3","1.6","ND","ND","ND","ND","0","0"],
    [78826,"2019-05-04T05:00:00","50","ND","ND","ND","3","3.7","ND","ND","ND","ND","0","0"],
    [78827,"2019-05-04T06:00:00","20.2","ND","ND","ND","1.5","2.7","ND","ND","ND","ND","0","0"],
    [78828,"2019-05-04T07:00:00","35","ND","ND","ND","1.3","3.4","ND","ND","ND","ND","0","0"],
    [78829,"2019-05-04T08:00:00","69.7","ND","ND","ND","3.2","2.9","ND","ND","ND","ND","55","0"],
    [78830,"2019-05-04T09:00:00","87.5","ND","ND","ND","6.5","2.1","ND","ND","ND","ND","342","0"],
    [78831,"2019-05-04T10:00:00","67.8","ND","ND","ND","20.9","1.2","ND","ND","ND","ND","648","0"],
    [78832,"2019-05-04T11:00:00","15","ND","ND","ND","30.6","1.4","ND","ND","ND","ND","584","0"],
    [78833,"2019-05-04T12:00:00","16.4","ND","ND","ND","46.3","0.7","ND","ND","ND","ND","ND","0"],
    [78834,"2019-05-04T13:00:00","40.5","ND","ND","ND","64.8","1.3","ND","ND","ND","ND","ND","0"],
    [78835,"2019-05-04T14:00:00","23","ND","ND","ND","81.1","0.5","ND","ND","ND","ND","664","0"],
    [78836,"2019-05-04T15:00:00","58.7","ND","ND","ND","59.5","0.9","ND","ND","ND","ND","663","0"],
    [78837,"2019-05-04T16:00:00","73.9","ND","ND","ND","36.6","1","ND","ND","ND","ND","654","0"],
    [78838,"2019-05-04T17:00:00","6.2","ND","ND","ND","25.9","0.7","ND","ND","ND","ND","473","0"],
    [78839,"2019-05-04T18:00:00","1.6","ND","ND","ND","16","0.6","ND","ND","ND","ND","435","0"],
    [78840,"2019-05-04T19:00:00","40.4","ND","ND","ND","7.1","0.7","ND","ND","ND","ND","0","0"],
    [78841,"2019-05-04T20:00:00","24","ND","ND","ND","7","0.7","ND","ND","ND","ND","0","0"],
    [78842,"2019-05-04T21:00:00","16.3","ND","ND","ND","7","0.8","ND","ND","ND","ND","0","3"],
    [78843,"2019-05-04T22:00:00","41.8","ND","ND","ND","3.4","1.4","ND","ND","ND","ND","0","0"],
    [78844,"2019-05-04T23:00:00","44.2","ND","ND","ND","3","2.3","ND","ND","ND","ND","0","0"],
    [78845,"2019-05-05T00:00:00","18.8","ND","ND","ND","2.9","2","ND","ND","ND","ND","0","0"],
    [78846,"2019-05-05T01:00:00","28.5","ND","ND","ND","5.4","0.9","ND","ND","ND","ND","0","0"],
    [78847,"2019-05-05T02:00:00","6","ND","ND","ND","5.7","1.9","ND","ND","ND","ND","0","6.3"],
    [78848,"2019-05-05T03:00:00","24.1","ND","ND","ND","3.4","2.4","ND","ND","ND","ND","0","0"],
    [78849,"2019-05-05T04:00:00","43","ND","ND","ND","3.9","2.3","ND","ND","ND","ND","0","0.8"],
    [78850,"2019-05-05T05:00:00","28.1","ND","ND","ND","2.9","2","ND","ND","ND","ND","0","0"],
    [78851,"2019-05-05T06:00:00","32.3","ND","ND","ND","2.3","2.1","ND","ND","ND","ND","0","0"],
    [78852,"2019-05-05T07:00:00","48.2","ND","ND","ND","0.9","2.7","ND","ND","ND","ND","0","0"],
    [78853,"2019-05-05T08:00:00","52.9","ND","ND","ND","3.7","2.7","ND","ND","ND","ND","85","0"],
    [78854,"2019-05-05T09:00:00","55.4","ND","ND","ND","7.3","2.5","ND","ND","ND","ND","378","0"],
    [78855,"2019-05-05T10:00:00","36","ND","ND","ND","10.8","1.5","ND","ND","ND","ND","538","0"],
    [78856,"2019-05-05T11:00:00","58.7","ND","ND","ND","35.4","1.5","ND","ND","ND","ND","663","0"],
    [78857,"2019-05-05T12:00:00","44.2","ND","ND","ND","63.4","1","ND","ND","ND","ND","664","0"],
    [78858,"2019-05-05T13:00:00","24.9","ND","ND","ND","66.6","1","ND","ND","ND","ND","664","0"],
    [78859,"2019-05-05T14:00:00","30.1","ND","ND","ND","82.2","0.7","ND","ND","ND","ND","664","0"],
    [78860,"2019-05-05T15:00:00","46.7","ND","ND","ND","84.8","1","ND","ND","ND","ND","664","0"],
    [78861,"2019-05-05T16:00:00","41.8","ND","ND","ND","48.3","0.9","ND","ND","ND","ND","618","0"],
    [78862,"2019-05-05T17:00:00","28.3","ND","ND","ND","46.5","1","ND","ND","ND","ND","643","0"],
    [78863,"2019-05-05T18:00:00","4.2","ND","ND","ND","38.9","0.7","ND","ND","ND","ND","633","0.1"],
    [78864,"2019-05-05T19:00:00","ND","ND","ND","ND","28.1","0.6","ND","ND","ND","ND","0","0"],
    [78865,"2019-05-05T20:00:00","6.9","ND","ND","ND","14.9","1.2","ND","ND","ND","ND","0","0"],
    [78866,"2019-05-05T21:00:00","32.5","ND","ND","ND","3.2","0.7","ND","ND","ND","ND","0","0"],
    [78867,"2019-05-05T22:00:00","27.7","ND","ND","ND","3.1","1.7","ND","ND","ND","ND","0","0"],
    [78868,"2019-05-05T23:00:00","23.1","ND","ND","ND","2.8","2.6","ND","ND","ND","ND","0","0"],
    [78869,"2019-05-06T00:00:00","42.2","ND","ND","ND","2.7","2.6","ND","ND","ND","ND","0","0"],
    [78870,"2019-05-06T01:00:00","19.2","ND","ND","ND","3.8","2","ND","ND","ND","ND","0","ND"],
    [78871,"2019-05-06T02:00:00","32.7","ND","ND","ND","3.2","1.8","ND","ND","ND","ND","0","ND"],
    [78872,"2019-05-06T03:00:00","63.3","ND","ND","ND","3.4","1.5","ND","ND","ND","ND","0","ND"],
    [78873,"2019-05-06T04:00:00","49.1","ND","ND","ND","3.8","2.2","ND","ND","ND","ND","0","ND"],
    [78874,"2019-05-06T05:00:00","16.4","ND","ND","ND","3.3","1.6","ND","ND","ND","ND","0","ND"],
    [78875,"2019-05-06T06:00:00","35.4","ND","ND","ND","2.7","1.9","ND","ND","ND","ND","0","ND"],
    [78876,"2019-05-06T07:00:00","60","ND","ND","ND","2.8","2.2","ND","ND","ND","ND","0","ND"],
    [78877,"2019-05-06T08:00:00","59.2","ND","ND","ND","3.1","2.5","ND","ND","ND","ND","64","ND"],
    [78878,"2019-05-06T09:00:00","64.6","ND","ND","ND","7","2.7","ND","ND","ND","ND","331","ND"],
    [78879,"2019-05-06T10:00:00","57.3","ND","ND","ND","20.6","2.6","ND","ND","ND","ND","625","ND"],
    [78880,"2019-05-06T11:00:00","47.4","ND","ND","ND","40.5","1.9","ND","ND","ND","ND","662","ND"],
    [78881,"2019-05-06T12:00:00","6.1","ND","ND","ND","61.3","0.9","ND","ND","ND","ND","663","ND"],
    [78882,"2019-05-06T13:00:00","36.6","ND","ND","ND","61.3","0.6","ND","ND","ND","ND","664","0"],
    [78883,"2019-05-06T14:00:00","33.2","ND","ND","ND","70.3","0.9","ND","ND","ND","ND","664","0"],
    [78884,"2019-05-06T15:00:00","19.6","ND","ND","ND","54.4","0.4","ND","ND","ND","ND","664","0"],
    [78885,"2019-05-06T16:00:00","13.3","ND","ND","ND","ND","1.8","ND","ND","ND","ND","407","0"],
    [78886,"2019-05-06T17:00:00","39.5","ND","ND","ND","58.5","6.6","ND","ND","ND","ND","491","0"],
    [78887,"2019-05-06T18:00:00","27.3","ND","ND","ND","26.7","2.6","ND","ND","ND","ND","396","0"],
    [78888,"2019-05-06T19:00:00","16.3","ND","ND","ND","11.1","1.7","ND","ND","ND","ND","0","0.5"],
    [78889,"2019-05-06T20:00:00","10.2","ND","ND","ND","6.6","2.3","ND","ND","ND","ND","0","0"],
    [78890,"2019-05-06T21:00:00","20.9","ND","ND","ND","4.3","2.2","ND","ND","ND","ND","0","3.2"],
    [78891,"2019-05-06T22:00:00","32.9","ND","ND","ND","2","3.4","ND","ND","ND","ND","0","ND"],
    [78892,"2019-05-06T23:00:00","33.7","ND","ND","ND","2.1","2.8","ND","ND","ND","ND","0","1"],
    [78893,"2019-05-07T00:00:00","13.9","ND","ND","ND","2.3","3.9","ND","ND","ND","ND","0","0.1"],
    [78894,"2019-05-07T01:00:00","32.2","ND","ND","ND","2.4","3.3","ND","ND","ND","ND","0","0"],
    [78895,"2019-05-07T02:00:00","27.2","ND","ND","ND","2.2","2.7","ND","ND","ND","ND","0","0"],
    [78896,"2019-05-07T03:00:00","40.5","ND","ND","ND","3.7","2.6","ND","ND","ND","ND","0","ND"],
    [78897,"2019-05-07T04:00:00","61.4","ND","ND","ND","4.4","2.7","ND","ND","ND","ND","0","ND"],
    [78898,"2019-05-07T05:00:00","32.6","ND","ND","ND","3","1.9","ND","ND","ND","ND","0","ND"],
    [78899,"2019-05-07T06:00:00","30.8","ND","ND","ND","2.4","2.1","ND","ND","ND","ND","0","0"],
    [78900,"2019-05-07T07:00:00","62.4","ND","ND","ND","2.5","3.8","ND","ND","ND","ND","0","0"],
    [78901,"2019-05-07T08:00:00","72","ND","ND","ND","3.4","4.4","ND","ND","ND","ND","113","0"],
    [78902,"2019-05-07T09:00:00","74.1","ND","ND","ND","7.2","3.4","ND","ND","ND","ND","287","0"],
    [78903,"2019-05-07T10:00:00","61.1","ND","ND","ND","24.2","3.1","ND","ND","ND","ND","575","ND"],
    [78904,"2019-05-07T11:00:00","57.8","ND","ND","ND","45.7","2.4","ND","ND","ND","ND","611","0"],
    [78905,"2019-05-07T12:00:00","54.9","ND","ND","ND","63.6","2.2","ND","ND","ND","ND","665","0"],
    [78906,"2019-05-07T13:00:00","57.6","ND","ND","ND","80.3","1.6","ND","ND","ND","ND","664","0"],
    [78907,"2019-05-07T14:00:00","31.6","ND","ND","ND","28.2","1.6","ND","ND","ND","ND","649","ND"],
    [78908,"2019-05-07T15:00:00","14.6","ND","ND","ND","30.3","1.3","ND","ND","ND","ND","555","ND"],
    [78909,"2019-05-07T16:00:00","30.4","ND","ND","ND","27.1","1.1","ND","ND","ND","ND","665","0"],
    [78910,"2019-05-07T17:00:00","19.6","ND","ND","ND","34.9","1.3","ND","ND","ND","ND","657","0"],
    [78911,"2019-05-07T18:00:00","5.2","ND","ND","ND","20.8","1","ND","ND","ND","ND","493","0"],
    [78912,"2019-05-07T19:00:00","4.5","ND","ND","ND","5.1","1.2","ND","ND","ND","ND","0","0"],
    [78913,"2019-05-07T20:00:00","43.3","ND","ND","ND","2.1","0.9","ND","ND","ND","ND","0","0.5"],
    [78914,"2019-05-07T21:00:00","48.6","ND","ND","ND","2","1.9","ND","ND","ND","ND","0","0.7"],
    [78915,"2019-05-07T22:00:00","37.1","ND","ND","ND","1.7","4.5","ND","ND","ND","ND","0","0"],
    [78916,"2019-05-07T23:00:00","50.4","ND","ND","ND","1.7","3.3","ND","ND","ND","ND","0","0"],
    [78917,"2019-05-08T00:00:00","20.6","ND","ND","ND","1.8","3","ND","ND","ND","ND","0","0"],
    [78918,"2019-05-08T01:00:00","38.4","ND","ND","ND","1.7","3","ND","ND","ND","ND","0","0"],
    [78919,"2019-05-08T02:00:00","9.3","ND","ND","ND","1.6","3","ND","ND","ND","ND","0","0"],
    [78920,"2019-05-08T03:00:00","53.5","ND","ND","ND","1.6","2.8","ND","ND","ND","ND","0","0"],
    [78921,"2019-05-08T04:00:00","52.5","ND","ND","ND","1.8","2.9","ND","ND","ND","ND","0","0"],
    [78922,"2019-05-08T05:00:00","27.1","ND","ND","ND","1.7","3.7","ND","ND","ND","ND","0","0"],
    [78923,"2019-05-08T06:00:00","27.4","ND","ND","ND","2","3.4","ND","ND","ND","ND","0","0"],
    [78924,"2019-05-08T07:00:00","59.7","ND","ND","ND","2.7","4.8","ND","ND","ND","ND","0","0"],
    [78925,"2019-05-08T08:00:00","51.5","ND","ND","ND","3.4","5.3","ND","ND","ND","ND","30","0"],
    [78926,"2019-05-08T09:00:00","77.6","ND","ND","ND","5.4","3.2","ND","ND","ND","ND","240","0"],
    [78927,"2019-05-08T10:00:00","60.7","ND","ND","ND","9.9","2.9","ND","ND","ND","ND","436","0"],
    [78928,"2019-05-08T11:00:00","75.9","ND","ND","ND","29.3","2.4","ND","ND","ND","ND","610","0"],
    [78929,"2019-05-08T12:00:00","62.8","ND","ND","ND","51.3","1.9","ND","ND","ND","ND","665","0"],
    [78930,"2019-05-08T13:00:00","30.4","ND","ND","ND","53.8","1.4","ND","ND","ND","ND","665","0"],
    [78931,"2019-05-08T14:00:00","38.5","ND","ND","ND","52.9","1.4","ND","ND","ND","ND","665","0"],
    [78932,"2019-05-08T15:00:00","16.3","ND","ND","ND","47","1.5","ND","ND","ND","ND","665","0"],
    [78933,"2019-05-08T16:00:00","42","ND","ND","ND","23.6","1.3","ND","ND","ND","ND","340","0"],
    [78934,"2019-05-08T17:00:00","41.9","ND","ND","ND","19.1","0.8","ND","ND","ND","ND","148","0"],
    [78935,"2019-05-08T18:00:00","6.9","ND","ND","ND","16.2","1.1","ND","ND","ND","ND","364","0"],
    [78936,"2019-05-08T19:00:00","3","ND","ND","ND","8","0.8","ND","ND","ND","ND","0","0"],
    [78937,"2019-05-08T20:00:00","15.6","ND","ND","ND","3.7","1.1","ND","ND","ND","ND","0","0"],
    [78938,"2019-05-08T21:00:00","34.7","ND","ND","ND","8.2","1","ND","ND","ND","ND","0","0"],
    [78939,"2019-05-08T22:00:00","16.9","ND","ND","ND","8.3","0.9","ND","ND","ND","ND","0","0"],
    [78940,"2019-05-08T23:00:00","22.5","ND","ND","ND","9.2","1.3","ND","ND","ND","ND","0","0"],
    [78941,"2019-05-09T00:00:00","30.8","ND","ND","ND","6","1.4","ND","ND","ND","ND","0","0"],
    [78942,"2019-05-09T01:00:00","39.4","ND","ND","ND","3.7","1","ND","ND","ND","ND","0","0"],
    [78943,"2019-05-09T02:00:00","37","ND","ND","ND","2.6","1.5","ND","ND","ND","ND","0","0"],
    [78944,"2019-05-09T03:00:00","31.9","ND","ND","ND","5.7","2","ND","ND","ND","ND","0","0"],
    [78945,"2019-05-09T04:00:00","18.3","ND","ND","ND","5.4","1.2","ND","ND","ND","ND","0","0"],
    [78946,"2019-05-09T05:00:00","ND","ND","ND","ND","3.1","0.9","ND","ND","ND","ND","0","0"],
    [78947,"2019-05-09T06:00:00","ND","ND","ND","ND","1.9","1.8","ND","ND","ND","ND","0","0"],
    [78948,"2019-05-09T07:00:00","7","ND","ND","ND","1.6","2.3","ND","ND","ND","ND","0","0"],
    [78949,"2019-05-09T08:00:00","8.9","ND","ND","ND","1.7","1.5","ND","ND","ND","ND","14","0"],
    [78950,"2019-05-09T09:00:00","27.3","ND","ND","ND","1.8","1.7","ND","ND","ND","ND","129","0"],
    [78951,"2019-05-09T10:00:00","12.8","ND","ND","ND","3","1.8","ND","ND","ND","ND","235","0"],
    [78952,"2019-05-09T11:00:00","24.6","ND","ND","ND","8.1","2.2","ND","ND","ND","ND","577","0"],
    [78953,"2019-05-09T12:00:00","20.9","ND","ND","ND","39.3","1.3","ND","ND","ND","ND","553","0"],
    [78954,"2019-05-09T13:00:00","30.2","ND","ND","ND","54.7","1.3","ND","ND","ND","ND","659","0"],
    [78955,"2019-05-09T14:00:00","17.5","ND","ND","ND","42","1.1","ND","ND","ND","ND","541","0"],
    [78956,"2019-05-09T15:00:00","23.5","ND","ND","ND","23.3","1.4","ND","ND","ND","ND","658","0"],
    [78957,"2019-05-09T16:00:00","1.6","ND","ND","ND","6.2","1.2","ND","ND","ND","ND","162","0"],
    [78958,"2019-05-09T17:00:00","ND","ND","ND","ND","1.6","1.2","ND","ND","ND","ND","58","0"],
    [78959,"2019-05-09T18:00:00","8.6","ND","ND","ND","1.3","1.2","ND","ND","ND","ND","122","0"],
    [78960,"2019-05-09T19:00:00","4.2","ND","ND","ND","1.3","0.7","ND","ND","ND","ND","0","0"],
    [78961,"2019-05-09T20:00:00","22","ND","ND","ND","1.4","1.1","ND","ND","ND","ND","0","0.4"],
    [78962,"2019-05-09T21:00:00","26","ND","ND","ND","1.4","1","ND","ND","ND","ND","0","0.1"],
    [78963,"2019-05-09T22:00:00","1.4","ND","ND","ND","1.3","0.9","ND","ND","ND","ND","0","0"],
    [78964,"2019-05-09T23:00:00","0.6","ND","ND","ND","1.2","1.2","ND","ND","ND","ND","0","0"],
    [78965,"2019-05-10T00:00:00","0.3","ND","ND","ND","1.2","1","ND","ND","ND","ND","0","0"],
    [78966,"2019-05-10T01:00:00","ND","ND","ND","ND","1.3","1.3","ND","ND","ND","ND","0","0"],
    [78967,"2019-05-10T02:00:00","5.6","ND","ND","ND","1.3","2.1","ND","ND","ND","ND","0","0"],
    [78968,"2019-05-10T03:00:00","19.6","ND","ND","ND","1.3","2.4","ND","ND","ND","ND","0","0"],
    [78969,"2019-05-10T04:00:00","23.2","ND","ND","ND","1.4","1.5","ND","ND","ND","ND","0","0"],
    [78970,"2019-05-10T05:00:00","32.6","ND","ND","ND","1.3","2","ND","ND","ND","ND","0","0"],
    [78971,"2019-05-10T06:00:00","24.3","ND","ND","ND","1.4","2.1","ND","ND","ND","ND","0","0"],
    [78972,"2019-05-10T07:00:00","20.9","ND","ND","ND","1.3","2.3","ND","ND","ND","ND","0","0"],
    [78973,"2019-05-10T08:00:00","55.5","ND","ND","ND","1.6","1.9","ND","ND","ND","ND","50","0"],
    [78974,"2019-05-10T09:00:00","58.2","ND","ND","ND","1.6","1.7","ND","ND","ND","ND","190","0"],
    [78975,"2019-05-10T10:00:00","101.5","ND","ND","ND","3.5","1.3","ND","ND","ND","ND","579","0"],
    [78976,"2019-05-10T11:00:00","64.6","ND","ND","ND","9.5","1.2","ND","ND","ND","ND","593","0.1"],
    [78977,"2019-05-10T12:00:00","21.9","ND","ND","ND","22.5","1.5","ND","ND","ND","ND","472","0"],
    [78978,"2019-05-10T13:00:00","15.5","ND","ND","ND","47.3","1","ND","ND","ND","ND","664","0"],
    [78979,"2019-05-10T14:00:00","61.1","ND","ND","ND","76.9","1.2","ND","ND","ND","ND","664","0"],
    [78980,"2019-05-10T15:00:00","101.7","ND","ND","ND","81.8","1.2","ND","ND","ND","ND","664","0"],
    [78981,"2019-05-10T16:00:00","18.7","ND","ND","ND","38","2.2","ND","ND","ND","ND","643","0"],
    [78982,"2019-05-10T17:00:00","38.3","ND","ND","ND","13","1.2","ND","ND","ND","ND","304","0"],
    [78983,"2019-05-10T18:00:00","27.7","ND","ND","ND","3.6","0.9","ND","ND","ND","ND","283","0"],
    [78984,"2019-05-10T19:00:00","43","ND","ND","ND","1.4","0.9","ND","ND","ND","ND","0","0"],
    [78985,"2019-05-10T20:00:00","29.7","ND","ND","ND","1.7","0.9","ND","ND","ND","ND","0","0"],
    [78986,"2019-05-10T21:00:00","29.1","ND","ND","ND","1.5","1","ND","ND","ND","ND","0","0"],
    [78987,"2019-05-10T22:00:00","27.9","ND","ND","ND","1.4","0.8","ND","ND","ND","ND","0","0"],
    [78988,"2019-05-10T23:00:00","36","ND","ND","ND","1.5","1.5","ND","ND","ND","ND","0","0"],
    [78989,"2019-05-11T00:00:00","63","ND","ND","ND","1.6","1.4","ND","ND","ND","ND","0","0"],
    [78990,"2019-05-11T01:00:00","35.1","ND","ND","ND","1.7","1.5","ND","ND","ND","ND","0","0"],
    [78991,"2019-05-11T02:00:00","4.9","ND","ND","ND","1.6","1.5","ND","ND","ND","ND","0","0"],
    [78992,"2019-05-11T03:00:00","23","ND","ND","ND","1.4","1.1","ND","ND","ND","ND","0","0"],
    [78993,"2019-05-11T04:00:00","43.4","ND","ND","ND","1.7","2.2","ND","ND","ND","ND","0","0"],
    [78994,"2019-05-11T05:00:00","53","ND","ND","ND","1.7","2.9","ND","ND","ND","ND","0","0"],
    [78995,"2019-05-11T06:00:00","10.6","ND","ND","ND","1.6","3.2","ND","ND","ND","ND","0","0"],
    [78996,"2019-05-11T07:00:00","48","ND","ND","ND","1.6","2.3","ND","ND","ND","ND","0","0"],
    [78997,"2019-05-11T08:00:00","56.3","ND","ND","ND","1.6","2.5","ND","ND","ND","ND","77","0"],
    [78998,"2019-05-11T09:00:00","119.7","ND","ND","ND","7.3","1.3","ND","ND","ND","ND","477","0.1"],
    [78999,"2019-05-11T10:00:00","60.6","ND","ND","ND","31.8","1.5","ND","ND","ND","ND","371","0"],
    [79000,"2019-05-11T11:00:00","6.4","ND","ND","ND","53.4","1.3","ND","ND","ND","ND","625","0"],
    [79001,"2019-05-11T12:00:00","29.4","ND","ND","ND","71.1","1.3","ND","ND","ND","ND","664","0"],
    [79002,"2019-05-11T13:00:00","24.4","ND","ND","ND","71","1.2","ND","ND","ND","ND","664","0"],
    [79003,"2019-05-11T14:00:00","29.3","ND","ND","ND","62.9","1","ND","ND","ND","ND","661","0"],
    [79004,"2019-05-11T15:00:00","13.5","ND","ND","ND","42.7","1.2","ND","ND","ND","ND","663","0"],
    [79005,"2019-05-11T16:00:00","3.5","ND","ND","ND","15","1","ND","ND","ND","ND","479","0"],
    [79006,"2019-05-11T17:00:00","4.3","ND","ND","ND","15.4","0.9","ND","ND","ND","ND","341","0"],
    [79007,"2019-05-11T18:00:00","23","ND","ND","ND","11.5","1.1","ND","ND","ND","ND","388","0"],
    [79008,"2019-05-11T19:00:00","15.3","ND","ND","ND","4.2","1","ND","ND","ND","ND","0","0.1"],
    [79009,"2019-05-11T20:00:00","20.1","ND","ND","ND","1.8","1","ND","ND","ND","ND","0","0"],
    [79010,"2019-05-11T21:00:00","47.3","ND","ND","ND","2.4","1.4","ND","ND","ND","ND","0","0"],
    [79011,"2019-05-11T22:00:00","21.6","ND","ND","ND","3.6","1.2","ND","ND","ND","ND","0","0"],
    [79012,"2019-05-11T23:00:00","10.5","ND","ND","ND","1.5","1.6","ND","ND","ND","ND","0","0"],
    [79013,"2019-05-12T00:00:00","18.3","ND","ND","ND","1.4","1.8","ND","ND","ND","ND","0","0"],
    [79014,"2019-05-12T01:00:00","16.9","ND","ND","ND","3","1.6","ND","ND","ND","ND","0","0"],
    [79015,"2019-05-12T02:00:00","12.7","ND","ND","ND","3.1","1.2","ND","ND","ND","ND","0","0"],
    [79016,"2019-05-12T03:00:00","14.1","ND","ND","ND","2.3","1.7","ND","ND","ND","ND","0","0"],
    [79017,"2019-05-12T04:00:00","28.6","ND","ND","ND","2.2","1.8","ND","ND","ND","ND","0","0"],
    [79018,"2019-05-12T05:00:00","29.5","ND","ND","ND","1.9","1.3","ND","ND","ND","ND","0","0"],
    [79019,"2019-05-12T06:00:00","21.1","ND","ND","ND","1.7","1.3","ND","ND","ND","ND","0","0"],
    [79020,"2019-05-12T07:00:00","31.2","ND","ND","ND","1.6","1.5","ND","ND","ND","ND","0","0"],
    [79021,"2019-05-12T08:00:00","13.6","ND","ND","ND","2.4","1.7","ND","ND","ND","ND","20","0"],
    [79022,"2019-05-12T09:00:00","47.9","ND","ND","ND","4.6","1.7","ND","ND","ND","ND","250","0"],
    [79023,"2019-05-12T10:00:00","45.9","ND","ND","ND","9.5","0.8","ND","ND","ND","ND","590","0"],
    [79024,"2019-05-12T11:00:00","47.5","ND","ND","ND","13.4","1.3","ND","ND","ND","ND","659","0"],
    [79025,"2019-05-12T12:00:00","24.2","ND","ND","ND","19.4","1","ND","ND","ND","ND","664","0"],
    [79026,"2019-05-12T13:00:00","17.2","ND","ND","ND","21.8","1.1","ND","ND","ND","ND","664","0"],
    [79027,"2019-05-12T14:00:00","1.6","ND","ND","ND","23.8","1.3","ND","ND","ND","ND","664","0"],
    [79028,"2019-05-12T15:00:00","11.7","ND","ND","ND","28.4","0.9","ND","ND","ND","ND","664","0"],
    [79029,"2019-05-12T16:00:00","10.4","ND","ND","ND","31.6","0.9","ND","ND","ND","ND","664","0"],
    [79030,"2019-05-12T17:00:00","19.9","ND","ND","ND","23.5","1","ND","ND","ND","ND","652","0"],
    [79031,"2019-05-12T18:00:00","2.2","ND","ND","ND","13.7","0.5","ND","ND","ND","ND","520","0"],
    [79032,"2019-05-12T19:00:00","ND","ND","ND","ND","8.2","0.9","ND","ND","ND","ND","0","0"],
    [79033,"2019-05-12T20:00:00","6.9","ND","ND","ND","1.7","0.8","ND","ND","ND","ND","0","0"],
    [79034,"2019-05-12T21:00:00","19.1","ND","ND","ND","2","0.9","ND","ND","ND","ND","0","0.2"],
    [79035,"2019-05-12T22:00:00","18","ND","ND","ND","1.6","0.9","ND","ND","ND","ND","0","0"],
    [79036,"2019-05-12T23:00:00","23.3","ND","ND","ND","1.9","2","ND","ND","ND","ND","0","0"],
    [79037,"2019-05-13T00:00:00","38.5","ND","ND","ND","2.1","1.7","ND","ND","ND","ND","0","0"],
    [79038,"2019-05-13T01:00:00","32.4","ND","ND","ND","3.1","2.1","ND","ND","ND","ND","0","0"],
    [79039,"2019-05-13T02:00:00","14.7","ND","ND","ND","2.8","1.8","ND","ND","ND","ND","0","0"],
    [79040,"2019-05-13T03:00:00","13.1","ND","ND","ND","1.6","3.1","ND","ND","ND","ND","0","0"],
    [79041,"2019-05-13T04:00:00","23.2","ND","ND","ND","1.6","3.9","ND","ND","ND","ND","0","0"],
    [79042,"2019-05-13T05:00:00","39.5","ND","ND","ND","1.8","3.5","ND","ND","ND","ND","0","0"],
    [79043,"2019-05-13T06:00:00","45.5","ND","ND","ND","1.5","3.7","ND","ND","ND","ND","0","0"],
    [79044,"2019-05-13T07:00:00","41.3","ND","ND","ND","1.7","3.2","ND","ND","ND","ND","0","0"],
    [79045,"2019-05-13T08:00:00","57.9","ND","ND","ND","2.2","3.6","ND","ND","ND","ND","63","0"],
    [79046,"2019-05-13T09:00:00","94.8","ND","ND","ND","2.6","8.9","ND","ND","ND","ND","326","0"],
    [79047,"2019-05-13T10:00:00","64.5","ND","ND","ND","5.7","4.9","ND","ND","ND","ND","384","0"],
    [79048,"2019-05-13T11:00:00","60.1","ND","ND","ND","5.1","3.2","ND","ND","ND","ND","426","0"],
    [79049,"2019-05-13T12:00:00","56.9","ND","ND","ND","6.8","4.5","ND","ND","ND","ND","525","0"],
    [79050,"2019-05-13T13:00:00","38.7","ND","ND","ND","10.8","3.2","ND","ND","ND","ND","640","0"],
    [79051,"2019-05-13T14:00:00","20.6","ND","ND","ND","16.4","2","ND","ND","ND","ND","560","0"],
    [79052,"2019-05-13T15:00:00","42.5","ND","ND","ND","23.9","1.7","ND","ND","ND","ND","586","0"],
    [79053,"2019-05-13T16:00:00","26.8","ND","ND","ND","28.4","1.5","ND","ND","ND","ND","521","0"],
    [79054,"2019-05-13T17:00:00","22","ND","ND","ND","19.5","0.9","ND","ND","ND","ND","452","0"],
    [79055,"2019-05-13T18:00:00","7.3","ND","ND","ND","9","1","ND","ND","ND","ND","407","0"],
    [79056,"2019-05-13T19:00:00","ND","ND","ND","ND","2.9","1.2","ND","ND","ND","ND","0","0.1"],
    [79057,"2019-05-13T20:00:00","15.9","ND","ND","ND","1.9","0.7","ND","ND","ND","ND","0","0"],
    [79058,"2019-05-13T21:00:00","33.4","ND","ND","ND","1.8","1.2","ND","ND","ND","ND","0","0"],
    [79059,"2019-05-13T22:00:00","45.7","ND","ND","ND","1.8","3.8","ND","ND","ND","ND","0","0"],
    [79060,"2019-05-13T23:00:00","35.2","ND","ND","ND","1.6","2.8","ND","ND","ND","ND","0","0"],
    [79061,"2019-05-14T00:00:00","40.6","ND","ND","ND","1.8","1.9","ND","ND","ND","ND","0","0"],
    [79062,"2019-05-14T01:00:00","25.5","ND","ND","ND","1.8","1.8","ND","ND","ND","ND","0","0"],
    [79063,"2019-05-14T02:00:00","44.7","ND","ND","ND","2","2.4","ND","ND","ND","ND","0","0"],
    [79064,"2019-05-14T03:00:00","41.7","ND","ND","ND","1.6","1.7","ND","ND","ND","ND","0","0"],
    [79065,"2019-05-14T04:00:00","30.9","ND","ND","ND","2.2","2.7","ND","ND","ND","ND","0","0"],
    [79066,"2019-05-14T05:00:00","26","ND","ND","ND","3.2","4.5","ND","ND","ND","ND","0","0"],
    [79067,"2019-05-14T06:00:00","60.9","ND","ND","ND","2.6","19.3","ND","ND","ND","ND","0","0"],
    [79068,"2019-05-14T07:00:00","15","ND","ND","ND","2.1","11.4","ND","ND","ND","ND","0","0.1"],
    [79069,"2019-05-14T08:00:00","58.1","ND","ND","ND","3.2","4.6","ND","ND","ND","ND","151","0"],
    [79070,"2019-05-14T09:00:00","55.8","ND","ND","ND","7.1","2.6","ND","ND","ND","ND","386","0.1"],
    [79071,"2019-05-14T10:00:00","43.9","ND","ND","ND","17.7","1.6","ND","ND","ND","ND","571","0"],
    [79072,"2019-05-14T11:00:00","52.3","ND","ND","ND","39.7","1.3","ND","ND","ND","ND","656","0"],
    [79073,"2019-05-14T12:00:00","44.1","ND","ND","ND","57.9","1.2","ND","ND","ND","ND","662","0.1"],
    [79074,"2019-05-14T13:00:00","36.1","ND","ND","ND","67.2","1.2","ND","ND","ND","ND","665","0"],
    [79075,"2019-05-14T14:00:00","33.6","ND","ND","ND","78.1","1.2","ND","ND","ND","ND","655","0"],
    [79076,"2019-05-14T15:00:00","14.5","ND","ND","ND","82.4","1.1","ND","ND","ND","ND","653","0"],
    [79077,"2019-05-14T16:00:00","10.6","ND","ND","ND","86.3","1","ND","ND","ND","ND","626","0"],
    [79078,"2019-05-14T17:00:00","15.9","ND","ND","ND","60","0.8","ND","ND","ND","ND","520","0"],
    [79079,"2019-05-14T18:00:00","ND","ND","ND","ND","33.1","0.9","ND","ND","ND","ND","270","0"],
    [79080,"2019-05-14T19:00:00","35.1","ND","ND","ND","5.7","1.7","ND","ND","ND","ND","0","0.1"],
    [79081,"2019-05-14T20:00:00","69.5","ND","ND","ND","2.8","1.3","ND","ND","ND","ND","0","0"],
    [79082,"2019-05-14T21:00:00","24.3","ND","ND","ND","10.7","1.2","ND","ND","ND","ND","0","0"],
    [79083,"2019-05-14T22:00:00","2.8","ND","ND","ND","6.9","0.8","ND","ND","ND","ND","0","0.1"],
    [79084,"2019-05-14T23:00:00","6.4","ND","ND","ND","2.6","1.6","ND","ND","ND","ND","0","0"],
    [79085,"2019-05-15T00:00:00","0.7","ND","ND","ND","1.7","2.7","ND","ND","ND","ND","0","0"],
    [79086,"2019-05-15T01:00:00","33.1","ND","ND","ND","1.7","2.8","ND","ND","ND","ND","0","0"],
    [79087,"2019-05-15T02:00:00","64.9","ND","ND","ND","2.2","3.1","ND","ND","ND","ND","0","0"],
    [79088,"2019-05-15T03:00:00","56.6","ND","ND","ND","1.3","2.6","ND","ND","ND","ND","0","0.8"],
    [79089,"2019-05-15T04:00:00","38.1","ND","ND","ND","3.2","1.7","ND","ND","ND","ND","0","0.2"],
    [79090,"2019-05-15T05:00:00","7.9","ND","ND","ND","3.6","1.9","ND","ND","ND","ND","0","0.1"],
    [79091,"2019-05-15T06:00:00","25.9","ND","ND","ND","2.3","2.6","ND","ND","ND","ND","0","0"],
    [79092,"2019-05-15T07:00:00","46.3","ND","ND","ND","3","3.6","ND","ND","ND","ND","0","0.9"],
    [79093,"2019-05-15T08:00:00","86.9","ND","ND","ND","3.8","5","ND","ND","ND","ND","65","0.6"],
    [79094,"2019-05-15T09:00:00","75.4","ND","ND","ND","8.9","4","ND","ND","ND","ND","392","0.2"],
    [79095,"2019-05-15T10:00:00","67.9","ND","ND","ND","15.8","2.3","ND","ND","ND","ND","624","0"],
    [79096,"2019-05-15T11:00:00","43.3","ND","ND","ND","25.5","1.6","ND","ND","ND","ND","664","0"],
    [79097,"2019-05-15T12:00:00","11.4","ND","ND","ND","41.2","1.1","ND","ND","ND","ND","664","0"],
    [79098,"2019-05-15T13:00:00","9.2","ND","ND","ND","69.4","1.3","ND","ND","ND","ND","665","0"],
    [79099,"2019-05-15T14:00:00","12.4","ND","ND","ND","89.4","1.5","ND","ND","ND","ND","665","0"],
    [79100,"2019-05-15T15:00:00","51.2","ND","ND","ND","93.3","1.7","ND","ND","ND","ND","665","0"],
    [79101,"2019-05-15T16:00:00","22.3","ND","ND","ND","33.9","1.2","ND","ND","ND","ND","639","0"],
    [79102,"2019-05-15T17:00:00","13.1","ND","ND","ND","24.4","0.9","ND","ND","ND","ND","ND","0"],
    [79103,"2019-05-15T18:00:00","4.2","ND","ND","ND","20.6","0.7","ND","ND","ND","ND","ND","0"],
    [79104,"2019-05-15T19:00:00","4.5","ND","ND","ND","12","1.1","ND","ND","ND","ND","0","0"],
    [79105,"2019-05-15T20:00:00","14.3","ND","ND","ND","14.4","0.8","ND","ND","ND","ND","0","0"],
    [79106,"2019-05-15T21:00:00","34.7","ND","ND","ND","4.2","0.6","ND","ND","ND","ND","0","0.1"],
    [79107,"2019-05-15T22:00:00","20.8","ND","ND","ND","3.2","1.1","ND","ND","ND","ND","0","0"],
    [79108,"2019-05-15T23:00:00","ND","ND","ND","ND","3.4","1","ND","ND","ND","ND","0","0"],
    [79109,"2019-05-16T00:00:00","7.8","ND","ND","ND","2.4","1.7","ND","ND","ND","ND","0","0"],
    [79110,"2019-05-16T01:00:00","29.5","ND","ND","ND","2","1.8","ND","ND","ND","ND","0","0.6"],
    [79111,"2019-05-16T02:00:00","10.3","ND","ND","ND","1.9","1.7","ND","ND","ND","ND","0","0"],
    [79112,"2019-05-16T03:00:00","ND","ND","ND","ND","1.5","1.3","ND","ND","ND","ND","0","0.6"],
    [79113,"2019-05-16T04:00:00","ND","ND","ND","ND","1.6","2.3","ND","ND","ND","ND","0","ND"],
    [79114,"2019-05-16T05:00:00","28.8","ND","ND","ND","2.3","5.7","ND","ND","ND","ND","0","0"],
    [79115,"2019-05-16T06:00:00","76.1","ND","ND","ND","2.5","5.7","ND","ND","ND","ND","0","0"],
    [79116,"2019-05-16T07:00:00","57.2","ND","ND","ND","2.5","5.4","ND","ND","ND","ND","0","0"],
    [79117,"2019-05-16T08:00:00","98.3","ND","ND","ND","2.5","4.1","ND","ND","ND","ND","53","0"],
    [79118,"2019-05-16T09:00:00","144.1","ND","ND","ND","2.7","3.8","ND","ND","ND","ND","360","0"],
    [79119,"2019-05-16T10:00:00","109.4","ND","ND","ND","12","2.1","ND","ND","ND","ND","476","0"],
    [79120,"2019-05-16T11:00:00","33","ND","ND","ND","26.8","2","ND","ND","ND","ND","664","0"],
    [79121,"2019-05-16T12:00:00","30.5","ND","ND","ND","39.9","1.7","ND","ND","ND","ND","664","0"],
    [79122,"2019-05-16T13:00:00","25","ND","ND","ND","57.9","1.7","ND","ND","ND","ND","665","0"],
    [79123,"2019-05-16T14:00:00","65.3","ND","ND","ND","40.7","1.6","ND","ND","ND","ND","660","0"],
    [79124,"2019-05-16T15:00:00","1","ND","ND","ND","21.4","0.9","ND","ND","ND","ND","655","0.1"],
    [79125,"2019-05-16T16:00:00","8.2","ND","ND","ND","18.8","0.7","ND","ND","ND","ND","665","0"],
    [79126,"2019-05-16T17:00:00","1.9","ND","ND","ND","15.4","1","ND","ND","ND","ND","664","0"],
    [79127,"2019-05-16T18:00:00","1.3","ND","ND","ND","14.9","1.1","ND","ND","ND","ND","548","0"],
    [79128,"2019-05-16T19:00:00","1.6","ND","ND","ND","6.1","2","ND","ND","ND","ND","0","0"],
    [79129,"2019-05-16T20:00:00","21.4","ND","ND","ND","9.5","1.2","ND","ND","ND","ND","0","0"],
    [79130,"2019-05-16T21:00:00","27.5","ND","ND","ND","7.5","1.8","ND","ND","ND","ND","0","0"],
    [79131,"2019-05-16T22:00:00","32.1","ND","ND","ND","4.9","0.9","ND","ND","ND","ND","0","0"],
    [79132,"2019-05-16T23:00:00","28.5","ND","ND","ND","2.1","1.6","ND","ND","ND","ND","0","0"],
    [79133,"2019-05-17T00:00:00","21.3","ND","ND","ND","2.2","3.5","ND","ND","ND","ND","0","0"],
    [79134,"2019-05-17T01:00:00","13.9","ND","ND","ND","1.9","3.3","ND","ND","ND","ND","ND","0"],
    [79135,"2019-05-17T02:00:00","14.3","ND","ND","ND","2.1","3.1","ND","ND","ND","ND","ND","0"],
    [79136,"2019-05-17T03:00:00","11.6","ND","ND","ND","1.8","1.5","ND","ND","ND","ND","0","0"],
    [79137,"2019-05-17T04:00:00","11.1","ND","ND","ND","2.2","2.7","ND","ND","ND","ND","0","0"],
    [79138,"2019-05-17T05:00:00","61.8","ND","ND","ND","2.2","3.8","ND","ND","ND","ND","0","0"],
    [79139,"2019-05-17T06:00:00","38.4","ND","ND","ND","2","3.1","ND","ND","ND","ND","0","0"],
    [79140,"2019-05-17T07:00:00","9.7","ND","ND","ND","2.3","3.2","ND","ND","ND","ND","ND","0"],
    [79141,"2019-05-17T08:00:00","15","ND","ND","ND","2.1","2.1","ND","ND","ND","ND","55","13.6"],
    [79142,"2019-05-17T09:00:00","82.6","ND","ND","ND","2.3","2.6","ND","ND","ND","ND","152","0"],
    [79143,"2019-05-17T10:00:00","70.3","ND","ND","ND","6.3","1.8","ND","ND","ND","ND","275","0"],
    [79144,"2019-05-17T11:00:00","31.5","ND","ND","ND","16.2","1.5","ND","ND","ND","ND","528","13.6"],
    [79145,"2019-05-17T12:00:00","37.2","ND","ND","ND","26","1.5","ND","ND","ND","ND","520","0"],
    [79146,"2019-05-17T13:00:00","30.2","ND","ND","ND","38","1.3","ND","ND","ND","ND","657","0"],
    [79147,"2019-05-17T14:00:00","24.9","ND","ND","ND","26.1","1.2","ND","ND","ND","ND","624","0"],
    [79148,"2019-05-17T15:00:00","18.8","ND","ND","ND","10.3","1.4","ND","ND","ND","ND","378","0.8"],
    [79149,"2019-05-17T16:00:00","1","ND","ND","ND","10.3","1.5","ND","ND","ND","ND","472","0"],
    [79150,"2019-05-17T17:00:00","3.6","ND","ND","ND","4.1","1.9","ND","ND","ND","ND","ND","0"],
    [79151,"2019-05-17T18:00:00","57.4","ND","ND","ND","2.6","1.5","ND","ND","ND","ND","267","0"],
    [79152,"2019-05-17T19:00:00","14.2","ND","ND","ND","2","0.9","ND","ND","ND","ND","122","0.8"],
    [79153,"2019-05-17T20:00:00","3","ND","ND","ND","2.7","1.2","ND","ND","ND","ND","ND","0"],
    [79154,"2019-05-17T21:00:00","28.1","ND","ND","ND","2.5","1","ND","ND","ND","ND","ND","0"],
    [79155,"2019-05-17T22:00:00","21.3","ND","ND","ND","2.1","1","ND","ND","ND","ND","ND","0"],
    [79156,"2019-05-17T23:00:00","39.4","ND","ND","ND","2.7","4.6","ND","ND","ND","ND","ND","0"],
    [79157,"2019-05-18T00:00:00","56","ND","ND","ND","2.6","5.9","ND","ND","ND","ND","0","13.6"],
    [79158,"2019-05-18T01:00:00","78","ND","ND","ND","2.6","6.9","ND","ND","ND","ND","0","0"],
    [79159,"2019-05-18T02:00:00","71","ND","ND","ND","2","5.3","ND","ND","ND","ND","0","0"],
    [79160,"2019-05-18T03:00:00","41","ND","ND","ND","2","4.2","ND","ND","ND","ND","0","0"],
    [79161,"2019-05-18T04:00:00","39.7","ND","ND","ND","2.1","3.3","ND","ND","ND","ND","ND","0"],
    [79162,"2019-05-18T05:00:00","44.9","ND","ND","ND","2.1","3.8","ND","ND","ND","ND","ND","4.3"],
    [79163,"2019-05-18T06:00:00","19.9","ND","ND","ND","1.9","4.2","ND","ND","ND","ND","ND","0"],
    [79164,"2019-05-18T07:00:00","19.3","ND","ND","ND","2.1","3.2","ND","ND","ND","ND","ND","0"],
    [79165,"2019-05-18T08:00:00","60.2","ND","ND","ND","2.1","3.7","ND","ND","ND","ND","ND","0"],
    [79166,"2019-05-18T09:00:00","47.8","ND","ND","ND","3.5","3.3","ND","ND","ND","ND","ND","0"],
    [79167,"2019-05-18T10:00:00","41.8","ND","ND","ND","7","1.4","ND","ND","ND","ND","489","0"],
    [79168,"2019-05-18T11:00:00","27.8","ND","ND","ND","17.8","1.2","ND","ND","ND","ND","518","0"],
    [79169,"2019-05-18T12:00:00","27","ND","ND","ND","24.2","1.1","ND","ND","ND","ND","663","0"],
    [79170,"2019-05-18T13:00:00","13.6","ND","ND","ND","35.9","1","ND","ND","ND","ND","664","0"],
    [79171,"2019-05-18T14:00:00","9.2","ND","ND","ND","57","0.9","ND","ND","ND","ND","665","0"],
    [79172,"2019-05-18T15:00:00","21.4","ND","ND","ND","73.9","1.1","ND","ND","ND","ND","664","4.3"],
    [79173,"2019-05-18T16:00:00","38.5","ND","ND","ND","67.3","1","ND","ND","ND","ND","664","0"],
    [79174,"2019-05-18T17:00:00","6.3","ND","ND","ND","28.2","1.3","ND","ND","ND","ND","564","0"],
    [79175,"2019-05-18T18:00:00","ND","ND","ND","ND","8.2","0.7","ND","ND","ND","ND","307","0"],
    [79176,"2019-05-18T19:00:00","0.7","ND","ND","ND","4.4","0.9","ND","ND","ND","ND","0","0"],
    [79177,"2019-05-18T20:00:00","6.6","ND","ND","ND","2.3","1.8","ND","ND","ND","ND","0","0.5"],
    [79178,"2019-05-18T21:00:00","24.8","ND","ND","ND","8.4","1.4","ND","ND","ND","ND","0","0.1"],
    [79179,"2019-05-18T22:00:00","8.4","ND","ND","ND","7.4","1.2","ND","ND","ND","ND","0","0.4"],
    [79180,"2019-05-18T23:00:00","35.2","ND","ND","ND","5.8","0.9","ND","ND","ND","ND","0","0"],
    [79181,"2019-05-19T00:00:00","44","ND","ND","ND","3.7","1.2","ND","ND","ND","ND","0","0"],
    [79182,"2019-05-19T01:00:00","30.5","ND","ND","ND","9.8","1.1","ND","ND","ND","ND","0","0"],
    [79183,"2019-05-19T02:00:00","3.6","ND","ND","ND","12.8","0.8","ND","ND","ND","ND","0","ND"],
    [79184,"2019-05-19T03:00:00","0.9","ND","ND","ND","7.9","1","ND","ND","ND","ND","0","ND"],
    [79185,"2019-05-19T04:00:00","0.2","ND","ND","ND","3.4","2.9","ND","ND","ND","ND","0","0"],
    [79186,"2019-05-19T05:00:00","ND","ND","ND","ND","3.2","2.1","ND","ND","ND","ND","0","0"],
    [79187,"2019-05-19T06:00:00","ND","ND","ND","ND","2.3","1.1","ND","ND","ND","ND","0","0"],
    [79188,"2019-05-19T07:00:00","0.1","ND","ND","ND","2","4.3","ND","ND","ND","ND","0","0"],
    [79189,"2019-05-19T08:00:00","14","ND","ND","ND","2","4.8","ND","ND","ND","ND","24","ND"],
    [79190,"2019-05-19T09:00:00","24.9","ND","ND","ND","2.2","3.1","ND","ND","ND","ND","78","0"],
    [79191,"2019-05-19T10:00:00","21.2","ND","ND","ND","3.6","1.7","ND","ND","ND","ND","264","0"],
    [79192,"2019-05-19T11:00:00","28","ND","ND","ND","4.5","1.3","ND","ND","ND","ND","387","0"],
    [79193,"2019-05-19T12:00:00","18.1","ND","ND","ND","9.3","0.9","ND","ND","ND","ND","346","ND"],
    [79194,"2019-05-19T13:00:00","5.3","ND","ND","ND","16.5","0.7","ND","ND","ND","ND","492","0"],
    [79195,"2019-05-19T14:00:00","1.9","ND","ND","ND","18.8","0.8","ND","ND","ND","ND","658","0"],
    [79196,"2019-05-19T15:00:00","7.4","ND","ND","ND","22.7","0.8","ND","ND","ND","ND","664","0"],
    [79197,"2019-05-19T16:00:00","6.4","ND","ND","ND","19.6","0.7","ND","ND","ND","ND","663","0"],
    [79198,"2019-05-19T17:00:00","ND","ND","ND","ND","16.5","0.8","ND","ND","ND","ND","555","0"],
    [79199,"2019-05-19T18:00:00","2.2","ND","ND","ND","14.5","0.7","ND","ND","ND","ND","268","0"],
    [79200,"2019-05-19T19:00:00","18.4","ND","ND","ND","4.1","0.5","ND","ND","ND","ND","0","ND"],
    [79201,"2019-05-19T20:00:00","12.3","ND","ND","ND","2.2","0.8","ND","ND","ND","ND","0","ND"],
    [79202,"2019-05-19T21:00:00","20.3","ND","ND","ND","1.7","0.9","ND","ND","ND","ND","0","0"],
    [79203,"2019-05-19T22:00:00","21.5","ND","ND","ND","2.1","1.3","ND","ND","ND","ND","0","0"],
    [79204,"2019-05-19T23:00:00","17.6","ND","ND","ND","2","1.7","ND","ND","ND","ND","0","ND"],
    [79205,"2019-05-20T00:00:00","ND","ND","ND","ND","2.1","1.3","ND","ND","ND","ND","0","ND"],
    [79206,"2019-05-20T01:00:00","1.9","ND","ND","ND","2","2.3","ND","ND","ND","ND","0","0"],
    [79207,"2019-05-20T02:00:00","10.2","ND","ND","ND","1.9","1.2","ND","ND","ND","ND","0","0"],
    [79208,"2019-05-20T03:00:00","ND","ND","ND","ND","1.7","0.8","ND","ND","ND","ND","0","0"],
    [79209,"2019-05-20T04:00:00","3.8","ND","ND","ND","1.8","0.6","ND","ND","ND","ND","0","0"],
    [79210,"2019-05-20T05:00:00","3.5","ND","ND","ND","1.9","1.3","ND","ND","ND","ND","0","0"],
    [79211,"2019-05-20T06:00:00","29.7","ND","ND","ND","1.9","1.1","ND","ND","ND","ND","0","10"],
    [79212,"2019-05-20T07:00:00","24.6","ND","ND","ND","2.1","1.3","ND","ND","ND","ND","0","0"],
    [79213,"2019-05-20T08:00:00","32.1","ND","ND","ND","2.1","1.9","ND","ND","ND","ND","ND","0"],
    [79214,"2019-05-20T09:00:00","86.6","ND","ND","ND","2.2","2","ND","ND","ND","ND","120","0"],
    [79215,"2019-05-20T10:00:00","56.5","ND","ND","ND","3.4","1.8","ND","ND","ND","ND","415","0"],
    [79216,"2019-05-20T11:00:00","41.6","ND","ND","ND","8.9","1.4","ND","ND","ND","ND","623","0"],
    [79217,"2019-05-20T12:00:00","46.3","ND","ND","ND","15.8","1.3","ND","ND","ND","ND","ND","0"],
    [79218,"2019-05-20T13:00:00","27","ND","ND","ND","42.8","1.3","ND","ND","ND","ND","664","0"],
    [79219,"2019-05-20T14:00:00","58.9","ND","ND","ND","62","1.1","ND","ND","ND","ND","664","0"],
    [79220,"2019-05-20T15:00:00","28.1","ND","ND","ND","77.1","1.2","ND","ND","ND","ND","664","0"],
    [79221,"2019-05-20T16:00:00","36.6","ND","ND","ND","70.7","1.1","ND","ND","ND","ND","665","0"],
    [79222,"2019-05-20T17:00:00","52.6","ND","ND","ND","40.9","2.1","ND","ND","ND","ND","544","0"],
    [79223,"2019-05-20T18:00:00","19.2","ND","ND","ND","12","2.6","ND","ND","ND","ND","208","0"],
    [79224,"2019-05-20T19:00:00","30.2","ND","ND","ND","2.7","1.4","ND","ND","ND","ND","0","0"],
    [79225,"2019-05-20T20:00:00","31.6","ND","ND","ND","5.1","1.6","ND","ND","ND","ND","0","0"],
    [79226,"2019-05-20T21:00:00","13.2","ND","ND","ND","11.8","0.5","ND","ND","ND","ND","0","0"],
    [79227,"2019-05-20T22:00:00","13.5","ND","ND","ND","9.8","1.1","ND","ND","ND","ND","0","0"],
    [79228,"2019-05-20T23:00:00","16.8","ND","ND","ND","2.6","1.4","ND","ND","ND","ND","ND","0"],
    [79229,"2019-05-21T00:00:00","43.6","ND","ND","ND","1.8","3.2","ND","ND","ND","ND","0","0"],
    [79230,"2019-05-21T01:00:00","31.6","ND","ND","ND","1.7","2.7","ND","ND","ND","ND","0","0"],
    [79231,"2019-05-21T02:00:00","0.4","ND","ND","ND","1.8","1.8","ND","ND","ND","ND","0","0"],
    [79232,"2019-05-21T03:00:00","15.2","ND","ND","ND","1.8","1.5","ND","ND","ND","ND","0","0"],
    [79233,"2019-05-21T04:00:00","22.5","ND","ND","ND","2","2","ND","ND","ND","ND","0","0.1"],
    [79234,"2019-05-21T05:00:00","16.9","ND","ND","ND","2.2","2.8","ND","ND","ND","ND","0","0.9"],
    [79235,"2019-05-21T06:00:00","3.6","ND","ND","ND","1.7","3.9","ND","ND","ND","ND","0","0.1"],
    [79236,"2019-05-21T07:00:00","26","ND","ND","ND","1.9","5.4","ND","ND","ND","ND","0","0"],
    [79237,"2019-05-21T08:00:00","69.2","ND","ND","ND","2.5","5.6","ND","ND","ND","ND","89","0"],
    [79238,"2019-05-21T09:00:00","66.5","ND","ND","ND","3.1","5.4","ND","ND","ND","ND","250","0"],
    [79239,"2019-05-21T10:00:00","62.5","ND","ND","ND","8.4","2.3","ND","ND","ND","ND","510","0"],
    [79240,"2019-05-21T11:00:00","48.7","ND","ND","ND","20.4","1.6","ND","ND","ND","ND","ND","0"],
    [79241,"2019-05-21T12:00:00","22.5","ND","ND","ND","42.8","1.2","ND","ND","ND","ND","663","0"],
    [79242,"2019-05-21T13:00:00","29.3","ND","ND","ND","49","0.8","ND","ND","ND","ND","ND","0"],
    [79243,"2019-05-21T14:00:00","17.1","ND","ND","ND","64.3","0.9","ND","ND","ND","ND","ND","0"],
    [79244,"2019-05-21T15:00:00","26.3","ND","ND","ND","82.5","1.1","ND","ND","ND","ND","ND","0"],
    [79245,"2019-05-21T16:00:00","55.5","ND","ND","ND","73.3","1.2","ND","ND","ND","ND","ND","0"],
    [79246,"2019-05-21T17:00:00","52.4","ND","ND","ND","57.6","1","ND","ND","ND","ND","ND","0"],
    [79247,"2019-05-21T18:00:00","50.7","ND","ND","ND","21.7","1.2","ND","ND","ND","ND","ND","0"],
    [79248,"2019-05-21T19:00:00","27.3","ND","ND","ND","8.8","0.9","ND","ND","ND","ND","0","0"],
    [79249,"2019-05-21T20:00:00","9.3","ND","ND","ND","11.5","0.8","ND","ND","ND","ND","0","0.2"],
    [79250,"2019-05-21T21:00:00","30.8","ND","ND","ND","5.4","0.9","ND","ND","ND","ND","0","0.3"],
    [79251,"2019-05-21T22:00:00","38.5","ND","ND","ND","1.8","3.6","ND","ND","ND","ND","0","0"],
    [79252,"2019-05-21T23:00:00","26.3","ND","ND","ND","1.7","2.3","ND","ND","ND","ND","0","0"],
    [79253,"2019-05-22T00:00:00","31","ND","ND","ND","1.5","1.9","ND","ND","ND","ND","ND","0"],
    [79254,"2019-05-22T01:00:00","10.9","ND","ND","ND","1.5","2.7","ND","ND","ND","ND","ND","0"],
    [79255,"2019-05-22T02:00:00","55.1","ND","ND","ND","1.8","2.4","ND","ND","ND","ND","ND","0"],
    [79256,"2019-05-22T03:00:00","47.5","ND","ND","ND","1.8","3","ND","ND","ND","ND","ND","0"],
    [79257,"2019-05-22T04:00:00","42.4","ND","ND","ND","1.6","2.1","ND","ND","ND","ND","ND","0"],
    [79258,"2019-05-22T05:00:00","32.8","ND","ND","ND","2.9","2.1","ND","ND","ND","ND","ND","0"],
    [79259,"2019-05-22T06:00:00","2.3","ND","ND","ND","4.6","1.1","ND","ND","ND","ND","ND","0"],
    [79260,"2019-05-22T07:00:00","1.1","ND","ND","ND","1.6","0.9","ND","ND","ND","ND","ND","0"],
    [79261,"2019-05-22T08:00:00","34.9","ND","ND","ND","1.6","0.9","ND","ND","ND","ND","ND","0"],
    [79262,"2019-05-22T09:00:00","50.5","ND","ND","ND","2.6","2.2","ND","ND","ND","ND","ND","0.7"],
    [79263,"2019-05-22T10:00:00","85.8","ND","ND","ND","6.2","2","ND","ND","ND","ND","ND","0.8"],
    [79264,"2019-05-22T11:00:00","51.2","ND","ND","ND","19.2","1.2","ND","ND","ND","ND","664","0"],
    [79265,"2019-05-22T12:00:00","33.1","ND","ND","ND","42.9","0.8","ND","ND","ND","ND","664","0"],
    [79266,"2019-05-22T13:00:00","21.4","ND","ND","ND","52.4","1","ND","ND","ND","ND","641","0"],
    [79267,"2019-05-22T14:00:00","20.2","ND","ND","ND","39.1","1.1","ND","ND","ND","ND","ND","0"],
    [79268,"2019-05-22T15:00:00","20.9","ND","ND","ND","47.5","1.3","ND","ND","ND","ND","ND","0"],
    [79269,"2019-05-22T16:00:00","13.4","ND","ND","ND","30.4","0.9","ND","ND","ND","ND","ND","0"],
    [79270,"2019-05-22T17:00:00","2.7","ND","ND","ND","14.7","0.8","ND","ND","ND","ND","385","0"],
    [79271,"2019-05-22T18:00:00","7.8","ND","ND","ND","12.7","0.7","ND","ND","ND","ND","ND","0"],
    [79272,"2019-05-22T19:00:00","2.6","ND","ND","ND","7.4","0.8","ND","ND","ND","ND","ND","0.1"],
    [79273,"2019-05-22T20:00:00","25.6","ND","ND","ND","9.7","1","ND","ND","ND","ND","0","0"],
    [79274,"2019-05-22T21:00:00","33.8","ND","ND","ND","2.1","1.1","ND","ND","ND","ND","0","0"],
    [79275,"2019-05-22T22:00:00","18.8","ND","ND","ND","11","0.6","ND","ND","ND","ND","0","0.5"],
    [79276,"2019-05-22T23:00:00","1.8","ND","ND","ND","7.4","0.8","ND","ND","ND","ND","0","1.5"],
    [79277,"2019-05-23T00:00:00","16.3","ND","ND","ND","4.6","2","ND","ND","ND","ND","0","0.1"],
    [79278,"2019-05-23T01:00:00","17.9","ND","ND","ND","2.5","1.6","ND","ND","ND","ND","0","0"],
    [79279,"2019-05-23T02:00:00","41.9","ND","ND","ND","1.7","1.5","ND","ND","ND","ND","ND","0"],
    [79280,"2019-05-23T03:00:00","26.1","ND","ND","ND","1.8","2.4","ND","ND","ND","ND","0","0"],
    [79281,"2019-05-23T04:00:00","48.2","ND","ND","ND","1.8","1.7","ND","ND","ND","ND","0","6.7"],
    [79282,"2019-05-23T05:00:00","57.2","ND","ND","ND","1.7","1.8","ND","ND","ND","ND","0","0"],
    [79283,"2019-05-23T06:00:00","27.3","ND","ND","ND","1.7","1.6","ND","ND","ND","ND","0","0.1"],
    [79284,"2019-05-23T07:00:00","28.2","ND","ND","ND","1.8","3.7","ND","ND","ND","ND","0","0"],
    [79285,"2019-05-23T08:00:00","21.7","ND","ND","ND","2.1","4.5","ND","ND","ND","ND","ND","0"],
    [79286,"2019-05-23T09:00:00","34.4","ND","ND","ND","2.6","3.1","ND","ND","ND","ND","157","0"],
    [79287,"2019-05-23T10:00:00","44.7","ND","ND","ND","3","1.6","ND","ND","ND","ND","ND","0"],
    [79288,"2019-05-23T11:00:00","15","ND","ND","ND","2.7","1.8","ND","ND","ND","ND","164","0"],
    [79289,"2019-05-23T12:00:00","22.9","ND","ND","ND","9.9","1.7","ND","ND","ND","ND","214","0"],
    [79290,"2019-05-23T13:00:00","35.8","ND","ND","ND","20.3","1.2","ND","ND","ND","ND","662","0"],
    [79291,"2019-05-23T14:00:00","34.4","ND","ND","ND","12.9","0.8","ND","ND","ND","ND","664","0"],
    [79292,"2019-05-23T15:00:00","9.6","ND","ND","ND","14.7","1.3","ND","ND","ND","ND","662","1.3"],
    [79293,"2019-05-23T16:00:00","15.3","ND","ND","ND","15","0.8","ND","ND","ND","ND","ND","0.1"],
    [79294,"2019-05-23T17:00:00","ND","ND","ND","ND","11.2","1.1","ND","ND","ND","ND","563","0"],
    [79295,"2019-05-23T18:00:00","ND","ND","ND","ND","7","1.2","ND","ND","ND","ND","167","0.3"],
    [79296,"2019-05-23T19:00:00","14","ND","ND","ND","235.6","1.2","ND","ND","ND","ND","0","0.4"],
    [79297,"2019-05-23T20:00:00","13.1","ND","ND","ND","1.8","1","ND","ND","ND","ND","0","0.1"],
    [79298,"2019-05-23T21:00:00","9.7","ND","ND","ND","5.1","1.1","ND","ND","ND","ND","ND","0.3"],
    [79299,"2019-05-23T22:00:00","2","ND","ND","ND","2.7","0.6","ND","ND","ND","ND","0","0"],
    [79300,"2019-05-23T23:00:00","ND","ND","ND","ND","1.6","1.3","ND","ND","ND","ND","0","0"],
    [79301,"2019-05-24T00:00:00","6.3","ND","ND","ND","1.4","1.4","ND","ND","ND","ND","0","0"],
    [79302,"2019-05-24T01:00:00","13.4","ND","ND","ND","1.5","2","ND","ND","ND","ND","0","0"],
    [79303,"2019-05-24T02:00:00","51.7","ND","ND","ND","ND","2.2","ND","ND","ND","ND","0","0"],
    [79304,"2019-05-24T03:00:00","53.9","ND","ND","ND","1.5","2.8","ND","ND","ND","ND","0","0"],
    [79305,"2019-05-24T04:00:00","44.2","ND","ND","ND","1.8","6.1","ND","ND","ND","ND","0","0"],
    [79306,"2019-05-24T05:00:00","57.8","ND","ND","ND","1.8","7.5","ND","ND","ND","ND","0","1"],
    [79307,"2019-05-24T06:00:00","43.1","ND","ND","ND","1.3","3.9","ND","ND","ND","ND","0","0.2"],
    [79308,"2019-05-24T07:00:00","46","ND","ND","ND","1.7","1.2","ND","ND","ND","ND","0","0"],
    [79309,"2019-05-24T08:00:00","68.1","ND","ND","ND","1.7","1.4","ND","ND","ND","ND","ND","0.2"],
    [79310,"2019-05-24T09:00:00","72.5","ND","ND","ND","4.8","1.4","ND","ND","ND","ND","ND","0"],
    [79311,"2019-05-24T10:00:00","46.6","ND","ND","ND","12.3","1.7","ND","ND","ND","ND","649","0"],
    [79312,"2019-05-24T11:00:00","1.8","ND","ND","ND","26.6","1.2","ND","ND","ND","ND","651","5.6"],
    [79313,"2019-05-24T12:00:00","24.1","ND","ND","ND","42.1","0.6","ND","ND","ND","ND","ND","0.3"],
    [79314,"2019-05-24T13:00:00","56.8","ND","ND","ND","52.6","1.4","ND","ND","ND","ND","ND","0"],
    [79315,"2019-05-24T14:00:00","41.8","ND","ND","ND","48","1","ND","ND","ND","ND","664","0"],
    [79316,"2019-05-24T15:00:00","22.7","ND","ND","ND","39.6","1","ND","ND","ND","ND","ND","0"],
    [79317,"2019-05-24T16:00:00","30.1","ND","ND","ND","44.4","0.9","ND","ND","ND","ND","ND","0"],
    [79318,"2019-05-24T17:00:00","15.2","ND","ND","ND","22.8","0.7","ND","ND","ND","ND","ND","0"],
    [79319,"2019-05-24T18:00:00","11.8","ND","ND","ND","9.2","0.9","ND","ND","ND","ND","ND","0"],
    [79320,"2019-05-24T19:00:00","16.8","ND","ND","ND","4","0.5","ND","ND","ND","ND","ND","0"],
    [79321,"2019-05-24T20:00:00","27","ND","ND","ND","3.5","0.9","ND","ND","ND","ND","ND","0"],
    [79322,"2019-05-24T21:00:00","19.2","ND","ND","ND","2","1.4","ND","ND","ND","ND","ND","0"],
    [79323,"2019-05-24T22:00:00","24.1","ND","ND","ND","2","1.3","ND","ND","ND","ND","ND","0"],
    [79324,"2019-05-24T23:00:00","68","ND","ND","ND","1.8","1.8","ND","ND","ND","ND","ND","0"],
    [79325,"2019-05-25T00:00:00","39.1","ND","ND","ND","1.7","1.5","ND","ND","ND","ND","ND","0"],
    [79326,"2019-05-25T01:00:00","2.4","ND","ND","ND","1.7","2.1","ND","ND","ND","ND","ND","0"],
    [79327,"2019-05-25T02:00:00","ND","ND","ND","ND","2.8","1.6","ND","ND","ND","ND","ND","0"],
    [79328,"2019-05-25T03:00:00","1.5","ND","ND","ND","3.4","1.4","ND","ND","ND","ND","0","0"],
    [79329,"2019-05-25T04:00:00","33.5","ND","ND","ND","1.7","1.8","ND","ND","ND","ND","0","0"],
    [79330,"2019-05-25T05:00:00","32.1","ND","ND","ND","1.7","1.8","ND","ND","ND","ND","0","0"],
    [79331,"2019-05-25T06:00:00","20.9","ND","ND","ND","1.6","1.7","ND","ND","ND","ND","0","0"],
    [79332,"2019-05-25T07:00:00","13.7","ND","ND","ND","1.6","1.2","ND","ND","ND","ND","0","0"],
    [79333,"2019-05-25T08:00:00","22.5","ND","ND","ND","1.6","1.4","ND","ND","ND","ND","ND","0"],
    [79334,"2019-05-25T09:00:00","21.6","ND","ND","ND","1.6","1.3","ND","ND","ND","ND","39","0"],
    [79335,"2019-05-25T10:00:00","18.6","ND","ND","ND","2","1.6","ND","ND","ND","ND","137","0"],
    [79336,"2019-05-25T11:00:00","18.7","ND","ND","ND","4.3","1","ND","ND","ND","ND","ND","0"],
    [79337,"2019-05-25T12:00:00","32.1","ND","ND","ND","8.7","1.6","ND","ND","ND","ND","ND","0"],
    [79338,"2019-05-25T13:00:00","15.5","ND","ND","ND","15.4","1.2","ND","ND","ND","ND","ND","0"],
    [79339,"2019-05-25T14:00:00","20.9","ND","ND","ND","21.5","1.1","ND","ND","ND","ND","ND","0"],
    [79340,"2019-05-25T15:00:00","20.1","ND","ND","ND","15.7","0.7","ND","ND","ND","ND","ND","0"],
    [79341,"2019-05-25T16:00:00","5.2","ND","ND","ND","9.2","0.9","ND","ND","ND","ND","ND","0"],
    [79342,"2019-05-25T17:00:00","5.8","ND","ND","ND","7.1","1.2","ND","ND","ND","ND","ND","0"],
    [79343,"2019-05-25T18:00:00","17.3","ND","ND","ND","4.2","0.9","ND","ND","ND","ND","ND","0"],
    [79344,"2019-05-25T19:00:00","16.1","ND","ND","ND","1.8","0.8","ND","ND","ND","ND","76","0"],
    [79345,"2019-05-25T20:00:00","31.7","ND","ND","ND","2.8","0.7","ND","ND","ND","ND","0","0"],
    [79346,"2019-05-25T21:00:00","8.4","ND","ND","ND","3","0.8","ND","ND","ND","ND","0","0"],
    [79347,"2019-05-25T22:00:00","35","ND","ND","ND","2.4","1.5","ND","ND","ND","ND","0","0"],
    [79348,"2019-05-25T23:00:00","25.8","ND","ND","ND","1.5","1.1","ND","ND","ND","ND","ND","0"],
    [79349,"2019-05-26T00:00:00","24.9","ND","ND","ND","1.8","2.2","ND","ND","ND","ND","ND","0.9"],
    [79350,"2019-05-26T01:00:00","28","ND","ND","ND","1.6","1.9","ND","ND","ND","ND","ND","0"],
    [79351,"2019-05-26T02:00:00","1.5","ND","ND","ND","1.6","2.3","ND","ND","ND","ND","0","0"],
    [79352,"2019-05-26T03:00:00","20.7","ND","ND","ND","1.5","2","ND","ND","ND","ND","0","0"],
    [79353,"2019-05-26T04:00:00","52","ND","ND","ND","1.5","1.7","ND","ND","ND","ND","ND","0"],
    [79354,"2019-05-26T05:00:00","56.4","ND","ND","ND","1.5","1.2","ND","ND","ND","ND","ND","0"],
    [79355,"2019-05-26T06:00:00","13.1","ND","ND","ND","1.7","1.4","ND","ND","ND","ND","ND","0"],
    [79356,"2019-05-26T07:00:00","34.4","ND","ND","ND","2.1","2.4","ND","ND","ND","ND","ND","0"],
    [79357,"2019-05-26T08:00:00","45.1","ND","ND","ND","2","1.7","ND","ND","ND","ND","ND","0"],
    [79358,"2019-05-26T09:00:00","19.2","ND","ND","ND","2.9","2","ND","ND","ND","ND","ND","0"],
    [79359,"2019-05-26T10:00:00","67.3","ND","ND","ND","5.2","2.1","ND","ND","ND","ND","424","0"],
    [79360,"2019-05-26T11:00:00","49.6","ND","ND","ND","11","1.6","ND","ND","ND","ND","ND","0.2"],
    [79361,"2019-05-26T12:00:00","21.5","ND","ND","ND","26.4","1.2","ND","ND","ND","ND","ND","0"],
    [79362,"2019-05-26T13:00:00","25.1","ND","ND","ND","47.4","1.3","ND","ND","ND","ND","ND","0"],
    [79363,"2019-05-26T14:00:00","26.2","ND","ND","ND","64.4","0.9","ND","ND","ND","ND","ND","0"],
    [79364,"2019-05-26T15:00:00","36.6","ND","ND","ND","62.6","0.9","ND","ND","ND","ND","ND","0"],
    [79365,"2019-05-26T16:00:00","23.3","ND","ND","ND","57.5","1.3","ND","ND","ND","ND","630","0"],
    [79366,"2019-05-26T17:00:00","18.8","ND","ND","ND","38.4","1.1","ND","ND","ND","ND","598","0"],
    [79367,"2019-05-26T18:00:00","11.3","ND","ND","ND","14.2","0.4","ND","ND","ND","ND","493","0"],
    [79368,"2019-05-26T19:00:00","ND","ND","ND","ND","7.3","0.6","ND","ND","ND","ND","0","0"],
    [79369,"2019-05-26T20:00:00","9.7","ND","ND","ND","2.6","1.1","ND","ND","ND","ND","0","0"],
    [79370,"2019-05-26T21:00:00","32.6","ND","ND","ND","1.8","1.1","ND","ND","ND","ND","0","0"],
    [79371,"2019-05-26T22:00:00","33.2","ND","ND","ND","2.1","2.9","ND","ND","ND","ND","0","0.1"],
    [79372,"2019-05-26T23:00:00","7.8","ND","ND","ND","1.7","3.4","ND","ND","ND","ND","0","0"],
    [79373,"2019-05-27T00:00:00","61.6","ND","ND","ND","1.6","1.8","ND","ND","ND","ND","0","0"],
    [79374,"2019-05-27T01:00:00","13.9","ND","ND","ND","1.6","1.8","ND","ND","ND","ND","0","0"],
    [79375,"2019-05-27T02:00:00","48.3","ND","ND","ND","1.7","1.3","ND","ND","ND","ND","0","0"],
    [79376,"2019-05-27T03:00:00","16.7","ND","ND","ND","2.1","1.2","ND","ND","ND","ND","ND","0"],
    [79377,"2019-05-27T04:00:00","30.2","ND","ND","ND","1.7","1.4","ND","ND","ND","ND","0","0"],
    [79378,"2019-05-27T05:00:00","10.1","ND","ND","ND","2.1","2.6","ND","ND","ND","ND","0","0"],
    [79379,"2019-05-27T06:00:00","23.2","ND","ND","ND","2.5","1.4","ND","ND","ND","ND","0","0"],
    [79380,"2019-05-27T07:00:00","56.1","ND","ND","ND","2.3","3","ND","ND","ND","ND","ND","0"],
    [79381,"2019-05-27T08:00:00","52.1","ND","ND","ND","3","2.6","ND","ND","ND","ND","79","0"],
    [79382,"2019-05-27T09:00:00","91.2","ND","ND","ND","7.2","2.3","ND","ND","ND","ND","322","0"],
    [79383,"2019-05-27T10:00:00","69.5","ND","ND","ND","21.1","1.4","ND","ND","ND","ND","ND","0"],
    [79384,"2019-05-27T11:00:00","44","ND","ND","ND","26.5","0.9","ND","ND","ND","ND","664","0"],
    [79385,"2019-05-27T12:00:00","40.4","ND","ND","ND","37","1.3","ND","ND","ND","ND","664","0"],
    [79386,"2019-05-27T13:00:00","37.1","ND","ND","ND","58","1","ND","ND","ND","ND","664","0"],
    [79387,"2019-05-27T14:00:00","31.4","ND","ND","ND","71","0.8","ND","ND","ND","ND","664","0"],
    [79388,"2019-05-27T15:00:00","36.6","ND","ND","ND","71.5","0.9","ND","ND","ND","ND","664","0"],
    [79389,"2019-05-27T16:00:00","27.8","ND","ND","ND","ND","2.2","ND","ND","ND","ND","627","0"],
    [79390,"2019-05-27T17:00:00","50.4","ND","ND","ND","76","9","ND","ND","ND","ND","ND","0"],
    [79391,"2019-05-27T18:00:00","36.3","ND","ND","ND","60.9","3","ND","ND","ND","ND","451","0"],
    [79392,"2019-05-27T19:00:00","1.6","ND","ND","ND","12.7","1.8","ND","ND","ND","ND","ND","0"],
    [79393,"2019-05-27T20:00:00","13.4","ND","ND","ND","11.6","1.8","ND","ND","ND","ND","0","0"],
    [79394,"2019-05-27T21:00:00","28","ND","ND","ND","2","1.8","ND","ND","ND","ND","0","0"],
    [79395,"2019-05-27T22:00:00","7.5","ND","ND","ND","1.4","2","ND","ND","ND","ND","ND","0"],
    [79396,"2019-05-27T23:00:00","43.2","ND","ND","ND","1.5","1.8","ND","ND","ND","ND","ND","0"],
    [79397,"2019-05-28T00:00:00","59.7","ND","ND","ND","1.8","2.6","ND","ND","ND","ND","ND","0"],
    [79398,"2019-05-28T01:00:00","37.5","ND","ND","ND","1.6","2.1","ND","ND","ND","ND","0","0"],
    [79399,"2019-05-28T02:00:00","0.9","ND","ND","ND","8.2","1.6","ND","ND","ND","ND","0","0"],
    [79400,"2019-05-28T03:00:00","22.4","ND","ND","ND","8.4","2.4","ND","ND","ND","ND","0","0"],
    [79401,"2019-05-28T04:00:00","42.5","ND","ND","ND","3.4","2.1","ND","ND","ND","ND","0","0"],
    [79402,"2019-05-28T05:00:00","12.3","ND","ND","ND","2.2","1.7","ND","ND","ND","ND","0","0"],
    [79403,"2019-05-28T06:00:00","42.3","ND","ND","ND","1.6","1.7","ND","ND","ND","ND","0","0"],
    [79404,"2019-05-28T07:00:00","28.5","ND","ND","ND","1.5","1.7","ND","ND","ND","ND","ND","0"],
    [79405,"2019-05-28T08:00:00","46.7","ND","ND","ND","1.8","1.7","ND","ND","ND","ND","ND","0"],
    [79406,"2019-05-28T09:00:00","19.4","ND","ND","ND","1.7","1.1","ND","ND","ND","ND","75","0"],
    [79407,"2019-05-28T10:00:00","12.5","ND","ND","ND","2.1","1.5","ND","ND","ND","ND","332","0"],
    [79408,"2019-05-28T11:00:00","16.6","ND","ND","ND","8.8","2","ND","ND","ND","ND","ND","0"],
    [79409,"2019-05-28T12:00:00","33.4","ND","ND","ND","16.1","1","ND","ND","ND","ND","662","0"],
    [79410,"2019-05-28T13:00:00","25.8","ND","ND","ND","23.2","0.9","ND","ND","ND","ND","662","0"],
    [79411,"2019-05-28T14:00:00","6.1","ND","ND","ND","14.6","0.5","ND","ND","ND","ND","ND","0"],
    [79412,"2019-05-28T15:00:00","16.4","ND","ND","ND","11.7","1.3","ND","ND","ND","ND","ND","0"],
    [79413,"2019-05-28T16:00:00","0.4","ND","ND","ND","14.4","0.6","ND","ND","ND","ND","ND","0"],
    [79414,"2019-05-28T17:00:00","0.8","ND","ND","ND","16.7","0.7","ND","ND","ND","ND","ND","0"],
    [79415,"2019-05-28T18:00:00","0.8","ND","ND","ND","15.2","0.7","ND","ND","ND","ND","ND","0"],
    [79416,"2019-05-28T19:00:00","ND","ND","ND","ND","4.5","1.3","ND","ND","ND","ND","0","0"],
    [79417,"2019-05-28T20:00:00","24.6","ND","ND","ND","9.4","2","ND","ND","ND","ND","0","0"],
    [79418,"2019-05-28T21:00:00","15.2","ND","ND","ND","3.4","2.1","ND","ND","ND","ND","0","ND"],
    [79419,"2019-05-28T22:00:00","6.6","ND","ND","ND","1.5","1","ND","ND","ND","ND","ND","0"],
    [79420,"2019-05-28T23:00:00","4.1","ND","ND","ND","1.5","1.1","ND","ND","ND","ND","ND","0"],
    [79421,"2019-05-29T00:00:00","17.6","ND","ND","ND","1.4","0.9","ND","ND","ND","ND","0","0"],
    [79422,"2019-05-29T01:00:00","46.4","ND","ND","ND","1.8","0.9","ND","ND","ND","ND","0","0"],
    [79423,"2019-05-29T02:00:00","17.9","ND","ND","ND","1.1","1.1","ND","ND","ND","ND","0","0"],
    [79424,"2019-05-29T03:00:00","5.7","ND","ND","ND","1.4","1","ND","ND","ND","ND","0","0"],
    [79425,"2019-05-29T04:00:00","25.9","ND","ND","ND","1.4","2.1","ND","ND","ND","ND","0","0"],
    [79426,"2019-05-29T05:00:00","52.4","ND","ND","ND","1.3","3.2","ND","ND","ND","ND","0","0"],
    [79427,"2019-05-29T06:00:00","11.4","ND","ND","ND","1.3","3.8","ND","ND","ND","ND","0","0"],
    [79428,"2019-05-29T07:00:00","27.2","ND","ND","ND","1.5","3.7","ND","ND","ND","ND","0","0"],
    [79429,"2019-05-29T08:00:00","50.8","ND","ND","ND","1.6","2.6","ND","ND","ND","ND","26","0"],
    [79430,"2019-05-29T09:00:00","65","ND","ND","ND","1.6","2.2","ND","ND","ND","ND","96","0"],
    [79431,"2019-05-29T10:00:00","51.6","ND","ND","ND","5.4","1.9","ND","ND","ND","ND","ND","0"],
    [79432,"2019-05-29T11:00:00","31.3","ND","ND","ND","8","1.6","ND","ND","ND","ND","ND","0"],
    [79433,"2019-05-29T12:00:00","21.8","ND","ND","ND","27.3","1.2","ND","ND","ND","ND","610","0"],
    [79434,"2019-05-29T13:00:00","27.3","ND","ND","ND","50.9","1.1","ND","ND","ND","ND","663","0"],
    [79435,"2019-05-29T14:00:00","14.2","ND","ND","ND","54.3","1.3","ND","ND","ND","ND","ND","0"],
    [79436,"2019-05-29T15:00:00","30","ND","ND","ND","72.7","1","ND","ND","ND","ND","ND","0"],
    [79437,"2019-05-29T16:00:00","39.9","ND","ND","ND","67.1","1","ND","ND","ND","ND","ND","0"],
    [79438,"2019-05-29T17:00:00","24.6","ND","ND","ND","30.4","1.2","ND","ND","ND","ND","ND","0"],
    [79439,"2019-05-29T18:00:00","15.6","ND","ND","ND","11.2","0.8","ND","ND","ND","ND","ND","0"],
    [79440,"2019-05-29T19:00:00","5.9","ND","ND","ND","5.2","1.1","ND","ND","ND","ND","192","0"],
    [79441,"2019-05-29T20:00:00","16.1","ND","ND","ND","2.3","0.6","ND","ND","ND","ND","0","0.2"],
    [79442,"2019-05-29T21:00:00","42.5","ND","ND","ND","1.7","1.3","ND","ND","ND","ND","0","14.1"],
    [79443,"2019-05-29T22:00:00","48.4","ND","ND","ND","1.3","2","ND","ND","ND","ND","0","0.1"],
    [79444,"2019-05-29T23:00:00","50.7","ND","ND","ND","1.4","2.1","ND","ND","ND","ND","0","0"],
    [79445,"2019-05-30T00:00:00","47.3","ND","ND","ND","1.5","1.9","ND","ND","ND","ND","0","0"],
    [79446,"2019-05-30T01:00:00","70.8","ND","ND","ND","1.5","2.4","ND","ND","ND","ND","0","0"],
    [79447,"2019-05-30T02:00:00","86","ND","ND","ND","1.6","3.8","ND","ND","ND","ND","0","0"],
    [79448,"2019-05-30T03:00:00","41.8","ND","ND","ND","2","1.8","ND","ND","ND","ND","0","0"],
    [79449,"2019-05-30T04:00:00","9","ND","ND","ND","1.7","1.7","ND","ND","ND","ND","0","0"],
    [79450,"2019-05-30T05:00:00","21.6","ND","ND","ND","1.6","1.6","ND","ND","ND","ND","0","0"],
    [79451,"2019-05-30T06:00:00","14","ND","ND","ND","1.6","1.2","ND","ND","ND","ND","0","0"],
    [79452,"2019-05-30T07:00:00","28.6","ND","ND","ND","1.7","2.3","ND","ND","ND","ND","0","0"],
    [79453,"2019-05-30T08:00:00","29.7","ND","ND","ND","1.6","2.6","ND","ND","ND","ND","33","5.3"],
    [79454,"2019-05-30T09:00:00","65.5","ND","ND","ND","1.8","2.5","ND","ND","ND","ND","170","0"],
    [79455,"2019-05-30T10:00:00","71.8","ND","ND","ND","2.4","2.1","ND","ND","ND","ND","310","0"],
    [79456,"2019-05-30T11:00:00","69.4","ND","ND","ND","7.2","1.6","ND","ND","ND","ND","498","0"],
    [79457,"2019-05-30T12:00:00","55.6","ND","ND","ND","20.3","1.7","ND","ND","ND","ND","ND","0"],
    [79458,"2019-05-30T13:00:00","16.5","ND","ND","ND","37.3","1","ND","ND","ND","ND","582","0"],
    [79459,"2019-05-30T14:00:00","17.2","ND","ND","ND","48.7","1.4","ND","ND","ND","ND","634","0"],
    [79460,"2019-05-30T15:00:00","20.4","ND","ND","ND","53.5","1.3","ND","ND","ND","ND","656","0"],
    [79461,"2019-05-30T16:00:00","8","ND","ND","ND","36.6","0.8","ND","ND","ND","ND","661","0"],
    [79462,"2019-05-30T17:00:00","3.7","ND","ND","ND","16","0.9","ND","ND","ND","ND","556","0"],
    [79463,"2019-05-30T18:00:00","ND","ND","ND","ND","3.9","0.9","ND","ND","ND","ND","236","0"],
    [79464,"2019-05-30T19:00:00","0.2","ND","ND","ND","2.2","0.8","ND","ND","ND","ND","0","ND"],
    [79465,"2019-05-30T20:00:00","28.1","ND","ND","ND","1.6","1.1","ND","ND","ND","ND","0","0"],
    [79466,"2019-05-30T21:00:00","10.5","ND","ND","ND","1.6","2.3","ND","ND","ND","ND","0","0.2"],
    [79467,"2019-05-30T22:00:00","8.4","ND","ND","ND","1.2","5","ND","ND","ND","ND","0","0"],
    [79468,"2019-05-30T23:00:00","18","ND","ND","ND","1.8","2.1","ND","ND","ND","ND","0","0"],
    [79469,"2019-05-31T00:00:00","3","ND","ND","ND","1.7","1.6","ND","ND","ND","ND","0","0"],
    [79470,"2019-05-31T01:00:00","28.6","ND","ND","ND","2","2.5","ND","ND","ND","ND","0","0"],
    [79471,"2019-05-31T02:00:00","16","ND","ND","ND","2.4","1","ND","ND","ND","ND","0","ND"],
    [79472,"2019-05-31T03:00:00","15.5","ND","ND","ND","1.9","1.7","ND","ND","ND","ND","0","0"],
    [79473,"2019-05-31T04:00:00","1.6","ND","ND","ND","1.6","1.3","ND","ND","ND","ND","0","0"],
    [79474,"2019-05-31T05:00:00","14.7","ND","ND","ND","1.9","1.2","ND","ND","ND","ND","0","0"],
    [79475,"2019-05-31T06:00:00","16.8","ND","ND","ND","1.4","0.8","ND","ND","ND","ND","0","0"],
    [79476,"2019-05-31T07:00:00","3.3","ND","ND","ND","1.2","1.2","ND","ND","ND","ND","0","ND"],
    [79477,"2019-05-31T08:00:00","16.7","ND","ND","ND","1.3","1.1","ND","ND","ND","ND","34","ND"],
    [79478,"2019-05-31T09:00:00","29.8","ND","ND","ND","1.5","0.7","ND","ND","ND","ND","124","ND"],
    [79479,"2019-05-31T10:00:00","38.8","ND","ND","ND","5.7","0.6","ND","ND","ND","ND","ND","ND"],
    [79480,"2019-05-31T11:00:00","35.1","ND","ND","ND","17.5","0.8","ND","ND","ND","ND","649","ND"],
    [79481,"2019-05-31T12:00:00","6.8","ND","ND","ND","40.8","0.9","ND","ND","ND","ND","664","ND"],
    [79482,"2019-05-31T13:00:00","3.5","ND","ND","ND","55.4","1","ND","ND","ND","ND","664","ND"],
    [79483,"2019-05-31T14:00:00","13.7","ND","ND","ND","46.4","0.9","ND","ND","ND","ND","ND","0"],
    [79484,"2019-05-31T15:00:00","21.2","ND","ND","ND","34.7","0.9","ND","ND","ND","ND","647","ND"],
    [79485,"2019-05-31T16:00:00","12","ND","ND","ND","35.1","1.3","ND","ND","ND","ND","624","ND"],
    [79486,"2019-05-31T17:00:00","30.3","ND","ND","ND","8.6","3.3","ND","ND","ND","ND","422","ND"],
    [79487,"2019-05-31T18:00:00","11.5","ND","ND","ND","5.9","1.3","ND","ND","ND","ND","101","0"],
    [79488,"2019-05-31T19:00:00","10.3","ND","ND","ND","2","2","ND","ND","ND","ND","0","0.2"],
    [79489,"2019-05-31T20:00:00","66","ND","ND","ND","1.9","1.4","ND","ND","ND","ND","4","0.1"],
    [79490,"2019-05-31T21:00:00","64.5","ND","ND","ND","1.6","1.4","ND","ND","ND","ND","0","ND"],
    [79491,"2019-05-31T22:00:00","25.8","ND","ND","ND","1.5","1","ND","ND","ND","ND","0","0"],
    [79492,"2019-05-31T23:00:00","25.1","ND","ND","ND","1.5","0.9","ND","ND","ND","ND","0","ND"],
    [79493,"2019-06-01T00:00:00","3.6","ND","ND","ND","1.2","0.7","ND","ND","ND","ND","0","ND"],
    [79494,"2019-06-01T01:00:00","4.2","ND","ND","ND","1.6","2.8","ND","ND","ND","ND","0","0"],
    [79495,"2019-06-01T02:00:00","12.8","ND","ND","ND","1.5","6","ND","ND","ND","ND","0","0"],
    [79496,"2019-06-01T03:00:00","13.5","ND","ND","ND","1.1","1.9","ND","ND","ND","ND","0","0"],
    [79497,"2019-06-01T04:00:00","40.5","ND","ND","ND","1.4","2.5","ND","ND","ND","ND","0","ND"],
    [79498,"2019-06-01T05:00:00","18","ND","ND","ND","1.8","3.1","ND","ND","ND","ND","0","0"],
    [79499,"2019-06-01T06:00:00","38.6","ND","ND","ND","1.3","2.8","ND","ND","ND","ND","0","0"],
    [79500,"2019-06-01T07:00:00","50.5","ND","ND","ND","1.6","5.3","ND","ND","ND","ND","0","0"],
    [79501,"2019-06-01T08:00:00","79.9","ND","ND","ND","1.6","4.1","ND","ND","ND","ND","93","0"],
    [79502,"2019-06-01T09:00:00","55.4","ND","ND","ND","2.5","2.2","ND","ND","ND","ND","214","0"],
    [79503,"2019-06-01T10:00:00","32.1","ND","ND","ND","4.3","2","ND","ND","ND","ND","436","0"],
    [79504,"2019-06-01T11:00:00","39.4","ND","ND","ND","18.2","1.2","ND","ND","ND","ND","ND","0"],
    [79505,"2019-06-01T12:00:00","29.7","ND","ND","ND","27.1","1.2","ND","ND","ND","ND","ND","0"],
    [79506,"2019-06-01T13:00:00","37.5","ND","ND","ND","50","1.8","ND","ND","ND","ND","579","0"],
    [79507,"2019-06-01T14:00:00","29.6","ND","ND","ND","54.6","1.6","ND","ND","ND","ND","ND","0"],
    [79508,"2019-06-01T15:00:00","30","ND","ND","ND","27.7","1.5","ND","ND","ND","ND","ND","0"],
    [79509,"2019-06-01T16:00:00","17.5","ND","ND","ND","13.1","1.1","ND","ND","ND","ND","409","0"],
    [79510,"2019-06-01T17:00:00","7.9","ND","ND","ND","13","1","ND","ND","ND","ND","615","0"],
    [79511,"2019-06-01T18:00:00","2.7","ND","ND","ND","11.1","1.3","ND","ND","ND","ND","446","0"],
    [79512,"2019-06-01T19:00:00","24.5","ND","ND","ND","9.7","1.3","ND","ND","ND","ND","0","0"],
    [79513,"2019-06-01T20:00:00","30.9","ND","ND","ND","3.1","1.5","ND","ND","ND","ND","0","0"],
    [79514,"2019-06-01T21:00:00","24.9","ND","ND","ND","1.5","1.3","ND","ND","ND","ND","0","0"],
    [79515,"2019-06-01T22:00:00","43.5","ND","ND","ND","1.4","1.3","ND","ND","ND","ND","0","0"],
    [79516,"2019-06-01T23:00:00","13.6","ND","ND","ND","1.4","1.2","ND","ND","ND","ND","0","0.1"],
    [79517,"2019-06-02T00:00:00","6.4","ND","ND","ND","1.3","2.5","ND","ND","ND","ND","0","0"],
    [79518,"2019-06-02T01:00:00","22.8","ND","ND","ND","1.7","3.9","ND","ND","ND","ND","0","0"],
    [79519,"2019-06-02T02:00:00","89.8","ND","ND","ND","1.4","2.9","ND","ND","ND","ND","0","0"],
    [79520,"2019-06-02T03:00:00","46.9","ND","ND","ND","1.7","2.5","ND","ND","ND","ND","0","2.8"],
    [79521,"2019-06-02T04:00:00","19.5","ND","ND","ND","1.5","3.1","ND","ND","ND","ND","0","0.3"],
    [79522,"2019-06-02T05:00:00","8.5","ND","ND","ND","1.7","3.6","ND","ND","ND","ND","0","0"],
    [79523,"2019-06-02T06:00:00","32.7","ND","ND","ND","1.3","3.1","ND","ND","ND","ND","0","0.1"],
    [79524,"2019-06-02T07:00:00","48.5","ND","ND","ND","1.5","3.3","ND","ND","ND","ND","0","0"],
    [79525,"2019-06-02T08:00:00","45.8","ND","ND","ND","2.7","3.3","ND","ND","ND","ND","120","0"],
    [79526,"2019-06-02T09:00:00","84.4","ND","ND","ND","7.7","2.6","ND","ND","ND","ND","ND","0"],
    [79527,"2019-06-02T10:00:00","51.5","ND","ND","ND","22.4","2","ND","ND","ND","ND","ND","0"],
    [79528,"2019-06-02T11:00:00","28.4","ND","ND","ND","42.4","1.7","ND","ND","ND","ND","ND","0"],
    [79529,"2019-06-02T12:00:00","34.9","ND","ND","ND","59.8","1.4","ND","ND","ND","ND","ND","0"],
    [79530,"2019-06-02T13:00:00","25","ND","ND","ND","61.3","1.1","ND","ND","ND","ND","664","ND"],
    [79531,"2019-06-02T14:00:00","38.8","ND","ND","ND","66.5","1.4","ND","ND","ND","ND","663","0"],
    [79532,"2019-06-02T15:00:00","52.4","ND","ND","ND","60.6","1","ND","ND","ND","ND","ND","0"],
    [79533,"2019-06-02T16:00:00","38","ND","ND","ND","48.1","1.5","ND","ND","ND","ND","ND","0"],
    [79534,"2019-06-02T17:00:00","10.6","ND","ND","ND","49","0.8","ND","ND","ND","ND","520","0"],
    [79535,"2019-06-02T18:00:00","6.2","ND","ND","ND","31.6","0.7","ND","ND","ND","ND","ND","0"],
    [79536,"2019-06-02T19:00:00","1","ND","ND","ND","11","0.7","ND","ND","ND","ND","0","0.3"],
    [79537,"2019-06-02T20:00:00","5.2","ND","ND","ND","10.1","0.5","ND","ND","ND","ND","0","0"],
    [79538,"2019-06-02T21:00:00","6.4","ND","ND","ND","12","0.9","ND","ND","ND","ND","0","0.4"],
    [79539,"2019-06-02T22:00:00","15.6","ND","ND","ND","3.5","1.7","ND","ND","ND","ND","0","ND"],
    [79540,"2019-06-02T23:00:00","16.9","ND","ND","ND","3.8","0.9","ND","ND","ND","ND","0","0.1"],
    [79541,"2019-06-03T00:00:00","8.9","ND","ND","ND","3.7","1.1","ND","ND","ND","ND","0","0"],
    [79542,"2019-06-03T01:00:00","49","ND","ND","ND","1.5","1.5","ND","ND","ND","ND","0","0"],
    [79543,"2019-06-03T02:00:00","91.7","ND","ND","ND","2.5","1.8","ND","ND","ND","ND","0","0"],
    [79544,"2019-06-03T03:00:00","38.4","ND","ND","ND","3.8","1.7","ND","ND","ND","ND","0","0.6"],
    [79545,"2019-06-03T04:00:00","20","ND","ND","ND","1.8","3.9","ND","ND","ND","ND","0","1.4"],
    [79546,"2019-06-03T05:00:00","25.3","ND","ND","ND","1.5","4.1","ND","ND","ND","ND","0","5.3"],
    [79547,"2019-06-03T06:00:00","36.2","ND","ND","ND","1.5","3.8","ND","ND","ND","ND","0","0.4"],
    [79548,"2019-06-03T07:00:00","33.5","ND","ND","ND","1.6","3.4","ND","ND","ND","ND","0","0.1"],
    [79549,"2019-06-03T08:00:00","25.9","ND","ND","ND","3.6","3.1","ND","ND","ND","ND","68","0"],
    [79550,"2019-06-03T09:00:00","38.6","ND","ND","ND","9.4","2.7","ND","ND","ND","ND","410","0"],
    [79551,"2019-06-03T10:00:00","35","ND","ND","ND","27.8","1.5","ND","ND","ND","ND","662","0"],
    [79552,"2019-06-03T11:00:00","32.5","ND","ND","ND","44.1","1.5","ND","ND","ND","ND","664","0"],
    [79553,"2019-06-03T12:00:00","29.7","ND","ND","ND","65.1","1.2","ND","ND","ND","ND","664","0"],
    [79554,"2019-06-03T13:00:00","7.2","ND","ND","ND","76.6","0.7","ND","ND","ND","ND","664","0"],
    [79555,"2019-06-03T14:00:00","28.1","ND","ND","ND","75.6","1","ND","ND","ND","ND","665","0"],
    [79556,"2019-06-03T15:00:00","73.8","ND","ND","ND","72.8","1.3","ND","ND","ND","ND","658","0"],
    [79557,"2019-06-03T16:00:00","61.1","ND","ND","ND","69.2","0.9","ND","ND","ND","ND","665","0"],
    [79558,"2019-06-03T17:00:00","45.2","ND","ND","ND","26.5","0.6","ND","ND","ND","ND","437","0"],
    [79559,"2019-06-03T18:00:00","12.5","ND","ND","ND","12.8","0.9","ND","ND","ND","ND","335","0"],
    [79560,"2019-06-03T19:00:00","ND","ND","ND","ND","3.8","0.6","ND","ND","ND","ND","0","0"],
    [79561,"2019-06-03T20:00:00","6.8","ND","ND","ND","4","0.8","ND","ND","ND","ND","0","0"],
    [79562,"2019-06-03T21:00:00","27.7","ND","ND","ND","1.6","1.7","ND","ND","ND","ND","0","0"],
    [79563,"2019-06-03T22:00:00","76.2","ND","ND","ND","2.4","2.8","ND","ND","ND","ND","0","0"],
    [79564,"2019-06-03T23:00:00","35.3","ND","ND","ND","1.4","3.3","ND","ND","ND","ND","0","0"],
    [79565,"2019-06-04T00:00:00","ND","ND","ND","ND","1.3","3.1","ND","ND","ND","ND","0","0"],
    [79566,"2019-06-04T01:00:00","ND","ND","ND","ND","1.3","1.6","ND","ND","ND","ND","0","0"],
    [79567,"2019-06-04T02:00:00","3.8","ND","ND","ND","1.5","1.7","ND","ND","ND","ND","0","0.3"],
    [79568,"2019-06-04T03:00:00","35.3","ND","ND","ND","1.6","1.6","ND","ND","ND","ND","0","0.4"],
    [79569,"2019-06-04T04:00:00","33.3","ND","ND","ND","1.7","2.3","ND","ND","ND","ND","0","0.2"],
    [79570,"2019-06-04T05:00:00","31.5","ND","ND","ND","1.5","2.7","ND","ND","ND","ND","0","0.1"],
    [79571,"2019-06-04T06:00:00","37.1","ND","ND","ND","1.5","2.5","ND","ND","ND","ND","0","0"],
    [79572,"2019-06-04T07:00:00","33.3","ND","ND","ND","1.7","2.5","ND","ND","ND","ND","0","0"],
    [79573,"2019-06-04T08:00:00","79.3","ND","ND","ND","2.5","3.2","ND","ND","ND","ND","144","0"],
    [79574,"2019-06-04T09:00:00","61","ND","ND","ND","8.6","2.1","ND","ND","ND","ND","ND","0"],
    [79575,"2019-06-04T10:00:00","42.2","ND","ND","ND","26.9","1.6","ND","ND","ND","ND","659","0.1"],
    [79576,"2019-06-04T11:00:00","33.5","ND","ND","ND","39.2","1.2","ND","ND","ND","ND","664","0"],
    [79577,"2019-06-04T12:00:00","21.4","ND","ND","ND","ND","1.6","ND","ND","ND","ND","653","0"],
    [79578,"2019-06-04T13:00:00","72","ND","ND","ND","64.6","15.7","ND","ND","ND","ND","665","0"],
    [79579,"2019-06-04T14:00:00","23.9","ND","ND","ND","78.3","21.7","ND","ND","ND","ND","659","10.4"],
    [79580,"2019-06-04T15:00:00","19.4","ND","ND","ND","54.6","2.8","ND","ND","ND","ND","657","1.8"],
    [79581,"2019-06-04T16:00:00","ND","ND","ND","ND","22.8","1.3","ND","ND","ND","ND","660","0.2"],
    [79582,"2019-06-04T17:00:00","ND","ND","ND","ND","20.1","0.7","ND","ND","ND","ND","574","ND"],
    [79583,"2019-06-04T18:00:00","ND","ND","ND","ND","15","1.3","ND","ND","ND","ND","512","0.2"],
    [79584,"2019-06-04T19:00:00","1.9","ND","ND","ND","10.8","1.3","ND","ND","ND","ND","0","0.1"],
    [79585,"2019-06-04T20:00:00","6.5","ND","ND","ND","6.5","0.6","ND","ND","ND","ND","0","0"],
    [79586,"2019-06-04T21:00:00","31.5","ND","ND","ND","8.4","1.5","ND","ND","ND","ND","0","0"],
    [79587,"2019-06-04T22:00:00","40.1","ND","ND","ND","15.6","1","ND","ND","ND","ND","0","0.2"],
    [79588,"2019-06-04T23:00:00","45.8","ND","ND","ND","1.9","2","ND","ND","ND","ND","ND","0.2"],
    [79589,"2019-06-05T00:00:00","28.2","ND","ND","ND","1.9","2.4","ND","ND","ND","ND","ND","0"],
    [79590,"2019-06-05T01:00:00","41.9","ND","ND","ND","2","1","ND","ND","ND","ND","0","0"],
    [79591,"2019-06-05T02:00:00","71.4","ND","ND","ND","1.4","1.5","ND","ND","ND","ND","0","0"],
    [79592,"2019-06-05T03:00:00","38.1","ND","ND","ND","1.4","1.4","ND","ND","ND","ND","ND","0"],
    [79593,"2019-06-05T04:00:00","42.3","ND","ND","ND","1.4","1.8","ND","ND","ND","ND","0","0"],
    [79594,"2019-06-05T05:00:00","48.6","ND","ND","ND","1.6","3.7","ND","ND","ND","ND","0","0"],
    [79595,"2019-06-05T06:00:00","50.2","ND","ND","ND","1.8","3.3","ND","ND","ND","ND","0","0"],
    [79596,"2019-06-05T07:00:00","74.9","ND","ND","ND","2","4.2","ND","ND","ND","ND","ND","3.6"],
    [79597,"2019-06-05T08:00:00","121.7","ND","ND","ND","3.6","3.2","ND","ND","ND","ND","119","2.4"],
    [79598,"2019-06-05T09:00:00","99.1","ND","ND","ND","12.5","2.6","ND","ND","ND","ND","540","0"],
    [79599,"2019-06-05T10:00:00","60.4","ND","ND","ND","37","1.7","ND","ND","ND","ND","656","0.1"],
    [79600,"2019-06-05T11:00:00","37.2","ND","ND","ND","55.3","1","ND","ND","ND","ND","664","0"],
    [79601,"2019-06-05T12:00:00","58.7","ND","ND","ND","68.8","1.4","ND","ND","ND","ND","664","0"],
    [79602,"2019-06-05T13:00:00","53.8","ND","ND","ND","79.7","0.9","ND","ND","ND","ND","ND","0"],
    [79603,"2019-06-05T14:00:00","25.5","ND","ND","ND","94.5","0.9","ND","ND","ND","ND","ND","0"],
    [79604,"2019-06-05T15:00:00","40.8","ND","ND","ND","108","0.7","ND","ND","ND","ND","660","0"],
    [79605,"2019-06-05T16:00:00","27.6","ND","ND","ND","68.1","0.7","ND","ND","ND","ND","ND","0"],
    [79606,"2019-06-05T17:00:00","7.1","ND","ND","ND","25.5","0.7","ND","ND","ND","ND","ND","0"],
    [79607,"2019-06-05T18:00:00","ND","ND","ND","ND","22","0.7","ND","ND","ND","ND","ND","0"],
    [79608,"2019-06-05T19:00:00","0.2","ND","ND","ND","19.1","0.6","ND","ND","ND","ND","72","0"],
    [79609,"2019-06-05T20:00:00","18.3","ND","ND","ND","5.1","0.5","ND","ND","ND","ND","0","0"],
    [79610,"2019-06-05T21:00:00","14.4","ND","ND","ND","4.5","1","ND","ND","ND","ND","0","0.1"],
    [79611,"2019-06-05T22:00:00","34","ND","ND","ND","4.6","1.5","ND","ND","ND","ND","0","0.3"],
    [79612,"2019-06-05T23:00:00","0.8","ND","ND","ND","9.3","1.1","ND","ND","ND","ND","0","0"],
    [79613,"2019-06-06T00:00:00","3","ND","ND","ND","5.5","2.4","ND","ND","ND","ND","0","0"],
    [79614,"2019-06-06T01:00:00","0.8","ND","ND","ND","4","2.1","ND","ND","ND","ND","0","0.1"],
    [79615,"2019-06-06T02:00:00","ND","ND","ND","ND","4.8","1.6","ND","ND","ND","ND","0","0"],
    [79616,"2019-06-06T03:00:00","15.5","ND","ND","ND","7.6","2.6","ND","ND","ND","ND","0","0.1"],
    [79617,"2019-06-06T04:00:00","13.1","ND","ND","ND","5.8","2.4","ND","ND","ND","ND","0","0"],
    [79618,"2019-06-06T05:00:00","30.5","ND","ND","ND","1.6","3","ND","ND","ND","ND","ND","0.1"],
    [79619,"2019-06-06T06:00:00","35.4","ND","ND","ND","1.2","2.1","ND","ND","ND","ND","ND","0"],
    [79620,"2019-06-06T07:00:00","20","ND","ND","ND","1.6","0.9","ND","ND","ND","ND","ND","0"],
    [79621,"2019-06-06T08:00:00","112.4","ND","ND","ND","3.4","2.3","ND","ND","ND","ND","152","0"],
    [79622,"2019-06-06T09:00:00","50.1","ND","ND","ND","13.7","1.2","ND","ND","ND","ND","550","0"],
    [79623,"2019-06-06T10:00:00","12.3","ND","ND","ND","33.1","0.9","ND","ND","ND","ND","656","0"],
    [79624,"2019-06-06T11:00:00","24.8","ND","ND","ND","53.4","1.1","ND","ND","ND","ND","660","0"],
    [79625,"2019-06-06T12:00:00","43.6","ND","ND","ND","59.9","0.9","ND","ND","ND","ND","ND","0"],
    [79626,"2019-06-06T13:00:00","31.7","ND","ND","ND","63.3","0.7","ND","ND","ND","ND","661","0"],
    [79627,"2019-06-06T14:00:00","12.3","ND","ND","ND","43","1.1","ND","ND","ND","ND","665","0"],
    [79628,"2019-06-06T15:00:00","61","ND","ND","ND","23","1.6","ND","ND","ND","ND","665","0"],
    [79629,"2019-06-06T16:00:00","27.9","ND","ND","ND","20.8","0.8","ND","ND","ND","ND","578","0"],
    [79630,"2019-06-06T17:00:00","3.1","ND","ND","ND","15.3","0.7","ND","ND","ND","ND","451","0"],
    [79631,"2019-06-06T18:00:00","7","ND","ND","ND","13.2","0.7","ND","ND","ND","ND","298","0"],
    [79632,"2019-06-06T19:00:00","10.8","ND","ND","ND","3.7","0.6","ND","ND","ND","ND","0","0"],
    [79633,"2019-06-06T20:00:00","25.2","ND","ND","ND","6.4","0.8","ND","ND","ND","ND","0","0.1"],
    [79634,"2019-06-06T21:00:00","1.8","ND","ND","ND","2.5","0.8","ND","ND","ND","ND","0","0"],
    [79635,"2019-06-06T22:00:00","23.2","ND","ND","ND","1.4","0.5","ND","ND","ND","ND","0","0"],
    [79636,"2019-06-06T23:00:00","15.1","ND","ND","ND","1.2","0.5","ND","ND","ND","ND","0","0"],
    [79637,"2019-06-07T00:00:00","0.4","ND","ND","ND","1.2","0.6","ND","ND","ND","ND","0","0"],
    [79638,"2019-06-07T01:00:00","ND","ND","ND","ND","1.5","1.8","ND","ND","ND","ND","0","0"],
    [79639,"2019-06-07T02:00:00","10.1","ND","ND","ND","1.5","1.8","ND","ND","ND","ND","0","0"],
    [79640,"2019-06-07T03:00:00","23","ND","ND","ND","1.5","0.7","ND","ND","ND","ND","0","0"],
    [79641,"2019-06-07T04:00:00","9.9","ND","ND","ND","1.4","1.1","ND","ND","ND","ND","0","0"],
    [79642,"2019-06-07T05:00:00","9.6","ND","ND","ND","1.5","0.9","ND","ND","ND","ND","0","0"],
    [79643,"2019-06-07T06:00:00","15.9","ND","ND","ND","1.3","1.3","ND","ND","ND","ND","0","0"],
    [79644,"2019-06-07T07:00:00","14.6","ND","ND","ND","1.2","1.3","ND","ND","ND","ND","0","0"],
    [79645,"2019-06-07T08:00:00","9","ND","ND","ND","1.5","1","ND","ND","ND","ND","44","0"],
    [79646,"2019-06-07T09:00:00","4.4","ND","ND","ND","2.3","1.1","ND","ND","ND","ND","157","0"],
    [79647,"2019-06-07T10:00:00","53.6","ND","ND","ND","4.9","1.7","ND","ND","ND","ND","171","0"],
    [79648,"2019-06-07T11:00:00","71.6","ND","ND","ND","7","1.1","ND","ND","ND","ND","566","0"],
    [79649,"2019-06-07T12:00:00","30","ND","ND","ND","6.8","1","ND","ND","ND","ND","664","0"],
    [79650,"2019-06-07T13:00:00","6.2","ND","ND","ND","7.9","0.8","ND","ND","ND","ND","346","0"],
    [79651,"2019-06-07T14:00:00","23.8","ND","ND","ND","17.8","0.8","ND","ND","ND","ND","505","0"],
    [79652,"2019-06-07T15:00:00","20.2","ND","ND","ND","13.2","1.4","ND","ND","ND","ND","661","0"],
    [79653,"2019-06-07T16:00:00","5.3","ND","ND","ND","12","0.9","ND","ND","ND","ND","ND","0"],
    [79654,"2019-06-07T17:00:00","4.9","ND","ND","ND","9.1","0.6","ND","ND","ND","ND","518","0"],
    [79655,"2019-06-07T18:00:00","0.1","ND","ND","ND","2.6","0.9","ND","ND","ND","ND","169","0"],
    [79656,"2019-06-07T19:00:00","6.1","ND","ND","ND","2.4","1.2","ND","ND","ND","ND","0","0"],
    [79657,"2019-06-07T20:00:00","11.2","ND","ND","ND","2.8","2.1","ND","ND","ND","ND","0","0"],
    [79658,"2019-06-07T21:00:00","16","ND","ND","ND","1.6","1.2","ND","ND","ND","ND","0","0"],
    [79659,"2019-06-07T22:00:00","2.3","ND","ND","ND","1.5","0.2","ND","ND","ND","ND","0","0"],
    [79660,"2019-06-07T23:00:00","8.6","ND","ND","ND","1.3","0.5","ND","ND","ND","ND","0","0"],
    [79661,"2019-06-08T00:00:00","16.7","ND","ND","ND","1.3","1","ND","ND","ND","ND","0","0"],
    [79662,"2019-06-08T01:00:00","24.7","ND","ND","ND","1.5","0.6","ND","ND","ND","ND","0","0"],
    [79663,"2019-06-08T02:00:00","21.1","ND","ND","ND","1.3","1","ND","ND","ND","ND","0","0"],
    [79664,"2019-06-08T03:00:00","20.3","ND","ND","ND","1.5","1.7","ND","ND","ND","ND","0","0"],
    [79665,"2019-06-08T04:00:00","8.6","ND","ND","ND","1.4","1.5","ND","ND","ND","ND","0","0"],
    [79666,"2019-06-08T05:00:00","20.8","ND","ND","ND","1.4","1.6","ND","ND","ND","ND","0","0"],
    [79667,"2019-06-08T06:00:00","39.6","ND","ND","ND","1.6","1.1","ND","ND","ND","ND","0","0"],
    [79668,"2019-06-08T07:00:00","25","ND","ND","ND","1.5","1.3","ND","ND","ND","ND","0","0"],
    [79669,"2019-06-08T08:00:00","42.1","ND","ND","ND","1.7","1.3","ND","ND","ND","ND","32","0"],
    [79670,"2019-06-08T09:00:00","39.8","ND","ND","ND","2.2","1.3","ND","ND","ND","ND","118","0.3"],
    [79671,"2019-06-08T10:00:00","48.8","ND","ND","ND","2.5","1.1","ND","ND","ND","ND","221","0.2"],
    [79672,"2019-06-08T11:00:00","58.8","ND","ND","ND","7.3","1.3","ND","ND","ND","ND","298","0.2"],
    [79673,"2019-06-08T12:00:00","53.5","ND","ND","ND","24.3","0.5","ND","ND","ND","ND","655","0.1"],
    [79674,"2019-06-08T13:00:00","32.5","ND","ND","ND","49.9","0.9","ND","ND","ND","ND","664","0"],
    [79675,"2019-06-08T14:00:00","33.5","ND","ND","ND","67.5","1.1","ND","ND","ND","ND","664","0"],
    [79676,"2019-06-08T15:00:00","47.8","ND","ND","ND","80.8","1","ND","ND","ND","ND","664","0"],
    [79677,"2019-06-08T16:00:00","68.9","ND","ND","ND","76.7","1","ND","ND","ND","ND","661","0"],
    [79678,"2019-06-08T17:00:00","44.2","ND","ND","ND","59.5","1","ND","ND","ND","ND","ND","0"],
    [79679,"2019-06-08T18:00:00","38.3","ND","ND","ND","46.6","1","ND","ND","ND","ND","324","0"],
    [79680,"2019-06-08T19:00:00","14.8","ND","ND","ND","9.7","0.8","ND","ND","ND","ND","0","0"],
    [79681,"2019-06-08T20:00:00","36.2","ND","ND","ND","3","1.1","ND","ND","ND","ND","0","0"],
    [79682,"2019-06-08T21:00:00","42.4","ND","ND","ND","3.1","0.9","ND","ND","ND","ND","0","0"],
    [79683,"2019-06-08T22:00:00","50.1","ND","ND","ND","1.6","1.4","ND","ND","ND","ND","0","0"],
    [79684,"2019-06-08T23:00:00","61.8","ND","ND","ND","1.5","1.4","ND","ND","ND","ND","0","0"],
    [79685,"2019-06-09T00:00:00","42.1","ND","ND","ND","1.2","1.2","ND","ND","ND","ND","0","0"],
    [79686,"2019-06-09T01:00:00","51.2","ND","ND","ND","1.3","1.9","ND","ND","ND","ND","0","0"],
    [79687,"2019-06-09T02:00:00","42.3","ND","ND","ND","1.4","1.9","ND","ND","ND","ND","0","0"],
    [79688,"2019-06-09T03:00:00","58.9","ND","ND","ND","1.2","1.5","ND","ND","ND","ND","0","0"],
    [79689,"2019-06-09T04:00:00","36.6","ND","ND","ND","1.2","0.7","ND","ND","ND","ND","0","0"],
    [79690,"2019-06-09T05:00:00","14.4","ND","ND","ND","1.3","1.1","ND","ND","ND","ND","0","0"],
    [79691,"2019-06-09T06:00:00","49.2","ND","ND","ND","1.3","1.6","ND","ND","ND","ND","0","0"],
    [79692,"2019-06-09T07:00:00","32.4","ND","ND","ND","1.5","2.1","ND","ND","ND","ND","ND","0"],
    [79693,"2019-06-09T08:00:00","51.4","ND","ND","ND","2.4","1.4","ND","ND","ND","ND","73","0"],
    [79694,"2019-06-09T09:00:00","70","ND","ND","ND","12.2","0.5","ND","ND","ND","ND","540","0"],
    [79695,"2019-06-09T10:00:00","5.8","ND","ND","ND","27.6","1.1","ND","ND","ND","ND","571","0"],
    [79696,"2019-06-09T11:00:00","73.1","ND","ND","ND","51","0.9","ND","ND","ND","ND","663","0"],
    [79697,"2019-06-09T12:00:00","54.6","ND","ND","ND","71.7","0.7","ND","ND","ND","ND","658","0"],
    [79698,"2019-06-09T13:00:00","20.5","ND","ND","ND","75.9","0.9","ND","ND","ND","ND","664","0"],
    [79699,"2019-06-09T14:00:00","32.3","ND","ND","ND","82","0.9","ND","ND","ND","ND","664","0"],
    [79700,"2019-06-09T15:00:00","46.5","ND","ND","ND","78.5","0.9","ND","ND","ND","ND","664","0"],
    [79701,"2019-06-09T16:00:00","30.8","ND","ND","ND","61.3","0.7","ND","ND","ND","ND","ND","0"],
    [79702,"2019-06-09T17:00:00","9.7","ND","ND","ND","29.2","0.3","ND","ND","ND","ND","190","0"],
    [79703,"2019-06-09T18:00:00","19.2","ND","ND","ND","23","0.3","ND","ND","ND","ND","326","0"],
    [79704,"2019-06-09T19:00:00","4.8","ND","ND","ND","8.1","1","ND","ND","ND","ND","0","0"],
    [79705,"2019-06-09T20:00:00","9.8","ND","ND","ND","2.5","2.5","ND","ND","ND","ND","0","0"],
    [79706,"2019-06-09T21:00:00","20.3","ND","ND","ND","1.6","3.8","ND","ND","ND","ND","0","0"],
    [79707,"2019-06-09T22:00:00","23.5","ND","ND","ND","1.4","1.5","ND","ND","ND","ND","0","0"],
    [79708,"2019-06-09T23:00:00","30.8","ND","ND","ND","1.4","1.4","ND","ND","ND","ND","0","0"],
    [79709,"2019-06-10T00:00:00","22.1","ND","ND","ND","1.5","1.8","ND","ND","ND","ND","0","0"],
    [79710,"2019-06-10T01:00:00","29.6","ND","ND","ND","1.6","6.8","ND","ND","ND","ND","0","0"],
    [79711,"2019-06-10T02:00:00","43.2","ND","ND","ND","1.3","2.6","ND","ND","ND","ND","0","0"],
    [79712,"2019-06-10T03:00:00","43","ND","ND","ND","1.3","1.6","ND","ND","ND","ND","0","0"],
    [79713,"2019-06-10T04:00:00","35","ND","ND","ND","1.5","2.6","ND","ND","ND","ND","0","0"],
    [79714,"2019-06-10T05:00:00","62.4","ND","ND","ND","1.4","2.4","ND","ND","ND","ND","0","0"],
    [79715,"2019-06-10T06:00:00","73.4","ND","ND","ND","1.3","1.1","ND","ND","ND","ND","0","0"],
    [79716,"2019-06-10T07:00:00","54.7","ND","ND","ND","1.8","2.7","ND","ND","ND","ND","0","0"],
    [79717,"2019-06-10T08:00:00","102.7","ND","ND","ND","2.3","2.7","ND","ND","ND","ND","83","0"],
    [79718,"2019-06-10T09:00:00","85.4","ND","ND","ND","4.1","2.2","ND","ND","ND","ND","374","0"],
    [79719,"2019-06-10T10:00:00","37.6","ND","ND","ND","14.8","1.4","ND","ND","ND","ND","ND","0"],
    [79720,"2019-06-10T11:00:00","50.1","ND","ND","ND","37.8","1","ND","ND","ND","ND","639","0"],
    [79721,"2019-06-10T12:00:00","32.6","ND","ND","ND","57.6","1","ND","ND","ND","ND","664","0"],
    [79722,"2019-06-10T13:00:00","20","ND","ND","ND","63.9","0.8","ND","ND","ND","ND","664","0"],
    [79723,"2019-06-10T14:00:00","36.4","ND","ND","ND","84.6","0.9","ND","ND","ND","ND","664","0"],
    [79724,"2019-06-10T15:00:00","49.5","ND","ND","ND","50.9","0.7","ND","ND","ND","ND","663","0"],
    [79725,"2019-06-10T16:00:00","26.8","ND","ND","ND","20.5","0.5","ND","ND","ND","ND","599","0"],
    [79726,"2019-06-10T17:00:00","2.7","ND","ND","ND","18.3","0.8","ND","ND","ND","ND","598","0.7"],
    [79727,"2019-06-10T18:00:00","5.7","ND","ND","ND","16.2","0.8","ND","ND","ND","ND","413","0"],
    [79728,"2019-06-10T19:00:00","25.9","ND","ND","ND","10.5","1","ND","ND","ND","ND","0","0"],
    [79729,"2019-06-10T20:00:00","2.3","ND","ND","ND","2.9","1.5","ND","ND","ND","ND","0","0.1"],
    [79730,"2019-06-10T21:00:00","10","ND","ND","ND","1.4","2","ND","ND","ND","ND","0","0"],
    [79731,"2019-06-10T22:00:00","ND","ND","ND","ND","ND","ND","ND","ND","ND","ND","0","0"],
    [79732,"2019-06-10T23:00:00","ND","ND","ND","ND","ND","ND","ND","ND","ND","ND","ND","0"],
    [79733,"2019-06-11T00:00:00","ND","ND","ND","ND","ND","ND","ND","ND","ND","ND","ND","0"],
    [79734,"2019-06-11T01:00:00","ND","ND","ND","ND","ND","ND","ND","ND","ND","ND","ND","ND"],
    [79735,"2019-06-11T02:00:00","ND","ND","ND","ND","ND","ND","ND","ND","ND","ND","ND","0"],
    [79736,"2019-06-11T03:00:00","ND","ND","ND","ND","ND","ND","ND","ND","ND","ND","ND","0"],
    [79737,"2019-06-11T04:00:00","ND","ND","ND","ND","ND","ND","ND","ND","ND","ND","ND","ND"],
    [79738,"2019-06-11T05:00:00","ND","ND","ND","ND","ND","ND","ND","ND","ND","ND","ND","ND"],
    [79739,"2019-06-11T06:00:00","ND","ND","ND","ND","ND","ND","ND","ND","ND","ND","ND","ND"],
    [79740,"2019-06-11T07:00:00","ND","ND","ND","ND","ND","ND","ND","ND","ND","ND","ND","0"],
    [79741,"2019-06-11T08:00:00","ND","ND","ND","ND","ND","ND","ND","ND","ND","ND","ND","0"],
    [79742,"2019-06-11T09:00:00","ND","ND","ND","ND","ND","ND","ND","ND","ND","ND","ND","ND"],
    [79743,"2019-06-11T10:00:00","ND","ND","ND","ND","ND","ND","ND","ND","ND","ND","ND","ND"],
    [79744,"2019-06-11T11:00:00","ND","ND","ND","ND","ND","ND","ND","ND","ND","ND","ND","ND"],
    [79745,"2019-06-11T12:00:00","ND","ND","ND","ND","ND","ND","ND","ND","ND","ND","ND","0"],
    [79746,"2019-06-11T13:00:00","32.8","ND","ND","ND","36.9","1.3","ND","ND","ND","ND","ND","0"],
    [79747,"2019-06-11T14:00:00","26.9","ND","ND","ND","64.8","0.8","ND","ND","ND","ND","664","ND"],
    [79748,"2019-06-11T15:00:00","10.4","ND","ND","ND","68.8","1.1","ND","ND","ND","ND","649","0"],
    [79749,"2019-06-11T16:00:00","13.9","ND","ND","ND","66.6","0.9","ND","ND","ND","ND","637","0"],
    [79750,"2019-06-11T17:00:00","6.4","ND","ND","ND","16.3","0.5","ND","ND","ND","ND","544","0"],
    [79751,"2019-06-11T18:00:00","2.9","ND","ND","ND","11.6","0.4","ND","ND","ND","ND","308","0"],
    [79752,"2019-06-11T19:00:00","0.4","ND","ND","ND","5.7","0.7","ND","ND","ND","ND","0","ND"],
    [79753,"2019-06-11T20:00:00","ND","ND","ND","ND","6.3","0.8","ND","ND","ND","ND","0","0.3"],
    [79754,"2019-06-11T21:00:00","16.5","ND","ND","ND","2.9","0.5","ND","ND","ND","ND","0","ND"],
    [79755,"2019-06-11T22:00:00","40.7","ND","ND","ND","1.8","1.9","ND","ND","ND","ND","0","5.8"],
    [79756,"2019-06-11T23:00:00","44.2","ND","ND","ND","1.6","2.1","ND","ND","ND","ND","0","0.8"],
    [79757,"2019-06-12T00:00:00","33.8","ND","ND","ND","1.7","1.8","ND","ND","ND","ND","0","ND"],
    [79758,"2019-06-12T01:00:00","ND","ND","ND","ND","1.7","1.9","ND","ND","ND","ND","0","0"],
    [79759,"2019-06-12T02:00:00","ND","ND","ND","ND","1.7","2","ND","ND","ND","ND","0","ND"],
    [79760,"2019-06-12T03:00:00","16.2","ND","ND","ND","1.7","2.4","ND","ND","ND","ND","0","ND"],
    [79761,"2019-06-12T04:00:00","42.5","ND","ND","ND","1.7","2","ND","ND","ND","ND","0","0"],
    [79762,"2019-06-12T05:00:00","55.1","ND","ND","ND","1.7","2.3","ND","ND","ND","ND","0","ND"],
    [79763,"2019-06-12T06:00:00","52","ND","ND","ND","1.8","3.2","ND","ND","ND","ND","0","ND"],
    [79764,"2019-06-12T07:00:00","66.1","ND","ND","ND","1.7","3.6","ND","ND","ND","ND","0","0"],
    [79765,"2019-06-12T08:00:00","56.1","ND","ND","ND","1.6","4.4","ND","ND","ND","ND","67","0"],
    [79766,"2019-06-12T09:00:00","82.1","ND","ND","ND","2.1","3.6","ND","ND","ND","ND","186","ND"],
    [79767,"2019-06-12T10:00:00","84.8","ND","ND","ND","3.9","2","ND","ND","ND","ND","564","ND"],
    [79768,"2019-06-12T11:00:00","69.8","ND","ND","ND","9.9","1.8","ND","ND","ND","ND","663","ND"],
    [79769,"2019-06-12T12:00:00","19.3","ND","ND","ND","23.5","0.6","ND","ND","ND","ND","664","ND"],
    [79770,"2019-06-12T13:00:00","15.7","ND","ND","ND","32","0.7","ND","ND","ND","ND","664","ND"],
    [79771,"2019-06-12T14:00:00","14.1","ND","ND","ND","34.9","0.9","ND","ND","ND","ND","664","ND"],
    [79772,"2019-06-12T15:00:00","12.4","ND","ND","ND","36.3","0.5","ND","ND","ND","ND","608","ND"],
    [79773,"2019-06-12T16:00:00","30.2","ND","ND","ND","29","0.6","ND","ND","ND","ND","647","ND"],
    [79774,"2019-06-12T17:00:00","28.9","ND","ND","ND","28.8","1.1","ND","ND","ND","ND","663","0"],
    [79775,"2019-06-12T18:00:00","29.7","ND","ND","ND","12.4","0.3","ND","ND","ND","ND","634","ND"],
    [79776,"2019-06-12T19:00:00","2.6","ND","ND","ND","4.2","0.6","ND","ND","ND","ND","0","ND"],
    [79777,"2019-06-12T20:00:00","0.4","ND","ND","ND","1.8","0.6","ND","ND","ND","ND","0","ND"],
    [79778,"2019-06-12T21:00:00","34.2","ND","ND","ND","1.7","0.6","ND","ND","ND","ND","0","ND"],
    [79779,"2019-06-12T22:00:00","59.2","ND","ND","ND","1.8","1.1","ND","ND","ND","ND","0","0"],
    [79780,"2019-06-12T23:00:00","41.1","ND","ND","ND","1.7","1.6","ND","ND","ND","ND","0","ND"],
    [79781,"2019-06-13T00:00:00","ND","ND","ND","ND","1.5","1.6","ND","ND","ND","ND","0","0"],
    [79782,"2019-06-13T01:00:00","6.9","ND","ND","ND","1.5","1.7","ND","ND","ND","ND","0","0"],
    [79783,"2019-06-13T02:00:00","33.7","ND","ND","ND","1.5","1.4","ND","ND","ND","ND","0","0"],
    [79784,"2019-06-13T03:00:00","49.8","ND","ND","ND","1.5","1.6","ND","ND","ND","ND","0","0"],
    [79785,"2019-06-13T04:00:00","20.8","ND","ND","ND","1.4","2.4","ND","ND","ND","ND","0","0"],
    [79786,"2019-06-13T05:00:00","29.4","ND","ND","ND","1.3","1.1","ND","ND","ND","ND","0","0.1"],
    [79787,"2019-06-13T06:00:00","39.3","ND","ND","ND","1.5","0.8","ND","ND","ND","ND","0","0"],
    [79788,"2019-06-13T07:00:00","49.7","ND","ND","ND","1.9","4.7","ND","ND","ND","ND","0","0"],
    [79789,"2019-06-13T08:00:00","87.2","ND","ND","ND","2.1","3.4","ND","ND","ND","ND","67","0"],
    [79790,"2019-06-13T09:00:00","73","ND","ND","ND","2.6","2.6","ND","ND","ND","ND","298","0"],
    [79791,"2019-06-13T10:00:00","17.6","ND","ND","ND","6","2","ND","ND","ND","ND","301","0"],
    [79792,"2019-06-13T11:00:00","54.4","ND","ND","ND","19","1.6","ND","ND","ND","ND","660","0"],
    [79793,"2019-06-13T12:00:00","36.4","ND","ND","ND","38.8","1.1","ND","ND","ND","ND","663","0"],
    [79794,"2019-06-13T13:00:00","39.1","ND","ND","ND","45.6","0.9","ND","ND","ND","ND","664","0"],
    [79795,"2019-06-13T14:00:00","11.1","ND","ND","ND","40.2","1.4","ND","ND","ND","ND","630","0"],
    [79796,"2019-06-13T15:00:00","0.1","ND","ND","ND","18.8","0.9","ND","ND","ND","ND","243","0"],
    [79797,"2019-06-13T16:00:00","0.2","ND","ND","ND","16","0.5","ND","ND","ND","ND","90","0"],
    [79798,"2019-06-13T17:00:00","29.6","ND","ND","ND","14.2","0.5","ND","ND","ND","ND","551","0"],
    [79799,"2019-06-13T18:00:00","10.6","ND","ND","ND","8.9","0.3","ND","ND","ND","ND","511","0"],
    [79800,"2019-06-13T19:00:00","2","ND","ND","ND","3.7","0.8","ND","ND","ND","ND","276","0"],
    [79801,"2019-06-13T20:00:00","43.1","ND","ND","ND","1.9","0.5","ND","ND","ND","ND","0","0"],
    [79802,"2019-06-13T21:00:00","15.3","ND","ND","ND","1.5","0.7","ND","ND","ND","ND","0","0.2"],
    [79803,"2019-06-13T22:00:00","23.5","ND","ND","ND","1.7","0.9","ND","ND","ND","ND","0","0.4"],
    [79804,"2019-06-13T23:00:00","29.1","ND","ND","ND","1.8","0.8","ND","ND","ND","ND","0","ND"],
    [79805,"2019-06-14T00:00:00","32","ND","ND","ND","1.6","1.3","ND","ND","ND","ND","0","0"],
    [79806,"2019-06-14T01:00:00","42.4","ND","ND","ND","1.6","1.3","ND","ND","ND","ND","0","0"],
    [79807,"2019-06-14T02:00:00","40.1","ND","ND","ND","1.7","1.5","ND","ND","ND","ND","0","0"],
    [79808,"2019-06-14T03:00:00","15.8","ND","ND","ND","1.7","0.9","ND","ND","ND","ND","0","0"],
    [79809,"2019-06-14T04:00:00","19.7","ND","ND","ND","1.9","1.1","ND","ND","ND","ND","0","0"],
    [79810,"2019-06-14T05:00:00","13.6","ND","ND","ND","1.7","0.9","ND","ND","ND","ND","ND","0"],
    [79811,"2019-06-14T06:00:00","24.6","ND","ND","ND","1.7","1.3","ND","ND","ND","ND","ND","0"],
    [79812,"2019-06-14T07:00:00","59.8","ND","ND","ND","1.7","1.1","ND","ND","ND","ND","ND","0"],
    [79813,"2019-06-14T08:00:00","71.2","ND","ND","ND","2.2","3.5","ND","ND","ND","ND","164","0"],
    [79814,"2019-06-14T09:00:00","80.7","ND","ND","ND","3.5","4","ND","ND","ND","ND","370","0"],
    [79815,"2019-06-14T10:00:00","47.4","ND","ND","ND","8.3","1.8","ND","ND","ND","ND","ND","0"],
    [79816,"2019-06-14T11:00:00","39.9","ND","ND","ND","17.4","1.2","ND","ND","ND","ND","ND","0"],
    [79817,"2019-06-14T12:00:00","51.9","ND","ND","ND","29.6","0.5","ND","ND","ND","ND","ND","0"],
    [79818,"2019-06-14T13:00:00","10.1","ND","ND","ND","35","1.1","ND","ND","ND","ND","663","0"],
    [79819,"2019-06-14T14:00:00","23.5","ND","ND","ND","38.2","0.4","ND","ND","ND","ND","657","0"],
    [79820,"2019-06-14T15:00:00","8.4","ND","ND","ND","20.6","0.8","ND","ND","ND","ND","ND","0"],
    [79821,"2019-06-14T16:00:00","1.9","ND","ND","ND","17.7","0.6","ND","ND","ND","ND","652","0"],
    [79822,"2019-06-14T17:00:00","29.9","ND","ND","ND","13.9","0.6","ND","ND","ND","ND","663","0"],
    [79823,"2019-06-14T18:00:00","8","ND","ND","ND","9.9","0.5","ND","ND","ND","ND","521","0"],
    [79824,"2019-06-14T19:00:00","3.3","ND","ND","ND","4.2","0.8","ND","ND","ND","ND","182","0"],
    [79825,"2019-06-14T20:00:00","33.6","ND","ND","ND","6.5","0.3","ND","ND","ND","ND","0","0"],
    [79826,"2019-06-14T21:00:00","29.9","ND","ND","ND","15.8","1.2","ND","ND","ND","ND","0","0"],
    [79827,"2019-06-14T22:00:00","29.6","ND","ND","ND","12.3","1","ND","ND","ND","ND","0","0"],
    [79828,"2019-06-14T23:00:00","15.4","ND","ND","ND","9.3","1.1","ND","ND","ND","ND","0","0"],
    [79829,"2019-06-15T00:00:00","17.2","ND","ND","ND","4.6","1","ND","ND","ND","ND","0","0"],
    [79830,"2019-06-15T01:00:00","40.6","ND","ND","ND","2.9","1.6","ND","ND","ND","ND","0","0"],
    [79831,"2019-06-15T02:00:00","78.3","ND","ND","ND","2.9","2.8","ND","ND","ND","ND","0","0"],
    [79832,"2019-06-15T03:00:00","30.9","ND","ND","ND","1.9","2.7","ND","ND","ND","ND","0","0"],
    [79833,"2019-06-15T04:00:00","31.6","ND","ND","ND","2.4","2.5","ND","ND","ND","ND","0","0"],
    [79834,"2019-06-15T05:00:00","40","ND","ND","ND","1.8","2.2","ND","ND","ND","ND","0","0"],
    [79835,"2019-06-15T06:00:00","55.3","ND","ND","ND","1.7","3.1","ND","ND","ND","ND","0","0"],
    [79836,"2019-06-15T07:00:00","83.3","ND","ND","ND","1.9","4.3","ND","ND","ND","ND","ND","0"],
    [79837,"2019-06-15T08:00:00","92.8","ND","ND","ND","2.5","4.3","ND","ND","ND","ND","ND","0"],
    [79838,"2019-06-15T09:00:00","76.9","ND","ND","ND","4.2","5","ND","ND","ND","ND","ND","0"],
    [79839,"2019-06-15T10:00:00","59.8","ND","ND","ND","13.7","2.6","ND","ND","ND","ND","642","0"],
    [79840,"2019-06-15T11:00:00","59.6","ND","ND","ND","31.5","1","ND","ND","ND","ND","664","0"],
    [79841,"2019-06-15T12:00:00","69.2","ND","ND","ND","60.7","1.3","ND","ND","ND","ND","612","0"],
    [79842,"2019-06-15T13:00:00","54.8","ND","ND","ND","73.9","0.8","ND","ND","ND","ND","664","0"],
    [79843,"2019-06-15T14:00:00","18.1","ND","ND","ND","67.8","0.9","ND","ND","ND","ND","665","0"],
    [79844,"2019-06-15T15:00:00","14.6","ND","ND","ND","56.1","0.7","ND","ND","ND","ND","396","0"],
    [79845,"2019-06-15T16:00:00","16.5","ND","ND","ND","59","1.1","ND","ND","ND","ND","528","0"],
    [79846,"2019-06-15T17:00:00","25.7","ND","ND","ND","24","0.8","ND","ND","ND","ND","387","0"],
    [79847,"2019-06-15T18:00:00","3.3","ND","ND","ND","16.3","0.8","ND","ND","ND","ND","190","0"],
    [79848,"2019-06-15T19:00:00","ND","ND","ND","ND","13.2","0.8","ND","ND","ND","ND","0","0"],
    [79849,"2019-06-15T20:00:00","8.3","ND","ND","ND","4.6","1","ND","ND","ND","ND","0","0"],
    [79850,"2019-06-15T21:00:00","30.5","ND","ND","ND","2.2","2.4","ND","ND","ND","ND","0","0"],
    [79851,"2019-06-15T22:00:00","32.2","ND","ND","ND","1.9","1.8","ND","ND","ND","ND","0","0"],
    [79852,"2019-06-15T23:00:00","22.2","ND","ND","ND","18.5","0.7","ND","ND","ND","ND","0","0"],
    [79853,"2019-06-16T00:00:00","21.1","ND","ND","ND","23.6","1.3","ND","ND","ND","ND","0","0"],
    [79854,"2019-06-16T01:00:00","4.5","ND","ND","ND","7.2","1","ND","ND","ND","ND","0","0"],
    [79855,"2019-06-16T02:00:00","37.2","ND","ND","ND","2.7","1.1","ND","ND","ND","ND","0","0.1"],
    [79856,"2019-06-16T03:00:00","27.7","ND","ND","ND","1.7","0.9","ND","ND","ND","ND","0","0.2"],
    [79857,"2019-06-16T04:00:00","9.4","ND","ND","ND","1.4","0.7","ND","ND","ND","ND","0","1"],
    [79858,"2019-06-16T05:00:00","20.3","ND","ND","ND","1.3","0.7","ND","ND","ND","ND","0","0.3"],
    [79859,"2019-06-16T06:00:00","7.1","ND","ND","ND","1.5","2.4","ND","ND","ND","ND","0","0"],
    [79860,"2019-06-16T07:00:00","6.1","ND","ND","ND","1.5","2.3","ND","ND","ND","ND","0","0"],
    [79861,"2019-06-16T08:00:00","53.8","ND","ND","ND","1.7","3.1","ND","ND","ND","ND","92","0.2"],
    [79862,"2019-06-16T09:00:00","66.7","ND","ND","ND","4.5","3.1","ND","ND","ND","ND","416","0.1"],
    [79863,"2019-06-16T10:00:00","57.4","ND","ND","ND","12.8","2","ND","ND","ND","ND","637","0.1"],
    [79864,"2019-06-16T11:00:00","32.9","ND","ND","ND","45.4","0.7","ND","ND","ND","ND","658","0"],
    [79865,"2019-06-16T12:00:00","23.5","ND","ND","ND","59.7","0.5","ND","ND","ND","ND","659","0.2"],
    [79866,"2019-06-16T13:00:00","18.2","ND","ND","ND","55","0.7","ND","ND","ND","ND","ND","0"],
    [79867,"2019-06-16T14:00:00","16.8","ND","ND","ND","56.7","0.9","ND","ND","ND","ND","665","0"],
    [79868,"2019-06-16T15:00:00","23.6","ND","ND","ND","67.4","0.7","ND","ND","ND","ND","665","0"],
    [79869,"2019-06-16T16:00:00","24.7","ND","ND","ND","72.1","0.7","ND","ND","ND","ND","665","0"],
    [79870,"2019-06-16T17:00:00","22.7","ND","ND","ND","63.2","1.3","ND","ND","ND","ND","616","0"],
    [79871,"2019-06-16T18:00:00","7","ND","ND","ND","60.8","1.1","ND","ND","ND","ND","ND","0"],
    [79872,"2019-06-16T19:00:00","20.9","ND","ND","ND","27.2","1.4","ND","ND","ND","ND","0","0"],
    [79873,"2019-06-16T20:00:00","42.2","ND","ND","ND","2.7","1","ND","ND","ND","ND","0","0"],
    [79874,"2019-06-16T21:00:00","23.6","ND","ND","ND","3.5","1","ND","ND","ND","ND","0","0.1"],
    [79875,"2019-06-16T22:00:00","22","ND","ND","ND","2.8","1.6","ND","ND","ND","ND","0","0"],
    [79876,"2019-06-16T23:00:00","17","ND","ND","ND","1.5","1.8","ND","ND","ND","ND","0","0"],
    [79877,"2019-06-17T00:00:00","18.8","ND","ND","ND","1.5","1.8","ND","ND","ND","ND","0","0"],
    [79878,"2019-06-17T01:00:00","35.7","ND","ND","ND","1.5","1.2","ND","ND","ND","ND","0","0"],
    [79879,"2019-06-17T02:00:00","16","ND","ND","ND","2","2","ND","ND","ND","ND","0","0"],
    [79880,"2019-06-17T03:00:00","33","ND","ND","ND","1.8","6.6","ND","ND","ND","ND","0","4"],
    [79881,"2019-06-17T04:00:00","47.1","ND","ND","ND","1.6","6.5","ND","ND","ND","ND","0","4.9"],
    [79882,"2019-06-17T05:00:00","48.7","ND","ND","ND","1.6","8.3","ND","ND","ND","ND","0","0"],
    [79883,"2019-06-17T06:00:00","19","ND","ND","ND","1.5","10.5","ND","ND","ND","ND","0","0.1"],
    [79884,"2019-06-17T07:00:00","36.2","ND","ND","ND","2.3","6.8","ND","ND","ND","ND","0","0.2"],
    [79885,"2019-06-17T08:00:00","109","ND","ND","ND","1.6","8.4","ND","ND","ND","ND","113","0"],
    [79886,"2019-06-17T09:00:00","95.8","ND","ND","ND","5.1","4.6","ND","ND","ND","ND","526","0"],
    [79887,"2019-06-17T10:00:00","98.9","ND","ND","ND","9.7","2.8","ND","ND","ND","ND","664","0"],
    [79888,"2019-06-17T11:00:00","65.7","ND","ND","ND","29.1","1.5","ND","ND","ND","ND","664","0.1"],
    [79889,"2019-06-17T12:00:00","43.6","ND","ND","ND","55.4","0.6","ND","ND","ND","ND","665","0"],
    [79890,"2019-06-17T13:00:00","54.1","ND","ND","ND","70","0.7","ND","ND","ND","ND","655","0"],
    [79891,"2019-06-17T14:00:00","53.9","ND","ND","ND","77.3","0.5","ND","ND","ND","ND","ND","0"],
    [79892,"2019-06-17T15:00:00","48.2","ND","ND","ND","81.3","0.8","ND","ND","ND","ND","665","0"],
    [79893,"2019-06-17T16:00:00","61.3","ND","ND","ND","76.2","0.5","ND","ND","ND","ND","ND","0"],
    [79894,"2019-06-17T17:00:00","35.5","ND","ND","ND","51.8","0.8","ND","ND","ND","ND","ND","0"],
    [79895,"2019-06-17T18:00:00","16.4","ND","ND","ND","26","0.7","ND","ND","ND","ND","638","0"],
    [79896,"2019-06-17T19:00:00","4.8","ND","ND","ND","17.1","0.3","ND","ND","ND","ND","0","0"],
    [79897,"2019-06-17T20:00:00","4.4","ND","ND","ND","6.7","0.2","ND","ND","ND","ND","0","0"],
    [79898,"2019-06-17T21:00:00","23.9","ND","ND","ND","11.7","0.3","ND","ND","ND","ND","0","0"],
    [79899,"2019-06-17T22:00:00","77.8","ND","ND","ND","4.7","1.5","ND","ND","ND","ND","0","0"],
    [79900,"2019-06-17T23:00:00","21.7","ND","ND","ND","4.4","0.2","ND","ND","ND","ND","ND","0"],
    [79901,"2019-06-18T00:00:00","49.4","ND","ND","ND","3.9","1","ND","ND","ND","ND","ND","0"],
    [79902,"2019-06-18T01:00:00","55.8","ND","ND","ND","3.7","0.4","ND","ND","ND","ND","0","0"],
    [79903,"2019-06-18T02:00:00","25.9","ND","ND","ND","4.3","2.2","ND","ND","ND","ND","0","0"],
    [79904,"2019-06-18T03:00:00","38.3","ND","ND","ND","5","1.9","ND","ND","ND","ND","0","0"],
    [79905,"2019-06-18T04:00:00","53.8","ND","ND","ND","4.2","1.2","ND","ND","ND","ND","0","0"],
    [79906,"2019-06-18T05:00:00","25.8","ND","ND","ND","4.2","1.2","ND","ND","ND","ND","0","0"],
    [79907,"2019-06-18T06:00:00","9.3","ND","ND","ND","5.8","0.8","ND","ND","ND","ND","0","0"],
    [79908,"2019-06-18T07:00:00","72.5","ND","ND","ND","6.5","0.5","ND","ND","ND","ND","0","0"],
    [79909,"2019-06-18T08:00:00","118","ND","ND","ND","8.2","1.2","ND","ND","ND","ND","108","0"],
    [79910,"2019-06-18T09:00:00","107.1","ND","ND","ND","12.2","1.9","ND","ND","ND","ND","ND","0"],
    [79911,"2019-06-18T10:00:00","81.2","ND","ND","ND","22.2","1.2","ND","ND","ND","ND","650","0"],
    [79912,"2019-06-18T11:00:00","38","ND","ND","ND","30.2","1.3","ND","ND","ND","ND","ND","0"],
    [79913,"2019-06-18T12:00:00","52.9","ND","ND","ND","163.3","3.9","ND","ND","ND","ND","ND","0"],
    [79914,"2019-06-18T13:00:00","50.4","ND","ND","ND","67.8","4.2","ND","ND","ND","ND","665","0"],
    [79915,"2019-06-18T14:00:00","14","ND","ND","ND","77.7","1.5","ND","ND","ND","ND","666","0"],
    [79916,"2019-06-18T15:00:00","45.5","ND","ND","ND","49","1.1","ND","ND","ND","ND","ND","0"],
    [79917,"2019-06-18T16:00:00","37.8","ND","ND","ND","50.9","1.1","ND","ND","ND","ND","ND","0"],
    [79918,"2019-06-18T17:00:00","51.9","ND","ND","ND","42.9","1.1","ND","ND","ND","ND","647","0"],
    [79919,"2019-06-18T18:00:00","13","ND","ND","ND","28.9","0.6","ND","ND","ND","ND","ND","0"],
    [79920,"2019-06-18T19:00:00","ND","ND","ND","ND","25.7","0.4","ND","ND","ND","ND","169","0"],
    [79921,"2019-06-18T20:00:00","0.1","ND","ND","ND","11.6","0.3","ND","ND","ND","ND","0","0.1"],
    [79922,"2019-06-18T21:00:00","8.7","ND","ND","ND","2.5","0.1","ND","ND","ND","ND","0","0"],
    [79923,"2019-06-18T22:00:00","53.4","ND","ND","ND","1.8","2.4","ND","ND","ND","ND","0","0"],
    [79924,"2019-06-18T23:00:00","17.2","ND","ND","ND","2.1","4.1","ND","ND","ND","ND","0","0"],
    [79925,"2019-06-19T00:00:00","35.5","ND","ND","ND","1.9","2","ND","ND","ND","ND","0","0"],
    [79926,"2019-06-19T01:00:00","52","ND","ND","ND","1.5","2.6","ND","ND","ND","ND","0","0"],
    [79927,"2019-06-19T02:00:00","51.8","ND","ND","ND","1.5","2.1","ND","ND","ND","ND","ND","0"],
    [79928,"2019-06-19T03:00:00","32.9","ND","ND","ND","1.8","1.5","ND","ND","ND","ND","0","0"],
    [79929,"2019-06-19T04:00:00","39.4","ND","ND","ND","1.6","2.3","ND","ND","ND","ND","0","0"],
    [79930,"2019-06-19T05:00:00","77.7","ND","ND","ND","1.8","3.4","ND","ND","ND","ND","0","0"],
    [79931,"2019-06-19T06:00:00","28.2","ND","ND","ND","1.8","2.2","ND","ND","ND","ND","0","0"],
    [79932,"2019-06-19T07:00:00","57.7","ND","ND","ND","1.7","3","ND","ND","ND","ND","0","0"],
    [79933,"2019-06-19T08:00:00","91.6","ND","ND","ND","1.7","2","ND","ND","ND","ND","15","0"],
    [79934,"2019-06-19T09:00:00","109.2","ND","ND","ND","2","1.2","ND","ND","ND","ND","ND","0"],
    [79935,"2019-06-19T10:00:00","65.9","ND","ND","ND","2.4","1.9","ND","ND","ND","ND","55","0"],
    [79936,"2019-06-19T11:00:00","117.5","ND","ND","ND","3.8","1","ND","ND","ND","ND","187","0"],
    [79937,"2019-06-19T12:00:00","148.8","ND","ND","ND","14.3","2.4","ND","ND","ND","ND","570","0"],
    [79938,"2019-06-19T13:00:00","86.5","ND","ND","ND","32","1.9","ND","ND","ND","ND","ND","0"],
    [79939,"2019-06-19T14:00:00","37.9","ND","ND","ND","42.2","1","ND","ND","ND","ND","664","0"],
    [79940,"2019-06-19T15:00:00","33.4","ND","ND","ND","44.5","1.1","ND","ND","ND","ND","ND","0"],
    [79941,"2019-06-19T16:00:00","72.3","ND","ND","ND","42.7","0.9","ND","ND","ND","ND","625","0"],
    [79942,"2019-06-19T17:00:00","44.8","ND","ND","ND","38.1","0.7","ND","ND","ND","ND","617","0"],
    [79943,"2019-06-19T18:00:00","85","ND","ND","ND","47.1","0.9","ND","ND","ND","ND","474","0"],
    [79944,"2019-06-19T19:00:00","17.4","ND","ND","ND","21.3","0.8","ND","ND","ND","ND","133","0"],
    [79945,"2019-06-19T20:00:00","37.2","ND","ND","ND","8.2","0.6","ND","ND","ND","ND","ND","0.1"],
    [79946,"2019-06-19T21:00:00","46.9","ND","ND","ND","2.3","0.6","ND","ND","ND","ND","ND","0"],
    [79947,"2019-06-19T22:00:00","15.2","ND","ND","ND","2","0.3","ND","ND","ND","ND","ND","0"],
    [79948,"2019-06-19T23:00:00","22.8","ND","ND","ND","1.6","1.6","ND","ND","ND","ND","0","0"],
    [79949,"2019-06-20T00:00:00","25.2","ND","ND","ND","1.2","1.2","ND","ND","ND","ND","0","0"],
    [79950,"2019-06-20T01:00:00","11.6","ND","ND","ND","1.6","1","ND","ND","ND","ND","ND","0"],
    [79951,"2019-06-20T02:00:00","14.9","ND","ND","ND","1.5","1.5","ND","ND","ND","ND","ND","0"],
    [79952,"2019-06-20T03:00:00","55.7","ND","ND","ND","1.3","2.6","ND","ND","ND","ND","0","0"],
    [79953,"2019-06-20T04:00:00","37.2","ND","ND","ND","1.4","1.4","ND","ND","ND","ND","0","0"],
    [79954,"2019-06-20T05:00:00","45.2","ND","ND","ND","1.5","2.3","ND","ND","ND","ND","ND","0"],
    [79955,"2019-06-20T06:00:00","41.7","ND","ND","ND","1.4","5.2","ND","ND","ND","ND","0","0"],
    [79956,"2019-06-20T07:00:00","38","ND","ND","ND","1.6","3","ND","ND","ND","ND","0","0"],
    [79957,"2019-06-20T08:00:00","119.1","ND","ND","ND","2.2","3.9","ND","ND","ND","ND","ND","0"],
    [79958,"2019-06-20T09:00:00","125.4","ND","ND","ND","5.9","3.7","ND","ND","ND","ND","267","0"],
    [79959,"2019-06-20T10:00:00","53.2","ND","ND","ND","18.5","1.6","ND","ND","ND","ND","ND","0"],
    [79960,"2019-06-20T11:00:00","45.4","ND","ND","ND","38.7","1.5","ND","ND","ND","ND","ND","0"],
    [79961,"2019-06-20T12:00:00","66.4","ND","ND","ND","55.5","1","ND","ND","ND","ND","ND","0"],
    [79962,"2019-06-20T13:00:00","21","ND","ND","ND","68.1","0.4","ND","ND","ND","ND","ND","0"],
    [79963,"2019-06-20T14:00:00","41.4","ND","ND","ND","85.1","0.4","ND","ND","ND","ND","ND","0"],
    [79964,"2019-06-20T15:00:00","34.3","ND","ND","ND","81.6","0.5","ND","ND","ND","ND","665","0"],
    [79965,"2019-06-20T16:00:00","47.1","ND","ND","ND","77.3","0.5","ND","ND","ND","ND","630","0"],
    [79966,"2019-06-20T17:00:00","59.1","ND","ND","ND","71.2","0.8","ND","ND","ND","ND","ND","0"],
    [79967,"2019-06-20T18:00:00","17.4","ND","ND","ND","59.5","0.6","ND","ND","ND","ND","405","0"],
    [79968,"2019-06-20T19:00:00","20.2","ND","ND","ND","26.1","0.9","ND","ND","ND","ND","0","0"],
    [79969,"2019-06-20T20:00:00","129.5","ND","ND","ND","8.1","0.4","ND","ND","ND","ND","0","0"],
    [79970,"2019-06-20T21:00:00","43.6","ND","ND","ND","3.1","0.4","ND","ND","ND","ND","0","0"],
    [79971,"2019-06-20T22:00:00","34.1","ND","ND","ND","11.6","0.5","ND","ND","ND","ND","0","0"],
    [79972,"2019-06-20T23:00:00","45.4","ND","ND","ND","2.9","2","ND","ND","ND","ND","0","0"],
    [79973,"2019-06-21T00:00:00","49.1","ND","ND","ND","1.5","2.9","ND","ND","ND","ND","0","0"],
    [79974,"2019-06-21T01:00:00","69.1","ND","ND","ND","1.9","3.4","ND","ND","ND","ND","0","0"],
    [79975,"2019-06-21T02:00:00","74.6","ND","ND","ND","17.1","1.7","ND","ND","ND","ND","0","0.4"],
    [79976,"2019-06-21T03:00:00","10.5","ND","ND","ND","26.5","1.2","ND","ND","ND","ND","0","3.7"],
    [79977,"2019-06-21T04:00:00","11.3","ND","ND","ND","10.5","1","ND","ND","ND","ND","0","3.3"],
    [79978,"2019-06-21T05:00:00","9.7","ND","ND","ND","4.1","0.9","ND","ND","ND","ND","0","1.8"],
    [79979,"2019-06-21T06:00:00","39","ND","ND","ND","1.6","1","ND","ND","ND","ND","0","1.2"],
    [79980,"2019-06-21T07:00:00","28.5","ND","ND","ND","1.6","0.3","ND","ND","ND","ND","ND","0.4"],
    [79981,"2019-06-21T08:00:00","74.3","ND","ND","ND","1.6","1.4","ND","ND","ND","ND","ND","0"],
    [79982,"2019-06-21T09:00:00","54.6","ND","ND","ND","1.9","1.2","ND","ND","ND","ND","ND","0"],
    [79983,"2019-06-21T10:00:00","118.9","ND","ND","ND","4.6","2.7","ND","ND","ND","ND","466","0"],
    [79984,"2019-06-21T11:00:00","60.4","ND","ND","ND","14.5","1.2","ND","ND","ND","ND","ND","0"],
    [79985,"2019-06-21T12:00:00","64.5","ND","ND","ND","28.1","1","ND","ND","ND","ND","ND","0"],
    [79986,"2019-06-21T13:00:00","58.4","ND","ND","ND","46.4","1.2","ND","ND","ND","ND","ND","ND"],
    [79987,"2019-06-21T14:00:00","29.9","ND","ND","ND","68.2","0.7","ND","ND","ND","ND","663","0"],
    [79988,"2019-06-21T15:00:00","34.4","ND","ND","ND","74.3","0.6","ND","ND","ND","ND","665","0"],
    [79989,"2019-06-21T16:00:00","34.3","ND","ND","ND","70.6","0.6","ND","ND","ND","ND","564","0"],
    [79990,"2019-06-21T17:00:00","20.5","ND","ND","ND","63.5","0.7","ND","ND","ND","ND","384","0"],
    [79991,"2019-06-21T18:00:00","53.4","ND","ND","ND","57.4","0.4","ND","ND","ND","ND","379","0"],
    [79992,"2019-06-21T19:00:00","37.8","ND","ND","ND","23","0.2","ND","ND","ND","ND","ND","0"],
    [79993,"2019-06-21T20:00:00","53.7","ND","ND","ND","5.5","0.4","ND","ND","ND","ND","ND","0"],
    [79994,"2019-06-21T21:00:00","64.7","ND","ND","ND","4.4","0.3","ND","ND","ND","ND","0","0"],
    [79995,"2019-06-21T22:00:00","54.1","ND","ND","ND","2.4","0.4","ND","ND","ND","ND","0","0"],
    [79996,"2019-06-21T23:00:00","17.7","ND","ND","ND","5.7","0.9","ND","ND","ND","ND","0","0"],
    [79997,"2019-06-22T00:00:00","81","ND","ND","ND","2.6","0.4","ND","ND","ND","ND","0","0"],
    [79998,"2019-06-22T01:00:00","69.9","ND","ND","ND","3.3","1.1","ND","ND","ND","ND","ND","0"],
    [79999,"2019-06-22T02:00:00","36.7","ND","ND","ND","3.6","1.6","ND","ND","ND","ND","ND","15"],
    [80000,"2019-06-22T03:00:00","ND","ND","ND","ND","ND","ND","ND","ND","ND","ND","ND","0"],
    [80001,"2019-06-22T04:00:00","ND","ND","ND","ND","ND","ND","ND","ND","ND","ND","ND","ND"],
    [80002,"2019-06-22T05:00:00","ND","ND","ND","ND","ND","ND","ND","ND","ND","ND","ND","0"],
    [80003,"2019-06-22T06:00:00","ND","ND","ND","ND","ND","ND","ND","ND","ND","ND","ND","0"],
    [80004,"2019-06-22T07:00:00","ND","ND","ND","ND","ND","ND","ND","ND","ND","ND","ND","0"],
    [80005,"2019-06-22T08:00:00","ND","ND","ND","ND","ND","ND","ND","ND","ND","ND","ND","0"],
    [80006,"2019-06-22T09:00:00","ND","ND","ND","ND","ND","ND","ND","ND","ND","ND","ND","0"],
    [80007,"2019-06-22T10:00:00","ND","ND","ND","ND","ND","ND","ND","ND","ND","ND","ND","0"],
    [80008,"2019-06-22T11:00:00","ND","ND","ND","ND","ND","ND","ND","ND","ND","ND","ND","0"],
    [80009,"2019-06-22T12:00:00","ND","ND","ND","ND","ND","ND","ND","ND","ND","ND","ND","0"],
    [80010,"2019-06-22T13:00:00","ND","ND","ND","ND","ND","ND","ND","ND","ND","ND","ND","0"],
    [80011,"2019-06-22T14:00:00","ND","ND","ND","ND","ND","ND","ND","ND","ND","ND","ND","0"],
    [80012,"2019-06-22T15:00:00","ND","ND","ND","ND","ND","ND","ND","ND","ND","ND","ND","0"],
    [80013,"2019-06-22T16:00:00","ND","ND","ND","ND","ND","ND","ND","ND","ND","ND","ND","0"],
    [80014,"2019-06-22T17:00:00","ND","ND","ND","ND","ND","ND","ND","ND","ND","ND","ND","ND"],
    [80015,"2019-06-22T18:00:00","ND","ND","ND","ND","ND","ND","ND","ND","ND","ND","ND","0"],
    [80016,"2019-06-22T19:00:00","ND","ND","ND","ND","ND","ND","ND","ND","ND","ND","ND","0"],
    [80017,"2019-06-22T20:00:00","ND","ND","ND","ND","ND","ND","ND","ND","ND","ND","ND","0"],
    [80018,"2019-06-22T21:00:00","ND","ND","ND","ND","ND","ND","ND","ND","ND","ND","ND","15"],
    [80019,"2019-06-22T22:00:00","ND","ND","ND","ND","ND","ND","ND","ND","ND","ND","ND","1.1"],
    [80020,"2019-06-22T23:00:00","ND","ND","ND","ND","ND","ND","ND","ND","ND","ND","ND","0.3"],
    [80021,"2019-06-23T00:00:00","ND","ND","ND","ND","ND","ND","ND","ND","ND","ND","ND","0"],
    [80022,"2019-06-23T01:00:00","ND","ND","ND","ND","ND","ND","ND","ND","ND","ND","ND","0"],
    [80023,"2019-06-23T02:00:00","ND","ND","ND","ND","ND","ND","ND","ND","ND","ND","ND","ND"],
    [80024,"2019-06-23T03:00:00","ND","ND","ND","ND","ND","ND","ND","ND","ND","ND","ND","0"],
    [80025,"2019-06-23T04:00:00","ND","ND","ND","ND","ND","ND","ND","ND","ND","ND","ND","ND"],
    [80026,"2019-06-23T05:00:00","ND","ND","ND","ND","ND","ND","ND","ND","ND","ND","ND","0"],
    [80027,"2019-06-23T06:00:00","ND","ND","ND","ND","ND","ND","ND","ND","ND","ND","ND","ND"],
    [80028,"2019-06-23T07:00:00","ND","ND","ND","ND","ND","ND","ND","ND","ND","ND","ND","ND"],
    [80029,"2019-06-23T08:00:00","ND","ND","ND","ND","ND","ND","ND","ND","ND","ND","ND","ND"],
    [80030,"2019-06-23T09:00:00","ND","ND","ND","ND","ND","ND","ND","ND","ND","ND","ND","0"],
    [80031,"2019-06-23T10:00:00","ND","ND","ND","ND","ND","ND","ND","ND","ND","ND","ND","0"],
    [80032,"2019-06-23T11:00:00","ND","ND","ND","ND","ND","ND","ND","ND","ND","ND","ND","0"],
    [80033,"2019-06-23T12:00:00","ND","ND","ND","ND","ND","ND","ND","ND","ND","ND","ND","0"],
    [80034,"2019-06-23T13:00:00","ND","ND","ND","ND","ND","ND","ND","ND","ND","ND","ND","0"],
    [80035,"2019-06-23T14:00:00","ND","ND","ND","ND","ND","ND","ND","ND","ND","ND","ND","1.5"],
    [80036,"2019-06-23T15:00:00","ND","ND","ND","ND","ND","ND","ND","ND","ND","ND","ND","6.6"],
    [80037,"2019-06-23T16:00:00","ND","ND","ND","ND","ND","ND","ND","ND","ND","ND","ND","0"],
    [80038,"2019-06-23T17:00:00","ND","ND","ND","ND","ND","ND","ND","ND","ND","ND","ND","0"],
    [80039,"2019-06-23T18:00:00","ND","ND","ND","ND","ND","ND","ND","ND","ND","ND","ND","0"],
    [80040,"2019-06-23T19:00:00","ND","ND","ND","ND","ND","ND","ND","ND","ND","ND","ND","0"],
    [80041,"2019-06-23T20:00:00","ND","ND","ND","ND","ND","ND","ND","ND","ND","ND","ND","0"],
    [80042,"2019-06-23T21:00:00","ND","ND","ND","ND","ND","ND","ND","ND","ND","ND","ND","0"],
    [80043,"2019-06-23T22:00:00","ND","ND","ND","ND","ND","ND","ND","ND","ND","ND","ND","0"],
    [80044,"2019-06-23T23:00:00","ND","ND","ND","ND","ND","ND","ND","ND","ND","ND","ND","0"],
    [80045,"2019-06-24T00:00:00","ND","ND","ND","ND","ND","ND","ND","ND","ND","ND","ND","0"],
    [80046,"2019-06-24T01:00:00","ND","ND","ND","ND","ND","ND","ND","ND","ND","ND","ND","ND"],
    [80047,"2019-06-24T02:00:00","ND","ND","ND","ND","ND","ND","ND","ND","ND","ND","ND","ND"],
    [80048,"2019-06-24T03:00:00","ND","ND","ND","ND","ND","ND","ND","ND","ND","ND","ND","0"],
    [80049,"2019-06-24T04:00:00","ND","ND","ND","ND","ND","ND","ND","ND","ND","ND","ND","0"],
    [80050,"2019-06-24T05:00:00","ND","ND","ND","ND","ND","ND","ND","ND","ND","ND","ND","0"],
    [80051,"2019-06-24T06:00:00","ND","ND","ND","ND","ND","ND","ND","ND","ND","ND","ND","ND"],
    [80052,"2019-06-24T07:00:00","ND","ND","ND","ND","ND","ND","ND","ND","ND","ND","ND","0"],
    [80053,"2019-06-24T08:00:00","ND","ND","ND","ND","ND","ND","ND","ND","ND","ND","ND","0"],
    [80054,"2019-06-24T09:00:00","ND","ND","ND","ND","ND","ND","ND","ND","ND","ND","ND","0"],
    [80055,"2019-06-24T10:00:00","ND","ND","ND","ND","ND","ND","ND","ND","ND","ND","ND","ND"],
    [80056,"2019-06-24T11:00:00","ND","ND","ND","ND","ND","ND","ND","ND","ND","ND","ND","6.3"],
    [80057,"2019-06-24T12:00:00","ND","ND","ND","ND","ND","ND","ND","ND","ND","ND","ND","0"],
    [80058,"2019-06-24T13:00:00","ND","ND","ND","ND","ND","ND","ND","ND","ND","ND","ND","ND"],
    [80059,"2019-06-24T14:00:00","ND","ND","ND","ND","ND","ND","ND","ND","ND","ND","ND","0"],
    [80060,"2019-06-24T15:00:00","ND","ND","ND","ND","ND","ND","ND","ND","ND","ND","ND","ND"],
    [80061,"2019-06-24T16:00:00","ND","ND","ND","ND","ND","ND","ND","ND","ND","ND","ND","ND"],
    [80062,"2019-06-24T17:00:00","ND","ND","ND","ND","ND","ND","ND","ND","ND","ND","ND","0"],
    [80063,"2019-06-24T18:00:00","ND","ND","ND","ND","ND","ND","ND","ND","ND","ND","ND","0"],
    [80064,"2019-06-24T19:00:00","ND","ND","ND","ND","ND","ND","ND","ND","ND","ND","ND","0"],
    [80065,"2019-06-24T20:00:00","ND","ND","ND","ND","ND","ND","ND","ND","ND","ND","ND","0.1"],
    [80066,"2019-06-24T21:00:00","ND","ND","ND","ND","ND","ND","ND","ND","ND","ND","ND","0.4"],
    [80067,"2019-06-24T22:00:00","ND","ND","ND","ND","ND","ND","ND","ND","ND","ND","ND","0"],
    [80068,"2019-06-24T23:00:00","ND","ND","ND","ND","ND","ND","ND","ND","ND","ND","ND","0"],
    [80069,"2019-06-25T00:00:00","ND","ND","ND","ND","ND","ND","ND","ND","ND","ND","ND","0"],
    [80070,"2019-06-25T01:00:00","ND","ND","ND","ND","ND","ND","ND","ND","ND","ND","ND","0"],
    [80071,"2019-06-25T02:00:00","ND","ND","ND","ND","ND","ND","ND","ND","ND","ND","ND","0"],
    [80072,"2019-06-25T03:00:00","ND","ND","ND","ND","ND","ND","ND","ND","ND","ND","ND","0"],
    [80073,"2019-06-25T04:00:00","ND","ND","ND","ND","ND","ND","ND","ND","ND","ND","ND","0"],
    [80074,"2019-06-25T05:00:00","ND","ND","ND","ND","ND","ND","ND","ND","ND","ND","ND","0"],
    [80075,"2019-06-25T06:00:00","ND","ND","ND","ND","ND","ND","ND","ND","ND","ND","ND","0"],
    [80076,"2019-06-25T07:00:00","ND","ND","ND","ND","ND","ND","ND","ND","ND","ND","ND","0"],
    [80077,"2019-06-25T08:00:00","ND","ND","ND","ND","ND","ND","ND","ND","ND","ND","ND","0"],
    [80078,"2019-06-25T09:00:00","ND","ND","ND","ND","ND","ND","ND","ND","ND","ND","ND","0"],
    [80079,"2019-06-25T10:00:00","27.4","ND","ND","ND","2.1","1.3","ND","ND","ND","ND","ND","0"],
    [80080,"2019-06-25T11:00:00","48.3","ND","ND","ND","2.4","1.9","ND","ND","ND","ND","652","ND"],
    [80081,"2019-06-25T12:00:00","61.3","ND","ND","ND","4.1","1.9","ND","ND","ND","ND","663","0"],
    [80082,"2019-06-25T13:00:00","31.9","ND","ND","ND","15","1","ND","ND","ND","ND","663","ND"],
    [80083,"2019-06-25T14:00:00","8","ND","ND","ND","28.4","0.9","ND","ND","ND","ND","664","0"],
    [80084,"2019-06-25T15:00:00","9.5","ND","ND","ND","27","0.8","ND","ND","ND","ND","664","0"],
    [80085,"2019-06-25T16:00:00","1.3","ND","ND","ND","25.9","1","ND","ND","ND","ND","654","0"],
    [80086,"2019-06-25T17:00:00","7","ND","ND","ND","14.6","0.5","ND","ND","ND","ND","615","0"],
    [80087,"2019-06-25T18:00:00","9.9","ND","ND","ND","13.9","0.7","ND","ND","ND","ND","416","0"],
    [80088,"2019-06-25T19:00:00","25","ND","ND","ND","4.6","2.6","ND","ND","ND","ND","0","0"],
    [80089,"2019-06-25T20:00:00","53","ND","ND","ND","3.3","0.8","ND","ND","ND","ND","5","0"],
    [80090,"2019-06-25T21:00:00","13.3","ND","ND","ND","2.2","0.4","ND","ND","ND","ND","ND","0"],
    [80091,"2019-06-25T22:00:00","53.6","ND","ND","ND","1.8","0.4","ND","ND","ND","ND","0","0"],
    [80092,"2019-06-25T23:00:00","54.4","ND","ND","ND","1.6","0.5","ND","ND","ND","ND","0","0"],
    [80093,"2019-06-26T00:00:00","38.4","ND","ND","ND","1.7","0.3","ND","ND","ND","ND","0","0"],
    [80094,"2019-06-26T01:00:00","30.9","ND","ND","ND","1.8","1.3","ND","ND","ND","ND","0","0"],
    [80095,"2019-06-26T02:00:00","48.9","ND","ND","ND","1.8","1.5","ND","ND","ND","ND","0","0"],
    [80096,"2019-06-26T03:00:00","20.2","ND","ND","ND","1.5","2.3","ND","ND","ND","ND","0","0"],
    [80097,"2019-06-26T04:00:00","10.6","ND","ND","ND","1.6","1","ND","ND","ND","ND","0","0"],
    [80098,"2019-06-26T05:00:00","13.8","ND","ND","ND","1.3","1.6","ND","ND","ND","ND","0","0.1"],
    [80099,"2019-06-26T06:00:00","59.1","ND","ND","ND","1.5","1.9","ND","ND","ND","ND","0","0"],
    [80100,"2019-06-26T07:00:00","85","ND","ND","ND","1.8","2.2","ND","ND","ND","ND","0","0"],
    [80101,"2019-06-26T08:00:00","98.2","ND","ND","ND","2.1","2.3","ND","ND","ND","ND","30","0"],
    [80102,"2019-06-26T09:00:00","61.4","ND","ND","ND","4.4","1.9","ND","ND","ND","ND","ND","0"],
    [80103,"2019-06-26T10:00:00","29.3","ND","ND","ND","21.2","1","ND","ND","ND","ND","ND","0.1"],
    [80104,"2019-06-26T11:00:00","49","ND","ND","ND","43.9","1.1","ND","ND","ND","ND","ND","0"],
    [80105,"2019-06-26T12:00:00","69.6","ND","ND","ND","59","0.5","ND","ND","ND","ND","ND","0"],
    [80106,"2019-06-26T13:00:00","20.5","ND","ND","ND","57.4","1","ND","ND","ND","ND","ND","ND"],
    [80107,"2019-06-26T14:00:00","38.1","ND","ND","ND","71.8","0.6","ND","ND","ND","ND","ND","0"],
    [80108,"2019-06-26T15:00:00","45.7","ND","ND","ND","67.2","0.5","ND","ND","ND","ND","604","0"],
    [80109,"2019-06-26T16:00:00","35.8","ND","ND","ND","33.7","0.6","ND","ND","ND","ND","656","0"],
    [80110,"2019-06-26T17:00:00","27.8","ND","ND","ND","36.8","0.4","ND","ND","ND","ND","651","0"],
    [80111,"2019-06-26T18:00:00","2","ND","ND","ND","24.5","0.3","ND","ND","ND","ND","640","0"],
    [80112,"2019-06-26T19:00:00","28.8","ND","ND","ND","8.9","0.3","ND","ND","ND","ND","0","0"],
    [80113,"2019-06-26T20:00:00","55.2","ND","ND","ND","3.8","0.4","ND","ND","ND","ND","0","0"],
    [80114,"2019-06-26T21:00:00","14.4","ND","ND","ND","2.4","0.3","ND","ND","ND","ND","0","0"],
    [80115,"2019-06-26T22:00:00","0.9","ND","ND","ND","1.5","2.8","ND","ND","ND","ND","ND","ND"],
    [80116,"2019-06-26T23:00:00","31.6","ND","ND","ND","1.5","2","ND","ND","ND","ND","ND","ND"],
    [80117,"2019-06-27T00:00:00","40.7","ND","ND","ND","1.5","1.8","ND","ND","ND","ND","ND","0"],
    [80118,"2019-06-27T01:00:00","17.1","ND","ND","ND","1.4","2","ND","ND","ND","ND","0","0"],
    [80119,"2019-06-27T02:00:00","1.5","ND","ND","ND","1.9","3.1","ND","ND","ND","ND","0","0"],
    [80120,"2019-06-27T03:00:00","6.7","ND","ND","ND","1.4","1.5","ND","ND","ND","ND","0","0"],
    [80121,"2019-06-27T04:00:00","19.8","ND","ND","ND","1.5","1.9","ND","ND","ND","ND","ND","0"],
    [80122,"2019-06-27T05:00:00","17.9","ND","ND","ND","1.7","3.8","ND","ND","ND","ND","ND","0"],
    [80123,"2019-06-27T06:00:00","48.6","ND","ND","ND","1.8","3.3","ND","ND","ND","ND","0","0"],
    [80124,"2019-06-27T07:00:00","62.4","ND","ND","ND","2","1.5","ND","ND","ND","ND","0","0"],
    [80125,"2019-06-27T08:00:00","85.2","ND","ND","ND","2.1","6.4","ND","ND","ND","ND","73","0"],
    [80126,"2019-06-27T09:00:00","68.1","ND","ND","ND","3.3","3","ND","ND","ND","ND","ND","0"],
    [80127,"2019-06-27T10:00:00","58.3","ND","ND","ND","9.7","2.4","ND","ND","ND","ND","ND","0"],
    [80128,"2019-06-27T11:00:00","21.4","ND","ND","ND","30","1.5","ND","ND","ND","ND","ND","0"],
    [80129,"2019-06-27T12:00:00","24.3","ND","ND","ND","69.3","1.5","ND","ND","ND","ND","654","0"],
    [80130,"2019-06-27T13:00:00","42.8","ND","ND","ND","100","1.3","ND","ND","ND","ND","663","0"],
    [80131,"2019-06-27T14:00:00","68.3","ND","ND","ND","66","1.7","ND","ND","ND","ND","ND","0"],
    [80132,"2019-06-27T15:00:00","36","ND","ND","ND","33.1","0.7","ND","ND","ND","ND","657","0"],
    [80133,"2019-06-27T16:00:00","32.8","ND","ND","ND","27.2","1","ND","ND","ND","ND","ND","0"],
    [80134,"2019-06-27T17:00:00","14.8","ND","ND","ND","26.4","0.3","ND","ND","ND","ND","ND","0"],
    [80135,"2019-06-27T18:00:00","2.1","ND","ND","ND","21","0.5","ND","ND","ND","ND","647","0"],
    [80136,"2019-06-27T19:00:00","20.4","ND","ND","ND","9.3","0.4","ND","ND","ND","ND","0","3.4"],
    [80137,"2019-06-27T20:00:00","18.8","ND","ND","ND","3.7","0.1","ND","ND","ND","ND","0","0"],
    [80138,"2019-06-27T21:00:00","33.8","ND","ND","ND","2.2","0.3","ND","ND","ND","ND","0","0"],
    [80139,"2019-06-27T22:00:00","53.1","ND","ND","ND","2","2.1","ND","ND","ND","ND","0","0"],
    [80140,"2019-06-27T23:00:00","65.6","ND","ND","ND","1.3","1.2","ND","ND","ND","ND","0","0"],
    [80141,"2019-06-28T00:00:00","28.2","ND","ND","ND","1.3","2.1","ND","ND","ND","ND","ND","0"],
    [80142,"2019-06-28T01:00:00","3.3","ND","ND","ND","1.5","1","ND","ND","ND","ND","0","0"],
    [80143,"2019-06-28T02:00:00","16.9","ND","ND","ND","1.5","2.2","ND","ND","ND","ND","0","0"],
    [80144,"2019-06-28T03:00:00","18.9","ND","ND","ND","1.7","3.6","ND","ND","ND","ND","0","0"],
    [80145,"2019-06-28T04:00:00","17.8","ND","ND","ND","1.7","2.9","ND","ND","ND","ND","0","0"],
    [80146,"2019-06-28T05:00:00","39.7","ND","ND","ND","1.7","3","ND","ND","ND","ND","0","0"],
    [80147,"2019-06-28T06:00:00","61.2","ND","ND","ND","1.8","1.4","ND","ND","ND","ND","0","0"],
    [80148,"2019-06-28T07:00:00","104.9","ND","ND","ND","1.9","1.9","ND","ND","ND","ND","0","0"],
    [80149,"2019-06-28T08:00:00","128.8","ND","ND","ND","2.5","1.9","ND","ND","ND","ND","66","0"],
    [80150,"2019-06-28T09:00:00","128.2","ND","ND","ND","2.7","3","ND","ND","ND","ND","306","0"],
    [80151,"2019-06-28T10:00:00","54.1","ND","ND","ND","6.6","2.4","ND","ND","ND","ND","542","0"],
    [80152,"2019-06-28T11:00:00","40.4","ND","ND","ND","13.2","1.4","ND","ND","ND","ND","ND","0"],
    [80153,"2019-06-28T12:00:00","91.5","ND","ND","ND","22.6","1.7","ND","ND","ND","ND","ND","0"],
    [80154,"2019-06-28T13:00:00","54.8","ND","ND","ND","25.5","1","ND","ND","ND","ND","664","0"],
    [80155,"2019-06-28T14:00:00","19.1","ND","ND","ND","29.5","0.5","ND","ND","ND","ND","ND","0"],
    [80156,"2019-06-28T15:00:00","27.2","ND","ND","ND","31.5","0.8","ND","ND","ND","ND","664","0.1"],
    [80157,"2019-06-28T16:00:00","11.9","ND","ND","ND","30.8","0.8","ND","ND","ND","ND","ND","0.5"],
    [80158,"2019-06-28T17:00:00","25.4","ND","ND","ND","30.8","0.6","ND","ND","ND","ND","634","0.3"],
    [80159,"2019-06-28T18:00:00","25.2","ND","ND","ND","13.6","0.7","ND","ND","ND","ND","366","0.1"],
    [80160,"2019-06-28T19:00:00","15.6","ND","ND","ND","10.4","0.5","ND","ND","ND","ND","ND","0.1"],
    [80161,"2019-06-28T20:00:00","24","ND","ND","ND","3.8","0.3","ND","ND","ND","ND","0","0.1"],
    [80162,"2019-06-28T21:00:00","41.8","ND","ND","ND","6.9","0.2","ND","ND","ND","ND","0","0"],
    [80163,"2019-06-28T22:00:00","3.6","ND","ND","ND","2","1.2","ND","ND","ND","ND","0","0"],
    [80164,"2019-06-28T23:00:00","30.8","ND","ND","ND","2","1.9","ND","ND","ND","ND","0","0"],
    [80165,"2019-06-29T00:00:00","36.7","ND","ND","ND","2","1","ND","ND","ND","ND","ND","0"],
    [80166,"2019-06-29T01:00:00","27","ND","ND","ND","1.6","2.1","ND","ND","ND","ND","ND","0"],
    [80167,"2019-06-29T02:00:00","66.2","ND","ND","ND","1.7","2.6","ND","ND","ND","ND","ND","0"],
    [80168,"2019-06-29T03:00:00","64","ND","ND","ND","1.4","3.5","ND","ND","ND","ND","ND","0"],
    [80169,"2019-06-29T04:00:00","27.9","ND","ND","ND","1.5","2.7","ND","ND","ND","ND","ND","0"],
    [80170,"2019-06-29T05:00:00","5.4","ND","ND","ND","1.8","1.7","ND","ND","ND","ND","ND","0"],
    [80171,"2019-06-29T06:00:00","8.4","ND","ND","ND","1.5","1.6","ND","ND","ND","ND","ND","0"],
    [80172,"2019-06-29T07:00:00","22.8","ND","ND","ND","2","0.6","ND","ND","ND","ND","ND","0"],
    [80173,"2019-06-29T08:00:00","77.4","ND","ND","ND","3.7","2","ND","ND","ND","ND","ND","0"],
    [80174,"2019-06-29T09:00:00","75.8","ND","ND","ND","5.8","2","ND","ND","ND","ND","ND","0"],
    [80175,"2019-06-29T10:00:00","108.7","ND","ND","ND","12.9","2","ND","ND","ND","ND","ND","0"],
    [80176,"2019-06-29T11:00:00","59.1","ND","ND","ND","39","1.1","ND","ND","ND","ND","ND","0"],
    [80177,"2019-06-29T12:00:00","40.3","ND","ND","ND","51.1","0.9","ND","ND","ND","ND","ND","0"],
    [80178,"2019-06-29T13:00:00","7.6","ND","ND","ND","59.2","1","ND","ND","ND","ND","ND","0"],
    [80179,"2019-06-29T14:00:00","50.5","ND","ND","ND","67.6","0.5","ND","ND","ND","ND","664","0"],
    [80180,"2019-06-29T15:00:00","27.6","ND","ND","ND","41.3","0.6","ND","ND","ND","ND","ND","0"],
    [80181,"2019-06-29T16:00:00","28.1","ND","ND","ND","36.9","0.4","ND","ND","ND","ND","ND","0"],
    [80182,"2019-06-29T17:00:00","23.3","ND","ND","ND","35.6","0.7","ND","ND","ND","ND","659","0"],
    [80183,"2019-06-29T18:00:00","15.5","ND","ND","ND","32.2","0.5","ND","ND","ND","ND","596","0"],
    [80184,"2019-06-29T19:00:00","28.7","ND","ND","ND","18","0.4","ND","ND","ND","ND","ND","0"],
    [80185,"2019-06-29T20:00:00","17.1","ND","ND","ND","13.5","0.5","ND","ND","ND","ND","0","0"],
    [80186,"2019-06-29T21:00:00","29.2","ND","ND","ND","3.6","1.9","ND","ND","ND","ND","0","0"],
    [80187,"2019-06-29T22:00:00","58.1","ND","ND","ND","2.5","1.9","ND","ND","ND","ND","ND","0"],
    [80188,"2019-06-29T23:00:00","21.8","ND","ND","ND","2","2","ND","ND","ND","ND","ND","0"],
    [80189,"2019-06-30T00:00:00","67.4","ND","ND","ND","1.8","1.7","ND","ND","ND","ND","ND","0"],
    [80190,"2019-06-30T01:00:00","20.3","ND","ND","ND","2.9","1.1","ND","ND","ND","ND","ND","0"],
    [80191,"2019-06-30T02:00:00","9.8","ND","ND","ND","2.6","1.5","ND","ND","ND","ND","0","0"],
    [80192,"2019-06-30T03:00:00","37.8","ND","ND","ND","6.9","1.4","ND","ND","ND","ND","0","0"],
    [80193,"2019-06-30T04:00:00","29.4","ND","ND","ND","5.2","1.3","ND","ND","ND","ND","ND","0"],
    [80194,"2019-06-30T05:00:00","10.5","ND","ND","ND","4.7","0.8","ND","ND","ND","ND","0","0"],
    [80195,"2019-06-30T06:00:00","0.5","ND","ND","ND","1.7","1.6","ND","ND","ND","ND","0","0"],
    [80196,"2019-06-30T07:00:00","20.4","ND","ND","ND","2","1.6","ND","ND","ND","ND","ND","0"],
    [80197,"2019-06-30T08:00:00","22.5","ND","ND","ND","4.4","2","ND","ND","ND","ND","ND","0"],
    [80198,"2019-06-30T09:00:00","25.1","ND","ND","ND","7.3","2","ND","ND","ND","ND","214","0"],
    [80199,"2019-06-30T10:00:00","45.7","ND","ND","ND","23","2.5","ND","ND","ND","ND","ND","0"],
    [80200,"2019-06-30T11:00:00","44.1","ND","ND","ND","35.7","1","ND","ND","ND","ND","664","0"],
    [80201,"2019-06-30T12:00:00","19.2","ND","ND","ND","36.3","0.8","ND","ND","ND","ND","664","0"],
    [80202,"2019-06-30T13:00:00","16.5","ND","ND","ND","46.9","1.1","ND","ND","ND","ND","ND","0"],
    [80203,"2019-06-30T14:00:00","22.1","ND","ND","ND","59.3","0.9","ND","ND","ND","ND","664","0"],
    [80204,"2019-06-30T15:00:00","7.3","ND","ND","ND","56.5","0.7","ND","ND","ND","ND","ND","0"],
    [80205,"2019-06-30T16:00:00","ND","ND","ND","ND","25.2","0.4","ND","ND","ND","ND","632","0"],
    [80206,"2019-06-30T17:00:00","ND","ND","ND","ND","26.9","0.3","ND","ND","ND","ND","ND","0"],
    [80207,"2019-06-30T18:00:00","0.1","ND","ND","ND","16.5","0.8","ND","ND","ND","ND","329","0"],
    [80208,"2019-06-30T19:00:00","5","ND","ND","ND","7.9","0.5","ND","ND","ND","ND","32","0.2"],
    [80209,"2019-06-30T20:00:00","26.3","ND","ND","ND","3.4","1.3","ND","ND","ND","ND","0","0"],
    [80210,"2019-06-30T21:00:00","33.8","ND","ND","ND","1.9","2","ND","ND","ND","ND","0","0"],
    [80211,"2019-06-30T22:00:00","37.1","ND","ND","ND","1.5","1.2","ND","ND","ND","ND","ND","0"],
    [80212,"2019-06-30T23:00:00","24.1","ND","ND","ND","1.3","0.2","ND","ND","ND","ND","0","0.4"],
    [80213,"2019-07-01T00:00:00","1.5","ND","ND","ND","1.5","0.6","ND","ND","ND","ND","0","0"],
    [80214,"2019-07-01T01:00:00","18.5","ND","ND","ND","1.5","1.4","ND","ND","ND","ND","0","0"],
    [80215,"2019-07-01T02:00:00","33","ND","ND","ND","1.6","3.4","ND","ND","ND","ND","0","0"],
    [80216,"2019-07-01T03:00:00","22.7","ND","ND","ND","2.1","3.2","ND","ND","ND","ND","0","0"],
    [80217,"2019-07-01T04:00:00","31.1","ND","ND","ND","2.2","6.4","ND","ND","ND","ND","0","0"],
    [80218,"2019-07-01T05:00:00","26.2","ND","ND","ND","1.4","5.9","ND","ND","ND","ND","0","0"],
    [80219,"2019-07-01T06:00:00","42.8","ND","ND","ND","1.5","3.9","ND","ND","ND","ND","0","0"],
    [80220,"2019-07-01T07:00:00","19.5","ND","ND","ND","1.6","3.5","ND","ND","ND","ND","ND","0"],
    [80221,"2019-07-01T08:00:00","33.5","ND","ND","ND","2.8","3.4","ND","ND","ND","ND","ND","0"],
    [80222,"2019-07-01T09:00:00","49.4","ND","ND","ND","5.3","2.2","ND","ND","ND","ND","ND","0"],
    [80223,"2019-07-01T10:00:00","45.9","ND","ND","ND","12.7","1.9","ND","ND","ND","ND","ND","0"],
    [80224,"2019-07-01T11:00:00","33.2","ND","ND","ND","29.4","1.5","ND","ND","ND","ND","ND","0"],
    [80225,"2019-07-01T12:00:00","29.6","ND","ND","ND","54.4","1.2","ND","ND","ND","ND","649","0"],
    [80226,"2019-07-01T13:00:00","30.7","ND","ND","ND","53.4","1.1","ND","ND","ND","ND","664","0"],
    [80227,"2019-07-01T14:00:00","26.9","ND","ND","ND","56.9","0.5","ND","ND","ND","ND","664","0"],
    [80228,"2019-07-01T15:00:00","9.7","ND","ND","ND","42","0.9","ND","ND","ND","ND","652","0"],
    [80229,"2019-07-01T16:00:00","14","ND","ND","ND","33.3","0.6","ND","ND","ND","ND","ND","0"],
    [80230,"2019-07-01T17:00:00","9.7","ND","ND","ND","21.1","0.5","ND","ND","ND","ND","625","0"],
    [80231,"2019-07-01T18:00:00","2.3","ND","ND","ND","17.6","0.4","ND","ND","ND","ND","233","0"],
    [80232,"2019-07-01T19:00:00","1.7","ND","ND","ND","9.6","0.5","ND","ND","ND","ND","ND","0"],
    [80233,"2019-07-01T20:00:00","7.4","ND","ND","ND","5.6","1.2","ND","ND","ND","ND","ND","0"],
    [80234,"2019-07-01T21:00:00","13.2","ND","ND","ND","3.8","1.5","ND","ND","ND","ND","0","0"],
    [80235,"2019-07-01T22:00:00","24.1","ND","ND","ND","3.7","1.6","ND","ND","ND","ND","0","0"],
    [80236,"2019-07-01T23:00:00","30.7","ND","ND","ND","4","3.2","ND","ND","ND","ND","0","0"],
    [80237,"2019-07-02T00:00:00","21.8","ND","ND","ND","4.4","4.5","ND","ND","ND","ND","0","0"],
    [80238,"2019-07-02T01:00:00","18.7","ND","ND","ND","5.3","1.5","ND","ND","ND","ND","0","0"],
    [80239,"2019-07-02T02:00:00","15.1","ND","ND","ND","5.5","0.5","ND","ND","ND","ND","0","0"],
    [80240,"2019-07-02T03:00:00","5.8","ND","ND","ND","2.3","2.1","ND","ND","ND","ND","ND","0"],
    [80241,"2019-07-02T04:00:00","39.8","ND","ND","ND","2.5","1.1","ND","ND","ND","ND","0","0"],
    [80242,"2019-07-02T05:00:00","58.6","ND","ND","ND","2.4","1.7","ND","ND","ND","ND","0","0"],
    [80243,"2019-07-02T06:00:00","30.6","ND","ND","ND","2","1.5","ND","ND","ND","ND","0","0"],
    [80244,"2019-07-02T07:00:00","62.8","ND","ND","ND","2.2","1.2","ND","ND","ND","ND","0","0"],
    [80245,"2019-07-02T08:00:00","57","ND","ND","ND","3.5","0.9","ND","ND","ND","ND","ND","0"],
    [80246,"2019-07-02T09:00:00","102.2","ND","ND","ND","6.7","2","ND","ND","ND","ND","ND","0"],
    [80247,"2019-07-02T10:00:00","57.2","ND","ND","ND","19.6","1.5","ND","ND","ND","ND","ND","0"],
    [80248,"2019-07-02T11:00:00","27.4","ND","ND","ND","50.2","0.5","ND","ND","ND","ND","ND","0"],
    [80249,"2019-07-02T12:00:00","15.6","ND","ND","ND","63.8","0.7","ND","ND","ND","ND","ND","0"],
    [80250,"2019-07-02T13:00:00","33.3","ND","ND","ND","86.7","0.8","ND","ND","ND","ND","ND","0"],
    [80251,"2019-07-02T14:00:00","41.9","ND","ND","ND","91.6","0.8","ND","ND","ND","ND","ND","0"],
    [80252,"2019-07-02T15:00:00","32","ND","ND","ND","46.7","0.3","ND","ND","ND","ND","ND","0"],
    [80253,"2019-07-02T16:00:00","27.2","ND","ND","ND","28.7","0.5","ND","ND","ND","ND","ND","0"],
    [80254,"2019-07-02T17:00:00","3.2","ND","ND","ND","23.8","0.3","ND","ND","ND","ND","ND","0"],
    [80255,"2019-07-02T18:00:00","3.1","ND","ND","ND","15.7","0.4","ND","ND","ND","ND","ND","0"],
    [80256,"2019-07-02T19:00:00","4.7","ND","ND","ND","10.4","0.1","ND","ND","ND","ND","0","0"],
    [80257,"2019-07-02T20:00:00","3.8","ND","ND","ND","11.2","0.5","ND","ND","ND","ND","8","0.1"],
    [80258,"2019-07-02T21:00:00","16.3","ND","ND","ND","6.8","1.1","ND","ND","ND","ND","0","0"],
    [80259,"2019-07-02T22:00:00","38.6","ND","ND","ND","7","1.1","ND","ND","ND","ND","0","0"],
    [80260,"2019-07-02T23:00:00","13.8","ND","ND","ND","3.7","2.1","ND","ND","ND","ND","0","0"],
    [80261,"2019-07-03T00:00:00","30.4","ND","ND","ND","3.7","2.8","ND","ND","ND","ND","0","0"],
    [80262,"2019-07-03T01:00:00","59.8","ND","ND","ND","6.9","1.3","ND","ND","ND","ND","ND","0"],
    [80263,"2019-07-03T02:00:00","35.4","ND","ND","ND","4.2","3.1","ND","ND","ND","ND","ND","0"],
    [80264,"2019-07-03T03:00:00","36","ND","ND","ND","2.8","2.9","ND","ND","ND","ND","ND","0"],
    [80265,"2019-07-03T04:00:00","40.9","ND","ND","ND","2.3","2.3","ND","ND","ND","ND","0","0"],
    [80266,"2019-07-03T05:00:00","53","ND","ND","ND","1.7","3","ND","ND","ND","ND","0","0"],
    [80267,"2019-07-03T06:00:00","48.7","ND","ND","ND","1.7","2.5","ND","ND","ND","ND","ND","ND"],
    [80268,"2019-07-03T07:00:00","63.3","ND","ND","ND","1.7","3.5","ND","ND","ND","ND","ND","0"],
    [80269,"2019-07-03T08:00:00","61.7","ND","ND","ND","3.1","5.3","ND","ND","ND","ND","ND","0"],
    [80270,"2019-07-03T09:00:00","66.4","ND","ND","ND","8","1.6","ND","ND","ND","ND","ND","0"],
    [80271,"2019-07-03T10:00:00","53.6","ND","ND","ND","152.7","2","ND","ND","ND","ND","540","0"],
    [80272,"2019-07-03T11:00:00","48.6","ND","ND","ND","21.7","4.9","ND","ND","ND","ND","660","0"],
    [80273,"2019-07-03T12:00:00","56.2","ND","ND","ND","28.2","4.1","ND","ND","ND","ND","665","ND"],
    [80274,"2019-07-03T13:00:00","18.7","ND","ND","ND","37.4","1.3","ND","ND","ND","ND","665","0"],
    [80275,"2019-07-03T14:00:00","13","ND","ND","ND","48.3","1.1","ND","ND","ND","ND","644","0"],
    [80276,"2019-07-03T15:00:00","32.2","ND","ND","ND","58.2","1.1","ND","ND","ND","ND","648","0"],
    [80277,"2019-07-03T16:00:00","56.3","ND","ND","ND","60.6","0.6","ND","ND","ND","ND","638","0"],
    [80278,"2019-07-03T17:00:00","34.3","ND","ND","ND","50.5","0.8","ND","ND","ND","ND","663","0"],
    [80279,"2019-07-03T18:00:00","8.3","ND","ND","ND","30.7","0.9","ND","ND","ND","ND","327","0"],
    [80280,"2019-07-03T19:00:00","2.8","ND","ND","ND","14.8","0.8","ND","ND","ND","ND","0","ND"],
    [80281,"2019-07-03T20:00:00","11.6","ND","ND","ND","6.2","0.4","ND","ND","ND","ND","0","0"],
    [80282,"2019-07-03T21:00:00","36.1","ND","ND","ND","3.4","0.3","ND","ND","ND","ND","0","0.1"],
    [80283,"2019-07-03T22:00:00","64.7","ND","ND","ND","2.2","0.6","ND","ND","ND","ND","0","0"],
    [80284,"2019-07-03T23:00:00","44.6","ND","ND","ND","2.4","4.9","ND","ND","ND","ND","0","0"],
    [80285,"2019-07-04T00:00:00","29.8","ND","ND","ND","2.1","1.2","ND","ND","ND","ND","ND","0"],
    [80286,"2019-07-04T01:00:00","4.7","ND","ND","ND","3","2.2","ND","ND","ND","ND","0","0"],
    [80287,"2019-07-04T02:00:00","30.1","ND","ND","ND","2.5","3.1","ND","ND","ND","ND","0","0"],
    [80288,"2019-07-04T03:00:00","33.9","ND","ND","ND","5.1","1.7","ND","ND","ND","ND","0","0"],
    [80289,"2019-07-04T04:00:00","35.2","ND","ND","ND","3.1","2","ND","ND","ND","ND","0","0"],
    [80290,"2019-07-04T05:00:00","21","ND","ND","ND","4.5","1.7","ND","ND","ND","ND","0","0"],
    [80291,"2019-07-04T06:00:00","35.7","ND","ND","ND","3","0.9","ND","ND","ND","ND","0","0"],
    [80292,"2019-07-04T07:00:00","32.6","ND","ND","ND","1.9","1.3","ND","ND","ND","ND","0","0"],
    [80293,"2019-07-04T08:00:00","79.6","ND","ND","ND","3.4","1.4","ND","ND","ND","ND","53","0"],
    [80294,"2019-07-04T09:00:00","99.1","ND","ND","ND","11.9","1.1","ND","ND","ND","ND","398","16.4"],
    [80295,"2019-07-04T10:00:00","68.2","ND","ND","ND","29.9","0.6","ND","ND","ND","ND","663","0"],
    [80296,"2019-07-04T11:00:00","25","ND","ND","ND","55","0.7","ND","ND","ND","ND","634","0"],
    [80297,"2019-07-04T12:00:00","46.6","ND","ND","ND","87.6","0.7","ND","ND","ND","ND","661","0"],
    [80298,"2019-07-04T13:00:00","57.7","ND","ND","ND","72.6","1.1","ND","ND","ND","ND","664","0"],
    [80299,"2019-07-04T14:00:00","33.8","ND","ND","ND","31.4","0.7","ND","ND","ND","ND","609","0"],
    [80300,"2019-07-04T15:00:00","30.8","ND","ND","ND","39.1","0.5","ND","ND","ND","ND","638","0"],
    [80301,"2019-07-04T16:00:00","29.4","ND","ND","ND","32.4","0.4","ND","ND","ND","ND","662","0"],
    [80302,"2019-07-04T17:00:00","21","ND","ND","ND","33","0.4","ND","ND","ND","ND","615","0"],
    [80303,"2019-07-04T18:00:00","23.3","ND","ND","ND","30.1","0.5","ND","ND","ND","ND","662","0"],
    [80304,"2019-07-04T19:00:00","11.9","ND","ND","ND","35","0.3","ND","ND","ND","ND","0","0.8"],
    [80305,"2019-07-04T20:00:00","4.2","ND","ND","ND","18.9","2.6","ND","ND","ND","ND","0","1"],
    [80306,"2019-07-04T21:00:00","34.3","ND","ND","ND","3.3","1.8","ND","ND","ND","ND","0","0.1"],
    [80307,"2019-07-04T22:00:00","10.8","ND","ND","ND","5","1.6","ND","ND","ND","ND","0","0.2"],
    [80308,"2019-07-04T23:00:00","46.1","ND","ND","ND","4.7","2","ND","ND","ND","ND","0","0"],
    [80309,"2019-07-05T00:00:00","58.1","ND","ND","ND","1.9","1.9","ND","ND","ND","ND","0","ND"],
    [80310,"2019-07-05T01:00:00","82.5","ND","ND","ND","3.3","1","ND","ND","ND","ND","0","1.6"],
    [80311,"2019-07-05T02:00:00","80.6","ND","ND","ND","4.7","2","ND","ND","ND","ND","0","0.1"],
    [80312,"2019-07-05T03:00:00","66.9","ND","ND","ND","1.9","7.9","ND","ND","ND","ND","0","0.1"],
    [80313,"2019-07-05T04:00:00","37.1","ND","ND","ND","1.5","4.5","ND","ND","ND","ND","ND","0"],
    [80314,"2019-07-05T05:00:00","47.5","ND","ND","ND","1.6","3.1","ND","ND","ND","ND","0","0"],
    [80315,"2019-07-05T06:00:00","62.5","ND","ND","ND","2.2","6","ND","ND","ND","ND","0","0"],
    [80316,"2019-07-05T07:00:00","29.1","ND","ND","ND","2.4","2.9","ND","ND","ND","ND","ND","0"],
    [80317,"2019-07-05T08:00:00","57.8","ND","ND","ND","3.3","1.6","ND","ND","ND","ND","93","0"],
    [80318,"2019-07-05T09:00:00","46.5","ND","ND","ND","7.8","0.9","ND","ND","ND","ND","ND","0.1"],
    [80319,"2019-07-05T10:00:00","42.5","ND","ND","ND","21.3","1.1","ND","ND","ND","ND","537","0.1"],
    [80320,"2019-07-05T11:00:00","43","ND","ND","ND","47.4","0.6","ND","ND","ND","ND","664","0"],
    [80321,"2019-07-05T12:00:00","41","ND","ND","ND","83.4","0.8","ND","ND","ND","ND","662","ND"],
    [80322,"2019-07-05T13:00:00","32.8","ND","ND","ND","83.4","0.6","ND","ND","ND","ND","664","0"],
    [80323,"2019-07-05T14:00:00","34.5","ND","ND","ND","73.3","0.6","ND","ND","ND","ND","664","0"],
    [80324,"2019-07-05T15:00:00","43.8","ND","ND","ND","102.6","0.5","ND","ND","ND","ND","664","0"],
    [80325,"2019-07-05T16:00:00","34.5","ND","ND","ND","74.7","0.7","ND","ND","ND","ND","665","0"],
    [80326,"2019-07-05T17:00:00","23.5","ND","ND","ND","36.4","0.8","ND","ND","ND","ND","664","1.5"],
    [80327,"2019-07-05T18:00:00","15.6","ND","ND","ND","27.3","0.4","ND","ND","ND","ND","494","0"],
    [80328,"2019-07-05T19:00:00","3.8","ND","ND","ND","13.3","0.1","ND","ND","ND","ND","0","0"],
    [80329,"2019-07-05T20:00:00","78.9","ND","ND","ND","6.9","1.4","ND","ND","ND","ND","0","0"],
    [80330,"2019-07-05T21:00:00","47.6","ND","ND","ND","2.5","2.1","ND","ND","ND","ND","0","0"],
    [80331,"2019-07-05T22:00:00","28.8","ND","ND","ND","3.2","3.1","ND","ND","ND","ND","0","ND"],
    [80332,"2019-07-05T23:00:00","ND","ND","ND","ND","7.8","1","ND","ND","ND","ND","0","0"],
    [80333,"2019-07-06T00:00:00","14.8","ND","ND","ND","17.6","0.7","ND","ND","ND","ND","0","0"],
    [80334,"2019-07-06T01:00:00","4.4","ND","ND","ND","14.1","0.7","ND","ND","ND","ND","0","0"],
    [80335,"2019-07-06T02:00:00","ND","ND","ND","ND","17.8","2","ND","ND","ND","ND","0","ND"],
    [80336,"2019-07-06T03:00:00","0.2","ND","ND","ND","18.5","3.9","ND","ND","ND","ND","0","ND"],
    [80337,"2019-07-06T04:00:00","8.3","ND","ND","ND","12.1","2","ND","ND","ND","ND","0","ND"],
    [80338,"2019-07-06T05:00:00","13.1","ND","ND","ND","12.8","1.4","ND","ND","ND","ND","0","ND"],
    [80339,"2019-07-06T06:00:00","23.6","ND","ND","ND","2.7","1.9","ND","ND","ND","ND","0","ND"],
    [80340,"2019-07-06T07:00:00","30.2","ND","ND","ND","2.1","2.2","ND","ND","ND","ND","0","ND"],
    [80341,"2019-07-06T08:00:00","93.9","ND","ND","ND","3.7","2.8","ND","ND","ND","ND","ND","ND"],
    [80342,"2019-07-06T09:00:00","90.6","ND","ND","ND","12.4","2.1","ND","ND","ND","ND","ND","ND"],
    [80343,"2019-07-06T10:00:00","10.9","ND","ND","ND","25.3","1.4","ND","ND","ND","ND","636","ND"],
    [80344,"2019-07-06T11:00:00","38.9","ND","ND","ND","47.3","1.2","ND","ND","ND","ND","ND","ND"],
    [80345,"2019-07-06T12:00:00","34.8","ND","ND","ND","79.7","0.9","ND","ND","ND","ND","664","ND"],
    [80346,"2019-07-06T13:00:00","30.7","ND","ND","ND","105.1","0.7","ND","ND","ND","ND","ND","ND"],
    [80347,"2019-07-06T14:00:00","39.4","ND","ND","ND","123.4","0.6","ND","ND","ND","ND","ND","ND"],
    [80348,"2019-07-06T15:00:00","50.1","ND","ND","ND","93.5","0.7","ND","ND","ND","ND","665","0"],
    [80349,"2019-07-06T16:00:00","23","ND","ND","ND","54.4","0.3","ND","ND","ND","ND","661","ND"],
    [80350,"2019-07-06T17:00:00","ND","ND","ND","ND","55.6","0.5","ND","ND","ND","ND","663","ND"],
    [80351,"2019-07-06T18:00:00","12.4","ND","ND","ND","42.9","0.6","ND","ND","ND","ND","655","ND"],
    [80352,"2019-07-06T19:00:00","16.2","ND","ND","ND","32.3","0.5","ND","ND","ND","ND","0","0"],
    [80353,"2019-07-06T20:00:00","11.8","ND","ND","ND","22.5","0.5","ND","ND","ND","ND","0","ND"],
    [80354,"2019-07-06T21:00:00","17.3","ND","ND","ND","10.3","1.1","ND","ND","ND","ND","0","ND"],
    [80355,"2019-07-06T22:00:00","19.1","ND","ND","ND","2.7","2.5","ND","ND","ND","ND","0","0.1"],
    [80356,"2019-07-06T23:00:00","28.7","ND","ND","ND","2","1","ND","ND","ND","ND","0","ND"],
    [80357,"2019-07-07T00:00:00","22","ND","ND","ND","1.8","2.8","ND","ND","ND","ND","0","ND"],
    [80358,"2019-07-07T01:00:00","59.7","ND","ND","ND","1.5","1.2","ND","ND","ND","ND","ND","0"],
    [80359,"2019-07-07T02:00:00","28.6","ND","ND","ND","2.3","2","ND","ND","ND","ND","ND","0"],
    [80360,"2019-07-07T03:00:00","18.4","ND","ND","ND","1.9","3","ND","ND","ND","ND","0","0"],
    [80361,"2019-07-07T04:00:00","32.4","ND","ND","ND","1.4","2.2","ND","ND","ND","ND","0","0"],
    [80362,"2019-07-07T05:00:00","24.4","ND","ND","ND","1.3","1.3","ND","ND","ND","ND","0","ND"],
    [80363,"2019-07-07T06:00:00","37.2","ND","ND","ND","1.1","1.3","ND","ND","ND","ND","0","0.1"],
    [80364,"2019-07-07T07:00:00","49.2","ND","ND","ND","1.8","2","ND","ND","ND","ND","0","0"],
    [80365,"2019-07-07T08:00:00","67.4","ND","ND","ND","4.6","1.7","ND","ND","ND","ND","148","0"],
    [80366,"2019-07-07T09:00:00","66.8","ND","ND","ND","14.1","1.6","ND","ND","ND","ND","391","ND"],
    [80367,"2019-07-07T10:00:00","60.3","ND","ND","ND","30.6","1.1","ND","ND","ND","ND","601","0"],
    [80368,"2019-07-07T11:00:00","48.6","ND","ND","ND","44.7","0.8","ND","ND","ND","ND","ND","0"],
    [80369,"2019-07-07T12:00:00","49.5","ND","ND","ND","79.1","0.9","ND","ND","ND","ND","664","0"],
    [80370,"2019-07-07T13:00:00","29.5","ND","ND","ND","89.6","0.9","ND","ND","ND","ND","663","0"],
    [80371,"2019-07-07T14:00:00","24.1","ND","ND","ND","98.4","0.3","ND","ND","ND","ND","ND","0"],
    [80372,"2019-07-07T15:00:00","37.8","ND","ND","ND","59.7","0.5","ND","ND","ND","ND","655","0"],
    [80373,"2019-07-07T16:00:00","12.9","ND","ND","ND","40.8","0.6","ND","ND","ND","ND","ND","2.2"],
    [80374,"2019-07-07T17:00:00","1.3","ND","ND","ND","39.2","0.4","ND","ND","ND","ND","605","0"],
    [80375,"2019-07-07T18:00:00","5.7","ND","ND","ND","36.2","0.6","ND","ND","ND","ND","235","0.7"],
    [80376,"2019-07-07T19:00:00","3.6","ND","ND","ND","34.3","0.6","ND","ND","ND","ND","ND","0"],
    [80377,"2019-07-07T20:00:00","6.6","ND","ND","ND","26.1","0.5","ND","ND","ND","ND","0","0.2"],
    [80378,"2019-07-07T21:00:00","21.4","ND","ND","ND","12.5","0.3","ND","ND","ND","ND","0","0"],
    [80379,"2019-07-07T22:00:00","19.7","ND","ND","ND","4.4","0.8","ND","ND","ND","ND","0","0"],
    [80380,"2019-07-07T23:00:00","41.5","ND","ND","ND","1.8","1.6","ND","ND","ND","ND","0","ND"],
    [80381,"2019-07-08T00:00:00","22.9","ND","ND","ND","5.9","1.7","ND","ND","ND","ND","0","0"],
    [80382,"2019-07-08T01:00:00","29","ND","ND","ND","5.6","1.5","ND","ND","ND","ND","0","0"],
    [80383,"2019-07-08T02:00:00","32.8","ND","ND","ND","2.9","1.5","ND","ND","ND","ND","0","0"],
    [80384,"2019-07-08T03:00:00","30.2","ND","ND","ND","5.3","2.4","ND","ND","ND","ND","0","0"],
    [80385,"2019-07-08T04:00:00","14.5","ND","ND","ND","8.8","2","ND","ND","ND","ND","ND","0"],
    [80386,"2019-07-08T05:00:00","14.5","ND","ND","ND","5.7","1.8","ND","ND","ND","ND","ND","0"],
    [80387,"2019-07-08T06:00:00","28.5","ND","ND","ND","2","2.3","ND","ND","ND","ND","0","0"],
    [80388,"2019-07-08T07:00:00","22.5","ND","ND","ND","1.8","2.2","ND","ND","ND","ND","0","0"],
    [80389,"2019-07-08T08:00:00","60.5","ND","ND","ND","3.5","2.6","ND","ND","ND","ND","88","0"],
    [80390,"2019-07-08T09:00:00","82.8","ND","ND","ND","8.9","2.7","ND","ND","ND","ND","367","ND"],
    [80391,"2019-07-08T10:00:00","61","ND","ND","ND","15","2","ND","ND","ND","ND","664","0"],
    [80392,"2019-07-08T11:00:00","39.7","ND","ND","ND","36","1.5","ND","ND","ND","ND","ND","0"],
    [80393,"2019-07-08T12:00:00","68.3","ND","ND","ND","53.1","0.8","ND","ND","ND","ND","663","0"],
    [80394,"2019-07-08T13:00:00","59.4","ND","ND","ND","60.6","1.4","ND","ND","ND","ND","664","0"],
    [80395,"2019-07-08T14:00:00","20.7","ND","ND","ND","46","1","ND","ND","ND","ND","636","0"],
    [80396,"2019-07-08T15:00:00","14.4","ND","ND","ND","44.5","1.2","ND","ND","ND","ND","584","1.5"],
    [80397,"2019-07-08T16:00:00","14.3","ND","ND","ND","42.5","2.7","ND","ND","ND","ND","666","0"],
    [80398,"2019-07-08T17:00:00","15.7","ND","ND","ND","30.9","1.3","ND","ND","ND","ND","650","0"],
    [80399,"2019-07-08T18:00:00","9.4","ND","ND","ND","23.6","0.9","ND","ND","ND","ND","435","ND"],
    [80400,"2019-07-08T19:00:00","0.3","ND","ND","ND","17.7","1.2","ND","ND","ND","ND","0","0"],
    [80401,"2019-07-08T20:00:00","7.4","ND","ND","ND","8.1","0.9","ND","ND","ND","ND","0","0.1"],
    [80402,"2019-07-08T21:00:00","16.1","ND","ND","ND","11.8","1.3","ND","ND","ND","ND","0","ND"],
    [80403,"2019-07-08T22:00:00","49.7","ND","ND","ND","9.4","2.8","ND","ND","ND","ND","0","0"],
    [80404,"2019-07-08T23:00:00","8.1","ND","ND","ND","14","2.6","ND","ND","ND","ND","ND","0"],
    [80405,"2019-07-09T00:00:00","51.3","ND","ND","ND","10.6","2.3","ND","ND","ND","ND","0","0"],
    [80406,"2019-07-09T01:00:00","44.8","ND","ND","ND","6.2","2.9","ND","ND","ND","ND","0","0"],
    [80407,"2019-07-09T02:00:00","41.5","ND","ND","ND","3","3.4","ND","ND","ND","ND","0","0"],
    [80408,"2019-07-09T03:00:00","45.5","ND","ND","ND","2.7","3.5","ND","ND","ND","ND","0","0"],
    [80409,"2019-07-09T04:00:00","21.7","ND","ND","ND","2.3","3.3","ND","ND","ND","ND","0","0"],
    [80410,"2019-07-09T05:00:00","25.5","ND","ND","ND","1.7","4.4","ND","ND","ND","ND","0","0"],
    [80411,"2019-07-09T06:00:00","47.6","ND","ND","ND","1.7","2.9","ND","ND","ND","ND","0","0"],
    [80412,"2019-07-09T07:00:00","59.8","ND","ND","ND","2.2","3.4","ND","ND","ND","ND","0","0"],
    [80413,"2019-07-09T08:00:00","87.7","ND","ND","ND","3.6","3.3","ND","ND","ND","ND","66","0"],
    [80414,"2019-07-09T09:00:00","108.3","ND","ND","ND","6.2","2.9","ND","ND","ND","ND","333","0"],
    [80415,"2019-07-09T10:00:00","116.8","ND","ND","ND","19.9","2","ND","ND","ND","ND","ND","0"],
    [80416,"2019-07-09T11:00:00","54.1","ND","ND","ND","60.3","2","ND","ND","ND","ND","630","0"],
    [80417,"2019-07-09T12:00:00","37.8","ND","ND","ND","77.1","1","ND","ND","ND","ND","643","0"],
    [80418,"2019-07-09T13:00:00","24","ND","ND","ND","94.1","0.8","ND","ND","ND","ND","665","0"],
    [80419,"2019-07-09T14:00:00","38","ND","ND","ND","105.5","0.9","ND","ND","ND","ND","631","0"],
    [80420,"2019-07-09T15:00:00","41.1","ND","ND","ND","74.9","1.2","ND","ND","ND","ND","ND","0"],
    [80421,"2019-07-09T16:00:00","26.4","ND","ND","ND","59.5","0.9","ND","ND","ND","ND","585","0"],
    [80422,"2019-07-09T17:00:00","17","ND","ND","ND","44.3","0.7","ND","ND","ND","ND","354","9.3"],
    [80423,"2019-07-09T18:00:00","12.1","ND","ND","ND","33.2","0.6","ND","ND","ND","ND","509","3.2"],
    [80424,"2019-07-09T19:00:00","14","ND","ND","ND","21.9","0.7","ND","ND","ND","ND","0","0.1"],
    [80425,"2019-07-09T20:00:00","16.2","ND","ND","ND","18.9","0.5","ND","ND","ND","ND","0","0"],
    [80426,"2019-07-09T21:00:00","25.3","ND","ND","ND","17.2","0.8","ND","ND","ND","ND","0","0.1"],
    [80427,"2019-07-09T22:00:00","39.9","ND","ND","ND","5.5","1.2","ND","ND","ND","ND","0","0"],
    [80428,"2019-07-09T23:00:00","25.2","ND","ND","ND","3.6","2.9","ND","ND","ND","ND","0","0"],
    [80429,"2019-07-10T00:00:00","36.4","ND","ND","ND","2.2","2.2","ND","ND","ND","ND","0","0"],
    [80430,"2019-07-10T01:00:00","67.5","ND","ND","ND","2.1","2.6","ND","ND","ND","ND","0","0.8"],
    [80431,"2019-07-10T02:00:00","63.9","ND","ND","ND","3.1","3.6","ND","ND","ND","ND","0","0.1"],
    [80432,"2019-07-10T03:00:00","38.4","ND","ND","ND","4","2.7","ND","ND","ND","ND","0","0"],
    [80433,"2019-07-10T04:00:00","64.5","ND","ND","ND","4.2","1.8","ND","ND","ND","ND","0","0"],
    [80434,"2019-07-10T05:00:00","26.5","ND","ND","ND","7.8","0.8","ND","ND","ND","ND","0","0"],
    [80435,"2019-07-10T06:00:00","5.3","ND","ND","ND","3","1","ND","ND","ND","ND","0","0"],
    [80436,"2019-07-10T07:00:00","36.2","ND","ND","ND","3.7","0.7","ND","ND","ND","ND","ND","0.1"],
    [80437,"2019-07-10T08:00:00","48.2","ND","ND","ND","6.2","1.4","ND","ND","ND","ND","ND","0.2"],
    [80438,"2019-07-10T09:00:00","27.5","ND","ND","ND","19.6","1.2","ND","ND","ND","ND","ND","0"],
    [80439,"2019-07-10T10:00:00","33.6","ND","ND","ND","49.4","1.2","ND","ND","ND","ND","ND","0"],
    [80440,"2019-07-10T11:00:00","23.5","ND","ND","ND","63.1","0.8","ND","ND","ND","ND","ND","0"],
    [80441,"2019-07-10T12:00:00","30.8","ND","ND","ND","75.6","0.7","ND","ND","ND","ND","ND","0"],
    [80442,"2019-07-10T13:00:00","40.2","ND","ND","ND","79.5","0.6","ND","ND","ND","ND","657","0"],
    [80443,"2019-07-10T14:00:00","38.9","ND","ND","ND","93.8","1.1","ND","ND","ND","ND","ND","0.2"],
    [80444,"2019-07-10T15:00:00","42","ND","ND","ND","65.4","0.7","ND","ND","ND","ND","666","0"],
    [80445,"2019-07-10T16:00:00","25.4","ND","ND","ND","61","0.4","ND","ND","ND","ND","657","0"],
    [80446,"2019-07-10T17:00:00","11.8","ND","ND","ND","53.6","0.9","ND","ND","ND","ND","548","0"],
    [80447,"2019-07-10T18:00:00","47.1","ND","ND","ND","46.3","1","ND","ND","ND","ND","357","0"],
    [80448,"2019-07-10T19:00:00","55.6","ND","ND","ND","25.6","0.5","ND","ND","ND","ND","267","1.8"],
    [80449,"2019-07-10T20:00:00","38.9","ND","ND","ND","22.8","0.3","ND","ND","ND","ND","ND","0.2"],
    [80450,"2019-07-10T21:00:00","23.8","ND","ND","ND","18.7","0.4","ND","ND","ND","ND","0","0"],
    [80451,"2019-07-10T22:00:00","5.1","ND","ND","ND","11.1","1.3","ND","ND","ND","ND","0","0"],
    [80452,"2019-07-10T23:00:00","47.7","ND","ND","ND","3.7","4.3","ND","ND","ND","ND","0","0"],
    [80453,"2019-07-11T00:00:00","41.8","ND","ND","ND","2.4","3.3","ND","ND","ND","ND","0","0"],
    [80454,"2019-07-11T01:00:00","47","ND","ND","ND","2.4","1.8","ND","ND","ND","ND","0","0"],
    [80455,"2019-07-11T02:00:00","48.3","ND","ND","ND","1.7","3.8","ND","ND","ND","ND","0","0"],
    [80456,"2019-07-11T03:00:00","32.4","ND","ND","ND","5.2","3","ND","ND","ND","ND","0","0"],
    [80457,"2019-07-11T04:00:00","23.7","ND","ND","ND","6.6","1.6","ND","ND","ND","ND","ND","0"],
    [80458,"2019-07-11T05:00:00","25","ND","ND","ND","6.5","1.5","ND","ND","ND","ND","ND","0"],
    [80459,"2019-07-11T06:00:00","19.1","ND","ND","ND","4.4","1.4","ND","ND","ND","ND","0","0"],
    [80460,"2019-07-11T07:00:00","35.4","ND","ND","ND","2.4","0.7","ND","ND","ND","ND","0","0"],
    [80461,"2019-07-11T08:00:00","49.2","ND","ND","ND","6.4","0.9","ND","ND","ND","ND","85","0"],
    [80462,"2019-07-11T09:00:00","49.4","ND","ND","ND","19.5","1","ND","ND","ND","ND","ND","0"],
    [80463,"2019-07-11T10:00:00","58.2","ND","ND","ND","43.8","0.5","ND","ND","ND","ND","659","0"],
    [80464,"2019-07-11T11:00:00","44.5","ND","ND","ND","68.6","0.7","ND","ND","ND","ND","ND","0"],
    [80465,"2019-07-11T12:00:00","35.7","ND","ND","ND","105.5","0.7","ND","ND","ND","ND","664","0"],
    [80466,"2019-07-11T13:00:00","49.2","ND","ND","ND","113.2","0.8","ND","ND","ND","ND","648","0"],
    [80467,"2019-07-11T14:00:00","53.8","ND","ND","ND","117.6","0.6","ND","ND","ND","ND","645","0"],
    [80468,"2019-07-11T15:00:00","38.2","ND","ND","ND","81.1","0.6","ND","ND","ND","ND","ND","0"],
    [80469,"2019-07-11T16:00:00","22.8","ND","ND","ND","43.5","0.7","ND","ND","ND","ND","ND","0"],
    [80470,"2019-07-11T17:00:00","26.3","ND","ND","ND","42.9","0.5","ND","ND","ND","ND","615","0"],
    [80471,"2019-07-11T18:00:00","24.6","ND","ND","ND","39.5","0.5","ND","ND","ND","ND","567","0"],
    [80472,"2019-07-11T19:00:00","35.3","ND","ND","ND","36.7","0.5","ND","ND","ND","ND","0","0"],
    [80473,"2019-07-11T20:00:00","16.1","ND","ND","ND","18.4","1","ND","ND","ND","ND","0","0"],
    [80474,"2019-07-11T21:00:00","42.2","ND","ND","ND","4.9","0.9","ND","ND","ND","ND","0","0"],
    [80475,"2019-07-11T22:00:00","20","ND","ND","ND","19.9","1","ND","ND","ND","ND","0","0.7"],
    [80476,"2019-07-11T23:00:00","1.8","ND","ND","ND","4.9","1.5","ND","ND","ND","ND","0","0"],
    [80477,"2019-07-12T00:00:00","15.2","ND","ND","ND","2.4","2.4","ND","ND","ND","ND","0","0"],
    [80478,"2019-07-12T01:00:00","18","ND","ND","ND","2.1","3.4","ND","ND","ND","ND","0","0"],
    [80479,"2019-07-12T02:00:00","28.6","ND","ND","ND","5.7","2.4","ND","ND","ND","ND","0","0"],
    [80480,"2019-07-12T03:00:00","26.4","ND","ND","ND","6.3","1.7","ND","ND","ND","ND","ND","0"],
    [80481,"2019-07-12T04:00:00","18","ND","ND","ND","2.8","3.3","ND","ND","ND","ND","0","0"],
    [80482,"2019-07-12T05:00:00","30.4","ND","ND","ND","1.6","4.4","ND","ND","ND","ND","0","0"],
    [80483,"2019-07-12T06:00:00","34.4","ND","ND","ND","1.5","5.5","ND","ND","ND","ND","0","0"],
    [80484,"2019-07-12T07:00:00","35.7","ND","ND","ND","1.7","3.2","ND","ND","ND","ND","0","0"],
    [80485,"2019-07-12T08:00:00","24.5","ND","ND","ND","2.6","2.2","ND","ND","ND","ND","38","0"],
    [80486,"2019-07-12T09:00:00","21.6","ND","ND","ND","6.7","1.1","ND","ND","ND","ND","ND","0"],
    [80487,"2019-07-12T10:00:00","31.1","ND","ND","ND","25.9","0.9","ND","ND","ND","ND","493","0"],
    [80488,"2019-07-12T11:00:00","73.8","ND","ND","ND","53","0.8","ND","ND","ND","ND","581","0"],
    [80489,"2019-07-12T12:00:00","36.1","ND","ND","ND","73.8","0.7","ND","ND","ND","ND","601","0"],
    [80490,"2019-07-12T13:00:00","24.9","ND","ND","ND","98.2","0.9","ND","ND","ND","ND","ND","0"],
    [80491,"2019-07-12T14:00:00","28.4","ND","ND","ND","109.2","0.8","ND","ND","ND","ND","656","0"],
    [80492,"2019-07-12T15:00:00","32.3","ND","ND","ND","72.7","0.9","ND","ND","ND","ND","662","0"],
    [80493,"2019-07-12T16:00:00","39.8","ND","ND","ND","46.2","0.9","ND","ND","ND","ND","497","0"],
    [80494,"2019-07-12T17:00:00","28","ND","ND","ND","45","0.7","ND","ND","ND","ND","659","0"],
    [80495,"2019-07-12T18:00:00","22.5","ND","ND","ND","33.5","0.4","ND","ND","ND","ND","632","0"],
    [80496,"2019-07-12T19:00:00","18.9","ND","ND","ND","22.9","0.3","ND","ND","ND","ND","275","0"],
    [80497,"2019-07-12T20:00:00","15.3","ND","ND","ND","17.7","0.6","ND","ND","ND","ND","ND","0"],
    [80498,"2019-07-12T21:00:00","21.2","ND","ND","ND","13.5","0.8","ND","ND","ND","ND","0","0"],
    [80499,"2019-07-12T22:00:00","26.5","ND","ND","ND","2.8","6.2","ND","ND","ND","ND","0","0"],
    [80500,"2019-07-12T23:00:00","37.4","ND","ND","ND","1.7","2.9","ND","ND","ND","ND","0","0"],
    [80501,"2019-07-13T00:00:00","27.6","ND","ND","ND","2.1","3.1","ND","ND","ND","ND","ND","0"],
    [80502,"2019-07-13T01:00:00","29","ND","ND","ND","1.8","1.9","ND","ND","ND","ND","ND","0"],
    [80503,"2019-07-13T02:00:00","20.6","ND","ND","ND","2.3","3.2","ND","ND","ND","ND","ND","0"],
    [80504,"2019-07-13T03:00:00","56.5","ND","ND","ND","1.8","3.9","ND","ND","ND","ND","0","0"],
    [80505,"2019-07-13T04:00:00","61.8","ND","ND","ND","1.8","3.7","ND","ND","ND","ND","0","0"],
    [80506,"2019-07-13T05:00:00","56.4","ND","ND","ND","1.8","4.7","ND","ND","ND","ND","0","0"],
    [80507,"2019-07-13T06:00:00","5.8","ND","ND","ND","2","5.3","ND","ND","ND","ND","0","0"],
    [80508,"2019-07-13T07:00:00","27.5","ND","ND","ND","1.9","8.1","ND","ND","ND","ND","0","0"],
    [80509,"2019-07-13T08:00:00","55.6","ND","ND","ND","3.6","8.8","ND","ND","ND","ND","ND","0"],
    [80510,"2019-07-13T09:00:00","86.9","ND","ND","ND","5.3","6","ND","ND","ND","ND","ND","0"],
    [80511,"2019-07-13T10:00:00","45.7","ND","ND","ND","10.4","4.8","ND","ND","ND","ND","ND","0"],
    [80512,"2019-07-13T11:00:00","51.7","ND","ND","ND","21","1.4","ND","ND","ND","ND","ND","0"],
    [80513,"2019-07-13T12:00:00","68.4","ND","ND","ND","30.2","2.3","ND","ND","ND","ND","ND","0"],
    [80514,"2019-07-13T13:00:00","54.5","ND","ND","ND","52.4","0.8","ND","ND","ND","ND","650","0"],
    [80515,"2019-07-13T14:00:00","42.1","ND","ND","ND","71.7","1.5","ND","ND","ND","ND","ND","0"],
    [80516,"2019-07-13T15:00:00","54.1","ND","ND","ND","71.3","0.9","ND","ND","ND","ND","654","0"],
    [80517,"2019-07-13T16:00:00","31.9","ND","ND","ND","33.6","0.4","ND","ND","ND","ND","ND","0"],
    [80518,"2019-07-13T17:00:00","17.1","ND","ND","ND","24.5","0.3","ND","ND","ND","ND","ND","0"],
    [80519,"2019-07-13T18:00:00","4.6","ND","ND","ND","21.7","0.8","ND","ND","ND","ND","ND","0"],
    [80520,"2019-07-13T19:00:00","4.5","ND","ND","ND","17.4","0.4","ND","ND","ND","ND","0","0"],
    [80521,"2019-07-13T20:00:00","6.1","ND","ND","ND","12.2","0.4","ND","ND","ND","ND","0","0"],
    [80522,"2019-07-13T21:00:00","24.7","ND","ND","ND","6.2","0.6","ND","ND","ND","ND","0","0"],
    [80523,"2019-07-13T22:00:00","17.3","ND","ND","ND","1.8","1","ND","ND","ND","ND","0","0"],
    [80524,"2019-07-13T23:00:00","33.7","ND","ND","ND","1.6","2.1","ND","ND","ND","ND","0","0"],
    [80525,"2019-07-14T00:00:00","37.3","ND","ND","ND","1.2","7.7","ND","ND","ND","ND","ND","0"],
    [80526,"2019-07-14T01:00:00","49.6","ND","ND","ND","1.3","3.5","ND","ND","ND","ND","0","0"],
    [80527,"2019-07-14T02:00:00","43.8","ND","ND","ND","1.5","4.5","ND","ND","ND","ND","0","1"],
    [80528,"2019-07-14T03:00:00","27.8","ND","ND","ND","1.4","6.1","ND","ND","ND","ND","ND","0.1"],
    [80529,"2019-07-14T04:00:00","29.8","ND","ND","ND","4","2.2","ND","ND","ND","ND","0","0.1"],
    [80530,"2019-07-14T05:00:00","41.1","ND","ND","ND","2.3","3","ND","ND","ND","ND","0","0"],
    [80531,"2019-07-14T06:00:00","10.3","ND","ND","ND","1.2","3.3","ND","ND","ND","ND","ND","0"],
    [80532,"2019-07-14T07:00:00","23.1","ND","ND","ND","2.1","2","ND","ND","ND","ND","ND","0"],
    [80533,"2019-07-14T08:00:00","31.8","ND","ND","ND","9","0.9","ND","ND","ND","ND","76","0"],
    [80534,"2019-07-14T09:00:00","20.5","ND","ND","ND","14.6","2","ND","ND","ND","ND","ND","0"],
    [80535,"2019-07-14T10:00:00","29.6","ND","ND","ND","25.4","1.9","ND","ND","ND","ND","554","0"],
    [80536,"2019-07-14T11:00:00","26","ND","ND","ND","34.3","1.7","ND","ND","ND","ND","ND","0"],
    [80537,"2019-07-14T12:00:00","21.9","ND","ND","ND","43.6","1.3","ND","ND","ND","ND","ND","0"],
    [80538,"2019-07-14T13:00:00","32.2","ND","ND","ND","57.8","1","ND","ND","ND","ND","ND","0"],
    [80539,"2019-07-14T14:00:00","40.3","ND","ND","ND","77.8","1.6","ND","ND","ND","ND","ND","0"],
    [80540,"2019-07-14T15:00:00","34.9","ND","ND","ND","68.8","0.6","ND","ND","ND","ND","ND","0"],
    [80541,"2019-07-14T16:00:00","24.5","ND","ND","ND","45","0.8","ND","ND","ND","ND","ND","0"],
    [80542,"2019-07-14T17:00:00","4.1","ND","ND","ND","30.7","0.5","ND","ND","ND","ND","ND","0"],
    [80543,"2019-07-14T18:00:00","19.1","ND","ND","ND","32.7","0.5","ND","ND","ND","ND","587","0"],
    [80544,"2019-07-14T19:00:00","0.4","ND","ND","ND","22.9","0.3","ND","ND","ND","ND","ND","0"],
    [80545,"2019-07-14T20:00:00","6.4","ND","ND","ND","8","0.5","ND","ND","ND","ND","ND","0"],
    [80546,"2019-07-14T21:00:00","12.4","ND","ND","ND","5.2","2.1","ND","ND","ND","ND","ND","0"],
    [80547,"2019-07-14T22:00:00","29.4","ND","ND","ND","2.7","2.1","ND","ND","ND","ND","0","0"],
    [80548,"2019-07-14T23:00:00","45.2","ND","ND","ND","1.4","4.4","ND","ND","ND","ND","0","0"],
    [80549,"2019-07-15T00:00:00","40.9","ND","ND","ND","2.2","2.9","ND","ND","ND","ND","ND","0"],
    [80550,"2019-07-15T01:00:00","5.3","ND","ND","ND","9.4","1.2","ND","ND","ND","ND","ND","6.7"],
    [80551,"2019-07-15T02:00:00","7.1","ND","ND","ND","8.4","1.6","ND","ND","ND","ND","ND","7.4"],
    [80552,"2019-07-15T03:00:00","13.6","ND","ND","ND","2.8","1.6","ND","ND","ND","ND","0","3.5"],
    [80553,"2019-07-15T04:00:00","17.1","ND","ND","ND","1.5","2","ND","ND","ND","ND","0","0.4"],
    [80554,"2019-07-15T05:00:00","17.2","ND","ND","ND","1.5","2.4","ND","ND","ND","ND","0","0.2"],
    [80555,"2019-07-15T06:00:00","36.4","ND","ND","ND","1.4","2.1","ND","ND","ND","ND","0","0.3"],
    [80556,"2019-07-15T07:00:00","42.7","ND","ND","ND","1.5","2.4","ND","ND","ND","ND","ND","0.1"],
    [80557,"2019-07-15T08:00:00","48.3","ND","ND","ND","1.6","2","ND","ND","ND","ND","84","0"],
    [80558,"2019-07-15T09:00:00","49.5","ND","ND","ND","2.2","2.4","ND","ND","ND","ND","159","0.5"],
    [80559,"2019-07-15T10:00:00","40.1","ND","ND","ND","4.2","1.9","ND","ND","ND","ND","206","0.3"],
    [80560,"2019-07-15T11:00:00","31.7","ND","ND","ND","21.3","1.4","ND","ND","ND","ND","ND","0"],
    [80561,"2019-07-15T12:00:00","20.9","ND","ND","ND","39.8","1.3","ND","ND","ND","ND","664","0"],
    [80562,"2019-07-15T13:00:00","32.3","ND","ND","ND","61.6","1","ND","ND","ND","ND","624","0"],
    [80563,"2019-07-15T14:00:00","30.2","ND","ND","ND","40.7","0.6","ND","ND","ND","ND","ND","0"],
    [80564,"2019-07-15T15:00:00","18.3","ND","ND","ND","38.8","0.6","ND","ND","ND","ND","640","0"],
    [80565,"2019-07-15T16:00:00","18.3","ND","ND","ND","43.3","0.3","ND","ND","ND","ND","ND","0"],
    [80566,"2019-07-15T17:00:00","1.2","ND","ND","ND","40.5","0.7","ND","ND","ND","ND","ND","0"],
    [80567,"2019-07-15T18:00:00","3.1","ND","ND","ND","26.3","0.5","ND","ND","ND","ND","399","0"],
    [80568,"2019-07-15T19:00:00","11.8","ND","ND","ND","8.6","0.3","ND","ND","ND","ND","0","0"],
    [80569,"2019-07-15T20:00:00","26.5","ND","ND","ND","8.5","0.6","ND","ND","ND","ND","0","0"],
    [80570,"2019-07-15T21:00:00","16.5","ND","ND","ND","11.6","0.5","ND","ND","ND","ND","0","0"],
    [80571,"2019-07-15T22:00:00","14.6","ND","ND","ND","3.4","0.9","ND","ND","ND","ND","0","0"],
    [80572,"2019-07-15T23:00:00","12.6","ND","ND","ND","1.9","4.1","ND","ND","ND","ND","0","0"],
    [80573,"2019-07-16T00:00:00","29.9","ND","ND","ND","1.8","3.2","ND","ND","ND","ND","0","0"],
    [80574,"2019-07-16T01:00:00","24.4","ND","ND","ND","2","2.8","ND","ND","ND","ND","0","ND"],
    [80575,"2019-07-16T02:00:00","43.8","ND","ND","ND","2.7","2","ND","ND","ND","ND","0","ND"],
    [80576,"2019-07-16T03:00:00","49.7","ND","ND","ND","3.9","1.9","ND","ND","ND","ND","ND","0"],
    [80577,"2019-07-16T04:00:00","36.7","ND","ND","ND","1.9","2.5","ND","ND","ND","ND","ND","0"],
    [80578,"2019-07-16T05:00:00","36","ND","ND","ND","1.6","1.5","ND","ND","ND","ND","ND","0"],
    [80579,"2019-07-16T06:00:00","26.6","ND","ND","ND","1.9","6.4","ND","ND","ND","ND","ND","ND"],
    [80580,"2019-07-16T07:00:00","60.2","ND","ND","ND","1.9","3.6","ND","ND","ND","ND","ND","0"],
    [80581,"2019-07-16T08:00:00","58.2","ND","ND","ND","2.8","6.7","ND","ND","ND","ND","ND","0"],
    [80582,"2019-07-16T09:00:00","92.9","ND","ND","ND","4.5","9.5","ND","ND","ND","ND","ND","0"],
    [80583,"2019-07-16T10:00:00","101.2","ND","ND","ND","7.2","4.3","ND","ND","ND","ND","ND","0"],
    [80584,"2019-07-16T11:00:00","59","ND","ND","ND","10.5","1.8","ND","ND","ND","ND","ND","0"],
    [80585,"2019-07-16T12:00:00","35","ND","ND","ND","27.9","1.1","ND","ND","ND","ND","ND","0"],
    [80586,"2019-07-16T13:00:00","26","ND","ND","ND","44","1.7","ND","ND","ND","ND","ND","0"],
    [80587,"2019-07-16T14:00:00","19.2","ND","ND","ND","46","0.6","ND","ND","ND","ND","ND","0.7"],
    [80588,"2019-07-16T15:00:00","13.9","ND","ND","ND","52.2","0.6","ND","ND","ND","ND","ND","0.1"],
    [80589,"2019-07-16T16:00:00","21.9","ND","ND","ND","59.2","0.9","ND","ND","ND","ND","665","ND"],
    [80590,"2019-07-16T17:00:00","23","ND","ND","ND","54.5","0.8","ND","ND","ND","ND","ND","0.1"],
    [80591,"2019-07-16T18:00:00","21.6","ND","ND","ND","49","0.8","ND","ND","ND","ND","ND","0"],
    [80592,"2019-07-16T19:00:00","23.9","ND","ND","ND","23.8","1.6","ND","ND","ND","ND","0","ND"],
    [80593,"2019-07-16T20:00:00","12.3","ND","ND","ND","9","0.7","ND","ND","ND","ND","19","ND"],
    [80594,"2019-07-16T21:00:00","37.7","ND","ND","ND","3.5","0.5","ND","ND","ND","ND","ND","ND"],
    [80595,"2019-07-16T22:00:00","50.5","ND","ND","ND","2.2","1.6","ND","ND","ND","ND","0","ND"],
    [80596,"2019-07-16T23:00:00","53.8","ND","ND","ND","1.7","1.3","ND","ND","ND","ND","0","ND"],
    [80597,"2019-07-17T00:00:00","41.2","ND","ND","ND","1.5","2.3","ND","ND","ND","ND","ND","0"],
    [80598,"2019-07-17T01:00:00","30.3","ND","ND","ND","1.4","2","ND","ND","ND","ND","ND","0"],
    [80599,"2019-07-17T02:00:00","37","ND","ND","ND","1.8","1.8","ND","ND","ND","ND","ND","8.6"],
    [80600,"2019-07-17T03:00:00","42","ND","ND","ND","3.3","1.2","ND","ND","ND","ND","ND","0"],
    [80601,"2019-07-17T04:00:00","52.8","ND","ND","ND","1.9","4.2","ND","ND","ND","ND","ND","0"],
    [80602,"2019-07-17T05:00:00","52.9","ND","ND","ND","1.7","4.7","ND","ND","ND","ND","ND","0"],
    [80603,"2019-07-17T06:00:00","51.8","ND","ND","ND","1.6","4.4","ND","ND","ND","ND","0","0"],
    [80604,"2019-07-17T07:00:00","36.5","ND","ND","ND","1.9","3","ND","ND","ND","ND","0","0"],
    [80605,"2019-07-17T08:00:00","87.3","ND","ND","ND","4.6","3.6","ND","ND","ND","ND","56","0"],
    [80606,"2019-07-17T09:00:00","129.6","ND","ND","ND","ND","5.4","ND","ND","ND","ND","ND","0"],
    [80607,"2019-07-17T10:00:00","100.1","ND","ND","ND","110","9","ND","ND","ND","ND","ND","0"],
    [80608,"2019-07-17T11:00:00","61.2","ND","ND","ND","51.5","2.8","ND","ND","ND","ND","ND","0"],
    [80609,"2019-07-17T12:00:00","40.6","ND","ND","ND","99.9","1.2","ND","ND","ND","ND","ND","0"],
    [80610,"2019-07-17T13:00:00","47.8","ND","ND","ND","108.4","1.6","ND","ND","ND","ND","667","ND"],
    [80611,"2019-07-17T14:00:00","35.7","ND","ND","ND","103.2","0.7","ND","ND","ND","ND","667","0"],
    [80612,"2019-07-17T15:00:00","31","ND","ND","ND","117.4","0.6","ND","ND","ND","ND","666","ND"],
    [80613,"2019-07-17T16:00:00","39.1","ND","ND","ND","101.4","0.4","ND","ND","ND","ND","666","ND"],
    [80614,"2019-07-17T17:00:00","34.1","ND","ND","ND","61.1","0.5","ND","ND","ND","ND","624","0"],
    [80615,"2019-07-17T18:00:00","29.8","ND","ND","ND","46.7","0.5","ND","ND","ND","ND","607","0"],
    [80616,"2019-07-17T19:00:00","15.8","ND","ND","ND","28.1","0.8","ND","ND","ND","ND","0","0"],
    [80617,"2019-07-17T20:00:00","22.6","ND","ND","ND","5.3","0.9","ND","ND","ND","ND","0","0.8"],
    [80618,"2019-07-17T21:00:00","47.5","ND","ND","ND","1.8","3.1","ND","ND","ND","ND","0","0.2"],
    [80619,"2019-07-17T22:00:00","45.5","ND","ND","ND","1.6","5.8","ND","ND","ND","ND","0","ND"],
    [80620,"2019-07-17T23:00:00","28.3","ND","ND","ND","1.5","3.3","ND","ND","ND","ND","0","ND"],
    [80621,"2019-07-18T00:00:00","24.9","ND","ND","ND","1.6","3","ND","ND","ND","ND","0","ND"],
    [80622,"2019-07-18T01:00:00","44.2","ND","ND","ND","1.8","4.7","ND","ND","ND","ND","0","ND"],
    [80623,"2019-07-18T02:00:00","50.3","ND","ND","ND","1.6","2.8","ND","ND","ND","ND","0","ND"],
    [80624,"2019-07-18T03:00:00","69.5","ND","ND","ND","1.6","2.8","ND","ND","ND","ND","0","ND"],
    [80625,"2019-07-18T04:00:00","51.9","ND","ND","ND","1.6","1.9","ND","ND","ND","ND","0","ND"],
    [80626,"2019-07-18T05:00:00","45.5","ND","ND","ND","2","5.2","ND","ND","ND","ND","0","ND"],
    [80627,"2019-07-18T06:00:00","44.1","ND","ND","ND","1.8","3.1","ND","ND","ND","ND","0","0"],
    [80628,"2019-07-18T07:00:00","51","ND","ND","ND","1.6","2.8","ND","ND","ND","ND","0","0"],
    [80629,"2019-07-18T08:00:00","48.4","ND","ND","ND","2.9","2.1","ND","ND","ND","ND","113","ND"],
    [80630,"2019-07-18T09:00:00","40.5","ND","ND","ND","9.2","1.4","ND","ND","ND","ND","361","ND"],
    [80631,"2019-07-18T10:00:00","64.1","ND","ND","ND","31.3","1.8","ND","ND","ND","ND","450","ND"],
    [80632,"2019-07-18T11:00:00","65.7","ND","ND","ND","45.6","1.6","ND","ND","ND","ND","665","ND"],
    [80633,"2019-07-18T12:00:00","54.3","ND","ND","ND","58.5","0.8","ND","ND","ND","ND","665","0"],
    [80634,"2019-07-18T13:00:00","44.7","ND","ND","ND","94.2","1","ND","ND","ND","ND","666","ND"],
    [80635,"2019-07-18T14:00:00","58.7","ND","ND","ND","103.8","1","ND","ND","ND","ND","666","0"],
    [80636,"2019-07-18T15:00:00","43.6","ND","ND","ND","80.6","0.9","ND","ND","ND","ND","662","0"],
    [80637,"2019-07-18T16:00:00","36.4","ND","ND","ND","52.9","0.8","ND","ND","ND","ND","626","0"],
    [80638,"2019-07-18T17:00:00","8.8","ND","ND","ND","38","0.5","ND","ND","ND","ND","663","0"],
    [80639,"2019-07-18T18:00:00","9.8","ND","ND","ND","32.1","0.5","ND","ND","ND","ND","654","0"],
    [80640,"2019-07-18T19:00:00","6.5","ND","ND","ND","21.5","0.6","ND","ND","ND","ND","0","0"],
    [80641,"2019-07-18T20:00:00","8.7","ND","ND","ND","10.8","0.5","ND","ND","ND","ND","0","0.7"],
    [80642,"2019-07-18T21:00:00","26.2","ND","ND","ND","2.4","2.7","ND","ND","ND","ND","0","0.3"],
    [80643,"2019-07-18T22:00:00","32.1","ND","ND","ND","1.9","3.2","ND","ND","ND","ND","0","0.4"],
    [80644,"2019-07-18T23:00:00","8.3","ND","ND","ND","1.6","2.9","ND","ND","ND","ND","0","0"],
    [80645,"2019-07-19T00:00:00","30.7","ND","ND","ND","1.4","3.6","ND","ND","ND","ND","0","ND"],
    [80646,"2019-07-19T01:00:00","41.3","ND","ND","ND","1.9","2.6","ND","ND","ND","ND","0","0"],
    [80647,"2019-07-19T02:00:00","21.7","ND","ND","ND","1.8","6.1","ND","ND","ND","ND","0","0"],
    [80648,"2019-07-19T03:00:00","26.7","ND","ND","ND","4.1","2.8","ND","ND","ND","ND","0","ND"],
    [80649,"2019-07-19T04:00:00","60.5","ND","ND","ND","5.6","2.9","ND","ND","ND","ND","0","0"],
    [80650,"2019-07-19T05:00:00","44.1","ND","ND","ND","2.2","3.8","ND","ND","ND","ND","0","0"],
    [80651,"2019-07-19T06:00:00","37.3","ND","ND","ND","2","3.2","ND","ND","ND","ND","0","0"],
    [80652,"2019-07-19T07:00:00","54.5","ND","ND","ND","1.8","4.1","ND","ND","ND","ND","0","0"],
    [80653,"2019-07-19T08:00:00","73.5","ND","ND","ND","2.9","5.2","ND","ND","ND","ND","108","ND"],
    [80654,"2019-07-19T09:00:00","87.7","ND","ND","ND","4.2","6.7","ND","ND","ND","ND","298","0"],
    [80655,"2019-07-19T10:00:00","103.2","ND","ND","ND","15.8","3","ND","ND","ND","ND","484","0"],
    [80656,"2019-07-19T11:00:00","74.1","ND","ND","ND","40.7","1","ND","ND","ND","ND","652","0"],
    [80657,"2019-07-19T12:00:00","52.9","ND","ND","ND","52.4","1.1","ND","ND","ND","ND","665","0"],
    [80658,"2019-07-19T13:00:00","38.4","ND","ND","ND","65.6","0.8","ND","ND","ND","ND","665","0"],
    [80659,"2019-07-19T14:00:00","18.9","ND","ND","ND","79.8","0.5","ND","ND","ND","ND","665","0"],
    [80660,"2019-07-19T15:00:00","23.4","ND","ND","ND","113","0.9","ND","ND","ND","ND","666","0"],
    [80661,"2019-07-19T16:00:00","35.6","ND","ND","ND","79.2","0.6","ND","ND","ND","ND","654","1.5"],
    [80662,"2019-07-19T17:00:00","35.3","ND","ND","ND","72.4","0.5","ND","ND","ND","ND","639","0"],
    [80663,"2019-07-19T18:00:00","26.3","ND","ND","ND","61.3","0.7","ND","ND","ND","ND","576","0"],
    [80664,"2019-07-19T19:00:00","20.5","ND","ND","ND","48.5","0.9","ND","ND","ND","ND","0","0.2"],
    [80665,"2019-07-19T20:00:00","50.3","ND","ND","ND","29.9","0.6","ND","ND","ND","ND","0","ND"],
    [80666,"2019-07-19T21:00:00","32.2","ND","ND","ND","18","1.3","ND","ND","ND","ND","0","ND"],
    [80667,"2019-07-19T22:00:00","34.8","ND","ND","ND","1.9","5.1","ND","ND","ND","ND","0","0"],
    [80668,"2019-07-19T23:00:00","29.2","ND","ND","ND","1.9","2","ND","ND","ND","ND","0","ND"],
    [80669,"2019-07-20T00:00:00","31","ND","ND","ND","2","6.6","ND","ND","ND","ND","0","0"],
    [80670,"2019-07-20T01:00:00","48.5","ND","ND","ND","1.5","4.4","ND","ND","ND","ND","0","0"],
    [80671,"2019-07-20T02:00:00","59.1","ND","ND","ND","1.6","4","ND","ND","ND","ND","0","ND"],
    [80672,"2019-07-20T03:00:00","48.7","ND","ND","ND","1.8","4.3","ND","ND","ND","ND","0","0"],
    [80673,"2019-07-20T04:00:00","51.4","ND","ND","ND","1.7","6.7","ND","ND","ND","ND","0","3.1"],
    [80674,"2019-07-20T05:00:00","73.1","ND","ND","ND","1.6","5","ND","ND","ND","ND","0","ND"],
    [80675,"2019-07-20T06:00:00","99.9","ND","ND","ND","1.4","4.8","ND","ND","ND","ND","0","ND"],
    [80676,"2019-07-20T07:00:00","75","ND","ND","ND","1.6","4.5","ND","ND","ND","ND","0","0"],
    [80677,"2019-07-20T08:00:00","62.4","ND","ND","ND","2.4","5.9","ND","ND","ND","ND","75","0.4"],
    [80678,"2019-07-20T09:00:00","76","ND","ND","ND","5.7","6.1","ND","ND","ND","ND","243","0"],
    [80679,"2019-07-20T10:00:00","77.8","ND","ND","ND","19.6","2.4","ND","ND","ND","ND","572","0"],
    [80680,"2019-07-20T11:00:00","67.3","ND","ND","ND","43","0.9","ND","ND","ND","ND","663","0"],
    [80681,"2019-07-20T12:00:00","46.8","ND","ND","ND","85.7","0.5","ND","ND","ND","ND","665","0"],
    [80682,"2019-07-20T13:00:00","34","ND","ND","ND","97.4","0.5","ND","ND","ND","ND","666","0"],
    [80683,"2019-07-20T14:00:00","34.3","ND","ND","ND","97.5","0.8","ND","ND","ND","ND","665","0"],
    [80684,"2019-07-20T15:00:00","17.6","ND","ND","ND","89.2","0.8","ND","ND","ND","ND","666","0"],
    [80685,"2019-07-20T16:00:00","22.9","ND","ND","ND","87.4","0.6","ND","ND","ND","ND","666","0"],
    [80686,"2019-07-20T17:00:00","23.4","ND","ND","ND","54.3","0.3","ND","ND","ND","ND","628","0"],
    [80687,"2019-07-20T18:00:00","12.9","ND","ND","ND","45.6","0.7","ND","ND","ND","ND","545","0"],
    [80688,"2019-07-20T19:00:00","7.8","ND","ND","ND","40.2","0.8","ND","ND","ND","ND","0","0"],
    [80689,"2019-07-20T20:00:00","24.6","ND","ND","ND","28.9","0.8","ND","ND","ND","ND","0","0"],
    [80690,"2019-07-20T21:00:00","21.4","ND","ND","ND","23.3","1.6","ND","ND","ND","ND","0","ND"],
    [80691,"2019-07-20T22:00:00","19.8","ND","ND","ND","23.9","0.9","ND","ND","ND","ND","0","0"],
    [80692,"2019-07-20T23:00:00","15.1","ND","ND","ND","11.4","1.2","ND","ND","ND","ND","0","0"],
    [80693,"2019-07-21T00:00:00","16.2","ND","ND","ND","6.5","2","ND","ND","ND","ND","0","0"],
    [80694,"2019-07-21T01:00:00","ND","ND","ND","ND","8.9","1.4","ND","ND","ND","ND","0","0"],
    [80695,"2019-07-21T02:00:00","5.3","ND","ND","ND","5.3","3.6","ND","ND","ND","ND","0","0"],
    [80696,"2019-07-21T03:00:00","12.4","ND","ND","ND","3.9","4.5","ND","ND","ND","ND","0","0"],
    [80697,"2019-07-21T04:00:00","25.5","ND","ND","ND","5.5","3.5","ND","ND","ND","ND","0","0"],
    [80698,"2019-07-21T05:00:00","36.2","ND","ND","ND","5.9","2.2","ND","ND","ND","ND","0","0"],
    [80699,"2019-07-21T06:00:00","18.4","ND","ND","ND","2.8","0.9","ND","ND","ND","ND","0","0"],
    [80700,"2019-07-21T07:00:00","8.2","ND","ND","ND","2.5","2.2","ND","ND","ND","ND","0","0"],
    [80701,"2019-07-21T08:00:00","31.5","ND","ND","ND","7","2.1","ND","ND","ND","ND","48","0"],
    [80702,"2019-07-21T09:00:00","36.3","ND","ND","ND","19.3","2.7","ND","ND","ND","ND","307","0"],
    [80703,"2019-07-21T10:00:00","41.5","ND","ND","ND","38.2","2.1","ND","ND","ND","ND","644","0"],
    [80704,"2019-07-21T11:00:00","37.5","ND","ND","ND","61.9","0.9","ND","ND","ND","ND","665","0"],
    [80705,"2019-07-21T12:00:00","36.6","ND","ND","ND","90","0.4","ND","ND","ND","ND","665","0"],
    [80706,"2019-07-21T13:00:00","41.1","ND","ND","ND","106.7","0.5","ND","ND","ND","ND","665","0"],
    [80707,"2019-07-21T14:00:00","40.8","ND","ND","ND","99.4","0.8","ND","ND","ND","ND","665","0"],
    [80708,"2019-07-21T15:00:00","51.7","ND","ND","ND","49.9","0.7","ND","ND","ND","ND","641","0"],
    [80709,"2019-07-21T16:00:00","11.7","ND","ND","ND","43.9","0.4","ND","ND","ND","ND","649","0"],
    [80710,"2019-07-21T17:00:00","4.9","ND","ND","ND","42","0.4","ND","ND","ND","ND","666","0"],
    [80711,"2019-07-21T18:00:00","1.9","ND","ND","ND","41.5","0.4","ND","ND","ND","ND","472","0"],
    [80712,"2019-07-21T19:00:00","0.3","ND","ND","ND","33.4","0.2","ND","ND","ND","ND","0","0"],
    [80713,"2019-07-21T20:00:00","4.6","ND","ND","ND","22.7","0.6","ND","ND","ND","ND","0","0"],
    [80714,"2019-07-21T21:00:00","13.5","ND","ND","ND","10.7","2.9","ND","ND","ND","ND","0","0"],
    [80715,"2019-07-21T22:00:00","20.8","ND","ND","ND","5.1","3.5","ND","ND","ND","ND","0","0"],
    [80716,"2019-07-21T23:00:00","6.3","ND","ND","ND","5.7","1.6","ND","ND","ND","ND","0","0.5"],
    [80717,"2019-07-22T00:00:00","18.4","ND","ND","ND","1.9","1.5","ND","ND","ND","ND","0","0.1"],
    [80718,"2019-07-22T01:00:00","18.8","ND","ND","ND","8.7","2.5","ND","ND","ND","ND","0","0.1"],
    [80719,"2019-07-22T02:00:00","5.6","ND","ND","ND","11.9","4.8","ND","ND","ND","ND","0","0"],
    [80720,"2019-07-22T03:00:00","13","ND","ND","ND","11.9","2.1","ND","ND","ND","ND","0","0"],
    [80721,"2019-07-22T04:00:00","23.1","ND","ND","ND","8.3","2.3","ND","ND","ND","ND","0","0"],
    [80722,"2019-07-22T05:00:00","18.2","ND","ND","ND","2.2","3.2","ND","ND","ND","ND","0","0"],
    [80723,"2019-07-22T06:00:00","44.3","ND","ND","ND","1.4","3.6","ND","ND","ND","ND","0","0"],
    [80724,"2019-07-22T07:00:00","53.7","ND","ND","ND","1.7","4","ND","ND","ND","ND","0","0"],
    [80725,"2019-07-22T08:00:00","53.8","ND","ND","ND","2.4","5.4","ND","ND","ND","ND","41","0"],
    [80726,"2019-07-22T09:00:00","52.8","ND","ND","ND","10.5","3.7","ND","ND","ND","ND","250","0"],
    [80727,"2019-07-22T10:00:00","46.5","ND","ND","ND","22.9","1.9","ND","ND","ND","ND","618","0"],
    [80728,"2019-07-22T11:00:00","60.4","ND","ND","ND","31.8","1.1","ND","ND","ND","ND","658","0"],
    [80729,"2019-07-22T12:00:00","38.8","ND","ND","ND","50.4","0.8","ND","ND","ND","ND","665","0"],
    [80730,"2019-07-22T13:00:00","44","ND","ND","ND","75.8","0.6","ND","ND","ND","ND","664","0"],
    [80731,"2019-07-22T14:00:00","52.7","ND","ND","ND","64.7","0.4","ND","ND","ND","ND","665","0"],
    [80732,"2019-07-22T15:00:00","11.8","ND","ND","ND","35.6","0.3","ND","ND","ND","ND","550","0"],
    [80733,"2019-07-22T16:00:00","21.1","ND","ND","ND","34.8","0.2","ND","ND","ND","ND","316","0"],
    [80734,"2019-07-22T17:00:00","14.1","ND","ND","ND","33.8","0.3","ND","ND","ND","ND","483","0"],
    [80735,"2019-07-22T18:00:00","1.9","ND","ND","ND","24.5","0.2","ND","ND","ND","ND","397","0"],
    [80736,"2019-07-22T19:00:00","1.9","ND","ND","ND","18.9","0.2","ND","ND","ND","ND","0","0"],
    [80737,"2019-07-22T20:00:00","15.3","ND","ND","ND","4.5","0.3","ND","ND","ND","ND","0","0.1"],
    [80738,"2019-07-22T21:00:00","23.5","ND","ND","ND","5.1","0.6","ND","ND","ND","ND","0","0.4"],
    [80739,"2019-07-22T22:00:00","39.1","ND","ND","ND","3.5","2.8","ND","ND","ND","ND","0","0.3"],
    [80740,"2019-07-22T23:00:00","24.2","ND","ND","ND","6.4","1.3","ND","ND","ND","ND","0","0.1"],
    [80741,"2019-07-23T00:00:00","16.8","ND","ND","ND","16.4","0.3","ND","ND","ND","ND","0","0.1"],
    [80742,"2019-07-23T01:00:00","7.7","ND","ND","ND","11.9","2","ND","ND","ND","ND","0","0"],
    [80743,"2019-07-23T02:00:00","22.5","ND","ND","ND","2.6","2.8","ND","ND","ND","ND","0","0"],
    [80744,"2019-07-23T03:00:00","39.2","ND","ND","ND","5.2","1.1","ND","ND","ND","ND","0","0"],
    [80745,"2019-07-23T04:00:00","53.9","ND","ND","ND","3.4","0.5","ND","ND","ND","ND","0","0"],
    [80746,"2019-07-23T05:00:00","18.7","ND","ND","ND","2.7","2.3","ND","ND","ND","ND","0","0"],
    [80747,"2019-07-23T06:00:00","16.6","ND","ND","ND","1.3","0.7","ND","ND","ND","ND","0","0"],
    [80748,"2019-07-23T07:00:00","13.6","ND","ND","ND","1.5","1.8","ND","ND","ND","ND","0","0"],
    [80749,"2019-07-23T08:00:00","36.7","ND","ND","ND","1.8","2.4","ND","ND","ND","ND","47","0"],
    [80750,"2019-07-23T09:00:00","31.9","ND","ND","ND","4.2","2.5","ND","ND","ND","ND","96","0.1"],
    [80751,"2019-07-23T10:00:00","34","ND","ND","ND","13.7","0.7","ND","ND","ND","ND","371","0"],
    [80752,"2019-07-23T11:00:00","30.2","ND","ND","ND","19.6","0.8","ND","ND","ND","ND","577","0"],
    [80753,"2019-07-23T12:00:00","29.3","ND","ND","ND","28.5","0.7","ND","ND","ND","ND","545","0"],
    [80754,"2019-07-23T13:00:00","9.2","ND","ND","ND","25.7","0.7","ND","ND","ND","ND","613","0"],
    [80755,"2019-07-23T14:00:00","19.2","ND","ND","ND","19.4","1.3","ND","ND","ND","ND","555","0"],
    [80756,"2019-07-23T15:00:00","65.7","ND","ND","ND","19.3","0.9","ND","ND","ND","ND","665","13.8"],
    [80757,"2019-07-23T16:00:00","14.3","ND","ND","ND","21.2","0.3","ND","ND","ND","ND","657","0.4"],
    [80758,"2019-07-23T17:00:00","ND","ND","ND","ND","21.9","0.3","ND","ND","ND","ND","665","0"],
    [80759,"2019-07-23T18:00:00","0.1","ND","ND","ND","13","0.2","ND","ND","ND","ND","498","0"],
    [80760,"2019-07-23T19:00:00","ND","ND","ND","ND","11.4","0.2","ND","ND","ND","ND","0","0"],
    [80761,"2019-07-23T20:00:00","23.8","ND","ND","ND","3.6","0.5","ND","ND","ND","ND","0","0"],
    [80762,"2019-07-23T21:00:00","26.2","ND","ND","ND","4.4","0.6","ND","ND","ND","ND","0","0"],
    [80763,"2019-07-23T22:00:00","14.7","ND","ND","ND","12.7","0.5","ND","ND","ND","ND","0","0"],
    [80764,"2019-07-23T23:00:00","11.9","ND","ND","ND","9.8","0.7","ND","ND","ND","ND","0","0"],
    [80765,"2019-07-24T00:00:00","11.9","ND","ND","ND","5.9","0.5","ND","ND","ND","ND","0","0"],
    [80766,"2019-07-24T01:00:00","19.8","ND","ND","ND","3.1","2.9","ND","ND","ND","ND","0","0"],
    [80767,"2019-07-24T02:00:00","48.8","ND","ND","ND","2.3","2.1","ND","ND","ND","ND","0","0"],
    [80768,"2019-07-24T03:00:00","82.9","ND","ND","ND","1.5","2.1","ND","ND","ND","ND","0","0"],
    [80769,"2019-07-24T04:00:00","52.7","ND","ND","ND","1.8","9","ND","ND","ND","ND","0","0"],
    [80770,"2019-07-24T05:00:00","47.4","ND","ND","ND","2.7","6.7","ND","ND","ND","ND","0","0"],
    [80771,"2019-07-24T06:00:00","96.1","ND","ND","ND","3.9","5","ND","ND","ND","ND","0","0"],
    [80772,"2019-07-24T07:00:00","75.7","ND","ND","ND","2.8","4.6","ND","ND","ND","ND","0","0"],
    [80773,"2019-07-24T08:00:00","21.3","ND","ND","ND","4","5.8","ND","ND","ND","ND","64","0"],
    [80774,"2019-07-24T09:00:00","59.4","ND","ND","ND","7.3","4.8","ND","ND","ND","ND","280","0"],
    [80775,"2019-07-24T10:00:00","61.5","ND","ND","ND","26.3","1.3","ND","ND","ND","ND","627","0"],
    [80776,"2019-07-24T11:00:00","42.9","ND","ND","ND","38.2","0.9","ND","ND","ND","ND","624","0"],
    [80777,"2019-07-24T12:00:00","26","ND","ND","ND","61.7","0.9","ND","ND","ND","ND","657","0"],
    [80778,"2019-07-24T13:00:00","26.4","ND","ND","ND","86.6","0.5","ND","ND","ND","ND","614","0"],
    [80779,"2019-07-24T14:00:00","31","ND","ND","ND","75.8","0.5","ND","ND","ND","ND","661","0"],
    [80780,"2019-07-24T15:00:00","37.7","ND","ND","ND","45.8","0.3","ND","ND","ND","ND","636","0"],
    [80781,"2019-07-24T16:00:00","42.5","ND","ND","ND","35.3","0.2","ND","ND","ND","ND","586","0"],
    [80782,"2019-07-24T17:00:00","18.9","ND","ND","ND","33.2","0.4","ND","ND","ND","ND","583","0"],
    [80783,"2019-07-24T18:00:00","28","ND","ND","ND","24","0.3","ND","ND","ND","ND","524","0"],
    [80784,"2019-07-24T19:00:00","7.8","ND","ND","ND","16.1","0.2","ND","ND","ND","ND","0","0"],
    [80785,"2019-07-24T20:00:00","6.8","ND","ND","ND","5.2","0.5","ND","ND","ND","ND","0","0"],
    [80786,"2019-07-24T21:00:00","23.6","ND","ND","ND","2","0.8","ND","ND","ND","ND","0","0"],
    [80787,"2019-07-24T22:00:00","22.9","ND","ND","ND","1.6","2","ND","ND","ND","ND","0","0"],
    [80788,"2019-07-24T23:00:00","24.9","ND","ND","ND","1.3","2.1","ND","ND","ND","ND","0","0"],
    [80789,"2019-07-25T00:00:00","17.3","ND","ND","ND","1.2","4.2","ND","ND","ND","ND","0","0"],
    [80790,"2019-07-25T01:00:00","ND","ND","ND","ND","1.8","3.9","ND","ND","ND","ND","0","0"],
    [80791,"2019-07-25T02:00:00","9.5","ND","ND","ND","3","1.9","ND","ND","ND","ND","0","0"],
    [80792,"2019-07-25T03:00:00","43.6","ND","ND","ND","2.9","1.7","ND","ND","ND","ND","0","0.4"],
    [80793,"2019-07-25T04:00:00","32.8","ND","ND","ND","1.5","2.6","ND","ND","ND","ND","0","0.2"],
    [80794,"2019-07-25T05:00:00","56.7","ND","ND","ND","1.5","1.3","ND","ND","ND","ND","0","0"],
    [80795,"2019-07-25T06:00:00","63.2","ND","ND","ND","1.5","2","ND","ND","ND","ND","0","0.8"],
    [80796,"2019-07-25T07:00:00","47.4","ND","ND","ND","2.5","8.3","ND","ND","ND","ND","0","0.4"],
    [80797,"2019-07-25T08:00:00","49","ND","ND","ND","3","9.1","ND","ND","ND","ND","78","0"],
    [80798,"2019-07-25T09:00:00","43.7","ND","ND","ND","4.3","3.8","ND","ND","ND","ND","227","0"],
    [80799,"2019-07-25T10:00:00","61.6","ND","ND","ND","16.1","1.6","ND","ND","ND","ND","466","ND"],
    [80800,"2019-07-25T11:00:00","17.3","ND","ND","ND","31.6","1.1","ND","ND","ND","ND","664","ND"],
    [80801,"2019-07-25T12:00:00","37.4","ND","ND","ND","47.3","0.7","ND","ND","ND","ND","649","ND"],
    [80802,"2019-07-25T13:00:00","45","ND","ND","ND","71.2","0.7","ND","ND","ND","ND","624","ND"],
    [80803,"2019-07-25T14:00:00","15.2","ND","ND","ND","61.2","0.6","ND","ND","ND","ND","654","ND"],
    [80804,"2019-07-25T15:00:00","36.5","ND","ND","ND","35","0.8","ND","ND","ND","ND","456","ND"],
    [80805,"2019-07-25T16:00:00","56.7","ND","ND","ND","34.5","0.3","ND","ND","ND","ND","644","ND"],
    [80806,"2019-07-25T17:00:00","28","ND","ND","ND","30.8","0.5","ND","ND","ND","ND","600","ND"],
    [80807,"2019-07-25T18:00:00","6.9","ND","ND","ND","27.5","2.4","ND","ND","ND","ND","446","ND"],
    [80808,"2019-07-25T19:00:00","22.6","ND","ND","ND","15.3","1.1","ND","ND","ND","ND","0","ND"],
    [80809,"2019-07-25T20:00:00","34","ND","ND","ND","3.4","1.2","ND","ND","ND","ND","0","ND"],
    [80810,"2019-07-25T21:00:00","32.8","ND","ND","ND","12.6","2.2","ND","ND","ND","ND","0","ND"],
    [80811,"2019-07-25T22:00:00","0.6","ND","ND","ND","5.6","2.2","ND","ND","ND","ND","0","ND"],
    [80812,"2019-07-25T23:00:00","15.4","ND","ND","ND","1.1","3.6","ND","ND","ND","ND","0","ND"],
    [80813,"2019-07-26T00:00:00","29.5","ND","ND","ND","1.2","2","ND","ND","ND","ND","0","ND"],
    [80814,"2019-07-26T01:00:00","28.2","ND","ND","ND","2.1","1","ND","ND","ND","ND","0","0"],
    [80815,"2019-07-26T02:00:00","18","ND","ND","ND","2","0.4","ND","ND","ND","ND","0","0"],
    [80816,"2019-07-26T03:00:00","23.1","ND","ND","ND","1.2","0.9","ND","ND","ND","ND","0","0"],
    [80817,"2019-07-26T04:00:00","27.4","ND","ND","ND","1.2","2.9","ND","ND","ND","ND","0","0"],
    [80818,"2019-07-26T05:00:00","8.6","ND","ND","ND","1.3","4.4","ND","ND","ND","ND","0","0"],
    [80819,"2019-07-26T06:00:00","19.3","ND","ND","ND","1.3","1.7","ND","ND","ND","ND","0","0"],
    [80820,"2019-07-26T07:00:00","34.7","ND","ND","ND","1.5","1.6","ND","ND","ND","ND","0","0"],
    [80821,"2019-07-26T08:00:00","48.5","ND","ND","ND","1.7","4.9","ND","ND","ND","ND","62","0"],
    [80822,"2019-07-26T09:00:00","86.8","ND","ND","ND","3","1.6","ND","ND","ND","ND","338","0"],
    [80823,"2019-07-26T10:00:00","62.3","ND","ND","ND","15.9","0.9","ND","ND","ND","ND","512","0"],
    [80824,"2019-07-26T11:00:00","28","ND","ND","ND","38.8","0.7","ND","ND","ND","ND","601","0"],
    [80825,"2019-07-26T12:00:00","28","ND","ND","ND","69.4","0.3","ND","ND","ND","ND","665","0"],
    [80826,"2019-07-26T13:00:00","4.4","ND","ND","ND","68.4","0.8","ND","ND","ND","ND","622","0"],
    [80827,"2019-07-26T14:00:00","54.2","ND","ND","ND","68.5","0.6","ND","ND","ND","ND","648","0"],
    [80828,"2019-07-26T15:00:00","25.1","ND","ND","ND","59.4","0.7","ND","ND","ND","ND","665","0"],
    [80829,"2019-07-26T16:00:00","17.9","ND","ND","ND","76.5","0.4","ND","ND","ND","ND","665","0"],
    [80830,"2019-07-26T17:00:00","24.8","ND","ND","ND","54.8","0.3","ND","ND","ND","ND","647","0"],
    [80831,"2019-07-26T18:00:00","34.2","ND","ND","ND","26.3","0.3","ND","ND","ND","ND","426","0"],
    [80832,"2019-07-26T19:00:00","5","ND","ND","ND","16.6","0.1","ND","ND","ND","ND","0","0"],
    [80833,"2019-07-26T20:00:00","3.6","ND","ND","ND","11.2","0.2","ND","ND","ND","ND","0","0.1"],
    [80834,"2019-07-26T21:00:00","32.7","ND","ND","ND","2.2","1.1","ND","ND","ND","ND","0","5"],
    [80835,"2019-07-26T22:00:00","5.2","ND","ND","ND","5.1","2","ND","ND","ND","ND","0","3.9"],
    [80836,"2019-07-26T23:00:00","28.7","ND","ND","ND","9.9","1.9","ND","ND","ND","ND","0","0.1"],
    [80837,"2019-07-27T00:00:00","31.2","ND","ND","ND","4.6","2.2","ND","ND","ND","ND","0","0"],
    [80838,"2019-07-27T01:00:00","38.2","ND","ND","ND","2.1","3.5","ND","ND","ND","ND","0","0"],
    [80839,"2019-07-27T02:00:00","8.7","ND","ND","ND","2.2","2.7","ND","ND","ND","ND","0","ND"],
    [80840,"2019-07-27T03:00:00","9.7","ND","ND","ND","2.8","3","ND","ND","ND","ND","0","0"],
    [80841,"2019-07-27T04:00:00","9.6","ND","ND","ND","2.4","0.7","ND","ND","ND","ND","0","2.9"],
    [80842,"2019-07-27T05:00:00","12.9","ND","ND","ND","1.8","3.2","ND","ND","ND","ND","0","3.4"],
    [80843,"2019-07-27T06:00:00","23","ND","ND","ND","1.3","3.5","ND","ND","ND","ND","0","0.6"],
    [80844,"2019-07-27T07:00:00","21.2","ND","ND","ND","1.6","2.3","ND","ND","ND","ND","0","0.1"],
    [80845,"2019-07-27T08:00:00","60.4","ND","ND","ND","2","2.3","ND","ND","ND","ND","41","0"],
    [80846,"2019-07-27T09:00:00","36.7","ND","ND","ND","5.7","2","ND","ND","ND","ND","214","0"],
    [80847,"2019-07-27T10:00:00","34","ND","ND","ND","18.7","0.9","ND","ND","ND","ND","387","0"],
    [80848,"2019-07-27T11:00:00","14.9","ND","ND","ND","38.4","0.9","ND","ND","ND","ND","664","0"],
    [80849,"2019-07-27T12:00:00","37","ND","ND","ND","60.8","0.3","ND","ND","ND","ND","663","0"],
    [80850,"2019-07-27T13:00:00","14.5","ND","ND","ND","88.4","0.4","ND","ND","ND","ND","665","0"],
    [80851,"2019-07-27T14:00:00","54.9","ND","ND","ND","100.6","0.2","ND","ND","ND","ND","665","0"],
    [80852,"2019-07-27T15:00:00","86.8","ND","ND","ND","90.3","0.2","ND","ND","ND","ND","613","0"],
    [80853,"2019-07-27T16:00:00","11.4","ND","ND","ND","73.9","0.5","ND","ND","ND","ND","649","ND"],
    [80854,"2019-07-27T17:00:00","13.9","ND","ND","ND","50.7","0.3","ND","ND","ND","ND","618","0"],
    [80855,"2019-07-27T18:00:00","47.7","ND","ND","ND","50.2","0.3","ND","ND","ND","ND","471","0"],
    [80856,"2019-07-27T19:00:00","5.9","ND","ND","ND","37.7","0.2","ND","ND","ND","ND","0","0"],
    [80857,"2019-07-27T20:00:00","3.2","ND","ND","ND","25.1","0.6","ND","ND","ND","ND","0","0"],
    [80858,"2019-07-27T21:00:00","36.4","ND","ND","ND","11.3","0.4","ND","ND","ND","ND","0","0"],
    [80859,"2019-07-27T22:00:00","62","ND","ND","ND","3.6","2.3","ND","ND","ND","ND","0","0"],
    [80860,"2019-07-27T23:00:00","39.2","ND","ND","ND","1.7","2.1","ND","ND","ND","ND","0","0"],
    [80861,"2019-07-28T00:00:00","36.9","ND","ND","ND","1.4","1.3","ND","ND","ND","ND","0","0"],
    [80862,"2019-07-28T01:00:00","43.8","ND","ND","ND","1.4","0.9","ND","ND","ND","ND","0","0"],
    [80863,"2019-07-28T02:00:00","29.7","ND","ND","ND","2.7","0.9","ND","ND","ND","ND","0","0"],
    [80864,"2019-07-28T03:00:00","27.5","ND","ND","ND","3.8","2.3","ND","ND","ND","ND","0","ND"],
    [80865,"2019-07-28T04:00:00","29.2","ND","ND","ND","2.1","2.4","ND","ND","ND","ND","0","ND"],
    [80866,"2019-07-28T05:00:00","25.8","ND","ND","ND","1.9","1.4","ND","ND","ND","ND","0","ND"],
    [80867,"2019-07-28T06:00:00","29.5","ND","ND","ND","1.9","0.8","ND","ND","ND","ND","0","ND"],
    [80868,"2019-07-28T07:00:00","37.1","ND","ND","ND","4.3","0.9","ND","ND","ND","ND","0","ND"],
    [80869,"2019-07-28T08:00:00","28.1","ND","ND","ND","16.6","0.8","ND","ND","ND","ND","48","0"],
    [80870,"2019-07-28T09:00:00","31.6","ND","ND","ND","28.1","0.4","ND","ND","ND","ND","215","0"],
    [80871,"2019-07-28T10:00:00","45.6","ND","ND","ND","42.9","0.7","ND","ND","ND","ND","266","0"],
    [80872,"2019-07-28T11:00:00","41.1","ND","ND","ND","59.4","0.4","ND","ND","ND","ND","595","0"],
    [80873,"2019-07-28T12:00:00","28.5","ND","ND","ND","58.3","0.5","ND","ND","ND","ND","607","0"],
    [80874,"2019-07-28T13:00:00","25.3","ND","ND","ND","68.1","0.3","ND","ND","ND","ND","665","0"],
    [80875,"2019-07-28T14:00:00","22.5","ND","ND","ND","79.2","0.4","ND","ND","ND","ND","665","0"],
    [80876,"2019-07-28T15:00:00","34.8","ND","ND","ND","83.9","0.3","ND","ND","ND","ND","665","0"],
    [80877,"2019-07-28T16:00:00","50.8","ND","ND","ND","68.4","0.7","ND","ND","ND","ND","661","0"],
    [80878,"2019-07-28T17:00:00","45.3","ND","ND","ND","59.2","0.5","ND","ND","ND","ND","658","0"],
    [80879,"2019-07-28T18:00:00","14.4","ND","ND","ND","37.7","0.2","ND","ND","ND","ND","665","0"],
    [80880,"2019-07-28T19:00:00","5.4","ND","ND","ND","29.4","0.2","ND","ND","ND","ND","0","0.1"],
    [80881,"2019-07-28T20:00:00","3.6","ND","ND","ND","21.2","0.2","ND","ND","ND","ND","0","0"],
    [80882,"2019-07-28T21:00:00","12.9","ND","ND","ND","12.2","0.8","ND","ND","ND","ND","0","0"],
    [80883,"2019-07-28T22:00:00","5.2","ND","ND","ND","5.7","0.9","ND","ND","ND","ND","0","0"],
    [80884,"2019-07-28T23:00:00","13","ND","ND","ND","1.7","1.1","ND","ND","ND","ND","0","0"],
    [80885,"2019-07-29T00:00:00","30.3","ND","ND","ND","1.5","2.3","ND","ND","ND","ND","0","19.3"],
    [80886,"2019-07-29T01:00:00","32.2","ND","ND","ND","2.9","2.1","ND","ND","ND","ND","0","0"],
    [80887,"2019-07-29T02:00:00","40.2","ND","ND","ND","2","3","ND","ND","ND","ND","0","0"],
    [80888,"2019-07-29T03:00:00","56.2","ND","ND","ND","2","3.2","ND","ND","ND","ND","0","0"],
    [80889,"2019-07-29T04:00:00","25.2","ND","ND","ND","7.5","2","ND","ND","ND","ND","0","0"],
    [80890,"2019-07-29T05:00:00","21.7","ND","ND","ND","1.4","4.4","ND","ND","ND","ND","0","ND"],
    [80891,"2019-07-29T06:00:00","11.7","ND","ND","ND","1.3","2.3","ND","ND","ND","ND","0","0"],
    [80892,"2019-07-29T07:00:00","15.2","ND","ND","ND","1.5","2.4","ND","ND","ND","ND","0","0"],
    [80893,"2019-07-29T08:00:00","58.6","ND","ND","ND","2.7","3","ND","ND","ND","ND","68","ND"],
    [80894,"2019-07-29T09:00:00","42.4","ND","ND","ND","11.6","2.2","ND","ND","ND","ND","247","0"],
    [80895,"2019-07-29T10:00:00","50.7","ND","ND","ND","35.3","0.7","ND","ND","ND","ND","471","ND"],
    [80896,"2019-07-29T11:00:00","109.7","ND","ND","ND","56.4","0.2","ND","ND","ND","ND","664","ND"],
    [80897,"2019-07-29T12:00:00","62.2","ND","ND","ND","80.8","0.4","ND","ND","ND","ND","640","0"],
    [80898,"2019-07-29T13:00:00","28.3","ND","ND","ND","108.5","0.3","ND","ND","ND","ND","665","0"],
    [80899,"2019-07-29T14:00:00","30.2","ND","ND","ND","103","0.8","ND","ND","ND","ND","665","ND"],
    [80900,"2019-07-29T15:00:00","46.2","ND","ND","ND","84.8","0.4","ND","ND","ND","ND","635","ND"],
    [80901,"2019-07-29T16:00:00","32","ND","ND","ND","40.2","0.2","ND","ND","ND","ND","624","0"],
    [80902,"2019-07-29T17:00:00","24.5","ND","ND","ND","42.5","0.3","ND","ND","ND","ND","631","ND"],
    [80903,"2019-07-29T18:00:00","14.3","ND","ND","ND","36.2","0.3","ND","ND","ND","ND","609","0"],
    [80904,"2019-07-29T19:00:00","12.1","ND","ND","ND","31.2","0.3","ND","ND","ND","ND","0","ND"],
    [80905,"2019-07-29T20:00:00","19.7","ND","ND","ND","17.3","0.2","ND","ND","ND","ND","0","0"],
    [80906,"2019-07-29T21:00:00","34.3","ND","ND","ND","4.1","0.4","ND","ND","ND","ND","0","0"],
    [80907,"2019-07-29T22:00:00","36.6","ND","ND","ND","5.2","3.8","ND","ND","ND","ND","0","ND"],
    [80908,"2019-07-29T23:00:00","55.4","ND","ND","ND","1.6","5","ND","ND","ND","ND","0","0.9"],
    [80909,"2019-07-30T00:00:00","28.1","ND","ND","ND","2","7.3","ND","ND","ND","ND","0","0"],
    [80910,"2019-07-30T01:00:00","1.4","ND","ND","ND","2.2","4.7","ND","ND","ND","ND","0","0"],
    [80911,"2019-07-30T02:00:00","23.6","ND","ND","ND","4","2.5","ND","ND","ND","ND","0","0"],
    [80912,"2019-07-30T03:00:00","30.4","ND","ND","ND","2.7","1.6","ND","ND","ND","ND","ND","0"],
    [80913,"2019-07-30T04:00:00","98.5","ND","ND","ND","3.7","1.8","ND","ND","ND","ND","ND","ND"],
    [80914,"2019-07-30T05:00:00","49.7","ND","ND","ND","3.4","1.1","ND","ND","ND","ND","0","0"],
    [80915,"2019-07-30T06:00:00","44.3","ND","ND","ND","2","1.7","ND","ND","ND","ND","0","0"],
    [80916,"2019-07-30T07:00:00","84.7","ND","ND","ND","1.6","2","ND","ND","ND","ND","0","0"],
    [80917,"2019-07-30T08:00:00","74.8","ND","ND","ND","3.8","4.9","ND","ND","ND","ND","57","0"],
    [80918,"2019-07-30T09:00:00","84.3","ND","ND","ND","11.7","2.1","ND","ND","ND","ND","274","0"],
    [80919,"2019-07-30T10:00:00","54","ND","ND","ND","29.6","0.5","ND","ND","ND","ND","297","0"],
    [80920,"2019-07-30T11:00:00","46.2","ND","ND","ND","59.9","0.3","ND","ND","ND","ND","627","0"],
    [80921,"2019-07-30T12:00:00","41.3","ND","ND","ND","80.3","0.3","ND","ND","ND","ND","665","0"],
    [80922,"2019-07-30T13:00:00","50.6","ND","ND","ND","73.5","0.4","ND","ND","ND","ND","665","0"],
    [80923,"2019-07-30T14:00:00","40.5","ND","ND","ND","100","0.3","ND","ND","ND","ND","665","0"],
    [80924,"2019-07-30T15:00:00","33.3","ND","ND","ND","104.5","0.5","ND","ND","ND","ND","665","0"],
    [80925,"2019-07-30T16:00:00","34.9","ND","ND","ND","95.5","0.6","ND","ND","ND","ND","665","0"],
    [80926,"2019-07-30T17:00:00","26.8","ND","ND","ND","78.1","0.2","ND","ND","ND","ND","655","0"],
    [80927,"2019-07-30T18:00:00","17.8","ND","ND","ND","44","0.2","ND","ND","ND","ND","556","0"],
    [80928,"2019-07-30T19:00:00","4.1","ND","ND","ND","30.5","0.4","ND","ND","ND","ND","0","0"],
    [80929,"2019-07-30T20:00:00","4.3","ND","ND","ND","27.6","0.3","ND","ND","ND","ND","0","0"],
    [80930,"2019-07-30T21:00:00","18","ND","ND","ND","18.9","0.3","ND","ND","ND","ND","0","0"],
    [80931,"2019-07-30T22:00:00","30.7","ND","ND","ND","6.1","0.7","ND","ND","ND","ND","0","1.2"],
    [80932,"2019-07-30T23:00:00","35.6","ND","ND","ND","2.8","2.2","ND","ND","ND","ND","0","0"],
    [80933,"2019-07-31T00:00:00","44.4","ND","ND","ND","3.7","2.8","ND","ND","ND","ND","0","0"],
    [80934,"2019-07-31T01:00:00","68.5","ND","ND","ND","6","2.1","ND","ND","ND","ND","ND","0"],
    [80935,"2019-07-31T02:00:00","67.5","ND","ND","ND","5.9","2.4","ND","ND","ND","ND","ND","0"],
    [80936,"2019-07-31T03:00:00","42.2","ND","ND","ND","2.8","3.3","ND","ND","ND","ND","ND","ND"],
    [80937,"2019-07-31T04:00:00","48.5","ND","ND","ND","2.5","3.9","ND","ND","ND","ND","ND","0"],
    [80938,"2019-07-31T05:00:00","26.4","ND","ND","ND","1.5","4.7","ND","ND","ND","ND","ND","0"],
    [80939,"2019-07-31T06:00:00","82.2","ND","ND","ND","1.3","3.1","ND","ND","ND","ND","0","0"],
    [80940,"2019-07-31T07:00:00","56.8","ND","ND","ND","1.8","3.3","ND","ND","ND","ND","0","0"],
    [80941,"2019-07-31T08:00:00","82.6","ND","ND","ND","3.6","4.3","ND","ND","ND","ND","ND","0"],
    [80942,"2019-07-31T09:00:00","102.8","ND","ND","ND","11.4","2.8","ND","ND","ND","ND","391","0"],
    [80943,"2019-07-31T10:00:00","83.3","ND","ND","ND","28.8","0.8","ND","ND","ND","ND","ND","0"],
    [80944,"2019-07-31T11:00:00","40.9","ND","ND","ND","60.4","0.4","ND","ND","ND","ND","592","0"],
    [80945,"2019-07-31T12:00:00","17.4","ND","ND","ND","85.6","0.6","ND","ND","ND","ND","665","0"],
    [80946,"2019-07-31T13:00:00","21.5","ND","ND","ND","94.9","0.3","ND","ND","ND","ND","ND","0"],
    [80947,"2019-07-31T14:00:00","29","ND","ND","ND","80.5","0.2","ND","ND","ND","ND","665","0"],
    [80948,"2019-07-31T15:00:00","36.9","ND","ND","ND","99.7","0.3","ND","ND","ND","ND","ND","0"],
    [80949,"2019-07-31T16:00:00","24.4","ND","ND","ND","75.5","0.2","ND","ND","ND","ND","ND","0"],
    [80950,"2019-07-31T17:00:00","10.9","ND","ND","ND","58.3","0.3","ND","ND","ND","ND","533","0"],
    [80951,"2019-07-31T18:00:00","19.9","ND","ND","ND","51.7","0.1","ND","ND","ND","ND","653","0"],
    [80952,"2019-07-31T19:00:00","4.2","ND","ND","ND","34.6","0.5","ND","ND","ND","ND","0","0"],
    [80953,"2019-07-31T20:00:00","14.4","ND","ND","ND","29.1","0.4","ND","ND","ND","ND","0","0.1"],
    [80954,"2019-07-31T21:00:00","23.9","ND","ND","ND","17.2","0.6","ND","ND","ND","ND","0","0"],
    [80955,"2019-07-31T22:00:00","40.5","ND","ND","ND","4.8","4.8","ND","ND","ND","ND","0","0"],
    [80956,"2019-07-31T23:00:00","57.5","ND","ND","ND","3.4","3.1","ND","ND","ND","ND","0","ND"],
    [80957,"2019-08-01T00:00:00","5.9","ND","ND","ND","1.9","3.5","ND","ND","ND","ND","0","0"],
    [80958,"2019-08-01T01:00:00","39.2","ND","ND","ND","2.7","1.4","ND","ND","ND","ND","0","0"],
    [80959,"2019-08-01T02:00:00","48.4","ND","ND","ND","6.7","1","ND","ND","ND","ND","0","0"],
    [80960,"2019-08-01T03:00:00","19","ND","ND","ND","2.4","0.9","ND","ND","ND","ND","0","0"],
    [80961,"2019-08-01T04:00:00","14","ND","ND","ND","3","2.6","ND","ND","ND","ND","0","0"],
    [80962,"2019-08-01T05:00:00","84","ND","ND","ND","1.9","2.2","ND","ND","ND","ND","0","1"],
    [80963,"2019-08-01T06:00:00","82.8","ND","ND","ND","1.7","1.5","ND","ND","ND","ND","0","0.3"],
    [80964,"2019-08-01T07:00:00","50.7","ND","ND","ND","2","1.7","ND","ND","ND","ND","1","0.2"],
    [80965,"2019-08-01T08:00:00","115.3","ND","ND","ND","4.7","3.5","ND","ND","ND","ND","109","0"],
    [80966,"2019-08-01T09:00:00","100.4","ND","ND","ND","18","2.6","ND","ND","ND","ND","539","0"],
    [80967,"2019-08-01T10:00:00","74.4","ND","ND","ND","48.5","1.2","ND","ND","ND","ND","233","0"],
    [80968,"2019-08-01T11:00:00","47.3","ND","ND","ND","70.7","0.2","ND","ND","ND","ND","549","0"],
    [80969,"2019-08-01T12:00:00","16","ND","ND","ND","78.2","0.3","ND","ND","ND","ND","665","0"],
    [80970,"2019-08-01T13:00:00","8.5","ND","ND","ND","76.6","0.4","ND","ND","ND","ND","665","0"],
    [80971,"2019-08-01T14:00:00","19.5","ND","ND","ND","97.2","0.2","ND","ND","ND","ND","665","0"],
    [80972,"2019-08-01T15:00:00","39.8","ND","ND","ND","69","0.4","ND","ND","ND","ND","661","0"],
    [80973,"2019-08-01T16:00:00","16.5","ND","ND","ND","54.4","0.3","ND","ND","ND","ND","474","0"],
    [80974,"2019-08-01T17:00:00","17.7","ND","ND","ND","49.8","0.3","ND","ND","ND","ND","419","0"],
    [80975,"2019-08-01T18:00:00","34.6","ND","ND","ND","40.5","0.4","ND","ND","ND","ND","307","0"],
    [80976,"2019-08-01T19:00:00","33.2","ND","ND","ND","36.2","0.4","ND","ND","ND","ND","0","0.1"],
    [80977,"2019-08-01T20:00:00","47.2","ND","ND","ND","9.4","0.3","ND","ND","ND","ND","0","0"],
    [80978,"2019-08-01T21:00:00","64.1","ND","ND","ND","5.4","1.9","ND","ND","ND","ND","0","0.1"],
    [80979,"2019-08-01T22:00:00","38.5","ND","ND","ND","2.1","5","ND","ND","ND","ND","0","0"],
    [80980,"2019-08-01T23:00:00","47.1","ND","ND","ND","1.3","6.8","ND","ND","ND","ND","0","0"],
    [80981,"2019-08-02T00:00:00","41","ND","ND","ND","1.7","1.5","ND","ND","ND","ND","0","0"],
    [80982,"2019-08-02T01:00:00","18","ND","ND","ND","1.3","3.2","ND","ND","ND","ND","0","0"],
    [80983,"2019-08-02T02:00:00","37.2","ND","ND","ND","6.5","2.4","ND","ND","ND","ND","0","3.5"],
    [80984,"2019-08-02T03:00:00","36.1","ND","ND","ND","4.6","1.6","ND","ND","ND","ND","0","2.2"],
    [80985,"2019-08-02T04:00:00","7.4","ND","ND","ND","8.4","1.2","ND","ND","ND","ND","0","0.1"],
    [80986,"2019-08-02T05:00:00","22.6","ND","ND","ND","7.2","0.9","ND","ND","ND","ND","0","0.1"],
    [80987,"2019-08-02T06:00:00","20.5","ND","ND","ND","1.8","1.7","ND","ND","ND","ND","0","0.2"],
    [80988,"2019-08-02T07:00:00","47.8","ND","ND","ND","1.7","2.9","ND","ND","ND","ND","0","0"],
    [80989,"2019-08-02T08:00:00","87.1","ND","ND","ND","3.4","2.7","ND","ND","ND","ND","39","0.1"],
    [80990,"2019-08-02T09:00:00","121.1","ND","ND","ND","163.6","5.1","ND","ND","ND","ND","488","0"],
    [80991,"2019-08-02T10:00:00","66.8","ND","ND","ND","32.9","0.3","ND","ND","ND","ND","490","0"],
    [80992,"2019-08-02T11:00:00","21.5","ND","ND","ND","57","0.6","ND","ND","ND","ND","574","0"],
    [80993,"2019-08-02T12:00:00","24.1","ND","ND","ND","82.1","0.3","ND","ND","ND","ND","658","0"],
    [80994,"2019-08-02T13:00:00","26.6","ND","ND","ND","107.3","0.3","ND","ND","ND","ND","647","0"],
    [80995,"2019-08-02T14:00:00","24.1","ND","ND","ND","94.6","0.3","ND","ND","ND","ND","665","0"],
    [80996,"2019-08-02T15:00:00","7.9","ND","ND","ND","66.6","0.4","ND","ND","ND","ND","546","0"],
    [80997,"2019-08-02T16:00:00","15.2","ND","ND","ND","59.7","0.3","ND","ND","ND","ND","665","0"],
    [80998,"2019-08-02T17:00:00","38","ND","ND","ND","40.3","0.2","ND","ND","ND","ND","ND","0"],
    [80999,"2019-08-02T18:00:00","37.5","ND","ND","ND","32","0.2","ND","ND","ND","ND","554","0"],
    [81000,"2019-08-02T19:00:00","23.7","ND","ND","ND","21.6","0.1","ND","ND","ND","ND","0","0"],
    [81001,"2019-08-02T20:00:00","43.3","ND","ND","ND","11.9","0.6","ND","ND","ND","ND","0","0.1"],
    [81002,"2019-08-02T21:00:00","48.2","ND","ND","ND","6.5","0.4","ND","ND","ND","ND","0","0"],
    [81003,"2019-08-02T22:00:00","61.2","ND","ND","ND","2.4","1.6","ND","ND","ND","ND","0","0"],
    [81004,"2019-08-02T23:00:00","37.1","ND","ND","ND","7.2","3.4","ND","ND","ND","ND","0","0"],
    [81005,"2019-08-03T00:00:00","19","ND","ND","ND","3.9","1.1","ND","ND","ND","ND","0","0.1"],
    [81006,"2019-08-03T01:00:00","19.8","ND","ND","ND","1.7","1.9","ND","ND","ND","ND","0","0.1"],
    [81007,"2019-08-03T02:00:00","13.9","ND","ND","ND","1.8","2.1","ND","ND","ND","ND","0","0"],
    [81008,"2019-08-03T03:00:00","11.1","ND","ND","ND","3.9","1.1","ND","ND","ND","ND","0","0"],
    [81009,"2019-08-03T04:00:00","19.2","ND","ND","ND","4","2","ND","ND","ND","ND","ND","0"],
    [81010,"2019-08-03T05:00:00","35.6","ND","ND","ND","1.6","2.3","ND","ND","ND","ND","0","0"],
    [81011,"2019-08-03T06:00:00","34.7","ND","ND","ND","1.6","2.2","ND","ND","ND","ND","0","0"],
    [81012,"2019-08-03T07:00:00","73.7","ND","ND","ND","2","3.3","ND","ND","ND","ND","0","0"],
    [81013,"2019-08-03T08:00:00","78.9","ND","ND","ND","2.4","4","ND","ND","ND","ND","57","0"],
    [81014,"2019-08-03T09:00:00","90.6","ND","ND","ND","5.3","2.9","ND","ND","ND","ND","240","0"],
    [81015,"2019-08-03T10:00:00","63.9","ND","ND","ND","16.7","1.1","ND","ND","ND","ND","623","0"],
    [81016,"2019-08-03T11:00:00","43.3","ND","ND","ND","25.6","0.7","ND","ND","ND","ND","665","0"],
    [81017,"2019-08-03T12:00:00","54.5","ND","ND","ND","38.3","0.9","ND","ND","ND","ND","665","0"],
    [81018,"2019-08-03T13:00:00","48.6","ND","ND","ND","58","0.3","ND","ND","ND","ND","665","0"],
    [81019,"2019-08-03T14:00:00","40.2","ND","ND","ND","61.7","0.7","ND","ND","ND","ND","664","0"],
    [81020,"2019-08-03T15:00:00","29.4","ND","ND","ND","61.5","0.5","ND","ND","ND","ND","665","0"],
    [81021,"2019-08-03T16:00:00","27.5","ND","ND","ND","38.5","0.3","ND","ND","ND","ND","666","0"],
    [81022,"2019-08-03T17:00:00","9.7","ND","ND","ND","36.7","0.5","ND","ND","ND","ND","497","0"],
    [81023,"2019-08-03T18:00:00","23","ND","ND","ND","36.2","0.2","ND","ND","ND","ND","510","0"],
    [81024,"2019-08-03T19:00:00","10.6","ND","ND","ND","26.4","0.3","ND","ND","ND","ND","0","0"],
    [81025,"2019-08-03T20:00:00","34.3","ND","ND","ND","23.5","0.3","ND","ND","ND","ND","0","0.1"],
    [81026,"2019-08-03T21:00:00","0.6","ND","ND","ND","15.3","0.4","ND","ND","ND","ND","0","0.4"],
    [81027,"2019-08-03T22:00:00","8.6","ND","ND","ND","4.6","2.1","ND","ND","ND","ND","0","0"],
    [81028,"2019-08-03T23:00:00","49","ND","ND","ND","1.7","2.5","ND","ND","ND","ND","0","0"],
    [81029,"2019-08-04T00:00:00","31.5","ND","ND","ND","1.3","1.4","ND","ND","ND","ND","0","0"],
    [81030,"2019-08-04T01:00:00","46.1","ND","ND","ND","2.3","1.5","ND","ND","ND","ND","0","0"],
    [81031,"2019-08-04T02:00:00","62.5","ND","ND","ND","5.5","2.8","ND","ND","ND","ND","0","0"],
    [81032,"2019-08-04T03:00:00","15.8","ND","ND","ND","4","1.3","ND","ND","ND","ND","0","0"],
    [81033,"2019-08-04T04:00:00","22.2","ND","ND","ND","1.8","1","ND","ND","ND","ND","0","0"],
    [81034,"2019-08-04T05:00:00","20.6","ND","ND","ND","1.6","3.4","ND","ND","ND","ND","0","0"],
    [81035,"2019-08-04T06:00:00","17.4","ND","ND","ND","1.5","1.8","ND","ND","ND","ND","0","0"],
    [81036,"2019-08-04T07:00:00","8.5","ND","ND","ND","1.4","0.9","ND","ND","ND","ND","0","0"],
    [81037,"2019-08-04T08:00:00","7.5","ND","ND","ND","1.7","0.7","ND","ND","ND","ND","44","0"],
    [81038,"2019-08-04T09:00:00","30.8","ND","ND","ND","5.4","0.8","ND","ND","ND","ND","235","0"],
    [81039,"2019-08-04T10:00:00","31","ND","ND","ND","23.3","0.5","ND","ND","ND","ND","597","0"],
    [81040,"2019-08-04T11:00:00","41.5","ND","ND","ND","33.1","0.5","ND","ND","ND","ND","658","0"],
    [81041,"2019-08-04T12:00:00","42.2","ND","ND","ND","48.2","0.3","ND","ND","ND","ND","665","0"],
    [81042,"2019-08-04T13:00:00","27.9","ND","ND","ND","58.1","0.5","ND","ND","ND","ND","633","0"],
    [81043,"2019-08-04T14:00:00","46.9","ND","ND","ND","69.2","0.6","ND","ND","ND","ND","665","0"],
    [81044,"2019-08-04T15:00:00","38.3","ND","ND","ND","76.3","0.3","ND","ND","ND","ND","666","0"],
    [81045,"2019-08-04T16:00:00","13.3","ND","ND","ND","66.5","0.2","ND","ND","ND","ND","662","0"],
    [81046,"2019-08-04T17:00:00","14.2","ND","ND","ND","60.2","0.3","ND","ND","ND","ND","666","0"],
    [81047,"2019-08-04T18:00:00","2.8","ND","ND","ND","53.1","0.2","ND","ND","ND","ND","429","0"],
    [81048,"2019-08-04T19:00:00","34.7","ND","ND","ND","31.3","0.5","ND","ND","ND","ND","0","0"],
    [81049,"2019-08-04T20:00:00","47.5","ND","ND","ND","4","0.8","ND","ND","ND","ND","0","0"],
    [81050,"2019-08-04T21:00:00","43.6","ND","ND","ND","2","0.6","ND","ND","ND","ND","0","0"],
    [81051,"2019-08-04T22:00:00","21.6","ND","ND","ND","1.6","0.6","ND","ND","ND","ND","0","0"],
    [81052,"2019-08-04T23:00:00","25.5","ND","ND","ND","1.7","2.1","ND","ND","ND","ND","0","0"],
    [81053,"2019-08-05T00:00:00","27","ND","ND","ND","1.9","1.8","ND","ND","ND","ND","0","0"],
    [81054,"2019-08-05T01:00:00","4","ND","ND","ND","3.3","1.9","ND","ND","ND","ND","0","0"],
    [81055,"2019-08-05T02:00:00","13.8","ND","ND","ND","1.9","0.9","ND","ND","ND","ND","0","0"],
    [81056,"2019-08-05T03:00:00","31.4","ND","ND","ND","2.3","1.7","ND","ND","ND","ND","0","0"],
    [81057,"2019-08-05T04:00:00","31.9","ND","ND","ND","3.3","0.7","ND","ND","ND","ND","0","0"],
    [81058,"2019-08-05T05:00:00","27.9","ND","ND","ND","1.8","0.9","ND","ND","ND","ND","0","0"],
    [81059,"2019-08-05T06:00:00","20","ND","ND","ND","1.4","2.9","ND","ND","ND","ND","0","0"],
    [81060,"2019-08-05T07:00:00","55.4","ND","ND","ND","1.8","1.5","ND","ND","ND","ND","0","0"],
    [81061,"2019-08-05T08:00:00","84.3","ND","ND","ND","2.7","7","ND","ND","ND","ND","84","0"],
    [81062,"2019-08-05T09:00:00","98.8","ND","ND","ND","7.6","4.1","ND","ND","ND","ND","397","0"],
    [81063,"2019-08-05T10:00:00","71.9","ND","ND","ND","28.9","1.2","ND","ND","ND","ND","515","0"],
    [81064,"2019-08-05T11:00:00","42.4","ND","ND","ND","54.2","0.7","ND","ND","ND","ND","415","0"],
    [81065,"2019-08-05T12:00:00","19.6","ND","ND","ND","91","0.3","ND","ND","ND","ND","665","0"],
    [81066,"2019-08-05T13:00:00","23.8","ND","ND","ND","79.5","0.2","ND","ND","ND","ND","665","0"],
    [81067,"2019-08-05T14:00:00","0.7","ND","ND","ND","77","0.1","ND","ND","ND","ND","666","0"],
    [81068,"2019-08-05T15:00:00","11.4","ND","ND","ND","84.3","0.1","ND","ND","ND","ND","666","0"],
    [81069,"2019-08-05T16:00:00","18.9","ND","ND","ND","65.7","0.3","ND","ND","ND","ND","665","0"],
    [81070,"2019-08-05T17:00:00","9.3","ND","ND","ND","52.3","0.3","ND","ND","ND","ND","520","0"],
    [81071,"2019-08-05T18:00:00","38.6","ND","ND","ND","42","0.3","ND","ND","ND","ND","643","0"],
    [81072,"2019-08-05T19:00:00","64.4","ND","ND","ND","30.7","0.3","ND","ND","ND","ND","0","0"],
    [81073,"2019-08-05T20:00:00","17.5","ND","ND","ND","27.1","0.2","ND","ND","ND","ND","0","0"],
    [81074,"2019-08-05T21:00:00","ND","ND","ND","ND","20.5","0.3","ND","ND","ND","ND","0","0"],
    [81075,"2019-08-05T22:00:00","11.1","ND","ND","ND","18.1","0.3","ND","ND","ND","ND","0","0"],
    [81076,"2019-08-05T23:00:00","40.1","ND","ND","ND","4.7","1.4","ND","ND","ND","ND","0","0"],
    [81077,"2019-08-06T00:00:00","35.9","ND","ND","ND","2","0.7","ND","ND","ND","ND","0","0"],
    [81078,"2019-08-06T01:00:00","64.5","ND","ND","ND","1.9","1.3","ND","ND","ND","ND","0","ND"],
    [81079,"2019-08-06T02:00:00","60.9","ND","ND","ND","1.6","1.7","ND","ND","ND","ND","0","ND"],
    [81080,"2019-08-06T03:00:00","10.6","ND","ND","ND","1.8","1.7","ND","ND","ND","ND","0","ND"],
    [81081,"2019-08-06T04:00:00","17.8","ND","ND","ND","4.3","0.5","ND","ND","ND","ND","0","ND"],
    [81082,"2019-08-06T05:00:00","31.8","ND","ND","ND","1.9","3.4","ND","ND","ND","ND","0","ND"],
    [81083,"2019-08-06T06:00:00","63.6","ND","ND","ND","1.7","1.6","ND","ND","ND","ND","0","ND"],
    [81084,"2019-08-06T07:00:00","44.6","ND","ND","ND","2.1","1.4","ND","ND","ND","ND","0","ND"],
    [81085,"2019-08-06T08:00:00","98.1","ND","ND","ND","3.2","5.6","ND","ND","ND","ND","78","ND"],
    [81086,"2019-08-06T09:00:00","108.4","ND","ND","ND","6.8","5.6","ND","ND","ND","ND","356","ND"],
    [81087,"2019-08-06T10:00:00","97.5","ND","ND","ND","14","2.2","ND","ND","ND","ND","654","ND"],
    [81088,"2019-08-06T11:00:00","21.9","ND","ND","ND","30.3","1","ND","ND","ND","ND","665","ND"],
    [81089,"2019-08-06T12:00:00","9.2","ND","ND","ND","48.1","0.8","ND","ND","ND","ND","665","ND"],
    [81090,"2019-08-06T13:00:00","40.3","ND","ND","ND","78.5","0.4","ND","ND","ND","ND","665","ND"],
    [81091,"2019-08-06T14:00:00","37.2","ND","ND","ND","112.7","0.2","ND","ND","ND","ND","666","ND"],
    [81092,"2019-08-06T15:00:00","39.3","ND","ND","ND","122","0.3","ND","ND","ND","ND","666","ND"],
    [81093,"2019-08-06T16:00:00","28","ND","ND","ND","64.4","0.2","ND","ND","ND","ND","659","ND"],
    [81094,"2019-08-06T17:00:00","33","ND","ND","ND","69.3","0.3","ND","ND","ND","ND","540","ND"],
    [81095,"2019-08-06T18:00:00","22.6","ND","ND","ND","49.1","0.2","ND","ND","ND","ND","557","ND"],
    [81096,"2019-08-06T19:00:00","1.1","ND","ND","ND","33.6","0.2","ND","ND","ND","ND","0","ND"],
    [81097,"2019-08-06T20:00:00","15","ND","ND","ND","22","0.2","ND","ND","ND","ND","0","ND"],
    [81098,"2019-08-06T21:00:00","50.7","ND","ND","ND","3.2","0.9","ND","ND","ND","ND","0","ND"],
    [81099,"2019-08-06T22:00:00","54.2","ND","ND","ND","3.9","1","ND","ND","ND","ND","0","ND"],
    [81100,"2019-08-06T23:00:00","17.2","ND","ND","ND","1.5","2.4","ND","ND","ND","ND","0","ND"],
    [81101,"2019-08-07T00:00:00","33.4","ND","ND","ND","2.5","3.8","ND","ND","ND","ND","0","ND"],
    [81102,"2019-08-07T01:00:00","27.7","ND","ND","ND","4.6","1.3","ND","ND","ND","ND","0","0"],
    [81103,"2019-08-07T02:00:00","45.2","ND","ND","ND","5.5","2.7","ND","ND","ND","ND","0","0"],
    [81104,"2019-08-07T03:00:00","20.4","ND","ND","ND","7.3","1","ND","ND","ND","ND","0","0"],
    [81105,"2019-08-07T04:00:00","32.1","ND","ND","ND","9.5","0.9","ND","ND","ND","ND","0","0.3"],
    [81106,"2019-08-07T05:00:00","44.8","ND","ND","ND","8.5","1.9","ND","ND","ND","ND","0","0.1"],
    [81107,"2019-08-07T06:00:00","42","ND","ND","ND","3.7","3.4","ND","ND","ND","ND","0","0"],
    [81108,"2019-08-07T07:00:00","39.4","ND","ND","ND","4.4","2.4","ND","ND","ND","ND","0","0"],
    [81109,"2019-08-07T08:00:00","53.1","ND","ND","ND","5.7","3.1","ND","ND","ND","ND","71","0.2"],
    [81110,"2019-08-07T09:00:00","54","ND","ND","ND","16.7","2.1","ND","ND","ND","ND","334","0.1"],
    [81111,"2019-08-07T10:00:00","47.9","ND","ND","ND","37.5","0.9","ND","ND","ND","ND","645","2"],
    [81112,"2019-08-07T11:00:00","28","ND","ND","ND","57.8","0.4","ND","ND","ND","ND","414","0.1"],
    [81113,"2019-08-07T12:00:00","26.5","ND","ND","ND","75.3","0.4","ND","ND","ND","ND","657","0.2"],
    [81114,"2019-08-07T13:00:00","17.7","ND","ND","ND","86.2","0.1","ND","ND","ND","ND","ND","0.1"],
    [81115,"2019-08-07T14:00:00","14.9","ND","ND","ND","102","0.2","ND","ND","ND","ND","ND","0"],
    [81116,"2019-08-07T15:00:00","5.8","ND","ND","ND","94.5","0","ND","ND","ND","ND","656","0"],
    [81117,"2019-08-07T16:00:00","17.2","ND","ND","ND","60.4","0.2","ND","ND","ND","ND","652","0"],
    [81118,"2019-08-07T17:00:00","14.2","ND","ND","ND","47","0.1","ND","ND","ND","ND","534","0"],
    [81119,"2019-08-07T18:00:00","26.5","ND","ND","ND","42.7","0.2","ND","ND","ND","ND","330","0"],
    [81120,"2019-08-07T19:00:00","18.5","ND","ND","ND","30.3","0.3","ND","ND","ND","ND","0","0.1"],
    [81121,"2019-08-07T20:00:00","22.5","ND","ND","ND","21.9","0.4","ND","ND","ND","ND","0","0"],
    [81122,"2019-08-07T21:00:00","20.4","ND","ND","ND","7.6","0.7","ND","ND","ND","ND","0","0"],
    [81123,"2019-08-07T22:00:00","46.6","ND","ND","ND","2.7","1.8","ND","ND","ND","ND","0","0"],
    [81124,"2019-08-07T23:00:00","16.1","ND","ND","ND","1.7","2.3","ND","ND","ND","ND","0","0"],
    [81125,"2019-08-08T00:00:00","23.7","ND","ND","ND","2.3","1.1","ND","ND","ND","ND","0","0"],
    [81126,"2019-08-08T01:00:00","19.1","ND","ND","ND","2.9","2.1","ND","ND","ND","ND","0","0"],
    [81127,"2019-08-08T02:00:00","19.8","ND","ND","ND","6.3","2.4","ND","ND","ND","ND","0","0"],
    [81128,"2019-08-08T03:00:00","38.8","ND","ND","ND","7.3","3.2","ND","ND","ND","ND","0","0"],
    [81129,"2019-08-08T04:00:00","42.9","ND","ND","ND","8.4","2.5","ND","ND","ND","ND","0","0.7"],
    [81130,"2019-08-08T05:00:00","26.1","ND","ND","ND","9.4","1.3","ND","ND","ND","ND","0","1.5"],
    [81131,"2019-08-08T06:00:00","27.1","ND","ND","ND","4","1.5","ND","ND","ND","ND","0","0.8"],
    [81132,"2019-08-08T07:00:00","58.3","ND","ND","ND","2.2","2.1","ND","ND","ND","ND","0","0.2"],
    [81133,"2019-08-08T08:00:00","68.6","ND","ND","ND","8","2.1","ND","ND","ND","ND","80","0.9"],
    [81134,"2019-08-08T09:00:00","39.5","ND","ND","ND","22.5","1.1","ND","ND","ND","ND","459","0.3"],
    [81135,"2019-08-08T10:00:00","26.8","ND","ND","ND","34.2","0.7","ND","ND","ND","ND","540","0.1"],
    [81136,"2019-08-08T11:00:00","47.9","ND","ND","ND","56.3","0.6","ND","ND","ND","ND","665","0"],
    [81137,"2019-08-08T12:00:00","62.1","ND","ND","ND","73.5","0.4","ND","ND","ND","ND","665","0"],
    [81138,"2019-08-08T13:00:00","45.3","ND","ND","ND","104.4","0.4","ND","ND","ND","ND","666","0"],
    [81139,"2019-08-08T14:00:00","32","ND","ND","ND","87.2","0.3","ND","ND","ND","ND","666","0"],
    [81140,"2019-08-08T15:00:00","33.7","ND","ND","ND","91.2","0.3","ND","ND","ND","ND","665","0"],
    [81141,"2019-08-08T16:00:00","37.8","ND","ND","ND","84.6","0.3","ND","ND","ND","ND","647","0"],
    [81142,"2019-08-08T17:00:00","37.3","ND","ND","ND","77.9","0.5","ND","ND","ND","ND","511","0"],
    [81143,"2019-08-08T18:00:00","44.3","ND","ND","ND","59.4","0.3","ND","ND","ND","ND","374","0.1"],
    [81144,"2019-08-08T19:00:00","32.4","ND","ND","ND","39.5","0.3","ND","ND","ND","ND","0","0"],
    [81145,"2019-08-08T20:00:00","64.5","ND","ND","ND","34.4","0.3","ND","ND","ND","ND","0","0"],
    [81146,"2019-08-08T21:00:00","44.5","ND","ND","ND","21.8","0.3","ND","ND","ND","ND","0","0"],
    [81147,"2019-08-08T22:00:00","10.8","ND","ND","ND","8.6","0.5","ND","ND","ND","ND","0","0"],
    [81148,"2019-08-08T23:00:00","25.5","ND","ND","ND","2.7","2.2","ND","ND","ND","ND","0","0"],
    [81149,"2019-08-09T00:00:00","24.6","ND","ND","ND","4.3","1.8","ND","ND","ND","ND","0","ND"],
    [81150,"2019-08-09T01:00:00","25.8","ND","ND","ND","5.5","1.7","ND","ND","ND","ND","0","19.3"],
    [81151,"2019-08-09T02:00:00","48.7","ND","ND","ND","1.8","3.5","ND","ND","ND","ND","0","0"],
    [81152,"2019-08-09T03:00:00","43.2","ND","ND","ND","3.1","3.5","ND","ND","ND","ND","0","0"],
    [81153,"2019-08-09T04:00:00","27.7","ND","ND","ND","5.4","0.7","ND","ND","ND","ND","0","0.2"],
    [81154,"2019-08-09T05:00:00","17.3","ND","ND","ND","5.3","0.6","ND","ND","ND","ND","0","19.8"],
    [81155,"2019-08-09T06:00:00","104.8","ND","ND","ND","1.9","3.8","ND","ND","ND","ND","0","0.6"],
    [81156,"2019-08-09T07:00:00","132.3","ND","ND","ND","2.1","7.3","ND","ND","ND","ND","0","0.6"],
    [81157,"2019-08-09T08:00:00","94","ND","ND","ND","5.2","3.2","ND","ND","ND","ND","86","0.1"],
    [81158,"2019-08-09T09:00:00","75.8","ND","ND","ND","12.2","1.8","ND","ND","ND","ND","382","0.1"],
    [81159,"2019-08-09T10:00:00","60.5","ND","ND","ND","21.8","1","ND","ND","ND","ND","567","0"],
    [81160,"2019-08-09T11:00:00","44.1","ND","ND","ND","33.8","0.9","ND","ND","ND","ND","643","1.5"],
    [81161,"2019-08-09T12:00:00","52","ND","ND","ND","63.3","0.5","ND","ND","ND","ND","649","0"],
    [81162,"2019-08-09T13:00:00","49.6","ND","ND","ND","93","0.6","ND","ND","ND","ND","665","0"],
    [81163,"2019-08-09T14:00:00","37.3","ND","ND","ND","86.4","0.2","ND","ND","ND","ND","666","0"],
    [81164,"2019-08-09T15:00:00","26.2","ND","ND","ND","88.8","0.2","ND","ND","ND","ND","666","0"],
    [81165,"2019-08-09T16:00:00","27.7","ND","ND","ND","80.5","0.3","ND","ND","ND","ND","666","0"],
    [81166,"2019-08-09T17:00:00","10.7","ND","ND","ND","66.7","0.7","ND","ND","ND","ND","446","0"],
    [81167,"2019-08-09T18:00:00","39.6","ND","ND","ND","54.2","0.5","ND","ND","ND","ND","656","0"],
    [81168,"2019-08-09T19:00:00","40.3","ND","ND","ND","28.8","0.2","ND","ND","ND","ND","0","0"],
    [81169,"2019-08-09T20:00:00","9.7","ND","ND","ND","9","0.5","ND","ND","ND","ND","0","0"],
    [81170,"2019-08-09T21:00:00","6","ND","ND","ND","2","3.1","ND","ND","ND","ND","0","0"],
    [81171,"2019-08-09T22:00:00","56","ND","ND","ND","1.6","6.6","ND","ND","ND","ND","0","0.1"],
    [81172,"2019-08-09T23:00:00","37.2","ND","ND","ND","1.8","6.5","ND","ND","ND","ND","0","1"],
    [81173,"2019-08-10T00:00:00","24.6","ND","ND","ND","1.4","2.9","ND","ND","ND","ND","0","0.5"],
    [81174,"2019-08-10T01:00:00","31.8","ND","ND","ND","1.4","3.3","ND","ND","ND","ND","0","ND"],
    [81175,"2019-08-10T02:00:00","31.1","ND","ND","ND","1.6","2.7","ND","ND","ND","ND","0","ND"],
    [81176,"2019-08-10T03:00:00","25.8","ND","ND","ND","1.6","2.7","ND","ND","ND","ND","0","0"],
    [81177,"2019-08-10T04:00:00","24.5","ND","ND","ND","2.9","2.4","ND","ND","ND","ND","0","ND"],
    [81178,"2019-08-10T05:00:00","19.9","ND","ND","ND","4.8","1.3","ND","ND","ND","ND","0","0"],
    [81179,"2019-08-10T06:00:00","34.1","ND","ND","ND","1.8","1.3","ND","ND","ND","ND","0","ND"],
    [81180,"2019-08-10T07:00:00","18.2","ND","ND","ND","2.4","1.6","ND","ND","ND","ND","0","0"],
    [81181,"2019-08-10T08:00:00","59.1","ND","ND","ND","5.2","3.5","ND","ND","ND","ND","119","ND"],
    [81182,"2019-08-10T09:00:00","122.4","ND","ND","ND","16.3","2.1","ND","ND","ND","ND","540","0"],
    [81183,"2019-08-10T10:00:00","78.1","ND","ND","ND","41.1","1.5","ND","ND","ND","ND","665","0"],
    [81184,"2019-08-10T11:00:00","63.8","ND","ND","ND","69.1","0.5","ND","ND","ND","ND","361","0"],
    [81185,"2019-08-10T12:00:00","52.7","ND","ND","ND","90.6","0.6","ND","ND","ND","ND","662","ND"],
    [81186,"2019-08-10T13:00:00","38.2","ND","ND","ND","98.1","0.3","ND","ND","ND","ND","665","0"],
    [81187,"2019-08-10T14:00:00","36.9","ND","ND","ND","98.4","0.6","ND","ND","ND","ND","665","ND"],
    [81188,"2019-08-10T15:00:00","46.3","ND","ND","ND","64.9","0.3","ND","ND","ND","ND","666","0"],
    [81189,"2019-08-10T16:00:00","26","ND","ND","ND","76","0.2","ND","ND","ND","ND","665","0"],
    [81190,"2019-08-10T17:00:00","14.9","ND","ND","ND","67.7","0.1","ND","ND","ND","ND","665","0"],
    [81191,"2019-08-10T18:00:00","21.2","ND","ND","ND","52","0.3","ND","ND","ND","ND","650","10.7"],
    [81192,"2019-08-10T19:00:00","11","ND","ND","ND","39","0.2","ND","ND","ND","ND","0","ND"],
    [81193,"2019-08-10T20:00:00","0.1","ND","ND","ND","20.3","0.1","ND","ND","ND","ND","0","ND"],
    [81194,"2019-08-10T21:00:00","16.6","ND","ND","ND","5.9","0.5","ND","ND","ND","ND","0","ND"],
    [81195,"2019-08-10T22:00:00","17.7","ND","ND","ND","3.9","4.4","ND","ND","ND","ND","0","ND"],
    [81196,"2019-08-10T23:00:00","25.5","ND","ND","ND","1.8","4.4","ND","ND","ND","ND","0","0"],
    [81197,"2019-08-11T00:00:00","51.4","ND","ND","ND","2.5","1.6","ND","ND","ND","ND","0","ND"],
    [81198,"2019-08-11T01:00:00","43.6","ND","ND","ND","1.4","1.4","ND","ND","ND","ND","0","0"],
    [81199,"2019-08-11T02:00:00","35.6","ND","ND","ND","4.8","2.9","ND","ND","ND","ND","0","0"],
    [81200,"2019-08-11T03:00:00","25.2","ND","ND","ND","4.1","2.4","ND","ND","ND","ND","0","0"],
    [81201,"2019-08-11T04:00:00","29.3","ND","ND","ND","1.7","5","ND","ND","ND","ND","0","0"],
    [81202,"2019-08-11T05:00:00","38","ND","ND","ND","1.6","4.8","ND","ND","ND","ND","0","0"],
    [81203,"2019-08-11T06:00:00","103.7","ND","ND","ND","1.4","2.6","ND","ND","ND","ND","0","0"],
    [81204,"2019-08-11T07:00:00","181.9","ND","ND","ND","2.5","6.8","ND","ND","ND","ND","0","0"],
    [81205,"2019-08-11T08:00:00","85.4","ND","ND","ND","6.1","5.6","ND","ND","ND","ND","82","0"],
    [81206,"2019-08-11T09:00:00","103.7","ND","ND","ND","20.2","3.4","ND","ND","ND","ND","395","0"],
    [81207,"2019-08-11T10:00:00","76.9","ND","ND","ND","38.5","1.2","ND","ND","ND","ND","616","0"],
    [81208,"2019-08-11T11:00:00","53.1","ND","ND","ND","55.1","0.7","ND","ND","ND","ND","505","0"],
    [81209,"2019-08-11T12:00:00","33","ND","ND","ND","73.3","0.6","ND","ND","ND","ND","641","0"],
    [81210,"2019-08-11T13:00:00","11.5","ND","ND","ND","61.5","0.8","ND","ND","ND","ND","666","0"],
    [81211,"2019-08-11T14:00:00","4.7","ND","ND","ND","37.3","0.3","ND","ND","ND","ND","650","0"],
    [81212,"2019-08-11T15:00:00","13.7","ND","ND","ND","36.9","0.3","ND","ND","ND","ND","622","ND"],
    [81213,"2019-08-11T16:00:00","15.3","ND","ND","ND","67.1","0.2","ND","ND","ND","ND","622","ND"],
    [81214,"2019-08-11T17:00:00","0.4","ND","ND","ND","61.8","0.6","ND","ND","ND","ND","666","0"],
    [81215,"2019-08-11T18:00:00","10.5","ND","ND","ND","44.1","0.2","ND","ND","ND","ND","606","0"],
    [81216,"2019-08-11T19:00:00","26","ND","ND","ND","31.7","0.3","ND","ND","ND","ND","0","0"],
    [81217,"2019-08-11T20:00:00","60.7","ND","ND","ND","8.7","0.5","ND","ND","ND","ND","0","0.1"],
    [81218,"2019-08-11T21:00:00","15.9","ND","ND","ND","11.9","0.4","ND","ND","ND","ND","0","0.3"],
    [81219,"2019-08-11T22:00:00","20.5","ND","ND","ND","3.9","3.9","ND","ND","ND","ND","0","ND"],
    [81220,"2019-08-11T23:00:00","72.8","ND","ND","ND","1.6","2.5","ND","ND","ND","ND","0","0"],
    [81221,"2019-08-12T00:00:00","34.2","ND","ND","ND","2","4.2","ND","ND","ND","ND","0","1.6"],
    [81222,"2019-08-12T01:00:00","19.8","ND","ND","ND","4.2","4","ND","ND","ND","ND","0","0"],
    [81223,"2019-08-12T02:00:00","18.7","ND","ND","ND","3.5","2.1","ND","ND","ND","ND","0","0"],
    [81224,"2019-08-12T03:00:00","39.1","ND","ND","ND","2.7","2.1","ND","ND","ND","ND","0","0"],
    [81225,"2019-08-12T04:00:00","84.3","ND","ND","ND","4.3","3.2","ND","ND","ND","ND","0","ND"],
    [81226,"2019-08-12T05:00:00","45","ND","ND","ND","1.5","3.8","ND","ND","ND","ND","0","0"],
    [81227,"2019-08-12T06:00:00","44.8","ND","ND","ND","1.4","3.3","ND","ND","ND","ND","0","0"],
    [81228,"2019-08-12T07:00:00","21.9","ND","ND","ND","2.1","2.9","ND","ND","ND","ND","1","0"],
    [81229,"2019-08-12T08:00:00","124.1","ND","ND","ND","6.1","3.6","ND","ND","ND","ND","145","0"],
    [81230,"2019-08-12T09:00:00","73.4","ND","ND","ND","22.5","2.1","ND","ND","ND","ND","483","0"],
    [81231,"2019-08-12T10:00:00","35","ND","ND","ND","44.6","1.5","ND","ND","ND","ND","665","0"],
    [81232,"2019-08-12T11:00:00","26.7","ND","ND","ND","69","0.4","ND","ND","ND","ND","470","0"],
    [81233,"2019-08-12T12:00:00","33.1","ND","ND","ND","88.7","0.4","ND","ND","ND","ND","628","0"],
    [81234,"2019-08-12T13:00:00","24.7","ND","ND","ND","108.8","0.3","ND","ND","ND","ND","665","0"],
    [81235,"2019-08-12T14:00:00","40.2","ND","ND","ND","99.5","0.2","ND","ND","ND","ND","666","0"],
    [81236,"2019-08-12T15:00:00","29.7","ND","ND","ND","90.5","0.2","ND","ND","ND","ND","648","0"],
    [81237,"2019-08-12T16:00:00","26.1","ND","ND","ND","66.1","0.3","ND","ND","ND","ND","666","ND"],
    [81238,"2019-08-12T17:00:00","20.2","ND","ND","ND","57.8","0.2","ND","ND","ND","ND","533","0"],
    [81239,"2019-08-12T18:00:00","33.1","ND","ND","ND","42.7","0.3","ND","ND","ND","ND","445","ND"],
    [81240,"2019-08-12T19:00:00","9.8","ND","ND","ND","29.5","0.3","ND","ND","ND","ND","0","0"],
    [81241,"2019-08-12T20:00:00","16.2","ND","ND","ND","18.9","0.3","ND","ND","ND","ND","0","ND"],
    [81242,"2019-08-12T21:00:00","22.9","ND","ND","ND","17.7","1.1","ND","ND","ND","ND","0","ND"],
    [81243,"2019-08-12T22:00:00","29","ND","ND","ND","9.4","1.3","ND","ND","ND","ND","0","0"],
    [81244,"2019-08-12T23:00:00","38.7","ND","ND","ND","4","3.2","ND","ND","ND","ND","0","0"],
    [81245,"2019-08-13T00:00:00","32.5","ND","ND","ND","6.2","5.8","ND","ND","ND","ND","0","ND"],
    [81246,"2019-08-13T01:00:00","27.3","ND","ND","ND","6.7","6.9","ND","ND","ND","ND","0","0.2"],
    [81247,"2019-08-13T02:00:00","26.3","ND","ND","ND","8.1","1.8","ND","ND","ND","ND","0","1.7"],
    [81248,"2019-08-13T03:00:00","12.8","ND","ND","ND","9.1","4.3","ND","ND","ND","ND","0","12.2"],
    [81249,"2019-08-13T04:00:00","11.9","ND","ND","ND","7.5","8.2","ND","ND","ND","ND","0","5"],
    [81250,"2019-08-13T05:00:00","22.7","ND","ND","ND","3.8","4.4","ND","ND","ND","ND","0","3.8"],
    [81251,"2019-08-13T06:00:00","57.4","ND","ND","ND","1.9","3.1","ND","ND","ND","ND","0","2.5"],
    [81252,"2019-08-13T07:00:00","86.8","ND","ND","ND","2","3.7","ND","ND","ND","ND","0","1.8"],
    [81253,"2019-08-13T08:00:00","100.8","ND","ND","ND","3.7","3","ND","ND","ND","ND","85","0.7"],
    [81254,"2019-08-13T09:00:00","139.8","ND","ND","ND","9","3.4","ND","ND","ND","ND","359","0.4"],
    [81255,"2019-08-13T10:00:00","114.9","ND","ND","ND","30.3","1.7","ND","ND","ND","ND","567","0.1"],
    [81256,"2019-08-13T11:00:00","39.8","ND","ND","ND","57.5","0.6","ND","ND","ND","ND","628","0"],
    [81257,"2019-08-13T12:00:00","40.1","ND","ND","ND","78.7","0.6","ND","ND","ND","ND","657","0"],
    [81258,"2019-08-13T13:00:00","45","ND","ND","ND","100.1","0.2","ND","ND","ND","ND","666","0"],
    [81259,"2019-08-13T14:00:00","33.8","ND","ND","ND","85.7","0.3","ND","ND","ND","ND","666","0"],
    [81260,"2019-08-13T15:00:00","16","ND","ND","ND","68.2","0.2","ND","ND","ND","ND","665","0"],
    [81261,"2019-08-13T16:00:00","11.9","ND","ND","ND","72.3","0.3","ND","ND","ND","ND","666","0"],
    [81262,"2019-08-13T17:00:00","30.2","ND","ND","ND","51.9","0.3","ND","ND","ND","ND","554","0"],
    [81263,"2019-08-13T18:00:00","36.6","ND","ND","ND","41.9","0.1","ND","ND","ND","ND","340","0"],
    [81264,"2019-08-13T19:00:00","27.2","ND","ND","ND","28.9","0.2","ND","ND","ND","ND","0","0"],
    [81265,"2019-08-13T20:00:00","52.7","ND","ND","ND","24.9","0.6","ND","ND","ND","ND","0","0"],
    [81266,"2019-08-13T21:00:00","25.2","ND","ND","ND","6.2","1.5","ND","ND","ND","ND","0","0"],
    [81267,"2019-08-13T22:00:00","38.6","ND","ND","ND","1.8","5","ND","ND","ND","ND","0","0"],
    [81268,"2019-08-13T23:00:00","6.3","ND","ND","ND","1.6","4.3","ND","ND","ND","ND","0","0"],
    [81269,"2019-08-14T00:00:00","22.7","ND","ND","ND","1.4","2.4","ND","ND","ND","ND","0","0"],
    [81270,"2019-08-14T01:00:00","28.3","ND","ND","ND","2.1","2.4","ND","ND","ND","ND","0","7.2"],
    [81271,"2019-08-14T02:00:00","18.9","ND","ND","ND","1.7","2.8","ND","ND","ND","ND","0","2.9"],
    [81272,"2019-08-14T03:00:00","79.3","ND","ND","ND","1.6","2.4","ND","ND","ND","ND","0","1.9"],
    [81273,"2019-08-14T04:00:00","244.9","ND","ND","ND","1.5","1.5","ND","ND","ND","ND","0","0"],
    [81274,"2019-08-14T05:00:00","134.6","ND","ND","ND","1.8","5.9","ND","ND","ND","ND","0","0"],
    [81275,"2019-08-14T06:00:00","89.8","ND","ND","ND","1.9","6","ND","ND","ND","ND","0","0"],
    [81276,"2019-08-14T07:00:00","82.2","ND","ND","ND","1.9","4.3","ND","ND","ND","ND","0","0.1"],
    [81277,"2019-08-14T08:00:00","73","ND","ND","ND","5.8","2.7","ND","ND","ND","ND","73","0"],
    [81278,"2019-08-14T09:00:00","86.8","ND","ND","ND","11.4","2.4","ND","ND","ND","ND","502","0"],
    [81279,"2019-08-14T10:00:00","71.8","ND","ND","ND","42.6","1.7","ND","ND","ND","ND","532","0"],
    [81280,"2019-08-14T11:00:00","49.7","ND","ND","ND","73.3","0.3","ND","ND","ND","ND","558","0"],
    [81281,"2019-08-14T12:00:00","25.9","ND","ND","ND","85.3","0.5","ND","ND","ND","ND","631","0"],
    [81282,"2019-08-14T13:00:00","21.4","ND","ND","ND","74.6","0.3","ND","ND","ND","ND","666","0"],
    [81283,"2019-08-14T14:00:00","17.5","ND","ND","ND","77.1","0.3","ND","ND","ND","ND","664","0"],
    [81284,"2019-08-14T15:00:00","19.2","ND","ND","ND","59.7","0.1","ND","ND","ND","ND","665","0"],
    [81285,"2019-08-14T16:00:00","24.5","ND","ND","ND","54.5","0.2","ND","ND","ND","ND","619","0"],
    [81286,"2019-08-14T17:00:00","32.1","ND","ND","ND","50.6","0","ND","ND","ND","ND","607","0"],
    [81287,"2019-08-14T18:00:00","5.3","ND","ND","ND","46.4","0.5","ND","ND","ND","ND","315","0"],
    [81288,"2019-08-14T19:00:00","14.1","ND","ND","ND","39.5","0.4","ND","ND","ND","ND","0","0.1"],
    [81289,"2019-08-14T20:00:00","9.5","ND","ND","ND","38.8","0.1","ND","ND","ND","ND","0","0"],
    [81290,"2019-08-14T21:00:00","43.6","ND","ND","ND","51.2","0.3","ND","ND","ND","ND","0","0"],
    [81291,"2019-08-14T22:00:00","17.4","ND","ND","ND","48.3","0.2","ND","ND","ND","ND","0","0.7"],
    [81292,"2019-08-14T23:00:00","7.4","ND","ND","ND","45.3","0.3","ND","ND","ND","ND","0","0.4"],
    [81293,"2019-08-15T00:00:00","34","ND","ND","ND","39.5","0.2","ND","ND","ND","ND","0","0"],
    [81294,"2019-08-15T01:00:00","34.8","ND","ND","ND","25.4","2.4","ND","ND","ND","ND","0","0"],
    [81295,"2019-08-15T02:00:00","61.3","ND","ND","ND","11.1","17.9","ND","ND","ND","ND","0","0"],
    [81296,"2019-08-15T03:00:00","83.7","ND","ND","ND","11.7","13","ND","ND","ND","ND","0","0"],
    [81297,"2019-08-15T04:00:00","71.9","ND","ND","ND","25.2","4.6","ND","ND","ND","ND","0","0"],
    [81298,"2019-08-15T05:00:00","68.7","ND","ND","ND","17.8","1.2","ND","ND","ND","ND","0","0"],
    [81299,"2019-08-15T06:00:00","76.2","ND","ND","ND","5.3","0.8","ND","ND","ND","ND","0","0"],
    [81300,"2019-08-15T07:00:00","95.5","ND","ND","ND","3.1","9.1","ND","ND","ND","ND","0","0"],
    [81301,"2019-08-15T08:00:00","134.6","ND","ND","ND","3.8","8","ND","ND","ND","ND","88","0"],
    [81302,"2019-08-15T09:00:00","242.8","ND","ND","ND","18.7","7.9","ND","ND","ND","ND","284","0"],
    [81303,"2019-08-15T10:00:00","123","ND","ND","ND","48.4","3.3","ND","ND","ND","ND","570","0"],
    [81304,"2019-08-15T11:00:00","88.9","ND","ND","ND","82.6","0.8","ND","ND","ND","ND","626","0"],
    [81305,"2019-08-15T12:00:00","35.2","ND","ND","ND","113.3","0.7","ND","ND","ND","ND","ND","0"],
    [81306,"2019-08-15T13:00:00","23.3","ND","ND","ND","111.2","0.4","ND","ND","ND","ND","664","0"],
    [81307,"2019-08-15T14:00:00","22.4","ND","ND","ND","113.8","0.3","ND","ND","ND","ND","ND","0"],
    [81308,"2019-08-15T15:00:00","42.6","ND","ND","ND","99.7","0.2","ND","ND","ND","ND","666","0"],
    [81309,"2019-08-15T16:00:00","41.6","ND","ND","ND","79.6","0.2","ND","ND","ND","ND","653","0"],
    [81310,"2019-08-15T17:00:00","63.4","ND","ND","ND","72.2","0.1","ND","ND","ND","ND","569","0"],
    [81311,"2019-08-15T18:00:00","45.8","ND","ND","ND","67.8","0.3","ND","ND","ND","ND","366","0"],
    [81312,"2019-08-15T19:00:00","42","ND","ND","ND","56.9","0.2","ND","ND","ND","ND","0","0"],
    [81313,"2019-08-15T20:00:00","33.4","ND","ND","ND","47.3","0.2","ND","ND","ND","ND","0","0"],
    [81314,"2019-08-15T21:00:00","44.8","ND","ND","ND","29.8","0.4","ND","ND","ND","ND","0","0"],
    [81315,"2019-08-15T22:00:00","65.3","ND","ND","ND","22.1","1","ND","ND","ND","ND","0","0.8"],
    [81316,"2019-08-15T23:00:00","72.3","ND","ND","ND","11.7","3.6","ND","ND","ND","ND","0","0"],
    [81317,"2019-08-16T00:00:00","72.5","ND","ND","ND","11.4","4.3","ND","ND","ND","ND","0","0"],
    [81318,"2019-08-16T01:00:00","54.4","ND","ND","ND","15.1","1.7","ND","ND","ND","ND","0","0"],
    [81319,"2019-08-16T02:00:00","64.3","ND","ND","ND","8","2.1","ND","ND","ND","ND","0","0"],
    [81320,"2019-08-16T03:00:00","71","ND","ND","ND","11","0.8","ND","ND","ND","ND","0","0"],
    [81321,"2019-08-16T04:00:00","76.6","ND","ND","ND","7.1","1.7","ND","ND","ND","ND","0","0"],
    [81322,"2019-08-16T05:00:00","121.3","ND","ND","ND","3.4","3.3","ND","ND","ND","ND","0","0"],
    [81323,"2019-08-16T06:00:00","99.7","ND","ND","ND","2.2","3.8","ND","ND","ND","ND","0","0"],
    [81324,"2019-08-16T07:00:00","70","ND","ND","ND","3.3","3.4","ND","ND","ND","ND","0","0"],
    [81325,"2019-08-16T08:00:00","93.4","ND","ND","ND","5.7","3","ND","ND","ND","ND","63","0"],
    [81326,"2019-08-16T09:00:00","111","ND","ND","ND","12.4","2.2","ND","ND","ND","ND","273","0"],
    [81327,"2019-08-16T10:00:00","91.9","ND","ND","ND","41.4","1.1","ND","ND","ND","ND","562","0"],
    [81328,"2019-08-16T11:00:00","44.5","ND","ND","ND","68.5","0.6","ND","ND","ND","ND","661","0"],
    [81329,"2019-08-16T12:00:00","34.2","ND","ND","ND","82.6","0.3","ND","ND","ND","ND","664","0"],
    [81330,"2019-08-16T13:00:00","37.3","ND","ND","ND","106.4","0.6","ND","ND","ND","ND","609","0"],
    [81331,"2019-08-16T14:00:00","57","ND","ND","ND","133.1","0.5","ND","ND","ND","ND","665","0"],
    [81332,"2019-08-16T15:00:00","53.6","ND","ND","ND","87.5","1","ND","ND","ND","ND","664","0"],
    [81333,"2019-08-16T16:00:00","45","ND","ND","ND","60.6","0.3","ND","ND","ND","ND","649","0"],
    [81334,"2019-08-16T17:00:00","16.4","ND","ND","ND","53","0.3","ND","ND","ND","ND","374","0"],
    [81335,"2019-08-16T18:00:00","4.3","ND","ND","ND","45.5","0.5","ND","ND","ND","ND","276","0"],
    [81336,"2019-08-16T19:00:00","41.4","ND","ND","ND","29.9","0.4","ND","ND","ND","ND","0","0.4"],
    [81337,"2019-08-16T20:00:00","32.4","ND","ND","ND","23.3","0.3","ND","ND","ND","ND","0","0"],
    [81338,"2019-08-16T21:00:00","4.9","ND","ND","ND","8.7","0.8","ND","ND","ND","ND","0","0"],
    [81339,"2019-08-16T22:00:00","33.5","ND","ND","ND","5.6","1","ND","ND","ND","ND","0","0"],
    [81340,"2019-08-16T23:00:00","55.3","ND","ND","ND","3.4","1.2","ND","ND","ND","ND","0","0.2"],
    [81341,"2019-08-17T00:00:00","37","ND","ND","ND","9.4","0.9","ND","ND","ND","ND","0","0"],
    [81342,"2019-08-17T01:00:00","33.2","ND","ND","ND","15","0.5","ND","ND","ND","ND","0","0"],
    [81343,"2019-08-17T02:00:00","17.2","ND","ND","ND","16.2","1.4","ND","ND","ND","ND","0","5.3"],
    [81344,"2019-08-17T03:00:00","40.4","ND","ND","ND","11.4","1.1","ND","ND","ND","ND","0","1.4"],
    [81345,"2019-08-17T04:00:00","35.2","ND","ND","ND","8.6","14.3","ND","ND","ND","ND","0","0.6"],
    [81346,"2019-08-17T05:00:00","30.6","ND","ND","ND","2.9","3.3","ND","ND","ND","ND","0","0.1"],
    [81347,"2019-08-17T06:00:00","37","ND","ND","ND","1.5","17.4","ND","ND","ND","ND","0","0"],
    [81348,"2019-08-17T07:00:00","46.8","ND","ND","ND","1.9","13.6","ND","ND","ND","ND","0","0"],
    [81349,"2019-08-17T08:00:00","70.8","ND","ND","ND","7.4","10.9","ND","ND","ND","ND","50","0.1"],
    [81350,"2019-08-17T09:00:00","73","ND","ND","ND","13.3","4.3","ND","ND","ND","ND","305","0"],
    [81351,"2019-08-17T10:00:00","70","ND","ND","ND","25.7","1.4","ND","ND","ND","ND","603","0"],
    [81352,"2019-08-17T11:00:00","64.6","ND","ND","ND","37.4","1.2","ND","ND","ND","ND","664","0"],
    [81353,"2019-08-17T12:00:00","43.3","ND","ND","ND","50.6","0.9","ND","ND","ND","ND","665","0"],
    [81354,"2019-08-17T13:00:00","23.6","ND","ND","ND","63.5","0.4","ND","ND","ND","ND","665","0"],
    [81355,"2019-08-17T14:00:00","22.6","ND","ND","ND","75.7","0.2","ND","ND","ND","ND","665","0"],
    [81356,"2019-08-17T15:00:00","37.4","ND","ND","ND","83.8","0.4","ND","ND","ND","ND","665","0"],
    [81357,"2019-08-17T16:00:00","36.2","ND","ND","ND","69.2","0.4","ND","ND","ND","ND","663","0"],
    [81358,"2019-08-17T17:00:00","11.6","ND","ND","ND","51.8","0.3","ND","ND","ND","ND","571","0"],
    [81359,"2019-08-17T18:00:00","0.2","ND","ND","ND","44.5","0.2","ND","ND","ND","ND","504","0"],
    [81360,"2019-08-17T19:00:00","1.8","ND","ND","ND","37.4","0.3","ND","ND","ND","ND","0","0"],
    [81361,"2019-08-17T20:00:00","6.3","ND","ND","ND","18.8","0.6","ND","ND","ND","ND","0","0"],
    [81362,"2019-08-17T21:00:00","37.7","ND","ND","ND","4.2","1.9","ND","ND","ND","ND","0","0"],
    [81363,"2019-08-17T22:00:00","47.2","ND","ND","ND","2.2","3.2","ND","ND","ND","ND","0","0"],
    [81364,"2019-08-17T23:00:00","56","ND","ND","ND","1.4","1.1","ND","ND","ND","ND","0","0"],
    [81365,"2019-08-18T00:00:00","44","ND","ND","ND","1.5","1.3","ND","ND","ND","ND","0","0"],
    [81366,"2019-08-18T01:00:00","15.5","ND","ND","ND","1.7","3.1","ND","ND","ND","ND","0","ND"],
    [81367,"2019-08-18T02:00:00","35.6","ND","ND","ND","1.4","5.6","ND","ND","ND","ND","0","ND"],
    [81368,"2019-08-18T03:00:00","49.8","ND","ND","ND","1.4","2.2","ND","ND","ND","ND","0","ND"],
    [81369,"2019-08-18T04:00:00","42.2","ND","ND","ND","7.9","2.5","ND","ND","ND","ND","0","ND"],
    [81370,"2019-08-18T05:00:00","71.9","ND","ND","ND","3.5","3.4","ND","ND","ND","ND","0","ND"],
    [81371,"2019-08-18T06:00:00","26.6","ND","ND","ND","1.6","4","ND","ND","ND","ND","0","ND"],
    [81372,"2019-08-18T07:00:00","54.2","ND","ND","ND","2.2","6.4","ND","ND","ND","ND","0","ND"],
    [81373,"2019-08-18T08:00:00","110","ND","ND","ND","9.2","18.4","ND","ND","ND","ND","59","ND"],
    [81374,"2019-08-18T09:00:00","93.9","ND","ND","ND","22.5","5.2","ND","ND","ND","ND","444","ND"],
    [81375,"2019-08-18T10:00:00","76","ND","ND","ND","64.7","1.5","ND","ND","ND","ND","664","ND"],
    [81376,"2019-08-18T11:00:00","43.5","ND","ND","ND","91.4","0.4","ND","ND","ND","ND","643","ND"],
    [81377,"2019-08-18T12:00:00","36.7","ND","ND","ND","97.9","0.6","ND","ND","ND","ND","651","ND"],
    [81378,"2019-08-18T13:00:00","40.3","ND","ND","ND","100.8","0.6","ND","ND","ND","ND","665","ND"],
    [81379,"2019-08-18T14:00:00","34.5","ND","ND","ND","104.3","0.4","ND","ND","ND","ND","ND","ND"],
    [81380,"2019-08-18T15:00:00","24.4","ND","ND","ND","121.4","0.3","ND","ND","ND","ND","666","ND"],
    [81381,"2019-08-18T16:00:00","35","ND","ND","ND","111.4","0.1","ND","ND","ND","ND","654","ND"],
    [81382,"2019-08-18T17:00:00","33","ND","ND","ND","102.9","0.3","ND","ND","ND","ND","663","ND"],
    [81383,"2019-08-18T18:00:00","37.1","ND","ND","ND","72","0.6","ND","ND","ND","ND","641","ND"],
    [81384,"2019-08-18T19:00:00","53.2","ND","ND","ND","65.8","0.4","ND","ND","ND","ND","0","ND"],
    [81385,"2019-08-18T20:00:00","10.3","ND","ND","ND","49.8","0.3","ND","ND","ND","ND","0","ND"],
    [81386,"2019-08-18T21:00:00","27.8","ND","ND","ND","20.7","3","ND","ND","ND","ND","0","ND"],
    [81387,"2019-08-18T22:00:00","41.3","ND","ND","ND","8.3","3.6","ND","ND","ND","ND","0","ND"],
    [81388,"2019-08-18T23:00:00","49.1","ND","ND","ND","2.3","4.1","ND","ND","ND","ND","0","ND"],
    [81389,"2019-08-19T00:00:00","52","ND","ND","ND","4.2","2.6","ND","ND","ND","ND","0","ND"],
    [81390,"2019-08-19T01:00:00","36.1","ND","ND","ND","4.4","3.3","ND","ND","ND","ND","0","0"],
    [81391,"2019-08-19T02:00:00","15.5","ND","ND","ND","6.5","2.8","ND","ND","ND","ND","0","0"],
    [81392,"2019-08-19T03:00:00","43.8","ND","ND","ND","3.9","4.6","ND","ND","ND","ND","0","0"],
    [81393,"2019-08-19T04:00:00","47.2","ND","ND","ND","2.6","2.8","ND","ND","ND","ND","0","0"],
    [81394,"2019-08-19T05:00:00","44.2","ND","ND","ND","2.2","4.7","ND","ND","ND","ND","0","0"],
    [81395,"2019-08-19T06:00:00","50.7","ND","ND","ND","1.8","4","ND","ND","ND","ND","0","0"],
    [81396,"2019-08-19T07:00:00","53.4","ND","ND","ND","3.1","3.1","ND","ND","ND","ND","0","0"],
    [81397,"2019-08-19T08:00:00","82.8","ND","ND","ND","9.2","4.7","ND","ND","ND","ND","117","0"],
    [81398,"2019-08-19T09:00:00","99.3","ND","ND","ND","25.9","2.3","ND","ND","ND","ND","567","0"],
    [81399,"2019-08-19T10:00:00","96.1","ND","ND","ND","63.4","1","ND","ND","ND","ND","663","0"],
    [81400,"2019-08-19T11:00:00","30","ND","ND","ND","78.4","0.6","ND","ND","ND","ND","665","0"],
    [81401,"2019-08-19T12:00:00","18.8","ND","ND","ND","82.2","0.4","ND","ND","ND","ND","665","0"],
    [81402,"2019-08-19T13:00:00","81.1","ND","ND","ND","88.3","0.3","ND","ND","ND","ND","665","0"],
    [81403,"2019-08-19T14:00:00","37.2","ND","ND","ND","94.3","0.4","ND","ND","ND","ND","ND","0"],
    [81404,"2019-08-19T15:00:00","16.8","ND","ND","ND","90.7","0.6","ND","ND","ND","ND","665","0"],
    [81405,"2019-08-19T16:00:00","51.9","ND","ND","ND","71","0.5","ND","ND","ND","ND","664","0"],
    [81406,"2019-08-19T17:00:00","20.4","ND","ND","ND","54.9","0.3","ND","ND","ND","ND","612","0"],
    [81407,"2019-08-19T18:00:00","5.9","ND","ND","ND","58.8","0.4","ND","ND","ND","ND","356","0"],
    [81408,"2019-08-19T19:00:00","11.9","ND","ND","ND","45","0.2","ND","ND","ND","ND","0","0"],
    [81409,"2019-08-19T20:00:00","22","ND","ND","ND","25.4","0.3","ND","ND","ND","ND","0","0"],
    [81410,"2019-08-19T21:00:00","28.4","ND","ND","ND","5.8","3.5","ND","ND","ND","ND","ND","0"],
    [81411,"2019-08-19T22:00:00","37.6","ND","ND","ND","2.3","3.5","ND","ND","ND","ND","0","0"],
    [81412,"2019-08-19T23:00:00","34","ND","ND","ND","3.6","5.2","ND","ND","ND","ND","0","0"],
    [81413,"2019-08-20T00:00:00","9.3","ND","ND","ND","4.3","9.4","ND","ND","ND","ND","ND","0"],
    [81414,"2019-08-20T01:00:00","42.7","ND","ND","ND","12","5.3","ND","ND","ND","ND","0","0"],
    [81415,"2019-08-20T02:00:00","74.5","ND","ND","ND","10.5","4.2","ND","ND","ND","ND","0","0.1"],
    [81416,"2019-08-20T03:00:00","23.9","ND","ND","ND","7.3","4.1","ND","ND","ND","ND","0","0.1"],
    [81417,"2019-08-20T04:00:00","28.8","ND","ND","ND","2.8","3","ND","ND","ND","ND","0","0.1"],
    [81418,"2019-08-20T05:00:00","49.1","ND","ND","ND","2.4","1.2","ND","ND","ND","ND","0","0"],
    [81419,"2019-08-20T06:00:00","41.4","ND","ND","ND","3.1","2.5","ND","ND","ND","ND","0","0"],
    [81420,"2019-08-20T07:00:00","16.4","ND","ND","ND","1.7","3.4","ND","ND","ND","ND","ND","0"],
    [81421,"2019-08-20T08:00:00","47.5","ND","ND","ND","3.3","3.1","ND","ND","ND","ND","38","0"],
    [81422,"2019-08-20T09:00:00","69.8","ND","ND","ND","19.2","1.5","ND","ND","ND","ND","331","0"],
    [81423,"2019-08-20T10:00:00","29","ND","ND","ND","47.3","0.6","ND","ND","ND","ND","653","0"],
    [81424,"2019-08-20T11:00:00","29","ND","ND","ND","80.2","0.7","ND","ND","ND","ND","643","0"],
    [81425,"2019-08-20T12:00:00","18.9","ND","ND","ND","106.5","0.7","ND","ND","ND","ND","653","0"],
    [81426,"2019-08-20T13:00:00","45.4","ND","ND","ND","116.3","0.5","ND","ND","ND","ND","665","0"],
    [81427,"2019-08-20T14:00:00","20.9","ND","ND","ND","103.6","0.2","ND","ND","ND","ND","665","0"],
    [81428,"2019-08-20T15:00:00","17","ND","ND","ND","97.1","0.1","ND","ND","ND","ND","ND","0"],
    [81429,"2019-08-20T16:00:00","10.7","ND","ND","ND","72.3","0.2","ND","ND","ND","ND","661","0"],
    [81430,"2019-08-20T17:00:00","52.2","ND","ND","ND","64.8","0.3","ND","ND","ND","ND","496","0"],
    [81431,"2019-08-20T18:00:00","39.9","ND","ND","ND","48.6","0.3","ND","ND","ND","ND","586","0"],
    [81432,"2019-08-20T19:00:00","18.2","ND","ND","ND","32.1","0.3","ND","ND","ND","ND","0","0"],
    [81433,"2019-08-20T20:00:00","20.1","ND","ND","ND","32.9","0.6","ND","ND","ND","ND","0","0"],
    [81434,"2019-08-20T21:00:00","30.7","ND","ND","ND","13.1","0.6","ND","ND","ND","ND","ND","0"],
    [81435,"2019-08-20T22:00:00","46.8","ND","ND","ND","3.6","1.4","ND","ND","ND","ND","0","0"],
    [81436,"2019-08-20T23:00:00","51.7","ND","ND","ND","3","2","ND","ND","ND","ND","0","2.1"],
    [81437,"2019-08-21T00:00:00","39.6","ND","ND","ND","2.8","4.9","ND","ND","ND","ND","0","10.8"],
    [81438,"2019-08-21T01:00:00","25.9","ND","ND","ND","6.9","2.4","ND","ND","ND","ND","0","1"],
    [81439,"2019-08-21T02:00:00","28.9","ND","ND","ND","6.9","2.3","ND","ND","ND","ND","0","0.1"],
    [81440,"2019-08-21T03:00:00","32.5","ND","ND","ND","5.5","2.8","ND","ND","ND","ND","0","0.2"],
    [81441,"2019-08-21T04:00:00","52.5","ND","ND","ND","6.7","3.1","ND","ND","ND","ND","0","0"],
    [81442,"2019-08-21T05:00:00","85.7","ND","ND","ND","3.4","3.4","ND","ND","ND","ND","0","0"],
    [81443,"2019-08-21T06:00:00","90.5","ND","ND","ND","1.8","7.2","ND","ND","ND","ND","0","0"],
    [81444,"2019-08-21T07:00:00","121.8","ND","ND","ND","3","5.2","ND","ND","ND","ND","1","ND"],
    [81445,"2019-08-21T08:00:00","88.2","ND","ND","ND","7.2","5.2","ND","ND","ND","ND","106","0"],
    [81446,"2019-08-21T09:00:00","110.4","ND","ND","ND","25.5","3.1","ND","ND","ND","ND","534","0.1"],
    [81447,"2019-08-21T10:00:00","63.8","ND","ND","ND","50.9","1.4","ND","ND","ND","ND","535","0"],
    [81448,"2019-08-21T11:00:00","54.2","ND","ND","ND","77","0.5","ND","ND","ND","ND","665","ND"],
    [81449,"2019-08-21T12:00:00","37","ND","ND","ND","115.3","0.5","ND","ND","ND","ND","664","0"],
    [81450,"2019-08-21T13:00:00","22.4","ND","ND","ND","94.5","0.2","ND","ND","ND","ND","665","0"],
    [81451,"2019-08-21T14:00:00","0.1","ND","ND","ND","80.6","0.1","ND","ND","ND","ND","665","0"],
    [81452,"2019-08-21T15:00:00","0.7","ND","ND","ND","ND","0.2","ND","ND","ND","ND","663","0"],
    [81453,"2019-08-21T16:00:00","26.3","ND","ND","ND","167.1","2.7","ND","ND","ND","ND","656","0"],
    [81454,"2019-08-21T17:00:00","52.3","ND","ND","ND","52.2","0.1","ND","ND","ND","ND","609","0"],
    [81455,"2019-08-21T18:00:00","37","ND","ND","ND","47.6","0.3","ND","ND","ND","ND","628","0"],
    [81456,"2019-08-21T19:00:00","25.5","ND","ND","ND","30.3","0.3","ND","ND","ND","ND","0","0"],
    [81457,"2019-08-21T20:00:00","32.5","ND","ND","ND","9.1","0.8","ND","ND","ND","ND","0","0.1"],
    [81458,"2019-08-21T21:00:00","57.6","ND","ND","ND","11.4","3","ND","ND","ND","ND","0","0"],
    [81459,"2019-08-21T22:00:00","66.5","ND","ND","ND","3.3","4.7","ND","ND","ND","ND","0","ND"],
    [81460,"2019-08-21T23:00:00","70","ND","ND","ND","1.6","6","ND","ND","ND","ND","0","ND"],
    [81461,"2019-08-22T00:00:00","46.5","ND","ND","ND","2","4.1","ND","ND","ND","ND","0","0"],
    [81462,"2019-08-22T01:00:00","67.3","ND","ND","ND","2.5","7.1","ND","ND","ND","ND","0","ND"],
    [81463,"2019-08-22T02:00:00","88.3","ND","ND","ND","1.7","6.6","ND","ND","ND","ND","0","ND"],
    [81464,"2019-08-22T03:00:00","74.3","ND","ND","ND","2.4","3.4","ND","ND","ND","ND","0","0"],
    [81465,"2019-08-22T04:00:00","61.2","ND","ND","ND","2.1","4.7","ND","ND","ND","ND","0","ND"],
    [81466,"2019-08-22T05:00:00","99.3","ND","ND","ND","2.2","3.6","ND","ND","ND","ND","0","ND"],
    [81467,"2019-08-22T06:00:00","100.5","ND","ND","ND","2","15.2","ND","ND","ND","ND","0","0"],
    [81468,"2019-08-22T07:00:00","119.1","ND","ND","ND","2.3","7","ND","ND","ND","ND","0","ND"],
    [81469,"2019-08-22T08:00:00","132.9","ND","ND","ND","3.3","6.2","ND","ND","ND","ND","25","0"],
    [81470,"2019-08-22T09:00:00","222.5","ND","ND","ND","10.7","5.3","ND","ND","ND","ND","140","ND"],
    [81471,"2019-08-22T10:00:00","153.3","ND","ND","ND","25.8","4.9","ND","ND","ND","ND","624","ND"],
    [81472,"2019-08-22T11:00:00","44.7","ND","ND","ND","66.9","1.8","ND","ND","ND","ND","663","ND"],
    [81473,"2019-08-22T12:00:00","21.8","ND","ND","ND","117","0.6","ND","ND","ND","ND","665","ND"],
    [81474,"2019-08-22T13:00:00","43.2","ND","ND","ND","131","0.5","ND","ND","ND","ND","642","ND"],
    [81475,"2019-08-22T14:00:00","51.3","ND","ND","ND","158.7","0.3","ND","ND","ND","ND","665","0"],
    [81476,"2019-08-22T15:00:00","56.4","ND","ND","ND","130.4","0.1","ND","ND","ND","ND","666","0"],
    [81477,"2019-08-22T16:00:00","58.5","ND","ND","ND","96.1","0.2","ND","ND","ND","ND","652","0"],
    [81478,"2019-08-22T17:00:00","42","ND","ND","ND","73.9","0.1","ND","ND","ND","ND","647","0"],
    [81479,"2019-08-22T18:00:00","44.4","ND","ND","ND","60.8","0.4","ND","ND","ND","ND","623","0"],
    [81480,"2019-08-22T19:00:00","16.5","ND","ND","ND","43.2","0.2","ND","ND","ND","ND","0","0"],
    [81481,"2019-08-22T20:00:00","29.2","ND","ND","ND","12.4","0.4","ND","ND","ND","ND","0","0"],
    [81482,"2019-08-22T21:00:00","37.5","ND","ND","ND","4.6","3.7","ND","ND","ND","ND","0","0.3"],
    [81483,"2019-08-22T22:00:00","41.6","ND","ND","ND","3.2","6.7","ND","ND","ND","ND","0","0"],
    [81484,"2019-08-22T23:00:00","52.4","ND","ND","ND","1.5","9.9","ND","ND","ND","ND","0","ND"],
    [81485,"2019-08-23T00:00:00","54.4","ND","ND","ND","2","2","ND","ND","ND","ND","0","0"],
    [81486,"2019-08-23T01:00:00","42.6","ND","ND","ND","1.6","3.1","ND","ND","ND","ND","0","0"],
    [81487,"2019-08-23T02:00:00","33.8","ND","ND","ND","4.7","5.7","ND","ND","ND","ND","0","0"],
    [81488,"2019-08-23T03:00:00","31.5","ND","ND","ND","2.5","3.2","ND","ND","ND","ND","0","0"],
    [81489,"2019-08-23T04:00:00","31.4","ND","ND","ND","7.2","1.3","ND","ND","ND","ND","0","0"],
    [81490,"2019-08-23T05:00:00","24.4","ND","ND","ND","7.8","0.6","ND","ND","ND","ND","0","0"],
    [81491,"2019-08-23T06:00:00","73","ND","ND","ND","2.1","5.7","ND","ND","ND","ND","0","0"],
    [81492,"2019-08-23T07:00:00","123.1","ND","ND","ND","2.8","5.5","ND","ND","ND","ND","0","0.1"],
    [81493,"2019-08-23T08:00:00","103","ND","ND","ND","6.3","5.3","ND","ND","ND","ND","117","0"],
    [81494,"2019-08-23T09:00:00","82.6","ND","ND","ND","18.5","3.5","ND","ND","ND","ND","411","0.1"],
    [81495,"2019-08-23T10:00:00","117.1","ND","ND","ND","48","1.6","ND","ND","ND","ND","627","0"],
    [81496,"2019-08-23T11:00:00","79.1","ND","ND","ND","90.5","0.9","ND","ND","ND","ND","660","0"],
    [81497,"2019-08-23T12:00:00","50.9","ND","ND","ND","113.9","0.6","ND","ND","ND","ND","649","0"],
    [81498,"2019-08-23T13:00:00","55.1","ND","ND","ND","122.6","0.5","ND","ND","ND","ND","619","0"],
    [81499,"2019-08-23T14:00:00","31.1","ND","ND","ND","124.4","0.4","ND","ND","ND","ND","639","0"],
    [81500,"2019-08-23T15:00:00","25.7","ND","ND","ND","98.8","0.2","ND","ND","ND","ND","666","0"],
    [81501,"2019-08-23T16:00:00","30","ND","ND","ND","80.3","0.2","ND","ND","ND","ND","662","0"],
    [81502,"2019-08-23T17:00:00","18.1","ND","ND","ND","64.8","0.1","ND","ND","ND","ND","661","0"],
    [81503,"2019-08-23T18:00:00","13.9","ND","ND","ND","43.9","0.1","ND","ND","ND","ND","638","0"],
    [81504,"2019-08-23T19:00:00","31.8","ND","ND","ND","40.4","0.3","ND","ND","ND","ND","0","0"],
    [81505,"2019-08-23T20:00:00","9.4","ND","ND","ND","21.8","0.3","ND","ND","ND","ND","0","0"],
    [81506,"2019-08-23T21:00:00","40.5","ND","ND","ND","2.6","3.1","ND","ND","ND","ND","0","0"],
    [81507,"2019-08-23T22:00:00","43.6","ND","ND","ND","1.6","2.6","ND","ND","ND","ND","0","0"],
    [81508,"2019-08-23T23:00:00","24.2","ND","ND","ND","1.7","5.4","ND","ND","ND","ND","0","0"],
    [81509,"2019-08-24T00:00:00","25.8","ND","ND","ND","2.4","3.2","ND","ND","ND","ND","0","0"],
    [81510,"2019-08-24T01:00:00","43.5","ND","ND","ND","2.7","1.8","ND","ND","ND","ND","0","0"],
    [81511,"2019-08-24T02:00:00","69","ND","ND","ND","1.9","3.6","ND","ND","ND","ND","0","0"],
    [81512,"2019-08-24T03:00:00","58.6","ND","ND","ND","2","1.3","ND","ND","ND","ND","0","ND"],
    [81513,"2019-08-24T04:00:00","64.8","ND","ND","ND","1.8","6.1","ND","ND","ND","ND","0","0"],
    [81514,"2019-08-24T05:00:00","79.4","ND","ND","ND","1.6","4.3","ND","ND","ND","ND","0","0"],
    [81515,"2019-08-24T06:00:00","81.6","ND","ND","ND","1.8","6.1","ND","ND","ND","ND","0","0.1"],
    [81516,"2019-08-24T07:00:00","66.7","ND","ND","ND","2.3","4.6","ND","ND","ND","ND","0","ND"],
    [81517,"2019-08-24T08:00:00","94.3","ND","ND","ND","5.7","4.5","ND","ND","ND","ND","128","2.3"],
    [81518,"2019-08-24T09:00:00","73.1","ND","ND","ND","12.9","4.2","ND","ND","ND","ND","547","0"],
    [81519,"2019-08-24T10:00:00","73.1","ND","ND","ND","47.4","1.4","ND","ND","ND","ND","626","0"],
    [81520,"2019-08-24T11:00:00","64.7","ND","ND","ND","69","1.2","ND","ND","ND","ND","665","0"],
    [81521,"2019-08-24T12:00:00","63.9","ND","ND","ND","94","0.9","ND","ND","ND","ND","665","0"],
    [81522,"2019-08-24T13:00:00","44.7","ND","ND","ND","102.3","0.3","ND","ND","ND","ND","666","0"],
    [81523,"2019-08-24T14:00:00","17.9","ND","ND","ND","94.6","0.4","ND","ND","ND","ND","609","ND"],
    [81524,"2019-08-24T15:00:00","38.7","ND","ND","ND","73.7","0.3","ND","ND","ND","ND","594","ND"],
    [81525,"2019-08-24T16:00:00","28.6","ND","ND","ND","58.3","0.2","ND","ND","ND","ND","538","0"],
    [81526,"2019-08-24T17:00:00","9.4","ND","ND","ND","55.9","0.2","ND","ND","ND","ND","263","0"],
    [81527,"2019-08-24T18:00:00","16.4","ND","ND","ND","45.8","0.1","ND","ND","ND","ND","335","0"],
    [81528,"2019-08-24T19:00:00","18.1","ND","ND","ND","31","0.5","ND","ND","ND","ND","0","1.4"],
    [81529,"2019-08-24T20:00:00","18","ND","ND","ND","23.5","0.6","ND","ND","ND","ND","0","ND"],
    [81530,"2019-08-24T21:00:00","20.6","ND","ND","ND","4.4","4.3","ND","ND","ND","ND","0","ND"],
    [81531,"2019-08-24T22:00:00","31.6","ND","ND","ND","2.1","3.7","ND","ND","ND","ND","0","0.1"],
    [81532,"2019-08-24T23:00:00","45.5","ND","ND","ND","3.3","3","ND","ND","ND","ND","0","0"],
    [81533,"2019-08-25T00:00:00","39.4","ND","ND","ND","4.3","1.7","ND","ND","ND","ND","0","0"],
    [81534,"2019-08-25T01:00:00","19.4","ND","ND","ND","2.9","2.5","ND","ND","ND","ND","0","0"],
    [81535,"2019-08-25T02:00:00","28.9","ND","ND","ND","1.7","2.4","ND","ND","ND","ND","0","0"],
    [81536,"2019-08-25T03:00:00","44.1","ND","ND","ND","1.6","1.8","ND","ND","ND","ND","0","0"],
    [81537,"2019-08-25T04:00:00","38.4","ND","ND","ND","1.6","4.7","ND","ND","ND","ND","0","ND"],
    [81538,"2019-08-25T05:00:00","33.5","ND","ND","ND","1.9","7.6","ND","ND","ND","ND","0","0.7"],
    [81539,"2019-08-25T06:00:00","65.3","ND","ND","ND","1.8","6.1","ND","ND","ND","ND","0","0.9"],
    [81540,"2019-08-25T07:00:00","63.9","ND","ND","ND","2.6","15.2","ND","ND","ND","ND","0","1.7"],
    [81541,"2019-08-25T08:00:00","70.2","ND","ND","ND","7.7","7.1","ND","ND","ND","ND","111","0.8"],
    [81542,"2019-08-25T09:00:00","74.5","ND","ND","ND","19","3.5","ND","ND","ND","ND","566","0.1"],
    [81543,"2019-08-25T10:00:00","55.5","ND","ND","ND","51.3","1.6","ND","ND","ND","ND","664","1.5"],
    [81544,"2019-08-25T11:00:00","53.8","ND","ND","ND","87.8","1","ND","ND","ND","ND","665","0"],
    [81545,"2019-08-25T12:00:00","47.7","ND","ND","ND","115","0.3","ND","ND","ND","ND","665","0"],
    [81546,"2019-08-25T13:00:00","22","ND","ND","ND","108.2","0.3","ND","ND","ND","ND","665","0"],
    [81547,"2019-08-25T14:00:00","13.5","ND","ND","ND","112","0.3","ND","ND","ND","ND","666","0"],
    [81548,"2019-08-25T15:00:00","26.8","ND","ND","ND","81.5","0.3","ND","ND","ND","ND","666","0"],
    [81549,"2019-08-25T16:00:00","18.4","ND","ND","ND","73.2","0.2","ND","ND","ND","ND","666","ND"],
    [81550,"2019-08-25T17:00:00","11.3","ND","ND","ND","55.3","0.2","ND","ND","ND","ND","659","0"],
    [81551,"2019-08-25T18:00:00","26.9","ND","ND","ND","45.3","0.3","ND","ND","ND","ND","591","0.1"],
    [81552,"2019-08-25T19:00:00","26.3","ND","ND","ND","42.4","0.3","ND","ND","ND","ND","0","0"],
    [81553,"2019-08-25T20:00:00","15.5","ND","ND","ND","37.4","0.2","ND","ND","ND","ND","0","0"],
    [81554,"2019-08-25T21:00:00","16.7","ND","ND","ND","17","0.3","ND","ND","ND","ND","0","0"],
    [81555,"2019-08-25T22:00:00","14.3","ND","ND","ND","9.3","1.4","ND","ND","ND","ND","0","ND"],
    [81556,"2019-08-25T23:00:00","22.7","ND","ND","ND","4.7","2.9","ND","ND","ND","ND","0","0"],
    [81557,"2019-08-26T00:00:00","33.7","ND","ND","ND","7.8","2.2","ND","ND","ND","ND","0","5.3"],
    [81558,"2019-08-26T01:00:00","50.2","ND","ND","ND","8.9","3.9","ND","ND","ND","ND","0","0.1"],
    [81559,"2019-08-26T02:00:00","27.8","ND","ND","ND","3.9","4.4","ND","ND","ND","ND","0","0"],
    [81560,"2019-08-26T03:00:00","27.6","ND","ND","ND","10","2.5","ND","ND","ND","ND","0","0"],
    [81561,"2019-08-26T04:00:00","22.1","ND","ND","ND","6.5","3.4","ND","ND","ND","ND","0","0"],
    [81562,"2019-08-26T05:00:00","24.1","ND","ND","ND","3.9","2.7","ND","ND","ND","ND","0","0"],
    [81563,"2019-08-26T06:00:00","62.4","ND","ND","ND","1.6","8.7","ND","ND","ND","ND","0","0"],
    [81564,"2019-08-26T07:00:00","72","ND","ND","ND","2.3","7.4","ND","ND","ND","ND","0","0.2"],
    [81565,"2019-08-26T08:00:00","103.5","ND","ND","ND","5","9.4","ND","ND","ND","ND","128","0.1"],
    [81566,"2019-08-26T09:00:00","98.2","ND","ND","ND","17.8","4.2","ND","ND","ND","ND","416","0"],
    [81567,"2019-08-26T10:00:00","57.1","ND","ND","ND","29.7","1.3","ND","ND","ND","ND","665","0"],
    [81568,"2019-08-26T11:00:00","59.1","ND","ND","ND","60.4","0.9","ND","ND","ND","ND","664","0"],
    [81569,"2019-08-26T12:00:00","49.7","ND","ND","ND","101.6","0.6","ND","ND","ND","ND","665","0"],
    [81570,"2019-08-26T13:00:00","42","ND","ND","ND","113.5","0.5","ND","ND","ND","ND","664","0"],
    [81571,"2019-08-26T14:00:00","36.7","ND","ND","ND","114.2","0.4","ND","ND","ND","ND","666","0"],
    [81572,"2019-08-26T15:00:00","29.5","ND","ND","ND","68.4","0.3","ND","ND","ND","ND","666","0"],
    [81573,"2019-08-26T16:00:00","20.9","ND","ND","ND","70.2","0.2","ND","ND","ND","ND","666","0"],
    [81574,"2019-08-26T17:00:00","20.2","ND","ND","ND","68","0.2","ND","ND","ND","ND","650","0"],
    [81575,"2019-08-26T18:00:00","12.4","ND","ND","ND","46.7","0.3","ND","ND","ND","ND","548","0"],
    [81576,"2019-08-26T19:00:00","38.3","ND","ND","ND","39.2","0.2","ND","ND","ND","ND","0","0"],
    [81577,"2019-08-26T20:00:00","30.1","ND","ND","ND","13.2","0.5","ND","ND","ND","ND","0","0"],
    [81578,"2019-08-26T21:00:00","34.8","ND","ND","ND","14.1","0.5","ND","ND","ND","ND","0","0"],
    [81579,"2019-08-26T22:00:00","28.6","ND","ND","ND","1.8","4.6","ND","ND","ND","ND","0","0"],
    [81580,"2019-08-26T23:00:00","31.6","ND","ND","ND","1.6","5.7","ND","ND","ND","ND","0","0"],
    [81581,"2019-08-27T00:00:00","46.8","ND","ND","ND","2","2.5","ND","ND","ND","ND","0","0"],
    [81582,"2019-08-27T01:00:00","49.7","ND","ND","ND","4.3","4.1","ND","ND","ND","ND","0","0"],
    [81583,"2019-08-27T02:00:00","108.5","ND","ND","ND","2.4","3.7","ND","ND","ND","ND","0","0"],
    [81584,"2019-08-27T03:00:00","77.4","ND","ND","ND","5.2","2.5","ND","ND","ND","ND","0","0"],
    [81585,"2019-08-27T04:00:00","47.9","ND","ND","ND","8","1.4","ND","ND","ND","ND","0","0"],
    [81586,"2019-08-27T05:00:00","26.4","ND","ND","ND","3.3","2.3","ND","ND","ND","ND","0","0"],
    [81587,"2019-08-27T06:00:00","39.7","ND","ND","ND","1.6","3.8","ND","ND","ND","ND","0","0"],
    [81588,"2019-08-27T07:00:00","125.4","ND","ND","ND","2.5","4.3","ND","ND","ND","ND","0","0"],
    [81589,"2019-08-27T08:00:00","91.8","ND","ND","ND","8.7","4.5","ND","ND","ND","ND","139","0"],
    [81590,"2019-08-27T09:00:00","100.2","ND","ND","ND","23","3.7","ND","ND","ND","ND","565","0"],
    [81591,"2019-08-27T10:00:00","58.9","ND","ND","ND","52.3","1.6","ND","ND","ND","ND","665","0"],
    [81592,"2019-08-27T11:00:00","52.5","ND","ND","ND","75.2","0.8","ND","ND","ND","ND","665","0"],
    [81593,"2019-08-27T12:00:00","41.1","ND","ND","ND","108.3","0.6","ND","ND","ND","ND","665","0"],
    [81594,"2019-08-27T13:00:00","30.9","ND","ND","ND","121.8","0.6","ND","ND","ND","ND","666","0"],
    [81595,"2019-08-27T14:00:00","13.4","ND","ND","ND","99.4","0.2","ND","ND","ND","ND","666","0"],
    [81596,"2019-08-27T15:00:00","24.8","ND","ND","ND","86.6","0.3","ND","ND","ND","ND","666","0"],
    [81597,"2019-08-27T16:00:00","22","ND","ND","ND","75.5","0.3","ND","ND","ND","ND","666","0"],
    [81598,"2019-08-27T17:00:00","31.3","ND","ND","ND","58.7","0.3","ND","ND","ND","ND","656","0"],
    [81599,"2019-08-27T18:00:00","41.6","ND","ND","ND","46.2","0.3","ND","ND","ND","ND","592","0"],
    [81600,"2019-08-27T19:00:00","24.3","ND","ND","ND","43.3","0.5","ND","ND","ND","ND","0","0"],
    [81601,"2019-08-27T20:00:00","22.5","ND","ND","ND","13.1","0.3","ND","ND","ND","ND","0","0"],
    [81602,"2019-08-27T21:00:00","56.4","ND","ND","ND","14.2","1.3","ND","ND","ND","ND","0","0"],
    [81603,"2019-08-27T22:00:00","59.9","ND","ND","ND","9.2","3.4","ND","ND","ND","ND","0","1"],
    [81604,"2019-08-27T23:00:00","48.5","ND","ND","ND","3.6","2","ND","ND","ND","ND","0","0"],
    [81605,"2019-08-28T00:00:00","27.9","ND","ND","ND","5.7","1.4","ND","ND","ND","ND","0","0"],
    [81606,"2019-08-28T01:00:00","54.7","ND","ND","ND","7.6","0.6","ND","ND","ND","ND","0","0"],
    [81607,"2019-08-28T02:00:00","43.3","ND","ND","ND","7.5","0.9","ND","ND","ND","ND","0","0"],
    [81608,"2019-08-28T03:00:00","19.8","ND","ND","ND","9.2","0.6","ND","ND","ND","ND","0","0"],
    [81609,"2019-08-28T04:00:00","35.9","ND","ND","ND","14.5","0.8","ND","ND","ND","ND","0","0"],
    [81610,"2019-08-28T05:00:00","115.8","ND","ND","ND","2.1","11.2","ND","ND","ND","ND","0","0"],
    [81611,"2019-08-28T06:00:00","88.2","ND","ND","ND","1.7","13","ND","ND","ND","ND","0","0"],
    [81612,"2019-08-28T07:00:00","105.5","ND","ND","ND","2.1","5.9","ND","ND","ND","ND","0","0"],
    [81613,"2019-08-28T08:00:00","104.6","ND","ND","ND","2.9","8.5","ND","ND","ND","ND","70","0"],
    [81614,"2019-08-28T09:00:00","134.5","ND","ND","ND","4.8","6.1","ND","ND","ND","ND","266","0"],
    [81615,"2019-08-28T10:00:00","150.5","ND","ND","ND","ND","5.4","ND","ND","ND","ND","459","0"],
    [81616,"2019-08-28T11:00:00","108.7","ND","ND","ND","25.4","2.2","ND","ND","ND","ND","665","0.1"],
    [81617,"2019-08-28T12:00:00","37.5","ND","ND","ND","57.2","1.2","ND","ND","ND","ND","666","0"],
    [81618,"2019-08-28T13:00:00","43.8","ND","ND","ND","81.1","0.4","ND","ND","ND","ND","664","0"],
    [81619,"2019-08-28T14:00:00","39.9","ND","ND","ND","99.2","0.4","ND","ND","ND","ND","665","0"],
    [81620,"2019-08-28T15:00:00","23.9","ND","ND","ND","76.9","0.4","ND","ND","ND","ND","666","0"],
    [81621,"2019-08-28T16:00:00","33.5","ND","ND","ND","48.8","0.4","ND","ND","ND","ND","616","0"],
    [81622,"2019-08-28T17:00:00","30.4","ND","ND","ND","49.7","0.6","ND","ND","ND","ND","480","0"],
    [81623,"2019-08-28T18:00:00","22.9","ND","ND","ND","39.6","0.3","ND","ND","ND","ND","383","0"],
    [81624,"2019-08-28T19:00:00","42.5","ND","ND","ND","25.1","0.2","ND","ND","ND","ND","0","0"],
    [81625,"2019-08-28T20:00:00","32.2","ND","ND","ND","7.8","0.5","ND","ND","ND","ND","0","0"],
    [81626,"2019-08-28T21:00:00","60.1","ND","ND","ND","2.2","5.2","ND","ND","ND","ND","0","0"],
    [81627,"2019-08-28T22:00:00","62.3","ND","ND","ND","1.6","6.6","ND","ND","ND","ND","0","0"],
    [81628,"2019-08-28T23:00:00","116.3","ND","ND","ND","1.6","7.2","ND","ND","ND","ND","0","0"],
    [81629,"2019-08-29T00:00:00","91.8","ND","ND","ND","1.6","6.2","ND","ND","ND","ND","0","0"],
    [81630,"2019-08-29T01:00:00","60","ND","ND","ND","1.7","5.4","ND","ND","ND","ND","0","0"],
    [81631,"2019-08-29T02:00:00","33.5","ND","ND","ND","1.5","4.6","ND","ND","ND","ND","0","0"],
    [81632,"2019-08-29T03:00:00","43.9","ND","ND","ND","1.3","5","ND","ND","ND","ND","0","0"],
    [81633,"2019-08-29T04:00:00","37.1","ND","ND","ND","3.4","3.6","ND","ND","ND","ND","0","0"],
    [81634,"2019-08-29T05:00:00","33.5","ND","ND","ND","5.3","2","ND","ND","ND","ND","0","0"],
    [81635,"2019-08-29T06:00:00","32.9","ND","ND","ND","3.4","1.1","ND","ND","ND","ND","0","0"],
    [81636,"2019-08-29T07:00:00","79.1","ND","ND","ND","2.8","3.4","ND","ND","ND","ND","0","0"],
    [81637,"2019-08-29T08:00:00","127.8","ND","ND","ND","11.6","4.5","ND","ND","ND","ND","129","0"],
    [81638,"2019-08-29T09:00:00","69.6","ND","ND","ND","36.6","1.8","ND","ND","ND","ND","560","0"],
    [81639,"2019-08-29T10:00:00","55.3","ND","ND","ND","59.8","0.9","ND","ND","ND","ND","665","0"],
    [81640,"2019-08-29T11:00:00","51.6","ND","ND","ND","79.9","0.9","ND","ND","ND","ND","665","0"],
    [81641,"2019-08-29T12:00:00","34.2","ND","ND","ND","97.2","0.7","ND","ND","ND","ND","665","0"],
    [81642,"2019-08-29T13:00:00","28.1","ND","ND","ND","90.8","0.4","ND","ND","ND","ND","666","0"],
    [81643,"2019-08-29T14:00:00","22.8","ND","ND","ND","88.8","0.3","ND","ND","ND","ND","658","0"],
    [81644,"2019-08-29T15:00:00","26.6","ND","ND","ND","72.8","0.4","ND","ND","ND","ND","605","0"],
    [81645,"2019-08-29T16:00:00","39.1","ND","ND","ND","73.9","0.3","ND","ND","ND","ND","639","0"],
    [81646,"2019-08-29T17:00:00","30.4","ND","ND","ND","59.8","0.2","ND","ND","ND","ND","658","0"],
    [81647,"2019-08-29T18:00:00","24.7","ND","ND","ND","49.8","0.3","ND","ND","ND","ND","621","0"],
    [81648,"2019-08-29T19:00:00","20.1","ND","ND","ND","35.6","0.2","ND","ND","ND","ND","0","0"],
    [81649,"2019-08-29T20:00:00","23.1","ND","ND","ND","18.2","0.4","ND","ND","ND","ND","0","0"],
    [81650,"2019-08-29T21:00:00","32.6","ND","ND","ND","7.2","1.7","ND","ND","ND","ND","0","0"],
    [81651,"2019-08-29T22:00:00","40.7","ND","ND","ND","2.8","4.6","ND","ND","ND","ND","0","0"],
    [81652,"2019-08-29T23:00:00","39.5","ND","ND","ND","2.8","2.5","ND","ND","ND","ND","0","0"],
    [81653,"2019-08-30T00:00:00","47.4","ND","ND","ND","2.9","3.4","ND","ND","ND","ND","0","0"],
    [81654,"2019-08-30T01:00:00","46.4","ND","ND","ND","2.9","2","ND","ND","ND","ND","0","ND"],
    [81655,"2019-08-30T02:00:00","41.1","ND","ND","ND","2.9","2.6","ND","ND","ND","ND","0","ND"],
    [81656,"2019-08-30T03:00:00","57.6","ND","ND","ND","1.3","5.9","ND","ND","ND","ND","0","ND"],
    [81657,"2019-08-30T04:00:00","64.6","ND","ND","ND","1.6","3.1","ND","ND","ND","ND","0","ND"],
    [81658,"2019-08-30T05:00:00","43.9","ND","ND","ND","2","2.4","ND","ND","ND","ND","0","ND"],
    [81659,"2019-08-30T06:00:00","78","ND","ND","ND","1.7","2.4","ND","ND","ND","ND","0","ND"],
    [81660,"2019-08-30T07:00:00","141.6","ND","ND","ND","2.1","3.6","ND","ND","ND","ND","0","ND"],
    [81661,"2019-08-30T08:00:00","138.1","ND","ND","ND","5.9","4.2","ND","ND","ND","ND","132","ND"],
    [81662,"2019-08-30T09:00:00","113.2","ND","ND","ND","23.4","3.4","ND","ND","ND","ND","ND","ND"],
    [81663,"2019-08-30T10:00:00","71.4","ND","ND","ND","51.4","1.2","ND","ND","ND","ND","665","ND"],
    [81664,"2019-08-30T11:00:00","32.6","ND","ND","ND","86.4","0.5","ND","ND","ND","ND","665","ND"],
    [81665,"2019-08-30T12:00:00","25.6","ND","ND","ND","113.1","0.4","ND","ND","ND","ND","665","ND"],
    [81666,"2019-08-30T13:00:00","33","ND","ND","ND","139.3","0.5","ND","ND","ND","ND","665","ND"],
    [81667,"2019-08-30T14:00:00","51.1","ND","ND","ND","94","0.6","ND","ND","ND","ND","666","ND"],
    [81668,"2019-08-30T15:00:00","23.5","ND","ND","ND","52.8","0.2","ND","ND","ND","ND","645","ND"],
    [81669,"2019-08-30T16:00:00","14.3","ND","ND","ND","48.5","0.3","ND","ND","ND","ND","663","ND"],
    [81670,"2019-08-30T17:00:00","26.4","ND","ND","ND","48.6","0.3","ND","ND","ND","ND","651","ND"],
    [81671,"2019-08-30T18:00:00","35.3","ND","ND","ND","40.3","0.2","ND","ND","ND","ND","538","ND"],
    [81672,"2019-08-30T19:00:00","32.2","ND","ND","ND","27.8","0.2","ND","ND","ND","ND","0","ND"],
    [81673,"2019-08-30T20:00:00","32.3","ND","ND","ND","4.3","0.2","ND","ND","ND","ND","0","ND"],
    [81674,"2019-08-30T21:00:00","49.8","ND","ND","ND","3.3","3.4","ND","ND","ND","ND","0","ND"],
    [81675,"2019-08-30T22:00:00","63.3","ND","ND","ND","1.9","4.9","ND","ND","ND","ND","0","ND"],
    [81676,"2019-08-30T23:00:00","31.9","ND","ND","ND","1.4","5.9","ND","ND","ND","ND","0","ND"],
    [81677,"2019-08-31T00:00:00","48.5","ND","ND","ND","1.4","4.6","ND","ND","ND","ND","0","ND"],
    [81678,"2019-08-31T01:00:00","18.8","ND","ND","ND","2.1","0.9","ND","ND","ND","ND","0","0"],
    [81679,"2019-08-31T02:00:00","24.2","ND","ND","ND","6.7","1.3","ND","ND","ND","ND","0","0"],
    [81680,"2019-08-31T03:00:00","35.4","ND","ND","ND","6.2","2.2","ND","ND","ND","ND","0","0"],
    [81681,"2019-08-31T04:00:00","71","ND","ND","ND","6.2","3.1","ND","ND","ND","ND","0","0"],
    [81682,"2019-08-31T05:00:00","33.7","ND","ND","ND","4.7","2.6","ND","ND","ND","ND","0","0"],
    [81683,"2019-08-31T06:00:00","65","ND","ND","ND","1.8","4.3","ND","ND","ND","ND","0","0"],
    [81684,"2019-08-31T07:00:00","100.6","ND","ND","ND","2.4","7.3","ND","ND","ND","ND","0","0"],
    [81685,"2019-08-31T08:00:00","68.5","ND","ND","ND","4.3","8.1","ND","ND","ND","ND","60","0"],
    [81686,"2019-08-31T09:00:00","96","ND","ND","ND","16.2","4","ND","ND","ND","ND","279","0"],
    [81687,"2019-08-31T10:00:00","75.4","ND","ND","ND","39.4","2.7","ND","ND","ND","ND","583","0"],
    [81688,"2019-08-31T11:00:00","71.3","ND","ND","ND","73.6","1.3","ND","ND","ND","ND","641","0"],
    [81689,"2019-08-31T12:00:00","58","ND","ND","ND","104.3","0.7","ND","ND","ND","ND","665","0"],
    [81690,"2019-08-31T13:00:00","44.9","ND","ND","ND","95.6","0.4","ND","ND","ND","ND","665","4.1"],
    [81691,"2019-08-31T14:00:00","34","ND","ND","ND","61.3","0.4","ND","ND","ND","ND","656","0"],
    [81692,"2019-08-31T15:00:00","14.2","ND","ND","ND","52.9","0.4","ND","ND","ND","ND","666","0"],
    [81693,"2019-08-31T16:00:00","8.7","ND","ND","ND","49.8","0.5","ND","ND","ND","ND","606","0"],
    [81694,"2019-08-31T17:00:00","14.2","ND","ND","ND","41.7","0.4","ND","ND","ND","ND","619","3"],
    [81695,"2019-08-31T18:00:00","9.9","ND","ND","ND","30.3","0.3","ND","ND","ND","ND","260","2"],
    [81696,"2019-08-31T19:00:00","19.7","ND","ND","ND","19.7","0.4","ND","ND","ND","ND","0","0.1"],
    [81697,"2019-08-31T20:00:00","17.8","ND","ND","ND","15.2","0.4","ND","ND","ND","ND","0","0"],
    [81698,"2019-08-31T21:00:00","20.7","ND","ND","ND","2.5","5.1","ND","ND","ND","ND","0","0"],
    [81699,"2019-08-31T22:00:00","32.2","ND","ND","ND","1.5","2.4","ND","ND","ND","ND","0","0"],
    [81700,"2019-08-31T23:00:00","21.4","ND","ND","ND","1.2","0.9","ND","ND","ND","ND","0","0"],
    [81701,"2019-09-01T00:00:00","21.9","ND","ND","ND","1.2","2.4","ND","ND","ND","ND","0","0"],
    [81702,"2019-09-01T01:00:00","26.9","ND","ND","ND","1.3","4.9","ND","ND","ND","ND","0","11.6"],
    [81703,"2019-09-01T02:00:00","32.5","ND","ND","ND","1.5","4.2","ND","ND","ND","ND","0","3.6"],
    [81704,"2019-09-01T03:00:00","35.3","ND","ND","ND","1.9","4.4","ND","ND","ND","ND","0","1.3"],
    [81705,"2019-09-01T04:00:00","34.2","ND","ND","ND","1.7","4.3","ND","ND","ND","ND","0","0.5"],
    [81706,"2019-09-01T05:00:00","47.4","ND","ND","ND","1.4","3.6","ND","ND","ND","ND","0","0.9"],
    [81707,"2019-09-01T06:00:00","48.6","ND","ND","ND","2.1","6.6","ND","ND","ND","ND","0","0.7"],
    [81708,"2019-09-01T07:00:00","53.4","ND","ND","ND","2.3","3","ND","ND","ND","ND","0","0.3"],
    [81709,"2019-09-01T08:00:00","64.9","ND","ND","ND","5","5.5","ND","ND","ND","ND","41","0.2"],
    [81710,"2019-09-01T09:00:00","52.3","ND","ND","ND","9.7","5.6","ND","ND","ND","ND","260","0"],
    [81711,"2019-09-01T10:00:00","55.7","ND","ND","ND","25.6","3.2","ND","ND","ND","ND","591","0.4"],
    [81712,"2019-09-01T11:00:00","37.3","ND","ND","ND","42.1","1.4","ND","ND","ND","ND","ND","0"],
    [81713,"2019-09-01T12:00:00","36.5","ND","ND","ND","58.3","0.9","ND","ND","ND","ND","660","0"],
    [81714,"2019-09-01T13:00:00","30.4","ND","ND","ND","60.5","0.8","ND","ND","ND","ND","665","0"],
    [81715,"2019-09-01T14:00:00","28.9","ND","ND","ND","68","0.6","ND","ND","ND","ND","ND","0"],
    [81716,"2019-09-01T15:00:00","17.4","ND","ND","ND","60.2","0.2","ND","ND","ND","ND","666","0"],
    [81717,"2019-09-01T16:00:00","21.8","ND","ND","ND","49","0.6","ND","ND","ND","ND","652","0"],
    [81718,"2019-09-01T17:00:00","12.8","ND","ND","ND","37.2","0.6","ND","ND","ND","ND","ND","0"],
    [81719,"2019-09-01T18:00:00","16","ND","ND","ND","35.3","0.3","ND","ND","ND","ND","323","0"],
    [81720,"2019-09-01T19:00:00","16.9","ND","ND","ND","25.7","0.4","ND","ND","ND","ND","0","0"],
    [81721,"2019-09-01T20:00:00","8.2","ND","ND","ND","21.7","0.3","ND","ND","ND","ND","0","3.1"],
    [81722,"2019-09-01T21:00:00","13.2","ND","ND","ND","18.4","0.6","ND","ND","ND","ND","0","2.2"],
    [81723,"2019-09-01T22:00:00","24.5","ND","ND","ND","4.2","2.9","ND","ND","ND","ND","0","0.7"],
    [81724,"2019-09-01T23:00:00","45","ND","ND","ND","2","1.7","ND","ND","ND","ND","0","1.2"],
    [81725,"2019-09-02T00:00:00","23.4","ND","ND","ND","1.6","3.5","ND","ND","ND","ND","0","1.2"],
    [81726,"2019-09-02T01:00:00","22.6","ND","ND","ND","6.1","0.5","ND","ND","ND","ND","0","0"],
    [81727,"2019-09-02T02:00:00","18.7","ND","ND","ND","9.8","1","ND","ND","ND","ND","0","0"],
    [81728,"2019-09-02T03:00:00","15.8","ND","ND","ND","5.6","2.4","ND","ND","ND","ND","0","ND"],
    [81729,"2019-09-02T04:00:00","25.5","ND","ND","ND","7.7","4.2","ND","ND","ND","ND","0","0"],
    [81730,"2019-09-02T05:00:00","24.9","ND","ND","ND","2.5","6.1","ND","ND","ND","ND","0","0"],
    [81731,"2019-09-02T06:00:00","52.7","ND","ND","ND","2","5.4","ND","ND","ND","ND","0","0"],
    [81732,"2019-09-02T07:00:00","77.8","ND","ND","ND","1.7","5.6","ND","ND","ND","ND","0","0"],
    [81733,"2019-09-02T08:00:00","72.8","ND","ND","ND","5.8","4.3","ND","ND","ND","ND","141","0"],
    [81734,"2019-09-02T09:00:00","52","ND","ND","ND","15.5","3.5","ND","ND","ND","ND","554","0"],
    [81735,"2019-09-02T10:00:00","50.7","ND","ND","ND","37.8","1.7","ND","ND","ND","ND","646","ND"],
    [81736,"2019-09-02T11:00:00","46.2","ND","ND","ND","47.6","1","ND","ND","ND","ND","665","0"],
    [81737,"2019-09-02T12:00:00","41.6","ND","ND","ND","56.7","1.7","ND","ND","ND","ND","664","ND"],
    [81738,"2019-09-02T13:00:00","31.8","ND","ND","ND","57.8","0.7","ND","ND","ND","ND","ND","ND"],
    [81739,"2019-09-02T14:00:00","38.4","ND","ND","ND","51.7","0.4","ND","ND","ND","ND","666","ND"],
    [81740,"2019-09-02T15:00:00","29.5","ND","ND","ND","45.4","0.4","ND","ND","ND","ND","ND","ND"],
    [81741,"2019-09-02T16:00:00","23.1","ND","ND","ND","40.4","0.4","ND","ND","ND","ND","ND","ND"],
    [81742,"2019-09-02T17:00:00","15.2","ND","ND","ND","35.6","0.3","ND","ND","ND","ND","662","ND"],
    [81743,"2019-09-02T18:00:00","13.9","ND","ND","ND","30.7","0.3","ND","ND","ND","ND","632","ND"],
    [81744,"2019-09-02T19:00:00","17","ND","ND","ND","23.3","0.3","ND","ND","ND","ND","0","0"],
    [81745,"2019-09-02T20:00:00","17","ND","ND","ND","4.8","0.4","ND","ND","ND","ND","0","0"],
    [81746,"2019-09-02T21:00:00","30.4","ND","ND","ND","6.8","0.3","ND","ND","ND","ND","0","0"],
    [81747,"2019-09-02T22:00:00","35.7","ND","ND","ND","2","3.1","ND","ND","ND","ND","0","0.1"],
    [81748,"2019-09-02T23:00:00","45.6","ND","ND","ND","1.5","5","ND","ND","ND","ND","0","ND"],
    [81749,"2019-09-03T00:00:00","32.6","ND","ND","ND","1.4","3.3","ND","ND","ND","ND","0","ND"],
    [81750,"2019-09-03T01:00:00","51.3","ND","ND","ND","4","2.8","ND","ND","ND","ND","0","0"],
    [81751,"2019-09-03T02:00:00","36.5","ND","ND","ND","5.4","3.6","ND","ND","ND","ND","0","0"],
    [81752,"2019-09-03T03:00:00","39.7","ND","ND","ND","1.9","3","ND","ND","ND","ND","0","4.2"],
    [81753,"2019-09-03T04:00:00","23.6","ND","ND","ND","1.8","2.7","ND","ND","ND","ND","0","0.1"],
    [81754,"2019-09-03T05:00:00","44.2","ND","ND","ND","3.7","1.7","ND","ND","ND","ND","0","0.1"],
    [81755,"2019-09-03T06:00:00","36.8","ND","ND","ND","2.3","1.5","ND","ND","ND","ND","0","0"],
    [81756,"2019-09-03T07:00:00","81.3","ND","ND","ND","2.2","5.9","ND","ND","ND","ND","0","ND"],
    [81757,"2019-09-03T08:00:00","113.7","ND","ND","ND","3.8","6.8","ND","ND","ND","ND","90","ND"],
    [81758,"2019-09-03T09:00:00","103.1","ND","ND","ND","7.3","6.4","ND","ND","ND","ND","272","0"],
    [81759,"2019-09-03T10:00:00","115.7","ND","ND","ND","21.4","4.7","ND","ND","ND","ND","441","ND"],
    [81760,"2019-09-03T11:00:00","72.4","ND","ND","ND","53.6","1.1","ND","ND","ND","ND","ND","ND"],
    [81761,"2019-09-03T12:00:00","51.9","ND","ND","ND","90","1","ND","ND","ND","ND","664","ND"],
    [81762,"2019-09-03T13:00:00","27","ND","ND","ND","117.9","0.5","ND","ND","ND","ND","665","0"],
    [81763,"2019-09-03T14:00:00","20.4","ND","ND","ND","93.5","0.7","ND","ND","ND","ND","666","0"],
    [81764,"2019-09-03T15:00:00","29.5","ND","ND","ND","53.5","0.2","ND","ND","ND","ND","666","0"],
    [81765,"2019-09-03T16:00:00","39.3","ND","ND","ND","48.4","0.2","ND","ND","ND","ND","666","0"],
    [81766,"2019-09-03T17:00:00","36.7","ND","ND","ND","45.5","0.3","ND","ND","ND","ND","666","0"],
    [81767,"2019-09-03T18:00:00","46.4","ND","ND","ND","37.5","0.1","ND","ND","ND","ND","417","ND"],
    [81768,"2019-09-03T19:00:00","39.5","ND","ND","ND","34.4","0.3","ND","ND","ND","ND","0","ND"],
    [81769,"2019-09-03T20:00:00","34.5","ND","ND","ND","10.6","0.5","ND","ND","ND","ND","0","ND"],
    [81770,"2019-09-03T21:00:00","38","ND","ND","ND","10.4","1.8","ND","ND","ND","ND","0","0"],
    [81771,"2019-09-03T22:00:00","29.3","ND","ND","ND","12","0.8","ND","ND","ND","ND","0","0"],
    [81772,"2019-09-03T23:00:00","27.7","ND","ND","ND","8.3","0.7","ND","ND","ND","ND","0","ND"],
    [81773,"2019-09-04T00:00:00","18.2","ND","ND","ND","7.9","2.7","ND","ND","ND","ND","0","ND"],
    [81774,"2019-09-04T01:00:00","14.9","ND","ND","ND","8.5","1.1","ND","ND","ND","ND","0","0"],
    [81775,"2019-09-04T02:00:00","32.5","ND","ND","ND","8.6","1.1","ND","ND","ND","ND","0","0"],
    [81776,"2019-09-04T03:00:00","100.5","ND","ND","ND","3.5","4.9","ND","ND","ND","ND","0","0"],
    [81777,"2019-09-04T04:00:00","53.9","ND","ND","ND","1.8","5.2","ND","ND","ND","ND","0","ND"],
    [81778,"2019-09-04T05:00:00","35.1","ND","ND","ND","4.8","2.2","ND","ND","ND","ND","0","0"],
    [81779,"2019-09-04T06:00:00","31.1","ND","ND","ND","1.9","3.2","ND","ND","ND","ND","0","0"],
    [81780,"2019-09-04T07:00:00","49.6","ND","ND","ND","2.5","3.2","ND","ND","ND","ND","0","0"],
    [81781,"2019-09-04T08:00:00","54.8","ND","ND","ND","6.3","3.5","ND","ND","ND","ND","138","0"],
    [81782,"2019-09-04T09:00:00","64.4","ND","ND","ND","22.3","2.9","ND","ND","ND","ND","421","0"],
    [81783,"2019-09-04T10:00:00","78.8","ND","ND","ND","43.3","1.8","ND","ND","ND","ND","593","0"],
    [81784,"2019-09-04T11:00:00","62.5","ND","ND","ND","71.8","0.8","ND","ND","ND","ND","665","0"],
    [81785,"2019-09-04T12:00:00","40.4","ND","ND","ND","73","1.1","ND","ND","ND","ND","664","0"],
    [81786,"2019-09-04T13:00:00","34.8","ND","ND","ND","78.3","0.7","ND","ND","ND","ND","666","0"],
    [81787,"2019-09-04T14:00:00","22.8","ND","ND","ND","69.8","0.4","ND","ND","ND","ND","666","0"],
    [81788,"2019-09-04T15:00:00","24.2","ND","ND","ND","57.1","0.4","ND","ND","ND","ND","666","0"],
    [81789,"2019-09-04T16:00:00","24.7","ND","ND","ND","62.3","0.2","ND","ND","ND","ND","618","0"],
    [81790,"2019-09-04T17:00:00","25.2","ND","ND","ND","51.2","0.2","ND","ND","ND","ND","595","0"],
    [81791,"2019-09-04T18:00:00","17.6","ND","ND","ND","44.1","0.3","ND","ND","ND","ND","602","0"],
    [81792,"2019-09-04T19:00:00","18","ND","ND","ND","32","0.2","ND","ND","ND","ND","0","0"],
    [81793,"2019-09-04T20:00:00","11.9","ND","ND","ND","6.2","0.6","ND","ND","ND","ND","0","0"],
    [81794,"2019-09-04T21:00:00","33.3","ND","ND","ND","13.1","1.6","ND","ND","ND","ND","0","0"],
    [81795,"2019-09-04T22:00:00","28.3","ND","ND","ND","4","1.6","ND","ND","ND","ND","0","0"],
    [81796,"2019-09-04T23:00:00","34.5","ND","ND","ND","2.8","2.2","ND","ND","ND","ND","0","0"],
    [81797,"2019-09-05T00:00:00","33.8","ND","ND","ND","2.7","2.2","ND","ND","ND","ND","0","0"],
    [81798,"2019-09-05T01:00:00","37.1","ND","ND","ND","4","1.7","ND","ND","ND","ND","0","0"],
    [81799,"2019-09-05T02:00:00","35.9","ND","ND","ND","6.8","2.6","ND","ND","ND","ND","0","0"],
    [81800,"2019-09-05T03:00:00","20.7","ND","ND","ND","4.2","2.3","ND","ND","ND","ND","0","0"],
    [81801,"2019-09-05T04:00:00","29.2","ND","ND","ND","7.7","2","ND","ND","ND","ND","0","0"],
    [81802,"2019-09-05T05:00:00","51.3","ND","ND","ND","5.3","1.6","ND","ND","ND","ND","0","0.1"],
    [81803,"2019-09-05T06:00:00","59.1","ND","ND","ND","1.9","3.7","ND","ND","ND","ND","0","0"],
    [81804,"2019-09-05T07:00:00","66.4","ND","ND","ND","2.1","5.6","ND","ND","ND","ND","0","ND"],
    [81805,"2019-09-05T08:00:00","67","ND","ND","ND","6.2","6.1","ND","ND","ND","ND","86","0"],
    [81806,"2019-09-05T09:00:00","70.3","ND","ND","ND","19.7","1.5","ND","ND","ND","ND","519","0"],
    [81807,"2019-09-05T10:00:00","76.9","ND","ND","ND","41","1.3","ND","ND","ND","ND","622","0"],
    [81808,"2019-09-05T11:00:00","55.1","ND","ND","ND","56.4","0.5","ND","ND","ND","ND","655","0"],
    [81809,"2019-09-05T12:00:00","40.7","ND","ND","ND","93.5","0.9","ND","ND","ND","ND","665","0"],
    [81810,"2019-09-05T13:00:00","43.8","ND","ND","ND","119.5","0.6","ND","ND","ND","ND","666","0"],
    [81811,"2019-09-05T14:00:00","39.6","ND","ND","ND","72.9","0.4","ND","ND","ND","ND","664","0"],
    [81812,"2019-09-05T15:00:00","30.6","ND","ND","ND","53.1","0.3","ND","ND","ND","ND","663","0"],
    [81813,"2019-09-05T16:00:00","38.8","ND","ND","ND","42.3","0.1","ND","ND","ND","ND","503","0"],
    [81814,"2019-09-05T17:00:00","21.4","ND","ND","ND","43.1","0.2","ND","ND","ND","ND","416","0"],
    [81815,"2019-09-05T18:00:00","2.3","ND","ND","ND","39.5","0.2","ND","ND","ND","ND","478","0"],
    [81816,"2019-09-05T19:00:00","10","ND","ND","ND","35.2","0.2","ND","ND","ND","ND","0","0"],
    [81817,"2019-09-05T20:00:00","36.2","ND","ND","ND","16.7","0.4","ND","ND","ND","ND","0","0"],
    [81818,"2019-09-05T21:00:00","43.7","ND","ND","ND","4.2","1.7","ND","ND","ND","ND","0","0"],
    [81819,"2019-09-05T22:00:00","40.1","ND","ND","ND","4.2","1.5","ND","ND","ND","ND","0","0"],
    [81820,"2019-09-05T23:00:00","34.8","ND","ND","ND","2","3.6","ND","ND","ND","ND","0","0"],
    [81821,"2019-09-06T00:00:00","38.3","ND","ND","ND","2","4","ND","ND","ND","ND","0","0"],
    [81822,"2019-09-06T01:00:00","23.4","ND","ND","ND","7.1","1.5","ND","ND","ND","ND","0","0"],
    [81823,"2019-09-06T02:00:00","21.5","ND","ND","ND","6.1","3.7","ND","ND","ND","ND","0","0"],
    [81824,"2019-09-06T03:00:00","33.9","ND","ND","ND","8.3","2.5","ND","ND","ND","ND","0","0"],
    [81825,"2019-09-06T04:00:00","39.6","ND","ND","ND","7","2.7","ND","ND","ND","ND","0","0"],
    [81826,"2019-09-06T05:00:00","55.2","ND","ND","ND","4.3","2.2","ND","ND","ND","ND","0","0"],
    [81827,"2019-09-06T06:00:00","58.4","ND","ND","ND","1.9","2","ND","ND","ND","ND","0","0"],
    [81828,"2019-09-06T07:00:00","70.4","ND","ND","ND","2.3","4","ND","ND","ND","ND","0","0"],
    [81829,"2019-09-06T08:00:00","79.3","ND","ND","ND","6.3","3.2","ND","ND","ND","ND","111","0"],
    [81830,"2019-09-06T09:00:00","79.7","ND","ND","ND","17","2.3","ND","ND","ND","ND","513","0"],
    [81831,"2019-09-06T10:00:00","46.3","ND","ND","ND","37.5","0.7","ND","ND","ND","ND","664","0"],
    [81832,"2019-09-06T11:00:00","34.7","ND","ND","ND","54.4","1.1","ND","ND","ND","ND","665","0"],
    [81833,"2019-09-06T12:00:00","37.2","ND","ND","ND","65.9","0.8","ND","ND","ND","ND","665","0"],
    [81834,"2019-09-06T13:00:00","28.9","ND","ND","ND","60.8","0.5","ND","ND","ND","ND","662","0"],
    [81835,"2019-09-06T14:00:00","24","ND","ND","ND","67","0.2","ND","ND","ND","ND","659","0"],
    [81836,"2019-09-06T15:00:00","35.5","ND","ND","ND","65","0.4","ND","ND","ND","ND","665","0"],
    [81837,"2019-09-06T16:00:00","26.1","ND","ND","ND","59.8","0.3","ND","ND","ND","ND","666","0"],
    [81838,"2019-09-06T17:00:00","21.3","ND","ND","ND","50.4","0.1","ND","ND","ND","ND","628","0"],
    [81839,"2019-09-06T18:00:00","15.4","ND","ND","ND","35.4","0.2","ND","ND","ND","ND","564","0.3"],
    [81840,"2019-09-06T19:00:00","7.4","ND","ND","ND","19.7","0.3","ND","ND","ND","ND","0","0"],
    [81841,"2019-09-06T20:00:00","29.4","ND","ND","ND","6.6","0.7","ND","ND","ND","ND","0","0"],
    [81842,"2019-09-06T21:00:00","41.9","ND","ND","ND","2.3","5","ND","ND","ND","ND","0","0"],
    [81843,"2019-09-06T22:00:00","53.1","ND","ND","ND","3.5","6","ND","ND","ND","ND","0","0"],
    [81844,"2019-09-06T23:00:00","49.4","ND","ND","ND","2.4","4.4","ND","ND","ND","ND","0","0"],
    [81845,"2019-09-07T00:00:00","45.7","ND","ND","ND","1.6","4.4","ND","ND","ND","ND","0","0"],
    [81846,"2019-09-07T01:00:00","41","ND","ND","ND","3","3.8","ND","ND","ND","ND","0","0"],
    [81847,"2019-09-07T02:00:00","17.3","ND","ND","ND","5.2","3.7","ND","ND","ND","ND","0","0"],
    [81848,"2019-09-07T03:00:00","21.1","ND","ND","ND","2.1","4","ND","ND","ND","ND","0","0"],
    [81849,"2019-09-07T04:00:00","32.4","ND","ND","ND","1.7","3.9","ND","ND","ND","ND","0","0"],
    [81850,"2019-09-07T05:00:00","22","ND","ND","ND","1.5","1.9","ND","ND","ND","ND","0","0"],
    [81851,"2019-09-07T06:00:00","43.2","ND","ND","ND","1.5","5.5","ND","ND","ND","ND","0","0"],
    [81852,"2019-09-07T07:00:00","52.4","ND","ND","ND","2.5","4.8","ND","ND","ND","ND","0","0"],
    [81853,"2019-09-07T08:00:00","76.7","ND","ND","ND","11.1","3.4","ND","ND","ND","ND","139","0"],
    [81854,"2019-09-07T09:00:00","67.3","ND","ND","ND","34.6","2","ND","ND","ND","ND","558","0"],
    [81855,"2019-09-07T10:00:00","48.8","ND","ND","ND","60.3","0.7","ND","ND","ND","ND","665","0"],
    [81856,"2019-09-07T11:00:00","44.9","ND","ND","ND","84.9","0.7","ND","ND","ND","ND","665","0"],
    [81857,"2019-09-07T12:00:00","51.2","ND","ND","ND","114.5","0.6","ND","ND","ND","ND","665","0"],
    [81858,"2019-09-07T13:00:00","51.3","ND","ND","ND","139.2","0.3","ND","ND","ND","ND","665","0"],
    [81859,"2019-09-07T14:00:00","46.7","ND","ND","ND","73.5","0.2","ND","ND","ND","ND","666","0"],
    [81860,"2019-09-07T15:00:00","39.8","ND","ND","ND","74.9","0.3","ND","ND","ND","ND","646","0"],
    [81861,"2019-09-07T16:00:00","25.6","ND","ND","ND","66.8","0.2","ND","ND","ND","ND","649","0"],
    [81862,"2019-09-07T17:00:00","29.6","ND","ND","ND","59.2","0.2","ND","ND","ND","ND","653","0"],
    [81863,"2019-09-07T18:00:00","25.8","ND","ND","ND","53.6","0.2","ND","ND","ND","ND","583","0"],
    [81864,"2019-09-07T19:00:00","20.4","ND","ND","ND","47.3","0.1","ND","ND","ND","ND","0","0"],
    [81865,"2019-09-07T20:00:00","24.1","ND","ND","ND","23.1","0.6","ND","ND","ND","ND","0","0.4"],
    [81866,"2019-09-07T21:00:00","28.9","ND","ND","ND","22","0.5","ND","ND","ND","ND","0","0.5"],
    [81867,"2019-09-07T22:00:00","26.7","ND","ND","ND","15.4","1.1","ND","ND","ND","ND","0","1.3"],
    [81868,"2019-09-07T23:00:00","28.2","ND","ND","ND","6.2","5","ND","ND","ND","ND","0","0.1"],
    [81869,"2019-09-08T00:00:00","32.9","ND","ND","ND","4.1","6","ND","ND","ND","ND","0","0.2"],
    [81870,"2019-09-08T01:00:00","45.8","ND","ND","ND","8.4","4.5","ND","ND","ND","ND","0","0"],
    [81871,"2019-09-08T02:00:00","34.1","ND","ND","ND","8.8","2.6","ND","ND","ND","ND","0","0"],
    [81872,"2019-09-08T03:00:00","39.4","ND","ND","ND","8.6","2.3","ND","ND","ND","ND","0","0"],
    [81873,"2019-09-08T04:00:00","6.1","ND","ND","ND","5.1","2.4","ND","ND","ND","ND","0","0"],
    [81874,"2019-09-08T05:00:00","38.4","ND","ND","ND","5.5","3","ND","ND","ND","ND","0","0"],
    [81875,"2019-09-08T06:00:00","93.2","ND","ND","ND","4.2","4.7","ND","ND","ND","ND","0","0"],
    [81876,"2019-09-08T07:00:00","85.2","ND","ND","ND","3.5","3.1","ND","ND","ND","ND","0","0"],
    [81877,"2019-09-08T08:00:00","64.9","ND","ND","ND","14.6","7.5","ND","ND","ND","ND","136","0"],
    [81878,"2019-09-08T09:00:00","72.4","ND","ND","ND","35.8","3.9","ND","ND","ND","ND","491","0"],
    [81879,"2019-09-08T10:00:00","51.3","ND","ND","ND","63.8","1.9","ND","ND","ND","ND","665","0"],
    [81880,"2019-09-08T11:00:00","47.6","ND","ND","ND","94.4","0.6","ND","ND","ND","ND","665","0"],
    [81881,"2019-09-08T12:00:00","46.6","ND","ND","ND","127.7","0.5","ND","ND","ND","ND","665","0"],
    [81882,"2019-09-08T13:00:00","36.2","ND","ND","ND","132.6","0.5","ND","ND","ND","ND","665","0"],
    [81883,"2019-09-08T14:00:00","28.6","ND","ND","ND","127.4","0.2","ND","ND","ND","ND","666","0"],
    [81884,"2019-09-08T15:00:00","17","ND","ND","ND","94.3","0.3","ND","ND","ND","ND","666","0"],
    [81885,"2019-09-08T16:00:00","18.9","ND","ND","ND","69.8","0.3","ND","ND","ND","ND","665","0"],
    [81886,"2019-09-08T17:00:00","13.7","ND","ND","ND","54.4","0.2","ND","ND","ND","ND","666","0"],
    [81887,"2019-09-08T18:00:00","8.4","ND","ND","ND","49.9","0.2","ND","ND","ND","ND","309","0"],
    [81888,"2019-09-08T19:00:00","6.7","ND","ND","ND","38","0.3","ND","ND","ND","ND","0","0"],
    [81889,"2019-09-08T20:00:00","21.3","ND","ND","ND","12.4","1.1","ND","ND","ND","ND","0","0"],
    [81890,"2019-09-08T21:00:00","34.4","ND","ND","ND","8.6","1.5","ND","ND","ND","ND","0","0"],
    [81891,"2019-09-08T22:00:00","33.8","ND","ND","ND","5.9","2.3","ND","ND","ND","ND","0","0"],
    [81892,"2019-09-08T23:00:00","49.2","ND","ND","ND","2.7","2.3","ND","ND","ND","ND","0","0"],
    [81893,"2019-09-09T00:00:00","38","ND","ND","ND","3.3","3.7","ND","ND","ND","ND","0","0"],
    [81894,"2019-09-09T01:00:00","33.2","ND","ND","ND","2.4","3.4","ND","ND","ND","ND","0","0"],
    [81895,"2019-09-09T02:00:00","41.8","ND","ND","ND","1.9","3.4","ND","ND","ND","ND","0","0"],
    [81896,"2019-09-09T03:00:00","45.7","ND","ND","ND","5.2","2.3","ND","ND","ND","ND","0","0"],
    [81897,"2019-09-09T04:00:00","33.1","ND","ND","ND","3.7","1.5","ND","ND","ND","ND","0","0"],
    [81898,"2019-09-09T05:00:00","55.5","ND","ND","ND","3","2.3","ND","ND","ND","ND","0","0"],
    [81899,"2019-09-09T06:00:00","38.4","ND","ND","ND","2.3","1.5","ND","ND","ND","ND","0","0"],
    [81900,"2019-09-09T07:00:00","33.7","ND","ND","ND","2.8","3.5","ND","ND","ND","ND","0","0"],
    [81901,"2019-09-09T08:00:00","78","ND","ND","ND","5.2","3.3","ND","ND","ND","ND","89","0"],
    [81902,"2019-09-09T09:00:00","81","ND","ND","ND","20.9","3.9","ND","ND","ND","ND","479","0"],
    [81903,"2019-09-09T10:00:00","95.8","ND","ND","ND","51.3","0.9","ND","ND","ND","ND","665","0"],
    [81904,"2019-09-09T11:00:00","74.8","ND","ND","ND","69.9","0.8","ND","ND","ND","ND","664","0"],
    [81905,"2019-09-09T12:00:00","52.2","ND","ND","ND","90.4","0.9","ND","ND","ND","ND","665","0"],
    [81906,"2019-09-09T13:00:00","39.1","ND","ND","ND","93.1","0.6","ND","ND","ND","ND","666","0"],
    [81907,"2019-09-09T14:00:00","30.8","ND","ND","ND","62.7","0.1","ND","ND","ND","ND","665","0"],
    [81908,"2019-09-09T15:00:00","24.2","ND","ND","ND","52.6","0.3","ND","ND","ND","ND","666","0"],
    [81909,"2019-09-09T16:00:00","18","ND","ND","ND","54.1","0.3","ND","ND","ND","ND","646","0"],
    [81910,"2019-09-09T17:00:00","12.9","ND","ND","ND","45.8","0.1","ND","ND","ND","ND","666","0"],
    [81911,"2019-09-09T18:00:00","8.5","ND","ND","ND","39","0.1","ND","ND","ND","ND","623","0"],
    [81912,"2019-09-09T19:00:00","11.4","ND","ND","ND","31.3","0.2","ND","ND","ND","ND","0","0.8"],
    [81913,"2019-09-09T20:00:00","19.3","ND","ND","ND","13.1","0.4","ND","ND","ND","ND","0","0"],
    [81914,"2019-09-09T21:00:00","41.3","ND","ND","ND","8.6","0.8","ND","ND","ND","ND","0","0"],
    [81915,"2019-09-09T22:00:00","56.5","ND","ND","ND","6.2","2.1","ND","ND","ND","ND","0","0"],
    [81916,"2019-09-09T23:00:00","9.4","ND","ND","ND","5","1.5","ND","ND","ND","ND","0","0"],
    [81917,"2019-09-10T00:00:00","40.2","ND","ND","ND","7.1","2.7","ND","ND","ND","ND","0","0"],
    [81918,"2019-09-10T01:00:00","28.8","ND","ND","ND","8.8","3.9","ND","ND","ND","ND","0","0"],
    [81919,"2019-09-10T02:00:00","7.4","ND","ND","ND","7.8","2.3","ND","ND","ND","ND","0","0"],
    [81920,"2019-09-10T03:00:00","24.6","ND","ND","ND","4.9","4.2","ND","ND","ND","ND","0","0"],
    [81921,"2019-09-10T04:00:00","30.3","ND","ND","ND","9.1","4.7","ND","ND","ND","ND","0","0"],
    [81922,"2019-09-10T05:00:00","25.6","ND","ND","ND","5.4","2.7","ND","ND","ND","ND","0","0"],
    [81923,"2019-09-10T06:00:00","29.5","ND","ND","ND","2.5","4.2","ND","ND","ND","ND","0","0"],
    [81924,"2019-09-10T07:00:00","34","ND","ND","ND","2.6","3.1","ND","ND","ND","ND","0","0"],
    [81925,"2019-09-10T08:00:00","39.3","ND","ND","ND","8.9","2.3","ND","ND","ND","ND","93","0"],
    [81926,"2019-09-10T09:00:00","59.6","ND","ND","ND","26.3","1.6","ND","ND","ND","ND","580","0"],
    [81927,"2019-09-10T10:00:00","60.7","ND","ND","ND","52.4","0.8","ND","ND","ND","ND","655","0"],
    [81928,"2019-09-10T11:00:00","45.9","ND","ND","ND","78.6","0.6","ND","ND","ND","ND","664","0"],
    [81929,"2019-09-10T12:00:00","56.5","ND","ND","ND","114.1","0.6","ND","ND","ND","ND","660","0"],
    [81930,"2019-09-10T13:00:00","52.7","ND","ND","ND","129","0.6","ND","ND","ND","ND","666","0"],
    [81931,"2019-09-10T14:00:00","49.7","ND","ND","ND","107.8","0.4","ND","ND","ND","ND","650","0"],
    [81932,"2019-09-10T15:00:00","34.6","ND","ND","ND","61.2","0.2","ND","ND","ND","ND","585","0"],
    [81933,"2019-09-10T16:00:00","38.4","ND","ND","ND","60.1","0.1","ND","ND","ND","ND","498","0"],
    [81934,"2019-09-10T17:00:00","46.1","ND","ND","ND","67.1","0.5","ND","ND","ND","ND","621","0"],
    [81935,"2019-09-10T18:00:00","27.6","ND","ND","ND","58.3","0.5","ND","ND","ND","ND","626","0"],
    [81936,"2019-09-10T19:00:00","24.3","ND","ND","ND","46","0.2","ND","ND","ND","ND","0","0.7"],
    [81937,"2019-09-10T20:00:00","27.4","ND","ND","ND","26","0.1","ND","ND","ND","ND","0","0"],
    [81938,"2019-09-10T21:00:00","28.3","ND","ND","ND","8","0.6","ND","ND","ND","ND","0","0"],
    [81939,"2019-09-10T22:00:00","37.5","ND","ND","ND","6.7","2.2","ND","ND","ND","ND","0","0"],
    [81940,"2019-09-10T23:00:00","25.3","ND","ND","ND","3.3","1.8","ND","ND","ND","ND","0","0"],
    [81941,"2019-09-11T00:00:00","10.8","ND","ND","ND","2.9","2.7","ND","ND","ND","ND","0","0"],
    [81942,"2019-09-11T01:00:00","13.1","ND","ND","ND","6.7","11.8","ND","ND","ND","ND","0","ND"],
    [81943,"2019-09-11T02:00:00","33.4","ND","ND","ND","4.7","12.1","ND","ND","ND","ND","0","ND"],
    [81944,"2019-09-11T03:00:00","21.5","ND","ND","ND","5.2","2.9","ND","ND","ND","ND","0","ND"],
    [81945,"2019-09-11T04:00:00","21.9","ND","ND","ND","10.2","2.2","ND","ND","ND","ND","0","ND"],
    [81946,"2019-09-11T05:00:00","12.5","ND","ND","ND","8.5","1.2","ND","ND","ND","ND","0","ND"],
    [81947,"2019-09-11T06:00:00","32.4","ND","ND","ND","2","1.4","ND","ND","ND","ND","0","ND"],
    [81948,"2019-09-11T07:00:00","50.8","ND","ND","ND","2.9","1.7","ND","ND","ND","ND","0","ND"],
    [81949,"2019-09-11T08:00:00","76.3","ND","ND","ND","5.7","4.3","ND","ND","ND","ND","151","ND"],
    [81950,"2019-09-11T09:00:00","87.8","ND","ND","ND","20.5","3","ND","ND","ND","ND","404","ND"],
    [81951,"2019-09-11T10:00:00","64.9","ND","ND","ND","47.4","1.1","ND","ND","ND","ND","660","ND"],
    [81952,"2019-09-11T11:00:00","55.3","ND","ND","ND","74.4","1.5","ND","ND","ND","ND","665","ND"],
    [81953,"2019-09-11T12:00:00","56.6","ND","ND","ND","85.3","0.7","ND","ND","ND","ND","663","ND"],
    [81954,"2019-09-11T13:00:00","40.1","ND","ND","ND","73.7","0.2","ND","ND","ND","ND","665","ND"],
    [81955,"2019-09-11T14:00:00","31.3","ND","ND","ND","44.3","0.2","ND","ND","ND","ND","656","ND"],
    [81956,"2019-09-11T15:00:00","28.6","ND","ND","ND","41.5","0.2","ND","ND","ND","ND","665","ND"],
    [81957,"2019-09-11T16:00:00","27.7","ND","ND","ND","36.3","0.2","ND","ND","ND","ND","666","ND"],
    [81958,"2019-09-11T17:00:00","15.5","ND","ND","ND","40.9","0.1","ND","ND","ND","ND","666","ND"],
    [81959,"2019-09-11T18:00:00","30.4","ND","ND","ND","39.6","0.2","ND","ND","ND","ND","474","ND"],
    [81960,"2019-09-11T19:00:00","34.7","ND","ND","ND","32.1","0.2","ND","ND","ND","ND","0","ND"],
    [81961,"2019-09-11T20:00:00","22.4","ND","ND","ND","31.5","0.3","ND","ND","ND","ND","0","ND"],
    [81962,"2019-09-11T21:00:00","10.3","ND","ND","ND","17.9","0.2","ND","ND","ND","ND","0","ND"],
    [81963,"2019-09-11T22:00:00","39.8","ND","ND","ND","5.4","2","ND","ND","ND","ND","0","ND"],
    [81964,"2019-09-11T23:00:00","27.5","ND","ND","ND","3.4","2.6","ND","ND","ND","ND","0","ND"],
    [81965,"2019-09-12T00:00:00","24.9","ND","ND","ND","7.1","1","ND","ND","ND","ND","0","ND"],
    [81966,"2019-09-12T01:00:00","38.3","ND","ND","ND","8.6","3.3","ND","ND","ND","ND","0","0"],
    [81967,"2019-09-12T02:00:00","35.5","ND","ND","ND","13.4","2.3","ND","ND","ND","ND","0","0"],
    [81968,"2019-09-12T03:00:00","37.8","ND","ND","ND","16","1.7","ND","ND","ND","ND","0","0"],
    [81969,"2019-09-12T04:00:00","25.1","ND","ND","ND","13","1.6","ND","ND","ND","ND","0","0"],
    [81970,"2019-09-12T05:00:00","9.1","ND","ND","ND","7.3","0.9","ND","ND","ND","ND","0","0"],
    [81971,"2019-09-12T06:00:00","18.7","ND","ND","ND","2.7","0.7","ND","ND","ND","ND","0","0"],
    [81972,"2019-09-12T07:00:00","13","ND","ND","ND","1.9","3.7","ND","ND","ND","ND","0","0"],
    [81973,"2019-09-12T08:00:00","38.9","ND","ND","ND","3","1.4","ND","ND","ND","ND","78","0"],
    [81974,"2019-09-12T09:00:00","45.9","ND","ND","ND","9.9","1.1","ND","ND","ND","ND","486","0"],
    [81975,"2019-09-12T10:00:00","35.9","ND","ND","ND","22.7","0.6","ND","ND","ND","ND","663","0"],
    [81976,"2019-09-12T11:00:00","25.2","ND","ND","ND","34.4","0.3","ND","ND","ND","ND","665","0"],
    [81977,"2019-09-12T12:00:00","26.5","ND","ND","ND","46.7","0.3","ND","ND","ND","ND","641","0"],
    [81978,"2019-09-12T13:00:00","30.8","ND","ND","ND","54.1","0.3","ND","ND","ND","ND","645","0"],
    [81979,"2019-09-12T14:00:00","19.8","ND","ND","ND","ND","0.3","ND","ND","ND","ND","654","0"],
    [81980,"2019-09-12T15:00:00","6","ND","ND","ND","266.3","0.3","ND","ND","ND","ND","576","0"],
    [81981,"2019-09-12T16:00:00","25.7","ND","ND","ND","34.5","13.7","ND","ND","ND","ND","666","0"],
    [81982,"2019-09-12T17:00:00","4.9","ND","ND","ND","42.8","0.2","ND","ND","ND","ND","664","0"],
    [81983,"2019-09-12T18:00:00","3.5","ND","ND","ND","36.4","0.4","ND","ND","ND","ND","622","0"],
    [81984,"2019-09-12T19:00:00","22.4","ND","ND","ND","35.8","0.2","ND","ND","ND","ND","0","0"],
    [81985,"2019-09-12T20:00:00","43.4","ND","ND","ND","22.7","0.3","ND","ND","ND","ND","0","0"],
    [81986,"2019-09-12T21:00:00","57.2","ND","ND","ND","12.5","0.7","ND","ND","ND","ND","0","0"],
    [81987,"2019-09-12T22:00:00","19.4","ND","ND","ND","19.7","0.3","ND","ND","ND","ND","0","0"],
    [81988,"2019-09-12T23:00:00","1.1","ND","ND","ND","18.1","0.3","ND","ND","ND","ND","0","0"],
    [81989,"2019-09-13T00:00:00","14.5","ND","ND","ND","7.5","1.6","ND","ND","ND","ND","0","0"],
    [81990,"2019-09-13T01:00:00","25.4","ND","ND","ND","10","1.1","ND","ND","ND","ND","0","0.4"],
    [81991,"2019-09-13T02:00:00","34.1","ND","ND","ND","5.7","3.1","ND","ND","ND","ND","0","0.1"],
    [81992,"2019-09-13T03:00:00","48.6","ND","ND","ND","8.1","3.1","ND","ND","ND","ND","0","0"],
    [81993,"2019-09-13T04:00:00","26.9","ND","ND","ND","4.5","1.6","ND","ND","ND","ND","0","0"],
    [81994,"2019-09-13T05:00:00","5","ND","ND","ND","3.7","1.3","ND","ND","ND","ND","0","0.1"],
    [81995,"2019-09-13T06:00:00","19.1","ND","ND","ND","3.7","1.7","ND","ND","ND","ND","0","0"],
    [81996,"2019-09-13T07:00:00","57","ND","ND","ND","3.7","3.2","ND","ND","ND","ND","0","0"],
    [81997,"2019-09-13T08:00:00","68.8","ND","ND","ND","4.1","2","ND","ND","ND","ND","61","0"],
    [81998,"2019-09-13T09:00:00","89.3","ND","ND","ND","5.3","1.6","ND","ND","ND","ND","260","0"],
    [81999,"2019-09-13T10:00:00","61.8","ND","ND","ND","17.3","2","ND","ND","ND","ND","521","0"],
    [82000,"2019-09-13T11:00:00","26.9","ND","ND","ND","37.1","0.8","ND","ND","ND","ND","664","0"],
    [82001,"2019-09-13T12:00:00","32.7","ND","ND","ND","62.4","0.3","ND","ND","ND","ND","665","0"],
    [82002,"2019-09-13T13:00:00","37.4","ND","ND","ND","83.4","0.3","ND","ND","ND","ND","665","0"],
    [82003,"2019-09-13T14:00:00","22","ND","ND","ND","102.2","0.5","ND","ND","ND","ND","664","0"],
    [82004,"2019-09-13T15:00:00","43.1","ND","ND","ND","112.2","0.4","ND","ND","ND","ND","665","0"],
    [82005,"2019-09-13T16:00:00","23.4","ND","ND","ND","93.6","0.3","ND","ND","ND","ND","666","0"],
    [82006,"2019-09-13T17:00:00","15.2","ND","ND","ND","57.7","0.1","ND","ND","ND","ND","652","0.1"],
    [82007,"2019-09-13T18:00:00","37","ND","ND","ND","41.5","0.1","ND","ND","ND","ND","289","0.2"],
    [82008,"2019-09-13T19:00:00","19.2","ND","ND","ND","35.7","0.4","ND","ND","ND","ND","0","0"],
    [82009,"2019-09-13T20:00:00","4.3","ND","ND","ND","26.7","0.2","ND","ND","ND","ND","0","4"],
    [82010,"2019-09-13T21:00:00","23.4","ND","ND","ND","8.3","0.8","ND","ND","ND","ND","0","1.9"],
    [82011,"2019-09-13T22:00:00","32.4","ND","ND","ND","8.4","0.9","ND","ND","ND","ND","0","1.1"],
    [82012,"2019-09-13T23:00:00","15.4","ND","ND","ND","4.4","3.3","ND","ND","ND","ND","0","0"],
    [82013,"2019-09-14T00:00:00","17.4","ND","ND","ND","3.8","3","ND","ND","ND","ND","0","0.2"],
    [82014,"2019-09-14T01:00:00","22.9","ND","ND","ND","4.3","2.1","ND","ND","ND","ND","0","ND"],
    [82015,"2019-09-14T02:00:00","12.9","ND","ND","ND","6.9","3.8","ND","ND","ND","ND","0","ND"],
    [82016,"2019-09-14T03:00:00","5.8","ND","ND","ND","4.8","7.2","ND","ND","ND","ND","0","ND"],
    [82017,"2019-09-14T04:00:00","15.3","ND","ND","ND","6.1","3.9","ND","ND","ND","ND","0","ND"],
    [82018,"2019-09-14T05:00:00","21.5","ND","ND","ND","7.8","2.1","ND","ND","ND","ND","0","ND"],
    [82019,"2019-09-14T06:00:00","28","ND","ND","ND","4.6","2.2","ND","ND","ND","ND","0","ND"],
    [82020,"2019-09-14T07:00:00","33.8","ND","ND","ND","4.7","2.5","ND","ND","ND","ND","0","ND"],
    [82021,"2019-09-14T08:00:00","44.9","ND","ND","ND","7.1","1.1","ND","ND","ND","ND","92","ND"],
    [82022,"2019-09-14T09:00:00","52","ND","ND","ND","15.4","1.9","ND","ND","ND","ND","257","0.1"],
    [82023,"2019-09-14T10:00:00","54.3","ND","ND","ND","30.1","1.6","ND","ND","ND","ND","563","0"],
    [82024,"2019-09-14T11:00:00","43.4","ND","ND","ND","50.2","0.9","ND","ND","ND","ND","665","0"],
    [82025,"2019-09-14T12:00:00","39.3","ND","ND","ND","78.6","0.9","ND","ND","ND","ND","665","0"],
    [82026,"2019-09-14T13:00:00","55.2","ND","ND","ND","107.1","0.6","ND","ND","ND","ND","663","ND"],
    [82027,"2019-09-14T14:00:00","61.9","ND","ND","ND","77.1","0.5","ND","ND","ND","ND","665","ND"],
    [82028,"2019-09-14T15:00:00","24.2","ND","ND","ND","60.5","0.2","ND","ND","ND","ND","610","ND"],
    [82029,"2019-09-14T16:00:00","14.4","ND","ND","ND","61.4","0.5","ND","ND","ND","ND","637","0"],
    [82030,"2019-09-14T17:00:00","14.7","ND","ND","ND","48.8","0.3","ND","ND","ND","ND","566","ND"],
    [82031,"2019-09-14T18:00:00","8","ND","ND","ND","38.5","0.3","ND","ND","ND","ND","140","ND"],
    [82032,"2019-09-14T19:00:00","1.5","ND","ND","ND","35.8","0.3","ND","ND","ND","ND","0","ND"],
    [82033,"2019-09-14T20:00:00","15.6","ND","ND","ND","27.1","0.4","ND","ND","ND","ND","0","0"],
    [82034,"2019-09-14T21:00:00","25.7","ND","ND","ND","17.8","0.3","ND","ND","ND","ND","0","0"],
    [82035,"2019-09-14T22:00:00","21.4","ND","ND","ND","10.9","0.4","ND","ND","ND","ND","0","0.1"],
    [82036,"2019-09-14T23:00:00","34.6","ND","ND","ND","5.3","2","ND","ND","ND","ND","0","0"],
    [82037,"2019-09-15T00:00:00","45","ND","ND","ND","4.5","3","ND","ND","ND","ND","0","0"],
    [82038,"2019-09-15T01:00:00","53.8","ND","ND","ND","5.9","3","ND","ND","ND","ND","0","ND"],
    [82039,"2019-09-15T02:00:00","69.1","ND","ND","ND","11","1.9","ND","ND","ND","ND","0","ND"],
    [82040,"2019-09-15T03:00:00","47.8","ND","ND","ND","10.2","0.5","ND","ND","ND","ND","0","ND"],
    [82041,"2019-09-15T04:00:00","40.5","ND","ND","ND","5.4","4","ND","ND","ND","ND","0","ND"],
    [82042,"2019-09-15T05:00:00","37.8","ND","ND","ND","3.9","3.4","ND","ND","ND","ND","0","ND"],
    [82043,"2019-09-15T06:00:00","36.8","ND","ND","ND","4.1","4.1","ND","ND","ND","ND","0","ND"],
    [82044,"2019-09-15T07:00:00","16.6","ND","ND","ND","5.1","4.3","ND","ND","ND","ND","0","ND"],
    [82045,"2019-09-15T08:00:00","59.7","ND","ND","ND","8.4","2.5","ND","ND","ND","ND","58","ND"],
    [82046,"2019-09-15T09:00:00","66.3","ND","ND","ND","14.2","1.9","ND","ND","ND","ND","346","ND"],
    [82047,"2019-09-15T10:00:00","34.2","ND","ND","ND","29.5","1.4","ND","ND","ND","ND","632","ND"],
    [82048,"2019-09-15T11:00:00","28.6","ND","ND","ND","51.9","0.4","ND","ND","ND","ND","665","ND"],
    [82049,"2019-09-15T12:00:00","21.1","ND","ND","ND","76.2","0.3","ND","ND","ND","ND","665","ND"],
    [82050,"2019-09-15T13:00:00","30.5","ND","ND","ND","107","0.3","ND","ND","ND","ND","665","ND"],
    [82051,"2019-09-15T14:00:00","28.9","ND","ND","ND","106","0.6","ND","ND","ND","ND","664","ND"],
    [82052,"2019-09-15T15:00:00","29","ND","ND","ND","90.3","0.1","ND","ND","ND","ND","664","ND"],
    [82053,"2019-09-15T16:00:00","18.9","ND","ND","ND","64","0.2","ND","ND","ND","ND","570","ND"],
    [82054,"2019-09-15T17:00:00","10.1","ND","ND","ND","57.9","0.2","ND","ND","ND","ND","467","ND"],
    [82055,"2019-09-15T18:00:00","14.3","ND","ND","ND","47.9","0.3","ND","ND","ND","ND","488","ND"],
    [82056,"2019-09-15T19:00:00","12.8","ND","ND","ND","40","0.4","ND","ND","ND","ND","0","ND"],
    [82057,"2019-09-15T20:00:00","9.1","ND","ND","ND","20.8","0.6","ND","ND","ND","ND","0","ND"],
    [82058,"2019-09-15T21:00:00","20.5","ND","ND","ND","10.8","1.6","ND","ND","ND","ND","0","ND"],
    [82059,"2019-09-15T22:00:00","28.2","ND","ND","ND","7","5.6","ND","ND","ND","ND","0","ND"],
    [82060,"2019-09-15T23:00:00","34.3","ND","ND","ND","3.9","1.6","ND","ND","ND","ND","ND","ND"],
    [82061,"2019-09-16T00:00:00","23.8","ND","ND","ND","4.9","1","ND","ND","ND","ND","0","ND"],
    [82062,"2019-09-16T01:00:00","32.3","ND","ND","ND","4","2.6","ND","ND","ND","ND","0","0"],
    [82063,"2019-09-16T02:00:00","40","ND","ND","ND","6.8","3","ND","ND","ND","ND","0","0"],
    [82064,"2019-09-16T03:00:00","34.7","ND","ND","ND","5.9","2.8","ND","ND","ND","ND","0","0"],
    [82065,"2019-09-16T04:00:00","25","ND","ND","ND","4.1","3.8","ND","ND","ND","ND","0","ND"],
    [82066,"2019-09-16T05:00:00","28.5","ND","ND","ND","4.1","4","ND","ND","ND","ND","0","0"],
    [82067,"2019-09-16T06:00:00","30","ND","ND","ND","3.8","2.7","ND","ND","ND","ND","0","0"],
    [82068,"2019-09-16T07:00:00","36.1","ND","ND","ND","4.4","2.6","ND","ND","ND","ND","0","0"],
    [82069,"2019-09-16T08:00:00","70.8","ND","ND","ND","5.3","3.4","ND","ND","ND","ND","66","0"],
    [82070,"2019-09-16T09:00:00","89.1","ND","ND","ND","9.8","3.1","ND","ND","ND","ND","235","0"],
    [82071,"2019-09-16T10:00:00","47","ND","ND","ND","22.8","2.2","ND","ND","ND","ND","559","ND"],
    [82072,"2019-09-16T11:00:00","32.8","ND","ND","ND","38.5","1.1","ND","ND","ND","ND","665","0"],
    [82073,"2019-09-16T12:00:00","44","ND","ND","ND","64.4","1.1","ND","ND","ND","ND","665","0"],
    [82074,"2019-09-16T13:00:00","45.9","ND","ND","ND","77.8","0.3","ND","ND","ND","ND","665","0"],
    [82075,"2019-09-16T14:00:00","49.7","ND","ND","ND","70.1","0.5","ND","ND","ND","ND","665","0"],
    [82076,"2019-09-16T15:00:00","16","ND","ND","ND","42.4","0.2","ND","ND","ND","ND","665","0"],
    [82077,"2019-09-16T16:00:00","15.9","ND","ND","ND","45.3","0.2","ND","ND","ND","ND","637","0"],
    [82078,"2019-09-16T17:00:00","21.2","ND","ND","ND","36.1","0.1","ND","ND","ND","ND","619","0"],
    [82079,"2019-09-16T18:00:00","11.5","ND","ND","ND","27.9","0.2","ND","ND","ND","ND","410","0"],
    [82080,"2019-09-16T19:00:00","8.9","ND","ND","ND","19","0.2","ND","ND","ND","ND","0","0"],
    [82081,"2019-09-16T20:00:00","16.2","ND","ND","ND","10.3","0.3","ND","ND","ND","ND","0","0.2"],
    [82082,"2019-09-16T21:00:00","20.9","ND","ND","ND","6.6","3.1","ND","ND","ND","ND","0","0"],
    [82083,"2019-09-16T22:00:00","26.7","ND","ND","ND","4.6","3.2","ND","ND","ND","ND","0","0"],
    [82084,"2019-09-16T23:00:00","29","ND","ND","ND","4.4","1.3","ND","ND","ND","ND","0","0"],
    [82085,"2019-09-17T00:00:00","30","ND","ND","ND","5.2","1.2","ND","ND","ND","ND","0","0"],
    [82086,"2019-09-17T01:00:00","27.9","ND","ND","ND","6.3","2.6","ND","ND","ND","ND","0","0"],
    [82087,"2019-09-17T02:00:00","48.6","ND","ND","ND","14.8","2.4","ND","ND","ND","ND","0","0"],
    [82088,"2019-09-17T03:00:00","30.4","ND","ND","ND","14.8","2","ND","ND","ND","ND","0","0"],
    [82089,"2019-09-17T04:00:00","30.3","ND","ND","ND","12.3","2","ND","ND","ND","ND","0","ND"],
    [82090,"2019-09-17T05:00:00","19.9","ND","ND","ND","9","1.3","ND","ND","ND","ND","0","0"],
    [82091,"2019-09-17T06:00:00","44.8","ND","ND","ND","4.1","3.4","ND","ND","ND","ND","0","0"],
    [82092,"2019-09-17T07:00:00","72.8","ND","ND","ND","4.2","4.1","ND","ND","ND","ND","0","0"],
    [82093,"2019-09-17T08:00:00","108.2","ND","ND","ND","4.7","3","ND","ND","ND","ND","30","0"],
    [82094,"2019-09-17T09:00:00","66","ND","ND","ND","6.4","3.5","ND","ND","ND","ND","103","0"],
    [82095,"2019-09-17T10:00:00","30.7","ND","ND","ND","18.8","1.1","ND","ND","ND","ND","474","1.5"],
    [82096,"2019-09-17T11:00:00","47.7","ND","ND","ND","56.1","1.2","ND","ND","ND","ND","665","ND"],
    [82097,"2019-09-17T12:00:00","54.6","ND","ND","ND","75.7","0.7","ND","ND","ND","ND","664","0"],
    [82098,"2019-09-17T13:00:00","50.2","ND","ND","ND","85.6","0.4","ND","ND","ND","ND","665","0.3"],
    [82099,"2019-09-17T14:00:00","50.3","ND","ND","ND","99.5","0.8","ND","ND","ND","ND","658","0"],
    [82100,"2019-09-17T15:00:00","35","ND","ND","ND","89","0.4","ND","ND","ND","ND","665","0"],
    [82101,"2019-09-17T16:00:00","46.7","ND","ND","ND","41.4","0.2","ND","ND","ND","ND","593","0"],
    [82102,"2019-09-17T17:00:00","18.1","ND","ND","ND","30.9","0.2","ND","ND","ND","ND","511","0"],
    [82103,"2019-09-17T18:00:00","ND","ND","ND","ND","24.1","0.1","ND","ND","ND","ND","416","0"],
    [82104,"2019-09-17T19:00:00","1.6","ND","ND","ND","28.5","0.1","ND","ND","ND","ND","0","0.7"],
    [82105,"2019-09-17T20:00:00","2.1","ND","ND","ND","15.9","0.4","ND","ND","ND","ND","0","0"],
    [82106,"2019-09-17T21:00:00","8.3","ND","ND","ND","6.9","1.4","ND","ND","ND","ND","0","0.2"],
    [82107,"2019-09-17T22:00:00","26.2","ND","ND","ND","4.9","0.5","ND","ND","ND","ND","0","0.2"],
    [82108,"2019-09-17T23:00:00","20.7","ND","ND","ND","10.4","0.6","ND","ND","ND","ND","0","0"],
    [82109,"2019-09-18T00:00:00","31.2","ND","ND","ND","9.6","0.7","ND","ND","ND","ND","0","0"],
    [82110,"2019-09-18T01:00:00","16.5","ND","ND","ND","16.9","0.2","ND","ND","ND","ND","0","0"],
    [82111,"2019-09-18T02:00:00","2.6","ND","ND","ND","17.4","0.6","ND","ND","ND","ND","0","0"],
    [82112,"2019-09-18T03:00:00","17.8","ND","ND","ND","16.6","1","ND","ND","ND","ND","0","0"],
    [82113,"2019-09-18T04:00:00","15.1","ND","ND","ND","17.6","0.5","ND","ND","ND","ND","0","0"],
    [82114,"2019-09-18T05:00:00","17.7","ND","ND","ND","18.8","0.2","ND","ND","ND","ND","0","0"],
    [82115,"2019-09-18T06:00:00","1.9","ND","ND","ND","9.5","0.5","ND","ND","ND","ND","0","0"],
    [82116,"2019-09-18T07:00:00","10.3","ND","ND","ND","5.2","0.8","ND","ND","ND","ND","0","0"],
    [82117,"2019-09-18T08:00:00","9.1","ND","ND","ND","6.6","0.8","ND","ND","ND","ND","28","0"],
    [82118,"2019-09-18T09:00:00","22.3","ND","ND","ND","13.5","0.5","ND","ND","ND","ND","313","0"],
    [82119,"2019-09-18T10:00:00","20.9","ND","ND","ND","26.6","0.5","ND","ND","ND","ND","665","0"],
    [82120,"2019-09-18T11:00:00","32.4","ND","ND","ND","40.9","0.8","ND","ND","ND","ND","664","0"],
    [82121,"2019-09-18T12:00:00","20.8","ND","ND","ND","56.7","0.4","ND","ND","ND","ND","665","0"],
    [82122,"2019-09-18T13:00:00","14.4","ND","ND","ND","53.7","0.2","ND","ND","ND","ND","576","0"],
    [82123,"2019-09-18T14:00:00","15.7","ND","ND","ND","54.7","0.2","ND","ND","ND","ND","665","0"],
    [82124,"2019-09-18T15:00:00","8.7","ND","ND","ND","47.6","0.3","ND","ND","ND","ND","539","0"],
    [82125,"2019-09-18T16:00:00","6.1","ND","ND","ND","32.1","0.2","ND","ND","ND","ND","575","0"],
    [82126,"2019-09-18T17:00:00","17.9","ND","ND","ND","20.3","0.4","ND","ND","ND","ND","530","0"],
    [82127,"2019-09-18T18:00:00","21","ND","ND","ND","8.4","0.7","ND","ND","ND","ND","0","0"],
    [82128,"2019-09-18T19:00:00","37.7","ND","ND","ND","4.4","2.4","ND","ND","ND","ND","0","0"],
    [82129,"2019-09-18T20:00:00","22.1","ND","ND","ND","7.5","0.8","ND","ND","ND","ND","0","0"],
    [82130,"2019-09-18T21:00:00","27.4","ND","ND","ND","199.3","0.4","ND","ND","ND","ND","0","0"],
    [82131,"2019-09-18T22:00:00","29.1","ND","ND","ND","5.1","0.7","ND","ND","ND","ND","0","0"],
    [82132,"2019-09-18T23:00:00","28.9","ND","ND","ND","3.7","1.6","ND","ND","ND","ND","0","0"],
    [82133,"2019-09-19T00:00:00","33.9","ND","ND","ND","3.7","3.9","ND","ND","ND","ND","0","0.3"],
    [82134,"2019-09-19T01:00:00","24.3","ND","ND","ND","4","3.7","ND","ND","ND","ND","0","0.2"],
    [82135,"2019-09-19T02:00:00","5.7","ND","ND","ND","6.3","1.7","ND","ND","ND","ND","0","0"],
    [82136,"2019-09-19T03:00:00","0.6","ND","ND","ND","12","0.2","ND","ND","ND","ND","0","0"],
    [82137,"2019-09-19T04:00:00","0.1","ND","ND","ND","10.3","0.7","ND","ND","ND","ND","0","0"],
    [82138,"2019-09-19T05:00:00","3.5","ND","ND","ND","8.1","0.9","ND","ND","ND","ND","0","0"],
    [82139,"2019-09-19T06:00:00","2.4","ND","ND","ND","6.7","0.4","ND","ND","ND","ND","0","0"],
    [82140,"2019-09-19T07:00:00","11.8","ND","ND","ND","4.3","0.2","ND","ND","ND","ND","0","0"],
    [82141,"2019-09-19T08:00:00","25.7","ND","ND","ND","3.7","0.2","ND","ND","ND","ND","15","0"],
    [82142,"2019-09-19T09:00:00","20.4","ND","ND","ND","4","0.1","ND","ND","ND","ND","84","0"],
    [82143,"2019-09-19T10:00:00","19.1","ND","ND","ND","8.2","0.3","ND","ND","ND","ND","256","0"],
    [82144,"2019-09-19T11:00:00","32","ND","ND","ND","13","0.4","ND","ND","ND","ND","574","0"],
    [82145,"2019-09-19T12:00:00","22.6","ND","ND","ND","22.2","0.2","ND","ND","ND","ND","664","0"],
    [82146,"2019-09-19T13:00:00","7.4","ND","ND","ND","35.5","0.3","ND","ND","ND","ND","664","0"],
    [82147,"2019-09-19T14:00:00","13.7","ND","ND","ND","45.1","0.2","ND","ND","ND","ND","659","0"],
    [82148,"2019-09-19T15:00:00","17.6","ND","ND","ND","38.3","0.3","ND","ND","ND","ND","665","0"],
    [82149,"2019-09-19T16:00:00","29.7","ND","ND","ND","47.4","0.4","ND","ND","ND","ND","640","0"],
    [82150,"2019-09-19T17:00:00","41.2","ND","ND","ND","42.4","0.7","ND","ND","ND","ND","625","0"],
    [82151,"2019-09-19T18:00:00","32.9","ND","ND","ND","25.1","0.1","ND","ND","ND","ND","330","0"],
    [82152,"2019-09-19T19:00:00","8.4","ND","ND","ND","12.3","0.3","ND","ND","ND","ND","0","ND"],
    [82153,"2019-09-19T20:00:00","21.4","ND","ND","ND","6.8","0.2","ND","ND","ND","ND","0","0"],
    [82154,"2019-09-19T21:00:00","33.9","ND","ND","ND","13.2","0","ND","ND","ND","ND","0","0.2"],
    [82155,"2019-09-19T22:00:00","16.6","ND","ND","ND","3.9","0.2","ND","ND","ND","ND","0","0.8"],
    [82156,"2019-09-19T23:00:00","41.7","ND","ND","ND","3.8","0.8","ND","ND","ND","ND","0","0.8"],
    [82157,"2019-09-20T00:00:00","43.6","ND","ND","ND","3.7","0.9","ND","ND","ND","ND","0","0.3"],
    [82158,"2019-09-20T01:00:00","36.4","ND","ND","ND","3.7","0.9","ND","ND","ND","ND","0","0"],
    [82159,"2019-09-20T02:00:00","25.8","ND","ND","ND","3.8","0.7","ND","ND","ND","ND","0","0"],
    [82160,"2019-09-20T03:00:00","29.3","ND","ND","ND","4","0.6","ND","ND","ND","ND","0","0"],
    [82161,"2019-09-20T04:00:00","46.5","ND","ND","ND","5.7","0.4","ND","ND","ND","ND","0","0"],
    [82162,"2019-09-20T05:00:00","26.9","ND","ND","ND","7.9","0.5","ND","ND","ND","ND","0","0"],
    [82163,"2019-09-20T06:00:00","1.9","ND","ND","ND","17.5","0.4","ND","ND","ND","ND","0","0"],
    [82164,"2019-09-20T07:00:00","ND","ND","ND","ND","11.7","0.3","ND","ND","ND","ND","0","0"],
    [82165,"2019-09-20T08:00:00","ND","ND","ND","ND","7.5","0.4","ND","ND","ND","ND","10","0"],
    [82166,"2019-09-20T09:00:00","2.7","ND","ND","ND","5.3","0.2","ND","ND","ND","ND","61","0"],
    [82167,"2019-09-20T10:00:00","18.2","ND","ND","ND","6.8","1.2","ND","ND","ND","ND","173","1.5"],
    [82168,"2019-09-20T11:00:00","14.5","ND","ND","ND","9.2","2.8","ND","ND","ND","ND","327","1.4"],
    [82169,"2019-09-20T12:00:00","40.5","ND","ND","ND","10.5","1.2","ND","ND","ND","ND","484","0.1"],
    [82170,"2019-09-20T13:00:00","24.8","ND","ND","ND","17.2","0.5","ND","ND","ND","ND","174","0"],
    [82171,"2019-09-20T14:00:00","31.2","ND","ND","ND","20.9","0.3","ND","ND","ND","ND","227","0"],
    [82172,"2019-09-20T15:00:00","24.2","ND","ND","ND","27.2","0.3","ND","ND","ND","ND","289","0"],
    [82173,"2019-09-20T16:00:00","36.6","ND","ND","ND","43.3","0.3","ND","ND","ND","ND","553","0"],
    [82174,"2019-09-20T17:00:00","31.7","ND","ND","ND","36","0.5","ND","ND","ND","ND","485","0"],
    [82175,"2019-09-20T18:00:00","27.5","ND","ND","ND","16.1","0.4","ND","ND","ND","ND","252","0"],
    [82176,"2019-09-20T19:00:00","48.9","ND","ND","ND","14.5","1.1","ND","ND","ND","ND","0","0.1"],
    [82177,"2019-09-20T20:00:00","87.8","ND","ND","ND","4.1","0.7","ND","ND","ND","ND","0","0.3"],
    [82178,"2019-09-20T21:00:00","91.5","ND","ND","ND","3.9","0.6","ND","ND","ND","ND","0","0"],
    [82179,"2019-09-20T22:00:00","128.3","ND","ND","ND","4.1","0.5","ND","ND","ND","ND","0","0"],
    [82180,"2019-09-20T23:00:00","85.7","ND","ND","ND","3.8","0.4","ND","ND","ND","ND","0","0"],
    [82181,"2019-09-21T00:00:00","74.2","ND","ND","ND","3.8","0.4","ND","ND","ND","ND","0","0"],
    [82182,"2019-09-21T01:00:00","66.7","ND","ND","ND","3.8","0.3","ND","ND","ND","ND","0","0"],
    [82183,"2019-09-21T02:00:00","75.6","ND","ND","ND","4","1.1","ND","ND","ND","ND","0","0"],
    [82184,"2019-09-21T03:00:00","62.4","ND","ND","ND","3.9","1.7","ND","ND","ND","ND","0","0"],
    [82185,"2019-09-21T04:00:00","68.2","ND","ND","ND","3.8","2.8","ND","ND","ND","ND","0","0"],
    [82186,"2019-09-21T05:00:00","63","ND","ND","ND","3.9","1.7","ND","ND","ND","ND","0","0"],
    [82187,"2019-09-21T06:00:00","57.2","ND","ND","ND","3.8","0.7","ND","ND","ND","ND","0","0"],
    [82188,"2019-09-21T07:00:00","84.1","ND","ND","ND","4","1","ND","ND","ND","ND","0","0"],
    [82189,"2019-09-21T08:00:00","72.1","ND","ND","ND","4.1","2.4","ND","ND","ND","ND","71","0"],
    [82190,"2019-09-21T09:00:00","117","ND","ND","ND","6.7","1.9","ND","ND","ND","ND","339","0"],
    [82191,"2019-09-21T10:00:00","84.2","ND","ND","ND","28.3","0.9","ND","ND","ND","ND","600","0"],
    [82192,"2019-09-21T11:00:00","39.5","ND","ND","ND","46.4","0.6","ND","ND","ND","ND","664","0"],
    [82193,"2019-09-21T12:00:00","35.1","ND","ND","ND","61.9","0.5","ND","ND","ND","ND","652","0"],
    [82194,"2019-09-21T13:00:00","32.7","ND","ND","ND","98.4","0.4","ND","ND","ND","ND","664","0"],
    [82195,"2019-09-21T14:00:00","33.4","ND","ND","ND","107.4","0.7","ND","ND","ND","ND","664","0"],
    [82196,"2019-09-21T15:00:00","42.6","ND","ND","ND","93","0.3","ND","ND","ND","ND","665","0"],
    [82197,"2019-09-21T16:00:00","26.9","ND","ND","ND","91.5","0.3","ND","ND","ND","ND","663","0"],
    [82198,"2019-09-21T17:00:00","28.2","ND","ND","ND","51.6","0.2","ND","ND","ND","ND","565","0"],
    [82199,"2019-09-21T18:00:00","1.7","ND","ND","ND","27.7","0.2","ND","ND","ND","ND","499","0"],
    [82200,"2019-09-21T19:00:00","2.7","ND","ND","ND","16.1","0.2","ND","ND","ND","ND","0","0"],
    [82201,"2019-09-21T20:00:00","1.5","ND","ND","ND","8.3","0.3","ND","ND","ND","ND","0","0"],
    [82202,"2019-09-21T21:00:00","29.8","ND","ND","ND","4.4","2.5","ND","ND","ND","ND","0","0"],
    [82203,"2019-09-21T22:00:00","43.4","ND","ND","ND","4","1.3","ND","ND","ND","ND","0","0"],
    [82204,"2019-09-21T23:00:00","13.9","ND","ND","ND","3.8","0.9","ND","ND","ND","ND","0","0"],
    [82205,"2019-09-22T00:00:00","33","ND","ND","ND","4","1.8","ND","ND","ND","ND","0","0"],
    [82206,"2019-09-22T01:00:00","50.5","ND","ND","ND","3.7","0.6","ND","ND","ND","ND","0","0"],
    [82207,"2019-09-22T02:00:00","29.6","ND","ND","ND","3.6","1.4","ND","ND","ND","ND","0","0"],
    [82208,"2019-09-22T03:00:00","16.1","ND","ND","ND","4.4","1.1","ND","ND","ND","ND","0","0"],
    [82209,"2019-09-22T04:00:00","26.9","ND","ND","ND","3.7","2","ND","ND","ND","ND","0","0"],
    [82210,"2019-09-22T05:00:00","45.9","ND","ND","ND","3.7","1.1","ND","ND","ND","ND","0","0"],
    [82211,"2019-09-22T06:00:00","11.2","ND","ND","ND","3.7","0.7","ND","ND","ND","ND","0","0"],
    [82212,"2019-09-22T07:00:00","33.2","ND","ND","ND","4.1","0.4","ND","ND","ND","ND","0","0"],
    [82213,"2019-09-22T08:00:00","64.9","ND","ND","ND","6.9","0.6","ND","ND","ND","ND","101","0"],
    [82214,"2019-09-22T09:00:00","66.7","ND","ND","ND","21.6","0.9","ND","ND","ND","ND","529","0"],
    [82215,"2019-09-22T10:00:00","38.6","ND","ND","ND","35","0.7","ND","ND","ND","ND","664","0"],
    [82216,"2019-09-22T11:00:00","46.5","ND","ND","ND","60.5","1","ND","ND","ND","ND","664","0"],
    [82217,"2019-09-22T12:00:00","42.9","ND","ND","ND","79.3","0.3","ND","ND","ND","ND","664","0"],
    [82218,"2019-09-22T13:00:00","27.2","ND","ND","ND","93","0.3","ND","ND","ND","ND","665","0"],
    [82219,"2019-09-22T14:00:00","27.7","ND","ND","ND","84.2","0.6","ND","ND","ND","ND","665","0"],
    [82220,"2019-09-22T15:00:00","12","ND","ND","ND","39.1","0.2","ND","ND","ND","ND","656","0"],
    [82221,"2019-09-22T16:00:00","11.7","ND","ND","ND","35","0.3","ND","ND","ND","ND","665","0"],
    [82222,"2019-09-22T17:00:00","7.8","ND","ND","ND","31.4","0.2","ND","ND","ND","ND","660","0"],
    [82223,"2019-09-22T18:00:00","14.2","ND","ND","ND","30","0.3","ND","ND","ND","ND","654","0"],
    [82224,"2019-09-22T19:00:00","18.4","ND","ND","ND","27.3","0.3","ND","ND","ND","ND","0","0"],
    [82225,"2019-09-22T20:00:00","9.1","ND","ND","ND","14.3","0.5","ND","ND","ND","ND","0","0"],
    [82226,"2019-09-22T21:00:00","27","ND","ND","ND","12.8","0.2","ND","ND","ND","ND","0","0"],
    [82227,"2019-09-22T22:00:00","34.2","ND","ND","ND","23.5","0.8","ND","ND","ND","ND","0","0.4"],
    [82228,"2019-09-22T23:00:00","9","ND","ND","ND","15.1","1.1","ND","ND","ND","ND","0","0"],
    [82229,"2019-09-23T00:00:00","13.4","ND","ND","ND","11.5","1","ND","ND","ND","ND","0","0"],
    [82230,"2019-09-23T01:00:00","4.5","ND","ND","ND","11","0.6","ND","ND","ND","ND","0","ND"],
    [82231,"2019-09-23T02:00:00","5.7","ND","ND","ND","18.8","1.5","ND","ND","ND","ND","0","ND"],
    [82232,"2019-09-23T03:00:00","16.4","ND","ND","ND","18.8","0.9","ND","ND","ND","ND","0","ND"],
    [82233,"2019-09-23T04:00:00","28","ND","ND","ND","11.3","1.5","ND","ND","ND","ND","0","ND"],
    [82234,"2019-09-23T05:00:00","52.2","ND","ND","ND","5.6","3.2","ND","ND","ND","ND","0","ND"],
    [82235,"2019-09-23T06:00:00","64.8","ND","ND","ND","4.3","2.7","ND","ND","ND","ND","0","ND"],
    [82236,"2019-09-23T07:00:00","62","ND","ND","ND","4.5","5.8","ND","ND","ND","ND","0","ND"],
    [82237,"2019-09-23T08:00:00","49.9","ND","ND","ND","6.8","6.8","ND","ND","ND","ND","41","ND"],
    [82238,"2019-09-23T09:00:00","68.3","ND","ND","ND","7.3","6.9","ND","ND","ND","ND","200","ND"],
    [82239,"2019-09-23T10:00:00","52.5","ND","ND","ND","16.1","2.3","ND","ND","ND","ND","529","ND"],
    [82240,"2019-09-23T11:00:00","36.9","ND","ND","ND","33","0.4","ND","ND","ND","ND","664","ND"],
    [82241,"2019-09-23T12:00:00","30.3","ND","ND","ND","49.4","0.3","ND","ND","ND","ND","664","ND"],
    [82242,"2019-09-23T13:00:00","20.2","ND","ND","ND","58.4","0.3","ND","ND","ND","ND","665","ND"],
    [82243,"2019-09-23T14:00:00","17.8","ND","ND","ND","57.7","0.3","ND","ND","ND","ND","665","ND"],
    [82244,"2019-09-23T15:00:00","18.3","ND","ND","ND","51.1","0.1","ND","ND","ND","ND","664","ND"],
    [82245,"2019-09-23T16:00:00","19.4","ND","ND","ND","39.9","0.2","ND","ND","ND","ND","640","ND"],
    [82246,"2019-09-23T17:00:00","0.2","ND","ND","ND","38.3","0.2","ND","ND","ND","ND","653","ND"],
    [82247,"2019-09-23T18:00:00","0.2","ND","ND","ND","28.6","0.3","ND","ND","ND","ND","398","ND"],
    [82248,"2019-09-23T19:00:00","8.6","ND","ND","ND","13.5","0.2","ND","ND","ND","ND","0","ND"],
    [82249,"2019-09-23T20:00:00","20.9","ND","ND","ND","7.2","0.3","ND","ND","ND","ND","0","ND"],
    [82250,"2019-09-23T21:00:00","50.8","ND","ND","ND","4.5","0.6","ND","ND","ND","ND","0","ND"],
    [82251,"2019-09-23T22:00:00","15.6","ND","ND","ND","4.1","3","ND","ND","ND","ND","0","ND"],
    [82252,"2019-09-23T23:00:00","ND","ND","ND","ND","8.1","0.5","ND","ND","ND","ND","0","ND"],
    [82253,"2019-09-24T00:00:00","5.4","ND","ND","ND","8.3","1.2","ND","ND","ND","ND","0","ND"],
    [82254,"2019-09-24T01:00:00","32.5","ND","ND","ND","4.4","3.5","ND","ND","ND","ND","0","0"],
    [82255,"2019-09-24T02:00:00","71.7","ND","ND","ND","4.3","8.5","ND","ND","ND","ND","0","0"],
    [82256,"2019-09-24T03:00:00","52","ND","ND","ND","15.1","1","ND","ND","ND","ND","0","0"],
    [82257,"2019-09-24T04:00:00","28.3","ND","ND","ND","16.1","0.7","ND","ND","ND","ND","0","0"],
    [82258,"2019-09-24T05:00:00","28","ND","ND","ND","9.2","1","ND","ND","ND","ND","0","0"],
    [82259,"2019-09-24T06:00:00","53","ND","ND","ND","5","1.4","ND","ND","ND","ND","0","0"],
    [82260,"2019-09-24T07:00:00","74.4","ND","ND","ND","4.6","2.9","ND","ND","ND","ND","0","0"],
    [82261,"2019-09-24T08:00:00","105.6","ND","ND","ND","7.2","2.7","ND","ND","ND","ND","94","0"],
    [82262,"2019-09-24T09:00:00","110.1","ND","ND","ND","18","2.4","ND","ND","ND","ND","568","0"],
    [82263,"2019-09-24T10:00:00","67.1","ND","ND","ND","48.1","1.2","ND","ND","ND","ND","660","0"],
    [82264,"2019-09-24T11:00:00","44.2","ND","ND","ND","67.8","0.6","ND","ND","ND","ND","665","0"],
    [82265,"2019-09-24T12:00:00","35.4","ND","ND","ND","80.1","0.7","ND","ND","ND","ND","665","0"],
    [82266,"2019-09-24T13:00:00","27.1","ND","ND","ND","90.4","0.3","ND","ND","ND","ND","665","0"],
    [82267,"2019-09-24T14:00:00","31.3","ND","ND","ND","88.1","0.7","ND","ND","ND","ND","665","0"],
    [82268,"2019-09-24T15:00:00","28.9","ND","ND","ND","ND","0.4","ND","ND","ND","ND","665","0"],
    [82269,"2019-09-24T16:00:00","26.3","ND","ND","ND","189.1","2.4","ND","ND","ND","ND","586","0"],
    [82270,"2019-09-24T17:00:00","24.8","ND","ND","ND","47","7.1","ND","ND","ND","ND","616","0"],
    [82271,"2019-09-24T18:00:00","8.7","ND","ND","ND","44.5","0.4","ND","ND","ND","ND","359","0"],
    [82272,"2019-09-24T19:00:00","14.7","ND","ND","ND","43.2","0.5","ND","ND","ND","ND","0","0"],
    [82273,"2019-09-24T20:00:00","14.5","ND","ND","ND","41.9","0.3","ND","ND","ND","ND","0","0"],
    [82274,"2019-09-24T21:00:00","26.3","ND","ND","ND","21.6","2","ND","ND","ND","ND","0","0"],
    [82275,"2019-09-24T22:00:00","39.6","ND","ND","ND","12.8","1.7","ND","ND","ND","ND","0","0"],
    [82276,"2019-09-24T23:00:00","33.3","ND","ND","ND","11.6","1.2","ND","ND","ND","ND","0","0"],
    [82277,"2019-09-25T00:00:00","40.7","ND","ND","ND","6.5","3.6","ND","ND","ND","ND","0","0"],
    [82278,"2019-09-25T01:00:00","53.1","ND","ND","ND","4.7","3.7","ND","ND","ND","ND","0","0.2"],
    [82279,"2019-09-25T02:00:00","23.4","ND","ND","ND","4.8","1.1","ND","ND","ND","ND","0","0.1"],
    [82280,"2019-09-25T03:00:00","11.6","ND","ND","ND","5","1.2","ND","ND","ND","ND","0","0.6"],
    [82281,"2019-09-25T04:00:00","66.4","ND","ND","ND","4.1","5.7","ND","ND","ND","ND","0","0"],
    [82282,"2019-09-25T05:00:00","90.1","ND","ND","ND","4.2","7.5","ND","ND","ND","ND","0","0"],
    [82283,"2019-09-25T06:00:00","50.7","ND","ND","ND","3.9","7.6","ND","ND","ND","ND","0","0.1"],
    [82284,"2019-09-25T07:00:00","76.3","ND","ND","ND","6.9","4.6","ND","ND","ND","ND","0","0"],
    [82285,"2019-09-25T08:00:00","56.3","ND","ND","ND","5.3","2.6","ND","ND","ND","ND","40","0"],
    [82286,"2019-09-25T09:00:00","60.1","ND","ND","ND","9.6","2.2","ND","ND","ND","ND","99","0"],
    [82287,"2019-09-25T10:00:00","47","ND","ND","ND","18","1.3","ND","ND","ND","ND","468","0"],
    [82288,"2019-09-25T11:00:00","45.3","ND","ND","ND","27.3","1.9","ND","ND","ND","ND","654","0"],
    [82289,"2019-09-25T12:00:00","53","ND","ND","ND","46.7","0.6","ND","ND","ND","ND","665","0"],
    [82290,"2019-09-25T13:00:00","26.8","ND","ND","ND","79.2","0.8","ND","ND","ND","ND","665","0"],
    [82291,"2019-09-25T14:00:00","40.9","ND","ND","ND","111","0.5","ND","ND","ND","ND","665","0"],
    [82292,"2019-09-25T15:00:00","33.3","ND","ND","ND","88.3","1.1","ND","ND","ND","ND","665","0"],
    [82293,"2019-09-25T16:00:00","85.9","ND","ND","ND","86.5","1.9","ND","ND","ND","ND","666","1.6"],
    [82294,"2019-09-25T17:00:00","24.7","ND","ND","ND","45.5","0.6","ND","ND","ND","ND","640","0"],
    [82295,"2019-09-25T18:00:00","10.9","ND","ND","ND","29","0.3","ND","ND","ND","ND","501","0"],
    [82296,"2019-09-25T19:00:00","7.5","ND","ND","ND","14.4","0.2","ND","ND","ND","ND","0","0"],
    [82297,"2019-09-25T20:00:00","9.6","ND","ND","ND","17.1","0.3","ND","ND","ND","ND","0","0"],
    [82298,"2019-09-25T21:00:00","21.2","ND","ND","ND","22.5","0.6","ND","ND","ND","ND","0","0"],
    [82299,"2019-09-25T22:00:00","2.5","ND","ND","ND","32","0.4","ND","ND","ND","ND","0","0.9"],
    [82300,"2019-09-25T23:00:00","3.9","ND","ND","ND","35.6","0.3","ND","ND","ND","ND","0","1"],
    [82301,"2019-09-26T00:00:00","13.1","ND","ND","ND","28.4","0.6","ND","ND","ND","ND","0","0"],
    [82302,"2019-09-26T01:00:00","16.8","ND","ND","ND","16.5","1.6","ND","ND","ND","ND","0","ND"],
    [82303,"2019-09-26T02:00:00","37.2","ND","ND","ND","30.9","0.6","ND","ND","ND","ND","0","ND"],
    [82304,"2019-09-26T03:00:00","8.2","ND","ND","ND","21.7","0.3","ND","ND","ND","ND","0","0"],
    [82305,"2019-09-26T04:00:00","4.1","ND","ND","ND","18.8","0.2","ND","ND","ND","ND","0","0"],
    [82306,"2019-09-26T05:00:00","7.1","ND","ND","ND","21","0.1","ND","ND","ND","ND","0","0"],
    [82307,"2019-09-26T06:00:00","14.1","ND","ND","ND","5.6","1.6","ND","ND","ND","ND","0","0"],
    [82308,"2019-09-26T07:00:00","22.8","ND","ND","ND","4.2","1.2","ND","ND","ND","ND","0","ND"],
    [82309,"2019-09-26T08:00:00","52.6","ND","ND","ND","6.9","1","ND","ND","ND","ND","91","ND"],
    [82310,"2019-09-26T09:00:00","69.3","ND","ND","ND","15.7","1.2","ND","ND","ND","ND","387","ND"],
    [82311,"2019-09-26T10:00:00","52","ND","ND","ND","42.9","0.6","ND","ND","ND","ND","662","0.1"],
    [82312,"2019-09-26T11:00:00","24","ND","ND","ND","53.9","0.3","ND","ND","ND","ND","665","1.1"],
    [82313,"2019-09-26T12:00:00","13.6","ND","ND","ND","76.9","0.5","ND","ND","ND","ND","665","0.2"],
    [82314,"2019-09-26T13:00:00","15.1","ND","ND","ND","84.5","0.3","ND","ND","ND","ND","663","0"],
    [82315,"2019-09-26T14:00:00","16.8","ND","ND","ND","91","0.2","ND","ND","ND","ND","664","0"],
    [82316,"2019-09-26T15:00:00","16.3","ND","ND","ND","89.7","0.1","ND","ND","ND","ND","647","ND"],
    [82317,"2019-09-26T16:00:00","22.2","ND","ND","ND","84.6","0.1","ND","ND","ND","ND","666","0"],
    [82318,"2019-09-26T17:00:00","28.3","ND","ND","ND","81.4","1.2","ND","ND","ND","ND","666","0"],
    [82319,"2019-09-26T18:00:00","34.6","ND","ND","ND","44.7","0.9","ND","ND","ND","ND","451","ND"],
    [82320,"2019-09-26T19:00:00","16.6","ND","ND","ND","36.7","0.3","ND","ND","ND","ND","0","0"],
    [82321,"2019-09-26T20:00:00","6.9","ND","ND","ND","17.9","0.1","ND","ND","ND","ND","0","ND"],
    [82322,"2019-09-26T21:00:00","13.6","ND","ND","ND","21.6","0.3","ND","ND","ND","ND","0","ND"],
    [82323,"2019-09-26T22:00:00","19.9","ND","ND","ND","9.7","1.2","ND","ND","ND","ND","0","0.2"],
    [82324,"2019-09-26T23:00:00","29.3","ND","ND","ND","4","1.6","ND","ND","ND","ND","0","0.4"],
    [82325,"2019-09-27T00:00:00","44.6","ND","ND","ND","4.7","3.9","ND","ND","ND","ND","0","0.1"],
    [82326,"2019-09-27T01:00:00","29.8","ND","ND","ND","5.2","2.8","ND","ND","ND","ND","0","ND"],
    [82327,"2019-09-27T02:00:00","22.7","ND","ND","ND","6.1","1.4","ND","ND","ND","ND","0","ND"],
    [82328,"2019-09-27T03:00:00","21.9","ND","ND","ND","8.8","1.3","ND","ND","ND","ND","0","ND"],
    [82329,"2019-09-27T04:00:00","23.3","ND","ND","ND","9.6","1.8","ND","ND","ND","ND","0","ND"],
    [82330,"2019-09-27T05:00:00","25","ND","ND","ND","9.9","2","ND","ND","ND","ND","0","ND"],
    [82331,"2019-09-27T06:00:00","27.4","ND","ND","ND","8.5","1.5","ND","ND","ND","ND","0","ND"],
    [82332,"2019-09-27T07:00:00","38","ND","ND","ND","5.2","1.5","ND","ND","ND","ND","0","ND"],
    [82333,"2019-09-27T08:00:00","62.3","ND","ND","ND","8.6","1.5","ND","ND","ND","ND","70","ND"],
    [82334,"2019-09-27T09:00:00","50.7","ND","ND","ND","23.1","1.1","ND","ND","ND","ND","335","ND"],
    [82335,"2019-09-27T10:00:00","45.3","ND","ND","ND","40.8","0.6","ND","ND","ND","ND","563","ND"],
    [82336,"2019-09-27T11:00:00","44.6","ND","ND","ND","61.7","0.5","ND","ND","ND","ND","661","ND"],
    [82337,"2019-09-27T12:00:00","44.1","ND","ND","ND","89.1","0.5","ND","ND","ND","ND","665","ND"],
    [82338,"2019-09-27T13:00:00","38.2","ND","ND","ND","104.6","0.7","ND","ND","ND","ND","666","ND"],
    [82339,"2019-09-27T14:00:00","40.5","ND","ND","ND","104.6","0.2","ND","ND","ND","ND","663","ND"],
    [82340,"2019-09-27T15:00:00","32.4","ND","ND","ND","75.3","0.3","ND","ND","ND","ND","622","ND"],
    [82341,"2019-09-27T16:00:00","24","ND","ND","ND","57.8","0.2","ND","ND","ND","ND","591","ND"],
    [82342,"2019-09-27T17:00:00","20.7","ND","ND","ND","47.3","0.3","ND","ND","ND","ND","666","ND"],
    [82343,"2019-09-27T18:00:00","ND","ND","ND","ND","39.4","0.2","ND","ND","ND","ND","566","ND"],
    [82344,"2019-09-27T19:00:00","ND","ND","ND","ND","39.6","0.1","ND","ND","ND","ND","0","ND"],
    [82345,"2019-09-27T20:00:00","1.3","ND","ND","ND","32","0.3","ND","ND","ND","ND","0","ND"],
    [82346,"2019-09-27T21:00:00","18.7","ND","ND","ND","37.3","0.1","ND","ND","ND","ND","0","ND"],
    [82347,"2019-09-27T22:00:00","18.1","ND","ND","ND","10.4","1.2","ND","ND","ND","ND","0","ND"],
    [82348,"2019-09-27T23:00:00","35.5","ND","ND","ND","9.7","2","ND","ND","ND","ND","0","ND"],
    [82349,"2019-09-28T00:00:00","32.4","ND","ND","ND","7.2","0.3","ND","ND","ND","ND","0","ND"],
    [82350,"2019-09-28T01:00:00","40","ND","ND","ND","9.6","0.8","ND","ND","ND","ND","0","0.3"],
    [82351,"2019-09-28T02:00:00","32","ND","ND","ND","9.6","6.4","ND","ND","ND","ND","0","0.1"],
    [82352,"2019-09-28T03:00:00","ND","ND","ND","ND","ND","ND","ND","ND","ND","ND","0","0"],
    [82353,"2019-09-28T04:00:00","ND","ND","ND","ND","ND","ND","ND","ND","ND","ND","ND","0"],
    [82354,"2019-09-28T05:00:00","ND","ND","ND","ND","ND","ND","ND","ND","ND","ND","ND","0"],
    [82355,"2019-09-28T06:00:00","ND","ND","ND","ND","ND","ND","ND","ND","ND","ND","ND","0"],
    [82356,"2019-09-28T07:00:00","ND","ND","ND","ND","ND","ND","ND","ND","ND","ND","ND","0"],
    [82357,"2019-09-28T08:00:00","ND","ND","ND","ND","ND","ND","ND","ND","ND","ND","ND","0"],
    [82358,"2019-09-28T09:00:00","ND","ND","ND","ND","ND","ND","ND","ND","ND","ND","ND","0"],
    [82359,"2019-09-28T10:00:00","ND","ND","ND","ND","ND","ND","ND","ND","ND","ND","ND","0"],
    [82360,"2019-09-28T11:00:00","ND","ND","ND","ND","ND","ND","ND","ND","ND","ND","ND","0"],
    [82361,"2019-09-28T12:00:00","ND","ND","ND","ND","ND","ND","ND","ND","ND","ND","ND","0.1"],
    [82362,"2019-09-28T13:00:00","ND","ND","ND","ND","ND","ND","ND","ND","ND","ND","ND","0"],
    [82363,"2019-09-28T14:00:00","ND","ND","ND","ND","ND","ND","ND","ND","ND","ND","ND","ND"],
    [82364,"2019-09-28T15:00:00","ND","ND","ND","ND","ND","ND","ND","ND","ND","ND","ND","0"],
    [82365,"2019-09-28T16:00:00","ND","ND","ND","ND","ND","ND","ND","ND","ND","ND","ND","0"],
    [82366,"2019-09-28T17:00:00","ND","ND","ND","ND","ND","ND","ND","ND","ND","ND","ND","0.1"],
    [82367,"2019-09-28T18:00:00","ND","ND","ND","ND","ND","ND","ND","ND","ND","ND","ND","ND"],
    [82368,"2019-09-28T19:00:00","ND","ND","ND","ND","ND","ND","ND","ND","ND","ND","ND","0"],
    [82369,"2019-09-28T20:00:00","ND","ND","ND","ND","ND","ND","ND","ND","ND","ND","ND","0"],
    [82370,"2019-09-28T21:00:00","ND","ND","ND","ND","ND","ND","ND","ND","ND","ND","ND","0"],
    [82371,"2019-09-28T22:00:00","ND","ND","ND","ND","ND","ND","ND","ND","ND","ND","ND","0"],
    [82372,"2019-09-28T23:00:00","ND","ND","ND","ND","ND","ND","ND","ND","ND","ND","ND","0"],
    [82373,"2019-09-29T00:00:00","ND","ND","ND","ND","ND","ND","ND","ND","ND","ND","ND","0"],
    [82374,"2019-09-29T01:00:00","ND","ND","ND","ND","ND","ND","ND","ND","ND","ND","ND","0"],
    [82375,"2019-09-29T02:00:00","ND","ND","ND","ND","ND","ND","ND","ND","ND","ND","ND","0"],
    [82376,"2019-09-29T03:00:00","ND","ND","ND","ND","ND","ND","ND","ND","ND","ND","ND","0"],
    [82377,"2019-09-29T04:00:00","ND","ND","ND","ND","ND","ND","ND","ND","ND","ND","ND","0"],
    [82378,"2019-09-29T05:00:00","ND","ND","ND","ND","ND","ND","ND","ND","ND","ND","ND","0"],
    [82379,"2019-09-29T06:00:00","ND","ND","ND","ND","ND","ND","ND","ND","ND","ND","ND","0"],
    [82380,"2019-09-29T07:00:00","ND","ND","ND","ND","ND","ND","ND","ND","ND","ND","ND","0"],
    [82381,"2019-09-29T08:00:00","ND","ND","ND","ND","ND","ND","ND","ND","ND","ND","ND","0"],
    [82382,"2019-09-29T09:00:00","ND","ND","ND","ND","ND","ND","ND","ND","ND","ND","ND","0"],
    [82383,"2019-09-29T10:00:00","ND","ND","ND","ND","ND","ND","ND","ND","ND","ND","ND","0"],
    [82384,"2019-09-29T11:00:00","ND","ND","ND","ND","ND","ND","ND","ND","ND","ND","ND","0"],
    [82385,"2019-09-29T12:00:00","ND","ND","ND","ND","ND","ND","ND","ND","ND","ND","ND","0"],
    [82386,"2019-09-29T13:00:00","ND","ND","ND","ND","ND","ND","ND","ND","ND","ND","ND","0"],
    [82387,"2019-09-29T14:00:00","ND","ND","ND","ND","ND","ND","ND","ND","ND","ND","ND","0"],
    [82388,"2019-09-29T15:00:00","ND","ND","ND","ND","ND","ND","ND","ND","ND","ND","ND","0"],
    [82389,"2019-09-29T16:00:00","ND","ND","ND","ND","ND","ND","ND","ND","ND","ND","ND","0"],
    [82390,"2019-09-29T17:00:00","ND","ND","ND","ND","ND","ND","ND","ND","ND","ND","ND","0"],
    [82391,"2019-09-29T18:00:00","ND","ND","ND","ND","ND","ND","ND","ND","ND","ND","ND","0"],
    [82392,"2019-09-29T19:00:00","ND","ND","ND","ND","ND","ND","ND","ND","ND","ND","ND","0"],
    [82393,"2019-09-29T20:00:00","ND","ND","ND","ND","ND","ND","ND","ND","ND","ND","ND","0"],
    [82394,"2019-09-29T21:00:00","ND","ND","ND","ND","ND","ND","ND","ND","ND","ND","ND","0"],
    [82395,"2019-09-29T22:00:00","ND","ND","ND","ND","ND","ND","ND","ND","ND","ND","ND","0"],
    [82396,"2019-09-29T23:00:00","ND","ND","ND","ND","ND","ND","ND","ND","ND","ND","ND","0.3"],
    [82397,"2019-09-30T00:00:00","ND","ND","ND","ND","ND","ND","ND","ND","ND","ND","ND","0"],
    [82398,"2019-09-30T01:00:00","ND","ND","ND","ND","ND","ND","ND","ND","ND","ND","ND","0"],
    [82399,"2019-09-30T02:00:00","ND","ND","ND","ND","ND","ND","ND","ND","ND","ND","ND","0"],
    [82400,"2019-09-30T03:00:00","ND","ND","ND","ND","ND","ND","ND","ND","ND","ND","ND","ND"],
    [82401,"2019-09-30T04:00:00","ND","ND","ND","ND","ND","ND","ND","ND","ND","ND","ND","0"],
    [82402,"2019-09-30T05:00:00","ND","ND","ND","ND","ND","ND","ND","ND","ND","ND","ND","0"],
    [82403,"2019-09-30T06:00:00","ND","ND","ND","ND","ND","ND","ND","ND","ND","ND","ND","0"],
    [82404,"2019-09-30T07:00:00","ND","ND","ND","ND","ND","ND","ND","ND","ND","ND","ND","0"],
    [82405,"2019-09-30T08:00:00","ND","ND","ND","ND","ND","ND","ND","ND","ND","ND","ND","0"],
    [82406,"2019-09-30T09:00:00","ND","ND","ND","ND","ND","ND","ND","ND","ND","ND","ND","0"],
    [82407,"2019-09-30T10:00:00","ND","ND","ND","ND","ND","ND","ND","ND","ND","ND","ND","0"],
    [82408,"2019-09-30T11:00:00","ND","ND","ND","ND","ND","ND","ND","ND","ND","ND","ND","0"],
    [82409,"2019-09-30T12:00:00","ND","ND","ND","ND","ND","ND","ND","ND","ND","ND","ND","0"],
    [82410,"2019-09-30T13:00:00","ND","ND","ND","ND","ND","ND","ND","ND","ND","ND","ND","0"],
    [82411,"2019-09-30T14:00:00","ND","ND","ND","ND","ND","ND","ND","ND","ND","ND","ND","0"],
    [82412,"2019-09-30T15:00:00","ND","ND","ND","ND","ND","ND","ND","ND","ND","ND","ND","0"],
    [82413,"2019-09-30T16:00:00","ND","ND","ND","ND","ND","ND","ND","ND","ND","ND","ND","ND"],
    [82414,"2019-09-30T17:00:00","ND","ND","ND","ND","ND","ND","ND","ND","ND","ND","ND","0"],
    [82415,"2019-09-30T18:00:00","ND","ND","ND","ND","ND","ND","ND","ND","ND","ND","ND","0"],
    [82416,"2019-09-30T19:00:00","ND","ND","ND","ND","ND","ND","ND","ND","ND","ND","ND","0.1"],
    [82417,"2019-09-30T20:00:00","ND","ND","ND","ND","ND","ND","ND","ND","ND","ND","ND","ND"],
    [82418,"2019-09-30T21:00:00","ND","ND","ND","ND","ND","ND","ND","ND","ND","ND","ND","0"],
    [82419,"2019-09-30T22:00:00","ND","ND","ND","ND","ND","ND","ND","ND","ND","ND","ND","0.1"],
    [82420,"2019-09-30T23:00:00","ND","ND","ND","ND","ND","ND","ND","ND","ND","ND","ND","0"],
    [82421,"2019-10-01T00:00:00","ND","ND","ND","ND","ND","ND","ND","ND","ND","ND","ND","0"],
    [82422,"2019-10-01T01:00:00","ND","ND","ND","ND","ND","ND","ND","ND","ND","ND","ND","0.3"],
    [82423,"2019-10-01T02:00:00","ND","ND","ND","ND","ND","ND","ND","ND","ND","ND","ND","0.1"],
    [82424,"2019-10-01T03:00:00","ND","ND","ND","ND","ND","ND","ND","ND","ND","ND","ND","0"],
    [82425,"2019-10-01T04:00:00","ND","ND","ND","ND","ND","ND","ND","ND","ND","ND","ND","0.2"],
    [82426,"2019-10-01T05:00:00","ND","ND","ND","ND","ND","ND","ND","ND","ND","ND","ND","0.9"],
    [82427,"2019-10-01T06:00:00","ND","ND","ND","ND","ND","ND","ND","ND","ND","ND","ND","0.1"],
    [82428,"2019-10-01T07:00:00","ND","ND","ND","ND","ND","ND","ND","ND","ND","ND","ND","0"],
    [82429,"2019-10-01T08:00:00","ND","ND","ND","ND","ND","ND","ND","ND","ND","ND","ND","0.2"],
    [82430,"2019-10-01T09:00:00","ND","ND","ND","ND","ND","ND","ND","ND","ND","ND","ND","0"],
    [82431,"2019-10-01T10:00:00","ND","ND","ND","ND","ND","ND","ND","ND","ND","ND","ND","0"],
    [82432,"2019-10-01T11:00:00","ND","ND","ND","ND","ND","ND","ND","ND","ND","ND","ND","0"],
    [82433,"2019-10-01T12:00:00","80.2","ND","ND","ND","45.4","0.4","ND","ND","ND","ND","ND","0"],
    [82434,"2019-10-01T13:00:00","27.5","ND","ND","ND","54.4","0.2","ND","ND","ND","ND","664","ND"],
    [82435,"2019-10-01T14:00:00","18.3","ND","ND","ND","60.1","0.3","ND","ND","ND","ND","665","0"],
    [82436,"2019-10-01T15:00:00","14.8","ND","ND","ND","57.9","0.4","ND","ND","ND","ND","665","0"],
    [82437,"2019-10-01T16:00:00","30","ND","ND","ND","53.9","1.1","ND","ND","ND","ND","665","0"],
    [82438,"2019-10-01T17:00:00","11.5","ND","ND","ND","58.7","0.6","ND","ND","ND","ND","606","0"],
    [82439,"2019-10-01T18:00:00","17.7","ND","ND","ND","55","0.2","ND","ND","ND","ND","512","0"],
    [82440,"2019-10-01T19:00:00","35.9","ND","ND","ND","12.3","0.4","ND","ND","ND","ND","0","0"],
    [82441,"2019-10-01T20:00:00","74.7","ND","ND","ND","7.5","0.3","ND","ND","ND","ND","0","0"],
    [82442,"2019-10-01T21:00:00","76.7","ND","ND","ND","4.2","0.2","ND","ND","ND","ND","0","0"],
    [82443,"2019-10-01T22:00:00","60.8","ND","ND","ND","4.3","0.6","ND","ND","ND","ND","0","0.9"],
    [82444,"2019-10-01T23:00:00","84.3","ND","ND","ND","3.6","1.4","ND","ND","ND","ND","0","0"],
    [82445,"2019-10-02T00:00:00","20.7","ND","ND","ND","3.6","2","ND","ND","ND","ND","0","0"],
    [82446,"2019-10-02T01:00:00","38.7","ND","ND","ND","3.6","1.7","ND","ND","ND","ND","0","0"],
    [82447,"2019-10-02T02:00:00","48.4","ND","ND","ND","5.1","1.5","ND","ND","ND","ND","0","0"],
    [82448,"2019-10-02T03:00:00","24.5","ND","ND","ND","4.7","1.3","ND","ND","ND","ND","0","0"],
    [82449,"2019-10-02T04:00:00","24.9","ND","ND","ND","4.1","1.4","ND","ND","ND","ND","0","0"],
    [82450,"2019-10-02T05:00:00","39.2","ND","ND","ND","4.6","1.2","ND","ND","ND","ND","0","0.5"],
    [82451,"2019-10-02T06:00:00","45.1","ND","ND","ND","5.5","3.3","ND","ND","ND","ND","0","0.1"],
    [82452,"2019-10-02T07:00:00","44","ND","ND","ND","3.9","1.8","ND","ND","ND","ND","0","0.3"],
    [82453,"2019-10-02T08:00:00","48.6","ND","ND","ND","7.8","0.9","ND","ND","ND","ND","84","0.1"],
    [82454,"2019-10-02T09:00:00","42.2","ND","ND","ND","14.4","1.1","ND","ND","ND","ND","296","0"],
    [82455,"2019-10-02T10:00:00","57.7","ND","ND","ND","27.3","0.3","ND","ND","ND","ND","621","0"],
    [82456,"2019-10-02T11:00:00","57.9","ND","ND","ND","40.8","0.6","ND","ND","ND","ND","659","0"],
    [82457,"2019-10-02T12:00:00","41","ND","ND","ND","75.3","0.5","ND","ND","ND","ND","664","0"],
    [82458,"2019-10-02T13:00:00","28.5","ND","ND","ND","90","0.3","ND","ND","ND","ND","645","0"],
    [82459,"2019-10-02T14:00:00","19.8","ND","ND","ND","33","0.1","ND","ND","ND","ND","511","0"],
    [82460,"2019-10-02T15:00:00","6.4","ND","ND","ND","16.5","0.2","ND","ND","ND","ND","232","0"],
    [82461,"2019-10-02T16:00:00","16.4","ND","ND","ND","11.5","0.1","ND","ND","ND","ND","330","0"],
    [82462,"2019-10-02T17:00:00","38.1","ND","ND","ND","15","0.5","ND","ND","ND","ND","403","0"],
    [82463,"2019-10-02T18:00:00","22.2","ND","ND","ND","12.1","0.1","ND","ND","ND","ND","389","0"],
    [82464,"2019-10-02T19:00:00","37.2","ND","ND","ND","4.1","0.1","ND","ND","ND","ND","0","0.3"],
    [82465,"2019-10-02T20:00:00","40.3","ND","ND","ND","5.4","0.2","ND","ND","ND","ND","0","0.1"],
    [82466,"2019-10-02T21:00:00","35.4","ND","ND","ND","4.3","0.9","ND","ND","ND","ND","0","0"],
    [82467,"2019-10-02T22:00:00","35.2","ND","ND","ND","4.6","ND","ND","ND","ND","ND","0","0"],
    [82468,"2019-10-02T23:00:00","23.2","ND","ND","ND","5.2","ND","ND","ND","ND","ND","ND","0"],
    [82469,"2019-10-03T00:00:00","29","ND","ND","ND","4","ND","ND","ND","ND","ND","ND","0"],
    [82470,"2019-10-03T01:00:00","20","ND","ND","ND","3.9","ND","ND","ND","ND","ND","ND","0"],
    [82471,"2019-10-03T02:00:00","ND","ND","ND","ND","3.5","ND","ND","ND","ND","ND","ND","0"],
    [82472,"2019-10-03T03:00:00","2.8","ND","ND","ND","3.6","ND","ND","ND","ND","ND","ND","0"],
    [82473,"2019-10-03T04:00:00","12.8","ND","ND","ND","3.8","ND","ND","ND","ND","ND","ND","0"],
    [82474,"2019-10-03T05:00:00","27.2","ND","ND","ND","3.6","ND","ND","ND","ND","ND","ND","0"],
    [82475,"2019-10-03T06:00:00","44","ND","ND","ND","3.7","ND","ND","ND","ND","ND","ND","0"],
    [82476,"2019-10-03T07:00:00","11.8","ND","ND","ND","3.6","ND","ND","ND","ND","ND","ND","0"],
    [82477,"2019-10-03T08:00:00","ND","ND","ND","ND","3.7","ND","ND","ND","ND","ND","ND","0"],
    [82478,"2019-10-03T09:00:00","44.2","ND","ND","ND","3.1","ND","ND","ND","ND","ND","ND","0"],
    [82479,"2019-10-03T10:00:00","ND","ND","ND","ND","3.9","ND","ND","ND","ND","ND","ND","0"],
    [82480,"2019-10-03T11:00:00","ND","ND","ND","ND","7.2","ND","ND","ND","ND","ND","ND","0"],
    [82481,"2019-10-03T12:00:00","151.8","ND","ND","ND","30.8","0.7","ND","ND","ND","ND","ND","0"],
    [82482,"2019-10-03T13:00:00","120","ND","ND","ND","54.7","ND","0.8","94.8","ND","ND","ND","0"],
    [82483,"2019-10-03T14:00:00","11.3","ND","ND","ND","ND","ND","1.2","50.5","ND","ND","664","0"],
    [82484,"2019-10-03T15:00:00","25.7","ND","ND","ND","ND","2","1.4","358.7","ND","ND","ND","0"],
    [82485,"2019-10-03T16:00:00","75.1","ND","ND","ND","ND","0","0.7","340","ND","ND","665","0"],
    [82486,"2019-10-03T17:00:00","38.6","ND","ND","ND","ND","0.3","0.8","40.4","ND","ND","631","0"],
    [82487,"2019-10-03T18:00:00","4","ND","ND","ND","ND","0","0.5","100.7","ND","ND","468","0"],
    [82488,"2019-10-03T19:00:00","8.7","ND","ND","ND","ND","0","0.6","217.6","ND","ND","0","0"],
    [82489,"2019-10-03T20:00:00","2","ND","ND","ND","5.2","ND","0.2","205.3","ND","ND","0","0"],
    [82490,"2019-10-03T21:00:00","57.7","ND","ND","ND","4.1","ND","0.5","269.4","ND","ND","0","0"],
    [82491,"2019-10-03T22:00:00","87.5","ND","ND","ND","5.3","ND","0.2","353.7","ND","ND","0","0"],
    [82492,"2019-10-03T23:00:00","137.7","ND","ND","ND","4","2.9","0.2","71.2","ND","ND","0","0"],
    [82493,"2019-10-04T00:00:00","78.3","ND","ND","ND","3.9","0.1","0.5","136.2","ND","ND","0","0"],
    [82494,"2019-10-04T01:00:00","46.1","ND","ND","ND","3.9","ND","0.3","349.4","ND","ND","0","0"],
    [82495,"2019-10-04T02:00:00","11","ND","ND","ND","4.3","0.1","0.6","344.6","ND","ND","0","0"],
    [82496,"2019-10-04T03:00:00","84.5","ND","ND","ND","4","3.6","0.4","355.5","ND","ND","0","0"],
    [82497,"2019-10-04T04:00:00","80.6","ND","ND","ND","4.2","6.8","0.4","355.3","ND","ND","0","0"],
    [82498,"2019-10-04T05:00:00","88.2","ND","ND","ND","4.1","10.3","0.3","359.6","ND","ND","0","0"],
    [82499,"2019-10-04T06:00:00","69.5","ND","ND","ND","3.8","8.7","0.2","9.9","ND","ND","0","0"],
    [82500,"2019-10-04T07:00:00","96.4","ND","ND","ND","4.3","6.5","0.2","5.8","ND","ND","2","0"],
    [82501,"2019-10-04T08:00:00","127","ND","ND","ND","4.5","2.8","0.6","30.6","ND","ND","136","0"],
    [82502,"2019-10-04T09:00:00","79.8","ND","ND","ND","6.6","1.9","0.8","55.9","ND","ND","385","0"],
    [82503,"2019-10-04T10:00:00","67.6","ND","ND","ND","18.4","0.5","1","87.8","ND","ND","626","0"],
    [82504,"2019-10-04T11:00:00","52","ND","ND","ND","45.4","ND","0.8","87.6","ND","ND","664","0"],
    [82505,"2019-10-04T12:00:00","33.5","ND","ND","ND","64.7","ND","0.8","70.4","ND","ND","665","0"],
    [82506,"2019-10-04T13:00:00","36.3","ND","ND","ND","70.9","ND","0.9","49.3","ND","ND","665","0"],
    [82507,"2019-10-04T14:00:00","11.2","ND","ND","ND","79.8","0","0.5","353","ND","ND","665","0"],
    [82508,"2019-10-04T15:00:00","22.1","ND","ND","ND","78.8","ND","1.2","14.4","ND","ND","665","0"],
    [82509,"2019-10-04T16:00:00","37.5","ND","ND","ND","61.2","0.2","0.5","261.1","ND","ND","656","0"],
    [82510,"2019-10-04T17:00:00","ND","ND","ND","ND","33.1","ND","1.8","239","ND","ND","551","0"],
    [82511,"2019-10-04T18:00:00","1","ND","ND","ND","23.4","ND","0.8","234.3","ND","ND","572","0"],
    [82512,"2019-10-04T19:00:00","12.8","ND","ND","ND","12.1","ND","0.4","30.7","ND","ND","0","5.5"],
    [82513,"2019-10-04T20:00:00","51.9","ND","ND","ND","4.6","0.6","0.7","59.2","ND","ND","0","0.1"],
    [82514,"2019-10-04T21:00:00","58.2","ND","ND","ND","4.8","1.5","0.9","118.3","ND","ND","0","0.1"],
    [82515,"2019-10-04T22:00:00","28.6","ND","ND","ND","4","3.6","0.5","85.2","ND","ND","0","0"],
    [82516,"2019-10-04T23:00:00","1.5","ND","ND","ND","3.5","2.4","0.4","112.6","ND","ND","0","0"],
    [82517,"2019-10-05T00:00:00","20.2","ND","ND","ND","3.7","1.8","0","162.5","ND","ND","0","0"],
    [82518,"2019-10-05T01:00:00","35","ND","ND","ND","3.6","0.5","0.1","243.5","ND","ND","0","ND"],
    [82519,"2019-10-05T02:00:00","54.6","ND","ND","ND","3.5","0.9","0","174.5","ND","ND","0","ND"],
    [82520,"2019-10-05T03:00:00","41.1","ND","ND","ND","3.8","2.6","0.4","189.9","ND","ND","0","ND"],
    [82521,"2019-10-05T04:00:00","36.6","ND","ND","ND","4.9","0.2","0.3","320.6","ND","ND","0","ND"],
    [82522,"2019-10-05T05:00:00","90.7","ND","ND","ND","3.7","1","0.1","122.9","ND","ND","0","ND"],
    [82523,"2019-10-05T06:00:00","77.9","ND","ND","ND","3.9","3.5","0.5","351.8","ND","ND","0","ND"],
    [82524,"2019-10-05T07:00:00","93","ND","ND","ND","4.3","4.2","0.1","322.9","ND","ND","1","ND"],
    [82525,"2019-10-05T08:00:00","99.9","ND","ND","ND","5.5","3","0.3","135.9","ND","ND","79","ND"],
    [82526,"2019-10-05T09:00:00","107.5","ND","ND","ND","11.9","1.5","1.2","33.6","ND","ND","508","ND"],
    [82527,"2019-10-05T10:00:00","107.2","ND","ND","ND","31.1","1.5","0.5","27.7","ND","ND","646","ND"],
    [82528,"2019-10-05T11:00:00","62.8","ND","ND","ND","44.4","0.6","0.1","76.3","ND","ND","664","ND"],
    [82529,"2019-10-05T12:00:00","29.4","ND","ND","ND","55.3","ND","0.5","295","ND","ND","583","ND"],
    [82530,"2019-10-05T13:00:00","45.1","ND","ND","ND","61.4","ND","0.8","188.9","ND","ND","647","ND"],
    [82531,"2019-10-05T14:00:00","4.9","ND","ND","ND","43.6","ND","1.3","336.3","ND","ND","665","ND"],
    [82532,"2019-10-05T15:00:00","ND","ND","ND","ND","37.3","ND","2","239.7","ND","ND","665","ND"],
    [82533,"2019-10-05T16:00:00","ND","ND","ND","ND","35.8","ND","2","239","ND","ND","665","ND"],
    [82534,"2019-10-05T17:00:00","27.4","ND","ND","ND","35.1","ND","1.6","245.5","ND","ND","665","ND"],
    [82535,"2019-10-05T18:00:00","0.9","ND","ND","ND","28.7","ND","0.4","303.7","ND","ND","407","ND"],
    [82536,"2019-10-05T19:00:00","ND","ND","ND","ND","15.2","ND","0.3","100.6","ND","ND","0","ND"],
    [82537,"2019-10-05T20:00:00","34.5","ND","ND","ND","5.1","ND","0.3","356.1","ND","ND","0","ND"],
    [82538,"2019-10-05T21:00:00","57.8","ND","ND","ND","4.4","1.7","0.7","51.6","ND","ND","0","ND"],
    [82539,"2019-10-05T22:00:00","44.1","ND","ND","ND","3.7","2.7","0.6","113.6","ND","ND","0","ND"],
    [82540,"2019-10-05T23:00:00","45.1","ND","ND","ND","3.7","4.4","0.4","36.2","ND","ND","0","ND"],
    [82541,"2019-10-06T00:00:00","42.5","ND","ND","ND","3.7","2.6","0.6","315.4","ND","ND","0","ND"],
    [82542,"2019-10-06T01:00:00","25.2","ND","ND","ND","3.7","1.1","0.4","350.8","ND","ND","0","0"],
    [82543,"2019-10-06T02:00:00","2.3","ND","ND","ND","3.6","0.6","0.1","81.9","ND","ND","0","0"],
    [82544,"2019-10-06T03:00:00","ND","ND","ND","ND","3.6","0.9","0","248.1","ND","ND","0","0"],
    [82545,"2019-10-06T04:00:00","25.4","ND","ND","ND","3.8","1.8","0.2","326.4","ND","ND","0","0"],
    [82546,"2019-10-06T05:00:00","22.5","ND","ND","ND","4.1","1.2","0.2","326.2","ND","ND","0","0"],
    [82547,"2019-10-06T06:00:00","38","ND","ND","ND","3.7","2.1","0.4","354.5","ND","ND","0","0"],
    [82548,"2019-10-06T07:00:00","28.4","ND","ND","ND","4.7","2","0.5","118.5","ND","ND","1","0"],
    [82549,"2019-10-06T08:00:00","29.4","ND","ND","ND","7.2","3.4","0.7","8.6","ND","ND","97","0"],
    [82550,"2019-10-06T09:00:00","28.3","ND","ND","ND","12.2","4.1","0.8","38","ND","ND","318","0"],
    [82551,"2019-10-06T10:00:00","31.1","ND","ND","ND","17.6","1.4","1.3","71.4","ND","ND","651","0"],
    [82552,"2019-10-06T11:00:00","32","ND","ND","ND","33.8","0.4","1.1","118.1","ND","ND","664","0"],
    [82553,"2019-10-06T12:00:00","ND","ND","ND","ND","44.9","0.2","0.1","223.3","ND","ND","664","1.3"],
    [82554,"2019-10-06T13:00:00","21","ND","ND","ND","52.4","ND","0.4","8.6","ND","ND","664","0.1"],
    [82555,"2019-10-06T14:00:00","ND","ND","ND","ND","31.3","ND","1.1","303.6","ND","ND","662","0"],
    [82556,"2019-10-06T15:00:00","ND","ND","ND","ND","32.3","ND","1.1","323.2","ND","ND","612","0"],
    [82557,"2019-10-06T16:00:00","14.6","ND","ND","ND","26","ND","0.5","53.8","ND","ND","651","0"],
    [82558,"2019-10-06T17:00:00","30.7","ND","ND","ND","28.7","ND","0.6","253.4","ND","ND","511","0"],
    [82559,"2019-10-06T18:00:00","7","ND","ND","ND","26.9","ND","0.3","184.5","ND","ND","346","0"],
    [82560,"2019-10-06T19:00:00","6.5","ND","ND","ND","17","ND","1.1","110.1","ND","ND","0","0"],
    [82561,"2019-10-06T20:00:00","17.4","ND","ND","ND","10.7","0.7","0.5","62","ND","ND","0","0"],
    [82562,"2019-10-06T21:00:00","28.4","ND","ND","ND","16.2","ND","0.6","152.9","ND","ND","0","0"],
    [82563,"2019-10-06T22:00:00","32.2","ND","ND","ND","6.4","1.5","0.7","10.6","ND","ND","0","0"],
    [82564,"2019-10-06T23:00:00","51.7","ND","ND","ND","14.6","1.1","0.9","93.1","ND","ND","0","0"],
    [82565,"2019-10-07T00:00:00","39.8","ND","ND","ND","14.4","0.6","0.4","109.5","ND","ND","0","0"],
    [82566,"2019-10-07T01:00:00","16.6","ND","ND","ND","12.8","1.2","0.2","109.5","ND","ND","0","0.1"],
    [82567,"2019-10-07T02:00:00","35.4","ND","ND","ND","10.1","0.9","0.3","320.9","ND","ND","0","0.3"],
    [82568,"2019-10-07T03:00:00","41.9","ND","ND","ND","10.3","2.1","0.7","359.8","ND","ND","0","0.1"],
    [82569,"2019-10-07T04:00:00","39.9","ND","ND","ND","11.4","1.8","0.5","338","ND","ND","0","0"],
    [82570,"2019-10-07T05:00:00","44.1","ND","ND","ND","6.3","1.6","0.3","81.8","ND","ND","0","0.1"],
    [82571,"2019-10-07T06:00:00","41.7","ND","ND","ND","6.1","1.9","0.2","83.3","ND","ND","0","0"],
    [82572,"2019-10-07T07:00:00","45","ND","ND","ND","4.4","2","0.7","134.5","ND","ND","2","0"],
    [82573,"2019-10-07T08:00:00","44","ND","ND","ND","8.1","0.2","0.5","107.9","ND","ND","80","0"],
    [82574,"2019-10-07T09:00:00","38.6","ND","ND","ND","10.2","0.8","0.9","13.9","ND","ND","257","0"],
    [82575,"2019-10-07T10:00:00","43.3","ND","ND","ND","21.6","0.1","1.1","6.2","ND","ND","391","0"],
    [82576,"2019-10-07T11:00:00","18.8","ND","ND","ND","34.6","ND","0.9","38.5","ND","ND","664","0"],
    [82577,"2019-10-07T12:00:00","7.5","ND","ND","ND","52.6","0.7","1.1","79.9","ND","ND","665","0"],
    [82578,"2019-10-07T13:00:00","16.7","ND","ND","ND","67.6","ND","1.2","73.9","ND","ND","665","0"],
    [82579,"2019-10-07T14:00:00","31.9","ND","ND","ND","62.1","ND","1.3","17.5","ND","ND","665","0"],
    [82580,"2019-10-07T15:00:00","37.1","ND","ND","ND","45.9","ND","0.7","350.4","ND","ND","622","0"],
    [82581,"2019-10-07T16:00:00","28.6","ND","ND","ND","33.4","ND","1.6","251.6","ND","ND","658","0"],
    [82582,"2019-10-07T17:00:00","22.5","ND","ND","ND","30.1","ND","1.2","262.1","ND","ND","659","0"],
    [82583,"2019-10-07T18:00:00","ND","ND","ND","ND","23.1","ND","0.7","260.5","ND","ND","594","0"],
    [82584,"2019-10-07T19:00:00","23.8","ND","ND","ND","10.2","ND","0.1","139.7","ND","ND","0","0"],
    [82585,"2019-10-07T20:00:00","51.9","ND","ND","ND","4.6","ND","0.3","62.5","ND","ND","0","0"],
    [82586,"2019-10-07T21:00:00","70","ND","ND","ND","4.4","1.3","0.7","113.1","ND","ND","0","0"],
    [82587,"2019-10-07T22:00:00","64.6","ND","ND","ND","3.9","1.8","0.8","81.6","ND","ND","0","0"],
    [82588,"2019-10-07T23:00:00","35.7","ND","ND","ND","5.2","1.3","0.1","248.4","ND","ND","0","0"],
    [82589,"2019-10-08T00:00:00","36","ND","ND","ND","4.2","2.5","0.4","5.3","ND","ND","0","0"],
    [82590,"2019-10-08T01:00:00","89.3","ND","ND","ND","3.7","4","0.4","11.2","ND","ND","0","0"],
    [82591,"2019-10-08T02:00:00","78.1","ND","ND","ND","3.8","3.6","0.3","341","ND","ND","0","0"],
    [82592,"2019-10-08T03:00:00","73.7","ND","ND","ND","3.6","4.3","0.4","340.4","ND","ND","0","0.2"],
    [82593,"2019-10-08T04:00:00","70.3","ND","ND","ND","4.2","3.2","1","2.3","ND","ND","0","0"],
    [82594,"2019-10-08T05:00:00","52.4","ND","ND","ND","3.9","16.2","0.7","24.9","ND","ND","0","0"],
    [82595,"2019-10-08T06:00:00","39.7","ND","ND","ND","4","21","0.2","77.3","ND","ND","0","0"],
    [82596,"2019-10-08T07:00:00","49.7","ND","ND","ND","3.9","15.9","0.1","339.7","ND","ND","1","ND"],
    [82597,"2019-10-08T08:00:00","48.2","ND","ND","ND","3.9","9.5","0.8","14.7","ND","ND","74","0"],
    [82598,"2019-10-08T09:00:00","47.9","ND","ND","ND","5","6.6","0.3","2.9","ND","ND","355","0"],
    [82599,"2019-10-08T10:00:00","77.4","ND","ND","ND","10.8","2.7","0.6","35.4","ND","ND","604","0"],
    [82600,"2019-10-08T11:00:00","55.1","ND","ND","ND","29.7","1.3","0.4","287.2","ND","ND","639","ND"],
    [82601,"2019-10-08T12:00:00","35.3","ND","ND","ND","63.9","0.4","0.4","83.3","ND","ND","665","0"],
    [82602,"2019-10-08T13:00:00","29.7","ND","ND","ND","87.6","0.6","0.8","94.8","ND","ND","665","0"],
    [82603,"2019-10-08T14:00:00","25.8","ND","ND","ND","85.4","0.4","0.8","50.1","ND","ND","666","ND"],
    [82604,"2019-10-08T15:00:00","28.6","ND","ND","ND","41.7","ND","1.8","263.8","ND","ND","603","ND"],
    [82605,"2019-10-08T16:00:00","26.5","ND","ND","ND","39","ND","1.8","246.6","ND","ND","531","ND"],
    [82606,"2019-10-08T17:00:00","28.5","ND","ND","ND","35.4","ND","1.1","244","ND","ND","466","ND"],
    [82607,"2019-10-08T18:00:00","ND","ND","ND","ND","32.1","ND","1","250.8","ND","ND","171","ND"],
    [82608,"2019-10-08T19:00:00","27.1","ND","ND","ND","23","ND","1.7","149.4","ND","ND","0","ND"],
    [82609,"2019-10-08T20:00:00","6.4","ND","ND","ND","17.1","ND","1.3","81.5","ND","ND","0","ND"],
    [82610,"2019-10-08T21:00:00","1.6","ND","ND","ND","14.2","ND","0.9","78.5","ND","ND","0","ND"],
    [82611,"2019-10-08T22:00:00","8.1","ND","ND","ND","17.9","0.5","0.7","123.3","ND","ND","0","0.6"],
    [82612,"2019-10-08T23:00:00","24.9","ND","ND","ND","4","0.7","0.7","121.8","ND","ND","0","ND"],
    [82613,"2019-10-09T00:00:00","39.4","ND","ND","ND","8.3","0.2","0.3","157.3","ND","ND","0","ND"],
    [82614,"2019-10-09T01:00:00","ND","ND","ND","ND","15.7","0","0.6","128.8","ND","ND","0","ND"],
    [82615,"2019-10-09T02:00:00","13.4","ND","ND","ND","8.3","0.9","0.9","353.2","ND","ND","0","ND"],
    [82616,"2019-10-09T03:00:00","47.9","ND","ND","ND","5.6","3.5","0.7","355.3","ND","ND","0","ND"],
    [82617,"2019-10-09T04:00:00","41.7","ND","ND","ND","4.3","7.6","0.4","346.3","ND","ND","0","ND"],
    [82618,"2019-10-09T05:00:00","59.5","ND","ND","ND","3.9","6.2","0.1","325.6","ND","ND","0","ND"],
    [82619,"2019-10-09T06:00:00","57.2","ND","ND","ND","4","4.2","0.4","326.2","ND","ND","0","ND"],
    [82620,"2019-10-09T07:00:00","50.1","ND","ND","ND","4.6","3.8","0.5","317","ND","ND","2","ND"],
    [82621,"2019-10-09T08:00:00","77.5","ND","ND","ND","6.4","2.5","0.7","332.7","ND","ND","196","ND"],
    [82622,"2019-10-09T09:00:00","58.5","ND","ND","ND","18.5","2","1","48.7","ND","ND","639","ND"],
    [82623,"2019-10-09T10:00:00","34.6","ND","ND","ND","30.5","1.8","0.8","139.9","ND","ND","665","ND"],
    [82624,"2019-10-09T11:00:00","71.9","ND","ND","ND","52.3","0.9","0.8","103.4","ND","ND","524","ND"],
    [82625,"2019-10-09T12:00:00","57.3","ND","ND","ND","77","0.7","1.1","84.7","ND","ND","653","ND"],
    [82626,"2019-10-09T13:00:00","50.6","ND","ND","ND","103.4","0","0.7","90.2","ND","ND","665","ND"],
    [82627,"2019-10-09T14:00:00","26.5","ND","ND","ND","118.5","ND","1","103.3","ND","ND","666","ND"],
    [82628,"2019-10-09T15:00:00","32.8","ND","ND","ND","123.4","ND","0.7","82.4","ND","ND","666","ND"],
    [82629,"2019-10-09T16:00:00","44.1","ND","ND","ND","100.7","ND","0.6","311.2","ND","ND","656","ND"],
    [82630,"2019-10-09T17:00:00","49.1","ND","ND","ND","51.2","ND","1.3","233.6","ND","ND","571","ND"],
    [82631,"2019-10-09T18:00:00","24","ND","ND","ND","39","ND","1.6","243.6","ND","ND","523","ND"],
    [82632,"2019-10-09T19:00:00","17.5","ND","ND","ND","33.5","ND","0.5","250.2","ND","ND","0","ND"],
    [82633,"2019-10-09T20:00:00","21","ND","ND","ND","10.8","ND","1.3","83.7","ND","ND","0","ND"],
    [82634,"2019-10-09T21:00:00","22.7","ND","ND","ND","7.2","ND","0.8","81.5","ND","ND","0","ND"],
    [82635,"2019-10-09T22:00:00","34.1","ND","ND","ND","4","0.8","0.3","46.3","ND","ND","0","ND"],
    [82636,"2019-10-09T23:00:00","45.3","ND","ND","ND","4.4","1.9","0.7","112.2","ND","ND","0","ND"],
    [82637,"2019-10-10T00:00:00","19","ND","ND","ND","6","1.5","0.7","122.6","ND","ND","0","ND"],
    [82638,"2019-10-10T01:00:00","17.7","ND","ND","ND","8.2","1","1.2","125.9","ND","ND","0","0"],
    [82639,"2019-10-10T02:00:00","36.5","ND","ND","ND","10.9","1.1","0.6","117.1","ND","ND","0","0"],
    [82640,"2019-10-10T03:00:00","50.9","ND","ND","ND","4.3","2.5","0.5","17.4","ND","ND","0","0"],
    [82641,"2019-10-10T04:00:00","53.5","ND","ND","ND","3.9","2","0.4","323.9","ND","ND","0","0"],
    [82642,"2019-10-10T05:00:00","50.4","ND","ND","ND","3.8","1.6","0.5","341.8","ND","ND","0","1.5"],
    [82643,"2019-10-10T06:00:00","61","ND","ND","ND","3.7","4.1","0.3","354.5","ND","ND","0","0"],
    [82644,"2019-10-10T07:00:00","42.9","ND","ND","ND","4.3","8.3","0.6","32","ND","ND","1","0"],
    [82645,"2019-10-10T08:00:00","57.2","ND","ND","ND","6.5","4.7","0.7","14.9","ND","ND","53","0"],
    [82646,"2019-10-10T09:00:00","59.2","ND","ND","ND","10.1","3.3","0.3","28.9","ND","ND","573","0"],
    [82647,"2019-10-10T10:00:00","58.2","ND","ND","ND","13.7","2","1.3","15.6","ND","ND","665","0"],
    [82648,"2019-10-10T11:00:00","54.6","ND","ND","ND","ND","0.7","1.2","51.1","ND","ND","665","0"],
    [82649,"2019-10-10T12:00:00","56.3","ND","ND","ND","65.4","0.7","1","18.2","ND","ND","665","ND"],
    [82650,"2019-10-10T13:00:00","46","ND","ND","ND","86.8","ND","1.2","33.1","ND","ND","665","0"],
    [82651,"2019-10-10T14:00:00","18.3","ND","ND","ND","79","ND","1.3","24.6","ND","ND","666","0"],
    [82652,"2019-10-10T15:00:00","20.8","ND","ND","ND","75.3","0.3","1.4","30.3","ND","ND","666","0"],
    [82653,"2019-10-10T16:00:00","17.4","ND","ND","ND","57.3","0","0.8","25","ND","ND","645","0"],
    [82654,"2019-10-10T17:00:00","21.1","ND","ND","ND","42.2","0","2.2","237.1","ND","ND","194","0"],
    [82655,"2019-10-10T18:00:00","8.2","ND","ND","ND","31.5","0","1.1","235.1","ND","ND","0","0"],
    [82656,"2019-10-10T19:00:00","16","ND","ND","ND","21","ND","0.2","214","ND","ND","0","0"],
    [82657,"2019-10-10T20:00:00","ND","ND","ND","ND","21","ND","0.1","128.4","ND","ND","0","0"],
    [82658,"2019-10-10T21:00:00","2","ND","ND","ND","17.6","ND","0.9","64.6","ND","ND","0","0"],
    [82659,"2019-10-10T22:00:00","16.8","ND","ND","ND","23.1","ND","1.2","307.1","ND","ND","0","0"],
    [82660,"2019-10-10T23:00:00","29.1","ND","ND","ND","26","ND","0.5","330.3","ND","ND","0","0"],
    [82661,"2019-10-11T00:00:00","10.2","ND","ND","ND","6.3","1.2","0.4","10.9","ND","ND","0","0"],
    [82662,"2019-10-11T01:00:00","ND","ND","ND","ND","14.4","2.5","0.2","157.3","ND","ND","0","0"],
    [82663,"2019-10-11T02:00:00","1.5","ND","ND","ND","6.5","2.1","0.6","63.3","ND","ND","0","0"],
    [82664,"2019-10-11T03:00:00","38.5","ND","ND","ND","10.7","1","0.4","34.2","ND","ND","0","0"],
    [82665,"2019-10-11T04:00:00","15","ND","ND","ND","18","0.4","0.6","119.8","ND","ND","0","0"],
    [82666,"2019-10-11T05:00:00","28.3","ND","ND","ND","13","0.7","1.2","119.6","ND","ND","0","0"],
    [82667,"2019-10-11T06:00:00","27.6","ND","ND","ND","11","0.4","0.6","92.3","ND","ND","0","0"],
    [82668,"2019-10-11T07:00:00","16.4","ND","ND","ND","13.3","ND","1","122.8","ND","ND","8","0"],
    [82669,"2019-10-11T08:00:00","32.5","ND","ND","ND","17.6","0.1","1.2","126.9","ND","ND","273","0"],
    [82670,"2019-10-11T09:00:00","42.8","ND","ND","ND","25.6","ND","1.2","102.5","ND","ND","617","0"],
    [82671,"2019-10-11T10:00:00","38.7","ND","ND","ND","25.7","0.1","0.7","44.9","ND","ND","637","0"],
    [82672,"2019-10-11T11:00:00","44","ND","ND","ND","111","ND","1.3","12.8","ND","ND","656","0"],
    [82673,"2019-10-11T12:00:00","1.9","ND","ND","ND","62","ND","1.1","24.7","ND","ND","664","0"],
    [82674,"2019-10-11T13:00:00","4.7","ND","ND","ND","75","ND","1.2","34.2","ND","ND","666","0"],
    [82675,"2019-10-11T14:00:00","49.3","ND","ND","ND","86.7","ND","1.2","18.3","ND","ND","666","0"],
    [82676,"2019-10-11T15:00:00","26.7","ND","ND","ND","65.3","ND","1","9.9","ND","ND","666","0"],
    [82677,"2019-10-11T16:00:00","16","ND","ND","ND","44","ND","1.4","246.6","ND","ND","313","0.1"],
    [82678,"2019-10-11T17:00:00","18.7","ND","ND","ND","39.6","ND","0.9","256.7","ND","ND","512","0.2"],
    [82679,"2019-10-11T18:00:00","ND","ND","ND","ND","29.9","ND","0.2","321","ND","ND","247","0"],
    [82680,"2019-10-11T19:00:00","1.7","ND","ND","ND","23","ND","0.2","2.2","ND","ND","0","0.3"],
    [82681,"2019-10-11T20:00:00","33.8","ND","ND","ND","5.4","ND","0.5","58.7","ND","ND","0","0"],
    [82682,"2019-10-11T21:00:00","57.8","ND","ND","ND","5.1","0.2","0.1","19.9","ND","ND","0","0"],
    [82683,"2019-10-11T22:00:00","43.8","ND","ND","ND","15","ND","0.2","307.5","ND","ND","0","0"],
    [82684,"2019-10-11T23:00:00","47.6","ND","ND","ND","6.7","2.1","1","6.6","ND","ND","0","0"],
    [82685,"2019-10-12T00:00:00","19.7","ND","ND","ND","5.4","0.6","0.6","125.5","ND","ND","0","0"],
    [82686,"2019-10-12T01:00:00","46.1","ND","ND","ND","11.9","1.7","1.2","101.9","ND","ND","0","0"],
    [82687,"2019-10-12T02:00:00","14.1","ND","ND","ND","18.1","2","0.4","24.4","ND","ND","0","0"],
    [82688,"2019-10-12T03:00:00","ND","ND","ND","ND","6.7","4.5","0.6","50.1","ND","ND","0","0"],
    [82689,"2019-10-12T04:00:00","33.8","ND","ND","ND","10.1","3.7","0.6","89.3","ND","ND","0","0.1"],
    [82690,"2019-10-12T05:00:00","28.6","ND","ND","ND","5.7","3.1","0.7","12.9","ND","ND","0","0"],
    [82691,"2019-10-12T06:00:00","43.2","ND","ND","ND","3.8","2.7","0.6","0.9","ND","ND","0","0"],
    [82692,"2019-10-12T07:00:00","54","ND","ND","ND","4.1","3.7","0.4","7.8","ND","ND","1","0"],
    [82693,"2019-10-12T08:00:00","74.1","ND","ND","ND","5.6","2","0.8","129.9","ND","ND","69","0"],
    [82694,"2019-10-12T09:00:00","34.7","ND","ND","ND","16.6","ND","0.4","160.4","ND","ND","254","0"],
    [82695,"2019-10-12T10:00:00","48.3","ND","ND","ND","36.3","0.1","1.2","97.2","ND","ND","561","0"],
    [82696,"2019-10-12T11:00:00","33.2","ND","ND","ND","54.1","ND","1","62.1","ND","ND","664","0"],
    [82697,"2019-10-12T12:00:00","16","ND","ND","ND","68.7","ND","1","28.8","ND","ND","665","0"],
    [82698,"2019-10-12T13:00:00","26.7","ND","ND","ND","84.6","ND","1","22.9","ND","ND","664","0"],
    [82699,"2019-10-12T14:00:00","19.4","ND","ND","ND","100.1","ND","1.3","32.6","ND","ND","665","0"],
    [82700,"2019-10-12T15:00:00","28.4","ND","ND","ND","93.8","0.1","0.6","303.7","ND","ND","660","0"],
    [82701,"2019-10-12T16:00:00","30.4","ND","ND","ND","64.6","ND","2.4","240.1","ND","ND","637","0"],
    [82702,"2019-10-12T17:00:00","24.2","ND","ND","ND","61.3","ND","2.7","251.2","ND","ND","665","0"],
    [82703,"2019-10-12T18:00:00","ND","ND","ND","ND","50","ND","1.1","252.4","ND","ND","344","0"],
    [82704,"2019-10-12T19:00:00","ND","ND","ND","ND","36.6","ND","0.6","96.7","ND","ND","0","0"],
    [82705,"2019-10-12T20:00:00","ND","ND","ND","ND","24.1","ND","1.9","163.5","ND","ND","0","0"],
    [82706,"2019-10-12T21:00:00","9.1","ND","ND","ND","21.8","ND","0.4","210.5","ND","ND","0","0"],
    [82707,"2019-10-12T22:00:00","1.9","ND","ND","ND","22.2","ND","0.4","178.4","ND","ND","0","0"],
    [82708,"2019-10-12T23:00:00","16.2","ND","ND","ND","10.9","2.4","0.8","342","ND","ND","0","0"],
    [82709,"2019-10-13T00:00:00","25.5","ND","ND","ND","4.5","6.2","0.1","332","ND","ND","0","0"],
    [82710,"2019-10-13T01:00:00","21","ND","ND","ND","8.7","4.3","0.6","41","ND","ND","0","0"],
    [82711,"2019-10-13T02:00:00","20.6","ND","ND","ND","12.5","1.3","0.6","116.2","ND","ND","0","0.2"],
    [82712,"2019-10-13T03:00:00","23.5","ND","ND","ND","10.3","0.7","0.8","33.1","ND","ND","0","0.4"],
    [82713,"2019-10-13T04:00:00","11.6","ND","ND","ND","6.2","3.6","0.8","345.1","ND","ND","0","2.8"],
    [82714,"2019-10-13T05:00:00","15.4","ND","ND","ND","4.6","4","0.2","325.5","ND","ND","0","2.7"],
    [82715,"2019-10-13T06:00:00","0.6","ND","ND","ND","3.6","4.3","0.7","19.7","ND","ND","0","0"],
    [82716,"2019-10-13T07:00:00","22","ND","ND","ND","4.1","6.1","0.5","261.6","ND","ND","0","0.1"],
    [82717,"2019-10-13T08:00:00","12.9","ND","ND","ND","5","2.4","0.2","180.3","ND","ND","43","0.3"],
    [82718,"2019-10-13T09:00:00","36.8","ND","ND","ND","13.7","0.2","0.7","105.6","ND","ND","326","0"],
    [82719,"2019-10-13T10:00:00","31.8","ND","ND","ND","23.9","0.5","0.8","93","ND","ND","648","0"],
    [82720,"2019-10-13T11:00:00","24.1","ND","ND","ND","39.1","ND","0.6","129.4","ND","ND","657","0"],
    [82721,"2019-10-13T12:00:00","14","ND","ND","ND","59.9","ND","1.1","115.7","ND","ND","664","0"],
    [82722,"2019-10-13T13:00:00","24.9","ND","ND","ND","66.4","ND","0.8","124.1","ND","ND","665","0"],
    [82723,"2019-10-13T14:00:00","21.6","ND","ND","ND","68.9","ND","0.8","31.9","ND","ND","665","0"],
    [82724,"2019-10-13T15:00:00","18.9","ND","ND","ND","75.8","ND","1.3","14.9","ND","ND","665","0"],
    [82725,"2019-10-13T16:00:00","14.1","ND","ND","ND","74.1","ND","0.3","24.1","ND","ND","660","0"],
    [82726,"2019-10-13T17:00:00","ND","ND","ND","ND","32.8","ND","1.5","227.2","ND","ND","549","0"],
    [82727,"2019-10-13T18:00:00","ND","ND","ND","ND","28.9","ND","0.2","122.6","ND","ND","249","0"],
    [82728,"2019-10-13T19:00:00","16","ND","ND","ND","23.9","ND","0.5","76.1","ND","ND","0","0.6"],
    [82729,"2019-10-13T20:00:00","18","ND","ND","ND","13.9","ND","0.4","51.1","ND","ND","0","1.2"],
    [82730,"2019-10-13T21:00:00","23.9","ND","ND","ND","4.7","1.2","0.7","89","ND","ND","0","0.1"],
    [82731,"2019-10-13T22:00:00","24.1","ND","ND","ND","3.7","1.7","0.4","97.7","ND","ND","0","0.3"],
    [82732,"2019-10-13T23:00:00","26.5","ND","ND","ND","3.6","ND","0.6","123.1","ND","ND","0","0"],
    [82733,"2019-10-14T00:00:00","43.8","ND","ND","ND","3.6","ND","0.3","97.9","ND","ND","0","0"],
    [82734,"2019-10-14T01:00:00","44.8","ND","ND","ND","3.3","0.9","0.2","108.4","ND","ND","0","0"],
    [82735,"2019-10-14T02:00:00","51.7","ND","ND","ND","4.8","1.3","1","113","ND","ND","0","0"],
    [82736,"2019-10-14T03:00:00","34.1","ND","ND","ND","5","1.1","0.4","22.3","ND","ND","0","0"],
    [82737,"2019-10-14T04:00:00","19.2","ND","ND","ND","4.5","0.6","0.5","125.8","ND","ND","0","0"],
    [82738,"2019-10-14T05:00:00","23.3","ND","ND","ND","4.5","0.4","0.5","234.7","ND","ND","0","0"],
    [82739,"2019-10-14T06:00:00","33.3","ND","ND","ND","4.8","ND","0.2","222.3","ND","ND","0","0"],
    [82740,"2019-10-14T07:00:00","21.3","ND","ND","ND","4.3","0.6","0.1","337","ND","ND","2","0"],
    [82741,"2019-10-14T08:00:00","31.4","ND","ND","ND","9.2","0.9","1.3","111.9","ND","ND","175","0"],
    [82742,"2019-10-14T09:00:00","62.6","ND","ND","ND","16.9","0.5","0.6","88.9","ND","ND","532","0"],
    [82743,"2019-10-14T10:00:00","42.8","ND","ND","ND","29.7","ND","0.9","85.9","ND","ND","664","0"],
    [82744,"2019-10-14T11:00:00","27.1","ND","ND","ND","38.8","ND","1.1","31.4","ND","ND","644","0"],
    [82745,"2019-10-14T12:00:00","54.5","ND","ND","ND","47.1","ND","1.1","27.5","ND","ND","665","0"],
    [82746,"2019-10-14T13:00:00","42.8","ND","ND","ND","55.8","ND","1.4","16.9","ND","ND","665","0"],
    [82747,"2019-10-14T14:00:00","3.1","ND","ND","ND","45.2","ND","1.2","2","ND","ND","665","0"],
    [82748,"2019-10-14T15:00:00","5.6","ND","ND","ND","34.9","ND","0.6","272","ND","ND","665","0"],
    [82749,"2019-10-14T16:00:00","6.5","ND","ND","ND","34.4","ND","2.3","235.7","ND","ND","605","0"],
    [82750,"2019-10-14T17:00:00","1.7","ND","ND","ND","31.9","ND","1.3","238.6","ND","ND","635","0"],
    [82751,"2019-10-14T18:00:00","2.2","ND","ND","ND","28.6","ND","0.7","239.2","ND","ND","548","0"],
    [82752,"2019-10-14T19:00:00","ND","ND","ND","ND","18.8","ND","0.2","233.6","ND","ND","0","0"],
    [82753,"2019-10-14T20:00:00","38.9","ND","ND","ND","8.3","ND","0.5","50.8","ND","ND","0","0"],
    [82754,"2019-10-14T21:00:00","38.1","ND","ND","ND","4","2.6","0.4","79.7","ND","ND","0","0"],
    [82755,"2019-10-14T22:00:00","22.7","ND","ND","ND","3.8","5.7","0.5","120.4","ND","ND","0","0"],
    [82756,"2019-10-14T23:00:00","26.5","ND","ND","ND","3.9","3.5","0.6","100.2","ND","ND","0","0"],
    [82757,"2019-10-15T00:00:00","22.4","ND","ND","ND","3.9","1.4","0.6","28.9","ND","ND","0","0"],
    [82758,"2019-10-15T01:00:00","38.3","ND","ND","ND","5.3","0.1","0.7","110.2","ND","ND","0","0"],
    [82759,"2019-10-15T02:00:00","30.3","ND","ND","ND","3.9","1.7","0.1","133.3","ND","ND","0","0"],
    [82760,"2019-10-15T03:00:00","18.8","ND","ND","ND","3.7","1","0.1","185.3","ND","ND","0","0"],
    [82761,"2019-10-15T04:00:00","31.2","ND","ND","ND","3.7","2.3","0.3","35.6","ND","ND","0","0"],
    [82762,"2019-10-15T05:00:00","6.1","ND","ND","ND","3.8","2.5","0.5","343.2","ND","ND","0","0"],
    [82763,"2019-10-15T06:00:00","22.8","ND","ND","ND","3.9","1.1","0.2","215.7","ND","ND","0","0"],
    [82764,"2019-10-15T07:00:00","17.4","ND","ND","ND","3.6","1.2","0.1","227.4","ND","ND","3","0"],
    [82765,"2019-10-15T08:00:00","40.8","ND","ND","ND","4.8","1.5","1.1","15.7","ND","ND","141","0"],
    [82766,"2019-10-15T09:00:00","72.9","ND","ND","ND","13.3","1.7","0.4","67","ND","ND","469","0"],
    [82767,"2019-10-15T10:00:00","51.1","ND","ND","ND","28.9","0.1","2","126.9","ND","ND","657","0"],
    [82768,"2019-10-15T11:00:00","19.4","ND","ND","ND","50","ND","1.5","126.2","ND","ND","665","0"],
    [82769,"2019-10-15T12:00:00","32.5","ND","ND","ND","74.2","ND","0.9","113.2","ND","ND","665","0"],
    [82770,"2019-10-15T13:00:00","51.6","ND","ND","ND","81.1","ND","0.6","348.5","ND","ND","643","0"],
    [82771,"2019-10-15T14:00:00","57","ND","ND","ND","62","ND","1.1","247.8","ND","ND","648","0"],
    [82772,"2019-10-15T15:00:00","15.3","ND","ND","ND","33","ND","4.3","246.9","ND","ND","605","0"],
    [82773,"2019-10-15T16:00:00","8.7","ND","ND","ND","38","ND","3.6","248.8","ND","ND","665","0"],
    [82774,"2019-10-15T17:00:00","ND","ND","ND","ND","36.6","ND","2","252.6","ND","ND","644","0"],
    [82775,"2019-10-15T18:00:00","1.9","ND","ND","ND","29","ND","1.6","219","ND","ND","276","0"],
    [82776,"2019-10-15T19:00:00","26.7","ND","ND","ND","15.8","0.1","2","117.8","ND","ND","0","0"],
    [82777,"2019-10-15T20:00:00","48.3","ND","ND","ND","5","ND","0.4","65.7","ND","ND","0","0"],
    [82778,"2019-10-15T21:00:00","43.6","ND","ND","ND","4","0.2","0.7","317","ND","ND","0","0"],
    [82779,"2019-10-15T22:00:00","37.5","ND","ND","ND","5.3","3.1","0.8","339.4","ND","ND","0","0"],
    [82780,"2019-10-15T23:00:00","28.9","ND","ND","ND","11","0.4","0.8","1.6","ND","ND","0","0"],
    [82781,"2019-10-16T00:00:00","21","ND","ND","ND","14.4","0.9","0.2","120","ND","ND","0","0"],
    [82782,"2019-10-16T01:00:00","3.7","ND","ND","ND","15.4","0.1","0.7","4.4","ND","ND","0","0"],
    [82783,"2019-10-16T02:00:00","6.9","ND","ND","ND","10.5","0.5","0.5","349","ND","ND","0","0"],
    [82784,"2019-10-16T03:00:00","24.7","ND","ND","ND","10.8","1.2","0.6","14","ND","ND","0","0"],
    [82785,"2019-10-16T04:00:00","23.9","ND","ND","ND","8","1","0.4","6.3","ND","ND","0","0"],
    [82786,"2019-10-16T05:00:00","38.9","ND","ND","ND","5","1.1","0.1","288.9","ND","ND","0","0"],
    [82787,"2019-10-16T06:00:00","76.7","ND","ND","ND","3.7","1.4","0.1","145.8","ND","ND","0","0"],
    [82788,"2019-10-16T07:00:00","52.6","ND","ND","ND","4.1","1","0.5","110.3","ND","ND","4","0"],
    [82789,"2019-10-16T08:00:00","48.8","ND","ND","ND","8.3","1.1","1.3","110.6","ND","ND","112","0"],
    [82790,"2019-10-16T09:00:00","35.2","ND","ND","ND","20.7","0","1.5","104.8","ND","ND","499","0"],
    [82791,"2019-10-16T10:00:00","36.9","ND","ND","ND","33.4","0.3","1.2","82.1","ND","ND","640","0"],
    [82792,"2019-10-16T11:00:00","52.3","ND","ND","ND","57.5","ND","1.5","89.3","ND","ND","664","0"],
    [82793,"2019-10-16T12:00:00","45.9","ND","ND","ND","73.1","ND","0.9","53.8","ND","ND","665","0"],
    [82794,"2019-10-16T13:00:00","28.8","ND","ND","ND","94.3","ND","0.5","327.8","ND","ND","665","0"],
    [82795,"2019-10-16T14:00:00","34.1","ND","ND","ND","84.5","ND","1","3.9","ND","ND","665","0"],
    [82796,"2019-10-16T15:00:00","45.7","ND","ND","ND","37.2","ND","0.4","294.7","ND","ND","665","0"],
    [82797,"2019-10-16T16:00:00","ND","ND","ND","ND","30.9","ND","1.5","271.3","ND","ND","653","0"],
    [82798,"2019-10-16T17:00:00","ND","ND","ND","ND","28.4","ND","2","149.7","ND","ND","393","0"],
    [82799,"2019-10-16T18:00:00","27","ND","ND","ND","9.8","ND","0.5","112","ND","ND","0","0"],
    [82800,"2019-10-16T19:00:00","56.8","ND","ND","ND","3.6","2.3","0.7","296","ND","ND","0","0"],
    [82801,"2019-10-16T20:00:00","51.9","ND","ND","ND","3.8","0.9","0.8","133.2","ND","ND","0","0"],
    [82802,"2019-10-16T21:00:00","33.3","ND","ND","ND","3.3","ND","1.3","126.8","ND","ND","0","0"],
    [82803,"2019-10-16T22:00:00","20.1","ND","ND","ND","3.6","ND","0.5","125.9","ND","ND","0","0"],
    [82804,"2019-10-16T23:00:00","31.5","ND","ND","ND","2.7","ND","0.3","308.1","ND","ND","0","0"],
    [82805,"2019-10-17T00:00:00","ND","ND","ND","ND","3.6","ND","0.2","167.6","ND","ND","0","0"],
    [82806,"2019-10-17T01:00:00","ND","ND","ND","ND","3.8","ND","0.3","299.1","ND","ND","0","ND"],
    [82807,"2019-10-17T02:00:00","18","ND","ND","ND","4.2","1.2","0.6","0.8","ND","ND","0","ND"],
    [82808,"2019-10-17T03:00:00","209.2","ND","ND","ND","3.8","4.1","0","340.4","ND","ND","0","ND"],
    [82809,"2019-10-17T04:00:00","151.7","ND","ND","ND","3.6","0.6","0.1","294.3","ND","ND","0","ND"],
    [82810,"2019-10-17T05:00:00","108.5","ND","ND","ND","3.6","ND","0.1","295.6","ND","ND","0","ND"],
    [82811,"2019-10-17T06:00:00","93.2","ND","ND","ND","3.7","0.8","0.3","2.7","ND","ND","0","ND"],
    [82812,"2019-10-17T07:00:00","84.5","ND","ND","ND","3.5","1.6","0.2","360","ND","ND","1","ND"],
    [82813,"2019-10-17T08:00:00","94","ND","ND","ND","3.5","3.6","0.7","347.2","ND","ND","34","ND"],
    [82814,"2019-10-17T09:00:00","82.1","ND","ND","ND","3.6","2.7","0.8","341.2","ND","ND","236","ND"],
    [82815,"2019-10-17T10:00:00","54.6","ND","ND","ND","4.5","2.2","0.7","33.5","ND","ND","635","ND"],
    [82816,"2019-10-17T11:00:00","7.7","ND","ND","ND","20.4","0.8","1","109","ND","ND","666","ND"],
    [82817,"2019-10-17T12:00:00","ND","ND","ND","ND","50.7","0.6","0.9","84.5","ND","ND","663","ND"],
    [82818,"2019-10-17T13:00:00","33.7","ND","ND","ND","56.4","0.5","0.9","54","ND","ND","667","ND"],
    [82819,"2019-10-17T14:00:00","29","ND","ND","ND","76","ND","0.5","2","ND","ND","668","ND"],
    [82820,"2019-10-17T15:00:00","43.8","ND","ND","ND","69.6","ND","1","282.5","ND","ND","668","ND"],
    [82821,"2019-10-17T16:00:00","43.1","ND","ND","ND","30.1","ND","2.2","255.6","ND","ND","668","ND"],
    [82822,"2019-10-17T17:00:00","37.4","ND","ND","ND","22.6","ND","1.3","238.7","ND","ND","664","ND"],
    [82823,"2019-10-17T18:00:00","44.4","ND","ND","ND","17.4","ND","0.9","282.3","ND","ND","510","ND"],
    [82824,"2019-10-17T19:00:00","51.6","ND","ND","ND","11.4","ND","0.4","231.2","ND","ND","0","ND"],
    [82825,"2019-10-17T20:00:00","27.3","ND","ND","ND","8.1","0.2","0.6","111.9","ND","ND","0","ND"],
    [82826,"2019-10-17T21:00:00","38.3","ND","ND","ND","17.4","ND","1","188.2","ND","ND","0","ND"],
    [82827,"2019-10-17T22:00:00","24.1","ND","ND","ND","10.9","ND","0.3","14.8","ND","ND","0","ND"],
    [82828,"2019-10-17T23:00:00","2.7","ND","ND","ND","5.5","ND","0.5","50.4","ND","ND","0","ND"],
    [82829,"2019-10-18T00:00:00","15.1","ND","ND","ND","4.2","0.7","0.4","11.1","ND","ND","0","ND"],
    [82830,"2019-10-18T01:00:00","12.3","ND","ND","ND","4.2","4.8","0.5","354.2","ND","ND","0","0"],
    [82831,"2019-10-18T02:00:00","46","ND","ND","ND","4.7","4.9","1","353.7","ND","ND","0","0"],
    [82832,"2019-10-18T03:00:00","30.7","ND","ND","ND","4","8.3","0.1","64.5","ND","ND","0","0"],
    [82833,"2019-10-18T04:00:00","35.9","ND","ND","ND","3.7","4.1","0.3","113.8","ND","ND","0","0"],
    [82834,"2019-10-18T05:00:00","23.4","ND","ND","ND","4.7","2.5","1.1","119.2","ND","ND","0","0"],
    [82835,"2019-10-18T06:00:00","23.1","ND","ND","ND","10","ND","1.1","145.2","ND","ND","0","0"],
    [82836,"2019-10-18T07:00:00","9","ND","ND","ND","6.2","ND","1.6","120.1","ND","ND","0","0"],
    [82837,"2019-10-18T08:00:00","16.7","ND","ND","ND","11.1","0.3","1.7","117.9","ND","ND","49","0"],
    [82838,"2019-10-18T09:00:00","11.1","ND","ND","ND","16.8","0.2","0.1","258.6","ND","ND","212","0"],
    [82839,"2019-10-18T10:00:00","33.8","ND","ND","ND","20.6","0.1","0.4","336.5","ND","ND","572","0"],
    [82840,"2019-10-18T11:00:00","53.8","ND","ND","ND","41.6","ND","1","98.3","ND","ND","667","0"],
    [82841,"2019-10-18T12:00:00","21.8","ND","ND","ND","66.5","ND","0.9","61.5","ND","ND","667","0"],
    [82842,"2019-10-18T13:00:00","14.9","ND","ND","ND","73.8","ND","0.7","63.1","ND","ND","668","0"],
    [82843,"2019-10-18T14:00:00","22","ND","ND","ND","86","ND","1.1","103.5","ND","ND","668","0"],
    [82844,"2019-10-18T15:00:00","28.1","ND","ND","ND","55.4","ND","1.1","255","ND","ND","655","0"],
    [82845,"2019-10-18T16:00:00","17.9","ND","ND","ND","23.6","ND","2.7","244.9","ND","ND","668","0"],
    [82846,"2019-10-18T17:00:00","24.5","ND","ND","ND","25.3","ND","2.7","257.2","ND","ND","463","0"],
    [82847,"2019-10-18T18:00:00","16","ND","ND","ND","16.4","ND","0.4","274.1","ND","ND","305","0"],
    [82848,"2019-10-18T19:00:00","1.1","ND","ND","ND","14.2","ND","0.4","81.4","ND","ND","0","0"],
    [82849,"2019-10-18T20:00:00","2.3","ND","ND","ND","14.2","ND","2.1","132.4","ND","ND","0","0"],
    [82850,"2019-10-18T21:00:00","ND","ND","ND","ND","10.2","0.1","1.8","118.6","ND","ND","0","0"],
    [82851,"2019-10-18T22:00:00","ND","ND","ND","ND","16.6","0.1","2","129","ND","ND","0","0"],
    [82852,"2019-10-18T23:00:00","ND","ND","ND","ND","17.5","ND","1.6","143.1","ND","ND","0","0"],
    [82853,"2019-10-19T00:00:00","7.9","ND","ND","ND","9.1","ND","1.2","125.1","ND","ND","0","0"],
    [82854,"2019-10-19T01:00:00","21.8","ND","ND","ND","12.5","ND","1","116.2","ND","ND","0","0"],
    [82855,"2019-10-19T02:00:00","11.3","ND","ND","ND","15.9","ND","0.4","333.9","ND","ND","0","0"],
    [82856,"2019-10-19T03:00:00","13.9","ND","ND","ND","14.6","0","0.6","6.2","ND","ND","0","0"],
    [82857,"2019-10-19T04:00:00","22","ND","ND","ND","17","ND","0.3","323.9","ND","ND","0","0"],
    [82858,"2019-10-19T05:00:00","18.2","ND","ND","ND","8.2","ND","0.2","63.8","ND","ND","0","0"],
    [82859,"2019-10-19T06:00:00","21.2","ND","ND","ND","4.5","3.3","0.6","32.5","ND","ND","0","0"],
    [82860,"2019-10-19T07:00:00","10.5","ND","ND","ND","8.9","2.2","0.7","7.4","ND","ND","0","0"],
    [82861,"2019-10-19T08:00:00","12.9","ND","ND","ND","12.4","0.1","0.3","343.9","ND","ND","31","0"],
    [82862,"2019-10-19T09:00:00","24.5","ND","ND","ND","20","ND","0.8","98.9","ND","ND","466","0"],
    [82863,"2019-10-19T10:00:00","29.1","ND","ND","ND","31.6","ND","0.9","85.2","ND","ND","658","0"],
    [82864,"2019-10-19T11:00:00","21","ND","ND","ND","50.8","ND","0.6","58.6","ND","ND","662","0"],
    [82865,"2019-10-19T12:00:00","41.3","ND","ND","ND","69.4","ND","1.1","105.4","ND","ND","668","0"],
    [82866,"2019-10-19T13:00:00","36.5","ND","ND","ND","59.3","ND","0.9","331.3","ND","ND","665","0"],
    [82867,"2019-10-19T14:00:00","32","ND","ND","ND","53.8","ND","0.9","315.7","ND","ND","669","0"],
    [82868,"2019-10-19T15:00:00","21.6","ND","ND","ND","38.4","ND","1","271.1","ND","ND","668","0"],
    [82869,"2019-10-19T16:00:00","ND","ND","ND","ND","28.1","ND","2","260.9","ND","ND","669","0"],
    [82870,"2019-10-19T17:00:00","ND","ND","ND","ND","22.6","ND","0.8","275.3","ND","ND","511","0"],
    [82871,"2019-10-19T18:00:00","5","ND","ND","ND","19.5","ND","0.3","166.4","ND","ND","166","0"],
    [82872,"2019-10-19T19:00:00","4.1","ND","ND","ND","19.5","ND","1.4","142","ND","ND","0","0"],
    [82873,"2019-10-19T20:00:00","10.5","ND","ND","ND","13.2","ND","2","117","ND","ND","0","0"],
    [82874,"2019-10-19T21:00:00","9.4","ND","ND","ND","19.8","ND","2.1","126.2","ND","ND","0","3.7"],
    [82875,"2019-10-19T22:00:00","10.5","ND","ND","ND","12.8","ND","1.4","127.1","ND","ND","0","0.1"],
    [82876,"2019-10-19T23:00:00","1.7","ND","ND","ND","5.3","ND","0.7","121.3","ND","ND","0","0"],
    [82877,"2019-10-20T00:00:00","11.3","ND","ND","ND","3.5","ND","0.3","123.7","ND","ND","0","0"],
    [82878,"2019-10-20T01:00:00","15.2","ND","ND","ND","3.6","ND","0.5","31.5","ND","ND","0","ND"],
    [82879,"2019-10-20T02:00:00","13.9","ND","ND","ND","8","2","0.6","68","ND","ND","0","ND"],
    [82880,"2019-10-20T03:00:00","14.5","ND","ND","ND","6.5","1.3","0.3","115.2","ND","ND","0","0.1"],
    [82881,"2019-10-20T04:00:00","23.7","ND","ND","ND","6.2","1.4","0.4","82.1","ND","ND","0","1.6"],
    [82882,"2019-10-20T05:00:00","27","ND","ND","ND","6.8","ND","0.7","116.3","ND","ND","0","0.1"],
    [82883,"2019-10-20T06:00:00","21","ND","ND","ND","7.4","0.1","0.6","101.4","ND","ND","0","0"],
    [82884,"2019-10-20T07:00:00","20.9","ND","ND","ND","6.3","3.3","0.9","115.4","ND","ND","1","ND"],
    [82885,"2019-10-20T08:00:00","30.4","ND","ND","ND","8.5","1.5","0.8","139.5","ND","ND","32","0.6"],
    [82886,"2019-10-20T09:00:00","33.8","ND","ND","ND","18.3","ND","1","129.1","ND","ND","240","1.1"],
    [82887,"2019-10-20T10:00:00","30.2","ND","ND","ND","30.9","ND","0.8","133.2","ND","ND","624","ND"],
    [82888,"2019-10-20T11:00:00","15.6","ND","ND","ND","53.4","0.1","1","114.1","ND","ND","667","ND"],
    [82889,"2019-10-20T12:00:00","27.6","ND","ND","ND","68.7","ND","0.9","124.9","ND","ND","665","ND"],
    [82890,"2019-10-20T13:00:00","27.3","ND","ND","ND","71","0.2","1.3","70.9","ND","ND","668","ND"],
    [82891,"2019-10-20T14:00:00","14.9","ND","ND","ND","71.8","ND","0.6","56.7","ND","ND","669","ND"],
    [82892,"2019-10-20T15:00:00","14.9","ND","ND","ND","72.5","ND","0.9","101.2","ND","ND","669","ND"],
    [82893,"2019-10-20T16:00:00","22.3","ND","ND","ND","61.8","ND","1.3","97.9","ND","ND","560","ND"],
    [82894,"2019-10-20T17:00:00","25.2","ND","ND","ND","62.2","ND","1.9","120.2","ND","ND","373","ND"],
    [82895,"2019-10-20T18:00:00","17.7","ND","ND","ND","35","ND","0.4","111.7","ND","ND","133","0"],
    [82896,"2019-10-20T19:00:00","17.8","ND","ND","ND","23.7","ND","0.2","326.5","ND","ND","0","ND"],
    [82897,"2019-10-20T20:00:00","5.7","ND","ND","ND","6.5","ND","0.5","25.8","ND","ND","0","0"],
    [82898,"2019-10-20T21:00:00","13.1","ND","ND","ND","7.7","0.9","0.4","43.7","ND","ND","0","0"],
    [82899,"2019-10-20T22:00:00","27.7","ND","ND","ND","3.9","0.3","0.4","167.2","ND","ND","0","ND"],
    [82900,"2019-10-20T23:00:00","22.8","ND","ND","ND","5.7","0.8","0.3","352","ND","ND","0","ND"],
    [82901,"2019-10-21T00:00:00","22.7","ND","ND","ND","10.8","2.1","0.2","46.2","ND","ND","0","ND"],
    [82902,"2019-10-21T01:00:00","17.7","ND","ND","ND","4.8","0.7","0.3","324.3","ND","ND","0","ND"],
    [82903,"2019-10-21T02:00:00","34","ND","ND","ND","3.8","2.8","0.3","109.1","ND","ND","0","ND"],
    [82904,"2019-10-21T03:00:00","28","ND","ND","ND","4.2","0.7","0.5","336.8","ND","ND","0","ND"],
    [82905,"2019-10-21T04:00:00","34.8","ND","ND","ND","4.1","3.5","0.7","3.8","ND","ND","0","ND"],
    [82906,"2019-10-21T05:00:00","36.8","ND","ND","ND","3.9","2.5","0.4","358","ND","ND","0","ND"],
    [82907,"2019-10-21T06:00:00","52.1","ND","ND","ND","4","4.3","0.3","3.2","ND","ND","0","ND"],
    [82908,"2019-10-21T07:00:00","63.5","ND","ND","ND","4.4","5","0.4","338.3","ND","ND","2","ND"],
    [82909,"2019-10-21T08:00:00","54.4","ND","ND","ND","5.7","7.2","0.7","23.5","ND","ND","82","ND"],
    [82910,"2019-10-21T09:00:00","61","ND","ND","ND","11.3","4.5","0.6","83.2","ND","ND","306","ND"],
    [82911,"2019-10-21T10:00:00","64","ND","ND","ND","23.6","1.3","0.7","83.6","ND","ND","624","0"],
    [82912,"2019-10-21T11:00:00","44.4","ND","ND","ND","22.4","0.3","0.8","266.3","ND","ND","601","0"],
    [82913,"2019-10-21T12:00:00","39.8","ND","ND","ND","26.8","ND","0.6","104.5","ND","ND","472","13.5"],
    [82914,"2019-10-21T13:00:00","19.3","ND","ND","ND","26.7","ND","1.4","239.9","ND","ND","668","0"],
    [82915,"2019-10-21T14:00:00","6.1","ND","ND","ND","23.9","ND","2.4","265.3","ND","ND","668","0"],
    [82916,"2019-10-21T15:00:00","17","ND","ND","ND","26.6","ND","1.7","264.4","ND","ND","669","0"],
    [82917,"2019-10-21T16:00:00","16.1","ND","ND","ND","25.9","ND","2","245.4","ND","ND","669","0"],
    [82918,"2019-10-21T17:00:00","14.1","ND","ND","ND","23.8","ND","1.5","220.2","ND","ND","505","0"],
    [82919,"2019-10-21T18:00:00","ND","ND","ND","ND","23.2","ND","0.3","90.8","ND","ND","264","0"],
    [82920,"2019-10-21T19:00:00","13","ND","ND","ND","10.3","ND","1.7","129.1","ND","ND","0","0"],
    [82921,"2019-10-21T20:00:00","20.2","ND","ND","ND","4.2","ND","0.9","112.1","ND","ND","0","ND"],
    [82922,"2019-10-21T21:00:00","26.1","ND","ND","ND","4.3","0.3","0.2","149.8","ND","ND","0","0.4"],
    [82923,"2019-10-21T22:00:00","29.3","ND","ND","ND","6.8","ND","0.5","220.4","ND","ND","0","0"],
    [82924,"2019-10-21T23:00:00","19.6","ND","ND","ND","6","1.5","0.7","7.6","ND","ND","0","13.9"],
    [82925,"2019-10-22T00:00:00","42.9","ND","ND","ND","5.8","2.8","0.9","11.5","ND","ND","0","0"],
    [82926,"2019-10-22T01:00:00","31.7","ND","ND","ND","7.4","1.6","0.5","295.4","ND","ND","0","0"],
    [82927,"2019-10-22T02:00:00","31.1","ND","ND","ND","4.1","1.6","0.7","127.8","ND","ND","0","0"],
    [82928,"2019-10-22T03:00:00","17.5","ND","ND","ND","4.1","3.6","0.9","13.2","ND","ND","0","0"],
    [82929,"2019-10-22T04:00:00","29.6","ND","ND","ND","3.6","3.8","0.2","29.5","ND","ND","0","0"],
    [82930,"2019-10-22T05:00:00","40.9","ND","ND","ND","3.9","8.4","0.4","38","ND","ND","0","0"],
    [82931,"2019-10-22T06:00:00","45.4","ND","ND","ND","3.9","5.6","0.2","128.5","ND","ND","0","0"],
    [82932,"2019-10-22T07:00:00","35.2","ND","ND","ND","4.5","7.1","0.3","110.7","ND","ND","2","0"],
    [82933,"2019-10-22T08:00:00","37.9","ND","ND","ND","11.6","0.9","1.4","127.7","ND","ND","138","0"],
    [82934,"2019-10-22T09:00:00","22.8","ND","ND","ND","19.3","0.6","1.7","103.7","ND","ND","592","0"],
    [82935,"2019-10-22T10:00:00","28.8","ND","ND","ND","34","ND","0.6","116.8","ND","ND","618","0"],
    [82936,"2019-10-22T11:00:00","39.7","ND","ND","ND","ND","ND","0.4","6.8","ND","ND","605","0"],
    [82937,"2019-10-22T12:00:00","51.7","ND","ND","ND","55.1","0.4","0.6","357.4","ND","ND","666","0"],
    [82938,"2019-10-22T13:00:00","41.3","ND","ND","ND","52.2","0","0.7","334.3","ND","ND","661","0"],
    [82939,"2019-10-22T14:00:00","40.4","ND","ND","ND","38.7","0","1","248","ND","ND","626","0"],
    [82940,"2019-10-22T15:00:00","28.2","ND","ND","ND","24.4","0","0.7","353.9","ND","ND","569","0"],
    [82941,"2019-10-22T16:00:00","ND","ND","ND","ND","25.2","0","0.5","182.7","ND","ND","562","0"],
    [82942,"2019-10-22T17:00:00","18.7","ND","ND","ND","25.3","0","2","253.8","ND","ND","586","ND"],
    [82943,"2019-10-22T18:00:00","ND","ND","ND","ND","22.2","0","0.5","255.1","ND","ND","447","0"],
    [82944,"2019-10-22T19:00:00","ND","ND","ND","ND","ND","ND","ND","ND","ND","ND","44","0.3"],
    [82945,"2019-10-22T20:00:00","18.7","ND","ND","ND","16.8","0","1.5","98.6","ND","ND","0","0.1"],
    [82946,"2019-10-22T21:00:00","ND","ND","ND","ND","ND","1","1.5","114.2","ND","ND","0","0.2"],
    [82947,"2019-10-22T22:00:00","11.9","ND","ND","ND","18","0.2","0.9","23.2","ND","ND","0","0"],
    [82948,"2019-10-22T23:00:00","ND","ND","ND","ND","ND","0.6","0.7","347","ND","ND","0","0"],
    [82949,"2019-10-23T00:00:00","7.7","ND","ND","ND","14.3","0.3","0.5","18.3","ND","ND","0","ND"],
    [82950,"2019-10-23T01:00:00","ND","ND","ND","ND","ND","1","0.5","25.3","ND","ND","0","0"],
    [82951,"2019-10-23T02:00:00","3.6","ND","ND","ND","10.7","2.4","0.3","33.3","ND","ND","0","0"],
    [82952,"2019-10-23T03:00:00","ND","ND","ND","ND","ND","1","0.7","54.7","ND","ND","0","0"],
    [82953,"2019-10-23T04:00:00","10.6","ND","ND","ND","14.8","1","0.6","69","ND","ND","0","0"],
    [82954,"2019-10-23T05:00:00","ND","ND","ND","ND","ND","1.8","0.7","14.1","ND","ND","0","0"],
    [82955,"2019-10-23T06:00:00","11","ND","ND","ND","5.4","1.3","0.7","38.5","ND","ND","0","0"],
    [82956,"2019-10-23T07:00:00","ND","ND","ND","ND","ND","1.5","0.4","39.6","ND","ND","0","2.5"],
    [82957,"2019-10-23T08:00:00","ND","ND","ND","ND","4.1","1","0.2","354.9","ND","ND","12","0"],
    [82958,"2019-10-23T09:00:00","ND","ND","ND","ND","8","0.1","0.9","342.5","ND","ND","74","0"],
    [82959,"2019-10-23T10:00:00","ND","ND","ND","ND","20","0.4","1","20.7","ND","ND","458","0"],
    [82960,"2019-10-23T11:00:00","ND","ND","ND","ND","129.4","0","0.9","11.7","ND","ND","667","0"],
    [82961,"2019-10-23T12:00:00","ND","ND","ND","ND","71.3","0","0.2","22.3","ND","ND","659","0"],
    [82962,"2019-10-23T13:00:00","ND","ND","ND","ND","79.8","ND","ND","ND","ND","ND","666","0"],
    [82963,"2019-10-23T14:00:00","ND","ND","ND","ND","91.2","0","0.2","79.3","ND","ND","ND","0"],
    [82964,"2019-10-23T15:00:00","ND","ND","ND","ND","83.7","0","1.9","266.2","ND","ND","655","0"],
    [82965,"2019-10-23T16:00:00","ND","ND","ND","ND","24","0","0.8","305.8","ND","ND","577","0"],
    [82966,"2019-10-23T17:00:00","ND","ND","ND","ND","16.5","0","0.2","328.5","ND","ND","360","0"],
    [82967,"2019-10-23T18:00:00","ND","ND","ND","ND","8.2","0","0.5","354.4","ND","ND","162","0"],
    [82968,"2019-10-23T19:00:00","ND","ND","ND","ND","5.7","0","0.9","133.8","ND","ND","0","0"],
    [82969,"2019-10-23T20:00:00","ND","ND","ND","ND","4","0","0.5","297.5","ND","ND","0","0.2"],
    [82970,"2019-10-23T21:00:00","ND","ND","ND","ND","4.7","0.4","0.8","109.1","ND","ND","0","0"],
    [82971,"2019-10-23T22:00:00","ND","ND","ND","ND","3.7","3.6","0.3","13","ND","ND","0","0"],
    [82972,"2019-10-23T23:00:00","ND","ND","ND","ND","3.5","2.3","0.3","52.5","ND","ND","0","0"],
    [82973,"2019-10-24T00:00:00","ND","ND","ND","ND","8.3","0.2","0.7","113","ND","ND","0","0"],
    [82974,"2019-10-24T01:00:00","ND","ND","ND","ND","8","0.9","0.1","252.5","ND","ND","0","0"],
    [82975,"2019-10-24T02:00:00","ND","ND","ND","ND","3.4","0.5","0.3","212","ND","ND","0","0"],
    [82976,"2019-10-24T03:00:00","ND","ND","ND","ND","4.2","1.2","0.8","5.4","ND","ND","0","0"],
    [82977,"2019-10-24T04:00:00","ND","ND","ND","ND","6.4","1.7","0.3","38.7","ND","ND","0","0"],
    [82978,"2019-10-24T05:00:00","ND","ND","ND","ND","4.5","2.2","0.1","30.8","ND","ND","0","0"],
    [82979,"2019-10-24T06:00:00","ND","ND","ND","ND","3.3","2.3","0.5","102.5","ND","ND","0","0"],
    [82980,"2019-10-24T07:00:00","ND","ND","ND","ND","3.5","4","0.9","17.8","ND","ND","0","0"],
    [82981,"2019-10-24T08:00:00","ND","ND","ND","ND","4","2.3","0.7","35.6","ND","ND","60","0"],
    [82982,"2019-10-24T09:00:00","ND","ND","ND","ND","ND","3.6","0.7","38.9","ND","ND","138","0"],
    [82983,"2019-10-24T10:00:00","34.5","ND","ND","ND","14.6","2","0.2","43.8","ND","ND","422","0"],
    [82984,"2019-10-24T11:00:00","ND","ND","ND","ND","ND","0.1","0.5","87.5","ND","ND","667","0"],
    [82985,"2019-10-24T12:00:00","5.6","ND","ND","ND","34.8","0","0.8","117.2","ND","ND","667","0"],
    [82986,"2019-10-24T13:00:00","ND","ND","ND","ND","ND","0","0.5","122.5","ND","ND","665","0"],
    [82987,"2019-10-24T14:00:00","ND","ND","ND","ND","65.8","0","0.7","283.2","ND","ND","665","0"],
    [82988,"2019-10-24T15:00:00","ND","ND","ND","ND","ND","0","2","260.1","ND","ND","572","0"],
    [82989,"2019-10-24T16:00:00","15.6","ND","ND","ND","24.9","0","1.9","229.1","ND","ND","665","0"],
    [82990,"2019-10-24T17:00:00","ND","ND","ND","ND","ND","0","1","225.6","ND","ND","574","0"],
    [82991,"2019-10-24T18:00:00","27.1","ND","ND","ND","11","0","2.3","138.1","ND","ND","368","ND"],
    [82992,"2019-10-24T19:00:00","ND","ND","ND","ND","ND","0","2.1","143.7","ND","ND","0","0"],
    [82993,"2019-10-24T20:00:00","60.1","ND","ND","ND","7","0","1.5","132.3","ND","ND","0","0"],
    [82994,"2019-10-24T21:00:00","ND","ND","ND","ND","ND","0","0.5","125.4","ND","ND","0","0.4"],
    [82995,"2019-10-24T22:00:00","42.7","ND","ND","ND","3.7","0","1.1","118.6","ND","ND","0","1.2"],
    [82996,"2019-10-24T23:00:00","ND","ND","ND","ND","ND","0.4","0.8","97.7","ND","ND","0","0.3"],
    [82997,"2019-10-25T00:00:00","13.3","ND","ND","ND","2.6","1.8","0.6","2.5","ND","ND","0","ND"],
    [82998,"2019-10-25T01:00:00","ND","ND","ND","ND","ND","1.5","0.4","303.5","ND","ND","0","0.1"],
    [82999,"2019-10-25T02:00:00","32.7","ND","ND","ND","4.2","1.5","0.6","355.5","ND","ND","0","0"],
    [83000,"2019-10-25T03:00:00","ND","ND","ND","ND","ND","2.2","0.2","20.4","ND","ND","0","0"],
    [83001,"2019-10-25T04:00:00","30.2","ND","ND","ND","3.8","2.1","0.3","332.4","ND","ND","0","0"],
    [83002,"2019-10-25T05:00:00","ND","ND","ND","ND","ND","4.1","0.3","107.1","ND","ND","0","0"],
    [83003,"2019-10-25T06:00:00","41.9","ND","ND","ND","3.7","2.4","0.2","130.6","ND","ND","0","0"],
    [83004,"2019-10-25T07:00:00","ND","ND","ND","ND","ND","1.7","0.5","135.5","ND","ND","0","0"],
    [83005,"2019-10-25T08:00:00","42.1","ND","ND","ND","3.5","0.3","0.6","97.7","ND","ND","137","0"],
    [83006,"2019-10-25T09:00:00","ND","ND","ND","ND","ND","0.2","0.4","42.2","ND","ND","324","0"],
    [83007,"2019-10-25T10:00:00","ND","ND","ND","ND","14.5","ND","ND","ND","ND","ND","596","ND"],
    [83008,"2019-10-25T11:00:00","ND","ND","ND","ND","30.7","ND","ND","ND","ND","ND","ND","ND"],
    [83009,"2019-10-25T12:00:00","ND","ND","ND","ND","48.8","ND","ND","ND","ND","ND","ND","ND"],
    [83010,"2019-10-25T13:00:00","ND","ND","ND","ND","74.4","ND","ND","ND","ND","ND","ND","ND"],
    [83011,"2019-10-25T14:00:00","ND","ND","ND","ND","74","ND","ND","ND","ND","ND","ND","ND"],
    [83012,"2019-10-25T15:00:00","ND","ND","ND","ND","ND","ND","ND","ND","ND","ND","ND","ND"],
    [83013,"2019-10-25T16:00:00","ND","ND","ND","ND","ND","0","0.5","42.7","ND","ND","ND","0.1"],
    [83014,"2019-10-25T17:00:00","15.3","ND","ND","ND","25.6","10.3","0.7","220.4","ND","ND","481","0"],
    [83015,"2019-10-25T18:00:00","ND","ND","ND","ND","ND","1.4","1","230.6","ND","ND","529","0"],
    [83016,"2019-10-25T19:00:00","106.9","ND","ND","ND","7.3","0","0.7","228.9","ND","ND","0","0"],
    [83017,"2019-10-25T20:00:00","ND","ND","ND","ND","ND","0.2","0.4","229.3","ND","ND","0","0"],
    [83018,"2019-10-25T21:00:00","50.9","ND","ND","ND","3.9","1.1","0.3","58.2","ND","ND","0","0"],
    [83019,"2019-10-25T22:00:00","ND","ND","ND","ND","ND","2.2","0.3","108.8","ND","ND","0","0"],
    [83020,"2019-10-25T23:00:00","47.3","ND","ND","ND","4.2","1.2","0.1","230.6","ND","ND","0","0"],
    [83021,"2019-10-26T00:00:00","ND","ND","ND","ND","ND","1","0.8","323.8","ND","ND","0","0"],
    [83022,"2019-10-26T01:00:00","52.7","ND","ND","ND","4.5","2.3","0.6","33.2","ND","ND","0","0"],
    [83023,"2019-10-26T02:00:00","ND","ND","ND","ND","ND","3.5","0.6","16.6","ND","ND","0","0"],
    [83024,"2019-10-26T03:00:00","39.1","ND","ND","ND","3.6","1.7","0.2","265.8","ND","ND","0","0"],
    [83025,"2019-10-26T04:00:00","ND","ND","ND","ND","ND","1.7","0.2","147.9","ND","ND","0","0"],
    [83026,"2019-10-26T05:00:00","28.9","ND","ND","ND","3.2","1.5","0.2","218.4","ND","ND","0","0"],
    [83027,"2019-10-26T06:00:00","ND","ND","ND","ND","ND","0.8","0.4","117.7","ND","ND","0","0"],
    [83028,"2019-10-26T07:00:00","55","ND","ND","ND","4.5","1.3","0.8","328.6","ND","ND","0","0"],
    [83029,"2019-10-26T08:00:00","ND","ND","ND","ND","ND","1.3","0.3","67.2","ND","ND","121","0"],
    [83030,"2019-10-26T09:00:00","53.5","ND","ND","ND","9.8","0.7","0.6","119.1","ND","ND","520","0"],
    [83031,"2019-10-26T10:00:00","ND","ND","ND","ND","ND","0.2","1.2","112.1","ND","ND","612","0"],
    [83032,"2019-10-26T11:00:00","44.9","ND","ND","ND","31.9","0","0.8","69","ND","ND","664","0"],
    [83033,"2019-10-26T12:00:00","ND","ND","ND","ND","ND","1","0.3","44.7","ND","ND","665","0"],
    [83034,"2019-10-26T13:00:00","45.1","ND","ND","ND","67.6","0.4","0.6","9.4","ND","ND","665","0"],
    [83035,"2019-10-26T14:00:00","ND","ND","ND","ND","ND","0","0.7","299.2","ND","ND","665","0"],
    [83036,"2019-10-26T15:00:00","24.3","ND","ND","ND","36.1","0","0.8","333.9","ND","ND","664","0"],
    [83037,"2019-10-26T16:00:00","ND","ND","ND","ND","ND","0","0.8","261","ND","ND","599","0"],
    [83038,"2019-10-26T17:00:00","ND","ND","ND","ND","18.3","0","1.8","250.7","ND","ND","629","0"],
    [83039,"2019-10-26T18:00:00","ND","ND","ND","ND","ND","0","0.3","324.3","ND","ND","352","0"],
    [83040,"2019-10-26T19:00:00","12.9","ND","ND","ND","8.2","0","0.2","78.3","ND","ND","0","0"],
    [83041,"2019-10-26T20:00:00","ND","ND","ND","ND","ND","0","0.6","74.2","ND","ND","0","0.5"],
    [83042,"2019-10-26T21:00:00","22.4","ND","ND","ND","3.9","1.1","0.6","79.1","ND","ND","0","1.4"],
    [83043,"2019-10-26T22:00:00","ND","ND","ND","ND","ND","1","1","130.8","ND","ND","0","0"],
    [83044,"2019-10-26T23:00:00","40.3","ND","ND","ND","4.2","0.8","0.6","288.9","ND","ND","0","0"],
    [83045,"2019-10-27T00:00:00","ND","ND","ND","ND","ND","1.2","0.5","11.5","ND","ND","0","0"],
    [83046,"2019-10-27T01:00:00","49.3","ND","ND","ND","4.1","1.3","0.5","105.4","ND","ND","0","0"],
    [83047,"2019-10-27T02:00:00","ND","ND","ND","ND","ND","0.8","0.2","332.8","ND","ND","0","0"],
    [83048,"2019-10-27T03:00:00","32.4","ND","ND","ND","3.2","1.2","0.6","105","ND","ND","0","0"],
    [83049,"2019-10-27T04:00:00","ND","ND","ND","ND","ND","1.3","0.3","44.8","ND","ND","0","0"],
    [83050,"2019-10-27T05:00:00","34.7","ND","ND","ND","3.9","1.6","0.1","308.8","ND","ND","0","0"],
    [83051,"2019-10-27T06:00:00","ND","ND","ND","ND","ND","1.4","0.1","50.8","ND","ND","0","0"],
    [83052,"2019-10-27T07:00:00","32.1","ND","ND","ND","3.6","1.6","0.6","359.6","ND","ND","0","0"],
    [83053,"2019-10-27T08:00:00","ND","ND","ND","ND","ND","4.1","0.8","5.5","ND","ND","112","0"],
    [83054,"2019-10-27T09:00:00","17.3","ND","ND","ND","4.8","0","0.7","1.3","ND","ND","265","0"],
    [83055,"2019-10-27T10:00:00","ND","ND","ND","ND","ND","0","0.6","83.1","ND","ND","601","0"],
    [83056,"2019-10-27T11:00:00","19.5","ND","ND","ND","15.4","0","1","85.4","ND","ND","661","0"],
    [83057,"2019-10-27T12:00:00","ND","ND","ND","ND","ND","0","0","97.9","ND","ND","664","0"],
    [83058,"2019-10-27T13:00:00","21.6","ND","ND","ND","48.6","0","0.7","115.4","ND","ND","665","0"],
    [83059,"2019-10-27T14:00:00","ND","ND","ND","ND","ND","0","0.9","9.3","ND","ND","665","0"],
    [83060,"2019-10-27T15:00:00","1.9","ND","ND","ND","36.6","0","0.5","340.9","ND","ND","665","0"],
    [83061,"2019-10-27T16:00:00","ND","ND","ND","ND","ND","0","1.2","222.5","ND","ND","437","0"],
    [83062,"2019-10-27T17:00:00","11.9","ND","ND","ND","19.2","0","1.5","227.2","ND","ND","382","0"],
    [83063,"2019-10-27T18:00:00","ND","ND","ND","ND","ND","0","1.2","232.6","ND","ND","505","0"],
    [83064,"2019-10-27T19:00:00","11.9","ND","ND","ND","10.5","0.2","1","58.5","ND","ND","0","0"],
    [83065,"2019-10-27T20:00:00","ND","ND","ND","ND","ND","1.4","0.8","0.4","ND","ND","0","0"],
    [83066,"2019-10-27T21:00:00","30.4","ND","ND","ND","6.2","3.2","0.4","357","ND","ND","0","0"],
    [83067,"2019-10-27T22:00:00","ND","ND","ND","ND","ND","2.6","0.7","13.3","ND","ND","0","0"],
    [83068,"2019-10-27T23:00:00","56.8","ND","ND","ND","3.6","1.9","0.7","110","ND","ND","0","0"],
    [83069,"2019-10-28T00:00:00","ND","ND","ND","ND","ND","0.4","1","125.1","ND","ND","0","0"],
    [83070,"2019-10-28T01:00:00","22.8","ND","ND","ND","4.8","0","0.2","133.6","ND","ND","0","0"],
    [83071,"2019-10-28T02:00:00","ND","ND","ND","ND","ND","0","0.3","231.1","ND","ND","0","0"],
    [83072,"2019-10-28T03:00:00","16.6","ND","ND","ND","5.7","0.4","0.5","16.6","ND","ND","0","0"],
    [83073,"2019-10-28T04:00:00","ND","ND","ND","ND","ND","2.6","0.5","1.2","ND","ND","0","0"],
    [83074,"2019-10-28T05:00:00","46.5","ND","ND","ND","4.6","4.5","0.6","347.1","ND","ND","0","0"],
    [83075,"2019-10-28T06:00:00","ND","ND","ND","ND","ND","3.7","0.6","350.4","ND","ND","0","0"],
    [83076,"2019-10-28T07:00:00","44.5","ND","ND","ND","3.9","4.3","0.4","328","ND","ND","0","0"],
    [83077,"2019-10-28T08:00:00","ND","ND","ND","ND","ND","2.7","0.9","352.7","ND","ND","161","0"],
    [83078,"2019-10-28T09:00:00","65.2","ND","ND","ND","8.1","1.2","1","39.8","ND","ND","426","0"],
    [83079,"2019-10-28T10:00:00","ND","ND","ND","ND","ND","0.2","0.9","77.8","ND","ND","664","0"],
    [83080,"2019-10-28T11:00:00","ND","ND","ND","ND","ND","0","0.5","29.8","ND","ND","654","0"],
    [83081,"2019-10-28T12:00:00","ND","ND","ND","ND","62.1","0","1.1","88.4","ND","ND","626","0"],
    [83082,"2019-10-28T13:00:00","ND","ND","ND","ND","ND","0","0.3","30.7","ND","ND","665","0"],
    [83083,"2019-10-28T14:00:00","30.5","ND","ND","ND","76.5","0","0.7","84.2","ND","ND","665","0"],
    [83084,"2019-10-28T15:00:00","ND","ND","ND","ND","ND","0","1.2","353.1","ND","ND","658","0"],
    [83085,"2019-10-28T16:00:00","35.5","ND","ND","ND","21.8","0","1.6","248","ND","ND","499","0"],
    [83086,"2019-10-28T17:00:00","ND","ND","ND","ND","ND","0","0.7","250.8","ND","ND","406","0"],
    [83087,"2019-10-28T18:00:00","11.8","ND","ND","ND","18.1","0","0.9","240.5","ND","ND","117","0"],
    [83088,"2019-10-28T19:00:00","ND","ND","ND","ND","ND","0","0.7","98.5","ND","ND","0","0.4"],
    [83089,"2019-10-28T20:00:00","ND","ND","ND","ND","6.2","0","0.6","58.2","ND","ND","0","0"],
    [83090,"2019-10-28T21:00:00","ND","ND","ND","ND","ND","0.2","0.6","101.5","ND","ND","0","0"],
    [83091,"2019-10-28T22:00:00","34.2","ND","ND","ND","4","2","0.4","93.7","ND","ND","0","0"],
    [83092,"2019-10-28T23:00:00","ND","ND","ND","ND","ND","0.1","0.2","282.5","ND","ND","0","0"],
    [83093,"2019-10-29T00:00:00","35.9","ND","ND","ND","3.9","0.9","0.5","12.2","ND","ND","0","0"],
    [83094,"2019-10-29T01:00:00","ND","ND","ND","ND","ND","4.5","0.6","345.8","ND","ND","0","ND"],
    [83095,"2019-10-29T02:00:00","62.6","ND","ND","ND","4.1","4.3","0.5","349.3","ND","ND","0","ND"],
    [83096,"2019-10-29T03:00:00","ND","ND","ND","ND","ND","3.2","0.4","27.6","ND","ND","0","ND"],
    [83097,"2019-10-29T04:00:00","32.9","ND","ND","ND","3.8","2.8","0.2","55","ND","ND","0","ND"],
    [83098,"2019-10-29T05:00:00","ND","ND","ND","ND","ND","2.6","0.1","262.1","ND","ND","0","ND"],
    [83099,"2019-10-29T06:00:00","35.9","ND","ND","ND","3.6","0.9","0.1","272.5","ND","ND","0","ND"],
    [83100,"2019-10-29T07:00:00","ND","ND","ND","ND","ND","2.9","0.6","8.3","ND","ND","0","ND"],
    [83101,"2019-10-29T08:00:00","55.3","ND","ND","ND","3.9","1.6","0.2","330.4","ND","ND","87","ND"],
    [83102,"2019-10-29T09:00:00","ND","ND","ND","ND","ND","2.3","0.8","6.8","ND","ND","177","ND"],
    [83103,"2019-10-29T10:00:00","72.5","ND","ND","ND","6.8","1.9","0.6","343","ND","ND","273","ND"],
    [83104,"2019-10-29T11:00:00","ND","ND","ND","ND","ND","2.9","1.2","18.5","ND","ND","636","ND"],
    [83105,"2019-10-29T12:00:00","32.8","ND","ND","ND","20.2","0.1","0.5","320.9","ND","ND","665","ND"],
    [83106,"2019-10-29T13:00:00","ND","ND","ND","ND","ND","0.5","0.7","18.9","ND","ND","665","ND"],
    [83107,"2019-10-29T14:00:00","12","ND","ND","ND","33.7","1.4","1","353.6","ND","ND","666","0"],
    [83108,"2019-10-29T15:00:00","ND","ND","ND","ND","ND","0","0.3","235","ND","ND","666","0"],
    [83109,"2019-10-29T16:00:00","2.4","ND","ND","ND","21.7","0","1.6","257.2","ND","ND","647","0"],
    [83110,"2019-10-29T17:00:00","ND","ND","ND","ND","ND","0","1.2","237.8","ND","ND","540","0"],
    [83111,"2019-10-29T18:00:00","1.9","ND","ND","ND","14.3","0","1.2","239.3","ND","ND","267","0"],
    [83112,"2019-10-29T19:00:00","ND","ND","ND","ND","ND","0","0.5","54.8","ND","ND","0","0"],
    [83113,"2019-10-29T20:00:00","42.6","ND","ND","ND","6.4","0","0.2","326.1","ND","ND","0","0"],
    [83114,"2019-10-29T21:00:00","ND","ND","ND","ND","ND","1.6","0.3","57.7","ND","ND","0","0"],
    [83115,"2019-10-29T22:00:00","51","ND","ND","ND","4","3.2","0.3","27.2","ND","ND","0","0"],
    [83116,"2019-10-29T23:00:00","ND","ND","ND","ND","ND","3.3","0.3","297.5","ND","ND","0","0"],
    [83117,"2019-10-30T00:00:00","21.2","ND","ND","ND","4","3.7","0.2","35.5","ND","ND","0","0"],
    [83118,"2019-10-30T01:00:00","ND","ND","ND","ND","ND","3","0.4","327","ND","ND","0","0"],
    [83119,"2019-10-30T02:00:00","48.8","ND","ND","ND","4.1","3.3","0.5","338.7","ND","ND","0","0"],
    [83120,"2019-10-30T03:00:00","ND","ND","ND","ND","ND","2.3","0.2","344.6","ND","ND","0","0"],
    [83121,"2019-10-30T04:00:00","49.4","ND","ND","ND","4","2.4","0.2","328.4","ND","ND","0","0"],
    [83122,"2019-10-30T05:00:00","ND","ND","ND","ND","ND","4.3","0.4","96.4","ND","ND","0","0"],
    [83123,"2019-10-30T06:00:00","52.5","ND","ND","ND","4.1","3.8","0.7","349.4","ND","ND","0","0"],
    [83124,"2019-10-30T07:00:00","ND","ND","ND","ND","ND","4.5","0.3","10","ND","ND","0","0"],
    [83125,"2019-10-30T08:00:00","73.2","ND","ND","ND","4.9","6.6","0.2","70.5","ND","ND","106","0"],
    [83126,"2019-10-30T09:00:00","ND","ND","ND","ND","ND","4.1","0.2","317","ND","ND","281","0"],
    [83127,"2019-10-30T10:00:00","49.4","ND","ND","ND","18.8","2.8","0.9","66","ND","ND","590","0"],
    [83128,"2019-10-30T11:00:00","ND","ND","ND","ND","ND","0.1","0.7","59","ND","ND","665","0"],
    [83129,"2019-10-30T12:00:00","30.1","ND","ND","ND","58.3","0.2","0.2","80.9","ND","ND","662","0"],
    [83130,"2019-10-30T13:00:00","ND","ND","ND","ND","ND","0","0.9","53.9","ND","ND","666","0"],
    [83131,"2019-10-30T14:00:00","28.7","ND","ND","ND","68","0","1.5","13.7","ND","ND","666","0"],
    [83132,"2019-10-30T15:00:00","ND","ND","ND","ND","ND","0","1.5","11.2","ND","ND","666","0"],
    [83133,"2019-10-30T16:00:00","33.9","ND","ND","ND","49.8","0","1.2","249.7","ND","ND","634","0"],
    [83134,"2019-10-30T17:00:00","ND","ND","ND","ND","ND","0","0.8","270.4","ND","ND","658","0"],
    [83135,"2019-10-30T18:00:00","9.2","ND","ND","ND","31.4","0","0.3","298.3","ND","ND","422","0"],
    [83136,"2019-10-30T19:00:00","ND","ND","ND","ND","ND","0","0.5","46.3","ND","ND","0","0"],
    [83137,"2019-10-30T20:00:00","27.9","ND","ND","ND","22.1","0","0.8","273.5","ND","ND","0","0"],
    [83138,"2019-10-30T21:00:00","ND","ND","ND","ND","ND","0.4","0.8","119.8","ND","ND","0","0"],
    [83139,"2019-10-30T22:00:00","33.5","ND","ND","ND","4","0.8","0.7","85.5","ND","ND","0","0"],
    [83140,"2019-10-30T23:00:00","ND","ND","ND","ND","ND","2.1","0.9","86","ND","ND","0","0"],
    [83141,"2019-10-31T00:00:00","26","ND","ND","ND","5","2.6","0.6","320.9","ND","ND","0","0"],
    [83142,"2019-10-31T01:00:00","ND","ND","ND","ND","ND","2","0.6","317.5","ND","ND","0","0"],
    [83143,"2019-10-31T02:00:00","24.1","ND","ND","ND","9.3","3.1","0.8","12.2","ND","ND","0","0"],
    [83144,"2019-10-31T03:00:00","ND","ND","ND","ND","ND","5.3","0.1","193.1","ND","ND","0","0.3"],
    [83145,"2019-10-31T04:00:00","24.7","ND","ND","ND","3.7","3.1","0.7","48.7","ND","ND","0","0"],
    [83146,"2019-10-31T05:00:00","ND","ND","ND","ND","ND","2","0.4","6.2","ND","ND","0","0"],
    [83147,"2019-10-31T06:00:00","39.5","ND","ND","ND","4","1.6","0.3","47.5","ND","ND","0","0.1"],
    [83148,"2019-10-31T07:00:00","ND","ND","ND","ND","ND","2","0.6","354.6","ND","ND","0","0"],
    [83149,"2019-10-31T08:00:00","32.8","ND","ND","ND","5.3","1.4","0.4","77.7","ND","ND","95","0"],
    [83150,"2019-10-31T09:00:00","ND","ND","ND","ND","ND","0.7","1.1","14.9","ND","ND","518","0"],
    [83151,"2019-10-31T10:00:00","35.4","ND","ND","ND","11.3","2.2","1","37.1","ND","ND","596","ND"],
    [83152,"2019-10-31T11:00:00","ND","ND","ND","ND","ND","1.4","0.9","18.5","ND","ND","664","0"],
    [83153,"2019-10-31T12:00:00","40.8","ND","ND","ND","51.3","0","0.9","82","ND","ND","665","0"],
    [83154,"2019-10-31T13:00:00","ND","ND","ND","ND","ND","0.2","1","108.4","ND","ND","657","0.5"],
    [83155,"2019-10-31T14:00:00","28","ND","ND","ND","78.9","0.1","0.3","62.7","ND","ND","640","0"],
    [83156,"2019-10-31T15:00:00","ND","ND","ND","ND","ND","0","0.9","77.6","ND","ND","666","ND"],
    [83157,"2019-10-31T16:00:00","30.3","ND","ND","ND","85.6","0","0.9","15.5","ND","ND","662","0"],
    [83158,"2019-10-31T17:00:00","ND","ND","ND","ND","ND","0","0.7","28.3","ND","ND","473","0"],
    [83159,"2019-10-31T18:00:00","35.4","ND","ND","ND","50.9","0.2","0.6","353.6","ND","ND","505","0"],
    [83160,"2019-10-31T19:00:00","ND","ND","ND","ND","ND","0","0.1","329.7","ND","ND","0","8.2"],
    [83161,"2019-10-31T20:00:00","32.7","ND","ND","ND","10.3","0","0.2","351.7","ND","ND","0","0"],
    [83162,"2019-10-31T21:00:00","ND","ND","ND","ND","ND","0","0.4","188.3","ND","ND","0","0"],
    [83163,"2019-10-31T22:00:00","30","ND","ND","ND","4.1","4.9","0.4","76.8","ND","ND","0","0.1"],
    [83164,"2019-10-31T23:00:00","ND","ND","ND","ND","ND","3.6","0.2","81.2","ND","ND","0","0.1"],
    [83165,"2019-11-01T00:00:00","43.9","ND","ND","ND","4.1","2.6","0.3","186.9","ND","ND","0","0"],
    [83166,"2019-11-01T01:00:00","ND","ND","ND","ND","ND","1.2","0.2","239.3","ND","ND","0","ND"],
    [83167,"2019-11-01T02:00:00","29.8","ND","ND","ND","3.7","4.5","0.2","119.4","ND","ND","0","0"],
    [83168,"2019-11-01T03:00:00","ND","ND","ND","ND","ND","2.7","1.3","127.7","ND","ND","0","ND"],
    [83169,"2019-11-01T04:00:00","45.5","ND","ND","ND","6.5","0.9","0.5","132.5","ND","ND","0","ND"],
    [83170,"2019-11-01T05:00:00","ND","ND","ND","ND","ND","0.5","0.4","291","ND","ND","0","ND"],
    [83171,"2019-11-01T06:00:00","29.3","ND","ND","ND","4.7","0.8","0.1","337.3","ND","ND","0","ND"],
    [83172,"2019-11-01T07:00:00","ND","ND","ND","ND","ND","4.4","0.7","1.5","ND","ND","5","ND"],
    [83173,"2019-11-01T08:00:00","79.6","ND","ND","ND","6.7","6.1","0.5","38.5","ND","ND","167","ND"],
    [83174,"2019-11-01T09:00:00","ND","ND","ND","ND","ND","3","0.5","333.5","ND","ND","514","0"],
    [83175,"2019-11-01T10:00:00","52.2","ND","ND","ND","31.6","0.5","1","77.7","ND","ND","665","ND"],
    [83176,"2019-11-01T11:00:00","ND","ND","ND","ND","ND","0","0.5","13.7","ND","ND","665","ND"],
    [83177,"2019-11-01T12:00:00","32.4","ND","ND","ND","67.8","0","0.9","249.3","ND","ND","666","ND"],
    [83178,"2019-11-01T13:00:00","ND","ND","ND","ND","ND","0","0.7","271.6","ND","ND","509","ND"],
    [83179,"2019-11-01T14:00:00","7.9","ND","ND","ND","45.9","ND","0.8","298.2","ND","ND","623","ND"],
    [83180,"2019-11-01T15:00:00","ND","ND","ND","ND","ND","0","1.6","282.4","ND","ND","666","0"],
    [83181,"2019-11-01T16:00:00","32.6","ND","ND","ND","41","0","2.4","267.8","ND","ND","664","0"],
    [83182,"2019-11-01T17:00:00","ND","ND","ND","ND","ND","0","0.6","266.2","ND","ND","606","0"],
    [83183,"2019-11-01T18:00:00","7","ND","ND","ND","30.3","0","0.6","185.4","ND","ND","305","0"],
    [83184,"2019-11-01T19:00:00","ND","ND","ND","ND","ND","0","2.6","118.5","ND","ND","0","0"],
    [83185,"2019-11-01T20:00:00","46","ND","ND","ND","16.6","0","1.4","138.4","ND","ND","0","ND"],
    [83186,"2019-11-01T21:00:00","ND","ND","ND","ND","ND","0","0.2","102.2","ND","ND","0","0"],
    [83187,"2019-11-01T22:00:00","36.9","ND","ND","ND","8.7","0.5","0.3","30.4","ND","ND","0","0"],
    [83188,"2019-11-01T23:00:00","ND","ND","ND","ND","ND","5.8","0.7","329.8","ND","ND","0","0"],
    [83189,"2019-11-02T00:00:00","52.8","ND","ND","ND","4.3","10.7","0.6","10","ND","ND","0","0"],
    [83190,"2019-11-02T01:00:00","ND","ND","ND","ND","ND","13.7","0.8","12.5","ND","ND","0","0"],
    [83191,"2019-11-02T02:00:00","43.2","ND","ND","ND","7.2","12.4","0.6","354.5","ND","ND","0","0"],
    [83192,"2019-11-02T03:00:00","ND","ND","ND","ND","ND","4.7","0.7","7.8","ND","ND","0","0"],
    [83193,"2019-11-02T04:00:00","45.2","ND","ND","ND","8.7","4.2","0.7","7.7","ND","ND","0","0"],
    [83194,"2019-11-02T05:00:00","ND","ND","ND","ND","ND","4.5","0.1","340","ND","ND","0","0"],
    [83195,"2019-11-02T06:00:00","60.3","ND","ND","ND","8.4","3.1","0.6","117.2","ND","ND","0","0"],
    [83196,"2019-11-02T07:00:00","ND","ND","ND","ND","ND","1.9","0.5","125.6","ND","ND","0","0"],
    [83197,"2019-11-02T08:00:00","53.7","ND","ND","ND","5.2","3.5","1.1","4.4","ND","ND","70","ND"],
    [83198,"2019-11-02T09:00:00","ND","ND","ND","ND","ND","2.5","0.7","351.1","ND","ND","82","0"],
    [83199,"2019-11-02T10:00:00","68.6","ND","ND","ND","20.5","1.2","0.5","9.7","ND","ND","226","ND"],
    [83200,"2019-11-02T11:00:00","ND","ND","ND","ND","ND","0.4","0.8","18","ND","ND","651","ND"],
    [83201,"2019-11-02T12:00:00","52","ND","ND","ND","77.3","0","1.2","35.5","ND","ND","665","ND"],
    [83202,"2019-11-02T13:00:00","ND","ND","ND","ND","ND","0","1.1","13.8","ND","ND","666","ND"],
    [83203,"2019-11-02T14:00:00","22.7","ND","ND","ND","76","0.1","1.1","9.9","ND","ND","666","0"],
    [83204,"2019-11-02T15:00:00","ND","ND","ND","ND","ND","0","1","292","ND","ND","658","0"],
    [83205,"2019-11-02T16:00:00","18.8","ND","ND","ND","37.6","0","2.2","241.6","ND","ND","664","0"],
    [83206,"2019-11-02T17:00:00","ND","ND","ND","ND","ND","0","1.5","244.6","ND","ND","608","0"],
    [83207,"2019-11-02T18:00:00","6.3","ND","ND","ND","31.3","0","0.1","205","ND","ND","420","0"],
    [83208,"2019-11-02T19:00:00","ND","ND","ND","ND","ND","0","0.3","144.1","ND","ND","0","0"],
    [83209,"2019-11-02T20:00:00","16.7","ND","ND","ND","9","4.5","1.2","105.9","ND","ND","0","0"],
    [83210,"2019-11-02T21:00:00","ND","ND","ND","ND","ND","1.8","0.9","126.4","ND","ND","0","ND"],
    [83211,"2019-11-02T22:00:00","28.4","ND","ND","ND","20.9","0","0.7","169.4","ND","ND","0","ND"],
    [83212,"2019-11-02T23:00:00","ND","ND","ND","ND","ND","0","0","285.1","ND","ND","0","ND"],
    [83213,"2019-11-03T00:00:00","24.8","ND","ND","ND","6.9","3.8","0.7","354.7","ND","ND","0","ND"],
    [83214,"2019-11-03T01:00:00","ND","ND","ND","ND","ND","3.4","0.4","86.9","ND","ND","0","ND"],
    [83215,"2019-11-03T02:00:00","34.5","ND","ND","ND","8.5","2.3","0.9","125.8","ND","ND","0","0"],
    [83216,"2019-11-03T03:00:00","ND","ND","ND","ND","ND","0.9","0.4","94.8","ND","ND","0","0"],
    [83217,"2019-11-03T04:00:00","19.7","ND","ND","ND","11.1","1.2","0.5","7.8","ND","ND","0","0.1"],
    [83218,"2019-11-03T05:00:00","ND","ND","ND","ND","ND","2.7","0.5","42.2","ND","ND","0","0"],
    [83219,"2019-11-03T06:00:00","32.7","ND","ND","ND","5","2.8","0.7","340.7","ND","ND","0","0"],
    [83220,"2019-11-03T07:00:00","ND","ND","ND","ND","ND","3.8","0.7","105.7","ND","ND","0","ND"],
    [83221,"2019-11-03T08:00:00","53.5","ND","ND","ND","12.6","4","0.9","116.3","ND","ND","171","0"],
    [83222,"2019-11-03T09:00:00","ND","ND","ND","ND","ND","0.9","1.6","129.3","ND","ND","355","0"],
    [83223,"2019-11-03T10:00:00","27.9","ND","ND","ND","39.9","0","1","89.3","ND","ND","583","0"],
    [83224,"2019-11-03T11:00:00","ND","ND","ND","ND","ND","0","0.8","73.6","ND","ND","665","0"],
    [83225,"2019-11-03T12:00:00","28.5","ND","ND","ND","71.9","0","0.7","0.9","ND","ND","666","0"],
    [83226,"2019-11-03T13:00:00","ND","ND","ND","ND","ND","0","1.7","257","ND","ND","650","0"],
    [83227,"2019-11-03T14:00:00","3.2","ND","ND","ND","38.7","0","0.3","176.2","ND","ND","655","0"],
    [83228,"2019-11-03T15:00:00","ND","ND","ND","ND","ND","0","2.5","247.2","ND","ND","600","0"],
    [83229,"2019-11-03T16:00:00","2.8","ND","ND","ND","37.7","0","0.9","285.5","ND","ND","383","0"],
    [83230,"2019-11-03T17:00:00","ND","ND","ND","ND","ND","0","1.1","257.8","ND","ND","518","0"],
    [83231,"2019-11-03T18:00:00","3.4","ND","ND","ND","28","0","0.7","232.3","ND","ND","456","0"],
    [83232,"2019-11-03T19:00:00","ND","ND","ND","ND","ND","0","0.7","28.1","ND","ND","0","0"],
    [83233,"2019-11-03T20:00:00","23.9","ND","ND","ND","21.2","0","0.7","212.8","ND","ND","0","0"],
    [83234,"2019-11-03T21:00:00","ND","ND","ND","ND","ND","ND","0.3","169.6","ND","ND","0","0"],
    [83235,"2019-11-03T22:00:00","20.7","ND","ND","ND","5.7","1.3","0.4","93.9","ND","ND","0","0"],
    [83236,"2019-11-03T23:00:00","ND","ND","ND","ND","ND","2.6","1.2","105.2","ND","ND","0","0"],
    [83237,"2019-11-04T00:00:00","29.5","ND","ND","ND","4.7","1.5","0.4","114.4","ND","ND","0","0"],
    [83238,"2019-11-04T01:00:00","ND","ND","ND","ND","ND","1.5","0.3","94.8","ND","ND","0","0"],
    [83239,"2019-11-04T02:00:00","31.2","ND","ND","ND","4.3","2.7","0.4","352.8","ND","ND","0","0"],
    [83240,"2019-11-04T03:00:00","ND","ND","ND","ND","ND","3.3","0.2","29.8","ND","ND","0","0"],
    [83241,"2019-11-04T04:00:00","18.9","ND","ND","ND","3.7","2","0.2","136.8","ND","ND","0","0"],
    [83242,"2019-11-04T05:00:00","ND","ND","ND","ND","ND","3.7","0.4","61.3","ND","ND","0","0"],
    [83243,"2019-11-04T06:00:00","11.2","ND","ND","ND","6.9","1.1","0.3","46.6","ND","ND","0","0"],
    [83244,"2019-11-04T07:00:00","ND","ND","ND","ND","ND","2.1","0.6","19","ND","ND","0","0"],
    [83245,"2019-11-04T08:00:00","41.7","ND","ND","ND","7.7","2.9","0.6","13.5","ND","ND","20","0"],
    [83246,"2019-11-04T09:00:00","ND","ND","ND","ND","ND","3","0.3","346.8","ND","ND","126","ND"],
    [83247,"2019-11-04T10:00:00","53.3","ND","ND","ND","13.5","1.5","0.7","15.8","ND","ND","452","0"],
    [83248,"2019-11-04T11:00:00","ND","ND","ND","ND","ND","1","0.7","89.2","ND","ND","563","0"],
    [83249,"2019-11-04T12:00:00","20.4","ND","ND","ND","33.1","1","0.6","125.3","ND","ND","665","0"],
    [83250,"2019-11-04T13:00:00","ND","ND","ND","ND","ND","0.3","0.2","333.4","ND","ND","483","0"],
    [83251,"2019-11-04T14:00:00","33.8","ND","ND","ND","52.6","0","0.6","313.5","ND","ND","617","0"],
    [83252,"2019-11-04T15:00:00","ND","ND","ND","ND","ND","0.8","1","336","ND","ND","665","0"],
    [83253,"2019-11-04T16:00:00","30.5","ND","ND","ND","37.2","0","1","337.1","ND","ND","666","0"],
    [83254,"2019-11-04T17:00:00","ND","ND","ND","ND","ND","0","0.8","340.4","ND","ND","656","0"],
    [83255,"2019-11-04T18:00:00","0.8","ND","ND","ND","32.2","0","0.5","263.3","ND","ND","519","0"],
    [83256,"2019-11-04T19:00:00","ND","ND","ND","ND","ND","0","0.4","28.6","ND","ND","0","0"],
    [83257,"2019-11-04T20:00:00","38.7","ND","ND","ND","9.7","0.8","0.5","300.7","ND","ND","0","0.1"],
    [83258,"2019-11-04T21:00:00","ND","ND","ND","ND","ND","0.6","0.4","295.7","ND","ND","0","0.1"],
    [83259,"2019-11-04T22:00:00","44.1","ND","ND","ND","4.2","2.7","0.4","0.2","ND","ND","0","0"],
    [83260,"2019-11-04T23:00:00","ND","ND","ND","ND","ND","3.1","0.2","328.5","ND","ND","0","0"],
    [83261,"2019-11-05T00:00:00","39.5","ND","ND","ND","3.7","1.9","0.2","244","ND","ND","0","0"],
    [83262,"2019-11-05T01:00:00","ND","ND","ND","ND","ND","1.7","0.5","135","ND","ND","0","0"],
    [83263,"2019-11-05T02:00:00","31.7","ND","ND","ND","14.1","0","0.7","130.5","ND","ND","0","1.6"],
    [83264,"2019-11-05T03:00:00","ND","ND","ND","ND","ND","1","0.6","109.9","ND","ND","0","0.5"],
    [83265,"2019-11-05T04:00:00","25.1","ND","ND","ND","10.5","0","0.2","155.2","ND","ND","0","0"],
    [83266,"2019-11-05T05:00:00","ND","ND","ND","ND","ND","1.9","0.7","5.1","ND","ND","0","0.2"],
    [83267,"2019-11-05T06:00:00","78.3","ND","ND","ND","4","4","0.6","28.4","ND","ND","0","0"],
    [83268,"2019-11-05T07:00:00","ND","ND","ND","ND","ND","3.2","0.2","39.7","ND","ND","6","0.1"],
    [83269,"2019-11-05T08:00:00","64.8","ND","ND","ND","7.5","2","1.1","124.4","ND","ND","179","0"],
    [83270,"2019-11-05T09:00:00","ND","ND","ND","ND","ND","3.3","0.2","320.4","ND","ND","481","0"],
    [83271,"2019-11-05T10:00:00","72.1","ND","ND","ND","39.3","1.8","1","44.1","ND","ND","470","0.3"],
    [83272,"2019-11-05T11:00:00","ND","ND","ND","ND","ND","0.7","0.8","35.8","ND","ND","665","ND"],
    [83273,"2019-11-05T12:00:00","35.1","ND","ND","ND","81.3","0","0.8","70.7","ND","ND","662","0"],
    [83274,"2019-11-05T13:00:00","ND","ND","ND","ND","ND","0","1","63.7","ND","ND","665","0"],
    [83275,"2019-11-05T14:00:00","40.3","ND","ND","ND","94.4","0.3","0.7","342.5","ND","ND","662","5.6"],
    [83276,"2019-11-05T15:00:00","ND","ND","ND","ND","ND","0","2.1","249.8","ND","ND","588","0"],
    [83277,"2019-11-05T16:00:00","8.1","ND","ND","ND","35.7","0","1.9","239.5","ND","ND","384","0"],
    [83278,"2019-11-05T17:00:00","ND","ND","ND","ND","ND","0","3.2","247","ND","ND","422","0"],
    [83279,"2019-11-05T18:00:00","12.3","ND","ND","ND","26.1","0","0.4","248.6","ND","ND","239","0.3"],
    [83280,"2019-11-05T19:00:00","ND","ND","ND","ND","ND","0","0.5","73.9","ND","ND","0","1.5"],
    [83281,"2019-11-05T20:00:00","28","ND","ND","ND","4.5","0.4","0.6","136.3","ND","ND","0","0"],
    [83282,"2019-11-05T21:00:00","ND","ND","ND","ND","ND","1","0.7","107.4","ND","ND","0","0"],
    [83283,"2019-11-05T22:00:00","29.8","ND","ND","ND","8.6","0","1.8","135.2","ND","ND","0","ND"],
    [83284,"2019-11-05T23:00:00","ND","ND","ND","ND","ND","0.3","1.6","123.6","ND","ND","0","0"],
    [83285,"2019-11-06T00:00:00","33.9","ND","ND","ND","6.4","0.5","0.1","132.5","ND","ND","0","ND"],
    [83286,"2019-11-06T01:00:00","ND","ND","ND","ND","ND","0","0.2","225.3","ND","ND","0","0"],
    [83287,"2019-11-06T02:00:00","36.6","ND","ND","ND","4.8","0.1","0.4","294.9","ND","ND","0","0"],
    [83288,"2019-11-06T03:00:00","ND","ND","ND","ND","ND","4.2","0.8","355.1","ND","ND","0","0"],
    [83289,"2019-11-06T04:00:00","47.9","ND","ND","ND","4.7","4.9","0.7","11.7","ND","ND","0","0"],
    [83290,"2019-11-06T05:00:00","ND","ND","ND","ND","ND","4.9","0.4","294","ND","ND","0","0"],
    [83291,"2019-11-06T06:00:00","51.5","ND","ND","ND","3.8","6.3","0.1","339.5","ND","ND","0","0"],
    [83292,"2019-11-06T07:00:00","ND","ND","ND","ND","ND","5.4","0.1","223.7","ND","ND","0","0"],
    [83293,"2019-11-06T08:00:00","67.9","ND","ND","ND","6.8","5.6","0.3","52.1","ND","ND","124","0"],
    [83294,"2019-11-06T09:00:00","ND","ND","ND","ND","ND","3.5","0.6","120.4","ND","ND","483","0"],
    [83295,"2019-11-06T10:00:00","59.4","ND","ND","ND","55.4","0.2","1.4","114.1","ND","ND","520","0"],
    [83296,"2019-11-06T11:00:00","ND","ND","ND","ND","ND","0","1.3","65.9","ND","ND","659","0"],
    [83297,"2019-11-06T12:00:00","28.5","ND","ND","ND","69.2","0","0.9","21.8","ND","ND","665","0"],
    [83298,"2019-11-06T13:00:00","ND","ND","ND","ND","ND","0","1","18.6","ND","ND","662","0"],
    [83299,"2019-11-06T14:00:00","47.3","ND","ND","ND","82.1","0","1.2","351.1","ND","ND","665","0"],
    [83300,"2019-11-06T15:00:00","ND","ND","ND","ND","ND","0","1.7","246.6","ND","ND","612","0"],
    [83301,"2019-11-06T16:00:00","12.9","ND","ND","ND","34.1","0","2.6","258.6","ND","ND","666","0"],
    [83302,"2019-11-06T17:00:00","ND","ND","ND","ND","ND","0","1.7","264.2","ND","ND","519","0"],
    [83303,"2019-11-06T18:00:00","ND","ND","ND","ND","ND","11.5","0.2","98.6","ND","ND","204","0"],
    [83304,"2019-11-06T19:00:00","32.2","ND","ND","ND","14.3","1.5","0.1","231.6","ND","ND","0","1"],
    [83305,"2019-11-06T20:00:00","ND","ND","ND","ND","ND","0","1.5","143.3","ND","ND","0","0"],
    [83306,"2019-11-06T21:00:00","14.2","ND","ND","ND","13","0","1.3","132.7","ND","ND","0","0"],
    [83307,"2019-11-06T22:00:00","ND","ND","ND","ND","ND","0.9","1.3","10","ND","ND","0","0"],
    [83308,"2019-11-06T23:00:00","32.8","ND","ND","ND","10.2","2.8","0.7","352.6","ND","ND","0","0"],
    [83309,"2019-11-07T00:00:00","ND","ND","ND","ND","ND","2","0.7","323.6","ND","ND","0","0"],
    [83310,"2019-11-07T01:00:00","47.5","ND","ND","ND","6.7","2","0.8","358.1","ND","ND","0","0"],
    [83311,"2019-11-07T02:00:00","ND","ND","ND","ND","ND","1.3","0.4","2.4","ND","ND","0","0"],
    [83312,"2019-11-07T03:00:00","97.3","ND","ND","ND","10.1","2.1","0.4","321.6","ND","ND","0","0"],
    [83313,"2019-11-07T04:00:00","ND","ND","ND","ND","ND","3.2","0.4","348.4","ND","ND","0","0"],
    [83314,"2019-11-07T05:00:00","58.7","ND","ND","ND","4","3.3","0.1","32.9","ND","ND","0","0"],
    [83315,"2019-11-07T06:00:00","ND","ND","ND","ND","ND","4.6","0.2","64.7","ND","ND","0","0"],
    [83316,"2019-11-07T07:00:00","71.7","ND","ND","ND","5","4.6","0.6","338.3","ND","ND","5","0"],
    [83317,"2019-11-07T08:00:00","ND","ND","ND","ND","ND","2.8","0.4","83.7","ND","ND","155","0"],
    [83318,"2019-11-07T09:00:00","38.8","ND","ND","ND","18.8","0.9","1.5","111.6","ND","ND","443","0"],
    [83319,"2019-11-07T10:00:00","ND","ND","ND","ND","ND","0.3","1.7","107.7","ND","ND","588","0"],
    [83320,"2019-11-07T11:00:00","20.3","ND","ND","ND","47.1","0","0.9","64","ND","ND","665","0"],
    [83321,"2019-11-07T12:00:00","ND","ND","ND","ND","ND","0","0.9","17.2","ND","ND","665","0"],
    [83322,"2019-11-07T13:00:00","25.5","ND","ND","ND","102.7","0","0.8","67.8","ND","ND","662","0"],
    [83323,"2019-11-07T14:00:00","ND","ND","ND","ND","ND","0","0.9","47.3","ND","ND","665","0"],
    [83324,"2019-11-07T15:00:00","42.7","ND","ND","ND","114.8","0","1.4","18.4","ND","ND","665","0"],
    [83325,"2019-11-07T16:00:00","ND","ND","ND","ND","ND","0.1","1.3","300.7","ND","ND","599","0"],
    [83326,"2019-11-07T17:00:00","48.8","ND","ND","ND","59.9","0","1.4","240.6","ND","ND","565","0"],
    [83327,"2019-11-07T18:00:00","ND","ND","ND","ND","ND","0","0.5","275.2","ND","ND","470","0"],
    [83328,"2019-11-07T19:00:00","18.6","ND","ND","ND","35","0","0.4","67.5","ND","ND","0","0"],
    [83329,"2019-11-07T20:00:00","ND","ND","ND","ND","ND","0","0.8","65.5","ND","ND","0","0"],
    [83330,"2019-11-07T21:00:00","35.8","ND","ND","ND","8","1","0.8","98.5","ND","ND","0","0"],
    [83331,"2019-11-07T22:00:00","ND","ND","ND","ND","ND","3.3","0.7","82.1","ND","ND","0","0"],
    [83332,"2019-11-07T23:00:00","21.9","ND","ND","ND","4.6","2.8","0.4","100.4","ND","ND","0","0"],
    [83333,"2019-11-08T00:00:00","ND","ND","ND","ND","ND","5.1","0.5","131.3","ND","ND","0","0"],
    [83334,"2019-11-08T01:00:00","14.3","ND","ND","ND","7.5","1.5","1","111.8","ND","ND","0","0"],
    [83335,"2019-11-08T02:00:00","ND","ND","ND","ND","ND","2.4","0.1","253.6","ND","ND","0","0"],
    [83336,"2019-11-08T03:00:00","43.9","ND","ND","ND","4.7","2.6","0.1","10.8","ND","ND","0","0"],
    [83337,"2019-11-08T04:00:00","ND","ND","ND","ND","ND","2.6","0.3","338.8","ND","ND","0","0"],
    [83338,"2019-11-08T05:00:00","39.5","ND","ND","ND","3.9","3.3","0.2","253.4","ND","ND","0","0"],
    [83339,"2019-11-08T06:00:00","ND","ND","ND","ND","ND","1.6","0.3","346.5","ND","ND","0","0"],
    [83340,"2019-11-08T07:00:00","72.3","ND","ND","ND","4.7","3.5","0.6","352.5","ND","ND","0","0"],
    [83341,"2019-11-08T08:00:00","ND","ND","ND","ND","ND","4.7","0.3","57.7","ND","ND","133","0"],
    [83342,"2019-11-08T09:00:00","ND","ND","ND","ND","10","2.2","0.8","22.6","ND","ND","503","0"],
    [83343,"2019-11-08T10:00:00","ND","ND","ND","ND","25.1","1.8","0.7","67.4","ND","ND","524","0"],
    [83344,"2019-11-08T11:00:00","ND","ND","ND","ND","59.9","0.4","0.7","87.5","ND","ND","657","0"],
    [83345,"2019-11-08T12:00:00","ND","ND","ND","ND","ND","0.6","0.5","36.7","ND","ND","662","0"],
    [83346,"2019-11-08T13:00:00","50.9","ND","ND","ND","87.8","0.2","0.8","94.4","ND","ND","412","0"],
    [83347,"2019-11-08T14:00:00","ND","ND","ND","ND","ND","0","0.7","295.8","ND","ND","662","0"],
    [83348,"2019-11-08T15:00:00","32.5","ND","ND","ND","42.3","0","0.5","231","ND","ND","629","0"],
    [83349,"2019-11-08T16:00:00","ND","ND","ND","ND","ND","0","2","259.7","ND","ND","631","0"],
    [83350,"2019-11-08T17:00:00","ND","ND","ND","ND","26.9","0","1.5","258.3","ND","ND","660","0"],
    [83351,"2019-11-08T18:00:00","ND","ND","ND","ND","ND","0","0.2","72.4","ND","ND","192","0"],
    [83352,"2019-11-08T19:00:00","38.7","ND","ND","ND","21.1","0","0","151.3","ND","ND","0","0"],
    [83353,"2019-11-08T20:00:00","ND","ND","ND","ND","ND","0","1.3","116","ND","ND","0","0"],
    [83354,"2019-11-08T21:00:00","24","ND","ND","ND","12.2","0","1.5","143.5","ND","ND","0","0"],
    [83355,"2019-11-08T22:00:00","ND","ND","ND","ND","ND","0","0.8","76.1","ND","ND","0","0.7"],
    [83356,"2019-11-08T23:00:00","30.9","ND","ND","ND","10.6","0","1.9","142","ND","ND","0","0.5"],
    [83357,"2019-11-09T00:00:00","ND","ND","ND","ND","ND","0","0.6","119.5","ND","ND","0","0"],
    [83358,"2019-11-09T01:00:00","14.4","ND","ND","ND","9","0.3","0.9","114","ND","ND","0","0"],
    [83359,"2019-11-09T02:00:00","ND","ND","ND","ND","ND","0.7","0.6","353.5","ND","ND","0","0"],
    [83360,"2019-11-09T03:00:00","52.6","ND","ND","ND","8.4","2.1","1.6","0.3","ND","ND","0","0"],
    [83361,"2019-11-09T04:00:00","ND","ND","ND","ND","ND","0.3","1.1","294.1","ND","ND","0","0"],
    [83362,"2019-11-09T05:00:00","19.8","ND","ND","ND","7","0","0.6","239.1","ND","ND","0","0"],
    [83363,"2019-11-09T06:00:00","ND","ND","ND","ND","ND","1.8","0.5","31.8","ND","ND","0","0"],
    [83364,"2019-11-09T07:00:00","28.9","ND","ND","ND","3.6","1.7","0.6","130.7","ND","ND","0","0"],
    [83365,"2019-11-09T08:00:00","ND","ND","ND","ND","ND","0.7","0.4","29.2","ND","ND","48","0"],
    [83366,"2019-11-09T09:00:00","35.8","ND","ND","ND","3.9","0.8","0.4","34.9","ND","ND","106","0"],
    [83367,"2019-11-09T10:00:00","ND","ND","ND","ND","ND","6.6","0.9","16.5","ND","ND","164","0"],
    [83368,"2019-11-09T11:00:00","33.3","ND","ND","ND","11.2","3.2","0.8","349.4","ND","ND","400","0"],
    [83369,"2019-11-09T12:00:00","ND","ND","ND","ND","ND","0.4","0.4","80.5","ND","ND","644","0"],
    [83370,"2019-11-09T13:00:00","24.5","ND","ND","ND","23.2","0.5","1.2","2.4","ND","ND","664","0"],
    [83371,"2019-11-09T14:00:00","ND","ND","ND","ND","ND","1.7","0.5","324.5","ND","ND","658","0"],
    [83372,"2019-11-09T15:00:00","20.1","ND","ND","ND","24.4","0","1.3","297.5","ND","ND","659","0"],
    [83373,"2019-11-09T16:00:00","ND","ND","ND","ND","ND","0","1.7","267.5","ND","ND","665","0"],
    [83374,"2019-11-09T17:00:00","5.9","ND","ND","ND","23.8","0","1.6","273.2","ND","ND","574","0"],
    [83375,"2019-11-09T18:00:00","ND","ND","ND","ND","ND","0","0.5","328","ND","ND","222","0"],
    [83376,"2019-11-09T19:00:00","35.9","ND","ND","ND","4.2","2","0.2","120.5","ND","ND","0","0"],
    [83377,"2019-11-09T20:00:00","ND","ND","ND","ND","ND","0.2","1.7","129.3","ND","ND","0","0"],
    [83378,"2019-11-09T21:00:00","48.7","ND","ND","ND","5.4","0","1.5","133.4","ND","ND","0","0"],
    [83379,"2019-11-09T22:00:00","ND","ND","ND","ND","ND","0","0.8","141.2","ND","ND","0","0"],
    [83380,"2019-11-09T23:00:00","33.5","ND","ND","ND","3.6","0","0.6","121.6","ND","ND","0","0"],
    [83381,"2019-11-10T00:00:00","ND","ND","ND","ND","ND","0","1.3","121.9","ND","ND","0","0"],
    [83382,"2019-11-10T01:00:00","10.5","ND","ND","ND","3.5","0","0.2","97.7","ND","ND","0","0"],
    [83383,"2019-11-10T02:00:00","ND","ND","ND","ND","ND","0.7","0.7","346.7","ND","ND","0","0"],
    [83384,"2019-11-10T03:00:00","17.1","ND","ND","ND","3.6","2.1","0.9","18.3","ND","ND","0","0"],
    [83385,"2019-11-10T04:00:00","ND","ND","ND","ND","ND","4.3","0.5","32.7","ND","ND","0","0"],
    [83386,"2019-11-10T05:00:00","18","ND","ND","ND","3.8","4.1","0.4","111.8","ND","ND","0","0"],
    [83387,"2019-11-10T06:00:00","ND","ND","ND","ND","ND","2.8","0.3","114.5","ND","ND","0","0"],
    [83388,"2019-11-10T07:00:00","17.8","ND","ND","ND","3.6","1.4","0.4","110","ND","ND","0","0"],
    [83389,"2019-11-10T08:00:00","ND","ND","ND","ND","ND","0","0.5","25","ND","ND","133","0"],
    [83390,"2019-11-10T09:00:00","40.5","ND","ND","ND","13","0.2","1.1","66.7","ND","ND","567","0"],
    [83391,"2019-11-10T10:00:00","ND","ND","ND","ND","ND","0.6","0.9","87.3","ND","ND","663","0"],
    [83392,"2019-11-10T11:00:00","6.1","ND","ND","ND","37.3","0","0.7","7.5","ND","ND","665","0"],
    [83393,"2019-11-10T12:00:00","ND","ND","ND","ND","ND","0.3","1.1","324","ND","ND","650","0"],
    [83394,"2019-11-10T13:00:00","33.2","ND","ND","ND","42.8","0","1.4","339.8","ND","ND","665","0"],
    [83395,"2019-11-10T14:00:00","ND","ND","ND","ND","ND","0","1.6","322","ND","ND","653","0"],
    [83396,"2019-11-10T15:00:00","ND","ND","ND","ND","27.1","0","0.4","244.1","ND","ND","541","0"],
    [83397,"2019-11-10T16:00:00","ND","ND","ND","ND","ND","0","0.8","275.4","ND","ND","545","0"],
    [83398,"2019-11-10T17:00:00","11.2","ND","ND","ND","23.5","ND","1.5","283.4","ND","ND","574","0"],
    [83399,"2019-11-10T18:00:00","ND","ND","ND","ND","ND","0","0.3","25.7","ND","ND","499","0"],
    [83400,"2019-11-10T19:00:00","9.3","ND","ND","ND","10","0","0.5","82.8","ND","ND","0","0"],
    [83401,"2019-11-10T20:00:00","ND","ND","ND","ND","ND","0","0.3","277.8","ND","ND","0","0"],
    [83402,"2019-11-10T21:00:00","18.5","ND","ND","ND","4.1","0.1","0.4","82.7","ND","ND","0","0"],
    [83403,"2019-11-10T22:00:00","ND","ND","ND","ND","ND","1.6","0.4","1.6","ND","ND","0","0"],
    [83404,"2019-11-10T23:00:00","20.5","ND","ND","ND","4.8","1","0.4","67.1","ND","ND","0","0"],
    [83405,"2019-11-11T00:00:00","ND","ND","ND","ND","ND","2.1","0.3","6.4","ND","ND","0","0"],
    [83406,"2019-11-11T01:00:00","13.8","ND","ND","ND","11.1","1.4","0.5","17.2","ND","ND","0","0"],
    [83407,"2019-11-11T02:00:00","ND","ND","ND","ND","ND","0.5","0.1","90.1","ND","ND","0","0"],
    [83408,"2019-11-11T03:00:00","14.7","ND","ND","ND","6.1","2.9","0.4","128.5","ND","ND","0","0"],
    [83409,"2019-11-11T04:00:00","ND","ND","ND","ND","ND","1.2","0.4","146.2","ND","ND","0","0"],
    [83410,"2019-11-11T05:00:00","18.1","ND","ND","ND","5.6","0.6","0.2","115.8","ND","ND","0","0"],
    [83411,"2019-11-11T06:00:00","ND","ND","ND","ND","ND","0.4","0.3","128.4","ND","ND","0","0"],
    [83412,"2019-11-11T07:00:00","9.5","ND","ND","ND","6.8","1","0.7","14.6","ND","ND","0","0"],
    [83413,"2019-11-11T08:00:00","ND","ND","ND","ND","ND","3.3","0.4","75.3","ND","ND","61","0"],
    [83414,"2019-11-11T09:00:00","41.5","ND","ND","ND","10.6","1.6","0.6","112.1","ND","ND","153","0"],
    [83415,"2019-11-11T10:00:00","ND","ND","ND","ND","ND","0","0.8","100.3","ND","ND","533","0"],
    [83416,"2019-11-11T11:00:00","25.6","ND","ND","ND","36","0","0.6","107.9","ND","ND","642","0"],
    [83417,"2019-11-11T12:00:00","ND","ND","ND","ND","ND","0","0.5","230.4","ND","ND","665","0"],
    [83418,"2019-11-11T13:00:00","15.2","ND","ND","ND","69.9","0","1.1","114.8","ND","ND","665","0"],
    [83419,"2019-11-11T14:00:00","ND","ND","ND","ND","ND","0","0.7","101.2","ND","ND","662","0"],
    [83420,"2019-11-11T15:00:00","25.7","ND","ND","ND","64.1","0","1.1","245.4","ND","ND","656","0"],
    [83421,"2019-11-11T16:00:00","ND","ND","ND","ND","ND","0","1.3","257.7","ND","ND","550","0"],
    [83422,"2019-11-11T17:00:00","6.9","ND","ND","ND","22.1","0","0.3","355.1","ND","ND","200","0"],
    [83423,"2019-11-11T18:00:00","ND","ND","ND","ND","ND","0","0.5","40.9","ND","ND","202","0"],
    [83424,"2019-11-11T19:00:00","29.2","ND","ND","ND","6.6","0","0.7","40.2","ND","ND","0","0"],
    [83425,"2019-11-11T20:00:00","ND","ND","ND","ND","ND","0.7","0.5","96.5","ND","ND","0","0"],
    [83426,"2019-11-11T21:00:00","24.6","ND","ND","ND","4.8","0","0.2","145.6","ND","ND","0","0"],
    [83427,"2019-11-11T22:00:00","ND","ND","ND","ND","ND","1","0.8","355.8","ND","ND","0","0"],
    [83428,"2019-11-11T23:00:00","32.9","ND","ND","ND","4.4","1.7","0.4","18.2","ND","ND","0","0"],
    [83429,"2019-11-12T00:00:00","ND","ND","ND","ND","ND","1.4","0.3","144.9","ND","ND","0","0"],
    [83430,"2019-11-12T01:00:00","17.3","ND","ND","ND","7.9","0.3","1","111.8","ND","ND","0","0"],
    [83431,"2019-11-12T02:00:00","ND","ND","ND","ND","ND","0.5","1.1","119.8","ND","ND","0","0"],
    [83432,"2019-11-12T03:00:00","7.4","ND","ND","ND","7.7","1.3","1","121.2","ND","ND","0","0"],
    [83433,"2019-11-12T04:00:00","ND","ND","ND","ND","ND","0","0.7","126.5","ND","ND","0","0"],
    [83434,"2019-11-12T05:00:00","3.8","ND","ND","ND","5.2","1.1","0.7","20.2","ND","ND","0","0"],
    [83435,"2019-11-12T06:00:00","ND","ND","ND","ND","ND","1","0.8","10.8","ND","ND","0","0"],
    [83436,"2019-11-12T07:00:00","8.1","ND","ND","ND","3.6","0.5","0.7","36.2","ND","ND","0","0"],
    [83437,"2019-11-12T08:00:00","ND","ND","ND","ND","ND","0.4","0.5","109.6","ND","ND","24","0"],
    [83438,"2019-11-12T09:00:00","30","ND","ND","ND","5.5","0","0.8","129.9","ND","ND","110","0"],
    [83439,"2019-11-12T10:00:00","ND","ND","ND","ND","ND","0","1.1","132.9","ND","ND","274","0"],
    [83440,"2019-11-12T11:00:00","15.6","ND","ND","ND","14.2","0","1.2","108.4","ND","ND","303","0"],
    [83441,"2019-11-12T12:00:00","ND","ND","ND","ND","ND","0","0.9","100.3","ND","ND","664","0"],
    [83442,"2019-11-12T13:00:00","37.6","ND","ND","ND","52.3","0","1","120.8","ND","ND","655","0"],
    [83443,"2019-11-12T14:00:00","ND","ND","ND","ND","ND","0","0.5","91.4","ND","ND","665","0"],
    [83444,"2019-11-12T15:00:00","8.6","ND","ND","ND","30.3","0","1.9","275.7","ND","ND","589","0"],
    [83445,"2019-11-12T16:00:00","ND","ND","ND","ND","ND","0","0.6","309.1","ND","ND","299","0"],
    [83446,"2019-11-12T17:00:00","21.9","ND","ND","ND","6.4","1","0.9","324.5","ND","ND","361","0"],
    [83447,"2019-11-12T18:00:00","ND","ND","ND","ND","ND","1","0.4","340","ND","ND","151","0"],
    [83448,"2019-11-12T19:00:00","42","ND","ND","ND","4","0.2","1.1","26","ND","ND","0","0"],
    [83449,"2019-11-12T20:00:00","ND","ND","ND","ND","ND","0.8","0.5","146","ND","ND","0","0.2"],
    [83450,"2019-11-12T21:00:00","27.3","ND","ND","ND","3.8","0","1.3","128.2","ND","ND","0","0"],
    [83451,"2019-11-12T22:00:00","ND","ND","ND","ND","ND","0","0.4","121.9","ND","ND","0","0"],
    [83452,"2019-11-12T23:00:00","18.4","ND","ND","ND","3.8","0","0.7","109.7","ND","ND","0","0"],
    [83453,"2019-11-13T00:00:00","ND","ND","ND","ND","ND","0","0.6","124.5","ND","ND","0","0"],
    [83454,"2019-11-13T01:00:00","1.7","ND","ND","ND","3.7","0","0.3","123.5","ND","ND","0","0"],
    [83455,"2019-11-13T02:00:00","ND","ND","ND","ND","ND","0","0.5","133.4","ND","ND","0","ND"],
    [83456,"2019-11-13T03:00:00","7.2","ND","ND","ND","5.2","0","0.5","125","ND","ND","0","ND"],
    [83457,"2019-11-13T04:00:00","ND","ND","ND","ND","ND","0","0.2","120.2","ND","ND","0","0"],
    [83458,"2019-11-13T05:00:00","ND","ND","ND","ND","4.8","0","0.2","29","ND","ND","0","0"],
    [83459,"2019-11-13T06:00:00","ND","ND","ND","ND","ND","0","0.4","110","ND","ND","0","0"],
    [83460,"2019-11-13T07:00:00","22.3","ND","ND","ND","4","0.6","0.6","108.2","ND","ND","0","0"],
    [83461,"2019-11-13T08:00:00","ND","ND","ND","ND","ND","0.1","0.3","11.6","ND","ND","26","0"],
    [83462,"2019-11-13T09:00:00","31.2","ND","ND","ND","4.1","0","0.5","24.5","ND","ND","346","ND"],
    [83463,"2019-11-13T10:00:00","ND","ND","ND","ND","ND","0","0.2","72.8","ND","ND","406","ND"],
    [83464,"2019-11-13T11:00:00","32.3","ND","ND","ND","27.2","0","0.2","72","ND","ND","540","0"],
    [83465,"2019-11-13T12:00:00","ND","ND","ND","ND","ND","0","1","66","ND","ND","658","0"],
    [83466,"2019-11-13T13:00:00","24.4","ND","ND","ND","43.9","0","1","43.4","ND","ND","665","0"],
    [83467,"2019-11-13T14:00:00","ND","ND","ND","ND","ND","0","3.3","241.7","ND","ND","589","0"],
    [83468,"2019-11-13T15:00:00","1.7","ND","ND","ND","9.2","0","0.6","275.7","ND","ND","61","0"],
    [83469,"2019-11-13T16:00:00","ND","ND","ND","ND","ND","0","0.9","147.7","ND","ND","157","ND"],
    [83470,"2019-11-13T17:00:00","ND","ND","ND","ND","5.9","ND","ND","ND","ND","ND","264","0"],
    [83471,"2019-11-13T18:00:00","ND","ND","ND","ND","ND","0.4","0.5","56.6","ND","ND","ND","ND"],
    [83472,"2019-11-13T19:00:00","11.4","ND","ND","ND","3.5","0","0.4","308.9","ND","ND","0","ND"],
    [83473,"2019-11-13T20:00:00","ND","ND","ND","ND","ND","0","0.2","245.9","ND","ND","0","0.4"],
    [83474,"2019-11-13T21:00:00","40.4","ND","ND","ND","3.9","0","0","171.3","ND","ND","0","ND"],
    [83475,"2019-11-13T22:00:00","ND","ND","ND","ND","ND","0","0.1","318.3","ND","ND","0","ND"],
    [83476,"2019-11-13T23:00:00","28.1","ND","ND","ND","3.5","0","0.3","259.8","ND","ND","0","ND"],
    [83477,"2019-11-14T00:00:00","ND","ND","ND","ND","ND","0","0.1","132.6","ND","ND","0","ND"],
    [83478,"2019-11-14T01:00:00","16.4","ND","ND","ND","3.5","0","0","326.6","ND","ND","0","0"],
    [83479,"2019-11-14T02:00:00","ND","ND","ND","ND","ND","0","0.5","285.4","ND","ND","0","0"],
    [83480,"2019-11-14T03:00:00","10","ND","ND","ND","3.9","0","0.2","353.7","ND","ND","0","ND"],
    [83481,"2019-11-14T04:00:00","ND","ND","ND","ND","ND","0","0.3","346.7","ND","ND","0","ND"],
    [83482,"2019-11-14T05:00:00","12.4","ND","ND","ND","3.9","ND","0","43.2","ND","ND","0","0"],
    [83483,"2019-11-14T06:00:00","ND","ND","ND","ND","ND","0","0","203.8","ND","ND","0","0"],
    [83484,"2019-11-14T07:00:00","6.4","ND","ND","ND","4","0","0.3","280.3","ND","ND","0","0"],
    [83485,"2019-11-14T08:00:00","ND","ND","ND","ND","ND","0","0.4","15.3","ND","ND","86","0"],
    [83486,"2019-11-14T09:00:00","50","ND","ND","ND","4","0","0","299.3","ND","ND","346","ND"],
    [83487,"2019-11-14T10:00:00","43.4","ND","ND","ND","ND","0","0.6","80.9","ND","ND","639","ND"],
    [83488,"2019-11-14T11:00:00","53.3","ND","ND","ND","35.4","0","0.6","78.1","ND","ND","664","0"],
    [83489,"2019-11-14T12:00:00","52.9","ND","ND","ND","ND","0","0.4","122.9","ND","ND","665","0"],
    [83490,"2019-11-14T13:00:00","ND","ND","ND","ND","66.6","0","0.8","341.4","ND","ND","665","ND"],
    [83491,"2019-11-14T14:00:00","ND","ND","ND","ND","ND","0","1.3","6.5","ND","ND","665","0"],
    [83492,"2019-11-14T15:00:00","ND","ND","ND","ND","14.6","0.2","1.3","13.6","ND","ND","623","ND"],
    [83493,"2019-11-14T16:00:00","ND","ND","ND","ND","ND","0","0.3","48.6","ND","ND","534","ND"],
    [83494,"2019-11-14T17:00:00","ND","ND","ND","ND","14.8","0","0.7","143.3","ND","ND","461","0"],
    [83495,"2019-11-14T18:00:00","ND","ND","ND","ND","ND","0","0.7","225.3","ND","ND","227","0"],
    [83496,"2019-11-14T19:00:00","ND","ND","ND","ND","4.8","0","0.4","45.8","ND","ND","0","14.2"],
    [83497,"2019-11-14T20:00:00","ND","ND","ND","ND","ND","0","1","110.4","ND","ND","0","0"],
    [83498,"2019-11-14T21:00:00","ND","ND","ND","ND","4","0.9","0.4","358","ND","ND","0","0"],
    [83499,"2019-11-14T22:00:00","ND","ND","ND","ND","ND","0","0.2","189.9","ND","ND","0","0"],
    [83500,"2019-11-14T23:00:00","ND","ND","ND","ND","3.8","0.5","0.2","64","ND","ND","0","ND"],
    [83501,"2019-11-15T00:00:00","ND","ND","ND","ND","ND","0.5","0.1","247.7","ND","ND","0","ND"],
    [83502,"2019-11-15T01:00:00","ND","ND","ND","ND","3.7","0.6","0.3","148.9","ND","ND","0","0"],
    [83503,"2019-11-15T02:00:00","ND","ND","ND","ND","ND","0","0.5","135.2","ND","ND","0","0"],
    [83504,"2019-11-15T03:00:00","ND","ND","ND","ND","6.3","0.5","0.4","111.5","ND","ND","0","1.7"],
    [83505,"2019-11-15T04:00:00","ND","ND","ND","ND","ND","2.8","0.4","103.5","ND","ND","0","0"],
    [83506,"2019-11-15T05:00:00","ND","ND","ND","ND","3.9","0.6","0.8","22.5","ND","ND","0","0"],
    [83507,"2019-11-15T06:00:00","ND","ND","ND","ND","ND","0","0.5","22.7","ND","ND","0","0"],
    [83508,"2019-11-15T07:00:00","ND","ND","ND","ND","3.9","0.3","0.9","30","ND","ND","0","0.1"],
    [83509,"2019-11-15T08:00:00","ND","ND","ND","ND","ND","0.1","0.5","68.6","ND","ND","30","0"],
    [83510,"2019-11-15T09:00:00","ND","ND","ND","ND","4.5","0.1","0.7","119.9","ND","ND","78","0.1"],
    [83511,"2019-11-15T10:00:00","ND","ND","ND","ND","8.1","0","1","220.8","ND","ND","196","0"],
    [83512,"2019-11-15T11:00:00","ND","ND","ND","ND","20.2","0","0.5","171.8","ND","ND","640","0"],
    [83513,"2019-11-15T12:00:00","ND","ND","ND","ND","35.4","0","0.6","257.5","ND","ND","665","0"],
    [83514,"2019-11-15T13:00:00","ND","ND","ND","ND","52.9","0","0.9","11.3","ND","ND","662","0"],
    [83515,"2019-11-15T14:00:00","ND","ND","ND","ND","43.2","0","1.6","356.3","ND","ND","663","0"],
    [83516,"2019-11-15T15:00:00","ND","ND","ND","ND","ND","0","1.9","357.7","ND","ND","665","0"],
    [83517,"2019-11-15T16:00:00","29.4","ND","ND","ND","14.8","0","1","275","ND","ND","598","0"],
    [83518,"2019-11-15T17:00:00","ND","ND","ND","ND","ND","0","0.3","106.9","ND","ND","539","0"],
    [83519,"2019-11-15T18:00:00","13","ND","ND","ND","4.8","0","0.2","28.8","ND","ND","165","0"],
    [83520,"2019-11-15T19:00:00","ND","ND","ND","ND","ND","0","1.1","113.6","ND","ND","0","0"],
    [83521,"2019-11-15T20:00:00","29.3","ND","ND","ND","4.2","0","0.7","114.4","ND","ND","0","1.5"],
    [83522,"2019-11-15T21:00:00","ND","ND","ND","ND","ND","0.1","0.3","352.9","ND","ND","0","0"],
    [83523,"2019-11-15T22:00:00","33.6","ND","ND","ND","3.9","0","0.9","113.6","ND","ND","0","0"],
    [83524,"2019-11-15T23:00:00","ND","ND","ND","ND","ND","0","0.4","127.2","ND","ND","0","0"],
    [83525,"2019-11-16T00:00:00","34.7","ND","ND","ND","3.8","0","0.6","122.2","ND","ND","0","0"],
    [83526,"2019-11-16T01:00:00","ND","ND","ND","ND","ND","0","0.3","114.2","ND","ND","0","0"],
    [83527,"2019-11-16T02:00:00","23.9","ND","ND","ND","3.4","0","0.2","354.6","ND","ND","0","0"],
    [83528,"2019-11-16T03:00:00","ND","ND","ND","ND","ND","1.3","0.6","344.9","ND","ND","0","0"],
    [83529,"2019-11-16T04:00:00","28.7","ND","ND","ND","3.6","1.9","0.7","346.8","ND","ND","0","0"],
    [83530,"2019-11-16T05:00:00","ND","ND","ND","ND","ND","1.1","0.9","16.1","ND","ND","0","0"],
    [83531,"2019-11-16T06:00:00","ND","ND","ND","ND","3.5","1.7","1.3","11.8","ND","ND","0","0"],
    [83532,"2019-11-16T07:00:00","ND","ND","ND","ND","ND","2.3","0.8","355.6","ND","ND","0","0"],
    [83533,"2019-11-16T08:00:00","23.4","ND","ND","ND","3.8","0.9","0.2","166.2","ND","ND","32","0"],
    [83534,"2019-11-16T09:00:00","ND","ND","ND","ND","ND","0","0.8","57.6","ND","ND","317","0"],
    [83535,"2019-11-16T10:00:00","18","ND","ND","ND","7.5","0.3","0.4","114.9","ND","ND","566","0"],
    [83536,"2019-11-16T11:00:00","ND","ND","ND","ND","ND","0","0.3","66.1","ND","ND","565","0"],
    [83537,"2019-11-16T12:00:00","29.5","ND","ND","ND","24.5","0.2","1.2","12.2","ND","ND","664","0"],
    [83538,"2019-11-16T13:00:00","ND","ND","ND","ND","ND","0.1","0.4","51.8","ND","ND","665","0"],
    [83539,"2019-11-16T14:00:00","20.6","ND","ND","ND","29.7","0","0.8","70.3","ND","ND","665","0"],
    [83540,"2019-11-16T15:00:00","ND","ND","ND","ND","ND","0","1.1","134.6","ND","ND","531","0"],
    [83541,"2019-11-16T16:00:00","17.9","ND","ND","ND","38","0","0.7","173.8","ND","ND","459","0"],
    [83542,"2019-11-16T17:00:00","ND","ND","ND","ND","ND","0","0.4","197.8","ND","ND","566","0"],
    [83543,"2019-11-16T18:00:00","10","ND","ND","ND","10.7","0","0.5","261.5","ND","ND","329","0.1"],
    [83544,"2019-11-16T19:00:00","ND","ND","ND","ND","ND","0","0.3","65.1","ND","ND","0","0"],
    [83545,"2019-11-16T20:00:00","29.5","ND","ND","ND","4","0","0.1","277.3","ND","ND","0","0"],
    [83546,"2019-11-16T21:00:00","ND","ND","ND","ND","ND","2","0.7","114.1","ND","ND","0","0"],
    [83547,"2019-11-16T22:00:00","32.4","ND","ND","ND","3.9","0.2","0.3","237.3","ND","ND","0","0.2"],
    [83548,"2019-11-16T23:00:00","ND","ND","ND","ND","ND","0","0.1","40.5","ND","ND","0","0"],
    [83549,"2019-11-17T00:00:00","62.3","ND","ND","ND","3.7","0.9","0.4","347.2","ND","ND","0","0"],
    [83550,"2019-11-17T01:00:00","ND","ND","ND","ND","ND","0.4","0.1","154.5","ND","ND","0","0"],
    [83551,"2019-11-17T02:00:00","53.6","ND","ND","ND","3.8","0.1","0.1","282.9","ND","ND","0","0"],
    [83552,"2019-11-17T03:00:00","46.4","ND","ND","ND","3.8","2.3","0.4","3.8","ND","ND","0","0"],
    [83553,"2019-11-17T04:00:00","46.2","ND","ND","ND","3.8","3","0.2","285.4","ND","ND","0","1.5"],
    [83554,"2019-11-17T05:00:00","74.6","ND","ND","ND","3.7","1.8","0.3","335.2","ND","ND","0","0"],
    [83555,"2019-11-17T06:00:00","55.5","ND","ND","ND","3.9","0.3","0.2","331.1","ND","ND","0","5.7"],
    [83556,"2019-11-17T07:00:00","45","ND","ND","ND","3.9","1","0.3","133.8","ND","ND","4","0"],
    [83557,"2019-11-17T08:00:00","38","ND","ND","ND","4.2","0","0.6","112.3","ND","ND","157","0"],
    [83558,"2019-11-17T09:00:00","12.3","ND","ND","ND","6.9","0","0.4","270.3","ND","ND","382","0"],
    [83559,"2019-11-17T10:00:00","7.6","ND","ND","ND","17.1","0","0.3","191.2","ND","ND","344","0"],
    [83560,"2019-11-17T11:00:00","26.5","ND","ND","ND","29.1","0","0.7","141.3","ND","ND","496","0"],
    [83561,"2019-11-17T12:00:00","42.6","ND","ND","ND","44.9","0.4","0.5","202.7","ND","ND","614","0"],
    [83562,"2019-11-17T13:00:00","41.1","ND","ND","ND","38","0","0.9","291.4","ND","ND","565","0"],
    [83563,"2019-11-17T14:00:00","17.3","ND","ND","ND","36.1","0","0.3","113.4","ND","ND","578","0"],
    [83564,"2019-11-17T15:00:00","10.9","ND","ND","ND","28","0","0.2","50.5","ND","ND","665","0"],
    [83565,"2019-11-17T16:00:00","2.8","ND","ND","ND","22.8","0","0.6","311.4","ND","ND","665","0"],
    [83566,"2019-11-17T17:00:00","1.2","ND","ND","ND","12.1","0","0.9","63.7","ND","ND","644","0"],
    [83567,"2019-11-17T18:00:00","14.4","ND","ND","ND","5.6","0.3","1.4","93.1","ND","ND","186","0"],
    [83568,"2019-11-17T19:00:00","28.2","ND","ND","ND","3.9","0","0.4","85.8","ND","ND","0","0"],
    [83569,"2019-11-17T20:00:00","25.2","ND","ND","ND","3.8","0.3","0.9","123.1","ND","ND","0","0"],
    [83570,"2019-11-17T21:00:00","5","ND","ND","ND","3.7","0","0.5","109.9","ND","ND","0","0.1"],
    [83571,"2019-11-17T22:00:00","13","ND","ND","ND","4.3","0","0.4","179.5","ND","ND","0","0"],
    [83572,"2019-11-17T23:00:00","15.5","ND","ND","ND","4.1","0","0.2","40.1","ND","ND","0","0"],
    [83573,"2019-11-18T00:00:00","10.7","ND","ND","ND","3.6","0","0.1","248.2","ND","ND","0","0"],
    [83574,"2019-11-18T01:00:00","11.8","ND","ND","ND","3.7","0","0.2","43.8","ND","ND","0","0"],
    [83575,"2019-11-18T02:00:00","15.7","ND","ND","ND","4.1","2.6","0.7","354.5","ND","ND","0","0"],
    [83576,"2019-11-18T03:00:00","13.5","ND","ND","ND","3.8","2.2","0.2","95.5","ND","ND","0","0"],
    [83577,"2019-11-18T04:00:00","14.6","ND","ND","ND","3.6","0.5","0.3","349","ND","ND","0","0"],
    [83578,"2019-11-18T05:00:00","37.7","ND","ND","ND","3.8","1.3","0.4","338.8","ND","ND","0","0"],
    [83579,"2019-11-18T06:00:00","44.5","ND","ND","ND","3.7","0.3","0.3","12.1","ND","ND","0","0"],
    [83580,"2019-11-18T07:00:00","35.1","ND","ND","ND","3.8","1.9","0.2","45.7","ND","ND","0","0"],
    [83581,"2019-11-18T08:00:00","45.8","ND","ND","ND","3.8","1","0.4","129.4","ND","ND","43","0"],
    [83582,"2019-11-18T09:00:00","44.5","ND","ND","ND","5.1","0.2","0.9","112.3","ND","ND","255","0"],
    [83583,"2019-11-18T10:00:00","28.8","ND","ND","ND","17.2","0","0.7","99.6","ND","ND","634","0"],
    [83584,"2019-11-18T11:00:00","20.1","ND","ND","ND","33.2","0","0.5","139.4","ND","ND","664","0"],
    [83585,"2019-11-18T12:00:00","6.6","ND","ND","ND","65.8","0","0.5","111.2","ND","ND","665","0"],
    [83586,"2019-11-18T13:00:00","2","ND","ND","ND","64.9","0","0.8","77.4","ND","ND","659","0"],
    [83587,"2019-11-18T14:00:00","34.7","ND","ND","ND","76","0","1.1","285.5","ND","ND","575","0"],
    [83588,"2019-11-18T15:00:00","45.5","ND","ND","ND","44.3","0","1.4","258.4","ND","ND","654","0"],
    [83589,"2019-11-18T16:00:00","9.3","ND","ND","ND","18.1","0","1.9","248.5","ND","ND","658","0"],
    [83590,"2019-11-18T17:00:00","8.2","ND","ND","ND","17.8","0","1.2","247.1","ND","ND","663","0"],
    [83591,"2019-11-18T18:00:00","ND","ND","ND","ND","13.5","0","0.5","125.5","ND","ND","0","0"],
    [83592,"2019-11-18T19:00:00","ND","ND","ND","ND","11.2","0","1","123.1","ND","ND","0","0"],
    [83593,"2019-11-18T20:00:00","14.6","ND","ND","ND","9.7","0","0.8","145.6","ND","ND","0","0"],
    [83594,"2019-11-18T21:00:00","35.6","ND","ND","ND","4.6","0.5","0.6","292.5","ND","ND","0","0"],
    [83595,"2019-11-18T22:00:00","38.5","ND","ND","ND","5","2.3","0.9","315.6","ND","ND","0","0"],
    [83596,"2019-11-18T23:00:00","64.2","ND","ND","ND","5.3","2.5","1","354","ND","ND","0","0"],
    [83597,"2019-11-19T00:00:00","69.4","ND","ND","ND","7.5","2.8","0.8","354.1","ND","ND","0","0"],
    [83598,"2019-11-19T01:00:00","43.8","ND","ND","ND","5.7","2","0","285.3","ND","ND","0","0"],
    [83599,"2019-11-19T02:00:00","21.5","ND","ND","ND","5.1","1.2","0.2","339.2","ND","ND","0","0"],
    [83600,"2019-11-19T03:00:00","24.2","ND","ND","ND","3.8","4.1","0.2","48.1","ND","ND","0","0"],
    [83601,"2019-11-19T04:00:00","32","ND","ND","ND","3.8","2","0.1","189.5","ND","ND","0","0"],
    [83602,"2019-11-19T05:00:00","23.5","ND","ND","ND","4","0.3","0.3","10.1","ND","ND","0","0"],
    [83603,"2019-11-19T06:00:00","71.7","ND","ND","ND","3.9","5.2","0.7","15.5","ND","ND","0","0"],
    [83604,"2019-11-19T07:00:00","61.4","ND","ND","ND","4.5","5.4","0.2","106","ND","ND","0","0"],
    [83605,"2019-11-19T08:00:00","95.5","ND","ND","ND","5.2","4.6","1","3.5","ND","ND","42","0"],
    [83606,"2019-11-19T09:00:00","80.9","ND","ND","ND","9.7","1.8","0.9","15.5","ND","ND","385","0"],
    [83607,"2019-11-19T10:00:00","48.4","ND","ND","ND","17.4","0","0.9","21.8","ND","ND","664","0"],
    [83608,"2019-11-19T11:00:00","27.9","ND","ND","ND","27.6","0","1.1","43.6","ND","ND","664","0"],
    [83609,"2019-11-19T12:00:00","6.9","ND","ND","ND","33.8","0","0.2","353","ND","ND","665","0"],
    [83610,"2019-11-19T13:00:00","32.1","ND","ND","ND","44","0","0.3","49.7","ND","ND","661","0"],
    [83611,"2019-11-19T14:00:00","34","ND","ND","ND","58.7","0","0.7","132.1","ND","ND","656","0"],
    [83612,"2019-11-19T15:00:00","36","ND","ND","ND","54.9","0","0.7","223.1","ND","ND","664","0"],
    [83613,"2019-11-19T16:00:00","12","ND","ND","ND","29.3","0","0.6","214.8","ND","ND","453","0"],
    [83614,"2019-11-19T17:00:00","3.5","ND","ND","ND","20","0","1.5","251.3","ND","ND","593","0"],
    [83615,"2019-11-19T18:00:00","ND","ND","ND","ND","15.4","0","0.3","227.1","ND","ND","527","0"],
    [83616,"2019-11-19T19:00:00","ND","ND","ND","ND","5.7","0","0.5","69.9","ND","ND","0","0"],
    [83617,"2019-11-19T20:00:00","49.8","ND","ND","ND","15.3","0","0.9","24.9","ND","ND","0","0"],
    [83618,"2019-11-19T21:00:00","63.1","ND","ND","ND","4.8","0.7","0.7","95.4","ND","ND","0","0"],
    [83619,"2019-11-19T22:00:00","37.8","ND","ND","ND","3.7","0.3","0.6","113.1","ND","ND","0","0.8"],
    [83620,"2019-11-19T23:00:00","13.9","ND","ND","ND","4.4","0","0.5","91.2","ND","ND","0","0.5"],
    [83621,"2019-11-20T00:00:00","13.6","ND","ND","ND","6.4","0.8","1","144","ND","ND","0","0"],
    [83622,"2019-11-20T01:00:00","11.7","ND","ND","ND","9.4","0","0.8","135.8","ND","ND","0","0"],
    [83623,"2019-11-20T02:00:00","31.6","ND","ND","ND","10.5","0.3","0.4","23.5","ND","ND","0","0"],
    [83624,"2019-11-20T03:00:00","36.8","ND","ND","ND","3.8","2.1","0.7","359.7","ND","ND","0","0"],
    [83625,"2019-11-20T04:00:00","42.9","ND","ND","ND","4.3","1.4","0.4","349.3","ND","ND","0","0"],
    [83626,"2019-11-20T05:00:00","27.1","ND","ND","ND","3.9","2.5","0.1","86.6","ND","ND","0","0"],
    [83627,"2019-11-20T06:00:00","34.9","ND","ND","ND","3.8","2.8","0.4","347.6","ND","ND","0","0"],
    [83628,"2019-11-20T07:00:00","45.7","ND","ND","ND","4","2.2","0.5","341.2","ND","ND","0","0"],
    [83629,"2019-11-20T08:00:00","70.6","ND","ND","ND","5.2","2","0.5","16.5","ND","ND","93","0"],
    [83630,"2019-11-20T09:00:00","82.8","ND","ND","ND","7.6","0.9","0.6","23.6","ND","ND","295","0"],
    [83631,"2019-11-20T10:00:00","62.3","ND","ND","ND","16.3","0.5","0.3","149.8","ND","ND","552","0.8"],
    [83632,"2019-11-20T11:00:00","59.5","ND","ND","ND","45","0.2","1.6","108.8","ND","ND","660","0"],
    [83633,"2019-11-20T12:00:00","24.5","ND","ND","ND","64","0","1.2","92.6","ND","ND","665","0"],
    [83634,"2019-11-20T13:00:00","40.9","ND","ND","ND","80.5","0","0.7","57.6","ND","ND","665","0"],
    [83635,"2019-11-20T14:00:00","35.3","ND","ND","ND","97.3","0","0.6","0.4","ND","ND","664","0"],
    [83636,"2019-11-20T15:00:00","33.3","ND","ND","ND","78.9","0","1","298","ND","ND","662","0"],
    [83637,"2019-11-20T16:00:00","23.1","ND","ND","ND","31.2","0","0.6","280.4","ND","ND","477","0"],
    [83638,"2019-11-20T17:00:00","20.5","ND","ND","ND","22.1","0","1","290.5","ND","ND","601","0"],
    [83639,"2019-11-20T18:00:00","8","ND","ND","ND","15.9","ND","0.3","152.2","ND","ND","501","0"],
    [83640,"2019-11-20T19:00:00","15.2","ND","ND","ND","7.5","0","0.3","117.4","ND","ND","0","0"],
    [83641,"2019-11-20T20:00:00","46.9","ND","ND","ND","5.8","0","0.2","342.7","ND","ND","0","0"],
    [83642,"2019-11-20T21:00:00","68.3","ND","ND","ND","4.1","2.8","0.9","91.9","ND","ND","0","0"],
    [83643,"2019-11-20T22:00:00","44.8","ND","ND","ND","3.6","2","0.1","94.3","ND","ND","0","0"],
    [83644,"2019-11-20T23:00:00","31.3","ND","ND","ND","3.6","1","0.4","320.4","ND","ND","0","0"],
    [83645,"2019-11-21T00:00:00","38.3","ND","ND","ND","3.8","1.6","0.1","50.6","ND","ND","0","0"],
    [83646,"2019-11-21T01:00:00","41.3","ND","ND","ND","3.6","1.2","0.2","284.2","ND","ND","0","0"],
    [83647,"2019-11-21T02:00:00","36.1","ND","ND","ND","4.1","2.5","0.4","333.8","ND","ND","0","0"],
    [83648,"2019-11-21T03:00:00","52","ND","ND","ND","3.8","2","0.3","65.3","ND","ND","0","0"],
    [83649,"2019-11-21T04:00:00","45.3","ND","ND","ND","3.9","0.8","0.2","84.8","ND","ND","0","0"],
    [83650,"2019-11-21T05:00:00","33","ND","ND","ND","3.8","2.1","0.1","288.9","ND","ND","0","0"],
    [83651,"2019-11-21T06:00:00","29.8","ND","ND","ND","3.8","1.7","0.4","28.4","ND","ND","0","0"],
    [83652,"2019-11-21T07:00:00","53.5","ND","ND","ND","4","1.1","0.2","82.6","ND","ND","0","0"],
    [83653,"2019-11-21T08:00:00","52","ND","ND","ND","6.1","0.5","0.1","147","ND","ND","64","0"],
    [83654,"2019-11-21T09:00:00","36.7","ND","ND","ND","14.3","0","0.6","116.2","ND","ND","293","0"],
    [83655,"2019-11-21T10:00:00","39.7","ND","ND","ND","26.1","0","0.4","171.4","ND","ND","536","0"],
    [83656,"2019-11-21T11:00:00","23.3","ND","ND","ND","43.8","0","0.6","99.2","ND","ND","664","0"],
    [83657,"2019-11-21T12:00:00","17.5","ND","ND","ND","65.7","0","0.7","140.3","ND","ND","664","0.8"],
    [83658,"2019-11-21T13:00:00","24.5","ND","ND","ND","73.1","0","0.3","354.8","ND","ND","665","0.6"],
    [83659,"2019-11-21T14:00:00","30.3","ND","ND","ND","41.5","0","0.5","324.5","ND","ND","665","0"],
    [83660,"2019-11-21T15:00:00","9.8","ND","ND","ND","28.3","0","2.4","247.5","ND","ND","641","0"],
    [83661,"2019-11-21T16:00:00","ND","ND","ND","ND","26.1","0","2.2","243.3","ND","ND","665","0"],
    [83662,"2019-11-21T17:00:00","2","ND","ND","ND","25.3","0","2","248.7","ND","ND","647","0"],
    [83663,"2019-11-21T18:00:00","0.2","ND","ND","ND","25","0","0.6","295.7","ND","ND","415","0"],
    [83664,"2019-11-21T19:00:00","23.5","ND","ND","ND","21.4","0","0.5","28.1","ND","ND","0","0"],
    [83665,"2019-11-21T20:00:00","34.3","ND","ND","ND","21.9","0","1","288.5","ND","ND","0","0"],
    [83666,"2019-11-21T21:00:00","18.3","ND","ND","ND","19.2","0.5","0.8","355.5","ND","ND","0","0"],
    [83667,"2019-11-21T22:00:00","25.3","ND","ND","ND","18.3","0.3","1","237","ND","ND","0","0"],
    [83668,"2019-11-21T23:00:00","13.4","ND","ND","ND","33.6","0","1.6","133.6","ND","ND","0","0"],
    [83669,"2019-11-22T00:00:00","ND","ND","ND","ND","30.1","0","0.3","242.8","ND","ND","0","0"],
    [83670,"2019-11-22T01:00:00","18.1","ND","ND","ND","15.3","0","0.5","2.2","ND","ND","0","0"],
    [83671,"2019-11-22T02:00:00","28","ND","ND","ND","6.2","4.8","0.8","11.6","ND","ND","0","0"],
    [83672,"2019-11-22T03:00:00","25","ND","ND","ND","12","3.6","1","11.7","ND","ND","0","0"],
    [83673,"2019-11-22T04:00:00","23.7","ND","ND","ND","15.7","1.1","0.7","13.6","ND","ND","0","0"],
    [83674,"2019-11-22T05:00:00","23.3","ND","ND","ND","11.9","2.1","0.1","85.9","ND","ND","0","3.3"],
    [83675,"2019-11-22T06:00:00","15.7","ND","ND","ND","8.7","2.1","0.7","78.7","ND","ND","0","6.8"],
    [83676,"2019-11-22T07:00:00","20.3","ND","ND","ND","7.1","0.9","0.7","85.4","ND","ND","0","0.5"],
    [83677,"2019-11-22T08:00:00","21.5","ND","ND","ND","9","1.7","0.7","26.8","ND","ND","34","0.1"],
    [83678,"2019-11-22T09:00:00","23.8","ND","ND","ND","8.6","1.7","0.7","346.4","ND","ND","217","0"],
    [83679,"2019-11-22T10:00:00","43.5","ND","ND","ND","8","1.3","0.5","271.9","ND","ND","317","0"],
    [83680,"2019-11-22T11:00:00","24.7","ND","ND","ND","10.8","0","0.5","174.7","ND","ND","292","0"],
    [83681,"2019-11-22T12:00:00","13.7","ND","ND","ND","15.1","0.2","0.6","116.7","ND","ND","503","0"],
    [83682,"2019-11-22T13:00:00","26.4","ND","ND","ND","16.6","0","0.1","59.4","ND","ND","660","0"],
    [83683,"2019-11-22T14:00:00","21.3","ND","ND","ND","25.8","0","0.4","193.2","ND","ND","664","0"],
    [83684,"2019-11-22T15:00:00","0.2","ND","ND","ND","33.2","0","0.6","316.4","ND","ND","664","0"],
    [83685,"2019-11-22T16:00:00","ND","ND","ND","ND","46.2","0","0.8","270.8","ND","ND","665","0"],
    [83686,"2019-11-22T17:00:00","ND","ND","ND","ND","44.8","0","1","278.9","ND","ND","434","0"],
    [83687,"2019-11-22T18:00:00","22.3","ND","ND","ND","11.4","0","0.7","283.5","ND","ND","0","0"],
    [83688,"2019-11-22T19:00:00","65.5","ND","ND","ND","5.2","0","0.2","320","ND","ND","0","0"],
    [83689,"2019-11-22T20:00:00","49.1","ND","ND","ND","4","0","0.4","146.8","ND","ND","0","0"],
    [83690,"2019-11-22T21:00:00","31.9","ND","ND","ND","7.3","0","0.3","272.2","ND","ND","0","0"],
    [83691,"2019-11-22T22:00:00","25.7","ND","ND","ND","4.2","0.5","0.4","342.5","ND","ND","0","0"],
    [83692,"2019-11-22T23:00:00","34.3","ND","ND","ND","3.7","0.1","0.2","141.6","ND","ND","0","0"],
    [83693,"2019-11-23T00:00:00","34.9","ND","ND","ND","3.7","0","0.3","327.1","ND","ND","0","0"],
    [83694,"2019-11-23T01:00:00","33","ND","ND","ND","3.7","0.1","0.1","91","ND","ND","0","0"],
    [83695,"2019-11-23T02:00:00","29.3","ND","ND","ND","3.8","1.4","0.5","3.7","ND","ND","0","0"],
    [83696,"2019-11-23T03:00:00","41.9","ND","ND","ND","4","0.9","0.2","275.7","ND","ND","0","0"],
    [83697,"2019-11-23T04:00:00","32.8","ND","ND","ND","3.7","0.6","0","77.8","ND","ND","0","0"],
    [83698,"2019-11-23T05:00:00","28.7","ND","ND","ND","3.6","0.2","0.1","307","ND","ND","0","0"],
    [83699,"2019-11-23T06:00:00","27.5","ND","ND","ND","3.9","1.6","0.3","7.5","ND","ND","0","0"],
    [83700,"2019-11-23T07:00:00","34.5","ND","ND","ND","3.5","0","0.3","235.1","ND","ND","0","0"],
    [83701,"2019-11-23T08:00:00","30.7","ND","ND","ND","3.7","0","0.3","107.3","ND","ND","41","0"],
    [83702,"2019-11-23T09:00:00","27.1","ND","ND","ND","5.5","0.4","0.8","128.8","ND","ND","134","0"],
    [83703,"2019-11-23T10:00:00","36.6","ND","ND","ND","14.7","0","0.4","131","ND","ND","556","0"],
    [83704,"2019-11-23T11:00:00","37.3","ND","ND","ND","29.4","0","0.8","65.4","ND","ND","663","0"],
    [83705,"2019-11-23T12:00:00","27.7","ND","ND","ND","45.5","0.1","0.3","27.2","ND","ND","663","0"],
    [83706,"2019-11-23T13:00:00","38.6","ND","ND","ND","54.8","0","0.3","2","ND","ND","664","0"],
    [83707,"2019-11-23T14:00:00","35.6","ND","ND","ND","67.2","0","0.8","264.9","ND","ND","634","0"],
    [83708,"2019-11-23T15:00:00","32.4","ND","ND","ND","57.4","0","1","332.1","ND","ND","665","0"],
    [83709,"2019-11-23T16:00:00","14.3","ND","ND","ND","37.6","0","0.3","156.4","ND","ND","514","0"],
    [83710,"2019-11-23T17:00:00","22.6","ND","ND","ND","22.9","0","0.3","6.6","ND","ND","440","0"],
    [83711,"2019-11-23T18:00:00","ND","ND","ND","ND","16","0","0.7","243.3","ND","ND","530","0"],
    [83712,"2019-11-23T19:00:00","ND","ND","ND","ND","5.4","0","0.2","49","ND","ND","0","0"],
    [83713,"2019-11-23T20:00:00","55.3","ND","ND","ND","4","0","0.3","311.2","ND","ND","0","0"],
    [83714,"2019-11-23T21:00:00","83.3","ND","ND","ND","4.9","3.9","0.4","123.3","ND","ND","0","0"],
    [83715,"2019-11-23T22:00:00","60.6","ND","ND","ND","3.9","8.9","0.5","31.2","ND","ND","0","0"],
    [83716,"2019-11-23T23:00:00","52","ND","ND","ND","4","5.2","0.2","278","ND","ND","0","0"],
    [83717,"2019-11-24T00:00:00","38.6","ND","ND","ND","3.6","1.8","0.2","305.4","ND","ND","0","0"],
    [83718,"2019-11-24T01:00:00","43.9","ND","ND","ND","3.8","0.7","0.3","344","ND","ND","0","0"],
    [83719,"2019-11-24T02:00:00","64.6","ND","ND","ND","3.8","1.7","0.4","317.8","ND","ND","0","0"],
    [83720,"2019-11-24T03:00:00","41.2","ND","ND","ND","3.9","4.3","0.2","79.1","ND","ND","0","0"],
    [83721,"2019-11-24T04:00:00","44.9","ND","ND","ND","3.7","2.7","0.2","336.4","ND","ND","0","0"],
    [83722,"2019-11-24T05:00:00","65.8","ND","ND","ND","3.9","3.3","0.2","303.1","ND","ND","0","0"],
    [83723,"2019-11-24T06:00:00","48.4","ND","ND","ND","3.8","1.5","0.1","307.1","ND","ND","0","9.2"],
    [83724,"2019-11-24T07:00:00","44.4","ND","ND","ND","4.1","0.5","0.1","169.1","ND","ND","0","0"],
    [83725,"2019-11-24T08:00:00","35.3","ND","ND","ND","5.5","0.1","0.6","119.8","ND","ND","113","0"],
    [83726,"2019-11-24T09:00:00","27.2","ND","ND","ND","16.6","0","1","131.4","ND","ND","390","0"],
    [83727,"2019-11-24T10:00:00","20.7","ND","ND","ND","27.1","0","0.4","55.8","ND","ND","594","0"],
    [83728,"2019-11-24T11:00:00","32.5","ND","ND","ND","44.4","0","0.7","43.8","ND","ND","568","0"],
    [83729,"2019-11-24T12:00:00","36.5","ND","ND","ND","61","0","0.9","326.1","ND","ND","640","0"],
    [83730,"2019-11-24T13:00:00","30.6","ND","ND","ND","52.2","0","0.3","1.1","ND","ND","614","0"],
    [83731,"2019-11-24T14:00:00","32.9","ND","ND","ND","55.4","0","0.8","31.1","ND","ND","663","0"],
    [83732,"2019-11-24T15:00:00","22.2","ND","ND","ND","53.4","0.3","0.9","272.9","ND","ND","623","0"],
    [83733,"2019-11-24T16:00:00","17.6","ND","ND","ND","41","0","0.7","270.4","ND","ND","418","0"],
    [83734,"2019-11-24T17:00:00","16.8","ND","ND","ND","26.7","0","1.7","245.9","ND","ND","457","0"],
    [83735,"2019-11-24T18:00:00","5.8","ND","ND","ND","24","0","0.1","58.7","ND","ND","478","0"],
    [83736,"2019-11-24T19:00:00","18.3","ND","ND","ND","6.9","0","0.2","27.9","ND","ND","0","0"],
    [83737,"2019-11-24T20:00:00","34.1","ND","ND","ND","4","0","0.3","48.7","ND","ND","0","0"],
    [83738,"2019-11-24T21:00:00","57.1","ND","ND","ND","4.1","1.8","0.5","85","ND","ND","0","0"],
    [83739,"2019-11-24T22:00:00","43.8","ND","ND","ND","4.2","2.5","0.2","69.4","ND","ND","0","0"],
    [83740,"2019-11-24T23:00:00","44.1","ND","ND","ND","3.5","1.3","0.3","343.8","ND","ND","0","0"],
    [83741,"2019-11-25T00:00:00","39.8","ND","ND","ND","3.7","0.1","0.1","286.9","ND","ND","0","0"],
    [83742,"2019-11-25T01:00:00","33.5","ND","ND","ND","3.7","0","0.2","358.7","ND","ND","0","0"],
    [83743,"2019-11-25T02:00:00","41.6","ND","ND","ND","3.6","1.2","0.1","58.8","ND","ND","0","0"],
    [83744,"2019-11-25T03:00:00","42","ND","ND","ND","3.7","2.7","0.5","119","ND","ND","0","ND"],
    [83745,"2019-11-25T04:00:00","35.6","ND","ND","ND","4","2.5","0.3","34.1","ND","ND","0","0"],
    [83746,"2019-11-25T05:00:00","46.5","ND","ND","ND","3.7","2.6","0.2","316.1","ND","ND","0","0"],
    [83747,"2019-11-25T06:00:00","52.8","ND","ND","ND","3.7","2.3","0.1","1.3","ND","ND","0","ND"],
    [83748,"2019-11-25T07:00:00","64","ND","ND","ND","3.8","0.3","0.3","236","ND","ND","0","ND"],
    [83749,"2019-11-25T08:00:00","64.7","ND","ND","ND","4.9","0.6","0.6","123.8","ND","ND","83","8.6"],
    [83750,"2019-11-25T09:00:00","54.6","ND","ND","ND","12.3","0","0.9","113.8","ND","ND","348","ND"],
    [83751,"2019-11-25T10:00:00","36.5","ND","ND","ND","25.1","0.4","1.3","134.6","ND","ND","595","ND"],
    [83752,"2019-11-25T11:00:00","43.5","ND","ND","ND","47.8","0","1.7","98.2","ND","ND","664","0"],
    [83753,"2019-11-25T12:00:00","39.6","ND","ND","ND","67.6","0","0.8","62.9","ND","ND","640","0"],
    [83754,"2019-11-25T13:00:00","43.7","ND","ND","ND","94","0","0.9","93.2","ND","ND","665","ND"],
    [83755,"2019-11-25T14:00:00","42.1","ND","ND","ND","99.9","0","1.2","278.1","ND","ND","665","ND"],
    [83756,"2019-11-25T15:00:00","21.1","ND","ND","ND","55.5","0","1.1","268","ND","ND","659","ND"],
    [83757,"2019-11-25T16:00:00","15.7","ND","ND","ND","33.5","0","2.8","256","ND","ND","623","ND"],
    [83758,"2019-11-25T17:00:00","13.1","ND","ND","ND","34.6","0","1.8","243.2","ND","ND","665","ND"],
    [83759,"2019-11-25T18:00:00","15.8","ND","ND","ND","28.8","0","0","215.9","ND","ND","440","0"],
    [83760,"2019-11-25T19:00:00","27.5","ND","ND","ND","6.6","0","0.4","40.6","ND","ND","0","0"],
    [83761,"2019-11-25T20:00:00","46.4","ND","ND","ND","4.7","0","0.5","48.1","ND","ND","0","0"],
    [83762,"2019-11-25T21:00:00","97.8","ND","ND","ND","5.4","0.9","0.6","117.3","ND","ND","0","ND"],
    [83763,"2019-11-25T22:00:00","102.2","ND","ND","ND","3.8","1.4","0.5","35.1","ND","ND","0","ND"],
    [83764,"2019-11-25T23:00:00","45.4","ND","ND","ND","3.4","4.4","0.3","28.3","ND","ND","0","ND"],
    [83765,"2019-11-26T00:00:00","31.7","ND","ND","ND","3.6","1.9","0.4","87.9","ND","ND","0","0"],
    [83766,"2019-11-26T01:00:00","9.7","ND","ND","ND","3.7","2.2","0.3","76.8","ND","ND","0","0"],
    [83767,"2019-11-26T02:00:00","35","ND","ND","ND","3.7","3.7","0.5","44.4","ND","ND","0","0"],
    [83768,"2019-11-26T03:00:00","19.4","ND","ND","ND","3.5","2.1","0.4","34.7","ND","ND","0","0"],
    [83769,"2019-11-26T04:00:00","42.9","ND","ND","ND","3.6","1.5","0.2","311.7","ND","ND","0","ND"],
    [83770,"2019-11-26T05:00:00","58.6","ND","ND","ND","3.8","1.7","0.2","334.7","ND","ND","0","0"],
    [83771,"2019-11-26T06:00:00","88.4","ND","ND","ND","3.7","1.3","0.2","200.5","ND","ND","0","0"],
    [83772,"2019-11-26T07:00:00","76.6","ND","ND","ND","3.9","1.6","0.1","343.3","ND","ND","0","0"],
    [83773,"2019-11-26T08:00:00","43.4","ND","ND","ND","4.6","2.1","0.5","2.3","ND","ND","84","0"],
    [83774,"2019-11-26T09:00:00","64.7","ND","ND","ND","8.6","2.1","0.7","84","ND","ND","274","0"],
    [83775,"2019-11-26T10:00:00","73","ND","ND","ND","24.4","1.8","0.9","96.3","ND","ND","574","ND"],
    [83776,"2019-11-26T11:00:00","47.2","ND","ND","ND","41.5","0.3","1.1","84","ND","ND","658","ND"],
    [83777,"2019-11-26T12:00:00","32","ND","ND","ND","51.9","0.2","0.7","33.7","ND","ND","650","0"],
    [83778,"2019-11-26T13:00:00","68.6","ND","ND","ND","76.7","0.4","0.8","34.6","ND","ND","665","ND"],
    [83779,"2019-11-26T14:00:00","53.9","ND","ND","ND","88","0","0.8","71.3","ND","ND","665","0"],
    [83780,"2019-11-26T15:00:00","52.6","ND","ND","ND","77.6","0.3","0.5","70.3","ND","ND","660","ND"],
    [83781,"2019-11-26T16:00:00","42.2","ND","ND","ND","42.6","0","1.1","231.8","ND","ND","634","0"],
    [83782,"2019-11-26T17:00:00","18.5","ND","ND","ND","27.1","0","0.8","227.9","ND","ND","474","0"],
    [83783,"2019-11-26T18:00:00","15.6","ND","ND","ND","20","0","0.9","222.6","ND","ND","388","ND"],
    [83784,"2019-11-26T19:00:00","22.4","ND","ND","ND","13.7","0","0.6","223.9","ND","ND","0","ND"],
    [83785,"2019-11-26T20:00:00","53.9","ND","ND","ND","4.7","0","0.6","56.3","ND","ND","0","0"],
    [83786,"2019-11-26T21:00:00","62.2","ND","ND","ND","4.1","3.2","0.3","32.3","ND","ND","0","ND"],
    [83787,"2019-11-26T22:00:00","45.6","ND","ND","ND","3.9","3.2","0.4","109.9","ND","ND","0","14.2"],
    [83788,"2019-11-26T23:00:00","51.4","ND","ND","ND","3.7","3.9","0.4","117.2","ND","ND","0","ND"],
    [83789,"2019-11-27T00:00:00","54.3","ND","ND","ND","3.7","1.8","0","317.8","ND","ND","0","ND"],
    [83790,"2019-11-27T01:00:00","ND","ND","ND","ND","3.5","0.9","0.1","29.8","ND","ND","0","0"],
    [83791,"2019-11-27T02:00:00","ND","ND","ND","ND","3.9","2.2","0.3","107.5","ND","ND","0","0"],
    [83792,"2019-11-27T03:00:00","ND","ND","ND","ND","4.6","2.5","0.5","125.2","ND","ND","0","0"],
    [83793,"2019-11-27T04:00:00","ND","ND","ND","ND","4.7","1.7","0.7","117.6","ND","ND","0","0"],
    [83794,"2019-11-27T05:00:00","ND","ND","ND","ND","3.7","1.3","0.3","274.4","ND","ND","0","0"],
    [83795,"2019-11-27T06:00:00","ND","ND","ND","ND","3.7","0.6","0.1","108.1","ND","ND","0","0"],
    [83796,"2019-11-27T07:00:00","ND","ND","ND","ND","4","0.8","0.3","343.6","ND","ND","0","ND"],
    [83797,"2019-11-27T08:00:00","ND","ND","ND","ND","5.5","6.1","0.4","18","ND","ND","78","0"],
    [83798,"2019-11-27T09:00:00","ND","ND","ND","ND","8.5","2.3","0.3","63","ND","ND","256","0"],
    [83799,"2019-11-27T10:00:00","ND","ND","ND","ND","13","1.4","0.4","44.2","ND","ND","394","0"],
    [83800,"2019-11-27T11:00:00","ND","ND","ND","ND","23.9","0.7","0.9","79.1","ND","ND","579","0"],
    [83801,"2019-11-27T12:00:00","ND","ND","ND","ND","32.4","0.3","0.9","34.5","ND","ND","664","0"],
    [83802,"2019-11-27T13:00:00","ND","ND","ND","ND","39.3","0","0.5","62.5","ND","ND","626","0.8"],
    [83803,"2019-11-27T14:00:00","ND","ND","ND","ND","57.6","0","0.8","314.5","ND","ND","663","0"],
    [83804,"2019-11-27T15:00:00","ND","ND","ND","ND","66.7","0","0.7","36.5","ND","ND","665","0"],
    [83805,"2019-11-27T16:00:00","ND","ND","ND","ND","50.5","0.2","0.8","34.6","ND","ND","486","0"],
    [83806,"2019-11-27T17:00:00","ND","ND","ND","ND","44.1","0","0.6","33.5","ND","ND","441","0"],
    [83807,"2019-11-27T18:00:00","ND","ND","ND","ND","19","0","0.2","114.6","ND","ND","270","0"],
    [83808,"2019-11-27T19:00:00","ND","ND","ND","ND","4.7","0","0.1","310.7","ND","ND","0","0"],
    [83809,"2019-11-27T20:00:00","ND","ND","ND","ND","6.4","0","0.4","248.2","ND","ND","0","0"],
    [83810,"2019-11-27T21:00:00","ND","ND","ND","ND","4.2","0","0.3","80.4","ND","ND","0","0"],
    [83811,"2019-11-27T22:00:00","ND","ND","ND","ND","4.2","3.7","0.2","64.9","ND","ND","0","0"],
    [83812,"2019-11-27T23:00:00","ND","ND","ND","ND","3.6","2.7","0.1","283.9","ND","ND","0","0"],
    [83813,"2019-11-28T00:00:00","ND","ND","ND","ND","3.8","2","0.2","135.9","ND","ND","0","0"],
    [83814,"2019-11-28T01:00:00","ND","ND","ND","ND","3.8","1.6","0.3","19.5","ND","ND","0","0"],
    [83815,"2019-11-28T02:00:00","ND","ND","ND","ND","3.9","2.9","0.4","4.3","ND","ND","0","0"],
    [83816,"2019-11-28T03:00:00","ND","ND","ND","ND","3.8","1.7","0.3","183","ND","ND","0","0"],
    [83817,"2019-11-28T04:00:00","ND","ND","ND","ND","3.8","1","0.2","176.5","ND","ND","0","0"],
    [83818,"2019-11-28T05:00:00","ND","ND","ND","ND","3.8","1.7","0.7","125.4","ND","ND","0","0"],
    [83819,"2019-11-28T06:00:00","ND","ND","ND","ND","3.7","2","0.4","356.3","ND","ND","0","0"],
    [83820,"2019-11-28T07:00:00","ND","ND","ND","ND","4.2","1","0.3","6.7","ND","ND","0","0"],
    [83821,"2019-11-28T08:00:00","ND","ND","ND","ND","5.3","2.4","0.5","40.4","ND","ND","91","0"],
    [83822,"2019-11-28T09:00:00","ND","ND","ND","ND","ND","0.3","0.6","274.9","ND","ND","455","0"],
    [83823,"2019-11-28T10:00:00","ND","ND","ND","ND","29.7","1","0.7","69.4","ND","ND","498","0"],
    [83824,"2019-11-28T11:00:00","ND","ND","ND","ND","ND","0","0.6","15.5","ND","ND","642","0"],
    [83825,"2019-11-28T12:00:00","ND","ND","ND","ND","71.3","0","0.6","40","ND","ND","664","0"],
    [83826,"2019-11-28T13:00:00","ND","ND","ND","ND","ND","0","0.5","317.7","ND","ND","651","0"],
    [83827,"2019-11-28T14:00:00","66.6","ND","ND","ND","31","0","1","267.9","ND","ND","664","0"],
    [83828,"2019-11-28T15:00:00","ND","ND","ND","ND","ND","0","2.1","225.6","ND","ND","363","0"],
    [83829,"2019-11-28T16:00:00","40.5","ND","ND","ND","17.4","0","1","239.2","ND","ND","434","ND"],
    [83830,"2019-11-28T17:00:00","ND","ND","ND","ND","ND","0","0.3","236.3","ND","ND","547","0"],
    [83831,"2019-11-28T18:00:00","1.9","ND","ND","ND","12.2","0","0.2","64","ND","ND","254","0.3"],
    [83832,"2019-11-28T19:00:00","ND","ND","ND","ND","ND","0","0.6","70.5","ND","ND","0","0"],
    [83833,"2019-11-28T20:00:00","20.9","ND","ND","ND","4.5","0","0.9","95.5","ND","ND","0","0"],
    [83834,"2019-11-28T21:00:00","ND","ND","ND","ND","ND","0.3","0.1","332.9","ND","ND","0","0"],
    [83835,"2019-11-28T22:00:00","53","ND","ND","ND","3.9","2.5","0.7","107.9","ND","ND","0","0"],
    [83836,"2019-11-28T23:00:00","ND","ND","ND","ND","ND","0","0.9","128.4","ND","ND","0","0"],
    [83837,"2019-11-29T00:00:00","24.4","ND","ND","ND","3.7","0.1","0.1","296.8","ND","ND","0","0"],
    [83838,"2019-11-29T01:00:00","ND","ND","ND","ND","ND","0.4","0.4","357","ND","ND","0","0"],
    [83839,"2019-11-29T02:00:00","34.9","ND","ND","ND","4","2","0.6","336.7","ND","ND","0","2.7"],
    [83840,"2019-11-29T03:00:00","ND","ND","ND","ND","ND","2.4","0.7","359","ND","ND","0","ND"],
    [83841,"2019-11-29T04:00:00","66.8","ND","ND","ND","3.9","2.7","0.5","330.2","ND","ND","0","ND"],
    [83842,"2019-11-29T05:00:00","ND","ND","ND","ND","ND","2.6","0.3","324.3","ND","ND","0","ND"],
    [83843,"2019-11-29T06:00:00","82.5","ND","ND","ND","3.8","1.6","0.1","111.4","ND","ND","0","ND"],
    [83844,"2019-11-29T07:00:00","ND","ND","ND","ND","ND","2.9","0.5","3.2","ND","ND","0","ND"],
    [83845,"2019-11-29T08:00:00","92.5","ND","ND","ND","5.3","4.5","0.4","356","ND","ND","91","ND"],
    [83846,"2019-11-29T09:00:00","ND","ND","ND","ND","ND","2.4","0.5","47.1","ND","ND","316","ND"],
    [83847,"2019-11-29T10:00:00","73.4","ND","ND","ND","16.4","2","0.5","73.1","ND","ND","587","ND"],
    [83848,"2019-11-29T11:00:00","ND","ND","ND","ND","ND","1","0.4","142.3","ND","ND","439","ND"],
    [83849,"2019-11-29T12:00:00","33.6","ND","ND","ND","57.7","0.4","0.4","84.7","ND","ND","640","ND"],
    [83850,"2019-11-29T13:00:00","ND","ND","ND","ND","ND","0.1","1","294.5","ND","ND","664","ND"],
    [83851,"2019-11-29T14:00:00","38.7","ND","ND","ND","21.3","0","0.6","285.8","ND","ND","593","ND"],
    [83852,"2019-11-29T15:00:00","ND","ND","ND","ND","ND","0","2","244.5","ND","ND","646","ND"],
    [83853,"2019-11-29T16:00:00","ND","ND","ND","ND","21.4","0","1.2","227.4","ND","ND","664","ND"],
    [83854,"2019-11-29T17:00:00","ND","ND","ND","ND","ND","0","1.4","257.1","ND","ND","581","ND"],
    [83855,"2019-11-29T18:00:00","ND","ND","ND","ND","12.3","0","0.9","55.8","ND","ND","242","ND"],
    [83856,"2019-11-29T19:00:00","ND","ND","ND","ND","ND","0","2.6","124.4","ND","ND","0","ND"],
    [83857,"2019-11-29T20:00:00","66.1","ND","ND","ND","4.3","0","1.7","142","ND","ND","0","ND"],
    [83858,"2019-11-29T21:00:00","ND","ND","ND","ND","4","0","1.4","137.9","ND","ND","0","ND"],
    [83859,"2019-11-29T22:00:00","ND","ND","ND","ND","3.7","0","0.3","136.9","ND","ND","0","ND"],
    [83860,"2019-11-29T23:00:00","ND","ND","ND","ND","3.6","0","0.2","43.3","ND","ND","0","ND"],
    [83861,"2019-11-30T00:00:00","ND","ND","ND","ND","3.6","1.6","0.4","352.2","ND","ND","0","ND"],
    [83862,"2019-11-30T01:00:00","ND","ND","ND","ND","3.7","1.9","0.6","9.2","ND","ND","0","0"],
    [83863,"2019-11-30T02:00:00","ND","ND","ND","ND","3.7","1.2","0.6","4.1","ND","ND","0","0"],
    [83864,"2019-11-30T03:00:00","ND","ND","ND","ND","3.7","1.6","0.5","10.2","ND","ND","0","0"],
    [83865,"2019-11-30T04:00:00","ND","ND","ND","ND","3.8","2.3","0.5","357.9","ND","ND","0","0"],
    [83866,"2019-11-30T05:00:00","ND","ND","ND","ND","3.7","2.6","0.4","352.9","ND","ND","0","0"],
    [83867,"2019-11-30T06:00:00","ND","ND","ND","ND","4","5.5","0.5","0.1","ND","ND","0","0"],
    [83868,"2019-11-30T07:00:00","ND","ND","ND","ND","4.1","9.9","0.4","329.6","ND","ND","0","0"],
    [83869,"2019-11-30T08:00:00","ND","ND","ND","ND","4.2","5.6","0.4","39.7","ND","ND","63","0"],
    [83870,"2019-11-30T09:00:00","ND","ND","ND","ND","5.2","7.6","0.9","15.1","ND","ND","152","0"],
    [83871,"2019-11-30T10:00:00","ND","ND","ND","ND","9","3.2","0.5","51.5","ND","ND","549","0.2"],
    [83872,"2019-11-30T11:00:00","ND","ND","ND","ND","14.7","2.4","0.5","190.4","ND","ND","653","0"],
    [83873,"2019-11-30T12:00:00","ND","ND","ND","ND","29.4","2.3","0.4","228.5","ND","ND","564","0"],
    [83874,"2019-11-30T13:00:00","ND","ND","ND","ND","62.9","1.8","0.5","82","ND","ND","664","0"],
    [83875,"2019-11-30T14:00:00","ND","ND","ND","ND","62.3","0.3","0.6","296.3","ND","ND","644","0"],
    [83876,"2019-11-30T15:00:00","ND","ND","ND","ND","54.5","0","0.2","270.3","ND","ND","638","0"],
    [83877,"2019-11-30T16:00:00","ND","ND","ND","ND","48.8","0.3","0.7","6.5","ND","ND","624","0"],
    [83878,"2019-11-30T17:00:00","ND","ND","ND","ND","ND","0","1.1","231.6","ND","ND","383","0"],
    [83879,"2019-11-30T18:00:00","22","ND","ND","ND","19.7","0","0.6","249.1","ND","ND","554","0"],
    [83880,"2019-11-30T19:00:00","ND","ND","ND","ND","ND","0.2","1","114.8","ND","ND","0","0"],
    [83881,"2019-11-30T20:00:00","29.4","ND","ND","ND","10.6","0.9","0.1","194.7","ND","ND","0","0.7"],
    [83882,"2019-11-30T21:00:00","ND","ND","ND","ND","ND","0.5","0.2","351.3","ND","ND","0","0.8"],
    [83883,"2019-11-30T22:00:00","58.1","ND","ND","ND","4","0.2","0.2","295.5","ND","ND","0","0"],
    [83884,"2019-11-30T23:00:00","ND","ND","ND","ND","ND","0.6","0.2","188","ND","ND","0","0"],
    [83885,"2019-12-01T00:00:00","33.2","ND","ND","ND","4","0.5","0.3","157.3","ND","ND","0","0"],
    [83886,"2019-12-01T01:00:00","ND","ND","ND","ND","ND","2.6","0.5","320.9","ND","ND","0","0"],
    [83887,"2019-12-01T02:00:00","35.4","ND","ND","ND","3.8","2.4","0.5","323.9","ND","ND","0","0"],
    [83888,"2019-12-01T03:00:00","ND","ND","ND","ND","ND","1.5","0.3","323.7","ND","ND","0","0"],
    [83889,"2019-12-01T04:00:00","41.7","ND","ND","ND","3.9","2.3","0.2","113.9","ND","ND","0","0"],
    [83890,"2019-12-01T05:00:00","ND","ND","ND","ND","ND","1.1","0.4","34.1","ND","ND","0","0"],
    [83891,"2019-12-01T06:00:00","17","ND","ND","ND","3.8","1.6","0.7","121.4","ND","ND","0","0"],
    [83892,"2019-12-01T07:00:00","ND","ND","ND","ND","ND","1.1","0.1","343","ND","ND","0","0"],
    [83893,"2019-12-01T08:00:00","50.1","ND","ND","ND","5.9","1.4","0.4","350.3","ND","ND","62","0"],
    [83894,"2019-12-01T09:00:00","ND","ND","ND","ND","ND","0.8","0.4","115.9","ND","ND","331","0.4"],
    [83895,"2019-12-01T10:00:00","24.6","ND","ND","ND","16.1","0.7","0.1","255.5","ND","ND","505","0"],
    [83896,"2019-12-01T11:00:00","ND","ND","ND","ND","ND","1","0.5","47","ND","ND","664","0"],
    [83897,"2019-12-01T12:00:00","25.3","ND","ND","ND","64.7","0","0.8","119.4","ND","ND","664","0"],
    [83898,"2019-12-01T13:00:00","ND","ND","ND","ND","ND","0","0.8","113.2","ND","ND","665","0.1"],
    [83899,"2019-12-01T14:00:00","28.7","ND","ND","ND","118.8","0","0.4","320.6","ND","ND","664","0"],
    [83900,"2019-12-01T15:00:00","ND","ND","ND","ND","ND","0","1","244.4","ND","ND","610","0"],
    [83901,"2019-12-01T16:00:00","18.4","ND","ND","ND","42.6","0","1.3","234.6","ND","ND","664","0"],
    [83902,"2019-12-01T17:00:00","ND","ND","ND","ND","ND","0","1","250.4","ND","ND","612","0"],
    [83903,"2019-12-01T18:00:00","0.4","ND","ND","ND","32.2","0","0.9","229.2","ND","ND","514","0"],
    [83904,"2019-12-01T19:00:00","ND","ND","ND","ND","ND","0","0.1","163.9","ND","ND","0","0.1"],
    [83905,"2019-12-01T20:00:00","5.6","ND","ND","ND","14.3","0","0.4","37.7","ND","ND","0","0"],
    [83906,"2019-12-01T21:00:00","ND","ND","ND","ND","ND","0.5","0.8","75.6","ND","ND","0","0"],
    [83907,"2019-12-01T22:00:00","24.1","ND","ND","ND","5.5","3","0.4","86.8","ND","ND","0","0"],
    [83908,"2019-12-01T23:00:00","ND","ND","ND","ND","ND","2.2","0.8","51.6","ND","ND","0","0"],
    [83909,"2019-12-02T00:00:00","45.9","ND","ND","ND","4","0.7","0.4","95.3","ND","ND","0","0"],
    [83910,"2019-12-02T01:00:00","ND","ND","ND","ND","ND","0.9","0.1","48","ND","ND","0","0"],
    [83911,"2019-12-02T02:00:00","6.3","ND","ND","ND","5.5","2.6","0.6","49.2","ND","ND","0","0"],
    [83912,"2019-12-02T03:00:00","ND","ND","ND","ND","ND","1.5","0.2","324.2","ND","ND","0","0"],
    [83913,"2019-12-02T04:00:00","37.4","ND","ND","ND","5.3","1.7","0.2","16.6","ND","ND","0","0"],
    [83914,"2019-12-02T05:00:00","ND","ND","ND","ND","ND","1.6","0.1","43.9","ND","ND","0","0"],
    [83915,"2019-12-02T06:00:00","51.4","ND","ND","ND","3.8","1.9","0.1","4.4","ND","ND","0","0"],
    [83916,"2019-12-02T07:00:00","ND","ND","ND","ND","ND","2.4","0.4","22.8","ND","ND","0","0"],
    [83917,"2019-12-02T08:00:00","64.3","ND","ND","ND","5.3","1","0.5","127.6","ND","ND","118","0"],
    [83918,"2019-12-02T09:00:00","ND","ND","ND","ND","ND","0","1.1","128","ND","ND","390","0"],
    [83919,"2019-12-02T10:00:00","33.8","ND","ND","ND","22.9","0","0.9","101.7","ND","ND","506","0"],
    [83920,"2019-12-02T11:00:00","ND","ND","ND","ND","ND","0","0.8","83.1","ND","ND","657","0"],
    [83921,"2019-12-02T12:00:00","18.2","ND","ND","ND","79.6","0.2","0.1","116","ND","ND","664","0"],
    [83922,"2019-12-02T13:00:00","ND","ND","ND","ND","ND","0","0.9","2.9","ND","ND","664","0"],
    [83923,"2019-12-02T14:00:00","44.6","ND","ND","ND","72","0","0.3","235.1","ND","ND","646","0"],
    [83924,"2019-12-02T15:00:00","ND","ND","ND","ND","ND","0","1.6","250.7","ND","ND","653","0"],
    [83925,"2019-12-02T16:00:00","10.4","ND","ND","ND","27.2","0","3.2","250.3","ND","ND","649","0"],
    [83926,"2019-12-02T17:00:00","ND","ND","ND","ND","ND","0","3","242.7","ND","ND","665","0"],
    [83927,"2019-12-02T18:00:00","16.2","ND","ND","ND","22.4","0","2","246.1","ND","ND","429","0"],
    [83928,"2019-12-02T19:00:00","ND","ND","ND","ND","ND","0","0.6","69","ND","ND","0","0.7"],
    [83929,"2019-12-02T20:00:00","46.2","ND","ND","ND","6.3","0","0.7","92.8","ND","ND","0","0.3"],
    [83930,"2019-12-02T21:00:00","ND","ND","ND","ND","ND","0.4","0.9","222.3","ND","ND","0","0"],
    [83931,"2019-12-02T22:00:00","24.5","ND","ND","ND","9.2","0","0.2","169.8","ND","ND","0","0"],
    [83932,"2019-12-02T23:00:00","ND","ND","ND","ND","6.8","ND","ND","ND","ND","ND","0","0"],
    [83933,"2019-12-03T00:00:00","ND","ND","ND","ND","ND","ND","ND","ND","ND","ND","ND","0"],
    [83934,"2019-12-03T01:00:00","ND","ND","ND","ND","ND","3","0.5","327.1","ND","ND","0","0"],
    [83935,"2019-12-03T02:00:00","55.2","ND","ND","ND","3.7","1","0.2","330.2","ND","ND","0","0"],
    [83936,"2019-12-03T03:00:00","ND","ND","ND","ND","ND","0.8","0.5","235.3","ND","ND","0","0"],
    [83937,"2019-12-03T04:00:00","19.7","ND","ND","ND","3.9","1.2","0.1","277.8","ND","ND","0","0"],
    [83938,"2019-12-03T05:00:00","ND","ND","ND","ND","ND","0.7","0.2","42.7","ND","ND","0","0"],
    [83939,"2019-12-03T06:00:00","42.4","ND","ND","ND","4.1","1.8","0.7","341.8","ND","ND","0","0"],
    [83940,"2019-12-03T07:00:00","ND","ND","ND","ND","ND","3.3","0.5","356.4","ND","ND","0","0"],
    [83941,"2019-12-03T08:00:00","90.8","ND","ND","ND","4.6","3.9","0.4","355.7","ND","ND","71","0"],
    [83942,"2019-12-03T09:00:00","ND","ND","ND","ND","ND","3.4","0.5","336.4","ND","ND","123","0"],
    [83943,"2019-12-03T10:00:00","67.9","ND","ND","ND","7.5","1.3","0.8","58.1","ND","ND","521","0"],
    [83944,"2019-12-03T11:00:00","ND","ND","ND","ND","ND","0.5","0.6","99.5","ND","ND","664","0"],
    [83945,"2019-12-03T12:00:00","35.2","ND","ND","ND","43","0","0.8","252.3","ND","ND","665","0"],
    [83946,"2019-12-03T13:00:00","ND","ND","ND","ND","ND","0","0.5","357.9","ND","ND","647","0"],
    [83947,"2019-12-03T14:00:00","7.8","ND","ND","ND","41.9","0","0.7","293","ND","ND","665","0"],
    [83948,"2019-12-03T15:00:00","ND","ND","ND","ND","ND","0","2.5","250.9","ND","ND","633","0"],
    [83949,"2019-12-03T16:00:00","23.6","ND","ND","ND","32.4","0","2.4","250.1","ND","ND","665","0"],
    [83950,"2019-12-03T17:00:00","ND","ND","ND","ND","ND","0","1.6","262.1","ND","ND","637","0"],
    [83951,"2019-12-03T18:00:00","14.8","ND","ND","ND","21.3","0","0.3","278.1","ND","ND","329","0"],
    [83952,"2019-12-03T19:00:00","ND","ND","ND","ND","ND","0","1.3","107.8","ND","ND","0","2.3"],
    [83953,"2019-12-03T20:00:00","36.1","ND","ND","ND","6.9","1","0.5","355","ND","ND","0","0"],
    [83954,"2019-12-03T21:00:00","ND","ND","ND","ND","ND","0.7","0.7","111.6","ND","ND","0","0"],
    [83955,"2019-12-03T22:00:00","45.9","ND","ND","ND","4.4","0.2","0.4","302.8","ND","ND","0","0"],
    [83956,"2019-12-03T23:00:00","ND","ND","ND","ND","ND","3.1","0.7","316.3","ND","ND","0","0"],
    [83957,"2019-12-04T00:00:00","71.5","ND","ND","ND","4.1","4.9","0.6","357.7","ND","ND","0","0"],
    [83958,"2019-12-04T01:00:00","ND","ND","ND","ND","ND","2.9","0.6","355.8","ND","ND","0","0"],
    [83959,"2019-12-04T02:00:00","43.7","ND","ND","ND","5.9","1.4","0.3","46.5","ND","ND","0","0"],
    [83960,"2019-12-04T03:00:00","ND","ND","ND","ND","ND","1.6","0.3","347.6","ND","ND","0","0"],
    [83961,"2019-12-04T04:00:00","28","ND","ND","ND","15.6","0","0.5","148.8","ND","ND","0","5.7"],
    [83962,"2019-12-04T05:00:00","ND","ND","ND","ND","ND","0","0.6","135.6","ND","ND","0","14.6"],
    [83963,"2019-12-04T06:00:00","ND","ND","ND","ND","4.8","0.2","0.5","96.2","ND","ND","0","1.6"],
    [83964,"2019-12-04T07:00:00","ND","ND","ND","ND","ND","1.4","0.3","11.4","ND","ND","0","2.3"],
    [83965,"2019-12-04T08:00:00","53.3","ND","ND","ND","10.9","0.4","0.4","36.1","ND","ND","50","2.1"],
    [83966,"2019-12-04T09:00:00","ND","ND","ND","ND","ND","0","0.5","71.1","ND","ND","391","0.9"],
    [83967,"2019-12-04T10:00:00","28.9","ND","ND","ND","27.6","0.7","0.8","47","ND","ND","620","0.6"],
    [83968,"2019-12-04T11:00:00","ND","ND","ND","ND","ND","0.1","0.7","16.9","ND","ND","645","0.2"],
    [83969,"2019-12-04T12:00:00","ND","ND","ND","ND","ND","0","0.6","338","ND","ND","665","0.1"],
    [83970,"2019-12-04T13:00:00","37.4","ND","ND","ND","ND","0","1","287.1","ND","ND","592","0"],
    [83971,"2019-12-04T14:00:00","ND","ND","ND","ND","27.8","0","1.9","241.9","ND","ND","656","0"],
    [83972,"2019-12-04T15:00:00","14.6","ND","ND","ND","ND","0","2.3","245","ND","ND","556","0"],
    [83973,"2019-12-04T16:00:00","ND","ND","ND","ND","30.8","0","2.9","258.3","ND","ND","665","0"],
    [83974,"2019-12-04T17:00:00","10.6","ND","ND","ND","ND","0","3","253.1","ND","ND","601","0"],
    [83975,"2019-12-04T18:00:00","ND","ND","ND","ND","21.4","0","0.6","233.7","ND","ND","229","0"],
    [83976,"2019-12-04T19:00:00","34.1","ND","ND","ND","ND","0","1","54","ND","ND","0","0"],
    [83977,"2019-12-04T20:00:00","ND","ND","ND","ND","25.1","0","1.5","136.7","ND","ND","0","0.1"],
    [83978,"2019-12-04T21:00:00","40.4","ND","ND","ND","ND","0","1.7","130.9","ND","ND","0","0"],
    [83979,"2019-12-04T22:00:00","ND","ND","ND","ND","20.6","0.8","1.3","122.5","ND","ND","0","0"],
    [83980,"2019-12-04T23:00:00","34.4","ND","ND","ND","ND","0.5","0.8","121.4","ND","ND","0","0"],
    [83981,"2019-12-05T00:00:00","ND","ND","ND","ND","17.7","0.2","0.2","223.6","ND","ND","0","0"],
    [83982,"2019-12-05T01:00:00","28","ND","ND","ND","ND","0.6","0.4","17","ND","ND","0","0"],
    [83983,"2019-12-05T02:00:00","ND","ND","ND","ND","17.5","0.9","0.5","99.8","ND","ND","0","0"],
    [83984,"2019-12-05T03:00:00","16.2","ND","ND","ND","ND","0.9","0.3","84","ND","ND","0","0"],
    [83985,"2019-12-05T04:00:00","ND","ND","ND","ND","6","2.7","0.2","343.4","ND","ND","0","0"],
    [83986,"2019-12-05T05:00:00","25.8","ND","ND","ND","ND","0.9","0.3","97.3","ND","ND","0","0"],
    [83987,"2019-12-05T06:00:00","ND","ND","ND","ND","4.5","2.6","0.6","43.6","ND","ND","0","0"],
    [83988,"2019-12-05T07:00:00","52.9","ND","ND","ND","ND","2.7","0.9","1.3","ND","ND","0","0"],
    [83989,"2019-12-05T08:00:00","ND","ND","ND","ND","6.9","4.9","0.9","20.7","ND","ND","119","0"],
    [83990,"2019-12-05T09:00:00","42","ND","ND","ND","ND","1.8","0.8","40.3","ND","ND","270","0"],
    [83991,"2019-12-05T10:00:00","ND","ND","ND","ND","26.4","0.7","1","75.8","ND","ND","566","0"],
    [83992,"2019-12-05T11:00:00","16.4","ND","ND","ND","ND","0","0.6","130.8","ND","ND","664","0"],
    [83993,"2019-12-05T12:00:00","ND","ND","ND","ND","49.9","0.1","0.2","333.8","ND","ND","604","0"],
    [83994,"2019-12-05T13:00:00","39.2","ND","ND","ND","ND","0","0.7","64","ND","ND","641","0"],
    [83995,"2019-12-05T14:00:00","ND","ND","ND","ND","74.8","0","0.6","337.8","ND","ND","665","0"],
    [83996,"2019-12-05T15:00:00","33.8","ND","ND","ND","ND","0","1.5","245.5","ND","ND","665","0"],
    [83997,"2019-12-05T16:00:00","ND","ND","ND","ND","36.2","0","2","229","ND","ND","659","0"],
    [83998,"2019-12-05T17:00:00","0.5","ND","ND","ND","ND","0","2","238.7","ND","ND","654","0"],
    [83999,"2019-12-05T18:00:00","ND","ND","ND","ND","21","0","0.4","238.6","ND","ND","489","0.3"],
    [84000,"2019-12-05T19:00:00","26.3","ND","ND","ND","ND","0","0","95.7","ND","ND","0","0"],
    [84001,"2019-12-05T20:00:00","ND","ND","ND","ND","9.6","0.2","0.6","60.1","ND","ND","0","0"],
    [84002,"2019-12-05T21:00:00","21.9","ND","ND","ND","ND","0.8","0.5","63.4","ND","ND","0","0"],
    [84003,"2019-12-05T22:00:00","ND","ND","ND","ND","4","1","0.1","113.4","ND","ND","0","0"],
    [84004,"2019-12-05T23:00:00","61.9","ND","ND","ND","ND","1.5","0.3","317.4","ND","ND","0","ND"],
    [84005,"2019-12-06T00:00:00","ND","ND","ND","ND","3.9","2.6","0.4","330","ND","ND","0","0"],
    [84006,"2019-12-06T01:00:00","91.1","ND","ND","ND","ND","1.8","0.3","323.8","ND","ND","0","0"],
    [84007,"2019-12-06T02:00:00","ND","ND","ND","ND","3.9","1.6","0.4","337.5","ND","ND","0","0"],
    [84008,"2019-12-06T03:00:00","60.1","ND","ND","ND","ND","5.6","0.8","5","ND","ND","0","0"],
    [84009,"2019-12-06T04:00:00","ND","ND","ND","ND","4.1","3.6","0.5","106.9","ND","ND","0","0"],
    [84010,"2019-12-06T05:00:00","29.2","ND","ND","ND","ND","4.2","0.2","81.6","ND","ND","0","0"],
    [84011,"2019-12-06T06:00:00","ND","ND","ND","ND","3.5","3.1","0.2","233.8","ND","ND","0","0"],
    [84012,"2019-12-06T07:00:00","46","ND","ND","ND","ND","1.5","0.5","141.8","ND","ND","0","0.1"],
    [84013,"2019-12-06T08:00:00","ND","ND","ND","ND","3.8","0","0.9","130.5","ND","ND","66","1.2"],
    [84014,"2019-12-06T09:00:00","12.4","ND","ND","ND","ND","0","0.9","127.9","ND","ND","96","ND"],
    [84015,"2019-12-06T10:00:00","ND","ND","ND","ND","8.3","0","0.5","129.7","ND","ND","185","ND"],
    [84016,"2019-12-06T11:00:00","20.5","ND","ND","ND","ND","0","0.2","67.6","ND","ND","527","0"],
    [84017,"2019-12-06T12:00:00","ND","ND","ND","ND","27.3","0","0.8","53.7","ND","ND","663","0"],
    [84018,"2019-12-06T13:00:00","11.4","ND","ND","ND","ND","0","1","72.5","ND","ND","664","ND"],
    [84019,"2019-12-06T14:00:00","ND","ND","ND","ND","58.1","0","0.9","117.9","ND","ND","665","ND"],
    [84020,"2019-12-06T15:00:00","25.1","ND","ND","ND","ND","0","0.5","78.9","ND","ND","663","ND"],
    [84021,"2019-12-06T16:00:00","ND","ND","ND","ND","47.3","0","0.1","324.3","ND","ND","609","ND"],
    [84022,"2019-12-06T17:00:00","25.2","ND","ND","ND","ND","0","0.4","344.4","ND","ND","571","0"],
    [84023,"2019-12-06T18:00:00","ND","ND","ND","ND","6.9","0","0.6","73.3","ND","ND","534","0"],
    [84024,"2019-12-06T19:00:00","38.6","ND","ND","ND","ND","0","0.3","18.4","ND","ND","0","ND"],
    [84025,"2019-12-06T20:00:00","ND","ND","ND","ND","3.8","0.9","1.2","104.2","ND","ND","0","0"],
    [84026,"2019-12-06T21:00:00","23.8","ND","ND","ND","ND","1","0.6","257.1","ND","ND","0","0"],
    [84027,"2019-12-06T22:00:00","ND","ND","ND","ND","4.8","0","0.7","149.8","ND","ND","0","0.8"],
    [84028,"2019-12-06T23:00:00","25.1","ND","ND","ND","ND","0","0.2","60.9","ND","ND","0","0"],
    [84029,"2019-12-07T00:00:00","ND","ND","ND","ND","3.6","0","0.4","263.5","ND","ND","0","0"],
    [84030,"2019-12-07T01:00:00","14.7","ND","ND","ND","ND","0","0.1","2.7","ND","ND","0","ND"],
    [84031,"2019-12-07T02:00:00","ND","ND","ND","ND","4","2","0.6","321.4","ND","ND","0","ND"],
    [84032,"2019-12-07T03:00:00","53.2","ND","ND","ND","ND","8","0.6","8.7","ND","ND","0","ND"],
    [84033,"2019-12-07T04:00:00","ND","ND","ND","ND","3.9","4","0.7","4.4","ND","ND","0","ND"],
    [84034,"2019-12-07T05:00:00","33.7","ND","ND","ND","ND","0.9","0.3","33.5","ND","ND","0","ND"],
    [84035,"2019-12-07T06:00:00","ND","ND","ND","ND","8","0","0.5","148","ND","ND","0","ND"],
    [84036,"2019-12-07T07:00:00","ND","ND","ND","ND","ND","0","1.9","131","ND","ND","0","ND"],
    [84037,"2019-12-07T08:00:00","ND","ND","ND","ND","4.1","0","1","143.7","ND","ND","33","0"],
    [84038,"2019-12-07T09:00:00","13","ND","ND","ND","ND","0","0.6","147.7","ND","ND","137","ND"],
    [84039,"2019-12-07T10:00:00","ND","ND","ND","ND","10.6","0","0.3","350.1","ND","ND","143","ND"],
    [84040,"2019-12-07T11:00:00","ND","ND","ND","ND","ND","0","0.7","350.4","ND","ND","523","ND"],
    [84041,"2019-12-07T12:00:00","ND","ND","ND","ND","34.8","0","0.4","64.5","ND","ND","664","ND"],
    [84042,"2019-12-07T13:00:00","1","ND","ND","ND","ND","0","0.9","1.7","ND","ND","664","0"],
    [84043,"2019-12-07T14:00:00","ND","ND","ND","ND","53.9","0","1.1","27.3","ND","ND","607","ND"],
    [84044,"2019-12-07T15:00:00","30.3","ND","ND","ND","ND","0","2.4","358.5","ND","ND","665","ND"],
    [84045,"2019-12-07T16:00:00","ND","ND","ND","ND","31.6","0","1.5","348.5","ND","ND","612","0"],
    [84046,"2019-12-07T17:00:00","ND","ND","ND","ND","ND","0","1","32","ND","ND","391","0"],
    [84047,"2019-12-07T18:00:00","ND","ND","ND","ND","22.7","0","0.5","245.7","ND","ND","149","ND"],
    [84048,"2019-12-07T19:00:00","20.8","ND","ND","ND","ND","0","0.2","28.8","ND","ND","0","ND"],
    [84049,"2019-12-07T20:00:00","ND","ND","ND","ND","7.3","0","0.8","105.3","ND","ND","0","0"],
    [84050,"2019-12-07T21:00:00","79.8","ND","ND","ND","ND","0","0.3","15.3","ND","ND","0","ND"],
    [84051,"2019-12-07T22:00:00","ND","ND","ND","ND","4.7","1.9","0.5","67.2","ND","ND","0","ND"],
    [84052,"2019-12-07T23:00:00","105.4","ND","ND","ND","ND","2.1","0.2","21.2","ND","ND","0","ND"],
    [84053,"2019-12-08T00:00:00","ND","ND","ND","ND","3.7","1.7","0.5","340.1","ND","ND","0","ND"],
    [84054,"2019-12-08T01:00:00","57","ND","ND","ND","ND","1.4","0.1","114.8","ND","ND","0","0"],
    [84055,"2019-12-08T02:00:00","ND","ND","ND","ND","3.7","1.9","0.3","7.6","ND","ND","0","0"],
    [84056,"2019-12-08T03:00:00","52.2","ND","ND","ND","ND","3.5","0.4","27.5","ND","ND","0","0"],
    [84057,"2019-12-08T04:00:00","ND","ND","ND","ND","3.9","2","0.6","22.1","ND","ND","0","0"],
    [84058,"2019-12-08T05:00:00","39.2","ND","ND","ND","ND","1.9","0.6","23.3","ND","ND","0","0"],
    [84059,"2019-12-08T06:00:00","ND","ND","ND","ND","3.7","3.6","0.4","36.9","ND","ND","0","0"],
    [84060,"2019-12-08T07:00:00","52.1","ND","ND","ND","ND","3","0.2","12.3","ND","ND","0","0"],
    [84061,"2019-12-08T08:00:00","ND","ND","ND","ND","5.3","3.4","0.9","12.2","ND","ND","71","0"],
    [84062,"2019-12-08T09:00:00","45.3","ND","ND","ND","ND","2","0.4","109.6","ND","ND","286","0"],
    [84063,"2019-12-08T10:00:00","ND","ND","ND","ND","27.5","0.6","1","95.9","ND","ND","615","0"],
    [84064,"2019-12-08T11:00:00","14.5","ND","ND","ND","ND","0.2","1.5","92.4","ND","ND","664","0"],
    [84065,"2019-12-08T12:00:00","ND","ND","ND","ND","59.4","0","0.9","3.1","ND","ND","664","0"],
    [84066,"2019-12-08T13:00:00","30","ND","ND","ND","ND","0","0.2","304.6","ND","ND","659","0"],
    [84067,"2019-12-08T14:00:00","ND","ND","ND","ND","79.6","0","1.3","268.7","ND","ND","665","0"],
    [84068,"2019-12-08T15:00:00","32","ND","ND","ND","ND","0","1.2","329.6","ND","ND","661","0"],
    [84069,"2019-12-08T16:00:00","ND","ND","ND","ND","35.9","0","1.5","348.9","ND","ND","571","0"],
    [84070,"2019-12-08T17:00:00","8","ND","ND","ND","ND","0","1","304.2","ND","ND","457","0"],
    [84071,"2019-12-08T18:00:00","ND","ND","ND","ND","26.6","0","0.4","302.2","ND","ND","446","1.8"],
    [84072,"2019-12-08T19:00:00","11.2","ND","ND","ND","ND","0","0.2","29.3","ND","ND","0","0"],
    [84073,"2019-12-08T20:00:00","ND","ND","ND","ND","6.4","0","0.3","277.8","ND","ND","0","0.2"],
    [84074,"2019-12-08T21:00:00","26.5","ND","ND","ND","ND","0.5","0.2","118.6","ND","ND","0","0"],
    [84075,"2019-12-08T22:00:00","ND","ND","ND","ND","3.7","5.9","0.2","93.3","ND","ND","0","0"],
    [84076,"2019-12-08T23:00:00","54.6","ND","ND","ND","ND","4.6","0.1","2.3","ND","ND","0","0"],
    [84077,"2019-12-09T00:00:00","ND","ND","ND","ND","3.7","3.2","0.2","122.8","ND","ND","0","0"],
    [84078,"2019-12-09T01:00:00","31.8","ND","ND","ND","ND","3","0.2","349.7","ND","ND","0","0"],
    [84079,"2019-12-09T02:00:00","ND","ND","ND","ND","3.5","2.4","0.1","256.4","ND","ND","0","0"],
    [84080,"2019-12-09T03:00:00","30.3","ND","ND","ND","ND","1.7","0","16","ND","ND","0","0"],
    [84081,"2019-12-09T04:00:00","ND","ND","ND","ND","3.4","0.9","0.3","295.6","ND","ND","0","0"],
    [84082,"2019-12-09T05:00:00","29.2","ND","ND","ND","ND","3.4","0.4","53.2","ND","ND","0","0"],
    [84083,"2019-12-09T06:00:00","ND","ND","ND","ND","3.8","4.7","0.2","232.2","ND","ND","0","0"],
    [84084,"2019-12-09T07:00:00","67.1","ND","ND","ND","ND","4.1","0.3","22","ND","ND","0","0"],
    [84085,"2019-12-09T08:00:00","ND","ND","ND","ND","4.5","5","0.3","11.5","ND","ND","61","0"],
    [84086,"2019-12-09T09:00:00","ND","ND","ND","ND","ND","ND","0.8","33.8","ND","ND","268","0"],
    [84087,"2019-12-09T10:00:00","ND","ND","ND","ND","ND","ND","ND","ND","ND","ND","476","ND"],
    [84088,"2019-12-09T11:00:00","ND","ND","ND","ND","ND","ND","ND","ND","ND","ND","ND","0"],
    [84089,"2019-12-09T12:00:00","ND","ND","ND","ND","78.3","0","0.7","40.7","ND","ND","ND","0"],
    [84090,"2019-12-09T13:00:00","33.8","ND","ND","ND","81.3","0","0.6","23.4","ND","ND","665","0"],
    [84091,"2019-12-09T14:00:00","64.9","ND","ND","ND","64.3","0","0.8","263.9","ND","ND","642","0"],
    [84092,"2019-12-09T15:00:00","48","ND","ND","ND","57.2","0","0.7","349.6","ND","ND","649","0"],
    [84093,"2019-12-09T16:00:00","9.3","ND","ND","ND","54.8","0","0.4","264.4","ND","ND","454","0"],
    [84094,"2019-12-09T17:00:00","30.3","ND","ND","ND","39.1","0","1.6","260.1","ND","ND","585","0"],
    [84095,"2019-12-09T18:00:00","18.1","ND","ND","ND","32.8","0","0.3","325.7","ND","ND","451","0"],
    [84096,"2019-12-09T19:00:00","ND","ND","ND","ND","18","0","0.3","206.6","ND","ND","0","0"],
    [84097,"2019-12-09T20:00:00","3.4","ND","ND","ND","9.2","0","0.3","18.3","ND","ND","0","0"],
    [84098,"2019-12-09T21:00:00","74.5","ND","ND","ND","4","3.6","0.9","101.5","ND","ND","0","0.4"],
    [84099,"2019-12-09T22:00:00","48.7","ND","ND","ND","4.1","2.5","0.1","144","ND","ND","0","0"],
    [84100,"2019-12-09T23:00:00","52.4","ND","ND","ND","4.1","2.4","0.4","100","ND","ND","0","0"],
    [84101,"2019-12-10T00:00:00","53.1","ND","ND","ND","3.5","1.4","0.2","93.9","ND","ND","0","0"],
    [84102,"2019-12-10T01:00:00","14.6","ND","ND","ND","3.7","4.2","0.5","105.2","ND","ND","0","ND"],
    [84103,"2019-12-10T02:00:00","ND","ND","ND","ND","4","4.6","0.3","0.7","ND","ND","0","ND"],
    [84104,"2019-12-10T03:00:00","31.9","ND","ND","ND","3.7","2.3","0","25","ND","ND","0","ND"],
    [84105,"2019-12-10T04:00:00","20.2","ND","ND","ND","3.7","2.4","0.2","240","ND","ND","0","ND"],
    [84106,"2019-12-10T05:00:00","5.3","ND","ND","ND","3.7","2.2","0.1","202.4","ND","ND","0","ND"],
    [84107,"2019-12-10T06:00:00","46.2","ND","ND","ND","4","2.3","0.6","11.7","ND","ND","0","ND"],
    [84108,"2019-12-10T07:00:00","80.8","ND","ND","ND","4.3","3.4","0.3","28.9","ND","ND","0","ND"],
    [84109,"2019-12-10T08:00:00","98.1","ND","ND","ND","4.1","2.6","0.4","358.8","ND","ND","74","ND"],
    [84110,"2019-12-10T09:00:00","73.4","ND","ND","ND","5.6","1.7","0.7","35.6","ND","ND","307","ND"],
    [84111,"2019-12-10T10:00:00","74.2","ND","ND","ND","13.7","0.6","0.6","64.8","ND","ND","653","ND"],
    [84112,"2019-12-10T11:00:00","48.4","ND","ND","ND","20.3","0.8","0.2","189.8","ND","ND","664","ND"],
    [84113,"2019-12-10T12:00:00","51","ND","ND","ND","33.4","0.5","0.6","341.6","ND","ND","665","ND"],
    [84114,"2019-12-10T13:00:00","26.2","ND","ND","ND","43.8","0.4","0.4","183.8","ND","ND","644","ND"],
    [84115,"2019-12-10T14:00:00","11.6","ND","ND","ND","32.5","0","1.6","222.6","ND","ND","641","ND"],
    [84116,"2019-12-10T15:00:00","ND","ND","ND","ND","26.9","0","3.3","250.9","ND","ND","649","ND"],
    [84117,"2019-12-10T16:00:00","36.3","ND","ND","ND","28.1","0","1.6","266","ND","ND","661","ND"],
    [84118,"2019-12-10T17:00:00","26.8","ND","ND","ND","21.9","0","0.8","248.8","ND","ND","666","ND"],
    [84119,"2019-12-10T18:00:00","19.1","ND","ND","ND","14.6","0","0.9","148.6","ND","ND","250","ND"],
    [84120,"2019-12-10T19:00:00","25.2","ND","ND","ND","12.7","0","0.8","259","ND","ND","0","ND"],
    [84121,"2019-12-10T20:00:00","61.6","ND","ND","ND","4.3","0.2","2","93.5","ND","ND","0","ND"],
    [84122,"2019-12-10T21:00:00","60.2","ND","ND","ND","4.5","0.5","0.2","290.8","ND","ND","0","ND"],
    [84123,"2019-12-10T22:00:00","56.6","ND","ND","ND","5.7","0.1","0.6","12.9","ND","ND","0","ND"],
    [84124,"2019-12-10T23:00:00","49","ND","ND","ND","4.1","2.5","0.6","18.8","ND","ND","0","ND"],
    [84125,"2019-12-11T00:00:00","51.1","ND","ND","ND","4.4","0.8","0.7","52.8","ND","ND","0","ND"],
    [84126,"2019-12-11T01:00:00","16.7","ND","ND","ND","4.2","0.9","0.2","26.4","ND","ND","0","0"],
    [84127,"2019-12-11T02:00:00","31.2","ND","ND","ND","4.3","1.9","0.2","8.4","ND","ND","0","0"],
    [84128,"2019-12-11T03:00:00","55.7","ND","ND","ND","8.1","1.1","0.9","116.4","ND","ND","0","0"],
    [84129,"2019-12-11T04:00:00","53.3","ND","ND","ND","8.2","1.2","0.1","83.6","ND","ND","0","0"],
    [84130,"2019-12-11T05:00:00","46.7","ND","ND","ND","6.1","0.6","0.2","356.5","ND","ND","0","0.1"],
    [84131,"2019-12-11T06:00:00","33.8","ND","ND","ND","3.9","0.9","0.2","10.6","ND","ND","0","0"],
    [84132,"2019-12-11T07:00:00","60.6","ND","ND","ND","4.3","1.6","0.7","13","ND","ND","0","0"],
    [84133,"2019-12-11T08:00:00","73.1","ND","ND","ND","4.2","1.9","0.8","358.3","ND","ND","43","0"],
    [84134,"2019-12-11T09:00:00","71.1","ND","ND","ND","4.6","2.7","0.5","359.7","ND","ND","105","0"],
    [84135,"2019-12-11T10:00:00","68.9","ND","ND","ND","8.8","1.6","0.5","80.4","ND","ND","219","0"],
    [84136,"2019-12-11T11:00:00","60.7","ND","ND","ND","23.5","0.7","1.4","74.7","ND","ND","658","0"],
    [84137,"2019-12-11T12:00:00","51.7","ND","ND","ND","36.7","0.6","0.1","202","ND","ND","665","0"],
    [84138,"2019-12-11T13:00:00","36.7","ND","ND","ND","29.7","0","1.4","344.8","ND","ND","660","0"],
    [84139,"2019-12-11T14:00:00","18.3","ND","ND","ND","21.5","ND","0.6","293.6","ND","ND","642","0"],
    [84140,"2019-12-11T15:00:00","7.8","ND","ND","ND","27.8","ND","0.8","217.1","ND","ND","659","0"],
    [84141,"2019-12-11T16:00:00","11.8","ND","ND","ND","23.5","0","2","236.9","ND","ND","666","0"],
    [84142,"2019-12-11T17:00:00","2.4","ND","ND","ND","22","0","1.1","241.5","ND","ND","666","0"],
    [84143,"2019-12-11T18:00:00","1.9","ND","ND","ND","20.2","0","0.7","258.9","ND","ND","506","0"],
    [84144,"2019-12-11T19:00:00","0.6","ND","ND","ND","14.6","0","0.1","337.6","ND","ND","0","0"],
    [84145,"2019-12-11T20:00:00","23.2","ND","ND","ND","9.6","0","0.4","95.2","ND","ND","0","0"],
    [84146,"2019-12-11T21:00:00","26.4","ND","ND","ND","9.4","0","0.7","40.5","ND","ND","0","0"],
    [84147,"2019-12-11T22:00:00","24.2","ND","ND","ND","4.1","0","0.6","124.5","ND","ND","0","0"],
    [84148,"2019-12-11T23:00:00","17.5","ND","ND","ND","4.8","0.2","1.5","110.7","ND","ND","0","0"],
    [84149,"2019-12-12T00:00:00","24.3","ND","ND","ND","4.2","0","1.8","124.1","ND","ND","0","0"],
    [84150,"2019-12-12T01:00:00","14.5","ND","ND","ND","8","0.6","1.3","125.9","ND","ND","0","0"],
    [84151,"2019-12-12T02:00:00","19.2","ND","ND","ND","9","0","1.2","121.3","ND","ND","0","0"],
    [84152,"2019-12-12T03:00:00","25.9","ND","ND","ND","10.4","1.2","0.9","130.6","ND","ND","0","0"],
    [84153,"2019-12-12T04:00:00","28.2","ND","ND","ND","7.8","1.3","0.6","33.2","ND","ND","0","0"],
    [84154,"2019-12-12T05:00:00","28.4","ND","ND","ND","4.2","1.5","0.4","104.5","ND","ND","0","0"],
    [84155,"2019-12-12T06:00:00","30.9","ND","ND","ND","3.8","0.9","0.6","92.4","ND","ND","0","0"],
    [84156,"2019-12-12T07:00:00","30","ND","ND","ND","4","0.3","0.9","108.8","ND","ND","0","0"],
    [84157,"2019-12-12T08:00:00","31.5","ND","ND","ND","4.1","0.9","0.7","112","ND","ND","66","0"],
    [84158,"2019-12-12T09:00:00","26","ND","ND","ND","4.2","1.1","0.3","16.8","ND","ND","247","0"],
    [84159,"2019-12-12T10:00:00","32.2","ND","ND","ND","8.1","0.3","0.6","32","ND","ND","560","0"],
    [84160,"2019-12-12T11:00:00","32.5","ND","ND","ND","15.3","0","0.8","313.5","ND","ND","665","0"],
    [84161,"2019-12-12T12:00:00","ND","ND","ND","ND","10.7","0","0.3","246","ND","ND","447","0"],
    [84162,"2019-12-12T13:00:00","36.9","ND","ND","ND","23.2","ND","0.5","213.8","ND","ND","537","0"],
    [84163,"2019-12-12T14:00:00","33.7","ND","ND","ND","50.5","ND","0.5","112.6","ND","ND","651","0"],
    [84164,"2019-12-12T15:00:00","16.8","ND","ND","ND","62.6","ND","0.3","21.1","ND","ND","664","0"],
    [84165,"2019-12-12T16:00:00","19.2","ND","ND","ND","54.4","ND","0.8","265.9","ND","ND","664","0"],
    [84166,"2019-12-12T17:00:00","2.4","ND","ND","ND","14.4","ND","1.8","242.3","ND","ND","599","0"],
    [84167,"2019-12-12T18:00:00","3.1","ND","ND","ND","10.9","ND","0.6","230","ND","ND","272","0"],
    [84168,"2019-12-12T19:00:00","46.5","ND","ND","ND","4.3","ND","0.8","107.8","ND","ND","0","0"],
    [84169,"2019-12-12T20:00:00","63.8","ND","ND","ND","4","ND","0.9","78.2","ND","ND","0","0.1"],
    [84170,"2019-12-12T21:00:00","32.9","ND","ND","ND","4.4","ND","0.6","95.5","ND","ND","0","0.1"],
    [84171,"2019-12-12T22:00:00","50.2","ND","ND","ND","4","ND","0.4","343.4","ND","ND","0","0.1"],
    [84172,"2019-12-12T23:00:00","40.1","ND","ND","ND","4","0.5","0","49.4","ND","ND","0","0"],
    [84173,"2019-12-13T00:00:00","47.9","ND","ND","ND","4","ND","0.7","135.5","ND","ND","0","0"],
    [84174,"2019-12-13T01:00:00","22","ND","ND","ND","6.6","ND","1.6","120.8","ND","ND","0","0"],
    [84175,"2019-12-13T02:00:00","ND","ND","ND","ND","9.6","ND","0.9","125.8","ND","ND","0","0"],
    [84176,"2019-12-13T03:00:00","ND","ND","ND","ND","9.5","ND","0.3","72.4","ND","ND","0","0"],
    [84177,"2019-12-13T04:00:00","17.1","ND","ND","ND","3.9","2.7","0.6","4.2","ND","ND","0","0"],
    [84178,"2019-12-13T05:00:00","50.4","ND","ND","ND","4.2","3.3","0.3","69.5","ND","ND","0","0"],
    [84179,"2019-12-13T06:00:00","52.6","ND","ND","ND","3.9","3.4","0.7","17","ND","ND","0","0"],
    [84180,"2019-12-13T07:00:00","37.3","ND","ND","ND","3.8","0.8","0.4","19.3","ND","ND","0","0"],
    [84181,"2019-12-13T08:00:00","32.7","ND","ND","ND","3.7","ND","0.2","133","ND","ND","14","0"],
    [84182,"2019-12-13T09:00:00","15.2","ND","ND","ND","4.2","ND","0.2","248","ND","ND","89","0"],
    [84183,"2019-12-13T10:00:00","14.3","ND","ND","ND","5","0","0.5","357.9","ND","ND","336","0"],
    [84184,"2019-12-13T11:00:00","14.2","ND","ND","ND","9.1","0","0.7","31.6","ND","ND","472","0"],
    [84185,"2019-12-13T12:00:00","23.3","ND","ND","ND","30.3","0","0.4","105.9","ND","ND","657","0"],
    [84186,"2019-12-13T13:00:00","3","ND","ND","ND","49.3","0","0.8","165.6","ND","ND","665","0"],
    [84187,"2019-12-13T14:00:00","20.7","ND","ND","ND","71.1","0","0.9","133.1","ND","ND","665","0"],
    [84188,"2019-12-13T15:00:00","15.5","ND","ND","ND","50","0","0.5","234.9","ND","ND","665","0"],
    [84189,"2019-12-13T16:00:00","13.8","ND","ND","ND","15.2","0","1.1","207.8","ND","ND","591","0"],
    [84190,"2019-12-13T17:00:00","20.5","ND","ND","ND","7.7","0","0.6","204.2","ND","ND","456","0"],
    [84191,"2019-12-13T18:00:00","0.8","ND","ND","ND","7.9","0","1.1","236.4","ND","ND","219","0"],
    [84192,"2019-12-13T19:00:00","9","ND","ND","ND","4.6","0","0.1","98.7","ND","ND","0","0"],
    [84193,"2019-12-13T20:00:00","19.7","ND","ND","ND","5.6","0","0.2","248.3","ND","ND","0","0"],
    [84194,"2019-12-13T21:00:00","12.6","ND","ND","ND","5.6","0","0.7","52.4","ND","ND","0","0.2"],
    [84195,"2019-12-13T22:00:00","14.2","ND","ND","ND","4.4","1.1","0.8","63.4","ND","ND","0","0"],
    [84196,"2019-12-13T23:00:00","28.3","ND","ND","ND","5.8","0.5","0.7","276.1","ND","ND","0","0"],
    [84197,"2019-12-14T00:00:00","19.3","ND","ND","ND","4.1","0.1","0.3","67.7","ND","ND","0","0"],
    [84198,"2019-12-14T01:00:00","11","ND","ND","ND","3.9","1.3","0.5","37.8","ND","ND","0","0"],
    [84199,"2019-12-14T02:00:00","1.7","ND","ND","ND","3.8","0.1","0.3","251.7","ND","ND","0","0"],
    [84200,"2019-12-14T03:00:00","0.7","ND","ND","ND","4.4","0.3","0.7","147","ND","ND","0","0"],
    [84201,"2019-12-14T04:00:00","ND","ND","ND","ND","4.1","0","0.2","207.9","ND","ND","0","0"],
    [84202,"2019-12-14T05:00:00","ND","ND","ND","ND","3.8","0","0.2","9.2","ND","ND","0","0"],
    [84203,"2019-12-14T06:00:00","4","ND","ND","ND","4.4","0","0.1","16.1","ND","ND","0","0"],
    [84204,"2019-12-14T07:00:00","3.6","ND","ND","ND","3.8","0.6","0.2","8","ND","ND","0","0"],
    [84205,"2019-12-14T08:00:00","15","ND","ND","ND","4","0","0.4","106.7","ND","ND","39","0"],
    [84206,"2019-12-14T09:00:00","25.8","ND","ND","ND","4.2","0","0.3","64.7","ND","ND","273","0"],
    [84207,"2019-12-14T10:00:00","10.8","ND","ND","ND","5.4","0","0.5","39.5","ND","ND","541","0"],
    [84208,"2019-12-14T11:00:00","25","ND","ND","ND","8.9","0","0.6","21.6","ND","ND","620","0"],
    [84209,"2019-12-14T12:00:00","41.9","ND","ND","ND","26","0","0.7","94.1","ND","ND","663","0"],
    [84210,"2019-12-14T13:00:00","10","ND","ND","ND","34","0","0.8","23","ND","ND","664","0"],
    [84211,"2019-12-14T14:00:00","35.9","ND","ND","ND","50","0","1.1","283","ND","ND","659","0"],
    [84212,"2019-12-14T15:00:00","37.7","ND","ND","ND","14.3","0","1.2","248.3","ND","ND","665","0"],
    [84213,"2019-12-14T16:00:00","10.2","ND","ND","ND","13.1","0","0.4","326.7","ND","ND","368","0"],
    [84214,"2019-12-14T17:00:00","32.1","ND","ND","ND","13.5","0","0.7","253.7","ND","ND","257","0"],
    [84215,"2019-12-14T18:00:00","21.7","ND","ND","ND","6.1","0","0.2","61.6","ND","ND","308","0"],
    [84216,"2019-12-14T19:00:00","53.2","ND","ND","ND","5.1","0","0.4","56.9","ND","ND","0","0.1"],
    [84217,"2019-12-14T20:00:00","27","ND","ND","ND","4.3","0","0.4","64.6","ND","ND","0","0.2"],
    [84218,"2019-12-14T21:00:00","30.5","ND","ND","ND","3.8","0.1","1","122.6","ND","ND","0","0.5"],
    [84219,"2019-12-14T22:00:00","23.9","ND","ND","ND","4.7","0","1.8","140.6","ND","ND","0","0.1"],
    [84220,"2019-12-14T23:00:00","27.4","ND","ND","ND","4.2","0","1.5","139.5","ND","ND","0","0"],
    [84221,"2019-12-15T00:00:00","26.9","ND","ND","ND","3.9","0","1","127.3","ND","ND","0","0"],
    [84222,"2019-12-15T01:00:00","44.2","ND","ND","ND","4.3","0","0.8","134.4","ND","ND","0","0"],
    [84223,"2019-12-15T02:00:00","40.3","ND","ND","ND","4","0","0.4","358.9","ND","ND","0","0"],
    [84224,"2019-12-15T03:00:00","36.2","ND","ND","ND","3.9","1.4","0.6","14.1","ND","ND","0","0.3"],
    [84225,"2019-12-15T04:00:00","31.4","ND","ND","ND","4.6","1","0.6","353.5","ND","ND","0","0.5"],
    [84226,"2019-12-15T05:00:00","29.2","ND","ND","ND","4","0.4","0.3","357","ND","ND","0","0"],
    [84227,"2019-12-15T06:00:00","52.6","ND","ND","ND","4.3","0.9","0.4","345.2","ND","ND","0","0"],
    [84228,"2019-12-15T07:00:00","36.3","ND","ND","ND","4.7","1.8","0.3","276.1","ND","ND","0","0.1"],
    [84229,"2019-12-15T08:00:00","52.4","ND","ND","ND","5","1.9","0.5","24.4","ND","ND","154","0"],
    [84230,"2019-12-15T09:00:00","28.7","ND","ND","ND","6.6","1.1","1.1","13.3","ND","ND","482","0"],
    [84231,"2019-12-15T10:00:00","7.9","ND","ND","ND","12.9","0.3","0.5","21.4","ND","ND","490","0"],
    [84232,"2019-12-15T11:00:00","24.6","ND","ND","ND","19.7","0","0.4","49.4","ND","ND","612","0"],
    [84233,"2019-12-15T12:00:00","20.6","ND","ND","ND","40.6","0.1","0.7","88.7","ND","ND","664","0"],
    [84234,"2019-12-15T13:00:00","26.9","ND","ND","ND","53.1","0","0.6","82.3","ND","ND","665","0"],
    [84235,"2019-12-15T14:00:00","27.2","ND","ND","ND","57.2","0","0.3","163.7","ND","ND","665","0"],
    [84236,"2019-12-15T15:00:00","22.2","ND","ND","ND","64.7","0","0.3","346.3","ND","ND","665","0"],
    [84237,"2019-12-15T16:00:00","29.2","ND","ND","ND","37.7","0","1.5","265.3","ND","ND","533","0"],
    [84238,"2019-12-15T17:00:00","12.2","ND","ND","ND","18","0","1.5","252.6","ND","ND","456","0"],
    [84239,"2019-12-15T18:00:00","ND","ND","ND","ND","18.7","0","0.8","290.6","ND","ND","469","0"],
    [84240,"2019-12-15T19:00:00","11.4","ND","ND","ND","9.5","0","0.3","216.4","ND","ND","0","0"],
    [84241,"2019-12-15T20:00:00","5.5","ND","ND","ND","5","0","0.1","82.5","ND","ND","0","0"],
    [84242,"2019-12-15T21:00:00","30.4","ND","ND","ND","4.3","1.3","0.4","61.8","ND","ND","0","0"],
    [84243,"2019-12-15T22:00:00","42","ND","ND","ND","4.1","0.3","0.3","37.5","ND","ND","0","0"],
    [84244,"2019-12-15T23:00:00","38.7","ND","ND","ND","4.4","1","0.5","350.7","ND","ND","0","0"],
    [84245,"2019-12-16T00:00:00","32.8","ND","ND","ND","3.5","0.7","0.4","349.9","ND","ND","0","0"],
    [84246,"2019-12-16T01:00:00","33.5","ND","ND","ND","4.1","0","0.3","358.6","ND","ND","0","0"],
    [84247,"2019-12-16T02:00:00","28.6","ND","ND","ND","3.9","0","0.1","296.7","ND","ND","0","0"],
    [84248,"2019-12-16T03:00:00","37.3","ND","ND","ND","4.1","0","0.1","66.3","ND","ND","0","0"],
    [84249,"2019-12-16T04:00:00","34","ND","ND","ND","4","0.5","0.4","356.2","ND","ND","0","0"],
    [84250,"2019-12-16T05:00:00","38.5","ND","ND","ND","3.9","1.5","0.6","355.2","ND","ND","0","0"],
    [84251,"2019-12-16T06:00:00","38.3","ND","ND","ND","4","2.2","0.3","36.7","ND","ND","0","0"],
    [84252,"2019-12-16T07:00:00","68.4","ND","ND","ND","4.1","3.9","0.1","150.9","ND","ND","0","ND"],
    [84253,"2019-12-16T08:00:00","69.1","ND","ND","ND","4.1","1","1.1","126.4","ND","ND","48","0"],
    [84254,"2019-12-16T09:00:00","50.1","ND","ND","ND","8.3","0.2","1.8","117","ND","ND","504","ND"],
    [84255,"2019-12-16T10:00:00","29.5","ND","ND","ND","17.6","0","1.5","99","ND","ND","660","0"],
    [84256,"2019-12-16T11:00:00","44.7","ND","ND","ND","35.9","0","0.3","92.6","ND","ND","664","0"],
    [84257,"2019-12-16T12:00:00","41.8","ND","ND","ND","58.8","0","0.7","15.9","ND","ND","665","0"],
    [84258,"2019-12-16T13:00:00","27.6","ND","ND","ND","44.9","0","0.9","319.6","ND","ND","665","0"],
    [84259,"2019-12-16T14:00:00","21","ND","ND","ND","43.1","0","0.6","147.2","ND","ND","582","0"],
    [84260,"2019-12-16T15:00:00","19.9","ND","ND","ND","46.7","0","0.1","198.7","ND","ND","665","0"],
    [84261,"2019-12-16T16:00:00","ND","ND","ND","ND","27.7","0","0.9","305.6","ND","ND","646","ND"],
    [84262,"2019-12-16T17:00:00","21.8","ND","ND","ND","24.5","0","2.4","249","ND","ND","440","0"],
    [84263,"2019-12-16T18:00:00","25.4","ND","ND","ND","14.3","0","0.4","205.1","ND","ND","455","0"],
    [84264,"2019-12-16T19:00:00","21.1","ND","ND","ND","7","0.2","0.8","88","ND","ND","0","ND"],
    [84265,"2019-12-16T20:00:00","41","ND","ND","ND","4.6","1.6","0.6","45.2","ND","ND","0","0.1"],
    [84266,"2019-12-16T21:00:00","52.7","ND","ND","ND","3.9","0.9","0.7","77.2","ND","ND","0","0"],
    [84267,"2019-12-16T22:00:00","40.3","ND","ND","ND","9","1","0.4","34.1","ND","ND","0","0"],
    [84268,"2019-12-16T23:00:00","48","ND","ND","ND","4.3","1.6","0.4","86.7","ND","ND","0","0"],
    [84269,"2019-12-17T00:00:00","30.7","ND","ND","ND","4.4","0.6","0.4","74.6","ND","ND","0","0"],
    [84270,"2019-12-17T01:00:00","27","ND","ND","ND","3.8","0.5","0.5","320.7","ND","ND","0","0"],
    [84271,"2019-12-17T02:00:00","44.8","ND","ND","ND","4.5","2.7","0.6","330.5","ND","ND","0","ND"],
    [84272,"2019-12-17T03:00:00","30.8","ND","ND","ND","4","3.3","0.1","6.3","ND","ND","0","0.7"],
    [84273,"2019-12-17T04:00:00","35.5","ND","ND","ND","4","2.5","0.1","355.7","ND","ND","0","0.7"],
    [84274,"2019-12-17T05:00:00","42","ND","ND","ND","4.3","1.2","0.4","8.3","ND","ND","0","1.7"],
    [84275,"2019-12-17T06:00:00","63.6","ND","ND","ND","4","1.6","0.8","350.6","ND","ND","0","0"],
    [84276,"2019-12-17T07:00:00","61.8","ND","ND","ND","4.2","3.6","0.6","356.9","ND","ND","0","0.1"],
    [84277,"2019-12-17T08:00:00","56.8","ND","ND","ND","4.5","5.1","0.5","343.6","ND","ND","104","0"],
    [84278,"2019-12-17T09:00:00","48.1","ND","ND","ND","6.9","1.4","0.8","33.5","ND","ND","526","0.2"],
    [84279,"2019-12-17T10:00:00","21.8","ND","ND","ND","17.4","0","1.1","64.3","ND","ND","651","0"],
    [84280,"2019-12-17T11:00:00","6.9","ND","ND","ND","22.3","0.1","0.8","162.2","ND","ND","664","ND"],
    [84281,"2019-12-17T12:00:00","27","ND","ND","ND","30.9","0","0.5","125.3","ND","ND","576","ND"],
    [84282,"2019-12-17T13:00:00","34","ND","ND","ND","60.3","0","0.4","69.3","ND","ND","665","0"],
    [84283,"2019-12-17T14:00:00","7.3","ND","ND","ND","73.8","0","0.3","196.3","ND","ND","665","0"],
    [84284,"2019-12-17T15:00:00","3.6","ND","ND","ND","27.9","0","0.9","90.9","ND","ND","448","0"],
    [84285,"2019-12-17T16:00:00","32.1","ND","ND","ND","8.5","0.6","0.8","347.1","ND","ND","157","0"],
    [84286,"2019-12-17T17:00:00","46.4","ND","ND","ND","9.5","1.3","1.1","343.7","ND","ND","468","3.1"],
    [84287,"2019-12-17T18:00:00","26.4","ND","ND","ND","6","2.9","0.5","335.5","ND","ND","397","0"],
    [84288,"2019-12-17T19:00:00","35.6","ND","ND","ND","3.9","3.3","0.4","76.5","ND","ND","0","0.1"],
    [84289,"2019-12-17T20:00:00","29.5","ND","ND","ND","4.4","2.5","0.6","96.8","ND","ND","0","0.2"],
    [84290,"2019-12-17T21:00:00","43.1","ND","ND","ND","4.4","2","1.3","140","ND","ND","0","0.1"],
    [84291,"2019-12-17T22:00:00","37.4","ND","ND","ND","4.9","0","1.2","135.3","ND","ND","0","0.2"],
    [84292,"2019-12-17T23:00:00","19.5","ND","ND","ND","4","0","0.3","292.7","ND","ND","0","0"],
    [84293,"2019-12-18T00:00:00","0.3","ND","ND","ND","4.5","0.7","0.4","321.8","ND","ND","0","0"],
    [84294,"2019-12-18T01:00:00","ND","ND","ND","ND","4.5","2.1","0.4","337.7","ND","ND","0","ND"],
    [84295,"2019-12-18T02:00:00","8","ND","ND","ND","4.1","1.7","0.6","1.9","ND","ND","0","0"],
    [84296,"2019-12-18T03:00:00","42.5","ND","ND","ND","4.4","1.7","0.2","12.1","ND","ND","0","ND"],
    [84297,"2019-12-18T04:00:00","25.5","ND","ND","ND","3.8","1.3","0.2","110.9","ND","ND","0","ND"],
    [84298,"2019-12-18T05:00:00","1.1","ND","ND","ND","4.2","1.1","0.5","4.4","ND","ND","0","0"],
    [84299,"2019-12-18T06:00:00","25.7","ND","ND","ND","4.2","2.6","0.5","19.3","ND","ND","0","ND"],
    [84300,"2019-12-18T07:00:00","49.1","ND","ND","ND","4.3","4.2","0.2","353","ND","ND","0","ND"],
    [84301,"2019-12-18T08:00:00","68","ND","ND","ND","4.3","3.4","0.3","66.1","ND","ND","28","0"],
    [84302,"2019-12-18T09:00:00","75.1","ND","ND","ND","5.1","1.8","1.3","112.3","ND","ND","400","ND"],
    [84303,"2019-12-18T10:00:00","64.8","ND","ND","ND","13.1","1","0.8","116.8","ND","ND","609","0"],
    [84304,"2019-12-18T11:00:00","29.4","ND","ND","ND","26.1","0","0.4","93.6","ND","ND","663","0"],
    [84305,"2019-12-18T12:00:00","51.3","ND","ND","ND","58.6","0","0.7","103.1","ND","ND","664","ND"],
    [84306,"2019-12-18T13:00:00","43.8","ND","ND","ND","67.6","0.2","0.5","344.7","ND","ND","665","0"],
    [84307,"2019-12-18T14:00:00","24","ND","ND","ND","20.2","0","1.4","241.7","ND","ND","408","ND"],
    [84308,"2019-12-18T15:00:00","2.3","ND","ND","ND","15.6","0","0.3","242.2","ND","ND","359","0"],
    [84309,"2019-12-18T16:00:00","15.8","ND","ND","ND","20","0","1","113.8","ND","ND","403","ND"],
    [84310,"2019-12-18T17:00:00","13.2","ND","ND","ND","17.5","0","0.2","211.8","ND","ND","587","0"],
    [84311,"2019-12-18T18:00:00","14.6","ND","ND","ND","11.2","0","0.6","218.2","ND","ND","381","15.4"],
    [84312,"2019-12-18T19:00:00","11.2","ND","ND","ND","5.4","0","0.1","260.9","ND","ND","0","0.2"],
    [84313,"2019-12-18T20:00:00","35.4","ND","ND","ND","4.1","0","0.1","340.4","ND","ND","0","0"],
    [84314,"2019-12-18T21:00:00","70.5","ND","ND","ND","4.3","0.5","0.3","10.5","ND","ND","0","0"],
    [84315,"2019-12-18T22:00:00","61.6","ND","ND","ND","4.4","0.7","0.3","337.8","ND","ND","0","ND"],
    [84316,"2019-12-18T23:00:00","64.4","ND","ND","ND","4.2","0.3","0.2","326.2","ND","ND","0","0"],
    [84317,"2019-12-19T00:00:00","61.2","ND","ND","ND","4","0","0.2","227.1","ND","ND","0","0"],
    [84318,"2019-12-19T01:00:00","40.4","ND","ND","ND","4.3","0.3","0.1","92.4","ND","ND","0","0"],
    [84319,"2019-12-19T02:00:00","8.2","ND","ND","ND","3.7","0","0.2","288.6","ND","ND","0","0"],
    [84320,"2019-12-19T03:00:00","35.2","ND","ND","ND","3.9","0.2","0.1","235.8","ND","ND","0","ND"],
    [84321,"2019-12-19T04:00:00","34.3","ND","ND","ND","4.1","0.4","0.6","3","ND","ND","0","ND"],
    [84322,"2019-12-19T05:00:00","53.7","ND","ND","ND","4.6","5.2","0.3","313","ND","ND","0","0"],
    [84323,"2019-12-19T06:00:00","94.2","ND","ND","ND","4.6","4.8","0.4","1.8","ND","ND","0","0"],
    [84324,"2019-12-19T07:00:00","95.6","ND","ND","ND","4.8","2.7","0.6","2.2","ND","ND","0","0"],
    [84325,"2019-12-19T08:00:00","124.6","ND","ND","ND","4.7","3.8","0.1","336.1","ND","ND","49","0"],
    [84326,"2019-12-19T09:00:00","94.3","ND","ND","ND","7.1","2.1","0.9","121.9","ND","ND","331","0"],
    [84327,"2019-12-19T10:00:00","55.6","ND","ND","ND","27","0.3","0.6","109.6","ND","ND","653","0"],
    [84328,"2019-12-19T11:00:00","50.5","ND","ND","ND","55.1","0","0.7","90.3","ND","ND","662","0"],
    [84329,"2019-12-19T12:00:00","43.3","ND","ND","ND","73","0","0.8","48.5","ND","ND","665","0"],
    [84330,"2019-12-19T13:00:00","37.3","ND","ND","ND","85.9","0","0.7","61.9","ND","ND","662","0"],
    [84331,"2019-12-19T14:00:00","35.6","ND","ND","ND","99","0","0.8","28.7","ND","ND","665","0"],
    [84332,"2019-12-19T15:00:00","23.9","ND","ND","ND","55","0","0.9","322.3","ND","ND","646","0"],
    [84333,"2019-12-19T16:00:00","10.9","ND","ND","ND","28.2","0","0.8","307.3","ND","ND","602","0"],
    [84334,"2019-12-19T17:00:00","5.4","ND","ND","ND","25.6","0","1.9","255.3","ND","ND","445","0"],
    [84335,"2019-12-19T18:00:00","18.6","ND","ND","ND","17.9","0","0.3","243.2","ND","ND","506","0"],
    [84336,"2019-12-19T19:00:00","30.4","ND","ND","ND","11.8","0","0.2","71.6","ND","ND","0","0"],
    [84337,"2019-12-19T20:00:00","57.7","ND","ND","ND","4.5","0","0.6","66.1","ND","ND","0","ND"],
    [84338,"2019-12-19T21:00:00","65.2","ND","ND","ND","5.4","0.3","0.7","46.7","ND","ND","0","0"],
    [84339,"2019-12-19T22:00:00","42.9","ND","ND","ND","4.1","2.1","0.6","69.4","ND","ND","0","ND"],
    [84340,"2019-12-19T23:00:00","45.2","ND","ND","ND","4.3","1.4","0.4","74.7","ND","ND","0","0.1"],
    [84341,"2019-12-20T00:00:00","46.7","ND","ND","ND","4.6","2.9","0.6","9.3","ND","ND","0","0"],
    [84342,"2019-12-20T01:00:00","60.1","ND","ND","ND","3.9","0.8","0.4","5.2","ND","ND","0","0"],
    [84343,"2019-12-20T02:00:00","52.5","ND","ND","ND","4.7","0.9","0","200.3","ND","ND","0","0"],
    [84344,"2019-12-20T03:00:00","34.3","ND","ND","ND","4.2","1","0.1","269.2","ND","ND","0","ND"],
    [84345,"2019-12-20T04:00:00","28.3","ND","ND","ND","4.2","0.7","0.3","348.8","ND","ND","0","0"],
    [84346,"2019-12-20T05:00:00","42.5","ND","ND","ND","4.7","1.7","0.4","21.8","ND","ND","0","0"],
    [84347,"2019-12-20T06:00:00","79.6","ND","ND","ND","4.2","2.8","0.4","7.5","ND","ND","0","0"],
    [84348,"2019-12-20T07:00:00","65.3","ND","ND","ND","4.5","2.5","0.4","305.8","ND","ND","0","0"],
    [84349,"2019-12-20T08:00:00","70.6","ND","ND","ND","4.5","2.1","0.4","10","ND","ND","59","ND"],
    [84350,"2019-12-20T09:00:00","72.2","ND","ND","ND","5.6","1.4","0.4","107","ND","ND","263","0"],
    [84351,"2019-12-20T10:00:00","67.5","ND","ND","ND","20","1","1.2","81.8","ND","ND","577","0"],
    [84352,"2019-12-20T11:00:00","35.2","ND","ND","ND","28.9","0","1.1","123.6","ND","ND","663","0"],
    [84353,"2019-12-20T12:00:00","13.1","ND","ND","ND","40.3","0.6","0.9","118.7","ND","ND","558","0"],
    [84354,"2019-12-20T13:00:00","45.9","ND","ND","ND","67.5","0.1","0.9","138.7","ND","ND","650","0"],
    [84355,"2019-12-20T14:00:00","41.2","ND","ND","ND","81.4","0","0.6","68.6","ND","ND","665","0"],
    [84356,"2019-12-20T15:00:00","37.5","ND","ND","ND","52.3","0","0.2","240","ND","ND","600","0"],
    [84357,"2019-12-20T16:00:00","30.7","ND","ND","ND","30.4","0","0.9","216.9","ND","ND","566","0"],
    [84358,"2019-12-20T17:00:00","17.9","ND","ND","ND","18.9","0","1","238.8","ND","ND","504","0"],
    [84359,"2019-12-20T18:00:00","23.5","ND","ND","ND","14.4","0","0.7","230.7","ND","ND","283","0"],
    [84360,"2019-12-20T19:00:00","2.9","ND","ND","ND","6.6","0","0.1","141.4","ND","ND","0","0"],
    [84361,"2019-12-20T20:00:00","28.2","ND","ND","ND","4.5","0","0.2","109.4","ND","ND","0","2.6"],
    [84362,"2019-12-20T21:00:00","49.4","ND","ND","ND","4.4","0.3","0.4","84.3","ND","ND","0","0"],
    [84363,"2019-12-20T22:00:00","62.5","ND","ND","ND","4.7","1.2","0.1","40.4","ND","ND","0","0"],
    [84364,"2019-12-20T23:00:00","67","ND","ND","ND","4.4","1.5","0.4","28","ND","ND","0","0"],
    [84365,"2019-12-21T00:00:00","37.8","ND","ND","ND","4","1.1","0.3","93.3","ND","ND","0","0"],
    [84366,"2019-12-21T01:00:00","43.4","ND","ND","ND","4.8","1.9","0.6","126.5","ND","ND","0","ND"],
    [84367,"2019-12-21T02:00:00","14.7","ND","ND","ND","4.1","2.7","0.6","18.2","ND","ND","0","ND"],
    [84368,"2019-12-21T03:00:00","28.4","ND","ND","ND","4.3","2","0.3","5.6","ND","ND","0","ND"],
    [84369,"2019-12-21T04:00:00","5.9","ND","ND","ND","4.2","1.6","0.2","10.3","ND","ND","0","ND"],
    [84370,"2019-12-21T05:00:00","32.2","ND","ND","ND","4.6","1.7","0.2","354","ND","ND","0","ND"],
    [84371,"2019-12-21T06:00:00","60.3","ND","ND","ND","4.5","3.4","0.5","16.9","ND","ND","0","ND"],
    [84372,"2019-12-21T07:00:00","48.6","ND","ND","ND","4.3","2.5","0.2","354.1","ND","ND","0","ND"],
    [84373,"2019-12-21T08:00:00","53.8","ND","ND","ND","4.8","3","0.7","11.2","ND","ND","49","ND"],
    [84374,"2019-12-21T09:00:00","75.8","ND","ND","ND","4.7","2.3","0.7","42.2","ND","ND","249","ND"],
    [84375,"2019-12-21T10:00:00","63.8","ND","ND","ND","6.4","1.6","0.7","6.9","ND","ND","551","ND"],
    [84376,"2019-12-21T11:00:00","43","ND","ND","ND","18.3","0.8","0.6","103","ND","ND","664","ND"],
    [84377,"2019-12-21T12:00:00","57.5","ND","ND","ND","35.3","0.8","0.6","33.8","ND","ND","664","ND"],
    [84378,"2019-12-21T13:00:00","71.4","ND","ND","ND","59.7","0","0.7","61.4","ND","ND","665","ND"],
    [84379,"2019-12-21T14:00:00","43.4","ND","ND","ND","72.1","0","0.5","347.9","ND","ND","665","ND"],
    [84380,"2019-12-21T15:00:00","27.6","ND","ND","ND","58.5","0","0.7","4.4","ND","ND","637","ND"],
    [84381,"2019-12-21T16:00:00","34.8","ND","ND","ND","41.7","0.3","0.3","309.3","ND","ND","471","ND"],
    [84382,"2019-12-21T17:00:00","19.2","ND","ND","ND","26.7","0","0.9","256.3","ND","ND","443","ND"],
    [84383,"2019-12-21T18:00:00","27.7","ND","ND","ND","22.4","0","0.4","269.7","ND","ND","167","ND"],
    [84384,"2019-12-21T19:00:00","9.9","ND","ND","ND","9.3","0","0.4","34.4","ND","ND","0","ND"],
    [84385,"2019-12-21T20:00:00","42.1","ND","ND","ND","4.5","0","0.1","126.8","ND","ND","0","ND"],
    [84386,"2019-12-21T21:00:00","58.5","ND","ND","ND","4.9","0.5","0.5","50","ND","ND","0","ND"],
    [84387,"2019-12-21T22:00:00","53.6","ND","ND","ND","4.2","1.2","0.1","198.9","ND","ND","0","ND"],
    [84388,"2019-12-21T23:00:00","50.8","ND","ND","ND","4.6","0.5","0.2","11.1","ND","ND","0","ND"],
    [84389,"2019-12-22T00:00:00","46.8","ND","ND","ND","4.6","4.5","0.3","349.9","ND","ND","0","ND"],
    [84390,"2019-12-22T01:00:00","48.1","ND","ND","ND","4.6","3.3","0.4","118","ND","ND","0","0"],
    [84391,"2019-12-22T02:00:00","36.5","ND","ND","ND","4.3","2.1","0.4","90.9","ND","ND","0","0"],
    [84392,"2019-12-22T03:00:00","51.3","ND","ND","ND","4.4","1.4","0","148.6","ND","ND","0","0"],
    [84393,"2019-12-22T04:00:00","22.1","ND","ND","ND","4.3","0.3","0.2","252.7","ND","ND","0","0"],
    [84394,"2019-12-22T05:00:00","15.5","ND","ND","ND","4.5","0.4","0.1","266.5","ND","ND","0","0"],
    [84395,"2019-12-22T06:00:00","26","ND","ND","ND","4.5","1.9","0.6","6.4","ND","ND","0","0"],
    [84396,"2019-12-22T07:00:00","59.5","ND","ND","ND","4.7","2.6","0.3","344.8","ND","ND","0","0"],
    [84397,"2019-12-22T08:00:00","61.1","ND","ND","ND","4.7","2.3","0.7","6.3","ND","ND","80","0"],
    [84398,"2019-12-22T09:00:00","64.8","ND","ND","ND","5.1","1.8","0.4","1.2","ND","ND","298","0"],
    [84399,"2019-12-22T10:00:00","52.5","ND","ND","ND","7.1","1.8","0.4","99.5","ND","ND","359","0"],
    [84400,"2019-12-22T11:00:00","77.7","ND","ND","ND","18.6","0.4","1","26","ND","ND","561","0"],
    [84401,"2019-12-22T12:00:00","34.9","ND","ND","ND","29.9","0.7","0.9","21.1","ND","ND","664","0"],
    [84402,"2019-12-22T13:00:00","27.5","ND","ND","ND","47","0.7","0.7","42.1","ND","ND","665","0"],
    [84403,"2019-12-22T14:00:00","34.8","ND","ND","ND","72.2","0","0.7","75.9","ND","ND","665","0"],
    [84404,"2019-12-22T15:00:00","20.3","ND","ND","ND","67.2","0.3","0.7","344.3","ND","ND","662","0"],
    [84405,"2019-12-22T16:00:00","21.5","ND","ND","ND","41.4","0","1.8","227.9","ND","ND","635","0"],
    [84406,"2019-12-22T17:00:00","17.4","ND","ND","ND","40.4","0","1.9","233.8","ND","ND","598","0"],
    [84407,"2019-12-22T18:00:00","17.7","ND","ND","ND","27.4","0","1","228.4","ND","ND","382","0"],
    [84408,"2019-12-22T19:00:00","18.6","ND","ND","ND","17.2","0","0.4","78.1","ND","ND","0","0.1"],
    [84409,"2019-12-22T20:00:00","19.4","ND","ND","ND","6.8","0","0.4","35.6","ND","ND","0","1.6"],
    [84410,"2019-12-22T21:00:00","28.4","ND","ND","ND","5.8","0","0.6","53.7","ND","ND","0","0.2"],
    [84411,"2019-12-22T22:00:00","38.9","ND","ND","ND","4.7","0.6","0.4","55.9","ND","ND","0","0.2"],
    [84412,"2019-12-22T23:00:00","31.6","ND","ND","ND","4.7","2.2","0.4","120","ND","ND","0","0.5"],
    [84413,"2019-12-23T00:00:00","11.2","ND","ND","ND","4.5","2","0.3","35.9","ND","ND","0","0"],
    [84414,"2019-12-23T01:00:00","30.9","ND","ND","ND","4.4","1.8","0.4","55.8","ND","ND","0","0"],
    [84415,"2019-12-23T02:00:00","12.2","ND","ND","ND","4.4","1.6","0.3","23.8","ND","ND","0","0"],
    [84416,"2019-12-23T03:00:00","27.5","ND","ND","ND","5.4","1.1","0.8","95.9","ND","ND","0","0"],
    [84417,"2019-12-23T04:00:00","38.5","ND","ND","ND","5.6","0","0.3","19.8","ND","ND","0","0"],
    [84418,"2019-12-23T05:00:00","34.7","ND","ND","ND","4.8","1","0.4","335.8","ND","ND","0","0"],
    [84419,"2019-12-23T06:00:00","25.9","ND","ND","ND","4.2","0.7","0.5","8.5","ND","ND","0","0"],
    [84420,"2019-12-23T07:00:00","36","ND","ND","ND","4.7","1.6","0.9","0.1","ND","ND","0","0"],
    [84421,"2019-12-23T08:00:00","39.5","ND","ND","ND","4.7","2.7","0.1","63.1","ND","ND","43","0"],
    [84422,"2019-12-23T09:00:00","37.2","ND","ND","ND","5","1.5","0.4","21.1","ND","ND","341","0"],
    [84423,"2019-12-23T10:00:00","17","ND","ND","ND","9.8","0.7","0.7","22.5","ND","ND","376","0"],
    [84424,"2019-12-23T11:00:00","ND","ND","ND","ND","27.4","0.1","0.3","112.1","ND","ND","650","0"],
    [84425,"2019-12-23T12:00:00","ND","ND","ND","ND","51.3","0","0.7","90.3","ND","ND","641","0"],
    [84426,"2019-12-23T13:00:00","26.5","ND","ND","ND","62","0","1.2","106.3","ND","ND","661","0"],
    [84427,"2019-12-23T14:00:00","26.1","ND","ND","ND","68.2","0","0.7","183.2","ND","ND","640","0"],
    [84428,"2019-12-23T15:00:00","31.6","ND","ND","ND","32","0","0.9","233.7","ND","ND","360","0"],
    [84429,"2019-12-23T16:00:00","32.3","ND","ND","ND","ND","0","0.4","192.7","ND","ND","181","0"],
    [84430,"2019-12-23T17:00:00","19.3","ND","ND","ND","10.4","6.5","0.6","252.8","ND","ND","403","0"],
    [84431,"2019-12-23T18:00:00","ND","ND","ND","ND","7.1","0","0.6","220.5","ND","ND","457","0"],
    [84432,"2019-12-23T19:00:00","ND","ND","ND","ND","3.9","0","0.3","217.8","ND","ND","0","0.2"],
    [84433,"2019-12-23T20:00:00","22.6","ND","ND","ND","3.9","0.3","0.1","126","ND","ND","0","0"],
    [84434,"2019-12-23T21:00:00","49.9","ND","ND","ND","3.8","1.3","0.4","292.3","ND","ND","0","0"],
    [84435,"2019-12-23T22:00:00","61.2","ND","ND","ND","4","0.8","0.3","343.4","ND","ND","0","0"],
    [84436,"2019-12-23T23:00:00","55","ND","ND","ND","3.4","1.5","0.2","253.5","ND","ND","0","0"],
    [84437,"2019-12-24T00:00:00","37","ND","ND","ND","3.5","0.8","0","253.6","ND","ND","0","0"],
    [84438,"2019-12-24T01:00:00","31","ND","ND","ND","3.4","0","0.1","345.9","ND","ND","0","0"],
    [84439,"2019-12-24T02:00:00","21.9","ND","ND","ND","3.5","1.4","0.5","340.3","ND","ND","0","0"],
    [84440,"2019-12-24T03:00:00","52.5","ND","ND","ND","3.7","4.9","0.5","342.7","ND","ND","0","0"],
    [84441,"2019-12-24T04:00:00","52.2","ND","ND","ND","3.2","4.6","0.2","355.1","ND","ND","0","5.6"],
    [84442,"2019-12-24T05:00:00","40.6","ND","ND","ND","3.4","4.1","0.4","7.1","ND","ND","0","19.8"],
    [84443,"2019-12-24T06:00:00","48.9","ND","ND","ND","3.5","4.4","0.3","55.4","ND","ND","0","0.2"],
    [84444,"2019-12-24T07:00:00","34.9","ND","ND","ND","3.6","3.9","0.2","33.8","ND","ND","0","0.1"],
    [84445,"2019-12-24T08:00:00","38.5","ND","ND","ND","4.2","2.3","1.2","129.9","ND","ND","68","0"],
    [84446,"2019-12-24T09:00:00","59.9","ND","ND","ND","13.1","0.3","1.5","119.4","ND","ND","359","0"],
    [84447,"2019-12-24T10:00:00","47.5","ND","ND","ND","27.1","0.9","1.2","95.7","ND","ND","664","0"],
    [84448,"2019-12-24T11:00:00","33.9","ND","ND","ND","47.9","0.9","1.1","94.3","ND","ND","665","0"],
    [84449,"2019-12-24T12:00:00","38.4","ND","ND","ND","58.4","0","0.7","64.6","ND","ND","665","0"],
    [84450,"2019-12-24T13:00:00","26.1","ND","ND","ND","74.4","0","0.9","83.2","ND","ND","665","0"],
    [84451,"2019-12-24T14:00:00","30.1","ND","ND","ND","82.4","0","0.2","242.8","ND","ND","666","0"],
    [84452,"2019-12-24T15:00:00","36.8","ND","ND","ND","48.7","0","0.8","255.2","ND","ND","647","0"],
    [84453,"2019-12-24T16:00:00","2.6","ND","ND","ND","20.7","0","1.9","240.1","ND","ND","312","0"],
    [84454,"2019-12-24T17:00:00","25.6","ND","ND","ND","18.9","0","1.2","224.1","ND","ND","250","0"],
    [84455,"2019-12-24T18:00:00","45.1","ND","ND","ND","26.1","0","0.6","238.1","ND","ND","265","1.1"],
    [84456,"2019-12-24T19:00:00","25.3","ND","ND","ND","9.3","0","0","4.1","ND","ND","0","2.6"],
    [84457,"2019-12-24T20:00:00","2.7","ND","ND","ND","6.9","0","0.1","54.6","ND","ND","0","0.3"],
    [84458,"2019-12-24T21:00:00","10.4","ND","ND","ND","3.7","0.2","0.4","64.9","ND","ND","0","0.1"],
    [84459,"2019-12-24T22:00:00","36.6","ND","ND","ND","3.6","2","0.3","32.5","ND","ND","0","2.9"],
    [84460,"2019-12-24T23:00:00","19.8","ND","ND","ND","3.5","4.5","0.2","41","ND","ND","0","2.1"],
    [84461,"2019-12-25T00:00:00","23.7","ND","ND","ND","3.6","7.6","0.4","116.1","ND","ND","0","7.5"],
    [84462,"2019-12-25T01:00:00","31","ND","ND","ND","3.4","6.4","0.3","71.8","ND","ND","0","0"],
    [84463,"2019-12-25T02:00:00","13.4","ND","ND","ND","3.4","2.2","0.9","130.9","ND","ND","0","0"],
    [84464,"2019-12-25T03:00:00","33","ND","ND","ND","3.5","1","0.8","110.4","ND","ND","0","0"],
    [84465,"2019-12-25T04:00:00","44.9","ND","ND","ND","3.5","0.7","0.8","136.2","ND","ND","0","0"],
    [84466,"2019-12-25T05:00:00","32.8","ND","ND","ND","3.6","0.3","0.2","244.4","ND","ND","0","0"],
    [84467,"2019-12-25T06:00:00","19.9","ND","ND","ND","3.7","2.5","0.8","8","ND","ND","0","0"],
    [84468,"2019-12-25T07:00:00","22.9","ND","ND","ND","3.7","3.3","0.3","346.7","ND","ND","0","0"],
    [84469,"2019-12-25T08:00:00","28","ND","ND","ND","4.7","2.6","0.2","317.4","ND","ND","39","0"],
    [84470,"2019-12-25T09:00:00","26.5","ND","ND","ND","6.3","3.6","0.2","14.2","ND","ND","245","0"],
    [84471,"2019-12-25T10:00:00","38.8","ND","ND","ND","9.5","2.3","0.6","33.1","ND","ND","536","0.1"],
    [84472,"2019-12-25T11:00:00","38.1","ND","ND","ND","18.2","0.2","0.8","72.7","ND","ND","665","0"],
    [84473,"2019-12-25T12:00:00","40.5","ND","ND","ND","37.5","0.3","1.2","120.9","ND","ND","665","0"],
    [84474,"2019-12-25T13:00:00","32","ND","ND","ND","55","0","1.1","121.1","ND","ND","665","0"],
    [84475,"2019-12-25T14:00:00","6.4","ND","ND","ND","65.6","0","0.7","134","ND","ND","666","0"],
    [84476,"2019-12-25T15:00:00","7.8","ND","ND","ND","73.7","0","0.6","111.9","ND","ND","662","0"],
    [84477,"2019-12-25T16:00:00","25.7","ND","ND","ND","28.9","0","0.9","321.1","ND","ND","650","0"],
    [84478,"2019-12-25T17:00:00","ND","ND","ND","ND","29.8","0","1.2","220.9","ND","ND","347","0"],
    [84479,"2019-12-25T18:00:00","0.5","ND","ND","ND","22.3","0","0.5","243.2","ND","ND","372","0"],
    [84480,"2019-12-25T19:00:00","10.9","ND","ND","ND","11.6","0","0.2","62.2","ND","ND","0","0"],
    [84481,"2019-12-25T20:00:00","24.3","ND","ND","ND","6","0","0.4","74.6","ND","ND","0","0"],
    [84482,"2019-12-25T21:00:00","18.5","ND","ND","ND","3.6","1.1","0.4","20.4","ND","ND","0","0"],
    [84483,"2019-12-25T22:00:00","41.2","ND","ND","ND","3.6","2.9","0.7","124.3","ND","ND","0","0"],
    [84484,"2019-12-25T23:00:00","45.2","ND","ND","ND","3.4","2.4","0.5","170.3","ND","ND","0","0"],
    [84485,"2019-12-26T00:00:00","21.8","ND","ND","ND","5.1","0.2","0.8","227.2","ND","ND","0","0"],
    [84486,"2019-12-26T01:00:00","26.5","ND","ND","ND","5.6","0.2","0.1","68","ND","ND","0","0"],
    [84487,"2019-12-26T02:00:00","19.9","ND","ND","ND","3.7","4.6","0.5","359.1","ND","ND","0","0"],
    [84488,"2019-12-26T03:00:00","24.6","ND","ND","ND","3.4","2.1","0.4","12.7","ND","ND","0","0"],
    [84489,"2019-12-26T04:00:00","45.2","ND","ND","ND","3.7","1.6","0.3","289","ND","ND","0","0"],
    [84490,"2019-12-26T05:00:00","24.6","ND","ND","ND","3.6","1.3","0.1","112.8","ND","ND","0","0"],
    [84491,"2019-12-26T06:00:00","27.8","ND","ND","ND","3.5","0.8","0.2","136.8","ND","ND","0","0"],
    [84492,"2019-12-26T07:00:00","29.9","ND","ND","ND","3.6","1.4","0.6","349.9","ND","ND","0","0"],
    [84493,"2019-12-26T08:00:00","51.1","ND","ND","ND","4.8","3.7","0.3","42.3","ND","ND","43","0"],
    [84494,"2019-12-26T09:00:00","72.3","ND","ND","ND","9.5","1.1","1.1","123.6","ND","ND","356","0"],
    [84495,"2019-12-26T10:00:00","38.9","ND","ND","ND","26.8","0","0.7","97.6","ND","ND","578","0"],
    [84496,"2019-12-26T11:00:00","35.7","ND","ND","ND","44.8","0","0.6","83.5","ND","ND","664","0"],
    [84497,"2019-12-26T12:00:00","20.1","ND","ND","ND","65.1","0","0.5","64.4","ND","ND","665","0"],
    [84498,"2019-12-26T13:00:00","20.1","ND","ND","ND","77.2","0","0.5","35.5","ND","ND","666","0"],
    [84499,"2019-12-26T14:00:00","42.1","ND","ND","ND","67.5","0.2","1","29.5","ND","ND","663","0"],
    [84500,"2019-12-26T15:00:00","13.1","ND","ND","ND","37.9","0","0.9","231.7","ND","ND","623","0"],
    [84501,"2019-12-26T16:00:00","ND","ND","ND","ND","26.5","0","3","251","ND","ND","589","0"],
    [84502,"2019-12-26T17:00:00","ND","ND","ND","ND","23.7","0","2","238.9","ND","ND","649","0.6"],
    [84503,"2019-12-26T18:00:00","ND","ND","ND","ND","19.4","0","0.3","322.9","ND","ND","354","2.2"],
    [84504,"2019-12-26T19:00:00","17.3","ND","ND","ND","7.5","0","0.2","23.8","ND","ND","0","0"],
    [84505,"2019-12-26T20:00:00","38","ND","ND","ND","9.6","0","0.6","350.7","ND","ND","0","0"],
    [84506,"2019-12-26T21:00:00","48.9","ND","ND","ND","5","0","0.3","23.8","ND","ND","0","0"],
    [84507,"2019-12-26T22:00:00","40.4","ND","ND","ND","3.8","1.4","0.7","94.4","ND","ND","0","0"],
    [84508,"2019-12-26T23:00:00","31.2","ND","ND","ND","3.4","0.6","0.4","84.8","ND","ND","0","0"],
    [84509,"2019-12-27T00:00:00","34.9","ND","ND","ND","3.4","0.7","0.3","41.7","ND","ND","0","0"],
    [84510,"2019-12-27T01:00:00","23.7","ND","ND","ND","3.6","2.3","0.3","77.3","ND","ND","0","0.1"],
    [84511,"2019-12-27T02:00:00","9.8","ND","ND","ND","4.5","2","0.8","129.6","ND","ND","0","0"],
    [84512,"2019-12-27T03:00:00","3.3","ND","ND","ND","6.9","0.4","0.9","128.7","ND","ND","0","0"],
    [84513,"2019-12-27T04:00:00","28.8","ND","ND","ND","4.1","2.7","0.5","18.7","ND","ND","0","0"],
    [84514,"2019-12-27T05:00:00","61.7","ND","ND","ND","3.7","4.2","0.7","5.8","ND","ND","0","0.5"],
    [84515,"2019-12-27T06:00:00","81","ND","ND","ND","3.7","3.6","0.6","351","ND","ND","0","0.5"],
    [84516,"2019-12-27T07:00:00","70.4","ND","ND","ND","3.6","1.2","0.5","1.4","ND","ND","0","0.2"],
    [84517,"2019-12-27T08:00:00","51.8","ND","ND","ND","3.9","1.6","0.5","77","ND","ND","56","0"],
    [84518,"2019-12-27T09:00:00","48.9","ND","ND","ND","4.7","1.5","0.1","136.3","ND","ND","166","ND"],
    [84519,"2019-12-27T10:00:00","54.1","ND","ND","ND","6.6","0","0.7","17.7","ND","ND","343","0.1"],
    [84520,"2019-12-27T11:00:00","71","ND","ND","ND","15","1","0.8","6.4","ND","ND","506","0"],
    [84521,"2019-12-27T12:00:00","63.6","ND","ND","ND","33.4","0.5","0.8","5.1","ND","ND","665","0"],
    [84522,"2019-12-27T13:00:00","60.1","ND","ND","ND","60","0","0.8","9.4","ND","ND","665","ND"],
    [84523,"2019-12-27T14:00:00","15.5","ND","ND","ND","47.7","0.9","0.9","338","ND","ND","665","0"],
    [84524,"2019-12-27T15:00:00","12.7","ND","ND","ND","40.3","0","1.1","0.6","ND","ND","665","ND"],
    [84525,"2019-12-27T16:00:00","ND","ND","ND","ND","27.1","0","0.9","359.7","ND","ND","609","ND"],
    [84526,"2019-12-27T17:00:00","15.9","ND","ND","ND","18.2","0","0.5","213","ND","ND","361","0"],
    [84527,"2019-12-27T18:00:00","43.6","ND","ND","ND","19.7","0","0.9","266.5","ND","ND","269","0"],
    [84528,"2019-12-27T19:00:00","ND","ND","ND","ND","10.2","0.8","0.7","52.9","ND","ND","0","0"],
    [84529,"2019-12-27T20:00:00","54.5","ND","ND","ND","4","1","0.2","355.3","ND","ND","0","ND"],
    [84530,"2019-12-27T21:00:00","40.3","ND","ND","ND","3.6","0.2","0.2","335.3","ND","ND","0","0"],
    [84531,"2019-12-27T22:00:00","17.8","ND","ND","ND","3.7","2.6","0.7","105.1","ND","ND","0","0"],
    [84532,"2019-12-27T23:00:00","6.7","ND","ND","ND","3.8","1.5","0.6","176.7","ND","ND","0","0"],
    [84533,"2019-12-28T00:00:00","17.3","ND","ND","ND","9","0","0.4","198.8","ND","ND","0","ND"],
    [84534,"2019-12-28T01:00:00","17.1","ND","ND","ND","5.6","0.1","0.8","5.1","ND","ND","0","ND"],
    [84535,"2019-12-28T02:00:00","36.7","ND","ND","ND","3.4","1.6","0.3","241.6","ND","ND","0","ND"],
    [84536,"2019-12-28T03:00:00","36.9","ND","ND","ND","3.5","1.5","0.3","222.3","ND","ND","0","ND"],
    [84537,"2019-12-28T04:00:00","13.7","ND","ND","ND","3.8","0.9","0.2","11.8","ND","ND","0","ND"],
    [84538,"2019-12-28T05:00:00","20.7","ND","ND","ND","3.5","5.4","0.6","348.8","ND","ND","0","ND"],
    [84539,"2019-12-28T06:00:00","47.8","ND","ND","ND","3.5","4.5","0.2","356","ND","ND","0","0"],
    [84540,"2019-12-28T07:00:00","51.2","ND","ND","ND","3.9","3.9","0.6","24.8","ND","ND","0","ND"],
    [84541,"2019-12-28T08:00:00","53.1","ND","ND","ND","4.6","4.4","0.6","352.2","ND","ND","35","ND"],
    [84542,"2019-12-28T09:00:00","59.4","ND","ND","ND","7.4","3.2","0.6","39.6","ND","ND","202","ND"],
    [84543,"2019-12-28T10:00:00","62","ND","ND","ND","16.8","1.3","0.8","13.9","ND","ND","551","0"],
    [84544,"2019-12-28T11:00:00","34.2","ND","ND","ND","32.2","1.1","0.7","63.7","ND","ND","662","0"],
    [84545,"2019-12-28T12:00:00","32.9","ND","ND","ND","59.2","0","0.8","118.5","ND","ND","665","0"],
    [84546,"2019-12-28T13:00:00","21.9","ND","ND","ND","71.6","0","1.1","75.4","ND","ND","665","0"],
    [84547,"2019-12-28T14:00:00","ND","ND","ND","ND","81.5","0.1","0.3","91.8","ND","ND","664","ND"],
    [84548,"2019-12-28T15:00:00","17","ND","ND","ND","75.2","0","1.3","226","ND","ND","658","ND"],
    [84549,"2019-12-28T16:00:00","22.7","ND","ND","ND","56.2","0","0.7","316.9","ND","ND","666","0.5"],
    [84550,"2019-12-28T17:00:00","19.3","ND","ND","ND","41","0","2.1","248.2","ND","ND","347","0"],
    [84551,"2019-12-28T18:00:00","33.8","ND","ND","ND","34.3","0","1.1","221.7","ND","ND","230","0"],
    [84552,"2019-12-28T19:00:00","29.2","ND","ND","ND","20.4","0","0.3","52.3","ND","ND","0","0"],
    [84553,"2019-12-28T20:00:00","30","ND","ND","ND","10","0","0.5","93.3","ND","ND","0","0"],
    [84554,"2019-12-28T21:00:00","27.9","ND","ND","ND","5.4","0.8","0.6","79.8","ND","ND","0","0"],
    [84555,"2019-12-28T22:00:00","43.4","ND","ND","ND","4.7","1.7","0.3","31.5","ND","ND","0","0"],
    [84556,"2019-12-28T23:00:00","49.1","ND","ND","ND","5.4","2.6","0.3","85.4","ND","ND","0","ND"],
    [84557,"2019-12-29T00:00:00","63.7","ND","ND","ND","9.8","3","0.5","109","ND","ND","0","0"],
    [84558,"2019-12-29T01:00:00","74","ND","ND","ND","21.9","2.7","0.6","126.3","ND","ND","0","0"],
    [84559,"2019-12-29T02:00:00","140.8","ND","ND","ND","26","3.8","0.6","22.4","ND","ND","0","0"],
    [84560,"2019-12-29T03:00:00","113.4","ND","ND","ND","15.3","5.5","0.5","355.9","ND","ND","0","0"],
    [84561,"2019-12-29T04:00:00","92.5","ND","ND","ND","11.8","2.9","0.5","349.6","ND","ND","0","0"],
    [84562,"2019-12-29T05:00:00","82.8","ND","ND","ND","8.7","2.4","0.4","3.1","ND","ND","0","0"],
    [84563,"2019-12-29T06:00:00","60.3","ND","ND","ND","6.8","2.3","0.5","357.4","ND","ND","0","0"],
    [84564,"2019-12-29T07:00:00","67.6","ND","ND","ND","5.7","3.6","0.5","354.8","ND","ND","0","0"],
    [84565,"2019-12-29T08:00:00","58","ND","ND","ND","5.1","1.6","0.4","82.4","ND","ND","50","0"],
    [84566,"2019-12-29T09:00:00","48.9","ND","ND","ND","7.6","1.3","0.2","119.6","ND","ND","235","0"],
    [84567,"2019-12-29T10:00:00","46.7","ND","ND","ND","24.4","0","1.8","107.1","ND","ND","532","0"],
    [84568,"2019-12-29T11:00:00","ND","ND","ND","ND","41.7","0.4","1.5","90.5","ND","ND","665","0"],
    [84569,"2019-12-29T12:00:00","ND","ND","ND","ND","47.6","0","0.7","277.7","ND","ND","665","0"],
    [84570,"2019-12-29T13:00:00","1.3","ND","ND","ND","47.7","0","0.4","175.4","ND","ND","561","0"],
    [84571,"2019-12-29T14:00:00","19.5","ND","ND","ND","48.1","0","0.3","314.3","ND","ND","664","0"],
    [84572,"2019-12-29T15:00:00","2.1","ND","ND","ND","35.4","0","1","249.6","ND","ND","577","0"],
    [84573,"2019-12-29T16:00:00","ND","ND","ND","ND","34","0","2.1","233.2","ND","ND","531","0"],
    [84574,"2019-12-29T17:00:00","3.5","ND","ND","ND","34.6","0","2.1","249.2","ND","ND","630","0"],
    [84575,"2019-12-29T18:00:00","7.4","ND","ND","ND","27.6","0","0.5","240.8","ND","ND","598","0"],
    [84576,"2019-12-29T19:00:00","7.9","ND","ND","ND","18.9","0","0.3","83","ND","ND","0","0.1"],
    [84577,"2019-12-29T20:00:00","14.7","ND","ND","ND","18.1","0","0.4","60.1","ND","ND","0","0"],
    [84578,"2019-12-29T21:00:00","20.9","ND","ND","ND","6.6","0","0.9","2.5","ND","ND","0","0"],
    [84579,"2019-12-29T22:00:00","24.1","ND","ND","ND","16.2","0","0.6","194.2","ND","ND","0","0"],
    [84580,"2019-12-29T23:00:00","15.2","ND","ND","ND","14.4","0","1.1","77.9","ND","ND","0","0"],
    [84581,"2019-12-30T00:00:00","31.3","ND","ND","ND","13.5","0.5","0.5","98.4","ND","ND","0","ND"],
    [84582,"2019-12-30T01:00:00","25","ND","ND","ND","12.5","0.6","1","3.5","ND","ND","0","0"],
    [84583,"2019-12-30T02:00:00","19.6","ND","ND","ND","13.5","2.6","0.9","353.6","ND","ND","0","0.5"],
    [84584,"2019-12-30T03:00:00","18.7","ND","ND","ND","17.1","1.7","0.9","12.7","ND","ND","0","1.1"],
    [84585,"2019-12-30T04:00:00","13.5","ND","ND","ND","6.8","2.4","0.6","319.6","ND","ND","0","0.1"],
    [84586,"2019-12-30T05:00:00","16.5","ND","ND","ND","4","0.5","1.2","138","ND","ND","0","0"],
    [84587,"2019-12-30T06:00:00","17.5","ND","ND","ND","3.9","0","0.2","126.1","ND","ND","0","0"],
    [84588,"2019-12-30T07:00:00","23.9","ND","ND","ND","3.4","0","0.1","23.8","ND","ND","0","0"],
    [84589,"2019-12-30T08:00:00","43.3","ND","ND","ND","3.9","0","0.5","131.2","ND","ND","92","0"],
    [84590,"2019-12-30T09:00:00","31.3","ND","ND","ND","6.6","0","1","139.4","ND","ND","383","0"],
    [84591,"2019-12-30T10:00:00","14.6","ND","ND","ND","10.6","0","0.4","115.4","ND","ND","622","0"],
    [84592,"2019-12-30T11:00:00","15.7","ND","ND","ND","17.9","0","0.3","345.7","ND","ND","623","0"],
    [84593,"2019-12-30T12:00:00","11.2","ND","ND","ND","38.5","0","0.2","86.6","ND","ND","665","0"],
    [84594,"2019-12-30T13:00:00","6.5","ND","ND","ND","47.4","0","0.3","302.4","ND","ND","665","0"],
    [84595,"2019-12-30T14:00:00","15.3","ND","ND","ND","30.2","0.3","0.8","311.9","ND","ND","640","0"],
    [84596,"2019-12-30T15:00:00","ND","ND","ND","ND","17.6","0","2.5","249.5","ND","ND","552","0"],
    [84597,"2019-12-30T16:00:00","1.5","ND","ND","ND","18","0","1.8","248.7","ND","ND","625","0"],
    [84598,"2019-12-30T17:00:00","10.2","ND","ND","ND","19.3","0","2.2","224.5","ND","ND","574","0"],
    [84599,"2019-12-30T18:00:00","4.8","ND","ND","ND","15.5","0","2.2","131.3","ND","ND","0","0"],
    [84600,"2019-12-30T19:00:00","29.4","ND","ND","ND","7.7","0.9","0.1","275.7","ND","ND","0","0"],
    [84601,"2019-12-30T20:00:00","52.1","ND","ND","ND","5","0.1","0.1","95.2","ND","ND","0","0"],
    [84602,"2019-12-30T21:00:00","39.2","ND","ND","ND","3.6","0.8","1.2","120.3","ND","ND","0","0"],
    [84603,"2019-12-30T22:00:00","22.8","ND","ND","ND","3.6","0","1.3","128","ND","ND","0","0"],
    [84604,"2019-12-30T23:00:00","5","ND","ND","ND","3.6","0","1.3","132.9","ND","ND","0","0"],
    [84605,"2019-12-31T00:00:00","8.6","ND","ND","ND","3.7","0","1.1","135.5","ND","ND","0","0"],
    [84606,"2019-12-31T01:00:00","8.3","ND","ND","ND","3.5","0","0.6","136.8","ND","ND","0","0.9"],
    [84607,"2019-12-31T02:00:00","4.8","ND","ND","ND","3.7","0","1.1","122.1","ND","ND","0","0.1"],
    [84608,"2019-12-31T03:00:00","6.4","ND","ND","ND","4.3","0","1","127.2","ND","ND","0","0.5"],
    [84609,"2019-12-31T04:00:00","2.7","ND","ND","ND","4.9","0","0.5","140","ND","ND","0","6.3"],
    [84610,"2019-12-31T05:00:00","2.7","ND","ND","ND","5.4","0","0.2","322.6","ND","ND","0","7.3"],
    [84611,"2019-12-31T06:00:00","ND","ND","ND","ND","4.3","0","0.2","236","ND","ND","0","3.5"],
    [84612,"2019-12-31T07:00:00","17.6","ND","ND","ND","3.8","0","0.2","233.3","ND","ND","0","0.3"],
    [84613,"2019-12-31T08:00:00","30.8","ND","ND","ND","4.3","0","0.4","354.7","ND","ND","29","0.1"],
    [84614,"2019-12-31T09:00:00","26.8","ND","ND","ND","8.4","0","0.3","59.1","ND","ND","396","0"],
    [84615,"2019-12-31T10:00:00","ND","ND","ND","ND","14.8","0","0.5","100.9","ND","ND","589","0"],
    [84616,"2019-12-31T11:00:00","ND","ND","ND","ND","15.6","0","0.9","48.4","ND","ND","661","0.1"],
    [84617,"2019-12-31T12:00:00","9.1","ND","ND","ND","27.5","0","0.2","215.5","ND","ND","618","0"],
    [84618,"2019-12-31T13:00:00","25.8","ND","ND","ND","25.3","0","1.5","247.7","ND","ND","665","0"],
    [84619,"2019-12-31T14:00:00","ND","ND","ND","ND","14.7","0","0.3","268.5","ND","ND","523","0"],
    [84620,"2019-12-31T15:00:00","ND","ND","ND","ND","14.4","0","1.9","252.1","ND","ND","665","0"],
    [84621,"2019-12-31T16:00:00","15.2","ND","ND","ND","14.3","0","2.5","258.3","ND","ND","665","0"],
    [84622,"2019-12-31T17:00:00","ND","ND","ND","ND","12.7","0","0.5","201.5","ND","ND","639","0"],
    [84623,"2019-12-31T18:00:00","ND","ND","ND","ND","11.8","0","0.4","353.1","ND","ND","361","0"],
    [84624,"2019-12-31T19:00:00","13.3","ND","ND","ND","4.1","0.2","1","39.1","ND","ND","0","0"],
    [84625,"2019-12-31T20:00:00","72.7","ND","ND","ND","4.1","0","0.8","8.9","ND","ND","0","0"],
    [84626,"2019-12-31T21:00:00","33.7","ND","ND","ND","4.5","0","1.2","83.2","ND","ND","0","0"],
    [84627,"2019-12-31T22:00:00","6.7","ND","ND","ND","4.3","0","1.3","106.4","ND","ND","0","0"],
    [84628,"2019-12-31T23:00:00","14.6","ND","ND","ND","3.7","0","1.2","109.8","ND","ND","0","0"],
    [84629,"2020-01-01T00:00:00","29.1","ND","ND","ND","5.2","0","1.2","126.3","ND","ND","0","0"]
]}
